<?xml version="1.0" encoding="UTF-8" standalone="no" ?>
<gpx xmlns="http://www.topografix.com/GPX/1/1" xmlns:xsi="http://www.w3.org/2001/XMLSchema-instance" xsi:schemaLocation="http://www.topografix.com/GPX/1/1 http://www.topografix.com/GPX/1/1/gpx.xsd" version="1.1" creator="VisuGPX - https://www.visugpx.com">
  <metadata>
    <name>Traces 2022</name>
    <desc><![CDATA[8 traces potentielles pour la sortie 2022 !]]></desc>
  </metadata>
  <trk>
    <name><![CDATA[Trace 1]]></name>
    <desc><![CDATA[Tout en corniches + arche !]]></desc>
    <extensions>
      <line xmlns="http://www.topografix.com/GPX/gpx_style/0/2">
        <color>00ff00</color>
        <width>4</width>
          <extensions>
            <sens>1</sens>
          </extensions>
      </line>
    </extensions>
    <trkseg>
      <trkpt lat="44.12319" lon="3.11844">
        <ele>834.4</ele>
        <time>2021-09-30T12:06:37Z</time>
      </trkpt>
      <trkpt lat="44.1233" lon="3.11856">
        <ele>834.3</ele>
        <time>2021-09-30T12:06:39Z</time>
      </trkpt>
      <trkpt lat="44.12335" lon="3.1186">
        <ele>834.2</ele>
        <time>2021-09-30T12:06:40Z</time>
      </trkpt>
      <trkpt lat="44.12348" lon="3.11857">
        <ele>834</ele>
        <time>2021-09-30T12:06:42Z</time>
      </trkpt>
      <trkpt lat="44.12353" lon="3.11853">
        <ele>833.9</ele>
        <time>2021-09-30T12:06:43Z</time>
      </trkpt>
      <trkpt lat="44.12358" lon="3.1185">
        <ele>833.9</ele>
        <time>2021-09-30T12:06:44Z</time>
      </trkpt>
      <trkpt lat="44.12367" lon="3.11845">
        <ele>833.5</ele>
        <time>2021-09-30T12:06:46Z</time>
      </trkpt>
      <trkpt lat="44.1238" lon="3.11846">
        <ele>833</ele>
        <time>2021-09-30T12:06:48Z</time>
      </trkpt>
      <trkpt lat="44.12392" lon="3.11858">
        <ele>832.5</ele>
        <time>2021-09-30T12:06:50Z</time>
      </trkpt>
      <trkpt lat="44.12396" lon="3.11863">
        <ele>832.5</ele>
        <time>2021-09-30T12:06:51Z</time>
      </trkpt>
      <trkpt lat="44.12404" lon="3.1187">
        <ele>832.3</ele>
        <time>2021-09-30T12:06:53Z</time>
      </trkpt>
      <trkpt lat="44.1241" lon="3.1187">
        <ele>832.2</ele>
        <time>2021-09-30T12:06:54Z</time>
      </trkpt>
      <trkpt lat="44.12423" lon="3.11876">
        <ele>831.4</ele>
        <time>2021-09-30T12:06:56Z</time>
      </trkpt>
      <trkpt lat="44.12435" lon="3.11877">
        <ele>830.8</ele>
        <time>2021-09-30T12:06:58Z</time>
      </trkpt>
      <trkpt lat="44.12441" lon="3.11872">
        <ele>830.2</ele>
        <time>2021-09-30T12:06:59Z</time>
      </trkpt>
      <trkpt lat="44.12447" lon="3.11867">
        <ele>829.1</ele>
        <time>2021-09-30T12:07:00Z</time>
      </trkpt>
      <trkpt lat="44.1246" lon="3.11857">
        <ele>827.2</ele>
        <time>2021-09-30T12:07:02Z</time>
      </trkpt>
      <trkpt lat="44.12474" lon="3.11853">
        <ele>825.4</ele>
        <time>2021-09-30T12:07:04Z</time>
      </trkpt>
      <trkpt lat="44.12481" lon="3.11851">
        <ele>824.4</ele>
        <time>2021-09-30T12:07:05Z</time>
      </trkpt>
      <trkpt lat="44.12489" lon="3.11849">
        <ele>823.2</ele>
        <time>2021-09-30T12:07:06Z</time>
      </trkpt>
      <trkpt lat="44.12505" lon="3.11847">
        <ele>820.8</ele>
        <time>2021-09-30T12:07:08Z</time>
      </trkpt>
      <trkpt lat="44.12519" lon="3.1185">
        <ele>818.9</ele>
        <time>2021-09-30T12:07:10Z</time>
      </trkpt>
      <trkpt lat="44.12525" lon="3.11853">
        <ele>818.3</ele>
        <time>2021-09-30T12:07:11Z</time>
      </trkpt>
      <trkpt lat="44.12528" lon="3.11855">
        <ele>817.9</ele>
        <time>2021-09-30T12:07:12Z</time>
      </trkpt>
      <trkpt lat="44.12538" lon="3.11854">
        <ele>816.6</ele>
        <time>2021-09-30T12:07:14Z</time>
      </trkpt>
      <trkpt lat="44.12549" lon="3.11852">
        <ele>814.7</ele>
        <time>2021-09-30T12:07:16Z</time>
      </trkpt>
      <trkpt lat="44.12562" lon="3.11851">
        <ele>812.7</ele>
        <time>2021-09-30T12:07:18Z</time>
      </trkpt>
      <trkpt lat="44.12575" lon="3.11847">
        <ele>810.7</ele>
        <time>2021-09-30T12:07:20Z</time>
      </trkpt>
      <trkpt lat="44.1258" lon="3.11841">
        <ele>809.6</ele>
        <time>2021-09-30T12:07:21Z</time>
      </trkpt>
      <trkpt lat="44.12587" lon="3.11836">
        <ele>808.5</ele>
        <time>2021-09-30T12:07:22Z</time>
      </trkpt>
      <trkpt lat="44.12602" lon="3.11833">
        <ele>806.2</ele>
        <time>2021-09-30T12:07:24Z</time>
      </trkpt>
      <trkpt lat="44.12611" lon="3.11827">
        <ele>804.7</ele>
        <time>2021-09-30T12:07:26Z</time>
      </trkpt>
      <trkpt lat="44.12613" lon="3.11822">
        <ele>804.5</ele>
        <time>2021-09-30T12:07:27Z</time>
      </trkpt>
      <trkpt lat="44.12611" lon="3.11821">
        <ele>804.6</ele>
        <time>2021-09-30T12:07:28Z</time>
      </trkpt>
      <trkpt lat="44.1261" lon="3.11821">
        <ele>805.1</ele>
        <time>2021-09-30T12:07:29Z</time>
      </trkpt>
      <trkpt lat="44.12608" lon="3.11821">
        <ele>805.2</ele>
        <time>2021-09-30T12:07:30Z</time>
      </trkpt>
      <trkpt lat="44.12605" lon="3.11819">
        <ele>805.7</ele>
        <time>2021-09-30T12:07:31Z</time>
      </trkpt>
      <trkpt lat="44.12602" lon="3.11816">
        <ele>806.1</ele>
        <time>2021-09-30T12:07:32Z</time>
      </trkpt>
      <trkpt lat="44.12601" lon="3.11815">
        <ele>806.6</ele>
        <time>2021-09-30T12:07:33Z</time>
      </trkpt>
      <trkpt lat="44.12598" lon="3.11812">
        <ele>807</ele>
        <time>2021-09-30T12:07:35Z</time>
      </trkpt>
      <trkpt lat="44.12595" lon="3.11813">
        <ele>807.1</ele>
        <time>2021-09-30T12:07:37Z</time>
      </trkpt>
      <trkpt lat="44.12595" lon="3.11815">
        <ele>807.7</ele>
        <time>2021-09-30T12:07:38Z</time>
      </trkpt>
      <trkpt lat="44.12593" lon="3.11812">
        <ele>807.6</ele>
        <time>2021-09-30T12:07:39Z</time>
      </trkpt>
      <trkpt lat="44.12591" lon="3.11808">
        <ele>808</ele>
        <time>2021-09-30T12:07:41Z</time>
      </trkpt>
      <trkpt lat="44.12589" lon="3.11803">
        <ele>808.5</ele>
        <time>2021-09-30T12:07:42Z</time>
      </trkpt>
      <trkpt lat="44.12586" lon="3.11798">
        <ele>808.9</ele>
        <time>2021-09-30T12:07:43Z</time>
      </trkpt>
      <trkpt lat="44.12584" lon="3.11794">
        <ele>809</ele>
        <time>2021-09-30T12:07:44Z</time>
      </trkpt>
      <trkpt lat="44.12582" lon="3.11789">
        <ele>809.5</ele>
        <time>2021-09-30T12:07:45Z</time>
      </trkpt>
      <trkpt lat="44.12581" lon="3.11783">
        <ele>809.7</ele>
        <time>2021-09-30T12:07:46Z</time>
      </trkpt>
      <trkpt lat="44.1258" lon="3.11776">
        <ele>809.8</ele>
        <time>2021-09-30T12:07:48Z</time>
      </trkpt>
      <trkpt lat="44.1258" lon="3.11771">
        <ele>809.9</ele>
        <time>2021-09-30T12:07:49Z</time>
      </trkpt>
      <trkpt lat="44.12581" lon="3.11764">
        <ele>810</ele>
        <time>2021-09-30T12:07:50Z</time>
      </trkpt>
      <trkpt lat="44.12581" lon="3.11757">
        <ele>810.2</ele>
        <time>2021-09-30T12:07:52Z</time>
      </trkpt>
      <trkpt lat="44.12579" lon="3.11749">
        <ele>810.9</ele>
        <time>2021-09-30T12:07:53Z</time>
      </trkpt>
      <trkpt lat="44.12577" lon="3.11745">
        <ele>811</ele>
        <time>2021-09-30T12:07:54Z</time>
      </trkpt>
      <trkpt lat="44.12572" lon="3.1174">
        <ele>812</ele>
        <time>2021-09-30T12:07:56Z</time>
      </trkpt>
      <trkpt lat="44.12569" lon="3.11734">
        <ele>812.6</ele>
        <time>2021-09-30T12:07:57Z</time>
      </trkpt>
      <trkpt lat="44.12569" lon="3.11729">
        <ele>812.7</ele>
        <time>2021-09-30T12:07:58Z</time>
      </trkpt>
      <trkpt lat="44.12569" lon="3.11724">
        <ele>812.9</ele>
        <time>2021-09-30T12:08:00Z</time>
      </trkpt>
      <trkpt lat="44.12569" lon="3.11723">
        <ele>813.1</ele>
        <time>2021-09-30T12:08:01Z</time>
      </trkpt>
      <trkpt lat="44.12569" lon="3.11717">
        <ele>813.3</ele>
        <time>2021-09-30T12:08:02Z</time>
      </trkpt>
      <trkpt lat="44.12568" lon="3.11712">
        <ele>813.4</ele>
        <time>2021-09-30T12:08:03Z</time>
      </trkpt>
      <trkpt lat="44.12567" lon="3.11707">
        <ele>814</ele>
        <time>2021-09-30T12:08:04Z</time>
      </trkpt>
      <trkpt lat="44.12566" lon="3.11701">
        <ele>814.1</ele>
        <time>2021-09-30T12:08:06Z</time>
      </trkpt>
      <trkpt lat="44.12564" lon="3.11694">
        <ele>814.6</ele>
        <time>2021-09-30T12:08:07Z</time>
      </trkpt>
      <trkpt lat="44.12563" lon="3.1169">
        <ele>814.7</ele>
        <time>2021-09-30T12:08:08Z</time>
      </trkpt>
      <trkpt lat="44.12561" lon="3.11686">
        <ele>814.8</ele>
        <time>2021-09-30T12:08:10Z</time>
      </trkpt>
      <trkpt lat="44.12558" lon="3.11682">
        <ele>815.3</ele>
        <time>2021-09-30T12:08:11Z</time>
      </trkpt>
      <trkpt lat="44.12554" lon="3.11679">
        <ele>816</ele>
        <time>2021-09-30T12:08:13Z</time>
      </trkpt>
      <trkpt lat="44.12551" lon="3.11675">
        <ele>816.4</ele>
        <time>2021-09-30T12:08:14Z</time>
      </trkpt>
      <trkpt lat="44.12548" lon="3.11672">
        <ele>816.8</ele>
        <time>2021-09-30T12:08:15Z</time>
      </trkpt>
      <trkpt lat="44.12544" lon="3.11667">
        <ele>817</ele>
        <time>2021-09-30T12:08:17Z</time>
      </trkpt>
      <trkpt lat="44.12541" lon="3.11662">
        <ele>817.2</ele>
        <time>2021-09-30T12:08:18Z</time>
      </trkpt>
      <trkpt lat="44.1254" lon="3.11656">
        <ele>817.3</ele>
        <time>2021-09-30T12:08:19Z</time>
      </trkpt>
      <trkpt lat="44.12539" lon="3.11648">
        <ele>817.4</ele>
        <time>2021-09-30T12:08:21Z</time>
      </trkpt>
      <trkpt lat="44.1254" lon="3.11642">
        <ele>817.3</ele>
        <time>2021-09-30T12:08:22Z</time>
      </trkpt>
      <trkpt lat="44.12542" lon="3.11635">
        <ele>817.2</ele>
        <time>2021-09-30T12:08:23Z</time>
      </trkpt>
      <trkpt lat="44.12544" lon="3.1163">
        <ele>817.2</ele>
        <time>2021-09-30T12:08:24Z</time>
      </trkpt>
      <trkpt lat="44.12545" lon="3.11621">
        <ele>817.1</ele>
        <time>2021-09-30T12:08:26Z</time>
      </trkpt>
      <trkpt lat="44.12544" lon="3.11613">
        <ele>817</ele>
        <time>2021-09-30T12:08:27Z</time>
      </trkpt>
      <trkpt lat="44.12543" lon="3.11604">
        <ele>816.9</ele>
        <time>2021-09-30T12:08:28Z</time>
      </trkpt>
      <trkpt lat="44.1253" lon="3.11585">
        <ele>816.7</ele>
        <time>2021-09-30T12:08:30Z</time>
      </trkpt>
      <trkpt lat="44.12524" lon="3.1158">
        <ele>816.6</ele>
        <time>2021-09-30T12:08:31Z</time>
      </trkpt>
      <trkpt lat="44.12514" lon="3.11569">
        <ele>816.5</ele>
        <time>2021-09-30T12:08:33Z</time>
      </trkpt>
      <trkpt lat="44.12508" lon="3.1155">
        <ele>816.4</ele>
        <time>2021-09-30T12:08:35Z</time>
      </trkpt>
      <trkpt lat="44.12506" lon="3.11541">
        <ele>816.3</ele>
        <time>2021-09-30T12:08:36Z</time>
      </trkpt>
      <trkpt lat="44.12497" lon="3.1153">
        <ele>816.1</ele>
        <time>2021-09-30T12:08:38Z</time>
      </trkpt>
      <trkpt lat="44.12485" lon="3.11525">
        <ele>816</ele>
        <time>2021-09-30T12:08:40Z</time>
      </trkpt>
      <trkpt lat="44.12473" lon="3.1152">
        <ele>815.7</ele>
        <time>2021-09-30T12:08:42Z</time>
      </trkpt>
      <trkpt lat="44.1247" lon="3.11517">
        <ele>815.6</ele>
        <time>2021-09-30T12:08:43Z</time>
      </trkpt>
      <trkpt lat="44.12467" lon="3.11516">
        <ele>815.6</ele>
        <time>2021-09-30T12:08:44Z</time>
      </trkpt>
      <trkpt lat="44.12454" lon="3.1151">
        <ele>815.3</ele>
        <time>2021-09-30T12:08:46Z</time>
      </trkpt>
      <trkpt lat="44.12447" lon="3.11507">
        <ele>815.2</ele>
        <time>2021-09-30T12:08:47Z</time>
      </trkpt>
      <trkpt lat="44.12434" lon="3.11498">
        <ele>814.9</ele>
        <time>2021-09-30T12:08:49Z</time>
      </trkpt>
      <trkpt lat="44.12427" lon="3.11493">
        <ele>814.7</ele>
        <time>2021-09-30T12:08:50Z</time>
      </trkpt>
      <trkpt lat="44.1242" lon="3.11488">
        <ele>814.5</ele>
        <time>2021-09-30T12:08:51Z</time>
      </trkpt>
      <trkpt lat="44.1241" lon="3.11484">
        <ele>814.2</ele>
        <time>2021-09-30T12:08:53Z</time>
      </trkpt>
      <trkpt lat="44.12397" lon="3.11477">
        <ele>813.7</ele>
        <time>2021-09-30T12:08:55Z</time>
      </trkpt>
      <trkpt lat="44.12393" lon="3.11471">
        <ele>813.5</ele>
        <time>2021-09-30T12:08:56Z</time>
      </trkpt>
      <trkpt lat="44.12383" lon="3.11458">
        <ele>813.1</ele>
        <time>2021-09-30T12:08:58Z</time>
      </trkpt>
      <trkpt lat="44.12374" lon="3.11447">
        <ele>812.7</ele>
        <time>2021-09-30T12:09:00Z</time>
      </trkpt>
      <trkpt lat="44.12369" lon="3.11442">
        <ele>812.6</ele>
        <time>2021-09-30T12:09:01Z</time>
      </trkpt>
      <trkpt lat="44.12357" lon="3.11433">
        <ele>812.1</ele>
        <time>2021-09-30T12:09:03Z</time>
      </trkpt>
      <trkpt lat="44.12347" lon="3.11427">
        <ele>811.8</ele>
        <time>2021-09-30T12:09:05Z</time>
      </trkpt>
      <trkpt lat="44.12343" lon="3.11425">
        <ele>811.7</ele>
        <time>2021-09-30T12:09:06Z</time>
      </trkpt>
      <trkpt lat="44.12333" lon="3.1142">
        <ele>811.4</ele>
        <time>2021-09-30T12:09:08Z</time>
      </trkpt>
      <trkpt lat="44.12326" lon="3.11419">
        <ele>811.2</ele>
        <time>2021-09-30T12:09:09Z</time>
      </trkpt>
      <trkpt lat="44.12315" lon="3.11419">
        <ele>810.9</ele>
        <time>2021-09-30T12:09:11Z</time>
      </trkpt>
      <trkpt lat="44.1231" lon="3.11419">
        <ele>810.8</ele>
        <time>2021-09-30T12:09:12Z</time>
      </trkpt>
      <trkpt lat="44.123" lon="3.11417">
        <ele>810.6</ele>
        <time>2021-09-30T12:09:14Z</time>
      </trkpt>
      <trkpt lat="44.12291" lon="3.11415">
        <ele>810.4</ele>
        <time>2021-09-30T12:09:16Z</time>
      </trkpt>
      <trkpt lat="44.12279" lon="3.11414">
        <ele>810.1</ele>
        <time>2021-09-30T12:09:18Z</time>
      </trkpt>
      <trkpt lat="44.12273" lon="3.11413">
        <ele>810</ele>
        <time>2021-09-30T12:09:19Z</time>
      </trkpt>
      <trkpt lat="44.12263" lon="3.11412">
        <ele>809.8</ele>
        <time>2021-09-30T12:09:21Z</time>
      </trkpt>
      <trkpt lat="44.12258" lon="3.11411">
        <ele>809.7</ele>
        <time>2021-09-30T12:09:22Z</time>
      </trkpt>
      <trkpt lat="44.12247" lon="3.11408">
        <ele>809.4</ele>
        <time>2021-09-30T12:09:24Z</time>
      </trkpt>
      <trkpt lat="44.12237" lon="3.11409">
        <ele>809.2</ele>
        <time>2021-09-30T12:09:26Z</time>
      </trkpt>
      <trkpt lat="44.12233" lon="3.1141">
        <ele>809.1</ele>
        <time>2021-09-30T12:09:27Z</time>
      </trkpt>
      <trkpt lat="44.12228" lon="3.11409">
        <ele>808.9</ele>
        <time>2021-09-30T12:09:29Z</time>
      </trkpt>
      <trkpt lat="44.12222" lon="3.11406">
        <ele>808.8</ele>
        <time>2021-09-30T12:09:30Z</time>
      </trkpt>
      <trkpt lat="44.12216" lon="3.11404">
        <ele>808.6</ele>
        <time>2021-09-30T12:09:31Z</time>
      </trkpt>
      <trkpt lat="44.12209" lon="3.11401">
        <ele>808.5</ele>
        <time>2021-09-30T12:09:32Z</time>
      </trkpt>
      <trkpt lat="44.12203" lon="3.11397">
        <ele>808.3</ele>
        <time>2021-09-30T12:09:33Z</time>
      </trkpt>
      <trkpt lat="44.12189" lon="3.11391">
        <ele>808</ele>
        <time>2021-09-30T12:09:35Z</time>
      </trkpt>
      <trkpt lat="44.12178" lon="3.11384">
        <ele>807.9</ele>
        <time>2021-09-30T12:09:37Z</time>
      </trkpt>
      <trkpt lat="44.12172" lon="3.1138">
        <ele>803.7</ele>
        <time>2021-09-30T12:09:38Z</time>
      </trkpt>
      <trkpt lat="44.12162" lon="3.11373">
        <ele>802.2</ele>
        <time>2021-09-30T12:09:40Z</time>
      </trkpt>
      <trkpt lat="44.12156" lon="3.11367">
        <ele>801.4</ele>
        <time>2021-09-30T12:09:41Z</time>
      </trkpt>
      <trkpt lat="44.12151" lon="3.11362">
        <ele>800.7</ele>
        <time>2021-09-30T12:09:42Z</time>
      </trkpt>
      <trkpt lat="44.12141" lon="3.11354">
        <ele>799.4</ele>
        <time>2021-09-30T12:09:44Z</time>
      </trkpt>
      <trkpt lat="44.12134" lon="3.11344">
        <ele>794.2</ele>
        <time>2019-04-19T11:43:36Z</time>
      </trkpt>
      <trkpt lat="44.12131" lon="3.11339">
        <ele>793.4</ele>
        <time>2019-04-19T11:43:37Z</time>
      </trkpt>
      <trkpt lat="44.12124" lon="3.11332">
        <ele>792.3</ele>
        <time>2019-04-19T11:43:38Z</time>
      </trkpt>
      <trkpt lat="44.1212" lon="3.11327">
        <ele>791.7</ele>
        <time>2019-04-19T11:43:39Z</time>
      </trkpt>
      <trkpt lat="44.12116" lon="3.11323">
        <ele>791</ele>
        <time>2019-04-19T11:43:40Z</time>
      </trkpt>
      <trkpt lat="44.12113" lon="3.1132">
        <ele>790.5</ele>
        <time>2019-04-19T11:43:41Z</time>
      </trkpt>
      <trkpt lat="44.12108" lon="3.11317">
        <ele>789.8</ele>
        <time>2019-04-19T11:43:42Z</time>
      </trkpt>
      <trkpt lat="44.12105" lon="3.11314">
        <ele>789.4</ele>
        <time>2019-04-19T11:43:43Z</time>
      </trkpt>
      <trkpt lat="44.12102" lon="3.11313">
        <ele>789</ele>
        <time>2019-04-19T11:43:44Z</time>
      </trkpt>
      <trkpt lat="44.12099" lon="3.11314">
        <ele>789.3</ele>
        <time>2019-04-19T11:43:45Z</time>
      </trkpt>
      <trkpt lat="44.12097" lon="3.11311">
        <ele>789.6</ele>
        <time>2019-04-19T11:43:48Z</time>
      </trkpt>
      <trkpt lat="44.12093" lon="3.1131">
        <ele>789.9</ele>
        <time>2019-04-19T11:43:51Z</time>
      </trkpt>
      <trkpt lat="44.12089" lon="3.11311">
        <ele>790.3</ele>
        <time>2019-04-19T11:43:53Z</time>
      </trkpt>
      <trkpt lat="44.12085" lon="3.11312">
        <ele>790.6</ele>
        <time>2019-04-19T11:43:54Z</time>
      </trkpt>
      <trkpt lat="44.12082" lon="3.11313">
        <ele>790.9</ele>
        <time>2019-04-19T11:43:55Z</time>
      </trkpt>
      <trkpt lat="44.12078" lon="3.11314">
        <ele>791.1</ele>
        <time>2019-04-19T11:43:56Z</time>
      </trkpt>
      <trkpt lat="44.12075" lon="3.11314">
        <ele>791.4</ele>
        <time>2019-04-19T11:43:57Z</time>
      </trkpt>
      <trkpt lat="44.12071" lon="3.11312">
        <ele>791.5</ele>
        <time>2019-04-19T11:43:58Z</time>
      </trkpt>
      <trkpt lat="44.12067" lon="3.11309">
        <ele>791.7</ele>
        <time>2019-04-19T11:43:59Z</time>
      </trkpt>
      <trkpt lat="44.12062" lon="3.11306">
        <ele>791.9</ele>
        <time>2019-04-19T11:44:00Z</time>
      </trkpt>
      <trkpt lat="44.12055" lon="3.11301">
        <ele>792.2</ele>
        <time>2019-04-19T11:44:01Z</time>
      </trkpt>
      <trkpt lat="44.12053" lon="3.11299">
        <ele>792.4</ele>
        <time>2019-04-19T11:44:02Z</time>
      </trkpt>
      <trkpt lat="44.1205" lon="3.11298">
        <ele>792.6</ele>
        <time>2019-04-19T11:44:03Z</time>
      </trkpt>
      <trkpt lat="44.12046" lon="3.11297">
        <ele>792.9</ele>
        <time>2019-04-19T11:44:04Z</time>
      </trkpt>
      <trkpt lat="44.12043" lon="3.11295">
        <ele>793.1</ele>
        <time>2019-04-19T11:44:05Z</time>
      </trkpt>
      <trkpt lat="44.12039" lon="3.11298">
        <ele>793.5</ele>
        <time>2019-04-19T11:44:06Z</time>
      </trkpt>
      <trkpt lat="44.12033" lon="3.11297">
        <ele>793.9</ele>
        <time>2019-04-19T11:44:07Z</time>
      </trkpt>
      <trkpt lat="44.1203" lon="3.11295">
        <ele>794.1</ele>
        <time>2019-04-19T11:44:08Z</time>
      </trkpt>
      <trkpt lat="44.12026" lon="3.11296">
        <ele>794.5</ele>
        <time>2019-04-19T11:44:10Z</time>
      </trkpt>
      <trkpt lat="44.12018" lon="3.11299">
        <ele>795.2</ele>
        <time>2019-04-19T11:44:11Z</time>
      </trkpt>
      <trkpt lat="44.12015" lon="3.113">
        <ele>795.5</ele>
        <time>2019-04-19T11:44:12Z</time>
      </trkpt>
      <trkpt lat="44.1201" lon="3.11302">
        <ele>795.9</ele>
        <time>2019-04-19T11:44:14Z</time>
      </trkpt>
      <trkpt lat="44.12005" lon="3.11304">
        <ele>796.3</ele>
        <time>2019-04-19T11:44:16Z</time>
      </trkpt>
      <trkpt lat="44.12002" lon="3.11302">
        <ele>796.6</ele>
        <time>2019-04-19T11:44:18Z</time>
      </trkpt>
      <trkpt lat="44.12" lon="3.11299">
        <ele>796.8</ele>
        <time>2019-04-19T11:44:19Z</time>
      </trkpt>
      <trkpt lat="44.11998" lon="3.11295">
        <ele>796.9</ele>
        <time>2019-04-19T11:44:20Z</time>
      </trkpt>
      <trkpt lat="44.11995" lon="3.11292">
        <ele>797.1</ele>
        <time>2019-04-19T11:44:21Z</time>
      </trkpt>
      <trkpt lat="44.11993" lon="3.11289">
        <ele>797.3</ele>
        <time>2019-04-19T11:44:22Z</time>
      </trkpt>
      <trkpt lat="44.11991" lon="3.11285">
        <ele>797.4</ele>
        <time>2019-04-19T11:44:23Z</time>
      </trkpt>
      <trkpt lat="44.11987" lon="3.1128">
        <ele>797.5</ele>
        <time>2019-04-19T11:44:24Z</time>
      </trkpt>
      <trkpt lat="44.11984" lon="3.11275">
        <ele>797.7</ele>
        <time>2019-04-19T11:44:25Z</time>
      </trkpt>
      <trkpt lat="44.11981" lon="3.11272">
        <ele>797.8</ele>
        <time>2019-04-19T11:44:26Z</time>
      </trkpt>
      <trkpt lat="44.11977" lon="3.11273">
        <ele>797.9</ele>
        <time>2019-04-19T11:44:28Z</time>
      </trkpt>
      <trkpt lat="44.11974" lon="3.11273">
        <ele>798</ele>
        <time>2019-04-19T11:44:32Z</time>
      </trkpt>
      <trkpt lat="44.11971" lon="3.11271">
        <ele>798.1</ele>
        <time>2019-04-19T11:44:37Z</time>
      </trkpt>
      <trkpt lat="44.11967" lon="3.11267">
        <ele>798.2</ele>
        <time>2019-04-19T11:44:39Z</time>
      </trkpt>
      <trkpt lat="44.11965" lon="3.11265">
        <ele>798.3</ele>
        <time>2019-04-19T11:44:40Z</time>
      </trkpt>
      <trkpt lat="44.11961" lon="3.11262">
        <ele>798.4</ele>
        <time>2019-04-19T11:44:41Z</time>
      </trkpt>
      <trkpt lat="44.11957" lon="3.11259">
        <ele>798.5</ele>
        <time>2019-04-19T11:44:42Z</time>
      </trkpt>
      <trkpt lat="44.11954" lon="3.11257">
        <ele>798.5</ele>
        <time>2019-04-19T11:44:43Z</time>
      </trkpt>
      <trkpt lat="44.1195" lon="3.11255">
        <ele>798.5</ele>
        <time>2019-04-19T11:44:44Z</time>
      </trkpt>
      <trkpt lat="44.11943" lon="3.11246">
        <ele>798.6</ele>
        <time>2019-04-19T11:44:45Z</time>
      </trkpt>
      <trkpt lat="44.11929" lon="3.11243">
        <ele>799</ele>
        <time>2019-04-19T11:44:46Z</time>
      </trkpt>
      <trkpt lat="44.11928" lon="3.11238">
        <ele>799.3</ele>
        <time>2019-04-19T11:44:47Z</time>
      </trkpt>
      <trkpt lat="44.11925" lon="3.11234">
        <ele>799.5</ele>
        <time>2019-04-19T11:44:48Z</time>
      </trkpt>
      <trkpt lat="44.11921" lon="3.1123">
        <ele>800</ele>
        <time>2019-04-19T11:44:49Z</time>
      </trkpt>
      <trkpt lat="44.11918" lon="3.11225">
        <ele>800.3</ele>
        <time>2019-04-19T11:44:50Z</time>
      </trkpt>
      <trkpt lat="44.11914" lon="3.11217">
        <ele>800.8</ele>
        <time>2019-04-19T11:44:51Z</time>
      </trkpt>
      <trkpt lat="44.11909" lon="3.11215">
        <ele>800.9</ele>
        <time>2019-04-19T11:44:52Z</time>
      </trkpt>
      <trkpt lat="44.11906" lon="3.1121">
        <ele>801</ele>
        <time>2019-04-19T11:44:53Z</time>
      </trkpt>
      <trkpt lat="44.119" lon="3.11202">
        <ele>800.9</ele>
        <time>2019-04-19T11:44:54Z</time>
      </trkpt>
      <trkpt lat="44.11895" lon="3.11195">
        <ele>800.5</ele>
        <time>2019-04-19T11:44:55Z</time>
      </trkpt>
      <trkpt lat="44.11891" lon="3.11186">
        <ele>800.3</ele>
        <time>2019-04-19T11:44:56Z</time>
      </trkpt>
      <trkpt lat="44.11893" lon="3.11179">
        <ele>800.1</ele>
        <time>2019-04-19T11:44:57Z</time>
      </trkpt>
      <trkpt lat="44.11893" lon="3.11169">
        <ele>799.9</ele>
        <time>2019-04-19T11:44:58Z</time>
      </trkpt>
      <trkpt lat="44.11893" lon="3.1116">
        <ele>799.7</ele>
        <time>2019-04-19T11:44:59Z</time>
      </trkpt>
      <trkpt lat="44.11891" lon="3.11152">
        <ele>799.6</ele>
        <time>2019-04-19T11:45:00Z</time>
      </trkpt>
      <trkpt lat="44.11889" lon="3.1115">
        <ele>799.6</ele>
        <time>2019-04-19T11:45:01Z</time>
      </trkpt>
      <trkpt lat="44.11886" lon="3.11147">
        <ele>799.5</ele>
        <time>2019-04-19T11:45:02Z</time>
      </trkpt>
      <trkpt lat="44.11884" lon="3.11146">
        <ele>799.5</ele>
        <time>2019-04-19T11:45:03Z</time>
      </trkpt>
      <trkpt lat="44.11885" lon="3.11141">
        <ele>799.6</ele>
        <time>2019-04-19T11:45:05Z</time>
      </trkpt>
      <trkpt lat="44.11887" lon="3.11135">
        <ele>799.7</ele>
        <time>2019-04-19T11:45:07Z</time>
      </trkpt>
      <trkpt lat="44.11889" lon="3.11132">
        <ele>800.2</ele>
        <time>2019-04-19T11:45:08Z</time>
      </trkpt>
      <trkpt lat="44.11889" lon="3.11125">
        <ele>800.3</ele>
        <time>2019-04-19T11:45:09Z</time>
      </trkpt>
      <trkpt lat="44.1189" lon="3.11121">
        <ele>800.5</ele>
        <time>2019-04-19T11:45:10Z</time>
      </trkpt>
      <trkpt lat="44.11889" lon="3.11117">
        <ele>800.6</ele>
        <time>2019-04-19T11:45:11Z</time>
      </trkpt>
      <trkpt lat="44.11889" lon="3.11113">
        <ele>800.7</ele>
        <time>2019-04-19T11:45:12Z</time>
      </trkpt>
      <trkpt lat="44.11889" lon="3.11109">
        <ele>800.9</ele>
        <time>2019-04-19T11:45:13Z</time>
      </trkpt>
      <trkpt lat="44.11888" lon="3.11105">
        <ele>801.1</ele>
        <time>2019-04-19T11:45:14Z</time>
      </trkpt>
      <trkpt lat="44.11888" lon="3.111">
        <ele>801.4</ele>
        <time>2019-04-19T11:45:15Z</time>
      </trkpt>
      <trkpt lat="44.11887" lon="3.11094">
        <ele>801.8</ele>
        <time>2019-04-19T11:45:17Z</time>
      </trkpt>
      <trkpt lat="44.11886" lon="3.1109">
        <ele>802</ele>
        <time>2019-04-19T11:45:18Z</time>
      </trkpt>
      <trkpt lat="44.11885" lon="3.11086">
        <ele>802.3</ele>
        <time>2019-04-19T11:45:19Z</time>
      </trkpt>
      <trkpt lat="44.11884" lon="3.11081">
        <ele>802.6</ele>
        <time>2019-04-19T11:45:20Z</time>
      </trkpt>
      <trkpt lat="44.11884" lon="3.11075">
        <ele>802.9</ele>
        <time>2019-04-19T11:45:21Z</time>
      </trkpt>
      <trkpt lat="44.11883" lon="3.1107">
        <ele>803</ele>
        <time>2019-04-19T11:45:22Z</time>
      </trkpt>
      <trkpt lat="44.11882" lon="3.11066">
        <ele>803.2</ele>
        <time>2019-04-19T11:45:23Z</time>
      </trkpt>
      <trkpt lat="44.11881" lon="3.11061">
        <ele>803.4</ele>
        <time>2019-04-19T11:45:24Z</time>
      </trkpt>
      <trkpt lat="44.11881" lon="3.11056">
        <ele>803.5</ele>
        <time>2019-04-19T11:45:25Z</time>
      </trkpt>
      <trkpt lat="44.11881" lon="3.11051">
        <ele>803.7</ele>
        <time>2019-04-19T11:45:26Z</time>
      </trkpt>
      <trkpt lat="44.11881" lon="3.11046">
        <ele>803.9</ele>
        <time>2019-04-19T11:45:27Z</time>
      </trkpt>
      <trkpt lat="44.11881" lon="3.11042">
        <ele>804.1</ele>
        <time>2019-04-19T11:45:28Z</time>
      </trkpt>
      <trkpt lat="44.11881" lon="3.11037">
        <ele>804.3</ele>
        <time>2019-04-19T11:45:29Z</time>
      </trkpt>
      <trkpt lat="44.11881" lon="3.11033">
        <ele>804.5</ele>
        <time>2019-04-19T11:45:30Z</time>
      </trkpt>
      <trkpt lat="44.1188" lon="3.11028">
        <ele>804.7</ele>
        <time>2019-04-19T11:45:31Z</time>
      </trkpt>
      <trkpt lat="44.11879" lon="3.11024">
        <ele>804.9</ele>
        <time>2019-04-19T11:45:32Z</time>
      </trkpt>
      <trkpt lat="44.11878" lon="3.11019">
        <ele>805.1</ele>
        <time>2019-04-19T11:45:33Z</time>
      </trkpt>
      <trkpt lat="44.11876" lon="3.11015">
        <ele>805.4</ele>
        <time>2019-04-19T11:45:34Z</time>
      </trkpt>
      <trkpt lat="44.11875" lon="3.11011">
        <ele>805.6</ele>
        <time>2019-04-19T11:45:35Z</time>
      </trkpt>
      <trkpt lat="44.11874" lon="3.11007">
        <ele>805.8</ele>
        <time>2019-04-19T11:45:36Z</time>
      </trkpt>
      <trkpt lat="44.11873" lon="3.11003">
        <ele>806</ele>
        <time>2019-04-19T11:45:37Z</time>
      </trkpt>
      <trkpt lat="44.11871" lon="3.10997">
        <ele>806.4</ele>
        <time>2019-04-19T11:45:39Z</time>
      </trkpt>
      <trkpt lat="44.11869" lon="3.10993">
        <ele>806.6</ele>
        <time>2019-04-19T11:45:40Z</time>
      </trkpt>
      <trkpt lat="44.11866" lon="3.10988">
        <ele>807</ele>
        <time>2019-04-19T11:45:42Z</time>
      </trkpt>
      <trkpt lat="44.11862" lon="3.10986">
        <ele>807.4</ele>
        <time>2019-04-19T11:45:44Z</time>
      </trkpt>
      <trkpt lat="44.11859" lon="3.10983">
        <ele>807.8</ele>
        <time>2019-04-19T11:45:46Z</time>
      </trkpt>
      <trkpt lat="44.11854" lon="3.10982">
        <ele>808.3</ele>
        <time>2019-04-19T11:45:48Z</time>
      </trkpt>
      <trkpt lat="44.11851" lon="3.10981">
        <ele>808.7</ele>
        <time>2019-04-19T11:45:49Z</time>
      </trkpt>
      <trkpt lat="44.11847" lon="3.10981">
        <ele>809</ele>
        <time>2019-04-19T11:45:51Z</time>
      </trkpt>
      <trkpt lat="44.11843" lon="3.1098">
        <ele>809.3</ele>
        <time>2019-04-19T11:45:53Z</time>
      </trkpt>
      <trkpt lat="44.11839" lon="3.1098">
        <ele>809.8</ele>
        <time>2019-04-19T11:45:55Z</time>
      </trkpt>
      <trkpt lat="44.11835" lon="3.10979">
        <ele>810.4</ele>
        <time>2019-04-19T11:45:57Z</time>
      </trkpt>
      <trkpt lat="44.11831" lon="3.10975">
        <ele>810.9</ele>
        <time>2019-04-19T11:45:59Z</time>
      </trkpt>
      <trkpt lat="44.11829" lon="3.10972">
        <ele>811.2</ele>
        <time>2019-04-19T11:46:01Z</time>
      </trkpt>
      <trkpt lat="44.11827" lon="3.10968">
        <ele>811.6</ele>
        <time>2019-04-19T11:46:03Z</time>
      </trkpt>
      <trkpt lat="44.11825" lon="3.10965">
        <ele>811.9</ele>
        <time>2019-04-19T11:46:04Z</time>
      </trkpt>
      <trkpt lat="44.11823" lon="3.10961">
        <ele>812.2</ele>
        <time>2019-04-19T11:46:05Z</time>
      </trkpt>
      <trkpt lat="44.1182" lon="3.10959">
        <ele>812.6</ele>
        <time>2019-04-19T11:46:06Z</time>
      </trkpt>
      <trkpt lat="44.11817" lon="3.10957">
        <ele>812.9</ele>
        <time>2019-04-19T11:46:07Z</time>
      </trkpt>
      <trkpt lat="44.11813" lon="3.10952">
        <ele>813.2</ele>
        <time>2019-04-19T11:46:09Z</time>
      </trkpt>
      <trkpt lat="44.11811" lon="3.1095">
        <ele>813.3</ele>
        <time>2019-04-19T11:46:10Z</time>
      </trkpt>
      <trkpt lat="44.11808" lon="3.10948">
        <ele>813.4</ele>
        <time>2019-04-19T11:46:11Z</time>
      </trkpt>
      <trkpt lat="44.11804" lon="3.10945">
        <ele>813.5</ele>
        <time>2019-04-19T11:46:13Z</time>
      </trkpt>
      <trkpt lat="44.11798" lon="3.10944">
        <ele>813.4</ele>
        <time>2019-04-19T11:46:15Z</time>
      </trkpt>
      <trkpt lat="44.11793" lon="3.10943">
        <ele>813.3</ele>
        <time>2019-04-19T11:46:16Z</time>
      </trkpt>
      <trkpt lat="44.11788" lon="3.10941">
        <ele>812.9</ele>
        <time>2019-04-19T11:46:17Z</time>
      </trkpt>
      <trkpt lat="44.11764" lon="3.10928">
        <ele>809.2</ele>
        <time>2019-04-19T11:46:19Z</time>
      </trkpt>
      <trkpt lat="44.11761" lon="3.10916">
        <ele>807.8</ele>
        <time>2019-04-19T11:46:20Z</time>
      </trkpt>
      <trkpt lat="44.11753" lon="3.10907">
        <ele>806.1</ele>
        <time>2019-04-19T11:46:21Z</time>
      </trkpt>
      <trkpt lat="44.1175" lon="3.10896">
        <ele>804.2</ele>
        <time>2019-04-19T11:46:22Z</time>
      </trkpt>
      <trkpt lat="44.11743" lon="3.10882">
        <ele>801.6</ele>
        <time>2019-04-19T11:46:23Z</time>
      </trkpt>
      <trkpt lat="44.11742" lon="3.1087">
        <ele>799.5</ele>
        <time>2019-04-19T11:46:24Z</time>
      </trkpt>
      <trkpt lat="44.1174" lon="3.10858">
        <ele>797.5</ele>
        <time>2019-04-19T11:46:25Z</time>
      </trkpt>
      <trkpt lat="44.11739" lon="3.1085">
        <ele>796.5</ele>
        <time>2019-04-19T11:46:26Z</time>
      </trkpt>
      <trkpt lat="44.11736" lon="3.10844">
        <ele>795.7</ele>
        <time>2019-04-19T11:46:27Z</time>
      </trkpt>
      <trkpt lat="44.1173" lon="3.10839">
        <ele>794.9</ele>
        <time>2019-04-19T11:46:28Z</time>
      </trkpt>
      <trkpt lat="44.11726" lon="3.10834">
        <ele>794.3</ele>
        <time>2019-04-19T11:46:29Z</time>
      </trkpt>
      <trkpt lat="44.11725" lon="3.10828">
        <ele>793.8</ele>
        <time>2019-04-19T11:46:30Z</time>
      </trkpt>
      <trkpt lat="44.11721" lon="3.10818">
        <ele>792.8</ele>
        <time>2019-04-19T11:46:31Z</time>
      </trkpt>
      <trkpt lat="44.11712" lon="3.10808">
        <ele>791.6</ele>
        <time>2019-04-19T11:46:32Z</time>
      </trkpt>
      <trkpt lat="44.11708" lon="3.10804">
        <ele>791.2</ele>
        <time>2019-04-19T11:46:33Z</time>
      </trkpt>
      <trkpt lat="44.11703" lon="3.10802">
        <ele>790.8</ele>
        <time>2019-04-19T11:46:34Z</time>
      </trkpt>
      <trkpt lat="44.11698" lon="3.10801">
        <ele>790.3</ele>
        <time>2019-04-19T11:46:35Z</time>
      </trkpt>
      <trkpt lat="44.11696" lon="3.10808">
        <ele>789.9</ele>
        <time>2019-04-19T11:46:36Z</time>
      </trkpt>
      <trkpt lat="44.1169" lon="3.10805">
        <ele>789.6</ele>
        <time>2019-04-19T11:46:37Z</time>
      </trkpt>
      <trkpt lat="44.11687" lon="3.108">
        <ele>789.3</ele>
        <time>2019-04-19T11:46:38Z</time>
      </trkpt>
      <trkpt lat="44.11681" lon="3.10796">
        <ele>788.8</ele>
        <time>2019-04-19T11:46:39Z</time>
      </trkpt>
      <trkpt lat="44.11674" lon="3.10797">
        <ele>788.4</ele>
        <time>2019-04-19T11:46:40Z</time>
      </trkpt>
      <trkpt lat="44.11672" lon="3.10794">
        <ele>788.2</ele>
        <time>2019-04-19T11:46:41Z</time>
      </trkpt>
      <trkpt lat="44.11667" lon="3.1079">
        <ele>788</ele>
        <time>2019-04-19T11:46:42Z</time>
      </trkpt>
      <trkpt lat="44.11664" lon="3.10788">
        <ele>787.8</ele>
        <time>2019-04-19T11:46:43Z</time>
      </trkpt>
      <trkpt lat="44.11662" lon="3.10785">
        <ele>787.8</ele>
        <time>2019-04-19T11:46:44Z</time>
      </trkpt>
      <trkpt lat="44.11657" lon="3.1078">
        <ele>787.7</ele>
        <time>2019-04-19T11:46:46Z</time>
      </trkpt>
      <trkpt lat="44.11655" lon="3.10777">
        <ele>787.8</ele>
        <time>2019-04-19T11:46:47Z</time>
      </trkpt>
      <trkpt lat="44.1165" lon="3.10774">
        <ele>788</ele>
        <time>2019-04-19T11:46:48Z</time>
      </trkpt>
      <trkpt lat="44.11647" lon="3.10771">
        <ele>788.2</ele>
        <time>2019-04-19T11:46:49Z</time>
      </trkpt>
      <trkpt lat="44.11643" lon="3.10768">
        <ele>788.5</ele>
        <time>2019-04-19T11:46:50Z</time>
      </trkpt>
      <trkpt lat="44.1164" lon="3.10766">
        <ele>788.8</ele>
        <time>2019-04-19T11:46:52Z</time>
      </trkpt>
      <trkpt lat="44.11637" lon="3.10764">
        <ele>789.3</ele>
        <time>2019-04-19T11:46:54Z</time>
      </trkpt>
      <trkpt lat="44.11632" lon="3.10762">
        <ele>789.8</ele>
        <time>2019-04-19T11:46:56Z</time>
      </trkpt>
      <trkpt lat="44.11629" lon="3.10762">
        <ele>790.1</ele>
        <time>2019-04-19T11:46:58Z</time>
      </trkpt>
      <trkpt lat="44.11626" lon="3.10761">
        <ele>790.5</ele>
        <time>2019-04-19T11:47:00Z</time>
      </trkpt>
      <trkpt lat="44.11622" lon="3.10759">
        <ele>791</ele>
        <time>2019-04-19T11:47:02Z</time>
      </trkpt>
      <trkpt lat="44.11619" lon="3.10755">
        <ele>791.5</ele>
        <time>2019-04-19T11:47:04Z</time>
      </trkpt>
      <trkpt lat="44.11616" lon="3.10753">
        <ele>791.8</ele>
        <time>2019-04-19T11:47:05Z</time>
      </trkpt>
      <trkpt lat="44.11614" lon="3.10751">
        <ele>792</ele>
        <time>2019-04-19T11:47:06Z</time>
      </trkpt>
      <trkpt lat="44.11611" lon="3.10747">
        <ele>792.4</ele>
        <time>2019-04-19T11:47:08Z</time>
      </trkpt>
      <trkpt lat="44.11608" lon="3.10741">
        <ele>793</ele>
        <time>2019-04-19T11:47:10Z</time>
      </trkpt>
      <trkpt lat="44.11605" lon="3.10737">
        <ele>793.4</ele>
        <time>2019-04-19T11:47:12Z</time>
      </trkpt>
      <trkpt lat="44.11603" lon="3.10734">
        <ele>793.7</ele>
        <time>2019-04-19T11:47:13Z</time>
      </trkpt>
      <trkpt lat="44.11601" lon="3.10732">
        <ele>794</ele>
        <time>2019-04-19T11:47:14Z</time>
      </trkpt>
      <trkpt lat="44.11597" lon="3.10729">
        <ele>794.7</ele>
        <time>2019-04-19T11:47:16Z</time>
      </trkpt>
      <trkpt lat="44.11594" lon="3.10725">
        <ele>795.1</ele>
        <time>2019-04-19T11:47:18Z</time>
      </trkpt>
      <trkpt lat="44.11592" lon="3.10722">
        <ele>795.5</ele>
        <time>2019-04-19T11:47:20Z</time>
      </trkpt>
      <trkpt lat="44.1159" lon="3.10719">
        <ele>796</ele>
        <time>2019-04-19T11:47:22Z</time>
      </trkpt>
      <trkpt lat="44.11587" lon="3.10716">
        <ele>796.5</ele>
        <time>2019-04-19T11:47:24Z</time>
      </trkpt>
      <trkpt lat="44.11585" lon="3.10713">
        <ele>797</ele>
        <time>2019-04-19T11:47:27Z</time>
      </trkpt>
      <trkpt lat="44.11582" lon="3.1071">
        <ele>797.6</ele>
        <time>2019-04-19T11:47:30Z</time>
      </trkpt>
      <trkpt lat="44.1158" lon="3.10706">
        <ele>798.3</ele>
        <time>2019-04-19T11:47:33Z</time>
      </trkpt>
      <trkpt lat="44.11577" lon="3.10703">
        <ele>799</ele>
        <time>2019-04-19T11:47:36Z</time>
      </trkpt>
      <trkpt lat="44.11574" lon="3.107">
        <ele>799.5</ele>
        <time>2019-04-19T11:47:39Z</time>
      </trkpt>
      <trkpt lat="44.11572" lon="3.10696">
        <ele>800.1</ele>
        <time>2019-04-19T11:47:43Z</time>
      </trkpt>
      <trkpt lat="44.1157" lon="3.10693">
        <ele>800.6</ele>
        <time>2019-04-19T11:47:46Z</time>
      </trkpt>
      <trkpt lat="44.11566" lon="3.10689">
        <ele>801.4</ele>
        <time>2019-04-19T11:47:49Z</time>
      </trkpt>
      <trkpt lat="44.11564" lon="3.10688">
        <ele>801.9</ele>
        <time>2019-04-19T11:47:50Z</time>
      </trkpt>
      <trkpt lat="44.1156" lon="3.10687">
        <ele>802.6</ele>
        <time>2019-04-19T11:47:52Z</time>
      </trkpt>
      <trkpt lat="44.11557" lon="3.10687">
        <ele>803.1</ele>
        <time>2019-04-19T11:47:53Z</time>
      </trkpt>
      <trkpt lat="44.11552" lon="3.10687">
        <ele>803.8</ele>
        <time>2019-04-19T11:47:55Z</time>
      </trkpt>
      <trkpt lat="44.11548" lon="3.10688">
        <ele>804.5</ele>
        <time>2019-04-19T11:47:57Z</time>
      </trkpt>
      <trkpt lat="44.11545" lon="3.10688">
        <ele>805.1</ele>
        <time>2019-04-19T11:48:00Z</time>
      </trkpt>
      <trkpt lat="44.11543" lon="3.10685">
        <ele>805.6</ele>
        <time>2019-04-19T11:48:03Z</time>
      </trkpt>
      <trkpt lat="44.11543" lon="3.1068">
        <ele>806</ele>
        <time>2019-04-19T11:48:07Z</time>
      </trkpt>
      <trkpt lat="44.11542" lon="3.10677">
        <ele>806.3</ele>
        <time>2019-04-19T11:48:09Z</time>
      </trkpt>
      <trkpt lat="44.11543" lon="3.10671">
        <ele>806.6</ele>
        <time>2019-04-19T11:48:12Z</time>
      </trkpt>
      <trkpt lat="44.11542" lon="3.10666">
        <ele>806.8</ele>
        <time>2019-04-19T11:48:14Z</time>
      </trkpt>
      <trkpt lat="44.1154" lon="3.10661">
        <ele>807.1</ele>
        <time>2019-04-19T11:48:16Z</time>
      </trkpt>
      <trkpt lat="44.11538" lon="3.10659">
        <ele>807.4</ele>
        <time>2019-04-19T11:48:18Z</time>
      </trkpt>
      <trkpt lat="44.11535" lon="3.10657">
        <ele>807.7</ele>
        <time>2019-04-19T11:48:20Z</time>
      </trkpt>
      <trkpt lat="44.11531" lon="3.10652">
        <ele>808.2</ele>
        <time>2019-04-19T11:48:22Z</time>
      </trkpt>
      <trkpt lat="44.11527" lon="3.10649">
        <ele>808.8</ele>
        <time>2019-04-19T11:48:24Z</time>
      </trkpt>
      <trkpt lat="44.11524" lon="3.10648">
        <ele>809.1</ele>
        <time>2019-04-19T11:48:25Z</time>
      </trkpt>
      <trkpt lat="44.1152" lon="3.10645">
        <ele>809.6</ele>
        <time>2019-04-19T11:48:27Z</time>
      </trkpt>
      <trkpt lat="44.11516" lon="3.10643">
        <ele>810.2</ele>
        <time>2019-04-19T11:48:29Z</time>
      </trkpt>
      <trkpt lat="44.11512" lon="3.10642">
        <ele>810.6</ele>
        <time>2019-04-19T11:48:31Z</time>
      </trkpt>
      <trkpt lat="44.11508" lon="3.10643">
        <ele>811.2</ele>
        <time>2019-04-19T11:48:34Z</time>
      </trkpt>
      <trkpt lat="44.11504" lon="3.10645">
        <ele>811.7</ele>
        <time>2019-04-19T11:48:36Z</time>
      </trkpt>
      <trkpt lat="44.115" lon="3.10644">
        <ele>812.1</ele>
        <time>2019-04-19T11:48:38Z</time>
      </trkpt>
      <trkpt lat="44.11496" lon="3.10645">
        <ele>812.4</ele>
        <time>2019-04-19T11:48:41Z</time>
      </trkpt>
      <trkpt lat="44.11492" lon="3.10645">
        <ele>812.7</ele>
        <time>2019-04-19T11:48:43Z</time>
      </trkpt>
      <trkpt lat="44.11489" lon="3.10644">
        <ele>812.9</ele>
        <time>2019-04-19T11:48:44Z</time>
      </trkpt>
      <trkpt lat="44.11485" lon="3.10645">
        <ele>813.1</ele>
        <time>2019-04-19T11:48:46Z</time>
      </trkpt>
      <trkpt lat="44.11482" lon="3.10642">
        <ele>813.3</ele>
        <time>2019-04-19T11:48:49Z</time>
      </trkpt>
      <trkpt lat="44.11479" lon="3.10639">
        <ele>813.3</ele>
        <time>2019-04-19T11:48:51Z</time>
      </trkpt>
      <trkpt lat="44.11477" lon="3.10635">
        <ele>813.4</ele>
        <time>2019-04-19T11:48:53Z</time>
      </trkpt>
      <trkpt lat="44.11473" lon="3.1063">
        <ele>813.4</ele>
        <time>2019-04-19T11:48:55Z</time>
      </trkpt>
      <trkpt lat="44.11471" lon="3.10627">
        <ele>813.4</ele>
        <time>2019-04-19T11:48:56Z</time>
      </trkpt>
      <trkpt lat="44.11469" lon="3.10624">
        <ele>813.5</ele>
        <time>2019-04-19T11:48:57Z</time>
      </trkpt>
      <trkpt lat="44.11466" lon="3.1062">
        <ele>813.5</ele>
        <time>2019-04-19T11:48:58Z</time>
      </trkpt>
      <trkpt lat="44.11464" lon="3.10617">
        <ele>813.5</ele>
        <time>2019-04-19T11:48:59Z</time>
      </trkpt>
      <trkpt lat="44.1146" lon="3.10612">
        <ele>813.5</ele>
        <time>2019-04-19T11:49:01Z</time>
      </trkpt>
      <trkpt lat="44.11457" lon="3.1061">
        <ele>813.5</ele>
        <time>2019-04-19T11:49:02Z</time>
      </trkpt>
      <trkpt lat="44.11455" lon="3.10607">
        <ele>813.5</ele>
        <time>2019-04-19T11:49:03Z</time>
      </trkpt>
      <trkpt lat="44.11453" lon="3.10603">
        <ele>813.5</ele>
        <time>2019-04-19T11:49:04Z</time>
      </trkpt>
      <trkpt lat="44.1145" lon="3.10598">
        <ele>813.6</ele>
        <time>2019-04-19T11:49:05Z</time>
      </trkpt>
      <trkpt lat="44.11448" lon="3.10594">
        <ele>813.6</ele>
        <time>2019-04-19T11:49:06Z</time>
      </trkpt>
      <trkpt lat="44.11445" lon="3.1059">
        <ele>813.6</ele>
        <time>2019-04-19T11:49:07Z</time>
      </trkpt>
      <trkpt lat="44.11442" lon="3.10587">
        <ele>813.6</ele>
        <time>2019-04-19T11:49:08Z</time>
      </trkpt>
      <trkpt lat="44.11438" lon="3.10584">
        <ele>813.6</ele>
        <time>2019-04-19T11:49:09Z</time>
      </trkpt>
      <trkpt lat="44.11435" lon="3.1058">
        <ele>813.6</ele>
        <time>2019-04-19T11:49:10Z</time>
      </trkpt>
      <trkpt lat="44.11432" lon="3.10577">
        <ele>813.5</ele>
        <time>2019-04-19T11:49:11Z</time>
      </trkpt>
      <trkpt lat="44.11429" lon="3.10573">
        <ele>813.4</ele>
        <time>2019-04-19T11:49:12Z</time>
      </trkpt>
      <trkpt lat="44.11426" lon="3.1057">
        <ele>813.3</ele>
        <time>2019-04-19T11:49:13Z</time>
      </trkpt>
      <trkpt lat="44.11422" lon="3.10568">
        <ele>813.2</ele>
        <time>2019-04-19T11:49:14Z</time>
      </trkpt>
      <trkpt lat="44.11419" lon="3.10565">
        <ele>813.1</ele>
        <time>2019-04-19T11:49:15Z</time>
      </trkpt>
      <trkpt lat="44.11415" lon="3.10563">
        <ele>813</ele>
        <time>2019-04-19T11:49:16Z</time>
      </trkpt>
      <trkpt lat="44.11412" lon="3.10561">
        <ele>813</ele>
        <time>2019-04-19T11:49:17Z</time>
      </trkpt>
      <trkpt lat="44.11409" lon="3.10558">
        <ele>813</ele>
        <time>2019-04-19T11:49:18Z</time>
      </trkpt>
      <trkpt lat="44.11406" lon="3.10555">
        <ele>813.1</ele>
        <time>2019-04-19T11:49:19Z</time>
      </trkpt>
      <trkpt lat="44.11403" lon="3.10552">
        <ele>813.2</ele>
        <time>2019-04-19T11:49:20Z</time>
      </trkpt>
      <trkpt lat="44.114" lon="3.1055">
        <ele>813.2</ele>
        <time>2019-04-19T11:49:21Z</time>
      </trkpt>
      <trkpt lat="44.11398" lon="3.10547">
        <ele>813.4</ele>
        <time>2019-04-19T11:49:22Z</time>
      </trkpt>
      <trkpt lat="44.11395" lon="3.10544">
        <ele>813.5</ele>
        <time>2019-04-19T11:49:23Z</time>
      </trkpt>
      <trkpt lat="44.11393" lon="3.10542">
        <ele>813.6</ele>
        <time>2019-04-19T11:49:24Z</time>
      </trkpt>
      <trkpt lat="44.11391" lon="3.10538">
        <ele>813.8</ele>
        <time>2019-04-19T11:49:26Z</time>
      </trkpt>
      <trkpt lat="44.11389" lon="3.10533">
        <ele>814</ele>
        <time>2019-04-19T11:49:28Z</time>
      </trkpt>
      <trkpt lat="44.11387" lon="3.10531">
        <ele>814.1</ele>
        <time>2019-04-19T11:49:29Z</time>
      </trkpt>
      <trkpt lat="44.11383" lon="3.1053">
        <ele>814.4</ele>
        <time>2019-04-19T11:49:31Z</time>
      </trkpt>
      <trkpt lat="44.11379" lon="3.10529">
        <ele>814.7</ele>
        <time>2019-04-19T11:49:33Z</time>
      </trkpt>
      <trkpt lat="44.11375" lon="3.10529">
        <ele>815</ele>
        <time>2019-04-19T11:49:35Z</time>
      </trkpt>
      <trkpt lat="44.1137" lon="3.10529">
        <ele>815.4</ele>
        <time>2019-04-19T11:49:37Z</time>
      </trkpt>
      <trkpt lat="44.11365" lon="3.10527">
        <ele>815.8</ele>
        <time>2019-04-19T11:49:39Z</time>
      </trkpt>
      <trkpt lat="44.11362" lon="3.10525">
        <ele>816.2</ele>
        <time>2019-04-19T11:49:41Z</time>
      </trkpt>
      <trkpt lat="44.11357" lon="3.10523">
        <ele>816.6</ele>
        <time>2019-04-19T11:49:43Z</time>
      </trkpt>
      <trkpt lat="44.11353" lon="3.10522">
        <ele>816.9</ele>
        <time>2019-04-19T11:49:44Z</time>
      </trkpt>
      <trkpt lat="44.1135" lon="3.10521">
        <ele>817.2</ele>
        <time>2019-04-19T11:49:45Z</time>
      </trkpt>
      <trkpt lat="44.11346" lon="3.1052">
        <ele>817.5</ele>
        <time>2019-04-19T11:49:46Z</time>
      </trkpt>
      <trkpt lat="44.11344" lon="3.1052">
        <ele>817.8</ele>
        <time>2019-04-19T11:49:47Z</time>
      </trkpt>
      <trkpt lat="44.11339" lon="3.10522">
        <ele>818.2</ele>
        <time>2019-04-19T11:49:49Z</time>
      </trkpt>
      <trkpt lat="44.11335" lon="3.10527">
        <ele>818.8</ele>
        <time>2019-04-19T11:49:51Z</time>
      </trkpt>
      <trkpt lat="44.11333" lon="3.1053">
        <ele>819.1</ele>
        <time>2019-04-19T11:49:52Z</time>
      </trkpt>
      <trkpt lat="44.1133" lon="3.10533">
        <ele>819.4</ele>
        <time>2019-04-19T11:49:54Z</time>
      </trkpt>
      <trkpt lat="44.11327" lon="3.10535">
        <ele>819.7</ele>
        <time>2019-04-19T11:49:56Z</time>
      </trkpt>
      <trkpt lat="44.11323" lon="3.10541">
        <ele>820</ele>
        <time>2019-04-19T11:49:58Z</time>
      </trkpt>
      <trkpt lat="44.11321" lon="3.10546">
        <ele>820.1</ele>
        <time>2019-04-19T11:49:59Z</time>
      </trkpt>
      <trkpt lat="44.1132" lon="3.1055">
        <ele>820.2</ele>
        <time>2019-04-19T11:50:00Z</time>
      </trkpt>
      <trkpt lat="44.11318" lon="3.10557">
        <ele>820.2</ele>
        <time>2019-04-19T11:50:02Z</time>
      </trkpt>
      <trkpt lat="44.11315" lon="3.1056">
        <ele>820.3</ele>
        <time>2019-04-19T11:50:04Z</time>
      </trkpt>
      <trkpt lat="44.11312" lon="3.1056">
        <ele>820.3</ele>
        <time>2019-04-19T11:50:06Z</time>
      </trkpt>
      <trkpt lat="44.11308" lon="3.1056">
        <ele>820.3</ele>
        <time>2019-04-19T11:50:08Z</time>
      </trkpt>
      <trkpt lat="44.11304" lon="3.10559">
        <ele>820.3</ele>
        <time>2019-04-19T11:50:12Z</time>
      </trkpt>
      <trkpt lat="44.113" lon="3.10558">
        <ele>820.3</ele>
        <time>2019-04-19T11:50:13Z</time>
      </trkpt>
      <trkpt lat="44.11296" lon="3.10559">
        <ele>820.2</ele>
        <time>2019-04-19T11:50:14Z</time>
      </trkpt>
      <trkpt lat="44.11292" lon="3.10558">
        <ele>820.2</ele>
        <time>2019-04-19T11:50:15Z</time>
      </trkpt>
      <trkpt lat="44.11288" lon="3.10557">
        <ele>820.2</ele>
        <time>2019-04-19T11:50:16Z</time>
      </trkpt>
      <trkpt lat="44.11284" lon="3.10557">
        <ele>820.2</ele>
        <time>2019-04-19T11:50:17Z</time>
      </trkpt>
      <trkpt lat="44.11281" lon="3.10556">
        <ele>820.1</ele>
        <time>2019-04-19T11:50:18Z</time>
      </trkpt>
      <trkpt lat="44.11278" lon="3.10555">
        <ele>820.1</ele>
        <time>2019-04-19T11:50:19Z</time>
      </trkpt>
      <trkpt lat="44.11275" lon="3.10554">
        <ele>820</ele>
        <time>2019-04-19T11:50:20Z</time>
      </trkpt>
      <trkpt lat="44.11271" lon="3.10553">
        <ele>819.9</ele>
        <time>2019-04-19T11:50:21Z</time>
      </trkpt>
      <trkpt lat="44.11266" lon="3.10553">
        <ele>819.7</ele>
        <time>2019-04-19T11:50:22Z</time>
      </trkpt>
      <trkpt lat="44.11261" lon="3.10554">
        <ele>819.5</ele>
        <time>2019-04-19T11:50:23Z</time>
      </trkpt>
      <trkpt lat="44.11257" lon="3.10555">
        <ele>819.2</ele>
        <time>2019-04-19T11:50:24Z</time>
      </trkpt>
      <trkpt lat="44.11252" lon="3.10555">
        <ele>818.9</ele>
        <time>2019-04-19T11:50:25Z</time>
      </trkpt>
      <trkpt lat="44.11247" lon="3.10554">
        <ele>818.5</ele>
        <time>2019-04-19T11:50:26Z</time>
      </trkpt>
      <trkpt lat="44.11243" lon="3.10551">
        <ele>818</ele>
        <time>2019-04-19T11:50:27Z</time>
      </trkpt>
      <trkpt lat="44.11238" lon="3.10547">
        <ele>817.7</ele>
        <time>2019-04-19T11:50:28Z</time>
      </trkpt>
      <trkpt lat="44.11235" lon="3.10542">
        <ele>817.2</ele>
        <time>2019-04-19T11:50:29Z</time>
      </trkpt>
      <trkpt lat="44.11233" lon="3.10538">
        <ele>817</ele>
        <time>2019-04-19T11:50:30Z</time>
      </trkpt>
      <trkpt lat="44.11232" lon="3.10532">
        <ele>816.7</ele>
        <time>2019-04-19T11:50:31Z</time>
      </trkpt>
      <trkpt lat="44.1123" lon="3.10525">
        <ele>816.5</ele>
        <time>2019-04-19T11:50:32Z</time>
      </trkpt>
      <trkpt lat="44.11228" lon="3.1052">
        <ele>816.4</ele>
        <time>2019-04-19T11:50:33Z</time>
      </trkpt>
      <trkpt lat="44.11227" lon="3.10514">
        <ele>816.4</ele>
        <time>2019-04-19T11:50:34Z</time>
      </trkpt>
      <trkpt lat="44.11226" lon="3.10511">
        <ele>816.4</ele>
        <time>2019-04-19T11:50:35Z</time>
      </trkpt>
      <trkpt lat="44.11222" lon="3.10507">
        <ele>816.5</ele>
        <time>2019-04-19T11:50:37Z</time>
      </trkpt>
      <trkpt lat="44.11218" lon="3.10503">
        <ele>816.7</ele>
        <time>2019-04-19T11:50:39Z</time>
      </trkpt>
      <trkpt lat="44.11214" lon="3.10501">
        <ele>817</ele>
        <time>2019-04-19T11:50:41Z</time>
      </trkpt>
      <trkpt lat="44.11213" lon="3.10498">
        <ele>817.2</ele>
        <time>2019-04-19T11:50:42Z</time>
      </trkpt>
      <trkpt lat="44.1121" lon="3.10495">
        <ele>817.4</ele>
        <time>2019-04-19T11:50:43Z</time>
      </trkpt>
      <trkpt lat="44.11208" lon="3.10491">
        <ele>817.6</ele>
        <time>2019-04-19T11:50:44Z</time>
      </trkpt>
      <trkpt lat="44.11205" lon="3.10486">
        <ele>818</ele>
        <time>2019-04-19T11:50:46Z</time>
      </trkpt>
      <trkpt lat="44.11202" lon="3.10483">
        <ele>818.3</ele>
        <time>2019-04-19T11:50:47Z</time>
      </trkpt>
      <trkpt lat="44.11199" lon="3.10481">
        <ele>818.6</ele>
        <time>2019-04-19T11:50:48Z</time>
      </trkpt>
      <trkpt lat="44.11197" lon="3.10479">
        <ele>818.9</ele>
        <time>2019-04-19T11:50:49Z</time>
      </trkpt>
      <trkpt lat="44.11193" lon="3.10478">
        <ele>819.2</ele>
        <time>2019-04-19T11:50:50Z</time>
      </trkpt>
      <trkpt lat="44.1119" lon="3.10476">
        <ele>819.6</ele>
        <time>2019-04-19T11:50:53Z</time>
      </trkpt>
      <trkpt lat="44.11188" lon="3.10473">
        <ele>820</ele>
        <time>2019-04-19T11:50:55Z</time>
      </trkpt>
      <trkpt lat="44.11184" lon="3.10469">
        <ele>820.5</ele>
        <time>2019-04-19T11:50:58Z</time>
      </trkpt>
      <trkpt lat="44.11183" lon="3.10464">
        <ele>820.9</ele>
        <time>2019-04-19T11:51:00Z</time>
      </trkpt>
      <trkpt lat="44.11182" lon="3.10457">
        <ele>821.3</ele>
        <time>2019-04-19T11:51:02Z</time>
      </trkpt>
      <trkpt lat="44.11179" lon="3.10453">
        <ele>821.8</ele>
        <time>2019-04-19T11:51:04Z</time>
      </trkpt>
      <trkpt lat="44.11177" lon="3.10451">
        <ele>822.1</ele>
        <time>2019-04-19T11:51:05Z</time>
      </trkpt>
      <trkpt lat="44.11173" lon="3.10447">
        <ele>822.7</ele>
        <time>2019-04-19T11:51:07Z</time>
      </trkpt>
      <trkpt lat="44.11169" lon="3.10442">
        <ele>823.3</ele>
        <time>2019-04-19T11:51:09Z</time>
      </trkpt>
      <trkpt lat="44.11166" lon="3.1044">
        <ele>823.7</ele>
        <time>2019-04-19T11:51:10Z</time>
      </trkpt>
      <trkpt lat="44.11163" lon="3.10438">
        <ele>824</ele>
        <time>2019-04-19T11:51:11Z</time>
      </trkpt>
      <trkpt lat="44.1116" lon="3.10436">
        <ele>824.2</ele>
        <time>2019-04-19T11:51:12Z</time>
      </trkpt>
      <trkpt lat="44.11157" lon="3.10433">
        <ele>824.4</ele>
        <time>2019-04-19T11:51:13Z</time>
      </trkpt>
      <trkpt lat="44.11155" lon="3.10429">
        <ele>824.7</ele>
        <time>2019-04-19T11:51:14Z</time>
      </trkpt>
      <trkpt lat="44.11153" lon="3.10425">
        <ele>824.9</ele>
        <time>2019-04-19T11:51:15Z</time>
      </trkpt>
      <trkpt lat="44.11151" lon="3.10421">
        <ele>825</ele>
        <time>2019-04-19T11:51:16Z</time>
      </trkpt>
      <trkpt lat="44.11149" lon="3.10418">
        <ele>825</ele>
        <time>2019-04-19T11:51:17Z</time>
      </trkpt>
      <trkpt lat="44.11147" lon="3.10415">
        <ele>825.1</ele>
        <time>2019-04-19T11:51:18Z</time>
      </trkpt>
      <trkpt lat="44.11145" lon="3.10412">
        <ele>825.1</ele>
        <time>2019-04-19T11:51:19Z</time>
      </trkpt>
      <trkpt lat="44.11142" lon="3.10408">
        <ele>825.2</ele>
        <time>2019-04-19T11:51:21Z</time>
      </trkpt>
      <trkpt lat="44.11139" lon="3.10402">
        <ele>825.3</ele>
        <time>2019-04-19T11:51:23Z</time>
      </trkpt>
      <trkpt lat="44.11138" lon="3.10397">
        <ele>825.4</ele>
        <time>2019-04-19T11:51:24Z</time>
      </trkpt>
      <trkpt lat="44.11138" lon="3.10393">
        <ele>825.5</ele>
        <time>2019-04-19T11:51:25Z</time>
      </trkpt>
      <trkpt lat="44.11136" lon="3.10389">
        <ele>825.6</ele>
        <time>2019-04-19T11:51:26Z</time>
      </trkpt>
      <trkpt lat="44.11134" lon="3.10386">
        <ele>825.7</ele>
        <time>2019-04-19T11:51:27Z</time>
      </trkpt>
      <trkpt lat="44.11132" lon="3.10383">
        <ele>825.8</ele>
        <time>2019-04-19T11:51:28Z</time>
      </trkpt>
      <trkpt lat="44.11129" lon="3.1038">
        <ele>826</ele>
        <time>2019-04-19T11:51:29Z</time>
      </trkpt>
      <trkpt lat="44.11126" lon="3.10376">
        <ele>826.1</ele>
        <time>2019-04-19T11:51:30Z</time>
      </trkpt>
      <trkpt lat="44.11124" lon="3.10373">
        <ele>826.2</ele>
        <time>2019-04-19T11:51:31Z</time>
      </trkpt>
      <trkpt lat="44.11122" lon="3.10371">
        <ele>826.3</ele>
        <time>2019-04-19T11:51:32Z</time>
      </trkpt>
      <trkpt lat="44.1112" lon="3.10368">
        <ele>826.4</ele>
        <time>2019-04-19T11:51:33Z</time>
      </trkpt>
      <trkpt lat="44.11118" lon="3.10365">
        <ele>826.3</ele>
        <time>2019-04-19T11:51:34Z</time>
      </trkpt>
      <trkpt lat="44.11115" lon="3.10359">
        <ele>826.2</ele>
        <time>2019-04-19T11:51:36Z</time>
      </trkpt>
      <trkpt lat="44.11112" lon="3.10355">
        <ele>826.1</ele>
        <time>2019-04-19T11:51:37Z</time>
      </trkpt>
      <trkpt lat="44.1111" lon="3.10351">
        <ele>826.1</ele>
        <time>2019-04-19T11:51:38Z</time>
      </trkpt>
      <trkpt lat="44.11107" lon="3.10347">
        <ele>826</ele>
        <time>2019-04-19T11:51:39Z</time>
      </trkpt>
      <trkpt lat="44.11104" lon="3.10341">
        <ele>825.9</ele>
        <time>2019-04-19T11:51:40Z</time>
      </trkpt>
      <trkpt lat="44.11101" lon="3.10335">
        <ele>825.7</ele>
        <time>2019-04-19T11:51:41Z</time>
      </trkpt>
      <trkpt lat="44.11099" lon="3.10329">
        <ele>825.5</ele>
        <time>2019-04-19T11:51:42Z</time>
      </trkpt>
      <trkpt lat="44.11097" lon="3.10322">
        <ele>825.3</ele>
        <time>2019-04-19T11:51:43Z</time>
      </trkpt>
      <trkpt lat="44.11096" lon="3.10317">
        <ele>825.1</ele>
        <time>2019-04-19T11:51:44Z</time>
      </trkpt>
      <trkpt lat="44.11094" lon="3.10313">
        <ele>824.9</ele>
        <time>2019-04-19T11:51:45Z</time>
      </trkpt>
      <trkpt lat="44.11092" lon="3.10308">
        <ele>824.7</ele>
        <time>2019-04-19T11:51:46Z</time>
      </trkpt>
      <trkpt lat="44.1109" lon="3.10303">
        <ele>824.5</ele>
        <time>2019-04-19T11:51:47Z</time>
      </trkpt>
      <trkpt lat="44.11087" lon="3.10298">
        <ele>824.3</ele>
        <time>2019-04-19T11:51:48Z</time>
      </trkpt>
      <trkpt lat="44.11085" lon="3.10293">
        <ele>824</ele>
        <time>2019-04-19T11:51:49Z</time>
      </trkpt>
      <trkpt lat="44.11082" lon="3.10289">
        <ele>823.8</ele>
        <time>2019-04-19T11:51:50Z</time>
      </trkpt>
      <trkpt lat="44.11081" lon="3.10285">
        <ele>823.7</ele>
        <time>2019-04-19T11:51:51Z</time>
      </trkpt>
      <trkpt lat="44.11077" lon="3.1028">
        <ele>823.5</ele>
        <time>2019-04-19T11:51:53Z</time>
      </trkpt>
      <trkpt lat="44.11076" lon="3.10274">
        <ele>823.4</ele>
        <time>2019-04-19T11:51:55Z</time>
      </trkpt>
      <trkpt lat="44.11077" lon="3.1027">
        <ele>823.3</ele>
        <time>2019-04-19T11:51:57Z</time>
      </trkpt>
      <trkpt lat="44.11081" lon="3.10268">
        <ele>823.3</ele>
        <time>2019-04-19T11:51:59Z</time>
      </trkpt>
      <trkpt lat="44.11085" lon="3.10266">
        <ele>823.3</ele>
        <time>2019-04-19T11:52:01Z</time>
      </trkpt>
      <trkpt lat="44.11088" lon="3.10259">
        <ele>822.8</ele>
        <time>2019-04-19T11:52:03Z</time>
      </trkpt>
      <trkpt lat="44.11088" lon="3.10254">
        <ele>822.5</ele>
        <time>2019-04-19T11:52:04Z</time>
      </trkpt>
      <trkpt lat="44.11088" lon="3.10249">
        <ele>822.2</ele>
        <time>2019-04-19T11:52:05Z</time>
      </trkpt>
      <trkpt lat="44.11086" lon="3.10244">
        <ele>821.9</ele>
        <time>2019-04-19T11:52:06Z</time>
      </trkpt>
      <trkpt lat="44.11084" lon="3.10239">
        <ele>821.6</ele>
        <time>2019-04-19T11:52:07Z</time>
      </trkpt>
      <trkpt lat="44.11082" lon="3.10235">
        <ele>821.3</ele>
        <time>2019-04-19T11:52:08Z</time>
      </trkpt>
      <trkpt lat="44.1108" lon="3.1023">
        <ele>821.1</ele>
        <time>2019-04-19T11:52:09Z</time>
      </trkpt>
      <trkpt lat="44.11077" lon="3.10226">
        <ele>820.8</ele>
        <time>2019-04-19T11:52:10Z</time>
      </trkpt>
      <trkpt lat="44.11075" lon="3.10221">
        <ele>820.5</ele>
        <time>2019-04-19T11:52:11Z</time>
      </trkpt>
      <trkpt lat="44.11072" lon="3.10216">
        <ele>820.2</ele>
        <time>2019-04-19T11:52:12Z</time>
      </trkpt>
      <trkpt lat="44.11069" lon="3.10211">
        <ele>819.8</ele>
        <time>2019-04-19T11:52:13Z</time>
      </trkpt>
      <trkpt lat="44.11066" lon="3.10206">
        <ele>819.5</ele>
        <time>2019-04-19T11:52:14Z</time>
      </trkpt>
      <trkpt lat="44.11063" lon="3.10202">
        <ele>819.2</ele>
        <time>2019-04-19T11:52:15Z</time>
      </trkpt>
      <trkpt lat="44.11061" lon="3.10199">
        <ele>818.9</ele>
        <time>2019-04-19T11:52:16Z</time>
      </trkpt>
      <trkpt lat="44.11059" lon="3.10195">
        <ele>818.6</ele>
        <time>2019-04-19T11:52:17Z</time>
      </trkpt>
      <trkpt lat="44.11057" lon="3.1019">
        <ele>818.3</ele>
        <time>2019-04-19T11:52:18Z</time>
      </trkpt>
      <trkpt lat="44.11057" lon="3.10184">
        <ele>818</ele>
        <time>2019-04-19T11:52:19Z</time>
      </trkpt>
      <trkpt lat="44.11056" lon="3.10178">
        <ele>817.7</ele>
        <time>2019-04-19T11:52:20Z</time>
      </trkpt>
      <trkpt lat="44.11056" lon="3.10172">
        <ele>817.4</ele>
        <time>2019-04-19T11:52:21Z</time>
      </trkpt>
      <trkpt lat="44.11056" lon="3.10166">
        <ele>817.1</ele>
        <time>2019-04-19T11:52:22Z</time>
      </trkpt>
      <trkpt lat="44.11056" lon="3.10162">
        <ele>816.8</ele>
        <time>2019-04-19T11:52:23Z</time>
      </trkpt>
      <trkpt lat="44.11056" lon="3.10157">
        <ele>816.6</ele>
        <time>2019-04-19T11:52:25Z</time>
      </trkpt>
      <trkpt lat="44.11053" lon="3.10156">
        <ele>816.4</ele>
        <time>2019-04-19T11:53:13Z</time>
      </trkpt>
      <trkpt lat="44.1105" lon="3.10154">
        <ele>816.2</ele>
        <time>2019-04-19T11:53:15Z</time>
      </trkpt>
      <trkpt lat="44.11045" lon="3.10153">
        <ele>816</ele>
        <time>2019-04-19T11:53:17Z</time>
      </trkpt>
      <trkpt lat="44.11042" lon="3.10153">
        <ele>815.9</ele>
        <time>2019-04-19T11:53:18Z</time>
      </trkpt>
      <trkpt lat="44.11038" lon="3.10152">
        <ele>815.7</ele>
        <time>2019-04-19T11:53:19Z</time>
      </trkpt>
      <trkpt lat="44.11035" lon="3.10151">
        <ele>815.6</ele>
        <time>2019-04-19T11:53:20Z</time>
      </trkpt>
      <trkpt lat="44.11032" lon="3.1015">
        <ele>815.5</ele>
        <time>2019-04-19T11:53:21Z</time>
      </trkpt>
      <trkpt lat="44.11027" lon="3.10148">
        <ele>815.3</ele>
        <time>2019-04-19T11:53:23Z</time>
      </trkpt>
      <trkpt lat="44.11022" lon="3.10148">
        <ele>815.1</ele>
        <time>2019-04-19T11:53:25Z</time>
      </trkpt>
      <trkpt lat="44.11019" lon="3.10147">
        <ele>815</ele>
        <time>2019-04-19T11:53:26Z</time>
      </trkpt>
      <trkpt lat="44.11016" lon="3.10148">
        <ele>814.8</ele>
        <time>2019-04-19T11:53:27Z</time>
      </trkpt>
      <trkpt lat="44.11012" lon="3.10149">
        <ele>814.6</ele>
        <time>2019-04-19T11:53:28Z</time>
      </trkpt>
      <trkpt lat="44.11008" lon="3.1015">
        <ele>814.2</ele>
        <time>2019-04-19T11:53:29Z</time>
      </trkpt>
      <trkpt lat="44.11006" lon="3.10152">
        <ele>814.8</ele>
        <time>2019-04-19T11:53:30Z</time>
      </trkpt>
      <trkpt lat="44.11003" lon="3.10156">
        <ele>815.6</ele>
        <time>2019-04-19T11:53:32Z</time>
      </trkpt>
      <trkpt lat="44.11" lon="3.1016">
        <ele>816.1</ele>
        <time>2019-04-19T11:53:34Z</time>
      </trkpt>
      <trkpt lat="44.10998" lon="3.10164">
        <ele>816.7</ele>
        <time>2019-04-19T11:53:36Z</time>
      </trkpt>
      <trkpt lat="44.10998" lon="3.10168">
        <ele>817.3</ele>
        <time>2019-04-19T11:53:38Z</time>
      </trkpt>
      <trkpt lat="44.11001" lon="3.10172">
        <ele>818.1</ele>
        <time>2019-04-19T11:53:41Z</time>
      </trkpt>
      <trkpt lat="44.11002" lon="3.10176">
        <ele>818.6</ele>
        <time>2019-04-19T11:53:43Z</time>
      </trkpt>
      <trkpt lat="44.11003" lon="3.1018">
        <ele>819.3</ele>
        <time>2019-04-19T11:53:46Z</time>
      </trkpt>
      <trkpt lat="44.11003" lon="3.10184">
        <ele>819.8</ele>
        <time>2019-04-19T11:53:48Z</time>
      </trkpt>
      <trkpt lat="44.11005" lon="3.10188">
        <ele>820.5</ele>
        <time>2019-04-19T11:53:51Z</time>
      </trkpt>
      <trkpt lat="44.11008" lon="3.10187">
        <ele>821</ele>
        <time>2019-04-19T11:53:59Z</time>
      </trkpt>
      <trkpt lat="44.11009" lon="3.10191">
        <ele>821.7</ele>
        <time>2019-04-19T11:54:12Z</time>
      </trkpt>
      <trkpt lat="44.1101" lon="3.10196">
        <ele>822.3</ele>
        <time>2019-04-19T11:54:16Z</time>
      </trkpt>
      <trkpt lat="44.11011" lon="3.102">
        <ele>822.6</ele>
        <time>2019-04-19T11:54:22Z</time>
      </trkpt>
      <trkpt lat="44.11012" lon="3.10203">
        <ele>823</ele>
        <time>2019-04-19T11:54:26Z</time>
      </trkpt>
      <trkpt lat="44.11012" lon="3.10208">
        <ele>823.3</ele>
        <time>2019-04-19T11:54:29Z</time>
      </trkpt>
      <trkpt lat="44.11013" lon="3.10213">
        <ele>823.8</ele>
        <time>2019-04-19T11:54:33Z</time>
      </trkpt>
      <trkpt lat="44.11014" lon="3.10216">
        <ele>824.1</ele>
        <time>2019-04-19T11:54:35Z</time>
      </trkpt>
      <trkpt lat="44.11015" lon="3.10221">
        <ele>824.5</ele>
        <time>2019-04-19T11:54:38Z</time>
      </trkpt>
      <trkpt lat="44.11016" lon="3.10225">
        <ele>824.8</ele>
        <time>2019-04-19T11:54:41Z</time>
      </trkpt>
      <trkpt lat="44.11017" lon="3.10228">
        <ele>825.1</ele>
        <time>2019-04-19T11:54:46Z</time>
      </trkpt>
      <trkpt lat="44.11018" lon="3.10233">
        <ele>825.5</ele>
        <time>2019-04-19T11:54:48Z</time>
      </trkpt>
      <trkpt lat="44.11019" lon="3.1024">
        <ele>826.2</ele>
        <time>2019-04-19T11:54:50Z</time>
      </trkpt>
      <trkpt lat="44.1102" lon="3.10247">
        <ele>826.9</ele>
        <time>2019-04-19T11:54:52Z</time>
      </trkpt>
      <trkpt lat="44.11022" lon="3.10253">
        <ele>827.5</ele>
        <time>2019-04-19T11:54:54Z</time>
      </trkpt>
      <trkpt lat="44.11023" lon="3.1026">
        <ele>827.9</ele>
        <time>2019-04-19T11:54:56Z</time>
      </trkpt>
      <trkpt lat="44.11026" lon="3.10266">
        <ele>828.4</ele>
        <time>2019-04-19T11:54:58Z</time>
      </trkpt>
      <trkpt lat="44.11028" lon="3.10272">
        <ele>828.8</ele>
        <time>2019-04-19T11:55:00Z</time>
      </trkpt>
      <trkpt lat="44.1103" lon="3.10277">
        <ele>829</ele>
        <time>2019-04-19T11:55:02Z</time>
      </trkpt>
      <trkpt lat="44.11031" lon="3.10285">
        <ele>829.3</ele>
        <time>2019-04-19T11:55:04Z</time>
      </trkpt>
      <trkpt lat="44.1103" lon="3.10289">
        <ele>829.4</ele>
        <time>2019-04-19T11:55:05Z</time>
      </trkpt>
      <trkpt lat="44.11029" lon="3.10295">
        <ele>829.5</ele>
        <time>2019-04-19T11:55:07Z</time>
      </trkpt>
      <trkpt lat="44.11026" lon="3.103">
        <ele>829.6</ele>
        <time>2019-04-19T11:55:09Z</time>
      </trkpt>
      <trkpt lat="44.11024" lon="3.10302">
        <ele>829.6</ele>
        <time>2019-04-19T11:55:11Z</time>
      </trkpt>
      <trkpt lat="44.11021" lon="3.10303">
        <ele>829.6</ele>
        <time>2019-04-19T11:55:14Z</time>
      </trkpt>
      <trkpt lat="44.11019" lon="3.10307">
        <ele>829.6</ele>
        <time>2019-04-19T11:55:17Z</time>
      </trkpt>
      <trkpt lat="44.11019" lon="3.10312">
        <ele>829.6</ele>
        <time>2019-04-19T11:55:20Z</time>
      </trkpt>
      <trkpt lat="44.11019" lon="3.10317">
        <ele>829.5</ele>
        <time>2019-04-19T11:55:22Z</time>
      </trkpt>
      <trkpt lat="44.11019" lon="3.10322">
        <ele>829.4</ele>
        <time>2019-04-19T11:55:24Z</time>
      </trkpt>
      <trkpt lat="44.11018" lon="3.10326">
        <ele>829.3</ele>
        <time>2019-04-19T11:55:34Z</time>
      </trkpt>
      <trkpt lat="44.11017" lon="3.1033">
        <ele>829.3</ele>
        <time>2019-04-19T11:55:38Z</time>
      </trkpt>
      <trkpt lat="44.11016" lon="3.10335">
        <ele>829.2</ele>
        <time>2019-04-19T11:55:40Z</time>
      </trkpt>
      <trkpt lat="44.11016" lon="3.1034">
        <ele>829.1</ele>
        <time>2019-04-19T11:55:42Z</time>
      </trkpt>
      <trkpt lat="44.11015" lon="3.10347">
        <ele>829</ele>
        <time>2019-04-19T11:55:44Z</time>
      </trkpt>
      <trkpt lat="44.11015" lon="3.10352">
        <ele>829.1</ele>
        <time>2019-04-19T11:55:45Z</time>
      </trkpt>
      <trkpt lat="44.11015" lon="3.10357">
        <ele>829.2</ele>
        <time>2019-04-19T11:55:46Z</time>
      </trkpt>
      <trkpt lat="44.11015" lon="3.10362">
        <ele>829.4</ele>
        <time>2019-04-19T11:55:47Z</time>
      </trkpt>
      <trkpt lat="44.11013" lon="3.10371">
        <ele>829.6</ele>
        <time>2019-04-19T11:55:48Z</time>
      </trkpt>
      <trkpt lat="44.11012" lon="3.10378">
        <ele>829.7</ele>
        <time>2019-04-19T11:55:49Z</time>
      </trkpt>
      <trkpt lat="44.11012" lon="3.10386">
        <ele>829.8</ele>
        <time>2019-04-19T11:55:50Z</time>
      </trkpt>
      <trkpt lat="44.11011" lon="3.10395">
        <ele>829.9</ele>
        <time>2019-04-19T11:55:51Z</time>
      </trkpt>
      <trkpt lat="44.1101" lon="3.10403">
        <ele>829.9</ele>
        <time>2019-04-19T11:55:52Z</time>
      </trkpt>
      <trkpt lat="44.1101" lon="3.10411">
        <ele>829.9</ele>
        <time>2019-04-19T11:55:53Z</time>
      </trkpt>
      <trkpt lat="44.1101" lon="3.10426">
        <ele>830.3</ele>
        <time>2019-04-19T11:55:54Z</time>
      </trkpt>
      <trkpt lat="44.11009" lon="3.1043">
        <ele>830.5</ele>
        <time>2019-04-19T11:55:55Z</time>
      </trkpt>
      <trkpt lat="44.11008" lon="3.10439">
        <ele>830.9</ele>
        <time>2019-04-19T11:55:57Z</time>
      </trkpt>
      <trkpt lat="44.11007" lon="3.10444">
        <ele>831.1</ele>
        <time>2019-04-19T11:55:58Z</time>
      </trkpt>
      <trkpt lat="44.11006" lon="3.10449">
        <ele>831.4</ele>
        <time>2019-04-19T11:55:59Z</time>
      </trkpt>
      <trkpt lat="44.11006" lon="3.10454">
        <ele>831.6</ele>
        <time>2019-04-19T11:56:00Z</time>
      </trkpt>
      <trkpt lat="44.11004" lon="3.1046">
        <ele>831.8</ele>
        <time>2019-04-19T11:56:01Z</time>
      </trkpt>
      <trkpt lat="44.11004" lon="3.10465">
        <ele>832</ele>
        <time>2019-04-19T11:56:02Z</time>
      </trkpt>
      <trkpt lat="44.11003" lon="3.10472">
        <ele>832.3</ele>
        <time>2019-04-19T11:56:03Z</time>
      </trkpt>
      <trkpt lat="44.11007" lon="3.105">
        <ele>832.9</ele>
        <time>2019-04-19T11:56:05Z</time>
      </trkpt>
      <trkpt lat="44.11006" lon="3.10507">
        <ele>833</ele>
        <time>2019-04-19T11:56:06Z</time>
      </trkpt>
      <trkpt lat="44.11005" lon="3.10512">
        <ele>833.1</ele>
        <time>2019-04-19T11:56:07Z</time>
      </trkpt>
      <trkpt lat="44.11004" lon="3.10519">
        <ele>833.1</ele>
        <time>2019-04-19T11:56:08Z</time>
      </trkpt>
      <trkpt lat="44.11003" lon="3.10524">
        <ele>833.1</ele>
        <time>2019-04-19T11:56:09Z</time>
      </trkpt>
      <trkpt lat="44.11002" lon="3.10531">
        <ele>832.9</ele>
        <time>2019-04-19T11:56:10Z</time>
      </trkpt>
      <trkpt lat="44.11003" lon="3.10539">
        <ele>832.6</ele>
        <time>2019-04-19T11:56:11Z</time>
      </trkpt>
      <trkpt lat="44.11003" lon="3.10546">
        <ele>832.3</ele>
        <time>2019-04-19T11:56:12Z</time>
      </trkpt>
      <trkpt lat="44.11004" lon="3.10554">
        <ele>831.6</ele>
        <time>2019-04-19T11:56:13Z</time>
      </trkpt>
      <trkpt lat="44.11003" lon="3.10562">
        <ele>830.8</ele>
        <time>2019-04-19T11:56:14Z</time>
      </trkpt>
      <trkpt lat="44.10999" lon="3.10561">
        <ele>830.4</ele>
        <time>2019-04-19T11:56:15Z</time>
      </trkpt>
      <trkpt lat="44.10995" lon="3.10563">
        <ele>829.8</ele>
        <time>2019-04-19T11:56:17Z</time>
      </trkpt>
      <trkpt lat="44.10993" lon="3.10568">
        <ele>829.3</ele>
        <time>2019-04-19T11:56:18Z</time>
      </trkpt>
      <trkpt lat="44.10994" lon="3.10577">
        <ele>828.4</ele>
        <time>2019-04-19T11:56:19Z</time>
      </trkpt>
      <trkpt lat="44.10994" lon="3.10585">
        <ele>827.5</ele>
        <time>2019-04-19T11:56:20Z</time>
      </trkpt>
      <trkpt lat="44.10993" lon="3.10593">
        <ele>826.6</ele>
        <time>2019-04-19T11:56:21Z</time>
      </trkpt>
      <trkpt lat="44.10992" lon="3.10598">
        <ele>825.9</ele>
        <time>2019-04-19T11:56:22Z</time>
      </trkpt>
      <trkpt lat="44.10994" lon="3.10603">
        <ele>825</ele>
        <time>2019-04-19T11:56:39Z</time>
      </trkpt>
      <trkpt lat="44.10998" lon="3.10605">
        <ele>824.4</ele>
        <time>2019-04-19T11:56:41Z</time>
      </trkpt>
      <trkpt lat="44.11001" lon="3.10606">
        <ele>823.9</ele>
        <time>2019-04-19T11:56:42Z</time>
      </trkpt>
      <trkpt lat="44.11004" lon="3.10609">
        <ele>823.2</ele>
        <time>2019-04-19T11:56:44Z</time>
      </trkpt>
      <trkpt lat="44.11001" lon="3.10609">
        <ele>822.5</ele>
        <time>2019-04-19T11:56:59Z</time>
      </trkpt>
      <trkpt lat="44.10996" lon="3.10606">
        <ele>821.6</ele>
        <time>2019-04-19T11:57:01Z</time>
      </trkpt>
      <trkpt lat="44.10992" lon="3.10605">
        <ele>821</ele>
        <time>2019-04-19T11:57:03Z</time>
      </trkpt>
      <trkpt lat="44.10988" lon="3.10606">
        <ele>820.5</ele>
        <time>2019-04-19T11:57:06Z</time>
      </trkpt>
      <trkpt lat="44.10985" lon="3.10605">
        <ele>820.1</ele>
        <time>2019-04-19T11:57:08Z</time>
      </trkpt>
      <trkpt lat="44.10982" lon="3.10606">
        <ele>819.8</ele>
        <time>2019-04-19T11:57:10Z</time>
      </trkpt>
      <trkpt lat="44.1098" lon="3.10616">
        <ele>819.3</ele>
        <time>2019-04-19T11:57:12Z</time>
      </trkpt>
      <trkpt lat="44.10983" lon="3.10629">
        <ele>819.1</ele>
        <time>2019-04-19T11:57:13Z</time>
      </trkpt>
      <trkpt lat="44.10985" lon="3.10638">
        <ele>819.1</ele>
        <time>2019-04-19T11:57:14Z</time>
      </trkpt>
      <trkpt lat="44.10987" lon="3.10645">
        <ele>819.1</ele>
        <time>2019-04-19T11:57:15Z</time>
      </trkpt>
      <trkpt lat="44.1099" lon="3.10653">
        <ele>819.1</ele>
        <time>2019-04-19T11:57:16Z</time>
      </trkpt>
      <trkpt lat="44.10994" lon="3.10657">
        <ele>819</ele>
        <time>2019-04-19T11:57:17Z</time>
      </trkpt>
      <trkpt lat="44.10999" lon="3.10659">
        <ele>818.7</ele>
        <time>2019-04-19T11:57:18Z</time>
      </trkpt>
      <trkpt lat="44.11004" lon="3.10662">
        <ele>818.5</ele>
        <time>2019-04-19T11:57:19Z</time>
      </trkpt>
      <trkpt lat="44.1101" lon="3.10665">
        <ele>818.2</ele>
        <time>2019-04-19T11:57:20Z</time>
      </trkpt>
      <trkpt lat="44.11014" lon="3.1067">
        <ele>818</ele>
        <time>2019-04-19T11:57:21Z</time>
      </trkpt>
      <trkpt lat="44.11018" lon="3.10677">
        <ele>817.8</ele>
        <time>2019-04-19T11:57:22Z</time>
      </trkpt>
      <trkpt lat="44.1102" lon="3.10681">
        <ele>817.7</ele>
        <time>2019-04-19T11:57:23Z</time>
      </trkpt>
      <trkpt lat="44.11027" lon="3.10685">
        <ele>817.6</ele>
        <time>2019-04-19T11:57:24Z</time>
      </trkpt>
      <trkpt lat="44.11032" lon="3.10685">
        <ele>817.4</ele>
        <time>2019-04-19T11:57:25Z</time>
      </trkpt>
      <trkpt lat="44.11037" lon="3.10685">
        <ele>817.2</ele>
        <time>2019-04-19T11:57:26Z</time>
      </trkpt>
      <trkpt lat="44.11044" lon="3.10683">
        <ele>816.5</ele>
        <time>2019-04-19T11:57:27Z</time>
      </trkpt>
      <trkpt lat="44.11048" lon="3.10682">
        <ele>815.9</ele>
        <time>2019-04-19T11:57:28Z</time>
      </trkpt>
      <trkpt lat="44.11053" lon="3.10682">
        <ele>815.2</ele>
        <time>2019-04-19T11:57:29Z</time>
      </trkpt>
      <trkpt lat="44.11055" lon="3.10688">
        <ele>814.3</ele>
        <time>2019-04-19T11:57:31Z</time>
      </trkpt>
      <trkpt lat="44.11057" lon="3.10694">
        <ele>813.4</ele>
        <time>2019-04-19T11:57:32Z</time>
      </trkpt>
      <trkpt lat="44.11057" lon="3.10701">
        <ele>812.5</ele>
        <time>2019-04-19T11:57:33Z</time>
      </trkpt>
      <trkpt lat="44.11058" lon="3.10709">
        <ele>811.4</ele>
        <time>2019-04-19T11:57:34Z</time>
      </trkpt>
      <trkpt lat="44.1106" lon="3.10716">
        <ele>810.5</ele>
        <time>2019-04-19T11:57:35Z</time>
      </trkpt>
      <trkpt lat="44.11062" lon="3.10726">
        <ele>809.4</ele>
        <time>2019-04-19T11:57:36Z</time>
      </trkpt>
      <trkpt lat="44.11063" lon="3.10736">
        <ele>808.3</ele>
        <time>2019-04-19T11:57:37Z</time>
      </trkpt>
      <trkpt lat="44.11065" lon="3.10744">
        <ele>807.3</ele>
        <time>2019-04-19T11:57:38Z</time>
      </trkpt>
      <trkpt lat="44.11065" lon="3.10751">
        <ele>806.6</ele>
        <time>2019-04-19T11:57:39Z</time>
      </trkpt>
      <trkpt lat="44.11065" lon="3.10757">
        <ele>806</ele>
        <time>2019-04-19T11:57:40Z</time>
      </trkpt>
      <trkpt lat="44.11066" lon="3.10762">
        <ele>805.5</ele>
        <time>2019-04-19T11:57:41Z</time>
      </trkpt>
      <trkpt lat="44.11069" lon="3.1076">
        <ele>805.1</ele>
        <time>2019-04-19T11:57:42Z</time>
      </trkpt>
      <trkpt lat="44.11073" lon="3.10762">
        <ele>804.7</ele>
        <time>2019-04-19T11:57:43Z</time>
      </trkpt>
      <trkpt lat="44.11074" lon="3.10768">
        <ele>804.3</ele>
        <time>2019-04-19T11:57:45Z</time>
      </trkpt>
      <trkpt lat="44.11075" lon="3.10782">
        <ele>803.3</ele>
        <time>2019-04-19T11:57:47Z</time>
      </trkpt>
      <trkpt lat="44.11075" lon="3.10788">
        <ele>803</ele>
        <time>2019-04-19T11:57:48Z</time>
      </trkpt>
      <trkpt lat="44.11072" lon="3.10795">
        <ele>802.5</ele>
        <time>2019-04-19T11:57:49Z</time>
      </trkpt>
      <trkpt lat="44.11071" lon="3.10804">
        <ele>802</ele>
        <time>2019-04-19T11:57:50Z</time>
      </trkpt>
      <trkpt lat="44.11071" lon="3.10814">
        <ele>801.6</ele>
        <time>2019-04-19T11:57:51Z</time>
      </trkpt>
      <trkpt lat="44.1107" lon="3.10821">
        <ele>801.3</ele>
        <time>2019-04-19T11:57:52Z</time>
      </trkpt>
      <trkpt lat="44.11068" lon="3.10831">
        <ele>800.9</ele>
        <time>2019-04-19T11:57:53Z</time>
      </trkpt>
      <trkpt lat="44.11068" lon="3.1084">
        <ele>800.6</ele>
        <time>2019-04-19T11:57:54Z</time>
      </trkpt>
      <trkpt lat="44.11069" lon="3.10848">
        <ele>800.3</ele>
        <time>2019-04-19T11:57:55Z</time>
      </trkpt>
      <trkpt lat="44.11069" lon="3.10858">
        <ele>799.8</ele>
        <time>2019-04-19T11:57:56Z</time>
      </trkpt>
      <trkpt lat="44.11073" lon="3.10871">
        <ele>799.1</ele>
        <time>2019-04-19T11:57:57Z</time>
      </trkpt>
      <trkpt lat="44.11077" lon="3.10881">
        <ele>798.7</ele>
        <time>2019-04-19T11:57:58Z</time>
      </trkpt>
      <trkpt lat="44.11081" lon="3.10892">
        <ele>798.3</ele>
        <time>2019-04-19T11:57:59Z</time>
      </trkpt>
      <trkpt lat="44.11085" lon="3.109">
        <ele>798</ele>
        <time>2019-04-19T11:58:00Z</time>
      </trkpt>
      <trkpt lat="44.11091" lon="3.10912">
        <ele>797.4</ele>
        <time>2019-04-19T11:58:01Z</time>
      </trkpt>
      <trkpt lat="44.11098" lon="3.10925">
        <ele>796.5</ele>
        <time>2019-04-19T11:58:02Z</time>
      </trkpt>
      <trkpt lat="44.11103" lon="3.10932">
        <ele>795.7</ele>
        <time>2019-04-19T11:58:03Z</time>
      </trkpt>
      <trkpt lat="44.11113" lon="3.10943">
        <ele>794.6</ele>
        <time>2019-04-19T11:58:04Z</time>
      </trkpt>
      <trkpt lat="44.11121" lon="3.10947">
        <ele>794.1</ele>
        <time>2019-04-19T11:58:05Z</time>
      </trkpt>
      <trkpt lat="44.11129" lon="3.10951">
        <ele>793.8</ele>
        <time>2019-04-19T11:58:06Z</time>
      </trkpt>
      <trkpt lat="44.11136" lon="3.10953">
        <ele>793.8</ele>
        <time>2019-04-19T11:58:07Z</time>
      </trkpt>
      <trkpt lat="44.11143" lon="3.10953">
        <ele>793.7</ele>
        <time>2019-04-19T11:58:08Z</time>
      </trkpt>
      <trkpt lat="44.11151" lon="3.10954">
        <ele>793.7</ele>
        <time>2019-04-19T11:58:09Z</time>
      </trkpt>
      <trkpt lat="44.11158" lon="3.10955">
        <ele>793.7</ele>
        <time>2019-04-19T11:58:10Z</time>
      </trkpt>
      <trkpt lat="44.11165" lon="3.10959">
        <ele>793.7</ele>
        <time>2019-04-19T11:58:11Z</time>
      </trkpt>
      <trkpt lat="44.11169" lon="3.10962">
        <ele>793.6</ele>
        <time>2019-04-19T11:58:12Z</time>
      </trkpt>
      <trkpt lat="44.11173" lon="3.10965">
        <ele>793.6</ele>
        <time>2019-04-19T11:58:13Z</time>
      </trkpt>
      <trkpt lat="44.11177" lon="3.1097">
        <ele>793.5</ele>
        <time>2019-04-19T11:58:14Z</time>
      </trkpt>
      <trkpt lat="44.11181" lon="3.10972">
        <ele>793.3</ele>
        <time>2019-04-19T11:58:15Z</time>
      </trkpt>
      <trkpt lat="44.11187" lon="3.10977">
        <ele>793</ele>
        <time>2019-04-19T11:58:16Z</time>
      </trkpt>
      <trkpt lat="44.11188" lon="3.10983">
        <ele>792.7</ele>
        <time>2019-04-19T11:58:17Z</time>
      </trkpt>
      <trkpt lat="44.1119" lon="3.1099">
        <ele>792.5</ele>
        <time>2019-04-19T11:58:18Z</time>
      </trkpt>
      <trkpt lat="44.11193" lon="3.10995">
        <ele>792.3</ele>
        <time>2019-04-19T11:58:19Z</time>
      </trkpt>
      <trkpt lat="44.11197" lon="3.10998">
        <ele>792.1</ele>
        <time>2019-04-19T11:58:20Z</time>
      </trkpt>
      <trkpt lat="44.11201" lon="3.11004">
        <ele>791.9</ele>
        <time>2019-04-19T11:58:21Z</time>
      </trkpt>
      <trkpt lat="44.11205" lon="3.11006">
        <ele>791.9</ele>
        <time>2019-04-19T11:58:22Z</time>
      </trkpt>
      <trkpt lat="44.1121" lon="3.11009">
        <ele>791.8</ele>
        <time>2019-04-19T11:58:23Z</time>
      </trkpt>
      <trkpt lat="44.11212" lon="3.11013">
        <ele>791.8</ele>
        <time>2019-04-19T11:58:24Z</time>
      </trkpt>
      <trkpt lat="44.11216" lon="3.11014">
        <ele>791.9</ele>
        <time>2019-04-19T11:58:26Z</time>
      </trkpt>
      <trkpt lat="44.11217" lon="3.11018">
        <ele>791.9</ele>
        <time>2019-04-19T11:58:27Z</time>
      </trkpt>
      <trkpt lat="44.11221" lon="3.11022">
        <ele>792</ele>
        <time>2019-04-19T11:58:28Z</time>
      </trkpt>
      <trkpt lat="44.11227" lon="3.11028">
        <ele>792.2</ele>
        <time>2019-04-19T11:58:29Z</time>
      </trkpt>
      <trkpt lat="44.1123" lon="3.11034">
        <ele>792.4</ele>
        <time>2019-04-19T11:58:30Z</time>
      </trkpt>
      <trkpt lat="44.11234" lon="3.11039">
        <ele>792.6</ele>
        <time>2019-04-19T11:58:31Z</time>
      </trkpt>
      <trkpt lat="44.11238" lon="3.11045">
        <ele>792.8</ele>
        <time>2019-04-19T11:58:32Z</time>
      </trkpt>
      <trkpt lat="44.11243" lon="3.11047">
        <ele>793</ele>
        <time>2019-04-19T11:58:33Z</time>
      </trkpt>
      <trkpt lat="44.11245" lon="3.1105">
        <ele>793</ele>
        <time>2019-04-19T11:58:34Z</time>
      </trkpt>
      <trkpt lat="44.11251" lon="3.11051">
        <ele>793.1</ele>
        <time>2019-04-19T11:58:35Z</time>
      </trkpt>
      <trkpt lat="44.11256" lon="3.11056">
        <ele>793</ele>
        <time>2019-04-19T11:58:36Z</time>
      </trkpt>
      <trkpt lat="44.1126" lon="3.1106">
        <ele>792.9</ele>
        <time>2019-04-19T11:58:37Z</time>
      </trkpt>
      <trkpt lat="44.11266" lon="3.11062">
        <ele>792.9</ele>
        <time>2019-04-19T11:58:38Z</time>
      </trkpt>
      <trkpt lat="44.11271" lon="3.11067">
        <ele>792.8</ele>
        <time>2019-04-19T11:58:39Z</time>
      </trkpt>
      <trkpt lat="44.11275" lon="3.11072">
        <ele>792.8</ele>
        <time>2019-04-19T11:58:40Z</time>
      </trkpt>
      <trkpt lat="44.11278" lon="3.11077">
        <ele>792.8</ele>
        <time>2019-04-19T11:58:41Z</time>
      </trkpt>
      <trkpt lat="44.11282" lon="3.1108">
        <ele>792.8</ele>
        <time>2019-04-19T11:58:42Z</time>
      </trkpt>
      <trkpt lat="44.11287" lon="3.11082">
        <ele>792.8</ele>
        <time>2019-04-19T11:58:43Z</time>
      </trkpt>
      <trkpt lat="44.11294" lon="3.11086">
        <ele>792.8</ele>
        <time>2019-04-19T11:58:44Z</time>
      </trkpt>
      <trkpt lat="44.11298" lon="3.11088">
        <ele>792.9</ele>
        <time>2019-04-19T11:58:45Z</time>
      </trkpt>
      <trkpt lat="44.11302" lon="3.11092">
        <ele>792.9</ele>
        <time>2019-04-19T11:58:46Z</time>
      </trkpt>
      <trkpt lat="44.11305" lon="3.11096">
        <ele>793</ele>
        <time>2019-04-19T11:58:47Z</time>
      </trkpt>
      <trkpt lat="44.11309" lon="3.11097">
        <ele>793</ele>
        <time>2019-04-19T11:58:48Z</time>
      </trkpt>
      <trkpt lat="44.11312" lon="3.11099">
        <ele>793.1</ele>
        <time>2019-04-19T11:58:49Z</time>
      </trkpt>
      <trkpt lat="44.11316" lon="3.111">
        <ele>793.1</ele>
        <time>2019-04-19T11:58:50Z</time>
      </trkpt>
      <trkpt lat="44.11319" lon="3.11103">
        <ele>793.1</ele>
        <time>2019-04-19T11:58:51Z</time>
      </trkpt>
      <trkpt lat="44.11322" lon="3.11106">
        <ele>793.1</ele>
        <time>2019-04-19T11:58:52Z</time>
      </trkpt>
      <trkpt lat="44.11326" lon="3.1111">
        <ele>793.1</ele>
        <time>2019-04-19T11:58:53Z</time>
      </trkpt>
      <trkpt lat="44.1133" lon="3.11113">
        <ele>793</ele>
        <time>2019-04-19T11:58:54Z</time>
      </trkpt>
      <trkpt lat="44.11334" lon="3.11116">
        <ele>793</ele>
        <time>2019-04-19T11:58:55Z</time>
      </trkpt>
      <trkpt lat="44.11346" lon="3.11123">
        <ele>793</ele>
        <time>2019-04-19T11:58:56Z</time>
      </trkpt>
      <trkpt lat="44.1135" lon="3.11127">
        <ele>792.9</ele>
        <time>2019-04-19T11:58:57Z</time>
      </trkpt>
      <trkpt lat="44.11356" lon="3.1113">
        <ele>792.9</ele>
        <time>2019-04-19T11:58:58Z</time>
      </trkpt>
      <trkpt lat="44.1136" lon="3.11135">
        <ele>792.8</ele>
        <time>2019-04-19T11:58:59Z</time>
      </trkpt>
      <trkpt lat="44.11365" lon="3.1114">
        <ele>792.7</ele>
        <time>2019-04-19T11:59:00Z</time>
      </trkpt>
      <trkpt lat="44.11372" lon="3.11141">
        <ele>792.5</ele>
        <time>2019-04-19T11:59:01Z</time>
      </trkpt>
      <trkpt lat="44.1138" lon="3.1114">
        <ele>792.1</ele>
        <time>2019-04-19T11:59:02Z</time>
      </trkpt>
      <trkpt lat="44.11386" lon="3.11142">
        <ele>791.8</ele>
        <time>2019-04-19T11:59:03Z</time>
      </trkpt>
      <trkpt lat="44.11393" lon="3.11142">
        <ele>791.5</ele>
        <time>2019-04-19T11:59:04Z</time>
      </trkpt>
      <trkpt lat="44.11399" lon="3.11144">
        <ele>791.2</ele>
        <time>2019-04-19T11:59:05Z</time>
      </trkpt>
      <trkpt lat="44.11406" lon="3.11146">
        <ele>791</ele>
        <time>2019-04-19T11:59:06Z</time>
      </trkpt>
      <trkpt lat="44.11413" lon="3.11144">
        <ele>790.9</ele>
        <time>2019-04-19T11:59:07Z</time>
      </trkpt>
      <trkpt lat="44.11418" lon="3.11144">
        <ele>790.9</ele>
        <time>2019-04-19T11:59:08Z</time>
      </trkpt>
      <trkpt lat="44.11423" lon="3.11143">
        <ele>790.9</ele>
        <time>2019-04-19T11:59:09Z</time>
      </trkpt>
      <trkpt lat="44.11428" lon="3.11141">
        <ele>790.9</ele>
        <time>2019-04-19T11:59:10Z</time>
      </trkpt>
      <trkpt lat="44.11433" lon="3.11136">
        <ele>790.9</ele>
        <time>2019-04-19T11:59:11Z</time>
      </trkpt>
      <trkpt lat="44.11441" lon="3.1113">
        <ele>790.9</ele>
        <time>2019-04-19T11:59:12Z</time>
      </trkpt>
      <trkpt lat="44.11447" lon="3.11126">
        <ele>790.8</ele>
        <time>2019-04-19T11:59:13Z</time>
      </trkpt>
      <trkpt lat="44.11457" lon="3.11113">
        <ele>791.1</ele>
        <time>2019-04-19T11:59:14Z</time>
      </trkpt>
      <trkpt lat="44.11464" lon="3.11109">
        <ele>791.4</ele>
        <time>2019-04-19T11:59:15Z</time>
      </trkpt>
      <trkpt lat="44.11468" lon="3.11104">
        <ele>791.6</ele>
        <time>2019-04-19T11:59:16Z</time>
      </trkpt>
      <trkpt lat="44.11474" lon="3.11103">
        <ele>791.6</ele>
        <time>2019-04-19T11:59:17Z</time>
      </trkpt>
      <trkpt lat="44.11477" lon="3.11104">
        <ele>791.7</ele>
        <time>2019-04-19T11:59:18Z</time>
      </trkpt>
      <trkpt lat="44.11481" lon="3.11108">
        <ele>791.8</ele>
        <time>2019-04-19T11:59:19Z</time>
      </trkpt>
      <trkpt lat="44.11487" lon="3.11108">
        <ele>791.8</ele>
        <time>2019-04-19T11:59:20Z</time>
      </trkpt>
      <trkpt lat="44.11488" lon="3.11114">
        <ele>791.7</ele>
        <time>2019-04-19T11:59:21Z</time>
      </trkpt>
      <trkpt lat="44.11489" lon="3.11121">
        <ele>791.5</ele>
        <time>2019-04-19T11:59:24Z</time>
      </trkpt>
      <trkpt lat="44.11489" lon="3.11124">
        <ele>791.4</ele>
        <time>2019-04-19T11:59:25Z</time>
      </trkpt>
      <trkpt lat="44.11487" lon="3.11127">
        <ele>791.3</ele>
        <time>2019-04-19T11:59:26Z</time>
      </trkpt>
      <trkpt lat="44.11485" lon="3.11132">
        <ele>791</ele>
        <time>2019-04-19T11:59:27Z</time>
      </trkpt>
      <trkpt lat="44.11483" lon="3.11138">
        <ele>790.8</ele>
        <time>2019-04-19T11:59:28Z</time>
      </trkpt>
      <trkpt lat="44.11483" lon="3.11143">
        <ele>790.6</ele>
        <time>2019-04-19T11:59:29Z</time>
      </trkpt>
      <trkpt lat="44.11483" lon="3.11153">
        <ele>790.4</ele>
        <time>2019-04-19T11:59:30Z</time>
      </trkpt>
      <trkpt lat="44.11483" lon="3.11161">
        <ele>790.3</ele>
        <time>2019-04-19T11:59:31Z</time>
      </trkpt>
      <trkpt lat="44.11484" lon="3.11169">
        <ele>790.3</ele>
        <time>2019-04-19T11:59:32Z</time>
      </trkpt>
      <trkpt lat="44.11487" lon="3.11176">
        <ele>790.4</ele>
        <time>2019-04-19T11:59:33Z</time>
      </trkpt>
      <trkpt lat="44.11482" lon="3.11181">
        <ele>790.5</ele>
        <time>2019-04-19T11:59:34Z</time>
      </trkpt>
      <trkpt lat="44.11476" lon="3.11185">
        <ele>790.8</ele>
        <time>2019-04-19T11:59:35Z</time>
      </trkpt>
      <trkpt lat="44.11473" lon="3.11187">
        <ele>791</ele>
        <time>2019-04-19T11:59:36Z</time>
      </trkpt>
      <trkpt lat="44.11473" lon="3.11199">
        <ele>792</ele>
        <time>2019-04-19T11:59:39Z</time>
      </trkpt>
      <trkpt lat="44.11474" lon="3.11204">
        <ele>792</ele>
        <time>2019-04-19T11:59:40Z</time>
      </trkpt>
      <trkpt lat="44.11474" lon="3.11209">
        <ele>792</ele>
        <time>2019-04-19T11:59:43Z</time>
      </trkpt>
      <trkpt lat="44.11476" lon="3.11213">
        <ele>792.9</ele>
        <time>2019-04-19T11:59:45Z</time>
      </trkpt>
      <trkpt lat="44.11478" lon="3.11217">
        <ele>793.4</ele>
        <time>2019-04-19T11:59:47Z</time>
      </trkpt>
      <trkpt lat="44.11479" lon="3.11222">
        <ele>793.9</ele>
        <time>2019-04-19T11:59:49Z</time>
      </trkpt>
      <trkpt lat="44.1148" lon="3.11227">
        <ele>794.4</ele>
        <time>2019-04-19T11:59:52Z</time>
      </trkpt>
      <trkpt lat="44.11482" lon="3.11231">
        <ele>795</ele>
        <time>2019-04-19T11:59:54Z</time>
      </trkpt>
      <trkpt lat="44.11485" lon="3.11236">
        <ele>796</ele>
        <time>2019-04-19T11:59:56Z</time>
      </trkpt>
      <trkpt lat="44.11487" lon="3.11241">
        <ele>796.9</ele>
        <time>2019-04-19T11:59:58Z</time>
      </trkpt>
      <trkpt lat="44.11488" lon="3.11246">
        <ele>797.7</ele>
        <time>2019-04-19T12:00:00Z</time>
      </trkpt>
      <trkpt lat="44.1149" lon="3.11249">
        <ele>798.5</ele>
        <time>2019-04-19T12:00:03Z</time>
      </trkpt>
      <trkpt lat="44.11493" lon="3.11253">
        <ele>799.3</ele>
        <time>2019-04-19T12:00:05Z</time>
      </trkpt>
      <trkpt lat="44.11495" lon="3.11254">
        <ele>799.9</ele>
        <time>2019-04-19T12:00:12Z</time>
      </trkpt>
      <trkpt lat="44.11505" lon="3.11272">
        <ele>802.8</ele>
        <time>2019-04-19T12:01:27Z</time>
      </trkpt>
      <trkpt lat="44.11503" lon="3.11275">
        <ele>803.3</ele>
        <time>2019-04-19T12:01:29Z</time>
      </trkpt>
      <trkpt lat="44.11502" lon="3.11278">
        <ele>803.7</ele>
        <time>2019-04-19T12:01:31Z</time>
      </trkpt>
      <trkpt lat="44.115" lon="3.11282">
        <ele>805.1</ele>
        <time>2019-04-19T12:01:34Z</time>
      </trkpt>
      <trkpt lat="44.11499" lon="3.11286">
        <ele>805.3</ele>
        <time>2019-04-19T12:01:37Z</time>
      </trkpt>
      <trkpt lat="44.11498" lon="3.1129">
        <ele>805.6</ele>
        <time>2019-04-19T12:01:40Z</time>
      </trkpt>
      <trkpt lat="44.11497" lon="3.11295">
        <ele>805.8</ele>
        <time>2019-04-19T12:01:43Z</time>
      </trkpt>
      <trkpt lat="44.11495" lon="3.11299">
        <ele>806.1</ele>
        <time>2019-04-19T12:01:45Z</time>
      </trkpt>
      <trkpt lat="44.11493" lon="3.11302">
        <ele>806.3</ele>
        <time>2019-04-19T12:01:47Z</time>
      </trkpt>
      <trkpt lat="44.1149" lon="3.11303">
        <ele>806.5</ele>
        <time>2019-04-19T12:01:50Z</time>
      </trkpt>
      <trkpt lat="44.11488" lon="3.11308">
        <ele>806.7</ele>
        <time>2019-04-19T12:01:52Z</time>
      </trkpt>
      <trkpt lat="44.11486" lon="3.11312">
        <ele>806.9</ele>
        <time>2019-04-19T12:01:53Z</time>
      </trkpt>
      <trkpt lat="44.11484" lon="3.11316">
        <ele>807</ele>
        <time>2019-04-19T12:01:54Z</time>
      </trkpt>
      <trkpt lat="44.11481" lon="3.11321">
        <ele>807.2</ele>
        <time>2019-04-19T12:01:55Z</time>
      </trkpt>
      <trkpt lat="44.11477" lon="3.11322">
        <ele>807.3</ele>
        <time>2019-04-19T12:01:56Z</time>
      </trkpt>
      <trkpt lat="44.11474" lon="3.11323">
        <ele>807.4</ele>
        <time>2019-04-19T12:01:57Z</time>
      </trkpt>
      <trkpt lat="44.1147" lon="3.11324">
        <ele>807.5</ele>
        <time>2019-04-19T12:01:58Z</time>
      </trkpt>
      <trkpt lat="44.11466" lon="3.11325">
        <ele>807.7</ele>
        <time>2019-04-19T12:01:59Z</time>
      </trkpt>
      <trkpt lat="44.11463" lon="3.11326">
        <ele>807.8</ele>
        <time>2019-04-19T12:02:00Z</time>
      </trkpt>
      <trkpt lat="44.11459" lon="3.11328">
        <ele>807.9</ele>
        <time>2019-04-19T12:02:02Z</time>
      </trkpt>
      <trkpt lat="44.11455" lon="3.11332">
        <ele>808.2</ele>
        <time>2019-04-19T12:02:04Z</time>
      </trkpt>
      <trkpt lat="44.11452" lon="3.11336">
        <ele>808.4</ele>
        <time>2019-04-19T12:02:06Z</time>
      </trkpt>
      <trkpt lat="44.11449" lon="3.11343">
        <ele>808.7</ele>
        <time>2019-04-19T12:02:08Z</time>
      </trkpt>
      <trkpt lat="44.11446" lon="3.11346">
        <ele>809</ele>
        <time>2019-04-19T12:02:09Z</time>
      </trkpt>
      <trkpt lat="44.11442" lon="3.11348">
        <ele>809.3</ele>
        <time>2019-04-19T12:02:10Z</time>
      </trkpt>
      <trkpt lat="44.11438" lon="3.1135">
        <ele>809.7</ele>
        <time>2019-04-19T12:02:11Z</time>
      </trkpt>
      <trkpt lat="44.11434" lon="3.11351">
        <ele>809.9</ele>
        <time>2019-04-19T12:02:12Z</time>
      </trkpt>
      <trkpt lat="44.11431" lon="3.11352">
        <ele>810.1</ele>
        <time>2019-04-19T12:02:13Z</time>
      </trkpt>
      <trkpt lat="44.11428" lon="3.11353">
        <ele>810.3</ele>
        <time>2019-04-19T12:02:14Z</time>
      </trkpt>
      <trkpt lat="44.11425" lon="3.11354">
        <ele>810.6</ele>
        <time>2019-04-19T12:02:15Z</time>
      </trkpt>
      <trkpt lat="44.11422" lon="3.11355">
        <ele>810.8</ele>
        <time>2019-04-19T12:02:16Z</time>
      </trkpt>
      <trkpt lat="44.1142" lon="3.11357">
        <ele>811</ele>
        <time>2019-04-19T12:02:17Z</time>
      </trkpt>
      <trkpt lat="44.11417" lon="3.1136">
        <ele>811.2</ele>
        <time>2019-04-19T12:02:18Z</time>
      </trkpt>
      <trkpt lat="44.11415" lon="3.11362">
        <ele>811.4</ele>
        <time>2019-04-19T12:02:19Z</time>
      </trkpt>
      <trkpt lat="44.11411" lon="3.11366">
        <ele>811.9</ele>
        <time>2019-04-19T12:02:21Z</time>
      </trkpt>
      <trkpt lat="44.11409" lon="3.11372">
        <ele>812.4</ele>
        <time>2019-04-19T12:02:23Z</time>
      </trkpt>
      <trkpt lat="44.11405" lon="3.11379">
        <ele>813.2</ele>
        <time>2019-04-19T12:02:25Z</time>
      </trkpt>
      <trkpt lat="44.11404" lon="3.11383">
        <ele>813.5</ele>
        <time>2019-04-19T12:02:26Z</time>
      </trkpt>
      <trkpt lat="44.114" lon="3.11388">
        <ele>814.2</ele>
        <time>2019-04-19T12:02:27Z</time>
      </trkpt>
      <trkpt lat="44.11395" lon="3.11391">
        <ele>814.8</ele>
        <time>2019-04-19T12:02:28Z</time>
      </trkpt>
      <trkpt lat="44.11393" lon="3.11394">
        <ele>815.2</ele>
        <time>2019-04-19T12:02:29Z</time>
      </trkpt>
      <trkpt lat="44.11389" lon="3.11397">
        <ele>815.8</ele>
        <time>2019-04-19T12:02:31Z</time>
      </trkpt>
      <trkpt lat="44.11386" lon="3.11399">
        <ele>816.2</ele>
        <time>2019-04-19T12:02:33Z</time>
      </trkpt>
      <trkpt lat="44.11383" lon="3.11402">
        <ele>816.7</ele>
        <time>2019-04-19T12:02:35Z</time>
      </trkpt>
      <trkpt lat="44.11379" lon="3.11404">
        <ele>817.1</ele>
        <time>2019-04-19T12:02:37Z</time>
      </trkpt>
      <trkpt lat="44.11376" lon="3.11406">
        <ele>817.5</ele>
        <time>2019-04-19T12:02:39Z</time>
      </trkpt>
      <trkpt lat="44.11373" lon="3.11409">
        <ele>817.9</ele>
        <time>2019-04-19T12:02:41Z</time>
      </trkpt>
      <trkpt lat="44.1137" lon="3.1141">
        <ele>818.3</ele>
        <time>2019-04-19T12:02:43Z</time>
      </trkpt>
      <trkpt lat="44.11366" lon="3.11411">
        <ele>818.7</ele>
        <time>2019-04-19T12:02:45Z</time>
      </trkpt>
      <trkpt lat="44.11364" lon="3.11413">
        <ele>819</ele>
        <time>2019-04-19T12:02:47Z</time>
      </trkpt>
      <trkpt lat="44.11361" lon="3.11413">
        <ele>819.3</ele>
        <time>2019-04-19T12:02:49Z</time>
      </trkpt>
      <trkpt lat="44.11358" lon="3.11415">
        <ele>819.7</ele>
        <time>2019-04-19T12:02:51Z</time>
      </trkpt>
      <trkpt lat="44.11356" lon="3.11421">
        <ele>820.3</ele>
        <time>2019-04-19T12:02:54Z</time>
      </trkpt>
      <trkpt lat="44.11355" lon="3.11428">
        <ele>820.9</ele>
        <time>2019-04-19T12:02:56Z</time>
      </trkpt>
      <trkpt lat="44.11354" lon="3.11432">
        <ele>821.2</ele>
        <time>2019-04-19T12:02:58Z</time>
      </trkpt>
      <trkpt lat="44.1135" lon="3.11431">
        <ele>821.6</ele>
        <time>2019-04-19T12:03:01Z</time>
      </trkpt>
      <trkpt lat="44.11347" lon="3.11432">
        <ele>821.8</ele>
        <time>2019-04-19T12:03:03Z</time>
      </trkpt>
      <trkpt lat="44.11343" lon="3.11434">
        <ele>822.1</ele>
        <time>2019-04-19T12:03:05Z</time>
      </trkpt>
      <trkpt lat="44.11338" lon="3.11436">
        <ele>822.6</ele>
        <time>2019-04-19T12:03:07Z</time>
      </trkpt>
      <trkpt lat="44.11334" lon="3.11437">
        <ele>822.8</ele>
        <time>2019-04-19T12:03:09Z</time>
      </trkpt>
      <trkpt lat="44.11332" lon="3.11439">
        <ele>823</ele>
        <time>2019-04-19T12:03:12Z</time>
      </trkpt>
      <trkpt lat="44.11328" lon="3.11442">
        <ele>823.1</ele>
        <time>2019-04-19T12:03:14Z</time>
      </trkpt>
      <trkpt lat="44.11324" lon="3.11443">
        <ele>823.2</ele>
        <time>2019-04-19T12:03:15Z</time>
      </trkpt>
      <trkpt lat="44.11321" lon="3.11443">
        <ele>823.3</ele>
        <time>2019-04-19T12:03:16Z</time>
      </trkpt>
      <trkpt lat="44.11316" lon="3.11443">
        <ele>823.3</ele>
        <time>2019-04-19T12:03:17Z</time>
      </trkpt>
      <trkpt lat="44.11311" lon="3.11443">
        <ele>823.4</ele>
        <time>2019-04-19T12:03:18Z</time>
      </trkpt>
      <trkpt lat="44.11306" lon="3.11443">
        <ele>823.5</ele>
        <time>2019-04-19T12:03:19Z</time>
      </trkpt>
      <trkpt lat="44.11301" lon="3.11443">
        <ele>823.5</ele>
        <time>2019-04-19T12:03:20Z</time>
      </trkpt>
      <trkpt lat="44.11296" lon="3.11444">
        <ele>823.6</ele>
        <time>2019-04-19T12:03:21Z</time>
      </trkpt>
      <trkpt lat="44.11289" lon="3.11444">
        <ele>823.6</ele>
        <time>2019-04-19T12:03:22Z</time>
      </trkpt>
      <trkpt lat="44.11283" lon="3.11445">
        <ele>823.7</ele>
        <time>2019-04-19T12:03:23Z</time>
      </trkpt>
      <trkpt lat="44.11279" lon="3.11445">
        <ele>823.7</ele>
        <time>2019-04-19T12:03:24Z</time>
      </trkpt>
      <trkpt lat="44.11276" lon="3.11444">
        <ele>823.7</ele>
        <time>2019-04-19T12:03:25Z</time>
      </trkpt>
      <trkpt lat="44.11272" lon="3.11443">
        <ele>823.8</ele>
        <time>2019-04-19T12:03:26Z</time>
      </trkpt>
      <trkpt lat="44.11268" lon="3.11442">
        <ele>823.7</ele>
        <time>2019-04-19T12:03:27Z</time>
      </trkpt>
      <trkpt lat="44.11265" lon="3.11442">
        <ele>823.7</ele>
        <time>2019-04-19T12:03:28Z</time>
      </trkpt>
      <trkpt lat="44.11261" lon="3.11442">
        <ele>823.7</ele>
        <time>2019-04-19T12:03:29Z</time>
      </trkpt>
      <trkpt lat="44.11257" lon="3.11442">
        <ele>823.7</ele>
        <time>2019-04-19T12:03:30Z</time>
      </trkpt>
      <trkpt lat="44.11254" lon="3.11443">
        <ele>823.7</ele>
        <time>2019-04-19T12:03:31Z</time>
      </trkpt>
      <trkpt lat="44.11251" lon="3.11444">
        <ele>823.6</ele>
        <time>2019-04-19T12:03:32Z</time>
      </trkpt>
      <trkpt lat="44.11247" lon="3.11445">
        <ele>823.6</ele>
        <time>2019-04-19T12:03:33Z</time>
      </trkpt>
      <trkpt lat="44.11243" lon="3.11446">
        <ele>823.5</ele>
        <time>2019-04-19T12:03:34Z</time>
      </trkpt>
      <trkpt lat="44.11239" lon="3.11448">
        <ele>823.5</ele>
        <time>2019-04-19T12:03:35Z</time>
      </trkpt>
      <trkpt lat="44.11233" lon="3.11452">
        <ele>823.4</ele>
        <time>2019-04-19T12:03:36Z</time>
      </trkpt>
      <trkpt lat="44.11228" lon="3.11457">
        <ele>823.3</ele>
        <time>2019-04-19T12:03:37Z</time>
      </trkpt>
      <trkpt lat="44.11215" lon="3.11461">
        <ele>822.9</ele>
        <time>2019-04-19T12:03:38Z</time>
      </trkpt>
      <trkpt lat="44.1121" lon="3.11462">
        <ele>822.8</ele>
        <time>2019-04-19T12:03:39Z</time>
      </trkpt>
      <trkpt lat="44.11204" lon="3.11465">
        <ele>822.6</ele>
        <time>2019-04-19T12:03:40Z</time>
      </trkpt>
      <trkpt lat="44.112" lon="3.11464">
        <ele>822.5</ele>
        <time>2019-04-19T12:03:41Z</time>
      </trkpt>
      <trkpt lat="44.11193" lon="3.11466">
        <ele>822.3</ele>
        <time>2019-04-19T12:03:42Z</time>
      </trkpt>
      <trkpt lat="44.11189" lon="3.11474">
        <ele>822</ele>
        <time>2019-04-19T12:03:43Z</time>
      </trkpt>
      <trkpt lat="44.11182" lon="3.11474">
        <ele>821.7</ele>
        <time>2019-04-19T12:03:44Z</time>
      </trkpt>
      <trkpt lat="44.11178" lon="3.11476">
        <ele>821.5</ele>
        <time>2019-04-19T12:03:45Z</time>
      </trkpt>
      <trkpt lat="44.11172" lon="3.1148">
        <ele>821.3</ele>
        <time>2019-04-19T12:03:46Z</time>
      </trkpt>
      <trkpt lat="44.11166" lon="3.11484">
        <ele>821</ele>
        <time>2019-04-19T12:03:47Z</time>
      </trkpt>
      <trkpt lat="44.11161" lon="3.11489">
        <ele>820.8</ele>
        <time>2019-04-19T12:03:48Z</time>
      </trkpt>
      <trkpt lat="44.11157" lon="3.11496">
        <ele>820.5</ele>
        <time>2019-04-19T12:03:49Z</time>
      </trkpt>
      <trkpt lat="44.11154" lon="3.115">
        <ele>820.3</ele>
        <time>2019-04-19T12:03:50Z</time>
      </trkpt>
      <trkpt lat="44.11148" lon="3.11507">
        <ele>820</ele>
        <time>2019-04-19T12:03:51Z</time>
      </trkpt>
      <trkpt lat="44.11144" lon="3.11513">
        <ele>819.7</ele>
        <time>2019-04-19T12:03:52Z</time>
      </trkpt>
      <trkpt lat="44.11138" lon="3.1152">
        <ele>819.3</ele>
        <time>2019-04-19T12:03:53Z</time>
      </trkpt>
      <trkpt lat="44.11133" lon="3.11526">
        <ele>818.9</ele>
        <time>2019-04-19T12:03:54Z</time>
      </trkpt>
      <trkpt lat="44.11128" lon="3.11532">
        <ele>818.5</ele>
        <time>2019-04-19T12:03:55Z</time>
      </trkpt>
      <trkpt lat="44.11124" lon="3.11538">
        <ele>818.1</ele>
        <time>2019-04-19T12:03:56Z</time>
      </trkpt>
      <trkpt lat="44.11118" lon="3.11545">
        <ele>817.8</ele>
        <time>2019-04-19T12:03:57Z</time>
      </trkpt>
      <trkpt lat="44.11113" lon="3.11551">
        <ele>817.4</ele>
        <time>2019-04-19T12:03:58Z</time>
      </trkpt>
      <trkpt lat="44.11109" lon="3.11563">
        <ele>816.9</ele>
        <time>2019-04-19T12:03:59Z</time>
      </trkpt>
      <trkpt lat="44.11104" lon="3.1157">
        <ele>816.6</ele>
        <time>2019-04-19T12:04:00Z</time>
      </trkpt>
      <trkpt lat="44.11099" lon="3.11576">
        <ele>816.2</ele>
        <time>2019-04-19T12:04:01Z</time>
      </trkpt>
      <trkpt lat="44.11095" lon="3.11583">
        <ele>815.9</ele>
        <time>2019-04-19T12:04:02Z</time>
      </trkpt>
      <trkpt lat="44.11093" lon="3.11589">
        <ele>815.6</ele>
        <time>2019-04-19T12:04:03Z</time>
      </trkpt>
      <trkpt lat="44.1109" lon="3.11595">
        <ele>815.6</ele>
        <time>2019-04-19T12:04:05Z</time>
      </trkpt>
      <trkpt lat="44.11088" lon="3.11599">
        <ele>816.1</ele>
        <time>2019-04-19T12:04:07Z</time>
      </trkpt>
      <trkpt lat="44.11091" lon="3.11605">
        <ele>816.8</ele>
        <time>2019-04-19T12:04:10Z</time>
      </trkpt>
      <trkpt lat="44.11094" lon="3.11604">
        <ele>817.3</ele>
        <time>2019-04-19T12:04:12Z</time>
      </trkpt>
      <trkpt lat="44.11097" lon="3.11606">
        <ele>817.8</ele>
        <time>2019-04-19T12:04:14Z</time>
      </trkpt>
      <trkpt lat="44.111" lon="3.11608">
        <ele>818.2</ele>
        <time>2019-04-19T12:04:16Z</time>
      </trkpt>
      <trkpt lat="44.11104" lon="3.1161">
        <ele>818.7</ele>
        <time>2019-04-19T12:04:18Z</time>
      </trkpt>
      <trkpt lat="44.1111" lon="3.11609">
        <ele>819.3</ele>
        <time>2019-04-19T12:04:20Z</time>
      </trkpt>
      <trkpt lat="44.11114" lon="3.11607">
        <ele>819.8</ele>
        <time>2019-04-19T12:04:22Z</time>
      </trkpt>
      <trkpt lat="44.11119" lon="3.11607">
        <ele>820.3</ele>
        <time>2019-04-19T12:04:24Z</time>
      </trkpt>
      <trkpt lat="44.11122" lon="3.11607">
        <ele>820.7</ele>
        <time>2019-04-19T12:04:26Z</time>
      </trkpt>
      <trkpt lat="44.11126" lon="3.11608">
        <ele>821.1</ele>
        <time>2019-04-19T12:04:28Z</time>
      </trkpt>
      <trkpt lat="44.11131" lon="3.11609">
        <ele>821.6</ele>
        <time>2019-04-19T12:04:30Z</time>
      </trkpt>
      <trkpt lat="44.11135" lon="3.11611">
        <ele>822.1</ele>
        <time>2019-04-19T12:04:32Z</time>
      </trkpt>
      <trkpt lat="44.11139" lon="3.11612">
        <ele>822.7</ele>
        <time>2019-04-19T12:04:35Z</time>
      </trkpt>
      <trkpt lat="44.11143" lon="3.11612">
        <ele>823.2</ele>
        <time>2019-04-19T12:04:37Z</time>
      </trkpt>
      <trkpt lat="44.11146" lon="3.11614">
        <ele>823.6</ele>
        <time>2019-04-19T12:04:39Z</time>
      </trkpt>
      <trkpt lat="44.11148" lon="3.11617">
        <ele>824</ele>
        <time>2019-04-19T12:04:41Z</time>
      </trkpt>
      <trkpt lat="44.11152" lon="3.11618">
        <ele>824.5</ele>
        <time>2019-04-19T12:04:43Z</time>
      </trkpt>
      <trkpt lat="44.11157" lon="3.1162">
        <ele>825.1</ele>
        <time>2019-04-19T12:04:45Z</time>
      </trkpt>
      <trkpt lat="44.1116" lon="3.1162">
        <ele>825.5</ele>
        <time>2019-04-19T12:04:46Z</time>
      </trkpt>
      <trkpt lat="44.11164" lon="3.11622">
        <ele>826</ele>
        <time>2019-04-19T12:04:48Z</time>
      </trkpt>
      <trkpt lat="44.11166" lon="3.11624">
        <ele>826.4</ele>
        <time>2019-04-19T12:04:50Z</time>
      </trkpt>
      <trkpt lat="44.11171" lon="3.11623">
        <ele>827</ele>
        <time>2019-04-19T12:04:53Z</time>
      </trkpt>
      <trkpt lat="44.11173" lon="3.11626">
        <ele>827.4</ele>
        <time>2019-04-19T12:04:55Z</time>
      </trkpt>
      <trkpt lat="44.11177" lon="3.11628">
        <ele>827.8</ele>
        <time>2019-04-19T12:04:58Z</time>
      </trkpt>
      <trkpt lat="44.11182" lon="3.11627">
        <ele>828.4</ele>
        <time>2019-04-19T12:05:00Z</time>
      </trkpt>
      <trkpt lat="44.11184" lon="3.11625">
        <ele>828.8</ele>
        <time>2019-04-19T12:05:02Z</time>
      </trkpt>
      <trkpt lat="44.11188" lon="3.11624">
        <ele>829.3</ele>
        <time>2019-04-19T12:05:04Z</time>
      </trkpt>
      <trkpt lat="44.11193" lon="3.11624">
        <ele>829.9</ele>
        <time>2019-04-19T12:05:06Z</time>
      </trkpt>
      <trkpt lat="44.11196" lon="3.11624">
        <ele>830.3</ele>
        <time>2019-04-19T12:05:08Z</time>
      </trkpt>
      <trkpt lat="44.11199" lon="3.11626">
        <ele>830.7</ele>
        <time>2019-04-19T12:05:10Z</time>
      </trkpt>
      <trkpt lat="44.11202" lon="3.1163">
        <ele>831.2</ele>
        <time>2019-04-19T12:05:13Z</time>
      </trkpt>
      <trkpt lat="44.11203" lon="3.11634">
        <ele>831.6</ele>
        <time>2019-04-19T12:05:16Z</time>
      </trkpt>
      <trkpt lat="44.11206" lon="3.11635">
        <ele>832</ele>
        <time>2019-04-19T12:05:18Z</time>
      </trkpt>
      <trkpt lat="44.1121" lon="3.11636">
        <ele>832.5</ele>
        <time>2019-04-19T12:05:20Z</time>
      </trkpt>
      <trkpt lat="44.11212" lon="3.11632">
        <ele>832.9</ele>
        <time>2019-04-19T12:05:24Z</time>
      </trkpt>
      <trkpt lat="44.11212" lon="3.11628">
        <ele>833.3</ele>
        <time>2019-04-19T12:05:31Z</time>
      </trkpt>
      <trkpt lat="44.11215" lon="3.11627">
        <ele>833.7</ele>
        <time>2019-04-19T12:07:08Z</time>
      </trkpt>
      <trkpt lat="44.11218" lon="3.11627">
        <ele>834.1</ele>
        <time>2019-04-19T12:07:11Z</time>
      </trkpt>
      <trkpt lat="44.11222" lon="3.11626">
        <ele>834.5</ele>
        <time>2019-04-19T12:07:13Z</time>
      </trkpt>
      <trkpt lat="44.11225" lon="3.11626">
        <ele>835</ele>
        <time>2019-04-19T12:07:15Z</time>
      </trkpt>
      <trkpt lat="44.11228" lon="3.11627">
        <ele>835.4</ele>
        <time>2019-04-19T12:07:17Z</time>
      </trkpt>
      <trkpt lat="44.11232" lon="3.11627">
        <ele>836</ele>
        <time>2019-04-19T12:07:19Z</time>
      </trkpt>
      <trkpt lat="44.11235" lon="3.11627">
        <ele>836.5</ele>
        <time>2019-04-19T12:07:21Z</time>
      </trkpt>
      <trkpt lat="44.11239" lon="3.11627">
        <ele>837</ele>
        <time>2019-04-19T12:07:23Z</time>
      </trkpt>
      <trkpt lat="44.11243" lon="3.11627">
        <ele>837.4</ele>
        <time>2019-04-19T12:07:25Z</time>
      </trkpt>
      <trkpt lat="44.11247" lon="3.11627">
        <ele>837.8</ele>
        <time>2019-04-19T12:07:27Z</time>
      </trkpt>
      <trkpt lat="44.1125" lon="3.11625">
        <ele>838.2</ele>
        <time>2019-04-19T12:07:29Z</time>
      </trkpt>
      <trkpt lat="44.11253" lon="3.11624">
        <ele>838.5</ele>
        <time>2019-04-19T12:07:31Z</time>
      </trkpt>
      <trkpt lat="44.11257" lon="3.11622">
        <ele>838.9</ele>
        <time>2019-04-19T12:07:33Z</time>
      </trkpt>
      <trkpt lat="44.1126" lon="3.11621">
        <ele>839.3</ele>
        <time>2019-04-19T12:07:35Z</time>
      </trkpt>
      <trkpt lat="44.11263" lon="3.1162">
        <ele>839.6</ele>
        <time>2019-04-19T12:07:37Z</time>
      </trkpt>
      <trkpt lat="44.11268" lon="3.11619">
        <ele>840.1</ele>
        <time>2019-04-19T12:07:39Z</time>
      </trkpt>
      <trkpt lat="44.11271" lon="3.11619">
        <ele>840.5</ele>
        <time>2019-04-19T12:07:41Z</time>
      </trkpt>
      <trkpt lat="44.11275" lon="3.1162">
        <ele>841</ele>
        <time>2019-04-19T12:07:44Z</time>
      </trkpt>
      <trkpt lat="44.11279" lon="3.11618">
        <ele>841.5</ele>
        <time>2019-04-19T12:07:46Z</time>
      </trkpt>
      <trkpt lat="44.11281" lon="3.11615">
        <ele>841.9</ele>
        <time>2019-04-19T12:07:47Z</time>
      </trkpt>
      <trkpt lat="44.11285" lon="3.11614">
        <ele>842.1</ele>
        <time>2019-04-19T12:07:48Z</time>
      </trkpt>
      <trkpt lat="44.11288" lon="3.11613">
        <ele>842.3</ele>
        <time>2019-04-19T12:07:49Z</time>
      </trkpt>
      <trkpt lat="44.11292" lon="3.11613">
        <ele>842.7</ele>
        <time>2019-04-19T12:07:51Z</time>
      </trkpt>
      <trkpt lat="44.11295" lon="3.11613">
        <ele>842.9</ele>
        <time>2019-04-19T12:07:52Z</time>
      </trkpt>
      <trkpt lat="44.11298" lon="3.11613">
        <ele>843.1</ele>
        <time>2019-04-19T12:07:53Z</time>
      </trkpt>
      <trkpt lat="44.11302" lon="3.11613">
        <ele>843.3</ele>
        <time>2019-04-19T12:07:55Z</time>
      </trkpt>
      <trkpt lat="44.11305" lon="3.11615">
        <ele>843.5</ele>
        <time>2019-04-19T12:07:57Z</time>
      </trkpt>
      <trkpt lat="44.11308" lon="3.11618">
        <ele>843.6</ele>
        <time>2019-04-19T12:07:59Z</time>
      </trkpt>
      <trkpt lat="44.1131" lon="3.11621">
        <ele>843.7</ele>
        <time>2019-04-19T12:08:01Z</time>
      </trkpt>
      <trkpt lat="44.11314" lon="3.11626">
        <ele>843.8</ele>
        <time>2019-04-19T12:08:03Z</time>
      </trkpt>
      <trkpt lat="44.11317" lon="3.11628">
        <ele>843.9</ele>
        <time>2019-04-19T12:08:04Z</time>
      </trkpt>
      <trkpt lat="44.1132" lon="3.1163">
        <ele>844</ele>
        <time>2019-04-19T12:08:05Z</time>
      </trkpt>
      <trkpt lat="44.11323" lon="3.11631">
        <ele>844.1</ele>
        <time>2019-04-19T12:08:06Z</time>
      </trkpt>
      <trkpt lat="44.11328" lon="3.11632">
        <ele>844.4</ele>
        <time>2019-04-19T12:08:08Z</time>
      </trkpt>
      <trkpt lat="44.11331" lon="3.11633">
        <ele>844.6</ele>
        <time>2019-04-19T12:08:10Z</time>
      </trkpt>
      <trkpt lat="44.11334" lon="3.11634">
        <ele>844.8</ele>
        <time>2019-04-19T12:08:12Z</time>
      </trkpt>
      <trkpt lat="44.11337" lon="3.11634">
        <ele>845</ele>
        <time>2019-04-19T12:08:13Z</time>
      </trkpt>
      <trkpt lat="44.1134" lon="3.11635">
        <ele>845.2</ele>
        <time>2019-04-19T12:08:14Z</time>
      </trkpt>
      <trkpt lat="44.11345" lon="3.11637">
        <ele>845.7</ele>
        <time>2019-04-19T12:08:16Z</time>
      </trkpt>
      <trkpt lat="44.11349" lon="3.11639">
        <ele>846.1</ele>
        <time>2019-04-19T12:08:18Z</time>
      </trkpt>
      <trkpt lat="44.11353" lon="3.11641">
        <ele>846.4</ele>
        <time>2019-04-19T12:08:19Z</time>
      </trkpt>
      <trkpt lat="44.11356" lon="3.11642">
        <ele>846.6</ele>
        <time>2019-04-19T12:08:20Z</time>
      </trkpt>
      <trkpt lat="44.11361" lon="3.11645">
        <ele>847</ele>
        <time>2019-04-19T12:08:22Z</time>
      </trkpt>
      <trkpt lat="44.11364" lon="3.11647">
        <ele>847.1</ele>
        <time>2019-04-19T12:08:23Z</time>
      </trkpt>
      <trkpt lat="44.11369" lon="3.1165">
        <ele>847.4</ele>
        <time>2019-04-19T12:08:25Z</time>
      </trkpt>
      <trkpt lat="44.11373" lon="3.11652">
        <ele>847.6</ele>
        <time>2019-04-19T12:08:26Z</time>
      </trkpt>
      <trkpt lat="44.11376" lon="3.11653">
        <ele>847.8</ele>
        <time>2019-04-19T12:08:27Z</time>
      </trkpt>
      <trkpt lat="44.1138" lon="3.11654">
        <ele>848</ele>
        <time>2019-04-19T12:08:28Z</time>
      </trkpt>
      <trkpt lat="44.11383" lon="3.11655">
        <ele>848.2</ele>
        <time>2019-04-19T12:08:29Z</time>
      </trkpt>
      <trkpt lat="44.11387" lon="3.11656">
        <ele>848.5</ele>
        <time>2019-04-19T12:08:30Z</time>
      </trkpt>
      <trkpt lat="44.1139" lon="3.11657">
        <ele>848.7</ele>
        <time>2019-04-19T12:08:31Z</time>
      </trkpt>
      <trkpt lat="44.11393" lon="3.11657">
        <ele>849</ele>
        <time>2019-04-19T12:08:32Z</time>
      </trkpt>
      <trkpt lat="44.11396" lon="3.11658">
        <ele>849.2</ele>
        <time>2019-04-19T12:08:33Z</time>
      </trkpt>
      <trkpt lat="44.11399" lon="3.11658">
        <ele>849.4</ele>
        <time>2019-04-19T12:08:34Z</time>
      </trkpt>
      <trkpt lat="44.11403" lon="3.1166">
        <ele>849.8</ele>
        <time>2019-04-19T12:08:36Z</time>
      </trkpt>
      <trkpt lat="44.11406" lon="3.11661">
        <ele>850</ele>
        <time>2019-04-19T12:08:38Z</time>
      </trkpt>
      <trkpt lat="44.11409" lon="3.11663">
        <ele>850.3</ele>
        <time>2019-04-19T12:08:39Z</time>
      </trkpt>
      <trkpt lat="44.11412" lon="3.11664">
        <ele>850.5</ele>
        <time>2019-04-19T12:08:40Z</time>
      </trkpt>
      <trkpt lat="44.11416" lon="3.11666">
        <ele>850.8</ele>
        <time>2019-04-19T12:08:41Z</time>
      </trkpt>
      <trkpt lat="44.11419" lon="3.11666">
        <ele>851</ele>
        <time>2019-04-19T12:08:42Z</time>
      </trkpt>
      <trkpt lat="44.11422" lon="3.11666">
        <ele>851.3</ele>
        <time>2019-04-19T12:08:43Z</time>
      </trkpt>
      <trkpt lat="44.11426" lon="3.11666">
        <ele>851.6</ele>
        <time>2019-04-19T12:08:44Z</time>
      </trkpt>
      <trkpt lat="44.1143" lon="3.11668">
        <ele>851.9</ele>
        <time>2019-04-19T12:08:45Z</time>
      </trkpt>
      <trkpt lat="44.11433" lon="3.11669">
        <ele>852.1</ele>
        <time>2019-04-19T12:08:46Z</time>
      </trkpt>
      <trkpt lat="44.11437" lon="3.11671">
        <ele>852.3</ele>
        <time>2019-04-19T12:08:47Z</time>
      </trkpt>
      <trkpt lat="44.1144" lon="3.11672">
        <ele>852.5</ele>
        <time>2019-04-19T12:08:48Z</time>
      </trkpt>
      <trkpt lat="44.11443" lon="3.11674">
        <ele>852.6</ele>
        <time>2019-04-19T12:08:49Z</time>
      </trkpt>
      <trkpt lat="44.11446" lon="3.11676">
        <ele>852.8</ele>
        <time>2019-04-19T12:08:50Z</time>
      </trkpt>
      <trkpt lat="44.11449" lon="3.11678">
        <ele>852.9</ele>
        <time>2019-04-19T12:08:51Z</time>
      </trkpt>
      <trkpt lat="44.11452" lon="3.11679">
        <ele>853</ele>
        <time>2019-04-19T12:08:52Z</time>
      </trkpt>
      <trkpt lat="44.11457" lon="3.1168">
        <ele>853.2</ele>
        <time>2019-04-19T12:08:54Z</time>
      </trkpt>
      <trkpt lat="44.11461" lon="3.1168">
        <ele>853.4</ele>
        <time>2019-04-19T12:08:55Z</time>
      </trkpt>
      <trkpt lat="44.11464" lon="3.1168">
        <ele>853.5</ele>
        <time>2019-04-19T12:08:56Z</time>
      </trkpt>
      <trkpt lat="44.11467" lon="3.11681">
        <ele>853.6</ele>
        <time>2019-04-19T12:08:57Z</time>
      </trkpt>
      <trkpt lat="44.11471" lon="3.11682">
        <ele>853.6</ele>
        <time>2019-04-19T12:08:58Z</time>
      </trkpt>
      <trkpt lat="44.11474" lon="3.11683">
        <ele>853.7</ele>
        <time>2019-04-19T12:08:59Z</time>
      </trkpt>
      <trkpt lat="44.11477" lon="3.11684">
        <ele>853.7</ele>
        <time>2019-04-19T12:09:00Z</time>
      </trkpt>
      <trkpt lat="44.1148" lon="3.11686">
        <ele>853.8</ele>
        <time>2019-04-19T12:09:01Z</time>
      </trkpt>
      <trkpt lat="44.11483" lon="3.11687">
        <ele>853.9</ele>
        <time>2019-04-19T12:09:02Z</time>
      </trkpt>
      <trkpt lat="44.11486" lon="3.11689">
        <ele>854</ele>
        <time>2019-04-19T12:09:03Z</time>
      </trkpt>
      <trkpt lat="44.11488" lon="3.11693">
        <ele>854.6</ele>
        <time>2019-04-19T12:09:04Z</time>
      </trkpt>
      <trkpt lat="44.1149" lon="3.11697">
        <ele>854.8</ele>
        <time>2019-04-19T12:09:05Z</time>
      </trkpt>
      <trkpt lat="44.11492" lon="3.11701">
        <ele>854.9</ele>
        <time>2019-04-19T12:09:07Z</time>
      </trkpt>
      <trkpt lat="44.11494" lon="3.11705">
        <ele>855.1</ele>
        <time>2019-04-19T12:09:09Z</time>
      </trkpt>
      <trkpt lat="44.11496" lon="3.1171">
        <ele>855.2</ele>
        <time>2019-04-19T12:09:11Z</time>
      </trkpt>
      <trkpt lat="44.11499" lon="3.11715">
        <ele>855.3</ele>
        <time>2019-04-19T12:09:13Z</time>
      </trkpt>
      <trkpt lat="44.11502" lon="3.11718">
        <ele>855.4</ele>
        <time>2019-04-19T12:09:14Z</time>
      </trkpt>
      <trkpt lat="44.11504" lon="3.11722">
        <ele>855.5</ele>
        <time>2019-04-19T12:09:15Z</time>
      </trkpt>
      <trkpt lat="44.11507" lon="3.11725">
        <ele>855.6</ele>
        <time>2019-04-19T12:09:16Z</time>
      </trkpt>
      <trkpt lat="44.11509" lon="3.11729">
        <ele>855.7</ele>
        <time>2019-04-19T12:09:17Z</time>
      </trkpt>
      <trkpt lat="44.11512" lon="3.11732">
        <ele>855.8</ele>
        <time>2019-04-19T12:09:18Z</time>
      </trkpt>
      <trkpt lat="44.11514" lon="3.11736">
        <ele>855.9</ele>
        <time>2019-04-19T12:09:19Z</time>
      </trkpt>
      <trkpt lat="44.11517" lon="3.1174">
        <ele>855.9</ele>
        <time>2019-04-19T12:09:20Z</time>
      </trkpt>
      <trkpt lat="44.11519" lon="3.11745">
        <ele>856</ele>
        <time>2019-04-19T12:09:21Z</time>
      </trkpt>
      <trkpt lat="44.11522" lon="3.1175">
        <ele>856.1</ele>
        <time>2019-04-19T12:09:22Z</time>
      </trkpt>
      <trkpt lat="44.11525" lon="3.11754">
        <ele>856.1</ele>
        <time>2019-04-19T12:09:23Z</time>
      </trkpt>
      <trkpt lat="44.11527" lon="3.11757">
        <ele>856.1</ele>
        <time>2019-04-19T12:09:24Z</time>
      </trkpt>
      <trkpt lat="44.11529" lon="3.11762">
        <ele>856.1</ele>
        <time>2019-04-19T12:09:25Z</time>
      </trkpt>
      <trkpt lat="44.11536" lon="3.11788">
        <ele>855.6</ele>
        <time>2019-04-19T12:09:27Z</time>
      </trkpt>
      <trkpt lat="44.11538" lon="3.11797">
        <ele>855.3</ele>
        <time>2019-04-19T12:09:28Z</time>
      </trkpt>
      <trkpt lat="44.11543" lon="3.11808">
        <ele>854.7</ele>
        <time>2019-04-19T12:09:29Z</time>
      </trkpt>
      <trkpt lat="44.11547" lon="3.11822">
        <ele>853.8</ele>
        <time>2019-04-19T12:09:30Z</time>
      </trkpt>
      <trkpt lat="44.11552" lon="3.11828">
        <ele>853.2</ele>
        <time>2019-04-19T12:09:31Z</time>
      </trkpt>
      <trkpt lat="44.11555" lon="3.1184">
        <ele>852.2</ele>
        <time>2019-04-19T12:09:32Z</time>
      </trkpt>
      <trkpt lat="44.11558" lon="3.11852">
        <ele>851.2</ele>
        <time>2019-04-19T12:09:33Z</time>
      </trkpt>
      <trkpt lat="44.11562" lon="3.11864">
        <ele>850.2</ele>
        <time>2019-04-19T12:09:34Z</time>
      </trkpt>
      <trkpt lat="44.11565" lon="3.11881">
        <ele>848.8</ele>
        <time>2019-04-19T12:09:35Z</time>
      </trkpt>
      <trkpt lat="44.11569" lon="3.11896">
        <ele>847.3</ele>
        <time>2019-04-19T12:09:36Z</time>
      </trkpt>
      <trkpt lat="44.11572" lon="3.11908">
        <ele>845.9</ele>
        <time>2019-04-19T12:09:37Z</time>
      </trkpt>
      <trkpt lat="44.11572" lon="3.1192">
        <ele>844.5</ele>
        <time>2019-04-19T12:09:38Z</time>
      </trkpt>
      <trkpt lat="44.11574" lon="3.11938">
        <ele>842.2</ele>
        <time>2019-04-19T12:09:39Z</time>
      </trkpt>
      <trkpt lat="44.11577" lon="3.11954">
        <ele>839.8</ele>
        <time>2019-04-19T12:09:40Z</time>
      </trkpt>
      <trkpt lat="44.11578" lon="3.11963">
        <ele>838.5</ele>
        <time>2019-04-19T12:09:41Z</time>
      </trkpt>
      <trkpt lat="44.11579" lon="3.11973">
        <ele>837.2</ele>
        <time>2019-04-19T12:09:42Z</time>
      </trkpt>
      <trkpt lat="44.11582" lon="3.11981">
        <ele>835.8</ele>
        <time>2019-04-19T12:09:43Z</time>
      </trkpt>
      <trkpt lat="44.11581" lon="3.11985">
        <ele>835.2</ele>
        <time>2019-04-19T12:09:45Z</time>
      </trkpt>
      <trkpt lat="44.11583" lon="3.11987">
        <ele>834.7</ele>
        <time>2019-04-19T12:09:48Z</time>
      </trkpt>
      <trkpt lat="44.11585" lon="3.1199">
        <ele>834.1</ele>
        <time>2019-04-19T12:09:49Z</time>
      </trkpt>
      <trkpt lat="44.11586" lon="3.11995">
        <ele>832.8</ele>
        <time>2019-04-19T12:10:08Z</time>
      </trkpt>
      <trkpt lat="44.1159" lon="3.11997">
        <ele>832.5</ele>
        <time>2019-04-19T12:10:10Z</time>
      </trkpt>
      <trkpt lat="44.11594" lon="3.12001">
        <ele>832.1</ele>
        <time>2019-04-19T12:10:12Z</time>
      </trkpt>
      <trkpt lat="44.11598" lon="3.12005">
        <ele>831.8</ele>
        <time>2019-04-19T12:10:13Z</time>
      </trkpt>
      <trkpt lat="44.116" lon="3.12007">
        <ele>831.6</ele>
        <time>2019-04-19T12:10:14Z</time>
      </trkpt>
      <trkpt lat="44.11603" lon="3.12009">
        <ele>831.4</ele>
        <time>2019-04-19T12:10:15Z</time>
      </trkpt>
      <trkpt lat="44.11606" lon="3.12011">
        <ele>831.1</ele>
        <time>2019-04-19T12:10:16Z</time>
      </trkpt>
      <trkpt lat="44.1161" lon="3.12013">
        <ele>830.8</ele>
        <time>2019-04-19T12:10:17Z</time>
      </trkpt>
      <trkpt lat="44.11617" lon="3.12016">
        <ele>830.3</ele>
        <time>2019-04-19T12:10:18Z</time>
      </trkpt>
      <trkpt lat="44.11623" lon="3.12019">
        <ele>829.9</ele>
        <time>2019-04-19T12:10:19Z</time>
      </trkpt>
      <trkpt lat="44.1163" lon="3.12024">
        <ele>829.5</ele>
        <time>2019-04-19T12:10:20Z</time>
      </trkpt>
      <trkpt lat="44.11635" lon="3.12028">
        <ele>829.2</ele>
        <time>2019-04-19T12:10:21Z</time>
      </trkpt>
      <trkpt lat="44.11641" lon="3.1203">
        <ele>828.9</ele>
        <time>2019-04-19T12:10:22Z</time>
      </trkpt>
      <trkpt lat="44.11646" lon="3.12032">
        <ele>828.8</ele>
        <time>2019-04-19T12:10:23Z</time>
      </trkpt>
      <trkpt lat="44.1165" lon="3.12035">
        <ele>828.7</ele>
        <time>2019-04-19T12:10:24Z</time>
      </trkpt>
      <trkpt lat="44.11654" lon="3.12042">
        <ele>828.7</ele>
        <time>2019-04-19T12:10:25Z</time>
      </trkpt>
      <trkpt lat="44.11654" lon="3.12046">
        <ele>828.8</ele>
        <time>2019-04-19T12:10:26Z</time>
      </trkpt>
      <trkpt lat="44.11655" lon="3.1205">
        <ele>829.2</ele>
        <time>2019-04-19T12:10:27Z</time>
      </trkpt>
      <trkpt lat="44.11657" lon="3.12057">
        <ele>829.2</ele>
        <time>2019-04-19T12:10:28Z</time>
      </trkpt>
      <trkpt lat="44.11659" lon="3.12062">
        <ele>829.3</ele>
        <time>2019-04-19T12:10:29Z</time>
      </trkpt>
      <trkpt lat="44.11662" lon="3.12068">
        <ele>829.4</ele>
        <time>2019-04-19T12:10:30Z</time>
      </trkpt>
      <trkpt lat="44.11663" lon="3.12076">
        <ele>829.5</ele>
        <time>2019-04-19T12:10:31Z</time>
      </trkpt>
      <trkpt lat="44.11665" lon="3.12085">
        <ele>829.5</ele>
        <time>2019-04-19T12:10:32Z</time>
      </trkpt>
      <trkpt lat="44.11669" lon="3.12095">
        <ele>829.5</ele>
        <time>2019-04-19T12:10:33Z</time>
      </trkpt>
      <trkpt lat="44.11675" lon="3.12103">
        <ele>829.4</ele>
        <time>2019-04-19T12:10:34Z</time>
      </trkpt>
      <trkpt lat="44.11674" lon="3.12107">
        <ele>829.3</ele>
        <time>2019-04-19T12:10:35Z</time>
      </trkpt>
      <trkpt lat="44.11671" lon="3.12109">
        <ele>829.2</ele>
        <time>2019-04-19T12:10:36Z</time>
      </trkpt>
      <trkpt lat="44.11671" lon="3.12113">
        <ele>829</ele>
        <time>2019-04-19T12:10:37Z</time>
      </trkpt>
      <trkpt lat="44.1167" lon="3.12119">
        <ele>829</ele>
        <time>2019-04-19T12:10:38Z</time>
      </trkpt>
      <trkpt lat="44.11669" lon="3.12124">
        <ele>829</ele>
        <time>2019-04-19T12:10:39Z</time>
      </trkpt>
      <trkpt lat="44.11668" lon="3.12131">
        <ele>829</ele>
        <time>2019-04-19T12:10:40Z</time>
      </trkpt>
      <trkpt lat="44.11669" lon="3.1214">
        <ele>829.1</ele>
        <time>2019-04-19T12:10:41Z</time>
      </trkpt>
      <trkpt lat="44.11669" lon="3.12146">
        <ele>829.2</ele>
        <time>2019-04-19T12:10:42Z</time>
      </trkpt>
      <trkpt lat="44.11667" lon="3.12151">
        <ele>829.3</ele>
        <time>2019-04-19T12:10:43Z</time>
      </trkpt>
      <trkpt lat="44.11664" lon="3.12156">
        <ele>829.4</ele>
        <time>2019-04-19T12:10:44Z</time>
      </trkpt>
      <trkpt lat="44.11662" lon="3.12162">
        <ele>829.5</ele>
        <time>2019-04-19T12:10:45Z</time>
      </trkpt>
      <trkpt lat="44.11661" lon="3.12167">
        <ele>829.7</ele>
        <time>2019-04-19T12:10:46Z</time>
      </trkpt>
      <trkpt lat="44.11659" lon="3.12174">
        <ele>829.8</ele>
        <time>2019-04-19T12:10:47Z</time>
      </trkpt>
      <trkpt lat="44.11658" lon="3.1218">
        <ele>830</ele>
        <time>2019-04-19T12:10:48Z</time>
      </trkpt>
      <trkpt lat="44.11656" lon="3.12185">
        <ele>830.1</ele>
        <time>2019-04-19T12:10:49Z</time>
      </trkpt>
      <trkpt lat="44.11656" lon="3.12192">
        <ele>830.2</ele>
        <time>2019-04-19T12:10:50Z</time>
      </trkpt>
      <trkpt lat="44.11655" lon="3.12199">
        <ele>830.4</ele>
        <time>2019-04-19T12:10:51Z</time>
      </trkpt>
      <trkpt lat="44.11654" lon="3.12205">
        <ele>830.5</ele>
        <time>2019-04-19T12:10:52Z</time>
      </trkpt>
      <trkpt lat="44.11653" lon="3.12212">
        <ele>830.6</ele>
        <time>2019-04-19T12:10:53Z</time>
      </trkpt>
      <trkpt lat="44.11652" lon="3.12219">
        <ele>830.8</ele>
        <time>2019-04-19T12:10:54Z</time>
      </trkpt>
      <trkpt lat="44.1165" lon="3.1223">
        <ele>831</ele>
        <time>2019-04-19T12:10:55Z</time>
      </trkpt>
      <trkpt lat="44.11648" lon="3.12236">
        <ele>831.2</ele>
        <time>2019-04-19T12:10:56Z</time>
      </trkpt>
      <trkpt lat="44.11647" lon="3.12242">
        <ele>831.3</ele>
        <time>2019-04-19T12:10:57Z</time>
      </trkpt>
      <trkpt lat="44.11646" lon="3.12246">
        <ele>831.5</ele>
        <time>2019-04-19T12:10:59Z</time>
      </trkpt>
      <trkpt lat="44.11644" lon="3.12249">
        <ele>831.6</ele>
        <time>2019-04-19T12:11:00Z</time>
      </trkpt>
      <trkpt lat="44.11645" lon="3.12265">
        <ele>832.2</ele>
        <time>2019-04-19T12:11:02Z</time>
      </trkpt>
      <trkpt lat="44.11646" lon="3.12269">
        <ele>832.3</ele>
        <time>2019-04-19T12:11:03Z</time>
      </trkpt>
      <trkpt lat="44.11646" lon="3.12278">
        <ele>832.6</ele>
        <time>2019-04-19T12:11:04Z</time>
      </trkpt>
      <trkpt lat="44.11647" lon="3.12281">
        <ele>832.6</ele>
        <time>2019-04-19T12:11:05Z</time>
      </trkpt>
      <trkpt lat="44.11648" lon="3.12289">
        <ele>832.7</ele>
        <time>2019-04-19T12:11:07Z</time>
      </trkpt>
      <trkpt lat="44.1165" lon="3.12293">
        <ele>832.6</ele>
        <time>2019-04-19T12:11:08Z</time>
      </trkpt>
      <trkpt lat="44.11652" lon="3.12297">
        <ele>832.6</ele>
        <time>2019-04-19T12:11:09Z</time>
      </trkpt>
      <trkpt lat="44.11653" lon="3.12301">
        <ele>832.6</ele>
        <time>2019-04-19T12:11:10Z</time>
      </trkpt>
      <trkpt lat="44.11655" lon="3.12305">
        <ele>832.5</ele>
        <time>2019-04-19T12:11:11Z</time>
      </trkpt>
      <trkpt lat="44.11657" lon="3.12308">
        <ele>832.4</ele>
        <time>2019-04-19T12:11:12Z</time>
      </trkpt>
      <trkpt lat="44.11659" lon="3.12312">
        <ele>832.3</ele>
        <time>2019-04-19T12:11:14Z</time>
      </trkpt>
      <trkpt lat="44.11661" lon="3.12316">
        <ele>832.3</ele>
        <time>2019-04-19T12:11:15Z</time>
      </trkpt>
      <trkpt lat="44.11663" lon="3.12319">
        <ele>832.2</ele>
        <time>2019-04-19T12:11:16Z</time>
      </trkpt>
      <trkpt lat="44.11664" lon="3.12324">
        <ele>832.1</ele>
        <time>2019-04-19T12:11:17Z</time>
      </trkpt>
      <trkpt lat="44.11666" lon="3.12329">
        <ele>832.1</ele>
        <time>2019-04-19T12:11:18Z</time>
      </trkpt>
      <trkpt lat="44.11667" lon="3.12334">
        <ele>832.1</ele>
        <time>2019-04-19T12:11:19Z</time>
      </trkpt>
      <trkpt lat="44.11668" lon="3.12339">
        <ele>832</ele>
        <time>2019-04-19T12:11:20Z</time>
      </trkpt>
      <trkpt lat="44.11668" lon="3.12344">
        <ele>832</ele>
        <time>2019-04-19T12:11:21Z</time>
      </trkpt>
      <trkpt lat="44.1167" lon="3.12349">
        <ele>832</ele>
        <time>2019-04-19T12:11:22Z</time>
      </trkpt>
      <trkpt lat="44.11671" lon="3.12354">
        <ele>831.9</ele>
        <time>2019-04-19T12:11:23Z</time>
      </trkpt>
      <trkpt lat="44.11674" lon="3.1236">
        <ele>831.7</ele>
        <time>2019-04-19T12:11:24Z</time>
      </trkpt>
      <trkpt lat="44.11677" lon="3.12365">
        <ele>831.5</ele>
        <time>2019-04-19T12:11:25Z</time>
      </trkpt>
      <trkpt lat="44.1168" lon="3.1237">
        <ele>831.3</ele>
        <time>2019-04-19T12:11:26Z</time>
      </trkpt>
      <trkpt lat="44.11683" lon="3.12375">
        <ele>830.9</ele>
        <time>2019-04-19T12:11:27Z</time>
      </trkpt>
      <trkpt lat="44.11687" lon="3.1238">
        <ele>830.6</ele>
        <time>2019-04-19T12:11:28Z</time>
      </trkpt>
      <trkpt lat="44.1169" lon="3.12384">
        <ele>830.3</ele>
        <time>2019-04-19T12:11:29Z</time>
      </trkpt>
      <trkpt lat="44.11693" lon="3.12388">
        <ele>829.9</ele>
        <time>2019-04-19T12:11:30Z</time>
      </trkpt>
      <trkpt lat="44.11695" lon="3.12392">
        <ele>829.6</ele>
        <time>2019-04-19T12:11:31Z</time>
      </trkpt>
      <trkpt lat="44.11705" lon="3.12402">
        <ele>828.8</ele>
        <time>2019-04-19T12:11:32Z</time>
      </trkpt>
      <trkpt lat="44.11711" lon="3.12409">
        <ele>828.3</ele>
        <time>2019-04-19T12:11:33Z</time>
      </trkpt>
      <trkpt lat="44.11715" lon="3.12417">
        <ele>827.8</ele>
        <time>2019-04-19T12:11:34Z</time>
      </trkpt>
      <trkpt lat="44.11727" lon="3.12428">
        <ele>826.7</ele>
        <time>2019-04-19T12:11:35Z</time>
      </trkpt>
      <trkpt lat="44.11732" lon="3.12435">
        <ele>826.2</ele>
        <time>2019-04-19T12:11:36Z</time>
      </trkpt>
      <trkpt lat="44.11739" lon="3.1244">
        <ele>825.7</ele>
        <time>2019-04-19T12:11:37Z</time>
      </trkpt>
      <trkpt lat="44.11744" lon="3.12441">
        <ele>825.4</ele>
        <time>2019-04-19T12:11:38Z</time>
      </trkpt>
      <trkpt lat="44.11755" lon="3.12444">
        <ele>824.9</ele>
        <time>2019-04-19T12:11:39Z</time>
      </trkpt>
      <trkpt lat="44.11762" lon="3.1245">
        <ele>824.4</ele>
        <time>2019-04-19T12:11:40Z</time>
      </trkpt>
      <trkpt lat="44.1176" lon="3.12458">
        <ele>823.3</ele>
        <time>2019-04-19T12:11:41Z</time>
      </trkpt>
      <trkpt lat="44.11759" lon="3.12462">
        <ele>823</ele>
        <time>2019-04-19T12:11:42Z</time>
      </trkpt>
      <trkpt lat="44.11756" lon="3.12465">
        <ele>822.6</ele>
        <time>2019-04-19T12:11:43Z</time>
      </trkpt>
      <trkpt lat="44.11754" lon="3.12468">
        <ele>822.3</ele>
        <time>2019-04-19T12:11:44Z</time>
      </trkpt>
      <trkpt lat="44.11752" lon="3.12474">
        <ele>822</ele>
        <time>2019-04-19T12:11:45Z</time>
      </trkpt>
      <trkpt lat="44.11749" lon="3.1248">
        <ele>821.7</ele>
        <time>2019-04-19T12:11:46Z</time>
      </trkpt>
      <trkpt lat="44.11746" lon="3.12485">
        <ele>821.4</ele>
        <time>2019-04-19T12:11:47Z</time>
      </trkpt>
      <trkpt lat="44.1174" lon="3.1249">
        <ele>820.9</ele>
        <time>2019-04-19T12:11:48Z</time>
      </trkpt>
      <trkpt lat="44.1174" lon="3.12495">
        <ele>820.7</ele>
        <time>2019-04-19T12:11:49Z</time>
      </trkpt>
      <trkpt lat="44.11737" lon="3.12502">
        <ele>820.4</ele>
        <time>2019-04-19T12:11:50Z</time>
      </trkpt>
      <trkpt lat="44.11737" lon="3.12509">
        <ele>820.2</ele>
        <time>2019-04-19T12:11:51Z</time>
      </trkpt>
      <trkpt lat="44.11736" lon="3.12514">
        <ele>820</ele>
        <time>2019-04-19T12:11:52Z</time>
      </trkpt>
      <trkpt lat="44.11738" lon="3.12509">
        <ele>819.9</ele>
        <time>2019-04-19T12:12:05Z</time>
      </trkpt>
      <trkpt lat="44.11739" lon="3.12508">
        <ele>819.8</ele>
        <time>2019-04-19T12:12:08Z</time>
      </trkpt>
      <trkpt lat="44.11739" lon="3.12507">
        <ele>819.8</ele>
        <time>2019-04-19T12:12:10Z</time>
      </trkpt>
      <trkpt lat="44.1174" lon="3.12506">
        <ele>819.7</ele>
        <time>2019-04-19T12:12:13Z</time>
      </trkpt>
      <trkpt lat="44.11741" lon="3.12505">
        <ele>819.7</ele>
        <time>2019-04-19T12:12:15Z</time>
      </trkpt>
      <trkpt lat="44.11741" lon="3.12504">
        <ele>819.6</ele>
        <time>2019-04-19T12:14:34Z</time>
      </trkpt>
      <trkpt lat="44.11742" lon="3.12503">
        <ele>819.6</ele>
        <time>2019-04-19T12:14:35Z</time>
      </trkpt>
      <trkpt lat="44.11739" lon="3.12508">
        <ele>819.4</ele>
        <time>2019-04-19T12:14:36Z</time>
      </trkpt>
      <trkpt lat="44.11737" lon="3.12513">
        <ele>819.2</ele>
        <time>2019-04-19T12:14:37Z</time>
      </trkpt>
      <trkpt lat="44.11738" lon="3.12522">
        <ele>818.9</ele>
        <time>2019-04-19T12:14:38Z</time>
      </trkpt>
      <trkpt lat="44.11735" lon="3.12533">
        <ele>818.5</ele>
        <time>2019-04-19T12:14:39Z</time>
      </trkpt>
      <trkpt lat="44.11734" lon="3.12541">
        <ele>818.1</ele>
        <time>2019-04-19T12:14:40Z</time>
      </trkpt>
      <trkpt lat="44.11735" lon="3.12547">
        <ele>817.9</ele>
        <time>2019-04-19T12:14:41Z</time>
      </trkpt>
      <trkpt lat="44.11739" lon="3.12554">
        <ele>817.5</ele>
        <time>2019-04-19T12:14:42Z</time>
      </trkpt>
      <trkpt lat="44.11743" lon="3.12556">
        <ele>817.2</ele>
        <time>2019-04-19T12:14:43Z</time>
      </trkpt>
      <trkpt lat="44.11743" lon="3.12563">
        <ele>816.9</ele>
        <time>2019-04-19T12:14:45Z</time>
      </trkpt>
      <trkpt lat="44.11741" lon="3.12571">
        <ele>816.5</ele>
        <time>2019-04-19T12:14:46Z</time>
      </trkpt>
      <trkpt lat="44.11743" lon="3.12577">
        <ele>816.2</ele>
        <time>2019-04-19T12:14:47Z</time>
      </trkpt>
      <trkpt lat="44.11748" lon="3.12584">
        <ele>815.8</ele>
        <time>2019-04-19T12:14:48Z</time>
      </trkpt>
      <trkpt lat="44.1175" lon="3.12591">
        <ele>815.5</ele>
        <time>2019-04-19T12:14:49Z</time>
      </trkpt>
      <trkpt lat="44.11751" lon="3.12599">
        <ele>815.2</ele>
        <time>2019-04-19T12:14:50Z</time>
      </trkpt>
      <trkpt lat="44.11755" lon="3.12608">
        <ele>814.9</ele>
        <time>2019-04-19T12:14:51Z</time>
      </trkpt>
      <trkpt lat="44.11757" lon="3.12617">
        <ele>814.6</ele>
        <time>2019-04-19T12:14:52Z</time>
      </trkpt>
      <trkpt lat="44.11757" lon="3.12626">
        <ele>814.2</ele>
        <time>2019-04-19T12:14:53Z</time>
      </trkpt>
      <trkpt lat="44.11759" lon="3.12634">
        <ele>813.9</ele>
        <time>2019-04-19T12:14:54Z</time>
      </trkpt>
      <trkpt lat="44.11761" lon="3.1264">
        <ele>813.5</ele>
        <time>2019-04-19T12:14:55Z</time>
      </trkpt>
      <trkpt lat="44.11764" lon="3.12645">
        <ele>813.2</ele>
        <time>2019-04-19T12:14:56Z</time>
      </trkpt>
      <trkpt lat="44.1177" lon="3.12646">
        <ele>813</ele>
        <time>2019-04-19T12:14:57Z</time>
      </trkpt>
      <trkpt lat="44.11773" lon="3.12653">
        <ele>812.9</ele>
        <time>2019-04-19T12:14:59Z</time>
      </trkpt>
      <trkpt lat="44.11775" lon="3.12658">
        <ele>813</ele>
        <time>2019-04-19T12:15:00Z</time>
      </trkpt>
      <trkpt lat="44.11781" lon="3.1266">
        <ele>813.1</ele>
        <time>2019-04-19T12:15:01Z</time>
      </trkpt>
      <trkpt lat="44.11785" lon="3.12664">
        <ele>813.2</ele>
        <time>2019-04-19T12:15:02Z</time>
      </trkpt>
      <trkpt lat="44.11787" lon="3.1267">
        <ele>813.4</ele>
        <time>2019-04-19T12:15:03Z</time>
      </trkpt>
      <trkpt lat="44.11787" lon="3.12675">
        <ele>813.5</ele>
        <time>2019-04-19T12:15:04Z</time>
      </trkpt>
      <trkpt lat="44.11788" lon="3.12681">
        <ele>813.8</ele>
        <time>2019-04-19T12:15:06Z</time>
      </trkpt>
      <trkpt lat="44.11789" lon="3.12685">
        <ele>813.9</ele>
        <time>2019-04-19T12:15:07Z</time>
      </trkpt>
      <trkpt lat="44.1179" lon="3.1269">
        <ele>814.1</ele>
        <time>2019-04-19T12:15:08Z</time>
      </trkpt>
      <trkpt lat="44.11791" lon="3.12695">
        <ele>814.3</ele>
        <time>2019-04-19T12:15:09Z</time>
      </trkpt>
      <trkpt lat="44.11791" lon="3.12699">
        <ele>814.6</ele>
        <time>2019-04-19T12:15:10Z</time>
      </trkpt>
      <trkpt lat="44.11791" lon="3.12704">
        <ele>814.8</ele>
        <time>2019-04-19T12:15:11Z</time>
      </trkpt>
      <trkpt lat="44.11792" lon="3.12708">
        <ele>815.1</ele>
        <time>2019-04-19T12:15:12Z</time>
      </trkpt>
      <trkpt lat="44.11793" lon="3.12711">
        <ele>815.3</ele>
        <time>2019-04-19T12:15:13Z</time>
      </trkpt>
      <trkpt lat="44.11795" lon="3.12715">
        <ele>815.6</ele>
        <time>2019-04-19T12:15:14Z</time>
      </trkpt>
      <trkpt lat="44.11797" lon="3.12719">
        <ele>816</ele>
        <time>2019-04-19T12:15:15Z</time>
      </trkpt>
      <trkpt lat="44.118" lon="3.12723">
        <ele>816.3</ele>
        <time>2019-04-19T12:15:16Z</time>
      </trkpt>
      <trkpt lat="44.11802" lon="3.12727">
        <ele>816.7</ele>
        <time>2019-04-19T12:15:17Z</time>
      </trkpt>
      <trkpt lat="44.11803" lon="3.12732">
        <ele>817</ele>
        <time>2019-04-19T12:15:18Z</time>
      </trkpt>
      <trkpt lat="44.11805" lon="3.12736">
        <ele>817.4</ele>
        <time>2019-04-19T12:15:19Z</time>
      </trkpt>
      <trkpt lat="44.11808" lon="3.12741">
        <ele>817.9</ele>
        <time>2019-04-19T12:15:21Z</time>
      </trkpt>
      <trkpt lat="44.11811" lon="3.12744">
        <ele>818.2</ele>
        <time>2019-04-19T12:15:23Z</time>
      </trkpt>
      <trkpt lat="44.11813" lon="3.12748">
        <ele>818.4</ele>
        <time>2019-04-19T12:15:25Z</time>
      </trkpt>
      <trkpt lat="44.11814" lon="3.12752">
        <ele>818.7</ele>
        <time>2019-04-19T12:15:26Z</time>
      </trkpt>
      <trkpt lat="44.11816" lon="3.12757">
        <ele>819.1</ele>
        <time>2019-04-19T12:15:28Z</time>
      </trkpt>
      <trkpt lat="44.11819" lon="3.1276">
        <ele>819.4</ele>
        <time>2019-04-19T12:15:30Z</time>
      </trkpt>
      <trkpt lat="44.11822" lon="3.12763">
        <ele>819.7</ele>
        <time>2019-04-19T12:15:32Z</time>
      </trkpt>
      <trkpt lat="44.11826" lon="3.12766">
        <ele>820.1</ele>
        <time>2019-04-19T12:15:34Z</time>
      </trkpt>
      <trkpt lat="44.11829" lon="3.12767">
        <ele>820.4</ele>
        <time>2019-04-19T12:15:36Z</time>
      </trkpt>
      <trkpt lat="44.11833" lon="3.12768">
        <ele>820.7</ele>
        <time>2019-04-19T12:15:38Z</time>
      </trkpt>
      <trkpt lat="44.11836" lon="3.12769">
        <ele>821</ele>
        <time>2019-04-19T12:15:40Z</time>
      </trkpt>
      <trkpt lat="44.11839" lon="3.12774">
        <ele>821.4</ele>
        <time>2019-04-19T12:15:42Z</time>
      </trkpt>
      <trkpt lat="44.11841" lon="3.12778">
        <ele>821.7</ele>
        <time>2019-04-19T12:15:43Z</time>
      </trkpt>
      <trkpt lat="44.11842" lon="3.12782">
        <ele>822</ele>
        <time>2019-04-19T12:15:44Z</time>
      </trkpt>
      <trkpt lat="44.11845" lon="3.12787">
        <ele>822.7</ele>
        <time>2019-04-19T12:15:46Z</time>
      </trkpt>
      <trkpt lat="44.11848" lon="3.12789">
        <ele>822.4</ele>
        <time>2019-04-19T12:15:47Z</time>
      </trkpt>
      <trkpt lat="44.1185" lon="3.12791">
        <ele>822.2</ele>
        <time>2019-04-19T12:15:49Z</time>
      </trkpt>
      <trkpt lat="44.11851" lon="3.12795">
        <ele>821.8</ele>
        <time>2019-04-19T12:15:51Z</time>
      </trkpt>
      <trkpt lat="44.11853" lon="3.12802">
        <ele>821.3</ele>
        <time>2019-04-19T12:15:53Z</time>
      </trkpt>
      <trkpt lat="44.11853" lon="3.12809">
        <ele>820.6</ele>
        <time>2019-04-19T12:15:55Z</time>
      </trkpt>
      <trkpt lat="44.11854" lon="3.12814">
        <ele>820.2</ele>
        <time>2019-04-19T12:15:56Z</time>
      </trkpt>
      <trkpt lat="44.11854" lon="3.12819">
        <ele>819.7</ele>
        <time>2019-04-19T12:15:57Z</time>
      </trkpt>
      <trkpt lat="44.11854" lon="3.12824">
        <ele>819.2</ele>
        <time>2019-04-19T12:15:58Z</time>
      </trkpt>
      <trkpt lat="44.11854" lon="3.12829">
        <ele>818.8</ele>
        <time>2019-04-19T12:15:59Z</time>
      </trkpt>
      <trkpt lat="44.11855" lon="3.12836">
        <ele>818.3</ele>
        <time>2019-04-19T12:16:00Z</time>
      </trkpt>
      <trkpt lat="44.11855" lon="3.12843">
        <ele>817.8</ele>
        <time>2019-04-19T12:16:01Z</time>
      </trkpt>
      <trkpt lat="44.11856" lon="3.12859">
        <ele>816.6</ele>
        <time>2019-04-19T12:16:02Z</time>
      </trkpt>
      <trkpt lat="44.11854" lon="3.12864">
        <ele>816.1</ele>
        <time>2019-04-19T12:16:03Z</time>
      </trkpt>
      <trkpt lat="44.11853" lon="3.12873">
        <ele>815.1</ele>
        <time>2019-04-19T12:16:04Z</time>
      </trkpt>
      <trkpt lat="44.11851" lon="3.12877">
        <ele>814.6</ele>
        <time>2019-04-19T12:16:05Z</time>
      </trkpt>
      <trkpt lat="44.1185" lon="3.12886">
        <ele>813.4</ele>
        <time>2019-04-19T12:16:06Z</time>
      </trkpt>
      <trkpt lat="44.11848" lon="3.12892">
        <ele>812.5</ele>
        <time>2019-04-19T12:16:07Z</time>
      </trkpt>
      <trkpt lat="44.11845" lon="3.12898">
        <ele>811.5</ele>
        <time>2019-04-19T12:16:08Z</time>
      </trkpt>
      <trkpt lat="44.11843" lon="3.12903">
        <ele>810.7</ele>
        <time>2019-04-19T12:16:09Z</time>
      </trkpt>
      <trkpt lat="44.11843" lon="3.12913">
        <ele>809.6</ele>
        <time>2019-04-19T12:16:10Z</time>
      </trkpt>
      <trkpt lat="44.11841" lon="3.12916">
        <ele>809</ele>
        <time>2019-04-19T12:16:11Z</time>
      </trkpt>
      <trkpt lat="44.11839" lon="3.12922">
        <ele>808.2</ele>
        <time>2019-04-19T12:16:13Z</time>
      </trkpt>
      <trkpt lat="44.11836" lon="3.12929">
        <ele>807.5</ele>
        <time>2019-04-19T12:16:14Z</time>
      </trkpt>
      <trkpt lat="44.11834" lon="3.12934">
        <ele>807.2</ele>
        <time>2019-04-19T12:16:15Z</time>
      </trkpt>
      <trkpt lat="44.1183" lon="3.12935">
        <ele>807</ele>
        <time>2019-04-19T12:16:16Z</time>
      </trkpt>
      <trkpt lat="44.11826" lon="3.12938">
        <ele>806.9</ele>
        <time>2019-04-19T12:16:17Z</time>
      </trkpt>
      <trkpt lat="44.11823" lon="3.12941">
        <ele>806.9</ele>
        <time>2019-04-19T12:16:19Z</time>
      </trkpt>
      <trkpt lat="44.11822" lon="3.12947">
        <ele>807</ele>
        <time>2019-04-19T12:16:21Z</time>
      </trkpt>
      <trkpt lat="44.11819" lon="3.12948">
        <ele>807.1</ele>
        <time>2019-04-19T12:16:22Z</time>
      </trkpt>
      <trkpt lat="44.11816" lon="3.12951">
        <ele>807.3</ele>
        <time>2019-04-19T12:16:24Z</time>
      </trkpt>
      <trkpt lat="44.11816" lon="3.12956">
        <ele>807.4</ele>
        <time>2019-04-19T12:16:25Z</time>
      </trkpt>
      <trkpt lat="44.11817" lon="3.1296">
        <ele>807.6</ele>
        <time>2019-04-19T12:16:26Z</time>
      </trkpt>
      <trkpt lat="44.11814" lon="3.12965">
        <ele>807.8</ele>
        <time>2019-04-19T12:16:28Z</time>
      </trkpt>
      <trkpt lat="44.11811" lon="3.12969">
        <ele>807.9</ele>
        <time>2019-04-19T12:16:30Z</time>
      </trkpt>
      <trkpt lat="44.11809" lon="3.12972">
        <ele>808</ele>
        <time>2019-04-19T12:16:31Z</time>
      </trkpt>
      <trkpt lat="44.11808" lon="3.12976">
        <ele>808.1</ele>
        <time>2019-04-19T12:16:32Z</time>
      </trkpt>
      <trkpt lat="44.11805" lon="3.12981">
        <ele>808.1</ele>
        <time>2019-04-19T12:16:33Z</time>
      </trkpt>
      <trkpt lat="44.11803" lon="3.12985">
        <ele>808.1</ele>
        <time>2019-04-19T12:16:34Z</time>
      </trkpt>
      <trkpt lat="44.11801" lon="3.12989">
        <ele>808.1</ele>
        <time>2019-04-19T12:16:35Z</time>
      </trkpt>
      <trkpt lat="44.11798" lon="3.12993">
        <ele>808.1</ele>
        <time>2019-04-19T12:16:36Z</time>
      </trkpt>
      <trkpt lat="44.11796" lon="3.12996">
        <ele>808</ele>
        <time>2019-04-19T12:16:37Z</time>
      </trkpt>
      <trkpt lat="44.11792" lon="3.13001">
        <ele>807.9</ele>
        <time>2019-04-19T12:16:38Z</time>
      </trkpt>
      <trkpt lat="44.11789" lon="3.13007">
        <ele>807.6</ele>
        <time>2019-04-19T12:16:39Z</time>
      </trkpt>
      <trkpt lat="44.11783" lon="3.13017">
        <ele>807.1</ele>
        <time>2019-04-19T12:16:40Z</time>
      </trkpt>
      <trkpt lat="44.11779" lon="3.13023">
        <ele>806.8</ele>
        <time>2019-04-19T12:16:41Z</time>
      </trkpt>
      <trkpt lat="44.11776" lon="3.13029">
        <ele>806.5</ele>
        <time>2019-04-19T12:16:42Z</time>
      </trkpt>
      <trkpt lat="44.11772" lon="3.13036">
        <ele>806.2</ele>
        <time>2019-04-19T12:16:43Z</time>
      </trkpt>
      <trkpt lat="44.11769" lon="3.13041">
        <ele>806</ele>
        <time>2019-04-19T12:16:44Z</time>
      </trkpt>
      <trkpt lat="44.11767" lon="3.13046">
        <ele>805.9</ele>
        <time>2019-04-19T12:16:45Z</time>
      </trkpt>
      <trkpt lat="44.11763" lon="3.1305">
        <ele>805.8</ele>
        <time>2019-04-19T12:16:46Z</time>
      </trkpt>
      <trkpt lat="44.11758" lon="3.13063">
        <ele>805.6</ele>
        <time>2019-04-19T12:16:47Z</time>
      </trkpt>
      <trkpt lat="44.11753" lon="3.13068">
        <ele>805.5</ele>
        <time>2019-04-19T12:16:48Z</time>
      </trkpt>
      <trkpt lat="44.11749" lon="3.13071">
        <ele>805.5</ele>
        <time>2019-04-19T12:16:49Z</time>
      </trkpt>
      <trkpt lat="44.11747" lon="3.13074">
        <ele>805.5</ele>
        <time>2019-04-19T12:16:51Z</time>
      </trkpt>
      <trkpt lat="44.11746" lon="3.13078">
        <ele>805.5</ele>
        <time>2019-04-19T12:16:53Z</time>
      </trkpt>
      <trkpt lat="44.11745" lon="3.13086">
        <ele>805.5</ele>
        <time>2019-04-19T12:16:57Z</time>
      </trkpt>
      <trkpt lat="44.11744" lon="3.13091">
        <ele>805.5</ele>
        <time>2019-04-19T12:16:59Z</time>
      </trkpt>
      <trkpt lat="44.11744" lon="3.13098">
        <ele>805.9</ele>
        <time>2019-04-19T12:17:01Z</time>
      </trkpt>
      <trkpt lat="44.11741" lon="3.13103">
        <ele>806.1</ele>
        <time>2019-04-19T12:17:03Z</time>
      </trkpt>
      <trkpt lat="44.11741" lon="3.13109">
        <ele>806.4</ele>
        <time>2019-04-19T12:17:05Z</time>
      </trkpt>
      <trkpt lat="44.11739" lon="3.13117">
        <ele>806.6</ele>
        <time>2019-04-19T12:17:07Z</time>
      </trkpt>
      <trkpt lat="44.11738" lon="3.13121">
        <ele>806.7</ele>
        <time>2019-04-19T12:17:08Z</time>
      </trkpt>
      <trkpt lat="44.11736" lon="3.13125">
        <ele>806.8</ele>
        <time>2019-04-19T12:17:09Z</time>
      </trkpt>
      <trkpt lat="44.11734" lon="3.13129">
        <ele>806.9</ele>
        <time>2019-04-19T12:17:10Z</time>
      </trkpt>
      <trkpt lat="44.11732" lon="3.13132">
        <ele>807</ele>
        <time>2019-04-19T12:17:11Z</time>
      </trkpt>
      <trkpt lat="44.1173" lon="3.13135">
        <ele>807.1</ele>
        <time>2019-04-19T12:17:12Z</time>
      </trkpt>
      <trkpt lat="44.11728" lon="3.1314">
        <ele>807.2</ele>
        <time>2019-04-19T12:17:13Z</time>
      </trkpt>
      <trkpt lat="44.11726" lon="3.13146">
        <ele>807.3</ele>
        <time>2019-04-19T12:17:14Z</time>
      </trkpt>
      <trkpt lat="44.11725" lon="3.1315">
        <ele>807.4</ele>
        <time>2019-04-19T12:17:15Z</time>
      </trkpt>
      <trkpt lat="44.11722" lon="3.13155">
        <ele>807.6</ele>
        <time>2019-04-19T12:17:17Z</time>
      </trkpt>
      <trkpt lat="44.11721" lon="3.13159">
        <ele>807.7</ele>
        <time>2019-04-19T12:17:18Z</time>
      </trkpt>
      <trkpt lat="44.1172" lon="3.13162">
        <ele>807.9</ele>
        <time>2019-04-19T12:17:19Z</time>
      </trkpt>
      <trkpt lat="44.11719" lon="3.13166">
        <ele>808.1</ele>
        <time>2019-04-19T12:17:20Z</time>
      </trkpt>
      <trkpt lat="44.11718" lon="3.13171">
        <ele>808.3</ele>
        <time>2019-04-19T12:17:21Z</time>
      </trkpt>
      <trkpt lat="44.11717" lon="3.13175">
        <ele>808.6</ele>
        <time>2019-04-19T12:17:22Z</time>
      </trkpt>
      <trkpt lat="44.11717" lon="3.13179">
        <ele>808.8</ele>
        <time>2019-04-19T12:17:23Z</time>
      </trkpt>
      <trkpt lat="44.11717" lon="3.13183">
        <ele>809.1</ele>
        <time>2019-04-19T12:17:24Z</time>
      </trkpt>
      <trkpt lat="44.11717" lon="3.13187">
        <ele>809.3</ele>
        <time>2019-04-19T12:17:25Z</time>
      </trkpt>
      <trkpt lat="44.11717" lon="3.13193">
        <ele>809.7</ele>
        <time>2019-04-19T12:17:27Z</time>
      </trkpt>
      <trkpt lat="44.11717" lon="3.13198">
        <ele>810</ele>
        <time>2019-04-19T12:17:29Z</time>
      </trkpt>
      <trkpt lat="44.11718" lon="3.13205">
        <ele>810.4</ele>
        <time>2019-04-19T12:17:31Z</time>
      </trkpt>
      <trkpt lat="44.11718" lon="3.13209">
        <ele>810.7</ele>
        <time>2019-04-19T12:17:32Z</time>
      </trkpt>
      <trkpt lat="44.1172" lon="3.13215">
        <ele>811</ele>
        <time>2019-04-19T12:17:34Z</time>
      </trkpt>
      <trkpt lat="44.11721" lon="3.13219">
        <ele>811.2</ele>
        <time>2019-04-19T12:17:35Z</time>
      </trkpt>
      <trkpt lat="44.11722" lon="3.13224">
        <ele>811.4</ele>
        <time>2019-04-19T12:17:36Z</time>
      </trkpt>
      <trkpt lat="44.11724" lon="3.13228">
        <ele>811.5</ele>
        <time>2019-04-19T12:17:37Z</time>
      </trkpt>
      <trkpt lat="44.11724" lon="3.13232">
        <ele>811.7</ele>
        <time>2019-04-19T12:17:38Z</time>
      </trkpt>
      <trkpt lat="44.11725" lon="3.1324">
        <ele>811.8</ele>
        <time>2019-04-19T12:17:40Z</time>
      </trkpt>
      <trkpt lat="44.11726" lon="3.13244">
        <ele>811.9</ele>
        <time>2019-04-19T12:17:41Z</time>
      </trkpt>
      <trkpt lat="44.11726" lon="3.1325">
        <ele>812</ele>
        <time>2019-04-19T12:17:42Z</time>
      </trkpt>
      <trkpt lat="44.11726" lon="3.13255">
        <ele>812</ele>
        <time>2019-04-19T12:17:43Z</time>
      </trkpt>
      <trkpt lat="44.11726" lon="3.1326">
        <ele>812.1</ele>
        <time>2019-04-19T12:17:44Z</time>
      </trkpt>
      <trkpt lat="44.11727" lon="3.13264">
        <ele>812.2</ele>
        <time>2019-04-19T12:17:45Z</time>
      </trkpt>
      <trkpt lat="44.11727" lon="3.13268">
        <ele>812.2</ele>
        <time>2019-04-19T12:17:46Z</time>
      </trkpt>
      <trkpt lat="44.11727" lon="3.13273">
        <ele>812.4</ele>
        <time>2019-04-19T12:17:48Z</time>
      </trkpt>
      <trkpt lat="44.11727" lon="3.13279">
        <ele>812.5</ele>
        <time>2019-04-19T12:17:50Z</time>
      </trkpt>
      <trkpt lat="44.11728" lon="3.13283">
        <ele>812.7</ele>
        <time>2019-04-19T12:17:51Z</time>
      </trkpt>
      <trkpt lat="44.11729" lon="3.13286">
        <ele>812.8</ele>
        <time>2019-04-19T12:17:52Z</time>
      </trkpt>
      <trkpt lat="44.11731" lon="3.1329">
        <ele>813</ele>
        <time>2019-04-19T12:17:53Z</time>
      </trkpt>
      <trkpt lat="44.11733" lon="3.13292">
        <ele>813.3</ele>
        <time>2019-04-19T12:17:54Z</time>
      </trkpt>
      <trkpt lat="44.11737" lon="3.13297">
        <ele>813.7</ele>
        <time>2019-04-19T12:17:56Z</time>
      </trkpt>
      <trkpt lat="44.11741" lon="3.133">
        <ele>814.3</ele>
        <time>2019-04-19T12:17:58Z</time>
      </trkpt>
      <trkpt lat="44.11745" lon="3.13304">
        <ele>814.9</ele>
        <time>2019-04-19T12:18:00Z</time>
      </trkpt>
      <trkpt lat="44.1175" lon="3.13306">
        <ele>815.4</ele>
        <time>2019-04-19T12:18:02Z</time>
      </trkpt>
      <trkpt lat="44.11753" lon="3.13307">
        <ele>815.8</ele>
        <time>2019-04-19T12:18:04Z</time>
      </trkpt>
      <trkpt lat="44.11756" lon="3.13309">
        <ele>816.2</ele>
        <time>2019-04-19T12:18:06Z</time>
      </trkpt>
      <trkpt lat="44.11759" lon="3.13312">
        <ele>816.7</ele>
        <time>2019-04-19T12:18:09Z</time>
      </trkpt>
      <trkpt lat="44.11762" lon="3.13316">
        <ele>817.1</ele>
        <time>2019-04-19T12:18:13Z</time>
      </trkpt>
      <trkpt lat="44.11766" lon="3.13316">
        <ele>817.5</ele>
        <time>2019-04-19T12:18:16Z</time>
      </trkpt>
      <trkpt lat="44.11769" lon="3.13317">
        <ele>817.7</ele>
        <time>2019-04-19T12:18:18Z</time>
      </trkpt>
      <trkpt lat="44.11774" lon="3.13321">
        <ele>818.1</ele>
        <time>2019-04-19T12:18:20Z</time>
      </trkpt>
      <trkpt lat="44.11778" lon="3.13323">
        <ele>818.4</ele>
        <time>2019-04-19T12:18:22Z</time>
      </trkpt>
      <trkpt lat="44.11781" lon="3.13324">
        <ele>818.6</ele>
        <time>2019-04-19T12:18:23Z</time>
      </trkpt>
      <trkpt lat="44.11784" lon="3.13327">
        <ele>818.8</ele>
        <time>2019-04-19T12:18:24Z</time>
      </trkpt>
      <trkpt lat="44.11786" lon="3.13329">
        <ele>818.9</ele>
        <time>2019-04-19T12:18:25Z</time>
      </trkpt>
      <trkpt lat="44.11788" lon="3.13332">
        <ele>819</ele>
        <time>2019-04-19T12:18:26Z</time>
      </trkpt>
      <trkpt lat="44.1179" lon="3.13334">
        <ele>819.1</ele>
        <time>2019-04-19T12:18:28Z</time>
      </trkpt>
      <trkpt lat="44.11793" lon="3.13333">
        <ele>819.1</ele>
        <time>2019-04-19T12:18:35Z</time>
      </trkpt>
      <trkpt lat="44.118" lon="3.13336">
        <ele>819.2</ele>
        <time>2019-04-19T12:19:18Z</time>
      </trkpt>
      <trkpt lat="44.11803" lon="3.13338">
        <ele>819.2</ele>
        <time>2019-04-19T12:19:20Z</time>
      </trkpt>
      <trkpt lat="44.11807" lon="3.13341">
        <ele>819.2</ele>
        <time>2019-04-19T12:19:22Z</time>
      </trkpt>
      <trkpt lat="44.1181" lon="3.13341">
        <ele>819.3</ele>
        <time>2019-04-19T12:19:23Z</time>
      </trkpt>
      <trkpt lat="44.11814" lon="3.13341">
        <ele>819.5</ele>
        <time>2019-04-19T12:19:24Z</time>
      </trkpt>
      <trkpt lat="44.11817" lon="3.1334">
        <ele>819.6</ele>
        <time>2019-04-19T12:19:25Z</time>
      </trkpt>
      <trkpt lat="44.1182" lon="3.1334">
        <ele>819.8</ele>
        <time>2019-04-19T12:19:26Z</time>
      </trkpt>
      <trkpt lat="44.11824" lon="3.13339">
        <ele>820</ele>
        <time>2019-04-19T12:19:28Z</time>
      </trkpt>
      <trkpt lat="44.11828" lon="3.1334">
        <ele>820.3</ele>
        <time>2019-04-19T12:19:32Z</time>
      </trkpt>
      <trkpt lat="44.11833" lon="3.13342">
        <ele>820.5</ele>
        <time>2019-04-19T12:19:34Z</time>
      </trkpt>
      <trkpt lat="44.11837" lon="3.13344">
        <ele>820.8</ele>
        <time>2019-04-19T12:19:36Z</time>
      </trkpt>
      <trkpt lat="44.1184" lon="3.13346">
        <ele>821</ele>
        <time>2019-04-19T12:19:38Z</time>
      </trkpt>
      <trkpt lat="44.11843" lon="3.13349">
        <ele>821.3</ele>
        <time>2019-04-19T12:19:40Z</time>
      </trkpt>
      <trkpt lat="44.11846" lon="3.13355">
        <ele>821.6</ele>
        <time>2019-04-19T12:19:42Z</time>
      </trkpt>
      <trkpt lat="44.11849" lon="3.13359">
        <ele>821.9</ele>
        <time>2019-04-19T12:19:44Z</time>
      </trkpt>
      <trkpt lat="44.11852" lon="3.13362">
        <ele>822.1</ele>
        <time>2019-04-19T12:19:45Z</time>
      </trkpt>
      <trkpt lat="44.11854" lon="3.13364">
        <ele>822.2</ele>
        <time>2019-04-19T12:19:46Z</time>
      </trkpt>
      <trkpt lat="44.11856" lon="3.13367">
        <ele>822.3</ele>
        <time>2019-04-19T12:19:47Z</time>
      </trkpt>
      <trkpt lat="44.11859" lon="3.13372">
        <ele>822.5</ele>
        <time>2019-04-19T12:19:49Z</time>
      </trkpt>
      <trkpt lat="44.11861" lon="3.13375">
        <ele>822.6</ele>
        <time>2019-04-19T12:19:50Z</time>
      </trkpt>
      <trkpt lat="44.11864" lon="3.13379">
        <ele>822.7</ele>
        <time>2019-04-19T12:19:51Z</time>
      </trkpt>
      <trkpt lat="44.11867" lon="3.13382">
        <ele>822.7</ele>
        <time>2019-04-19T12:19:52Z</time>
      </trkpt>
      <trkpt lat="44.11871" lon="3.13384">
        <ele>822.6</ele>
        <time>2019-04-19T12:19:53Z</time>
      </trkpt>
      <trkpt lat="44.11876" lon="3.13386">
        <ele>822.5</ele>
        <time>2019-04-19T12:19:54Z</time>
      </trkpt>
      <trkpt lat="44.11881" lon="3.13389">
        <ele>822.2</ele>
        <time>2019-04-19T12:19:55Z</time>
      </trkpt>
      <trkpt lat="44.11885" lon="3.13392">
        <ele>821.9</ele>
        <time>2019-04-19T12:19:56Z</time>
      </trkpt>
      <trkpt lat="44.11889" lon="3.13396">
        <ele>821.6</ele>
        <time>2019-04-19T12:19:57Z</time>
      </trkpt>
      <trkpt lat="44.11893" lon="3.13401">
        <ele>821.2</ele>
        <time>2019-04-19T12:19:58Z</time>
      </trkpt>
      <trkpt lat="44.11896" lon="3.13406">
        <ele>820.7</ele>
        <time>2019-04-19T12:19:59Z</time>
      </trkpt>
      <trkpt lat="44.11899" lon="3.13411">
        <ele>820.3</ele>
        <time>2019-04-19T12:20:00Z</time>
      </trkpt>
      <trkpt lat="44.11901" lon="3.13415">
        <ele>819.9</ele>
        <time>2019-04-19T12:20:01Z</time>
      </trkpt>
      <trkpt lat="44.11901" lon="3.13421">
        <ele>819.5</ele>
        <time>2019-04-19T12:20:02Z</time>
      </trkpt>
      <trkpt lat="44.11902" lon="3.13426">
        <ele>819</ele>
        <time>2019-04-19T12:20:03Z</time>
      </trkpt>
      <trkpt lat="44.11903" lon="3.13432">
        <ele>818.5</ele>
        <time>2019-04-19T12:20:04Z</time>
      </trkpt>
      <trkpt lat="44.11905" lon="3.13437">
        <ele>817.8</ele>
        <time>2019-04-19T12:20:05Z</time>
      </trkpt>
      <trkpt lat="44.11907" lon="3.13441">
        <ele>817.2</ele>
        <time>2019-04-19T12:20:06Z</time>
      </trkpt>
      <trkpt lat="44.11909" lon="3.13444">
        <ele>816.7</ele>
        <time>2019-04-19T12:20:07Z</time>
      </trkpt>
      <trkpt lat="44.11912" lon="3.13447">
        <ele>816.2</ele>
        <time>2019-04-19T12:20:08Z</time>
      </trkpt>
      <trkpt lat="44.11915" lon="3.1345">
        <ele>815.6</ele>
        <time>2019-04-19T12:20:09Z</time>
      </trkpt>
      <trkpt lat="44.11918" lon="3.13453">
        <ele>815.1</ele>
        <time>2019-04-19T12:20:10Z</time>
      </trkpt>
      <trkpt lat="44.11921" lon="3.13455">
        <ele>814.7</ele>
        <time>2019-04-19T12:20:11Z</time>
      </trkpt>
      <trkpt lat="44.11926" lon="3.13458">
        <ele>814.1</ele>
        <time>2019-04-19T12:20:13Z</time>
      </trkpt>
      <trkpt lat="44.1193" lon="3.13458">
        <ele>813.6</ele>
        <time>2019-04-19T12:20:14Z</time>
      </trkpt>
      <trkpt lat="44.11934" lon="3.13458">
        <ele>813.2</ele>
        <time>2019-04-19T12:20:15Z</time>
      </trkpt>
      <trkpt lat="44.11939" lon="3.13458">
        <ele>812.8</ele>
        <time>2019-04-19T12:20:16Z</time>
      </trkpt>
      <trkpt lat="44.11943" lon="3.13458">
        <ele>812.6</ele>
        <time>2019-04-19T12:20:17Z</time>
      </trkpt>
      <trkpt lat="44.11946" lon="3.13461">
        <ele>812.4</ele>
        <time>2019-04-19T12:20:18Z</time>
      </trkpt>
      <trkpt lat="44.11948" lon="3.13463">
        <ele>812.2</ele>
        <time>2019-04-19T12:20:19Z</time>
      </trkpt>
      <trkpt lat="44.1195" lon="3.13467">
        <ele>812</ele>
        <time>2019-04-19T12:20:20Z</time>
      </trkpt>
      <trkpt lat="44.11953" lon="3.13473">
        <ele>811.7</ele>
        <time>2019-04-19T12:20:21Z</time>
      </trkpt>
      <trkpt lat="44.1196" lon="3.13484">
        <ele>811</ele>
        <time>2019-04-19T12:20:22Z</time>
      </trkpt>
      <trkpt lat="44.11961" lon="3.1349">
        <ele>810.6</ele>
        <time>2019-04-19T12:20:23Z</time>
      </trkpt>
      <trkpt lat="44.11967" lon="3.13501">
        <ele>809.4</ele>
        <time>2019-04-19T12:20:24Z</time>
      </trkpt>
      <trkpt lat="44.11971" lon="3.13507">
        <ele>808.5</ele>
        <time>2019-04-19T12:20:25Z</time>
      </trkpt>
      <trkpt lat="44.11974" lon="3.13515">
        <ele>807.6</ele>
        <time>2019-04-19T12:20:26Z</time>
      </trkpt>
      <trkpt lat="44.11976" lon="3.1352">
        <ele>806.8</ele>
        <time>2019-04-19T12:20:27Z</time>
      </trkpt>
      <trkpt lat="44.11978" lon="3.13526">
        <ele>805.9</ele>
        <time>2019-04-19T12:20:28Z</time>
      </trkpt>
      <trkpt lat="44.11981" lon="3.13529">
        <ele>805.2</ele>
        <time>2019-04-19T12:20:29Z</time>
      </trkpt>
      <trkpt lat="44.11983" lon="3.13534">
        <ele>804.4</ele>
        <time>2019-04-19T12:20:31Z</time>
      </trkpt>
      <trkpt lat="44.11985" lon="3.13537">
        <ele>803.8</ele>
        <time>2019-04-19T12:20:32Z</time>
      </trkpt>
      <trkpt lat="44.11988" lon="3.13541">
        <ele>803</ele>
        <time>2019-04-19T12:20:33Z</time>
      </trkpt>
      <trkpt lat="44.11992" lon="3.13544">
        <ele>802.4</ele>
        <time>2019-04-19T12:20:34Z</time>
      </trkpt>
      <trkpt lat="44.1199" lon="3.13551">
        <ele>801.7</ele>
        <time>2019-04-19T12:20:36Z</time>
      </trkpt>
      <trkpt lat="44.1199" lon="3.13556">
        <ele>801.1</ele>
        <time>2019-04-19T12:20:37Z</time>
      </trkpt>
      <trkpt lat="44.11989" lon="3.13561">
        <ele>800.5</ele>
        <time>2019-04-19T12:20:38Z</time>
      </trkpt>
      <trkpt lat="44.11992" lon="3.13572">
        <ele>799.3</ele>
        <time>2019-04-19T12:20:39Z</time>
      </trkpt>
      <trkpt lat="44.11992" lon="3.13577">
        <ele>798.8</ele>
        <time>2019-04-19T12:20:40Z</time>
      </trkpt>
      <trkpt lat="44.11989" lon="3.13586">
        <ele>797.6</ele>
        <time>2019-04-19T12:20:41Z</time>
      </trkpt>
      <trkpt lat="44.11987" lon="3.13593">
        <ele>796.7</ele>
        <time>2019-04-19T12:20:42Z</time>
      </trkpt>
      <trkpt lat="44.11986" lon="3.13601">
        <ele>795.7</ele>
        <time>2019-04-19T12:20:43Z</time>
      </trkpt>
      <trkpt lat="44.11985" lon="3.13611">
        <ele>794.5</ele>
        <time>2019-04-19T12:20:45Z</time>
      </trkpt>
      <trkpt lat="44.11986" lon="3.13615">
        <ele>793.9</ele>
        <time>2019-04-19T12:20:46Z</time>
      </trkpt>
      <trkpt lat="44.11987" lon="3.13623">
        <ele>793</ele>
        <time>2019-04-19T12:20:47Z</time>
      </trkpt>
      <trkpt lat="44.11993" lon="3.13632">
        <ele>791.7</ele>
        <time>2019-04-19T12:20:48Z</time>
      </trkpt>
      <trkpt lat="44.11994" lon="3.13638">
        <ele>791.1</ele>
        <time>2019-04-19T12:20:49Z</time>
      </trkpt>
      <trkpt lat="44.11996" lon="3.13646">
        <ele>790.4</ele>
        <time>2019-04-19T12:20:50Z</time>
      </trkpt>
      <trkpt lat="44.11997" lon="3.1365">
        <ele>790</ele>
        <time>2019-04-19T12:20:51Z</time>
      </trkpt>
      <trkpt lat="44.11998" lon="3.13657">
        <ele>789.3</ele>
        <time>2019-04-19T12:20:52Z</time>
      </trkpt>
      <trkpt lat="44.12001" lon="3.13664">
        <ele>788.8</ele>
        <time>2019-04-19T12:20:53Z</time>
      </trkpt>
      <trkpt lat="44.12001" lon="3.1367">
        <ele>788.4</ele>
        <time>2019-04-19T12:20:54Z</time>
      </trkpt>
      <trkpt lat="44.12005" lon="3.13679">
        <ele>787.6</ele>
        <time>2019-04-19T12:20:55Z</time>
      </trkpt>
      <trkpt lat="44.12006" lon="3.13684">
        <ele>787.2</ele>
        <time>2019-04-19T12:20:56Z</time>
      </trkpt>
      <trkpt lat="44.12009" lon="3.13688">
        <ele>786.7</ele>
        <time>2019-04-19T12:20:57Z</time>
      </trkpt>
      <trkpt lat="44.12014" lon="3.13692">
        <ele>786.1</ele>
        <time>2019-04-19T12:20:58Z</time>
      </trkpt>
      <trkpt lat="44.12016" lon="3.13697">
        <ele>785.7</ele>
        <time>2019-04-19T12:20:59Z</time>
      </trkpt>
      <trkpt lat="44.12019" lon="3.13701">
        <ele>785.3</ele>
        <time>2019-04-19T12:21:00Z</time>
      </trkpt>
      <trkpt lat="44.12021" lon="3.13704">
        <ele>785</ele>
        <time>2019-04-19T12:21:01Z</time>
      </trkpt>
      <trkpt lat="44.12023" lon="3.13707">
        <ele>784.8</ele>
        <time>2019-04-19T12:21:02Z</time>
      </trkpt>
      <trkpt lat="44.12025" lon="3.1371">
        <ele>784.5</ele>
        <time>2019-04-19T12:21:03Z</time>
      </trkpt>
      <trkpt lat="44.12027" lon="3.13714">
        <ele>784.3</ele>
        <time>2019-04-19T12:21:14Z</time>
      </trkpt>
      <trkpt lat="44.12029" lon="3.13718">
        <ele>784</ele>
        <time>2019-04-19T12:21:15Z</time>
      </trkpt>
      <trkpt lat="44.12033" lon="3.13729">
        <ele>783.5</ele>
        <time>2019-04-19T12:21:16Z</time>
      </trkpt>
      <trkpt lat="44.12036" lon="3.13736">
        <ele>783.1</ele>
        <time>2019-04-19T12:21:17Z</time>
      </trkpt>
      <trkpt lat="44.1204" lon="3.13744">
        <ele>782.7</ele>
        <time>2019-04-19T12:21:18Z</time>
      </trkpt>
      <trkpt lat="44.12042" lon="3.1375">
        <ele>782.3</ele>
        <time>2019-04-19T12:21:19Z</time>
      </trkpt>
      <trkpt lat="44.12043" lon="3.13755">
        <ele>782</ele>
        <time>2019-04-19T12:21:20Z</time>
      </trkpt>
      <trkpt lat="44.12046" lon="3.13761">
        <ele>781.3</ele>
        <time>2019-04-19T12:21:21Z</time>
      </trkpt>
      <trkpt lat="44.12049" lon="3.13767">
        <ele>780.7</ele>
        <time>2019-04-19T12:21:22Z</time>
      </trkpt>
      <trkpt lat="44.12051" lon="3.13772">
        <ele>780.1</ele>
        <time>2019-04-19T12:21:23Z</time>
      </trkpt>
      <trkpt lat="44.12054" lon="3.13778">
        <ele>779.4</ele>
        <time>2019-04-19T12:21:24Z</time>
      </trkpt>
      <trkpt lat="44.12055" lon="3.13782">
        <ele>779</ele>
        <time>2019-04-19T12:21:25Z</time>
      </trkpt>
      <trkpt lat="44.12051" lon="3.13777">
        <ele>778.3</ele>
        <time>2019-04-19T12:21:54Z</time>
      </trkpt>
      <trkpt lat="44.12055" lon="3.1377">
        <ele>777.6</ele>
        <time>2019-04-19T12:23:06Z</time>
      </trkpt>
      <trkpt lat="44.12055" lon="3.13766">
        <ele>778.4</ele>
        <time>2019-04-19T12:23:09Z</time>
      </trkpt>
      <trkpt lat="44.12059" lon="3.13765">
        <ele>779.3</ele>
        <time>2019-04-19T12:23:12Z</time>
      </trkpt>
      <trkpt lat="44.12062" lon="3.13766">
        <ele>780.2</ele>
        <time>2019-04-19T12:23:14Z</time>
      </trkpt>
      <trkpt lat="44.12065" lon="3.13765">
        <ele>781.8</ele>
        <time>2019-04-19T12:23:17Z</time>
      </trkpt>
      <trkpt lat="44.12069" lon="3.13762">
        <ele>783.1</ele>
        <time>2019-04-19T12:23:20Z</time>
      </trkpt>
      <trkpt lat="44.12072" lon="3.1376">
        <ele>783.8</ele>
        <time>2019-04-19T12:23:23Z</time>
      </trkpt>
      <trkpt lat="44.12071" lon="3.13756">
        <ele>783.9</ele>
        <time>2019-04-19T12:23:33Z</time>
      </trkpt>
      <trkpt lat="44.12073" lon="3.13754">
        <ele>784.6</ele>
        <time>2019-04-19T12:24:15Z</time>
      </trkpt>
      <trkpt lat="44.12077" lon="3.13753">
        <ele>785.9</ele>
        <time>2019-04-19T12:24:17Z</time>
      </trkpt>
      <trkpt lat="44.12081" lon="3.13751">
        <ele>787.1</ele>
        <time>2019-04-19T12:24:19Z</time>
      </trkpt>
      <trkpt lat="44.12084" lon="3.13747">
        <ele>788.4</ele>
        <time>2019-04-19T12:24:23Z</time>
      </trkpt>
      <trkpt lat="44.12086" lon="3.13744">
        <ele>789.2</ele>
        <time>2019-04-19T12:24:26Z</time>
      </trkpt>
      <trkpt lat="44.12089" lon="3.13743">
        <ele>789.8</ele>
        <time>2019-04-19T12:24:28Z</time>
      </trkpt>
      <trkpt lat="44.12093" lon="3.13742">
        <ele>790.4</ele>
        <time>2019-04-19T12:24:30Z</time>
      </trkpt>
      <trkpt lat="44.12096" lon="3.13743">
        <ele>790.9</ele>
        <time>2019-04-19T12:24:32Z</time>
      </trkpt>
      <trkpt lat="44.12099" lon="3.13744">
        <ele>791.3</ele>
        <time>2019-04-19T12:24:34Z</time>
      </trkpt>
      <trkpt lat="44.12102" lon="3.13742">
        <ele>791.9</ele>
        <time>2019-04-19T12:24:37Z</time>
      </trkpt>
      <trkpt lat="44.12105" lon="3.13741">
        <ele>792.7</ele>
        <time>2019-04-19T12:24:40Z</time>
      </trkpt>
      <trkpt lat="44.12106" lon="3.13737">
        <ele>793.1</ele>
        <time>2019-04-19T12:24:43Z</time>
      </trkpt>
      <trkpt lat="44.12106" lon="3.13732">
        <ele>794.5</ele>
        <time>2019-04-19T12:24:45Z</time>
      </trkpt>
      <trkpt lat="44.12108" lon="3.13728">
        <ele>795.5</ele>
        <time>2019-04-19T12:24:48Z</time>
      </trkpt>
      <trkpt lat="44.12112" lon="3.13727">
        <ele>795.8</ele>
        <time>2019-04-19T12:24:51Z</time>
      </trkpt>
      <trkpt lat="44.12115" lon="3.13727">
        <ele>796.1</ele>
        <time>2019-04-19T12:24:53Z</time>
      </trkpt>
      <trkpt lat="44.12118" lon="3.13725">
        <ele>796.3</ele>
        <time>2019-04-19T12:24:56Z</time>
      </trkpt>
      <trkpt lat="44.12121" lon="3.13723">
        <ele>797</ele>
        <time>2019-04-19T12:24:58Z</time>
      </trkpt>
      <trkpt lat="44.12124" lon="3.13721">
        <ele>797.2</ele>
        <time>2019-04-19T12:25:01Z</time>
      </trkpt>
      <trkpt lat="44.12127" lon="3.13722">
        <ele>797.4</ele>
        <time>2019-04-19T12:25:04Z</time>
      </trkpt>
      <trkpt lat="44.12131" lon="3.13723">
        <ele>797.6</ele>
        <time>2019-04-19T12:25:07Z</time>
      </trkpt>
      <trkpt lat="44.12134" lon="3.13724">
        <ele>797.7</ele>
        <time>2019-04-19T12:25:09Z</time>
      </trkpt>
      <trkpt lat="44.12137" lon="3.13722">
        <ele>797.9</ele>
        <time>2019-04-19T12:25:11Z</time>
      </trkpt>
      <trkpt lat="44.12141" lon="3.13719">
        <ele>798.5</ele>
        <time>2019-04-19T12:25:13Z</time>
      </trkpt>
      <trkpt lat="44.12144" lon="3.13719">
        <ele>798.6</ele>
        <time>2019-04-19T12:25:15Z</time>
      </trkpt>
      <trkpt lat="44.12147" lon="3.13722">
        <ele>798.2</ele>
        <time>2019-04-19T12:25:17Z</time>
      </trkpt>
      <trkpt lat="44.12149" lon="3.13727">
        <ele>797.8</ele>
        <time>2019-04-19T12:25:19Z</time>
      </trkpt>
      <trkpt lat="44.12153" lon="3.13729">
        <ele>797.4</ele>
        <time>2019-04-19T12:25:22Z</time>
      </trkpt>
      <trkpt lat="44.12157" lon="3.13727">
        <ele>797.9</ele>
        <time>2019-04-19T12:25:24Z</time>
      </trkpt>
      <trkpt lat="44.1216" lon="3.13725">
        <ele>798</ele>
        <time>2019-04-19T12:25:26Z</time>
      </trkpt>
      <trkpt lat="44.12163" lon="3.13721">
        <ele>798.6</ele>
        <time>2019-04-19T12:25:28Z</time>
      </trkpt>
      <trkpt lat="44.12164" lon="3.13718">
        <ele>799.2</ele>
        <time>2019-04-19T12:25:31Z</time>
      </trkpt>
      <trkpt lat="44.12165" lon="3.13713">
        <ele>799.7</ele>
        <time>2019-04-19T12:25:34Z</time>
      </trkpt>
      <trkpt lat="44.12167" lon="3.1371">
        <ele>800.3</ele>
        <time>2019-04-19T12:25:37Z</time>
      </trkpt>
      <trkpt lat="44.1217" lon="3.13708">
        <ele>800.3</ele>
        <time>2019-04-19T12:25:40Z</time>
      </trkpt>
      <trkpt lat="44.12174" lon="3.13707">
        <ele>800.4</ele>
        <time>2019-04-19T12:25:42Z</time>
      </trkpt>
      <trkpt lat="44.12177" lon="3.13706">
        <ele>800.9</ele>
        <time>2019-04-19T12:25:44Z</time>
      </trkpt>
      <trkpt lat="44.1218" lon="3.13704">
        <ele>800.9</ele>
        <time>2019-04-19T12:25:46Z</time>
      </trkpt>
      <trkpt lat="44.12183" lon="3.13701">
        <ele>801.3</ele>
        <time>2019-04-19T12:25:48Z</time>
      </trkpt>
      <trkpt lat="44.12186" lon="3.13699">
        <ele>801.3</ele>
        <time>2019-04-19T12:25:50Z</time>
      </trkpt>
      <trkpt lat="44.12189" lon="3.13695">
        <ele>801.8</ele>
        <time>2019-04-19T12:25:52Z</time>
      </trkpt>
      <trkpt lat="44.12192" lon="3.13693">
        <ele>802.2</ele>
        <time>2019-04-19T12:25:54Z</time>
      </trkpt>
      <trkpt lat="44.12196" lon="3.13694">
        <ele>802.2</ele>
        <time>2019-04-19T12:25:56Z</time>
      </trkpt>
      <trkpt lat="44.122" lon="3.13694">
        <ele>802.1</ele>
        <time>2019-04-19T12:25:58Z</time>
      </trkpt>
      <trkpt lat="44.12202" lon="3.13691">
        <ele>802.1</ele>
        <time>2019-04-19T12:26:00Z</time>
      </trkpt>
      <trkpt lat="44.12204" lon="3.13688">
        <ele>802.7</ele>
        <time>2019-04-19T12:26:02Z</time>
      </trkpt>
      <trkpt lat="44.12206" lon="3.13685">
        <ele>803.2</ele>
        <time>2019-04-19T12:26:05Z</time>
      </trkpt>
      <trkpt lat="44.12209" lon="3.13681">
        <ele>803.6</ele>
        <time>2019-04-19T12:26:07Z</time>
      </trkpt>
      <trkpt lat="44.1221" lon="3.13676">
        <ele>804.1</ele>
        <time>2019-04-19T12:26:09Z</time>
      </trkpt>
      <trkpt lat="44.1221" lon="3.13672">
        <ele>804.6</ele>
        <time>2019-04-19T12:26:12Z</time>
      </trkpt>
      <trkpt lat="44.12212" lon="3.13668">
        <ele>805.1</ele>
        <time>2019-04-19T12:26:14Z</time>
      </trkpt>
      <trkpt lat="44.12214" lon="3.13663">
        <ele>805.5</ele>
        <time>2019-04-19T12:26:16Z</time>
      </trkpt>
      <trkpt lat="44.12215" lon="3.13658">
        <ele>806</ele>
        <time>2019-04-19T12:26:18Z</time>
      </trkpt>
      <trkpt lat="44.12216" lon="3.13654">
        <ele>806.4</ele>
        <time>2019-04-19T12:26:20Z</time>
      </trkpt>
      <trkpt lat="44.12217" lon="3.13649">
        <ele>806.9</ele>
        <time>2019-04-19T12:26:22Z</time>
      </trkpt>
      <trkpt lat="44.1222" lon="3.13646">
        <ele>807.3</ele>
        <time>2019-04-19T12:26:25Z</time>
      </trkpt>
      <trkpt lat="44.12222" lon="3.13644">
        <ele>807.4</ele>
        <time>2019-04-19T12:26:27Z</time>
      </trkpt>
      <trkpt lat="44.12224" lon="3.1364">
        <ele>807.8</ele>
        <time>2019-04-19T12:26:29Z</time>
      </trkpt>
      <trkpt lat="44.12226" lon="3.13636">
        <ele>808.1</ele>
        <time>2019-04-19T12:26:31Z</time>
      </trkpt>
      <trkpt lat="44.12229" lon="3.13633">
        <ele>808.5</ele>
        <time>2019-04-19T12:26:34Z</time>
      </trkpt>
      <trkpt lat="44.12232" lon="3.1363">
        <ele>808.4</ele>
        <time>2019-04-19T12:26:37Z</time>
      </trkpt>
      <trkpt lat="44.12235" lon="3.13626">
        <ele>808.8</ele>
        <time>2019-04-19T12:26:39Z</time>
      </trkpt>
      <trkpt lat="44.12237" lon="3.1362">
        <ele>809.8</ele>
        <time>2019-04-19T12:26:41Z</time>
      </trkpt>
      <trkpt lat="44.1224" lon="3.13615">
        <ele>810.2</ele>
        <time>2019-04-19T12:26:43Z</time>
      </trkpt>
      <trkpt lat="44.12243" lon="3.1361">
        <ele>810.6</ele>
        <time>2019-04-19T12:26:45Z</time>
      </trkpt>
      <trkpt lat="44.12246" lon="3.13605">
        <ele>811</ele>
        <time>2019-04-19T12:26:47Z</time>
      </trkpt>
      <trkpt lat="44.12248" lon="3.13602">
        <ele>811.4</ele>
        <time>2019-04-19T12:26:48Z</time>
      </trkpt>
      <trkpt lat="44.12251" lon="3.13597">
        <ele>811.7</ele>
        <time>2019-04-19T12:26:50Z</time>
      </trkpt>
      <trkpt lat="44.12253" lon="3.13592">
        <ele>812.2</ele>
        <time>2019-04-19T12:26:52Z</time>
      </trkpt>
      <trkpt lat="44.12255" lon="3.13585">
        <ele>812.7</ele>
        <time>2019-04-19T12:26:54Z</time>
      </trkpt>
      <trkpt lat="44.12256" lon="3.13582">
        <ele>813.2</ele>
        <time>2019-04-19T12:26:55Z</time>
      </trkpt>
      <trkpt lat="44.12258" lon="3.13576">
        <ele>813.4</ele>
        <time>2019-04-19T12:26:57Z</time>
      </trkpt>
      <trkpt lat="44.1226" lon="3.13572">
        <ele>813.6</ele>
        <time>2019-04-19T12:26:59Z</time>
      </trkpt>
      <trkpt lat="44.12262" lon="3.1357">
        <ele>814</ele>
        <time>2019-04-19T12:27:01Z</time>
      </trkpt>
      <trkpt lat="44.12265" lon="3.13566">
        <ele>813.9</ele>
        <time>2019-04-19T12:27:03Z</time>
      </trkpt>
      <trkpt lat="44.12267" lon="3.13563">
        <ele>814.1</ele>
        <time>2019-04-19T12:27:05Z</time>
      </trkpt>
      <trkpt lat="44.12271" lon="3.1356">
        <ele>814.3</ele>
        <time>2019-04-19T12:27:08Z</time>
      </trkpt>
      <trkpt lat="44.12274" lon="3.1356">
        <ele>814.1</ele>
        <time>2019-04-19T12:27:09Z</time>
      </trkpt>
      <trkpt lat="44.12277" lon="3.13558">
        <ele>813.9</ele>
        <time>2019-04-19T12:27:11Z</time>
      </trkpt>
      <trkpt lat="44.12279" lon="3.13554">
        <ele>814</ele>
        <time>2019-04-19T12:27:13Z</time>
      </trkpt>
      <trkpt lat="44.1228" lon="3.1355">
        <ele>814.4</ele>
        <time>2019-04-19T12:27:15Z</time>
      </trkpt>
      <trkpt lat="44.12281" lon="3.13544">
        <ele>814.8</ele>
        <time>2019-04-19T12:27:17Z</time>
      </trkpt>
      <trkpt lat="44.12281" lon="3.1354">
        <ele>814.8</ele>
        <time>2019-04-19T12:27:18Z</time>
      </trkpt>
      <trkpt lat="44.12282" lon="3.13535">
        <ele>815.2</ele>
        <time>2019-04-19T12:27:19Z</time>
      </trkpt>
      <trkpt lat="44.12283" lon="3.13531">
        <ele>815.9</ele>
        <time>2019-04-19T12:27:20Z</time>
      </trkpt>
      <trkpt lat="44.12284" lon="3.13526">
        <ele>816.3</ele>
        <time>2019-04-19T12:27:21Z</time>
      </trkpt>
      <trkpt lat="44.12285" lon="3.13523">
        <ele>816</ele>
        <time>2019-04-19T12:27:22Z</time>
      </trkpt>
      <trkpt lat="44.12287" lon="3.13517">
        <ele>816.8</ele>
        <time>2019-04-19T12:27:24Z</time>
      </trkpt>
      <trkpt lat="44.12288" lon="3.13513">
        <ele>816.9</ele>
        <time>2019-04-19T12:27:25Z</time>
      </trkpt>
      <trkpt lat="44.12288" lon="3.13509">
        <ele>817.3</ele>
        <time>2019-04-19T12:27:26Z</time>
      </trkpt>
      <trkpt lat="44.12288" lon="3.13505">
        <ele>817.7</ele>
        <time>2019-04-19T12:27:27Z</time>
      </trkpt>
      <trkpt lat="44.12288" lon="3.135">
        <ele>818</ele>
        <time>2019-04-19T12:27:28Z</time>
      </trkpt>
      <trkpt lat="44.12288" lon="3.13496">
        <ele>818.3</ele>
        <time>2019-04-19T12:27:29Z</time>
      </trkpt>
      <trkpt lat="44.12287" lon="3.13491">
        <ele>818.6</ele>
        <time>2019-04-19T12:27:30Z</time>
      </trkpt>
      <trkpt lat="44.12286" lon="3.13487">
        <ele>818.6</ele>
        <time>2019-04-19T12:27:31Z</time>
      </trkpt>
      <trkpt lat="44.12285" lon="3.13483">
        <ele>818.6</ele>
        <time>2019-04-19T12:27:32Z</time>
      </trkpt>
      <trkpt lat="44.12283" lon="3.13477">
        <ele>818.9</ele>
        <time>2019-04-19T12:27:34Z</time>
      </trkpt>
      <trkpt lat="44.1228" lon="3.13471">
        <ele>819.4</ele>
        <time>2019-04-19T12:27:36Z</time>
      </trkpt>
      <trkpt lat="44.12278" lon="3.13468">
        <ele>819.6</ele>
        <time>2019-04-19T12:27:37Z</time>
      </trkpt>
      <trkpt lat="44.12274" lon="3.13463">
        <ele>819.9</ele>
        <time>2019-04-19T12:27:39Z</time>
      </trkpt>
      <trkpt lat="44.12273" lon="3.13459">
        <ele>820</ele>
        <time>2019-04-19T12:27:40Z</time>
      </trkpt>
      <trkpt lat="44.12271" lon="3.13456">
        <ele>820.2</ele>
        <time>2019-04-19T12:27:41Z</time>
      </trkpt>
      <trkpt lat="44.12269" lon="3.13452">
        <ele>820.3</ele>
        <time>2019-04-19T12:27:42Z</time>
      </trkpt>
      <trkpt lat="44.12268" lon="3.13449">
        <ele>820.4</ele>
        <time>2019-04-19T12:27:43Z</time>
      </trkpt>
      <trkpt lat="44.12264" lon="3.13446">
        <ele>820.6</ele>
        <time>2019-04-19T12:27:44Z</time>
      </trkpt>
      <trkpt lat="44.12262" lon="3.13444">
        <ele>820.7</ele>
        <time>2019-04-19T12:27:45Z</time>
      </trkpt>
      <trkpt lat="44.12258" lon="3.13442">
        <ele>820.7</ele>
        <time>2019-04-19T12:27:46Z</time>
      </trkpt>
      <trkpt lat="44.12254" lon="3.1344">
        <ele>820.8</ele>
        <time>2019-04-19T12:27:47Z</time>
      </trkpt>
      <trkpt lat="44.1225" lon="3.13436">
        <ele>820.8</ele>
        <time>2019-04-19T12:27:48Z</time>
      </trkpt>
      <trkpt lat="44.12247" lon="3.13433">
        <ele>820.8</ele>
        <time>2019-04-19T12:27:49Z</time>
      </trkpt>
      <trkpt lat="44.12245" lon="3.13429">
        <ele>820.9</ele>
        <time>2019-04-19T12:27:50Z</time>
      </trkpt>
      <trkpt lat="44.12243" lon="3.13424">
        <ele>820.9</ele>
        <time>2019-04-19T12:27:51Z</time>
      </trkpt>
      <trkpt lat="44.12241" lon="3.13419">
        <ele>821</ele>
        <time>2019-04-19T12:27:52Z</time>
      </trkpt>
      <trkpt lat="44.12239" lon="3.13413">
        <ele>821</ele>
        <time>2019-04-19T12:27:53Z</time>
      </trkpt>
      <trkpt lat="44.12236" lon="3.13408">
        <ele>821</ele>
        <time>2019-04-19T12:27:54Z</time>
      </trkpt>
      <trkpt lat="44.12233" lon="3.13403">
        <ele>820.9</ele>
        <time>2019-04-19T12:27:55Z</time>
      </trkpt>
      <trkpt lat="44.12231" lon="3.13398">
        <ele>820.9</ele>
        <time>2019-04-19T12:27:56Z</time>
      </trkpt>
      <trkpt lat="44.12228" lon="3.13392">
        <ele>820.8</ele>
        <time>2019-04-19T12:27:57Z</time>
      </trkpt>
      <trkpt lat="44.12227" lon="3.13386">
        <ele>820.8</ele>
        <time>2019-04-19T12:27:58Z</time>
      </trkpt>
      <trkpt lat="44.12225" lon="3.1338">
        <ele>820.7</ele>
        <time>2019-04-19T12:27:59Z</time>
      </trkpt>
      <trkpt lat="44.12224" lon="3.13374">
        <ele>820.7</ele>
        <time>2019-04-19T12:28:00Z</time>
      </trkpt>
      <trkpt lat="44.12223" lon="3.13369">
        <ele>820.7</ele>
        <time>2019-04-19T12:28:01Z</time>
      </trkpt>
      <trkpt lat="44.12222" lon="3.13363">
        <ele>820.9</ele>
        <time>2019-04-19T12:28:02Z</time>
      </trkpt>
      <trkpt lat="44.12221" lon="3.13357">
        <ele>821</ele>
        <time>2019-04-19T12:28:03Z</time>
      </trkpt>
      <trkpt lat="44.1222" lon="3.13351">
        <ele>821.2</ele>
        <time>2019-04-19T12:28:04Z</time>
      </trkpt>
      <trkpt lat="44.12217" lon="3.13345">
        <ele>821.6</ele>
        <time>2019-04-19T12:28:05Z</time>
      </trkpt>
      <trkpt lat="44.12216" lon="3.13339">
        <ele>821.9</ele>
        <time>2019-04-19T12:28:06Z</time>
      </trkpt>
      <trkpt lat="44.12214" lon="3.13334">
        <ele>822.2</ele>
        <time>2019-04-19T12:28:07Z</time>
      </trkpt>
      <trkpt lat="44.12211" lon="3.13329">
        <ele>822.4</ele>
        <time>2019-04-19T12:28:08Z</time>
      </trkpt>
      <trkpt lat="44.1221" lon="3.13325">
        <ele>822.6</ele>
        <time>2019-04-19T12:28:09Z</time>
      </trkpt>
      <trkpt lat="44.12208" lon="3.13319">
        <ele>823.1</ele>
        <time>2019-04-19T12:28:10Z</time>
      </trkpt>
      <trkpt lat="44.12206" lon="3.13312">
        <ele>823.4</ele>
        <time>2019-04-19T12:28:12Z</time>
      </trkpt>
      <trkpt lat="44.12207" lon="3.13306">
        <ele>823.7</ele>
        <time>2019-04-19T12:28:14Z</time>
      </trkpt>
      <trkpt lat="44.12206" lon="3.13299">
        <ele>824</ele>
        <time>2019-04-19T12:28:16Z</time>
      </trkpt>
      <trkpt lat="44.12206" lon="3.13292">
        <ele>824.2</ele>
        <time>2019-04-19T12:28:18Z</time>
      </trkpt>
      <trkpt lat="44.12206" lon="3.13285">
        <ele>824.4</ele>
        <time>2019-04-19T12:28:20Z</time>
      </trkpt>
      <trkpt lat="44.12208" lon="3.13278">
        <ele>824.6</ele>
        <time>2019-04-19T12:28:22Z</time>
      </trkpt>
      <trkpt lat="44.1221" lon="3.13274">
        <ele>824.7</ele>
        <time>2019-04-19T12:28:23Z</time>
      </trkpt>
      <trkpt lat="44.12211" lon="3.1327">
        <ele>824.9</ele>
        <time>2019-04-19T12:28:24Z</time>
      </trkpt>
      <trkpt lat="44.12212" lon="3.13263">
        <ele>825.2</ele>
        <time>2019-04-19T12:28:26Z</time>
      </trkpt>
      <trkpt lat="44.12215" lon="3.13257">
        <ele>825.4</ele>
        <time>2019-04-19T12:28:28Z</time>
      </trkpt>
      <trkpt lat="44.12218" lon="3.13252">
        <ele>825.7</ele>
        <time>2019-04-19T12:28:30Z</time>
      </trkpt>
      <trkpt lat="44.12222" lon="3.13247">
        <ele>826</ele>
        <time>2019-04-19T12:28:32Z</time>
      </trkpt>
      <trkpt lat="44.12225" lon="3.13242">
        <ele>826.3</ele>
        <time>2019-04-19T12:28:34Z</time>
      </trkpt>
      <trkpt lat="44.12226" lon="3.13239">
        <ele>826.5</ele>
        <time>2019-04-19T12:28:35Z</time>
      </trkpt>
      <trkpt lat="44.12228" lon="3.13236">
        <ele>826.7</ele>
        <time>2019-04-19T12:28:36Z</time>
      </trkpt>
      <trkpt lat="44.12231" lon="3.13231">
        <ele>826.9</ele>
        <time>2019-04-19T12:28:38Z</time>
      </trkpt>
      <trkpt lat="44.12235" lon="3.13228">
        <ele>827</ele>
        <time>2019-04-19T12:28:40Z</time>
      </trkpt>
      <trkpt lat="44.12239" lon="3.13226">
        <ele>827.2</ele>
        <time>2019-04-19T12:28:42Z</time>
      </trkpt>
      <trkpt lat="44.12241" lon="3.13223">
        <ele>827.3</ele>
        <time>2019-04-19T12:28:43Z</time>
      </trkpt>
      <trkpt lat="44.12245" lon="3.13218">
        <ele>827.5</ele>
        <time>2019-04-19T12:28:45Z</time>
      </trkpt>
      <trkpt lat="44.12248" lon="3.13214">
        <ele>827.5</ele>
        <time>2019-04-19T12:28:46Z</time>
      </trkpt>
      <trkpt lat="44.12251" lon="3.13212">
        <ele>827.5</ele>
        <time>2019-04-19T12:28:47Z</time>
      </trkpt>
      <trkpt lat="44.12254" lon="3.1321">
        <ele>827.5</ele>
        <time>2019-04-19T12:28:49Z</time>
      </trkpt>
      <trkpt lat="44.12258" lon="3.13208">
        <ele>827.6</ele>
        <time>2019-04-19T12:28:51Z</time>
      </trkpt>
      <trkpt lat="44.12262" lon="3.13203">
        <ele>827.6</ele>
        <time>2019-04-19T12:28:53Z</time>
      </trkpt>
      <trkpt lat="44.12264" lon="3.132">
        <ele>827.7</ele>
        <time>2019-04-19T12:28:54Z</time>
      </trkpt>
      <trkpt lat="44.12267" lon="3.13195">
        <ele>828</ele>
        <time>2019-04-19T12:28:56Z</time>
      </trkpt>
      <trkpt lat="44.12268" lon="3.13189">
        <ele>828.3</ele>
        <time>2019-04-19T12:28:58Z</time>
      </trkpt>
      <trkpt lat="44.12269" lon="3.13184">
        <ele>828.6</ele>
        <time>2019-04-19T12:29:00Z</time>
      </trkpt>
      <trkpt lat="44.12269" lon="3.13179">
        <ele>829</ele>
        <time>2019-04-19T12:29:02Z</time>
      </trkpt>
      <trkpt lat="44.1227" lon="3.13173">
        <ele>829.2</ele>
        <time>2019-04-19T12:29:04Z</time>
      </trkpt>
      <trkpt lat="44.12271" lon="3.13166">
        <ele>829.5</ele>
        <time>2019-04-19T12:29:06Z</time>
      </trkpt>
      <trkpt lat="44.12273" lon="3.1316">
        <ele>830</ele>
        <time>2019-04-19T12:29:08Z</time>
      </trkpt>
      <trkpt lat="44.12275" lon="3.13155">
        <ele>830.4</ele>
        <time>2019-04-19T12:29:10Z</time>
      </trkpt>
      <trkpt lat="44.12276" lon="3.13149">
        <ele>830.9</ele>
        <time>2019-04-19T12:29:12Z</time>
      </trkpt>
      <trkpt lat="44.12276" lon="3.13143">
        <ele>831.4</ele>
        <time>2019-04-19T12:29:14Z</time>
      </trkpt>
      <trkpt lat="44.12278" lon="3.1314">
        <ele>831.6</ele>
        <time>2019-04-19T12:29:15Z</time>
      </trkpt>
      <trkpt lat="44.1228" lon="3.13135">
        <ele>831.8</ele>
        <time>2019-04-19T12:29:17Z</time>
      </trkpt>
      <trkpt lat="44.12282" lon="3.13131">
        <ele>832.1</ele>
        <time>2019-04-19T12:29:18Z</time>
      </trkpt>
      <trkpt lat="44.12283" lon="3.13127">
        <ele>832.4</ele>
        <time>2019-04-19T12:29:19Z</time>
      </trkpt>
      <trkpt lat="44.12284" lon="3.13124">
        <ele>832.7</ele>
        <time>2019-04-19T12:29:20Z</time>
      </trkpt>
      <trkpt lat="44.12285" lon="3.1312">
        <ele>832.9</ele>
        <time>2019-04-19T12:29:21Z</time>
      </trkpt>
      <trkpt lat="44.12287" lon="3.13117">
        <ele>833.2</ele>
        <time>2019-04-19T12:29:22Z</time>
      </trkpt>
      <trkpt lat="44.12289" lon="3.13114">
        <ele>833.5</ele>
        <time>2019-04-19T12:29:23Z</time>
      </trkpt>
      <trkpt lat="44.12292" lon="3.13108">
        <ele>833.9</ele>
        <time>2019-04-19T12:29:25Z</time>
      </trkpt>
      <trkpt lat="44.12294" lon="3.131">
        <ele>834.4</ele>
        <time>2019-04-19T12:29:27Z</time>
      </trkpt>
      <trkpt lat="44.12295" lon="3.13096">
        <ele>834.8</ele>
        <time>2019-04-19T12:29:28Z</time>
      </trkpt>
      <trkpt lat="44.12295" lon="3.13091">
        <ele>835.1</ele>
        <time>2019-04-19T12:29:29Z</time>
      </trkpt>
      <trkpt lat="44.12294" lon="3.13087">
        <ele>835.5</ele>
        <time>2019-04-19T12:29:30Z</time>
      </trkpt>
      <trkpt lat="44.12294" lon="3.13083">
        <ele>835.7</ele>
        <time>2019-04-19T12:29:31Z</time>
      </trkpt>
      <trkpt lat="44.12294" lon="3.13078">
        <ele>836</ele>
        <time>2019-04-19T12:29:32Z</time>
      </trkpt>
      <trkpt lat="44.12294" lon="3.13074">
        <ele>836.2</ele>
        <time>2019-04-19T12:29:33Z</time>
      </trkpt>
      <trkpt lat="44.12293" lon="3.13069">
        <ele>836.5</ele>
        <time>2019-04-19T12:29:35Z</time>
      </trkpt>
      <trkpt lat="44.1229" lon="3.13061">
        <ele>837</ele>
        <time>2019-04-19T12:29:37Z</time>
      </trkpt>
      <trkpt lat="44.12289" lon="3.13057">
        <ele>837.3</ele>
        <time>2019-04-19T12:29:38Z</time>
      </trkpt>
      <trkpt lat="44.12288" lon="3.13052">
        <ele>837.5</ele>
        <time>2019-04-19T12:29:39Z</time>
      </trkpt>
      <trkpt lat="44.12286" lon="3.13048">
        <ele>837.9</ele>
        <time>2019-04-19T12:29:40Z</time>
      </trkpt>
      <trkpt lat="44.12284" lon="3.13044">
        <ele>838.1</ele>
        <time>2019-04-19T12:29:41Z</time>
      </trkpt>
      <trkpt lat="44.12282" lon="3.13041">
        <ele>838.3</ele>
        <time>2019-04-19T12:29:42Z</time>
      </trkpt>
      <trkpt lat="44.12279" lon="3.13035">
        <ele>838.7</ele>
        <time>2019-04-19T12:29:44Z</time>
      </trkpt>
      <trkpt lat="44.12277" lon="3.13028">
        <ele>839</ele>
        <time>2019-04-19T12:29:46Z</time>
      </trkpt>
      <trkpt lat="44.12275" lon="3.13021">
        <ele>839.4</ele>
        <time>2019-04-19T12:29:48Z</time>
      </trkpt>
      <trkpt lat="44.12274" lon="3.13018">
        <ele>839.6</ele>
        <time>2019-04-19T12:29:49Z</time>
      </trkpt>
      <trkpt lat="44.12274" lon="3.13014">
        <ele>839.7</ele>
        <time>2019-04-19T12:29:50Z</time>
      </trkpt>
      <trkpt lat="44.12273" lon="3.1301">
        <ele>839.8</ele>
        <time>2019-04-19T12:29:51Z</time>
      </trkpt>
      <trkpt lat="44.12272" lon="3.13006">
        <ele>840</ele>
        <time>2019-04-19T12:29:52Z</time>
      </trkpt>
      <trkpt lat="44.12272" lon="3.12999">
        <ele>840.2</ele>
        <time>2019-04-19T12:29:54Z</time>
      </trkpt>
      <trkpt lat="44.12271" lon="3.12994">
        <ele>840.4</ele>
        <time>2019-04-19T12:29:56Z</time>
      </trkpt>
      <trkpt lat="44.12269" lon="3.12989">
        <ele>840.5</ele>
        <time>2019-04-19T12:29:58Z</time>
      </trkpt>
      <trkpt lat="44.12267" lon="3.12981">
        <ele>840.6</ele>
        <time>2019-04-19T12:30:00Z</time>
      </trkpt>
      <trkpt lat="44.12267" lon="3.12975">
        <ele>840.7</ele>
        <time>2019-04-19T12:30:02Z</time>
      </trkpt>
      <trkpt lat="44.12267" lon="3.1297">
        <ele>840.8</ele>
        <time>2019-04-19T12:30:04Z</time>
      </trkpt>
      <trkpt lat="44.12267" lon="3.12964">
        <ele>841</ele>
        <time>2019-04-19T12:30:06Z</time>
      </trkpt>
      <trkpt lat="44.12266" lon="3.12958">
        <ele>841.2</ele>
        <time>2019-04-19T12:30:08Z</time>
      </trkpt>
      <trkpt lat="44.12265" lon="3.12952">
        <ele>841.6</ele>
        <time>2019-04-19T12:30:10Z</time>
      </trkpt>
      <trkpt lat="44.12265" lon="3.12944">
        <ele>841.9</ele>
        <time>2019-04-19T12:30:12Z</time>
      </trkpt>
      <trkpt lat="44.12265" lon="3.1294">
        <ele>842.1</ele>
        <time>2019-04-19T12:30:13Z</time>
      </trkpt>
      <trkpt lat="44.12266" lon="3.12936">
        <ele>842.2</ele>
        <time>2019-04-19T12:30:14Z</time>
      </trkpt>
      <trkpt lat="44.12267" lon="3.12933">
        <ele>842.4</ele>
        <time>2019-04-19T12:30:15Z</time>
      </trkpt>
      <trkpt lat="44.12268" lon="3.12926">
        <ele>842.6</ele>
        <time>2019-04-19T12:30:17Z</time>
      </trkpt>
      <trkpt lat="44.12268" lon="3.12922">
        <ele>842.7</ele>
        <time>2019-04-19T12:30:18Z</time>
      </trkpt>
      <trkpt lat="44.12267" lon="3.12918">
        <ele>842.8</ele>
        <time>2019-04-19T12:30:19Z</time>
      </trkpt>
      <trkpt lat="44.12266" lon="3.12911">
        <ele>842.9</ele>
        <time>2019-04-19T12:30:21Z</time>
      </trkpt>
      <trkpt lat="44.12266" lon="3.12904">
        <ele>843</ele>
        <time>2019-04-19T12:30:23Z</time>
      </trkpt>
      <trkpt lat="44.12267" lon="3.12898">
        <ele>843.1</ele>
        <time>2019-04-19T12:30:25Z</time>
      </trkpt>
      <trkpt lat="44.12268" lon="3.12892">
        <ele>843.2</ele>
        <time>2019-04-19T12:30:27Z</time>
      </trkpt>
      <trkpt lat="44.12269" lon="3.12885">
        <ele>843.4</ele>
        <time>2019-04-19T12:30:29Z</time>
      </trkpt>
      <trkpt lat="44.1227" lon="3.12881">
        <ele>843.5</ele>
        <time>2019-04-19T12:30:30Z</time>
      </trkpt>
      <trkpt lat="44.1227" lon="3.12877">
        <ele>843.6</ele>
        <time>2019-04-19T12:30:31Z</time>
      </trkpt>
      <trkpt lat="44.1227" lon="3.12872">
        <ele>843.7</ele>
        <time>2019-04-19T12:30:32Z</time>
      </trkpt>
      <trkpt lat="44.1227" lon="3.12868">
        <ele>843.9</ele>
        <time>2019-04-19T12:30:33Z</time>
      </trkpt>
      <trkpt lat="44.12269" lon="3.12864">
        <ele>844.1</ele>
        <time>2019-04-19T12:30:34Z</time>
      </trkpt>
      <trkpt lat="44.12268" lon="3.1286">
        <ele>844.3</ele>
        <time>2019-04-19T12:30:35Z</time>
      </trkpt>
      <trkpt lat="44.12268" lon="3.12857">
        <ele>844.5</ele>
        <time>2019-04-19T12:30:36Z</time>
      </trkpt>
      <trkpt lat="44.12267" lon="3.12851">
        <ele>845</ele>
        <time>2019-04-19T12:30:38Z</time>
      </trkpt>
      <trkpt lat="44.12267" lon="3.12843">
        <ele>845.3</ele>
        <time>2019-04-19T12:30:40Z</time>
      </trkpt>
      <trkpt lat="44.12267" lon="3.12839">
        <ele>845.4</ele>
        <time>2019-04-19T12:30:41Z</time>
      </trkpt>
      <trkpt lat="44.12267" lon="3.12834">
        <ele>845.6</ele>
        <time>2019-04-19T12:30:42Z</time>
      </trkpt>
      <trkpt lat="44.12267" lon="3.1283">
        <ele>845.7</ele>
        <time>2019-04-19T12:30:43Z</time>
      </trkpt>
      <trkpt lat="44.12266" lon="3.12825">
        <ele>845.8</ele>
        <time>2019-04-19T12:30:44Z</time>
      </trkpt>
      <trkpt lat="44.12266" lon="3.1282">
        <ele>845.9</ele>
        <time>2019-04-19T12:30:45Z</time>
      </trkpt>
      <trkpt lat="44.12266" lon="3.12815">
        <ele>846</ele>
        <time>2019-04-19T12:30:46Z</time>
      </trkpt>
      <trkpt lat="44.12266" lon="3.1281">
        <ele>846.1</ele>
        <time>2019-04-19T12:30:47Z</time>
      </trkpt>
      <trkpt lat="44.12265" lon="3.12805">
        <ele>846.2</ele>
        <time>2019-04-19T12:30:48Z</time>
      </trkpt>
      <trkpt lat="44.12265" lon="3.128">
        <ele>846.4</ele>
        <time>2019-04-19T12:30:49Z</time>
      </trkpt>
      <trkpt lat="44.12266" lon="3.12795">
        <ele>846.5</ele>
        <time>2019-04-19T12:30:50Z</time>
      </trkpt>
      <trkpt lat="44.12266" lon="3.1279">
        <ele>846.7</ele>
        <time>2019-04-19T12:30:51Z</time>
      </trkpt>
      <trkpt lat="44.12266" lon="3.12786">
        <ele>846.9</ele>
        <time>2019-04-19T12:30:52Z</time>
      </trkpt>
      <trkpt lat="44.12265" lon="3.12781">
        <ele>847</ele>
        <time>2019-04-19T12:30:53Z</time>
      </trkpt>
      <trkpt lat="44.12265" lon="3.12775">
        <ele>847.1</ele>
        <time>2019-04-19T12:30:54Z</time>
      </trkpt>
      <trkpt lat="44.12265" lon="3.12769">
        <ele>847.2</ele>
        <time>2019-04-19T12:30:55Z</time>
      </trkpt>
      <trkpt lat="44.12265" lon="3.12763">
        <ele>847.4</ele>
        <time>2019-04-19T12:30:56Z</time>
      </trkpt>
      <trkpt lat="44.12265" lon="3.12758">
        <ele>847.6</ele>
        <time>2019-04-19T12:30:57Z</time>
      </trkpt>
      <trkpt lat="44.12265" lon="3.12752">
        <ele>847.8</ele>
        <time>2019-04-19T12:30:58Z</time>
      </trkpt>
      <trkpt lat="44.12266" lon="3.12747">
        <ele>848</ele>
        <time>2019-04-19T12:30:59Z</time>
      </trkpt>
      <trkpt lat="44.12266" lon="3.12742">
        <ele>848.1</ele>
        <time>2019-04-19T12:31:00Z</time>
      </trkpt>
      <trkpt lat="44.12265" lon="3.12736">
        <ele>848.2</ele>
        <time>2019-04-19T12:31:01Z</time>
      </trkpt>
      <trkpt lat="44.12265" lon="3.12731">
        <ele>848.1</ele>
        <time>2019-04-19T12:31:02Z</time>
      </trkpt>
      <trkpt lat="44.12264" lon="3.12727">
        <ele>848</ele>
        <time>2019-04-19T12:31:03Z</time>
      </trkpt>
      <trkpt lat="44.12263" lon="3.12723">
        <ele>848.1</ele>
        <time>2019-04-19T12:31:04Z</time>
      </trkpt>
      <trkpt lat="44.12263" lon="3.12718">
        <ele>848.1</ele>
        <time>2019-04-19T12:31:05Z</time>
      </trkpt>
      <trkpt lat="44.12264" lon="3.12712">
        <ele>847.9</ele>
        <time>2019-04-19T12:31:06Z</time>
      </trkpt>
      <trkpt lat="44.12265" lon="3.12706">
        <ele>847.8</ele>
        <time>2019-04-19T12:31:07Z</time>
      </trkpt>
      <trkpt lat="44.12266" lon="3.12703">
        <ele>847.8</ele>
        <time>2019-04-19T12:31:08Z</time>
      </trkpt>
      <trkpt lat="44.1227" lon="3.12698">
        <ele>847.7</ele>
        <time>2019-04-19T12:31:10Z</time>
      </trkpt>
      <trkpt lat="44.12273" lon="3.12696">
        <ele>847.7</ele>
        <time>2019-04-19T12:31:11Z</time>
      </trkpt>
      <trkpt lat="44.12277" lon="3.12693">
        <ele>847.7</ele>
        <time>2019-04-19T12:31:12Z</time>
      </trkpt>
      <trkpt lat="44.12284" lon="3.12688">
        <ele>847.5</ele>
        <time>2019-04-19T12:31:13Z</time>
      </trkpt>
      <trkpt lat="44.1229" lon="3.12679">
        <ele>847.1</ele>
        <time>2019-04-19T12:31:14Z</time>
      </trkpt>
      <trkpt lat="44.12298" lon="3.12671">
        <ele>846.8</ele>
        <time>2019-04-19T12:31:15Z</time>
      </trkpt>
      <trkpt lat="44.12304" lon="3.12664">
        <ele>846.5</ele>
        <time>2019-04-19T12:31:16Z</time>
      </trkpt>
      <trkpt lat="44.12309" lon="3.12659">
        <ele>846.3</ele>
        <time>2019-04-19T12:31:17Z</time>
      </trkpt>
      <trkpt lat="44.12308" lon="3.12662">
        <ele>846.2</ele>
        <time>2019-04-19T12:31:18Z</time>
      </trkpt>
      <trkpt lat="44.12312" lon="3.12664">
        <ele>846</ele>
        <time>2019-04-19T12:31:20Z</time>
      </trkpt>
      <trkpt lat="44.12316" lon="3.12664">
        <ele>845.6</ele>
        <time>2019-04-19T12:31:21Z</time>
      </trkpt>
      <trkpt lat="44.12321" lon="3.12669">
        <ele>845.6</ele>
        <time>2019-04-19T12:31:23Z</time>
      </trkpt>
      <trkpt lat="44.12322" lon="3.12676">
        <ele>845.6</ele>
        <time>2019-04-19T12:31:25Z</time>
      </trkpt>
      <trkpt lat="44.12324" lon="3.12681">
        <ele>845.6</ele>
        <time>2019-04-19T12:31:26Z</time>
      </trkpt>
      <trkpt lat="44.12328" lon="3.12686">
        <ele>845.6</ele>
        <time>2019-04-19T12:31:27Z</time>
      </trkpt>
      <trkpt lat="44.12332" lon="3.1269">
        <ele>845.1</ele>
        <time>2019-04-19T12:31:28Z</time>
      </trkpt>
      <trkpt lat="44.12337" lon="3.12694">
        <ele>844.8</ele>
        <time>2019-04-19T12:31:29Z</time>
      </trkpt>
      <trkpt lat="44.12343" lon="3.12697">
        <ele>844.5</ele>
        <time>2019-04-19T12:31:30Z</time>
      </trkpt>
      <trkpt lat="44.12348" lon="3.12701">
        <ele>844.3</ele>
        <time>2019-04-19T12:31:31Z</time>
      </trkpt>
      <trkpt lat="44.12353" lon="3.12707">
        <ele>844</ele>
        <time>2019-04-19T12:31:32Z</time>
      </trkpt>
      <trkpt lat="44.12355" lon="3.1271">
        <ele>843.9</ele>
        <time>2019-04-19T12:31:33Z</time>
      </trkpt>
      <trkpt lat="44.12359" lon="3.12712">
        <ele>843.9</ele>
        <time>2019-04-19T12:31:34Z</time>
      </trkpt>
      <trkpt lat="44.12365" lon="3.12715">
        <ele>843.9</ele>
        <time>2019-04-19T12:31:35Z</time>
      </trkpt>
      <trkpt lat="44.12369" lon="3.12716">
        <ele>843.9</ele>
        <time>2019-04-19T12:31:36Z</time>
      </trkpt>
      <trkpt lat="44.12374" lon="3.12716">
        <ele>844</ele>
        <time>2019-04-19T12:31:37Z</time>
      </trkpt>
      <trkpt lat="44.12379" lon="3.12716">
        <ele>844.1</ele>
        <time>2019-04-19T12:31:38Z</time>
      </trkpt>
      <trkpt lat="44.12383" lon="3.12718">
        <ele>844.2</ele>
        <time>2019-04-19T12:31:39Z</time>
      </trkpt>
      <trkpt lat="44.12388" lon="3.12721">
        <ele>844.2</ele>
        <time>2019-04-19T12:31:40Z</time>
      </trkpt>
      <trkpt lat="44.12392" lon="3.1272">
        <ele>844.2</ele>
        <time>2019-04-19T12:31:41Z</time>
      </trkpt>
      <trkpt lat="44.12397" lon="3.1272">
        <ele>844.2</ele>
        <time>2019-04-19T12:31:42Z</time>
      </trkpt>
      <trkpt lat="44.124" lon="3.12723">
        <ele>844.2</ele>
        <time>2019-04-19T12:31:43Z</time>
      </trkpt>
      <trkpt lat="44.12405" lon="3.12723">
        <ele>844.2</ele>
        <time>2019-04-19T12:31:44Z</time>
      </trkpt>
      <trkpt lat="44.12408" lon="3.12727">
        <ele>844.2</ele>
        <time>2019-04-19T12:31:45Z</time>
      </trkpt>
      <trkpt lat="44.1241" lon="3.12731">
        <ele>844.2</ele>
        <time>2019-04-19T12:31:46Z</time>
      </trkpt>
      <trkpt lat="44.12415" lon="3.12733">
        <ele>844.2</ele>
        <time>2019-04-19T12:31:47Z</time>
      </trkpt>
      <trkpt lat="44.1242" lon="3.12735">
        <ele>844.1</ele>
        <time>2019-04-19T12:31:48Z</time>
      </trkpt>
      <trkpt lat="44.12425" lon="3.12738">
        <ele>844</ele>
        <time>2019-04-19T12:31:49Z</time>
      </trkpt>
      <trkpt lat="44.12431" lon="3.1274">
        <ele>843.9</ele>
        <time>2019-04-19T12:31:50Z</time>
      </trkpt>
      <trkpt lat="44.12435" lon="3.12742">
        <ele>843.9</ele>
        <time>2019-04-19T12:31:51Z</time>
      </trkpt>
      <trkpt lat="44.12437" lon="3.12749">
        <ele>843.8</ele>
        <time>2019-04-19T12:31:52Z</time>
      </trkpt>
      <trkpt lat="44.1244" lon="3.12754">
        <ele>843.7</ele>
        <time>2019-04-19T12:31:53Z</time>
      </trkpt>
      <trkpt lat="44.12444" lon="3.12757">
        <ele>843.7</ele>
        <time>2019-04-19T12:31:54Z</time>
      </trkpt>
      <trkpt lat="44.12447" lon="3.12762">
        <ele>843.6</ele>
        <time>2019-04-19T12:31:55Z</time>
      </trkpt>
      <trkpt lat="44.12452" lon="3.12763">
        <ele>843.6</ele>
        <time>2019-04-19T12:31:56Z</time>
      </trkpt>
      <trkpt lat="44.12455" lon="3.12768">
        <ele>843.6</ele>
        <time>2019-04-19T12:31:57Z</time>
      </trkpt>
      <trkpt lat="44.1246" lon="3.12772">
        <ele>843.5</ele>
        <time>2019-04-19T12:31:58Z</time>
      </trkpt>
      <trkpt lat="44.12466" lon="3.12775">
        <ele>843.5</ele>
        <time>2019-04-19T12:31:59Z</time>
      </trkpt>
      <trkpt lat="44.12469" lon="3.12779">
        <ele>843.5</ele>
        <time>2019-04-19T12:32:00Z</time>
      </trkpt>
      <trkpt lat="44.12473" lon="3.12781">
        <ele>843.4</ele>
        <time>2019-04-19T12:32:01Z</time>
      </trkpt>
      <trkpt lat="44.12477" lon="3.12782">
        <ele>843.4</ele>
        <time>2019-04-19T12:32:02Z</time>
      </trkpt>
      <trkpt lat="44.12481" lon="3.12783">
        <ele>843.4</ele>
        <time>2019-04-19T12:32:03Z</time>
      </trkpt>
      <trkpt lat="44.12484" lon="3.12781">
        <ele>843.4</ele>
        <time>2019-04-19T12:32:04Z</time>
      </trkpt>
      <trkpt lat="44.12488" lon="3.12779">
        <ele>843.3</ele>
        <time>2019-04-19T12:32:05Z</time>
      </trkpt>
      <trkpt lat="44.12492" lon="3.12776">
        <ele>843.3</ele>
        <time>2019-04-19T12:32:06Z</time>
      </trkpt>
      <trkpt lat="44.12496" lon="3.12771">
        <ele>843.3</ele>
        <time>2019-04-19T12:32:07Z</time>
      </trkpt>
      <trkpt lat="44.12499" lon="3.12772">
        <ele>843.3</ele>
        <time>2019-04-19T12:32:08Z</time>
      </trkpt>
      <trkpt lat="44.12504" lon="3.12773">
        <ele>843.1</ele>
        <time>2019-04-19T12:32:09Z</time>
      </trkpt>
      <trkpt lat="44.12509" lon="3.12769">
        <ele>842.9</ele>
        <time>2019-04-19T12:32:10Z</time>
      </trkpt>
      <trkpt lat="44.12512" lon="3.12765">
        <ele>842.6</ele>
        <time>2019-04-19T12:32:11Z</time>
      </trkpt>
      <trkpt lat="44.12516" lon="3.12762">
        <ele>842.3</ele>
        <time>2019-04-19T12:32:12Z</time>
      </trkpt>
      <trkpt lat="44.12519" lon="3.12761">
        <ele>842</ele>
        <time>2019-04-19T12:32:13Z</time>
      </trkpt>
      <trkpt lat="44.12523" lon="3.12762">
        <ele>841.8</ele>
        <time>2019-04-19T12:32:14Z</time>
      </trkpt>
      <trkpt lat="44.12526" lon="3.12766">
        <ele>841.5</ele>
        <time>2019-04-19T12:32:15Z</time>
      </trkpt>
      <trkpt lat="44.12529" lon="3.12771">
        <ele>841.1</ele>
        <time>2019-04-19T12:32:16Z</time>
      </trkpt>
      <trkpt lat="44.12532" lon="3.12776">
        <ele>840.7</ele>
        <time>2019-04-19T12:32:17Z</time>
      </trkpt>
      <trkpt lat="44.12537" lon="3.12791">
        <ele>839.7</ele>
        <time>2019-04-19T12:32:18Z</time>
      </trkpt>
      <trkpt lat="44.12538" lon="3.12801">
        <ele>839.3</ele>
        <time>2019-04-19T12:32:19Z</time>
      </trkpt>
      <trkpt lat="44.12539" lon="3.12808">
        <ele>839</ele>
        <time>2019-04-19T12:32:20Z</time>
      </trkpt>
      <trkpt lat="44.12541" lon="3.12816">
        <ele>838.7</ele>
        <time>2019-04-19T12:32:21Z</time>
      </trkpt>
      <trkpt lat="44.12546" lon="3.12824">
        <ele>838.2</ele>
        <time>2019-04-19T12:32:22Z</time>
      </trkpt>
      <trkpt lat="44.12551" lon="3.1283">
        <ele>837.8</ele>
        <time>2019-04-19T12:32:23Z</time>
      </trkpt>
      <trkpt lat="44.12557" lon="3.1284">
        <ele>837.3</ele>
        <time>2019-04-19T12:32:24Z</time>
      </trkpt>
      <trkpt lat="44.12561" lon="3.12848">
        <ele>836.9</ele>
        <time>2019-04-19T12:32:25Z</time>
      </trkpt>
      <trkpt lat="44.12566" lon="3.12855">
        <ele>836.5</ele>
        <time>2019-04-19T12:32:26Z</time>
      </trkpt>
      <trkpt lat="44.12572" lon="3.12864">
        <ele>835.9</ele>
        <time>2019-04-19T12:32:27Z</time>
      </trkpt>
      <trkpt lat="44.12578" lon="3.12872">
        <ele>835.1</ele>
        <time>2019-04-19T12:32:28Z</time>
      </trkpt>
      <trkpt lat="44.12584" lon="3.12881">
        <ele>834.4</ele>
        <time>2019-04-19T12:32:29Z</time>
      </trkpt>
      <trkpt lat="44.12591" lon="3.12892">
        <ele>833.8</ele>
        <time>2019-04-19T12:32:30Z</time>
      </trkpt>
      <trkpt lat="44.12597" lon="3.12902">
        <ele>833.2</ele>
        <time>2019-04-19T12:32:31Z</time>
      </trkpt>
      <trkpt lat="44.12606" lon="3.12908">
        <ele>832.5</ele>
        <time>2019-04-19T12:32:32Z</time>
      </trkpt>
      <trkpt lat="44.12613" lon="3.12919">
        <ele>832</ele>
        <time>2019-04-19T12:32:33Z</time>
      </trkpt>
      <trkpt lat="44.12621" lon="3.12921">
        <ele>831.7</ele>
        <time>2019-04-19T12:32:34Z</time>
      </trkpt>
      <trkpt lat="44.12628" lon="3.12927">
        <ele>831.5</ele>
        <time>2019-04-19T12:32:35Z</time>
      </trkpt>
      <trkpt lat="44.12635" lon="3.12932">
        <ele>831.2</ele>
        <time>2019-04-19T12:32:36Z</time>
      </trkpt>
      <trkpt lat="44.12639" lon="3.12933">
        <ele>831.1</ele>
        <time>2019-04-19T12:32:37Z</time>
      </trkpt>
      <trkpt lat="44.12642" lon="3.12938">
        <ele>831</ele>
        <time>2019-04-19T12:32:38Z</time>
      </trkpt>
      <trkpt lat="44.12645" lon="3.12945">
        <ele>830.9</ele>
        <time>2019-04-19T12:32:39Z</time>
      </trkpt>
      <trkpt lat="44.1265" lon="3.12952">
        <ele>830.8</ele>
        <time>2019-04-19T12:32:40Z</time>
      </trkpt>
      <trkpt lat="44.12653" lon="3.12957">
        <ele>830.7</ele>
        <time>2019-04-19T12:32:41Z</time>
      </trkpt>
      <trkpt lat="44.12655" lon="3.12962">
        <ele>830.6</ele>
        <time>2019-04-19T12:32:42Z</time>
      </trkpt>
      <trkpt lat="44.1266" lon="3.12974">
        <ele>830.3</ele>
        <time>2019-04-19T12:32:43Z</time>
      </trkpt>
      <trkpt lat="44.12666" lon="3.12983">
        <ele>829.8</ele>
        <time>2019-04-19T12:32:44Z</time>
      </trkpt>
      <trkpt lat="44.12669" lon="3.12995">
        <ele>829.3</ele>
        <time>2019-04-19T12:32:45Z</time>
      </trkpt>
      <trkpt lat="44.12671" lon="3.13003">
        <ele>828.8</ele>
        <time>2019-04-19T12:32:46Z</time>
      </trkpt>
      <trkpt lat="44.12671" lon="3.1301">
        <ele>828.4</ele>
        <time>2019-04-19T12:32:47Z</time>
      </trkpt>
      <trkpt lat="44.12676" lon="3.13018">
        <ele>827.6</ele>
        <time>2019-04-19T12:32:48Z</time>
      </trkpt>
      <trkpt lat="44.12682" lon="3.13026">
        <ele>826.7</ele>
        <time>2019-04-19T12:32:49Z</time>
      </trkpt>
      <trkpt lat="44.12689" lon="3.13033">
        <ele>825.9</ele>
        <time>2019-04-19T12:32:50Z</time>
      </trkpt>
      <trkpt lat="44.12695" lon="3.13036">
        <ele>824.3</ele>
        <time>2019-04-19T12:32:51Z</time>
      </trkpt>
      <trkpt lat="44.12699" lon="3.13039">
        <ele>824.1</ele>
        <time>2019-04-19T12:32:52Z</time>
      </trkpt>
      <trkpt lat="44.12704" lon="3.13041">
        <ele>824</ele>
        <time>2019-04-19T12:32:53Z</time>
      </trkpt>
      <trkpt lat="44.12709" lon="3.13045">
        <ele>823.8</ele>
        <time>2019-04-19T12:32:54Z</time>
      </trkpt>
      <trkpt lat="44.12716" lon="3.13039">
        <ele>823.5</ele>
        <time>2019-04-19T12:32:55Z</time>
      </trkpt>
      <trkpt lat="44.1272" lon="3.1304">
        <ele>823.4</ele>
        <time>2019-04-19T12:32:56Z</time>
      </trkpt>
      <trkpt lat="44.12725" lon="3.13039">
        <ele>823.3</ele>
        <time>2019-04-19T12:32:57Z</time>
      </trkpt>
      <trkpt lat="44.12729" lon="3.13039">
        <ele>823.2</ele>
        <time>2019-04-19T12:32:58Z</time>
      </trkpt>
      <trkpt lat="44.12737" lon="3.13032">
        <ele>823</ele>
        <time>2019-04-19T12:33:00Z</time>
      </trkpt>
      <trkpt lat="44.12742" lon="3.13031">
        <ele>822.8</ele>
        <time>2019-04-19T12:33:01Z</time>
      </trkpt>
      <trkpt lat="44.12748" lon="3.13024">
        <ele>822.7</ele>
        <time>2019-04-19T12:33:02Z</time>
      </trkpt>
      <trkpt lat="44.1275" lon="3.13026">
        <ele>822.6</ele>
        <time>2019-04-19T12:33:03Z</time>
      </trkpt>
      <trkpt lat="44.12755" lon="3.13025">
        <ele>822.5</ele>
        <time>2019-04-19T12:33:04Z</time>
      </trkpt>
      <trkpt lat="44.1276" lon="3.13024">
        <ele>822.4</ele>
        <time>2019-04-19T12:33:05Z</time>
      </trkpt>
      <trkpt lat="44.12765" lon="3.13021">
        <ele>822.2</ele>
        <time>2019-04-19T12:33:06Z</time>
      </trkpt>
      <trkpt lat="44.1277" lon="3.13018">
        <ele>822.1</ele>
        <time>2019-04-19T12:33:07Z</time>
      </trkpt>
      <trkpt lat="44.12776" lon="3.13015">
        <ele>821.9</ele>
        <time>2019-04-19T12:33:08Z</time>
      </trkpt>
      <trkpt lat="44.12784" lon="3.1301">
        <ele>821.6</ele>
        <time>2019-04-19T12:33:09Z</time>
      </trkpt>
      <trkpt lat="44.1279" lon="3.13002">
        <ele>821.4</ele>
        <time>2019-04-19T12:33:10Z</time>
      </trkpt>
      <trkpt lat="44.12793" lon="3.12997">
        <ele>821.2</ele>
        <time>2019-04-19T12:33:11Z</time>
      </trkpt>
      <trkpt lat="44.12794" lon="3.12989">
        <ele>821</ele>
        <time>2019-04-19T12:33:12Z</time>
      </trkpt>
      <trkpt lat="44.12798" lon="3.12977">
        <ele>820.5</ele>
        <time>2019-04-19T12:33:13Z</time>
      </trkpt>
      <trkpt lat="44.128" lon="3.12966">
        <ele>820</ele>
        <time>2019-04-19T12:33:14Z</time>
      </trkpt>
      <trkpt lat="44.12805" lon="3.12958">
        <ele>819.5</ele>
        <time>2019-04-19T12:33:15Z</time>
      </trkpt>
      <trkpt lat="44.12804" lon="3.1295">
        <ele>819.2</ele>
        <time>2019-04-19T12:33:16Z</time>
      </trkpt>
      <trkpt lat="44.12804" lon="3.12944">
        <ele>819</ele>
        <time>2019-04-19T12:33:17Z</time>
      </trkpt>
      <trkpt lat="44.12807" lon="3.12933">
        <ele>818.5</ele>
        <time>2019-04-19T12:33:18Z</time>
      </trkpt>
      <trkpt lat="44.12808" lon="3.12923">
        <ele>818</ele>
        <time>2019-04-19T12:33:19Z</time>
      </trkpt>
      <trkpt lat="44.1281" lon="3.12911">
        <ele>817.5</ele>
        <time>2019-04-19T12:33:20Z</time>
      </trkpt>
      <trkpt lat="44.12811" lon="3.12901">
        <ele>817.2</ele>
        <time>2019-04-19T12:33:21Z</time>
      </trkpt>
      <trkpt lat="44.12812" lon="3.12889">
        <ele>816.8</ele>
        <time>2019-04-19T12:33:22Z</time>
      </trkpt>
      <trkpt lat="44.12811" lon="3.12876">
        <ele>816.6</ele>
        <time>2019-04-19T12:33:23Z</time>
      </trkpt>
      <trkpt lat="44.12813" lon="3.12866">
        <ele>816.4</ele>
        <time>2019-04-19T12:33:24Z</time>
      </trkpt>
      <trkpt lat="44.12816" lon="3.12857">
        <ele>816.4</ele>
        <time>2019-04-19T12:33:25Z</time>
      </trkpt>
      <trkpt lat="44.12821" lon="3.12851">
        <ele>816.3</ele>
        <time>2019-04-19T12:33:26Z</time>
      </trkpt>
      <trkpt lat="44.12827" lon="3.12848">
        <ele>816.3</ele>
        <time>2019-04-19T12:33:27Z</time>
      </trkpt>
      <trkpt lat="44.12832" lon="3.12847">
        <ele>816.3</ele>
        <time>2019-04-19T12:33:28Z</time>
      </trkpt>
      <trkpt lat="44.12841" lon="3.12849">
        <ele>816.3</ele>
        <time>2019-04-19T12:33:29Z</time>
      </trkpt>
      <trkpt lat="44.12848" lon="3.12851">
        <ele>816.4</ele>
        <time>2019-04-19T12:33:30Z</time>
      </trkpt>
      <trkpt lat="44.12854" lon="3.12851">
        <ele>816.4</ele>
        <time>2019-04-19T12:33:31Z</time>
      </trkpt>
      <trkpt lat="44.1286" lon="3.12851">
        <ele>816.5</ele>
        <time>2019-04-19T12:33:32Z</time>
      </trkpt>
      <trkpt lat="44.12865" lon="3.12853">
        <ele>816.5</ele>
        <time>2019-04-19T12:33:33Z</time>
      </trkpt>
      <trkpt lat="44.12871" lon="3.12854">
        <ele>816.6</ele>
        <time>2019-04-19T12:33:34Z</time>
      </trkpt>
      <trkpt lat="44.12877" lon="3.12854">
        <ele>816.7</ele>
        <time>2019-04-19T12:33:35Z</time>
      </trkpt>
      <trkpt lat="44.12881" lon="3.12856">
        <ele>816.7</ele>
        <time>2019-04-19T12:33:36Z</time>
      </trkpt>
      <trkpt lat="44.12885" lon="3.12857">
        <ele>816.7</ele>
        <time>2019-04-19T12:33:37Z</time>
      </trkpt>
      <trkpt lat="44.12891" lon="3.12857">
        <ele>816.8</ele>
        <time>2019-04-19T12:33:38Z</time>
      </trkpt>
      <trkpt lat="44.12895" lon="3.12858">
        <ele>816.9</ele>
        <time>2019-04-19T12:33:39Z</time>
      </trkpt>
      <trkpt lat="44.12901" lon="3.12855">
        <ele>816.9</ele>
        <time>2019-04-19T12:33:40Z</time>
      </trkpt>
      <trkpt lat="44.12906" lon="3.12856">
        <ele>817</ele>
        <time>2019-04-19T12:33:41Z</time>
      </trkpt>
      <trkpt lat="44.12912" lon="3.1286">
        <ele>817</ele>
        <time>2019-04-19T12:33:42Z</time>
      </trkpt>
      <trkpt lat="44.12919" lon="3.12858">
        <ele>817.1</ele>
        <time>2019-04-19T12:33:43Z</time>
      </trkpt>
      <trkpt lat="44.12924" lon="3.1286">
        <ele>817.1</ele>
        <time>2019-04-19T12:33:44Z</time>
      </trkpt>
      <trkpt lat="44.12929" lon="3.1286">
        <ele>817.1</ele>
        <time>2019-04-19T12:33:45Z</time>
      </trkpt>
      <trkpt lat="44.12929" lon="3.12864">
        <ele>817.1</ele>
        <time>2019-04-19T12:33:46Z</time>
      </trkpt>
      <trkpt lat="44.12935" lon="3.12866">
        <ele>817.1</ele>
        <time>2019-04-19T12:33:48Z</time>
      </trkpt>
      <trkpt lat="44.12941" lon="3.12869">
        <ele>817.2</ele>
        <time>2019-04-19T12:33:49Z</time>
      </trkpt>
      <trkpt lat="44.12949" lon="3.12871">
        <ele>817.1</ele>
        <time>2019-04-19T12:33:51Z</time>
      </trkpt>
      <trkpt lat="44.12956" lon="3.12871">
        <ele>817.1</ele>
        <time>2019-04-19T12:33:52Z</time>
      </trkpt>
      <trkpt lat="44.12961" lon="3.12875">
        <ele>817</ele>
        <time>2019-04-19T12:33:54Z</time>
      </trkpt>
      <trkpt lat="44.12966" lon="3.12877">
        <ele>817</ele>
        <time>2019-04-19T12:33:55Z</time>
      </trkpt>
      <trkpt lat="44.12971" lon="3.12879">
        <ele>816.9</ele>
        <time>2019-04-19T12:33:56Z</time>
      </trkpt>
      <trkpt lat="44.12975" lon="3.12885">
        <ele>816.5</ele>
        <time>2019-04-19T12:33:57Z</time>
      </trkpt>
      <trkpt lat="44.12978" lon="3.12889">
        <ele>816.4</ele>
        <time>2019-04-19T12:33:58Z</time>
      </trkpt>
      <trkpt lat="44.12982" lon="3.12898">
        <ele>816.2</ele>
        <time>2019-04-19T12:33:59Z</time>
      </trkpt>
      <trkpt lat="44.12986" lon="3.12903">
        <ele>816.1</ele>
        <time>2019-04-19T12:34:00Z</time>
      </trkpt>
      <trkpt lat="44.12985" lon="3.12909">
        <ele>816</ele>
        <time>2019-04-19T12:34:01Z</time>
      </trkpt>
      <trkpt lat="44.12988" lon="3.1292">
        <ele>815.9</ele>
        <time>2019-04-19T12:34:02Z</time>
      </trkpt>
      <trkpt lat="44.1299" lon="3.12927">
        <ele>815.8</ele>
        <time>2019-04-19T12:34:03Z</time>
      </trkpt>
      <trkpt lat="44.12992" lon="3.12933">
        <ele>815.7</ele>
        <time>2019-04-19T12:34:04Z</time>
      </trkpt>
      <trkpt lat="44.12994" lon="3.12939">
        <ele>815.6</ele>
        <time>2019-04-19T12:34:05Z</time>
      </trkpt>
      <trkpt lat="44.12995" lon="3.12945">
        <ele>815.6</ele>
        <time>2019-04-19T12:34:06Z</time>
      </trkpt>
      <trkpt lat="44.12993" lon="3.12948">
        <ele>815.6</ele>
        <time>2019-04-19T12:34:10Z</time>
      </trkpt>
      <trkpt lat="44.12997" lon="3.12942">
        <ele>815.5</ele>
        <time>2019-04-19T12:34:15Z</time>
      </trkpt>
      <trkpt lat="44.12997" lon="3.12938">
        <ele>815.5</ele>
        <time>2019-04-19T12:34:16Z</time>
      </trkpt>
      <trkpt lat="44.12996" lon="3.12932">
        <ele>815.5</ele>
        <time>2019-04-19T12:34:18Z</time>
      </trkpt>
      <trkpt lat="44.12995" lon="3.12928">
        <ele>815.5</ele>
        <time>2019-04-19T12:34:19Z</time>
      </trkpt>
      <trkpt lat="44.12994" lon="3.12924">
        <ele>815.5</ele>
        <time>2019-04-19T12:34:20Z</time>
      </trkpt>
      <trkpt lat="44.12993" lon="3.1292">
        <ele>815.4</ele>
        <time>2019-04-19T12:34:21Z</time>
      </trkpt>
      <trkpt lat="44.12992" lon="3.12916">
        <ele>815.4</ele>
        <time>2019-04-19T12:34:22Z</time>
      </trkpt>
      <trkpt lat="44.12992" lon="3.12912">
        <ele>815.4</ele>
        <time>2019-04-19T12:34:23Z</time>
      </trkpt>
      <trkpt lat="44.12991" lon="3.12906">
        <ele>815.4</ele>
        <time>2019-04-19T12:34:25Z</time>
      </trkpt>
      <trkpt lat="44.12994" lon="3.12909">
        <ele>815.4</ele>
        <time>2019-04-19T12:34:28Z</time>
      </trkpt>
      <trkpt lat="44.12996" lon="3.12913">
        <ele>815.4</ele>
        <time>2019-04-19T12:34:29Z</time>
      </trkpt>
      <trkpt lat="44.12998" lon="3.12917">
        <ele>815.4</ele>
        <time>2019-04-19T12:34:30Z</time>
      </trkpt>
      <trkpt lat="44.13001" lon="3.12924">
        <ele>815.4</ele>
        <time>2019-04-19T12:34:31Z</time>
      </trkpt>
      <trkpt lat="44.13006" lon="3.12937">
        <ele>815.4</ele>
        <time>2019-04-19T12:34:32Z</time>
      </trkpt>
      <trkpt lat="44.13008" lon="3.12943">
        <ele>815.4</ele>
        <time>2019-04-19T12:34:33Z</time>
      </trkpt>
      <trkpt lat="44.1301" lon="3.12948">
        <ele>815.4</ele>
        <time>2019-04-19T12:34:34Z</time>
      </trkpt>
      <trkpt lat="44.13014" lon="3.12955">
        <ele>815.4</ele>
        <time>2019-04-19T12:34:35Z</time>
      </trkpt>
      <trkpt lat="44.13018" lon="3.12959">
        <ele>815.2</ele>
        <time>2019-04-19T12:34:36Z</time>
      </trkpt>
      <trkpt lat="44.13022" lon="3.12963">
        <ele>815</ele>
        <time>2019-04-19T12:34:37Z</time>
      </trkpt>
      <trkpt lat="44.13027" lon="3.12969">
        <ele>814.6</ele>
        <time>2019-04-19T12:34:38Z</time>
      </trkpt>
      <trkpt lat="44.13031" lon="3.12974">
        <ele>814.3</ele>
        <time>2019-04-19T12:34:39Z</time>
      </trkpt>
      <trkpt lat="44.13034" lon="3.12979">
        <ele>814.2</ele>
        <time>2019-04-19T12:34:40Z</time>
      </trkpt>
      <trkpt lat="44.13041" lon="3.12986">
        <ele>813.8</ele>
        <time>2019-04-19T12:34:41Z</time>
      </trkpt>
      <trkpt lat="44.13044" lon="3.12987">
        <ele>813.7</ele>
        <time>2019-04-19T12:34:42Z</time>
      </trkpt>
      <trkpt lat="44.13051" lon="3.12983">
        <ele>813.5</ele>
        <time>2019-04-19T12:34:43Z</time>
      </trkpt>
      <trkpt lat="44.13059" lon="3.12987">
        <ele>813</ele>
        <time>2019-04-19T12:34:44Z</time>
      </trkpt>
      <trkpt lat="44.13063" lon="3.12985">
        <ele>813</ele>
        <time>2019-04-19T12:34:45Z</time>
      </trkpt>
      <trkpt lat="44.13067" lon="3.12984">
        <ele>812.9</ele>
        <time>2019-04-19T12:34:46Z</time>
      </trkpt>
      <trkpt lat="44.13071" lon="3.1298">
        <ele>813.1</ele>
        <time>2019-04-19T12:34:47Z</time>
      </trkpt>
      <trkpt lat="44.13074" lon="3.12978">
        <ele>813.2</ele>
        <time>2019-04-19T12:34:48Z</time>
      </trkpt>
      <trkpt lat="44.1308" lon="3.12975">
        <ele>813.7</ele>
        <time>2019-04-19T12:34:49Z</time>
      </trkpt>
      <trkpt lat="44.13085" lon="3.12971">
        <ele>814.4</ele>
        <time>2019-04-19T12:34:50Z</time>
      </trkpt>
      <trkpt lat="44.13087" lon="3.12974">
        <ele>814.1</ele>
        <time>2019-04-19T12:34:51Z</time>
      </trkpt>
      <trkpt lat="44.13096" lon="3.12972">
        <ele>815.2</ele>
        <time>2019-04-19T12:34:53Z</time>
      </trkpt>
      <trkpt lat="44.13099" lon="3.12973">
        <ele>815.4</ele>
        <time>2019-04-19T12:34:54Z</time>
      </trkpt>
      <trkpt lat="44.13102" lon="3.12973">
        <ele>815.4</ele>
        <time>2019-04-19T12:34:55Z</time>
      </trkpt>
      <trkpt lat="44.13106" lon="3.12973">
        <ele>816.2</ele>
        <time>2019-04-19T12:34:56Z</time>
      </trkpt>
      <trkpt lat="44.13111" lon="3.12974">
        <ele>816.3</ele>
        <time>2019-04-19T12:34:57Z</time>
      </trkpt>
      <trkpt lat="44.13114" lon="3.12977">
        <ele>816.6</ele>
        <time>2019-04-19T12:34:58Z</time>
      </trkpt>
      <trkpt lat="44.13118" lon="3.12979">
        <ele>816.6</ele>
        <time>2019-04-19T12:34:59Z</time>
      </trkpt>
      <trkpt lat="44.13123" lon="3.12981">
        <ele>817.1</ele>
        <time>2019-04-19T12:35:00Z</time>
      </trkpt>
      <trkpt lat="44.13127" lon="3.12983">
        <ele>817.2</ele>
        <time>2019-04-19T12:35:01Z</time>
      </trkpt>
      <trkpt lat="44.13131" lon="3.12985">
        <ele>817.8</ele>
        <time>2019-04-19T12:35:02Z</time>
      </trkpt>
      <trkpt lat="44.13135" lon="3.12988">
        <ele>818</ele>
        <time>2019-04-19T12:35:03Z</time>
      </trkpt>
      <trkpt lat="44.13138" lon="3.12991">
        <ele>818.1</ele>
        <time>2019-04-19T12:35:04Z</time>
      </trkpt>
      <trkpt lat="44.13139" lon="3.12994">
        <ele>818.1</ele>
        <time>2019-04-19T12:35:05Z</time>
      </trkpt>
      <trkpt lat="44.13141" lon="3.12999">
        <ele>818.2</ele>
        <time>2019-04-19T12:35:06Z</time>
      </trkpt>
      <trkpt lat="44.13142" lon="3.13004">
        <ele>818.1</ele>
        <time>2019-04-19T12:35:07Z</time>
      </trkpt>
      <trkpt lat="44.13144" lon="3.1301">
        <ele>818.3</ele>
        <time>2019-04-19T12:35:08Z</time>
      </trkpt>
      <trkpt lat="44.13146" lon="3.13015">
        <ele>818.2</ele>
        <time>2019-04-19T12:35:09Z</time>
      </trkpt>
      <trkpt lat="44.13147" lon="3.1302">
        <ele>818.4</ele>
        <time>2019-04-19T12:35:10Z</time>
      </trkpt>
      <trkpt lat="44.13149" lon="3.13026">
        <ele>818.2</ele>
        <time>2019-04-19T12:35:11Z</time>
      </trkpt>
      <trkpt lat="44.1315" lon="3.13031">
        <ele>818.4</ele>
        <time>2019-04-19T12:35:12Z</time>
      </trkpt>
      <trkpt lat="44.13152" lon="3.13034">
        <ele>818.2</ele>
        <time>2019-04-19T12:35:13Z</time>
      </trkpt>
      <trkpt lat="44.13156" lon="3.1304">
        <ele>818.4</ele>
        <time>2019-04-19T12:35:15Z</time>
      </trkpt>
      <trkpt lat="44.13158" lon="3.13044">
        <ele>818.6</ele>
        <time>2019-04-19T12:35:16Z</time>
      </trkpt>
      <trkpt lat="44.13161" lon="3.13048">
        <ele>818.7</ele>
        <time>2019-04-19T12:35:17Z</time>
      </trkpt>
      <trkpt lat="44.13164" lon="3.13053">
        <ele>818.8</ele>
        <time>2019-04-19T12:35:18Z</time>
      </trkpt>
      <trkpt lat="44.13168" lon="3.13057">
        <ele>818.9</ele>
        <time>2019-04-19T12:35:19Z</time>
      </trkpt>
      <trkpt lat="44.13172" lon="3.13061">
        <ele>819.3</ele>
        <time>2019-04-19T12:35:20Z</time>
      </trkpt>
      <trkpt lat="44.13175" lon="3.13064">
        <ele>819.4</ele>
        <time>2019-04-19T12:35:21Z</time>
      </trkpt>
      <trkpt lat="44.13177" lon="3.13067">
        <ele>819.4</ele>
        <time>2019-04-19T12:35:22Z</time>
      </trkpt>
      <trkpt lat="44.13179" lon="3.13069">
        <ele>819.5</ele>
        <time>2019-04-19T12:35:23Z</time>
      </trkpt>
      <trkpt lat="44.13181" lon="3.13073">
        <ele>819.6</ele>
        <time>2019-04-19T12:35:24Z</time>
      </trkpt>
      <trkpt lat="44.13184" lon="3.13078">
        <ele>819.7</ele>
        <time>2019-04-19T12:35:25Z</time>
      </trkpt>
      <trkpt lat="44.13199" lon="3.13103">
        <ele>819.9</ele>
        <time>2019-04-19T12:35:27Z</time>
      </trkpt>
      <trkpt lat="44.13193" lon="3.13103">
        <ele>819.4</ele>
        <time>2019-04-19T12:35:29Z</time>
      </trkpt>
      <trkpt lat="44.13189" lon="3.13107">
        <ele>818.7</ele>
        <time>2019-04-19T12:35:30Z</time>
      </trkpt>
      <trkpt lat="44.13187" lon="3.13112">
        <ele>818.4</ele>
        <time>2019-04-19T12:35:31Z</time>
      </trkpt>
      <trkpt lat="44.13188" lon="3.13119">
        <ele>817.9</ele>
        <time>2019-04-19T12:35:32Z</time>
      </trkpt>
      <trkpt lat="44.13187" lon="3.13123">
        <ele>817.9</ele>
        <time>2019-04-19T12:35:33Z</time>
      </trkpt>
      <trkpt lat="44.13184" lon="3.13128">
        <ele>817.2</ele>
        <time>2019-04-19T12:35:35Z</time>
      </trkpt>
      <trkpt lat="44.13182" lon="3.13132">
        <ele>816.9</ele>
        <time>2019-04-19T12:35:36Z</time>
      </trkpt>
      <trkpt lat="44.1318" lon="3.13134">
        <ele>816.7</ele>
        <time>2019-04-19T12:35:37Z</time>
      </trkpt>
      <trkpt lat="44.1318" lon="3.13141">
        <ele>815.8</ele>
        <time>2019-04-19T12:35:38Z</time>
      </trkpt>
      <trkpt lat="44.13179" lon="3.13147">
        <ele>815.5</ele>
        <time>2019-04-19T12:35:39Z</time>
      </trkpt>
      <trkpt lat="44.13178" lon="3.13152">
        <ele>815.3</ele>
        <time>2019-04-19T12:35:40Z</time>
      </trkpt>
      <trkpt lat="44.13177" lon="3.13157">
        <ele>814.7</ele>
        <time>2019-04-19T12:35:41Z</time>
      </trkpt>
      <trkpt lat="44.13175" lon="3.13162">
        <ele>814.3</ele>
        <time>2019-04-19T12:35:42Z</time>
      </trkpt>
      <trkpt lat="44.13174" lon="3.13169">
        <ele>814.1</ele>
        <time>2019-04-19T12:35:43Z</time>
      </trkpt>
      <trkpt lat="44.13176" lon="3.13187">
        <ele>813.5</ele>
        <time>2019-04-19T12:35:44Z</time>
      </trkpt>
      <trkpt lat="44.13176" lon="3.13194">
        <ele>813.3</ele>
        <time>2019-04-19T12:35:45Z</time>
      </trkpt>
      <trkpt lat="44.13176" lon="3.13203">
        <ele>813.1</ele>
        <time>2019-04-19T12:35:46Z</time>
      </trkpt>
      <trkpt lat="44.13173" lon="3.13213">
        <ele>812.6</ele>
        <time>2019-04-19T12:35:47Z</time>
      </trkpt>
      <trkpt lat="44.13171" lon="3.13221">
        <ele>812.1</ele>
        <time>2019-04-19T12:35:48Z</time>
      </trkpt>
      <trkpt lat="44.13171" lon="3.13228">
        <ele>812</ele>
        <time>2019-04-19T12:35:49Z</time>
      </trkpt>
      <trkpt lat="44.1317" lon="3.13235">
        <ele>812</ele>
        <time>2019-04-19T12:35:50Z</time>
      </trkpt>
      <trkpt lat="44.13169" lon="3.13242">
        <ele>811.9</ele>
        <time>2019-04-19T12:35:51Z</time>
      </trkpt>
      <trkpt lat="44.13167" lon="3.13252">
        <ele>811.7</ele>
        <time>2019-04-19T12:35:52Z</time>
      </trkpt>
      <trkpt lat="44.13169" lon="3.1326">
        <ele>811.9</ele>
        <time>2019-04-19T12:35:53Z</time>
      </trkpt>
      <trkpt lat="44.13169" lon="3.1327">
        <ele>811.9</ele>
        <time>2019-04-19T12:35:54Z</time>
      </trkpt>
      <trkpt lat="44.13169" lon="3.13277">
        <ele>811.9</ele>
        <time>2019-04-19T12:35:55Z</time>
      </trkpt>
      <trkpt lat="44.13166" lon="3.13284">
        <ele>811.7</ele>
        <time>2019-04-19T12:35:56Z</time>
      </trkpt>
      <trkpt lat="44.13165" lon="3.13293">
        <ele>811.7</ele>
        <time>2019-04-19T12:35:58Z</time>
      </trkpt>
      <trkpt lat="44.13163" lon="3.13304">
        <ele>811.7</ele>
        <time>2019-04-19T12:35:59Z</time>
      </trkpt>
      <trkpt lat="44.13162" lon="3.13307">
        <ele>811.6</ele>
        <time>2019-04-19T12:36:00Z</time>
      </trkpt>
      <trkpt lat="44.13158" lon="3.13311">
        <ele>811.6</ele>
        <time>2019-04-19T12:36:02Z</time>
      </trkpt>
      <trkpt lat="44.13157" lon="3.13316">
        <ele>811.7</ele>
        <time>2019-04-19T12:36:03Z</time>
      </trkpt>
      <trkpt lat="44.13157" lon="3.13331">
        <ele>811.8</ele>
        <time>2019-04-19T12:36:04Z</time>
      </trkpt>
      <trkpt lat="44.13157" lon="3.1334">
        <ele>811.9</ele>
        <time>2019-04-19T12:36:05Z</time>
      </trkpt>
      <trkpt lat="44.13155" lon="3.13348">
        <ele>812</ele>
        <time>2019-04-19T12:36:06Z</time>
      </trkpt>
      <trkpt lat="44.13155" lon="3.13355">
        <ele>812.1</ele>
        <time>2019-04-19T12:36:07Z</time>
      </trkpt>
      <trkpt lat="44.13155" lon="3.13363">
        <ele>812.1</ele>
        <time>2019-04-19T12:36:08Z</time>
      </trkpt>
      <trkpt lat="44.13153" lon="3.13368">
        <ele>812.2</ele>
        <time>2019-04-19T12:36:09Z</time>
      </trkpt>
      <trkpt lat="44.13152" lon="3.13377">
        <ele>812.3</ele>
        <time>2019-04-19T12:36:10Z</time>
      </trkpt>
      <trkpt lat="44.13153" lon="3.13385">
        <ele>812.3</ele>
        <time>2019-04-19T12:36:11Z</time>
      </trkpt>
      <trkpt lat="44.13155" lon="3.13394">
        <ele>812.4</ele>
        <time>2019-04-19T12:36:12Z</time>
      </trkpt>
      <trkpt lat="44.13155" lon="3.13401">
        <ele>812.4</ele>
        <time>2019-04-19T12:36:13Z</time>
      </trkpt>
      <trkpt lat="44.13156" lon="3.13411">
        <ele>812.4</ele>
        <time>2019-04-19T12:36:14Z</time>
      </trkpt>
      <trkpt lat="44.13157" lon="3.13418">
        <ele>812.4</ele>
        <time>2019-04-19T12:36:15Z</time>
      </trkpt>
      <trkpt lat="44.13158" lon="3.13424">
        <ele>812.4</ele>
        <time>2019-04-19T12:36:16Z</time>
      </trkpt>
      <trkpt lat="44.13157" lon="3.13432">
        <ele>812.4</ele>
        <time>2019-04-19T12:36:17Z</time>
      </trkpt>
      <trkpt lat="44.1316" lon="3.13436">
        <ele>812.4</ele>
        <time>2019-04-19T12:36:18Z</time>
      </trkpt>
      <trkpt lat="44.13163" lon="3.13439">
        <ele>812.3</ele>
        <time>2019-04-19T12:36:20Z</time>
      </trkpt>
      <trkpt lat="44.13169" lon="3.13445">
        <ele>812.2</ele>
        <time>2019-04-19T12:36:22Z</time>
      </trkpt>
      <trkpt lat="44.13172" lon="3.13448">
        <ele>812.2</ele>
        <time>2019-04-19T12:36:24Z</time>
      </trkpt>
      <trkpt lat="44.13176" lon="3.13449">
        <ele>812.2</ele>
        <time>2019-04-19T12:36:26Z</time>
      </trkpt>
      <trkpt lat="44.13182" lon="3.13449">
        <ele>812.3</ele>
        <time>2019-04-19T12:36:28Z</time>
      </trkpt>
      <trkpt lat="44.13186" lon="3.13449">
        <ele>812.3</ele>
        <time>2019-04-19T12:36:29Z</time>
      </trkpt>
      <trkpt lat="44.1319" lon="3.13449">
        <ele>812.4</ele>
        <time>2019-04-19T12:36:30Z</time>
      </trkpt>
      <trkpt lat="44.13194" lon="3.13449">
        <ele>812.4</ele>
        <time>2019-04-19T12:36:31Z</time>
      </trkpt>
      <trkpt lat="44.13198" lon="3.13448">
        <ele>812.5</ele>
        <time>2019-04-19T12:36:32Z</time>
      </trkpt>
      <trkpt lat="44.13201" lon="3.13447">
        <ele>812.5</ele>
        <time>2019-04-19T12:36:33Z</time>
      </trkpt>
      <trkpt lat="44.13203" lon="3.13451">
        <ele>812.6</ele>
        <time>2019-04-19T12:36:40Z</time>
      </trkpt>
      <trkpt lat="44.13203" lon="3.13454">
        <ele>812.6</ele>
        <time>2019-04-19T12:36:45Z</time>
      </trkpt>
      <trkpt lat="44.13209" lon="3.13457">
        <ele>812.7</ele>
        <time>2019-04-19T12:38:38Z</time>
      </trkpt>
      <trkpt lat="44.13212" lon="3.13457">
        <ele>812.8</ele>
        <time>2019-04-19T12:38:41Z</time>
      </trkpt>
      <trkpt lat="44.13214" lon="3.13455">
        <ele>812.9</ele>
        <time>2019-04-19T12:38:43Z</time>
      </trkpt>
      <trkpt lat="44.1322" lon="3.13452">
        <ele>813</ele>
        <time>2019-04-19T12:38:45Z</time>
      </trkpt>
      <trkpt lat="44.13222" lon="3.13452">
        <ele>813.1</ele>
        <time>2019-04-19T12:38:46Z</time>
      </trkpt>
      <trkpt lat="44.13227" lon="3.1345">
        <ele>813.2</ele>
        <time>2019-04-19T12:38:48Z</time>
      </trkpt>
      <trkpt lat="44.13233" lon="3.13451">
        <ele>813.4</ele>
        <time>2019-04-19T12:38:50Z</time>
      </trkpt>
      <trkpt lat="44.13238" lon="3.13453">
        <ele>813.6</ele>
        <time>2019-04-19T12:38:52Z</time>
      </trkpt>
      <trkpt lat="44.1324" lon="3.13453">
        <ele>813.7</ele>
        <time>2019-04-19T12:38:53Z</time>
      </trkpt>
      <trkpt lat="44.13244" lon="3.13452">
        <ele>813.8</ele>
        <time>2019-04-19T12:38:54Z</time>
      </trkpt>
      <trkpt lat="44.13247" lon="3.13451">
        <ele>814.1</ele>
        <time>2019-04-19T12:38:55Z</time>
      </trkpt>
      <trkpt lat="44.13251" lon="3.13449">
        <ele>814.3</ele>
        <time>2019-04-19T12:38:56Z</time>
      </trkpt>
      <trkpt lat="44.13254" lon="3.13448">
        <ele>814.5</ele>
        <time>2019-04-19T12:38:57Z</time>
      </trkpt>
      <trkpt lat="44.13258" lon="3.13447">
        <ele>814.7</ele>
        <time>2019-04-19T12:38:58Z</time>
      </trkpt>
      <trkpt lat="44.13262" lon="3.13447">
        <ele>814.9</ele>
        <time>2019-04-19T12:38:59Z</time>
      </trkpt>
      <trkpt lat="44.13265" lon="3.13446">
        <ele>815.2</ele>
        <time>2019-04-19T12:39:00Z</time>
      </trkpt>
      <trkpt lat="44.13268" lon="3.13446">
        <ele>815.4</ele>
        <time>2019-04-19T12:39:01Z</time>
      </trkpt>
      <trkpt lat="44.13273" lon="3.13445">
        <ele>815.6</ele>
        <time>2019-04-19T12:39:03Z</time>
      </trkpt>
      <trkpt lat="44.13278" lon="3.13443">
        <ele>815.8</ele>
        <time>2019-04-19T12:39:05Z</time>
      </trkpt>
      <trkpt lat="44.13282" lon="3.13443">
        <ele>816</ele>
        <time>2019-04-19T12:39:06Z</time>
      </trkpt>
      <trkpt lat="44.13286" lon="3.13442">
        <ele>816.1</ele>
        <time>2019-04-19T12:39:07Z</time>
      </trkpt>
      <trkpt lat="44.13291" lon="3.13441">
        <ele>816.3</ele>
        <time>2019-04-19T12:39:09Z</time>
      </trkpt>
      <trkpt lat="44.13294" lon="3.13441">
        <ele>816.4</ele>
        <time>2019-04-19T12:39:10Z</time>
      </trkpt>
      <trkpt lat="44.13297" lon="3.1344">
        <ele>816.5</ele>
        <time>2019-04-19T12:39:11Z</time>
      </trkpt>
      <trkpt lat="44.13302" lon="3.13438">
        <ele>816.7</ele>
        <time>2019-04-19T12:39:13Z</time>
      </trkpt>
      <trkpt lat="44.13306" lon="3.13435">
        <ele>816.9</ele>
        <time>2019-04-19T12:39:15Z</time>
      </trkpt>
      <trkpt lat="44.13309" lon="3.13433">
        <ele>817</ele>
        <time>2019-04-19T12:39:16Z</time>
      </trkpt>
      <trkpt lat="44.13312" lon="3.13431">
        <ele>817.2</ele>
        <time>2019-04-19T12:39:17Z</time>
      </trkpt>
      <trkpt lat="44.13315" lon="3.13428">
        <ele>817.5</ele>
        <time>2019-04-19T12:39:18Z</time>
      </trkpt>
      <trkpt lat="44.13318" lon="3.13427">
        <ele>817.7</ele>
        <time>2019-04-19T12:39:19Z</time>
      </trkpt>
      <trkpt lat="44.13321" lon="3.13426">
        <ele>817.8</ele>
        <time>2019-04-19T12:39:20Z</time>
      </trkpt>
      <trkpt lat="44.13325" lon="3.13425">
        <ele>818</ele>
        <time>2019-04-19T12:39:21Z</time>
      </trkpt>
      <trkpt lat="44.13328" lon="3.13424">
        <ele>818.2</ele>
        <time>2019-04-19T12:39:22Z</time>
      </trkpt>
      <trkpt lat="44.13334" lon="3.13425">
        <ele>818.8</ele>
        <time>2019-04-19T12:39:24Z</time>
      </trkpt>
      <trkpt lat="44.13337" lon="3.13426">
        <ele>819</ele>
        <time>2019-04-19T12:39:25Z</time>
      </trkpt>
      <trkpt lat="44.1334" lon="3.13426">
        <ele>819.2</ele>
        <time>2019-04-19T12:39:26Z</time>
      </trkpt>
      <trkpt lat="44.13343" lon="3.13427">
        <ele>819.4</ele>
        <time>2019-04-19T12:39:27Z</time>
      </trkpt>
      <trkpt lat="44.13347" lon="3.13428">
        <ele>819.6</ele>
        <time>2019-04-19T12:39:29Z</time>
      </trkpt>
      <trkpt lat="44.1335" lon="3.13432">
        <ele>819.9</ele>
        <time>2019-04-19T12:39:31Z</time>
      </trkpt>
      <trkpt lat="44.13354" lon="3.13434">
        <ele>820.2</ele>
        <time>2019-04-19T12:39:33Z</time>
      </trkpt>
      <trkpt lat="44.13357" lon="3.13433">
        <ele>820.4</ele>
        <time>2019-04-19T12:39:34Z</time>
      </trkpt>
      <trkpt lat="44.13361" lon="3.13433">
        <ele>820.6</ele>
        <time>2019-04-19T12:39:35Z</time>
      </trkpt>
      <trkpt lat="44.13365" lon="3.13432">
        <ele>820.9</ele>
        <time>2019-04-19T12:39:37Z</time>
      </trkpt>
      <trkpt lat="44.13369" lon="3.13434">
        <ele>821.1</ele>
        <time>2019-04-19T12:39:39Z</time>
      </trkpt>
      <trkpt lat="44.13372" lon="3.13436">
        <ele>821.4</ele>
        <time>2019-04-19T12:39:41Z</time>
      </trkpt>
      <trkpt lat="44.13377" lon="3.13439">
        <ele>821.8</ele>
        <time>2019-04-19T12:39:43Z</time>
      </trkpt>
      <trkpt lat="44.13379" lon="3.13441">
        <ele>822.1</ele>
        <time>2019-04-19T12:39:44Z</time>
      </trkpt>
      <trkpt lat="44.13382" lon="3.13444">
        <ele>822.4</ele>
        <time>2019-04-19T12:39:45Z</time>
      </trkpt>
      <trkpt lat="44.13384" lon="3.13448">
        <ele>822.7</ele>
        <time>2019-04-19T12:39:46Z</time>
      </trkpt>
      <trkpt lat="44.13386" lon="3.13452">
        <ele>823</ele>
        <time>2019-04-19T12:39:47Z</time>
      </trkpt>
      <trkpt lat="44.13388" lon="3.13455">
        <ele>823.3</ele>
        <time>2019-04-19T12:39:48Z</time>
      </trkpt>
      <trkpt lat="44.13391" lon="3.13459">
        <ele>823.6</ele>
        <time>2019-04-19T12:39:49Z</time>
      </trkpt>
      <trkpt lat="44.13393" lon="3.13463">
        <ele>824</ele>
        <time>2019-04-19T12:39:50Z</time>
      </trkpt>
      <trkpt lat="44.13396" lon="3.13466">
        <ele>823.9</ele>
        <time>2019-04-19T12:39:51Z</time>
      </trkpt>
      <trkpt lat="44.134" lon="3.13469">
        <ele>823.7</ele>
        <time>2019-04-19T12:39:52Z</time>
      </trkpt>
      <trkpt lat="44.13404" lon="3.13473">
        <ele>823.4</ele>
        <time>2019-04-19T12:39:53Z</time>
      </trkpt>
      <trkpt lat="44.13408" lon="3.13476">
        <ele>823.2</ele>
        <time>2019-04-19T12:39:54Z</time>
      </trkpt>
      <trkpt lat="44.13412" lon="3.13479">
        <ele>823</ele>
        <time>2019-04-19T12:39:55Z</time>
      </trkpt>
      <trkpt lat="44.13416" lon="3.13481">
        <ele>822.9</ele>
        <time>2019-04-19T12:39:56Z</time>
      </trkpt>
      <trkpt lat="44.13419" lon="3.13483">
        <ele>822.7</ele>
        <time>2019-04-19T12:39:57Z</time>
      </trkpt>
      <trkpt lat="44.13423" lon="3.13486">
        <ele>822.6</ele>
        <time>2019-04-19T12:39:58Z</time>
      </trkpt>
      <trkpt lat="44.13427" lon="3.13488">
        <ele>822.5</ele>
        <time>2019-04-19T12:39:59Z</time>
      </trkpt>
      <trkpt lat="44.13431" lon="3.13491">
        <ele>822.5</ele>
        <time>2019-04-19T12:40:00Z</time>
      </trkpt>
      <trkpt lat="44.13434" lon="3.13493">
        <ele>822.5</ele>
        <time>2019-04-19T12:40:01Z</time>
      </trkpt>
      <trkpt lat="44.13437" lon="3.13494">
        <ele>822.5</ele>
        <time>2019-04-19T12:40:02Z</time>
      </trkpt>
      <trkpt lat="44.1344" lon="3.13496">
        <ele>822.5</ele>
        <time>2019-04-19T12:40:03Z</time>
      </trkpt>
      <trkpt lat="44.13443" lon="3.13498">
        <ele>822.6</ele>
        <time>2019-04-19T12:40:04Z</time>
      </trkpt>
      <trkpt lat="44.13446" lon="3.135">
        <ele>822.7</ele>
        <time>2019-04-19T12:40:05Z</time>
      </trkpt>
      <trkpt lat="44.1345" lon="3.13503">
        <ele>822.8</ele>
        <time>2019-04-19T12:40:06Z</time>
      </trkpt>
      <trkpt lat="44.13454" lon="3.13506">
        <ele>823</ele>
        <time>2019-04-19T12:40:07Z</time>
      </trkpt>
      <trkpt lat="44.13459" lon="3.1351">
        <ele>823.3</ele>
        <time>2019-04-19T12:40:08Z</time>
      </trkpt>
      <trkpt lat="44.13464" lon="3.13513">
        <ele>823.5</ele>
        <time>2019-04-19T12:40:09Z</time>
      </trkpt>
      <trkpt lat="44.13469" lon="3.13515">
        <ele>823.7</ele>
        <time>2019-04-19T12:40:10Z</time>
      </trkpt>
      <trkpt lat="44.13476" lon="3.13517">
        <ele>823.8</ele>
        <time>2019-04-19T12:40:11Z</time>
      </trkpt>
      <trkpt lat="44.13482" lon="3.13518">
        <ele>823.8</ele>
        <time>2019-04-19T12:40:12Z</time>
      </trkpt>
      <trkpt lat="44.13487" lon="3.13518">
        <ele>823.9</ele>
        <time>2019-04-19T12:40:13Z</time>
      </trkpt>
      <trkpt lat="44.13493" lon="3.13517">
        <ele>823.8</ele>
        <time>2019-04-19T12:40:14Z</time>
      </trkpt>
      <trkpt lat="44.13498" lon="3.13516">
        <ele>823.8</ele>
        <time>2019-04-19T12:40:15Z</time>
      </trkpt>
      <trkpt lat="44.13504" lon="3.13515">
        <ele>823.7</ele>
        <time>2019-04-19T12:40:16Z</time>
      </trkpt>
      <trkpt lat="44.13509" lon="3.13514">
        <ele>823.6</ele>
        <time>2019-04-19T12:40:17Z</time>
      </trkpt>
      <trkpt lat="44.13514" lon="3.13513">
        <ele>823.4</ele>
        <time>2019-04-19T12:40:18Z</time>
      </trkpt>
      <trkpt lat="44.13518" lon="3.13514">
        <ele>823.2</ele>
        <time>2019-04-19T12:40:19Z</time>
      </trkpt>
      <trkpt lat="44.13523" lon="3.13515">
        <ele>823</ele>
        <time>2019-04-19T12:40:20Z</time>
      </trkpt>
      <trkpt lat="44.13528" lon="3.13516">
        <ele>822.9</ele>
        <time>2019-04-19T12:40:21Z</time>
      </trkpt>
      <trkpt lat="44.13532" lon="3.13515">
        <ele>822.7</ele>
        <time>2019-04-19T12:40:22Z</time>
      </trkpt>
      <trkpt lat="44.13536" lon="3.13513">
        <ele>822.6</ele>
        <time>2019-04-19T12:40:23Z</time>
      </trkpt>
      <trkpt lat="44.13541" lon="3.13511">
        <ele>822.6</ele>
        <time>2019-04-19T12:40:24Z</time>
      </trkpt>
      <trkpt lat="44.13545" lon="3.13508">
        <ele>822.6</ele>
        <time>2019-04-19T12:40:25Z</time>
      </trkpt>
      <trkpt lat="44.13549" lon="3.13505">
        <ele>822.6</ele>
        <time>2019-04-19T12:40:26Z</time>
      </trkpt>
      <trkpt lat="44.13552" lon="3.13502">
        <ele>822.7</ele>
        <time>2019-04-19T12:40:27Z</time>
      </trkpt>
      <trkpt lat="44.13555" lon="3.13499">
        <ele>822.7</ele>
        <time>2019-04-19T12:40:28Z</time>
      </trkpt>
      <trkpt lat="44.13558" lon="3.13496">
        <ele>822.8</ele>
        <time>2019-04-19T12:40:29Z</time>
      </trkpt>
      <trkpt lat="44.13561" lon="3.13494">
        <ele>822.9</ele>
        <time>2019-04-19T12:40:30Z</time>
      </trkpt>
      <trkpt lat="44.13564" lon="3.13491">
        <ele>822.9</ele>
        <time>2019-04-19T12:40:31Z</time>
      </trkpt>
      <trkpt lat="44.13567" lon="3.13489">
        <ele>823</ele>
        <time>2019-04-19T12:40:32Z</time>
      </trkpt>
      <trkpt lat="44.1357" lon="3.13487">
        <ele>823.1</ele>
        <time>2019-04-19T12:40:33Z</time>
      </trkpt>
      <trkpt lat="44.13573" lon="3.13484">
        <ele>823.3</ele>
        <time>2019-04-19T12:40:34Z</time>
      </trkpt>
      <trkpt lat="44.13576" lon="3.1348">
        <ele>823.4</ele>
        <time>2019-04-19T12:40:35Z</time>
      </trkpt>
      <trkpt lat="44.13579" lon="3.13478">
        <ele>823.5</ele>
        <time>2019-04-19T12:40:36Z</time>
      </trkpt>
      <trkpt lat="44.13582" lon="3.13475">
        <ele>823.6</ele>
        <time>2019-04-19T12:40:37Z</time>
      </trkpt>
      <trkpt lat="44.13585" lon="3.13473">
        <ele>823.7</ele>
        <time>2019-04-19T12:40:38Z</time>
      </trkpt>
      <trkpt lat="44.13588" lon="3.13472">
        <ele>823.8</ele>
        <time>2019-04-19T12:40:39Z</time>
      </trkpt>
      <trkpt lat="44.13591" lon="3.1347">
        <ele>823.9</ele>
        <time>2019-04-19T12:40:40Z</time>
      </trkpt>
      <trkpt lat="44.13594" lon="3.13468">
        <ele>824.1</ele>
        <time>2019-04-19T12:40:41Z</time>
      </trkpt>
      <trkpt lat="44.13597" lon="3.13465">
        <ele>824.3</ele>
        <time>2019-04-19T12:40:42Z</time>
      </trkpt>
      <trkpt lat="44.136" lon="3.13462">
        <ele>824.6</ele>
        <time>2019-04-19T12:40:43Z</time>
      </trkpt>
      <trkpt lat="44.13603" lon="3.13459">
        <ele>824.8</ele>
        <time>2019-04-19T12:40:44Z</time>
      </trkpt>
      <trkpt lat="44.13606" lon="3.13456">
        <ele>825</ele>
        <time>2019-04-19T12:40:45Z</time>
      </trkpt>
      <trkpt lat="44.1361" lon="3.13453">
        <ele>825.2</ele>
        <time>2019-04-19T12:40:46Z</time>
      </trkpt>
      <trkpt lat="44.13613" lon="3.1345">
        <ele>825.5</ele>
        <time>2019-04-19T12:40:47Z</time>
      </trkpt>
      <trkpt lat="44.13617" lon="3.13448">
        <ele>825.8</ele>
        <time>2019-04-19T12:40:48Z</time>
      </trkpt>
      <trkpt lat="44.1362" lon="3.13445">
        <ele>826</ele>
        <time>2019-04-19T12:40:49Z</time>
      </trkpt>
      <trkpt lat="44.13624" lon="3.13443">
        <ele>826.3</ele>
        <time>2019-04-19T12:40:50Z</time>
      </trkpt>
      <trkpt lat="44.13627" lon="3.13441">
        <ele>826.5</ele>
        <time>2019-04-19T12:40:51Z</time>
      </trkpt>
      <trkpt lat="44.1363" lon="3.13439">
        <ele>826.7</ele>
        <time>2019-04-19T12:40:52Z</time>
      </trkpt>
      <trkpt lat="44.13632" lon="3.13436">
        <ele>826.9</ele>
        <time>2019-04-19T12:40:53Z</time>
      </trkpt>
      <trkpt lat="44.13635" lon="3.13433">
        <ele>827.1</ele>
        <time>2019-04-19T12:40:54Z</time>
      </trkpt>
      <trkpt lat="44.13637" lon="3.13431">
        <ele>827.3</ele>
        <time>2019-04-19T12:40:55Z</time>
      </trkpt>
      <trkpt lat="44.13641" lon="3.13428">
        <ele>827.5</ele>
        <time>2019-04-19T12:40:56Z</time>
      </trkpt>
      <trkpt lat="44.13644" lon="3.13427">
        <ele>827.7</ele>
        <time>2019-04-19T12:40:57Z</time>
      </trkpt>
      <trkpt lat="44.13647" lon="3.13425">
        <ele>828</ele>
        <time>2019-04-19T12:40:58Z</time>
      </trkpt>
      <trkpt lat="44.13651" lon="3.13423">
        <ele>828.2</ele>
        <time>2019-04-19T12:40:59Z</time>
      </trkpt>
      <trkpt lat="44.13654" lon="3.13421">
        <ele>828.5</ele>
        <time>2019-04-19T12:41:00Z</time>
      </trkpt>
      <trkpt lat="44.13657" lon="3.13419">
        <ele>828.7</ele>
        <time>2019-04-19T12:41:01Z</time>
      </trkpt>
      <trkpt lat="44.1366" lon="3.13416">
        <ele>828.9</ele>
        <time>2019-04-19T12:41:02Z</time>
      </trkpt>
      <trkpt lat="44.13663" lon="3.13414">
        <ele>829.2</ele>
        <time>2019-04-19T12:41:03Z</time>
      </trkpt>
      <trkpt lat="44.13666" lon="3.13412">
        <ele>829.6</ele>
        <time>2019-04-19T12:41:04Z</time>
      </trkpt>
      <trkpt lat="44.13669" lon="3.1341">
        <ele>829.8</ele>
        <time>2019-04-19T12:41:05Z</time>
      </trkpt>
      <trkpt lat="44.13672" lon="3.13408">
        <ele>830</ele>
        <time>2019-04-19T12:41:06Z</time>
      </trkpt>
      <trkpt lat="44.13676" lon="3.13406">
        <ele>830.1</ele>
        <time>2019-04-19T12:41:07Z</time>
      </trkpt>
      <trkpt lat="44.13679" lon="3.13403">
        <ele>830.3</ele>
        <time>2019-04-19T12:41:08Z</time>
      </trkpt>
      <trkpt lat="44.13682" lon="3.13402">
        <ele>830.5</ele>
        <time>2019-04-19T12:41:09Z</time>
      </trkpt>
      <trkpt lat="44.13685" lon="3.134">
        <ele>830.7</ele>
        <time>2019-04-19T12:41:10Z</time>
      </trkpt>
      <trkpt lat="44.13688" lon="3.13398">
        <ele>830.9</ele>
        <time>2019-04-19T12:41:11Z</time>
      </trkpt>
      <trkpt lat="44.13691" lon="3.13396">
        <ele>831</ele>
        <time>2019-04-19T12:41:12Z</time>
      </trkpt>
      <trkpt lat="44.13693" lon="3.13394">
        <ele>831.2</ele>
        <time>2019-04-19T12:41:13Z</time>
      </trkpt>
      <trkpt lat="44.13696" lon="3.13392">
        <ele>831.4</ele>
        <time>2019-04-19T12:41:14Z</time>
      </trkpt>
      <trkpt lat="44.13701" lon="3.13389">
        <ele>831.7</ele>
        <time>2019-04-19T12:41:16Z</time>
      </trkpt>
      <trkpt lat="44.13704" lon="3.13387">
        <ele>831.9</ele>
        <time>2019-04-19T12:41:17Z</time>
      </trkpt>
      <trkpt lat="44.13707" lon="3.13385">
        <ele>832.1</ele>
        <time>2019-04-19T12:41:18Z</time>
      </trkpt>
      <trkpt lat="44.1371" lon="3.13383">
        <ele>832.4</ele>
        <time>2019-04-19T12:41:19Z</time>
      </trkpt>
      <trkpt lat="44.13712" lon="3.1338">
        <ele>832.6</ele>
        <time>2019-04-19T12:41:20Z</time>
      </trkpt>
      <trkpt lat="44.13715" lon="3.13377">
        <ele>832.8</ele>
        <time>2019-04-19T12:41:21Z</time>
      </trkpt>
      <trkpt lat="44.13717" lon="3.13374">
        <ele>833</ele>
        <time>2019-04-19T12:41:22Z</time>
      </trkpt>
      <trkpt lat="44.1372" lon="3.13372">
        <ele>833.3</ele>
        <time>2019-04-19T12:41:23Z</time>
      </trkpt>
      <trkpt lat="44.13723" lon="3.13369">
        <ele>833.7</ele>
        <time>2019-04-19T12:41:24Z</time>
      </trkpt>
      <trkpt lat="44.13726" lon="3.13367">
        <ele>834</ele>
        <time>2019-04-19T12:41:25Z</time>
      </trkpt>
      <trkpt lat="44.13728" lon="3.13365">
        <ele>834.2</ele>
        <time>2019-04-19T12:41:26Z</time>
      </trkpt>
      <trkpt lat="44.13731" lon="3.13364">
        <ele>834.5</ele>
        <time>2019-04-19T12:41:27Z</time>
      </trkpt>
      <trkpt lat="44.13735" lon="3.13361">
        <ele>834.9</ele>
        <time>2019-04-19T12:41:29Z</time>
      </trkpt>
      <trkpt lat="44.13738" lon="3.13359">
        <ele>835</ele>
        <time>2019-04-19T12:41:30Z</time>
      </trkpt>
      <trkpt lat="44.13741" lon="3.13357">
        <ele>835.2</ele>
        <time>2019-04-19T12:41:31Z</time>
      </trkpt>
      <trkpt lat="44.13743" lon="3.13355">
        <ele>835.4</ele>
        <time>2019-04-19T12:41:32Z</time>
      </trkpt>
      <trkpt lat="44.13746" lon="3.13353">
        <ele>835.5</ele>
        <time>2019-04-19T12:41:33Z</time>
      </trkpt>
      <trkpt lat="44.13751" lon="3.1335">
        <ele>835.9</ele>
        <time>2019-04-19T12:41:35Z</time>
      </trkpt>
      <trkpt lat="44.13753" lon="3.13348">
        <ele>836.1</ele>
        <time>2019-04-19T12:41:36Z</time>
      </trkpt>
      <trkpt lat="44.13756" lon="3.13346">
        <ele>836.3</ele>
        <time>2019-04-19T12:41:37Z</time>
      </trkpt>
      <trkpt lat="44.13759" lon="3.13344">
        <ele>836.5</ele>
        <time>2019-04-19T12:41:38Z</time>
      </trkpt>
      <trkpt lat="44.13761" lon="3.13342">
        <ele>836.7</ele>
        <time>2019-04-19T12:41:39Z</time>
      </trkpt>
      <trkpt lat="44.13764" lon="3.1334">
        <ele>836.9</ele>
        <time>2019-04-19T12:41:40Z</time>
      </trkpt>
      <trkpt lat="44.13768" lon="3.13337">
        <ele>837.2</ele>
        <time>2019-04-19T12:41:42Z</time>
      </trkpt>
      <trkpt lat="44.1377" lon="3.13334">
        <ele>837.4</ele>
        <time>2019-04-19T12:41:43Z</time>
      </trkpt>
      <trkpt lat="44.13775" lon="3.1333">
        <ele>837.7</ele>
        <time>2019-04-19T12:41:45Z</time>
      </trkpt>
      <trkpt lat="44.13777" lon="3.13328">
        <ele>837.8</ele>
        <time>2019-04-19T12:41:46Z</time>
      </trkpt>
      <trkpt lat="44.1378" lon="3.13326">
        <ele>838</ele>
        <time>2019-04-19T12:41:47Z</time>
      </trkpt>
      <trkpt lat="44.13784" lon="3.13323">
        <ele>838.3</ele>
        <time>2019-04-19T12:41:49Z</time>
      </trkpt>
      <trkpt lat="44.13787" lon="3.13321">
        <ele>838.6</ele>
        <time>2019-04-19T12:41:50Z</time>
      </trkpt>
      <trkpt lat="44.1379" lon="3.1332">
        <ele>838.8</ele>
        <time>2019-04-19T12:41:51Z</time>
      </trkpt>
      <trkpt lat="44.13795" lon="3.13316">
        <ele>839.3</ele>
        <time>2019-04-19T12:41:53Z</time>
      </trkpt>
      <trkpt lat="44.13797" lon="3.13315">
        <ele>839.5</ele>
        <time>2019-04-19T12:41:54Z</time>
      </trkpt>
      <trkpt lat="44.13802" lon="3.13311">
        <ele>839.9</ele>
        <time>2019-04-19T12:41:56Z</time>
      </trkpt>
      <trkpt lat="44.13804" lon="3.13308">
        <ele>840.2</ele>
        <time>2019-04-19T12:41:57Z</time>
      </trkpt>
      <trkpt lat="44.13807" lon="3.13306">
        <ele>840.3</ele>
        <time>2019-04-19T12:41:58Z</time>
      </trkpt>
      <trkpt lat="44.13809" lon="3.13303">
        <ele>840.5</ele>
        <time>2019-04-19T12:41:59Z</time>
      </trkpt>
      <trkpt lat="44.13811" lon="3.133">
        <ele>840.6</ele>
        <time>2019-04-19T12:42:00Z</time>
      </trkpt>
      <trkpt lat="44.13814" lon="3.13295">
        <ele>840.9</ele>
        <time>2019-04-19T12:42:02Z</time>
      </trkpt>
      <trkpt lat="44.13818" lon="3.1329">
        <ele>841.2</ele>
        <time>2019-04-19T12:42:04Z</time>
      </trkpt>
      <trkpt lat="44.13821" lon="3.13284">
        <ele>841.5</ele>
        <time>2019-04-19T12:42:06Z</time>
      </trkpt>
      <trkpt lat="44.13823" lon="3.13281">
        <ele>841.7</ele>
        <time>2019-04-19T12:42:07Z</time>
      </trkpt>
      <trkpt lat="44.13824" lon="3.13277">
        <ele>841.8</ele>
        <time>2019-04-19T12:42:08Z</time>
      </trkpt>
      <trkpt lat="44.13826" lon="3.13274">
        <ele>841.9</ele>
        <time>2019-04-19T12:42:09Z</time>
      </trkpt>
      <trkpt lat="44.13827" lon="3.1327">
        <ele>842</ele>
        <time>2019-04-19T12:42:10Z</time>
      </trkpt>
      <trkpt lat="44.13828" lon="3.13266">
        <ele>842.2</ele>
        <time>2019-04-19T12:42:11Z</time>
      </trkpt>
      <trkpt lat="44.13829" lon="3.13262">
        <ele>842.3</ele>
        <time>2019-04-19T12:42:12Z</time>
      </trkpt>
      <trkpt lat="44.1383" lon="3.13258">
        <ele>842.4</ele>
        <time>2019-04-19T12:42:13Z</time>
      </trkpt>
      <trkpt lat="44.13833" lon="3.13251">
        <ele>842.6</ele>
        <time>2019-04-19T12:42:15Z</time>
      </trkpt>
      <trkpt lat="44.13834" lon="3.13248">
        <ele>842.6</ele>
        <time>2019-04-19T12:42:16Z</time>
      </trkpt>
      <trkpt lat="44.13836" lon="3.13241">
        <ele>842.7</ele>
        <time>2019-04-19T12:42:18Z</time>
      </trkpt>
      <trkpt lat="44.13838" lon="3.13237">
        <ele>842.8</ele>
        <time>2019-04-19T12:42:19Z</time>
      </trkpt>
      <trkpt lat="44.13839" lon="3.13233">
        <ele>842.9</ele>
        <time>2019-04-19T12:42:20Z</time>
      </trkpt>
      <trkpt lat="44.1384" lon="3.13229">
        <ele>842.9</ele>
        <time>2019-04-19T12:42:21Z</time>
      </trkpt>
      <trkpt lat="44.13841" lon="3.13223">
        <ele>842.9</ele>
        <time>2019-04-19T12:42:22Z</time>
      </trkpt>
      <trkpt lat="44.13843" lon="3.13219">
        <ele>843</ele>
        <time>2019-04-19T12:42:23Z</time>
      </trkpt>
      <trkpt lat="44.13844" lon="3.13214">
        <ele>843</ele>
        <time>2019-04-19T12:42:24Z</time>
      </trkpt>
      <trkpt lat="44.13845" lon="3.13208">
        <ele>843</ele>
        <time>2019-04-19T12:42:25Z</time>
      </trkpt>
      <trkpt lat="44.13846" lon="3.13203">
        <ele>843</ele>
        <time>2019-04-19T12:42:26Z</time>
      </trkpt>
      <trkpt lat="44.13848" lon="3.13198">
        <ele>843</ele>
        <time>2019-04-19T12:42:27Z</time>
      </trkpt>
      <trkpt lat="44.13849" lon="3.13193">
        <ele>843</ele>
        <time>2019-04-19T12:42:28Z</time>
      </trkpt>
      <trkpt lat="44.1385" lon="3.13187">
        <ele>843</ele>
        <time>2019-04-19T12:42:29Z</time>
      </trkpt>
      <trkpt lat="44.13852" lon="3.13182">
        <ele>842.9</ele>
        <time>2019-04-19T12:42:30Z</time>
      </trkpt>
      <trkpt lat="44.13853" lon="3.13176">
        <ele>842.9</ele>
        <time>2019-04-19T12:42:31Z</time>
      </trkpt>
      <trkpt lat="44.13854" lon="3.1317">
        <ele>842.9</ele>
        <time>2019-04-19T12:42:32Z</time>
      </trkpt>
      <trkpt lat="44.13854" lon="3.13162">
        <ele>842.8</ele>
        <time>2019-04-19T12:42:33Z</time>
      </trkpt>
      <trkpt lat="44.13855" lon="3.13156">
        <ele>842.7</ele>
        <time>2019-04-19T12:42:34Z</time>
      </trkpt>
      <trkpt lat="44.13856" lon="3.13151">
        <ele>842.6</ele>
        <time>2019-04-19T12:42:35Z</time>
      </trkpt>
      <trkpt lat="44.13857" lon="3.13142">
        <ele>842.5</ele>
        <time>2019-04-19T12:42:36Z</time>
      </trkpt>
      <trkpt lat="44.13858" lon="3.13135">
        <ele>842.4</ele>
        <time>2019-04-19T12:42:37Z</time>
      </trkpt>
      <trkpt lat="44.13858" lon="3.13128">
        <ele>842</ele>
        <time>2019-04-19T12:42:38Z</time>
      </trkpt>
      <trkpt lat="44.13858" lon="3.13121">
        <ele>841.7</ele>
        <time>2019-04-19T12:42:39Z</time>
      </trkpt>
      <trkpt lat="44.13859" lon="3.13114">
        <ele>841.4</ele>
        <time>2019-04-19T12:42:40Z</time>
      </trkpt>
      <trkpt lat="44.13859" lon="3.13105">
        <ele>841</ele>
        <time>2019-04-19T12:42:41Z</time>
      </trkpt>
      <trkpt lat="44.13859" lon="3.13097">
        <ele>840.5</ele>
        <time>2019-04-19T12:42:42Z</time>
      </trkpt>
      <trkpt lat="44.13859" lon="3.1309">
        <ele>840.2</ele>
        <time>2019-04-19T12:42:43Z</time>
      </trkpt>
      <trkpt lat="44.13858" lon="3.13079">
        <ele>839.7</ele>
        <time>2019-04-19T12:42:44Z</time>
      </trkpt>
      <trkpt lat="44.13858" lon="3.13069">
        <ele>839.2</ele>
        <time>2019-04-19T12:42:45Z</time>
      </trkpt>
      <trkpt lat="44.13857" lon="3.1306">
        <ele>838.8</ele>
        <time>2019-04-19T12:42:46Z</time>
      </trkpt>
      <trkpt lat="44.13857" lon="3.13051">
        <ele>838.4</ele>
        <time>2019-04-19T12:42:47Z</time>
      </trkpt>
      <trkpt lat="44.13857" lon="3.13041">
        <ele>838.2</ele>
        <time>2019-04-19T12:42:48Z</time>
      </trkpt>
      <trkpt lat="44.13856" lon="3.13032">
        <ele>838</ele>
        <time>2019-04-19T12:42:49Z</time>
      </trkpt>
      <trkpt lat="44.13856" lon="3.13022">
        <ele>837.8</ele>
        <time>2019-04-19T12:42:50Z</time>
      </trkpt>
      <trkpt lat="44.13855" lon="3.13012">
        <ele>837.4</ele>
        <time>2019-04-19T12:42:51Z</time>
      </trkpt>
      <trkpt lat="44.13855" lon="3.13">
        <ele>837.1</ele>
        <time>2019-04-19T12:42:52Z</time>
      </trkpt>
      <trkpt lat="44.13856" lon="3.12988">
        <ele>836.7</ele>
        <time>2019-04-19T12:42:53Z</time>
      </trkpt>
      <trkpt lat="44.13855" lon="3.12977">
        <ele>836.4</ele>
        <time>2019-04-19T12:42:54Z</time>
      </trkpt>
      <trkpt lat="44.13854" lon="3.12966">
        <ele>835.9</ele>
        <time>2019-04-19T12:42:55Z</time>
      </trkpt>
      <trkpt lat="44.13854" lon="3.12954">
        <ele>835.7</ele>
        <time>2019-04-19T12:42:56Z</time>
      </trkpt>
      <trkpt lat="44.13853" lon="3.12943">
        <ele>835.4</ele>
        <time>2019-04-19T12:42:57Z</time>
      </trkpt>
      <trkpt lat="44.13852" lon="3.12933">
        <ele>835.2</ele>
        <time>2019-04-19T12:42:58Z</time>
      </trkpt>
      <trkpt lat="44.13852" lon="3.12922">
        <ele>835.1</ele>
        <time>2019-04-19T12:42:59Z</time>
      </trkpt>
      <trkpt lat="44.13851" lon="3.12912">
        <ele>835</ele>
        <time>2019-04-19T12:43:00Z</time>
      </trkpt>
      <trkpt lat="44.13852" lon="3.12905">
        <ele>835</ele>
        <time>2019-04-19T12:43:01Z</time>
      </trkpt>
      <trkpt lat="44.13854" lon="3.129">
        <ele>834.8</ele>
        <time>2019-04-19T12:43:02Z</time>
      </trkpt>
      <trkpt lat="44.1386" lon="3.12899">
        <ele>834.7</ele>
        <time>2019-04-19T12:43:03Z</time>
      </trkpt>
      <trkpt lat="44.13866" lon="3.12898">
        <ele>834.5</ele>
        <time>2019-04-19T12:43:04Z</time>
      </trkpt>
      <trkpt lat="44.1387" lon="3.12898">
        <ele>834.4</ele>
        <time>2019-04-19T12:43:05Z</time>
      </trkpt>
      <trkpt lat="44.13874" lon="3.12901">
        <ele>834.4</ele>
        <time>2019-04-19T12:43:06Z</time>
      </trkpt>
      <trkpt lat="44.13877" lon="3.12901">
        <ele>834.3</ele>
        <time>2019-04-19T12:43:07Z</time>
      </trkpt>
      <trkpt lat="44.13881" lon="3.12902">
        <ele>834.2</ele>
        <time>2019-04-19T12:43:08Z</time>
      </trkpt>
      <trkpt lat="44.13888" lon="3.12901">
        <ele>833.9</ele>
        <time>2019-04-19T12:43:10Z</time>
      </trkpt>
      <trkpt lat="44.13893" lon="3.129">
        <ele>833.4</ele>
        <time>2019-04-19T12:43:11Z</time>
      </trkpt>
      <trkpt lat="44.13896" lon="3.12901">
        <ele>833.4</ele>
        <time>2019-04-19T12:43:12Z</time>
      </trkpt>
      <trkpt lat="44.13901" lon="3.12904">
        <ele>833</ele>
        <time>2019-04-19T12:43:14Z</time>
      </trkpt>
      <trkpt lat="44.13905" lon="3.12907">
        <ele>833.1</ele>
        <time>2019-04-19T12:43:15Z</time>
      </trkpt>
      <trkpt lat="44.1391" lon="3.12913">
        <ele>833.2</ele>
        <time>2019-04-19T12:43:16Z</time>
      </trkpt>
      <trkpt lat="44.13914" lon="3.12911">
        <ele>833</ele>
        <time>2019-04-19T12:43:17Z</time>
      </trkpt>
      <trkpt lat="44.13917" lon="3.12913">
        <ele>833.2</ele>
        <time>2019-04-19T12:43:18Z</time>
      </trkpt>
      <trkpt lat="44.13923" lon="3.12911">
        <ele>832.5</ele>
        <time>2019-04-19T12:43:19Z</time>
      </trkpt>
      <trkpt lat="44.13928" lon="3.12908">
        <ele>832</ele>
        <time>2019-04-19T12:43:20Z</time>
      </trkpt>
      <trkpt lat="44.13934" lon="3.1291">
        <ele>832.1</ele>
        <time>2019-04-19T12:43:21Z</time>
      </trkpt>
      <trkpt lat="44.13937" lon="3.12915">
        <ele>832.4</ele>
        <time>2019-04-19T12:43:22Z</time>
      </trkpt>
      <trkpt lat="44.13943" lon="3.12914">
        <ele>832.1</ele>
        <time>2019-04-19T12:43:23Z</time>
      </trkpt>
      <trkpt lat="44.13948" lon="3.12912">
        <ele>831.2</ele>
        <time>2019-04-19T12:43:24Z</time>
      </trkpt>
      <trkpt lat="44.13951" lon="3.12911">
        <ele>830.9</ele>
        <time>2019-04-19T12:43:25Z</time>
      </trkpt>
      <trkpt lat="44.13957" lon="3.12912">
        <ele>830.5</ele>
        <time>2019-04-19T12:43:26Z</time>
      </trkpt>
      <trkpt lat="44.13961" lon="3.12911">
        <ele>830.2</ele>
        <time>2019-04-19T12:43:27Z</time>
      </trkpt>
      <trkpt lat="44.13964" lon="3.12914">
        <ele>830.4</ele>
        <time>2019-04-19T12:43:28Z</time>
      </trkpt>
      <trkpt lat="44.13969" lon="3.12917">
        <ele>829.8</ele>
        <time>2019-04-19T12:43:30Z</time>
      </trkpt>
      <trkpt lat="44.13974" lon="3.12921">
        <ele>829.9</ele>
        <time>2019-04-19T12:43:31Z</time>
      </trkpt>
      <trkpt lat="44.13979" lon="3.12923">
        <ele>829.6</ele>
        <time>2019-04-19T12:43:32Z</time>
      </trkpt>
      <trkpt lat="44.13984" lon="3.12922">
        <ele>829.3</ele>
        <time>2019-04-19T12:43:33Z</time>
      </trkpt>
      <trkpt lat="44.13987" lon="3.12923">
        <ele>829</ele>
        <time>2019-04-19T12:43:34Z</time>
      </trkpt>
      <trkpt lat="44.1399" lon="3.12923">
        <ele>828.7</ele>
        <time>2019-04-19T12:43:35Z</time>
      </trkpt>
      <trkpt lat="44.13994" lon="3.12924">
        <ele>828.2</ele>
        <time>2019-04-19T12:43:36Z</time>
      </trkpt>
      <trkpt lat="44.13999" lon="3.12926">
        <ele>827.9</ele>
        <time>2019-04-19T12:43:38Z</time>
      </trkpt>
      <trkpt lat="44.14003" lon="3.12927">
        <ele>828.1</ele>
        <time>2019-04-19T12:43:39Z</time>
      </trkpt>
      <trkpt lat="44.14006" lon="3.12928">
        <ele>827.6</ele>
        <time>2019-04-19T12:43:40Z</time>
      </trkpt>
      <trkpt lat="44.1401" lon="3.12929">
        <ele>827.4</ele>
        <time>2019-04-19T12:43:41Z</time>
      </trkpt>
      <trkpt lat="44.14014" lon="3.1293">
        <ele>827.9</ele>
        <time>2019-04-19T12:43:42Z</time>
      </trkpt>
      <trkpt lat="44.14018" lon="3.12932">
        <ele>827.7</ele>
        <time>2019-04-19T12:43:43Z</time>
      </trkpt>
      <trkpt lat="44.14023" lon="3.12933">
        <ele>827.3</ele>
        <time>2019-04-19T12:43:44Z</time>
      </trkpt>
      <trkpt lat="44.14029" lon="3.12935">
        <ele>827.6</ele>
        <time>2019-04-19T12:43:45Z</time>
      </trkpt>
      <trkpt lat="44.14036" lon="3.12937">
        <ele>827.2</ele>
        <time>2019-04-19T12:43:46Z</time>
      </trkpt>
      <trkpt lat="44.14042" lon="3.12938">
        <ele>826.8</ele>
        <time>2019-04-19T12:43:47Z</time>
      </trkpt>
      <trkpt lat="44.14048" lon="3.1294">
        <ele>826.8</ele>
        <time>2019-04-19T12:43:48Z</time>
      </trkpt>
      <trkpt lat="44.14053" lon="3.12941">
        <ele>826.2</ele>
        <time>2019-04-19T12:43:49Z</time>
      </trkpt>
      <trkpt lat="44.14059" lon="3.12941">
        <ele>825.6</ele>
        <time>2019-04-19T12:43:50Z</time>
      </trkpt>
      <trkpt lat="44.14064" lon="3.12941">
        <ele>825</ele>
        <time>2019-04-19T12:43:51Z</time>
      </trkpt>
      <trkpt lat="44.14068" lon="3.12941">
        <ele>824.8</ele>
        <time>2019-04-19T12:43:52Z</time>
      </trkpt>
      <trkpt lat="44.14072" lon="3.12941">
        <ele>824.6</ele>
        <time>2019-04-19T12:43:53Z</time>
      </trkpt>
      <trkpt lat="44.14075" lon="3.12941">
        <ele>824.4</ele>
        <time>2019-04-19T12:43:54Z</time>
      </trkpt>
      <trkpt lat="44.14078" lon="3.12941">
        <ele>824.3</ele>
        <time>2019-04-19T12:43:55Z</time>
      </trkpt>
      <trkpt lat="44.14083" lon="3.12942">
        <ele>824.1</ele>
        <time>2019-04-19T12:43:56Z</time>
      </trkpt>
      <trkpt lat="44.14086" lon="3.12942">
        <ele>824</ele>
        <time>2019-04-19T12:43:57Z</time>
      </trkpt>
      <trkpt lat="44.14089" lon="3.12942">
        <ele>823.9</ele>
        <time>2019-04-19T12:43:58Z</time>
      </trkpt>
      <trkpt lat="44.14096" lon="3.12943">
        <ele>823.9</ele>
        <time>2019-04-19T12:44:00Z</time>
      </trkpt>
      <trkpt lat="44.141" lon="3.12943">
        <ele>823.9</ele>
        <time>2019-04-19T12:44:01Z</time>
      </trkpt>
      <trkpt lat="44.14105" lon="3.12941">
        <ele>823.9</ele>
        <time>2019-04-19T12:44:02Z</time>
      </trkpt>
      <trkpt lat="44.14108" lon="3.12939">
        <ele>823.9</ele>
        <time>2019-04-19T12:44:03Z</time>
      </trkpt>
      <trkpt lat="44.14112" lon="3.12937">
        <ele>823.5</ele>
        <time>2019-04-19T12:44:04Z</time>
      </trkpt>
      <trkpt lat="44.14115" lon="3.12937">
        <ele>823.5</ele>
        <time>2019-04-19T12:44:05Z</time>
      </trkpt>
      <trkpt lat="44.14117" lon="3.12936">
        <ele>823.5</ele>
        <time>2019-04-19T12:44:06Z</time>
      </trkpt>
      <trkpt lat="44.14121" lon="3.12936">
        <ele>823.5</ele>
        <time>2019-04-19T12:44:07Z</time>
      </trkpt>
      <trkpt lat="44.14124" lon="3.12936">
        <ele>823.6</ele>
        <time>2019-04-19T12:44:08Z</time>
      </trkpt>
      <trkpt lat="44.14129" lon="3.12936">
        <ele>823.6</ele>
        <time>2019-04-19T12:44:09Z</time>
      </trkpt>
      <trkpt lat="44.14133" lon="3.12936">
        <ele>823.7</ele>
        <time>2019-04-19T12:44:10Z</time>
      </trkpt>
      <trkpt lat="44.14138" lon="3.12937">
        <ele>823.8</ele>
        <time>2019-04-19T12:44:11Z</time>
      </trkpt>
      <trkpt lat="44.14142" lon="3.12938">
        <ele>823.8</ele>
        <time>2019-04-19T12:44:12Z</time>
      </trkpt>
      <trkpt lat="44.14145" lon="3.12939">
        <ele>824.4</ele>
        <time>2019-04-19T12:44:13Z</time>
      </trkpt>
      <trkpt lat="44.14149" lon="3.12942">
        <ele>824.4</ele>
        <time>2019-04-19T12:44:15Z</time>
      </trkpt>
      <trkpt lat="44.14154" lon="3.12947">
        <ele>825.6</ele>
        <time>2019-04-19T12:44:17Z</time>
      </trkpt>
      <trkpt lat="44.14158" lon="3.12951">
        <ele>825.6</ele>
        <time>2019-04-19T12:44:18Z</time>
      </trkpt>
      <trkpt lat="44.14162" lon="3.12955">
        <ele>826.2</ele>
        <time>2019-04-19T12:44:19Z</time>
      </trkpt>
      <trkpt lat="44.14166" lon="3.12959">
        <ele>826.7</ele>
        <time>2019-04-19T12:44:20Z</time>
      </trkpt>
      <trkpt lat="44.1417" lon="3.12962">
        <ele>827.3</ele>
        <time>2019-04-19T12:44:21Z</time>
      </trkpt>
      <trkpt lat="44.14173" lon="3.12964">
        <ele>827.3</ele>
        <time>2019-04-19T12:44:22Z</time>
      </trkpt>
      <trkpt lat="44.14176" lon="3.12967">
        <ele>827.8</ele>
        <time>2019-04-19T12:44:23Z</time>
      </trkpt>
      <trkpt lat="44.14181" lon="3.12971">
        <ele>828.4</ele>
        <time>2019-04-19T12:44:24Z</time>
      </trkpt>
      <trkpt lat="44.14185" lon="3.12973">
        <ele>828.4</ele>
        <time>2019-04-19T12:44:25Z</time>
      </trkpt>
      <trkpt lat="44.14189" lon="3.12973">
        <ele>828.9</ele>
        <time>2019-04-19T12:44:26Z</time>
      </trkpt>
      <trkpt lat="44.14193" lon="3.12974">
        <ele>828.8</ele>
        <time>2019-04-19T12:44:27Z</time>
      </trkpt>
      <trkpt lat="44.14197" lon="3.12973">
        <ele>828.7</ele>
        <time>2019-04-19T12:44:28Z</time>
      </trkpt>
      <trkpt lat="44.14201" lon="3.12974">
        <ele>828.5</ele>
        <time>2019-04-19T12:44:29Z</time>
      </trkpt>
      <trkpt lat="44.14206" lon="3.12976">
        <ele>828.2</ele>
        <time>2019-04-19T12:44:30Z</time>
      </trkpt>
      <trkpt lat="44.14211" lon="3.12978">
        <ele>828.6</ele>
        <time>2019-04-19T12:44:31Z</time>
      </trkpt>
      <trkpt lat="44.14216" lon="3.1298">
        <ele>828.2</ele>
        <time>2019-04-19T12:44:32Z</time>
      </trkpt>
      <trkpt lat="44.1422" lon="3.12981">
        <ele>828</ele>
        <time>2019-04-19T12:44:33Z</time>
      </trkpt>
      <trkpt lat="44.14225" lon="3.12982">
        <ele>828.1</ele>
        <time>2019-04-19T12:44:34Z</time>
      </trkpt>
      <trkpt lat="44.14236" lon="3.12982">
        <ele>826.9</ele>
        <time>2019-04-19T12:44:35Z</time>
      </trkpt>
      <trkpt lat="44.14244" lon="3.12981">
        <ele>826</ele>
        <time>2019-04-19T12:44:36Z</time>
      </trkpt>
      <trkpt lat="44.14251" lon="3.12978">
        <ele>825.3</ele>
        <time>2019-04-19T12:44:37Z</time>
      </trkpt>
      <trkpt lat="44.14256" lon="3.12978">
        <ele>824.4</ele>
        <time>2019-04-19T12:44:38Z</time>
      </trkpt>
      <trkpt lat="44.14264" lon="3.12978">
        <ele>823.4</ele>
        <time>2019-04-19T12:44:39Z</time>
      </trkpt>
      <trkpt lat="44.1427" lon="3.12979">
        <ele>822.5</ele>
        <time>2019-04-19T12:44:40Z</time>
      </trkpt>
      <trkpt lat="44.14275" lon="3.12977">
        <ele>821.2</ele>
        <time>2019-04-19T12:44:41Z</time>
      </trkpt>
      <trkpt lat="44.14283" lon="3.12972">
        <ele>818.8</ele>
        <time>2019-04-19T12:44:42Z</time>
      </trkpt>
      <trkpt lat="44.14292" lon="3.12973">
        <ele>817.8</ele>
        <time>2019-04-19T12:44:43Z</time>
      </trkpt>
      <trkpt lat="44.14301" lon="3.12973">
        <ele>816.4</ele>
        <time>2019-04-19T12:44:44Z</time>
      </trkpt>
      <trkpt lat="44.14309" lon="3.12968">
        <ele>814.7</ele>
        <time>2019-04-19T12:44:45Z</time>
      </trkpt>
      <trkpt lat="44.14317" lon="3.12962">
        <ele>813.6</ele>
        <time>2019-04-19T12:44:46Z</time>
      </trkpt>
      <trkpt lat="44.14323" lon="3.12956">
        <ele>812</ele>
        <time>2019-04-19T12:44:47Z</time>
      </trkpt>
      <trkpt lat="44.1433" lon="3.12954">
        <ele>810.7</ele>
        <time>2019-04-19T12:44:48Z</time>
      </trkpt>
      <trkpt lat="44.14335" lon="3.12954">
        <ele>810.1</ele>
        <time>2019-04-19T12:44:49Z</time>
      </trkpt>
      <trkpt lat="44.1434" lon="3.12954">
        <ele>809.1</ele>
        <time>2019-04-19T12:44:50Z</time>
      </trkpt>
      <trkpt lat="44.14344" lon="3.12951">
        <ele>808.3</ele>
        <time>2019-04-19T12:44:51Z</time>
      </trkpt>
      <trkpt lat="44.14351" lon="3.12949">
        <ele>807.3</ele>
        <time>2019-04-19T12:44:52Z</time>
      </trkpt>
      <trkpt lat="44.14356" lon="3.12946">
        <ele>806.1</ele>
        <time>2019-04-19T12:44:53Z</time>
      </trkpt>
      <trkpt lat="44.14363" lon="3.12939">
        <ele>804.8</ele>
        <time>2019-04-19T12:44:54Z</time>
      </trkpt>
      <trkpt lat="44.14369" lon="3.12935">
        <ele>803.6</ele>
        <time>2019-04-19T12:44:55Z</time>
      </trkpt>
      <trkpt lat="44.14375" lon="3.1293">
        <ele>802</ele>
        <time>2019-04-19T12:44:56Z</time>
      </trkpt>
      <trkpt lat="44.14377" lon="3.12934">
        <ele>802</ele>
        <time>2019-04-19T12:44:57Z</time>
      </trkpt>
      <trkpt lat="44.14383" lon="3.1293">
        <ele>800.8</ele>
        <time>2019-04-19T12:44:58Z</time>
      </trkpt>
      <trkpt lat="44.14385" lon="3.12926">
        <ele>800</ele>
        <time>2019-04-19T12:45:01Z</time>
      </trkpt>
      <trkpt lat="44.14389" lon="3.12929">
        <ele>800</ele>
        <time>2019-04-19T12:45:28Z</time>
      </trkpt>
      <trkpt lat="44.1439" lon="3.12934">
        <ele>800.4</ele>
        <time>2019-04-19T12:45:30Z</time>
      </trkpt>
      <trkpt lat="44.14391" lon="3.12938">
        <ele>800.4</ele>
        <time>2019-04-19T12:45:31Z</time>
      </trkpt>
      <trkpt lat="44.14392" lon="3.12943">
        <ele>800.8</ele>
        <time>2019-04-19T12:45:32Z</time>
      </trkpt>
      <trkpt lat="44.14393" lon="3.12947">
        <ele>801.4</ele>
        <time>2019-04-19T12:45:33Z</time>
      </trkpt>
      <trkpt lat="44.14395" lon="3.12953">
        <ele>801.4</ele>
        <time>2019-04-19T12:45:35Z</time>
      </trkpt>
      <trkpt lat="44.14396" lon="3.12957">
        <ele>801.8</ele>
        <time>2019-04-19T12:45:39Z</time>
      </trkpt>
      <trkpt lat="44.14397" lon="3.12964">
        <ele>802.3</ele>
        <time>2019-04-19T12:45:41Z</time>
      </trkpt>
      <trkpt lat="44.14397" lon="3.12968">
        <ele>802.6</ele>
        <time>2019-04-19T12:45:42Z</time>
      </trkpt>
      <trkpt lat="44.14396" lon="3.12972">
        <ele>802.9</ele>
        <time>2019-04-19T12:45:43Z</time>
      </trkpt>
      <trkpt lat="44.14396" lon="3.12976">
        <ele>803.2</ele>
        <time>2019-04-19T12:45:44Z</time>
      </trkpt>
      <trkpt lat="44.14396" lon="3.1298">
        <ele>803.5</ele>
        <time>2019-04-19T12:45:45Z</time>
      </trkpt>
      <trkpt lat="44.14397" lon="3.12984">
        <ele>803.8</ele>
        <time>2019-04-19T12:45:46Z</time>
      </trkpt>
      <trkpt lat="44.14397" lon="3.12988">
        <ele>804.1</ele>
        <time>2019-04-19T12:45:47Z</time>
      </trkpt>
      <trkpt lat="44.14397" lon="3.12993">
        <ele>804.4</ele>
        <time>2019-04-19T12:45:48Z</time>
      </trkpt>
      <trkpt lat="44.14397" lon="3.12997">
        <ele>804.6</ele>
        <time>2019-04-19T12:45:49Z</time>
      </trkpt>
      <trkpt lat="44.14397" lon="3.13001">
        <ele>804.8</ele>
        <time>2019-04-19T12:45:50Z</time>
      </trkpt>
      <trkpt lat="44.14397" lon="3.13005">
        <ele>805</ele>
        <time>2019-04-19T12:45:51Z</time>
      </trkpt>
      <trkpt lat="44.14397" lon="3.1301">
        <ele>805.3</ele>
        <time>2019-04-19T12:45:52Z</time>
      </trkpt>
      <trkpt lat="44.14398" lon="3.13014">
        <ele>805.5</ele>
        <time>2019-04-19T12:45:53Z</time>
      </trkpt>
      <trkpt lat="44.14399" lon="3.13019">
        <ele>805.7</ele>
        <time>2019-04-19T12:45:54Z</time>
      </trkpt>
      <trkpt lat="44.14399" lon="3.13025">
        <ele>805.9</ele>
        <time>2019-04-19T12:45:55Z</time>
      </trkpt>
      <trkpt lat="44.14399" lon="3.1303">
        <ele>806.1</ele>
        <time>2019-04-19T12:45:56Z</time>
      </trkpt>
      <trkpt lat="44.14399" lon="3.13035">
        <ele>806.2</ele>
        <time>2019-04-19T12:45:57Z</time>
      </trkpt>
      <trkpt lat="44.144" lon="3.13041">
        <ele>806.4</ele>
        <time>2019-04-19T12:45:58Z</time>
      </trkpt>
      <trkpt lat="44.14401" lon="3.13048">
        <ele>806.5</ele>
        <time>2019-04-19T12:45:59Z</time>
      </trkpt>
      <trkpt lat="44.14402" lon="3.13054">
        <ele>806.6</ele>
        <time>2019-04-19T12:46:00Z</time>
      </trkpt>
      <trkpt lat="44.14402" lon="3.1306">
        <ele>806.6</ele>
        <time>2019-04-19T12:46:01Z</time>
      </trkpt>
      <trkpt lat="44.14402" lon="3.13065">
        <ele>806.7</ele>
        <time>2019-04-19T12:46:02Z</time>
      </trkpt>
      <trkpt lat="44.14403" lon="3.1307">
        <ele>806.7</ele>
        <time>2019-04-19T12:46:03Z</time>
      </trkpt>
      <trkpt lat="44.14404" lon="3.13075">
        <ele>806.7</ele>
        <time>2019-04-19T12:46:04Z</time>
      </trkpt>
      <trkpt lat="44.14405" lon="3.13082">
        <ele>806.8</ele>
        <time>2019-04-19T12:46:05Z</time>
      </trkpt>
      <trkpt lat="44.14406" lon="3.13088">
        <ele>806.9</ele>
        <time>2019-04-19T12:46:06Z</time>
      </trkpt>
      <trkpt lat="44.14406" lon="3.13092">
        <ele>807</ele>
        <time>2019-04-19T12:46:07Z</time>
      </trkpt>
      <trkpt lat="44.14407" lon="3.13097">
        <ele>807.1</ele>
        <time>2019-04-19T12:46:08Z</time>
      </trkpt>
      <trkpt lat="44.14406" lon="3.13103">
        <ele>807.2</ele>
        <time>2019-04-19T12:46:09Z</time>
      </trkpt>
      <trkpt lat="44.14406" lon="3.13108">
        <ele>807.4</ele>
        <time>2019-04-19T12:46:10Z</time>
      </trkpt>
      <trkpt lat="44.14405" lon="3.13114">
        <ele>807.5</ele>
        <time>2019-04-19T12:46:11Z</time>
      </trkpt>
      <trkpt lat="44.14405" lon="3.13122">
        <ele>807.7</ele>
        <time>2019-04-19T12:46:12Z</time>
      </trkpt>
      <trkpt lat="44.14403" lon="3.13126">
        <ele>807.8</ele>
        <time>2019-04-19T12:46:13Z</time>
      </trkpt>
      <trkpt lat="44.14403" lon="3.13133">
        <ele>808</ele>
        <time>2019-04-19T12:46:14Z</time>
      </trkpt>
      <trkpt lat="44.14402" lon="3.13139">
        <ele>808</ele>
        <time>2019-04-19T12:46:15Z</time>
      </trkpt>
      <trkpt lat="44.14402" lon="3.13146">
        <ele>808</ele>
        <time>2019-04-19T12:46:16Z</time>
      </trkpt>
      <trkpt lat="44.144" lon="3.13153">
        <ele>808</ele>
        <time>2019-04-19T12:46:17Z</time>
      </trkpt>
      <trkpt lat="44.14399" lon="3.13159">
        <ele>807.9</ele>
        <time>2019-04-19T12:46:18Z</time>
      </trkpt>
      <trkpt lat="44.14399" lon="3.13167">
        <ele>807.6</ele>
        <time>2019-04-19T12:46:19Z</time>
      </trkpt>
      <trkpt lat="44.14398" lon="3.13173">
        <ele>807.4</ele>
        <time>2019-04-19T12:46:20Z</time>
      </trkpt>
      <trkpt lat="44.14397" lon="3.1318">
        <ele>807.1</ele>
        <time>2019-04-19T12:46:21Z</time>
      </trkpt>
      <trkpt lat="44.14397" lon="3.13187">
        <ele>806.8</ele>
        <time>2019-04-19T12:46:22Z</time>
      </trkpt>
      <trkpt lat="44.14395" lon="3.13193">
        <ele>806.7</ele>
        <time>2019-04-19T12:46:23Z</time>
      </trkpt>
      <trkpt lat="44.14394" lon="3.13198">
        <ele>806.6</ele>
        <time>2019-04-19T12:46:24Z</time>
      </trkpt>
      <trkpt lat="44.14392" lon="3.13205">
        <ele>806.5</ele>
        <time>2019-04-19T12:46:25Z</time>
      </trkpt>
      <trkpt lat="44.1439" lon="3.1321">
        <ele>806.4</ele>
        <time>2019-04-19T12:46:26Z</time>
      </trkpt>
      <trkpt lat="44.14389" lon="3.13213">
        <ele>806.4</ele>
        <time>2019-04-19T12:46:27Z</time>
      </trkpt>
      <trkpt lat="44.14387" lon="3.13216">
        <ele>806.4</ele>
        <time>2019-04-19T12:46:28Z</time>
      </trkpt>
      <trkpt lat="44.14386" lon="3.13222">
        <ele>806.3</ele>
        <time>2019-04-19T12:46:29Z</time>
      </trkpt>
      <trkpt lat="44.14385" lon="3.13226">
        <ele>806.4</ele>
        <time>2019-04-19T12:46:30Z</time>
      </trkpt>
      <trkpt lat="44.14384" lon="3.13232">
        <ele>806.4</ele>
        <time>2019-04-19T12:46:31Z</time>
      </trkpt>
      <trkpt lat="44.14381" lon="3.1324">
        <ele>806.6</ele>
        <time>2019-04-19T12:46:32Z</time>
      </trkpt>
      <trkpt lat="44.1438" lon="3.13245">
        <ele>806.8</ele>
        <time>2019-04-19T12:46:33Z</time>
      </trkpt>
      <trkpt lat="44.14379" lon="3.13249">
        <ele>806.9</ele>
        <time>2019-04-19T12:46:34Z</time>
      </trkpt>
      <trkpt lat="44.1438" lon="3.13253">
        <ele>807.1</ele>
        <time>2019-04-19T12:46:35Z</time>
      </trkpt>
      <trkpt lat="44.14377" lon="3.13259">
        <ele>807.4</ele>
        <time>2019-04-19T12:46:36Z</time>
      </trkpt>
      <trkpt lat="44.14379" lon="3.13264">
        <ele>807.7</ele>
        <time>2019-04-19T12:46:37Z</time>
      </trkpt>
      <trkpt lat="44.14378" lon="3.13269">
        <ele>807.9</ele>
        <time>2019-04-19T12:46:38Z</time>
      </trkpt>
      <trkpt lat="44.14377" lon="3.13273">
        <ele>808.2</ele>
        <time>2019-04-19T12:46:39Z</time>
      </trkpt>
      <trkpt lat="44.14375" lon="3.13278">
        <ele>808.5</ele>
        <time>2019-04-19T12:46:40Z</time>
      </trkpt>
      <trkpt lat="44.14377" lon="3.13285">
        <ele>808.9</ele>
        <time>2019-04-19T12:46:42Z</time>
      </trkpt>
      <trkpt lat="44.14377" lon="3.13288">
        <ele>809.1</ele>
        <time>2019-04-19T12:46:43Z</time>
      </trkpt>
      <trkpt lat="44.14377" lon="3.13293">
        <ele>809.4</ele>
        <time>2019-04-19T12:46:44Z</time>
      </trkpt>
      <trkpt lat="44.14377" lon="3.13297">
        <ele>809.7</ele>
        <time>2019-04-19T12:46:45Z</time>
      </trkpt>
      <trkpt lat="44.14377" lon="3.13301">
        <ele>810</ele>
        <time>2019-04-19T12:46:46Z</time>
      </trkpt>
      <trkpt lat="44.14377" lon="3.13305">
        <ele>810.2</ele>
        <time>2019-04-19T12:46:47Z</time>
      </trkpt>
      <trkpt lat="44.14378" lon="3.13309">
        <ele>810.4</ele>
        <time>2019-04-19T12:46:48Z</time>
      </trkpt>
      <trkpt lat="44.14378" lon="3.13313">
        <ele>810.6</ele>
        <time>2019-04-19T12:46:49Z</time>
      </trkpt>
      <trkpt lat="44.14379" lon="3.13317">
        <ele>810.9</ele>
        <time>2019-04-19T12:46:50Z</time>
      </trkpt>
      <trkpt lat="44.14379" lon="3.13321">
        <ele>811.1</ele>
        <time>2019-04-19T12:46:51Z</time>
      </trkpt>
      <trkpt lat="44.14378" lon="3.13325">
        <ele>811.4</ele>
        <time>2019-04-19T12:46:52Z</time>
      </trkpt>
      <trkpt lat="44.14378" lon="3.1333">
        <ele>811.6</ele>
        <time>2019-04-19T12:46:53Z</time>
      </trkpt>
      <trkpt lat="44.14378" lon="3.13334">
        <ele>811.9</ele>
        <time>2019-04-19T12:46:54Z</time>
      </trkpt>
      <trkpt lat="44.14379" lon="3.1334">
        <ele>812.2</ele>
        <time>2019-04-19T12:46:56Z</time>
      </trkpt>
      <trkpt lat="44.14379" lon="3.13346">
        <ele>812.6</ele>
        <time>2019-04-19T12:46:58Z</time>
      </trkpt>
      <trkpt lat="44.1438" lon="3.13354">
        <ele>813.1</ele>
        <time>2019-04-19T12:47:00Z</time>
      </trkpt>
      <trkpt lat="44.14381" lon="3.13357">
        <ele>813.3</ele>
        <time>2019-04-19T12:47:01Z</time>
      </trkpt>
      <trkpt lat="44.14382" lon="3.13365">
        <ele>813.8</ele>
        <time>2019-04-19T12:47:03Z</time>
      </trkpt>
      <trkpt lat="44.14381" lon="3.13371">
        <ele>814.1</ele>
        <time>2019-04-19T12:47:05Z</time>
      </trkpt>
      <trkpt lat="44.14379" lon="3.13376">
        <ele>814.3</ele>
        <time>2019-04-19T12:47:07Z</time>
      </trkpt>
      <trkpt lat="44.14378" lon="3.13381">
        <ele>814.6</ele>
        <time>2019-04-19T12:47:09Z</time>
      </trkpt>
      <trkpt lat="44.14379" lon="3.13388">
        <ele>815</ele>
        <time>2019-04-19T12:47:11Z</time>
      </trkpt>
      <trkpt lat="44.14381" lon="3.13391">
        <ele>815.2</ele>
        <time>2019-04-19T12:47:12Z</time>
      </trkpt>
      <trkpt lat="44.14384" lon="3.13397">
        <ele>815.5</ele>
        <time>2019-04-19T12:47:14Z</time>
      </trkpt>
      <trkpt lat="44.14386" lon="3.134">
        <ele>815.6</ele>
        <time>2019-04-19T12:47:15Z</time>
      </trkpt>
      <trkpt lat="44.14388" lon="3.13404">
        <ele>815.8</ele>
        <time>2019-04-19T12:47:16Z</time>
      </trkpt>
      <trkpt lat="44.14391" lon="3.1341">
        <ele>816.1</ele>
        <time>2019-04-19T12:47:18Z</time>
      </trkpt>
      <trkpt lat="44.14392" lon="3.13416">
        <ele>816.3</ele>
        <time>2019-04-19T12:47:20Z</time>
      </trkpt>
      <trkpt lat="44.14392" lon="3.13423">
        <ele>816.6</ele>
        <time>2019-04-19T12:47:22Z</time>
      </trkpt>
      <trkpt lat="44.14392" lon="3.1343">
        <ele>816.7</ele>
        <time>2019-04-19T12:47:24Z</time>
      </trkpt>
      <trkpt lat="44.14392" lon="3.13434">
        <ele>816.8</ele>
        <time>2019-04-19T12:47:25Z</time>
      </trkpt>
      <trkpt lat="44.14392" lon="3.13438">
        <ele>817</ele>
        <time>2019-04-19T12:47:26Z</time>
      </trkpt>
      <trkpt lat="44.14393" lon="3.13442">
        <ele>817</ele>
        <time>2019-04-19T12:47:27Z</time>
      </trkpt>
      <trkpt lat="44.14394" lon="3.13446">
        <ele>817.1</ele>
        <time>2019-04-19T12:47:28Z</time>
      </trkpt>
      <trkpt lat="44.14395" lon="3.13453">
        <ele>817.3</ele>
        <time>2019-04-19T12:47:30Z</time>
      </trkpt>
      <trkpt lat="44.14396" lon="3.13458">
        <ele>817.4</ele>
        <time>2019-04-19T12:47:31Z</time>
      </trkpt>
      <trkpt lat="44.14398" lon="3.13462">
        <ele>817.4</ele>
        <time>2019-04-19T12:47:32Z</time>
      </trkpt>
      <trkpt lat="44.144" lon="3.13466">
        <ele>817.5</ele>
        <time>2019-04-19T12:47:33Z</time>
      </trkpt>
      <trkpt lat="44.14401" lon="3.1347">
        <ele>817.7</ele>
        <time>2019-04-19T12:47:34Z</time>
      </trkpt>
      <trkpt lat="44.14403" lon="3.13477">
        <ele>817.9</ele>
        <time>2019-04-19T12:47:36Z</time>
      </trkpt>
      <trkpt lat="44.14405" lon="3.13482">
        <ele>818.1</ele>
        <time>2019-04-19T12:47:37Z</time>
      </trkpt>
      <trkpt lat="44.14407" lon="3.13487">
        <ele>818.3</ele>
        <time>2019-04-19T12:47:38Z</time>
      </trkpt>
      <trkpt lat="44.14409" lon="3.13491">
        <ele>818.4</ele>
        <time>2019-04-19T12:47:39Z</time>
      </trkpt>
      <trkpt lat="44.1441" lon="3.13495">
        <ele>818.6</ele>
        <time>2019-04-19T12:47:40Z</time>
      </trkpt>
      <trkpt lat="44.14411" lon="3.135">
        <ele>818.8</ele>
        <time>2019-04-19T12:47:41Z</time>
      </trkpt>
      <trkpt lat="44.14413" lon="3.13505">
        <ele>818.9</ele>
        <time>2019-04-19T12:47:42Z</time>
      </trkpt>
      <trkpt lat="44.14414" lon="3.13511">
        <ele>819.1</ele>
        <time>2019-04-19T12:47:43Z</time>
      </trkpt>
      <trkpt lat="44.14415" lon="3.13516">
        <ele>819.2</ele>
        <time>2019-04-19T12:47:44Z</time>
      </trkpt>
      <trkpt lat="44.14416" lon="3.13521">
        <ele>819.4</ele>
        <time>2019-04-19T12:47:45Z</time>
      </trkpt>
      <trkpt lat="44.14418" lon="3.13525">
        <ele>819.5</ele>
        <time>2019-04-19T12:47:46Z</time>
      </trkpt>
      <trkpt lat="44.14419" lon="3.13529">
        <ele>819.6</ele>
        <time>2019-04-19T12:47:47Z</time>
      </trkpt>
      <trkpt lat="44.14421" lon="3.13533">
        <ele>819.6</ele>
        <time>2019-04-19T12:47:48Z</time>
      </trkpt>
      <trkpt lat="44.14422" lon="3.13537">
        <ele>819.7</ele>
        <time>2019-04-19T12:47:49Z</time>
      </trkpt>
      <trkpt lat="44.14424" lon="3.1354">
        <ele>819.8</ele>
        <time>2019-04-19T12:47:50Z</time>
      </trkpt>
      <trkpt lat="44.14425" lon="3.13546">
        <ele>819.9</ele>
        <time>2019-04-19T12:47:52Z</time>
      </trkpt>
      <trkpt lat="44.14427" lon="3.1355">
        <ele>819.9</ele>
        <time>2019-04-19T12:47:54Z</time>
      </trkpt>
      <trkpt lat="44.14429" lon="3.13556">
        <ele>820</ele>
        <time>2019-04-19T12:47:56Z</time>
      </trkpt>
      <trkpt lat="44.14432" lon="3.13562">
        <ele>820.1</ele>
        <time>2019-04-19T12:47:58Z</time>
      </trkpt>
      <trkpt lat="44.14434" lon="3.13565">
        <ele>820.2</ele>
        <time>2019-04-19T12:47:59Z</time>
      </trkpt>
      <trkpt lat="44.14435" lon="3.13569">
        <ele>820.2</ele>
        <time>2019-04-19T12:48:00Z</time>
      </trkpt>
      <trkpt lat="44.14437" lon="3.13572">
        <ele>820.2</ele>
        <time>2019-04-19T12:48:01Z</time>
      </trkpt>
      <trkpt lat="44.14439" lon="3.13577">
        <ele>820.3</ele>
        <time>2019-04-19T12:48:03Z</time>
      </trkpt>
      <trkpt lat="44.14441" lon="3.13582">
        <ele>820.2</ele>
        <time>2019-04-19T12:48:05Z</time>
      </trkpt>
      <trkpt lat="44.14442" lon="3.13586">
        <ele>820.2</ele>
        <time>2019-04-19T12:48:06Z</time>
      </trkpt>
      <trkpt lat="44.14445" lon="3.1359">
        <ele>820.2</ele>
        <time>2019-04-19T12:48:07Z</time>
      </trkpt>
      <trkpt lat="44.14448" lon="3.13595">
        <ele>820.1</ele>
        <time>2019-04-19T12:48:08Z</time>
      </trkpt>
      <trkpt lat="44.14452" lon="3.136">
        <ele>820</ele>
        <time>2019-04-19T12:48:09Z</time>
      </trkpt>
      <trkpt lat="44.14456" lon="3.13606">
        <ele>819.9</ele>
        <time>2019-04-19T12:48:10Z</time>
      </trkpt>
      <trkpt lat="44.1446" lon="3.13611">
        <ele>819.8</ele>
        <time>2019-04-19T12:48:11Z</time>
      </trkpt>
      <trkpt lat="44.14463" lon="3.13616">
        <ele>819.7</ele>
        <time>2019-04-19T12:48:12Z</time>
      </trkpt>
      <trkpt lat="44.1447" lon="3.13626">
        <ele>819.4</ele>
        <time>2019-04-19T12:48:13Z</time>
      </trkpt>
      <trkpt lat="44.14473" lon="3.13631">
        <ele>819.2</ele>
        <time>2019-04-19T12:48:14Z</time>
      </trkpt>
      <trkpt lat="44.14474" lon="3.13636">
        <ele>819.1</ele>
        <time>2019-04-19T12:48:15Z</time>
      </trkpt>
      <trkpt lat="44.14476" lon="3.13642">
        <ele>818.9</ele>
        <time>2019-04-19T12:48:16Z</time>
      </trkpt>
      <trkpt lat="44.14479" lon="3.13647">
        <ele>818.7</ele>
        <time>2019-04-19T12:48:17Z</time>
      </trkpt>
      <trkpt lat="44.14482" lon="3.13652">
        <ele>818.5</ele>
        <time>2019-04-19T12:48:18Z</time>
      </trkpt>
      <trkpt lat="44.14482" lon="3.13659">
        <ele>818.3</ele>
        <time>2019-04-19T12:48:19Z</time>
      </trkpt>
      <trkpt lat="44.14486" lon="3.13667">
        <ele>818.1</ele>
        <time>2019-04-19T12:48:20Z</time>
      </trkpt>
      <trkpt lat="44.14489" lon="3.13673">
        <ele>818.1</ele>
        <time>2019-04-19T12:48:21Z</time>
      </trkpt>
      <trkpt lat="44.1449" lon="3.13679">
        <ele>818</ele>
        <time>2019-04-19T12:48:22Z</time>
      </trkpt>
      <trkpt lat="44.14492" lon="3.13683">
        <ele>818</ele>
        <time>2019-04-19T12:48:23Z</time>
      </trkpt>
      <trkpt lat="44.14492" lon="3.13687">
        <ele>818</ele>
        <time>2019-04-19T12:48:24Z</time>
      </trkpt>
      <trkpt lat="44.14491" lon="3.13692">
        <ele>818</ele>
        <time>2019-04-19T12:48:25Z</time>
      </trkpt>
      <trkpt lat="44.14494" lon="3.13699">
        <ele>818</ele>
        <time>2019-04-19T12:48:26Z</time>
      </trkpt>
      <trkpt lat="44.14494" lon="3.13703">
        <ele>818</ele>
        <time>2019-04-19T12:48:27Z</time>
      </trkpt>
      <trkpt lat="44.14497" lon="3.13708">
        <ele>818</ele>
        <time>2019-04-19T12:48:28Z</time>
      </trkpt>
      <trkpt lat="44.145" lon="3.13718">
        <ele>818</ele>
        <time>2019-04-19T12:48:29Z</time>
      </trkpt>
      <trkpt lat="44.145" lon="3.13724">
        <ele>818</ele>
        <time>2019-04-19T12:48:30Z</time>
      </trkpt>
      <trkpt lat="44.14502" lon="3.13731">
        <ele>818</ele>
        <time>2019-04-19T12:48:31Z</time>
      </trkpt>
      <trkpt lat="44.14506" lon="3.13739">
        <ele>818</ele>
        <time>2019-04-19T12:48:32Z</time>
      </trkpt>
      <trkpt lat="44.14509" lon="3.13749">
        <ele>818</ele>
        <time>2019-04-19T12:48:33Z</time>
      </trkpt>
      <trkpt lat="44.1451" lon="3.13757">
        <ele>817.9</ele>
        <time>2019-04-19T12:48:34Z</time>
      </trkpt>
      <trkpt lat="44.14511" lon="3.13764">
        <ele>817.8</ele>
        <time>2019-04-19T12:48:35Z</time>
      </trkpt>
      <trkpt lat="44.14513" lon="3.1377">
        <ele>817.7</ele>
        <time>2019-04-19T12:48:36Z</time>
      </trkpt>
      <trkpt lat="44.1452" lon="3.13778">
        <ele>817.6</ele>
        <time>2019-04-19T12:48:37Z</time>
      </trkpt>
      <trkpt lat="44.14522" lon="3.13783">
        <ele>817.4</ele>
        <time>2019-04-19T12:48:38Z</time>
      </trkpt>
      <trkpt lat="44.14527" lon="3.13791">
        <ele>817.3</ele>
        <time>2019-04-19T12:48:39Z</time>
      </trkpt>
      <trkpt lat="44.14527" lon="3.138">
        <ele>817.3</ele>
        <time>2019-04-19T12:48:40Z</time>
      </trkpt>
      <trkpt lat="44.14526" lon="3.13805">
        <ele>817.4</ele>
        <time>2019-04-19T12:48:41Z</time>
      </trkpt>
      <trkpt lat="44.14526" lon="3.13811">
        <ele>817.4</ele>
        <time>2019-04-19T12:48:42Z</time>
      </trkpt>
      <trkpt lat="44.14526" lon="3.13817">
        <ele>817.5</ele>
        <time>2019-04-19T12:48:43Z</time>
      </trkpt>
      <trkpt lat="44.14527" lon="3.13822">
        <ele>817.6</ele>
        <time>2019-04-19T12:48:44Z</time>
      </trkpt>
      <trkpt lat="44.14528" lon="3.13828">
        <ele>817.7</ele>
        <time>2019-04-19T12:48:45Z</time>
      </trkpt>
      <trkpt lat="44.14529" lon="3.13834">
        <ele>817.8</ele>
        <time>2019-04-19T12:48:46Z</time>
      </trkpt>
      <trkpt lat="44.1453" lon="3.13839">
        <ele>817.9</ele>
        <time>2019-04-19T12:48:47Z</time>
      </trkpt>
      <trkpt lat="44.14532" lon="3.13845">
        <ele>818</ele>
        <time>2019-04-19T12:48:48Z</time>
      </trkpt>
      <trkpt lat="44.14533" lon="3.1385">
        <ele>818</ele>
        <time>2019-04-19T12:48:49Z</time>
      </trkpt>
      <trkpt lat="44.14534" lon="3.13855">
        <ele>818.1</ele>
        <time>2019-04-19T12:48:50Z</time>
      </trkpt>
      <trkpt lat="44.14537" lon="3.13861">
        <ele>818.2</ele>
        <time>2019-04-19T12:48:51Z</time>
      </trkpt>
      <trkpt lat="44.14541" lon="3.13869">
        <ele>818.3</ele>
        <time>2019-04-19T12:48:52Z</time>
      </trkpt>
      <trkpt lat="44.14543" lon="3.13875">
        <ele>818.3</ele>
        <time>2019-04-19T12:48:53Z</time>
      </trkpt>
      <trkpt lat="44.14547" lon="3.13879">
        <ele>818.4</ele>
        <time>2019-04-19T12:48:54Z</time>
      </trkpt>
      <trkpt lat="44.1455" lon="3.13884">
        <ele>818.4</ele>
        <time>2019-04-19T12:48:55Z</time>
      </trkpt>
      <trkpt lat="44.14552" lon="3.1389">
        <ele>818.4</ele>
        <time>2019-04-19T12:48:56Z</time>
      </trkpt>
      <trkpt lat="44.14552" lon="3.13894">
        <ele>818.4</ele>
        <time>2019-04-19T12:48:57Z</time>
      </trkpt>
      <trkpt lat="44.14555" lon="3.13897">
        <ele>818.5</ele>
        <time>2019-04-19T12:48:58Z</time>
      </trkpt>
      <trkpt lat="44.14557" lon="3.13901">
        <ele>818.5</ele>
        <time>2019-04-19T12:48:59Z</time>
      </trkpt>
      <trkpt lat="44.14561" lon="3.13907">
        <ele>818.5</ele>
        <time>2019-04-19T12:49:00Z</time>
      </trkpt>
      <trkpt lat="44.14563" lon="3.1391">
        <ele>818.5</ele>
        <time>2019-04-19T12:49:01Z</time>
      </trkpt>
      <trkpt lat="44.14567" lon="3.13913">
        <ele>818.6</ele>
        <time>2019-04-19T12:49:02Z</time>
      </trkpt>
      <trkpt lat="44.14573" lon="3.13916">
        <ele>818.6</ele>
        <time>2019-04-19T12:49:03Z</time>
      </trkpt>
      <trkpt lat="44.14578" lon="3.13917">
        <ele>818.6</ele>
        <time>2019-04-19T12:49:04Z</time>
      </trkpt>
      <trkpt lat="44.14583" lon="3.13917">
        <ele>818.6</ele>
        <time>2019-04-19T12:49:05Z</time>
      </trkpt>
      <trkpt lat="44.14587" lon="3.13919">
        <ele>818.7</ele>
        <time>2019-04-19T12:49:06Z</time>
      </trkpt>
      <trkpt lat="44.14591" lon="3.13919">
        <ele>818.7</ele>
        <time>2019-04-19T12:49:07Z</time>
      </trkpt>
      <trkpt lat="44.14595" lon="3.13918">
        <ele>818.7</ele>
        <time>2019-04-19T12:49:08Z</time>
      </trkpt>
      <trkpt lat="44.14598" lon="3.13916">
        <ele>818.7</ele>
        <time>2019-04-19T12:49:09Z</time>
      </trkpt>
      <trkpt lat="44.14602" lon="3.13915">
        <ele>818.8</ele>
        <time>2019-04-19T12:49:10Z</time>
      </trkpt>
      <trkpt lat="44.14605" lon="3.13913">
        <ele>818.8</ele>
        <time>2019-04-19T12:49:11Z</time>
      </trkpt>
      <trkpt lat="44.1461" lon="3.13908">
        <ele>818.9</ele>
        <time>2019-04-19T12:49:12Z</time>
      </trkpt>
      <trkpt lat="44.14615" lon="3.13905">
        <ele>819</ele>
        <time>2019-04-19T12:49:13Z</time>
      </trkpt>
      <trkpt lat="44.14618" lon="3.13903">
        <ele>819</ele>
        <time>2019-04-19T12:49:14Z</time>
      </trkpt>
      <trkpt lat="44.14623" lon="3.13899">
        <ele>819.1</ele>
        <time>2019-04-19T12:49:15Z</time>
      </trkpt>
      <trkpt lat="44.14629" lon="3.13895">
        <ele>819.1</ele>
        <time>2019-04-19T12:49:17Z</time>
      </trkpt>
      <trkpt lat="44.14632" lon="3.13891">
        <ele>819.2</ele>
        <time>2019-04-19T12:49:18Z</time>
      </trkpt>
      <trkpt lat="44.14635" lon="3.13888">
        <ele>819.3</ele>
        <time>2019-04-19T12:49:19Z</time>
      </trkpt>
      <trkpt lat="44.14638" lon="3.1389">
        <ele>819.3</ele>
        <time>2019-04-19T12:49:20Z</time>
      </trkpt>
      <trkpt lat="44.14641" lon="3.13887">
        <ele>819.3</ele>
        <time>2019-04-19T12:49:21Z</time>
      </trkpt>
      <trkpt lat="44.14645" lon="3.13884">
        <ele>819.4</ele>
        <time>2019-04-19T12:49:22Z</time>
      </trkpt>
      <trkpt lat="44.1465" lon="3.13882">
        <ele>819.5</ele>
        <time>2019-04-19T12:49:24Z</time>
      </trkpt>
      <trkpt lat="44.14653" lon="3.13881">
        <ele>819.5</ele>
        <time>2019-04-19T12:49:25Z</time>
      </trkpt>
      <trkpt lat="44.14657" lon="3.13875">
        <ele>819.6</ele>
        <time>2019-04-19T12:49:26Z</time>
      </trkpt>
      <trkpt lat="44.14661" lon="3.1387">
        <ele>819.7</ele>
        <time>2019-04-19T12:49:27Z</time>
      </trkpt>
      <trkpt lat="44.14666" lon="3.13864">
        <ele>819.8</ele>
        <time>2019-04-19T12:49:29Z</time>
      </trkpt>
      <trkpt lat="44.14671" lon="3.1386">
        <ele>819.9</ele>
        <time>2019-04-19T12:49:30Z</time>
      </trkpt>
      <trkpt lat="44.14674" lon="3.13855">
        <ele>820.1</ele>
        <time>2019-04-19T12:49:31Z</time>
      </trkpt>
      <trkpt lat="44.14677" lon="3.13853">
        <ele>820.2</ele>
        <time>2019-04-19T12:49:32Z</time>
      </trkpt>
      <trkpt lat="44.14681" lon="3.13848">
        <ele>820.3</ele>
        <time>2019-04-19T12:49:33Z</time>
      </trkpt>
      <trkpt lat="44.14685" lon="3.13846">
        <ele>820.4</ele>
        <time>2019-04-19T12:49:34Z</time>
      </trkpt>
      <trkpt lat="44.14688" lon="3.13839">
        <ele>820.6</ele>
        <time>2019-04-19T12:49:35Z</time>
      </trkpt>
      <trkpt lat="44.14693" lon="3.13834">
        <ele>820.7</ele>
        <time>2019-04-19T12:49:36Z</time>
      </trkpt>
      <trkpt lat="44.14698" lon="3.1383">
        <ele>820.9</ele>
        <time>2019-04-19T12:49:37Z</time>
      </trkpt>
      <trkpt lat="44.14702" lon="3.13827">
        <ele>821</ele>
        <time>2019-04-19T12:49:38Z</time>
      </trkpt>
      <trkpt lat="44.14706" lon="3.13823">
        <ele>821.1</ele>
        <time>2019-04-19T12:49:39Z</time>
      </trkpt>
      <trkpt lat="44.14709" lon="3.1382">
        <ele>821.2</ele>
        <time>2019-04-19T12:49:40Z</time>
      </trkpt>
      <trkpt lat="44.14713" lon="3.13814">
        <ele>821.4</ele>
        <time>2019-04-19T12:49:41Z</time>
      </trkpt>
      <trkpt lat="44.14716" lon="3.13811">
        <ele>821.4</ele>
        <time>2019-04-19T12:49:42Z</time>
      </trkpt>
      <trkpt lat="44.1472" lon="3.13809">
        <ele>821.5</ele>
        <time>2019-04-19T12:49:43Z</time>
      </trkpt>
      <trkpt lat="44.14723" lon="3.13804">
        <ele>821.5</ele>
        <time>2019-04-19T12:49:44Z</time>
      </trkpt>
      <trkpt lat="44.14727" lon="3.13804">
        <ele>821.5</ele>
        <time>2019-04-19T12:49:45Z</time>
      </trkpt>
      <trkpt lat="44.14729" lon="3.13809">
        <ele>821.5</ele>
        <time>2019-04-19T12:49:46Z</time>
      </trkpt>
      <trkpt lat="44.14733" lon="3.13809">
        <ele>821.5</ele>
        <time>2019-04-19T12:49:47Z</time>
      </trkpt>
      <trkpt lat="44.14738" lon="3.1381">
        <ele>821.5</ele>
        <time>2019-04-19T12:49:49Z</time>
      </trkpt>
      <trkpt lat="44.14742" lon="3.13808">
        <ele>821.5</ele>
        <time>2019-04-19T12:49:50Z</time>
      </trkpt>
      <trkpt lat="44.14746" lon="3.13809">
        <ele>821.5</ele>
        <time>2019-04-19T12:49:51Z</time>
      </trkpt>
      <trkpt lat="44.14749" lon="3.13807">
        <ele>821.5</ele>
        <time>2019-04-19T12:49:52Z</time>
      </trkpt>
      <trkpt lat="44.14754" lon="3.13808">
        <ele>821.6</ele>
        <time>2019-04-19T12:49:53Z</time>
      </trkpt>
      <trkpt lat="44.1476" lon="3.13797">
        <ele>821.6</ele>
        <time>2019-04-19T12:49:54Z</time>
      </trkpt>
      <trkpt lat="44.14765" lon="3.13794">
        <ele>821.7</ele>
        <time>2019-04-19T12:49:55Z</time>
      </trkpt>
      <trkpt lat="44.14772" lon="3.13789">
        <ele>821.8</ele>
        <time>2019-04-19T12:49:56Z</time>
      </trkpt>
      <trkpt lat="44.14778" lon="3.13789">
        <ele>821.8</ele>
        <time>2019-04-19T12:49:57Z</time>
      </trkpt>
      <trkpt lat="44.14782" lon="3.13789">
        <ele>821.9</ele>
        <time>2019-04-19T12:49:58Z</time>
      </trkpt>
      <trkpt lat="44.14788" lon="3.13788">
        <ele>822</ele>
        <time>2019-04-19T12:49:59Z</time>
      </trkpt>
      <trkpt lat="44.14791" lon="3.13786">
        <ele>822.1</ele>
        <time>2019-04-19T12:50:00Z</time>
      </trkpt>
      <trkpt lat="44.14796" lon="3.13778">
        <ele>822.3</ele>
        <time>2019-04-19T12:50:01Z</time>
      </trkpt>
      <trkpt lat="44.148" lon="3.13777">
        <ele>822.5</ele>
        <time>2019-04-19T12:50:02Z</time>
      </trkpt>
      <trkpt lat="44.14806" lon="3.1377">
        <ele>822.7</ele>
        <time>2019-04-19T12:50:03Z</time>
      </trkpt>
      <trkpt lat="44.14811" lon="3.13766">
        <ele>822.9</ele>
        <time>2019-04-19T12:50:04Z</time>
      </trkpt>
      <trkpt lat="44.14817" lon="3.13766">
        <ele>823</ele>
        <time>2019-04-19T12:50:06Z</time>
      </trkpt>
      <trkpt lat="44.1482" lon="3.13763">
        <ele>823.2</ele>
        <time>2019-04-19T12:50:07Z</time>
      </trkpt>
      <trkpt lat="44.14823" lon="3.13759">
        <ele>823.4</ele>
        <time>2019-04-19T12:50:08Z</time>
      </trkpt>
      <trkpt lat="44.14828" lon="3.13755">
        <ele>823.7</ele>
        <time>2019-04-19T12:50:10Z</time>
      </trkpt>
      <trkpt lat="44.14831" lon="3.13751">
        <ele>824</ele>
        <time>2019-04-19T12:50:11Z</time>
      </trkpt>
      <trkpt lat="44.14832" lon="3.13748">
        <ele>824.1</ele>
        <time>2019-04-19T12:50:12Z</time>
      </trkpt>
      <trkpt lat="44.14838" lon="3.13734">
        <ele>824.5</ele>
        <time>2019-04-19T12:50:14Z</time>
      </trkpt>
      <trkpt lat="44.1484" lon="3.13726">
        <ele>824.7</ele>
        <time>2019-04-19T12:50:16Z</time>
      </trkpt>
      <trkpt lat="44.14841" lon="3.13721">
        <ele>824.9</ele>
        <time>2019-04-19T12:50:18Z</time>
      </trkpt>
      <trkpt lat="44.14842" lon="3.13717">
        <ele>825</ele>
        <time>2019-04-19T12:50:19Z</time>
      </trkpt>
      <trkpt lat="44.14842" lon="3.13713">
        <ele>825.1</ele>
        <time>2019-04-19T12:50:20Z</time>
      </trkpt>
      <trkpt lat="44.14843" lon="3.13708">
        <ele>825.2</ele>
        <time>2019-04-19T12:50:21Z</time>
      </trkpt>
      <trkpt lat="44.14843" lon="3.13704">
        <ele>825.4</ele>
        <time>2019-04-19T12:50:22Z</time>
      </trkpt>
      <trkpt lat="44.14844" lon="3.13696">
        <ele>825.7</ele>
        <time>2019-04-19T12:50:24Z</time>
      </trkpt>
      <trkpt lat="44.14845" lon="3.13692">
        <ele>825.8</ele>
        <time>2019-04-19T12:50:25Z</time>
      </trkpt>
      <trkpt lat="44.14846" lon="3.13688">
        <ele>826</ele>
        <time>2019-04-19T12:50:26Z</time>
      </trkpt>
      <trkpt lat="44.14847" lon="3.13684">
        <ele>826.1</ele>
        <time>2019-04-19T12:50:27Z</time>
      </trkpt>
      <trkpt lat="44.14849" lon="3.1368">
        <ele>826.3</ele>
        <time>2019-04-19T12:50:28Z</time>
      </trkpt>
      <trkpt lat="44.14853" lon="3.13675">
        <ele>826.5</ele>
        <time>2019-04-19T12:50:30Z</time>
      </trkpt>
      <trkpt lat="44.14856" lon="3.13672">
        <ele>826.6</ele>
        <time>2019-04-19T12:50:31Z</time>
      </trkpt>
      <trkpt lat="44.14858" lon="3.1367">
        <ele>826.7</ele>
        <time>2019-04-19T12:50:32Z</time>
      </trkpt>
      <trkpt lat="44.1486" lon="3.13667">
        <ele>826.8</ele>
        <time>2019-04-19T12:50:33Z</time>
      </trkpt>
      <trkpt lat="44.14864" lon="3.13662">
        <ele>827</ele>
        <time>2019-04-19T12:50:35Z</time>
      </trkpt>
      <trkpt lat="44.14866" lon="3.13659">
        <ele>827.1</ele>
        <time>2019-04-19T12:50:36Z</time>
      </trkpt>
      <trkpt lat="44.14868" lon="3.13656">
        <ele>827.2</ele>
        <time>2019-04-19T12:50:37Z</time>
      </trkpt>
      <trkpt lat="44.1487" lon="3.13652">
        <ele>827.3</ele>
        <time>2019-04-19T12:50:38Z</time>
      </trkpt>
      <trkpt lat="44.14872" lon="3.13649">
        <ele>827.3</ele>
        <time>2019-04-19T12:50:39Z</time>
      </trkpt>
      <trkpt lat="44.14875" lon="3.13645">
        <ele>827.4</ele>
        <time>2019-04-19T12:50:40Z</time>
      </trkpt>
      <trkpt lat="44.14876" lon="3.13641">
        <ele>827.4</ele>
        <time>2019-04-19T12:50:41Z</time>
      </trkpt>
      <trkpt lat="44.14878" lon="3.13637">
        <ele>827</ele>
        <time>2019-04-19T12:50:42Z</time>
      </trkpt>
      <trkpt lat="44.1488" lon="3.13632">
        <ele>826.7</ele>
        <time>2019-04-19T12:50:43Z</time>
      </trkpt>
      <trkpt lat="44.14882" lon="3.13627">
        <ele>826.4</ele>
        <time>2019-04-19T12:50:44Z</time>
      </trkpt>
      <trkpt lat="44.14886" lon="3.13621">
        <ele>826.1</ele>
        <time>2019-04-19T12:50:45Z</time>
      </trkpt>
      <trkpt lat="44.14889" lon="3.13614">
        <ele>825.8</ele>
        <time>2019-04-19T12:50:46Z</time>
      </trkpt>
      <trkpt lat="44.14891" lon="3.13608">
        <ele>825.5</ele>
        <time>2019-04-19T12:50:47Z</time>
      </trkpt>
      <trkpt lat="44.14893" lon="3.13601">
        <ele>825.3</ele>
        <time>2019-04-19T12:50:48Z</time>
      </trkpt>
      <trkpt lat="44.14895" lon="3.13594">
        <ele>825.2</ele>
        <time>2019-04-19T12:50:49Z</time>
      </trkpt>
      <trkpt lat="44.14897" lon="3.13588">
        <ele>825</ele>
        <time>2019-04-19T12:50:50Z</time>
      </trkpt>
      <trkpt lat="44.14897" lon="3.1358">
        <ele>824.9</ele>
        <time>2019-04-19T12:50:51Z</time>
      </trkpt>
      <trkpt lat="44.14902" lon="3.13572">
        <ele>824.7</ele>
        <time>2019-04-19T12:50:53Z</time>
      </trkpt>
      <trkpt lat="44.14904" lon="3.13566">
        <ele>824.6</ele>
        <time>2019-04-19T12:50:54Z</time>
      </trkpt>
      <trkpt lat="44.14905" lon="3.1356">
        <ele>824.5</ele>
        <time>2019-04-19T12:50:55Z</time>
      </trkpt>
      <trkpt lat="44.14908" lon="3.13553">
        <ele>824.5</ele>
        <time>2019-04-19T12:50:56Z</time>
      </trkpt>
      <trkpt lat="44.1491" lon="3.13549">
        <ele>824.4</ele>
        <time>2019-04-19T12:50:57Z</time>
      </trkpt>
      <trkpt lat="44.14911" lon="3.13543">
        <ele>824.4</ele>
        <time>2019-04-19T12:50:58Z</time>
      </trkpt>
      <trkpt lat="44.14913" lon="3.13535">
        <ele>824.3</ele>
        <time>2019-04-19T12:50:59Z</time>
      </trkpt>
      <trkpt lat="44.14912" lon="3.13529">
        <ele>824.3</ele>
        <time>2019-04-19T12:51:00Z</time>
      </trkpt>
      <trkpt lat="44.14914" lon="3.13524">
        <ele>824.2</ele>
        <time>2019-04-19T12:51:01Z</time>
      </trkpt>
      <trkpt lat="44.14922" lon="3.1352">
        <ele>824.1</ele>
        <time>2019-04-19T12:51:02Z</time>
      </trkpt>
      <trkpt lat="44.14929" lon="3.1351">
        <ele>823.9</ele>
        <time>2019-04-19T12:51:03Z</time>
      </trkpt>
      <trkpt lat="44.14933" lon="3.13504">
        <ele>823.7</ele>
        <time>2019-04-19T12:51:04Z</time>
      </trkpt>
      <trkpt lat="44.14936" lon="3.13495">
        <ele>823.5</ele>
        <time>2019-04-19T12:51:05Z</time>
      </trkpt>
      <trkpt lat="44.14939" lon="3.13488">
        <ele>823.4</ele>
        <time>2019-04-19T12:51:06Z</time>
      </trkpt>
      <trkpt lat="44.14941" lon="3.13478">
        <ele>823.2</ele>
        <time>2019-04-19T12:51:07Z</time>
      </trkpt>
      <trkpt lat="44.14945" lon="3.13469">
        <ele>822.9</ele>
        <time>2019-04-19T12:51:08Z</time>
      </trkpt>
      <trkpt lat="44.14947" lon="3.13462">
        <ele>822.8</ele>
        <time>2019-04-19T12:51:09Z</time>
      </trkpt>
      <trkpt lat="44.1495" lon="3.13454">
        <ele>822.6</ele>
        <time>2019-04-19T12:51:10Z</time>
      </trkpt>
      <trkpt lat="44.14952" lon="3.13445">
        <ele>822.4</ele>
        <time>2019-04-19T12:51:11Z</time>
      </trkpt>
      <trkpt lat="44.14953" lon="3.13438">
        <ele>822.3</ele>
        <time>2019-04-19T12:51:12Z</time>
      </trkpt>
      <trkpt lat="44.14955" lon="3.13429">
        <ele>822.1</ele>
        <time>2019-04-19T12:51:13Z</time>
      </trkpt>
      <trkpt lat="44.14956" lon="3.13422">
        <ele>821.9</ele>
        <time>2019-04-19T12:51:14Z</time>
      </trkpt>
      <trkpt lat="44.14961" lon="3.13414">
        <ele>821.7</ele>
        <time>2019-04-19T12:51:15Z</time>
      </trkpt>
      <trkpt lat="44.14963" lon="3.13405">
        <ele>821.5</ele>
        <time>2019-04-19T12:51:16Z</time>
      </trkpt>
      <trkpt lat="44.14965" lon="3.13395">
        <ele>821.3</ele>
        <time>2019-04-19T12:51:17Z</time>
      </trkpt>
      <trkpt lat="44.14967" lon="3.13384">
        <ele>821.2</ele>
        <time>2019-04-19T12:51:18Z</time>
      </trkpt>
      <trkpt lat="44.14968" lon="3.13376">
        <ele>821</ele>
        <time>2019-04-19T12:51:19Z</time>
      </trkpt>
      <trkpt lat="44.14969" lon="3.13367">
        <ele>820.9</ele>
        <time>2019-04-19T12:51:20Z</time>
      </trkpt>
      <trkpt lat="44.1497" lon="3.13357">
        <ele>820.7</ele>
        <time>2019-04-19T12:51:21Z</time>
      </trkpt>
      <trkpt lat="44.1497" lon="3.13347">
        <ele>820.6</ele>
        <time>2019-04-19T12:51:22Z</time>
      </trkpt>
      <trkpt lat="44.14971" lon="3.13336">
        <ele>820.5</ele>
        <time>2019-04-19T12:51:23Z</time>
      </trkpt>
      <trkpt lat="44.14971" lon="3.13327">
        <ele>820.3</ele>
        <time>2019-04-19T12:51:24Z</time>
      </trkpt>
      <trkpt lat="44.14973" lon="3.13317">
        <ele>820.2</ele>
        <time>2019-04-19T12:51:25Z</time>
      </trkpt>
      <trkpt lat="44.14971" lon="3.13306">
        <ele>820.1</ele>
        <time>2019-04-19T12:51:26Z</time>
      </trkpt>
      <trkpt lat="44.14974" lon="3.13298">
        <ele>820</ele>
        <time>2019-04-19T12:51:27Z</time>
      </trkpt>
      <trkpt lat="44.14972" lon="3.13287">
        <ele>819.9</ele>
        <time>2019-04-19T12:51:28Z</time>
      </trkpt>
      <trkpt lat="44.14974" lon="3.13278">
        <ele>819.9</ele>
        <time>2019-04-19T12:51:29Z</time>
      </trkpt>
      <trkpt lat="44.14972" lon="3.13269">
        <ele>819.8</ele>
        <time>2019-04-19T12:51:30Z</time>
      </trkpt>
      <trkpt lat="44.14961" lon="3.1326">
        <ele>819.7</ele>
        <time>2019-04-19T12:51:31Z</time>
      </trkpt>
      <trkpt lat="44.14958" lon="3.13252">
        <ele>819.7</ele>
        <time>2019-04-19T12:51:32Z</time>
      </trkpt>
      <trkpt lat="44.14957" lon="3.13243">
        <ele>819.7</ele>
        <time>2019-04-19T12:51:33Z</time>
      </trkpt>
      <trkpt lat="44.14955" lon="3.13234">
        <ele>819.6</ele>
        <time>2019-04-19T12:51:34Z</time>
      </trkpt>
      <trkpt lat="44.14958" lon="3.13226">
        <ele>819.6</ele>
        <time>2019-04-19T12:51:35Z</time>
      </trkpt>
      <trkpt lat="44.14958" lon="3.13218">
        <ele>819.6</ele>
        <time>2019-04-19T12:51:36Z</time>
      </trkpt>
      <trkpt lat="44.14956" lon="3.1321">
        <ele>819.6</ele>
        <time>2019-04-19T12:51:37Z</time>
      </trkpt>
      <trkpt lat="44.14956" lon="3.132">
        <ele>819.6</ele>
        <time>2019-04-19T12:51:38Z</time>
      </trkpt>
      <trkpt lat="44.14955" lon="3.13192">
        <ele>819.6</ele>
        <time>2019-04-19T12:51:39Z</time>
      </trkpt>
      <trkpt lat="44.14953" lon="3.13184">
        <ele>819.5</ele>
        <time>2019-04-19T12:51:40Z</time>
      </trkpt>
      <trkpt lat="44.14954" lon="3.13177">
        <ele>819.5</ele>
        <time>2019-04-19T12:51:41Z</time>
      </trkpt>
      <trkpt lat="44.1495" lon="3.13169">
        <ele>819.4</ele>
        <time>2019-04-19T12:51:42Z</time>
      </trkpt>
      <trkpt lat="44.14946" lon="3.13162">
        <ele>819.3</ele>
        <time>2019-04-19T12:51:43Z</time>
      </trkpt>
      <trkpt lat="44.14944" lon="3.13155">
        <ele>819.2</ele>
        <time>2019-04-19T12:51:44Z</time>
      </trkpt>
      <trkpt lat="44.14939" lon="3.13147">
        <ele>819.1</ele>
        <time>2019-04-19T12:51:45Z</time>
      </trkpt>
      <trkpt lat="44.14937" lon="3.13141">
        <ele>819</ele>
        <time>2019-04-19T12:51:46Z</time>
      </trkpt>
      <trkpt lat="44.14934" lon="3.13133">
        <ele>818.8</ele>
        <time>2019-04-19T12:51:47Z</time>
      </trkpt>
      <trkpt lat="44.14937" lon="3.13126">
        <ele>818.7</ele>
        <time>2019-04-19T12:51:48Z</time>
      </trkpt>
      <trkpt lat="44.14936" lon="3.13119">
        <ele>818.5</ele>
        <time>2019-04-19T12:51:49Z</time>
      </trkpt>
      <trkpt lat="44.14934" lon="3.1311">
        <ele>818</ele>
        <time>2019-04-19T12:51:50Z</time>
      </trkpt>
      <trkpt lat="44.14933" lon="3.13102">
        <ele>817.5</ele>
        <time>2019-04-19T12:51:51Z</time>
      </trkpt>
      <trkpt lat="44.14937" lon="3.13097">
        <ele>817.1</ele>
        <time>2019-04-19T12:51:52Z</time>
      </trkpt>
      <trkpt lat="44.14941" lon="3.13089">
        <ele>816.6</ele>
        <time>2019-04-19T12:51:53Z</time>
      </trkpt>
      <trkpt lat="44.14945" lon="3.13083">
        <ele>816.3</ele>
        <time>2019-04-19T12:51:54Z</time>
      </trkpt>
      <trkpt lat="44.14949" lon="3.13074">
        <ele>815.9</ele>
        <time>2019-04-19T12:51:55Z</time>
      </trkpt>
      <trkpt lat="44.14952" lon="3.13066">
        <ele>815.5</ele>
        <time>2019-04-19T12:51:56Z</time>
      </trkpt>
      <trkpt lat="44.14957" lon="3.13055">
        <ele>815.2</ele>
        <time>2019-04-19T12:51:57Z</time>
      </trkpt>
      <trkpt lat="44.14961" lon="3.13044">
        <ele>814.9</ele>
        <time>2019-04-19T12:51:58Z</time>
      </trkpt>
      <trkpt lat="44.14964" lon="3.13035">
        <ele>814.8</ele>
        <time>2019-04-19T12:51:59Z</time>
      </trkpt>
      <trkpt lat="44.14966" lon="3.13028">
        <ele>814.7</ele>
        <time>2019-04-19T12:52:00Z</time>
      </trkpt>
      <trkpt lat="44.14969" lon="3.13023">
        <ele>814.7</ele>
        <time>2019-04-19T12:52:01Z</time>
      </trkpt>
      <trkpt lat="44.14971" lon="3.13018">
        <ele>814.7</ele>
        <time>2019-04-19T12:52:02Z</time>
      </trkpt>
      <trkpt lat="44.14971" lon="3.13014">
        <ele>814.7</ele>
        <time>2019-04-19T12:52:03Z</time>
      </trkpt>
      <trkpt lat="44.14975" lon="3.13008">
        <ele>814.7</ele>
        <time>2019-04-19T12:52:04Z</time>
      </trkpt>
      <trkpt lat="44.14977" lon="3.13002">
        <ele>814.8</ele>
        <time>2019-04-19T12:52:05Z</time>
      </trkpt>
      <trkpt lat="44.14978" lon="3.12999">
        <ele>814.8</ele>
        <time>2019-04-19T12:52:06Z</time>
      </trkpt>
      <trkpt lat="44.14978" lon="3.12994">
        <ele>814.8</ele>
        <time>2019-04-19T12:52:07Z</time>
      </trkpt>
      <trkpt lat="44.14978" lon="3.12988">
        <ele>814.9</ele>
        <time>2019-04-19T12:52:08Z</time>
      </trkpt>
      <trkpt lat="44.14978" lon="3.12984">
        <ele>814.9</ele>
        <time>2019-04-19T12:52:09Z</time>
      </trkpt>
      <trkpt lat="44.1498" lon="3.12981">
        <ele>815</ele>
        <time>2019-04-19T12:52:10Z</time>
      </trkpt>
      <trkpt lat="44.14983" lon="3.12977">
        <ele>815.1</ele>
        <time>2019-04-19T12:52:11Z</time>
      </trkpt>
      <trkpt lat="44.14989" lon="3.12974">
        <ele>815.2</ele>
        <time>2019-04-19T12:52:13Z</time>
      </trkpt>
      <trkpt lat="44.14995" lon="3.12963">
        <ele>815.5</ele>
        <time>2019-04-19T12:52:14Z</time>
      </trkpt>
      <trkpt lat="44.14997" lon="3.12959">
        <ele>815.6</ele>
        <time>2019-04-19T12:52:16Z</time>
      </trkpt>
      <trkpt lat="44.14995" lon="3.12956">
        <ele>815.7</ele>
        <time>2019-04-19T12:52:21Z</time>
      </trkpt>
      <trkpt lat="44.14992" lon="3.12953">
        <ele>815.8</ele>
        <time>2019-04-19T12:52:23Z</time>
      </trkpt>
      <trkpt lat="44.14989" lon="3.1295">
        <ele>816</ele>
        <time>2019-04-19T12:52:27Z</time>
      </trkpt>
      <trkpt lat="44.14986" lon="3.12948">
        <ele>816.1</ele>
        <time>2019-04-19T12:52:38Z</time>
      </trkpt>
      <trkpt lat="44.14983" lon="3.12946">
        <ele>816.2</ele>
        <time>2019-04-19T12:52:41Z</time>
      </trkpt>
      <trkpt lat="44.14985" lon="3.12956">
        <ele>816.6</ele>
        <time>2019-04-19T12:53:40Z</time>
      </trkpt>
      <trkpt lat="44.14987" lon="3.1296">
        <ele>816.7</ele>
        <time>2019-04-19T12:53:43Z</time>
      </trkpt>
      <trkpt lat="44.14991" lon="3.1296">
        <ele>816.9</ele>
        <time>2019-04-19T12:53:47Z</time>
      </trkpt>
      <trkpt lat="44.14994" lon="3.12959">
        <ele>817</ele>
        <time>2019-04-19T12:53:58Z</time>
      </trkpt>
      <trkpt lat="44.14997" lon="3.12955">
        <ele>817.2</ele>
        <time>2019-04-19T12:54:00Z</time>
      </trkpt>
      <trkpt lat="44.14999" lon="3.1295">
        <ele>817.4</ele>
        <time>2019-04-19T12:54:02Z</time>
      </trkpt>
      <trkpt lat="44.14999" lon="3.12942">
        <ele>817.7</ele>
        <time>2019-04-19T12:54:04Z</time>
      </trkpt>
      <trkpt lat="44.15" lon="3.12935">
        <ele>818</ele>
        <time>2019-04-19T12:54:06Z</time>
      </trkpt>
      <trkpt lat="44.15004" lon="3.1293">
        <ele>818.3</ele>
        <time>2019-04-19T12:54:08Z</time>
      </trkpt>
      <trkpt lat="44.15006" lon="3.12928">
        <ele>818.4</ele>
        <time>2019-04-19T12:54:09Z</time>
      </trkpt>
      <trkpt lat="44.15009" lon="3.12925">
        <ele>818.6</ele>
        <time>2019-04-19T12:54:10Z</time>
      </trkpt>
      <trkpt lat="44.15012" lon="3.12922">
        <ele>818.9</ele>
        <time>2019-04-19T12:54:11Z</time>
      </trkpt>
      <trkpt lat="44.15014" lon="3.12919">
        <ele>819.1</ele>
        <time>2019-04-19T12:54:12Z</time>
      </trkpt>
      <trkpt lat="44.15016" lon="3.12916">
        <ele>819.3</ele>
        <time>2019-04-19T12:54:13Z</time>
      </trkpt>
      <trkpt lat="44.15018" lon="3.12913">
        <ele>819.6</ele>
        <time>2019-04-19T12:54:14Z</time>
      </trkpt>
      <trkpt lat="44.15022" lon="3.12907">
        <ele>820.2</ele>
        <time>2019-04-19T12:54:16Z</time>
      </trkpt>
      <trkpt lat="44.15024" lon="3.12904">
        <ele>820.5</ele>
        <time>2019-04-19T12:54:17Z</time>
      </trkpt>
      <trkpt lat="44.15025" lon="3.129">
        <ele>820.9</ele>
        <time>2019-04-19T12:54:18Z</time>
      </trkpt>
      <trkpt lat="44.15027" lon="3.12897">
        <ele>821.3</ele>
        <time>2019-04-19T12:54:19Z</time>
      </trkpt>
      <trkpt lat="44.1503" lon="3.12892">
        <ele>821.9</ele>
        <time>2019-04-19T12:54:21Z</time>
      </trkpt>
      <trkpt lat="44.15032" lon="3.12887">
        <ele>822.4</ele>
        <time>2019-04-19T12:54:23Z</time>
      </trkpt>
      <trkpt lat="44.15034" lon="3.12882">
        <ele>822.9</ele>
        <time>2019-04-19T12:54:25Z</time>
      </trkpt>
      <trkpt lat="44.15035" lon="3.12877">
        <ele>823.4</ele>
        <time>2019-04-19T12:54:27Z</time>
      </trkpt>
      <trkpt lat="44.15036" lon="3.12872">
        <ele>823.8</ele>
        <time>2019-04-19T12:54:29Z</time>
      </trkpt>
      <trkpt lat="44.15038" lon="3.12865">
        <ele>824.3</ele>
        <time>2019-04-19T12:54:31Z</time>
      </trkpt>
      <trkpt lat="44.15041" lon="3.1286">
        <ele>824.7</ele>
        <time>2019-04-19T12:54:33Z</time>
      </trkpt>
      <trkpt lat="44.15043" lon="3.12858">
        <ele>824.9</ele>
        <time>2019-04-19T12:54:34Z</time>
      </trkpt>
      <trkpt lat="44.15046" lon="3.12855">
        <ele>825.1</ele>
        <time>2019-04-19T12:54:35Z</time>
      </trkpt>
      <trkpt lat="44.1505" lon="3.1285">
        <ele>825.5</ele>
        <time>2019-04-19T12:54:37Z</time>
      </trkpt>
      <trkpt lat="44.15053" lon="3.12847">
        <ele>825.7</ele>
        <time>2019-04-19T12:54:38Z</time>
      </trkpt>
      <trkpt lat="44.15056" lon="3.12844">
        <ele>825.9</ele>
        <time>2019-04-19T12:54:40Z</time>
      </trkpt>
      <trkpt lat="44.15058" lon="3.12839">
        <ele>826.1</ele>
        <time>2019-04-19T12:54:42Z</time>
      </trkpt>
      <trkpt lat="44.15061" lon="3.12833">
        <ele>826.2</ele>
        <time>2019-04-19T12:54:44Z</time>
      </trkpt>
      <trkpt lat="44.15062" lon="3.12827">
        <ele>826.4</ele>
        <time>2019-04-19T12:54:46Z</time>
      </trkpt>
      <trkpt lat="44.15063" lon="3.12823">
        <ele>826.5</ele>
        <time>2019-04-19T12:54:47Z</time>
      </trkpt>
      <trkpt lat="44.15064" lon="3.12819">
        <ele>826.6</ele>
        <time>2019-04-19T12:54:48Z</time>
      </trkpt>
      <trkpt lat="44.15064" lon="3.12815">
        <ele>826.7</ele>
        <time>2019-04-19T12:54:49Z</time>
      </trkpt>
      <trkpt lat="44.15064" lon="3.12811">
        <ele>826.8</ele>
        <time>2019-04-19T12:54:50Z</time>
      </trkpt>
      <trkpt lat="44.15064" lon="3.12807">
        <ele>826.9</ele>
        <time>2019-04-19T12:54:51Z</time>
      </trkpt>
      <trkpt lat="44.15063" lon="3.12799">
        <ele>827.2</ele>
        <time>2019-04-19T12:54:53Z</time>
      </trkpt>
      <trkpt lat="44.15063" lon="3.12795">
        <ele>827.3</ele>
        <time>2019-04-19T12:54:54Z</time>
      </trkpt>
      <trkpt lat="44.15063" lon="3.1279">
        <ele>827.5</ele>
        <time>2019-04-19T12:54:55Z</time>
      </trkpt>
      <trkpt lat="44.15065" lon="3.12786">
        <ele>827.7</ele>
        <time>2019-04-19T12:54:56Z</time>
      </trkpt>
      <trkpt lat="44.15066" lon="3.12782">
        <ele>827.9</ele>
        <time>2019-04-19T12:54:57Z</time>
      </trkpt>
      <trkpt lat="44.15067" lon="3.12778">
        <ele>828.1</ele>
        <time>2019-04-19T12:54:58Z</time>
      </trkpt>
      <trkpt lat="44.15069" lon="3.12772">
        <ele>828.4</ele>
        <time>2019-04-19T12:55:00Z</time>
      </trkpt>
      <trkpt lat="44.15071" lon="3.12766">
        <ele>828.7</ele>
        <time>2019-04-19T12:55:02Z</time>
      </trkpt>
      <trkpt lat="44.15073" lon="3.12758">
        <ele>829.1</ele>
        <time>2019-04-19T12:55:04Z</time>
      </trkpt>
      <trkpt lat="44.15076" lon="3.12755">
        <ele>829.3</ele>
        <time>2019-04-19T12:55:06Z</time>
      </trkpt>
      <trkpt lat="44.15077" lon="3.12751">
        <ele>829.6</ele>
        <time>2019-04-19T12:55:07Z</time>
      </trkpt>
      <trkpt lat="44.15079" lon="3.12747">
        <ele>829.8</ele>
        <time>2019-04-19T12:55:08Z</time>
      </trkpt>
      <trkpt lat="44.15081" lon="3.12743">
        <ele>830</ele>
        <time>2019-04-19T12:55:09Z</time>
      </trkpt>
      <trkpt lat="44.15083" lon="3.12739">
        <ele>830.2</ele>
        <time>2019-04-19T12:55:10Z</time>
      </trkpt>
      <trkpt lat="44.15084" lon="3.12735">
        <ele>830.3</ele>
        <time>2019-04-19T12:55:11Z</time>
      </trkpt>
      <trkpt lat="44.15086" lon="3.12732">
        <ele>830.5</ele>
        <time>2019-04-19T12:55:12Z</time>
      </trkpt>
      <trkpt lat="44.1509" lon="3.12726">
        <ele>830.8</ele>
        <time>2019-04-19T12:55:14Z</time>
      </trkpt>
      <trkpt lat="44.15092" lon="3.12722">
        <ele>830.9</ele>
        <time>2019-04-19T12:55:15Z</time>
      </trkpt>
      <trkpt lat="44.15093" lon="3.12719">
        <ele>831</ele>
        <time>2019-04-19T12:55:16Z</time>
      </trkpt>
      <trkpt lat="44.15095" lon="3.12716">
        <ele>831.1</ele>
        <time>2019-04-19T12:55:17Z</time>
      </trkpt>
      <trkpt lat="44.15097" lon="3.12712">
        <ele>831.2</ele>
        <time>2019-04-19T12:55:18Z</time>
      </trkpt>
      <trkpt lat="44.15099" lon="3.12709">
        <ele>831.3</ele>
        <time>2019-04-19T12:55:19Z</time>
      </trkpt>
      <trkpt lat="44.15101" lon="3.12706">
        <ele>831.4</ele>
        <time>2019-04-19T12:55:20Z</time>
      </trkpt>
      <trkpt lat="44.15104" lon="3.12703">
        <ele>831.5</ele>
        <time>2019-04-19T12:55:21Z</time>
      </trkpt>
      <trkpt lat="44.15107" lon="3.12696">
        <ele>831.6</ele>
        <time>2019-04-19T12:55:23Z</time>
      </trkpt>
      <trkpt lat="44.15109" lon="3.12691">
        <ele>831.7</ele>
        <time>2019-04-19T12:55:24Z</time>
      </trkpt>
      <trkpt lat="44.15112" lon="3.12686">
        <ele>831.8</ele>
        <time>2019-04-19T12:55:25Z</time>
      </trkpt>
      <trkpt lat="44.15114" lon="3.12681">
        <ele>831.9</ele>
        <time>2019-04-19T12:55:26Z</time>
      </trkpt>
      <trkpt lat="44.15115" lon="3.12677">
        <ele>831.9</ele>
        <time>2019-04-19T12:55:27Z</time>
      </trkpt>
      <trkpt lat="44.15115" lon="3.12671">
        <ele>831.9</ele>
        <time>2019-04-19T12:55:28Z</time>
      </trkpt>
      <trkpt lat="44.15115" lon="3.12666">
        <ele>831.9</ele>
        <time>2019-04-19T12:55:29Z</time>
      </trkpt>
      <trkpt lat="44.15115" lon="3.1266">
        <ele>832</ele>
        <time>2019-04-19T12:55:30Z</time>
      </trkpt>
      <trkpt lat="44.15115" lon="3.12654">
        <ele>832</ele>
        <time>2019-04-19T12:55:31Z</time>
      </trkpt>
      <trkpt lat="44.15114" lon="3.12648">
        <ele>832</ele>
        <time>2019-04-19T12:55:32Z</time>
      </trkpt>
      <trkpt lat="44.15113" lon="3.12644">
        <ele>832</ele>
        <time>2019-04-19T12:55:33Z</time>
      </trkpt>
      <trkpt lat="44.15111" lon="3.12639">
        <ele>832.1</ele>
        <time>2019-04-19T12:55:34Z</time>
      </trkpt>
      <trkpt lat="44.15108" lon="3.12635">
        <ele>832.1</ele>
        <time>2019-04-19T12:55:35Z</time>
      </trkpt>
      <trkpt lat="44.15106" lon="3.12632">
        <ele>832.1</ele>
        <time>2019-04-19T12:55:36Z</time>
      </trkpt>
      <trkpt lat="44.15102" lon="3.12628">
        <ele>832.2</ele>
        <time>2019-04-19T12:55:37Z</time>
      </trkpt>
      <trkpt lat="44.15099" lon="3.12624">
        <ele>832.2</ele>
        <time>2019-04-19T12:55:38Z</time>
      </trkpt>
      <trkpt lat="44.15096" lon="3.1262">
        <ele>832.3</ele>
        <time>2019-04-19T12:55:39Z</time>
      </trkpt>
      <trkpt lat="44.15093" lon="3.12616">
        <ele>832.4</ele>
        <time>2019-04-19T12:55:40Z</time>
      </trkpt>
      <trkpt lat="44.1509" lon="3.12612">
        <ele>832.4</ele>
        <time>2019-04-19T12:55:41Z</time>
      </trkpt>
      <trkpt lat="44.15088" lon="3.12608">
        <ele>832.5</ele>
        <time>2019-04-19T12:55:42Z</time>
      </trkpt>
      <trkpt lat="44.15085" lon="3.12605">
        <ele>832.5</ele>
        <time>2019-04-19T12:55:43Z</time>
      </trkpt>
      <trkpt lat="44.15082" lon="3.12601">
        <ele>832.6</ele>
        <time>2019-04-19T12:55:44Z</time>
      </trkpt>
      <trkpt lat="44.15079" lon="3.12598">
        <ele>832.6</ele>
        <time>2019-04-19T12:55:45Z</time>
      </trkpt>
      <trkpt lat="44.15076" lon="3.12594">
        <ele>832.6</ele>
        <time>2019-04-19T12:55:46Z</time>
      </trkpt>
      <trkpt lat="44.15073" lon="3.1259">
        <ele>832.7</ele>
        <time>2019-04-19T12:55:47Z</time>
      </trkpt>
      <trkpt lat="44.1507" lon="3.12588">
        <ele>832.7</ele>
        <time>2019-04-19T12:55:48Z</time>
      </trkpt>
      <trkpt lat="44.15066" lon="3.12586">
        <ele>832.7</ele>
        <time>2019-04-19T12:55:49Z</time>
      </trkpt>
      <trkpt lat="44.15062" lon="3.12583">
        <ele>832.7</ele>
        <time>2019-04-19T12:55:50Z</time>
      </trkpt>
      <trkpt lat="44.15058" lon="3.12581">
        <ele>832.4</ele>
        <time>2019-04-19T12:55:51Z</time>
      </trkpt>
      <trkpt lat="44.15054" lon="3.12578">
        <ele>832.1</ele>
        <time>2019-04-19T12:55:52Z</time>
      </trkpt>
      <trkpt lat="44.1505" lon="3.12575">
        <ele>831.8</ele>
        <time>2019-04-19T12:55:53Z</time>
      </trkpt>
      <trkpt lat="44.15046" lon="3.12572">
        <ele>831.5</ele>
        <time>2019-04-19T12:55:54Z</time>
      </trkpt>
      <trkpt lat="44.15042" lon="3.12568">
        <ele>831.3</ele>
        <time>2019-04-19T12:55:55Z</time>
      </trkpt>
      <trkpt lat="44.15038" lon="3.12565">
        <ele>831.2</ele>
        <time>2019-04-19T12:55:56Z</time>
      </trkpt>
      <trkpt lat="44.15035" lon="3.12562">
        <ele>831.1</ele>
        <time>2019-04-19T12:55:57Z</time>
      </trkpt>
      <trkpt lat="44.15032" lon="3.12557">
        <ele>831</ele>
        <time>2019-04-19T12:55:58Z</time>
      </trkpt>
      <trkpt lat="44.15028" lon="3.12544">
        <ele>830.9</ele>
        <time>2019-04-19T12:55:59Z</time>
      </trkpt>
      <trkpt lat="44.15027" lon="3.12538">
        <ele>830.8</ele>
        <time>2019-04-19T12:56:00Z</time>
      </trkpt>
      <trkpt lat="44.15025" lon="3.12532">
        <ele>830.8</ele>
        <time>2019-04-19T12:56:01Z</time>
      </trkpt>
      <trkpt lat="44.15022" lon="3.12525">
        <ele>830.8</ele>
        <time>2019-04-19T12:56:02Z</time>
      </trkpt>
      <trkpt lat="44.15019" lon="3.12519">
        <ele>830.7</ele>
        <time>2019-04-19T12:56:03Z</time>
      </trkpt>
      <trkpt lat="44.15017" lon="3.12514">
        <ele>830.7</ele>
        <time>2019-04-19T12:56:04Z</time>
      </trkpt>
      <trkpt lat="44.15016" lon="3.12508">
        <ele>830.6</ele>
        <time>2019-04-19T12:56:05Z</time>
      </trkpt>
      <trkpt lat="44.15018" lon="3.12498">
        <ele>830.5</ele>
        <time>2019-04-19T12:56:06Z</time>
      </trkpt>
      <trkpt lat="44.15015" lon="3.12489">
        <ele>830.3</ele>
        <time>2019-04-19T12:56:07Z</time>
      </trkpt>
      <trkpt lat="44.15013" lon="3.12481">
        <ele>830.2</ele>
        <time>2019-04-19T12:56:08Z</time>
      </trkpt>
      <trkpt lat="44.15012" lon="3.12473">
        <ele>830.1</ele>
        <time>2019-04-19T12:56:09Z</time>
      </trkpt>
      <trkpt lat="44.15012" lon="3.12463">
        <ele>830</ele>
        <time>2019-04-19T12:56:11Z</time>
      </trkpt>
      <trkpt lat="44.15009" lon="3.12456">
        <ele>829.9</ele>
        <time>2019-04-19T12:56:12Z</time>
      </trkpt>
      <trkpt lat="44.15007" lon="3.12448">
        <ele>829.9</ele>
        <time>2019-04-19T12:56:13Z</time>
      </trkpt>
      <trkpt lat="44.15003" lon="3.12441">
        <ele>829.9</ele>
        <time>2019-04-19T12:56:14Z</time>
      </trkpt>
      <trkpt lat="44.15005" lon="3.12436">
        <ele>829.9</ele>
        <time>2019-04-19T12:56:15Z</time>
      </trkpt>
      <trkpt lat="44.15005" lon="3.12428">
        <ele>829.9</ele>
        <time>2019-04-19T12:56:16Z</time>
      </trkpt>
      <trkpt lat="44.15003" lon="3.12422">
        <ele>829.9</ele>
        <time>2019-04-19T12:56:17Z</time>
      </trkpt>
      <trkpt lat="44.15" lon="3.12416">
        <ele>830</ele>
        <time>2019-04-19T12:56:18Z</time>
      </trkpt>
      <trkpt lat="44.14998" lon="3.1241">
        <ele>830</ele>
        <time>2019-04-19T12:56:19Z</time>
      </trkpt>
      <trkpt lat="44.14996" lon="3.12406">
        <ele>830.1</ele>
        <time>2019-04-19T12:56:20Z</time>
      </trkpt>
      <trkpt lat="44.14994" lon="3.124">
        <ele>830.2</ele>
        <time>2019-04-19T12:56:21Z</time>
      </trkpt>
      <trkpt lat="44.14994" lon="3.12394">
        <ele>830.3</ele>
        <time>2019-04-19T12:56:22Z</time>
      </trkpt>
      <trkpt lat="44.14994" lon="3.12388">
        <ele>830.4</ele>
        <time>2019-04-19T12:56:23Z</time>
      </trkpt>
      <trkpt lat="44.14989" lon="3.1238">
        <ele>830.6</ele>
        <time>2019-04-19T12:56:24Z</time>
      </trkpt>
      <trkpt lat="44.14986" lon="3.1237">
        <ele>830.7</ele>
        <time>2019-04-19T12:56:25Z</time>
      </trkpt>
      <trkpt lat="44.14983" lon="3.12363">
        <ele>830.9</ele>
        <time>2019-04-19T12:56:26Z</time>
      </trkpt>
      <trkpt lat="44.14981" lon="3.12355">
        <ele>831</ele>
        <time>2019-04-19T12:56:27Z</time>
      </trkpt>
      <trkpt lat="44.14977" lon="3.12347">
        <ele>831.2</ele>
        <time>2019-04-19T12:56:28Z</time>
      </trkpt>
      <trkpt lat="44.14974" lon="3.12339">
        <ele>831.4</ele>
        <time>2019-04-19T12:56:29Z</time>
      </trkpt>
      <trkpt lat="44.14972" lon="3.12329">
        <ele>831.6</ele>
        <time>2019-04-19T12:56:30Z</time>
      </trkpt>
      <trkpt lat="44.14968" lon="3.12321">
        <ele>831.7</ele>
        <time>2019-04-19T12:56:31Z</time>
      </trkpt>
      <trkpt lat="44.1497" lon="3.12317">
        <ele>831.7</ele>
        <time>2019-04-19T12:56:32Z</time>
      </trkpt>
      <trkpt lat="44.14964" lon="3.12313">
        <ele>831.7</ele>
        <time>2019-04-19T12:56:33Z</time>
      </trkpt>
      <trkpt lat="44.14961" lon="3.12307">
        <ele>831.7</ele>
        <time>2019-04-19T12:56:34Z</time>
      </trkpt>
      <trkpt lat="44.14958" lon="3.12298">
        <ele>831.7</ele>
        <time>2019-04-19T12:56:35Z</time>
      </trkpt>
      <trkpt lat="44.14957" lon="3.1229">
        <ele>831.6</ele>
        <time>2019-04-19T12:56:36Z</time>
      </trkpt>
      <trkpt lat="44.14956" lon="3.12282">
        <ele>831.5</ele>
        <time>2019-04-19T12:56:37Z</time>
      </trkpt>
      <trkpt lat="44.14955" lon="3.12277">
        <ele>831.5</ele>
        <time>2019-04-19T12:56:38Z</time>
      </trkpt>
      <trkpt lat="44.14952" lon="3.12268">
        <ele>831.4</ele>
        <time>2019-04-19T12:56:39Z</time>
      </trkpt>
      <trkpt lat="44.14949" lon="3.12263">
        <ele>831.4</ele>
        <time>2019-04-19T12:56:40Z</time>
      </trkpt>
      <trkpt lat="44.1495" lon="3.12255">
        <ele>831.4</ele>
        <time>2019-04-19T12:56:41Z</time>
      </trkpt>
      <trkpt lat="44.1495" lon="3.12248">
        <ele>831.4</ele>
        <time>2019-04-19T12:56:42Z</time>
      </trkpt>
      <trkpt lat="44.14944" lon="3.12239">
        <ele>831.5</ele>
        <time>2019-04-19T12:56:43Z</time>
      </trkpt>
      <trkpt lat="44.14943" lon="3.12231">
        <ele>831.6</ele>
        <time>2019-04-19T12:56:44Z</time>
      </trkpt>
      <trkpt lat="44.14944" lon="3.12225">
        <ele>831.7</ele>
        <time>2019-04-19T12:56:45Z</time>
      </trkpt>
      <trkpt lat="44.14943" lon="3.12218">
        <ele>831.8</ele>
        <time>2019-04-19T12:56:46Z</time>
      </trkpt>
      <trkpt lat="44.14941" lon="3.12211">
        <ele>831.9</ele>
        <time>2019-04-19T12:56:47Z</time>
      </trkpt>
      <trkpt lat="44.14936" lon="3.12204">
        <ele>832</ele>
        <time>2019-04-19T12:56:48Z</time>
      </trkpt>
      <trkpt lat="44.14941" lon="3.12198">
        <ele>832.1</ele>
        <time>2019-04-19T12:56:49Z</time>
      </trkpt>
      <trkpt lat="44.14938" lon="3.12191">
        <ele>832.2</ele>
        <time>2019-04-19T12:56:50Z</time>
      </trkpt>
      <trkpt lat="44.14938" lon="3.12186">
        <ele>832.3</ele>
        <time>2019-04-19T12:56:51Z</time>
      </trkpt>
      <trkpt lat="44.1494" lon="3.1218">
        <ele>832.4</ele>
        <time>2019-04-19T12:56:52Z</time>
      </trkpt>
      <trkpt lat="44.1494" lon="3.12175">
        <ele>832.5</ele>
        <time>2019-04-19T12:56:53Z</time>
      </trkpt>
      <trkpt lat="44.14938" lon="3.1217">
        <ele>832.6</ele>
        <time>2019-04-19T12:56:54Z</time>
      </trkpt>
      <trkpt lat="44.14933" lon="3.12164">
        <ele>832.8</ele>
        <time>2019-04-19T12:56:55Z</time>
      </trkpt>
      <trkpt lat="44.14933" lon="3.12156">
        <ele>833.1</ele>
        <time>2019-04-19T12:56:57Z</time>
      </trkpt>
      <trkpt lat="44.14931" lon="3.12152">
        <ele>833.2</ele>
        <time>2019-04-19T12:56:58Z</time>
      </trkpt>
      <trkpt lat="44.1493" lon="3.12148">
        <ele>833.4</ele>
        <time>2019-04-19T12:56:59Z</time>
      </trkpt>
      <trkpt lat="44.14928" lon="3.12145">
        <ele>833.5</ele>
        <time>2019-04-19T12:57:00Z</time>
      </trkpt>
      <trkpt lat="44.14926" lon="3.12141">
        <ele>833.7</ele>
        <time>2019-04-19T12:57:01Z</time>
      </trkpt>
      <trkpt lat="44.14922" lon="3.12138">
        <ele>834</ele>
        <time>2019-04-19T12:57:02Z</time>
      </trkpt>
      <trkpt lat="44.14919" lon="3.12135">
        <ele>834.2</ele>
        <time>2019-04-19T12:57:03Z</time>
      </trkpt>
      <trkpt lat="44.14917" lon="3.12131">
        <ele>834.5</ele>
        <time>2019-04-19T12:57:04Z</time>
      </trkpt>
      <trkpt lat="44.14914" lon="3.12127">
        <ele>834.8</ele>
        <time>2019-04-19T12:57:05Z</time>
      </trkpt>
      <trkpt lat="44.14911" lon="3.12124">
        <ele>835</ele>
        <time>2019-04-19T12:57:06Z</time>
      </trkpt>
      <trkpt lat="44.14909" lon="3.12121">
        <ele>835.3</ele>
        <time>2019-04-19T12:57:07Z</time>
      </trkpt>
      <trkpt lat="44.14907" lon="3.12117">
        <ele>835.5</ele>
        <time>2019-04-19T12:57:08Z</time>
      </trkpt>
      <trkpt lat="44.14904" lon="3.12111">
        <ele>836.1</ele>
        <time>2019-04-19T12:57:10Z</time>
      </trkpt>
      <trkpt lat="44.14901" lon="3.12107">
        <ele>836.4</ele>
        <time>2019-04-19T12:57:11Z</time>
      </trkpt>
      <trkpt lat="44.14899" lon="3.12104">
        <ele>836.8</ele>
        <time>2019-04-19T12:57:12Z</time>
      </trkpt>
      <trkpt lat="44.14897" lon="3.121">
        <ele>837.1</ele>
        <time>2019-04-19T12:57:13Z</time>
      </trkpt>
      <trkpt lat="44.14895" lon="3.12097">
        <ele>837.5</ele>
        <time>2019-04-19T12:57:14Z</time>
      </trkpt>
      <trkpt lat="44.14894" lon="3.12091">
        <ele>838.1</ele>
        <time>2019-04-19T12:57:16Z</time>
      </trkpt>
      <trkpt lat="44.14894" lon="3.12085">
        <ele>838.6</ele>
        <time>2019-04-19T12:57:18Z</time>
      </trkpt>
      <trkpt lat="44.14892" lon="3.12078">
        <ele>839.2</ele>
        <time>2019-04-19T12:57:20Z</time>
      </trkpt>
      <trkpt lat="44.14891" lon="3.12075">
        <ele>839.5</ele>
        <time>2019-04-19T12:57:21Z</time>
      </trkpt>
      <trkpt lat="44.14889" lon="3.12067">
        <ele>840.1</ele>
        <time>2019-04-19T12:57:23Z</time>
      </trkpt>
      <trkpt lat="44.14887" lon="3.12064">
        <ele>840.4</ele>
        <time>2019-04-19T12:57:24Z</time>
      </trkpt>
      <trkpt lat="44.14885" lon="3.1206">
        <ele>840.7</ele>
        <time>2019-04-19T12:57:25Z</time>
      </trkpt>
      <trkpt lat="44.14883" lon="3.12056">
        <ele>841</ele>
        <time>2019-04-19T12:57:26Z</time>
      </trkpt>
      <trkpt lat="44.1488" lon="3.12052">
        <ele>841.2</ele>
        <time>2019-04-19T12:57:27Z</time>
      </trkpt>
      <trkpt lat="44.14877" lon="3.12047">
        <ele>841.4</ele>
        <time>2019-04-19T12:57:28Z</time>
      </trkpt>
      <trkpt lat="44.14875" lon="3.12043">
        <ele>841.6</ele>
        <time>2019-04-19T12:57:29Z</time>
      </trkpt>
      <trkpt lat="44.14872" lon="3.12038">
        <ele>841.8</ele>
        <time>2019-04-19T12:57:30Z</time>
      </trkpt>
      <trkpt lat="44.1487" lon="3.12033">
        <ele>842</ele>
        <time>2019-04-19T12:57:31Z</time>
      </trkpt>
      <trkpt lat="44.14868" lon="3.12028">
        <ele>842.1</ele>
        <time>2019-04-19T12:57:32Z</time>
      </trkpt>
      <trkpt lat="44.14866" lon="3.12024">
        <ele>842.3</ele>
        <time>2019-04-19T12:57:33Z</time>
      </trkpt>
      <trkpt lat="44.14865" lon="3.12019">
        <ele>842.4</ele>
        <time>2019-04-19T12:57:34Z</time>
      </trkpt>
      <trkpt lat="44.14863" lon="3.12013">
        <ele>842.5</ele>
        <time>2019-04-19T12:57:35Z</time>
      </trkpt>
      <trkpt lat="44.14861" lon="3.12008">
        <ele>842.6</ele>
        <time>2019-04-19T12:57:36Z</time>
      </trkpt>
      <trkpt lat="44.14856" lon="3.11999">
        <ele>842.8</ele>
        <time>2019-04-19T12:57:37Z</time>
      </trkpt>
      <trkpt lat="44.1485" lon="3.11995">
        <ele>842.9</ele>
        <time>2019-04-19T12:57:38Z</time>
      </trkpt>
      <trkpt lat="44.14847" lon="3.11989">
        <ele>842.9</ele>
        <time>2019-04-19T12:57:39Z</time>
      </trkpt>
      <trkpt lat="44.14845" lon="3.11982">
        <ele>842.9</ele>
        <time>2019-04-19T12:57:40Z</time>
      </trkpt>
      <trkpt lat="44.14843" lon="3.11976">
        <ele>843</ele>
        <time>2019-04-19T12:57:41Z</time>
      </trkpt>
      <trkpt lat="44.14847" lon="3.1197">
        <ele>843</ele>
        <time>2019-04-19T12:57:42Z</time>
      </trkpt>
      <trkpt lat="44.1485" lon="3.11964">
        <ele>842.7</ele>
        <time>2019-04-19T12:57:43Z</time>
      </trkpt>
      <trkpt lat="44.14853" lon="3.11958">
        <ele>842.3</ele>
        <time>2019-04-19T12:57:44Z</time>
      </trkpt>
      <trkpt lat="44.14858" lon="3.11955">
        <ele>841.9</ele>
        <time>2019-04-19T12:57:45Z</time>
      </trkpt>
      <trkpt lat="44.14861" lon="3.11952">
        <ele>841.7</ele>
        <time>2019-04-19T12:57:46Z</time>
      </trkpt>
      <trkpt lat="44.14867" lon="3.1195">
        <ele>841.3</ele>
        <time>2019-04-19T12:57:48Z</time>
      </trkpt>
      <trkpt lat="44.1487" lon="3.11946">
        <ele>841</ele>
        <time>2019-04-19T12:57:49Z</time>
      </trkpt>
      <trkpt lat="44.14874" lon="3.11947">
        <ele>840.8</ele>
        <time>2019-04-19T12:57:50Z</time>
      </trkpt>
      <trkpt lat="44.14877" lon="3.11943">
        <ele>840.5</ele>
        <time>2019-04-19T12:57:51Z</time>
      </trkpt>
      <trkpt lat="44.14882" lon="3.1194">
        <ele>840.2</ele>
        <time>2019-04-19T12:57:52Z</time>
      </trkpt>
      <trkpt lat="44.14884" lon="3.11937">
        <ele>839.9</ele>
        <time>2019-04-19T12:57:53Z</time>
      </trkpt>
      <trkpt lat="44.14886" lon="3.11933">
        <ele>839.5</ele>
        <time>2019-04-19T12:57:54Z</time>
      </trkpt>
      <trkpt lat="44.14891" lon="3.11936">
        <ele>839.1</ele>
        <time>2019-04-19T12:57:56Z</time>
      </trkpt>
      <trkpt lat="44.14893" lon="3.11935">
        <ele>838.8</ele>
        <time>2019-04-19T12:57:57Z</time>
      </trkpt>
      <trkpt lat="44.14896" lon="3.11933">
        <ele>838.6</ele>
        <time>2019-04-19T12:57:58Z</time>
      </trkpt>
      <trkpt lat="44.149" lon="3.11927">
        <ele>838.2</ele>
        <time>2019-04-19T12:57:59Z</time>
      </trkpt>
      <trkpt lat="44.14903" lon="3.11922">
        <ele>838</ele>
        <time>2019-04-19T12:58:00Z</time>
      </trkpt>
      <trkpt lat="44.14906" lon="3.11915">
        <ele>837.6</ele>
        <time>2019-04-19T12:58:01Z</time>
      </trkpt>
      <trkpt lat="44.14907" lon="3.1191">
        <ele>837.4</ele>
        <time>2019-04-19T12:58:02Z</time>
      </trkpt>
      <trkpt lat="44.14908" lon="3.11904">
        <ele>837.2</ele>
        <time>2019-04-19T12:58:03Z</time>
      </trkpt>
      <trkpt lat="44.14909" lon="3.11899">
        <ele>837</ele>
        <time>2019-04-19T12:58:04Z</time>
      </trkpt>
      <trkpt lat="44.1491" lon="3.11894">
        <ele>836.6</ele>
        <time>2019-04-19T12:58:05Z</time>
      </trkpt>
      <trkpt lat="44.14914" lon="3.11889">
        <ele>836.1</ele>
        <time>2019-04-19T12:58:06Z</time>
      </trkpt>
      <trkpt lat="44.14915" lon="3.11884">
        <ele>835.8</ele>
        <time>2019-04-19T12:58:07Z</time>
      </trkpt>
      <trkpt lat="44.14916" lon="3.11877">
        <ele>835.5</ele>
        <time>2019-04-19T12:58:08Z</time>
      </trkpt>
      <trkpt lat="44.14919" lon="3.11871">
        <ele>835.4</ele>
        <time>2019-04-19T12:58:09Z</time>
      </trkpt>
      <trkpt lat="44.14922" lon="3.11864">
        <ele>835.1</ele>
        <time>2019-04-19T12:58:10Z</time>
      </trkpt>
      <trkpt lat="44.14922" lon="3.11858">
        <ele>835</ele>
        <time>2019-04-19T12:58:11Z</time>
      </trkpt>
      <trkpt lat="44.14923" lon="3.11852">
        <ele>834.8</ele>
        <time>2019-04-19T12:58:12Z</time>
      </trkpt>
      <trkpt lat="44.14924" lon="3.11845">
        <ele>834.5</ele>
        <time>2019-04-19T12:58:13Z</time>
      </trkpt>
      <trkpt lat="44.14927" lon="3.11837">
        <ele>834.2</ele>
        <time>2019-04-19T12:58:14Z</time>
      </trkpt>
      <trkpt lat="44.14926" lon="3.11831">
        <ele>834.1</ele>
        <time>2019-04-19T12:58:15Z</time>
      </trkpt>
      <trkpt lat="44.14928" lon="3.11825">
        <ele>834</ele>
        <time>2019-04-19T12:58:16Z</time>
      </trkpt>
      <trkpt lat="44.1493" lon="3.11821">
        <ele>833.9</ele>
        <time>2019-04-19T12:58:17Z</time>
      </trkpt>
      <trkpt lat="44.14933" lon="3.11816">
        <ele>833.8</ele>
        <time>2019-04-19T12:58:18Z</time>
      </trkpt>
      <trkpt lat="44.14935" lon="3.11811">
        <ele>833.6</ele>
        <time>2019-04-19T12:58:19Z</time>
      </trkpt>
      <trkpt lat="44.14937" lon="3.11806">
        <ele>833.5</ele>
        <time>2019-04-19T12:58:20Z</time>
      </trkpt>
      <trkpt lat="44.14939" lon="3.11801">
        <ele>833.4</ele>
        <time>2019-04-19T12:58:21Z</time>
      </trkpt>
      <trkpt lat="44.1494" lon="3.11796">
        <ele>833.3</ele>
        <time>2019-04-19T12:58:22Z</time>
      </trkpt>
      <trkpt lat="44.14942" lon="3.11791">
        <ele>833.2</ele>
        <time>2019-04-19T12:58:23Z</time>
      </trkpt>
      <trkpt lat="44.14945" lon="3.11787">
        <ele>833</ele>
        <time>2019-04-19T12:58:24Z</time>
      </trkpt>
      <trkpt lat="44.14948" lon="3.11784">
        <ele>832.8</ele>
        <time>2019-04-19T12:58:25Z</time>
      </trkpt>
      <trkpt lat="44.14951" lon="3.11782">
        <ele>832.7</ele>
        <time>2019-04-19T12:58:26Z</time>
      </trkpt>
      <trkpt lat="44.14954" lon="3.11779">
        <ele>832.5</ele>
        <time>2019-04-19T12:58:27Z</time>
      </trkpt>
      <trkpt lat="44.14958" lon="3.11778">
        <ele>832.3</ele>
        <time>2019-04-19T12:58:28Z</time>
      </trkpt>
      <trkpt lat="44.14962" lon="3.11777">
        <ele>832.2</ele>
        <time>2019-04-19T12:58:29Z</time>
      </trkpt>
      <trkpt lat="44.14965" lon="3.11777">
        <ele>832.1</ele>
        <time>2019-04-19T12:58:30Z</time>
      </trkpt>
      <trkpt lat="44.14968" lon="3.11776">
        <ele>831.9</ele>
        <time>2019-04-19T12:58:31Z</time>
      </trkpt>
      <trkpt lat="44.14972" lon="3.11774">
        <ele>831.8</ele>
        <time>2019-04-19T12:58:32Z</time>
      </trkpt>
      <trkpt lat="44.14975" lon="3.11773">
        <ele>831.6</ele>
        <time>2019-04-19T12:58:33Z</time>
      </trkpt>
      <trkpt lat="44.14978" lon="3.11772">
        <ele>831.4</ele>
        <time>2019-04-19T12:58:34Z</time>
      </trkpt>
      <trkpt lat="44.14981" lon="3.11771">
        <ele>831.2</ele>
        <time>2019-04-19T12:58:35Z</time>
      </trkpt>
      <trkpt lat="44.14985" lon="3.1177">
        <ele>830.9</ele>
        <time>2019-04-19T12:58:36Z</time>
      </trkpt>
      <trkpt lat="44.14989" lon="3.11769">
        <ele>830.7</ele>
        <time>2019-04-19T12:58:37Z</time>
      </trkpt>
      <trkpt lat="44.14993" lon="3.1177">
        <ele>830.3</ele>
        <time>2019-04-19T12:58:38Z</time>
      </trkpt>
      <trkpt lat="44.14997" lon="3.11771">
        <ele>830</ele>
        <time>2019-04-19T12:58:39Z</time>
      </trkpt>
      <trkpt lat="44.15002" lon="3.11772">
        <ele>829.7</ele>
        <time>2019-04-19T12:58:40Z</time>
      </trkpt>
      <trkpt lat="44.15006" lon="3.11773">
        <ele>829.5</ele>
        <time>2019-04-19T12:58:41Z</time>
      </trkpt>
      <trkpt lat="44.1501" lon="3.11774">
        <ele>829.2</ele>
        <time>2019-04-19T12:58:42Z</time>
      </trkpt>
      <trkpt lat="44.15013" lon="3.11775">
        <ele>829.1</ele>
        <time>2019-04-19T12:58:43Z</time>
      </trkpt>
      <trkpt lat="44.15017" lon="3.11776">
        <ele>828.9</ele>
        <time>2019-04-19T12:58:44Z</time>
      </trkpt>
      <trkpt lat="44.1502" lon="3.11777">
        <ele>828.8</ele>
        <time>2019-04-19T12:58:45Z</time>
      </trkpt>
      <trkpt lat="44.15023" lon="3.11778">
        <ele>828.7</ele>
        <time>2019-04-19T12:58:46Z</time>
      </trkpt>
      <trkpt lat="44.15026" lon="3.11779">
        <ele>828.5</ele>
        <time>2019-04-19T12:58:47Z</time>
      </trkpt>
      <trkpt lat="44.1503" lon="3.11778">
        <ele>828.4</ele>
        <time>2019-04-19T12:58:49Z</time>
      </trkpt>
      <trkpt lat="44.15031" lon="3.11775">
        <ele>828.3</ele>
        <time>2019-04-19T12:58:54Z</time>
      </trkpt>
      <trkpt lat="44.15032" lon="3.11771">
        <ele>828.2</ele>
        <time>2019-04-19T12:59:04Z</time>
      </trkpt>
      <trkpt lat="44.15035" lon="3.11768">
        <ele>828</ele>
        <time>2019-04-19T13:00:04Z</time>
      </trkpt>
      <trkpt lat="44.15038" lon="3.11768">
        <ele>827.1</ele>
        <time>2019-04-19T13:00:06Z</time>
      </trkpt>
      <trkpt lat="44.15042" lon="3.11771">
        <ele>826.3</ele>
        <time>2019-04-19T13:00:08Z</time>
      </trkpt>
      <trkpt lat="44.15043" lon="3.11775">
        <ele>827.5</ele>
        <time>2019-04-19T13:00:11Z</time>
      </trkpt>
      <trkpt lat="44.15046" lon="3.11776">
        <ele>827.9</ele>
        <time>2019-04-19T13:06:24Z</time>
      </trkpt>
      <trkpt lat="44.15044" lon="3.11779">
        <ele>827.9</ele>
        <time>2019-04-19T13:06:27Z</time>
      </trkpt>
      <trkpt lat="44.15048" lon="3.11788">
        <ele>829.4</ele>
        <time>2019-04-19T13:06:49Z</time>
      </trkpt>
      <trkpt lat="44.15051" lon="3.11791">
        <ele>829.5</ele>
        <time>2019-04-19T13:06:50Z</time>
      </trkpt>
      <trkpt lat="44.15054" lon="3.11795">
        <ele>829.6</ele>
        <time>2019-04-19T13:06:51Z</time>
      </trkpt>
      <trkpt lat="44.15056" lon="3.11799">
        <ele>830.7</ele>
        <time>2019-04-19T13:06:52Z</time>
      </trkpt>
      <trkpt lat="44.15058" lon="3.11803">
        <ele>830.8</ele>
        <time>2019-04-19T13:06:53Z</time>
      </trkpt>
      <trkpt lat="44.1506" lon="3.11807">
        <ele>830.9</ele>
        <time>2019-04-19T13:06:54Z</time>
      </trkpt>
      <trkpt lat="44.15062" lon="3.11811">
        <ele>831</ele>
        <time>2019-04-19T13:06:55Z</time>
      </trkpt>
      <trkpt lat="44.15064" lon="3.11815">
        <ele>832.2</ele>
        <time>2019-04-19T13:06:56Z</time>
      </trkpt>
      <trkpt lat="44.15065" lon="3.11819">
        <ele>833.4</ele>
        <time>2019-04-19T13:06:57Z</time>
      </trkpt>
      <trkpt lat="44.15065" lon="3.11824">
        <ele>834.5</ele>
        <time>2019-04-19T13:06:58Z</time>
      </trkpt>
      <trkpt lat="44.15064" lon="3.11828">
        <ele>835.6</ele>
        <time>2019-04-19T13:06:59Z</time>
      </trkpt>
      <trkpt lat="44.15065" lon="3.11833">
        <ele>835.8</ele>
        <time>2019-04-19T13:07:00Z</time>
      </trkpt>
      <trkpt lat="44.15067" lon="3.11837">
        <ele>837</ele>
        <time>2019-04-19T13:07:01Z</time>
      </trkpt>
      <trkpt lat="44.15068" lon="3.1184">
        <ele>836.8</ele>
        <time>2019-04-19T13:07:02Z</time>
      </trkpt>
      <trkpt lat="44.1507" lon="3.11843">
        <ele>836.8</ele>
        <time>2019-04-19T13:07:03Z</time>
      </trkpt>
      <trkpt lat="44.15072" lon="3.11847">
        <ele>837</ele>
        <time>2019-04-19T13:07:04Z</time>
      </trkpt>
      <trkpt lat="44.1508" lon="3.11851">
        <ele>835.9</ele>
        <time>2019-04-19T13:07:05Z</time>
      </trkpt>
      <trkpt lat="44.15084" lon="3.11855">
        <ele>835.9</ele>
        <time>2019-04-19T13:07:06Z</time>
      </trkpt>
      <trkpt lat="44.15087" lon="3.11859">
        <ele>834.7</ele>
        <time>2019-04-19T13:07:07Z</time>
      </trkpt>
      <trkpt lat="44.15091" lon="3.11863">
        <ele>834.6</ele>
        <time>2019-04-19T13:07:08Z</time>
      </trkpt>
      <trkpt lat="44.15096" lon="3.11863">
        <ele>833.5</ele>
        <time>2019-04-19T13:07:09Z</time>
      </trkpt>
      <trkpt lat="44.15099" lon="3.11864">
        <ele>831.2</ele>
        <time>2019-04-19T13:07:10Z</time>
      </trkpt>
      <trkpt lat="44.15102" lon="3.11863">
        <ele>829.9</ele>
        <time>2019-04-19T13:07:11Z</time>
      </trkpt>
      <trkpt lat="44.15106" lon="3.11867">
        <ele>829.6</ele>
        <time>2019-04-19T13:07:12Z</time>
      </trkpt>
      <trkpt lat="44.15109" lon="3.11872">
        <ele>829.1</ele>
        <time>2019-04-19T13:07:13Z</time>
      </trkpt>
      <trkpt lat="44.15111" lon="3.11876">
        <ele>829.9</ele>
        <time>2019-04-19T13:07:14Z</time>
      </trkpt>
      <trkpt lat="44.15113" lon="3.11879">
        <ele>829.3</ele>
        <time>2019-04-19T13:07:15Z</time>
      </trkpt>
      <trkpt lat="44.15117" lon="3.11882">
        <ele>827.9</ele>
        <time>2019-04-19T13:07:16Z</time>
      </trkpt>
      <trkpt lat="44.15123" lon="3.11883">
        <ele>825</ele>
        <time>2019-04-19T13:07:17Z</time>
      </trkpt>
      <trkpt lat="44.15127" lon="3.11889">
        <ele>825.4</ele>
        <time>2019-04-19T13:07:18Z</time>
      </trkpt>
      <trkpt lat="44.1513" lon="3.11893">
        <ele>823.6</ele>
        <time>2019-04-19T13:07:19Z</time>
      </trkpt>
      <trkpt lat="44.15131" lon="3.11897">
        <ele>824.5</ele>
        <time>2019-04-19T13:07:20Z</time>
      </trkpt>
      <trkpt lat="44.15136" lon="3.11905">
        <ele>824.9</ele>
        <time>2019-04-19T13:07:21Z</time>
      </trkpt>
      <trkpt lat="44.1514" lon="3.11913">
        <ele>823</ele>
        <time>2019-04-19T13:07:22Z</time>
      </trkpt>
      <trkpt lat="44.15146" lon="3.11917">
        <ele>821.3</ele>
        <time>2019-04-19T13:07:23Z</time>
      </trkpt>
      <trkpt lat="44.15151" lon="3.11919">
        <ele>821</ele>
        <time>2019-04-19T13:07:24Z</time>
      </trkpt>
      <trkpt lat="44.15155" lon="3.11918">
        <ele>818.9</ele>
        <time>2019-04-19T13:07:25Z</time>
      </trkpt>
      <trkpt lat="44.15161" lon="3.11914">
        <ele>815.5</ele>
        <time>2019-04-19T13:08:50Z</time>
      </trkpt>
      <trkpt lat="44.15165" lon="3.11917">
        <ele>815.1</ele>
        <time>2019-04-19T13:08:52Z</time>
      </trkpt>
      <trkpt lat="44.15168" lon="3.11921">
        <ele>813.7</ele>
        <time>2019-04-19T13:08:53Z</time>
      </trkpt>
      <trkpt lat="44.15171" lon="3.11925">
        <ele>813.4</ele>
        <time>2019-04-19T13:08:54Z</time>
      </trkpt>
      <trkpt lat="44.15175" lon="3.11929">
        <ele>813.3</ele>
        <time>2019-04-19T13:08:55Z</time>
      </trkpt>
      <trkpt lat="44.15178" lon="3.11933">
        <ele>813.3</ele>
        <time>2019-04-19T13:08:56Z</time>
      </trkpt>
      <trkpt lat="44.15181" lon="3.11937">
        <ele>813.4</ele>
        <time>2019-04-19T13:08:57Z</time>
      </trkpt>
      <trkpt lat="44.15184" lon="3.11942">
        <ele>813.5</ele>
        <time>2019-04-19T13:08:58Z</time>
      </trkpt>
      <trkpt lat="44.15186" lon="3.11946">
        <ele>813.6</ele>
        <time>2019-04-19T13:08:59Z</time>
      </trkpt>
      <trkpt lat="44.15183" lon="3.11955">
        <ele>816.9</ele>
        <time>2019-04-19T13:09:00Z</time>
      </trkpt>
      <trkpt lat="44.1518" lon="3.11963">
        <ele>819.7</ele>
        <time>2019-04-19T13:09:02Z</time>
      </trkpt>
      <trkpt lat="44.15176" lon="3.11966">
        <ele>821.5</ele>
        <time>2019-04-19T13:09:04Z</time>
      </trkpt>
      <trkpt lat="44.15172" lon="3.11968">
        <ele>823.3</ele>
        <time>2019-04-19T13:09:05Z</time>
      </trkpt>
      <trkpt lat="44.15172" lon="3.11973">
        <ele>824.1</ele>
        <time>2019-04-19T13:09:06Z</time>
      </trkpt>
      <trkpt lat="44.15169" lon="3.1198">
        <ele>826.6</ele>
        <time>2019-04-19T13:09:07Z</time>
      </trkpt>
      <trkpt lat="44.15168" lon="3.11987">
        <ele>828.1</ele>
        <time>2019-04-19T13:09:08Z</time>
      </trkpt>
      <trkpt lat="44.15168" lon="3.11993">
        <ele>828.7</ele>
        <time>2019-04-19T13:09:09Z</time>
      </trkpt>
      <trkpt lat="44.15168" lon="3.11998">
        <ele>829.3</ele>
        <time>2019-04-19T13:09:10Z</time>
      </trkpt>
      <trkpt lat="44.15169" lon="3.12006">
        <ele>830.3</ele>
        <time>2019-04-19T13:09:11Z</time>
      </trkpt>
      <trkpt lat="44.15171" lon="3.1201">
        <ele>830.1</ele>
        <time>2019-04-19T13:09:12Z</time>
      </trkpt>
      <trkpt lat="44.15176" lon="3.12015">
        <ele>830.2</ele>
        <time>2019-04-19T13:09:14Z</time>
      </trkpt>
      <trkpt lat="44.15179" lon="3.12019">
        <ele>829.6</ele>
        <time>2019-04-19T13:09:15Z</time>
      </trkpt>
      <trkpt lat="44.15184" lon="3.12022">
        <ele>829.4</ele>
        <time>2019-04-19T13:09:17Z</time>
      </trkpt>
      <trkpt lat="44.1519" lon="3.12022">
        <ele>828</ele>
        <time>2019-04-19T13:09:18Z</time>
      </trkpt>
      <trkpt lat="44.15194" lon="3.12023">
        <ele>827.2</ele>
        <time>2019-04-19T13:09:19Z</time>
      </trkpt>
      <trkpt lat="44.15199" lon="3.12025">
        <ele>826.2</ele>
        <time>2019-04-19T13:09:20Z</time>
      </trkpt>
      <trkpt lat="44.15203" lon="3.12026">
        <ele>825.4</ele>
        <time>2019-04-19T13:09:21Z</time>
      </trkpt>
      <trkpt lat="44.15206" lon="3.12028">
        <ele>824.6</ele>
        <time>2019-04-19T13:09:22Z</time>
      </trkpt>
      <trkpt lat="44.1521" lon="3.12029">
        <ele>823.8</ele>
        <time>2019-04-19T13:09:23Z</time>
      </trkpt>
      <trkpt lat="44.15213" lon="3.12029">
        <ele>822</ele>
        <time>2019-04-19T13:09:24Z</time>
      </trkpt>
      <trkpt lat="44.15216" lon="3.12029">
        <ele>821</ele>
        <time>2019-04-19T13:09:25Z</time>
      </trkpt>
      <trkpt lat="44.15221" lon="3.1203">
        <ele>820.6</ele>
        <time>2019-04-19T13:09:27Z</time>
      </trkpt>
      <trkpt lat="44.15225" lon="3.12032">
        <ele>818.4</ele>
        <time>2019-04-19T13:09:28Z</time>
      </trkpt>
      <trkpt lat="44.1523" lon="3.12034">
        <ele>818</ele>
        <time>2019-04-19T13:09:29Z</time>
      </trkpt>
      <trkpt lat="44.15233" lon="3.12037">
        <ele>816.9</ele>
        <time>2019-04-19T13:09:30Z</time>
      </trkpt>
      <trkpt lat="44.15236" lon="3.12039">
        <ele>816.7</ele>
        <time>2019-04-19T13:09:31Z</time>
      </trkpt>
      <trkpt lat="44.15239" lon="3.1204">
        <ele>815.7</ele>
        <time>2019-04-19T13:09:33Z</time>
      </trkpt>
      <trkpt lat="44.15243" lon="3.12041">
        <ele>814.6</ele>
        <time>2019-04-19T13:09:35Z</time>
      </trkpt>
      <trkpt lat="44.15248" lon="3.12043">
        <ele>813.2</ele>
        <time>2019-04-19T13:09:37Z</time>
      </trkpt>
      <trkpt lat="44.15251" lon="3.12044">
        <ele>811.9</ele>
        <time>2019-04-19T13:09:38Z</time>
      </trkpt>
      <trkpt lat="44.15254" lon="3.12047">
        <ele>811.4</ele>
        <time>2019-04-19T13:09:39Z</time>
      </trkpt>
      <trkpt lat="44.15257" lon="3.1205">
        <ele>810.2</ele>
        <time>2019-04-19T13:09:40Z</time>
      </trkpt>
      <trkpt lat="44.1526" lon="3.12054">
        <ele>809.8</ele>
        <time>2019-04-19T13:09:41Z</time>
      </trkpt>
      <trkpt lat="44.15263" lon="3.1206">
        <ele>810.4</ele>
        <time>2019-04-19T13:09:43Z</time>
      </trkpt>
      <trkpt lat="44.15267" lon="3.12063">
        <ele>809.3</ele>
        <time>2019-04-19T13:09:44Z</time>
      </trkpt>
      <trkpt lat="44.15271" lon="3.12066">
        <ele>809.1</ele>
        <time>2019-04-19T13:09:45Z</time>
      </trkpt>
      <trkpt lat="44.15274" lon="3.12069">
        <ele>809</ele>
        <time>2019-04-19T13:09:46Z</time>
      </trkpt>
      <trkpt lat="44.15276" lon="3.12071">
        <ele>807.7</ele>
        <time>2019-04-19T13:09:47Z</time>
      </trkpt>
      <trkpt lat="44.15279" lon="3.12076">
        <ele>808.8</ele>
        <time>2019-04-19T13:09:49Z</time>
      </trkpt>
      <trkpt lat="44.15281" lon="3.12079">
        <ele>807.7</ele>
        <time>2019-04-19T13:09:50Z</time>
      </trkpt>
      <trkpt lat="44.15283" lon="3.12082">
        <ele>808.9</ele>
        <time>2019-04-19T13:09:52Z</time>
      </trkpt>
      <trkpt lat="44.15285" lon="3.12086">
        <ele>809.1</ele>
        <time>2019-04-19T13:09:53Z</time>
      </trkpt>
      <trkpt lat="44.15287" lon="3.12089">
        <ele>808.2</ele>
        <time>2019-04-19T13:09:57Z</time>
      </trkpt>
      <trkpt lat="44.15292" lon="3.12096">
        <ele>808.7</ele>
        <time>2019-04-19T13:10:16Z</time>
      </trkpt>
      <trkpt lat="44.15294" lon="3.12099">
        <ele>808.9</ele>
        <time>2019-04-19T13:10:18Z</time>
      </trkpt>
      <trkpt lat="44.15297" lon="3.12101">
        <ele>809.1</ele>
        <time>2019-04-19T13:10:19Z</time>
      </trkpt>
      <trkpt lat="44.15301" lon="3.12104">
        <ele>809.4</ele>
        <time>2019-04-19T13:10:21Z</time>
      </trkpt>
      <trkpt lat="44.15304" lon="3.12106">
        <ele>809.6</ele>
        <time>2019-04-19T13:10:23Z</time>
      </trkpt>
      <trkpt lat="44.15307" lon="3.12108">
        <ele>809.8</ele>
        <time>2019-04-19T13:10:26Z</time>
      </trkpt>
      <trkpt lat="44.1531" lon="3.12111">
        <ele>809.9</ele>
        <time>2019-04-19T13:10:28Z</time>
      </trkpt>
      <trkpt lat="44.15315" lon="3.12116">
        <ele>810</ele>
        <time>2019-04-19T13:10:30Z</time>
      </trkpt>
      <trkpt lat="44.15318" lon="3.12121">
        <ele>810.1</ele>
        <time>2019-04-19T13:10:32Z</time>
      </trkpt>
      <trkpt lat="44.15321" lon="3.12126">
        <ele>810.2</ele>
        <time>2019-04-19T13:10:34Z</time>
      </trkpt>
      <trkpt lat="44.15324" lon="3.1213">
        <ele>810.3</ele>
        <time>2019-04-19T13:10:36Z</time>
      </trkpt>
      <trkpt lat="44.15328" lon="3.12133">
        <ele>810.4</ele>
        <time>2019-04-19T13:10:38Z</time>
      </trkpt>
      <trkpt lat="44.15332" lon="3.12135">
        <ele>810.4</ele>
        <time>2019-04-19T13:10:40Z</time>
      </trkpt>
      <trkpt lat="44.15335" lon="3.12138">
        <ele>810.3</ele>
        <time>2019-04-19T13:10:41Z</time>
      </trkpt>
      <trkpt lat="44.15339" lon="3.12141">
        <ele>810.2</ele>
        <time>2019-04-19T13:10:42Z</time>
      </trkpt>
      <trkpt lat="44.15343" lon="3.12144">
        <ele>810</ele>
        <time>2019-04-19T13:10:43Z</time>
      </trkpt>
      <trkpt lat="44.15347" lon="3.12147">
        <ele>809.9</ele>
        <time>2019-04-19T13:10:44Z</time>
      </trkpt>
      <trkpt lat="44.15351" lon="3.12151">
        <ele>809.8</ele>
        <time>2019-04-19T13:10:45Z</time>
      </trkpt>
      <trkpt lat="44.15356" lon="3.12154">
        <ele>809.7</ele>
        <time>2019-04-19T13:10:46Z</time>
      </trkpt>
      <trkpt lat="44.1536" lon="3.12158">
        <ele>809.6</ele>
        <time>2019-04-19T13:10:47Z</time>
      </trkpt>
      <trkpt lat="44.15363" lon="3.12162">
        <ele>809.5</ele>
        <time>2019-04-19T13:10:48Z</time>
      </trkpt>
      <trkpt lat="44.15366" lon="3.12166">
        <ele>809.5</ele>
        <time>2019-04-19T13:10:49Z</time>
      </trkpt>
      <trkpt lat="44.1537" lon="3.1217">
        <ele>809.5</ele>
        <time>2019-04-19T13:10:50Z</time>
      </trkpt>
      <trkpt lat="44.15373" lon="3.12173">
        <ele>809.5</ele>
        <time>2019-04-19T13:10:51Z</time>
      </trkpt>
      <trkpt lat="44.15377" lon="3.12175">
        <ele>809.5</ele>
        <time>2019-04-19T13:10:52Z</time>
      </trkpt>
      <trkpt lat="44.15381" lon="3.12177">
        <ele>809.7</ele>
        <time>2019-04-19T13:10:53Z</time>
      </trkpt>
      <trkpt lat="44.15385" lon="3.1218">
        <ele>809.8</ele>
        <time>2019-04-19T13:10:54Z</time>
      </trkpt>
      <trkpt lat="44.15389" lon="3.12183">
        <ele>810</ele>
        <time>2019-04-19T13:10:55Z</time>
      </trkpt>
      <trkpt lat="44.15392" lon="3.12185">
        <ele>810.1</ele>
        <time>2019-04-19T13:10:56Z</time>
      </trkpt>
      <trkpt lat="44.15395" lon="3.12187">
        <ele>810.3</ele>
        <time>2019-04-19T13:10:57Z</time>
      </trkpt>
      <trkpt lat="44.15398" lon="3.12189">
        <ele>810.4</ele>
        <time>2019-04-19T13:10:58Z</time>
      </trkpt>
      <trkpt lat="44.15401" lon="3.12192">
        <ele>810.6</ele>
        <time>2019-04-19T13:10:59Z</time>
      </trkpt>
      <trkpt lat="44.15403" lon="3.12197">
        <ele>810.7</ele>
        <time>2019-04-19T13:11:00Z</time>
      </trkpt>
      <trkpt lat="44.15405" lon="3.12202">
        <ele>810.8</ele>
        <time>2019-04-19T13:11:02Z</time>
      </trkpt>
      <trkpt lat="44.15408" lon="3.12203">
        <ele>810.9</ele>
        <time>2019-04-19T13:11:05Z</time>
      </trkpt>
      <trkpt lat="44.15411" lon="3.12205">
        <ele>810.9</ele>
        <time>2019-04-19T13:11:10Z</time>
      </trkpt>
      <trkpt lat="44.15414" lon="3.12211">
        <ele>811</ele>
        <time>2019-04-19T13:11:12Z</time>
      </trkpt>
      <trkpt lat="44.15417" lon="3.12216">
        <ele>811</ele>
        <time>2019-04-19T13:11:14Z</time>
      </trkpt>
      <trkpt lat="44.15421" lon="3.1222">
        <ele>811.1</ele>
        <time>2019-04-19T13:11:16Z</time>
      </trkpt>
      <trkpt lat="44.15422" lon="3.12223">
        <ele>811.1</ele>
        <time>2019-04-19T13:11:17Z</time>
      </trkpt>
      <trkpt lat="44.15424" lon="3.12227">
        <ele>811.1</ele>
        <time>2019-04-19T13:11:18Z</time>
      </trkpt>
      <trkpt lat="44.15425" lon="3.12233">
        <ele>811.2</ele>
        <time>2019-04-19T13:11:20Z</time>
      </trkpt>
      <trkpt lat="44.15425" lon="3.12238">
        <ele>811.2</ele>
        <time>2019-04-19T13:11:21Z</time>
      </trkpt>
      <trkpt lat="44.15423" lon="3.12241">
        <ele>811.2</ele>
        <time>2019-04-19T13:11:22Z</time>
      </trkpt>
      <trkpt lat="44.15422" lon="3.12245">
        <ele>811.2</ele>
        <time>2019-04-19T13:11:23Z</time>
      </trkpt>
      <trkpt lat="44.1542" lon="3.12249">
        <ele>811.3</ele>
        <time>2019-04-19T13:11:24Z</time>
      </trkpt>
      <trkpt lat="44.1542" lon="3.12253">
        <ele>811.3</ele>
        <time>2019-04-19T13:11:25Z</time>
      </trkpt>
      <trkpt lat="44.15423" lon="3.12259">
        <ele>811.3</ele>
        <time>2019-04-19T13:11:27Z</time>
      </trkpt>
      <trkpt lat="44.15426" lon="3.12261">
        <ele>811.3</ele>
        <time>2019-04-19T13:11:28Z</time>
      </trkpt>
      <trkpt lat="44.15429" lon="3.12263">
        <ele>811.3</ele>
        <time>2019-04-19T13:11:29Z</time>
      </trkpt>
      <trkpt lat="44.15432" lon="3.12265">
        <ele>811.3</ele>
        <time>2019-04-19T13:11:30Z</time>
      </trkpt>
      <trkpt lat="44.15436" lon="3.12266">
        <ele>811.3</ele>
        <time>2019-04-19T13:11:31Z</time>
      </trkpt>
      <trkpt lat="44.15441" lon="3.12267">
        <ele>811.3</ele>
        <time>2019-04-19T13:11:32Z</time>
      </trkpt>
      <trkpt lat="44.15446" lon="3.12268">
        <ele>811.3</ele>
        <time>2019-04-19T13:11:33Z</time>
      </trkpt>
      <trkpt lat="44.15451" lon="3.12268">
        <ele>811.3</ele>
        <time>2019-04-19T13:11:34Z</time>
      </trkpt>
      <trkpt lat="44.15454" lon="3.12269">
        <ele>811.3</ele>
        <time>2019-04-19T13:11:35Z</time>
      </trkpt>
      <trkpt lat="44.15458" lon="3.1227">
        <ele>811.3</ele>
        <time>2019-04-19T13:13:11Z</time>
      </trkpt>
      <trkpt lat="44.15459" lon="3.12274">
        <ele>811.3</ele>
        <time>2019-04-19T13:13:13Z</time>
      </trkpt>
      <trkpt lat="44.15461" lon="3.12279">
        <ele>811.3</ele>
        <time>2019-04-19T13:13:15Z</time>
      </trkpt>
      <trkpt lat="44.15466" lon="3.12284">
        <ele>811.3</ele>
        <time>2019-04-19T13:13:17Z</time>
      </trkpt>
      <trkpt lat="44.15469" lon="3.1229">
        <ele>811.3</ele>
        <time>2019-04-19T13:13:18Z</time>
      </trkpt>
      <trkpt lat="44.15473" lon="3.12294">
        <ele>811.3</ele>
        <time>2019-04-19T13:13:19Z</time>
      </trkpt>
      <trkpt lat="44.15477" lon="3.12299">
        <ele>811.3</ele>
        <time>2019-04-19T13:13:20Z</time>
      </trkpt>
      <trkpt lat="44.1548" lon="3.12304">
        <ele>811.4</ele>
        <time>2019-04-19T13:13:21Z</time>
      </trkpt>
      <trkpt lat="44.15484" lon="3.12308">
        <ele>811.4</ele>
        <time>2019-04-19T13:13:22Z</time>
      </trkpt>
      <trkpt lat="44.15488" lon="3.12312">
        <ele>811.4</ele>
        <time>2019-04-19T13:13:23Z</time>
      </trkpt>
      <trkpt lat="44.15492" lon="3.12316">
        <ele>811.4</ele>
        <time>2019-04-19T13:13:24Z</time>
      </trkpt>
      <trkpt lat="44.15495" lon="3.12321">
        <ele>811.4</ele>
        <time>2019-04-19T13:13:25Z</time>
      </trkpt>
      <trkpt lat="44.15499" lon="3.12324">
        <ele>811.5</ele>
        <time>2019-04-19T13:13:26Z</time>
      </trkpt>
      <trkpt lat="44.15505" lon="3.12329">
        <ele>811.6</ele>
        <time>2019-04-19T13:13:27Z</time>
      </trkpt>
      <trkpt lat="44.15507" lon="3.12335">
        <ele>811.6</ele>
        <time>2019-04-19T13:13:28Z</time>
      </trkpt>
      <trkpt lat="44.15508" lon="3.12341">
        <ele>811.7</ele>
        <time>2019-04-19T13:13:29Z</time>
      </trkpt>
      <trkpt lat="44.15511" lon="3.12346">
        <ele>811.7</ele>
        <time>2019-04-19T13:13:30Z</time>
      </trkpt>
      <trkpt lat="44.15514" lon="3.12351">
        <ele>811.8</ele>
        <time>2019-04-19T13:13:31Z</time>
      </trkpt>
      <trkpt lat="44.15515" lon="3.12358">
        <ele>811.8</ele>
        <time>2019-04-19T13:13:33Z</time>
      </trkpt>
      <trkpt lat="44.15517" lon="3.12362">
        <ele>811.8</ele>
        <time>2019-04-19T13:13:34Z</time>
      </trkpt>
      <trkpt lat="44.15518" lon="3.12365">
        <ele>811.9</ele>
        <time>2019-04-19T13:13:35Z</time>
      </trkpt>
      <trkpt lat="44.15521" lon="3.12367">
        <ele>811.9</ele>
        <time>2019-04-19T13:13:36Z</time>
      </trkpt>
      <trkpt lat="44.15526" lon="3.12368">
        <ele>812</ele>
        <time>2019-04-19T13:13:37Z</time>
      </trkpt>
      <trkpt lat="44.15528" lon="3.12371">
        <ele>812</ele>
        <time>2019-04-19T13:13:38Z</time>
      </trkpt>
      <trkpt lat="44.15533" lon="3.12374">
        <ele>812.1</ele>
        <time>2019-04-19T13:13:39Z</time>
      </trkpt>
      <trkpt lat="44.15536" lon="3.12375">
        <ele>812.1</ele>
        <time>2019-04-19T13:13:40Z</time>
      </trkpt>
      <trkpt lat="44.15539" lon="3.12378">
        <ele>812.2</ele>
        <time>2019-04-19T13:13:41Z</time>
      </trkpt>
      <trkpt lat="44.15543" lon="3.12381">
        <ele>812.2</ele>
        <time>2019-04-19T13:13:42Z</time>
      </trkpt>
      <trkpt lat="44.15547" lon="3.12384">
        <ele>812.3</ele>
        <time>2019-04-19T13:13:43Z</time>
      </trkpt>
      <trkpt lat="44.1555" lon="3.12386">
        <ele>812.4</ele>
        <time>2019-04-19T13:13:44Z</time>
      </trkpt>
      <trkpt lat="44.15553" lon="3.12388">
        <ele>812.5</ele>
        <time>2019-04-19T13:13:45Z</time>
      </trkpt>
      <trkpt lat="44.15556" lon="3.1239">
        <ele>812.6</ele>
        <time>2019-04-19T13:13:46Z</time>
      </trkpt>
      <trkpt lat="44.1556" lon="3.12392">
        <ele>812.7</ele>
        <time>2019-04-19T13:13:48Z</time>
      </trkpt>
      <trkpt lat="44.15564" lon="3.12392">
        <ele>812.9</ele>
        <time>2019-04-19T13:13:50Z</time>
      </trkpt>
      <trkpt lat="44.15569" lon="3.12391">
        <ele>813.2</ele>
        <time>2019-04-19T13:13:52Z</time>
      </trkpt>
      <trkpt lat="44.15572" lon="3.12392">
        <ele>813.4</ele>
        <time>2019-04-19T13:13:53Z</time>
      </trkpt>
      <trkpt lat="44.15575" lon="3.12393">
        <ele>813.6</ele>
        <time>2019-04-19T13:13:54Z</time>
      </trkpt>
      <trkpt lat="44.15578" lon="3.12394">
        <ele>813.9</ele>
        <time>2019-04-19T13:13:55Z</time>
      </trkpt>
      <trkpt lat="44.15581" lon="3.12396">
        <ele>814.2</ele>
        <time>2019-04-19T13:13:56Z</time>
      </trkpt>
      <trkpt lat="44.15584" lon="3.12397">
        <ele>814.5</ele>
        <time>2019-04-19T13:13:57Z</time>
      </trkpt>
      <trkpt lat="44.15587" lon="3.124">
        <ele>814.7</ele>
        <time>2019-04-19T13:13:58Z</time>
      </trkpt>
      <trkpt lat="44.15591" lon="3.12402">
        <ele>815</ele>
        <time>2019-04-19T13:13:59Z</time>
      </trkpt>
      <trkpt lat="44.15594" lon="3.12405">
        <ele>815.2</ele>
        <time>2019-04-19T13:14:00Z</time>
      </trkpt>
      <trkpt lat="44.15598" lon="3.12409">
        <ele>815.5</ele>
        <time>2019-04-19T13:14:01Z</time>
      </trkpt>
      <trkpt lat="44.15601" lon="3.12412">
        <ele>815.7</ele>
        <time>2019-04-19T13:14:02Z</time>
      </trkpt>
      <trkpt lat="44.15604" lon="3.12416">
        <ele>815.9</ele>
        <time>2019-04-19T13:14:03Z</time>
      </trkpt>
      <trkpt lat="44.15607" lon="3.12419">
        <ele>816</ele>
        <time>2019-04-19T13:14:04Z</time>
      </trkpt>
      <trkpt lat="44.1561" lon="3.1242">
        <ele>816</ele>
        <time>2019-04-19T13:14:05Z</time>
      </trkpt>
      <trkpt lat="44.15614" lon="3.12422">
        <ele>816.1</ele>
        <time>2019-04-19T13:14:06Z</time>
      </trkpt>
      <trkpt lat="44.15618" lon="3.12423">
        <ele>816.1</ele>
        <time>2019-04-19T13:14:07Z</time>
      </trkpt>
      <trkpt lat="44.15621" lon="3.12425">
        <ele>816.2</ele>
        <time>2019-04-19T13:14:08Z</time>
      </trkpt>
      <trkpt lat="44.15625" lon="3.12426">
        <ele>816.2</ele>
        <time>2019-04-19T13:14:09Z</time>
      </trkpt>
      <trkpt lat="44.15629" lon="3.12428">
        <ele>816.2</ele>
        <time>2019-04-19T13:14:10Z</time>
      </trkpt>
      <trkpt lat="44.15633" lon="3.12431">
        <ele>816.2</ele>
        <time>2019-04-19T13:14:11Z</time>
      </trkpt>
      <trkpt lat="44.15637" lon="3.12435">
        <ele>816.2</ele>
        <time>2019-04-19T13:14:12Z</time>
      </trkpt>
      <trkpt lat="44.1564" lon="3.12438">
        <ele>816.3</ele>
        <time>2019-04-19T13:14:13Z</time>
      </trkpt>
      <trkpt lat="44.15643" lon="3.12441">
        <ele>816.3</ele>
        <time>2019-04-19T13:14:14Z</time>
      </trkpt>
      <trkpt lat="44.15646" lon="3.12443">
        <ele>816.3</ele>
        <time>2019-04-19T13:14:15Z</time>
      </trkpt>
      <trkpt lat="44.1565" lon="3.12447">
        <ele>816.3</ele>
        <time>2019-04-19T13:14:16Z</time>
      </trkpt>
      <trkpt lat="44.15654" lon="3.12451">
        <ele>816.3</ele>
        <time>2019-04-19T13:14:17Z</time>
      </trkpt>
      <trkpt lat="44.15657" lon="3.12455">
        <ele>816.4</ele>
        <time>2019-04-19T13:14:18Z</time>
      </trkpt>
      <trkpt lat="44.15661" lon="3.12457">
        <ele>816.4</ele>
        <time>2019-04-19T13:14:19Z</time>
      </trkpt>
      <trkpt lat="44.15665" lon="3.12459">
        <ele>816.4</ele>
        <time>2019-04-19T13:14:20Z</time>
      </trkpt>
      <trkpt lat="44.15669" lon="3.12459">
        <ele>816.5</ele>
        <time>2019-04-19T13:14:21Z</time>
      </trkpt>
      <trkpt lat="44.15673" lon="3.1246">
        <ele>816.5</ele>
        <time>2019-04-19T13:14:22Z</time>
      </trkpt>
      <trkpt lat="44.15678" lon="3.12463">
        <ele>816.5</ele>
        <time>2019-04-19T13:14:23Z</time>
      </trkpt>
      <trkpt lat="44.15682" lon="3.12465">
        <ele>816.5</ele>
        <time>2019-04-19T13:14:24Z</time>
      </trkpt>
      <trkpt lat="44.15686" lon="3.12469">
        <ele>816.4</ele>
        <time>2019-04-19T13:14:25Z</time>
      </trkpt>
      <trkpt lat="44.15699" lon="3.12471">
        <ele>816</ele>
        <time>2019-04-19T13:14:26Z</time>
      </trkpt>
      <trkpt lat="44.15705" lon="3.12476">
        <ele>815.7</ele>
        <time>2019-04-19T13:14:27Z</time>
      </trkpt>
      <trkpt lat="44.15708" lon="3.12481">
        <ele>815.5</ele>
        <time>2019-04-19T13:14:28Z</time>
      </trkpt>
      <trkpt lat="44.15712" lon="3.12486">
        <ele>815.3</ele>
        <time>2019-04-19T13:14:29Z</time>
      </trkpt>
      <trkpt lat="44.15714" lon="3.12493">
        <ele>815</ele>
        <time>2019-04-19T13:14:30Z</time>
      </trkpt>
      <trkpt lat="44.15717" lon="3.125">
        <ele>814.8</ele>
        <time>2019-04-19T13:14:31Z</time>
      </trkpt>
      <trkpt lat="44.15719" lon="3.12506">
        <ele>814.6</ele>
        <time>2019-04-19T13:14:32Z</time>
      </trkpt>
      <trkpt lat="44.15723" lon="3.12512">
        <ele>814.2</ele>
        <time>2019-04-19T13:14:33Z</time>
      </trkpt>
      <trkpt lat="44.15727" lon="3.12519">
        <ele>813.9</ele>
        <time>2019-04-19T13:14:34Z</time>
      </trkpt>
      <trkpt lat="44.15732" lon="3.12527">
        <ele>813.4</ele>
        <time>2019-04-19T13:14:35Z</time>
      </trkpt>
      <trkpt lat="44.15734" lon="3.12537">
        <ele>813</ele>
        <time>2019-04-19T13:14:36Z</time>
      </trkpt>
      <trkpt lat="44.15736" lon="3.12546">
        <ele>812.7</ele>
        <time>2019-04-19T13:14:37Z</time>
      </trkpt>
      <trkpt lat="44.15737" lon="3.12556">
        <ele>812.3</ele>
        <time>2019-04-19T13:14:38Z</time>
      </trkpt>
      <trkpt lat="44.1574" lon="3.12565">
        <ele>812.1</ele>
        <time>2019-04-19T13:14:39Z</time>
      </trkpt>
      <trkpt lat="44.15742" lon="3.12579">
        <ele>812</ele>
        <time>2019-04-19T13:14:40Z</time>
      </trkpt>
      <trkpt lat="44.15745" lon="3.12588">
        <ele>812.1</ele>
        <time>2019-04-19T13:14:41Z</time>
      </trkpt>
      <trkpt lat="44.15747" lon="3.12597">
        <ele>812.2</ele>
        <time>2019-04-19T13:14:42Z</time>
      </trkpt>
      <trkpt lat="44.15747" lon="3.12603">
        <ele>812.2</ele>
        <time>2019-04-19T13:14:43Z</time>
      </trkpt>
      <trkpt lat="44.15749" lon="3.12607">
        <ele>812.3</ele>
        <time>2019-04-19T13:14:44Z</time>
      </trkpt>
      <trkpt lat="44.15753" lon="3.12607">
        <ele>812.4</ele>
        <time>2019-04-19T13:14:46Z</time>
      </trkpt>
      <trkpt lat="44.15758" lon="3.1261">
        <ele>812.4</ele>
        <time>2019-04-19T13:14:48Z</time>
      </trkpt>
      <trkpt lat="44.15763" lon="3.12614">
        <ele>812.4</ele>
        <time>2019-04-19T13:14:49Z</time>
      </trkpt>
      <trkpt lat="44.15769" lon="3.12618">
        <ele>812.2</ele>
        <time>2019-04-19T13:14:50Z</time>
      </trkpt>
      <trkpt lat="44.15772" lon="3.12622">
        <ele>812.1</ele>
        <time>2019-04-19T13:14:51Z</time>
      </trkpt>
      <trkpt lat="44.15774" lon="3.12626">
        <ele>812</ele>
        <time>2019-04-19T13:14:52Z</time>
      </trkpt>
      <trkpt lat="44.15779" lon="3.12627">
        <ele>811.8</ele>
        <time>2019-04-19T13:14:54Z</time>
      </trkpt>
      <trkpt lat="44.15781" lon="3.12629">
        <ele>811.7</ele>
        <time>2019-04-19T13:14:55Z</time>
      </trkpt>
      <trkpt lat="44.15784" lon="3.12633">
        <ele>811.4</ele>
        <time>2019-04-19T13:14:56Z</time>
      </trkpt>
      <trkpt lat="44.15787" lon="3.12638">
        <ele>811.2</ele>
        <time>2019-04-19T13:14:57Z</time>
      </trkpt>
      <trkpt lat="44.15789" lon="3.12644">
        <ele>810.9</ele>
        <time>2019-04-19T13:14:58Z</time>
      </trkpt>
      <trkpt lat="44.1579" lon="3.12649">
        <ele>810.7</ele>
        <time>2019-04-19T13:14:59Z</time>
      </trkpt>
      <trkpt lat="44.15792" lon="3.12653">
        <ele>810.4</ele>
        <time>2019-04-19T13:15:00Z</time>
      </trkpt>
      <trkpt lat="44.15795" lon="3.12657">
        <ele>810.1</ele>
        <time>2019-04-19T13:15:01Z</time>
      </trkpt>
      <trkpt lat="44.15797" lon="3.1266">
        <ele>809.7</ele>
        <time>2019-04-19T13:15:02Z</time>
      </trkpt>
      <trkpt lat="44.15798" lon="3.12667">
        <ele>809.3</ele>
        <time>2019-04-19T13:15:04Z</time>
      </trkpt>
      <trkpt lat="44.15801" lon="3.12675">
        <ele>808.5</ele>
        <time>2019-04-19T13:15:06Z</time>
      </trkpt>
      <trkpt lat="44.15803" lon="3.1268">
        <ele>808.1</ele>
        <time>2019-04-19T13:15:07Z</time>
      </trkpt>
      <trkpt lat="44.15806" lon="3.12686">
        <ele>807.7</ele>
        <time>2019-04-19T13:15:08Z</time>
      </trkpt>
      <trkpt lat="44.15808" lon="3.12693">
        <ele>807.2</ele>
        <time>2019-04-19T13:15:09Z</time>
      </trkpt>
      <trkpt lat="44.15808" lon="3.127">
        <ele>806.7</ele>
        <time>2019-04-19T13:15:10Z</time>
      </trkpt>
      <trkpt lat="44.15806" lon="3.12706">
        <ele>806.2</ele>
        <time>2019-04-19T13:15:11Z</time>
      </trkpt>
      <trkpt lat="44.15804" lon="3.12712">
        <ele>805.8</ele>
        <time>2019-04-19T13:15:12Z</time>
      </trkpt>
      <trkpt lat="44.15801" lon="3.12717">
        <ele>805.4</ele>
        <time>2019-04-19T13:15:13Z</time>
      </trkpt>
      <trkpt lat="44.15799" lon="3.12722">
        <ele>805.2</ele>
        <time>2019-04-19T13:15:14Z</time>
      </trkpt>
      <trkpt lat="44.15797" lon="3.12727">
        <ele>804.9</ele>
        <time>2019-04-19T13:15:15Z</time>
      </trkpt>
      <trkpt lat="44.15796" lon="3.12732">
        <ele>804.7</ele>
        <time>2019-04-19T13:15:16Z</time>
      </trkpt>
      <trkpt lat="44.15795" lon="3.1274">
        <ele>804.4</ele>
        <time>2019-04-19T13:15:18Z</time>
      </trkpt>
      <trkpt lat="44.15795" lon="3.12744">
        <ele>804.2</ele>
        <time>2019-04-19T13:15:19Z</time>
      </trkpt>
      <trkpt lat="44.15794" lon="3.12748">
        <ele>804</ele>
        <time>2019-04-19T13:15:20Z</time>
      </trkpt>
      <trkpt lat="44.15797" lon="3.12754">
        <ele>803.7</ele>
        <time>2019-04-19T13:15:22Z</time>
      </trkpt>
      <trkpt lat="44.15799" lon="3.12758">
        <ele>803.6</ele>
        <time>2019-04-19T13:15:23Z</time>
      </trkpt>
      <trkpt lat="44.15802" lon="3.12761">
        <ele>803.4</ele>
        <time>2019-04-19T13:15:24Z</time>
      </trkpt>
      <trkpt lat="44.15802" lon="3.12767">
        <ele>803.3</ele>
        <time>2019-04-19T13:15:25Z</time>
      </trkpt>
      <trkpt lat="44.15802" lon="3.12773">
        <ele>803.1</ele>
        <time>2019-04-19T13:15:26Z</time>
      </trkpt>
      <trkpt lat="44.15802" lon="3.1278">
        <ele>802.9</ele>
        <time>2019-04-19T13:15:27Z</time>
      </trkpt>
      <trkpt lat="44.15803" lon="3.12786">
        <ele>802.6</ele>
        <time>2019-04-19T13:15:28Z</time>
      </trkpt>
      <trkpt lat="44.15805" lon="3.12791">
        <ele>802.4</ele>
        <time>2019-04-19T13:15:29Z</time>
      </trkpt>
      <trkpt lat="44.15807" lon="3.12794">
        <ele>802.3</ele>
        <time>2019-04-19T13:15:30Z</time>
      </trkpt>
      <trkpt lat="44.15809" lon="3.12798">
        <ele>802.1</ele>
        <time>2019-04-19T13:15:31Z</time>
      </trkpt>
      <trkpt lat="44.15811" lon="3.12801">
        <ele>801.9</ele>
        <time>2019-04-19T13:15:32Z</time>
      </trkpt>
      <trkpt lat="44.15814" lon="3.12806">
        <ele>801.7</ele>
        <time>2019-04-19T13:15:34Z</time>
      </trkpt>
      <trkpt lat="44.15816" lon="3.12808">
        <ele>801.6</ele>
        <time>2019-04-19T13:15:35Z</time>
      </trkpt>
      <trkpt lat="44.15819" lon="3.12811">
        <ele>801.3</ele>
        <time>2019-04-19T13:15:36Z</time>
      </trkpt>
      <trkpt lat="44.15822" lon="3.12814">
        <ele>801.1</ele>
        <time>2019-04-19T13:15:37Z</time>
      </trkpt>
      <trkpt lat="44.15824" lon="3.12816">
        <ele>800.8</ele>
        <time>2019-04-19T13:15:38Z</time>
      </trkpt>
      <trkpt lat="44.15827" lon="3.12819">
        <ele>800.6</ele>
        <time>2019-04-19T13:15:39Z</time>
      </trkpt>
      <trkpt lat="44.1583" lon="3.12821">
        <ele>800.3</ele>
        <time>2019-04-19T13:15:40Z</time>
      </trkpt>
      <trkpt lat="44.15832" lon="3.12823">
        <ele>800.1</ele>
        <time>2019-04-19T13:15:41Z</time>
      </trkpt>
      <trkpt lat="44.15834" lon="3.12826">
        <ele>800.2</ele>
        <time>2019-04-19T13:15:42Z</time>
      </trkpt>
      <trkpt lat="44.15837" lon="3.12829">
        <ele>800.5</ele>
        <time>2019-04-19T13:15:43Z</time>
      </trkpt>
      <trkpt lat="44.1584" lon="3.12832">
        <ele>800.9</ele>
        <time>2019-04-19T13:15:44Z</time>
      </trkpt>
      <trkpt lat="44.15843" lon="3.12835">
        <ele>801.4</ele>
        <time>2019-04-19T13:15:45Z</time>
      </trkpt>
      <trkpt lat="44.15846" lon="3.12838">
        <ele>801.8</ele>
        <time>2019-04-19T13:15:46Z</time>
      </trkpt>
      <trkpt lat="44.15849" lon="3.12841">
        <ele>802.1</ele>
        <time>2019-04-19T13:15:47Z</time>
      </trkpt>
      <trkpt lat="44.15851" lon="3.12844">
        <ele>802.2</ele>
        <time>2019-04-19T13:15:48Z</time>
      </trkpt>
      <trkpt lat="44.15854" lon="3.12847">
        <ele>802.4</ele>
        <time>2019-04-19T13:15:50Z</time>
      </trkpt>
      <trkpt lat="44.15857" lon="3.12849">
        <ele>802.5</ele>
        <time>2019-04-19T13:15:51Z</time>
      </trkpt>
      <trkpt lat="44.15859" lon="3.12852">
        <ele>802.7</ele>
        <time>2019-04-19T13:15:52Z</time>
      </trkpt>
      <trkpt lat="44.15862" lon="3.12855">
        <ele>802.8</ele>
        <time>2019-04-19T13:15:53Z</time>
      </trkpt>
      <trkpt lat="44.15864" lon="3.12857">
        <ele>802.9</ele>
        <time>2019-04-19T13:15:54Z</time>
      </trkpt>
      <trkpt lat="44.15868" lon="3.12862">
        <ele>803.2</ele>
        <time>2019-04-19T13:15:56Z</time>
      </trkpt>
      <trkpt lat="44.15871" lon="3.12864">
        <ele>803.4</ele>
        <time>2019-04-19T13:15:57Z</time>
      </trkpt>
      <trkpt lat="44.15874" lon="3.12866">
        <ele>803.6</ele>
        <time>2019-04-19T13:15:58Z</time>
      </trkpt>
      <trkpt lat="44.15877" lon="3.12867">
        <ele>803.8</ele>
        <time>2019-04-19T13:15:59Z</time>
      </trkpt>
      <trkpt lat="44.15881" lon="3.12868">
        <ele>803.9</ele>
        <time>2019-04-19T13:16:00Z</time>
      </trkpt>
      <trkpt lat="44.15884" lon="3.1287">
        <ele>804.1</ele>
        <time>2019-04-19T13:16:01Z</time>
      </trkpt>
      <trkpt lat="44.15887" lon="3.12873">
        <ele>804.2</ele>
        <time>2019-04-19T13:16:02Z</time>
      </trkpt>
      <trkpt lat="44.1589" lon="3.12877">
        <ele>804.4</ele>
        <time>2019-04-19T13:16:04Z</time>
      </trkpt>
      <trkpt lat="44.15893" lon="3.12879">
        <ele>804.5</ele>
        <time>2019-04-19T13:16:06Z</time>
      </trkpt>
      <trkpt lat="44.15895" lon="3.12883">
        <ele>804.7</ele>
        <time>2019-04-19T13:16:08Z</time>
      </trkpt>
      <trkpt lat="44.15899" lon="3.12889">
        <ele>804.9</ele>
        <time>2019-04-19T13:16:10Z</time>
      </trkpt>
      <trkpt lat="44.15903" lon="3.12891">
        <ele>805.1</ele>
        <time>2019-04-19T13:16:11Z</time>
      </trkpt>
      <trkpt lat="44.15906" lon="3.12894">
        <ele>805.3</ele>
        <time>2019-04-19T13:16:12Z</time>
      </trkpt>
      <trkpt lat="44.15909" lon="3.12896">
        <ele>805.4</ele>
        <time>2019-04-19T13:16:13Z</time>
      </trkpt>
      <trkpt lat="44.15913" lon="3.12898">
        <ele>805.5</ele>
        <time>2019-04-19T13:16:14Z</time>
      </trkpt>
      <trkpt lat="44.15917" lon="3.129">
        <ele>805.6</ele>
        <time>2019-04-19T13:16:15Z</time>
      </trkpt>
      <trkpt lat="44.1592" lon="3.12902">
        <ele>805.7</ele>
        <time>2019-04-19T13:16:16Z</time>
      </trkpt>
      <trkpt lat="44.15923" lon="3.12904">
        <ele>805.7</ele>
        <time>2019-04-19T13:16:17Z</time>
      </trkpt>
      <trkpt lat="44.15926" lon="3.12906">
        <ele>805.7</ele>
        <time>2019-04-19T13:16:18Z</time>
      </trkpt>
      <trkpt lat="44.15928" lon="3.12909">
        <ele>805.7</ele>
        <time>2019-04-19T13:16:19Z</time>
      </trkpt>
      <trkpt lat="44.1593" lon="3.12914">
        <ele>805.7</ele>
        <time>2019-04-19T13:16:21Z</time>
      </trkpt>
      <trkpt lat="44.1593" lon="3.12922">
        <ele>805.7</ele>
        <time>2019-04-19T13:16:23Z</time>
      </trkpt>
      <trkpt lat="44.1593" lon="3.12927">
        <ele>805.6</ele>
        <time>2019-04-19T13:16:24Z</time>
      </trkpt>
      <trkpt lat="44.15931" lon="3.12931">
        <ele>805.6</ele>
        <time>2019-04-19T13:16:25Z</time>
      </trkpt>
      <trkpt lat="44.15934" lon="3.12935">
        <ele>805.5</ele>
        <time>2019-04-19T13:16:26Z</time>
      </trkpt>
      <trkpt lat="44.15937" lon="3.12938">
        <ele>805.4</ele>
        <time>2019-04-19T13:16:27Z</time>
      </trkpt>
      <trkpt lat="44.1594" lon="3.12942">
        <ele>805.3</ele>
        <time>2019-04-19T13:16:28Z</time>
      </trkpt>
      <trkpt lat="44.15943" lon="3.12945">
        <ele>805.2</ele>
        <time>2019-04-19T13:16:29Z</time>
      </trkpt>
      <trkpt lat="44.15945" lon="3.12947">
        <ele>805.1</ele>
        <time>2019-04-19T13:16:30Z</time>
      </trkpt>
      <trkpt lat="44.15948" lon="3.12949">
        <ele>805.1</ele>
        <time>2019-04-19T13:16:31Z</time>
      </trkpt>
      <trkpt lat="44.1595" lon="3.12952">
        <ele>805</ele>
        <time>2019-04-19T13:16:32Z</time>
      </trkpt>
      <trkpt lat="44.15952" lon="3.12955">
        <ele>804.8</ele>
        <time>2019-04-19T13:16:33Z</time>
      </trkpt>
      <trkpt lat="44.15953" lon="3.1296">
        <ele>804.6</ele>
        <time>2019-04-19T13:16:34Z</time>
      </trkpt>
      <trkpt lat="44.15954" lon="3.12964">
        <ele>804.5</ele>
        <time>2019-04-19T13:16:35Z</time>
      </trkpt>
      <trkpt lat="44.15954" lon="3.1297">
        <ele>804.3</ele>
        <time>2019-04-19T13:16:36Z</time>
      </trkpt>
      <trkpt lat="44.15954" lon="3.12977">
        <ele>804.1</ele>
        <time>2019-04-19T13:16:37Z</time>
      </trkpt>
      <trkpt lat="44.15953" lon="3.12983">
        <ele>804</ele>
        <time>2019-04-19T13:16:38Z</time>
      </trkpt>
      <trkpt lat="44.15952" lon="3.12988">
        <ele>803.8</ele>
        <time>2019-04-19T13:16:39Z</time>
      </trkpt>
      <trkpt lat="44.15952" lon="3.12996">
        <ele>803.5</ele>
        <time>2019-04-19T13:16:40Z</time>
      </trkpt>
      <trkpt lat="44.15955" lon="3.13004">
        <ele>803.1</ele>
        <time>2019-04-19T13:16:41Z</time>
      </trkpt>
      <trkpt lat="44.15958" lon="3.13011">
        <ele>802.8</ele>
        <time>2019-04-19T13:16:42Z</time>
      </trkpt>
      <trkpt lat="44.15961" lon="3.13014">
        <ele>802.7</ele>
        <time>2019-04-19T13:16:43Z</time>
      </trkpt>
      <trkpt lat="44.15964" lon="3.13017">
        <ele>802.5</ele>
        <time>2019-04-19T13:16:44Z</time>
      </trkpt>
      <trkpt lat="44.15968" lon="3.13019">
        <ele>802.4</ele>
        <time>2019-04-19T13:16:45Z</time>
      </trkpt>
      <trkpt lat="44.15971" lon="3.13021">
        <ele>802.3</ele>
        <time>2019-04-19T13:16:46Z</time>
      </trkpt>
      <trkpt lat="44.15974" lon="3.13023">
        <ele>802.2</ele>
        <time>2019-04-19T13:16:47Z</time>
      </trkpt>
      <trkpt lat="44.15976" lon="3.13025">
        <ele>802.1</ele>
        <time>2019-04-19T13:16:48Z</time>
      </trkpt>
      <trkpt lat="44.1598" lon="3.13028">
        <ele>801.9</ele>
        <time>2019-04-19T13:16:49Z</time>
      </trkpt>
      <trkpt lat="44.15982" lon="3.13031">
        <ele>801.7</ele>
        <time>2019-04-19T13:16:50Z</time>
      </trkpt>
      <trkpt lat="44.15987" lon="3.13038">
        <ele>801.6</ele>
        <time>2019-04-19T13:16:52Z</time>
      </trkpt>
      <trkpt lat="44.15989" lon="3.13043">
        <ele>801.6</ele>
        <time>2019-04-19T13:16:54Z</time>
      </trkpt>
      <trkpt lat="44.15993" lon="3.13048">
        <ele>801.8</ele>
        <time>2019-04-19T13:17:07Z</time>
      </trkpt>
      <trkpt lat="44.15996" lon="3.1305">
        <ele>801.9</ele>
        <time>2019-04-19T13:17:10Z</time>
      </trkpt>
      <trkpt lat="44.15998" lon="3.13054">
        <ele>802</ele>
        <time>2019-04-19T13:17:12Z</time>
      </trkpt>
      <trkpt lat="44.16001" lon="3.13054">
        <ele>802.2</ele>
        <time>2019-04-19T13:17:19Z</time>
      </trkpt>
      <trkpt lat="44.16012" lon="3.13051">
        <ele>802.9</ele>
        <time>2019-04-19T13:18:45Z</time>
      </trkpt>
      <trkpt lat="44.16016" lon="3.1305">
        <ele>803.1</ele>
        <time>2019-04-19T13:18:46Z</time>
      </trkpt>
      <trkpt lat="44.1602" lon="3.1305">
        <ele>803.4</ele>
        <time>2019-04-19T13:18:48Z</time>
      </trkpt>
      <trkpt lat="44.16024" lon="3.13051">
        <ele>803.6</ele>
        <time>2019-04-19T13:18:50Z</time>
      </trkpt>
      <trkpt lat="44.16028" lon="3.13052">
        <ele>803.9</ele>
        <time>2019-04-19T13:18:52Z</time>
      </trkpt>
      <trkpt lat="44.16032" lon="3.13053">
        <ele>804.2</ele>
        <time>2019-04-19T13:18:53Z</time>
      </trkpt>
      <trkpt lat="44.16035" lon="3.13054">
        <ele>804.3</ele>
        <time>2019-04-19T13:18:54Z</time>
      </trkpt>
      <trkpt lat="44.16039" lon="3.13055">
        <ele>804.5</ele>
        <time>2019-04-19T13:18:55Z</time>
      </trkpt>
      <trkpt lat="44.16042" lon="3.13056">
        <ele>804.6</ele>
        <time>2019-04-19T13:18:56Z</time>
      </trkpt>
      <trkpt lat="44.16048" lon="3.13057">
        <ele>804.8</ele>
        <time>2019-04-19T13:18:57Z</time>
      </trkpt>
      <trkpt lat="44.16053" lon="3.13058">
        <ele>804.9</ele>
        <time>2019-04-19T13:18:58Z</time>
      </trkpt>
      <trkpt lat="44.16057" lon="3.13057">
        <ele>805.1</ele>
        <time>2019-04-19T13:18:59Z</time>
      </trkpt>
      <trkpt lat="44.16059" lon="3.13053">
        <ele>805.2</ele>
        <time>2019-04-19T13:19:00Z</time>
      </trkpt>
      <trkpt lat="44.16062" lon="3.13048">
        <ele>805.4</ele>
        <time>2019-04-19T13:19:01Z</time>
      </trkpt>
      <trkpt lat="44.16064" lon="3.13043">
        <ele>805.6</ele>
        <time>2019-04-19T13:19:02Z</time>
      </trkpt>
      <trkpt lat="44.16066" lon="3.13038">
        <ele>805.8</ele>
        <time>2019-04-19T13:19:03Z</time>
      </trkpt>
      <trkpt lat="44.16067" lon="3.13033">
        <ele>805.9</ele>
        <time>2019-04-19T13:19:04Z</time>
      </trkpt>
      <trkpt lat="44.16068" lon="3.13027">
        <ele>806</ele>
        <time>2019-04-19T13:19:06Z</time>
      </trkpt>
      <trkpt lat="44.1607" lon="3.13025">
        <ele>806.1</ele>
        <time>2019-04-19T13:19:07Z</time>
      </trkpt>
      <trkpt lat="44.16073" lon="3.13023">
        <ele>806.3</ele>
        <time>2019-04-19T13:19:08Z</time>
      </trkpt>
      <trkpt lat="44.16076" lon="3.1302">
        <ele>806.5</ele>
        <time>2019-04-19T13:19:09Z</time>
      </trkpt>
      <trkpt lat="44.16079" lon="3.13018">
        <ele>806.6</ele>
        <time>2019-04-19T13:19:10Z</time>
      </trkpt>
      <trkpt lat="44.16081" lon="3.13015">
        <ele>806.7</ele>
        <time>2019-04-19T13:19:11Z</time>
      </trkpt>
      <trkpt lat="44.16084" lon="3.13011">
        <ele>806.9</ele>
        <time>2019-04-19T13:19:12Z</time>
      </trkpt>
      <trkpt lat="44.16086" lon="3.13009">
        <ele>807.1</ele>
        <time>2019-04-19T13:19:13Z</time>
      </trkpt>
      <trkpt lat="44.16088" lon="3.13006">
        <ele>807.2</ele>
        <time>2019-04-19T13:19:14Z</time>
      </trkpt>
      <trkpt lat="44.16091" lon="3.13003">
        <ele>807.5</ele>
        <time>2019-04-19T13:19:15Z</time>
      </trkpt>
      <trkpt lat="44.16094" lon="3.13">
        <ele>807.8</ele>
        <time>2019-04-19T13:19:16Z</time>
      </trkpt>
      <trkpt lat="44.16097" lon="3.12996">
        <ele>808.1</ele>
        <time>2019-04-19T13:19:17Z</time>
      </trkpt>
      <trkpt lat="44.16099" lon="3.12992">
        <ele>808.3</ele>
        <time>2019-04-19T13:19:18Z</time>
      </trkpt>
      <trkpt lat="44.16102" lon="3.12989">
        <ele>808.6</ele>
        <time>2019-04-19T13:19:20Z</time>
      </trkpt>
      <trkpt lat="44.16105" lon="3.12987">
        <ele>808.8</ele>
        <time>2019-04-19T13:19:23Z</time>
      </trkpt>
      <trkpt lat="44.16109" lon="3.12987">
        <ele>809.1</ele>
        <time>2019-04-19T13:19:30Z</time>
      </trkpt>
      <trkpt lat="44.16113" lon="3.12987">
        <ele>809.5</ele>
        <time>2019-04-19T13:19:38Z</time>
      </trkpt>
      <trkpt lat="44.16116" lon="3.12987">
        <ele>809.8</ele>
        <time>2019-04-19T13:19:40Z</time>
      </trkpt>
      <trkpt lat="44.16122" lon="3.12988">
        <ele>810.3</ele>
        <time>2019-04-19T13:19:42Z</time>
      </trkpt>
      <trkpt lat="44.16125" lon="3.12988">
        <ele>810.6</ele>
        <time>2019-04-19T13:19:43Z</time>
      </trkpt>
      <trkpt lat="44.16128" lon="3.12988">
        <ele>810.7</ele>
        <time>2019-04-19T13:19:44Z</time>
      </trkpt>
      <trkpt lat="44.16131" lon="3.12988">
        <ele>810.9</ele>
        <time>2019-04-19T13:19:45Z</time>
      </trkpt>
      <trkpt lat="44.16135" lon="3.12988">
        <ele>811.1</ele>
        <time>2019-04-19T13:19:46Z</time>
      </trkpt>
      <trkpt lat="44.16138" lon="3.12989">
        <ele>811.2</ele>
        <time>2019-04-19T13:19:47Z</time>
      </trkpt>
      <trkpt lat="44.16141" lon="3.12994">
        <ele>811.4</ele>
        <time>2019-04-19T13:19:49Z</time>
      </trkpt>
      <trkpt lat="44.16141" lon="3.12998">
        <ele>811.5</ele>
        <time>2019-04-19T13:19:50Z</time>
      </trkpt>
      <trkpt lat="44.1614" lon="3.13004">
        <ele>811.6</ele>
        <time>2019-04-19T13:19:51Z</time>
      </trkpt>
      <trkpt lat="44.16138" lon="3.13008">
        <ele>811.7</ele>
        <time>2019-04-19T13:19:52Z</time>
      </trkpt>
      <trkpt lat="44.16135" lon="3.13012">
        <ele>811.7</ele>
        <time>2019-04-19T13:19:53Z</time>
      </trkpt>
      <trkpt lat="44.16133" lon="3.13018">
        <ele>811.8</ele>
        <time>2019-04-19T13:19:54Z</time>
      </trkpt>
      <trkpt lat="44.16133" lon="3.13023">
        <ele>811.8</ele>
        <time>2019-04-19T13:19:55Z</time>
      </trkpt>
      <trkpt lat="44.16135" lon="3.13029">
        <ele>811.8</ele>
        <time>2019-04-19T13:19:56Z</time>
      </trkpt>
      <trkpt lat="44.16138" lon="3.13033">
        <ele>811.8</ele>
        <time>2019-04-19T13:19:57Z</time>
      </trkpt>
      <trkpt lat="44.1614" lon="3.13036">
        <ele>811.7</ele>
        <time>2019-04-19T13:19:58Z</time>
      </trkpt>
      <trkpt lat="44.16144" lon="3.1304">
        <ele>811.7</ele>
        <time>2019-04-19T13:20:00Z</time>
      </trkpt>
      <trkpt lat="44.16147" lon="3.13039">
        <ele>811.7</ele>
        <time>2019-04-19T13:20:02Z</time>
      </trkpt>
      <trkpt lat="44.16151" lon="3.13042">
        <ele>811.7</ele>
        <time>2019-04-19T13:20:04Z</time>
      </trkpt>
      <trkpt lat="44.16154" lon="3.13043">
        <ele>811.7</ele>
        <time>2019-04-19T13:20:05Z</time>
      </trkpt>
      <trkpt lat="44.16157" lon="3.13043">
        <ele>811.7</ele>
        <time>2019-04-19T13:20:06Z</time>
      </trkpt>
      <trkpt lat="44.1616" lon="3.13043">
        <ele>811.7</ele>
        <time>2019-04-19T13:20:07Z</time>
      </trkpt>
      <trkpt lat="44.16164" lon="3.13047">
        <ele>811.7</ele>
        <time>2019-04-19T13:20:09Z</time>
      </trkpt>
      <trkpt lat="44.16165" lon="3.1305">
        <ele>811.7</ele>
        <time>2019-04-19T13:20:10Z</time>
      </trkpt>
      <trkpt lat="44.16166" lon="3.13057">
        <ele>811.7</ele>
        <time>2019-04-19T13:20:12Z</time>
      </trkpt>
      <trkpt lat="44.16168" lon="3.13064">
        <ele>811.7</ele>
        <time>2019-04-19T13:20:13Z</time>
      </trkpt>
      <trkpt lat="44.16169" lon="3.13071">
        <ele>811.7</ele>
        <time>2019-04-19T13:20:14Z</time>
      </trkpt>
      <trkpt lat="44.16169" lon="3.13077">
        <ele>811.8</ele>
        <time>2019-04-19T13:20:15Z</time>
      </trkpt>
      <trkpt lat="44.16173" lon="3.13081">
        <ele>811.8</ele>
        <time>2019-04-19T13:20:16Z</time>
      </trkpt>
      <trkpt lat="44.16176" lon="3.13085">
        <ele>811.9</ele>
        <time>2019-04-19T13:20:17Z</time>
      </trkpt>
      <trkpt lat="44.16178" lon="3.13091">
        <ele>812</ele>
        <time>2019-04-19T13:20:18Z</time>
      </trkpt>
      <trkpt lat="44.16179" lon="3.13093">
        <ele>812</ele>
        <time>2019-04-19T13:20:19Z</time>
      </trkpt>
      <trkpt lat="44.1618" lon="3.13098">
        <ele>812.1</ele>
        <time>2019-04-19T13:20:20Z</time>
      </trkpt>
      <trkpt lat="44.16179" lon="3.13101">
        <ele>812.2</ele>
        <time>2019-04-19T13:20:21Z</time>
      </trkpt>
      <trkpt lat="44.16179" lon="3.13106">
        <ele>812.3</ele>
        <time>2019-04-19T13:20:22Z</time>
      </trkpt>
      <trkpt lat="44.16178" lon="3.13113">
        <ele>812.4</ele>
        <time>2019-04-19T13:20:23Z</time>
      </trkpt>
      <trkpt lat="44.16181" lon="3.13115">
        <ele>812.5</ele>
        <time>2019-04-19T13:20:24Z</time>
      </trkpt>
      <trkpt lat="44.16184" lon="3.13116">
        <ele>812.6</ele>
        <time>2019-04-19T13:20:25Z</time>
      </trkpt>
      <trkpt lat="44.16187" lon="3.13117">
        <ele>812.8</ele>
        <time>2019-04-19T13:20:27Z</time>
      </trkpt>
      <trkpt lat="44.1619" lon="3.13118">
        <ele>813</ele>
        <time>2019-04-19T13:20:28Z</time>
      </trkpt>
      <trkpt lat="44.16193" lon="3.13118">
        <ele>813.1</ele>
        <time>2019-04-19T13:20:29Z</time>
      </trkpt>
      <trkpt lat="44.16195" lon="3.13118">
        <ele>813.3</ele>
        <time>2019-04-19T13:20:30Z</time>
      </trkpt>
      <trkpt lat="44.16199" lon="3.13117">
        <ele>813.4</ele>
        <time>2019-04-19T13:20:32Z</time>
      </trkpt>
      <trkpt lat="44.16203" lon="3.13119">
        <ele>813.8</ele>
        <time>2019-04-19T13:20:34Z</time>
      </trkpt>
      <trkpt lat="44.16206" lon="3.13123">
        <ele>814</ele>
        <time>2019-04-19T13:20:36Z</time>
      </trkpt>
      <trkpt lat="44.16211" lon="3.13126">
        <ele>814.4</ele>
        <time>2019-04-19T13:20:38Z</time>
      </trkpt>
      <trkpt lat="44.16214" lon="3.13127">
        <ele>814.6</ele>
        <time>2019-04-19T13:20:39Z</time>
      </trkpt>
      <trkpt lat="44.16217" lon="3.13129">
        <ele>814.8</ele>
        <time>2019-04-19T13:20:40Z</time>
      </trkpt>
      <trkpt lat="44.16219" lon="3.1313">
        <ele>815</ele>
        <time>2019-04-19T13:20:41Z</time>
      </trkpt>
      <trkpt lat="44.16223" lon="3.13133">
        <ele>815.3</ele>
        <time>2019-04-19T13:20:42Z</time>
      </trkpt>
      <trkpt lat="44.16226" lon="3.13136">
        <ele>815.6</ele>
        <time>2019-04-19T13:20:43Z</time>
      </trkpt>
      <trkpt lat="44.16229" lon="3.13139">
        <ele>815.9</ele>
        <time>2019-04-19T13:20:44Z</time>
      </trkpt>
      <trkpt lat="44.16232" lon="3.13143">
        <ele>816.2</ele>
        <time>2019-04-19T13:20:45Z</time>
      </trkpt>
      <trkpt lat="44.16234" lon="3.13146">
        <ele>816.4</ele>
        <time>2019-04-19T13:20:46Z</time>
      </trkpt>
      <trkpt lat="44.16236" lon="3.13149">
        <ele>816.7</ele>
        <time>2019-04-19T13:20:47Z</time>
      </trkpt>
      <trkpt lat="44.16239" lon="3.13152">
        <ele>816.9</ele>
        <time>2019-04-19T13:20:48Z</time>
      </trkpt>
      <trkpt lat="44.16243" lon="3.13155">
        <ele>817.1</ele>
        <time>2019-04-19T13:20:49Z</time>
      </trkpt>
      <trkpt lat="44.16247" lon="3.13158">
        <ele>817.3</ele>
        <time>2019-04-19T13:20:50Z</time>
      </trkpt>
      <trkpt lat="44.16251" lon="3.13159">
        <ele>817.5</ele>
        <time>2019-04-19T13:20:51Z</time>
      </trkpt>
      <trkpt lat="44.16254" lon="3.13162">
        <ele>817.6</ele>
        <time>2019-04-19T13:20:52Z</time>
      </trkpt>
      <trkpt lat="44.16258" lon="3.13164">
        <ele>817.8</ele>
        <time>2019-04-19T13:20:53Z</time>
      </trkpt>
      <trkpt lat="44.16261" lon="3.13167">
        <ele>817.9</ele>
        <time>2019-04-19T13:20:54Z</time>
      </trkpt>
      <trkpt lat="44.16264" lon="3.13169">
        <ele>818</ele>
        <time>2019-04-19T13:20:55Z</time>
      </trkpt>
      <trkpt lat="44.16268" lon="3.13172">
        <ele>818.2</ele>
        <time>2019-04-19T13:20:56Z</time>
      </trkpt>
      <trkpt lat="44.1627" lon="3.13175">
        <ele>818.2</ele>
        <time>2019-04-19T13:20:57Z</time>
      </trkpt>
      <trkpt lat="44.16274" lon="3.13178">
        <ele>818.4</ele>
        <time>2019-04-19T13:20:59Z</time>
      </trkpt>
      <trkpt lat="44.16276" lon="3.1318">
        <ele>818.4</ele>
        <time>2019-04-19T13:21:00Z</time>
      </trkpt>
      <trkpt lat="44.16281" lon="3.13183">
        <ele>818.6</ele>
        <time>2019-04-19T13:21:02Z</time>
      </trkpt>
      <trkpt lat="44.16286" lon="3.13187">
        <ele>818.7</ele>
        <time>2019-04-19T13:21:04Z</time>
      </trkpt>
      <trkpt lat="44.16288" lon="3.13192">
        <ele>818.9</ele>
        <time>2019-04-19T13:21:06Z</time>
      </trkpt>
      <trkpt lat="44.1629" lon="3.13195">
        <ele>819.1</ele>
        <time>2019-04-19T13:21:09Z</time>
      </trkpt>
      <trkpt lat="44.16294" lon="3.13197">
        <ele>819.3</ele>
        <time>2019-04-19T13:21:11Z</time>
      </trkpt>
      <trkpt lat="44.16299" lon="3.13201">
        <ele>819.6</ele>
        <time>2019-04-19T13:21:13Z</time>
      </trkpt>
      <trkpt lat="44.16302" lon="3.13204">
        <ele>819.7</ele>
        <time>2019-04-19T13:21:14Z</time>
      </trkpt>
      <trkpt lat="44.16305" lon="3.13207">
        <ele>819.8</ele>
        <time>2019-04-19T13:21:15Z</time>
      </trkpt>
      <trkpt lat="44.16309" lon="3.1321">
        <ele>819.9</ele>
        <time>2019-04-19T13:21:16Z</time>
      </trkpt>
      <trkpt lat="44.16313" lon="3.13212">
        <ele>820</ele>
        <time>2019-04-19T13:21:17Z</time>
      </trkpt>
      <trkpt lat="44.16316" lon="3.13213">
        <ele>820</ele>
        <time>2019-04-19T13:21:18Z</time>
      </trkpt>
      <trkpt lat="44.1632" lon="3.13215">
        <ele>820.1</ele>
        <time>2019-04-19T13:21:19Z</time>
      </trkpt>
      <trkpt lat="44.16324" lon="3.1322">
        <ele>820.2</ele>
        <time>2019-04-19T13:21:21Z</time>
      </trkpt>
      <trkpt lat="44.16327" lon="3.13223">
        <ele>820.2</ele>
        <time>2019-04-19T13:21:22Z</time>
      </trkpt>
      <trkpt lat="44.16339" lon="3.13229">
        <ele>820.2</ele>
        <time>2019-04-19T13:21:23Z</time>
      </trkpt>
      <trkpt lat="44.16345" lon="3.13232">
        <ele>820.2</ele>
        <time>2019-04-19T13:21:24Z</time>
      </trkpt>
      <trkpt lat="44.16352" lon="3.13236">
        <ele>820.1</ele>
        <time>2019-04-19T13:21:25Z</time>
      </trkpt>
      <trkpt lat="44.16356" lon="3.1324">
        <ele>820</ele>
        <time>2019-04-19T13:21:26Z</time>
      </trkpt>
      <trkpt lat="44.16359" lon="3.13243">
        <ele>819.9</ele>
        <time>2019-04-19T13:21:27Z</time>
      </trkpt>
      <trkpt lat="44.16366" lon="3.13248">
        <ele>819.7</ele>
        <time>2019-04-19T13:21:28Z</time>
      </trkpt>
      <trkpt lat="44.16371" lon="3.13253">
        <ele>819.5</ele>
        <time>2019-04-19T13:21:29Z</time>
      </trkpt>
      <trkpt lat="44.16378" lon="3.13256">
        <ele>819.3</ele>
        <time>2019-04-19T13:21:30Z</time>
      </trkpt>
      <trkpt lat="44.16382" lon="3.13252">
        <ele>819</ele>
        <time>2019-04-19T13:21:31Z</time>
      </trkpt>
      <trkpt lat="44.16386" lon="3.13253">
        <ele>818.7</ele>
        <time>2019-04-19T13:21:32Z</time>
      </trkpt>
      <trkpt lat="44.16391" lon="3.13253">
        <ele>818.5</ele>
        <time>2019-04-19T13:21:33Z</time>
      </trkpt>
      <trkpt lat="44.16395" lon="3.13257">
        <ele>818.3</ele>
        <time>2019-04-19T13:21:34Z</time>
      </trkpt>
      <trkpt lat="44.16398" lon="3.1326">
        <ele>818.2</ele>
        <time>2019-04-19T13:21:35Z</time>
      </trkpt>
      <trkpt lat="44.16405" lon="3.13265">
        <ele>817.9</ele>
        <time>2019-04-19T13:21:36Z</time>
      </trkpt>
      <trkpt lat="44.16409" lon="3.13269">
        <ele>817.6</ele>
        <time>2019-04-19T13:21:37Z</time>
      </trkpt>
      <trkpt lat="44.16413" lon="3.13271">
        <ele>817.3</ele>
        <time>2019-04-19T13:21:38Z</time>
      </trkpt>
      <trkpt lat="44.16418" lon="3.13271">
        <ele>817.1</ele>
        <time>2019-04-19T13:21:39Z</time>
      </trkpt>
      <trkpt lat="44.16421" lon="3.13271">
        <ele>817</ele>
        <time>2019-04-19T13:21:40Z</time>
      </trkpt>
      <trkpt lat="44.16425" lon="3.13278">
        <ele>816.8</ele>
        <time>2019-04-19T13:21:41Z</time>
      </trkpt>
      <trkpt lat="44.1643" lon="3.13281">
        <ele>816.7</ele>
        <time>2019-04-19T13:21:42Z</time>
      </trkpt>
      <trkpt lat="44.16434" lon="3.13284">
        <ele>816.6</ele>
        <time>2019-04-19T13:21:43Z</time>
      </trkpt>
      <trkpt lat="44.1644" lon="3.13286">
        <ele>816.6</ele>
        <time>2019-04-19T13:21:44Z</time>
      </trkpt>
      <trkpt lat="44.16443" lon="3.13291">
        <ele>816.6</ele>
        <time>2019-04-19T13:21:45Z</time>
      </trkpt>
      <trkpt lat="44.16449" lon="3.13293">
        <ele>816.6</ele>
        <time>2019-04-19T13:21:46Z</time>
      </trkpt>
      <trkpt lat="44.16456" lon="3.13294">
        <ele>816.6</ele>
        <time>2019-04-19T13:21:47Z</time>
      </trkpt>
      <trkpt lat="44.16463" lon="3.13296">
        <ele>816.5</ele>
        <time>2019-04-19T13:21:48Z</time>
      </trkpt>
      <trkpt lat="44.16473" lon="3.13296">
        <ele>816.3</ele>
        <time>2019-04-19T13:21:49Z</time>
      </trkpt>
      <trkpt lat="44.16478" lon="3.133">
        <ele>816.2</ele>
        <time>2019-04-19T13:21:50Z</time>
      </trkpt>
      <trkpt lat="44.16485" lon="3.13304">
        <ele>816.1</ele>
        <time>2019-04-19T13:21:51Z</time>
      </trkpt>
      <trkpt lat="44.16495" lon="3.13305">
        <ele>815.9</ele>
        <time>2019-04-19T13:21:52Z</time>
      </trkpt>
      <trkpt lat="44.16503" lon="3.13305">
        <ele>815.7</ele>
        <time>2019-04-19T13:21:53Z</time>
      </trkpt>
      <trkpt lat="44.16509" lon="3.13304">
        <ele>815.5</ele>
        <time>2019-04-19T13:21:54Z</time>
      </trkpt>
      <trkpt lat="44.16517" lon="3.13304">
        <ele>815.4</ele>
        <time>2019-04-19T13:21:55Z</time>
      </trkpt>
      <trkpt lat="44.1652" lon="3.13308">
        <ele>815.3</ele>
        <time>2019-04-19T13:21:56Z</time>
      </trkpt>
      <trkpt lat="44.16525" lon="3.13312">
        <ele>815.2</ele>
        <time>2019-04-19T13:21:57Z</time>
      </trkpt>
      <trkpt lat="44.16528" lon="3.13316">
        <ele>815.1</ele>
        <time>2019-04-19T13:21:58Z</time>
      </trkpt>
      <trkpt lat="44.1653" lon="3.13324">
        <ele>815.1</ele>
        <time>2019-04-19T13:21:59Z</time>
      </trkpt>
      <trkpt lat="44.16532" lon="3.13331">
        <ele>815.2</ele>
        <time>2019-04-19T13:22:00Z</time>
      </trkpt>
      <trkpt lat="44.16537" lon="3.13334">
        <ele>815.2</ele>
        <time>2019-04-19T13:22:02Z</time>
      </trkpt>
      <trkpt lat="44.16543" lon="3.13335">
        <ele>815.3</ele>
        <time>2019-04-19T13:22:03Z</time>
      </trkpt>
      <trkpt lat="44.16549" lon="3.13338">
        <ele>815.3</ele>
        <time>2019-04-19T13:22:05Z</time>
      </trkpt>
      <trkpt lat="44.16551" lon="3.13343">
        <ele>815.4</ele>
        <time>2019-04-19T13:22:06Z</time>
      </trkpt>
      <trkpt lat="44.16554" lon="3.13346">
        <ele>815.5</ele>
        <time>2019-04-19T13:22:07Z</time>
      </trkpt>
      <trkpt lat="44.16557" lon="3.13347">
        <ele>815.5</ele>
        <time>2019-04-19T13:22:08Z</time>
      </trkpt>
      <trkpt lat="44.1656" lon="3.13347">
        <ele>815.6</ele>
        <time>2019-04-19T13:22:09Z</time>
      </trkpt>
      <trkpt lat="44.16564" lon="3.1335">
        <ele>815.7</ele>
        <time>2019-04-19T13:22:10Z</time>
      </trkpt>
      <trkpt lat="44.16567" lon="3.13351">
        <ele>815.7</ele>
        <time>2019-04-19T13:22:11Z</time>
      </trkpt>
      <trkpt lat="44.16571" lon="3.13356">
        <ele>815.8</ele>
        <time>2019-04-19T13:22:13Z</time>
      </trkpt>
      <trkpt lat="44.16573" lon="3.1336">
        <ele>815.9</ele>
        <time>2019-04-19T13:22:14Z</time>
      </trkpt>
      <trkpt lat="44.16575" lon="3.13365">
        <ele>815.9</ele>
        <time>2019-04-19T13:22:15Z</time>
      </trkpt>
      <trkpt lat="44.16577" lon="3.13369">
        <ele>815.9</ele>
        <time>2019-04-19T13:22:16Z</time>
      </trkpt>
      <trkpt lat="44.1658" lon="3.13373">
        <ele>815.9</ele>
        <time>2019-04-19T13:22:17Z</time>
      </trkpt>
      <trkpt lat="44.16583" lon="3.13376">
        <ele>815.9</ele>
        <time>2019-04-19T13:22:18Z</time>
      </trkpt>
      <trkpt lat="44.16586" lon="3.13378">
        <ele>815.9</ele>
        <time>2019-04-19T13:22:19Z</time>
      </trkpt>
      <trkpt lat="44.16589" lon="3.1338">
        <ele>815.9</ele>
        <time>2019-04-19T13:22:20Z</time>
      </trkpt>
      <trkpt lat="44.16593" lon="3.13381">
        <ele>816</ele>
        <time>2019-04-19T13:22:21Z</time>
      </trkpt>
      <trkpt lat="44.16596" lon="3.13381">
        <ele>816</ele>
        <time>2019-04-19T13:22:22Z</time>
      </trkpt>
      <trkpt lat="44.16601" lon="3.13382">
        <ele>816</ele>
        <time>2019-04-19T13:22:24Z</time>
      </trkpt>
      <trkpt lat="44.16606" lon="3.13381">
        <ele>816</ele>
        <time>2019-04-19T13:22:26Z</time>
      </trkpt>
      <trkpt lat="44.16608" lon="3.13381">
        <ele>816.1</ele>
        <time>2019-04-19T13:22:27Z</time>
      </trkpt>
      <trkpt lat="44.16611" lon="3.13382">
        <ele>816.2</ele>
        <time>2019-04-19T13:22:28Z</time>
      </trkpt>
      <trkpt lat="44.16614" lon="3.13384">
        <ele>816.3</ele>
        <time>2019-04-19T13:22:29Z</time>
      </trkpt>
      <trkpt lat="44.16617" lon="3.13386">
        <ele>816.5</ele>
        <time>2019-04-19T13:22:30Z</time>
      </trkpt>
      <trkpt lat="44.1662" lon="3.13388">
        <ele>816.6</ele>
        <time>2019-04-19T13:22:31Z</time>
      </trkpt>
      <trkpt lat="44.16624" lon="3.13391">
        <ele>816.8</ele>
        <time>2019-04-19T13:22:33Z</time>
      </trkpt>
      <trkpt lat="44.16626" lon="3.13395">
        <ele>817</ele>
        <time>2019-04-19T13:22:35Z</time>
      </trkpt>
      <trkpt lat="44.16629" lon="3.13397">
        <ele>817.2</ele>
        <time>2019-04-19T13:22:38Z</time>
      </trkpt>
      <trkpt lat="44.16634" lon="3.13397">
        <ele>817.5</ele>
        <time>2019-04-19T13:22:41Z</time>
      </trkpt>
      <trkpt lat="44.16639" lon="3.13398">
        <ele>817.8</ele>
        <time>2019-04-19T13:22:43Z</time>
      </trkpt>
      <trkpt lat="44.16644" lon="3.13398">
        <ele>818</ele>
        <time>2019-04-19T13:22:45Z</time>
      </trkpt>
      <trkpt lat="44.16649" lon="3.13399">
        <ele>818.2</ele>
        <time>2019-04-19T13:22:47Z</time>
      </trkpt>
      <trkpt lat="44.16653" lon="3.13403">
        <ele>818.3</ele>
        <time>2019-04-19T13:22:49Z</time>
      </trkpt>
      <trkpt lat="44.16656" lon="3.13405">
        <ele>818.5</ele>
        <time>2019-04-19T13:22:51Z</time>
      </trkpt>
      <trkpt lat="44.16661" lon="3.13407">
        <ele>818.7</ele>
        <time>2019-04-19T13:22:53Z</time>
      </trkpt>
      <trkpt lat="44.16663" lon="3.13412">
        <ele>818.8</ele>
        <time>2019-04-19T13:22:55Z</time>
      </trkpt>
      <trkpt lat="44.16666" lon="3.13414">
        <ele>818.8</ele>
        <time>2019-04-19T13:22:58Z</time>
      </trkpt>
      <trkpt lat="44.1667" lon="3.13414">
        <ele>818.9</ele>
        <time>2019-04-19T13:23:00Z</time>
      </trkpt>
      <trkpt lat="44.16673" lon="3.13415">
        <ele>818.9</ele>
        <time>2019-04-19T13:23:01Z</time>
      </trkpt>
      <trkpt lat="44.16676" lon="3.13417">
        <ele>819</ele>
        <time>2019-04-19T13:23:02Z</time>
      </trkpt>
      <trkpt lat="44.16678" lon="3.1342">
        <ele>819</ele>
        <time>2019-04-19T13:23:03Z</time>
      </trkpt>
      <trkpt lat="44.16681" lon="3.13424">
        <ele>819.1</ele>
        <time>2019-04-19T13:23:04Z</time>
      </trkpt>
      <trkpt lat="44.16683" lon="3.13427">
        <ele>819.1</ele>
        <time>2019-04-19T13:23:05Z</time>
      </trkpt>
      <trkpt lat="44.16685" lon="3.1343">
        <ele>819.2</ele>
        <time>2019-04-19T13:23:06Z</time>
      </trkpt>
      <trkpt lat="44.16688" lon="3.13432">
        <ele>819.2</ele>
        <time>2019-04-19T13:23:07Z</time>
      </trkpt>
      <trkpt lat="44.16691" lon="3.13434">
        <ele>819.2</ele>
        <time>2019-04-19T13:23:08Z</time>
      </trkpt>
      <trkpt lat="44.16694" lon="3.13436">
        <ele>819.2</ele>
        <time>2019-04-19T13:23:09Z</time>
      </trkpt>
      <trkpt lat="44.16696" lon="3.13437">
        <ele>819.2</ele>
        <time>2019-04-19T13:23:10Z</time>
      </trkpt>
      <trkpt lat="44.167" lon="3.1344">
        <ele>819.2</ele>
        <time>2019-04-19T13:23:12Z</time>
      </trkpt>
      <trkpt lat="44.16703" lon="3.13445">
        <ele>819.2</ele>
        <time>2019-04-19T13:23:14Z</time>
      </trkpt>
      <trkpt lat="44.16704" lon="3.13449">
        <ele>819.2</ele>
        <time>2019-04-19T13:23:15Z</time>
      </trkpt>
      <trkpt lat="44.16707" lon="3.13456">
        <ele>819.2</ele>
        <time>2019-04-19T13:23:17Z</time>
      </trkpt>
      <trkpt lat="44.16709" lon="3.1346">
        <ele>819.1</ele>
        <time>2019-04-19T13:23:18Z</time>
      </trkpt>
      <trkpt lat="44.16711" lon="3.13465">
        <ele>819</ele>
        <time>2019-04-19T13:23:19Z</time>
      </trkpt>
      <trkpt lat="44.16713" lon="3.13471">
        <ele>819</ele>
        <time>2019-04-19T13:23:20Z</time>
      </trkpt>
      <trkpt lat="44.16716" lon="3.13475">
        <ele>818.8</ele>
        <time>2019-04-19T13:23:21Z</time>
      </trkpt>
      <trkpt lat="44.16719" lon="3.13479">
        <ele>818.7</ele>
        <time>2019-04-19T13:23:22Z</time>
      </trkpt>
      <trkpt lat="44.16726" lon="3.13486">
        <ele>818.5</ele>
        <time>2019-04-19T13:23:23Z</time>
      </trkpt>
      <trkpt lat="44.16729" lon="3.13493">
        <ele>818.3</ele>
        <time>2019-04-19T13:23:24Z</time>
      </trkpt>
      <trkpt lat="44.16732" lon="3.13501">
        <ele>817.8</ele>
        <time>2019-04-19T13:23:25Z</time>
      </trkpt>
      <trkpt lat="44.16735" lon="3.13508">
        <ele>817.4</ele>
        <time>2019-04-19T13:23:26Z</time>
      </trkpt>
      <trkpt lat="44.16737" lon="3.13514">
        <ele>817</ele>
        <time>2019-04-19T13:23:27Z</time>
      </trkpt>
      <trkpt lat="44.1674" lon="3.13518">
        <ele>816.7</ele>
        <time>2019-04-19T13:23:28Z</time>
      </trkpt>
      <trkpt lat="44.16742" lon="3.13523">
        <ele>816.4</ele>
        <time>2019-04-19T13:23:29Z</time>
      </trkpt>
      <trkpt lat="44.16744" lon="3.13523">
        <ele>816.2</ele>
        <time>2019-04-19T13:23:31Z</time>
      </trkpt>
      <trkpt lat="44.16749" lon="3.13523">
        <ele>815.8</ele>
        <time>2019-04-19T13:23:33Z</time>
      </trkpt>
      <trkpt lat="44.16752" lon="3.13525">
        <ele>815.6</ele>
        <time>2019-04-19T13:23:35Z</time>
      </trkpt>
      <trkpt lat="44.16755" lon="3.13524">
        <ele>815.4</ele>
        <time>2019-04-19T13:23:36Z</time>
      </trkpt>
      <trkpt lat="44.16758" lon="3.13523">
        <ele>815.2</ele>
        <time>2019-04-19T13:23:37Z</time>
      </trkpt>
      <trkpt lat="44.16762" lon="3.13524">
        <ele>814.8</ele>
        <time>2019-04-19T13:23:38Z</time>
      </trkpt>
      <trkpt lat="44.16767" lon="3.13525">
        <ele>814.7</ele>
        <time>2019-04-19T13:23:40Z</time>
      </trkpt>
      <trkpt lat="44.1677" lon="3.13526">
        <ele>814.7</ele>
        <time>2019-04-19T13:23:41Z</time>
      </trkpt>
      <trkpt lat="44.16774" lon="3.13528">
        <ele>814.6</ele>
        <time>2019-04-19T13:23:42Z</time>
      </trkpt>
      <trkpt lat="44.16778" lon="3.1353">
        <ele>814.5</ele>
        <time>2019-04-19T13:23:43Z</time>
      </trkpt>
      <trkpt lat="44.16782" lon="3.13533">
        <ele>814.4</ele>
        <time>2019-04-19T13:23:44Z</time>
      </trkpt>
      <trkpt lat="44.16786" lon="3.13535">
        <ele>814.2</ele>
        <time>2019-04-19T13:23:45Z</time>
      </trkpt>
      <trkpt lat="44.16791" lon="3.13539">
        <ele>814.1</ele>
        <time>2019-04-19T13:23:46Z</time>
      </trkpt>
      <trkpt lat="44.16795" lon="3.13542">
        <ele>814</ele>
        <time>2019-04-19T13:23:47Z</time>
      </trkpt>
      <trkpt lat="44.16801" lon="3.1355">
        <ele>813.7</ele>
        <time>2019-04-19T13:23:48Z</time>
      </trkpt>
      <trkpt lat="44.16804" lon="3.13556">
        <ele>813.5</ele>
        <time>2019-04-19T13:23:49Z</time>
      </trkpt>
      <trkpt lat="44.16805" lon="3.13563">
        <ele>813.4</ele>
        <time>2019-04-19T13:23:50Z</time>
      </trkpt>
      <trkpt lat="44.16807" lon="3.13567">
        <ele>813.2</ele>
        <time>2019-04-19T13:23:51Z</time>
      </trkpt>
      <trkpt lat="44.16809" lon="3.13574">
        <ele>813</ele>
        <time>2019-04-19T13:23:52Z</time>
      </trkpt>
      <trkpt lat="44.16811" lon="3.13578">
        <ele>812.9</ele>
        <time>2019-04-19T13:23:53Z</time>
      </trkpt>
      <trkpt lat="44.16811" lon="3.13582">
        <ele>812.8</ele>
        <time>2019-04-19T13:23:54Z</time>
      </trkpt>
      <trkpt lat="44.16812" lon="3.13586">
        <ele>812.7</ele>
        <time>2019-04-19T13:23:55Z</time>
      </trkpt>
      <trkpt lat="44.16812" lon="3.1359">
        <ele>812.6</ele>
        <time>2019-04-19T13:23:56Z</time>
      </trkpt>
      <trkpt lat="44.16815" lon="3.13594">
        <ele>812.5</ele>
        <time>2019-04-19T13:23:58Z</time>
      </trkpt>
      <trkpt lat="44.16813" lon="3.13598">
        <ele>812.4</ele>
        <time>2019-04-19T13:24:00Z</time>
      </trkpt>
      <trkpt lat="44.16813" lon="3.13602">
        <ele>812.3</ele>
        <time>2019-04-19T13:24:02Z</time>
      </trkpt>
      <trkpt lat="44.16815" lon="3.13604">
        <ele>812.2</ele>
        <time>2019-04-19T13:24:04Z</time>
      </trkpt>
      <trkpt lat="44.1682" lon="3.13606">
        <ele>812.1</ele>
        <time>2019-04-19T13:24:06Z</time>
      </trkpt>
      <trkpt lat="44.16825" lon="3.13609">
        <ele>811.9</ele>
        <time>2019-04-19T13:24:08Z</time>
      </trkpt>
      <trkpt lat="44.16827" lon="3.13612">
        <ele>811.9</ele>
        <time>2019-04-19T13:24:09Z</time>
      </trkpt>
      <trkpt lat="44.16828" lon="3.13616">
        <ele>811.8</ele>
        <time>2019-04-19T13:24:10Z</time>
      </trkpt>
      <trkpt lat="44.16831" lon="3.1362">
        <ele>811.6</ele>
        <time>2019-04-19T13:24:11Z</time>
      </trkpt>
      <trkpt lat="44.16834" lon="3.13624">
        <ele>811.5</ele>
        <time>2019-04-19T13:24:12Z</time>
      </trkpt>
      <trkpt lat="44.16837" lon="3.13627">
        <ele>811.4</ele>
        <time>2019-04-19T13:24:13Z</time>
      </trkpt>
      <trkpt lat="44.1684" lon="3.1363">
        <ele>811.3</ele>
        <time>2019-04-19T13:24:14Z</time>
      </trkpt>
      <trkpt lat="44.16844" lon="3.13632">
        <ele>811.2</ele>
        <time>2019-04-19T13:24:15Z</time>
      </trkpt>
      <trkpt lat="44.16847" lon="3.13635">
        <ele>811.1</ele>
        <time>2019-04-19T13:24:16Z</time>
      </trkpt>
      <trkpt lat="44.1685" lon="3.13638">
        <ele>811</ele>
        <time>2019-04-19T13:24:17Z</time>
      </trkpt>
      <trkpt lat="44.16853" lon="3.13642">
        <ele>810.9</ele>
        <time>2019-04-19T13:24:18Z</time>
      </trkpt>
      <trkpt lat="44.16855" lon="3.13645">
        <ele>810.8</ele>
        <time>2019-04-19T13:24:19Z</time>
      </trkpt>
      <trkpt lat="44.16858" lon="3.13647">
        <ele>810.8</ele>
        <time>2019-04-19T13:24:20Z</time>
      </trkpt>
      <trkpt lat="44.16862" lon="3.13648">
        <ele>810.7</ele>
        <time>2019-04-19T13:24:22Z</time>
      </trkpt>
      <trkpt lat="44.16865" lon="3.13648">
        <ele>810.6</ele>
        <time>2019-04-19T13:24:24Z</time>
      </trkpt>
      <trkpt lat="44.16869" lon="3.13652">
        <ele>810.5</ele>
        <time>2019-04-19T13:24:26Z</time>
      </trkpt>
      <trkpt lat="44.16874" lon="3.13655">
        <ele>810.4</ele>
        <time>2019-04-19T13:24:28Z</time>
      </trkpt>
      <trkpt lat="44.16877" lon="3.13655">
        <ele>810.3</ele>
        <time>2019-04-19T13:24:29Z</time>
      </trkpt>
      <trkpt lat="44.1688" lon="3.13656">
        <ele>810.2</ele>
        <time>2019-04-19T13:24:30Z</time>
      </trkpt>
      <trkpt lat="44.16883" lon="3.13657">
        <ele>810.1</ele>
        <time>2019-04-19T13:24:31Z</time>
      </trkpt>
      <trkpt lat="44.16886" lon="3.13658">
        <ele>810</ele>
        <time>2019-04-19T13:24:32Z</time>
      </trkpt>
      <trkpt lat="44.1689" lon="3.13659">
        <ele>809.9</ele>
        <time>2019-04-19T13:24:33Z</time>
      </trkpt>
      <trkpt lat="44.16894" lon="3.1366">
        <ele>809.8</ele>
        <time>2019-04-19T13:24:34Z</time>
      </trkpt>
      <trkpt lat="44.16897" lon="3.13663">
        <ele>809.7</ele>
        <time>2019-04-19T13:24:35Z</time>
      </trkpt>
      <trkpt lat="44.169" lon="3.13667">
        <ele>809.6</ele>
        <time>2019-04-19T13:24:36Z</time>
      </trkpt>
      <trkpt lat="44.16902" lon="3.1367">
        <ele>809.5</ele>
        <time>2019-04-19T13:24:37Z</time>
      </trkpt>
      <trkpt lat="44.16903" lon="3.13677">
        <ele>809.4</ele>
        <time>2019-04-19T13:24:39Z</time>
      </trkpt>
      <trkpt lat="44.16904" lon="3.13682">
        <ele>809.3</ele>
        <time>2019-04-19T13:24:40Z</time>
      </trkpt>
      <trkpt lat="44.16905" lon="3.13688">
        <ele>809.1</ele>
        <time>2019-04-19T13:24:41Z</time>
      </trkpt>
      <trkpt lat="44.16908" lon="3.13694">
        <ele>808.9</ele>
        <time>2019-04-19T13:24:42Z</time>
      </trkpt>
      <trkpt lat="44.1691" lon="3.137">
        <ele>808.7</ele>
        <time>2019-04-19T13:24:43Z</time>
      </trkpt>
      <trkpt lat="44.16914" lon="3.13704">
        <ele>808.6</ele>
        <time>2019-04-19T13:24:44Z</time>
      </trkpt>
      <trkpt lat="44.16919" lon="3.13709">
        <ele>808.4</ele>
        <time>2019-04-19T13:24:45Z</time>
      </trkpt>
      <trkpt lat="44.16923" lon="3.13714">
        <ele>808.2</ele>
        <time>2019-04-19T13:24:46Z</time>
      </trkpt>
      <trkpt lat="44.16926" lon="3.13718">
        <ele>808</ele>
        <time>2019-04-19T13:24:47Z</time>
      </trkpt>
      <trkpt lat="44.16929" lon="3.13721">
        <ele>807.9</ele>
        <time>2019-04-19T13:24:48Z</time>
      </trkpt>
      <trkpt lat="44.16932" lon="3.13727">
        <ele>807.7</ele>
        <time>2019-04-19T13:24:49Z</time>
      </trkpt>
      <trkpt lat="44.1694" lon="3.13752">
        <ele>807.2</ele>
        <time>2019-04-19T13:24:51Z</time>
      </trkpt>
      <trkpt lat="44.16939" lon="3.13757">
        <ele>807.1</ele>
        <time>2019-04-19T13:24:52Z</time>
      </trkpt>
      <trkpt lat="44.16937" lon="3.13763">
        <ele>807</ele>
        <time>2019-04-19T13:24:53Z</time>
      </trkpt>
      <trkpt lat="44.16938" lon="3.13769">
        <ele>806.9</ele>
        <time>2019-04-19T13:24:55Z</time>
      </trkpt>
      <trkpt lat="44.16943" lon="3.13771">
        <ele>806.8</ele>
        <time>2019-04-19T13:24:56Z</time>
      </trkpt>
      <trkpt lat="44.16943" lon="3.13798">
        <ele>806.3</ele>
        <time>2019-04-19T13:24:59Z</time>
      </trkpt>
      <trkpt lat="44.16944" lon="3.13807">
        <ele>806.1</ele>
        <time>2019-04-19T13:25:00Z</time>
      </trkpt>
      <trkpt lat="44.16941" lon="3.13809">
        <ele>806</ele>
        <time>2019-04-19T13:25:03Z</time>
      </trkpt>
      <trkpt lat="44.16938" lon="3.13809">
        <ele>805.8</ele>
        <time>2019-04-19T13:25:07Z</time>
      </trkpt>
      <trkpt lat="44.16934" lon="3.13807">
        <ele>805.6</ele>
        <time>2019-04-19T13:25:09Z</time>
      </trkpt>
      <trkpt lat="44.16924" lon="3.13816">
        <ele>806.9</ele>
        <time>2019-04-19T13:27:05Z</time>
      </trkpt>
      <trkpt lat="44.1692" lon="3.13818">
        <ele>807.3</ele>
        <time>2019-04-19T13:27:07Z</time>
      </trkpt>
      <trkpt lat="44.16916" lon="3.13818">
        <ele>807.8</ele>
        <time>2019-04-19T13:27:08Z</time>
      </trkpt>
      <trkpt lat="44.16911" lon="3.13818">
        <ele>808.2</ele>
        <time>2019-04-19T13:27:09Z</time>
      </trkpt>
      <trkpt lat="44.16907" lon="3.13817">
        <ele>808.4</ele>
        <time>2019-04-19T13:27:10Z</time>
      </trkpt>
      <trkpt lat="44.16903" lon="3.13816">
        <ele>808.5</ele>
        <time>2019-04-19T13:27:12Z</time>
      </trkpt>
      <trkpt lat="44.169" lon="3.13814">
        <ele>808.7</ele>
        <time>2019-04-19T13:27:13Z</time>
      </trkpt>
      <trkpt lat="44.16897" lon="3.13812">
        <ele>808.8</ele>
        <time>2019-04-19T13:27:14Z</time>
      </trkpt>
      <trkpt lat="44.16892" lon="3.13811">
        <ele>809</ele>
        <time>2019-04-19T13:27:16Z</time>
      </trkpt>
      <trkpt lat="44.16887" lon="3.13809">
        <ele>809.3</ele>
        <time>2019-04-19T13:27:18Z</time>
      </trkpt>
      <trkpt lat="44.16883" lon="3.13808">
        <ele>809.6</ele>
        <time>2019-04-19T13:27:19Z</time>
      </trkpt>
      <trkpt lat="44.16881" lon="3.13806">
        <ele>809.9</ele>
        <time>2019-04-19T13:27:20Z</time>
      </trkpt>
      <trkpt lat="44.16878" lon="3.13805">
        <ele>810.2</ele>
        <time>2019-04-19T13:27:21Z</time>
      </trkpt>
      <trkpt lat="44.16875" lon="3.13804">
        <ele>810.3</ele>
        <time>2019-04-19T13:27:22Z</time>
      </trkpt>
      <trkpt lat="44.1687" lon="3.13802">
        <ele>810.3</ele>
        <time>2019-04-19T13:27:24Z</time>
      </trkpt>
      <trkpt lat="44.16866" lon="3.13801">
        <ele>810.4</ele>
        <time>2019-04-19T13:27:26Z</time>
      </trkpt>
      <trkpt lat="44.16862" lon="3.138">
        <ele>810.4</ele>
        <time>2019-04-19T13:27:28Z</time>
      </trkpt>
      <trkpt lat="44.16857" lon="3.13798">
        <ele>810.5</ele>
        <time>2019-04-19T13:27:30Z</time>
      </trkpt>
      <trkpt lat="44.16853" lon="3.13799">
        <ele>810.5</ele>
        <time>2019-04-19T13:27:32Z</time>
      </trkpt>
      <trkpt lat="44.16849" lon="3.13798">
        <ele>810.6</ele>
        <time>2019-04-19T13:27:34Z</time>
      </trkpt>
      <trkpt lat="44.16845" lon="3.13796">
        <ele>810.9</ele>
        <time>2019-04-19T13:27:35Z</time>
      </trkpt>
      <trkpt lat="44.16842" lon="3.13795">
        <ele>811.3</ele>
        <time>2019-04-19T13:27:36Z</time>
      </trkpt>
      <trkpt lat="44.16839" lon="3.13794">
        <ele>811.5</ele>
        <time>2019-04-19T13:27:37Z</time>
      </trkpt>
      <trkpt lat="44.16835" lon="3.13792">
        <ele>811.7</ele>
        <time>2019-04-19T13:27:39Z</time>
      </trkpt>
      <trkpt lat="44.16831" lon="3.1379">
        <ele>811.9</ele>
        <time>2019-04-19T13:27:41Z</time>
      </trkpt>
      <trkpt lat="44.16828" lon="3.13791">
        <ele>812.1</ele>
        <time>2019-04-19T13:27:43Z</time>
      </trkpt>
      <trkpt lat="44.16824" lon="3.13793">
        <ele>812.3</ele>
        <time>2019-04-19T13:27:45Z</time>
      </trkpt>
      <trkpt lat="44.1682" lon="3.13795">
        <ele>812.5</ele>
        <time>2019-04-19T13:27:47Z</time>
      </trkpt>
      <trkpt lat="44.16817" lon="3.13795">
        <ele>812.6</ele>
        <time>2019-04-19T13:27:48Z</time>
      </trkpt>
      <trkpt lat="44.16814" lon="3.13794">
        <ele>812.8</ele>
        <time>2019-04-19T13:27:52Z</time>
      </trkpt>
      <trkpt lat="44.1681" lon="3.13796">
        <ele>813</ele>
        <time>2019-04-19T13:28:22Z</time>
      </trkpt>
      <trkpt lat="44.16806" lon="3.13794">
        <ele>813.2</ele>
        <time>2019-04-19T13:28:25Z</time>
      </trkpt>
      <trkpt lat="44.16803" lon="3.13794">
        <ele>813.4</ele>
        <time>2019-04-19T13:28:26Z</time>
      </trkpt>
      <trkpt lat="44.16799" lon="3.13795">
        <ele>813.6</ele>
        <time>2019-04-19T13:28:27Z</time>
      </trkpt>
      <trkpt lat="44.16796" lon="3.13795">
        <ele>813.8</ele>
        <time>2019-04-19T13:28:28Z</time>
      </trkpt>
      <trkpt lat="44.16792" lon="3.13794">
        <ele>813.9</ele>
        <time>2019-04-19T13:28:29Z</time>
      </trkpt>
      <trkpt lat="44.16788" lon="3.13795">
        <ele>814.1</ele>
        <time>2019-04-19T13:28:30Z</time>
      </trkpt>
      <trkpt lat="44.16785" lon="3.13796">
        <ele>813.9</ele>
        <time>2019-04-19T13:28:31Z</time>
      </trkpt>
      <trkpt lat="44.16782" lon="3.13798">
        <ele>813.7</ele>
        <time>2019-04-19T13:28:32Z</time>
      </trkpt>
      <trkpt lat="44.16779" lon="3.13798">
        <ele>813.6</ele>
        <time>2019-04-19T13:28:33Z</time>
      </trkpt>
      <trkpt lat="44.16775" lon="3.13797">
        <ele>814</ele>
        <time>2019-04-19T13:28:35Z</time>
      </trkpt>
      <trkpt lat="44.16771" lon="3.13795">
        <ele>814.4</ele>
        <time>2019-04-19T13:28:37Z</time>
      </trkpt>
      <trkpt lat="44.16766" lon="3.13797">
        <ele>814.7</ele>
        <time>2019-04-19T13:28:39Z</time>
      </trkpt>
      <trkpt lat="44.16765" lon="3.138">
        <ele>814.8</ele>
        <time>2019-04-19T13:28:40Z</time>
      </trkpt>
      <trkpt lat="44.16763" lon="3.13804">
        <ele>815.2</ele>
        <time>2019-04-19T13:28:42Z</time>
      </trkpt>
      <trkpt lat="44.16759" lon="3.13809">
        <ele>815.7</ele>
        <time>2019-04-19T13:28:44Z</time>
      </trkpt>
      <trkpt lat="44.16757" lon="3.13812">
        <ele>815.4</ele>
        <time>2019-04-19T13:28:45Z</time>
      </trkpt>
      <trkpt lat="44.16755" lon="3.13815">
        <ele>815.1</ele>
        <time>2019-04-19T13:28:46Z</time>
      </trkpt>
      <trkpt lat="44.16752" lon="3.1382">
        <ele>814.5</ele>
        <time>2019-04-19T13:28:47Z</time>
      </trkpt>
      <trkpt lat="44.1675" lon="3.13826">
        <ele>813.2</ele>
        <time>2019-04-19T13:28:48Z</time>
      </trkpt>
      <trkpt lat="44.16743" lon="3.13838">
        <ele>811.8</ele>
        <time>2019-04-19T13:28:49Z</time>
      </trkpt>
      <trkpt lat="44.1674" lon="3.13851">
        <ele>810.6</ele>
        <time>2019-04-19T13:28:50Z</time>
      </trkpt>
      <trkpt lat="44.16735" lon="3.13861">
        <ele>810.1</ele>
        <time>2019-04-19T13:28:51Z</time>
      </trkpt>
      <trkpt lat="44.1673" lon="3.13871">
        <ele>808.9</ele>
        <time>2019-04-19T13:28:52Z</time>
      </trkpt>
      <trkpt lat="44.16727" lon="3.13876">
        <ele>808.2</ele>
        <time>2019-04-19T13:28:53Z</time>
      </trkpt>
      <trkpt lat="44.16723" lon="3.13885">
        <ele>807.5</ele>
        <time>2019-04-19T13:28:54Z</time>
      </trkpt>
      <trkpt lat="44.1672" lon="3.13889">
        <ele>807.4</ele>
        <time>2019-04-19T13:28:55Z</time>
      </trkpt>
      <trkpt lat="44.16718" lon="3.13893">
        <ele>807.4</ele>
        <time>2019-04-19T13:28:56Z</time>
      </trkpt>
      <trkpt lat="44.16716" lon="3.13897">
        <ele>807.4</ele>
        <time>2019-04-19T13:28:57Z</time>
      </trkpt>
      <trkpt lat="44.16715" lon="3.13901">
        <ele>807.4</ele>
        <time>2019-04-19T13:28:58Z</time>
      </trkpt>
      <trkpt lat="44.16714" lon="3.13909">
        <ele>807.7</ele>
        <time>2019-04-19T13:28:59Z</time>
      </trkpt>
      <trkpt lat="44.16714" lon="3.13917">
        <ele>808.1</ele>
        <time>2019-04-19T13:29:00Z</time>
      </trkpt>
      <trkpt lat="44.16713" lon="3.13925">
        <ele>808</ele>
        <time>2019-04-19T13:29:02Z</time>
      </trkpt>
      <trkpt lat="44.16711" lon="3.13928">
        <ele>808</ele>
        <time>2019-04-19T13:29:03Z</time>
      </trkpt>
      <trkpt lat="44.16708" lon="3.1393">
        <ele>808.1</ele>
        <time>2019-04-19T13:29:04Z</time>
      </trkpt>
      <trkpt lat="44.16704" lon="3.13934">
        <ele>808.2</ele>
        <time>2019-04-19T13:29:06Z</time>
      </trkpt>
      <trkpt lat="44.16701" lon="3.13935">
        <ele>808.4</ele>
        <time>2019-04-19T13:29:07Z</time>
      </trkpt>
      <trkpt lat="44.16696" lon="3.13937">
        <ele>808.8</ele>
        <time>2019-04-19T13:29:08Z</time>
      </trkpt>
      <trkpt lat="44.16691" lon="3.1394">
        <ele>809.5</ele>
        <time>2019-04-19T13:29:09Z</time>
      </trkpt>
      <trkpt lat="44.16687" lon="3.13943">
        <ele>809.8</ele>
        <time>2019-04-19T13:29:10Z</time>
      </trkpt>
      <trkpt lat="44.16664" lon="3.13955">
        <ele>810.6</ele>
        <time>2019-04-19T13:29:12Z</time>
      </trkpt>
      <trkpt lat="44.16659" lon="3.13956">
        <ele>811.2</ele>
        <time>2019-04-19T13:29:13Z</time>
      </trkpt>
      <trkpt lat="44.16658" lon="3.13961">
        <ele>811.7</ele>
        <time>2019-04-19T13:29:14Z</time>
      </trkpt>
      <trkpt lat="44.16654" lon="3.13963">
        <ele>811.8</ele>
        <time>2019-04-19T13:29:15Z</time>
      </trkpt>
      <trkpt lat="44.16649" lon="3.13965">
        <ele>811.7</ele>
        <time>2019-04-19T13:29:16Z</time>
      </trkpt>
      <trkpt lat="44.16643" lon="3.13967">
        <ele>811.8</ele>
        <time>2019-04-19T13:29:17Z</time>
      </trkpt>
      <trkpt lat="44.16638" lon="3.13968">
        <ele>812</ele>
        <time>2019-04-19T13:29:18Z</time>
      </trkpt>
      <trkpt lat="44.16633" lon="3.13972">
        <ele>812.4</ele>
        <time>2019-04-19T13:29:19Z</time>
      </trkpt>
      <trkpt lat="44.16632" lon="3.13977">
        <ele>812.4</ele>
        <time>2019-04-19T13:29:20Z</time>
      </trkpt>
      <trkpt lat="44.16632" lon="3.13983">
        <ele>811.9</ele>
        <time>2019-04-19T13:29:21Z</time>
      </trkpt>
      <trkpt lat="44.16632" lon="3.13988">
        <ele>811.4</ele>
        <time>2019-04-19T13:29:22Z</time>
      </trkpt>
      <trkpt lat="44.16631" lon="3.13993">
        <ele>811.2</ele>
        <time>2019-04-19T13:29:23Z</time>
      </trkpt>
      <trkpt lat="44.16629" lon="3.13997">
        <ele>811</ele>
        <time>2019-04-19T13:29:24Z</time>
      </trkpt>
      <trkpt lat="44.16623" lon="3.14003">
        <ele>810.6</ele>
        <time>2019-04-19T13:29:25Z</time>
      </trkpt>
      <trkpt lat="44.16617" lon="3.14009">
        <ele>810.2</ele>
        <time>2019-04-19T13:29:26Z</time>
      </trkpt>
      <trkpt lat="44.16611" lon="3.14017">
        <ele>809.9</ele>
        <time>2019-04-19T13:29:27Z</time>
      </trkpt>
      <trkpt lat="44.16607" lon="3.14021">
        <ele>809.7</ele>
        <time>2019-04-19T13:29:28Z</time>
      </trkpt>
      <trkpt lat="44.16603" lon="3.14025">
        <ele>809.3</ele>
        <time>2019-04-19T13:29:29Z</time>
      </trkpt>
      <trkpt lat="44.16597" lon="3.14029">
        <ele>808.6</ele>
        <time>2019-04-19T13:29:30Z</time>
      </trkpt>
      <trkpt lat="44.16593" lon="3.14035">
        <ele>808.3</ele>
        <time>2019-04-19T13:29:31Z</time>
      </trkpt>
      <trkpt lat="44.1659" lon="3.14042">
        <ele>808</ele>
        <time>2019-04-19T13:29:32Z</time>
      </trkpt>
      <trkpt lat="44.16587" lon="3.14048">
        <ele>807.5</ele>
        <time>2019-04-19T13:29:33Z</time>
      </trkpt>
      <trkpt lat="44.16585" lon="3.14059">
        <ele>807.3</ele>
        <time>2019-04-19T13:29:34Z</time>
      </trkpt>
      <trkpt lat="44.16583" lon="3.14072">
        <ele>807.3</ele>
        <time>2019-04-19T13:29:35Z</time>
      </trkpt>
      <trkpt lat="44.1658" lon="3.14085">
        <ele>806.8</ele>
        <time>2019-04-19T13:29:36Z</time>
      </trkpt>
      <trkpt lat="44.16576" lon="3.14094">
        <ele>806.4</ele>
        <time>2019-04-19T13:29:37Z</time>
      </trkpt>
      <trkpt lat="44.16573" lon="3.14104">
        <ele>806.2</ele>
        <time>2019-04-19T13:29:38Z</time>
      </trkpt>
      <trkpt lat="44.16569" lon="3.14111">
        <ele>805.6</ele>
        <time>2019-04-19T13:29:39Z</time>
      </trkpt>
      <trkpt lat="44.16565" lon="3.14121">
        <ele>805.3</ele>
        <time>2019-04-19T13:29:40Z</time>
      </trkpt>
      <trkpt lat="44.16562" lon="3.14128">
        <ele>805</ele>
        <time>2019-04-19T13:29:41Z</time>
      </trkpt>
      <trkpt lat="44.1656" lon="3.14135">
        <ele>804.9</ele>
        <time>2019-04-19T13:29:42Z</time>
      </trkpt>
      <trkpt lat="44.16561" lon="3.1415">
        <ele>804.6</ele>
        <time>2019-04-19T13:29:43Z</time>
      </trkpt>
      <trkpt lat="44.16559" lon="3.14162">
        <ele>803.7</ele>
        <time>2019-04-19T13:29:44Z</time>
      </trkpt>
      <trkpt lat="44.16559" lon="3.14171">
        <ele>803.2</ele>
        <time>2019-04-19T13:29:45Z</time>
      </trkpt>
      <trkpt lat="44.16555" lon="3.1418">
        <ele>802.7</ele>
        <time>2019-04-19T13:29:46Z</time>
      </trkpt>
      <trkpt lat="44.1656" lon="3.14188">
        <ele>801.3</ele>
        <time>2019-04-19T13:29:47Z</time>
      </trkpt>
      <trkpt lat="44.16563" lon="3.14185">
        <ele>800.8</ele>
        <time>2019-04-19T13:29:49Z</time>
      </trkpt>
      <trkpt lat="44.16565" lon="3.14189">
        <ele>800.4</ele>
        <time>2019-04-19T13:29:50Z</time>
      </trkpt>
      <trkpt lat="44.16568" lon="3.14191">
        <ele>799.9</ele>
        <time>2019-04-19T13:29:53Z</time>
      </trkpt>
      <trkpt lat="44.16571" lon="3.14193">
        <ele>799.4</ele>
        <time>2019-04-19T13:29:54Z</time>
      </trkpt>
      <trkpt lat="44.16575" lon="3.14193">
        <ele>798.8</ele>
        <time>2019-04-19T13:29:56Z</time>
      </trkpt>
      <trkpt lat="44.16578" lon="3.14194">
        <ele>798.1</ele>
        <time>2019-04-19T13:29:59Z</time>
      </trkpt>
      <trkpt lat="44.16583" lon="3.14195">
        <ele>796.9</ele>
        <time>2019-04-19T13:30:01Z</time>
      </trkpt>
      <trkpt lat="44.16588" lon="3.14196">
        <ele>796.2</ele>
        <time>2019-04-19T13:30:03Z</time>
      </trkpt>
      <trkpt lat="44.16592" lon="3.14199">
        <ele>795.4</ele>
        <time>2019-04-19T13:30:05Z</time>
      </trkpt>
      <trkpt lat="44.16594" lon="3.14202">
        <ele>795</ele>
        <time>2019-04-19T13:30:06Z</time>
      </trkpt>
      <trkpt lat="44.16597" lon="3.14208">
        <ele>794.6</ele>
        <time>2019-04-19T13:30:08Z</time>
      </trkpt>
      <trkpt lat="44.16599" lon="3.14212">
        <ele>794.6</ele>
        <time>2019-04-19T13:30:11Z</time>
      </trkpt>
      <trkpt lat="44.166" lon="3.14215">
        <ele>794.7</ele>
        <time>2019-04-19T13:30:13Z</time>
      </trkpt>
      <trkpt lat="44.16599" lon="3.14219">
        <ele>794.9</ele>
        <time>2019-04-19T13:30:15Z</time>
      </trkpt>
      <trkpt lat="44.16596" lon="3.14224">
        <ele>795.3</ele>
        <time>2019-04-19T13:30:17Z</time>
      </trkpt>
      <trkpt lat="44.16594" lon="3.14227">
        <ele>795.5</ele>
        <time>2019-04-19T13:30:18Z</time>
      </trkpt>
      <trkpt lat="44.16591" lon="3.14234">
        <ele>796</ele>
        <time>2019-04-19T13:30:20Z</time>
      </trkpt>
      <trkpt lat="44.16589" lon="3.14238">
        <ele>796.2</ele>
        <time>2019-04-19T13:30:21Z</time>
      </trkpt>
      <trkpt lat="44.16588" lon="3.14241">
        <ele>796.6</ele>
        <time>2019-04-19T13:30:22Z</time>
      </trkpt>
      <trkpt lat="44.16586" lon="3.14244">
        <ele>797.1</ele>
        <time>2019-04-19T13:30:23Z</time>
      </trkpt>
      <trkpt lat="44.16584" lon="3.14247">
        <ele>797.5</ele>
        <time>2019-04-19T13:30:24Z</time>
      </trkpt>
      <trkpt lat="44.16583" lon="3.14251">
        <ele>797.8</ele>
        <time>2019-04-19T13:30:25Z</time>
      </trkpt>
      <trkpt lat="44.16582" lon="3.14256">
        <ele>798.1</ele>
        <time>2019-04-19T13:30:26Z</time>
      </trkpt>
      <trkpt lat="44.16583" lon="3.14265">
        <ele>798.9</ele>
        <time>2019-04-19T13:30:27Z</time>
      </trkpt>
      <trkpt lat="44.16579" lon="3.14268">
        <ele>799.4</ele>
        <time>2019-04-19T13:30:28Z</time>
      </trkpt>
      <trkpt lat="44.16578" lon="3.14274">
        <ele>799.8</ele>
        <time>2019-04-19T13:30:29Z</time>
      </trkpt>
      <trkpt lat="44.16577" lon="3.14282">
        <ele>800.1</ele>
        <time>2019-04-19T13:30:30Z</time>
      </trkpt>
      <trkpt lat="44.16575" lon="3.14287">
        <ele>800.3</ele>
        <time>2019-04-19T13:30:31Z</time>
      </trkpt>
      <trkpt lat="44.16573" lon="3.1429">
        <ele>800.5</ele>
        <time>2019-04-19T13:30:36Z</time>
      </trkpt>
      <trkpt lat="44.16571" lon="3.14297">
        <ele>800.7</ele>
        <time>2019-04-19T13:30:38Z</time>
      </trkpt>
      <trkpt lat="44.16567" lon="3.14301">
        <ele>800.8</ele>
        <time>2019-04-19T13:30:41Z</time>
      </trkpt>
      <trkpt lat="44.16565" lon="3.14305">
        <ele>800.9</ele>
        <time>2019-04-19T13:30:42Z</time>
      </trkpt>
      <trkpt lat="44.16562" lon="3.14307">
        <ele>800.9</ele>
        <time>2019-04-19T13:30:44Z</time>
      </trkpt>
      <trkpt lat="44.16559" lon="3.14308">
        <ele>801</ele>
        <time>2019-04-19T13:30:46Z</time>
      </trkpt>
      <trkpt lat="44.16556" lon="3.14308">
        <ele>801.1</ele>
        <time>2019-04-19T13:30:47Z</time>
      </trkpt>
      <trkpt lat="44.16553" lon="3.14306">
        <ele>801.3</ele>
        <time>2019-04-19T13:30:48Z</time>
      </trkpt>
      <trkpt lat="44.16551" lon="3.14301">
        <ele>801.6</ele>
        <time>2019-04-19T13:30:50Z</time>
      </trkpt>
      <trkpt lat="44.1655" lon="3.14294">
        <ele>801.8</ele>
        <time>2019-04-19T13:30:52Z</time>
      </trkpt>
      <trkpt lat="44.16549" lon="3.14291">
        <ele>801.9</ele>
        <time>2019-04-19T13:30:53Z</time>
      </trkpt>
      <trkpt lat="44.16548" lon="3.14287">
        <ele>802.1</ele>
        <time>2019-04-19T13:30:54Z</time>
      </trkpt>
      <trkpt lat="44.16544" lon="3.14287">
        <ele>802.4</ele>
        <time>2019-04-19T13:30:57Z</time>
      </trkpt>
      <trkpt lat="44.16541" lon="3.14289">
        <ele>802.6</ele>
        <time>2019-04-19T13:30:58Z</time>
      </trkpt>
      <trkpt lat="44.16538" lon="3.14292">
        <ele>802.8</ele>
        <time>2019-04-19T13:31:00Z</time>
      </trkpt>
      <trkpt lat="44.16536" lon="3.14296">
        <ele>803</ele>
        <time>2019-04-19T13:31:02Z</time>
      </trkpt>
      <trkpt lat="44.16534" lon="3.14299">
        <ele>803.2</ele>
        <time>2019-04-19T13:31:03Z</time>
      </trkpt>
      <trkpt lat="44.16532" lon="3.14302">
        <ele>803.5</ele>
        <time>2019-04-19T13:31:04Z</time>
      </trkpt>
      <trkpt lat="44.1653" lon="3.14305">
        <ele>803.6</ele>
        <time>2019-04-19T13:31:05Z</time>
      </trkpt>
      <trkpt lat="44.16527" lon="3.14308">
        <ele>803.8</ele>
        <time>2019-04-19T13:31:06Z</time>
      </trkpt>
      <trkpt lat="44.16524" lon="3.14311">
        <ele>803.9</ele>
        <time>2019-04-19T13:31:07Z</time>
      </trkpt>
      <trkpt lat="44.1652" lon="3.14315">
        <ele>804.1</ele>
        <time>2019-04-19T13:31:08Z</time>
      </trkpt>
      <trkpt lat="44.16517" lon="3.14318">
        <ele>804.2</ele>
        <time>2019-04-19T13:31:09Z</time>
      </trkpt>
      <trkpt lat="44.16513" lon="3.14322">
        <ele>804.2</ele>
        <time>2019-04-19T13:31:10Z</time>
      </trkpt>
      <trkpt lat="44.16509" lon="3.14326">
        <ele>804.2</ele>
        <time>2019-04-19T13:31:11Z</time>
      </trkpt>
      <trkpt lat="44.16506" lon="3.1433">
        <ele>804.2</ele>
        <time>2019-04-19T13:31:12Z</time>
      </trkpt>
      <trkpt lat="44.16502" lon="3.14334">
        <ele>804.2</ele>
        <time>2019-04-19T13:31:13Z</time>
      </trkpt>
      <trkpt lat="44.165" lon="3.14339">
        <ele>804.2</ele>
        <time>2019-04-19T13:31:14Z</time>
      </trkpt>
      <trkpt lat="44.16498" lon="3.14343">
        <ele>804.2</ele>
        <time>2019-04-19T13:31:15Z</time>
      </trkpt>
      <trkpt lat="44.16496" lon="3.14348">
        <ele>804.2</ele>
        <time>2019-04-19T13:31:16Z</time>
      </trkpt>
      <trkpt lat="44.16495" lon="3.14352">
        <ele>804.2</ele>
        <time>2019-04-19T13:31:17Z</time>
      </trkpt>
      <trkpt lat="44.16492" lon="3.14356">
        <ele>804.1</ele>
        <time>2019-04-19T13:31:18Z</time>
      </trkpt>
      <trkpt lat="44.16489" lon="3.1436">
        <ele>804</ele>
        <time>2019-04-19T13:31:19Z</time>
      </trkpt>
      <trkpt lat="44.16485" lon="3.14363">
        <ele>803.9</ele>
        <time>2019-04-19T13:31:20Z</time>
      </trkpt>
      <trkpt lat="44.16481" lon="3.14365">
        <ele>804</ele>
        <time>2019-04-19T13:31:21Z</time>
      </trkpt>
      <trkpt lat="44.16478" lon="3.14367">
        <ele>804.2</ele>
        <time>2019-04-19T13:31:22Z</time>
      </trkpt>
      <trkpt lat="44.16473" lon="3.14369">
        <ele>804.3</ele>
        <time>2019-04-19T13:31:23Z</time>
      </trkpt>
      <trkpt lat="44.16469" lon="3.1437">
        <ele>804.5</ele>
        <time>2019-04-19T13:31:24Z</time>
      </trkpt>
      <trkpt lat="44.16465" lon="3.1437">
        <ele>804.6</ele>
        <time>2019-04-19T13:31:25Z</time>
      </trkpt>
      <trkpt lat="44.16463" lon="3.14371">
        <ele>804.7</ele>
        <time>2019-04-19T13:31:26Z</time>
      </trkpt>
      <trkpt lat="44.16458" lon="3.14374">
        <ele>804.9</ele>
        <time>2019-04-19T13:31:28Z</time>
      </trkpt>
      <trkpt lat="44.16453" lon="3.14376">
        <ele>805.2</ele>
        <time>2019-04-19T13:31:30Z</time>
      </trkpt>
      <trkpt lat="44.16448" lon="3.14377">
        <ele>805.4</ele>
        <time>2019-04-19T13:31:32Z</time>
      </trkpt>
      <trkpt lat="44.16443" lon="3.14379">
        <ele>805.5</ele>
        <time>2019-04-19T13:31:34Z</time>
      </trkpt>
      <trkpt lat="44.16439" lon="3.1438">
        <ele>805.7</ele>
        <time>2019-04-19T13:31:36Z</time>
      </trkpt>
      <trkpt lat="44.16435" lon="3.14378">
        <ele>805.9</ele>
        <time>2019-04-19T13:31:38Z</time>
      </trkpt>
      <trkpt lat="44.16431" lon="3.14376">
        <ele>806</ele>
        <time>2019-04-19T13:31:40Z</time>
      </trkpt>
      <trkpt lat="44.16427" lon="3.14377">
        <ele>806.1</ele>
        <time>2019-04-19T13:31:42Z</time>
      </trkpt>
      <trkpt lat="44.16424" lon="3.14378">
        <ele>806.2</ele>
        <time>2019-04-19T13:31:44Z</time>
      </trkpt>
      <trkpt lat="44.16419" lon="3.14378">
        <ele>806.3</ele>
        <time>2019-04-19T13:31:46Z</time>
      </trkpt>
      <trkpt lat="44.16414" lon="3.14379">
        <ele>806.3</ele>
        <time>2019-04-19T13:31:48Z</time>
      </trkpt>
      <trkpt lat="44.16411" lon="3.1438">
        <ele>806.4</ele>
        <time>2019-04-19T13:31:49Z</time>
      </trkpt>
      <trkpt lat="44.16408" lon="3.14381">
        <ele>806.4</ele>
        <time>2019-04-19T13:31:50Z</time>
      </trkpt>
      <trkpt lat="44.16403" lon="3.14384">
        <ele>806.4</ele>
        <time>2019-04-19T13:31:52Z</time>
      </trkpt>
      <trkpt lat="44.164" lon="3.14385">
        <ele>806.5</ele>
        <time>2019-04-19T13:31:53Z</time>
      </trkpt>
      <trkpt lat="44.16397" lon="3.14388">
        <ele>806.5</ele>
        <time>2019-04-19T13:31:54Z</time>
      </trkpt>
      <trkpt lat="44.16394" lon="3.1439">
        <ele>806.6</ele>
        <time>2019-04-19T13:31:55Z</time>
      </trkpt>
      <trkpt lat="44.16391" lon="3.14392">
        <ele>806.7</ele>
        <time>2019-04-19T13:31:56Z</time>
      </trkpt>
      <trkpt lat="44.16387" lon="3.14393">
        <ele>806.7</ele>
        <time>2019-04-19T13:31:57Z</time>
      </trkpt>
      <trkpt lat="44.16384" lon="3.14395">
        <ele>806.8</ele>
        <time>2019-04-19T13:31:58Z</time>
      </trkpt>
      <trkpt lat="44.1638" lon="3.14397">
        <ele>806.8</ele>
        <time>2019-04-19T13:31:59Z</time>
      </trkpt>
      <trkpt lat="44.16377" lon="3.14399">
        <ele>806.9</ele>
        <time>2019-04-19T13:32:00Z</time>
      </trkpt>
      <trkpt lat="44.16374" lon="3.14401">
        <ele>807</ele>
        <time>2019-04-19T13:32:01Z</time>
      </trkpt>
      <trkpt lat="44.1637" lon="3.14405">
        <ele>807.1</ele>
        <time>2019-04-19T13:32:03Z</time>
      </trkpt>
      <trkpt lat="44.16366" lon="3.1441">
        <ele>807.3</ele>
        <time>2019-04-19T13:32:05Z</time>
      </trkpt>
      <trkpt lat="44.16362" lon="3.14412">
        <ele>807.4</ele>
        <time>2019-04-19T13:32:07Z</time>
      </trkpt>
      <trkpt lat="44.1636" lon="3.14413">
        <ele>807.5</ele>
        <time>2019-04-19T13:32:08Z</time>
      </trkpt>
      <trkpt lat="44.16356" lon="3.14414">
        <ele>807.7</ele>
        <time>2019-04-19T13:32:09Z</time>
      </trkpt>
      <trkpt lat="44.16352" lon="3.14414">
        <ele>807.8</ele>
        <time>2019-04-19T13:32:10Z</time>
      </trkpt>
      <trkpt lat="44.16349" lon="3.14415">
        <ele>808</ele>
        <time>2019-04-19T13:32:11Z</time>
      </trkpt>
      <trkpt lat="44.16344" lon="3.14414">
        <ele>808.1</ele>
        <time>2019-04-19T13:32:12Z</time>
      </trkpt>
      <trkpt lat="44.16341" lon="3.14412">
        <ele>808.3</ele>
        <time>2019-04-19T13:32:13Z</time>
      </trkpt>
      <trkpt lat="44.16338" lon="3.1441">
        <ele>808.4</ele>
        <time>2019-04-19T13:32:14Z</time>
      </trkpt>
      <trkpt lat="44.16335" lon="3.14408">
        <ele>808.4</ele>
        <time>2019-04-19T13:32:15Z</time>
      </trkpt>
      <trkpt lat="44.16331" lon="3.14406">
        <ele>808.4</ele>
        <time>2019-04-19T13:32:16Z</time>
      </trkpt>
      <trkpt lat="44.16328" lon="3.14405">
        <ele>808.4</ele>
        <time>2019-04-19T13:32:17Z</time>
      </trkpt>
      <trkpt lat="44.16325" lon="3.14403">
        <ele>808.4</ele>
        <time>2019-04-19T13:32:18Z</time>
      </trkpt>
      <trkpt lat="44.16322" lon="3.14401">
        <ele>808.3</ele>
        <time>2019-04-19T13:32:19Z</time>
      </trkpt>
      <trkpt lat="44.16318" lon="3.14399">
        <ele>808.2</ele>
        <time>2019-04-19T13:32:20Z</time>
      </trkpt>
      <trkpt lat="44.16314" lon="3.14397">
        <ele>808.1</ele>
        <time>2019-04-19T13:32:21Z</time>
      </trkpt>
      <trkpt lat="44.1631" lon="3.14395">
        <ele>807.9</ele>
        <time>2019-04-19T13:32:22Z</time>
      </trkpt>
      <trkpt lat="44.16306" lon="3.14393">
        <ele>807.8</ele>
        <time>2019-04-19T13:32:23Z</time>
      </trkpt>
      <trkpt lat="44.16302" lon="3.14391">
        <ele>807.6</ele>
        <time>2019-04-19T13:32:24Z</time>
      </trkpt>
      <trkpt lat="44.16299" lon="3.1439">
        <ele>807.5</ele>
        <time>2019-04-19T13:32:25Z</time>
      </trkpt>
      <trkpt lat="44.16296" lon="3.1439">
        <ele>807.5</ele>
        <time>2019-04-19T13:32:26Z</time>
      </trkpt>
      <trkpt lat="44.16293" lon="3.14389">
        <ele>807.4</ele>
        <time>2019-04-19T13:32:27Z</time>
      </trkpt>
      <trkpt lat="44.16289" lon="3.1439">
        <ele>807.2</ele>
        <time>2019-04-19T13:32:28Z</time>
      </trkpt>
      <trkpt lat="44.16285" lon="3.14392">
        <ele>807.1</ele>
        <time>2019-04-19T13:32:29Z</time>
      </trkpt>
      <trkpt lat="44.16282" lon="3.14394">
        <ele>807</ele>
        <time>2019-04-19T13:32:30Z</time>
      </trkpt>
      <trkpt lat="44.16278" lon="3.14395">
        <ele>806.8</ele>
        <time>2019-04-19T13:32:31Z</time>
      </trkpt>
      <trkpt lat="44.16273" lon="3.14395">
        <ele>806.7</ele>
        <time>2019-04-19T13:32:32Z</time>
      </trkpt>
      <trkpt lat="44.16269" lon="3.14395">
        <ele>806.6</ele>
        <time>2019-04-19T13:32:33Z</time>
      </trkpt>
      <trkpt lat="44.16265" lon="3.14394">
        <ele>806.5</ele>
        <time>2019-04-19T13:32:34Z</time>
      </trkpt>
      <trkpt lat="44.1626" lon="3.14394">
        <ele>806.4</ele>
        <time>2019-04-19T13:32:35Z</time>
      </trkpt>
      <trkpt lat="44.16256" lon="3.14395">
        <ele>806.4</ele>
        <time>2019-04-19T13:32:36Z</time>
      </trkpt>
      <trkpt lat="44.16252" lon="3.14396">
        <ele>806.3</ele>
        <time>2019-04-19T13:32:37Z</time>
      </trkpt>
      <trkpt lat="44.16249" lon="3.14398">
        <ele>806.2</ele>
        <time>2019-04-19T13:32:38Z</time>
      </trkpt>
      <trkpt lat="44.16246" lon="3.14401">
        <ele>806.2</ele>
        <time>2019-04-19T13:32:39Z</time>
      </trkpt>
      <trkpt lat="44.16244" lon="3.14405">
        <ele>806.2</ele>
        <time>2019-04-19T13:32:40Z</time>
      </trkpt>
      <trkpt lat="44.16242" lon="3.14408">
        <ele>806.1</ele>
        <time>2019-04-19T13:32:41Z</time>
      </trkpt>
      <trkpt lat="44.16238" lon="3.14412">
        <ele>806.1</ele>
        <time>2019-04-19T13:32:43Z</time>
      </trkpt>
      <trkpt lat="44.16235" lon="3.14413">
        <ele>806.1</ele>
        <time>2019-04-19T13:32:44Z</time>
      </trkpt>
      <trkpt lat="44.16232" lon="3.14415">
        <ele>806.1</ele>
        <time>2019-04-19T13:32:45Z</time>
      </trkpt>
      <trkpt lat="44.16228" lon="3.14417">
        <ele>806.1</ele>
        <time>2019-04-19T13:32:46Z</time>
      </trkpt>
      <trkpt lat="44.16225" lon="3.14419">
        <ele>806.1</ele>
        <time>2019-04-19T13:32:47Z</time>
      </trkpt>
      <trkpt lat="44.16222" lon="3.1442">
        <ele>806.2</ele>
        <time>2019-04-19T13:32:48Z</time>
      </trkpt>
      <trkpt lat="44.16219" lon="3.14421">
        <ele>806.3</ele>
        <time>2019-04-19T13:32:49Z</time>
      </trkpt>
      <trkpt lat="44.16216" lon="3.14422">
        <ele>806.4</ele>
        <time>2019-04-19T13:32:50Z</time>
      </trkpt>
      <trkpt lat="44.16213" lon="3.14422">
        <ele>806.5</ele>
        <time>2019-04-19T13:32:51Z</time>
      </trkpt>
      <trkpt lat="44.16209" lon="3.14424">
        <ele>806.7</ele>
        <time>2019-04-19T13:32:52Z</time>
      </trkpt>
      <trkpt lat="44.16206" lon="3.14426">
        <ele>806.8</ele>
        <time>2019-04-19T13:32:53Z</time>
      </trkpt>
      <trkpt lat="44.16202" lon="3.14427">
        <ele>807</ele>
        <time>2019-04-19T13:32:54Z</time>
      </trkpt>
      <trkpt lat="44.16199" lon="3.1443">
        <ele>807.1</ele>
        <time>2019-04-19T13:32:55Z</time>
      </trkpt>
      <trkpt lat="44.16196" lon="3.14433">
        <ele>807.3</ele>
        <time>2019-04-19T13:32:56Z</time>
      </trkpt>
      <trkpt lat="44.16193" lon="3.14435">
        <ele>807.5</ele>
        <time>2019-04-19T13:32:57Z</time>
      </trkpt>
      <trkpt lat="44.16191" lon="3.14436">
        <ele>807.6</ele>
        <time>2019-04-19T13:32:58Z</time>
      </trkpt>
      <trkpt lat="44.16187" lon="3.14437">
        <ele>807.7</ele>
        <time>2019-04-19T13:33:00Z</time>
      </trkpt>
      <trkpt lat="44.16183" lon="3.1444">
        <ele>807.9</ele>
        <time>2019-04-19T13:33:02Z</time>
      </trkpt>
      <trkpt lat="44.16179" lon="3.14444">
        <ele>808.1</ele>
        <time>2019-04-19T13:33:04Z</time>
      </trkpt>
      <trkpt lat="44.16176" lon="3.14446">
        <ele>808.2</ele>
        <time>2019-04-19T13:33:05Z</time>
      </trkpt>
      <trkpt lat="44.16173" lon="3.14448">
        <ele>808.3</ele>
        <time>2019-04-19T13:33:06Z</time>
      </trkpt>
      <trkpt lat="44.1617" lon="3.1445">
        <ele>808.5</ele>
        <time>2019-04-19T13:33:08Z</time>
      </trkpt>
      <trkpt lat="44.16166" lon="3.14451">
        <ele>808.6</ele>
        <time>2019-04-19T13:33:09Z</time>
      </trkpt>
      <trkpt lat="44.16162" lon="3.14452">
        <ele>808.7</ele>
        <time>2019-04-19T13:33:10Z</time>
      </trkpt>
      <trkpt lat="44.16157" lon="3.14452">
        <ele>808.8</ele>
        <time>2019-04-19T13:33:11Z</time>
      </trkpt>
      <trkpt lat="44.16154" lon="3.14451">
        <ele>809</ele>
        <time>2019-04-19T13:33:12Z</time>
      </trkpt>
      <trkpt lat="44.1615" lon="3.14451">
        <ele>809.1</ele>
        <time>2019-04-19T13:33:13Z</time>
      </trkpt>
      <trkpt lat="44.16147" lon="3.14452">
        <ele>809.2</ele>
        <time>2019-04-19T13:33:14Z</time>
      </trkpt>
      <trkpt lat="44.16142" lon="3.14454">
        <ele>809.4</ele>
        <time>2019-04-19T13:33:16Z</time>
      </trkpt>
      <trkpt lat="44.16139" lon="3.14456">
        <ele>809.5</ele>
        <time>2019-04-19T13:33:17Z</time>
      </trkpt>
      <trkpt lat="44.16135" lon="3.14458">
        <ele>809.7</ele>
        <time>2019-04-19T13:33:18Z</time>
      </trkpt>
      <trkpt lat="44.16131" lon="3.14459">
        <ele>809.8</ele>
        <time>2019-04-19T13:33:19Z</time>
      </trkpt>
      <trkpt lat="44.16127" lon="3.1446">
        <ele>810.1</ele>
        <time>2019-04-19T13:33:20Z</time>
      </trkpt>
      <trkpt lat="44.16124" lon="3.1446">
        <ele>810.3</ele>
        <time>2019-04-19T13:33:21Z</time>
      </trkpt>
      <trkpt lat="44.1612" lon="3.1446">
        <ele>810.5</ele>
        <time>2019-04-19T13:33:22Z</time>
      </trkpt>
      <trkpt lat="44.16117" lon="3.1446">
        <ele>810.7</ele>
        <time>2019-04-19T13:33:23Z</time>
      </trkpt>
      <trkpt lat="44.16111" lon="3.1446">
        <ele>811</ele>
        <time>2019-04-19T13:33:25Z</time>
      </trkpt>
      <trkpt lat="44.16107" lon="3.14462">
        <ele>811.3</ele>
        <time>2019-04-19T13:33:27Z</time>
      </trkpt>
      <trkpt lat="44.16104" lon="3.14463">
        <ele>811.5</ele>
        <time>2019-04-19T13:33:29Z</time>
      </trkpt>
      <trkpt lat="44.16099" lon="3.14465">
        <ele>811.8</ele>
        <time>2019-04-19T13:33:31Z</time>
      </trkpt>
      <trkpt lat="44.16094" lon="3.14466">
        <ele>812.2</ele>
        <time>2019-04-19T13:33:33Z</time>
      </trkpt>
      <trkpt lat="44.16091" lon="3.14467">
        <ele>812.5</ele>
        <time>2019-04-19T13:33:34Z</time>
      </trkpt>
      <trkpt lat="44.16088" lon="3.1447">
        <ele>812.8</ele>
        <time>2019-04-19T13:33:36Z</time>
      </trkpt>
      <trkpt lat="44.16086" lon="3.14473">
        <ele>813</ele>
        <time>2019-04-19T13:33:39Z</time>
      </trkpt>
      <trkpt lat="44.16085" lon="3.14477">
        <ele>813.3</ele>
        <time>2019-04-19T13:33:43Z</time>
      </trkpt>
      <trkpt lat="44.16069" lon="3.14487">
        <ele>814.7</ele>
        <time>2019-04-19T13:36:44Z</time>
      </trkpt>
      <trkpt lat="44.16067" lon="3.14488">
        <ele>814.9</ele>
        <time>2019-04-19T13:36:45Z</time>
      </trkpt>
      <trkpt lat="44.16063" lon="3.14489">
        <ele>815.2</ele>
        <time>2019-04-19T13:36:47Z</time>
      </trkpt>
      <trkpt lat="44.16057" lon="3.1449">
        <ele>815.6</ele>
        <time>2019-04-19T13:36:49Z</time>
      </trkpt>
      <trkpt lat="44.16055" lon="3.14491">
        <ele>815.9</ele>
        <time>2019-04-19T13:36:50Z</time>
      </trkpt>
      <trkpt lat="44.16051" lon="3.14493">
        <ele>816.2</ele>
        <time>2019-04-19T13:36:53Z</time>
      </trkpt>
      <trkpt lat="44.16049" lon="3.14496">
        <ele>816.5</ele>
        <time>2019-04-19T13:36:56Z</time>
      </trkpt>
      <trkpt lat="44.16045" lon="3.14498">
        <ele>816.7</ele>
        <time>2019-04-19T13:36:58Z</time>
      </trkpt>
      <trkpt lat="44.16042" lon="3.145">
        <ele>817.1</ele>
        <time>2019-04-19T13:36:59Z</time>
      </trkpt>
      <trkpt lat="44.16039" lon="3.14502">
        <ele>817.4</ele>
        <time>2019-04-19T13:37:00Z</time>
      </trkpt>
      <trkpt lat="44.16036" lon="3.14503">
        <ele>817.6</ele>
        <time>2019-04-19T13:37:01Z</time>
      </trkpt>
      <trkpt lat="44.16033" lon="3.14503">
        <ele>817.8</ele>
        <time>2019-04-19T13:37:02Z</time>
      </trkpt>
      <trkpt lat="44.16028" lon="3.14503">
        <ele>818.2</ele>
        <time>2019-04-19T13:37:04Z</time>
      </trkpt>
      <trkpt lat="44.16023" lon="3.14503">
        <ele>818.7</ele>
        <time>2019-04-19T13:37:06Z</time>
      </trkpt>
      <trkpt lat="44.16019" lon="3.14503">
        <ele>819.1</ele>
        <time>2019-04-19T13:37:07Z</time>
      </trkpt>
      <trkpt lat="44.16014" lon="3.14502">
        <ele>819.5</ele>
        <time>2019-04-19T13:37:08Z</time>
      </trkpt>
      <trkpt lat="44.1601" lon="3.14502">
        <ele>820</ele>
        <time>2019-04-19T13:37:09Z</time>
      </trkpt>
      <trkpt lat="44.16006" lon="3.14501">
        <ele>820.3</ele>
        <time>2019-04-19T13:37:10Z</time>
      </trkpt>
      <trkpt lat="44.16002" lon="3.145">
        <ele>820.7</ele>
        <time>2019-04-19T13:37:11Z</time>
      </trkpt>
      <trkpt lat="44.15999" lon="3.14499">
        <ele>820.9</ele>
        <time>2019-04-19T13:37:12Z</time>
      </trkpt>
      <trkpt lat="44.15996" lon="3.14498">
        <ele>821.1</ele>
        <time>2019-04-19T13:37:13Z</time>
      </trkpt>
      <trkpt lat="44.15993" lon="3.14496">
        <ele>821.3</ele>
        <time>2019-04-19T13:37:14Z</time>
      </trkpt>
      <trkpt lat="44.1599" lon="3.14494">
        <ele>821.4</ele>
        <time>2019-04-19T13:37:15Z</time>
      </trkpt>
      <trkpt lat="44.15986" lon="3.14493">
        <ele>821.5</ele>
        <time>2019-04-19T13:37:17Z</time>
      </trkpt>
      <trkpt lat="44.15982" lon="3.14494">
        <ele>821.6</ele>
        <time>2019-04-19T13:37:19Z</time>
      </trkpt>
      <trkpt lat="44.15977" lon="3.14495">
        <ele>821.8</ele>
        <time>2019-04-19T13:37:21Z</time>
      </trkpt>
      <trkpt lat="44.15974" lon="3.14495">
        <ele>821.9</ele>
        <time>2019-04-19T13:37:22Z</time>
      </trkpt>
      <trkpt lat="44.15972" lon="3.14496">
        <ele>822</ele>
        <time>2019-04-19T13:37:23Z</time>
      </trkpt>
      <trkpt lat="44.15968" lon="3.14497">
        <ele>822</ele>
        <time>2019-04-19T13:37:24Z</time>
      </trkpt>
      <trkpt lat="44.15964" lon="3.14498">
        <ele>822.1</ele>
        <time>2019-04-19T13:37:25Z</time>
      </trkpt>
      <trkpt lat="44.15961" lon="3.14498">
        <ele>822.2</ele>
        <time>2019-04-19T13:37:26Z</time>
      </trkpt>
      <trkpt lat="44.15957" lon="3.14498">
        <ele>822.2</ele>
        <time>2019-04-19T13:37:27Z</time>
      </trkpt>
      <trkpt lat="44.15953" lon="3.14498">
        <ele>822.1</ele>
        <time>2019-04-19T13:37:28Z</time>
      </trkpt>
      <trkpt lat="44.15949" lon="3.14499">
        <ele>822.1</ele>
        <time>2019-04-19T13:37:29Z</time>
      </trkpt>
      <trkpt lat="44.15945" lon="3.145">
        <ele>822.1</ele>
        <time>2019-04-19T13:37:30Z</time>
      </trkpt>
      <trkpt lat="44.15943" lon="3.14501">
        <ele>822</ele>
        <time>2019-04-19T13:37:31Z</time>
      </trkpt>
      <trkpt lat="44.1594" lon="3.14503">
        <ele>822</ele>
        <time>2019-04-19T13:37:32Z</time>
      </trkpt>
      <trkpt lat="44.15936" lon="3.14505">
        <ele>821.9</ele>
        <time>2019-04-19T13:37:33Z</time>
      </trkpt>
      <trkpt lat="44.15931" lon="3.14506">
        <ele>821.9</ele>
        <time>2019-04-19T13:37:34Z</time>
      </trkpt>
      <trkpt lat="44.15927" lon="3.14508">
        <ele>821.9</ele>
        <time>2019-04-19T13:37:35Z</time>
      </trkpt>
      <trkpt lat="44.15923" lon="3.14509">
        <ele>821.8</ele>
        <time>2019-04-19T13:37:36Z</time>
      </trkpt>
      <trkpt lat="44.15919" lon="3.14509">
        <ele>821.8</ele>
        <time>2019-04-19T13:37:37Z</time>
      </trkpt>
      <trkpt lat="44.15914" lon="3.14511">
        <ele>821.8</ele>
        <time>2019-04-19T13:37:38Z</time>
      </trkpt>
      <trkpt lat="44.1591" lon="3.14512">
        <ele>821.9</ele>
        <time>2019-04-19T13:37:39Z</time>
      </trkpt>
      <trkpt lat="44.15905" lon="3.14513">
        <ele>822</ele>
        <time>2019-04-19T13:37:40Z</time>
      </trkpt>
      <trkpt lat="44.15901" lon="3.14513">
        <ele>822</ele>
        <time>2019-04-19T13:37:41Z</time>
      </trkpt>
      <trkpt lat="44.15896" lon="3.14513">
        <ele>822.1</ele>
        <time>2019-04-19T13:37:42Z</time>
      </trkpt>
      <trkpt lat="44.15891" lon="3.14512">
        <ele>822.2</ele>
        <time>2019-04-19T13:37:43Z</time>
      </trkpt>
      <trkpt lat="44.15888" lon="3.14511">
        <ele>822.4</ele>
        <time>2019-04-19T13:37:44Z</time>
      </trkpt>
      <trkpt lat="44.15885" lon="3.14509">
        <ele>822.6</ele>
        <time>2019-04-19T13:37:45Z</time>
      </trkpt>
      <trkpt lat="44.15881" lon="3.14509">
        <ele>822.8</ele>
        <time>2019-04-19T13:37:46Z</time>
      </trkpt>
      <trkpt lat="44.15877" lon="3.14508">
        <ele>823.1</ele>
        <time>2019-04-19T13:37:47Z</time>
      </trkpt>
      <trkpt lat="44.15871" lon="3.14509">
        <ele>823.4</ele>
        <time>2019-04-19T13:37:49Z</time>
      </trkpt>
      <trkpt lat="44.15868" lon="3.14508">
        <ele>823.6</ele>
        <time>2019-04-19T13:37:50Z</time>
      </trkpt>
      <trkpt lat="44.15865" lon="3.14508">
        <ele>823.8</ele>
        <time>2019-04-19T13:37:51Z</time>
      </trkpt>
      <trkpt lat="44.15861" lon="3.14508">
        <ele>824.1</ele>
        <time>2019-04-19T13:37:52Z</time>
      </trkpt>
      <trkpt lat="44.15858" lon="3.14507">
        <ele>824.4</ele>
        <time>2019-04-19T13:37:53Z</time>
      </trkpt>
      <trkpt lat="44.15854" lon="3.14508">
        <ele>824.7</ele>
        <time>2019-04-19T13:37:54Z</time>
      </trkpt>
      <trkpt lat="44.1585" lon="3.14508">
        <ele>824.9</ele>
        <time>2019-04-19T13:37:55Z</time>
      </trkpt>
      <trkpt lat="44.15846" lon="3.14508">
        <ele>825.1</ele>
        <time>2019-04-19T13:37:57Z</time>
      </trkpt>
      <trkpt lat="44.15844" lon="3.14508">
        <ele>825.2</ele>
        <time>2019-04-19T13:37:58Z</time>
      </trkpt>
      <trkpt lat="44.15841" lon="3.14509">
        <ele>825.3</ele>
        <time>2019-04-19T13:37:59Z</time>
      </trkpt>
      <trkpt lat="44.15836" lon="3.1451">
        <ele>825.4</ele>
        <time>2019-04-19T13:38:01Z</time>
      </trkpt>
      <trkpt lat="44.15833" lon="3.14511">
        <ele>825.5</ele>
        <time>2019-04-19T13:38:02Z</time>
      </trkpt>
      <trkpt lat="44.1583" lon="3.14512">
        <ele>825.6</ele>
        <time>2019-04-19T13:38:03Z</time>
      </trkpt>
      <trkpt lat="44.15827" lon="3.14514">
        <ele>825.6</ele>
        <time>2019-04-19T13:38:04Z</time>
      </trkpt>
      <trkpt lat="44.15823" lon="3.14517">
        <ele>825.7</ele>
        <time>2019-04-19T13:38:05Z</time>
      </trkpt>
      <trkpt lat="44.1582" lon="3.1452">
        <ele>825.8</ele>
        <time>2019-04-19T13:38:06Z</time>
      </trkpt>
      <trkpt lat="44.15817" lon="3.14522">
        <ele>825.8</ele>
        <time>2019-04-19T13:38:07Z</time>
      </trkpt>
      <trkpt lat="44.15814" lon="3.14523">
        <ele>825.9</ele>
        <time>2019-04-19T13:38:08Z</time>
      </trkpt>
      <trkpt lat="44.15811" lon="3.14525">
        <ele>826</ele>
        <time>2019-04-19T13:38:09Z</time>
      </trkpt>
      <trkpt lat="44.15807" lon="3.14526">
        <ele>826.1</ele>
        <time>2019-04-19T13:38:10Z</time>
      </trkpt>
      <trkpt lat="44.15802" lon="3.14527">
        <ele>826.2</ele>
        <time>2019-04-19T13:38:11Z</time>
      </trkpt>
      <trkpt lat="44.15798" lon="3.14528">
        <ele>826.3</ele>
        <time>2019-04-19T13:38:12Z</time>
      </trkpt>
      <trkpt lat="44.15794" lon="3.14529">
        <ele>826.4</ele>
        <time>2019-04-19T13:38:13Z</time>
      </trkpt>
      <trkpt lat="44.15789" lon="3.1453">
        <ele>826.5</ele>
        <time>2019-04-19T13:38:14Z</time>
      </trkpt>
      <trkpt lat="44.15786" lon="3.14531">
        <ele>826.6</ele>
        <time>2019-04-19T13:38:15Z</time>
      </trkpt>
      <trkpt lat="44.15782" lon="3.14534">
        <ele>826.7</ele>
        <time>2019-04-19T13:38:16Z</time>
      </trkpt>
      <trkpt lat="44.15779" lon="3.14536">
        <ele>826.8</ele>
        <time>2019-04-19T13:38:17Z</time>
      </trkpt>
      <trkpt lat="44.15776" lon="3.14539">
        <ele>826.9</ele>
        <time>2019-04-19T13:38:18Z</time>
      </trkpt>
      <trkpt lat="44.15774" lon="3.14543">
        <ele>827</ele>
        <time>2019-04-19T13:38:19Z</time>
      </trkpt>
      <trkpt lat="44.15772" lon="3.14547">
        <ele>827.1</ele>
        <time>2019-04-19T13:38:20Z</time>
      </trkpt>
      <trkpt lat="44.1577" lon="3.14551">
        <ele>827.2</ele>
        <time>2019-04-19T13:38:21Z</time>
      </trkpt>
      <trkpt lat="44.15768" lon="3.14554">
        <ele>827.3</ele>
        <time>2019-04-19T13:38:22Z</time>
      </trkpt>
      <trkpt lat="44.15765" lon="3.14558">
        <ele>827.5</ele>
        <time>2019-04-19T13:38:23Z</time>
      </trkpt>
      <trkpt lat="44.15762" lon="3.14561">
        <ele>827.7</ele>
        <time>2019-04-19T13:38:24Z</time>
      </trkpt>
      <trkpt lat="44.15759" lon="3.14564">
        <ele>827.9</ele>
        <time>2019-04-19T13:38:25Z</time>
      </trkpt>
      <trkpt lat="44.15756" lon="3.14567">
        <ele>828.2</ele>
        <time>2019-04-19T13:38:26Z</time>
      </trkpt>
      <trkpt lat="44.15753" lon="3.14571">
        <ele>828.4</ele>
        <time>2019-04-19T13:38:28Z</time>
      </trkpt>
      <trkpt lat="44.15751" lon="3.14574">
        <ele>828.6</ele>
        <time>2019-04-19T13:38:31Z</time>
      </trkpt>
      <trkpt lat="44.15748" lon="3.14576">
        <ele>828.8</ele>
        <time>2019-04-19T13:38:33Z</time>
      </trkpt>
      <trkpt lat="44.15745" lon="3.14577">
        <ele>828.9</ele>
        <time>2019-04-19T13:38:34Z</time>
      </trkpt>
      <trkpt lat="44.15741" lon="3.14578">
        <ele>829</ele>
        <time>2019-04-19T13:38:35Z</time>
      </trkpt>
      <trkpt lat="44.15739" lon="3.14578">
        <ele>829.1</ele>
        <time>2019-04-19T13:38:36Z</time>
      </trkpt>
      <trkpt lat="44.15735" lon="3.14581">
        <ele>829.3</ele>
        <time>2019-04-19T13:38:38Z</time>
      </trkpt>
      <trkpt lat="44.15731" lon="3.14585">
        <ele>829.5</ele>
        <time>2019-04-19T13:38:40Z</time>
      </trkpt>
      <trkpt lat="44.15729" lon="3.14587">
        <ele>829.5</ele>
        <time>2019-04-19T13:38:41Z</time>
      </trkpt>
      <trkpt lat="44.15726" lon="3.1459">
        <ele>829.6</ele>
        <time>2019-04-19T13:38:42Z</time>
      </trkpt>
      <trkpt lat="44.15723" lon="3.14593">
        <ele>829.7</ele>
        <time>2019-04-19T13:38:43Z</time>
      </trkpt>
      <trkpt lat="44.15719" lon="3.14597">
        <ele>829.8</ele>
        <time>2019-04-19T13:38:44Z</time>
      </trkpt>
      <trkpt lat="44.15716" lon="3.146">
        <ele>829.8</ele>
        <time>2019-04-19T13:38:45Z</time>
      </trkpt>
      <trkpt lat="44.15712" lon="3.14602">
        <ele>829.8</ele>
        <time>2019-04-19T13:38:46Z</time>
      </trkpt>
      <trkpt lat="44.15708" lon="3.14604">
        <ele>829.7</ele>
        <time>2019-04-19T13:38:47Z</time>
      </trkpt>
      <trkpt lat="44.15705" lon="3.14605">
        <ele>829.6</ele>
        <time>2019-04-19T13:38:48Z</time>
      </trkpt>
      <trkpt lat="44.15702" lon="3.14607">
        <ele>829.5</ele>
        <time>2019-04-19T13:38:49Z</time>
      </trkpt>
      <trkpt lat="44.15697" lon="3.1461">
        <ele>829.4</ele>
        <time>2019-04-19T13:38:51Z</time>
      </trkpt>
      <trkpt lat="44.15694" lon="3.14612">
        <ele>829.3</ele>
        <time>2019-04-19T13:38:53Z</time>
      </trkpt>
      <trkpt lat="44.15691" lon="3.14612">
        <ele>829.2</ele>
        <time>2019-04-19T13:38:54Z</time>
      </trkpt>
      <trkpt lat="44.15686" lon="3.14612">
        <ele>829.1</ele>
        <time>2019-04-19T13:38:55Z</time>
      </trkpt>
      <trkpt lat="44.15681" lon="3.14612">
        <ele>829</ele>
        <time>2019-04-19T13:38:56Z</time>
      </trkpt>
      <trkpt lat="44.15677" lon="3.14613">
        <ele>829</ele>
        <time>2019-04-19T13:38:57Z</time>
      </trkpt>
      <trkpt lat="44.15672" lon="3.14615">
        <ele>829</ele>
        <time>2019-04-19T13:38:58Z</time>
      </trkpt>
      <trkpt lat="44.15668" lon="3.14618">
        <ele>829</ele>
        <time>2019-04-19T13:38:59Z</time>
      </trkpt>
      <trkpt lat="44.15664" lon="3.14622">
        <ele>829</ele>
        <time>2019-04-19T13:39:00Z</time>
      </trkpt>
      <trkpt lat="44.1566" lon="3.14627">
        <ele>829.1</ele>
        <time>2019-04-19T13:39:01Z</time>
      </trkpt>
      <trkpt lat="44.15656" lon="3.14631">
        <ele>829.2</ele>
        <time>2019-04-19T13:39:02Z</time>
      </trkpt>
      <trkpt lat="44.15653" lon="3.14635">
        <ele>829.3</ele>
        <time>2019-04-19T13:39:03Z</time>
      </trkpt>
      <trkpt lat="44.1565" lon="3.14639">
        <ele>829.5</ele>
        <time>2019-04-19T13:39:04Z</time>
      </trkpt>
      <trkpt lat="44.15648" lon="3.14643">
        <ele>829.9</ele>
        <time>2019-04-19T13:39:05Z</time>
      </trkpt>
      <trkpt lat="44.15646" lon="3.14646">
        <ele>830.1</ele>
        <time>2019-04-19T13:39:06Z</time>
      </trkpt>
      <trkpt lat="44.15643" lon="3.14652">
        <ele>830.4</ele>
        <time>2019-04-19T13:39:08Z</time>
      </trkpt>
      <trkpt lat="44.1564" lon="3.14657">
        <ele>830.8</ele>
        <time>2019-04-19T13:39:10Z</time>
      </trkpt>
      <trkpt lat="44.15638" lon="3.14661">
        <ele>831</ele>
        <time>2019-04-19T13:39:11Z</time>
      </trkpt>
      <trkpt lat="44.15637" lon="3.14667">
        <ele>831.4</ele>
        <time>2019-04-19T13:39:13Z</time>
      </trkpt>
      <trkpt lat="44.15637" lon="3.14671">
        <ele>831.6</ele>
        <time>2019-04-19T13:39:14Z</time>
      </trkpt>
      <trkpt lat="44.15636" lon="3.14679">
        <ele>832.2</ele>
        <time>2019-04-19T13:39:16Z</time>
      </trkpt>
      <trkpt lat="44.15635" lon="3.14683">
        <ele>832.5</ele>
        <time>2019-04-19T13:39:17Z</time>
      </trkpt>
      <trkpt lat="44.15634" lon="3.14686">
        <ele>832.8</ele>
        <time>2019-04-19T13:39:18Z</time>
      </trkpt>
      <trkpt lat="44.15633" lon="3.14691">
        <ele>833.1</ele>
        <time>2019-04-19T13:39:19Z</time>
      </trkpt>
      <trkpt lat="44.15632" lon="3.14696">
        <ele>833.4</ele>
        <time>2019-04-19T13:39:20Z</time>
      </trkpt>
      <trkpt lat="44.15632" lon="3.14701">
        <ele>833.7</ele>
        <time>2019-04-19T13:39:21Z</time>
      </trkpt>
      <trkpt lat="44.15631" lon="3.14705">
        <ele>833.9</ele>
        <time>2019-04-19T13:39:22Z</time>
      </trkpt>
      <trkpt lat="44.15631" lon="3.1471">
        <ele>834.1</ele>
        <time>2019-04-19T13:39:23Z</time>
      </trkpt>
      <trkpt lat="44.15629" lon="3.14717">
        <ele>834.6</ele>
        <time>2019-04-19T13:39:25Z</time>
      </trkpt>
      <trkpt lat="44.15628" lon="3.1472">
        <ele>834.8</ele>
        <time>2019-04-19T13:39:26Z</time>
      </trkpt>
      <trkpt lat="44.15626" lon="3.14724">
        <ele>835.1</ele>
        <time>2019-04-19T13:39:27Z</time>
      </trkpt>
      <trkpt lat="44.15624" lon="3.14729">
        <ele>835.5</ele>
        <time>2019-04-19T13:39:29Z</time>
      </trkpt>
      <trkpt lat="44.15622" lon="3.14733">
        <ele>835.9</ele>
        <time>2019-04-19T13:39:31Z</time>
      </trkpt>
      <trkpt lat="44.1562" lon="3.1474">
        <ele>836.2</ele>
        <time>2019-04-19T13:39:33Z</time>
      </trkpt>
      <trkpt lat="44.15619" lon="3.14744">
        <ele>836.4</ele>
        <time>2019-04-19T13:39:34Z</time>
      </trkpt>
      <trkpt lat="44.15618" lon="3.14749">
        <ele>836.6</ele>
        <time>2019-04-19T13:39:35Z</time>
      </trkpt>
      <trkpt lat="44.15618" lon="3.14754">
        <ele>836.5</ele>
        <time>2019-04-19T13:39:36Z</time>
      </trkpt>
      <trkpt lat="44.15616" lon="3.14759">
        <ele>836.5</ele>
        <time>2019-04-19T13:39:37Z</time>
      </trkpt>
      <trkpt lat="44.15615" lon="3.14762">
        <ele>836.7</ele>
        <time>2019-04-19T13:39:38Z</time>
      </trkpt>
      <trkpt lat="44.15612" lon="3.14768">
        <ele>837</ele>
        <time>2019-04-19T13:39:40Z</time>
      </trkpt>
      <trkpt lat="44.15612" lon="3.14773">
        <ele>836.9</ele>
        <time>2019-04-19T13:39:42Z</time>
      </trkpt>
      <trkpt lat="44.15613" lon="3.14779">
        <ele>836.6</ele>
        <time>2019-04-19T13:39:44Z</time>
      </trkpt>
      <trkpt lat="44.15611" lon="3.14785">
        <ele>836.8</ele>
        <time>2019-04-19T13:39:46Z</time>
      </trkpt>
      <trkpt lat="44.15607" lon="3.14788">
        <ele>837.1</ele>
        <time>2019-04-19T13:39:48Z</time>
      </trkpt>
      <trkpt lat="44.15604" lon="3.14791">
        <ele>837.3</ele>
        <time>2019-04-19T13:39:50Z</time>
      </trkpt>
      <trkpt lat="44.15601" lon="3.14796">
        <ele>837.6</ele>
        <time>2019-04-19T13:39:52Z</time>
      </trkpt>
      <trkpt lat="44.15599" lon="3.14798">
        <ele>837.9</ele>
        <time>2019-04-19T13:39:53Z</time>
      </trkpt>
      <trkpt lat="44.15596" lon="3.14803">
        <ele>838.3</ele>
        <time>2019-04-19T13:39:55Z</time>
      </trkpt>
      <trkpt lat="44.15593" lon="3.14805">
        <ele>838.6</ele>
        <time>2019-04-19T13:39:57Z</time>
      </trkpt>
      <trkpt lat="44.1559" lon="3.14807">
        <ele>839.1</ele>
        <time>2019-04-19T13:39:59Z</time>
      </trkpt>
      <trkpt lat="44.15587" lon="3.14809">
        <ele>839.5</ele>
        <time>2019-04-19T13:40:00Z</time>
      </trkpt>
      <trkpt lat="44.15584" lon="3.14812">
        <ele>840</ele>
        <time>2019-04-19T13:40:01Z</time>
      </trkpt>
      <trkpt lat="44.15582" lon="3.14814">
        <ele>840.4</ele>
        <time>2019-04-19T13:40:02Z</time>
      </trkpt>
      <trkpt lat="44.15578" lon="3.14817">
        <ele>840.8</ele>
        <time>2019-04-19T13:40:04Z</time>
      </trkpt>
      <trkpt lat="44.15575" lon="3.14822">
        <ele>841.3</ele>
        <time>2019-04-19T13:40:06Z</time>
      </trkpt>
      <trkpt lat="44.15573" lon="3.14825">
        <ele>841.7</ele>
        <time>2019-04-19T13:40:10Z</time>
      </trkpt>
      <trkpt lat="44.1557" lon="3.1483">
        <ele>841.8</ele>
        <time>2019-04-19T13:40:14Z</time>
      </trkpt>
      <trkpt lat="44.15569" lon="3.14836">
        <ele>842.4</ele>
        <time>2019-04-19T13:40:16Z</time>
      </trkpt>
      <trkpt lat="44.15567" lon="3.14841">
        <ele>842.9</ele>
        <time>2019-04-19T13:40:18Z</time>
      </trkpt>
      <trkpt lat="44.15564" lon="3.14846">
        <ele>843</ele>
        <time>2019-04-19T13:40:20Z</time>
      </trkpt>
      <trkpt lat="44.15561" lon="3.14848">
        <ele>843.3</ele>
        <time>2019-04-19T13:40:22Z</time>
      </trkpt>
      <trkpt lat="44.15557" lon="3.1485">
        <ele>844</ele>
        <time>2019-04-19T13:40:24Z</time>
      </trkpt>
      <trkpt lat="44.15553" lon="3.14852">
        <ele>844.3</ele>
        <time>2019-04-19T13:40:26Z</time>
      </trkpt>
      <trkpt lat="44.15549" lon="3.14852">
        <ele>844.5</ele>
        <time>2019-04-19T13:40:28Z</time>
      </trkpt>
      <trkpt lat="44.15545" lon="3.14852">
        <ele>844.9</ele>
        <time>2019-04-19T13:40:30Z</time>
      </trkpt>
      <trkpt lat="44.1554" lon="3.14851">
        <ele>845</ele>
        <time>2019-04-19T13:40:32Z</time>
      </trkpt>
      <trkpt lat="44.15536" lon="3.14854">
        <ele>845.4</ele>
        <time>2019-04-19T13:40:34Z</time>
      </trkpt>
      <trkpt lat="44.15534" lon="3.14862">
        <ele>845.4</ele>
        <time>2019-04-19T13:40:36Z</time>
      </trkpt>
      <trkpt lat="44.15533" lon="3.14868">
        <ele>845.4</ele>
        <time>2019-04-19T13:40:37Z</time>
      </trkpt>
      <trkpt lat="44.15535" lon="3.14886">
        <ele>845</ele>
        <time>2019-04-19T13:40:38Z</time>
      </trkpt>
      <trkpt lat="44.15536" lon="3.14893">
        <ele>844.9</ele>
        <time>2019-04-19T13:40:39Z</time>
      </trkpt>
      <trkpt lat="44.15537" lon="3.14901">
        <ele>844.7</ele>
        <time>2019-04-19T13:40:40Z</time>
      </trkpt>
      <trkpt lat="44.15537" lon="3.14911">
        <ele>844.4</ele>
        <time>2019-04-19T13:40:41Z</time>
      </trkpt>
      <trkpt lat="44.15537" lon="3.14922">
        <ele>844.1</ele>
        <time>2019-04-19T13:40:42Z</time>
      </trkpt>
      <trkpt lat="44.15538" lon="3.14933">
        <ele>843.9</ele>
        <time>2019-04-19T13:40:43Z</time>
      </trkpt>
      <trkpt lat="44.15539" lon="3.14944">
        <ele>843.7</ele>
        <time>2019-04-19T13:40:44Z</time>
      </trkpt>
      <trkpt lat="44.15539" lon="3.14953">
        <ele>843.5</ele>
        <time>2019-04-19T13:40:45Z</time>
      </trkpt>
      <trkpt lat="44.15538" lon="3.14964">
        <ele>843.3</ele>
        <time>2019-04-19T13:40:46Z</time>
      </trkpt>
      <trkpt lat="44.15539" lon="3.14973">
        <ele>843.2</ele>
        <time>2019-04-19T13:40:47Z</time>
      </trkpt>
      <trkpt lat="44.15539" lon="3.14981">
        <ele>843.1</ele>
        <time>2019-04-19T13:40:48Z</time>
      </trkpt>
      <trkpt lat="44.15539" lon="3.14991">
        <ele>843</ele>
        <time>2019-04-19T13:40:49Z</time>
      </trkpt>
      <trkpt lat="44.1554" lon="3.14999">
        <ele>842.8</ele>
        <time>2019-04-19T13:40:50Z</time>
      </trkpt>
      <trkpt lat="44.1554" lon="3.15004">
        <ele>842.8</ele>
        <time>2019-04-19T13:40:51Z</time>
      </trkpt>
      <trkpt lat="44.1554" lon="3.15011">
        <ele>842.7</ele>
        <time>2019-04-19T13:40:52Z</time>
      </trkpt>
      <trkpt lat="44.1554" lon="3.15018">
        <ele>842.6</ele>
        <time>2019-04-19T13:40:53Z</time>
      </trkpt>
      <trkpt lat="44.15539" lon="3.15024">
        <ele>842.4</ele>
        <time>2019-04-19T13:40:54Z</time>
      </trkpt>
      <trkpt lat="44.1554" lon="3.1503">
        <ele>842.3</ele>
        <time>2019-04-19T13:40:55Z</time>
      </trkpt>
      <trkpt lat="44.15541" lon="3.15036">
        <ele>842.2</ele>
        <time>2019-04-19T13:40:56Z</time>
      </trkpt>
      <trkpt lat="44.15542" lon="3.15042">
        <ele>842.1</ele>
        <time>2019-04-19T13:40:57Z</time>
      </trkpt>
      <trkpt lat="44.15541" lon="3.15047">
        <ele>842</ele>
        <time>2019-04-19T13:40:58Z</time>
      </trkpt>
      <trkpt lat="44.15539" lon="3.15053">
        <ele>841.8</ele>
        <time>2019-04-19T13:40:59Z</time>
      </trkpt>
      <trkpt lat="44.15537" lon="3.15058">
        <ele>841.7</ele>
        <time>2019-04-19T13:41:00Z</time>
      </trkpt>
      <trkpt lat="44.15535" lon="3.15063">
        <ele>841.5</ele>
        <time>2019-04-19T13:41:01Z</time>
      </trkpt>
      <trkpt lat="44.15536" lon="3.15071">
        <ele>841.4</ele>
        <time>2019-04-19T13:41:02Z</time>
      </trkpt>
      <trkpt lat="44.15531" lon="3.15087">
        <ele>840.9</ele>
        <time>2019-04-19T13:41:04Z</time>
      </trkpt>
      <trkpt lat="44.1553" lon="3.15093">
        <ele>840.7</ele>
        <time>2019-04-19T13:41:05Z</time>
      </trkpt>
      <trkpt lat="44.15528" lon="3.15097">
        <ele>840.7</ele>
        <time>2019-04-19T13:41:06Z</time>
      </trkpt>
      <trkpt lat="44.15527" lon="3.15101">
        <ele>840.7</ele>
        <time>2019-04-19T13:41:07Z</time>
      </trkpt>
      <trkpt lat="44.15525" lon="3.15105">
        <ele>840.5</ele>
        <time>2019-04-19T13:41:08Z</time>
      </trkpt>
      <trkpt lat="44.15524" lon="3.15112">
        <ele>840.2</ele>
        <time>2019-04-19T13:41:09Z</time>
      </trkpt>
      <trkpt lat="44.15522" lon="3.15117">
        <ele>840.2</ele>
        <time>2019-04-19T13:41:10Z</time>
      </trkpt>
      <trkpt lat="44.15521" lon="3.15125">
        <ele>839.9</ele>
        <time>2019-04-19T13:41:11Z</time>
      </trkpt>
      <trkpt lat="44.15519" lon="3.15132">
        <ele>839.8</ele>
        <time>2019-04-19T13:41:12Z</time>
      </trkpt>
      <trkpt lat="44.15518" lon="3.15138">
        <ele>839.6</ele>
        <time>2019-04-19T13:41:13Z</time>
      </trkpt>
      <trkpt lat="44.15517" lon="3.15143">
        <ele>839.6</ele>
        <time>2019-04-19T13:41:15Z</time>
      </trkpt>
      <trkpt lat="44.15509" lon="3.15179">
        <ele>838.9</ele>
        <time>2019-04-19T13:41:17Z</time>
      </trkpt>
      <trkpt lat="44.15511" lon="3.15188">
        <ele>838.6</ele>
        <time>2019-04-19T13:41:18Z</time>
      </trkpt>
      <trkpt lat="44.15515" lon="3.15202">
        <ele>837.6</ele>
        <time>2019-04-19T13:41:19Z</time>
      </trkpt>
      <trkpt lat="44.15514" lon="3.15213">
        <ele>837.6</ele>
        <time>2019-04-19T13:41:20Z</time>
      </trkpt>
      <trkpt lat="44.15515" lon="3.15224">
        <ele>837</ele>
        <time>2019-04-19T13:41:21Z</time>
      </trkpt>
      <trkpt lat="44.15517" lon="3.15232">
        <ele>836.8</ele>
        <time>2019-04-19T13:41:22Z</time>
      </trkpt>
      <trkpt lat="44.15517" lon="3.15237">
        <ele>836.6</ele>
        <time>2019-04-19T13:41:24Z</time>
      </trkpt>
      <trkpt lat="44.15523" lon="3.15241">
        <ele>835.9</ele>
        <time>2019-04-19T13:41:27Z</time>
      </trkpt>
      <trkpt lat="44.15525" lon="3.15244">
        <ele>835.5</ele>
        <time>2019-04-19T13:41:28Z</time>
      </trkpt>
      <trkpt lat="44.15523" lon="3.15247">
        <ele>835.7</ele>
        <time>2019-04-19T13:41:29Z</time>
      </trkpt>
      <trkpt lat="44.15524" lon="3.15252">
        <ele>835.6</ele>
        <time>2019-04-19T13:41:31Z</time>
      </trkpt>
      <trkpt lat="44.15522" lon="3.15259">
        <ele>835.4</ele>
        <time>2019-04-19T13:41:33Z</time>
      </trkpt>
      <trkpt lat="44.15521" lon="3.15264">
        <ele>835.3</ele>
        <time>2019-04-19T13:41:35Z</time>
      </trkpt>
      <trkpt lat="44.15524" lon="3.15267">
        <ele>835.1</ele>
        <time>2019-04-19T13:41:37Z</time>
      </trkpt>
      <trkpt lat="44.15527" lon="3.15269">
        <ele>834.6</ele>
        <time>2019-04-19T13:41:39Z</time>
      </trkpt>
      <trkpt lat="44.15531" lon="3.15271">
        <ele>834.3</ele>
        <time>2019-04-19T13:41:41Z</time>
      </trkpt>
      <trkpt lat="44.15535" lon="3.15272">
        <ele>834</ele>
        <time>2019-04-19T13:41:43Z</time>
      </trkpt>
      <trkpt lat="44.15537" lon="3.15275">
        <ele>833.7</ele>
        <time>2019-04-19T13:41:45Z</time>
      </trkpt>
      <trkpt lat="44.1554" lon="3.15278">
        <ele>833.5</ele>
        <time>2019-04-19T13:41:46Z</time>
      </trkpt>
      <trkpt lat="44.15543" lon="3.15282">
        <ele>833.2</ele>
        <time>2019-04-19T13:41:47Z</time>
      </trkpt>
      <trkpt lat="44.15546" lon="3.15284">
        <ele>832.9</ele>
        <time>2019-04-19T13:41:48Z</time>
      </trkpt>
      <trkpt lat="44.15551" lon="3.15286">
        <ele>832.7</ele>
        <time>2019-04-19T13:41:49Z</time>
      </trkpt>
      <trkpt lat="44.15554" lon="3.15287">
        <ele>832.4</ele>
        <time>2019-04-19T13:41:50Z</time>
      </trkpt>
      <trkpt lat="44.15557" lon="3.15288">
        <ele>832.1</ele>
        <time>2019-04-19T13:41:51Z</time>
      </trkpt>
      <trkpt lat="44.15561" lon="3.15289">
        <ele>831.6</ele>
        <time>2019-04-19T13:41:52Z</time>
      </trkpt>
      <trkpt lat="44.15566" lon="3.15291">
        <ele>831.3</ele>
        <time>2019-04-19T13:41:53Z</time>
      </trkpt>
      <trkpt lat="44.15571" lon="3.15293">
        <ele>830.9</ele>
        <time>2019-04-19T13:41:54Z</time>
      </trkpt>
      <trkpt lat="44.15595" lon="3.15295">
        <ele>829.4</ele>
        <time>2019-04-19T13:41:56Z</time>
      </trkpt>
      <trkpt lat="44.15601" lon="3.15296">
        <ele>828.7</ele>
        <time>2019-04-19T13:41:57Z</time>
      </trkpt>
      <trkpt lat="44.15605" lon="3.15295">
        <ele>828.5</ele>
        <time>2019-04-19T13:41:58Z</time>
      </trkpt>
      <trkpt lat="44.15614" lon="3.15293">
        <ele>827.7</ele>
        <time>2019-04-19T13:41:59Z</time>
      </trkpt>
      <trkpt lat="44.15619" lon="3.15294">
        <ele>827.5</ele>
        <time>2019-04-19T13:42:00Z</time>
      </trkpt>
      <trkpt lat="44.15626" lon="3.15296">
        <ele>827.3</ele>
        <time>2019-04-19T13:42:01Z</time>
      </trkpt>
      <trkpt lat="44.15629" lon="3.15299">
        <ele>827.2</ele>
        <time>2019-04-19T13:42:03Z</time>
      </trkpt>
      <trkpt lat="44.15632" lon="3.153">
        <ele>827.1</ele>
        <time>2019-04-19T13:42:04Z</time>
      </trkpt>
      <trkpt lat="44.15637" lon="3.15303">
        <ele>827</ele>
        <time>2019-04-19T13:42:05Z</time>
      </trkpt>
      <trkpt lat="44.15643" lon="3.15304">
        <ele>826.9</ele>
        <time>2019-04-19T13:42:06Z</time>
      </trkpt>
      <trkpt lat="44.15648" lon="3.15305">
        <ele>826.8</ele>
        <time>2019-04-19T13:42:07Z</time>
      </trkpt>
      <trkpt lat="44.15652" lon="3.15306">
        <ele>826.7</ele>
        <time>2019-04-19T13:42:08Z</time>
      </trkpt>
      <trkpt lat="44.15656" lon="3.15306">
        <ele>826.7</ele>
        <time>2019-04-19T13:42:09Z</time>
      </trkpt>
      <trkpt lat="44.1566" lon="3.15305">
        <ele>826.7</ele>
        <time>2019-04-19T13:42:10Z</time>
      </trkpt>
      <trkpt lat="44.15664" lon="3.15302">
        <ele>826.5</ele>
        <time>2019-04-19T13:42:11Z</time>
      </trkpt>
      <trkpt lat="44.1567" lon="3.153">
        <ele>826.5</ele>
        <time>2019-04-19T13:42:12Z</time>
      </trkpt>
      <trkpt lat="44.15675" lon="3.15299">
        <ele>826.4</ele>
        <time>2019-04-19T13:42:13Z</time>
      </trkpt>
      <trkpt lat="44.15679" lon="3.15299">
        <ele>826.4</ele>
        <time>2019-04-19T13:42:14Z</time>
      </trkpt>
      <trkpt lat="44.15682" lon="3.15301">
        <ele>826.4</ele>
        <time>2019-04-19T13:42:15Z</time>
      </trkpt>
      <trkpt lat="44.15684" lon="3.15304">
        <ele>826.4</ele>
        <time>2019-04-19T13:42:16Z</time>
      </trkpt>
      <trkpt lat="44.15687" lon="3.15306">
        <ele>826.4</ele>
        <time>2019-04-19T13:42:17Z</time>
      </trkpt>
      <trkpt lat="44.1569" lon="3.15308">
        <ele>826.5</ele>
        <time>2019-04-19T13:42:18Z</time>
      </trkpt>
      <trkpt lat="44.15692" lon="3.15311">
        <ele>826.4</ele>
        <time>2019-04-19T13:42:19Z</time>
      </trkpt>
      <trkpt lat="44.15694" lon="3.15313">
        <ele>826.5</ele>
        <time>2019-04-19T13:42:20Z</time>
      </trkpt>
      <trkpt lat="44.15697" lon="3.15316">
        <ele>826.5</ele>
        <time>2019-04-19T13:42:21Z</time>
      </trkpt>
      <trkpt lat="44.157" lon="3.15319">
        <ele>826.5</ele>
        <time>2019-04-19T13:42:22Z</time>
      </trkpt>
      <trkpt lat="44.15704" lon="3.15321">
        <ele>826.6</ele>
        <time>2019-04-19T13:42:23Z</time>
      </trkpt>
      <trkpt lat="44.15707" lon="3.15324">
        <ele>826.6</ele>
        <time>2019-04-19T13:42:24Z</time>
      </trkpt>
      <trkpt lat="44.15709" lon="3.15326">
        <ele>826.6</ele>
        <time>2019-04-19T13:42:25Z</time>
      </trkpt>
      <trkpt lat="44.15712" lon="3.15329">
        <ele>826.7</ele>
        <time>2019-04-19T13:42:26Z</time>
      </trkpt>
      <trkpt lat="44.15715" lon="3.15332">
        <ele>826.7</ele>
        <time>2019-04-19T13:42:27Z</time>
      </trkpt>
      <trkpt lat="44.15718" lon="3.15335">
        <ele>826.8</ele>
        <time>2019-04-19T13:42:28Z</time>
      </trkpt>
      <trkpt lat="44.15721" lon="3.15339">
        <ele>826.9</ele>
        <time>2019-04-19T13:42:29Z</time>
      </trkpt>
      <trkpt lat="44.15723" lon="3.15342">
        <ele>827</ele>
        <time>2019-04-19T13:42:30Z</time>
      </trkpt>
      <trkpt lat="44.15725" lon="3.15346">
        <ele>827.1</ele>
        <time>2019-04-19T13:42:31Z</time>
      </trkpt>
      <trkpt lat="44.15727" lon="3.15349">
        <ele>827.2</ele>
        <time>2019-04-19T13:42:32Z</time>
      </trkpt>
      <trkpt lat="44.15728" lon="3.15353">
        <ele>827.3</ele>
        <time>2019-04-19T13:42:33Z</time>
      </trkpt>
      <trkpt lat="44.1573" lon="3.15357">
        <ele>827.4</ele>
        <time>2019-04-19T13:42:34Z</time>
      </trkpt>
      <trkpt lat="44.15732" lon="3.1536">
        <ele>827.5</ele>
        <time>2019-04-19T13:42:35Z</time>
      </trkpt>
      <trkpt lat="44.15735" lon="3.15363">
        <ele>827.6</ele>
        <time>2019-04-19T13:42:36Z</time>
      </trkpt>
      <trkpt lat="44.15738" lon="3.15367">
        <ele>827.8</ele>
        <time>2019-04-19T13:42:38Z</time>
      </trkpt>
      <trkpt lat="44.15742" lon="3.15373">
        <ele>828</ele>
        <time>2019-04-19T13:42:40Z</time>
      </trkpt>
      <trkpt lat="44.15744" lon="3.15377">
        <ele>828.2</ele>
        <time>2019-04-19T13:42:41Z</time>
      </trkpt>
      <trkpt lat="44.15746" lon="3.1538">
        <ele>828.3</ele>
        <time>2019-04-19T13:42:42Z</time>
      </trkpt>
      <trkpt lat="44.15749" lon="3.15382">
        <ele>828.5</ele>
        <time>2019-04-19T13:42:43Z</time>
      </trkpt>
      <trkpt lat="44.15752" lon="3.15386">
        <ele>828.7</ele>
        <time>2019-04-19T13:42:44Z</time>
      </trkpt>
      <trkpt lat="44.15755" lon="3.1539">
        <ele>828.9</ele>
        <time>2019-04-19T13:42:45Z</time>
      </trkpt>
      <trkpt lat="44.15756" lon="3.15393">
        <ele>829</ele>
        <time>2019-04-19T13:42:46Z</time>
      </trkpt>
      <trkpt lat="44.15759" lon="3.15397">
        <ele>829.2</ele>
        <time>2019-04-19T13:42:48Z</time>
      </trkpt>
      <trkpt lat="44.15763" lon="3.15399">
        <ele>829.6</ele>
        <time>2019-04-19T13:42:50Z</time>
      </trkpt>
      <trkpt lat="44.15767" lon="3.154">
        <ele>829.9</ele>
        <time>2019-04-19T13:42:52Z</time>
      </trkpt>
      <trkpt lat="44.15771" lon="3.15397">
        <ele>830.4</ele>
        <time>2019-04-19T13:42:54Z</time>
      </trkpt>
      <trkpt lat="44.15775" lon="3.15395">
        <ele>830.8</ele>
        <time>2019-04-19T13:42:56Z</time>
      </trkpt>
      <trkpt lat="44.1578" lon="3.15394">
        <ele>831.3</ele>
        <time>2019-04-19T13:42:58Z</time>
      </trkpt>
      <trkpt lat="44.15785" lon="3.15393">
        <ele>831.7</ele>
        <time>2019-04-19T13:43:00Z</time>
      </trkpt>
      <trkpt lat="44.15788" lon="3.15392">
        <ele>832</ele>
        <time>2019-04-19T13:43:02Z</time>
      </trkpt>
      <trkpt lat="44.15791" lon="3.15393">
        <ele>832.4</ele>
        <time>2019-04-19T13:43:06Z</time>
      </trkpt>
      <trkpt lat="44.15795" lon="3.15395">
        <ele>833</ele>
        <time>2019-04-19T13:43:08Z</time>
      </trkpt>
      <trkpt lat="44.15799" lon="3.15398">
        <ele>833.6</ele>
        <time>2019-04-19T13:43:10Z</time>
      </trkpt>
      <trkpt lat="44.15802" lon="3.15403">
        <ele>834.3</ele>
        <time>2019-04-19T13:43:12Z</time>
      </trkpt>
      <trkpt lat="44.15804" lon="3.15407">
        <ele>834.9</ele>
        <time>2019-04-19T13:43:14Z</time>
      </trkpt>
      <trkpt lat="44.15805" lon="3.15412">
        <ele>835.3</ele>
        <time>2019-04-19T13:43:16Z</time>
      </trkpt>
      <trkpt lat="44.15806" lon="3.15417">
        <ele>835.8</ele>
        <time>2019-04-19T13:43:18Z</time>
      </trkpt>
      <trkpt lat="44.15808" lon="3.15421">
        <ele>836.2</ele>
        <time>2019-04-19T13:43:21Z</time>
      </trkpt>
      <trkpt lat="44.15811" lon="3.15426">
        <ele>836.7</ele>
        <time>2019-04-19T13:43:23Z</time>
      </trkpt>
      <trkpt lat="44.15813" lon="3.15432">
        <ele>837.3</ele>
        <time>2019-04-19T13:43:25Z</time>
      </trkpt>
      <trkpt lat="44.15815" lon="3.15437">
        <ele>837.6</ele>
        <time>2019-04-19T13:43:27Z</time>
      </trkpt>
      <trkpt lat="44.15817" lon="3.15442">
        <ele>838.1</ele>
        <time>2019-04-19T13:43:29Z</time>
      </trkpt>
      <trkpt lat="44.15819" lon="3.15448">
        <ele>838.5</ele>
        <time>2019-04-19T13:43:31Z</time>
      </trkpt>
      <trkpt lat="44.15822" lon="3.15453">
        <ele>838.9</ele>
        <time>2019-04-19T13:43:33Z</time>
      </trkpt>
      <trkpt lat="44.15824" lon="3.15458">
        <ele>839.2</ele>
        <time>2019-04-19T13:43:35Z</time>
      </trkpt>
      <trkpt lat="44.15827" lon="3.15464">
        <ele>839.6</ele>
        <time>2019-04-19T13:43:37Z</time>
      </trkpt>
      <trkpt lat="44.15829" lon="3.15468">
        <ele>839.8</ele>
        <time>2019-04-19T13:43:39Z</time>
      </trkpt>
      <trkpt lat="44.15832" lon="3.15473">
        <ele>840.1</ele>
        <time>2019-04-19T13:43:41Z</time>
      </trkpt>
      <trkpt lat="44.15835" lon="3.15477">
        <ele>840.3</ele>
        <time>2019-04-19T13:43:43Z</time>
      </trkpt>
      <trkpt lat="44.15839" lon="3.15482">
        <ele>840.5</ele>
        <time>2019-04-19T13:43:45Z</time>
      </trkpt>
      <trkpt lat="44.15841" lon="3.15486">
        <ele>840.6</ele>
        <time>2019-04-19T13:43:46Z</time>
      </trkpt>
      <trkpt lat="44.15842" lon="3.1549">
        <ele>840.7</ele>
        <time>2019-04-19T13:43:47Z</time>
      </trkpt>
      <trkpt lat="44.15842" lon="3.15494">
        <ele>840.8</ele>
        <time>2019-04-19T13:43:48Z</time>
      </trkpt>
      <trkpt lat="44.15844" lon="3.15501">
        <ele>841.1</ele>
        <time>2019-04-19T13:43:50Z</time>
      </trkpt>
      <trkpt lat="44.15846" lon="3.15504">
        <ele>841.3</ele>
        <time>2019-04-19T13:43:51Z</time>
      </trkpt>
      <trkpt lat="44.15849" lon="3.15509">
        <ele>841.5</ele>
        <time>2019-04-19T13:43:53Z</time>
      </trkpt>
      <trkpt lat="44.15851" lon="3.15513">
        <ele>841.7</ele>
        <time>2019-04-19T13:43:55Z</time>
      </trkpt>
      <trkpt lat="44.15853" lon="3.15518">
        <ele>842</ele>
        <time>2019-04-19T13:43:57Z</time>
      </trkpt>
      <trkpt lat="44.15856" lon="3.15523">
        <ele>842.3</ele>
        <time>2019-04-19T13:43:59Z</time>
      </trkpt>
      <trkpt lat="44.15858" lon="3.15526">
        <ele>842.5</ele>
        <time>2019-04-19T13:44:00Z</time>
      </trkpt>
      <trkpt lat="44.15859" lon="3.1553">
        <ele>842.8</ele>
        <time>2019-04-19T13:44:01Z</time>
      </trkpt>
      <trkpt lat="44.1586" lon="3.15534">
        <ele>843.1</ele>
        <time>2019-04-19T13:44:02Z</time>
      </trkpt>
      <trkpt lat="44.15861" lon="3.1554">
        <ele>843.5</ele>
        <time>2019-04-19T13:44:04Z</time>
      </trkpt>
      <trkpt lat="44.15863" lon="3.15545">
        <ele>843.8</ele>
        <time>2019-04-19T13:44:06Z</time>
      </trkpt>
      <trkpt lat="44.15864" lon="3.1555">
        <ele>844.1</ele>
        <time>2019-04-19T13:44:08Z</time>
      </trkpt>
      <trkpt lat="44.15865" lon="3.15555">
        <ele>844.3</ele>
        <time>2019-04-19T13:44:10Z</time>
      </trkpt>
      <trkpt lat="44.15865" lon="3.15559">
        <ele>844.6</ele>
        <time>2019-04-19T13:44:12Z</time>
      </trkpt>
      <trkpt lat="44.15865" lon="3.15567">
        <ele>845</ele>
        <time>2019-04-19T13:44:14Z</time>
      </trkpt>
      <trkpt lat="44.15866" lon="3.15573">
        <ele>845.3</ele>
        <time>2019-04-19T13:44:16Z</time>
      </trkpt>
      <trkpt lat="44.15867" lon="3.15578">
        <ele>845.6</ele>
        <time>2019-04-19T13:44:18Z</time>
      </trkpt>
      <trkpt lat="44.15867" lon="3.15583">
        <ele>845.8</ele>
        <time>2019-04-19T13:44:20Z</time>
      </trkpt>
      <trkpt lat="44.15866" lon="3.15587">
        <ele>846</ele>
        <time>2019-04-19T13:44:25Z</time>
      </trkpt>
      <trkpt lat="44.1587" lon="3.15597">
        <ele>846.4</ele>
        <time>2019-04-19T13:44:57Z</time>
      </trkpt>
      <trkpt lat="44.15871" lon="3.15601">
        <ele>846.4</ele>
        <time>2019-04-19T13:45:04Z</time>
      </trkpt>
      <trkpt lat="44.15874" lon="3.15603">
        <ele>846.6</ele>
        <time>2019-04-19T13:45:07Z</time>
      </trkpt>
      <trkpt lat="44.15877" lon="3.15606">
        <ele>846.8</ele>
        <time>2019-04-19T13:45:09Z</time>
      </trkpt>
      <trkpt lat="44.1588" lon="3.1561">
        <ele>847</ele>
        <time>2019-04-19T13:45:11Z</time>
      </trkpt>
      <trkpt lat="44.15882" lon="3.15614">
        <ele>847.2</ele>
        <time>2019-04-19T13:45:13Z</time>
      </trkpt>
      <trkpt lat="44.15885" lon="3.15617">
        <ele>847.5</ele>
        <time>2019-04-19T13:45:15Z</time>
      </trkpt>
      <trkpt lat="44.15888" lon="3.15617">
        <ele>847.8</ele>
        <time>2019-04-19T13:45:28Z</time>
      </trkpt>
      <trkpt lat="44.15891" lon="3.15619">
        <ele>848.1</ele>
        <time>2019-04-19T13:45:33Z</time>
      </trkpt>
      <trkpt lat="44.15895" lon="3.15621">
        <ele>848.3</ele>
        <time>2019-04-19T13:45:35Z</time>
      </trkpt>
      <trkpt lat="44.15898" lon="3.15624">
        <ele>848.6</ele>
        <time>2019-04-19T13:45:37Z</time>
      </trkpt>
      <trkpt lat="44.15901" lon="3.1563">
        <ele>848.7</ele>
        <time>2019-04-19T13:45:39Z</time>
      </trkpt>
      <trkpt lat="44.15903" lon="3.15634">
        <ele>848.8</ele>
        <time>2019-04-19T13:45:41Z</time>
      </trkpt>
      <trkpt lat="44.15907" lon="3.15638">
        <ele>849.1</ele>
        <time>2019-04-19T13:45:43Z</time>
      </trkpt>
      <trkpt lat="44.1591" lon="3.1564">
        <ele>849.2</ele>
        <time>2019-04-19T13:45:45Z</time>
      </trkpt>
      <trkpt lat="44.15913" lon="3.15641">
        <ele>849.5</ele>
        <time>2019-04-19T13:45:49Z</time>
      </trkpt>
      <trkpt lat="44.15915" lon="3.15642">
        <ele>849.8</ele>
        <time>2019-04-19T13:45:52Z</time>
      </trkpt>
      <trkpt lat="44.15916" lon="3.15646">
        <ele>849.7</ele>
        <time>2019-04-19T13:46:01Z</time>
      </trkpt>
      <trkpt lat="44.1592" lon="3.15648">
        <ele>849.8</ele>
        <time>2019-04-19T13:46:04Z</time>
      </trkpt>
      <trkpt lat="44.15924" lon="3.15651">
        <ele>850.1</ele>
        <time>2019-04-19T13:46:06Z</time>
      </trkpt>
      <trkpt lat="44.15927" lon="3.15653">
        <ele>850.5</ele>
        <time>2019-04-19T13:46:08Z</time>
      </trkpt>
      <trkpt lat="44.15931" lon="3.15655">
        <ele>850.6</ele>
        <time>2019-04-19T13:46:10Z</time>
      </trkpt>
      <trkpt lat="44.15935" lon="3.15658">
        <ele>850.8</ele>
        <time>2019-04-19T13:46:12Z</time>
      </trkpt>
      <trkpt lat="44.15938" lon="3.1566">
        <ele>850.8</ele>
        <time>2019-04-19T13:46:14Z</time>
      </trkpt>
      <trkpt lat="44.15941" lon="3.15661">
        <ele>851</ele>
        <time>2019-04-19T13:46:16Z</time>
      </trkpt>
      <trkpt lat="44.15946" lon="3.15663">
        <ele>851.4</ele>
        <time>2019-04-19T13:46:18Z</time>
      </trkpt>
      <trkpt lat="44.15949" lon="3.15665">
        <ele>851.3</ele>
        <time>2019-04-19T13:46:19Z</time>
      </trkpt>
      <trkpt lat="44.15952" lon="3.15667">
        <ele>851.4</ele>
        <time>2019-04-19T13:46:20Z</time>
      </trkpt>
      <trkpt lat="44.15955" lon="3.15669">
        <ele>851.2</ele>
        <time>2019-04-19T13:46:21Z</time>
      </trkpt>
      <trkpt lat="44.15961" lon="3.15672">
        <ele>851.3</ele>
        <time>2019-04-19T13:46:23Z</time>
      </trkpt>
      <trkpt lat="44.15965" lon="3.15673">
        <ele>851.3</ele>
        <time>2019-04-19T13:46:24Z</time>
      </trkpt>
      <trkpt lat="44.15969" lon="3.15674">
        <ele>851.4</ele>
        <time>2019-04-19T13:46:25Z</time>
      </trkpt>
      <trkpt lat="44.15973" lon="3.15675">
        <ele>851.5</ele>
        <time>2019-04-19T13:46:26Z</time>
      </trkpt>
      <trkpt lat="44.15977" lon="3.15675">
        <ele>851.7</ele>
        <time>2019-04-19T13:46:27Z</time>
      </trkpt>
      <trkpt lat="44.1598" lon="3.15675">
        <ele>851.8</ele>
        <time>2019-04-19T13:46:28Z</time>
      </trkpt>
      <trkpt lat="44.15984" lon="3.15676">
        <ele>851.8</ele>
        <time>2019-04-19T13:46:29Z</time>
      </trkpt>
      <trkpt lat="44.15987" lon="3.15677">
        <ele>851.5</ele>
        <time>2019-04-19T13:46:30Z</time>
      </trkpt>
      <trkpt lat="44.15991" lon="3.15679">
        <ele>851.5</ele>
        <time>2019-04-19T13:46:31Z</time>
      </trkpt>
      <trkpt lat="44.15994" lon="3.15681">
        <ele>851.1</ele>
        <time>2019-04-19T13:46:32Z</time>
      </trkpt>
      <trkpt lat="44.15998" lon="3.15683">
        <ele>851.1</ele>
        <time>2019-04-19T13:46:33Z</time>
      </trkpt>
      <trkpt lat="44.16003" lon="3.15685">
        <ele>850.7</ele>
        <time>2019-04-19T13:46:34Z</time>
      </trkpt>
      <trkpt lat="44.16007" lon="3.15688">
        <ele>850.7</ele>
        <time>2019-04-19T13:46:35Z</time>
      </trkpt>
      <trkpt lat="44.16011" lon="3.15689">
        <ele>850.6</ele>
        <time>2019-04-19T13:46:36Z</time>
      </trkpt>
      <trkpt lat="44.16015" lon="3.15691">
        <ele>850.3</ele>
        <time>2019-04-19T13:46:37Z</time>
      </trkpt>
      <trkpt lat="44.1602" lon="3.15693">
        <ele>850.3</ele>
        <time>2019-04-19T13:46:38Z</time>
      </trkpt>
      <trkpt lat="44.16024" lon="3.15695">
        <ele>850</ele>
        <time>2019-04-19T13:46:39Z</time>
      </trkpt>
      <trkpt lat="44.16029" lon="3.15696">
        <ele>850.2</ele>
        <time>2019-04-19T13:46:40Z</time>
      </trkpt>
      <trkpt lat="44.16034" lon="3.15697">
        <ele>850.3</ele>
        <time>2019-04-19T13:46:41Z</time>
      </trkpt>
      <trkpt lat="44.16038" lon="3.15696">
        <ele>850.4</ele>
        <time>2019-04-19T13:46:42Z</time>
      </trkpt>
      <trkpt lat="44.16042" lon="3.15695">
        <ele>850.6</ele>
        <time>2019-04-19T13:46:43Z</time>
      </trkpt>
      <trkpt lat="44.16046" lon="3.15693">
        <ele>851.1</ele>
        <time>2019-04-19T13:46:44Z</time>
      </trkpt>
      <trkpt lat="44.1605" lon="3.15692">
        <ele>851.2</ele>
        <time>2019-04-19T13:46:45Z</time>
      </trkpt>
      <trkpt lat="44.16052" lon="3.15691">
        <ele>851.3</ele>
        <time>2019-04-19T13:46:46Z</time>
      </trkpt>
      <trkpt lat="44.16058" lon="3.15689">
        <ele>851.8</ele>
        <time>2019-04-19T13:46:48Z</time>
      </trkpt>
      <trkpt lat="44.16061" lon="3.15689">
        <ele>851.8</ele>
        <time>2019-04-19T13:46:49Z</time>
      </trkpt>
      <trkpt lat="44.16064" lon="3.1569">
        <ele>851.5</ele>
        <time>2019-04-19T13:46:50Z</time>
      </trkpt>
      <trkpt lat="44.16068" lon="3.1569">
        <ele>851.6</ele>
        <time>2019-04-19T13:46:51Z</time>
      </trkpt>
      <trkpt lat="44.16072" lon="3.1569">
        <ele>851.6</ele>
        <time>2019-04-19T13:46:52Z</time>
      </trkpt>
      <trkpt lat="44.16076" lon="3.15689">
        <ele>851.9</ele>
        <time>2019-04-19T13:46:53Z</time>
      </trkpt>
      <trkpt lat="44.1608" lon="3.15687">
        <ele>851.9</ele>
        <time>2019-04-19T13:46:54Z</time>
      </trkpt>
      <trkpt lat="44.16083" lon="3.15686">
        <ele>851.8</ele>
        <time>2019-04-19T13:46:55Z</time>
      </trkpt>
      <trkpt lat="44.16087" lon="3.15684">
        <ele>852.1</ele>
        <time>2019-04-19T13:46:56Z</time>
      </trkpt>
      <trkpt lat="44.1609" lon="3.15683">
        <ele>852.1</ele>
        <time>2019-04-19T13:46:57Z</time>
      </trkpt>
      <trkpt lat="44.16093" lon="3.15683">
        <ele>852.1</ele>
        <time>2019-04-19T13:46:58Z</time>
      </trkpt>
      <trkpt lat="44.16099" lon="3.15682">
        <ele>852</ele>
        <time>2019-04-19T13:47:00Z</time>
      </trkpt>
      <trkpt lat="44.16103" lon="3.15682">
        <ele>852</ele>
        <time>2019-04-19T13:47:01Z</time>
      </trkpt>
      <trkpt lat="44.16107" lon="3.15682">
        <ele>852</ele>
        <time>2019-04-19T13:47:02Z</time>
      </trkpt>
      <trkpt lat="44.16111" lon="3.15681">
        <ele>852</ele>
        <time>2019-04-19T13:47:03Z</time>
      </trkpt>
      <trkpt lat="44.16114" lon="3.15681">
        <ele>852</ele>
        <time>2019-04-19T13:47:04Z</time>
      </trkpt>
      <trkpt lat="44.16117" lon="3.15681">
        <ele>852.3</ele>
        <time>2019-04-19T13:47:05Z</time>
      </trkpt>
      <trkpt lat="44.16121" lon="3.1568">
        <ele>852.3</ele>
        <time>2019-04-19T13:47:06Z</time>
      </trkpt>
      <trkpt lat="44.16124" lon="3.15678">
        <ele>852.2</ele>
        <time>2019-04-19T13:47:07Z</time>
      </trkpt>
      <trkpt lat="44.16127" lon="3.15676">
        <ele>852.5</ele>
        <time>2019-04-19T13:47:08Z</time>
      </trkpt>
      <trkpt lat="44.1613" lon="3.15674">
        <ele>852.5</ele>
        <time>2019-04-19T13:47:09Z</time>
      </trkpt>
      <trkpt lat="44.16134" lon="3.15672">
        <ele>852.8</ele>
        <time>2019-04-19T13:47:10Z</time>
      </trkpt>
      <trkpt lat="44.16138" lon="3.15669">
        <ele>852.7</ele>
        <time>2019-04-19T13:47:11Z</time>
      </trkpt>
      <trkpt lat="44.16142" lon="3.15667">
        <ele>853</ele>
        <time>2019-04-19T13:47:12Z</time>
      </trkpt>
      <trkpt lat="44.16146" lon="3.15665">
        <ele>852.9</ele>
        <time>2019-04-19T13:47:13Z</time>
      </trkpt>
      <trkpt lat="44.16149" lon="3.15662">
        <ele>853</ele>
        <time>2019-04-19T13:47:14Z</time>
      </trkpt>
      <trkpt lat="44.16153" lon="3.15661">
        <ele>852.9</ele>
        <time>2019-04-19T13:47:15Z</time>
      </trkpt>
      <trkpt lat="44.16156" lon="3.1566">
        <ele>853.1</ele>
        <time>2019-04-19T13:47:16Z</time>
      </trkpt>
      <trkpt lat="44.1616" lon="3.15659">
        <ele>853</ele>
        <time>2019-04-19T13:47:17Z</time>
      </trkpt>
      <trkpt lat="44.16166" lon="3.15658">
        <ele>852.7</ele>
        <time>2019-04-19T13:47:18Z</time>
      </trkpt>
      <trkpt lat="44.16171" lon="3.15657">
        <ele>852.3</ele>
        <time>2019-04-19T13:47:19Z</time>
      </trkpt>
      <trkpt lat="44.16175" lon="3.15657">
        <ele>852.1</ele>
        <time>2019-04-19T13:47:20Z</time>
      </trkpt>
      <trkpt lat="44.1618" lon="3.15654">
        <ele>852.2</ele>
        <time>2019-04-19T13:47:22Z</time>
      </trkpt>
      <trkpt lat="44.16185" lon="3.15652">
        <ele>852</ele>
        <time>2019-04-19T13:47:24Z</time>
      </trkpt>
      <trkpt lat="44.16188" lon="3.15652">
        <ele>851.8</ele>
        <time>2019-04-19T13:47:25Z</time>
      </trkpt>
      <trkpt lat="44.16191" lon="3.15653">
        <ele>851.5</ele>
        <time>2019-04-19T13:47:26Z</time>
      </trkpt>
      <trkpt lat="44.16194" lon="3.15653">
        <ele>851.3</ele>
        <time>2019-04-19T13:47:27Z</time>
      </trkpt>
      <trkpt lat="44.16198" lon="3.15653">
        <ele>851.1</ele>
        <time>2019-04-19T13:47:28Z</time>
      </trkpt>
      <trkpt lat="44.16202" lon="3.15653">
        <ele>850.6</ele>
        <time>2019-04-19T13:47:29Z</time>
      </trkpt>
      <trkpt lat="44.16207" lon="3.15653">
        <ele>850.3</ele>
        <time>2019-04-19T13:47:30Z</time>
      </trkpt>
      <trkpt lat="44.16212" lon="3.15653">
        <ele>849.9</ele>
        <time>2019-04-19T13:47:31Z</time>
      </trkpt>
      <trkpt lat="44.16217" lon="3.15654">
        <ele>849.5</ele>
        <time>2019-04-19T13:47:32Z</time>
      </trkpt>
      <trkpt lat="44.16222" lon="3.15654">
        <ele>849.2</ele>
        <time>2019-04-19T13:47:33Z</time>
      </trkpt>
      <trkpt lat="44.16229" lon="3.15653">
        <ele>848.8</ele>
        <time>2019-04-19T13:47:34Z</time>
      </trkpt>
      <trkpt lat="44.16242" lon="3.15644">
        <ele>848.7</ele>
        <time>2019-04-19T13:47:35Z</time>
      </trkpt>
      <trkpt lat="44.16247" lon="3.15643">
        <ele>848.5</ele>
        <time>2019-04-19T13:47:36Z</time>
      </trkpt>
      <trkpt lat="44.16253" lon="3.15642">
        <ele>848</ele>
        <time>2019-04-19T13:47:37Z</time>
      </trkpt>
      <trkpt lat="44.16258" lon="3.15644">
        <ele>847.5</ele>
        <time>2019-04-19T13:47:38Z</time>
      </trkpt>
      <trkpt lat="44.16264" lon="3.15644">
        <ele>847.2</ele>
        <time>2019-04-19T13:47:39Z</time>
      </trkpt>
      <trkpt lat="44.1627" lon="3.15642">
        <ele>847.3</ele>
        <time>2019-04-19T13:47:40Z</time>
      </trkpt>
      <trkpt lat="44.16276" lon="3.15639">
        <ele>846.8</ele>
        <time>2019-04-19T13:47:41Z</time>
      </trkpt>
      <trkpt lat="44.16279" lon="3.15637">
        <ele>847.1</ele>
        <time>2019-04-19T13:47:42Z</time>
      </trkpt>
      <trkpt lat="44.16283" lon="3.15636">
        <ele>846.9</ele>
        <time>2019-04-19T13:47:43Z</time>
      </trkpt>
      <trkpt lat="44.16286" lon="3.15639">
        <ele>846.2</ele>
        <time>2019-04-19T13:47:44Z</time>
      </trkpt>
      <trkpt lat="44.16295" lon="3.15638">
        <ele>845.9</ele>
        <time>2019-04-19T13:47:45Z</time>
      </trkpt>
      <trkpt lat="44.163" lon="3.15637">
        <ele>845.4</ele>
        <time>2019-04-19T13:47:46Z</time>
      </trkpt>
      <trkpt lat="44.16307" lon="3.15633">
        <ele>845.2</ele>
        <time>2019-04-19T13:47:47Z</time>
      </trkpt>
      <trkpt lat="44.16311" lon="3.15636">
        <ele>844.4</ele>
        <time>2019-04-19T13:47:48Z</time>
      </trkpt>
      <trkpt lat="44.16314" lon="3.15635">
        <ele>844.1</ele>
        <time>2019-04-19T13:47:49Z</time>
      </trkpt>
      <trkpt lat="44.1632" lon="3.1563">
        <ele>843.9</ele>
        <time>2019-04-19T13:47:50Z</time>
      </trkpt>
      <trkpt lat="44.16323" lon="3.1563">
        <ele>843.6</ele>
        <time>2019-04-19T13:47:51Z</time>
      </trkpt>
      <trkpt lat="44.16321" lon="3.15627">
        <ele>844.3</ele>
        <time>2019-04-19T13:47:52Z</time>
      </trkpt>
      <trkpt lat="44.16326" lon="3.15628">
        <ele>843.7</ele>
        <time>2019-04-19T13:47:53Z</time>
      </trkpt>
      <trkpt lat="44.16332" lon="3.15627">
        <ele>843</ele>
        <time>2019-04-19T13:47:54Z</time>
      </trkpt>
      <trkpt lat="44.16337" lon="3.15625">
        <ele>842.7</ele>
        <time>2019-04-19T13:47:55Z</time>
      </trkpt>
      <trkpt lat="44.16343" lon="3.15621">
        <ele>842</ele>
        <time>2019-04-19T13:47:56Z</time>
      </trkpt>
      <trkpt lat="44.16349" lon="3.1562">
        <ele>841.9</ele>
        <time>2019-04-19T13:47:57Z</time>
      </trkpt>
      <trkpt lat="44.1636" lon="3.15617">
        <ele>840.7</ele>
        <time>2019-04-19T13:47:58Z</time>
      </trkpt>
      <trkpt lat="44.16367" lon="3.15616">
        <ele>840.2</ele>
        <time>2019-04-19T13:47:59Z</time>
      </trkpt>
      <trkpt lat="44.16374" lon="3.15611">
        <ele>839.4</ele>
        <time>2019-04-19T13:48:00Z</time>
      </trkpt>
      <trkpt lat="44.1638" lon="3.15612">
        <ele>839.1</ele>
        <time>2019-04-19T13:48:01Z</time>
      </trkpt>
      <trkpt lat="44.16384" lon="3.15611">
        <ele>838.6</ele>
        <time>2019-04-19T13:48:02Z</time>
      </trkpt>
      <trkpt lat="44.16388" lon="3.1561">
        <ele>838.3</ele>
        <time>2019-04-19T13:48:03Z</time>
      </trkpt>
      <trkpt lat="44.16393" lon="3.15609">
        <ele>837.8</ele>
        <time>2019-04-19T13:48:04Z</time>
      </trkpt>
      <trkpt lat="44.16401" lon="3.15606">
        <ele>837.2</ele>
        <time>2019-04-19T13:48:05Z</time>
      </trkpt>
      <trkpt lat="44.16406" lon="3.15605">
        <ele>836.8</ele>
        <time>2019-04-19T13:48:06Z</time>
      </trkpt>
      <trkpt lat="44.16412" lon="3.15604">
        <ele>836.4</ele>
        <time>2019-04-19T13:48:07Z</time>
      </trkpt>
      <trkpt lat="44.16417" lon="3.15603">
        <ele>835.9</ele>
        <time>2019-04-19T13:48:08Z</time>
      </trkpt>
      <trkpt lat="44.16424" lon="3.15597">
        <ele>834.9</ele>
        <time>2019-04-19T13:48:09Z</time>
      </trkpt>
      <trkpt lat="44.16429" lon="3.15594">
        <ele>834.1</ele>
        <time>2019-04-19T13:48:10Z</time>
      </trkpt>
      <trkpt lat="44.1644" lon="3.15592">
        <ele>833.7</ele>
        <time>2019-04-19T13:48:11Z</time>
      </trkpt>
      <trkpt lat="44.16447" lon="3.15592">
        <ele>833.5</ele>
        <time>2019-04-19T13:48:12Z</time>
      </trkpt>
      <trkpt lat="44.16451" lon="3.15592">
        <ele>833.3</ele>
        <time>2019-04-19T13:48:13Z</time>
      </trkpt>
      <trkpt lat="44.16456" lon="3.15593">
        <ele>833.2</ele>
        <time>2019-04-19T13:48:14Z</time>
      </trkpt>
      <trkpt lat="44.1646" lon="3.15595">
        <ele>833.1</ele>
        <time>2019-04-19T13:48:15Z</time>
      </trkpt>
      <trkpt lat="44.16464" lon="3.15597">
        <ele>833.6</ele>
        <time>2019-04-19T13:48:16Z</time>
      </trkpt>
      <trkpt lat="44.16467" lon="3.156">
        <ele>834</ele>
        <time>2019-04-19T13:48:17Z</time>
      </trkpt>
      <trkpt lat="44.16473" lon="3.15603">
        <ele>834</ele>
        <time>2019-04-19T13:48:18Z</time>
      </trkpt>
      <trkpt lat="44.16475" lon="3.15604">
        <ele>834.4</ele>
        <time>2019-04-19T13:48:19Z</time>
      </trkpt>
      <trkpt lat="44.16481" lon="3.15608">
        <ele>834.3</ele>
        <time>2019-04-19T13:48:21Z</time>
      </trkpt>
      <trkpt lat="44.16486" lon="3.15608">
        <ele>834.3</ele>
        <time>2019-04-19T13:48:22Z</time>
      </trkpt>
      <trkpt lat="44.1649" lon="3.1561">
        <ele>834.7</ele>
        <time>2019-04-19T13:48:23Z</time>
      </trkpt>
      <trkpt lat="44.16495" lon="3.15612">
        <ele>834.7</ele>
        <time>2019-04-19T13:48:25Z</time>
      </trkpt>
      <trkpt lat="44.16498" lon="3.15613">
        <ele>835.2</ele>
        <time>2019-04-19T13:48:26Z</time>
      </trkpt>
      <trkpt lat="44.165" lon="3.15615">
        <ele>835.2</ele>
        <time>2019-04-19T13:48:27Z</time>
      </trkpt>
      <trkpt lat="44.16507" lon="3.15615">
        <ele>835.5</ele>
        <time>2019-04-19T13:48:29Z</time>
      </trkpt>
      <trkpt lat="44.16511" lon="3.15614">
        <ele>835.7</ele>
        <time>2019-04-19T13:48:30Z</time>
      </trkpt>
      <trkpt lat="44.16515" lon="3.15612">
        <ele>835.4</ele>
        <time>2019-04-19T13:48:31Z</time>
      </trkpt>
      <trkpt lat="44.16519" lon="3.15611">
        <ele>836</ele>
        <time>2019-04-19T13:48:32Z</time>
      </trkpt>
      <trkpt lat="44.16523" lon="3.1561">
        <ele>836.3</ele>
        <time>2019-04-19T13:48:33Z</time>
      </trkpt>
      <trkpt lat="44.16526" lon="3.1561">
        <ele>836.7</ele>
        <time>2019-04-19T13:48:34Z</time>
      </trkpt>
      <trkpt lat="44.1653" lon="3.15609">
        <ele>837.1</ele>
        <time>2019-04-19T13:48:35Z</time>
      </trkpt>
      <trkpt lat="44.16533" lon="3.15609">
        <ele>837.6</ele>
        <time>2019-04-19T13:48:36Z</time>
      </trkpt>
      <trkpt lat="44.16537" lon="3.1561">
        <ele>838</ele>
        <time>2019-04-19T13:48:37Z</time>
      </trkpt>
      <trkpt lat="44.16541" lon="3.15611">
        <ele>839</ele>
        <time>2019-04-19T13:48:39Z</time>
      </trkpt>
      <trkpt lat="44.16546" lon="3.15611">
        <ele>840</ele>
        <time>2019-04-19T13:48:41Z</time>
      </trkpt>
      <trkpt lat="44.16549" lon="3.15609">
        <ele>840.5</ele>
        <time>2019-04-19T13:48:42Z</time>
      </trkpt>
      <trkpt lat="44.16552" lon="3.15608">
        <ele>841</ele>
        <time>2019-04-19T13:48:43Z</time>
      </trkpt>
      <trkpt lat="44.16555" lon="3.15607">
        <ele>840.7</ele>
        <time>2019-04-19T13:48:44Z</time>
      </trkpt>
      <trkpt lat="44.16558" lon="3.15606">
        <ele>841.2</ele>
        <time>2019-04-19T13:48:46Z</time>
      </trkpt>
      <trkpt lat="44.16561" lon="3.15601">
        <ele>841.4</ele>
        <time>2019-04-19T13:48:48Z</time>
      </trkpt>
      <trkpt lat="44.16564" lon="3.15599">
        <ele>841.6</ele>
        <time>2019-04-19T13:48:50Z</time>
      </trkpt>
      <trkpt lat="44.16567" lon="3.15599">
        <ele>842.1</ele>
        <time>2019-04-19T13:48:52Z</time>
      </trkpt>
      <trkpt lat="44.16571" lon="3.15599">
        <ele>843</ele>
        <time>2019-04-19T13:48:54Z</time>
      </trkpt>
      <trkpt lat="44.16574" lon="3.15599">
        <ele>843.4</ele>
        <time>2019-04-19T13:48:56Z</time>
      </trkpt>
      <trkpt lat="44.16577" lon="3.15599">
        <ele>843.9</ele>
        <time>2019-04-19T13:48:58Z</time>
      </trkpt>
      <trkpt lat="44.16581" lon="3.15597">
        <ele>844.4</ele>
        <time>2019-04-19T13:49:00Z</time>
      </trkpt>
      <trkpt lat="44.16584" lon="3.15593">
        <ele>844.6</ele>
        <time>2019-04-19T13:49:02Z</time>
      </trkpt>
      <trkpt lat="44.16588" lon="3.15587">
        <ele>844.8</ele>
        <time>2019-04-19T13:49:04Z</time>
      </trkpt>
      <trkpt lat="44.1659" lon="3.15585">
        <ele>845</ele>
        <time>2019-04-19T13:49:05Z</time>
      </trkpt>
      <trkpt lat="44.16593" lon="3.15579">
        <ele>845</ele>
        <time>2019-04-19T13:49:07Z</time>
      </trkpt>
      <trkpt lat="44.16595" lon="3.15573">
        <ele>844.3</ele>
        <time>2019-04-19T13:49:09Z</time>
      </trkpt>
      <trkpt lat="44.16597" lon="3.15569">
        <ele>844.3</ele>
        <time>2019-04-19T13:49:10Z</time>
      </trkpt>
      <trkpt lat="44.16598" lon="3.15565">
        <ele>844.6</ele>
        <time>2019-04-19T13:49:11Z</time>
      </trkpt>
      <trkpt lat="44.166" lon="3.15562">
        <ele>844.3</ele>
        <time>2019-04-19T13:49:12Z</time>
      </trkpt>
      <trkpt lat="44.16601" lon="3.15558">
        <ele>844</ele>
        <time>2019-04-19T13:49:13Z</time>
      </trkpt>
      <trkpt lat="44.16602" lon="3.15553">
        <ele>844</ele>
        <time>2019-04-19T13:49:15Z</time>
      </trkpt>
      <trkpt lat="44.16604" lon="3.15547">
        <ele>844.2</ele>
        <time>2019-04-19T13:49:17Z</time>
      </trkpt>
      <trkpt lat="44.16607" lon="3.15542">
        <ele>844.4</ele>
        <time>2019-04-19T13:49:19Z</time>
      </trkpt>
      <trkpt lat="44.16609" lon="3.15537">
        <ele>844.6</ele>
        <time>2019-04-19T13:49:21Z</time>
      </trkpt>
      <trkpt lat="44.16612" lon="3.15533">
        <ele>844.8</ele>
        <time>2019-04-19T13:49:23Z</time>
      </trkpt>
      <trkpt lat="44.16615" lon="3.15532">
        <ele>844.9</ele>
        <time>2019-04-19T13:49:24Z</time>
      </trkpt>
      <trkpt lat="44.16618" lon="3.15529">
        <ele>845.1</ele>
        <time>2019-04-19T13:49:25Z</time>
      </trkpt>
      <trkpt lat="44.16621" lon="3.15526">
        <ele>845.3</ele>
        <time>2019-04-19T13:49:26Z</time>
      </trkpt>
      <trkpt lat="44.16624" lon="3.15523">
        <ele>845.4</ele>
        <time>2019-04-19T13:49:27Z</time>
      </trkpt>
      <trkpt lat="44.16627" lon="3.15521">
        <ele>845.4</ele>
        <time>2019-04-19T13:49:28Z</time>
      </trkpt>
      <trkpt lat="44.1663" lon="3.15518">
        <ele>845.5</ele>
        <time>2019-04-19T13:49:30Z</time>
      </trkpt>
      <trkpt lat="44.16634" lon="3.15514">
        <ele>845.6</ele>
        <time>2019-04-19T13:49:32Z</time>
      </trkpt>
      <trkpt lat="44.16638" lon="3.15511">
        <ele>845.8</ele>
        <time>2019-04-19T13:49:34Z</time>
      </trkpt>
      <trkpt lat="44.1664" lon="3.15509">
        <ele>845.9</ele>
        <time>2019-04-19T13:49:35Z</time>
      </trkpt>
      <trkpt lat="44.16643" lon="3.15506">
        <ele>846</ele>
        <time>2019-04-19T13:49:36Z</time>
      </trkpt>
      <trkpt lat="44.16646" lon="3.15504">
        <ele>846.2</ele>
        <time>2019-04-19T13:49:37Z</time>
      </trkpt>
      <trkpt lat="44.1665" lon="3.155">
        <ele>846.3</ele>
        <time>2019-04-19T13:49:39Z</time>
      </trkpt>
      <trkpt lat="44.16652" lon="3.15498">
        <ele>846.4</ele>
        <time>2019-04-19T13:49:40Z</time>
      </trkpt>
      <trkpt lat="44.16655" lon="3.15495">
        <ele>846.4</ele>
        <time>2019-04-19T13:49:41Z</time>
      </trkpt>
      <trkpt lat="44.16658" lon="3.15492">
        <ele>846.4</ele>
        <time>2019-04-19T13:49:42Z</time>
      </trkpt>
      <trkpt lat="44.1666" lon="3.15491">
        <ele>846.4</ele>
        <time>2019-04-19T13:49:43Z</time>
      </trkpt>
      <trkpt lat="44.16664" lon="3.15487">
        <ele>846.4</ele>
        <time>2019-04-19T13:49:45Z</time>
      </trkpt>
      <trkpt lat="44.16668" lon="3.15483">
        <ele>846.5</ele>
        <time>2019-04-19T13:49:47Z</time>
      </trkpt>
      <trkpt lat="44.16671" lon="3.15481">
        <ele>846.6</ele>
        <time>2019-04-19T13:49:48Z</time>
      </trkpt>
      <trkpt lat="44.16674" lon="3.1548">
        <ele>846.6</ele>
        <time>2019-04-19T13:49:49Z</time>
      </trkpt>
      <trkpt lat="44.16677" lon="3.15478">
        <ele>846.6</ele>
        <time>2019-04-19T13:49:50Z</time>
      </trkpt>
      <trkpt lat="44.1668" lon="3.15477">
        <ele>846.6</ele>
        <time>2019-04-19T13:49:52Z</time>
      </trkpt>
      <trkpt lat="44.16683" lon="3.15476">
        <ele>846.7</ele>
        <time>2019-04-19T13:49:54Z</time>
      </trkpt>
      <trkpt lat="44.16687" lon="3.15477">
        <ele>846.7</ele>
        <time>2019-04-19T13:49:57Z</time>
      </trkpt>
      <trkpt lat="44.1669" lon="3.15475">
        <ele>846.9</ele>
        <time>2019-04-19T13:50:00Z</time>
      </trkpt>
      <trkpt lat="44.16693" lon="3.1547">
        <ele>847.2</ele>
        <time>2019-04-19T13:50:02Z</time>
      </trkpt>
      <trkpt lat="44.16694" lon="3.15466">
        <ele>847.4</ele>
        <time>2019-04-19T13:50:03Z</time>
      </trkpt>
      <trkpt lat="44.16696" lon="3.15459">
        <ele>847.7</ele>
        <time>2019-04-19T13:50:05Z</time>
      </trkpt>
      <trkpt lat="44.16697" lon="3.15452">
        <ele>847.2</ele>
        <time>2019-04-19T13:50:07Z</time>
      </trkpt>
      <trkpt lat="44.16698" lon="3.15448">
        <ele>847</ele>
        <time>2019-04-19T13:50:08Z</time>
      </trkpt>
      <trkpt lat="44.16699" lon="3.15444">
        <ele>846.9</ele>
        <time>2019-04-19T13:50:09Z</time>
      </trkpt>
      <trkpt lat="44.16699" lon="3.15439">
        <ele>846.8</ele>
        <time>2019-04-19T13:50:10Z</time>
      </trkpt>
      <trkpt lat="44.16699" lon="3.15434">
        <ele>846.7</ele>
        <time>2019-04-19T13:50:11Z</time>
      </trkpt>
      <trkpt lat="44.16698" lon="3.15429">
        <ele>846.4</ele>
        <time>2019-04-19T13:50:12Z</time>
      </trkpt>
      <trkpt lat="44.16698" lon="3.15425">
        <ele>846.2</ele>
        <time>2019-04-19T13:50:13Z</time>
      </trkpt>
      <trkpt lat="44.16696" lon="3.1542">
        <ele>845.8</ele>
        <time>2019-04-19T13:50:15Z</time>
      </trkpt>
      <trkpt lat="44.16696" lon="3.15414">
        <ele>845.6</ele>
        <time>2019-04-19T13:50:17Z</time>
      </trkpt>
      <trkpt lat="44.16698" lon="3.1541">
        <ele>845.4</ele>
        <time>2019-04-19T13:50:19Z</time>
      </trkpt>
      <trkpt lat="44.16702" lon="3.15408">
        <ele>845.3</ele>
        <time>2019-04-19T13:50:21Z</time>
      </trkpt>
      <trkpt lat="44.16707" lon="3.15406">
        <ele>845.2</ele>
        <time>2019-04-19T13:50:23Z</time>
      </trkpt>
      <trkpt lat="44.16709" lon="3.15403">
        <ele>845.2</ele>
        <time>2019-04-19T13:50:24Z</time>
      </trkpt>
      <trkpt lat="44.16713" lon="3.154">
        <ele>845.2</ele>
        <time>2019-04-19T13:50:25Z</time>
      </trkpt>
      <trkpt lat="44.16715" lon="3.15398">
        <ele>845.4</ele>
        <time>2019-04-19T13:50:26Z</time>
      </trkpt>
      <trkpt lat="44.16719" lon="3.15393">
        <ele>845.7</ele>
        <time>2019-04-19T13:50:28Z</time>
      </trkpt>
      <trkpt lat="44.16723" lon="3.15387">
        <ele>845.8</ele>
        <time>2019-04-19T13:50:30Z</time>
      </trkpt>
      <trkpt lat="44.16725" lon="3.15383">
        <ele>845.9</ele>
        <time>2019-04-19T13:50:31Z</time>
      </trkpt>
      <trkpt lat="44.16727" lon="3.15379">
        <ele>845.8</ele>
        <time>2019-04-19T13:50:32Z</time>
      </trkpt>
      <trkpt lat="44.16729" lon="3.15375">
        <ele>845.7</ele>
        <time>2019-04-19T13:50:33Z</time>
      </trkpt>
      <trkpt lat="44.1673" lon="3.15371">
        <ele>845.5</ele>
        <time>2019-04-19T13:50:34Z</time>
      </trkpt>
      <trkpt lat="44.16731" lon="3.15367">
        <ele>845.5</ele>
        <time>2019-04-19T13:50:35Z</time>
      </trkpt>
      <trkpt lat="44.16734" lon="3.15363">
        <ele>845.4</ele>
        <time>2019-04-19T13:50:37Z</time>
      </trkpt>
      <trkpt lat="44.16736" lon="3.1536">
        <ele>845.3</ele>
        <time>2019-04-19T13:50:42Z</time>
      </trkpt>
      <trkpt lat="44.16742" lon="3.1535">
        <ele>844.6</ele>
        <time>2019-04-19T13:50:57Z</time>
      </trkpt>
      <trkpt lat="44.16744" lon="3.15347">
        <ele>844.6</ele>
        <time>2019-04-19T13:51:05Z</time>
      </trkpt>
      <trkpt lat="44.16747" lon="3.1534">
        <ele>844.9</ele>
        <time>2019-04-19T13:51:07Z</time>
      </trkpt>
      <trkpt lat="44.16749" lon="3.15335">
        <ele>845.2</ele>
        <time>2019-04-19T13:51:08Z</time>
      </trkpt>
      <trkpt lat="44.16751" lon="3.1533">
        <ele>845.5</ele>
        <time>2019-04-19T13:51:09Z</time>
      </trkpt>
      <trkpt lat="44.16753" lon="3.15324">
        <ele>845.4</ele>
        <time>2019-04-19T13:51:10Z</time>
      </trkpt>
      <trkpt lat="44.16754" lon="3.15318">
        <ele>845.4</ele>
        <time>2019-04-19T13:51:11Z</time>
      </trkpt>
      <trkpt lat="44.16755" lon="3.15313">
        <ele>845.7</ele>
        <time>2019-04-19T13:51:12Z</time>
      </trkpt>
      <trkpt lat="44.16755" lon="3.15309">
        <ele>846</ele>
        <time>2019-04-19T13:51:13Z</time>
      </trkpt>
      <trkpt lat="44.16756" lon="3.15304">
        <ele>845.6</ele>
        <time>2019-04-19T13:51:14Z</time>
      </trkpt>
      <trkpt lat="44.16757" lon="3.15299">
        <ele>844.9</ele>
        <time>2019-04-19T13:51:15Z</time>
      </trkpt>
      <trkpt lat="44.16759" lon="3.15294">
        <ele>844.3</ele>
        <time>2019-04-19T13:51:16Z</time>
      </trkpt>
      <trkpt lat="44.16767" lon="3.15288">
        <ele>843.9</ele>
        <time>2019-04-19T13:51:17Z</time>
      </trkpt>
      <trkpt lat="44.16774" lon="3.15278">
        <ele>843.3</ele>
        <time>2019-04-19T13:51:18Z</time>
      </trkpt>
      <trkpt lat="44.16771" lon="3.15268">
        <ele>843</ele>
        <time>2019-04-19T13:51:19Z</time>
      </trkpt>
      <trkpt lat="44.16775" lon="3.15257">
        <ele>842.9</ele>
        <time>2019-04-19T13:51:20Z</time>
      </trkpt>
      <trkpt lat="44.16779" lon="3.15243">
        <ele>842.9</ele>
        <time>2019-04-19T13:51:21Z</time>
      </trkpt>
      <trkpt lat="44.16779" lon="3.15233">
        <ele>842.9</ele>
        <time>2019-04-19T13:51:22Z</time>
      </trkpt>
      <trkpt lat="44.16779" lon="3.15226">
        <ele>842.8</ele>
        <time>2019-04-19T13:51:23Z</time>
      </trkpt>
      <trkpt lat="44.16779" lon="3.15218">
        <ele>842.8</ele>
        <time>2019-04-19T13:51:24Z</time>
      </trkpt>
      <trkpt lat="44.16779" lon="3.15208">
        <ele>842.7</ele>
        <time>2019-04-19T13:51:25Z</time>
      </trkpt>
      <trkpt lat="44.16789" lon="3.152">
        <ele>842.2</ele>
        <time>2019-04-19T13:51:26Z</time>
      </trkpt>
      <trkpt lat="44.16793" lon="3.15195">
        <ele>842.2</ele>
        <time>2019-04-19T13:51:27Z</time>
      </trkpt>
      <trkpt lat="44.16797" lon="3.15191">
        <ele>842.1</ele>
        <time>2019-04-19T13:51:28Z</time>
      </trkpt>
      <trkpt lat="44.16796" lon="3.15182">
        <ele>842</ele>
        <time>2019-04-19T13:51:29Z</time>
      </trkpt>
      <trkpt lat="44.16797" lon="3.15173">
        <ele>841.8</ele>
        <time>2019-04-19T13:51:30Z</time>
      </trkpt>
      <trkpt lat="44.16798" lon="3.15164">
        <ele>841.7</ele>
        <time>2019-04-19T13:51:31Z</time>
      </trkpt>
      <trkpt lat="44.168" lon="3.15156">
        <ele>841.7</ele>
        <time>2019-04-19T13:51:32Z</time>
      </trkpt>
      <trkpt lat="44.16803" lon="3.15147">
        <ele>841.7</ele>
        <time>2019-04-19T13:51:33Z</time>
      </trkpt>
      <trkpt lat="44.16806" lon="3.15141">
        <ele>841.8</ele>
        <time>2019-04-19T13:51:34Z</time>
      </trkpt>
      <trkpt lat="44.16809" lon="3.15134">
        <ele>841.7</ele>
        <time>2019-04-19T13:51:35Z</time>
      </trkpt>
      <trkpt lat="44.16811" lon="3.15128">
        <ele>841.7</ele>
        <time>2019-04-19T13:51:36Z</time>
      </trkpt>
      <trkpt lat="44.16813" lon="3.15121">
        <ele>841.6</ele>
        <time>2019-04-19T13:51:37Z</time>
      </trkpt>
      <trkpt lat="44.16815" lon="3.15106">
        <ele>841.5</ele>
        <time>2019-04-19T13:51:38Z</time>
      </trkpt>
      <trkpt lat="44.16816" lon="3.151">
        <ele>841.5</ele>
        <time>2019-04-19T13:51:39Z</time>
      </trkpt>
      <trkpt lat="44.16818" lon="3.15095">
        <ele>841.5</ele>
        <time>2019-04-19T13:51:40Z</time>
      </trkpt>
      <trkpt lat="44.16818" lon="3.15089">
        <ele>841.5</ele>
        <time>2019-04-19T13:51:41Z</time>
      </trkpt>
      <trkpt lat="44.16817" lon="3.15084">
        <ele>841.3</ele>
        <time>2019-04-19T13:51:46Z</time>
      </trkpt>
      <trkpt lat="44.16817" lon="3.1508">
        <ele>841.2</ele>
        <time>2019-04-19T13:51:48Z</time>
      </trkpt>
      <trkpt lat="44.16814" lon="3.15076">
        <ele>841.1</ele>
        <time>2019-04-19T13:51:51Z</time>
      </trkpt>
      <trkpt lat="44.16813" lon="3.15072">
        <ele>840.9</ele>
        <time>2019-04-19T13:51:53Z</time>
      </trkpt>
      <trkpt lat="44.16812" lon="3.15068">
        <ele>840.8</ele>
        <time>2019-04-19T13:51:54Z</time>
      </trkpt>
      <trkpt lat="44.1681" lon="3.15065">
        <ele>840.6</ele>
        <time>2019-04-19T13:51:55Z</time>
      </trkpt>
      <trkpt lat="44.16808" lon="3.1506">
        <ele>840.5</ele>
        <time>2019-04-19T13:51:57Z</time>
      </trkpt>
      <trkpt lat="44.16806" lon="3.15056">
        <ele>840.2</ele>
        <time>2019-04-19T13:51:59Z</time>
      </trkpt>
      <trkpt lat="44.16806" lon="3.15052">
        <ele>840</ele>
        <time>2019-04-19T13:52:14Z</time>
      </trkpt>
      <trkpt lat="44.16803" lon="3.1505">
        <ele>839.8</ele>
        <time>2019-04-19T13:52:16Z</time>
      </trkpt>
      <trkpt lat="44.16801" lon="3.15045">
        <ele>839.3</ele>
        <time>2019-04-19T13:52:18Z</time>
      </trkpt>
      <trkpt lat="44.16801" lon="3.15041">
        <ele>839.1</ele>
        <time>2019-04-19T13:52:19Z</time>
      </trkpt>
      <trkpt lat="44.16802" lon="3.15036">
        <ele>839.1</ele>
        <time>2019-04-19T13:52:21Z</time>
      </trkpt>
      <trkpt lat="44.16805" lon="3.15033">
        <ele>839</ele>
        <time>2019-04-19T13:52:23Z</time>
      </trkpt>
      <trkpt lat="44.16807" lon="3.15028">
        <ele>838.8</ele>
        <time>2019-04-19T13:52:25Z</time>
      </trkpt>
      <trkpt lat="44.1681" lon="3.15023">
        <ele>838.8</ele>
        <time>2019-04-19T13:52:27Z</time>
      </trkpt>
      <trkpt lat="44.16812" lon="3.15017">
        <ele>838.7</ele>
        <time>2019-04-19T13:52:29Z</time>
      </trkpt>
      <trkpt lat="44.16813" lon="3.15011">
        <ele>838.1</ele>
        <time>2019-04-19T13:52:31Z</time>
      </trkpt>
      <trkpt lat="44.16813" lon="3.15005">
        <ele>837.8</ele>
        <time>2019-04-19T13:52:33Z</time>
      </trkpt>
      <trkpt lat="44.16814" lon="3.14999">
        <ele>837.6</ele>
        <time>2019-04-19T13:52:35Z</time>
      </trkpt>
      <trkpt lat="44.16815" lon="3.14995">
        <ele>837.2</ele>
        <time>2019-04-19T13:52:36Z</time>
      </trkpt>
      <trkpt lat="44.16816" lon="3.14991">
        <ele>836.8</ele>
        <time>2019-04-19T13:52:37Z</time>
      </trkpt>
      <trkpt lat="44.1682" lon="3.14985">
        <ele>836.1</ele>
        <time>2019-04-19T13:52:39Z</time>
      </trkpt>
      <trkpt lat="44.16822" lon="3.14982">
        <ele>836.3</ele>
        <time>2019-04-19T13:52:42Z</time>
      </trkpt>
      <trkpt lat="44.16825" lon="3.14982">
        <ele>836.5</ele>
        <time>2019-04-19T13:52:50Z</time>
      </trkpt>
      <trkpt lat="44.16828" lon="3.14982">
        <ele>836.7</ele>
        <time>2019-04-19T13:52:57Z</time>
      </trkpt>
      <trkpt lat="44.16831" lon="3.1498">
        <ele>836.5</ele>
        <time>2019-04-19T13:53:00Z</time>
      </trkpt>
      <trkpt lat="44.16834" lon="3.14978">
        <ele>836.7</ele>
        <time>2019-04-19T13:53:02Z</time>
      </trkpt>
      <trkpt lat="44.16836" lon="3.14976">
        <ele>836.6</ele>
        <time>2019-04-19T13:53:03Z</time>
      </trkpt>
      <trkpt lat="44.16839" lon="3.14971">
        <ele>836.4</ele>
        <time>2019-04-19T13:53:05Z</time>
      </trkpt>
      <trkpt lat="44.16841" lon="3.14967">
        <ele>836</ele>
        <time>2019-04-19T13:53:07Z</time>
      </trkpt>
      <trkpt lat="44.16846" lon="3.14966">
        <ele>836.6</ele>
        <time>2019-04-19T13:53:09Z</time>
      </trkpt>
      <trkpt lat="44.1685" lon="3.14965">
        <ele>836.9</ele>
        <time>2019-04-19T13:53:11Z</time>
      </trkpt>
      <trkpt lat="44.16854" lon="3.14963">
        <ele>837.1</ele>
        <time>2019-04-19T13:53:13Z</time>
      </trkpt>
      <trkpt lat="44.16857" lon="3.14962">
        <ele>837.4</ele>
        <time>2019-04-19T13:53:14Z</time>
      </trkpt>
      <trkpt lat="44.1686" lon="3.14961">
        <ele>837.4</ele>
        <time>2019-04-19T13:53:15Z</time>
      </trkpt>
      <trkpt lat="44.16862" lon="3.1496">
        <ele>837.2</ele>
        <time>2019-04-19T13:53:16Z</time>
      </trkpt>
      <trkpt lat="44.16865" lon="3.14958">
        <ele>837.6</ele>
        <time>2019-04-19T13:53:17Z</time>
      </trkpt>
      <trkpt lat="44.1687" lon="3.14955">
        <ele>837.5</ele>
        <time>2019-04-19T13:53:19Z</time>
      </trkpt>
      <trkpt lat="44.16872" lon="3.14953">
        <ele>837.5</ele>
        <time>2019-04-19T13:53:20Z</time>
      </trkpt>
      <trkpt lat="44.16874" lon="3.1495">
        <ele>837</ele>
        <time>2019-04-19T13:53:21Z</time>
      </trkpt>
      <trkpt lat="44.16876" lon="3.14946">
        <ele>836.4</ele>
        <time>2019-04-19T13:53:23Z</time>
      </trkpt>
      <trkpt lat="44.16879" lon="3.14942">
        <ele>835.8</ele>
        <time>2019-04-19T13:53:25Z</time>
      </trkpt>
      <trkpt lat="44.16883" lon="3.14939">
        <ele>835.9</ele>
        <time>2019-04-19T13:53:27Z</time>
      </trkpt>
      <trkpt lat="44.16886" lon="3.14938">
        <ele>835.2</ele>
        <time>2019-04-19T13:53:28Z</time>
      </trkpt>
      <trkpt lat="44.16888" lon="3.14937">
        <ele>835.3</ele>
        <time>2019-04-19T13:53:29Z</time>
      </trkpt>
      <trkpt lat="44.16892" lon="3.14935">
        <ele>835.5</ele>
        <time>2019-04-19T13:53:31Z</time>
      </trkpt>
      <trkpt lat="44.16897" lon="3.14929">
        <ele>834</ele>
        <time>2019-04-19T13:53:33Z</time>
      </trkpt>
      <trkpt lat="44.16915" lon="3.14905">
        <ele>828.6</ele>
        <time>2019-04-19T13:53:35Z</time>
      </trkpt>
      <trkpt lat="44.16923" lon="3.14901">
        <ele>827.5</ele>
        <time>2019-04-19T13:53:38Z</time>
      </trkpt>
      <trkpt lat="44.16925" lon="3.149">
        <ele>826.2</ele>
        <time>2019-04-19T13:53:39Z</time>
      </trkpt>
      <trkpt lat="44.16927" lon="3.14895">
        <ele>824.9</ele>
        <time>2019-04-19T13:53:41Z</time>
      </trkpt>
      <trkpt lat="44.1693" lon="3.1489">
        <ele>823.6</ele>
        <time>2019-04-19T13:53:43Z</time>
      </trkpt>
      <trkpt lat="44.16939" lon="3.14884">
        <ele>822.3</ele>
        <time>2019-04-19T13:53:45Z</time>
      </trkpt>
      <trkpt lat="44.16942" lon="3.14883">
        <ele>822.4</ele>
        <time>2019-04-19T13:53:46Z</time>
      </trkpt>
      <trkpt lat="44.16945" lon="3.14882">
        <ele>821</ele>
        <time>2019-04-19T13:53:47Z</time>
      </trkpt>
      <trkpt lat="44.16948" lon="3.1488">
        <ele>821.1</ele>
        <time>2019-04-19T13:53:48Z</time>
      </trkpt>
      <trkpt lat="44.16951" lon="3.14878">
        <ele>819.7</ele>
        <time>2019-04-19T13:53:49Z</time>
      </trkpt>
      <trkpt lat="44.16954" lon="3.14876">
        <ele>819.7</ele>
        <time>2019-04-19T13:53:50Z</time>
      </trkpt>
      <trkpt lat="44.16956" lon="3.14874">
        <ele>818.2</ele>
        <time>2019-04-19T13:53:51Z</time>
      </trkpt>
      <trkpt lat="44.16961" lon="3.14871">
        <ele>818.3</ele>
        <time>2019-04-19T13:53:53Z</time>
      </trkpt>
      <trkpt lat="44.16966" lon="3.14869">
        <ele>816.9</ele>
        <time>2019-04-19T13:53:55Z</time>
      </trkpt>
      <trkpt lat="44.16971" lon="3.14865">
        <ele>815.6</ele>
        <time>2019-04-19T13:55:44Z</time>
      </trkpt>
      <trkpt lat="44.16976" lon="3.14866">
        <ele>817.5</ele>
        <time>2019-04-19T13:55:46Z</time>
      </trkpt>
      <trkpt lat="44.16979" lon="3.14866">
        <ele>817.8</ele>
        <time>2019-04-19T13:55:47Z</time>
      </trkpt>
      <trkpt lat="44.16982" lon="3.14866">
        <ele>818.1</ele>
        <time>2019-04-19T13:55:48Z</time>
      </trkpt>
      <trkpt lat="44.16986" lon="3.14866">
        <ele>818.4</ele>
        <time>2019-04-19T13:55:49Z</time>
      </trkpt>
      <trkpt lat="44.16989" lon="3.14866">
        <ele>818.7</ele>
        <time>2019-04-19T13:55:50Z</time>
      </trkpt>
      <trkpt lat="44.16992" lon="3.14865">
        <ele>817.5</ele>
        <time>2019-04-19T13:55:51Z</time>
      </trkpt>
      <trkpt lat="44.16995" lon="3.14865">
        <ele>817.9</ele>
        <time>2019-04-19T13:55:52Z</time>
      </trkpt>
      <trkpt lat="44.16999" lon="3.14865">
        <ele>818.9</ele>
        <time>2019-04-19T13:55:53Z</time>
      </trkpt>
      <trkpt lat="44.17003" lon="3.14865">
        <ele>819.4</ele>
        <time>2019-04-19T13:55:54Z</time>
      </trkpt>
      <trkpt lat="44.17006" lon="3.14865">
        <ele>820</ele>
        <time>2019-04-19T13:55:55Z</time>
      </trkpt>
      <trkpt lat="44.17009" lon="3.14864">
        <ele>820.6</ele>
        <time>2019-04-19T13:55:56Z</time>
      </trkpt>
      <trkpt lat="44.17012" lon="3.14864">
        <ele>821.1</ele>
        <time>2019-04-19T13:55:57Z</time>
      </trkpt>
      <trkpt lat="44.17016" lon="3.14864">
        <ele>821.7</ele>
        <time>2019-04-19T13:55:58Z</time>
      </trkpt>
      <trkpt lat="44.17019" lon="3.14862">
        <ele>822.3</ele>
        <time>2019-04-19T13:55:59Z</time>
      </trkpt>
      <trkpt lat="44.17022" lon="3.1486">
        <ele>821.4</ele>
        <time>2019-04-19T13:56:00Z</time>
      </trkpt>
      <trkpt lat="44.17025" lon="3.14856">
        <ele>820.5</ele>
        <time>2019-04-19T13:56:01Z</time>
      </trkpt>
      <trkpt lat="44.17028" lon="3.14853">
        <ele>821.3</ele>
        <time>2019-04-19T13:56:02Z</time>
      </trkpt>
      <trkpt lat="44.17031" lon="3.14851">
        <ele>820.7</ele>
        <time>2019-04-19T13:56:03Z</time>
      </trkpt>
      <trkpt lat="44.17034" lon="3.14848">
        <ele>820</ele>
        <time>2019-04-19T13:56:04Z</time>
      </trkpt>
      <trkpt lat="44.17037" lon="3.14846">
        <ele>820.8</ele>
        <time>2019-04-19T13:56:05Z</time>
      </trkpt>
      <trkpt lat="44.1704" lon="3.14844">
        <ele>820.2</ele>
        <time>2019-04-19T13:56:06Z</time>
      </trkpt>
      <trkpt lat="44.17043" lon="3.14842">
        <ele>820.9</ele>
        <time>2019-04-19T13:56:07Z</time>
      </trkpt>
      <trkpt lat="44.17046" lon="3.14841">
        <ele>821.7</ele>
        <time>2019-04-19T13:56:08Z</time>
      </trkpt>
      <trkpt lat="44.1705" lon="3.1484">
        <ele>822.5</ele>
        <time>2019-04-19T13:56:09Z</time>
      </trkpt>
      <trkpt lat="44.17052" lon="3.1484">
        <ele>823.3</ele>
        <time>2019-04-19T13:56:10Z</time>
      </trkpt>
      <trkpt lat="44.17056" lon="3.1484">
        <ele>824</ele>
        <time>2019-04-19T13:56:11Z</time>
      </trkpt>
      <trkpt lat="44.17059" lon="3.14841">
        <ele>824.8</ele>
        <time>2019-04-19T13:56:12Z</time>
      </trkpt>
      <trkpt lat="44.17061" lon="3.14842">
        <ele>825.6</ele>
        <time>2019-04-19T13:56:13Z</time>
      </trkpt>
      <trkpt lat="44.17064" lon="3.14843">
        <ele>826.3</ele>
        <time>2019-04-19T13:56:14Z</time>
      </trkpt>
      <trkpt lat="44.17069" lon="3.14845">
        <ele>828.3</ele>
        <time>2019-04-19T13:56:16Z</time>
      </trkpt>
      <trkpt lat="44.17074" lon="3.14846">
        <ele>829.8</ele>
        <time>2019-04-19T13:56:18Z</time>
      </trkpt>
      <trkpt lat="44.17077" lon="3.14846">
        <ele>830.6</ele>
        <time>2019-04-19T13:56:19Z</time>
      </trkpt>
      <trkpt lat="44.1708" lon="3.14846">
        <ele>831.4</ele>
        <time>2019-04-19T13:56:20Z</time>
      </trkpt>
      <trkpt lat="44.17083" lon="3.14846">
        <ele>832.2</ele>
        <time>2019-04-19T13:56:21Z</time>
      </trkpt>
      <trkpt lat="44.17087" lon="3.14845">
        <ele>832.9</ele>
        <time>2019-04-19T13:56:23Z</time>
      </trkpt>
      <trkpt lat="44.17091" lon="3.14843">
        <ele>833.4</ele>
        <time>2019-04-19T13:56:25Z</time>
      </trkpt>
      <trkpt lat="44.17094" lon="3.14841">
        <ele>833.4</ele>
        <time>2019-04-19T13:56:26Z</time>
      </trkpt>
      <trkpt lat="44.17096" lon="3.14839">
        <ele>833</ele>
        <time>2019-04-19T13:56:27Z</time>
      </trkpt>
      <trkpt lat="44.17101" lon="3.14836">
        <ele>834.1</ele>
        <time>2019-04-19T13:56:29Z</time>
      </trkpt>
      <trkpt lat="44.17103" lon="3.14834">
        <ele>833.5</ele>
        <time>2019-04-19T13:56:30Z</time>
      </trkpt>
      <trkpt lat="44.17106" lon="3.14831">
        <ele>832.4</ele>
        <time>2019-04-19T13:56:31Z</time>
      </trkpt>
      <trkpt lat="44.17108" lon="3.14828">
        <ele>832.9</ele>
        <time>2019-04-19T13:56:32Z</time>
      </trkpt>
      <trkpt lat="44.17111" lon="3.14827">
        <ele>833.4</ele>
        <time>2019-04-19T13:56:33Z</time>
      </trkpt>
      <trkpt lat="44.17116" lon="3.14828">
        <ele>834.4</ele>
        <time>2019-04-19T13:56:35Z</time>
      </trkpt>
      <trkpt lat="44.17121" lon="3.14831">
        <ele>834.8</ele>
        <time>2019-04-19T13:56:37Z</time>
      </trkpt>
      <trkpt lat="44.17123" lon="3.14832">
        <ele>836.1</ele>
        <time>2019-04-19T13:56:38Z</time>
      </trkpt>
      <trkpt lat="44.17127" lon="3.14836">
        <ele>837.4</ele>
        <time>2019-04-19T13:56:40Z</time>
      </trkpt>
      <trkpt lat="44.17132" lon="3.1484">
        <ele>837.9</ele>
        <time>2019-04-19T13:56:42Z</time>
      </trkpt>
      <trkpt lat="44.17137" lon="3.14842">
        <ele>839.1</ele>
        <time>2019-04-19T13:56:44Z</time>
      </trkpt>
      <trkpt lat="44.17139" lon="3.14843">
        <ele>839.4</ele>
        <time>2019-04-19T13:56:45Z</time>
      </trkpt>
      <trkpt lat="44.17142" lon="3.14845">
        <ele>840.5</ele>
        <time>2019-04-19T13:56:46Z</time>
      </trkpt>
      <trkpt lat="44.17145" lon="3.14846">
        <ele>840.8</ele>
        <time>2019-04-19T13:56:47Z</time>
      </trkpt>
      <trkpt lat="44.17148" lon="3.14848">
        <ele>841</ele>
        <time>2019-04-19T13:56:48Z</time>
      </trkpt>
      <trkpt lat="44.17151" lon="3.14849">
        <ele>841.9</ele>
        <time>2019-04-19T13:56:49Z</time>
      </trkpt>
      <trkpt lat="44.17154" lon="3.14851">
        <ele>842.1</ele>
        <time>2019-04-19T13:56:50Z</time>
      </trkpt>
      <trkpt lat="44.17157" lon="3.14854">
        <ele>843</ele>
        <time>2019-04-19T13:56:51Z</time>
      </trkpt>
      <trkpt lat="44.1716" lon="3.14858">
        <ele>843.8</ele>
        <time>2019-04-19T13:56:52Z</time>
      </trkpt>
      <trkpt lat="44.17163" lon="3.14862">
        <ele>844.7</ele>
        <time>2019-04-19T13:56:53Z</time>
      </trkpt>
      <trkpt lat="44.17167" lon="3.14867">
        <ele>845.5</ele>
        <time>2019-04-19T13:56:54Z</time>
      </trkpt>
      <trkpt lat="44.1717" lon="3.1487">
        <ele>846.2</ele>
        <time>2019-04-19T13:56:55Z</time>
      </trkpt>
      <trkpt lat="44.17173" lon="3.14873">
        <ele>846.3</ele>
        <time>2019-04-19T13:56:56Z</time>
      </trkpt>
      <trkpt lat="44.17176" lon="3.14876">
        <ele>847</ele>
        <time>2019-04-19T13:56:57Z</time>
      </trkpt>
      <trkpt lat="44.17179" lon="3.14879">
        <ele>847.6</ele>
        <time>2019-04-19T13:56:58Z</time>
      </trkpt>
      <trkpt lat="44.17182" lon="3.14882">
        <ele>847.6</ele>
        <time>2019-04-19T13:56:59Z</time>
      </trkpt>
      <trkpt lat="44.17184" lon="3.14884">
        <ele>848.2</ele>
        <time>2019-04-19T13:57:00Z</time>
      </trkpt>
      <trkpt lat="44.17187" lon="3.14887">
        <ele>848.2</ele>
        <time>2019-04-19T13:57:01Z</time>
      </trkpt>
      <trkpt lat="44.17189" lon="3.14891">
        <ele>848.8</ele>
        <time>2019-04-19T13:57:02Z</time>
      </trkpt>
      <trkpt lat="44.17191" lon="3.14895">
        <ele>849.3</ele>
        <time>2019-04-19T13:57:03Z</time>
      </trkpt>
      <trkpt lat="44.17193" lon="3.14899">
        <ele>849.7</ele>
        <time>2019-04-19T13:57:04Z</time>
      </trkpt>
      <trkpt lat="44.17196" lon="3.14902">
        <ele>850.1</ele>
        <time>2019-04-19T13:57:05Z</time>
      </trkpt>
      <trkpt lat="44.17198" lon="3.14906">
        <ele>850.4</ele>
        <time>2019-04-19T13:57:06Z</time>
      </trkpt>
      <trkpt lat="44.17201" lon="3.14909">
        <ele>850.7</ele>
        <time>2019-04-19T13:57:07Z</time>
      </trkpt>
      <trkpt lat="44.17204" lon="3.14913">
        <ele>850.9</ele>
        <time>2019-04-19T13:57:08Z</time>
      </trkpt>
      <trkpt lat="44.17206" lon="3.14917">
        <ele>850.8</ele>
        <time>2019-04-19T13:57:09Z</time>
      </trkpt>
      <trkpt lat="44.17209" lon="3.1492">
        <ele>851</ele>
        <time>2019-04-19T13:57:10Z</time>
      </trkpt>
      <trkpt lat="44.17211" lon="3.14924">
        <ele>851.1</ele>
        <time>2019-04-19T13:57:11Z</time>
      </trkpt>
      <trkpt lat="44.17213" lon="3.14927">
        <ele>851.3</ele>
        <time>2019-04-19T13:57:12Z</time>
      </trkpt>
      <trkpt lat="44.17215" lon="3.14931">
        <ele>851.3</ele>
        <time>2019-04-19T13:57:13Z</time>
      </trkpt>
      <trkpt lat="44.17218" lon="3.14935">
        <ele>851.4</ele>
        <time>2019-04-19T13:57:14Z</time>
      </trkpt>
      <trkpt lat="44.1722" lon="3.14939">
        <ele>851.4</ele>
        <time>2019-04-19T13:57:15Z</time>
      </trkpt>
      <trkpt lat="44.17222" lon="3.14942">
        <ele>851.4</ele>
        <time>2019-04-19T13:57:16Z</time>
      </trkpt>
      <trkpt lat="44.17224" lon="3.14946">
        <ele>851.5</ele>
        <time>2019-04-19T13:57:17Z</time>
      </trkpt>
      <trkpt lat="44.17226" lon="3.14949">
        <ele>851.4</ele>
        <time>2019-04-19T13:57:18Z</time>
      </trkpt>
      <trkpt lat="44.17228" lon="3.14952">
        <ele>851.4</ele>
        <time>2019-04-19T13:57:19Z</time>
      </trkpt>
      <trkpt lat="44.1723" lon="3.14956">
        <ele>851.4</ele>
        <time>2019-04-19T13:57:20Z</time>
      </trkpt>
      <trkpt lat="44.17233" lon="3.1496">
        <ele>851.4</ele>
        <time>2019-04-19T13:57:21Z</time>
      </trkpt>
      <trkpt lat="44.17236" lon="3.14963">
        <ele>851.3</ele>
        <time>2019-04-19T13:57:22Z</time>
      </trkpt>
      <trkpt lat="44.17239" lon="3.14967">
        <ele>851.3</ele>
        <time>2019-04-19T13:57:23Z</time>
      </trkpt>
      <trkpt lat="44.17243" lon="3.1497">
        <ele>851.3</ele>
        <time>2019-04-19T13:57:24Z</time>
      </trkpt>
      <trkpt lat="44.17246" lon="3.14973">
        <ele>851.3</ele>
        <time>2019-04-19T13:57:25Z</time>
      </trkpt>
      <trkpt lat="44.17249" lon="3.14976">
        <ele>851.2</ele>
        <time>2019-04-19T13:57:26Z</time>
      </trkpt>
      <trkpt lat="44.17251" lon="3.14979">
        <ele>851.2</ele>
        <time>2019-04-19T13:57:27Z</time>
      </trkpt>
      <trkpt lat="44.17254" lon="3.14981">
        <ele>851.3</ele>
        <time>2019-04-19T13:57:28Z</time>
      </trkpt>
      <trkpt lat="44.17255" lon="3.14984">
        <ele>851.3</ele>
        <time>2019-04-19T13:57:29Z</time>
      </trkpt>
      <trkpt lat="44.17257" lon="3.14988">
        <ele>851.3</ele>
        <time>2019-04-19T13:57:30Z</time>
      </trkpt>
      <trkpt lat="44.17259" lon="3.1499">
        <ele>851.3</ele>
        <time>2019-04-19T13:57:31Z</time>
      </trkpt>
      <trkpt lat="44.17263" lon="3.14992">
        <ele>851.3</ele>
        <time>2019-04-19T13:57:33Z</time>
      </trkpt>
      <trkpt lat="44.17266" lon="3.14991">
        <ele>851.2</ele>
        <time>2019-04-19T13:57:34Z</time>
      </trkpt>
      <trkpt lat="44.17269" lon="3.14988">
        <ele>851.1</ele>
        <time>2019-04-19T13:57:35Z</time>
      </trkpt>
      <trkpt lat="44.17272" lon="3.14986">
        <ele>851.1</ele>
        <time>2019-04-19T13:57:36Z</time>
      </trkpt>
      <trkpt lat="44.17275" lon="3.14984">
        <ele>850.9</ele>
        <time>2019-04-19T13:57:37Z</time>
      </trkpt>
      <trkpt lat="44.17279" lon="3.14982">
        <ele>850.8</ele>
        <time>2019-04-19T13:57:38Z</time>
      </trkpt>
      <trkpt lat="44.17283" lon="3.1498">
        <ele>850.7</ele>
        <time>2019-04-19T13:57:39Z</time>
      </trkpt>
      <trkpt lat="44.17289" lon="3.1498">
        <ele>850.5</ele>
        <time>2019-04-19T13:57:40Z</time>
      </trkpt>
      <trkpt lat="44.17294" lon="3.14981">
        <ele>850.5</ele>
        <time>2019-04-19T13:57:41Z</time>
      </trkpt>
      <trkpt lat="44.17297" lon="3.14983">
        <ele>850.5</ele>
        <time>2019-04-19T13:57:42Z</time>
      </trkpt>
      <trkpt lat="44.17303" lon="3.14983">
        <ele>850.4</ele>
        <time>2019-04-19T13:57:43Z</time>
      </trkpt>
      <trkpt lat="44.17308" lon="3.14986">
        <ele>850.5</ele>
        <time>2019-04-19T13:57:44Z</time>
      </trkpt>
      <trkpt lat="44.17313" lon="3.14989">
        <ele>850.4</ele>
        <time>2019-04-19T13:57:45Z</time>
      </trkpt>
      <trkpt lat="44.17318" lon="3.14991">
        <ele>850.5</ele>
        <time>2019-04-19T13:57:46Z</time>
      </trkpt>
      <trkpt lat="44.17322" lon="3.14994">
        <ele>850.5</ele>
        <time>2019-04-19T13:57:47Z</time>
      </trkpt>
      <trkpt lat="44.17325" lon="3.14996">
        <ele>850.6</ele>
        <time>2019-04-19T13:57:48Z</time>
      </trkpt>
      <trkpt lat="44.1733" lon="3.14994">
        <ele>850.5</ele>
        <time>2019-04-19T13:57:49Z</time>
      </trkpt>
      <trkpt lat="44.17335" lon="3.14996">
        <ele>850.5</ele>
        <time>2019-04-19T13:57:50Z</time>
      </trkpt>
      <trkpt lat="44.17339" lon="3.14997">
        <ele>850.5</ele>
        <time>2019-04-19T13:57:51Z</time>
      </trkpt>
      <trkpt lat="44.17342" lon="3.14997">
        <ele>850.5</ele>
        <time>2019-04-19T13:57:52Z</time>
      </trkpt>
      <trkpt lat="44.17345" lon="3.14995">
        <ele>850.6</ele>
        <time>2019-04-19T13:57:53Z</time>
      </trkpt>
      <trkpt lat="44.17348" lon="3.14992">
        <ele>850.5</ele>
        <time>2019-04-19T13:57:54Z</time>
      </trkpt>
      <trkpt lat="44.1735" lon="3.14986">
        <ele>850.4</ele>
        <time>2019-04-19T13:57:56Z</time>
      </trkpt>
      <trkpt lat="44.17353" lon="3.14982">
        <ele>850.5</ele>
        <time>2019-04-19T13:57:57Z</time>
      </trkpt>
      <trkpt lat="44.17355" lon="3.14979">
        <ele>850.5</ele>
        <time>2019-04-19T13:57:58Z</time>
      </trkpt>
      <trkpt lat="44.1736" lon="3.14977">
        <ele>850.5</ele>
        <time>2019-04-19T13:58:00Z</time>
      </trkpt>
      <trkpt lat="44.17364" lon="3.14977">
        <ele>850.6</ele>
        <time>2019-04-19T13:58:01Z</time>
      </trkpt>
      <trkpt lat="44.17368" lon="3.14978">
        <ele>850.7</ele>
        <time>2019-04-19T13:58:02Z</time>
      </trkpt>
      <trkpt lat="44.17372" lon="3.14978">
        <ele>850.8</ele>
        <time>2019-04-19T13:58:03Z</time>
      </trkpt>
      <trkpt lat="44.17376" lon="3.14979">
        <ele>850.8</ele>
        <time>2019-04-19T13:58:04Z</time>
      </trkpt>
      <trkpt lat="44.1738" lon="3.14978">
        <ele>850.8</ele>
        <time>2019-04-19T13:58:05Z</time>
      </trkpt>
      <trkpt lat="44.17383" lon="3.14979">
        <ele>850.8</ele>
        <time>2019-04-19T13:58:06Z</time>
      </trkpt>
      <trkpt lat="44.17388" lon="3.14979">
        <ele>850.8</ele>
        <time>2019-04-19T13:58:08Z</time>
      </trkpt>
      <trkpt lat="44.17392" lon="3.14978">
        <ele>850.7</ele>
        <time>2019-04-19T13:58:09Z</time>
      </trkpt>
      <trkpt lat="44.17397" lon="3.14977">
        <ele>850.6</ele>
        <time>2019-04-19T13:58:10Z</time>
      </trkpt>
      <trkpt lat="44.17402" lon="3.14976">
        <ele>850.4</ele>
        <time>2019-04-19T13:58:11Z</time>
      </trkpt>
      <trkpt lat="44.17407" lon="3.14969">
        <ele>850.1</ele>
        <time>2019-04-19T13:58:12Z</time>
      </trkpt>
      <trkpt lat="44.17409" lon="3.14965">
        <ele>849.9</ele>
        <time>2019-04-19T13:58:13Z</time>
      </trkpt>
      <trkpt lat="44.17411" lon="3.14961">
        <ele>849.7</ele>
        <time>2019-04-19T13:58:14Z</time>
      </trkpt>
      <trkpt lat="44.17415" lon="3.14959">
        <ele>849.2</ele>
        <time>2019-04-19T13:58:15Z</time>
      </trkpt>
      <trkpt lat="44.17418" lon="3.14957">
        <ele>849.1</ele>
        <time>2019-04-19T13:58:16Z</time>
      </trkpt>
      <trkpt lat="44.17421" lon="3.14958">
        <ele>849</ele>
        <time>2019-04-19T13:58:17Z</time>
      </trkpt>
      <trkpt lat="44.17426" lon="3.14958">
        <ele>848.9</ele>
        <time>2019-04-19T13:58:18Z</time>
      </trkpt>
      <trkpt lat="44.17429" lon="3.14956">
        <ele>848.5</ele>
        <time>2019-04-19T13:58:19Z</time>
      </trkpt>
      <trkpt lat="44.17432" lon="3.14954">
        <ele>848.4</ele>
        <time>2019-04-19T13:58:20Z</time>
      </trkpt>
      <trkpt lat="44.17438" lon="3.14945">
        <ele>847.4</ele>
        <time>2019-04-19T13:58:22Z</time>
      </trkpt>
      <trkpt lat="44.17444" lon="3.14942">
        <ele>846.8</ele>
        <time>2019-04-19T13:58:23Z</time>
      </trkpt>
      <trkpt lat="44.17447" lon="3.14943">
        <ele>846.6</ele>
        <time>2019-04-19T13:58:24Z</time>
      </trkpt>
      <trkpt lat="44.17452" lon="3.14946">
        <ele>846.8</ele>
        <time>2019-04-19T13:58:26Z</time>
      </trkpt>
      <trkpt lat="44.17454" lon="3.14947">
        <ele>846.7</ele>
        <time>2019-04-19T13:58:27Z</time>
      </trkpt>
      <trkpt lat="44.17458" lon="3.14947">
        <ele>846.9</ele>
        <time>2019-04-19T13:58:28Z</time>
      </trkpt>
      <trkpt lat="44.17461" lon="3.14948">
        <ele>846.7</ele>
        <time>2019-04-19T13:58:29Z</time>
      </trkpt>
      <trkpt lat="44.17464" lon="3.14949">
        <ele>846.5</ele>
        <time>2019-04-19T13:58:30Z</time>
      </trkpt>
      <trkpt lat="44.17467" lon="3.14949">
        <ele>846.3</ele>
        <time>2019-04-19T13:58:31Z</time>
      </trkpt>
      <trkpt lat="44.17469" lon="3.1495">
        <ele>846.3</ele>
        <time>2019-04-19T13:58:32Z</time>
      </trkpt>
      <trkpt lat="44.17473" lon="3.14949">
        <ele>845.8</ele>
        <time>2019-04-19T13:58:33Z</time>
      </trkpt>
      <trkpt lat="44.17477" lon="3.14949">
        <ele>845.6</ele>
        <time>2019-04-19T13:58:34Z</time>
      </trkpt>
      <trkpt lat="44.17482" lon="3.14949">
        <ele>845.1</ele>
        <time>2019-04-19T13:58:35Z</time>
      </trkpt>
      <trkpt lat="44.17487" lon="3.14949">
        <ele>844.9</ele>
        <time>2019-04-19T13:58:36Z</time>
      </trkpt>
      <trkpt lat="44.17492" lon="3.14949">
        <ele>844.3</ele>
        <time>2019-04-19T13:58:37Z</time>
      </trkpt>
      <trkpt lat="44.17497" lon="3.14949">
        <ele>844.1</ele>
        <time>2019-04-19T13:58:38Z</time>
      </trkpt>
      <trkpt lat="44.17502" lon="3.14947">
        <ele>843.2</ele>
        <time>2019-04-19T13:58:39Z</time>
      </trkpt>
      <trkpt lat="44.17507" lon="3.14945">
        <ele>842.7</ele>
        <time>2019-04-19T13:58:40Z</time>
      </trkpt>
      <trkpt lat="44.17511" lon="3.14943">
        <ele>842.1</ele>
        <time>2019-04-19T13:58:41Z</time>
      </trkpt>
      <trkpt lat="44.17515" lon="3.14941">
        <ele>842</ele>
        <time>2019-04-19T13:58:42Z</time>
      </trkpt>
      <trkpt lat="44.17519" lon="3.14938">
        <ele>841.3</ele>
        <time>2019-04-19T13:58:43Z</time>
      </trkpt>
      <trkpt lat="44.17523" lon="3.14935">
        <ele>841.2</ele>
        <time>2019-04-19T13:58:44Z</time>
      </trkpt>
      <trkpt lat="44.17526" lon="3.14931">
        <ele>840.7</ele>
        <time>2019-04-19T13:58:45Z</time>
      </trkpt>
      <trkpt lat="44.17531" lon="3.14924">
        <ele>839.6</ele>
        <time>2019-04-19T13:58:46Z</time>
      </trkpt>
      <trkpt lat="44.17533" lon="3.14916">
        <ele>838.4</ele>
        <time>2019-04-19T13:58:47Z</time>
      </trkpt>
      <trkpt lat="44.17537" lon="3.14914">
        <ele>838.3</ele>
        <time>2019-04-19T13:58:48Z</time>
      </trkpt>
      <trkpt lat="44.1754" lon="3.14912">
        <ele>837.5</ele>
        <time>2019-04-19T13:58:49Z</time>
      </trkpt>
      <trkpt lat="44.17537" lon="3.14915">
        <ele>838.3</ele>
        <time>2019-04-19T13:58:50Z</time>
      </trkpt>
      <trkpt lat="44.1754" lon="3.14916">
        <ele>838.2</ele>
        <time>2019-04-19T13:58:55Z</time>
      </trkpt>
      <trkpt lat="44.17546" lon="3.14915">
        <ele>838</ele>
        <time>2019-04-19T13:59:01Z</time>
      </trkpt>
      <trkpt lat="44.17553" lon="3.14917">
        <ele>838.2</ele>
        <time>2019-04-19T13:59:03Z</time>
      </trkpt>
      <trkpt lat="44.17554" lon="3.14921">
        <ele>838.2</ele>
        <time>2019-04-19T13:59:04Z</time>
      </trkpt>
      <trkpt lat="44.17558" lon="3.14923">
        <ele>838.5</ele>
        <time>2019-04-19T13:59:05Z</time>
      </trkpt>
      <trkpt lat="44.17562" lon="3.14925">
        <ele>838.4</ele>
        <time>2019-04-19T13:59:07Z</time>
      </trkpt>
      <trkpt lat="44.17565" lon="3.14928">
        <ele>838.8</ele>
        <time>2019-04-19T13:59:08Z</time>
      </trkpt>
      <trkpt lat="44.17568" lon="3.1493">
        <ele>839.1</ele>
        <time>2019-04-19T13:59:09Z</time>
      </trkpt>
      <trkpt lat="44.17571" lon="3.14931">
        <ele>839.1</ele>
        <time>2019-04-19T13:59:10Z</time>
      </trkpt>
      <trkpt lat="44.17574" lon="3.1493">
        <ele>839.1</ele>
        <time>2019-04-19T13:59:11Z</time>
      </trkpt>
      <trkpt lat="44.17578" lon="3.14928">
        <ele>838.8</ele>
        <time>2019-04-19T13:59:12Z</time>
      </trkpt>
      <trkpt lat="44.17586" lon="3.14921">
        <ele>838</ele>
        <time>2019-04-19T13:59:13Z</time>
      </trkpt>
      <trkpt lat="44.17591" lon="3.14918">
        <ele>838.2</ele>
        <time>2019-04-19T13:59:14Z</time>
      </trkpt>
      <trkpt lat="44.17595" lon="3.14915">
        <ele>837.8</ele>
        <time>2019-04-19T13:59:15Z</time>
      </trkpt>
      <trkpt lat="44.17599" lon="3.14913">
        <ele>837.9</ele>
        <time>2019-04-19T13:59:16Z</time>
      </trkpt>
      <trkpt lat="44.17602" lon="3.14909">
        <ele>837.5</ele>
        <time>2019-04-19T13:59:17Z</time>
      </trkpt>
      <trkpt lat="44.17607" lon="3.1491">
        <ele>837.6</ele>
        <time>2019-04-19T13:59:18Z</time>
      </trkpt>
      <trkpt lat="44.17603" lon="3.14915">
        <ele>838</ele>
        <time>2019-04-19T13:59:19Z</time>
      </trkpt>
      <trkpt lat="44.17609" lon="3.14913">
        <ele>838.1</ele>
        <time>2019-04-19T13:59:24Z</time>
      </trkpt>
      <trkpt lat="44.17612" lon="3.14913">
        <ele>838</ele>
        <time>2019-04-19T13:59:25Z</time>
      </trkpt>
      <trkpt lat="44.17615" lon="3.14912">
        <ele>837.6</ele>
        <time>2019-04-19T13:59:26Z</time>
      </trkpt>
      <trkpt lat="44.17617" lon="3.14915">
        <ele>838</ele>
        <time>2019-04-19T13:59:27Z</time>
      </trkpt>
      <trkpt lat="44.17623" lon="3.14914">
        <ele>838</ele>
        <time>2019-04-19T13:59:28Z</time>
      </trkpt>
      <trkpt lat="44.17628" lon="3.14915">
        <ele>837.9</ele>
        <time>2019-04-19T13:59:29Z</time>
      </trkpt>
      <trkpt lat="44.17633" lon="3.14915">
        <ele>837.8</ele>
        <time>2019-04-19T13:59:30Z</time>
      </trkpt>
      <trkpt lat="44.17638" lon="3.14916">
        <ele>837.8</ele>
        <time>2019-04-19T13:59:31Z</time>
      </trkpt>
      <trkpt lat="44.17642" lon="3.14916">
        <ele>837.6</ele>
        <time>2019-04-19T13:59:32Z</time>
      </trkpt>
      <trkpt lat="44.17648" lon="3.14914">
        <ele>837.5</ele>
        <time>2019-04-19T13:59:33Z</time>
      </trkpt>
      <trkpt lat="44.17653" lon="3.14912">
        <ele>837.1</ele>
        <time>2019-04-19T13:59:34Z</time>
      </trkpt>
      <trkpt lat="44.17658" lon="3.1491">
        <ele>836.9</ele>
        <time>2019-04-19T13:59:35Z</time>
      </trkpt>
      <trkpt lat="44.17666" lon="3.14903">
        <ele>836.2</ele>
        <time>2019-04-19T13:59:36Z</time>
      </trkpt>
      <trkpt lat="44.17672" lon="3.14901">
        <ele>835.9</ele>
        <time>2019-04-19T13:59:37Z</time>
      </trkpt>
      <trkpt lat="44.17678" lon="3.14896">
        <ele>835.4</ele>
        <time>2019-04-19T13:59:38Z</time>
      </trkpt>
      <trkpt lat="44.17685" lon="3.14892">
        <ele>835</ele>
        <time>2019-04-19T13:59:39Z</time>
      </trkpt>
      <trkpt lat="44.1769" lon="3.14889">
        <ele>834.6</ele>
        <time>2019-04-19T13:59:40Z</time>
      </trkpt>
      <trkpt lat="44.17696" lon="3.14886">
        <ele>834.3</ele>
        <time>2019-04-19T13:59:41Z</time>
      </trkpt>
      <trkpt lat="44.17702" lon="3.1488">
        <ele>834.1</ele>
        <time>2019-04-19T13:59:42Z</time>
      </trkpt>
      <trkpt lat="44.1771" lon="3.14873">
        <ele>833.6</ele>
        <time>2019-04-19T13:59:43Z</time>
      </trkpt>
      <trkpt lat="44.17715" lon="3.14869">
        <ele>833.4</ele>
        <time>2019-04-19T13:59:44Z</time>
      </trkpt>
      <trkpt lat="44.17725" lon="3.1486">
        <ele>832.9</ele>
        <time>2019-04-19T13:59:45Z</time>
      </trkpt>
      <trkpt lat="44.17733" lon="3.14856">
        <ele>832.6</ele>
        <time>2019-04-19T13:59:46Z</time>
      </trkpt>
      <trkpt lat="44.17739" lon="3.14853">
        <ele>832.5</ele>
        <time>2019-04-19T13:59:47Z</time>
      </trkpt>
      <trkpt lat="44.17745" lon="3.14848">
        <ele>832.3</ele>
        <time>2019-04-19T13:59:48Z</time>
      </trkpt>
      <trkpt lat="44.1775" lon="3.14842">
        <ele>832.2</ele>
        <time>2019-04-19T13:59:49Z</time>
      </trkpt>
      <trkpt lat="44.17753" lon="3.14837">
        <ele>832.2</ele>
        <time>2019-04-19T13:59:50Z</time>
      </trkpt>
      <trkpt lat="44.17756" lon="3.14833">
        <ele>832</ele>
        <time>2019-04-19T13:59:51Z</time>
      </trkpt>
      <trkpt lat="44.17763" lon="3.14827">
        <ele>831.8</ele>
        <time>2019-04-19T13:59:52Z</time>
      </trkpt>
      <trkpt lat="44.17767" lon="3.14825">
        <ele>831.8</ele>
        <time>2019-04-19T13:59:53Z</time>
      </trkpt>
      <trkpt lat="44.17772" lon="3.14822">
        <ele>831.6</ele>
        <time>2019-04-19T13:59:54Z</time>
      </trkpt>
      <trkpt lat="44.17775" lon="3.14822">
        <ele>831.6</ele>
        <time>2019-04-19T13:59:55Z</time>
      </trkpt>
      <trkpt lat="44.1778" lon="3.14824">
        <ele>831.5</ele>
        <time>2019-04-19T13:59:56Z</time>
      </trkpt>
      <trkpt lat="44.17783" lon="3.14823">
        <ele>831.5</ele>
        <time>2019-04-19T13:59:57Z</time>
      </trkpt>
      <trkpt lat="44.17786" lon="3.14823">
        <ele>831.5</ele>
        <time>2019-04-19T13:59:58Z</time>
      </trkpt>
      <trkpt lat="44.1779" lon="3.14822">
        <ele>831.5</ele>
        <time>2019-04-19T13:59:59Z</time>
      </trkpt>
      <trkpt lat="44.17796" lon="3.14819">
        <ele>831.5</ele>
        <time>2019-04-19T14:00:00Z</time>
      </trkpt>
      <trkpt lat="44.17802" lon="3.14816">
        <ele>831.6</ele>
        <time>2019-04-19T14:00:01Z</time>
      </trkpt>
      <trkpt lat="44.17805" lon="3.14818">
        <ele>831.6</ele>
        <time>2019-04-19T14:00:02Z</time>
      </trkpt>
      <trkpt lat="44.17809" lon="3.14818">
        <ele>831.8</ele>
        <time>2019-04-19T14:00:03Z</time>
      </trkpt>
      <trkpt lat="44.17813" lon="3.14818">
        <ele>831.9</ele>
        <time>2019-04-19T14:00:04Z</time>
      </trkpt>
      <trkpt lat="44.17816" lon="3.14819">
        <ele>831.9</ele>
        <time>2019-04-19T14:00:05Z</time>
      </trkpt>
      <trkpt lat="44.17819" lon="3.14819">
        <ele>832</ele>
        <time>2019-04-19T14:00:06Z</time>
      </trkpt>
      <trkpt lat="44.17823" lon="3.14821">
        <ele>832</ele>
        <time>2019-04-19T14:00:08Z</time>
      </trkpt>
      <trkpt lat="44.17827" lon="3.14821">
        <ele>831.9</ele>
        <time>2019-04-19T14:00:10Z</time>
      </trkpt>
      <trkpt lat="44.17832" lon="3.14822">
        <ele>831.9</ele>
        <time>2019-04-19T14:00:12Z</time>
      </trkpt>
      <trkpt lat="44.17836" lon="3.14822">
        <ele>832</ele>
        <time>2019-04-19T14:00:13Z</time>
      </trkpt>
      <trkpt lat="44.1784" lon="3.14821">
        <ele>832.1</ele>
        <time>2019-04-19T14:00:14Z</time>
      </trkpt>
      <trkpt lat="44.17844" lon="3.1482">
        <ele>832.2</ele>
        <time>2019-04-19T14:00:16Z</time>
      </trkpt>
      <trkpt lat="44.17847" lon="3.14819">
        <ele>832.5</ele>
        <time>2019-04-19T14:00:17Z</time>
      </trkpt>
      <trkpt lat="44.1785" lon="3.14819">
        <ele>832.8</ele>
        <time>2019-04-19T14:00:18Z</time>
      </trkpt>
      <trkpt lat="44.17853" lon="3.14819">
        <ele>833.1</ele>
        <time>2019-04-19T14:00:19Z</time>
      </trkpt>
      <trkpt lat="44.17856" lon="3.1482">
        <ele>833.5</ele>
        <time>2019-04-19T14:00:20Z</time>
      </trkpt>
      <trkpt lat="44.17859" lon="3.14822">
        <ele>833.9</ele>
        <time>2019-04-19T14:00:21Z</time>
      </trkpt>
      <trkpt lat="44.17862" lon="3.14823">
        <ele>834.4</ele>
        <time>2019-04-19T14:00:22Z</time>
      </trkpt>
      <trkpt lat="44.17866" lon="3.14827">
        <ele>834.8</ele>
        <time>2019-04-19T14:00:24Z</time>
      </trkpt>
      <trkpt lat="44.17871" lon="3.14829">
        <ele>835.7</ele>
        <time>2019-04-19T14:00:26Z</time>
      </trkpt>
      <trkpt lat="44.17875" lon="3.14831">
        <ele>836.2</ele>
        <time>2019-04-19T14:00:28Z</time>
      </trkpt>
      <trkpt lat="44.17877" lon="3.14833">
        <ele>836.5</ele>
        <time>2019-04-19T14:00:30Z</time>
      </trkpt>
      <trkpt lat="44.17876" lon="3.14828">
        <ele>836.6</ele>
        <time>2019-04-19T14:00:35Z</time>
      </trkpt>
      <trkpt lat="44.17876" lon="3.14823">
        <ele>836.2</ele>
        <time>2019-04-19T14:00:37Z</time>
      </trkpt>
      <trkpt lat="44.17874" lon="3.1482">
        <ele>836.2</ele>
        <time>2019-04-19T14:00:39Z</time>
      </trkpt>
      <trkpt lat="44.17871" lon="3.14816">
        <ele>835.8</ele>
        <time>2019-04-19T14:00:41Z</time>
      </trkpt>
      <trkpt lat="44.17867" lon="3.14814">
        <ele>835.4</ele>
        <time>2019-04-19T14:00:43Z</time>
      </trkpt>
      <trkpt lat="44.17862" lon="3.14812">
        <ele>834.5</ele>
        <time>2019-04-19T14:00:45Z</time>
      </trkpt>
      <trkpt lat="44.17859" lon="3.1481">
        <ele>834</ele>
        <time>2019-04-19T14:00:46Z</time>
      </trkpt>
      <trkpt lat="44.17857" lon="3.14804">
        <ele>833.6</ele>
        <time>2019-04-19T14:00:48Z</time>
      </trkpt>
      <trkpt lat="44.17858" lon="3.148">
        <ele>833.9</ele>
        <time>2019-04-19T14:00:49Z</time>
      </trkpt>
      <trkpt lat="44.1786" lon="3.14795">
        <ele>833.8</ele>
        <time>2019-04-19T14:00:50Z</time>
      </trkpt>
      <trkpt lat="44.17862" lon="3.1479">
        <ele>834</ele>
        <time>2019-04-19T14:00:51Z</time>
      </trkpt>
      <trkpt lat="44.17863" lon="3.14785">
        <ele>833.8</ele>
        <time>2019-04-19T14:00:52Z</time>
      </trkpt>
      <trkpt lat="44.17865" lon="3.1478">
        <ele>833.4</ele>
        <time>2019-04-19T14:00:53Z</time>
      </trkpt>
      <trkpt lat="44.17866" lon="3.14776">
        <ele>833.4</ele>
        <time>2019-04-19T14:00:54Z</time>
      </trkpt>
      <trkpt lat="44.1787" lon="3.14771">
        <ele>832.7</ele>
        <time>2019-04-19T14:00:56Z</time>
      </trkpt>
      <trkpt lat="44.17873" lon="3.1477">
        <ele>832.7</ele>
        <time>2019-04-19T14:00:58Z</time>
      </trkpt>
      <trkpt lat="44.17877" lon="3.14771">
        <ele>832.7</ele>
        <time>2019-04-19T14:01:00Z</time>
      </trkpt>
      <trkpt lat="44.1788" lon="3.1477">
        <ele>832.6</ele>
        <time>2019-04-19T14:01:03Z</time>
      </trkpt>
      <trkpt lat="44.17883" lon="3.14768">
        <ele>832.5</ele>
        <time>2019-04-19T14:01:05Z</time>
      </trkpt>
      <trkpt lat="44.17887" lon="3.14767">
        <ele>832.2</ele>
        <time>2019-04-19T14:01:07Z</time>
      </trkpt>
      <trkpt lat="44.1789" lon="3.14766">
        <ele>831.2</ele>
        <time>2019-04-19T14:01:09Z</time>
      </trkpt>
      <trkpt lat="44.17893" lon="3.14764">
        <ele>830.8</ele>
        <time>2019-04-19T14:01:11Z</time>
      </trkpt>
      <trkpt lat="44.17898" lon="3.14763">
        <ele>830</ele>
        <time>2019-04-19T14:01:13Z</time>
      </trkpt>
      <trkpt lat="44.17902" lon="3.14761">
        <ele>828.7</ele>
        <time>2019-04-19T14:01:15Z</time>
      </trkpt>
      <trkpt lat="44.17906" lon="3.14759">
        <ele>828.1</ele>
        <time>2019-04-19T14:01:17Z</time>
      </trkpt>
      <trkpt lat="44.17909" lon="3.14759">
        <ele>827.4</ele>
        <time>2019-04-19T14:01:18Z</time>
      </trkpt>
      <trkpt lat="44.17912" lon="3.14758">
        <ele>825.6</ele>
        <time>2019-04-19T14:01:19Z</time>
      </trkpt>
      <trkpt lat="44.17915" lon="3.14755">
        <ele>824.6</ele>
        <time>2019-04-19T14:01:21Z</time>
      </trkpt>
      <trkpt lat="44.17919" lon="3.14753">
        <ele>822.4</ele>
        <time>2019-04-19T14:01:23Z</time>
      </trkpt>
      <trkpt lat="44.17922" lon="3.14751">
        <ele>821.3</ele>
        <time>2019-04-19T14:01:24Z</time>
      </trkpt>
      <trkpt lat="44.17926" lon="3.14747">
        <ele>817.6</ele>
        <time>2019-04-19T14:01:25Z</time>
      </trkpt>
      <trkpt lat="44.17929" lon="3.14744">
        <ele>815</ele>
        <time>2019-04-19T14:01:26Z</time>
      </trkpt>
      <trkpt lat="44.17931" lon="3.14742">
        <ele>813.5</ele>
        <time>2019-04-19T14:01:27Z</time>
      </trkpt>
      <trkpt lat="44.17935" lon="3.14738">
        <ele>810.6</ele>
        <time>2019-04-19T14:01:29Z</time>
      </trkpt>
      <trkpt lat="44.17938" lon="3.14734">
        <ele>807.5</ele>
        <time>2019-04-19T14:01:31Z</time>
      </trkpt>
      <trkpt lat="44.1794" lon="3.1473">
        <ele>806</ele>
        <time>2019-04-19T14:01:35Z</time>
      </trkpt>
      <trkpt lat="44.17942" lon="3.14727">
        <ele>802.5</ele>
        <time>2019-04-19T14:01:40Z</time>
      </trkpt>
      <trkpt lat="44.17942" lon="3.14735">
        <ele>805.7</ele>
        <time>2019-04-19T14:02:44Z</time>
      </trkpt>
      <trkpt lat="44.17943" lon="3.14739">
        <ele>807.2</ele>
        <time>2019-04-19T14:02:46Z</time>
      </trkpt>
      <trkpt lat="44.17943" lon="3.14744">
        <ele>808.7</ele>
        <time>2019-04-19T14:02:48Z</time>
      </trkpt>
      <trkpt lat="44.17942" lon="3.14749">
        <ele>810</ele>
        <time>2019-04-19T14:02:50Z</time>
      </trkpt>
      <trkpt lat="44.17945" lon="3.14751">
        <ele>809.6</ele>
        <time>2019-04-19T14:02:57Z</time>
      </trkpt>
      <trkpt lat="44.17946" lon="3.14754">
        <ele>809.6</ele>
        <time>2019-04-19T14:03:00Z</time>
      </trkpt>
      <trkpt lat="44.17948" lon="3.14758">
        <ele>809.1</ele>
        <time>2019-04-19T14:03:02Z</time>
      </trkpt>
      <trkpt lat="44.1795" lon="3.14762">
        <ele>808.5</ele>
        <time>2019-04-19T14:03:04Z</time>
      </trkpt>
      <trkpt lat="44.17951" lon="3.14766">
        <ele>809.9</ele>
        <time>2019-04-19T14:03:06Z</time>
      </trkpt>
      <trkpt lat="44.17951" lon="3.1477">
        <ele>811.3</ele>
        <time>2019-04-19T14:03:08Z</time>
      </trkpt>
      <trkpt lat="44.17948" lon="3.14774">
        <ele>814.5</ele>
        <time>2019-04-19T14:03:10Z</time>
      </trkpt>
      <trkpt lat="44.17944" lon="3.14779">
        <ele>817.5</ele>
        <time>2019-04-19T14:03:12Z</time>
      </trkpt>
      <trkpt lat="44.17943" lon="3.14784">
        <ele>821.3</ele>
        <time>2019-04-19T14:03:14Z</time>
      </trkpt>
      <trkpt lat="44.17942" lon="3.14788">
        <ele>821.3</ele>
        <time>2019-04-19T14:03:16Z</time>
      </trkpt>
      <trkpt lat="44.17941" lon="3.14793">
        <ele>823.1</ele>
        <time>2019-04-19T14:03:19Z</time>
      </trkpt>
      <trkpt lat="44.17941" lon="3.14797">
        <ele>823.1</ele>
        <time>2019-04-19T14:03:21Z</time>
      </trkpt>
      <trkpt lat="44.17943" lon="3.14803">
        <ele>824.8</ele>
        <time>2019-04-19T14:03:23Z</time>
      </trkpt>
      <trkpt lat="44.17945" lon="3.14807">
        <ele>824.2</ele>
        <time>2019-04-19T14:03:25Z</time>
      </trkpt>
      <trkpt lat="44.17948" lon="3.14811">
        <ele>823.5</ele>
        <time>2019-04-19T14:03:27Z</time>
      </trkpt>
      <trkpt lat="44.1795" lon="3.14814">
        <ele>822.7</ele>
        <time>2019-04-19T14:03:29Z</time>
      </trkpt>
      <trkpt lat="44.17953" lon="3.1482">
        <ele>821.9</ele>
        <time>2019-04-19T14:03:31Z</time>
      </trkpt>
      <trkpt lat="44.17954" lon="3.14826">
        <ele>822.6</ele>
        <time>2019-04-19T14:03:33Z</time>
      </trkpt>
      <trkpt lat="44.17953" lon="3.14832">
        <ele>823.7</ele>
        <time>2019-04-19T14:03:35Z</time>
      </trkpt>
      <trkpt lat="44.17952" lon="3.14836">
        <ele>825.7</ele>
        <time>2019-04-19T14:03:37Z</time>
      </trkpt>
      <trkpt lat="44.17949" lon="3.14839">
        <ele>827.1</ele>
        <time>2019-04-19T14:03:40Z</time>
      </trkpt>
      <trkpt lat="44.17945" lon="3.14842">
        <ele>828.9</ele>
        <time>2019-04-19T14:03:42Z</time>
      </trkpt>
      <trkpt lat="44.17944" lon="3.14846">
        <ele>829.2</ele>
        <time>2019-04-19T14:03:44Z</time>
      </trkpt>
      <trkpt lat="44.17944" lon="3.14851">
        <ele>829.5</ele>
        <time>2019-04-19T14:03:46Z</time>
      </trkpt>
      <trkpt lat="44.17945" lon="3.14858">
        <ele>829.9</ele>
        <time>2019-04-19T14:03:48Z</time>
      </trkpt>
      <trkpt lat="44.17946" lon="3.14863">
        <ele>830</ele>
        <time>2019-04-19T14:03:50Z</time>
      </trkpt>
      <trkpt lat="44.17948" lon="3.14866">
        <ele>828.9</ele>
        <time>2019-04-19T14:03:52Z</time>
      </trkpt>
      <trkpt lat="44.17952" lon="3.14867">
        <ele>827.6</ele>
        <time>2019-04-19T14:03:54Z</time>
      </trkpt>
      <trkpt lat="44.17955" lon="3.14871">
        <ele>826.5</ele>
        <time>2019-04-19T14:03:56Z</time>
      </trkpt>
      <trkpt lat="44.17958" lon="3.14878">
        <ele>825.3</ele>
        <time>2019-04-19T14:03:58Z</time>
      </trkpt>
      <trkpt lat="44.17959" lon="3.14882">
        <ele>825.3</ele>
        <time>2019-04-19T14:03:59Z</time>
      </trkpt>
      <trkpt lat="44.1796" lon="3.14886">
        <ele>824.2</ele>
        <time>2019-04-19T14:04:00Z</time>
      </trkpt>
      <trkpt lat="44.17961" lon="3.14891">
        <ele>824.1</ele>
        <time>2019-04-19T14:04:01Z</time>
      </trkpt>
      <trkpt lat="44.17963" lon="3.14894">
        <ele>822.9</ele>
        <time>2019-04-19T14:04:02Z</time>
      </trkpt>
      <trkpt lat="44.17963" lon="3.14899">
        <ele>822.8</ele>
        <time>2019-04-19T14:04:04Z</time>
      </trkpt>
      <trkpt lat="44.17964" lon="3.14903">
        <ele>822.7</ele>
        <time>2019-04-19T14:04:07Z</time>
      </trkpt>
      <trkpt lat="44.17967" lon="3.14905">
        <ele>821.3</ele>
        <time>2019-04-19T14:04:11Z</time>
      </trkpt>
      <trkpt lat="44.17968" lon="3.14909">
        <ele>821.3</ele>
        <time>2019-04-19T14:04:18Z</time>
      </trkpt>
      <trkpt lat="44.17969" lon="3.14905">
        <ele>819.8</ele>
        <time>2019-04-19T14:04:25Z</time>
      </trkpt>
      <trkpt lat="44.17973" lon="3.14907">
        <ele>818.2</ele>
        <time>2019-04-19T14:04:29Z</time>
      </trkpt>
      <trkpt lat="44.17975" lon="3.14909">
        <ele>816.4</ele>
        <time>2019-04-19T14:04:31Z</time>
      </trkpt>
      <trkpt lat="44.17978" lon="3.14911">
        <ele>814.7</ele>
        <time>2019-04-19T14:04:33Z</time>
      </trkpt>
      <trkpt lat="44.17983" lon="3.14916">
        <ele>813.1</ele>
        <time>2019-04-19T14:05:36Z</time>
      </trkpt>
      <trkpt lat="44.17988" lon="3.14915">
        <ele>810.2</ele>
        <time>2019-04-19T14:05:39Z</time>
      </trkpt>
      <trkpt lat="44.17992" lon="3.14914">
        <ele>808.6</ele>
        <time>2019-04-19T14:05:41Z</time>
      </trkpt>
      <trkpt lat="44.17996" lon="3.14916">
        <ele>806.9</ele>
        <time>2019-04-19T14:05:43Z</time>
      </trkpt>
      <trkpt lat="44.17995" lon="3.14921">
        <ele>807</ele>
        <time>2019-04-19T14:05:46Z</time>
      </trkpt>
      <trkpt lat="44.17993" lon="3.14928">
        <ele>807.1</ele>
        <time>2019-04-19T14:05:48Z</time>
      </trkpt>
      <trkpt lat="44.17992" lon="3.14934">
        <ele>808.7</ele>
        <time>2019-04-19T14:05:49Z</time>
      </trkpt>
      <trkpt lat="44.17991" lon="3.14937">
        <ele>808.6</ele>
        <time>2019-04-19T14:05:50Z</time>
      </trkpt>
      <trkpt lat="44.17988" lon="3.14943">
        <ele>809.7</ele>
        <time>2019-04-19T14:05:52Z</time>
      </trkpt>
      <trkpt lat="44.17986" lon="3.14948">
        <ele>810.8</ele>
        <time>2019-04-19T14:05:54Z</time>
      </trkpt>
      <trkpt lat="44.17985" lon="3.14955">
        <ele>810.6</ele>
        <time>2019-04-19T14:05:56Z</time>
      </trkpt>
      <trkpt lat="44.17983" lon="3.1496">
        <ele>811.6</ele>
        <time>2019-04-19T14:05:58Z</time>
      </trkpt>
      <trkpt lat="44.17981" lon="3.14963">
        <ele>811.3</ele>
        <time>2019-04-19T14:06:00Z</time>
      </trkpt>
      <trkpt lat="44.17979" lon="3.14966">
        <ele>812.3</ele>
        <time>2019-04-19T14:06:01Z</time>
      </trkpt>
      <trkpt lat="44.17976" lon="3.14971">
        <ele>813.4</ele>
        <time>2019-04-19T14:06:02Z</time>
      </trkpt>
      <trkpt lat="44.17974" lon="3.14976">
        <ele>814.5</ele>
        <time>2019-04-19T14:06:03Z</time>
      </trkpt>
      <trkpt lat="44.17971" lon="3.14982">
        <ele>815.3</ele>
        <time>2019-04-19T14:06:04Z</time>
      </trkpt>
      <trkpt lat="44.17969" lon="3.14988">
        <ele>815</ele>
        <time>2019-04-19T14:06:05Z</time>
      </trkpt>
      <trkpt lat="44.17968" lon="3.14995">
        <ele>815.7</ele>
        <time>2019-04-19T14:06:06Z</time>
      </trkpt>
      <trkpt lat="44.17968" lon="3.15002">
        <ele>815.4</ele>
        <time>2019-04-19T14:06:07Z</time>
      </trkpt>
      <trkpt lat="44.17969" lon="3.15009">
        <ele>813.6</ele>
        <time>2019-04-19T14:06:08Z</time>
      </trkpt>
      <trkpt lat="44.1797" lon="3.15016">
        <ele>813</ele>
        <time>2019-04-19T14:06:09Z</time>
      </trkpt>
      <trkpt lat="44.17971" lon="3.15024">
        <ele>812.6</ele>
        <time>2019-04-19T14:06:10Z</time>
      </trkpt>
      <trkpt lat="44.17971" lon="3.15029">
        <ele>810.5</ele>
        <time>2019-04-19T14:06:11Z</time>
      </trkpt>
      <trkpt lat="44.17972" lon="3.15035">
        <ele>810</ele>
        <time>2019-04-19T14:06:13Z</time>
      </trkpt>
      <trkpt lat="44.1797" lon="3.15038">
        <ele>811</ele>
        <time>2019-04-19T14:06:14Z</time>
      </trkpt>
      <trkpt lat="44.17967" lon="3.15041">
        <ele>812.2</ele>
        <time>2019-04-19T14:06:16Z</time>
      </trkpt>
      <trkpt lat="44.17962" lon="3.15047">
        <ele>812.6</ele>
        <time>2019-04-19T14:06:18Z</time>
      </trkpt>
      <trkpt lat="44.17958" lon="3.15052">
        <ele>814.3</ele>
        <time>2019-04-19T14:06:19Z</time>
      </trkpt>
      <trkpt lat="44.17954" lon="3.15058">
        <ele>815.1</ele>
        <time>2019-04-19T14:06:20Z</time>
      </trkpt>
      <trkpt lat="44.1795" lon="3.15064">
        <ele>815.8</ele>
        <time>2019-04-19T14:06:21Z</time>
      </trkpt>
      <trkpt lat="44.17947" lon="3.1507">
        <ele>816.7</ele>
        <time>2019-04-19T14:06:22Z</time>
      </trkpt>
      <trkpt lat="44.17944" lon="3.15076">
        <ele>817.6</ele>
        <time>2019-04-19T14:06:23Z</time>
      </trkpt>
      <trkpt lat="44.17941" lon="3.15083">
        <ele>818.3</ele>
        <time>2019-04-19T14:06:24Z</time>
      </trkpt>
      <trkpt lat="44.17941" lon="3.15116">
        <ele>817.4</ele>
        <time>2019-04-19T14:06:26Z</time>
      </trkpt>
      <trkpt lat="44.17945" lon="3.15124">
        <ele>816.3</ele>
        <time>2019-04-19T14:06:27Z</time>
      </trkpt>
      <trkpt lat="44.17948" lon="3.15128">
        <ele>815.3</ele>
        <time>2019-04-19T14:06:28Z</time>
      </trkpt>
      <trkpt lat="44.17956" lon="3.15134">
        <ele>813.2</ele>
        <time>2019-04-19T14:06:30Z</time>
      </trkpt>
      <trkpt lat="44.17958" lon="3.15137">
        <ele>812.1</ele>
        <time>2019-04-19T14:06:31Z</time>
      </trkpt>
      <trkpt lat="44.17962" lon="3.15143">
        <ele>810</ele>
        <time>2019-04-19T14:06:33Z</time>
      </trkpt>
      <trkpt lat="44.17959" lon="3.15145">
        <ele>810.9</ele>
        <time>2019-04-19T14:06:34Z</time>
      </trkpt>
      <trkpt lat="44.17959" lon="3.15153">
        <ele>810.9</ele>
        <time>2019-04-19T14:06:36Z</time>
      </trkpt>
      <trkpt lat="44.17959" lon="3.15158">
        <ele>810.7</ele>
        <time>2019-04-19T14:06:37Z</time>
      </trkpt>
      <trkpt lat="44.17961" lon="3.15163">
        <ele>810.7</ele>
        <time>2019-04-19T14:06:38Z</time>
      </trkpt>
      <trkpt lat="44.17963" lon="3.15169">
        <ele>809.6</ele>
        <time>2019-04-19T14:06:39Z</time>
      </trkpt>
      <trkpt lat="44.17965" lon="3.15174">
        <ele>809.6</ele>
        <time>2019-04-19T14:06:40Z</time>
      </trkpt>
      <trkpt lat="44.17966" lon="3.15179">
        <ele>808.6</ele>
        <time>2019-04-19T14:06:41Z</time>
      </trkpt>
      <trkpt lat="44.17966" lon="3.15184">
        <ele>808.7</ele>
        <time>2019-04-19T14:06:42Z</time>
      </trkpt>
      <trkpt lat="44.17966" lon="3.15191">
        <ele>808.7</ele>
        <time>2019-04-19T14:06:43Z</time>
      </trkpt>
      <trkpt lat="44.17966" lon="3.15197">
        <ele>808.8</ele>
        <time>2019-04-19T14:06:44Z</time>
      </trkpt>
      <trkpt lat="44.17966" lon="3.15202">
        <ele>808.8</ele>
        <time>2019-04-19T14:06:45Z</time>
      </trkpt>
      <trkpt lat="44.17967" lon="3.15209">
        <ele>808.9</ele>
        <time>2019-04-19T14:06:46Z</time>
      </trkpt>
      <trkpt lat="44.17967" lon="3.15214">
        <ele>808.9</ele>
        <time>2019-04-19T14:06:47Z</time>
      </trkpt>
      <trkpt lat="44.17968" lon="3.15219">
        <ele>807.9</ele>
        <time>2019-04-19T14:06:48Z</time>
      </trkpt>
      <trkpt lat="44.1797" lon="3.15224">
        <ele>807.9</ele>
        <time>2019-04-19T14:06:49Z</time>
      </trkpt>
      <trkpt lat="44.17972" lon="3.15229">
        <ele>806.9</ele>
        <time>2019-04-19T14:06:50Z</time>
      </trkpt>
      <trkpt lat="44.17973" lon="3.15234">
        <ele>806.9</ele>
        <time>2019-04-19T14:06:51Z</time>
      </trkpt>
      <trkpt lat="44.17974" lon="3.15239">
        <ele>806.9</ele>
        <time>2019-04-19T14:06:52Z</time>
      </trkpt>
      <trkpt lat="44.17975" lon="3.15243">
        <ele>805.8</ele>
        <time>2019-04-19T14:06:53Z</time>
      </trkpt>
      <trkpt lat="44.17978" lon="3.15249">
        <ele>804.8</ele>
        <time>2019-04-19T14:06:55Z</time>
      </trkpt>
      <trkpt lat="44.17979" lon="3.15252">
        <ele>804.8</ele>
        <time>2019-04-19T14:06:56Z</time>
      </trkpt>
      <trkpt lat="44.17981" lon="3.15258">
        <ele>804</ele>
        <time>2019-04-19T14:06:58Z</time>
      </trkpt>
      <trkpt lat="44.17983" lon="3.15262">
        <ele>804</ele>
        <time>2019-04-19T14:06:59Z</time>
      </trkpt>
      <trkpt lat="44.17984" lon="3.15266">
        <ele>803.4</ele>
        <time>2019-04-19T14:07:00Z</time>
      </trkpt>
      <trkpt lat="44.17986" lon="3.1527">
        <ele>802.7</ele>
        <time>2019-04-19T14:07:01Z</time>
      </trkpt>
      <trkpt lat="44.17988" lon="3.15273">
        <ele>802.1</ele>
        <time>2019-04-19T14:07:02Z</time>
      </trkpt>
      <trkpt lat="44.1799" lon="3.15276">
        <ele>801.6</ele>
        <time>2019-04-19T14:07:03Z</time>
      </trkpt>
      <trkpt lat="44.17992" lon="3.1528">
        <ele>801.1</ele>
        <time>2019-04-19T14:07:04Z</time>
      </trkpt>
      <trkpt lat="44.17995" lon="3.15284">
        <ele>800.5</ele>
        <time>2019-04-19T14:07:05Z</time>
      </trkpt>
      <trkpt lat="44.17998" lon="3.15289">
        <ele>799.9</ele>
        <time>2019-04-19T14:07:06Z</time>
      </trkpt>
      <trkpt lat="44.18001" lon="3.15294">
        <ele>799.3</ele>
        <time>2019-04-19T14:07:07Z</time>
      </trkpt>
      <trkpt lat="44.18004" lon="3.15299">
        <ele>798.7</ele>
        <time>2019-04-19T14:07:08Z</time>
      </trkpt>
      <trkpt lat="44.18007" lon="3.15303">
        <ele>798.1</ele>
        <time>2019-04-19T14:07:09Z</time>
      </trkpt>
      <trkpt lat="44.18011" lon="3.15306">
        <ele>797.6</ele>
        <time>2019-04-19T14:07:11Z</time>
      </trkpt>
      <trkpt lat="44.18014" lon="3.15307">
        <ele>797.3</ele>
        <time>2019-04-19T14:07:14Z</time>
      </trkpt>
      <trkpt lat="44.18011" lon="3.15309">
        <ele>797.1</ele>
        <time>2019-04-19T14:07:22Z</time>
      </trkpt>
      <trkpt lat="44.1801" lon="3.15313">
        <ele>796.8</ele>
        <time>2019-04-19T14:07:26Z</time>
      </trkpt>
      <trkpt lat="44.18011" lon="3.15316">
        <ele>796.6</ele>
        <time>2019-04-19T14:07:29Z</time>
      </trkpt>
      <trkpt lat="44.18015" lon="3.15322">
        <ele>796</ele>
        <time>2019-04-19T14:07:36Z</time>
      </trkpt>
      <trkpt lat="44.18018" lon="3.15326">
        <ele>795.6</ele>
        <time>2019-04-19T14:07:37Z</time>
      </trkpt>
      <trkpt lat="44.18022" lon="3.1533">
        <ele>795.1</ele>
        <time>2019-04-19T14:07:38Z</time>
      </trkpt>
      <trkpt lat="44.18028" lon="3.15341">
        <ele>794.7</ele>
        <time>2019-04-19T14:07:39Z</time>
      </trkpt>
      <trkpt lat="44.18033" lon="3.15347">
        <ele>795</ele>
        <time>2019-04-19T14:07:40Z</time>
      </trkpt>
      <trkpt lat="44.18038" lon="3.15354">
        <ele>795.5</ele>
        <time>2019-04-19T14:07:41Z</time>
      </trkpt>
      <trkpt lat="44.18042" lon="3.15358">
        <ele>796</ele>
        <time>2019-04-19T14:07:42Z</time>
      </trkpt>
      <trkpt lat="44.18044" lon="3.15356">
        <ele>794.9</ele>
        <time>2021-09-30T14:12:43Z</time>
      </trkpt>
      <trkpt lat="44.18049" lon="3.15363">
        <ele>793.8</ele>
        <time>2021-09-30T14:12:44Z</time>
      </trkpt>
      <trkpt lat="44.18055" lon="3.15379">
        <ele>792.3</ele>
        <time>2021-09-30T14:12:46Z</time>
      </trkpt>
      <trkpt lat="44.18057" lon="3.15388">
        <ele>791.9</ele>
        <time>2021-09-30T14:12:47Z</time>
      </trkpt>
      <trkpt lat="44.18062" lon="3.15396">
        <ele>791.6</ele>
        <time>2021-09-30T14:12:49Z</time>
      </trkpt>
      <trkpt lat="44.18066" lon="3.15394">
        <ele>791.5</ele>
        <time>2021-09-30T14:12:50Z</time>
      </trkpt>
      <trkpt lat="44.18075" lon="3.15388">
        <ele>791.5</ele>
        <time>2021-09-30T14:12:52Z</time>
      </trkpt>
      <trkpt lat="44.18078" lon="3.15381">
        <ele>791.6</ele>
        <time>2021-09-30T14:12:54Z</time>
      </trkpt>
      <trkpt lat="44.1808" lon="3.15378">
        <ele>791.7</ele>
        <time>2021-09-30T14:12:55Z</time>
      </trkpt>
      <trkpt lat="44.18083" lon="3.15375">
        <ele>791.7</ele>
        <time>2021-09-30T14:12:56Z</time>
      </trkpt>
      <trkpt lat="44.18088" lon="3.15368">
        <ele>791.8</ele>
        <time>2021-09-30T14:12:58Z</time>
      </trkpt>
      <trkpt lat="44.18092" lon="3.15365">
        <ele>791.7</ele>
        <time>2021-09-30T14:13:00Z</time>
      </trkpt>
      <trkpt lat="44.18094" lon="3.15364">
        <ele>791.7</ele>
        <time>2021-09-30T14:13:01Z</time>
      </trkpt>
      <trkpt lat="44.18095" lon="3.15365">
        <ele>792.1</ele>
        <time>2021-09-30T14:13:02Z</time>
      </trkpt>
      <trkpt lat="44.18096" lon="3.15372">
        <ele>792.5</ele>
        <time>2021-09-30T14:13:04Z</time>
      </trkpt>
      <trkpt lat="44.18095" lon="3.15375">
        <ele>792.9</ele>
        <time>2021-09-30T14:13:05Z</time>
      </trkpt>
      <trkpt lat="44.18093" lon="3.15382">
        <ele>793.1</ele>
        <time>2021-09-30T14:13:07Z</time>
      </trkpt>
      <trkpt lat="44.18093" lon="3.15386">
        <ele>793.4</ele>
        <time>2021-09-30T14:13:08Z</time>
      </trkpt>
      <trkpt lat="44.18093" lon="3.15387">
        <ele>793.4</ele>
        <time>2021-09-30T14:13:09Z</time>
      </trkpt>
      <trkpt lat="44.18091" lon="3.15393">
        <ele>793.8</ele>
        <time>2021-09-30T14:13:11Z</time>
      </trkpt>
      <trkpt lat="44.18091" lon="3.15395">
        <ele>793.6</ele>
        <time>2021-09-30T14:13:12Z</time>
      </trkpt>
      <trkpt lat="44.18088" lon="3.15401">
        <ele>793.9</ele>
        <time>2021-09-30T14:13:14Z</time>
      </trkpt>
      <trkpt lat="44.18087" lon="3.15404">
        <ele>793.8</ele>
        <time>2021-09-30T14:13:15Z</time>
      </trkpt>
      <trkpt lat="44.18085" lon="3.1541">
        <ele>793.6</ele>
        <time>2021-09-30T14:13:17Z</time>
      </trkpt>
      <trkpt lat="44.18083" lon="3.15413">
        <ele>793.9</ele>
        <time>2021-09-30T14:13:18Z</time>
      </trkpt>
      <trkpt lat="44.18081" lon="3.15419">
        <ele>793.7</ele>
        <time>2021-09-30T14:13:20Z</time>
      </trkpt>
      <trkpt lat="44.18079" lon="3.1542">
        <ele>794</ele>
        <time>2021-09-30T14:13:21Z</time>
      </trkpt>
      <trkpt lat="44.18076" lon="3.15426">
        <ele>793.6</ele>
        <time>2021-09-30T14:13:23Z</time>
      </trkpt>
      <trkpt lat="44.18072" lon="3.15431">
        <ele>793.7</ele>
        <time>2021-09-30T14:13:25Z</time>
      </trkpt>
      <trkpt lat="44.18069" lon="3.15434">
        <ele>793.8</ele>
        <time>2021-09-30T14:13:27Z</time>
      </trkpt>
      <trkpt lat="44.18066" lon="3.15436">
        <ele>793.6</ele>
        <time>2021-09-30T14:13:28Z</time>
      </trkpt>
      <trkpt lat="44.18063" lon="3.15439">
        <ele>793.9</ele>
        <time>2021-09-30T14:13:30Z</time>
      </trkpt>
      <trkpt lat="44.18061" lon="3.15443">
        <ele>794.3</ele>
        <time>2021-09-30T14:13:31Z</time>
      </trkpt>
      <trkpt lat="44.18061" lon="3.15445">
        <ele>794.3</ele>
        <time>2021-09-30T14:13:32Z</time>
      </trkpt>
      <trkpt lat="44.18064" lon="3.15448">
        <ele>794.8</ele>
        <time>2021-09-30T14:13:34Z</time>
      </trkpt>
      <trkpt lat="44.18067" lon="3.15448">
        <ele>795</ele>
        <time>2021-09-30T14:13:35Z</time>
      </trkpt>
      <trkpt lat="44.18072" lon="3.15446">
        <ele>795.3</ele>
        <time>2021-09-30T14:13:37Z</time>
      </trkpt>
      <trkpt lat="44.18074" lon="3.15444">
        <ele>795.1</ele>
        <time>2021-09-30T14:13:38Z</time>
      </trkpt>
      <trkpt lat="44.18078" lon="3.15442">
        <ele>795.4</ele>
        <time>2021-09-30T14:13:40Z</time>
      </trkpt>
      <trkpt lat="44.18082" lon="3.15439">
        <ele>795.4</ele>
        <time>2021-09-30T14:13:42Z</time>
      </trkpt>
      <trkpt lat="44.18085" lon="3.15438">
        <ele>796.2</ele>
        <time>2021-09-30T14:13:43Z</time>
      </trkpt>
      <trkpt lat="44.18088" lon="3.15439">
        <ele>796.6</ele>
        <time>2021-09-30T14:13:45Z</time>
      </trkpt>
      <trkpt lat="44.18092" lon="3.1544">
        <ele>797</ele>
        <time>2021-09-30T14:13:46Z</time>
      </trkpt>
      <trkpt lat="44.18094" lon="3.1544">
        <ele>797.1</ele>
        <time>2021-09-30T14:13:47Z</time>
      </trkpt>
      <trkpt lat="44.18095" lon="3.1544">
        <ele>797.5</ele>
        <time>2021-09-30T14:13:49Z</time>
      </trkpt>
      <trkpt lat="44.18099" lon="3.1544">
        <ele>797.9</ele>
        <time>2021-09-30T14:13:51Z</time>
      </trkpt>
      <trkpt lat="44.18101" lon="3.15441">
        <ele>798.6</ele>
        <time>2021-09-30T14:13:53Z</time>
      </trkpt>
      <trkpt lat="44.18102" lon="3.15441">
        <ele>798.6</ele>
        <time>2021-09-30T14:13:54Z</time>
      </trkpt>
      <trkpt lat="44.18103" lon="3.15442">
        <ele>798.7</ele>
        <time>2021-09-30T14:13:55Z</time>
      </trkpt>
      <trkpt lat="44.18106" lon="3.15444">
        <ele>799.1</ele>
        <time>2021-09-30T14:13:57Z</time>
      </trkpt>
      <trkpt lat="44.18107" lon="3.15444">
        <ele>799.6</ele>
        <time>2021-09-30T14:13:58Z</time>
      </trkpt>
      <trkpt lat="44.1811" lon="3.15445">
        <ele>799.6</ele>
        <time>2021-09-30T14:13:59Z</time>
      </trkpt>
      <trkpt lat="44.18113" lon="3.15445">
        <ele>800.5</ele>
        <time>2021-09-30T14:14:01Z</time>
      </trkpt>
      <trkpt lat="44.18117" lon="3.15444">
        <ele>801</ele>
        <time>2021-09-30T14:14:02Z</time>
      </trkpt>
      <trkpt lat="44.18118" lon="3.15443">
        <ele>801</ele>
        <time>2021-09-30T14:14:03Z</time>
      </trkpt>
      <trkpt lat="44.18122" lon="3.15442">
        <ele>801.5</ele>
        <time>2021-09-30T14:14:05Z</time>
      </trkpt>
      <trkpt lat="44.18125" lon="3.15441">
        <ele>801.9</ele>
        <time>2021-09-30T14:14:06Z</time>
      </trkpt>
      <trkpt lat="44.18127" lon="3.15439">
        <ele>802.4</ele>
        <time>2021-09-30T14:14:08Z</time>
      </trkpt>
      <trkpt lat="44.18128" lon="3.15438">
        <ele>802.4</ele>
        <time>2021-09-30T14:14:09Z</time>
      </trkpt>
      <trkpt lat="44.18129" lon="3.15437">
        <ele>802.9</ele>
        <time>2021-09-30T14:14:10Z</time>
      </trkpt>
      <trkpt lat="44.1813" lon="3.15436">
        <ele>802.8</ele>
        <time>2021-09-30T14:14:11Z</time>
      </trkpt>
      <trkpt lat="44.18134" lon="3.15434">
        <ele>803.2</ele>
        <time>2021-09-30T14:14:12Z</time>
      </trkpt>
      <trkpt lat="44.18135" lon="3.15433">
        <ele>803.6</ele>
        <time>2021-09-30T14:14:13Z</time>
      </trkpt>
      <trkpt lat="44.18141" lon="3.15429">
        <ele>804.2</ele>
        <time>2021-09-30T14:14:15Z</time>
      </trkpt>
      <trkpt lat="44.18145" lon="3.15426">
        <ele>804.3</ele>
        <time>2021-09-30T14:14:16Z</time>
      </trkpt>
      <trkpt lat="44.18149" lon="3.15423">
        <ele>804.4</ele>
        <time>2021-09-30T14:14:17Z</time>
      </trkpt>
      <trkpt lat="44.18153" lon="3.1542">
        <ele>804.8</ele>
        <time>2021-09-30T14:14:19Z</time>
      </trkpt>
      <trkpt lat="44.18156" lon="3.15417">
        <ele>804.7</ele>
        <time>2021-09-30T14:14:20Z</time>
      </trkpt>
      <trkpt lat="44.18161" lon="3.15416">
        <ele>804.8</ele>
        <time>2021-09-30T14:14:22Z</time>
      </trkpt>
      <trkpt lat="44.18167" lon="3.15414">
        <ele>804.6</ele>
        <time>2021-09-30T14:14:24Z</time>
      </trkpt>
      <trkpt lat="44.18174" lon="3.15413">
        <ele>804.5</ele>
        <time>2021-09-30T14:14:26Z</time>
      </trkpt>
      <trkpt lat="44.1818" lon="3.15414">
        <ele>804.2</ele>
        <time>2021-09-30T14:14:28Z</time>
      </trkpt>
      <trkpt lat="44.18183" lon="3.15412">
        <ele>804</ele>
        <time>2021-09-30T14:14:29Z</time>
      </trkpt>
      <trkpt lat="44.18188" lon="3.15409">
        <ele>803.2</ele>
        <time>2021-09-30T14:14:31Z</time>
      </trkpt>
      <trkpt lat="44.1819" lon="3.15406">
        <ele>802.4</ele>
        <time>2021-09-30T14:14:32Z</time>
      </trkpt>
      <trkpt lat="44.18193" lon="3.15402">
        <ele>801.8</ele>
        <time>2021-09-30T14:14:34Z</time>
      </trkpt>
      <trkpt lat="44.18196" lon="3.15402">
        <ele>801.4</ele>
        <time>2021-09-30T14:14:35Z</time>
      </trkpt>
      <trkpt lat="44.18199" lon="3.15405">
        <ele>801.1</ele>
        <time>2021-09-30T14:14:37Z</time>
      </trkpt>
      <trkpt lat="44.18201" lon="3.15407">
        <ele>800.7</ele>
        <time>2021-09-30T14:14:38Z</time>
      </trkpt>
      <trkpt lat="44.18201" lon="3.15406">
        <ele>800.4</ele>
        <time>2021-09-30T14:14:40Z</time>
      </trkpt>
      <trkpt lat="44.18202" lon="3.15407">
        <ele>800.8</ele>
        <time>2021-09-30T14:14:42Z</time>
      </trkpt>
      <trkpt lat="44.18203" lon="3.15407">
        <ele>800.1</ele>
        <time>2021-09-30T14:14:47Z</time>
      </trkpt>
      <trkpt lat="44.18207" lon="3.15409">
        <ele>799.3</ele>
        <time>2021-09-30T14:15:45Z</time>
      </trkpt>
      <trkpt lat="44.18209" lon="3.15415">
        <ele>798.9</ele>
        <time>2021-09-30T14:15:47Z</time>
      </trkpt>
      <trkpt lat="44.1821" lon="3.15419">
        <ele>799.3</ele>
        <time>2021-09-30T14:15:48Z</time>
      </trkpt>
      <trkpt lat="44.18211" lon="3.15427">
        <ele>799.9</ele>
        <time>2021-09-30T14:15:50Z</time>
      </trkpt>
      <trkpt lat="44.18212" lon="3.15429">
        <ele>799.3</ele>
        <time>2021-09-30T14:15:51Z</time>
      </trkpt>
      <trkpt lat="44.18214" lon="3.15432">
        <ele>799.6</ele>
        <time>2021-09-30T14:15:53Z</time>
      </trkpt>
      <trkpt lat="44.18215" lon="3.15438">
        <ele>798.9</ele>
        <time>2021-09-30T14:15:54Z</time>
      </trkpt>
      <trkpt lat="44.18216" lon="3.15443">
        <ele>799.2</ele>
        <time>2021-09-30T14:15:55Z</time>
      </trkpt>
      <trkpt lat="44.18217" lon="3.15448">
        <ele>799.5</ele>
        <time>2021-09-30T14:15:56Z</time>
      </trkpt>
      <trkpt lat="44.18218" lon="3.15456">
        <ele>798.9</ele>
        <time>2021-09-30T14:15:57Z</time>
      </trkpt>
      <trkpt lat="44.1822" lon="3.1546">
        <ele>799.1</ele>
        <time>2021-09-30T14:15:59Z</time>
      </trkpt>
      <trkpt lat="44.18222" lon="3.15465">
        <ele>797.4</ele>
        <time>2021-09-30T14:16:00Z</time>
      </trkpt>
      <trkpt lat="44.18226" lon="3.15468">
        <ele>796.3</ele>
        <time>2021-09-30T14:16:02Z</time>
      </trkpt>
      <trkpt lat="44.1823" lon="3.15471">
        <ele>794.1</ele>
        <time>2021-09-30T14:16:03Z</time>
      </trkpt>
      <trkpt lat="44.18232" lon="3.15474">
        <ele>794.2</ele>
        <time>2021-09-30T14:16:05Z</time>
      </trkpt>
      <trkpt lat="44.18238" lon="3.15478">
        <ele>791.8</ele>
        <time>2021-09-30T14:16:07Z</time>
      </trkpt>
      <trkpt lat="44.1824" lon="3.15482">
        <ele>790.5</ele>
        <time>2021-09-30T14:16:08Z</time>
      </trkpt>
      <trkpt lat="44.18241" lon="3.15486">
        <ele>790.7</ele>
        <time>2021-09-30T14:16:09Z</time>
      </trkpt>
      <trkpt lat="44.18241" lon="3.15487">
        <ele>790.7</ele>
        <time>2021-09-30T14:16:10Z</time>
      </trkpt>
      <trkpt lat="44.18241" lon="3.15494">
        <ele>791.1</ele>
        <time>2021-09-30T14:16:12Z</time>
      </trkpt>
      <trkpt lat="44.1824" lon="3.15498">
        <ele>791.3</ele>
        <time>2021-09-30T14:16:14Z</time>
      </trkpt>
      <trkpt lat="44.18238" lon="3.15502">
        <ele>792.9</ele>
        <time>2021-09-30T14:16:15Z</time>
      </trkpt>
      <trkpt lat="44.18238" lon="3.15504">
        <ele>793</ele>
        <time>2021-09-30T14:16:17Z</time>
      </trkpt>
      <trkpt lat="44.18238" lon="3.15505">
        <ele>793.1</ele>
        <time>2021-09-30T14:16:18Z</time>
      </trkpt>
      <trkpt lat="44.18238" lon="3.15507">
        <ele>793.1</ele>
        <time>2021-09-30T14:16:19Z</time>
      </trkpt>
      <trkpt lat="44.18238" lon="3.15508">
        <ele>793.1</ele>
        <time>2021-09-30T14:16:21Z</time>
      </trkpt>
      <trkpt lat="44.18239" lon="3.15509">
        <ele>793.2</ele>
        <time>2021-09-30T14:16:22Z</time>
      </trkpt>
      <trkpt lat="44.18239" lon="3.1551">
        <ele>791.9</ele>
        <time>2021-09-30T14:16:24Z</time>
      </trkpt>
      <trkpt lat="44.18239" lon="3.15512">
        <ele>791.9</ele>
        <time>2021-09-30T14:16:26Z</time>
      </trkpt>
      <trkpt lat="44.18239" lon="3.15513">
        <ele>791.9</ele>
        <time>2021-09-30T14:16:43Z</time>
      </trkpt>
      <trkpt lat="44.1824" lon="3.15514">
        <ele>792</ele>
        <time>2021-09-30T14:16:44Z</time>
      </trkpt>
      <trkpt lat="44.1824" lon="3.15515">
        <ele>792</ele>
        <time>2021-09-30T14:16:46Z</time>
      </trkpt>
      <trkpt lat="44.1824" lon="3.15517">
        <ele>792.1</ele>
        <time>2021-09-30T14:16:47Z</time>
      </trkpt>
      <trkpt lat="44.1824" lon="3.15518">
        <ele>792.1</ele>
        <time>2021-09-30T14:16:48Z</time>
      </trkpt>
      <trkpt lat="44.18242" lon="3.15521">
        <ele>790.7</ele>
        <time>2021-09-30T14:16:50Z</time>
      </trkpt>
      <trkpt lat="44.18244" lon="3.15525">
        <ele>790.8</ele>
        <time>2021-09-30T14:16:51Z</time>
      </trkpt>
      <trkpt lat="44.18247" lon="3.15532">
        <ele>789.5</ele>
        <time>2021-09-30T14:16:52Z</time>
      </trkpt>
      <trkpt lat="44.18252" lon="3.15541">
        <ele>786.6</ele>
        <time>2021-09-30T14:16:54Z</time>
      </trkpt>
      <trkpt lat="44.18256" lon="3.15548">
        <ele>785.2</ele>
        <time>2021-09-30T14:16:55Z</time>
      </trkpt>
      <trkpt lat="44.18258" lon="3.15554">
        <ele>784.2</ele>
        <time>2021-09-30T14:16:57Z</time>
      </trkpt>
      <trkpt lat="44.1826" lon="3.15565">
        <ele>784.8</ele>
        <time>2021-09-30T14:16:58Z</time>
      </trkpt>
      <trkpt lat="44.18262" lon="3.15574">
        <ele>784.5</ele>
        <time>2021-09-30T14:17:00Z</time>
      </trkpt>
      <trkpt lat="44.18262" lon="3.15584">
        <ele>785.4</ele>
        <time>2021-09-30T14:17:01Z</time>
      </trkpt>
      <trkpt lat="44.18264" lon="3.15593">
        <ele>784.9</ele>
        <time>2021-09-30T14:17:03Z</time>
      </trkpt>
      <trkpt lat="44.18266" lon="3.15599">
        <ele>785.4</ele>
        <time>2021-09-30T14:17:04Z</time>
      </trkpt>
      <trkpt lat="44.18268" lon="3.15604">
        <ele>785</ele>
        <time>2021-09-30T14:17:05Z</time>
      </trkpt>
      <trkpt lat="44.18278" lon="3.15615">
        <ele>781.5</ele>
        <time>2021-09-30T14:17:07Z</time>
      </trkpt>
      <trkpt lat="44.18281" lon="3.15618">
        <ele>780.5</ele>
        <time>2021-09-30T14:17:08Z</time>
      </trkpt>
      <trkpt lat="44.18288" lon="3.15626">
        <ele>778.7</ele>
        <time>2021-09-30T14:17:10Z</time>
      </trkpt>
      <trkpt lat="44.18294" lon="3.15644">
        <ele>779</ele>
        <time>2021-09-30T14:17:12Z</time>
      </trkpt>
      <trkpt lat="44.18294" lon="3.1565">
        <ele>778.5</ele>
        <time>2021-09-30T14:17:13Z</time>
      </trkpt>
      <trkpt lat="44.18297" lon="3.15665">
        <ele>781.3</ele>
        <time>2021-09-30T14:17:15Z</time>
      </trkpt>
      <trkpt lat="44.18303" lon="3.15685">
        <ele>781.3</ele>
        <time>2021-09-30T14:17:17Z</time>
      </trkpt>
      <trkpt lat="44.18305" lon="3.15694">
        <ele>781.4</ele>
        <time>2021-09-30T14:17:18Z</time>
      </trkpt>
      <trkpt lat="44.18302" lon="3.15702">
        <ele>783.2</ele>
        <time>2021-09-30T14:17:19Z</time>
      </trkpt>
      <trkpt lat="44.18299" lon="3.1571">
        <ele>785</ele>
        <time>2021-09-30T14:17:21Z</time>
      </trkpt>
      <trkpt lat="44.1829" lon="3.15716">
        <ele>787.6</ele>
        <time>2021-09-30T14:17:22Z</time>
      </trkpt>
      <trkpt lat="44.18285" lon="3.15722">
        <ele>788.4</ele>
        <time>2021-09-30T14:17:23Z</time>
      </trkpt>
      <trkpt lat="44.1828" lon="3.15728">
        <ele>789.8</ele>
        <time>2021-09-30T14:17:24Z</time>
      </trkpt>
      <trkpt lat="44.18274" lon="3.15734">
        <ele>791</ele>
        <time>2021-09-30T14:17:25Z</time>
      </trkpt>
      <trkpt lat="44.18261" lon="3.15745">
        <ele>792.9</ele>
        <time>2021-09-30T14:17:27Z</time>
      </trkpt>
      <trkpt lat="44.1825" lon="3.15755">
        <ele>794.2</ele>
        <time>2021-09-30T14:17:29Z</time>
      </trkpt>
      <trkpt lat="44.18236" lon="3.15763">
        <ele>796.2</ele>
        <time>2021-09-30T14:17:31Z</time>
      </trkpt>
      <trkpt lat="44.18229" lon="3.15773">
        <ele>796.3</ele>
        <time>2021-09-30T14:17:33Z</time>
      </trkpt>
      <trkpt lat="44.18225" lon="3.15779">
        <ele>796.5</ele>
        <time>2021-09-30T14:17:34Z</time>
      </trkpt>
      <trkpt lat="44.18223" lon="3.15785">
        <ele>796.4</ele>
        <time>2021-09-30T14:17:35Z</time>
      </trkpt>
      <trkpt lat="44.18222" lon="3.15798">
        <ele>795.2</ele>
        <time>2021-09-30T14:17:37Z</time>
      </trkpt>
      <trkpt lat="44.18229" lon="3.15805">
        <ele>793.4</ele>
        <time>2021-09-30T14:17:39Z</time>
      </trkpt>
      <trkpt lat="44.18237" lon="3.15808">
        <ele>791</ele>
        <time>2021-09-30T14:17:41Z</time>
      </trkpt>
      <trkpt lat="44.1824" lon="3.15813">
        <ele>789.9</ele>
        <time>2021-09-30T14:17:42Z</time>
      </trkpt>
      <trkpt lat="44.18241" lon="3.15819">
        <ele>788.9</ele>
        <time>2021-09-30T14:17:43Z</time>
      </trkpt>
      <trkpt lat="44.18242" lon="3.15824">
        <ele>787.7</ele>
        <time>2021-09-30T14:17:44Z</time>
      </trkpt>
      <trkpt lat="44.18245" lon="3.15829">
        <ele>786.6</ele>
        <time>2021-09-30T14:17:46Z</time>
      </trkpt>
      <trkpt lat="44.18248" lon="3.15833">
        <ele>786</ele>
        <time>2021-09-30T14:17:47Z</time>
      </trkpt>
      <trkpt lat="44.18248" lon="3.15835">
        <ele>785.4</ele>
        <time>2021-09-30T14:17:48Z</time>
      </trkpt>
      <trkpt lat="44.1825" lon="3.15839">
        <ele>784.8</ele>
        <time>2021-09-30T14:17:49Z</time>
      </trkpt>
      <trkpt lat="44.18251" lon="3.15842">
        <ele>784.1</ele>
        <time>2021-09-30T14:17:50Z</time>
      </trkpt>
      <trkpt lat="44.18252" lon="3.15846">
        <ele>782.8</ele>
        <time>2021-09-30T14:17:52Z</time>
      </trkpt>
      <trkpt lat="44.18253" lon="3.15848">
        <ele>782.9</ele>
        <time>2021-09-30T14:17:53Z</time>
      </trkpt>
      <trkpt lat="44.18253" lon="3.15852">
        <ele>782.2</ele>
        <time>2021-09-30T14:17:54Z</time>
      </trkpt>
      <trkpt lat="44.18254" lon="3.15853">
        <ele>781.5</ele>
        <time>2021-09-30T14:17:55Z</time>
      </trkpt>
      <trkpt lat="44.18254" lon="3.15856">
        <ele>781.6</ele>
        <time>2021-09-30T14:17:57Z</time>
      </trkpt>
      <trkpt lat="44.18255" lon="3.15859">
        <ele>780.2</ele>
        <time>2021-09-30T14:17:59Z</time>
      </trkpt>
      <trkpt lat="44.18256" lon="3.15861">
        <ele>780.3</ele>
        <time>2021-09-30T14:18:00Z</time>
      </trkpt>
      <trkpt lat="44.18257" lon="3.15863">
        <ele>779.6</ele>
        <time>2021-09-30T14:18:01Z</time>
      </trkpt>
      <trkpt lat="44.18257" lon="3.15865">
        <ele>779.6</ele>
        <time>2021-09-30T14:18:02Z</time>
      </trkpt>
      <trkpt lat="44.18256" lon="3.15866">
        <ele>779.7</ele>
        <time>2021-09-30T14:18:05Z</time>
      </trkpt>
      <trkpt lat="44.18256" lon="3.15872">
        <ele>778.5</ele>
        <time>2021-09-30T14:18:28Z</time>
      </trkpt>
      <trkpt lat="44.18257" lon="3.15874">
        <ele>777.9</ele>
        <time>2021-09-30T14:18:30Z</time>
      </trkpt>
      <trkpt lat="44.18257" lon="3.15875">
        <ele>778</ele>
        <time>2021-09-30T14:18:31Z</time>
      </trkpt>
      <trkpt lat="44.18257" lon="3.15876">
        <ele>778</ele>
        <time>2021-09-30T14:18:33Z</time>
      </trkpt>
      <trkpt lat="44.18257" lon="3.15877">
        <ele>778</ele>
        <time>2021-09-30T14:18:34Z</time>
      </trkpt>
      <trkpt lat="44.18258" lon="3.15878">
        <ele>777.3</ele>
        <time>2021-09-30T14:18:36Z</time>
      </trkpt>
      <trkpt lat="44.18259" lon="3.1588">
        <ele>776.8</ele>
        <time>2021-09-30T14:18:37Z</time>
      </trkpt>
      <trkpt lat="44.18261" lon="3.15885">
        <ele>775.5</ele>
        <time>2021-09-30T14:18:38Z</time>
      </trkpt>
      <trkpt lat="44.18262" lon="3.15891">
        <ele>774.2</ele>
        <time>2021-09-30T14:18:40Z</time>
      </trkpt>
      <trkpt lat="44.18262" lon="3.15898">
        <ele>773.5</ele>
        <time>2021-09-30T14:18:41Z</time>
      </trkpt>
      <trkpt lat="44.18261" lon="3.15903">
        <ele>772.8</ele>
        <time>2021-09-30T14:18:42Z</time>
      </trkpt>
      <trkpt lat="44.18259" lon="3.15908">
        <ele>772.9</ele>
        <time>2021-09-30T14:18:44Z</time>
      </trkpt>
      <trkpt lat="44.18257" lon="3.15912">
        <ele>773</ele>
        <time>2021-09-30T14:18:45Z</time>
      </trkpt>
      <trkpt lat="44.1825" lon="3.15922">
        <ele>772.9</ele>
        <time>2021-09-30T14:18:46Z</time>
      </trkpt>
      <trkpt lat="44.18248" lon="3.1593">
        <ele>773.3</ele>
        <time>2021-09-30T14:18:47Z</time>
      </trkpt>
      <trkpt lat="44.18242" lon="3.15944">
        <ele>773.3</ele>
        <time>2021-09-30T14:18:49Z</time>
      </trkpt>
      <trkpt lat="44.18238" lon="3.1595">
        <ele>773.9</ele>
        <time>2021-09-30T14:18:50Z</time>
      </trkpt>
      <trkpt lat="44.18234" lon="3.15956">
        <ele>774.1</ele>
        <time>2021-09-30T14:18:51Z</time>
      </trkpt>
      <trkpt lat="44.18229" lon="3.15969">
        <ele>775.2</ele>
        <time>2021-09-30T14:18:53Z</time>
      </trkpt>
      <trkpt lat="44.18224" lon="3.15983">
        <ele>775.3</ele>
        <time>2021-09-30T14:18:55Z</time>
      </trkpt>
      <trkpt lat="44.18223" lon="3.15991">
        <ele>775.8</ele>
        <time>2021-09-30T14:18:56Z</time>
      </trkpt>
      <trkpt lat="44.18222" lon="3.16">
        <ele>775.3</ele>
        <time>2021-09-30T14:18:57Z</time>
      </trkpt>
      <trkpt lat="44.18216" lon="3.1602">
        <ele>777.1</ele>
        <time>2021-09-30T14:18:59Z</time>
      </trkpt>
      <trkpt lat="44.18215" lon="3.16032">
        <ele>776.7</ele>
        <time>2021-09-30T14:19:00Z</time>
      </trkpt>
      <trkpt lat="44.18213" lon="3.16056">
        <ele>777.4</ele>
        <time>2021-09-30T14:19:02Z</time>
      </trkpt>
      <trkpt lat="44.18211" lon="3.1608">
        <ele>778.3</ele>
        <time>2021-09-30T14:19:04Z</time>
      </trkpt>
      <trkpt lat="44.18203" lon="3.16097">
        <ele>779.8</ele>
        <time>2021-09-30T14:19:06Z</time>
      </trkpt>
      <trkpt lat="44.18202" lon="3.16106">
        <ele>780.6</ele>
        <time>2021-09-30T14:19:07Z</time>
      </trkpt>
      <trkpt lat="44.18198" lon="3.16123">
        <ele>781.1</ele>
        <time>2021-09-30T14:19:09Z</time>
      </trkpt>
      <trkpt lat="44.18196" lon="3.16138">
        <ele>781.1</ele>
        <time>2021-09-30T14:19:11Z</time>
      </trkpt>
      <trkpt lat="44.18195" lon="3.16148">
        <ele>780.9</ele>
        <time>2021-09-30T14:19:13Z</time>
      </trkpt>
      <trkpt lat="44.18197" lon="3.16152">
        <ele>780.7</ele>
        <time>2021-09-30T14:19:15Z</time>
      </trkpt>
      <trkpt lat="44.18198" lon="3.16151">
        <ele>780.7</ele>
        <time>2021-09-30T14:19:17Z</time>
      </trkpt>
      <trkpt lat="44.182" lon="3.16156">
        <ele>780.5</ele>
        <time>2021-09-30T14:19:19Z</time>
      </trkpt>
      <trkpt lat="44.18201" lon="3.1616">
        <ele>780.4</ele>
        <time>2021-09-30T14:19:21Z</time>
      </trkpt>
      <trkpt lat="44.182" lon="3.16164">
        <ele>780.3</ele>
        <time>2021-09-30T14:19:23Z</time>
      </trkpt>
      <trkpt lat="44.182" lon="3.16168">
        <ele>780.2</ele>
        <time>2021-09-30T14:19:24Z</time>
      </trkpt>
      <trkpt lat="44.182" lon="3.16172">
        <ele>780.1</ele>
        <time>2021-09-30T14:19:25Z</time>
      </trkpt>
      <trkpt lat="44.18201" lon="3.16178">
        <ele>780</ele>
        <time>2021-09-30T14:19:27Z</time>
      </trkpt>
      <trkpt lat="44.18202" lon="3.16183">
        <ele>779.9</ele>
        <time>2021-09-30T14:19:28Z</time>
      </trkpt>
      <trkpt lat="44.18203" lon="3.16186">
        <ele>779.8</ele>
        <time>2021-09-30T14:19:29Z</time>
      </trkpt>
      <trkpt lat="44.18205" lon="3.16189">
        <ele>779.7</ele>
        <time>2021-09-30T14:19:30Z</time>
      </trkpt>
      <trkpt lat="44.18207" lon="3.16192">
        <ele>779.6</ele>
        <time>2021-09-30T14:19:31Z</time>
      </trkpt>
      <trkpt lat="44.18208" lon="3.16199">
        <ele>779.6</ele>
        <time>2021-09-30T14:19:33Z</time>
      </trkpt>
      <trkpt lat="44.18209" lon="3.16203">
        <ele>779.6</ele>
        <time>2021-09-30T14:19:34Z</time>
      </trkpt>
      <trkpt lat="44.18211" lon="3.16206">
        <ele>779.7</ele>
        <time>2021-09-30T14:19:36Z</time>
      </trkpt>
      <trkpt lat="44.18211" lon="3.16213">
        <ele>779.7</ele>
        <time>2021-09-30T14:19:38Z</time>
      </trkpt>
      <trkpt lat="44.1821" lon="3.16217">
        <ele>779.7</ele>
        <time>2021-09-30T14:19:39Z</time>
      </trkpt>
      <trkpt lat="44.18209" lon="3.16221">
        <ele>779.8</ele>
        <time>2021-09-30T14:19:40Z</time>
      </trkpt>
      <trkpt lat="44.18208" lon="3.16224">
        <ele>779.8</ele>
        <time>2021-09-30T14:19:41Z</time>
      </trkpt>
      <trkpt lat="44.18208" lon="3.16228">
        <ele>779.9</ele>
        <time>2021-09-30T14:19:43Z</time>
      </trkpt>
      <trkpt lat="44.18207" lon="3.16232">
        <ele>780</ele>
        <time>2021-09-30T14:19:44Z</time>
      </trkpt>
      <trkpt lat="44.18204" lon="3.16238">
        <ele>780.2</ele>
        <time>2021-09-30T14:19:45Z</time>
      </trkpt>
      <trkpt lat="44.18201" lon="3.16242">
        <ele>780.4</ele>
        <time>2021-09-30T14:19:47Z</time>
      </trkpt>
      <trkpt lat="44.18196" lon="3.16246">
        <ele>780.6</ele>
        <time>2021-09-30T14:19:49Z</time>
      </trkpt>
      <trkpt lat="44.18193" lon="3.16248">
        <ele>781.1</ele>
        <time>2021-09-30T14:19:50Z</time>
      </trkpt>
      <trkpt lat="44.18188" lon="3.16251">
        <ele>781.2</ele>
        <time>2021-09-30T14:19:51Z</time>
      </trkpt>
      <trkpt lat="44.18186" lon="3.16253">
        <ele>781.4</ele>
        <time>2021-09-30T14:19:53Z</time>
      </trkpt>
      <trkpt lat="44.18181" lon="3.16256">
        <ele>781.6</ele>
        <time>2021-09-30T14:19:54Z</time>
      </trkpt>
      <trkpt lat="44.18178" lon="3.16258">
        <ele>781.8</ele>
        <time>2021-09-30T14:19:56Z</time>
      </trkpt>
      <trkpt lat="44.18175" lon="3.16261">
        <ele>782.1</ele>
        <time>2021-09-30T14:19:57Z</time>
      </trkpt>
      <trkpt lat="44.18174" lon="3.16267">
        <ele>782.2</ele>
        <time>2021-09-30T14:19:58Z</time>
      </trkpt>
      <trkpt lat="44.18174" lon="3.16271">
        <ele>782.5</ele>
        <time>2021-09-30T14:19:59Z</time>
      </trkpt>
      <trkpt lat="44.18174" lon="3.16274">
        <ele>782.6</ele>
        <time>2021-09-30T14:20:01Z</time>
      </trkpt>
      <trkpt lat="44.18176" lon="3.16279">
        <ele>782.6</ele>
        <time>2021-09-30T14:20:03Z</time>
      </trkpt>
      <trkpt lat="44.18176" lon="3.16281">
        <ele>782.6</ele>
        <time>2021-09-30T14:20:04Z</time>
      </trkpt>
      <trkpt lat="44.18176" lon="3.16283">
        <ele>782.7</ele>
        <time>2021-09-30T14:20:05Z</time>
      </trkpt>
      <trkpt lat="44.18177" lon="3.16285">
        <ele>782.7</ele>
        <time>2021-09-30T14:20:06Z</time>
      </trkpt>
      <trkpt lat="44.18177" lon="3.16287">
        <ele>782.9</ele>
        <time>2021-09-30T14:20:08Z</time>
      </trkpt>
      <trkpt lat="44.18177" lon="3.16288">
        <ele>782.9</ele>
        <time>2021-09-30T14:20:09Z</time>
      </trkpt>
      <trkpt lat="44.18177" lon="3.1629">
        <ele>783</ele>
        <time>2021-09-30T14:20:10Z</time>
      </trkpt>
      <trkpt lat="44.18177" lon="3.16293">
        <ele>783</ele>
        <time>2021-09-30T14:20:12Z</time>
      </trkpt>
      <trkpt lat="44.18177" lon="3.16294">
        <ele>782.9</ele>
        <time>2021-09-30T14:20:13Z</time>
      </trkpt>
      <trkpt lat="44.18177" lon="3.16297">
        <ele>783.2</ele>
        <time>2021-09-30T14:20:14Z</time>
      </trkpt>
      <trkpt lat="44.18176" lon="3.163">
        <ele>783.3</ele>
        <time>2021-09-30T14:20:15Z</time>
      </trkpt>
      <trkpt lat="44.18176" lon="3.16302">
        <ele>783.3</ele>
        <time>2021-09-30T14:20:16Z</time>
      </trkpt>
      <trkpt lat="44.18176" lon="3.16308">
        <ele>783.5</ele>
        <time>2021-09-30T14:20:18Z</time>
      </trkpt>
      <trkpt lat="44.18176" lon="3.16311">
        <ele>783.5</ele>
        <time>2021-09-30T14:20:19Z</time>
      </trkpt>
      <trkpt lat="44.18175" lon="3.16314">
        <ele>783.6</ele>
        <time>2021-09-30T14:20:20Z</time>
      </trkpt>
      <trkpt lat="44.18175" lon="3.16318">
        <ele>783.6</ele>
        <time>2021-09-30T14:20:22Z</time>
      </trkpt>
      <trkpt lat="44.18174" lon="3.16323">
        <ele>783.7</ele>
        <time>2021-09-30T14:20:23Z</time>
      </trkpt>
      <trkpt lat="44.18174" lon="3.16325">
        <ele>783.9</ele>
        <time>2021-09-30T14:20:24Z</time>
      </trkpt>
      <trkpt lat="44.18172" lon="3.1633">
        <ele>783.9</ele>
        <time>2021-09-30T14:20:26Z</time>
      </trkpt>
      <trkpt lat="44.18171" lon="3.16334">
        <ele>784.2</ele>
        <time>2021-09-30T14:20:27Z</time>
      </trkpt>
      <trkpt lat="44.18169" lon="3.16338">
        <ele>784.2</ele>
        <time>2021-09-30T14:20:28Z</time>
      </trkpt>
      <trkpt lat="44.18168" lon="3.16341">
        <ele>784.2</ele>
        <time>2021-09-30T14:20:29Z</time>
      </trkpt>
      <trkpt lat="44.18167" lon="3.16344">
        <ele>784.4</ele>
        <time>2021-09-30T14:20:31Z</time>
      </trkpt>
      <trkpt lat="44.18165" lon="3.16349">
        <ele>784.4</ele>
        <time>2021-09-30T14:20:32Z</time>
      </trkpt>
      <trkpt lat="44.18163" lon="3.16352">
        <ele>784.6</ele>
        <time>2021-09-30T14:20:34Z</time>
      </trkpt>
      <trkpt lat="44.18162" lon="3.16353">
        <ele>784.8</ele>
        <time>2021-09-30T14:20:35Z</time>
      </trkpt>
      <trkpt lat="44.18159" lon="3.16356">
        <ele>784.8</ele>
        <time>2021-09-30T14:20:36Z</time>
      </trkpt>
      <trkpt lat="44.18159" lon="3.16359">
        <ele>785</ele>
        <time>2021-09-30T14:20:37Z</time>
      </trkpt>
      <trkpt lat="44.18158" lon="3.16363">
        <ele>784.9</ele>
        <time>2021-09-30T14:20:39Z</time>
      </trkpt>
      <trkpt lat="44.18157" lon="3.16367">
        <ele>784.9</ele>
        <time>2021-09-30T14:20:41Z</time>
      </trkpt>
      <trkpt lat="44.18157" lon="3.1637">
        <ele>785</ele>
        <time>2021-09-30T14:20:42Z</time>
      </trkpt>
      <trkpt lat="44.18157" lon="3.16372">
        <ele>785</ele>
        <time>2021-09-30T14:20:43Z</time>
      </trkpt>
      <trkpt lat="44.18158" lon="3.16376">
        <ele>785</ele>
        <time>2021-09-30T14:20:45Z</time>
      </trkpt>
      <trkpt lat="44.18158" lon="3.16377">
        <ele>785.1</ele>
        <time>2021-09-30T14:20:46Z</time>
      </trkpt>
      <trkpt lat="44.18159" lon="3.16379">
        <ele>784.9</ele>
        <time>2021-09-30T14:20:47Z</time>
      </trkpt>
      <trkpt lat="44.18159" lon="3.1638">
        <ele>784.9</ele>
        <time>2021-09-30T14:20:48Z</time>
      </trkpt>
      <trkpt lat="44.1816" lon="3.16384">
        <ele>785</ele>
        <time>2021-09-30T14:20:50Z</time>
      </trkpt>
      <trkpt lat="44.18161" lon="3.16385">
        <ele>785</ele>
        <time>2021-09-30T14:20:51Z</time>
      </trkpt>
      <trkpt lat="44.18162" lon="3.16387">
        <ele>785</ele>
        <time>2021-09-30T14:20:52Z</time>
      </trkpt>
      <trkpt lat="44.18163" lon="3.16389">
        <ele>784.8</ele>
        <time>2021-09-30T14:20:53Z</time>
      </trkpt>
      <trkpt lat="44.18165" lon="3.16392">
        <ele>784.8</ele>
        <time>2021-09-30T14:20:54Z</time>
      </trkpt>
      <trkpt lat="44.18168" lon="3.16394">
        <ele>784.5</ele>
        <time>2021-09-30T14:20:56Z</time>
      </trkpt>
      <trkpt lat="44.18171" lon="3.16395">
        <ele>784.5</ele>
        <time>2021-09-30T14:20:57Z</time>
      </trkpt>
      <trkpt lat="44.18173" lon="3.16395">
        <ele>784.4</ele>
        <time>2021-09-30T14:20:58Z</time>
      </trkpt>
      <trkpt lat="44.18177" lon="3.16395">
        <ele>784.3</ele>
        <time>2021-09-30T14:21:00Z</time>
      </trkpt>
      <trkpt lat="44.18181" lon="3.16395">
        <ele>784.1</ele>
        <time>2021-09-30T14:21:01Z</time>
      </trkpt>
      <trkpt lat="44.18183" lon="3.16395">
        <ele>784.1</ele>
        <time>2021-09-30T14:21:02Z</time>
      </trkpt>
      <trkpt lat="44.1819" lon="3.16396">
        <ele>783.8</ele>
        <time>2021-09-30T14:21:04Z</time>
      </trkpt>
      <trkpt lat="44.18194" lon="3.16396">
        <ele>783.6</ele>
        <time>2021-09-30T14:21:05Z</time>
      </trkpt>
      <trkpt lat="44.18201" lon="3.16394">
        <ele>783.4</ele>
        <time>2021-09-30T14:21:06Z</time>
      </trkpt>
      <trkpt lat="44.18208" lon="3.16393">
        <ele>783</ele>
        <time>2021-09-30T14:21:08Z</time>
      </trkpt>
      <trkpt lat="44.18215" lon="3.16393">
        <ele>782.8</ele>
        <time>2021-09-30T14:21:09Z</time>
      </trkpt>
      <trkpt lat="44.18221" lon="3.16392">
        <ele>782.4</ele>
        <time>2021-09-30T14:21:10Z</time>
      </trkpt>
      <trkpt lat="44.18229" lon="3.16393">
        <ele>782.1</ele>
        <time>2021-09-30T14:21:12Z</time>
      </trkpt>
      <trkpt lat="44.18234" lon="3.16393">
        <ele>782</ele>
        <time>2021-09-30T14:21:13Z</time>
      </trkpt>
      <trkpt lat="44.18239" lon="3.16394">
        <ele>781.7</ele>
        <time>2021-09-30T14:21:14Z</time>
      </trkpt>
      <trkpt lat="44.18243" lon="3.16394">
        <ele>781.6</ele>
        <time>2021-09-30T14:21:16Z</time>
      </trkpt>
      <trkpt lat="44.18249" lon="3.16394">
        <ele>781.3</ele>
        <time>2021-09-30T14:21:17Z</time>
      </trkpt>
      <trkpt lat="44.18256" lon="3.16397">
        <ele>781</ele>
        <time>2021-09-30T14:21:19Z</time>
      </trkpt>
      <trkpt lat="44.18263" lon="3.16401">
        <ele>780.8</ele>
        <time>2021-09-30T14:21:20Z</time>
      </trkpt>
      <trkpt lat="44.18269" lon="3.16405">
        <ele>780.6</ele>
        <time>2021-09-30T14:21:22Z</time>
      </trkpt>
      <trkpt lat="44.18276" lon="3.16405">
        <ele>780.3</ele>
        <time>2021-09-30T14:21:23Z</time>
      </trkpt>
      <trkpt lat="44.18284" lon="3.16402">
        <ele>779.6</ele>
        <time>2021-09-30T14:21:25Z</time>
      </trkpt>
      <trkpt lat="44.18291" lon="3.16395">
        <ele>778.8</ele>
        <time>2021-09-30T14:21:27Z</time>
      </trkpt>
      <trkpt lat="44.18295" lon="3.16392">
        <ele>778.4</ele>
        <time>2021-09-30T14:21:28Z</time>
      </trkpt>
      <trkpt lat="44.18299" lon="3.16386">
        <ele>777.9</ele>
        <time>2021-09-30T14:21:29Z</time>
      </trkpt>
      <trkpt lat="44.18305" lon="3.16383">
        <ele>777.2</ele>
        <time>2021-09-30T14:21:31Z</time>
      </trkpt>
      <trkpt lat="44.18308" lon="3.16382">
        <ele>777.1</ele>
        <time>2021-09-30T14:21:32Z</time>
      </trkpt>
      <trkpt lat="44.18312" lon="3.16386">
        <ele>777.1</ele>
        <time>2021-09-30T14:21:33Z</time>
      </trkpt>
      <trkpt lat="44.18315" lon="3.16391">
        <ele>777.2</ele>
        <time>2021-09-30T14:21:34Z</time>
      </trkpt>
      <trkpt lat="44.18317" lon="3.16396">
        <ele>777.3</ele>
        <time>2021-09-30T14:21:35Z</time>
      </trkpt>
      <trkpt lat="44.1832" lon="3.16404">
        <ele>777.5</ele>
        <time>2021-09-30T14:21:37Z</time>
      </trkpt>
      <trkpt lat="44.18327" lon="3.16416">
        <ele>777.5</ele>
        <time>2021-09-30T14:21:38Z</time>
      </trkpt>
      <trkpt lat="44.18336" lon="3.16423">
        <ele>776.8</ele>
        <time>2021-09-30T14:21:40Z</time>
      </trkpt>
      <trkpt lat="44.1834" lon="3.16426">
        <ele>776.5</ele>
        <time>2021-09-30T14:21:41Z</time>
      </trkpt>
      <trkpt lat="44.18346" lon="3.16427">
        <ele>776.1</ele>
        <time>2021-09-30T14:21:42Z</time>
      </trkpt>
      <trkpt lat="44.18349" lon="3.1643">
        <ele>775.8</ele>
        <time>2021-09-30T14:21:43Z</time>
      </trkpt>
      <trkpt lat="44.18351" lon="3.16435">
        <ele>775.4</ele>
        <time>2021-09-30T14:21:45Z</time>
      </trkpt>
      <trkpt lat="44.18352" lon="3.16437">
        <ele>775.2</ele>
        <time>2021-09-30T14:21:46Z</time>
      </trkpt>
      <trkpt lat="44.1836" lon="3.16443">
        <ele>774.2</ele>
        <time>2021-09-30T14:21:47Z</time>
      </trkpt>
      <trkpt lat="44.18366" lon="3.16445">
        <ele>773.5</ele>
        <time>2021-09-30T14:21:49Z</time>
      </trkpt>
      <trkpt lat="44.1837" lon="3.16441">
        <ele>773.5</ele>
        <time>2021-09-30T14:21:50Z</time>
      </trkpt>
      <trkpt lat="44.18375" lon="3.16438">
        <ele>773.1</ele>
        <time>2021-09-30T14:21:52Z</time>
      </trkpt>
      <trkpt lat="44.18379" lon="3.16439">
        <ele>772.9</ele>
        <time>2021-09-30T14:21:53Z</time>
      </trkpt>
      <trkpt lat="44.18385" lon="3.1644">
        <ele>772.4</ele>
        <time>2021-09-30T14:21:54Z</time>
      </trkpt>
      <trkpt lat="44.18388" lon="3.16438">
        <ele>772.2</ele>
        <time>2021-09-30T14:21:56Z</time>
      </trkpt>
      <trkpt lat="44.18391" lon="3.16436">
        <ele>772</ele>
        <time>2021-09-30T14:21:57Z</time>
      </trkpt>
      <trkpt lat="44.18395" lon="3.16433">
        <ele>771.7</ele>
        <time>2021-09-30T14:21:58Z</time>
      </trkpt>
      <trkpt lat="44.18399" lon="3.16429">
        <ele>771.4</ele>
        <time>2021-09-30T14:21:59Z</time>
      </trkpt>
      <trkpt lat="44.18402" lon="3.16424">
        <ele>770.8</ele>
        <time>2021-09-30T14:22:00Z</time>
      </trkpt>
      <trkpt lat="44.18408" lon="3.16418">
        <ele>770.3</ele>
        <time>2021-09-30T14:22:02Z</time>
      </trkpt>
      <trkpt lat="44.18412" lon="3.16414">
        <ele>769.6</ele>
        <time>2021-09-30T14:22:03Z</time>
      </trkpt>
      <trkpt lat="44.18421" lon="3.16407">
        <ele>768.8</ele>
        <time>2021-09-30T14:22:04Z</time>
      </trkpt>
      <trkpt lat="44.18427" lon="3.16403">
        <ele>768.2</ele>
        <time>2021-09-30T14:22:05Z</time>
      </trkpt>
      <trkpt lat="44.18435" lon="3.16398">
        <ele>767.6</ele>
        <time>2021-09-30T14:22:07Z</time>
      </trkpt>
      <trkpt lat="44.18439" lon="3.16397">
        <ele>766.9</ele>
        <time>2021-09-30T14:22:08Z</time>
      </trkpt>
      <trkpt lat="44.18445" lon="3.16402">
        <ele>766.9</ele>
        <time>2021-09-30T14:22:10Z</time>
      </trkpt>
      <trkpt lat="44.18448" lon="3.16403">
        <ele>766.9</ele>
        <time>2021-09-30T14:22:11Z</time>
      </trkpt>
      <trkpt lat="44.18451" lon="3.16402">
        <ele>766.4</ele>
        <time>2021-09-30T14:22:12Z</time>
      </trkpt>
      <trkpt lat="44.18454" lon="3.16401">
        <ele>766.2</ele>
        <time>2021-09-30T14:22:13Z</time>
      </trkpt>
      <trkpt lat="44.18458" lon="3.16401">
        <ele>765.7</ele>
        <time>2021-09-30T14:22:15Z</time>
      </trkpt>
      <trkpt lat="44.18462" lon="3.164">
        <ele>765.5</ele>
        <time>2021-09-30T14:22:16Z</time>
      </trkpt>
      <trkpt lat="44.18465" lon="3.164">
        <ele>765.3</ele>
        <time>2021-09-30T14:22:17Z</time>
      </trkpt>
      <trkpt lat="44.18471" lon="3.16401">
        <ele>764.8</ele>
        <time>2021-09-30T14:22:19Z</time>
      </trkpt>
      <trkpt lat="44.18474" lon="3.16402">
        <ele>764.9</ele>
        <time>2021-09-30T14:22:20Z</time>
      </trkpt>
      <trkpt lat="44.18478" lon="3.16404">
        <ele>764.7</ele>
        <time>2021-09-30T14:22:21Z</time>
      </trkpt>
      <trkpt lat="44.18481" lon="3.16405">
        <ele>764.6</ele>
        <time>2021-09-30T14:22:22Z</time>
      </trkpt>
      <trkpt lat="44.18486" lon="3.16404">
        <ele>764.3</ele>
        <time>2021-09-30T14:22:24Z</time>
      </trkpt>
      <trkpt lat="44.18488" lon="3.16403">
        <ele>764.2</ele>
        <time>2021-09-30T14:22:25Z</time>
      </trkpt>
      <trkpt lat="44.18492" lon="3.16396">
        <ele>763.4</ele>
        <time>2021-09-30T14:22:27Z</time>
      </trkpt>
      <trkpt lat="44.18492" lon="3.16389">
        <ele>763</ele>
        <time>2021-09-30T14:22:29Z</time>
      </trkpt>
      <trkpt lat="44.18494" lon="3.16386">
        <ele>762.6</ele>
        <time>2021-09-30T14:22:30Z</time>
      </trkpt>
      <trkpt lat="44.18496" lon="3.16382">
        <ele>762</ele>
        <time>2021-09-30T14:22:31Z</time>
      </trkpt>
      <trkpt lat="44.185" lon="3.16379">
        <ele>761.4</ele>
        <time>2021-09-30T14:22:32Z</time>
      </trkpt>
      <trkpt lat="44.18506" lon="3.16378">
        <ele>761.1</ele>
        <time>2021-09-30T14:22:34Z</time>
      </trkpt>
      <trkpt lat="44.18514" lon="3.16381">
        <ele>761.4</ele>
        <time>2021-09-30T14:22:35Z</time>
      </trkpt>
      <trkpt lat="44.18523" lon="3.1639">
        <ele>762.1</ele>
        <time>2021-09-30T14:22:37Z</time>
      </trkpt>
      <trkpt lat="44.18534" lon="3.16396">
        <ele>762.1</ele>
        <time>2021-09-30T14:22:39Z</time>
      </trkpt>
      <trkpt lat="44.18542" lon="3.16406">
        <ele>762.6</ele>
        <time>2021-09-30T14:22:41Z</time>
      </trkpt>
      <trkpt lat="44.18543" lon="3.16412">
        <ele>763.4</ele>
        <time>2021-09-30T14:22:42Z</time>
      </trkpt>
      <trkpt lat="44.18544" lon="3.16418">
        <ele>763.6</ele>
        <time>2021-09-30T14:22:43Z</time>
      </trkpt>
      <trkpt lat="44.18547" lon="3.16429">
        <ele>764.1</ele>
        <time>2021-09-30T14:22:45Z</time>
      </trkpt>
      <trkpt lat="44.18545" lon="3.16433">
        <ele>764.3</ele>
        <time>2021-09-30T14:22:46Z</time>
      </trkpt>
      <trkpt lat="44.18545" lon="3.16434">
        <ele>764.3</ele>
        <time>2021-09-30T14:22:47Z</time>
      </trkpt>
      <trkpt lat="44.18541" lon="3.16433">
        <ele>764.3</ele>
        <time>2021-09-30T14:22:48Z</time>
      </trkpt>
      <trkpt lat="44.18539" lon="3.16433">
        <ele>764.3</ele>
        <time>2021-09-30T14:22:49Z</time>
      </trkpt>
      <trkpt lat="44.18535" lon="3.16431">
        <ele>764.3</ele>
        <time>2021-09-30T14:22:51Z</time>
      </trkpt>
      <trkpt lat="44.18532" lon="3.1643">
        <ele>764.4</ele>
        <time>2021-09-30T14:22:52Z</time>
      </trkpt>
      <trkpt lat="44.1853" lon="3.1643">
        <ele>764.4</ele>
        <time>2021-09-30T14:22:53Z</time>
      </trkpt>
      <trkpt lat="44.18526" lon="3.1643">
        <ele>764.4</ele>
        <time>2021-09-30T14:22:54Z</time>
      </trkpt>
      <trkpt lat="44.18521" lon="3.16431">
        <ele>764.4</ele>
        <time>2021-09-30T14:22:56Z</time>
      </trkpt>
      <trkpt lat="44.18519" lon="3.16432">
        <ele>764.4</ele>
        <time>2021-09-30T14:22:57Z</time>
      </trkpt>
      <trkpt lat="44.18515" lon="3.16434">
        <ele>764.4</ele>
        <time>2021-09-30T14:22:58Z</time>
      </trkpt>
      <trkpt lat="44.18512" lon="3.16436">
        <ele>764.4</ele>
        <time>2021-09-30T14:22:59Z</time>
      </trkpt>
      <trkpt lat="44.18509" lon="3.16439">
        <ele>764.3</ele>
        <time>2021-09-30T14:23:00Z</time>
      </trkpt>
      <trkpt lat="44.18506" lon="3.16444">
        <ele>764.3</ele>
        <time>2021-09-30T14:23:02Z</time>
      </trkpt>
      <trkpt lat="44.18505" lon="3.16449">
        <ele>764.2</ele>
        <time>2021-09-30T14:23:03Z</time>
      </trkpt>
      <trkpt lat="44.18502" lon="3.1646">
        <ele>763.9</ele>
        <time>2021-09-30T14:23:05Z</time>
      </trkpt>
      <trkpt lat="44.18499" lon="3.16468">
        <ele>763.7</ele>
        <time>2021-09-30T14:23:06Z</time>
      </trkpt>
      <trkpt lat="44.18496" lon="3.16473">
        <ele>763.5</ele>
        <time>2021-09-30T14:23:07Z</time>
      </trkpt>
      <trkpt lat="44.18493" lon="3.16478">
        <ele>763.2</ele>
        <time>2021-09-30T14:23:08Z</time>
      </trkpt>
      <trkpt lat="44.18486" lon="3.16488">
        <ele>762.7</ele>
        <time>2021-09-30T14:23:10Z</time>
      </trkpt>
      <trkpt lat="44.18483" lon="3.16492">
        <ele>762.5</ele>
        <time>2021-09-30T14:23:11Z</time>
      </trkpt>
      <trkpt lat="44.18478" lon="3.165">
        <ele>762.2</ele>
        <time>2021-09-30T14:23:13Z</time>
      </trkpt>
      <trkpt lat="44.18474" lon="3.16509">
        <ele>761.9</ele>
        <time>2021-09-30T14:23:14Z</time>
      </trkpt>
      <trkpt lat="44.18465" lon="3.16524">
        <ele>761.3</ele>
        <time>2021-09-30T14:23:16Z</time>
      </trkpt>
      <trkpt lat="44.18455" lon="3.16536">
        <ele>760.8</ele>
        <time>2021-09-30T14:23:18Z</time>
      </trkpt>
      <trkpt lat="44.18445" lon="3.16541">
        <ele>760.5</ele>
        <time>2021-09-30T14:23:20Z</time>
      </trkpt>
      <trkpt lat="44.1844" lon="3.16543">
        <ele>760.3</ele>
        <time>2021-09-30T14:23:21Z</time>
      </trkpt>
      <trkpt lat="44.18432" lon="3.16548">
        <ele>760.2</ele>
        <time>2021-09-30T14:23:23Z</time>
      </trkpt>
      <trkpt lat="44.18433" lon="3.1655">
        <ele>760.2</ele>
        <time>2021-09-30T14:23:24Z</time>
      </trkpt>
      <trkpt lat="44.18434" lon="3.16559">
        <ele>760.2</ele>
        <time>2021-09-30T14:23:26Z</time>
      </trkpt>
      <trkpt lat="44.1844" lon="3.16568">
        <ele>760.3</ele>
        <time>2021-09-30T14:23:27Z</time>
      </trkpt>
      <trkpt lat="44.18446" lon="3.1657">
        <ele>760.4</ele>
        <time>2021-09-30T14:23:29Z</time>
      </trkpt>
      <trkpt lat="44.18449" lon="3.1657">
        <ele>760.4</ele>
        <time>2021-09-30T14:23:30Z</time>
      </trkpt>
      <trkpt lat="44.18459" lon="3.16567">
        <ele>760.5</ele>
        <time>2021-09-30T14:23:32Z</time>
      </trkpt>
      <trkpt lat="44.18464" lon="3.16567">
        <ele>760.5</ele>
        <time>2021-09-30T14:23:33Z</time>
      </trkpt>
      <trkpt lat="44.18473" lon="3.16566">
        <ele>760.6</ele>
        <time>2021-09-30T14:23:35Z</time>
      </trkpt>
      <trkpt lat="44.18482" lon="3.16566">
        <ele>760.6</ele>
        <time>2021-09-30T14:23:37Z</time>
      </trkpt>
      <trkpt lat="44.18492" lon="3.1657">
        <ele>760.8</ele>
        <time>2021-09-30T14:23:39Z</time>
      </trkpt>
      <trkpt lat="44.185" lon="3.16574">
        <ele>760.9</ele>
        <time>2021-09-30T14:23:41Z</time>
      </trkpt>
      <trkpt lat="44.18504" lon="3.16577">
        <ele>761</ele>
        <time>2021-09-30T14:23:42Z</time>
      </trkpt>
      <trkpt lat="44.18508" lon="3.16581">
        <ele>761.1</ele>
        <time>2021-09-30T14:23:43Z</time>
      </trkpt>
      <trkpt lat="44.18516" lon="3.1659">
        <ele>761.2</ele>
        <time>2021-09-30T14:23:45Z</time>
      </trkpt>
      <trkpt lat="44.18521" lon="3.16595">
        <ele>761.3</ele>
        <time>2021-09-30T14:23:46Z</time>
      </trkpt>
      <trkpt lat="44.18529" lon="3.16597">
        <ele>761.4</ele>
        <time>2021-09-30T14:23:48Z</time>
      </trkpt>
      <trkpt lat="44.18533" lon="3.16593">
        <ele>761.4</ele>
        <time>2021-09-30T14:23:49Z</time>
      </trkpt>
      <trkpt lat="44.18537" lon="3.16593">
        <ele>761.4</ele>
        <time>2021-09-30T14:23:50Z</time>
      </trkpt>
      <trkpt lat="44.18544" lon="3.16591">
        <ele>761.5</ele>
        <time>2021-09-30T14:23:51Z</time>
      </trkpt>
      <trkpt lat="44.18548" lon="3.16591">
        <ele>761.5</ele>
        <time>2021-09-30T14:23:53Z</time>
      </trkpt>
      <trkpt lat="44.18552" lon="3.16592">
        <ele>761.6</ele>
        <time>2021-09-30T14:23:54Z</time>
      </trkpt>
      <trkpt lat="44.18558" lon="3.16596">
        <ele>761.7</ele>
        <time>2021-09-30T14:23:55Z</time>
      </trkpt>
      <trkpt lat="44.18564" lon="3.16598">
        <ele>761.8</ele>
        <time>2021-09-30T14:23:56Z</time>
      </trkpt>
      <trkpt lat="44.18572" lon="3.16604">
        <ele>761.9</ele>
        <time>2021-09-30T14:23:58Z</time>
      </trkpt>
      <trkpt lat="44.18576" lon="3.16607">
        <ele>762</ele>
        <time>2021-09-30T14:23:59Z</time>
      </trkpt>
      <trkpt lat="44.18581" lon="3.16611">
        <ele>762.1</ele>
        <time>2021-09-30T14:24:00Z</time>
      </trkpt>
      <trkpt lat="44.18591" lon="3.16618">
        <ele>762.2</ele>
        <time>2021-09-30T14:24:02Z</time>
      </trkpt>
      <trkpt lat="44.18595" lon="3.16621">
        <ele>762.3</ele>
        <time>2021-09-30T14:24:03Z</time>
      </trkpt>
      <trkpt lat="44.18602" lon="3.16627">
        <ele>762.4</ele>
        <time>2021-09-30T14:24:05Z</time>
      </trkpt>
      <trkpt lat="44.18606" lon="3.16633">
        <ele>762.4</ele>
        <time>2021-09-30T14:24:06Z</time>
      </trkpt>
      <trkpt lat="44.18609" lon="3.16638">
        <ele>762.4</ele>
        <time>2021-09-30T14:24:07Z</time>
      </trkpt>
      <trkpt lat="44.18616" lon="3.16648">
        <ele>762.4</ele>
        <time>2021-09-30T14:24:09Z</time>
      </trkpt>
      <trkpt lat="44.18618" lon="3.1665">
        <ele>762.4</ele>
        <time>2021-09-30T14:24:10Z</time>
      </trkpt>
      <trkpt lat="44.1862" lon="3.16665">
        <ele>762.4</ele>
        <time>2021-09-30T14:24:12Z</time>
      </trkpt>
      <trkpt lat="44.1862" lon="3.16675">
        <ele>762.3</ele>
        <time>2021-09-30T14:24:13Z</time>
      </trkpt>
      <trkpt lat="44.18623" lon="3.1669">
        <ele>762.3</ele>
        <time>2021-09-30T14:24:15Z</time>
      </trkpt>
      <trkpt lat="44.18624" lon="3.16695">
        <ele>762.3</ele>
        <time>2021-09-30T14:24:16Z</time>
      </trkpt>
      <trkpt lat="44.18627" lon="3.16702">
        <ele>762.4</ele>
        <time>2021-09-30T14:24:17Z</time>
      </trkpt>
      <trkpt lat="44.18629" lon="3.1671">
        <ele>762.5</ele>
        <time>2021-09-30T14:24:18Z</time>
      </trkpt>
      <trkpt lat="44.18634" lon="3.16725">
        <ele>763</ele>
        <time>2021-09-30T14:24:20Z</time>
      </trkpt>
      <trkpt lat="44.18639" lon="3.16734">
        <ele>763.5</ele>
        <time>2021-09-30T14:24:22Z</time>
      </trkpt>
      <trkpt lat="44.18642" lon="3.16737">
        <ele>763.8</ele>
        <time>2021-09-30T14:24:23Z</time>
      </trkpt>
      <trkpt lat="44.18643" lon="3.16742">
        <ele>764.2</ele>
        <time>2021-09-30T14:24:24Z</time>
      </trkpt>
      <trkpt lat="44.18645" lon="3.16747">
        <ele>764.6</ele>
        <time>2021-09-30T14:24:26Z</time>
      </trkpt>
      <trkpt lat="44.18645" lon="3.16748">
        <ele>764.7</ele>
        <time>2021-09-30T14:24:27Z</time>
      </trkpt>
      <trkpt lat="44.18646" lon="3.16753">
        <ele>765.1</ele>
        <time>2021-09-30T14:24:29Z</time>
      </trkpt>
      <trkpt lat="44.18647" lon="3.16758">
        <ele>765.5</ele>
        <time>2021-09-30T14:24:30Z</time>
      </trkpt>
      <trkpt lat="44.18648" lon="3.16759">
        <ele>765.6</ele>
        <time>2021-09-30T14:24:31Z</time>
      </trkpt>
      <trkpt lat="44.18649" lon="3.16762">
        <ele>765.9</ele>
        <time>2021-09-30T14:24:32Z</time>
      </trkpt>
      <trkpt lat="44.1865" lon="3.16766">
        <ele>766.2</ele>
        <time>2021-09-30T14:24:34Z</time>
      </trkpt>
      <trkpt lat="44.18651" lon="3.1677">
        <ele>766.5</ele>
        <time>2021-09-30T14:24:35Z</time>
      </trkpt>
      <trkpt lat="44.18652" lon="3.16772">
        <ele>766.7</ele>
        <time>2021-09-30T14:24:36Z</time>
      </trkpt>
      <trkpt lat="44.18653" lon="3.16775">
        <ele>767</ele>
        <time>2021-09-30T14:24:38Z</time>
      </trkpt>
      <trkpt lat="44.18654" lon="3.16776">
        <ele>767.1</ele>
        <time>2021-09-30T14:24:39Z</time>
      </trkpt>
      <trkpt lat="44.18656" lon="3.1678">
        <ele>767.6</ele>
        <time>2021-09-30T14:24:41Z</time>
      </trkpt>
      <trkpt lat="44.18658" lon="3.16784">
        <ele>767.9</ele>
        <time>2021-09-30T14:24:42Z</time>
      </trkpt>
      <trkpt lat="44.18659" lon="3.16786">
        <ele>768.2</ele>
        <time>2021-09-30T14:24:43Z</time>
      </trkpt>
      <trkpt lat="44.18661" lon="3.16789">
        <ele>768.5</ele>
        <time>2021-09-30T14:24:45Z</time>
      </trkpt>
      <trkpt lat="44.18663" lon="3.16794">
        <ele>769</ele>
        <time>2021-09-30T14:24:46Z</time>
      </trkpt>
      <trkpt lat="44.18665" lon="3.16797">
        <ele>769.3</ele>
        <time>2021-09-30T14:24:48Z</time>
      </trkpt>
      <trkpt lat="44.18666" lon="3.16801">
        <ele>769.7</ele>
        <time>2021-09-30T14:24:49Z</time>
      </trkpt>
      <trkpt lat="44.18666" lon="3.16808">
        <ele>770.2</ele>
        <time>2021-09-30T14:24:51Z</time>
      </trkpt>
      <trkpt lat="44.18666" lon="3.16813">
        <ele>770.5</ele>
        <time>2021-09-30T14:24:52Z</time>
      </trkpt>
      <trkpt lat="44.18667" lon="3.16818">
        <ele>770.8</ele>
        <time>2021-09-30T14:24:54Z</time>
      </trkpt>
      <trkpt lat="44.18667" lon="3.16822">
        <ele>771</ele>
        <time>2021-09-30T14:24:55Z</time>
      </trkpt>
      <trkpt lat="44.18666" lon="3.16827">
        <ele>771.2</ele>
        <time>2021-09-30T14:24:56Z</time>
      </trkpt>
      <trkpt lat="44.18666" lon="3.16828">
        <ele>771.3</ele>
        <time>2021-09-30T14:24:57Z</time>
      </trkpt>
      <trkpt lat="44.18666" lon="3.1683">
        <ele>771.4</ele>
        <time>2021-09-30T14:24:59Z</time>
      </trkpt>
      <trkpt lat="44.18665" lon="3.16831">
        <ele>771.4</ele>
        <time>2021-09-30T14:25:02Z</time>
      </trkpt>
      <trkpt lat="44.18665" lon="3.1683">
        <ele>771.5</ele>
        <time>2021-09-30T14:25:03Z</time>
      </trkpt>
      <trkpt lat="44.18665" lon="3.16829">
        <ele>771.5</ele>
        <time>2021-09-30T14:25:05Z</time>
      </trkpt>
      <trkpt lat="44.18665" lon="3.16828">
        <ele>771.5</ele>
        <time>2021-09-30T14:25:06Z</time>
      </trkpt>
      <trkpt lat="44.18665" lon="3.16827">
        <ele>771.6</ele>
        <time>2021-09-30T14:25:08Z</time>
      </trkpt>
      <trkpt lat="44.18668" lon="3.16831">
        <ele>771.9</ele>
        <time>2021-09-30T14:25:39Z</time>
      </trkpt>
      <trkpt lat="44.18668" lon="3.16833">
        <ele>771.9</ele>
        <time>2021-09-30T14:25:40Z</time>
      </trkpt>
      <trkpt lat="44.18669" lon="3.16834">
        <ele>772</ele>
        <time>2021-09-30T14:25:41Z</time>
      </trkpt>
      <trkpt lat="44.1867" lon="3.16836">
        <ele>772.2</ele>
        <time>2021-09-30T14:25:43Z</time>
      </trkpt>
      <trkpt lat="44.18673" lon="3.16839">
        <ele>772.4</ele>
        <time>2021-09-30T14:25:44Z</time>
      </trkpt>
      <trkpt lat="44.18676" lon="3.16843">
        <ele>772.7</ele>
        <time>2021-09-30T14:25:46Z</time>
      </trkpt>
      <trkpt lat="44.18679" lon="3.16849">
        <ele>773</ele>
        <time>2021-09-30T14:25:47Z</time>
      </trkpt>
      <trkpt lat="44.1868" lon="3.16854">
        <ele>773.3</ele>
        <time>2021-09-30T14:25:48Z</time>
      </trkpt>
      <trkpt lat="44.18681" lon="3.16859">
        <ele>773.5</ele>
        <time>2021-09-30T14:25:49Z</time>
      </trkpt>
      <trkpt lat="44.18682" lon="3.16864">
        <ele>773.7</ele>
        <time>2021-09-30T14:25:51Z</time>
      </trkpt>
      <trkpt lat="44.18683" lon="3.16868">
        <ele>773.9</ele>
        <time>2021-09-30T14:25:52Z</time>
      </trkpt>
      <trkpt lat="44.18683" lon="3.16877">
        <ele>774.3</ele>
        <time>2021-09-30T14:25:54Z</time>
      </trkpt>
      <trkpt lat="44.18683" lon="3.16882">
        <ele>774.5</ele>
        <time>2021-09-30T14:25:55Z</time>
      </trkpt>
      <trkpt lat="44.18683" lon="3.16888">
        <ele>774.3</ele>
        <time>2021-09-30T14:25:57Z</time>
      </trkpt>
      <trkpt lat="44.18683" lon="3.16892">
        <ele>774.2</ele>
        <time>2021-09-30T14:25:58Z</time>
      </trkpt>
      <trkpt lat="44.18682" lon="3.16893">
        <ele>774.1</ele>
        <time>2021-09-30T14:25:59Z</time>
      </trkpt>
      <trkpt lat="44.18682" lon="3.16897">
        <ele>773.9</ele>
        <time>2021-09-30T14:26:00Z</time>
      </trkpt>
      <trkpt lat="44.18682" lon="3.16898">
        <ele>773.8</ele>
        <time>2021-09-30T14:26:02Z</time>
      </trkpt>
      <trkpt lat="44.18683" lon="3.16899">
        <ele>773.8</ele>
        <time>2021-09-30T14:26:04Z</time>
      </trkpt>
      <trkpt lat="44.18683" lon="3.169">
        <ele>773.7</ele>
        <time>2021-09-30T14:26:07Z</time>
      </trkpt>
      <trkpt lat="44.18682" lon="3.169">
        <ele>773.6</ele>
        <time>2021-09-30T14:26:12Z</time>
      </trkpt>
      <trkpt lat="44.18685" lon="3.16904">
        <ele>773.2</ele>
        <time>2021-09-30T14:26:56Z</time>
      </trkpt>
      <trkpt lat="44.18692" lon="3.16902">
        <ele>772.4</ele>
        <time>2021-09-30T14:26:58Z</time>
      </trkpt>
      <trkpt lat="44.18709" lon="3.16896">
        <ele>769.4</ele>
        <time>2021-09-30T14:27:00Z</time>
      </trkpt>
      <trkpt lat="44.18716" lon="3.16896">
        <ele>768.2</ele>
        <time>2021-09-30T14:27:01Z</time>
      </trkpt>
      <trkpt lat="44.18729" lon="3.16895">
        <ele>765.9</ele>
        <time>2021-09-30T14:27:03Z</time>
      </trkpt>
      <trkpt lat="44.18736" lon="3.16884">
        <ele>764.4</ele>
        <time>2021-09-30T14:27:05Z</time>
      </trkpt>
      <trkpt lat="44.18743" lon="3.16878">
        <ele>763.5</ele>
        <time>2021-09-30T14:27:06Z</time>
      </trkpt>
      <trkpt lat="44.1875" lon="3.16873">
        <ele>762.5</ele>
        <time>2021-09-30T14:27:07Z</time>
      </trkpt>
      <trkpt lat="44.18767" lon="3.16865">
        <ele>760.7</ele>
        <time>2021-09-30T14:27:09Z</time>
      </trkpt>
      <trkpt lat="44.18774" lon="3.16864">
        <ele>760.4</ele>
        <time>2021-09-30T14:27:10Z</time>
      </trkpt>
      <trkpt lat="44.18782" lon="3.16865">
        <ele>760.3</ele>
        <time>2021-09-30T14:27:11Z</time>
      </trkpt>
      <trkpt lat="44.1879" lon="3.16868">
        <ele>760.4</ele>
        <time>2021-09-30T14:27:13Z</time>
      </trkpt>
      <trkpt lat="44.18792" lon="3.16871">
        <ele>760.5</ele>
        <time>2021-09-30T14:27:14Z</time>
      </trkpt>
      <trkpt lat="44.18793" lon="3.16873">
        <ele>760.5</ele>
        <time>2021-09-30T14:27:15Z</time>
      </trkpt>
      <trkpt lat="44.18798" lon="3.16877">
        <ele>760.7</ele>
        <time>2021-09-30T14:27:17Z</time>
      </trkpt>
      <trkpt lat="44.18801" lon="3.16879">
        <ele>760.8</ele>
        <time>2021-09-30T14:27:18Z</time>
      </trkpt>
      <trkpt lat="44.18806" lon="3.16881">
        <ele>761</ele>
        <time>2021-09-30T14:27:19Z</time>
      </trkpt>
      <trkpt lat="44.1881" lon="3.16883">
        <ele>761.2</ele>
        <time>2021-09-30T14:27:20Z</time>
      </trkpt>
      <trkpt lat="44.18815" lon="3.16885">
        <ele>761.5</ele>
        <time>2021-09-30T14:27:22Z</time>
      </trkpt>
      <trkpt lat="44.18819" lon="3.16887">
        <ele>761.7</ele>
        <time>2021-09-30T14:27:23Z</time>
      </trkpt>
      <trkpt lat="44.18822" lon="3.1689">
        <ele>762</ele>
        <time>2021-09-30T14:27:24Z</time>
      </trkpt>
      <trkpt lat="44.18827" lon="3.16895">
        <ele>762.5</ele>
        <time>2021-09-30T14:27:25Z</time>
      </trkpt>
      <trkpt lat="44.18829" lon="3.16898">
        <ele>762.8</ele>
        <time>2021-09-30T14:27:26Z</time>
      </trkpt>
      <trkpt lat="44.18832" lon="3.16903">
        <ele>763.2</ele>
        <time>2021-09-30T14:27:28Z</time>
      </trkpt>
      <trkpt lat="44.18834" lon="3.16906">
        <ele>763.5</ele>
        <time>2021-09-30T14:27:29Z</time>
      </trkpt>
      <trkpt lat="44.18837" lon="3.16911">
        <ele>763.8</ele>
        <time>2021-09-30T14:27:30Z</time>
      </trkpt>
      <trkpt lat="44.1884" lon="3.16914">
        <ele>764.2</ele>
        <time>2021-09-30T14:27:31Z</time>
      </trkpt>
      <trkpt lat="44.18842" lon="3.16918">
        <ele>764.5</ele>
        <time>2021-09-30T14:27:32Z</time>
      </trkpt>
      <trkpt lat="44.18844" lon="3.16921">
        <ele>764.8</ele>
        <time>2021-09-30T14:27:34Z</time>
      </trkpt>
      <trkpt lat="44.18845" lon="3.16924">
        <ele>765</ele>
        <time>2021-09-30T14:27:35Z</time>
      </trkpt>
      <trkpt lat="44.18848" lon="3.1693">
        <ele>765.4</ele>
        <time>2021-09-30T14:27:37Z</time>
      </trkpt>
      <trkpt lat="44.18849" lon="3.16936">
        <ele>765.6</ele>
        <time>2021-09-30T14:27:38Z</time>
      </trkpt>
      <trkpt lat="44.1885" lon="3.16941">
        <ele>765.8</ele>
        <time>2021-09-30T14:27:39Z</time>
      </trkpt>
      <trkpt lat="44.18851" lon="3.16945">
        <ele>765.9</ele>
        <time>2021-09-30T14:27:40Z</time>
      </trkpt>
      <trkpt lat="44.18852" lon="3.16949">
        <ele>765.9</ele>
        <time>2021-09-30T14:27:42Z</time>
      </trkpt>
      <trkpt lat="44.18853" lon="3.16953">
        <ele>765.9</ele>
        <time>2021-09-30T14:27:43Z</time>
      </trkpt>
      <trkpt lat="44.18855" lon="3.16956">
        <ele>765.8</ele>
        <time>2021-09-30T14:27:44Z</time>
      </trkpt>
      <trkpt lat="44.18859" lon="3.16959">
        <ele>765.6</ele>
        <time>2021-09-30T14:27:46Z</time>
      </trkpt>
      <trkpt lat="44.18863" lon="3.1696">
        <ele>765.4</ele>
        <time>2021-09-30T14:27:47Z</time>
      </trkpt>
      <trkpt lat="44.18867" lon="3.16963">
        <ele>765.1</ele>
        <time>2021-09-30T14:27:49Z</time>
      </trkpt>
      <trkpt lat="44.1887" lon="3.16967">
        <ele>764.8</ele>
        <time>2021-09-30T14:27:51Z</time>
      </trkpt>
      <trkpt lat="44.18871" lon="3.1697">
        <ele>764.6</ele>
        <time>2021-09-30T14:27:52Z</time>
      </trkpt>
      <trkpt lat="44.18871" lon="3.16975">
        <ele>764.3</ele>
        <time>2021-09-30T14:27:54Z</time>
      </trkpt>
      <trkpt lat="44.18873" lon="3.1698">
        <ele>763.9</ele>
        <time>2021-09-30T14:27:55Z</time>
      </trkpt>
      <trkpt lat="44.1888" lon="3.16987">
        <ele>763</ele>
        <time>2021-09-30T14:27:56Z</time>
      </trkpt>
      <trkpt lat="44.18886" lon="3.16991">
        <ele>762.5</ele>
        <time>2021-09-30T14:27:57Z</time>
      </trkpt>
      <trkpt lat="44.18892" lon="3.16996">
        <ele>762.3</ele>
        <time>2021-09-30T14:27:58Z</time>
      </trkpt>
      <trkpt lat="44.189" lon="3.17004">
        <ele>762.4</ele>
        <time>2021-09-30T14:28:00Z</time>
      </trkpt>
      <trkpt lat="44.18902" lon="3.17008">
        <ele>762.4</ele>
        <time>2021-09-30T14:28:01Z</time>
      </trkpt>
      <trkpt lat="44.18905" lon="3.1701">
        <ele>762.4</ele>
        <time>2021-09-30T14:28:02Z</time>
      </trkpt>
      <trkpt lat="44.18909" lon="3.17012">
        <ele>762.3</ele>
        <time>2021-09-30T14:28:03Z</time>
      </trkpt>
      <trkpt lat="44.18914" lon="3.17014">
        <ele>762</ele>
        <time>2021-09-30T14:28:05Z</time>
      </trkpt>
      <trkpt lat="44.18918" lon="3.17017">
        <ele>761.6</ele>
        <time>2021-09-30T14:28:06Z</time>
      </trkpt>
      <trkpt lat="44.18922" lon="3.17017">
        <ele>761.1</ele>
        <time>2021-09-30T14:28:08Z</time>
      </trkpt>
      <trkpt lat="44.18927" lon="3.17019">
        <ele>760.6</ele>
        <time>2021-09-30T14:28:09Z</time>
      </trkpt>
      <trkpt lat="44.1893" lon="3.17022">
        <ele>760.3</ele>
        <time>2021-09-30T14:28:11Z</time>
      </trkpt>
      <trkpt lat="44.18932" lon="3.17025">
        <ele>760.1</ele>
        <time>2021-09-30T14:28:12Z</time>
      </trkpt>
      <trkpt lat="44.18934" lon="3.17026">
        <ele>760.1</ele>
        <time>2021-09-30T14:28:13Z</time>
      </trkpt>
      <trkpt lat="44.18938" lon="3.17029">
        <ele>760.1</ele>
        <time>2021-09-30T14:28:15Z</time>
      </trkpt>
      <trkpt lat="44.18941" lon="3.17031">
        <ele>760.2</ele>
        <time>2021-09-30T14:28:16Z</time>
      </trkpt>
      <trkpt lat="44.18943" lon="3.17032">
        <ele>760.3</ele>
        <time>2021-09-30T14:28:17Z</time>
      </trkpt>
      <trkpt lat="44.18945" lon="3.17036">
        <ele>760.5</ele>
        <time>2021-09-30T14:28:18Z</time>
      </trkpt>
      <trkpt lat="44.18945" lon="3.17038">
        <ele>760.6</ele>
        <time>2021-09-30T14:28:19Z</time>
      </trkpt>
      <trkpt lat="44.18947" lon="3.17041">
        <ele>760.8</ele>
        <time>2021-09-30T14:28:21Z</time>
      </trkpt>
      <trkpt lat="44.18948" lon="3.17041">
        <ele>760.9</ele>
        <time>2021-09-30T14:28:22Z</time>
      </trkpt>
      <trkpt lat="44.18949" lon="3.17042">
        <ele>761</ele>
        <time>2021-09-30T14:28:23Z</time>
      </trkpt>
      <trkpt lat="44.1895" lon="3.17043">
        <ele>761.1</ele>
        <time>2021-09-30T14:28:24Z</time>
      </trkpt>
      <trkpt lat="44.18953" lon="3.17044">
        <ele>761.3</ele>
        <time>2021-09-30T14:28:25Z</time>
      </trkpt>
      <trkpt lat="44.18954" lon="3.17044">
        <ele>761.4</ele>
        <time>2021-09-30T14:28:26Z</time>
      </trkpt>
      <trkpt lat="44.18957" lon="3.17047">
        <ele>761.7</ele>
        <time>2021-09-30T14:28:28Z</time>
      </trkpt>
      <trkpt lat="44.1896" lon="3.1705">
        <ele>761.9</ele>
        <time>2021-09-30T14:28:29Z</time>
      </trkpt>
      <trkpt lat="44.1896" lon="3.17052">
        <ele>762</ele>
        <time>2021-09-30T14:28:31Z</time>
      </trkpt>
      <trkpt lat="44.18962" lon="3.17054">
        <ele>762.1</ele>
        <time>2021-09-30T14:28:32Z</time>
      </trkpt>
      <trkpt lat="44.18965" lon="3.17058">
        <ele>762.3</ele>
        <time>2021-09-30T14:28:34Z</time>
      </trkpt>
      <trkpt lat="44.18967" lon="3.17061">
        <ele>762.4</ele>
        <time>2021-09-30T14:28:35Z</time>
      </trkpt>
      <trkpt lat="44.18969" lon="3.17065">
        <ele>762.5</ele>
        <time>2021-09-30T14:28:36Z</time>
      </trkpt>
      <trkpt lat="44.1897" lon="3.1707">
        <ele>762.7</ele>
        <time>2021-09-30T14:28:38Z</time>
      </trkpt>
      <trkpt lat="44.18971" lon="3.17073">
        <ele>762.8</ele>
        <time>2021-09-30T14:28:39Z</time>
      </trkpt>
      <trkpt lat="44.18972" lon="3.17079">
        <ele>763</ele>
        <time>2021-09-30T14:28:41Z</time>
      </trkpt>
      <trkpt lat="44.18971" lon="3.17081">
        <ele>763.1</ele>
        <time>2021-09-30T14:28:42Z</time>
      </trkpt>
      <trkpt lat="44.18971" lon="3.17082">
        <ele>763.1</ele>
        <time>2021-09-30T14:28:43Z</time>
      </trkpt>
      <trkpt lat="44.18972" lon="3.17086">
        <ele>763.3</ele>
        <time>2021-09-30T14:28:44Z</time>
      </trkpt>
      <trkpt lat="44.18973" lon="3.17091">
        <ele>763.4</ele>
        <time>2021-09-30T14:28:46Z</time>
      </trkpt>
      <trkpt lat="44.18973" lon="3.17093">
        <ele>763.5</ele>
        <time>2021-09-30T14:28:47Z</time>
      </trkpt>
      <trkpt lat="44.18974" lon="3.17098">
        <ele>763.5</ele>
        <time>2021-09-30T14:28:48Z</time>
      </trkpt>
      <trkpt lat="44.18974" lon="3.17104">
        <ele>763.5</ele>
        <time>2021-09-30T14:28:50Z</time>
      </trkpt>
      <trkpt lat="44.18974" lon="3.1711">
        <ele>763.4</ele>
        <time>2021-09-30T14:28:51Z</time>
      </trkpt>
      <trkpt lat="44.18975" lon="3.1712">
        <ele>762</ele>
        <time>2021-09-30T14:28:53Z</time>
      </trkpt>
      <trkpt lat="44.18976" lon="3.1714">
        <ele>760.9</ele>
        <time>2021-09-30T14:28:54Z</time>
      </trkpt>
      <trkpt lat="44.18973" lon="3.17148">
        <ele>760.5</ele>
        <time>2021-09-30T14:28:55Z</time>
      </trkpt>
      <trkpt lat="44.1897" lon="3.17158">
        <ele>760.1</ele>
        <time>2021-09-30T14:28:57Z</time>
      </trkpt>
      <trkpt lat="44.18974" lon="3.17165">
        <ele>759.8</ele>
        <time>2021-09-30T14:28:58Z</time>
      </trkpt>
      <trkpt lat="44.18974" lon="3.1717">
        <ele>759.5</ele>
        <time>2021-09-30T14:28:59Z</time>
      </trkpt>
      <trkpt lat="44.18979" lon="3.17186">
        <ele>758.1</ele>
        <time>2021-09-30T14:29:01Z</time>
      </trkpt>
      <trkpt lat="44.18979" lon="3.17194">
        <ele>757.4</ele>
        <time>2021-09-30T14:29:02Z</time>
      </trkpt>
      <trkpt lat="44.18981" lon="3.17206">
        <ele>756.2</ele>
        <time>2021-09-30T14:29:04Z</time>
      </trkpt>
      <trkpt lat="44.18984" lon="3.1721">
        <ele>755.5</ele>
        <time>2021-09-30T14:29:05Z</time>
      </trkpt>
      <trkpt lat="44.18984" lon="3.17218">
        <ele>754.7</ele>
        <time>2021-09-30T14:29:06Z</time>
      </trkpt>
      <trkpt lat="44.18984" lon="3.17223">
        <ele>754.1</ele>
        <time>2021-09-30T14:29:08Z</time>
      </trkpt>
      <trkpt lat="44.18984" lon="3.1724">
        <ele>752.8</ele>
        <time>2021-09-30T14:29:10Z</time>
      </trkpt>
      <trkpt lat="44.18983" lon="3.1725">
        <ele>752.5</ele>
        <time>2021-09-30T14:29:11Z</time>
      </trkpt>
      <trkpt lat="44.18981" lon="3.17255">
        <ele>752.4</ele>
        <time>2021-09-30T14:29:13Z</time>
      </trkpt>
      <trkpt lat="44.18981" lon="3.17262">
        <ele>752.4</ele>
        <time>2021-09-30T14:29:14Z</time>
      </trkpt>
      <trkpt lat="44.18981" lon="3.17267">
        <ele>752.4</ele>
        <time>2021-09-30T14:29:16Z</time>
      </trkpt>
      <trkpt lat="44.18977" lon="3.17271">
        <ele>752.5</ele>
        <time>2021-09-30T14:29:17Z</time>
      </trkpt>
      <trkpt lat="44.18973" lon="3.17271">
        <ele>752.6</ele>
        <time>2021-09-30T14:29:19Z</time>
      </trkpt>
      <trkpt lat="44.1897" lon="3.17272">
        <ele>752.7</ele>
        <time>2021-09-30T14:29:20Z</time>
      </trkpt>
      <trkpt lat="44.18965" lon="3.17275">
        <ele>752.8</ele>
        <time>2021-09-30T14:29:21Z</time>
      </trkpt>
      <trkpt lat="44.18961" lon="3.17281">
        <ele>752.8</ele>
        <time>2021-09-30T14:29:23Z</time>
      </trkpt>
      <trkpt lat="44.18958" lon="3.17289">
        <ele>752.8</ele>
        <time>2021-09-30T14:29:24Z</time>
      </trkpt>
      <trkpt lat="44.18959" lon="3.17304">
        <ele>752.4</ele>
        <time>2021-09-30T14:29:26Z</time>
      </trkpt>
      <trkpt lat="44.18959" lon="3.17311">
        <ele>752.2</ele>
        <time>2021-09-30T14:29:27Z</time>
      </trkpt>
      <trkpt lat="44.1896" lon="3.17315">
        <ele>752</ele>
        <time>2021-09-30T14:29:28Z</time>
      </trkpt>
      <trkpt lat="44.18971" lon="3.17328">
        <ele>750.7</ele>
        <time>2021-09-30T14:29:30Z</time>
      </trkpt>
      <trkpt lat="44.18974" lon="3.17333">
        <ele>750.3</ele>
        <time>2021-09-30T14:29:31Z</time>
      </trkpt>
      <trkpt lat="44.18974" lon="3.17338">
        <ele>750</ele>
        <time>2021-09-30T14:29:32Z</time>
      </trkpt>
      <trkpt lat="44.18975" lon="3.17345">
        <ele>749.7</ele>
        <time>2021-09-30T14:29:34Z</time>
      </trkpt>
      <trkpt lat="44.18977" lon="3.1735">
        <ele>749.7</ele>
        <time>2021-09-30T14:29:35Z</time>
      </trkpt>
      <trkpt lat="44.18979" lon="3.17355">
        <ele>749.7</ele>
        <time>2021-09-30T14:29:36Z</time>
      </trkpt>
      <trkpt lat="44.1898" lon="3.17357">
        <ele>749.8</ele>
        <time>2021-09-30T14:29:37Z</time>
      </trkpt>
      <trkpt lat="44.1898" lon="3.17361">
        <ele>749.9</ele>
        <time>2021-09-30T14:29:39Z</time>
      </trkpt>
      <trkpt lat="44.18982" lon="3.17365">
        <ele>750.1</ele>
        <time>2021-09-30T14:29:40Z</time>
      </trkpt>
      <trkpt lat="44.18984" lon="3.17369">
        <ele>750.2</ele>
        <time>2021-09-30T14:29:41Z</time>
      </trkpt>
      <trkpt lat="44.18987" lon="3.17372">
        <ele>750.3</ele>
        <time>2021-09-30T14:29:43Z</time>
      </trkpt>
      <trkpt lat="44.18991" lon="3.17374">
        <ele>750.4</ele>
        <time>2021-09-30T14:29:44Z</time>
      </trkpt>
      <trkpt lat="44.18995" lon="3.17375">
        <ele>750.4</ele>
        <time>2021-09-30T14:29:46Z</time>
      </trkpt>
      <trkpt lat="44.18999" lon="3.17374">
        <ele>750.2</ele>
        <time>2021-09-30T14:29:48Z</time>
      </trkpt>
      <trkpt lat="44.19004" lon="3.17373">
        <ele>750</ele>
        <time>2021-09-30T14:29:49Z</time>
      </trkpt>
      <trkpt lat="44.19007" lon="3.17369">
        <ele>749.6</ele>
        <time>2021-09-30T14:29:50Z</time>
      </trkpt>
      <trkpt lat="44.19014" lon="3.17358">
        <ele>748.2</ele>
        <time>2021-09-30T14:29:52Z</time>
      </trkpt>
      <trkpt lat="44.19023" lon="3.17348">
        <ele>746</ele>
        <time>2021-09-30T14:29:54Z</time>
      </trkpt>
      <trkpt lat="44.1903" lon="3.17344">
        <ele>744.7</ele>
        <time>2021-09-30T14:29:55Z</time>
      </trkpt>
      <trkpt lat="44.19041" lon="3.17342">
        <ele>743.6</ele>
        <time>2021-09-30T14:29:57Z</time>
      </trkpt>
      <trkpt lat="44.19047" lon="3.1734">
        <ele>743.5</ele>
        <time>2021-09-30T14:29:58Z</time>
      </trkpt>
      <trkpt lat="44.19051" lon="3.17341">
        <ele>743.7</ele>
        <time>2021-09-30T14:29:59Z</time>
      </trkpt>
      <trkpt lat="44.19054" lon="3.17344">
        <ele>744</ele>
        <time>2021-09-30T14:30:01Z</time>
      </trkpt>
      <trkpt lat="44.19056" lon="3.17347">
        <ele>744.3</ele>
        <time>2021-09-30T14:30:03Z</time>
      </trkpt>
      <trkpt lat="44.19059" lon="3.1735">
        <ele>744.7</ele>
        <time>2021-09-30T14:30:04Z</time>
      </trkpt>
      <trkpt lat="44.19061" lon="3.17354">
        <ele>745.2</ele>
        <time>2021-09-30T14:30:06Z</time>
      </trkpt>
      <trkpt lat="44.19062" lon="3.17355">
        <ele>745.3</ele>
        <time>2021-09-30T14:30:07Z</time>
      </trkpt>
      <trkpt lat="44.19065" lon="3.17357">
        <ele>745.8</ele>
        <time>2021-09-30T14:30:09Z</time>
      </trkpt>
      <trkpt lat="44.19066" lon="3.17358">
        <ele>745.9</ele>
        <time>2021-09-30T14:30:10Z</time>
      </trkpt>
      <trkpt lat="44.19068" lon="3.17359">
        <ele>746.2</ele>
        <time>2021-09-30T14:30:11Z</time>
      </trkpt>
      <trkpt lat="44.19069" lon="3.1736">
        <ele>746.4</ele>
        <time>2021-09-30T14:30:12Z</time>
      </trkpt>
      <trkpt lat="44.19071" lon="3.17361">
        <ele>746.7</ele>
        <time>2021-09-30T14:30:13Z</time>
      </trkpt>
      <trkpt lat="44.19074" lon="3.17363">
        <ele>747.2</ele>
        <time>2021-09-30T14:30:15Z</time>
      </trkpt>
      <trkpt lat="44.19077" lon="3.17364">
        <ele>747.6</ele>
        <time>2021-09-30T14:30:16Z</time>
      </trkpt>
      <trkpt lat="44.19078" lon="3.17364">
        <ele>747.7</ele>
        <time>2021-09-30T14:30:17Z</time>
      </trkpt>
      <trkpt lat="44.19081" lon="3.17365">
        <ele>748.1</ele>
        <time>2021-09-30T14:30:19Z</time>
      </trkpt>
      <trkpt lat="44.19082" lon="3.17365">
        <ele>748.3</ele>
        <time>2021-09-30T14:30:20Z</time>
      </trkpt>
      <trkpt lat="44.19084" lon="3.17365">
        <ele>748.5</ele>
        <time>2021-09-30T14:30:21Z</time>
      </trkpt>
      <trkpt lat="44.19087" lon="3.17365">
        <ele>748.9</ele>
        <time>2021-09-30T14:30:23Z</time>
      </trkpt>
      <trkpt lat="44.1909" lon="3.17365">
        <ele>749.3</ele>
        <time>2021-09-30T14:30:24Z</time>
      </trkpt>
      <trkpt lat="44.1909" lon="3.17366">
        <ele>749.4</ele>
        <time>2021-09-30T14:30:25Z</time>
      </trkpt>
      <trkpt lat="44.19092" lon="3.17367">
        <ele>749.6</ele>
        <time>2021-09-30T14:30:26Z</time>
      </trkpt>
      <trkpt lat="44.19093" lon="3.17368">
        <ele>749.8</ele>
        <time>2021-09-30T14:30:27Z</time>
      </trkpt>
      <trkpt lat="44.19094" lon="3.1737">
        <ele>750.1</ele>
        <time>2021-09-30T14:30:28Z</time>
      </trkpt>
      <trkpt lat="44.19095" lon="3.17372">
        <ele>750.3</ele>
        <time>2021-09-30T14:30:29Z</time>
      </trkpt>
      <trkpt lat="44.19097" lon="3.17374">
        <ele>750.6</ele>
        <time>2021-09-30T14:30:30Z</time>
      </trkpt>
      <trkpt lat="44.19099" lon="3.17377">
        <ele>750.9</ele>
        <time>2021-09-30T14:30:32Z</time>
      </trkpt>
      <trkpt lat="44.19102" lon="3.1738">
        <ele>751.4</ele>
        <time>2021-09-30T14:30:33Z</time>
      </trkpt>
      <trkpt lat="44.19105" lon="3.17384">
        <ele>751.9</ele>
        <time>2021-09-30T14:30:35Z</time>
      </trkpt>
      <trkpt lat="44.19106" lon="3.17386">
        <ele>752.1</ele>
        <time>2021-09-30T14:30:36Z</time>
      </trkpt>
      <trkpt lat="44.19107" lon="3.1739">
        <ele>752.5</ele>
        <time>2021-09-30T14:30:38Z</time>
      </trkpt>
      <trkpt lat="44.19108" lon="3.17391">
        <ele>752.6</ele>
        <time>2021-09-30T14:30:39Z</time>
      </trkpt>
      <trkpt lat="44.19109" lon="3.17394">
        <ele>752.9</ele>
        <time>2021-09-30T14:30:40Z</time>
      </trkpt>
      <trkpt lat="44.1911" lon="3.17396">
        <ele>753.2</ele>
        <time>2021-09-30T14:30:42Z</time>
      </trkpt>
      <trkpt lat="44.19112" lon="3.17399">
        <ele>753.5</ele>
        <time>2021-09-30T14:30:44Z</time>
      </trkpt>
      <trkpt lat="44.19114" lon="3.17402">
        <ele>753.9</ele>
        <time>2021-09-30T14:30:45Z</time>
      </trkpt>
      <trkpt lat="44.19116" lon="3.17404">
        <ele>754.1</ele>
        <time>2021-09-30T14:30:47Z</time>
      </trkpt>
      <trkpt lat="44.19116" lon="3.17406">
        <ele>754.2</ele>
        <time>2021-09-30T14:30:48Z</time>
      </trkpt>
      <trkpt lat="44.19116" lon="3.17408">
        <ele>754.4</ele>
        <time>2021-09-30T14:30:50Z</time>
      </trkpt>
      <trkpt lat="44.19116" lon="3.17411">
        <ele>754.6</ele>
        <time>2021-09-30T14:30:51Z</time>
      </trkpt>
      <trkpt lat="44.19115" lon="3.17414">
        <ele>754.8</ele>
        <time>2021-09-30T14:30:52Z</time>
      </trkpt>
      <trkpt lat="44.19115" lon="3.17417">
        <ele>755.1</ele>
        <time>2021-09-30T14:30:54Z</time>
      </trkpt>
      <trkpt lat="44.19115" lon="3.1742">
        <ele>755.3</ele>
        <time>2021-09-30T14:30:55Z</time>
      </trkpt>
      <trkpt lat="44.19115" lon="3.17425">
        <ele>755.6</ele>
        <time>2021-09-30T14:30:57Z</time>
      </trkpt>
      <trkpt lat="44.19115" lon="3.17428">
        <ele>755.9</ele>
        <time>2021-09-30T14:30:58Z</time>
      </trkpt>
      <trkpt lat="44.19115" lon="3.17431">
        <ele>756.1</ele>
        <time>2021-09-30T14:31:00Z</time>
      </trkpt>
      <trkpt lat="44.19116" lon="3.17436">
        <ele>756.4</ele>
        <time>2021-09-30T14:31:01Z</time>
      </trkpt>
      <trkpt lat="44.19116" lon="3.17437">
        <ele>756.5</ele>
        <time>2021-09-30T14:31:02Z</time>
      </trkpt>
      <trkpt lat="44.19119" lon="3.17441">
        <ele>756.8</ele>
        <time>2021-09-30T14:31:04Z</time>
      </trkpt>
      <trkpt lat="44.19121" lon="3.17445">
        <ele>757.1</ele>
        <time>2021-09-30T14:31:05Z</time>
      </trkpt>
      <trkpt lat="44.19123" lon="3.17448">
        <ele>757.3</ele>
        <time>2021-09-30T14:31:06Z</time>
      </trkpt>
      <trkpt lat="44.19125" lon="3.17451">
        <ele>757.5</ele>
        <time>2021-09-30T14:31:08Z</time>
      </trkpt>
      <trkpt lat="44.19129" lon="3.17455">
        <ele>757.8</ele>
        <time>2021-09-30T14:31:10Z</time>
      </trkpt>
      <trkpt lat="44.19131" lon="3.17458">
        <ele>758</ele>
        <time>2021-09-30T14:31:11Z</time>
      </trkpt>
      <trkpt lat="44.19132" lon="3.17459">
        <ele>758.1</ele>
        <time>2021-09-30T14:31:12Z</time>
      </trkpt>
      <trkpt lat="44.19134" lon="3.17463">
        <ele>758.3</ele>
        <time>2021-09-30T14:31:13Z</time>
      </trkpt>
      <trkpt lat="44.19135" lon="3.17465">
        <ele>758.4</ele>
        <time>2021-09-30T14:31:14Z</time>
      </trkpt>
      <trkpt lat="44.19135" lon="3.17468">
        <ele>758.6</ele>
        <time>2021-09-30T14:31:16Z</time>
      </trkpt>
      <trkpt lat="44.19136" lon="3.1747">
        <ele>758.7</ele>
        <time>2021-09-30T14:31:17Z</time>
      </trkpt>
      <trkpt lat="44.19138" lon="3.17476">
        <ele>759</ele>
        <time>2021-09-30T14:31:19Z</time>
      </trkpt>
      <trkpt lat="44.19138" lon="3.17483">
        <ele>759.3</ele>
        <time>2021-09-30T14:31:21Z</time>
      </trkpt>
      <trkpt lat="44.19138" lon="3.17488">
        <ele>759.5</ele>
        <time>2021-09-30T14:31:22Z</time>
      </trkpt>
      <trkpt lat="44.19137" lon="3.17492">
        <ele>759.7</ele>
        <time>2021-09-30T14:31:24Z</time>
      </trkpt>
      <trkpt lat="44.19137" lon="3.17496">
        <ele>759.9</ele>
        <time>2021-09-30T14:31:25Z</time>
      </trkpt>
      <trkpt lat="44.19136" lon="3.17502">
        <ele>760.1</ele>
        <time>2021-09-30T14:31:27Z</time>
      </trkpt>
      <trkpt lat="44.19135" lon="3.17504">
        <ele>760.2</ele>
        <time>2021-09-30T14:31:28Z</time>
      </trkpt>
      <trkpt lat="44.19134" lon="3.17507">
        <ele>760.4</ele>
        <time>2021-09-30T14:31:29Z</time>
      </trkpt>
      <trkpt lat="44.19132" lon="3.17512">
        <ele>760.5</ele>
        <time>2021-09-30T14:31:31Z</time>
      </trkpt>
      <trkpt lat="44.19132" lon="3.17516">
        <ele>760.7</ele>
        <time>2021-09-30T14:31:32Z</time>
      </trkpt>
      <trkpt lat="44.19131" lon="3.17521">
        <ele>760.8</ele>
        <time>2021-09-30T14:31:33Z</time>
      </trkpt>
      <trkpt lat="44.19131" lon="3.17524">
        <ele>760.9</ele>
        <time>2021-09-30T14:31:34Z</time>
      </trkpt>
      <trkpt lat="44.19131" lon="3.17527">
        <ele>760.9</ele>
        <time>2021-09-30T14:31:36Z</time>
      </trkpt>
      <trkpt lat="44.19131" lon="3.17532">
        <ele>761</ele>
        <time>2021-09-30T14:31:37Z</time>
      </trkpt>
      <trkpt lat="44.19129" lon="3.17537">
        <ele>761.1</ele>
        <time>2021-09-30T14:31:38Z</time>
      </trkpt>
      <trkpt lat="44.19126" lon="3.17542">
        <ele>761.2</ele>
        <time>2021-09-30T14:31:40Z</time>
      </trkpt>
      <trkpt lat="44.19122" lon="3.17548">
        <ele>761.2</ele>
        <time>2021-09-30T14:31:41Z</time>
      </trkpt>
      <trkpt lat="44.1912" lon="3.17553">
        <ele>761.2</ele>
        <time>2021-09-30T14:31:42Z</time>
      </trkpt>
      <trkpt lat="44.1912" lon="3.1756">
        <ele>761.1</ele>
        <time>2021-09-30T14:31:44Z</time>
      </trkpt>
      <trkpt lat="44.19119" lon="3.17566">
        <ele>761.1</ele>
        <time>2021-09-30T14:31:45Z</time>
      </trkpt>
      <trkpt lat="44.19117" lon="3.17571">
        <ele>760.9</ele>
        <time>2021-09-30T14:31:46Z</time>
      </trkpt>
      <trkpt lat="44.19115" lon="3.17579">
        <ele>760.7</ele>
        <time>2021-09-30T14:31:47Z</time>
      </trkpt>
      <trkpt lat="44.1911" lon="3.1759">
        <ele>760.2</ele>
        <time>2021-09-30T14:31:49Z</time>
      </trkpt>
      <trkpt lat="44.19107" lon="3.17597">
        <ele>759.9</ele>
        <time>2021-09-30T14:31:50Z</time>
      </trkpt>
      <trkpt lat="44.191" lon="3.17608">
        <ele>759.3</ele>
        <time>2021-09-30T14:31:52Z</time>
      </trkpt>
      <trkpt lat="44.19095" lon="3.1762">
        <ele>758.8</ele>
        <time>2021-09-30T14:31:54Z</time>
      </trkpt>
      <trkpt lat="44.19092" lon="3.17626">
        <ele>758.5</ele>
        <time>2021-09-30T14:31:55Z</time>
      </trkpt>
      <trkpt lat="44.1909" lon="3.17633">
        <ele>758.2</ele>
        <time>2021-09-30T14:31:56Z</time>
      </trkpt>
      <trkpt lat="44.19083" lon="3.17649">
        <ele>757.2</ele>
        <time>2021-09-30T14:31:58Z</time>
      </trkpt>
      <trkpt lat="44.19079" lon="3.17664">
        <ele>756.1</ele>
        <time>2021-09-30T14:32:00Z</time>
      </trkpt>
      <trkpt lat="44.19077" lon="3.17672">
        <ele>755.5</ele>
        <time>2021-09-30T14:32:01Z</time>
      </trkpt>
      <trkpt lat="44.19073" lon="3.17691">
        <ele>754.2</ele>
        <time>2021-09-30T14:32:03Z</time>
      </trkpt>
      <trkpt lat="44.1907" lon="3.177">
        <ele>753.6</ele>
        <time>2021-09-30T14:32:04Z</time>
      </trkpt>
      <trkpt lat="44.19065" lon="3.17708">
        <ele>752.9</ele>
        <time>2021-09-30T14:32:05Z</time>
      </trkpt>
      <trkpt lat="44.19057" lon="3.17729">
        <ele>751.3</ele>
        <time>2021-09-30T14:32:07Z</time>
      </trkpt>
      <trkpt lat="44.19048" lon="3.17749">
        <ele>749.3</ele>
        <time>2021-09-30T14:32:09Z</time>
      </trkpt>
      <trkpt lat="44.19043" lon="3.1777">
        <ele>746.6</ele>
        <time>2021-09-30T14:32:11Z</time>
      </trkpt>
      <trkpt lat="44.19042" lon="3.17776">
        <ele>745.8</ele>
        <time>2021-09-30T14:32:13Z</time>
      </trkpt>
      <trkpt lat="44.19045" lon="3.17781">
        <ele>744.8</ele>
        <time>2021-09-30T14:32:14Z</time>
      </trkpt>
      <trkpt lat="44.19046" lon="3.17783">
        <ele>744.4</ele>
        <time>2021-09-30T14:32:15Z</time>
      </trkpt>
      <trkpt lat="44.19046" lon="3.17789">
        <ele>743.4</ele>
        <time>2021-09-30T14:32:16Z</time>
      </trkpt>
      <trkpt lat="44.19044" lon="3.17794">
        <ele>742.3</ele>
        <time>2021-09-30T14:32:17Z</time>
      </trkpt>
      <trkpt lat="44.19041" lon="3.17803">
        <ele>740.8</ele>
        <time>2021-09-30T14:32:19Z</time>
      </trkpt>
      <trkpt lat="44.1904" lon="3.17808">
        <ele>740.1</ele>
        <time>2021-09-30T14:32:20Z</time>
      </trkpt>
      <trkpt lat="44.19045" lon="3.17815">
        <ele>739.2</ele>
        <time>2021-09-30T14:32:22Z</time>
      </trkpt>
      <trkpt lat="44.19048" lon="3.17814">
        <ele>739</ele>
        <time>2021-09-30T14:32:23Z</time>
      </trkpt>
      <trkpt lat="44.19052" lon="3.17813">
        <ele>738.7</ele>
        <time>2021-09-30T14:32:24Z</time>
      </trkpt>
      <trkpt lat="44.19055" lon="3.17813">
        <ele>738.6</ele>
        <time>2021-09-30T14:32:25Z</time>
      </trkpt>
      <trkpt lat="44.19058" lon="3.17812">
        <ele>738.4</ele>
        <time>2021-09-30T14:32:27Z</time>
      </trkpt>
      <trkpt lat="44.19062" lon="3.17811">
        <ele>738.3</ele>
        <time>2021-09-30T14:32:28Z</time>
      </trkpt>
      <trkpt lat="44.19066" lon="3.1781">
        <ele>738.3</ele>
        <time>2021-09-30T14:32:29Z</time>
      </trkpt>
      <trkpt lat="44.1907" lon="3.1781">
        <ele>738.2</ele>
        <time>2021-09-30T14:32:30Z</time>
      </trkpt>
      <trkpt lat="44.19074" lon="3.1781">
        <ele>738.2</ele>
        <time>2021-09-30T14:32:31Z</time>
      </trkpt>
      <trkpt lat="44.19078" lon="3.1781">
        <ele>738.2</ele>
        <time>2021-09-30T14:32:32Z</time>
      </trkpt>
      <trkpt lat="44.19082" lon="3.17811">
        <ele>738.1</ele>
        <time>2021-09-30T14:32:34Z</time>
      </trkpt>
      <trkpt lat="44.19088" lon="3.17814">
        <ele>737.7</ele>
        <time>2021-09-30T14:32:36Z</time>
      </trkpt>
      <trkpt lat="44.19094" lon="3.17816">
        <ele>737</ele>
        <time>2021-09-30T14:32:38Z</time>
      </trkpt>
      <trkpt lat="44.19097" lon="3.17817">
        <ele>736.4</ele>
        <time>2021-09-30T14:32:39Z</time>
      </trkpt>
      <trkpt lat="44.19099" lon="3.17816">
        <ele>735.8</ele>
        <time>2021-09-30T14:32:40Z</time>
      </trkpt>
      <trkpt lat="44.19103" lon="3.17815">
        <ele>734.7</ele>
        <time>2021-09-30T14:32:41Z</time>
      </trkpt>
      <trkpt lat="44.19106" lon="3.17813">
        <ele>733.6</ele>
        <time>2021-09-30T14:32:43Z</time>
      </trkpt>
      <trkpt lat="44.19111" lon="3.1781">
        <ele>732</ele>
        <time>2021-09-30T14:32:44Z</time>
      </trkpt>
      <trkpt lat="44.19116" lon="3.17808">
        <ele>730.4</ele>
        <time>2021-09-30T14:32:46Z</time>
      </trkpt>
      <trkpt lat="44.19117" lon="3.17807">
        <ele>729.8</ele>
        <time>2021-09-30T14:32:47Z</time>
      </trkpt>
      <trkpt lat="44.19119" lon="3.17806">
        <ele>729.3</ele>
        <time>2021-09-30T14:32:48Z</time>
      </trkpt>
      <trkpt lat="44.19121" lon="3.17803">
        <ele>728.4</ele>
        <time>2021-09-30T14:32:49Z</time>
      </trkpt>
      <trkpt lat="44.19125" lon="3.178">
        <ele>726.8</ele>
        <time>2021-09-30T14:32:51Z</time>
      </trkpt>
      <trkpt lat="44.19129" lon="3.17798">
        <ele>725.5</ele>
        <time>2021-09-30T14:32:52Z</time>
      </trkpt>
      <trkpt lat="44.19134" lon="3.17795">
        <ele>723.9</ele>
        <time>2021-09-30T14:32:54Z</time>
      </trkpt>
      <trkpt lat="44.19137" lon="3.17793">
        <ele>722.8</ele>
        <time>2021-09-30T14:32:55Z</time>
      </trkpt>
      <trkpt lat="44.19142" lon="3.17791">
        <ele>721.6</ele>
        <time>2021-09-30T14:32:56Z</time>
      </trkpt>
      <trkpt lat="44.19146" lon="3.17791">
        <ele>720.7</ele>
        <time>2021-09-30T14:32:58Z</time>
      </trkpt>
      <trkpt lat="44.19149" lon="3.17793">
        <ele>720</ele>
        <time>2021-09-30T14:32:59Z</time>
      </trkpt>
      <trkpt lat="44.19152" lon="3.17795">
        <ele>719.6</ele>
        <time>2021-09-30T14:33:01Z</time>
      </trkpt>
      <trkpt lat="44.19155" lon="3.17796">
        <ele>719.3</ele>
        <time>2021-09-30T14:33:02Z</time>
      </trkpt>
      <trkpt lat="44.1916" lon="3.17798">
        <ele>719.2</ele>
        <time>2021-09-30T14:33:03Z</time>
      </trkpt>
      <trkpt lat="44.19161" lon="3.17799">
        <ele>719.2</ele>
        <time>2021-09-30T14:33:04Z</time>
      </trkpt>
      <trkpt lat="44.19165" lon="3.17801">
        <ele>719.3</ele>
        <time>2021-09-30T14:33:06Z</time>
      </trkpt>
      <trkpt lat="44.19166" lon="3.17801">
        <ele>719.4</ele>
        <time>2021-09-30T14:33:07Z</time>
      </trkpt>
      <trkpt lat="44.19168" lon="3.17803">
        <ele>719.6</ele>
        <time>2021-09-30T14:33:09Z</time>
      </trkpt>
      <trkpt lat="44.19172" lon="3.17805">
        <ele>719.9</ele>
        <time>2021-09-30T14:33:10Z</time>
      </trkpt>
      <trkpt lat="44.19174" lon="3.17809">
        <ele>720.3</ele>
        <time>2021-09-30T14:33:12Z</time>
      </trkpt>
      <trkpt lat="44.19175" lon="3.1781">
        <ele>720.4</ele>
        <time>2021-09-30T14:33:13Z</time>
      </trkpt>
      <trkpt lat="44.19177" lon="3.17813">
        <ele>720.9</ele>
        <time>2021-09-30T14:33:14Z</time>
      </trkpt>
      <trkpt lat="44.19178" lon="3.17814">
        <ele>721</ele>
        <time>2021-09-30T14:33:15Z</time>
      </trkpt>
      <trkpt lat="44.1918" lon="3.17816">
        <ele>721.4</ele>
        <time>2021-09-30T14:33:16Z</time>
      </trkpt>
      <trkpt lat="44.19182" lon="3.17818">
        <ele>721.9</ele>
        <time>2021-09-30T14:33:18Z</time>
      </trkpt>
      <trkpt lat="44.19184" lon="3.17819">
        <ele>722.1</ele>
        <time>2021-09-30T14:33:19Z</time>
      </trkpt>
      <trkpt lat="44.19187" lon="3.1782">
        <ele>722.6</ele>
        <time>2021-09-30T14:33:21Z</time>
      </trkpt>
      <trkpt lat="44.19188" lon="3.17821">
        <ele>722.8</ele>
        <time>2021-09-30T14:33:22Z</time>
      </trkpt>
      <trkpt lat="44.1919" lon="3.17822">
        <ele>723.2</ele>
        <time>2021-09-30T14:33:23Z</time>
      </trkpt>
      <trkpt lat="44.19192" lon="3.17826">
        <ele>723.8</ele>
        <time>2021-09-30T14:33:24Z</time>
      </trkpt>
      <trkpt lat="44.19193" lon="3.17828">
        <ele>724.1</ele>
        <time>2021-09-30T14:33:25Z</time>
      </trkpt>
      <trkpt lat="44.19194" lon="3.17832">
        <ele>724.7</ele>
        <time>2021-09-30T14:33:27Z</time>
      </trkpt>
      <trkpt lat="44.19195" lon="3.17833">
        <ele>724.8</ele>
        <time>2021-09-30T14:33:28Z</time>
      </trkpt>
      <trkpt lat="44.19195" lon="3.17835">
        <ele>725.1</ele>
        <time>2021-09-30T14:33:29Z</time>
      </trkpt>
      <trkpt lat="44.19196" lon="3.17836">
        <ele>725.3</ele>
        <time>2021-09-30T14:33:30Z</time>
      </trkpt>
      <trkpt lat="44.19198" lon="3.17837">
        <ele>725.7</ele>
        <time>2021-09-30T14:33:32Z</time>
      </trkpt>
      <trkpt lat="44.19201" lon="3.1784">
        <ele>726.3</ele>
        <time>2021-09-30T14:33:33Z</time>
      </trkpt>
      <trkpt lat="44.19204" lon="3.17845">
        <ele>727.1</ele>
        <time>2021-09-30T14:33:35Z</time>
      </trkpt>
      <trkpt lat="44.19205" lon="3.17846">
        <ele>727.4</ele>
        <time>2021-09-30T14:33:36Z</time>
      </trkpt>
      <trkpt lat="44.19206" lon="3.17848">
        <ele>727.6</ele>
        <time>2021-09-30T14:33:37Z</time>
      </trkpt>
      <trkpt lat="44.19208" lon="3.17851">
        <ele>728.1</ele>
        <time>2021-09-30T14:33:39Z</time>
      </trkpt>
      <trkpt lat="44.1921" lon="3.17855">
        <ele>728.6</ele>
        <time>2021-09-30T14:33:40Z</time>
      </trkpt>
      <trkpt lat="44.19211" lon="3.17857">
        <ele>728.8</ele>
        <time>2021-09-30T14:33:41Z</time>
      </trkpt>
      <trkpt lat="44.19212" lon="3.17859">
        <ele>729.2</ele>
        <time>2021-09-30T14:33:43Z</time>
      </trkpt>
      <trkpt lat="44.19214" lon="3.17862">
        <ele>729.6</ele>
        <time>2021-09-30T14:33:45Z</time>
      </trkpt>
      <trkpt lat="44.19216" lon="3.17864">
        <ele>730</ele>
        <time>2021-09-30T14:33:47Z</time>
      </trkpt>
      <trkpt lat="44.19218" lon="3.17867">
        <ele>730.3</ele>
        <time>2021-09-30T14:33:48Z</time>
      </trkpt>
      <trkpt lat="44.19219" lon="3.17868">
        <ele>730.4</ele>
        <time>2021-09-30T14:33:49Z</time>
      </trkpt>
      <trkpt lat="44.1922" lon="3.17869">
        <ele>730.7</ele>
        <time>2021-09-30T14:33:50Z</time>
      </trkpt>
      <trkpt lat="44.19222" lon="3.17872">
        <ele>731</ele>
        <time>2021-09-30T14:33:52Z</time>
      </trkpt>
      <trkpt lat="44.19223" lon="3.17875">
        <ele>731.3</ele>
        <time>2021-09-30T14:33:53Z</time>
      </trkpt>
      <trkpt lat="44.19225" lon="3.17877">
        <ele>731.5</ele>
        <time>2021-09-30T14:33:55Z</time>
      </trkpt>
      <trkpt lat="44.19227" lon="3.1788">
        <ele>731.9</ele>
        <time>2021-09-30T14:33:56Z</time>
      </trkpt>
      <trkpt lat="44.19227" lon="3.17881">
        <ele>732</ele>
        <time>2021-09-30T14:33:57Z</time>
      </trkpt>
      <trkpt lat="44.19229" lon="3.17886">
        <ele>732.4</ele>
        <time>2021-09-30T14:34:00Z</time>
      </trkpt>
      <trkpt lat="44.1923" lon="3.17887">
        <ele>732.5</ele>
        <time>2021-09-30T14:34:01Z</time>
      </trkpt>
      <trkpt lat="44.1923" lon="3.17888">
        <ele>732.6</ele>
        <time>2021-09-30T14:34:02Z</time>
      </trkpt>
      <trkpt lat="44.19231" lon="3.17889">
        <ele>732.8</ele>
        <time>2021-09-30T14:34:03Z</time>
      </trkpt>
      <trkpt lat="44.19231" lon="3.17892">
        <ele>733</ele>
        <time>2021-09-30T14:34:05Z</time>
      </trkpt>
      <trkpt lat="44.19231" lon="3.17894">
        <ele>733.1</ele>
        <time>2021-09-30T14:34:07Z</time>
      </trkpt>
      <trkpt lat="44.19231" lon="3.17895">
        <ele>733.3</ele>
        <time>2021-09-30T14:34:08Z</time>
      </trkpt>
      <trkpt lat="44.19231" lon="3.17897">
        <ele>733.3</ele>
        <time>2021-09-30T14:34:10Z</time>
      </trkpt>
      <trkpt lat="44.19231" lon="3.17898">
        <ele>733.2</ele>
        <time>2021-09-30T14:34:12Z</time>
      </trkpt>
      <trkpt lat="44.19231" lon="3.179">
        <ele>733.2</ele>
        <time>2021-09-30T14:34:13Z</time>
      </trkpt>
      <trkpt lat="44.19231" lon="3.17902">
        <ele>733.1</ele>
        <time>2021-09-30T14:34:15Z</time>
      </trkpt>
      <trkpt lat="44.19231" lon="3.17903">
        <ele>733.1</ele>
        <time>2021-09-30T14:34:17Z</time>
      </trkpt>
      <trkpt lat="44.19231" lon="3.17905">
        <ele>733</ele>
        <time>2021-09-30T14:34:48Z</time>
      </trkpt>
      <trkpt lat="44.19232" lon="3.17907">
        <ele>732.9</ele>
        <time>2021-09-30T14:34:49Z</time>
      </trkpt>
      <trkpt lat="44.19231" lon="3.17912">
        <ele>732.7</ele>
        <time>2021-09-30T14:34:51Z</time>
      </trkpt>
      <trkpt lat="44.19232" lon="3.17917">
        <ele>732.4</ele>
        <time>2021-09-30T14:34:52Z</time>
      </trkpt>
      <trkpt lat="44.19232" lon="3.17924">
        <ele>731.9</ele>
        <time>2021-09-30T14:34:54Z</time>
      </trkpt>
      <trkpt lat="44.19234" lon="3.17931">
        <ele>731.4</ele>
        <time>2021-09-30T14:34:55Z</time>
      </trkpt>
      <trkpt lat="44.19234" lon="3.17935">
        <ele>731.1</ele>
        <time>2021-09-30T14:34:56Z</time>
      </trkpt>
      <trkpt lat="44.19232" lon="3.17943">
        <ele>730.4</ele>
        <time>2021-09-30T14:34:58Z</time>
      </trkpt>
      <trkpt lat="44.19228" lon="3.17956">
        <ele>729.4</ele>
        <time>2021-09-30T14:35:00Z</time>
      </trkpt>
      <trkpt lat="44.19226" lon="3.17962">
        <ele>728.9</ele>
        <time>2021-09-30T14:35:01Z</time>
      </trkpt>
      <trkpt lat="44.19224" lon="3.17973">
        <ele>727.6</ele>
        <time>2021-09-30T14:35:03Z</time>
      </trkpt>
      <trkpt lat="44.19222" lon="3.17978">
        <ele>726.9</ele>
        <time>2021-09-30T14:35:04Z</time>
      </trkpt>
      <trkpt lat="44.19221" lon="3.17983">
        <ele>726</ele>
        <time>2021-09-30T14:35:06Z</time>
      </trkpt>
      <trkpt lat="44.19221" lon="3.17988">
        <ele>725.3</ele>
        <time>2021-09-30T14:35:07Z</time>
      </trkpt>
      <trkpt lat="44.19219" lon="3.17993">
        <ele>724.1</ele>
        <time>2021-09-30T14:35:08Z</time>
      </trkpt>
      <trkpt lat="44.19217" lon="3.17997">
        <ele>723.2</ele>
        <time>2021-09-30T14:35:10Z</time>
      </trkpt>
      <trkpt lat="44.19213" lon="3.18002">
        <ele>721.5</ele>
        <time>2021-09-30T14:35:12Z</time>
      </trkpt>
      <trkpt lat="44.19209" lon="3.18006">
        <ele>719.8</ele>
        <time>2021-09-30T14:35:13Z</time>
      </trkpt>
      <trkpt lat="44.19205" lon="3.18011">
        <ele>718.3</ele>
        <time>2021-09-30T14:35:15Z</time>
      </trkpt>
      <trkpt lat="44.19203" lon="3.18015">
        <ele>717</ele>
        <time>2021-09-30T14:35:16Z</time>
      </trkpt>
      <trkpt lat="44.19199" lon="3.18023">
        <ele>714.8</ele>
        <time>2021-09-30T14:35:17Z</time>
      </trkpt>
      <trkpt lat="44.19195" lon="3.18029">
        <ele>713.3</ele>
        <time>2021-09-30T14:35:19Z</time>
      </trkpt>
      <trkpt lat="44.19192" lon="3.18036">
        <ele>712.1</ele>
        <time>2021-09-30T14:35:20Z</time>
      </trkpt>
      <trkpt lat="44.1919" lon="3.18039">
        <ele>711.4</ele>
        <time>2021-09-30T14:35:21Z</time>
      </trkpt>
      <trkpt lat="44.19188" lon="3.18041">
        <ele>711.1</ele>
        <time>2021-09-30T14:35:22Z</time>
      </trkpt>
      <trkpt lat="44.19186" lon="3.18044">
        <ele>710.9</ele>
        <time>2021-09-30T14:35:24Z</time>
      </trkpt>
      <trkpt lat="44.19183" lon="3.18047">
        <ele>710.6</ele>
        <time>2021-09-30T14:35:25Z</time>
      </trkpt>
      <trkpt lat="44.19182" lon="3.18049">
        <ele>710.5</ele>
        <time>2021-09-30T14:35:26Z</time>
      </trkpt>
      <trkpt lat="44.19177" lon="3.18064">
        <ele>710.2</ele>
        <time>2021-09-30T14:35:28Z</time>
      </trkpt>
      <trkpt lat="44.19173" lon="3.1807">
        <ele>709.9</ele>
        <time>2021-09-30T14:35:29Z</time>
      </trkpt>
      <trkpt lat="44.19172" lon="3.18078">
        <ele>709.5</ele>
        <time>2021-09-30T14:35:31Z</time>
      </trkpt>
      <trkpt lat="44.19172" lon="3.18084">
        <ele>709.2</ele>
        <time>2021-09-30T14:35:32Z</time>
      </trkpt>
      <trkpt lat="44.19172" lon="3.18093">
        <ele>708.8</ele>
        <time>2021-09-30T14:35:33Z</time>
      </trkpt>
      <trkpt lat="44.19173" lon="3.181">
        <ele>708.6</ele>
        <time>2021-09-30T14:35:35Z</time>
      </trkpt>
      <trkpt lat="44.19175" lon="3.18108">
        <ele>708.6</ele>
        <time>2021-09-30T14:35:37Z</time>
      </trkpt>
      <trkpt lat="44.19177" lon="3.18112">
        <ele>708.6</ele>
        <time>2021-09-30T14:35:38Z</time>
      </trkpt>
      <trkpt lat="44.1918" lon="3.18119">
        <ele>708.8</ele>
        <time>2021-09-30T14:35:40Z</time>
      </trkpt>
      <trkpt lat="44.19182" lon="3.18127">
        <ele>709</ele>
        <time>2021-09-30T14:35:42Z</time>
      </trkpt>
      <trkpt lat="44.19182" lon="3.18131">
        <ele>709.1</ele>
        <time>2021-09-30T14:35:43Z</time>
      </trkpt>
      <trkpt lat="44.19182" lon="3.18138">
        <ele>709.3</ele>
        <time>2021-09-30T14:35:45Z</time>
      </trkpt>
      <trkpt lat="44.19181" lon="3.18142">
        <ele>709.3</ele>
        <time>2021-09-30T14:35:46Z</time>
      </trkpt>
      <trkpt lat="44.19179" lon="3.18148">
        <ele>709.4</ele>
        <time>2021-09-30T14:35:47Z</time>
      </trkpt>
      <trkpt lat="44.19179" lon="3.18155">
        <ele>709.3</ele>
        <time>2021-09-30T14:35:49Z</time>
      </trkpt>
      <trkpt lat="44.19178" lon="3.18162">
        <ele>709.2</ele>
        <time>2021-09-30T14:35:50Z</time>
      </trkpt>
      <trkpt lat="44.19178" lon="3.18168">
        <ele>709</ele>
        <time>2021-09-30T14:35:51Z</time>
      </trkpt>
      <trkpt lat="44.19175" lon="3.18182">
        <ele>708.4</ele>
        <time>2021-09-30T14:35:53Z</time>
      </trkpt>
      <trkpt lat="44.19173" lon="3.1819">
        <ele>707.9</ele>
        <time>2021-09-30T14:35:54Z</time>
      </trkpt>
      <trkpt lat="44.19172" lon="3.18201">
        <ele>707.3</ele>
        <time>2021-09-30T14:35:56Z</time>
      </trkpt>
      <trkpt lat="44.1917" lon="3.18202">
        <ele>707.2</ele>
        <time>2021-09-30T14:35:58Z</time>
      </trkpt>
      <trkpt lat="44.19169" lon="3.18212">
        <ele>706.9</ele>
        <time>2021-09-30T14:36:00Z</time>
      </trkpt>
      <trkpt lat="44.19165" lon="3.18217">
        <ele>706.6</ele>
        <time>2021-09-30T14:36:01Z</time>
      </trkpt>
      <trkpt lat="44.19162" lon="3.1822">
        <ele>706.4</ele>
        <time>2021-09-30T14:36:02Z</time>
      </trkpt>
      <trkpt lat="44.19159" lon="3.18221">
        <ele>706.3</ele>
        <time>2021-09-30T14:36:03Z</time>
      </trkpt>
      <trkpt lat="44.19158" lon="3.18222">
        <ele>706.3</ele>
        <time>2021-09-30T14:36:04Z</time>
      </trkpt>
      <trkpt lat="44.19157" lon="3.18221">
        <ele>706.2</ele>
        <time>2021-09-30T14:36:06Z</time>
      </trkpt>
      <trkpt lat="44.19155" lon="3.18221">
        <ele>706.2</ele>
        <time>2021-09-30T14:36:07Z</time>
      </trkpt>
      <trkpt lat="44.19154" lon="3.18221">
        <ele>706.1</ele>
        <time>2021-09-30T14:36:08Z</time>
      </trkpt>
      <trkpt lat="44.19149" lon="3.18226">
        <ele>705.7</ele>
        <time>2021-09-30T14:36:09Z</time>
      </trkpt>
      <trkpt lat="44.19144" lon="3.1823">
        <ele>705.1</ele>
        <time>2021-09-30T14:36:11Z</time>
      </trkpt>
      <trkpt lat="44.19137" lon="3.18239">
        <ele>703.6</ele>
        <time>2021-09-30T14:36:12Z</time>
      </trkpt>
      <trkpt lat="44.19128" lon="3.1825">
        <ele>701</ele>
        <time>2021-09-30T14:36:14Z</time>
      </trkpt>
      <trkpt lat="44.19124" lon="3.18256">
        <ele>699.9</ele>
        <time>2021-09-30T14:36:15Z</time>
      </trkpt>
      <trkpt lat="44.1912" lon="3.1826">
        <ele>699</ele>
        <time>2021-09-30T14:36:16Z</time>
      </trkpt>
      <trkpt lat="44.19115" lon="3.18264">
        <ele>698.3</ele>
        <time>2021-09-30T14:36:18Z</time>
      </trkpt>
      <trkpt lat="44.19109" lon="3.18269">
        <ele>697.7</ele>
        <time>2021-09-30T14:36:19Z</time>
      </trkpt>
      <trkpt lat="44.19105" lon="3.1827">
        <ele>697.4</ele>
        <time>2021-09-30T14:36:21Z</time>
      </trkpt>
      <trkpt lat="44.19102" lon="3.18271">
        <ele>697.2</ele>
        <time>2021-09-30T14:36:22Z</time>
      </trkpt>
      <trkpt lat="44.19099" lon="3.18275">
        <ele>697</ele>
        <time>2021-09-30T14:36:24Z</time>
      </trkpt>
      <trkpt lat="44.19098" lon="3.18279">
        <ele>696.8</ele>
        <time>2021-09-30T14:36:25Z</time>
      </trkpt>
      <trkpt lat="44.19096" lon="3.18284">
        <ele>696.6</ele>
        <time>2021-09-30T14:36:26Z</time>
      </trkpt>
      <trkpt lat="44.19094" lon="3.18295">
        <ele>695.8</ele>
        <time>2021-09-30T14:36:27Z</time>
      </trkpt>
      <trkpt lat="44.19091" lon="3.18303">
        <ele>694.8</ele>
        <time>2021-09-30T14:36:29Z</time>
      </trkpt>
      <trkpt lat="44.19089" lon="3.18307">
        <ele>694.1</ele>
        <time>2021-09-30T14:36:30Z</time>
      </trkpt>
      <trkpt lat="44.19089" lon="3.18309">
        <ele>693.9</ele>
        <time>2021-09-30T14:36:31Z</time>
      </trkpt>
      <trkpt lat="44.1909" lon="3.1831">
        <ele>693.6</ele>
        <time>2021-09-30T14:36:33Z</time>
      </trkpt>
      <trkpt lat="44.19091" lon="3.18311">
        <ele>693.5</ele>
        <time>2021-09-30T14:36:34Z</time>
      </trkpt>
      <trkpt lat="44.19091" lon="3.1831">
        <ele>693.2</ele>
        <time>2021-09-30T14:36:41Z</time>
      </trkpt>
      <trkpt lat="44.19092" lon="3.1831">
        <ele>693.2</ele>
        <time>2021-09-30T14:36:43Z</time>
      </trkpt>
      <trkpt lat="44.19092" lon="3.18314">
        <ele>692.5</ele>
        <time>2021-09-30T14:37:14Z</time>
      </trkpt>
      <trkpt lat="44.19094" lon="3.18322">
        <ele>691.4</ele>
        <time>2021-09-30T14:37:16Z</time>
      </trkpt>
      <trkpt lat="44.19097" lon="3.18328">
        <ele>690.5</ele>
        <time>2021-09-30T14:37:18Z</time>
      </trkpt>
      <trkpt lat="44.19101" lon="3.18331">
        <ele>690</ele>
        <time>2021-09-30T14:37:19Z</time>
      </trkpt>
      <trkpt lat="44.19104" lon="3.18334">
        <ele>689.7</ele>
        <time>2021-09-30T14:37:20Z</time>
      </trkpt>
      <trkpt lat="44.19108" lon="3.18337">
        <ele>689.5</ele>
        <time>2021-09-30T14:37:22Z</time>
      </trkpt>
      <trkpt lat="44.1911" lon="3.18339">
        <ele>689.5</ele>
        <time>2021-09-30T14:37:23Z</time>
      </trkpt>
      <trkpt lat="44.1911" lon="3.1834">
        <ele>689.5</ele>
        <time>2021-09-30T14:37:25Z</time>
      </trkpt>
      <trkpt lat="44.19111" lon="3.18341">
        <ele>689.5</ele>
        <time>2021-09-30T14:37:26Z</time>
      </trkpt>
      <trkpt lat="44.19113" lon="3.18343">
        <ele>689.6</ele>
        <time>2021-09-30T14:37:28Z</time>
      </trkpt>
      <trkpt lat="44.19114" lon="3.18344">
        <ele>689.6</ele>
        <time>2021-09-30T14:37:29Z</time>
      </trkpt>
      <trkpt lat="44.19116" lon="3.18345">
        <ele>689.8</ele>
        <time>2021-09-30T14:37:30Z</time>
      </trkpt>
      <trkpt lat="44.19118" lon="3.18346">
        <ele>689.8</ele>
        <time>2021-09-30T14:37:31Z</time>
      </trkpt>
      <trkpt lat="44.19121" lon="3.18349">
        <ele>690.1</ele>
        <time>2021-09-30T14:37:32Z</time>
      </trkpt>
      <trkpt lat="44.19123" lon="3.1835">
        <ele>690.3</ele>
        <time>2021-09-30T14:37:33Z</time>
      </trkpt>
      <trkpt lat="44.19125" lon="3.18353">
        <ele>690.6</ele>
        <time>2021-09-30T14:37:35Z</time>
      </trkpt>
      <trkpt lat="44.19129" lon="3.18355">
        <ele>690.9</ele>
        <time>2021-09-30T14:37:37Z</time>
      </trkpt>
      <trkpt lat="44.1913" lon="3.18356">
        <ele>691</ele>
        <time>2021-09-30T14:37:38Z</time>
      </trkpt>
      <trkpt lat="44.19132" lon="3.1836">
        <ele>691.3</ele>
        <time>2021-09-30T14:37:40Z</time>
      </trkpt>
      <trkpt lat="44.19133" lon="3.18361">
        <ele>691.4</ele>
        <time>2021-09-30T14:37:41Z</time>
      </trkpt>
      <trkpt lat="44.19133" lon="3.18366">
        <ele>691.8</ele>
        <time>2021-09-30T14:37:43Z</time>
      </trkpt>
      <trkpt lat="44.19133" lon="3.18371">
        <ele>692.2</ele>
        <time>2021-09-30T14:37:44Z</time>
      </trkpt>
      <trkpt lat="44.19133" lon="3.18372">
        <ele>692.3</ele>
        <time>2021-09-30T14:37:45Z</time>
      </trkpt>
      <trkpt lat="44.19133" lon="3.1838">
        <ele>692.8</ele>
        <time>2021-09-30T14:37:47Z</time>
      </trkpt>
      <trkpt lat="44.19133" lon="3.18386">
        <ele>693.2</ele>
        <time>2021-09-30T14:37:48Z</time>
      </trkpt>
      <trkpt lat="44.19133" lon="3.18388">
        <ele>693.3</ele>
        <time>2021-09-30T14:37:49Z</time>
      </trkpt>
      <trkpt lat="44.19134" lon="3.18391">
        <ele>693.5</ele>
        <time>2021-09-30T14:37:50Z</time>
      </trkpt>
      <trkpt lat="44.19137" lon="3.18395">
        <ele>693.8</ele>
        <time>2021-09-30T14:37:52Z</time>
      </trkpt>
      <trkpt lat="44.19137" lon="3.18399">
        <ele>693.9</ele>
        <time>2021-09-30T14:37:53Z</time>
      </trkpt>
      <trkpt lat="44.19135" lon="3.18402">
        <ele>694</ele>
        <time>2021-09-30T14:37:54Z</time>
      </trkpt>
      <trkpt lat="44.19132" lon="3.18407">
        <ele>694.1</ele>
        <time>2021-09-30T14:37:56Z</time>
      </trkpt>
      <trkpt lat="44.19129" lon="3.18409">
        <ele>694.1</ele>
        <time>2021-09-30T14:37:57Z</time>
      </trkpt>
      <trkpt lat="44.19126" lon="3.18413">
        <ele>694.1</ele>
        <time>2021-09-30T14:37:59Z</time>
      </trkpt>
      <trkpt lat="44.19126" lon="3.18418">
        <ele>693.9</ele>
        <time>2021-09-30T14:38:00Z</time>
      </trkpt>
      <trkpt lat="44.19126" lon="3.1842">
        <ele>693.9</ele>
        <time>2021-09-30T14:38:01Z</time>
      </trkpt>
      <trkpt lat="44.19122" lon="3.18423">
        <ele>693.7</ele>
        <time>2021-09-30T14:38:03Z</time>
      </trkpt>
      <trkpt lat="44.1912" lon="3.18425">
        <ele>693.5</ele>
        <time>2021-09-30T14:38:04Z</time>
      </trkpt>
      <trkpt lat="44.19115" lon="3.18431">
        <ele>693.1</ele>
        <time>2021-09-30T14:38:05Z</time>
      </trkpt>
      <trkpt lat="44.19112" lon="3.18437">
        <ele>692.8</ele>
        <time>2021-09-30T14:38:07Z</time>
      </trkpt>
      <trkpt lat="44.19109" lon="3.1844">
        <ele>692.6</ele>
        <time>2021-09-30T14:38:08Z</time>
      </trkpt>
      <trkpt lat="44.19108" lon="3.18444">
        <ele>692.5</ele>
        <time>2021-09-30T14:38:09Z</time>
      </trkpt>
      <trkpt lat="44.1911" lon="3.1845">
        <ele>692.4</ele>
        <time>2021-09-30T14:38:11Z</time>
      </trkpt>
      <trkpt lat="44.19111" lon="3.18456">
        <ele>692.3</ele>
        <time>2021-09-30T14:38:12Z</time>
      </trkpt>
      <trkpt lat="44.19112" lon="3.18459">
        <ele>692.3</ele>
        <time>2021-09-30T14:38:14Z</time>
      </trkpt>
      <trkpt lat="44.19113" lon="3.18464">
        <ele>692.3</ele>
        <time>2021-09-30T14:38:16Z</time>
      </trkpt>
      <trkpt lat="44.19114" lon="3.18468">
        <ele>692.3</ele>
        <time>2021-09-30T14:38:17Z</time>
      </trkpt>
      <trkpt lat="44.19116" lon="3.18471">
        <ele>692.3</ele>
        <time>2021-09-30T14:38:19Z</time>
      </trkpt>
      <trkpt lat="44.19118" lon="3.18475">
        <ele>692.2</ele>
        <time>2021-09-30T14:38:20Z</time>
      </trkpt>
      <trkpt lat="44.1912" lon="3.18479">
        <ele>692.2</ele>
        <time>2021-09-30T14:38:22Z</time>
      </trkpt>
      <trkpt lat="44.19122" lon="3.18487">
        <ele>692</ele>
        <time>2021-09-30T14:38:24Z</time>
      </trkpt>
      <trkpt lat="44.19123" lon="3.18494">
        <ele>691.7</ele>
        <time>2021-09-30T14:38:25Z</time>
      </trkpt>
      <trkpt lat="44.19123" lon="3.18506">
        <ele>691.1</ele>
        <time>2021-09-30T14:38:27Z</time>
      </trkpt>
      <trkpt lat="44.19123" lon="3.18517">
        <ele>690.4</ele>
        <time>2021-09-30T14:38:29Z</time>
      </trkpt>
      <trkpt lat="44.19122" lon="3.18523">
        <ele>689.9</ele>
        <time>2021-09-30T14:38:30Z</time>
      </trkpt>
      <trkpt lat="44.19122" lon="3.18531">
        <ele>689.3</ele>
        <time>2021-09-30T14:38:32Z</time>
      </trkpt>
      <trkpt lat="44.19122" lon="3.18535">
        <ele>688.9</ele>
        <time>2021-09-30T14:38:33Z</time>
      </trkpt>
      <trkpt lat="44.19122" lon="3.1854">
        <ele>688.5</ele>
        <time>2021-09-30T14:38:34Z</time>
      </trkpt>
      <trkpt lat="44.19117" lon="3.18543">
        <ele>687.6</ele>
        <time>2021-09-30T14:38:36Z</time>
      </trkpt>
      <trkpt lat="44.19111" lon="3.18543">
        <ele>686.6</ele>
        <time>2021-09-30T14:38:38Z</time>
      </trkpt>
      <trkpt lat="44.19104" lon="3.18544">
        <ele>685.5</ele>
        <time>2021-09-30T14:38:40Z</time>
      </trkpt>
      <trkpt lat="44.19101" lon="3.18549">
        <ele>684.8</ele>
        <time>2021-09-30T14:38:41Z</time>
      </trkpt>
      <trkpt lat="44.19099" lon="3.18555">
        <ele>684.2</ele>
        <time>2021-09-30T14:38:43Z</time>
      </trkpt>
      <trkpt lat="44.19098" lon="3.18562">
        <ele>683.5</ele>
        <time>2021-09-30T14:38:44Z</time>
      </trkpt>
      <trkpt lat="44.19097" lon="3.18565">
        <ele>683.3</ele>
        <time>2021-09-30T14:38:45Z</time>
      </trkpt>
      <trkpt lat="44.19095" lon="3.1857">
        <ele>682.8</ele>
        <time>2021-09-30T14:38:46Z</time>
      </trkpt>
      <trkpt lat="44.19094" lon="3.18574">
        <ele>682.6</ele>
        <time>2021-09-30T14:38:48Z</time>
      </trkpt>
      <trkpt lat="44.19093" lon="3.18577">
        <ele>682.5</ele>
        <time>2021-09-30T14:38:49Z</time>
      </trkpt>
      <trkpt lat="44.19093" lon="3.1858">
        <ele>682.4</ele>
        <time>2021-09-30T14:38:51Z</time>
      </trkpt>
      <trkpt lat="44.19093" lon="3.18584">
        <ele>682.3</ele>
        <time>2021-09-30T14:38:52Z</time>
      </trkpt>
      <trkpt lat="44.19093" lon="3.18588">
        <ele>682.3</ele>
        <time>2021-09-30T14:38:53Z</time>
      </trkpt>
      <trkpt lat="44.19092" lon="3.18596">
        <ele>682.3</ele>
        <time>2021-09-30T14:38:54Z</time>
      </trkpt>
      <trkpt lat="44.19091" lon="3.18602">
        <ele>682.4</ele>
        <time>2021-09-30T14:38:56Z</time>
      </trkpt>
      <trkpt lat="44.19092" lon="3.18608">
        <ele>682.5</ele>
        <time>2021-09-30T14:38:57Z</time>
      </trkpt>
      <trkpt lat="44.19095" lon="3.18613">
        <ele>682.6</ele>
        <time>2021-09-30T14:38:59Z</time>
      </trkpt>
      <trkpt lat="44.19098" lon="3.18617">
        <ele>682.5</ele>
        <time>2021-09-30T14:39:00Z</time>
      </trkpt>
      <trkpt lat="44.19101" lon="3.18619">
        <ele>682.5</ele>
        <time>2021-09-30T14:39:01Z</time>
      </trkpt>
      <trkpt lat="44.19105" lon="3.1862">
        <ele>682.4</ele>
        <time>2021-09-30T14:39:02Z</time>
      </trkpt>
      <trkpt lat="44.19108" lon="3.18621">
        <ele>682.2</ele>
        <time>2021-09-30T14:39:03Z</time>
      </trkpt>
      <trkpt lat="44.19111" lon="3.18623">
        <ele>682.1</ele>
        <time>2021-09-30T14:39:04Z</time>
      </trkpt>
      <trkpt lat="44.19113" lon="3.18624">
        <ele>682</ele>
        <time>2021-09-30T14:39:05Z</time>
      </trkpt>
      <trkpt lat="44.19115" lon="3.18627">
        <ele>681.9</ele>
        <time>2021-09-30T14:39:07Z</time>
      </trkpt>
      <trkpt lat="44.19118" lon="3.18634">
        <ele>681.6</ele>
        <time>2021-09-30T14:39:09Z</time>
      </trkpt>
      <trkpt lat="44.19119" lon="3.18639">
        <ele>681.5</ele>
        <time>2021-09-30T14:39:10Z</time>
      </trkpt>
      <trkpt lat="44.1912" lon="3.18643">
        <ele>681.4</ele>
        <time>2021-09-30T14:39:11Z</time>
      </trkpt>
      <trkpt lat="44.19121" lon="3.18648">
        <ele>681.4</ele>
        <time>2021-09-30T14:39:13Z</time>
      </trkpt>
      <trkpt lat="44.19121" lon="3.18652">
        <ele>681.4</ele>
        <time>2021-09-30T14:39:14Z</time>
      </trkpt>
      <trkpt lat="44.19118" lon="3.18655">
        <ele>681.3</ele>
        <time>2021-09-30T14:39:15Z</time>
      </trkpt>
      <trkpt lat="44.19115" lon="3.1866">
        <ele>681.3</ele>
        <time>2021-09-30T14:39:17Z</time>
      </trkpt>
      <trkpt lat="44.19112" lon="3.18663">
        <ele>681.3</ele>
        <time>2021-09-30T14:39:18Z</time>
      </trkpt>
      <trkpt lat="44.19108" lon="3.18666">
        <ele>681.2</ele>
        <time>2021-09-30T14:39:19Z</time>
      </trkpt>
      <trkpt lat="44.19105" lon="3.1867">
        <ele>681.1</ele>
        <time>2021-09-30T14:39:20Z</time>
      </trkpt>
      <trkpt lat="44.19101" lon="3.18673">
        <ele>680.9</ele>
        <time>2021-09-30T14:39:22Z</time>
      </trkpt>
      <trkpt lat="44.19098" lon="3.18675">
        <ele>680.8</ele>
        <time>2021-09-30T14:39:23Z</time>
      </trkpt>
      <trkpt lat="44.19096" lon="3.18677">
        <ele>680.8</ele>
        <time>2021-09-30T14:39:24Z</time>
      </trkpt>
      <trkpt lat="44.19093" lon="3.18683">
        <ele>680.7</ele>
        <time>2021-09-30T14:39:26Z</time>
      </trkpt>
      <trkpt lat="44.19091" lon="3.1869">
        <ele>680.6</ele>
        <time>2021-09-30T14:39:27Z</time>
      </trkpt>
      <trkpt lat="44.19095" lon="3.18695">
        <ele>680.6</ele>
        <time>2021-09-30T14:39:29Z</time>
      </trkpt>
      <trkpt lat="44.19098" lon="3.187">
        <ele>680.6</ele>
        <time>2021-09-30T14:39:30Z</time>
      </trkpt>
      <trkpt lat="44.19102" lon="3.18703">
        <ele>680.7</ele>
        <time>2021-09-30T14:39:31Z</time>
      </trkpt>
      <trkpt lat="44.19105" lon="3.18707">
        <ele>680.8</ele>
        <time>2021-09-30T14:39:32Z</time>
      </trkpt>
      <trkpt lat="44.19107" lon="3.1871">
        <ele>680.9</ele>
        <time>2021-09-30T14:39:33Z</time>
      </trkpt>
      <trkpt lat="44.19109" lon="3.18712">
        <ele>681.1</ele>
        <time>2021-09-30T14:39:34Z</time>
      </trkpt>
      <trkpt lat="44.19111" lon="3.18714">
        <ele>681.2</ele>
        <time>2021-09-30T14:39:36Z</time>
      </trkpt>
      <trkpt lat="44.19112" lon="3.18715">
        <ele>681.3</ele>
        <time>2021-09-30T14:39:37Z</time>
      </trkpt>
      <trkpt lat="44.19115" lon="3.18718">
        <ele>681.6</ele>
        <time>2021-09-30T14:39:39Z</time>
      </trkpt>
      <trkpt lat="44.19117" lon="3.1872">
        <ele>681.8</ele>
        <time>2021-09-30T14:39:40Z</time>
      </trkpt>
      <trkpt lat="44.1912" lon="3.18724">
        <ele>682.3</ele>
        <time>2021-09-30T14:39:42Z</time>
      </trkpt>
      <trkpt lat="44.19123" lon="3.18727">
        <ele>682.6</ele>
        <time>2021-09-30T14:39:43Z</time>
      </trkpt>
      <trkpt lat="44.19124" lon="3.18728">
        <ele>682.7</ele>
        <time>2021-09-30T14:39:44Z</time>
      </trkpt>
      <trkpt lat="44.19126" lon="3.18732">
        <ele>683.1</ele>
        <time>2021-09-30T14:39:46Z</time>
      </trkpt>
      <trkpt lat="44.19129" lon="3.18736">
        <ele>683.4</ele>
        <time>2021-09-30T14:39:47Z</time>
      </trkpt>
      <trkpt lat="44.19131" lon="3.18738">
        <ele>683.6</ele>
        <time>2021-09-30T14:39:49Z</time>
      </trkpt>
      <trkpt lat="44.19134" lon="3.18741">
        <ele>683.8</ele>
        <time>2021-09-30T14:39:50Z</time>
      </trkpt>
      <trkpt lat="44.19136" lon="3.18747">
        <ele>683.9</ele>
        <time>2021-09-30T14:39:52Z</time>
      </trkpt>
      <trkpt lat="44.19134" lon="3.18753">
        <ele>684</ele>
        <time>2021-09-30T14:39:53Z</time>
      </trkpt>
      <trkpt lat="44.19134" lon="3.18755">
        <ele>684</ele>
        <time>2021-09-30T14:39:54Z</time>
      </trkpt>
      <trkpt lat="44.19131" lon="3.1876">
        <ele>683.8</ele>
        <time>2021-09-30T14:39:56Z</time>
      </trkpt>
      <trkpt lat="44.19127" lon="3.18764">
        <ele>683.6</ele>
        <time>2021-09-30T14:39:57Z</time>
      </trkpt>
      <trkpt lat="44.19123" lon="3.1877">
        <ele>683.2</ele>
        <time>2021-09-30T14:39:58Z</time>
      </trkpt>
      <trkpt lat="44.19118" lon="3.18775">
        <ele>682.8</ele>
        <time>2021-09-30T14:40:00Z</time>
      </trkpt>
      <trkpt lat="44.19116" lon="3.18778">
        <ele>682.6</ele>
        <time>2021-09-30T14:40:01Z</time>
      </trkpt>
      <trkpt lat="44.19114" lon="3.18782">
        <ele>682.4</ele>
        <time>2021-09-30T14:40:02Z</time>
      </trkpt>
      <trkpt lat="44.19111" lon="3.18786">
        <ele>682.1</ele>
        <time>2021-09-30T14:40:04Z</time>
      </trkpt>
      <trkpt lat="44.19109" lon="3.1879">
        <ele>681.9</ele>
        <time>2021-09-30T14:40:05Z</time>
      </trkpt>
      <trkpt lat="44.19108" lon="3.18793">
        <ele>681.8</ele>
        <time>2021-09-30T14:40:06Z</time>
      </trkpt>
      <trkpt lat="44.19105" lon="3.18797">
        <ele>681.5</ele>
        <time>2021-09-30T14:40:07Z</time>
      </trkpt>
      <trkpt lat="44.19101" lon="3.18803">
        <ele>681.3</ele>
        <time>2021-09-30T14:40:09Z</time>
      </trkpt>
      <trkpt lat="44.19099" lon="3.18806">
        <ele>681.1</ele>
        <time>2021-09-30T14:40:10Z</time>
      </trkpt>
      <trkpt lat="44.19097" lon="3.18811">
        <ele>681</ele>
        <time>2021-09-30T14:40:11Z</time>
      </trkpt>
      <trkpt lat="44.19097" lon="3.1882">
        <ele>680.7</ele>
        <time>2021-09-30T14:40:13Z</time>
      </trkpt>
      <trkpt lat="44.19097" lon="3.18827">
        <ele>680.5</ele>
        <time>2021-09-30T14:40:15Z</time>
      </trkpt>
      <trkpt lat="44.19099" lon="3.18831">
        <ele>680.3</ele>
        <time>2021-09-30T14:40:16Z</time>
      </trkpt>
      <trkpt lat="44.191" lon="3.18833">
        <ele>680.3</ele>
        <time>2021-09-30T14:40:17Z</time>
      </trkpt>
      <trkpt lat="44.19103" lon="3.18836">
        <ele>680.1</ele>
        <time>2021-09-30T14:40:18Z</time>
      </trkpt>
      <trkpt lat="44.19105" lon="3.18839">
        <ele>679.9</ele>
        <time>2021-09-30T14:40:19Z</time>
      </trkpt>
      <trkpt lat="44.19109" lon="3.18844">
        <ele>679.7</ele>
        <time>2021-09-30T14:40:21Z</time>
      </trkpt>
      <trkpt lat="44.19113" lon="3.18847">
        <ele>679.5</ele>
        <time>2021-09-30T14:40:22Z</time>
      </trkpt>
      <trkpt lat="44.19117" lon="3.18849">
        <ele>679.4</ele>
        <time>2021-09-30T14:40:23Z</time>
      </trkpt>
      <trkpt lat="44.19119" lon="3.18853">
        <ele>679.3</ele>
        <time>2021-09-30T14:40:25Z</time>
      </trkpt>
      <trkpt lat="44.19121" lon="3.18856">
        <ele>679.3</ele>
        <time>2021-09-30T14:40:26Z</time>
      </trkpt>
      <trkpt lat="44.19124" lon="3.18858">
        <ele>679.3</ele>
        <time>2021-09-30T14:40:27Z</time>
      </trkpt>
      <trkpt lat="44.19126" lon="3.18862">
        <ele>679.3</ele>
        <time>2021-09-30T14:40:29Z</time>
      </trkpt>
      <trkpt lat="44.19126" lon="3.18864">
        <ele>679.3</ele>
        <time>2021-09-30T14:40:30Z</time>
      </trkpt>
      <trkpt lat="44.19126" lon="3.18869">
        <ele>679.4</ele>
        <time>2021-09-30T14:40:31Z</time>
      </trkpt>
      <trkpt lat="44.19125" lon="3.18871">
        <ele>679.4</ele>
        <time>2021-09-30T14:40:32Z</time>
      </trkpt>
      <trkpt lat="44.19124" lon="3.18877">
        <ele>679.5</ele>
        <time>2021-09-30T14:40:34Z</time>
      </trkpt>
      <trkpt lat="44.19123" lon="3.18882">
        <ele>679.4</ele>
        <time>2021-09-30T14:40:35Z</time>
      </trkpt>
      <trkpt lat="44.19122" lon="3.18886">
        <ele>679.3</ele>
        <time>2021-09-30T14:40:36Z</time>
      </trkpt>
      <trkpt lat="44.19118" lon="3.1889">
        <ele>679</ele>
        <time>2021-09-30T14:40:37Z</time>
      </trkpt>
      <trkpt lat="44.1911" lon="3.18896">
        <ele>678</ele>
        <time>2021-09-30T14:40:39Z</time>
      </trkpt>
      <trkpt lat="44.19106" lon="3.18902">
        <ele>677.2</ele>
        <time>2021-09-30T14:40:40Z</time>
      </trkpt>
      <trkpt lat="44.19102" lon="3.18907">
        <ele>676.5</ele>
        <time>2021-09-30T14:40:41Z</time>
      </trkpt>
      <trkpt lat="44.19102" lon="3.18912">
        <ele>676.1</ele>
        <time>2021-09-30T14:40:43Z</time>
      </trkpt>
      <trkpt lat="44.19097" lon="3.18914">
        <ele>675.6</ele>
        <time>2021-09-30T14:40:44Z</time>
      </trkpt>
      <trkpt lat="44.1909" lon="3.18914">
        <ele>674.8</ele>
        <time>2021-09-30T14:40:46Z</time>
      </trkpt>
      <trkpt lat="44.19085" lon="3.18916">
        <ele>674.3</ele>
        <time>2021-09-30T14:40:47Z</time>
      </trkpt>
      <trkpt lat="44.19074" lon="3.18927">
        <ele>673.1</ele>
        <time>2021-09-30T14:40:49Z</time>
      </trkpt>
      <trkpt lat="44.1907" lon="3.18931">
        <ele>673</ele>
        <time>2021-09-30T14:40:51Z</time>
      </trkpt>
      <trkpt lat="44.19068" lon="3.18936">
        <ele>672.8</ele>
        <time>2021-09-30T14:40:52Z</time>
      </trkpt>
      <trkpt lat="44.19068" lon="3.18941">
        <ele>672.6</ele>
        <time>2021-09-30T14:40:53Z</time>
      </trkpt>
      <trkpt lat="44.19068" lon="3.18949">
        <ele>672.2</ele>
        <time>2021-09-30T14:40:54Z</time>
      </trkpt>
      <trkpt lat="44.19068" lon="3.18955">
        <ele>671.7</ele>
        <time>2021-09-30T14:40:56Z</time>
      </trkpt>
      <trkpt lat="44.19069" lon="3.18961">
        <ele>671.3</ele>
        <time>2021-09-30T14:40:57Z</time>
      </trkpt>
      <trkpt lat="44.1907" lon="3.18965">
        <ele>670.9</ele>
        <time>2021-09-30T14:40:58Z</time>
      </trkpt>
      <trkpt lat="44.19074" lon="3.18973">
        <ele>670.1</ele>
        <time>2021-09-30T14:41:00Z</time>
      </trkpt>
      <trkpt lat="44.19077" lon="3.18977">
        <ele>669.5</ele>
        <time>2021-09-30T14:41:01Z</time>
      </trkpt>
      <trkpt lat="44.19081" lon="3.18983">
        <ele>668.9</ele>
        <time>2021-09-30T14:41:02Z</time>
      </trkpt>
      <trkpt lat="44.19084" lon="3.18988">
        <ele>668.4</ele>
        <time>2021-09-30T14:41:03Z</time>
      </trkpt>
      <trkpt lat="44.19088" lon="3.18993">
        <ele>667.7</ele>
        <time>2021-09-30T14:41:04Z</time>
      </trkpt>
      <trkpt lat="44.19091" lon="3.19">
        <ele>667.1</ele>
        <time>2021-09-30T14:41:05Z</time>
      </trkpt>
      <trkpt lat="44.19092" lon="3.19007">
        <ele>666.5</ele>
        <time>2021-09-30T14:41:06Z</time>
      </trkpt>
      <trkpt lat="44.1909" lon="3.19012">
        <ele>665.9</ele>
        <time>2021-09-30T14:41:08Z</time>
      </trkpt>
      <trkpt lat="44.19088" lon="3.19017">
        <ele>665.2</ele>
        <time>2021-09-30T14:41:09Z</time>
      </trkpt>
      <trkpt lat="44.19076" lon="3.19025">
        <ele>662.8</ele>
        <time>2021-09-30T14:41:10Z</time>
      </trkpt>
      <trkpt lat="44.19073" lon="3.19032">
        <ele>661.8</ele>
        <time>2021-09-30T14:41:11Z</time>
      </trkpt>
      <trkpt lat="44.19071" lon="3.19047">
        <ele>660</ele>
        <time>2021-09-30T14:41:13Z</time>
      </trkpt>
      <trkpt lat="44.19068" lon="3.19053">
        <ele>659.2</ele>
        <time>2021-09-30T14:41:14Z</time>
      </trkpt>
      <trkpt lat="44.19063" lon="3.19063">
        <ele>657.8</ele>
        <time>2021-09-30T14:41:16Z</time>
      </trkpt>
      <trkpt lat="44.19052" lon="3.1907">
        <ele>656.1</ele>
        <time>2021-09-30T14:41:18Z</time>
      </trkpt>
      <trkpt lat="44.19043" lon="3.19081">
        <ele>654.4</ele>
        <time>2021-09-30T14:41:20Z</time>
      </trkpt>
      <trkpt lat="44.19039" lon="3.19086">
        <ele>653.8</ele>
        <time>2021-09-30T14:41:21Z</time>
      </trkpt>
      <trkpt lat="44.19032" lon="3.19096">
        <ele>652.6</ele>
        <time>2021-09-30T14:41:23Z</time>
      </trkpt>
      <trkpt lat="44.19028" lon="3.19109">
        <ele>651.4</ele>
        <time>2021-09-30T14:41:25Z</time>
      </trkpt>
      <trkpt lat="44.19026" lon="3.19115">
        <ele>650.7</ele>
        <time>2021-09-30T14:41:26Z</time>
      </trkpt>
      <trkpt lat="44.19023" lon="3.19119">
        <ele>650.2</ele>
        <time>2021-09-30T14:41:27Z</time>
      </trkpt>
      <trkpt lat="44.1902" lon="3.19129">
        <ele>649.2</ele>
        <time>2021-09-30T14:41:29Z</time>
      </trkpt>
      <trkpt lat="44.19018" lon="3.19137">
        <ele>648.5</ele>
        <time>2021-09-30T14:41:30Z</time>
      </trkpt>
      <trkpt lat="44.19017" lon="3.19152">
        <ele>647.8</ele>
        <time>2021-09-30T14:41:32Z</time>
      </trkpt>
      <trkpt lat="44.19014" lon="3.1916">
        <ele>647.6</ele>
        <time>2021-09-30T14:41:34Z</time>
      </trkpt>
      <trkpt lat="44.19012" lon="3.19163">
        <ele>647.5</ele>
        <time>2021-09-30T14:41:35Z</time>
      </trkpt>
      <trkpt lat="44.19012" lon="3.1917">
        <ele>647.3</ele>
        <time>2021-09-30T14:41:37Z</time>
      </trkpt>
      <trkpt lat="44.19012" lon="3.19173">
        <ele>647.1</ele>
        <time>2021-09-30T14:41:38Z</time>
      </trkpt>
      <trkpt lat="44.19014" lon="3.1918">
        <ele>646.8</ele>
        <time>2021-09-30T14:41:40Z</time>
      </trkpt>
      <trkpt lat="44.19015" lon="3.19184">
        <ele>646.7</ele>
        <time>2021-09-30T14:41:41Z</time>
      </trkpt>
      <trkpt lat="44.19018" lon="3.19187">
        <ele>646.4</ele>
        <time>2021-09-30T14:41:42Z</time>
      </trkpt>
      <trkpt lat="44.19029" lon="3.192">
        <ele>645.7</ele>
        <time>2021-09-30T14:41:44Z</time>
      </trkpt>
      <trkpt lat="44.19036" lon="3.19211">
        <ele>645.3</ele>
        <time>2021-09-30T14:41:46Z</time>
      </trkpt>
      <trkpt lat="44.19037" lon="3.19214">
        <ele>645.1</ele>
        <time>2021-09-30T14:41:47Z</time>
      </trkpt>
      <trkpt lat="44.19038" lon="3.19222">
        <ele>644.8</ele>
        <time>2021-09-30T14:41:49Z</time>
      </trkpt>
      <trkpt lat="44.19037" lon="3.19229">
        <ele>644.4</ele>
        <time>2021-09-30T14:41:50Z</time>
      </trkpt>
      <trkpt lat="44.19035" lon="3.19236">
        <ele>643.8</ele>
        <time>2021-09-30T14:41:51Z</time>
      </trkpt>
      <trkpt lat="44.19026" lon="3.19247">
        <ele>642.2</ele>
        <time>2021-09-30T14:41:53Z</time>
      </trkpt>
      <trkpt lat="44.19023" lon="3.19251">
        <ele>641.6</ele>
        <time>2021-09-30T14:41:54Z</time>
      </trkpt>
      <trkpt lat="44.19015" lon="3.19258">
        <ele>640.5</ele>
        <time>2021-09-30T14:41:56Z</time>
      </trkpt>
      <trkpt lat="44.19008" lon="3.19268">
        <ele>639</ele>
        <time>2021-09-30T14:41:58Z</time>
      </trkpt>
      <trkpt lat="44.19004" lon="3.19274">
        <ele>638.2</ele>
        <time>2021-09-30T14:41:59Z</time>
      </trkpt>
      <trkpt lat="44.19003" lon="3.19277">
        <ele>637.8</ele>
        <time>2021-09-30T14:42:00Z</time>
      </trkpt>
      <trkpt lat="44.19001" lon="3.19279">
        <ele>637.5</ele>
        <time>2021-09-30T14:42:01Z</time>
      </trkpt>
      <trkpt lat="44.18999" lon="3.19282">
        <ele>637</ele>
        <time>2021-09-30T14:42:02Z</time>
      </trkpt>
      <trkpt lat="44.1899" lon="3.19294">
        <ele>635.3</ele>
        <time>2021-09-30T14:42:04Z</time>
      </trkpt>
      <trkpt lat="44.1898" lon="3.19306">
        <ele>633.4</ele>
        <time>2021-09-30T14:42:06Z</time>
      </trkpt>
      <trkpt lat="44.18977" lon="3.19313">
        <ele>632.4</ele>
        <time>2021-09-30T14:42:07Z</time>
      </trkpt>
      <trkpt lat="44.18975" lon="3.1932">
        <ele>631.2</ele>
        <time>2021-09-30T14:42:08Z</time>
      </trkpt>
      <trkpt lat="44.18968" lon="3.19336">
        <ele>628</ele>
        <time>2021-09-30T14:42:10Z</time>
      </trkpt>
      <trkpt lat="44.18966" lon="3.19345">
        <ele>626.3</ele>
        <time>2021-09-30T14:42:11Z</time>
      </trkpt>
      <trkpt lat="44.18964" lon="3.19355">
        <ele>624.5</ele>
        <time>2021-09-30T14:42:13Z</time>
      </trkpt>
      <trkpt lat="44.18964" lon="3.19359">
        <ele>623.8</ele>
        <time>2021-09-30T14:42:15Z</time>
      </trkpt>
      <trkpt lat="44.18963" lon="3.19365">
        <ele>623</ele>
        <time>2021-09-30T14:42:16Z</time>
      </trkpt>
      <trkpt lat="44.18961" lon="3.1937">
        <ele>622.2</ele>
        <time>2021-09-30T14:42:18Z</time>
      </trkpt>
      <trkpt lat="44.18959" lon="3.19374">
        <ele>621.8</ele>
        <time>2021-09-30T14:42:19Z</time>
      </trkpt>
      <trkpt lat="44.18956" lon="3.19381">
        <ele>620.9</ele>
        <time>2021-09-30T14:42:20Z</time>
      </trkpt>
      <trkpt lat="44.18955" lon="3.19386">
        <ele>620.2</ele>
        <time>2021-09-30T14:42:21Z</time>
      </trkpt>
      <trkpt lat="44.18957" lon="3.19393">
        <ele>619.2</ele>
        <time>2021-09-30T14:42:23Z</time>
      </trkpt>
      <trkpt lat="44.18961" lon="3.19401">
        <ele>617.6</ele>
        <time>2021-09-30T14:42:25Z</time>
      </trkpt>
      <trkpt lat="44.18963" lon="3.19406">
        <ele>616.7</ele>
        <time>2021-09-30T14:42:26Z</time>
      </trkpt>
      <trkpt lat="44.18964" lon="3.19411">
        <ele>615.7</ele>
        <time>2021-09-30T14:42:27Z</time>
      </trkpt>
      <trkpt lat="44.18966" lon="3.19419">
        <ele>614.4</ele>
        <time>2021-09-30T14:42:28Z</time>
      </trkpt>
      <trkpt lat="44.18964" lon="3.19425">
        <ele>613.3</ele>
        <time>2021-09-30T14:42:29Z</time>
      </trkpt>
      <trkpt lat="44.18961" lon="3.19432">
        <ele>611.9</ele>
        <time>2021-09-30T14:42:31Z</time>
      </trkpt>
      <trkpt lat="44.18959" lon="3.19442">
        <ele>610.4</ele>
        <time>2021-09-30T14:42:32Z</time>
      </trkpt>
      <trkpt lat="44.18959" lon="3.19463">
        <ele>607.4</ele>
        <time>2021-09-30T14:42:34Z</time>
      </trkpt>
      <trkpt lat="44.18959" lon="3.19482">
        <ele>605</ele>
        <time>2021-09-30T14:42:36Z</time>
      </trkpt>
      <trkpt lat="44.18959" lon="3.19491">
        <ele>604.1</ele>
        <time>2021-09-30T14:42:37Z</time>
      </trkpt>
      <trkpt lat="44.18959" lon="3.19508">
        <ele>602.3</ele>
        <time>2021-09-30T14:42:39Z</time>
      </trkpt>
      <trkpt lat="44.18959" lon="3.19517">
        <ele>601.5</ele>
        <time>2021-09-30T14:42:40Z</time>
      </trkpt>
      <trkpt lat="44.1896" lon="3.19533">
        <ele>599.9</ele>
        <time>2021-09-30T14:42:42Z</time>
      </trkpt>
      <trkpt lat="44.1896" lon="3.19542">
        <ele>599.1</ele>
        <time>2021-09-30T14:42:43Z</time>
      </trkpt>
      <trkpt lat="44.18962" lon="3.19558">
        <ele>597.4</ele>
        <time>2021-09-30T14:42:45Z</time>
      </trkpt>
      <trkpt lat="44.18963" lon="3.19566">
        <ele>596.5</ele>
        <time>2021-09-30T14:42:46Z</time>
      </trkpt>
      <trkpt lat="44.18966" lon="3.1958">
        <ele>594.7</ele>
        <time>2021-09-30T14:42:48Z</time>
      </trkpt>
      <trkpt lat="44.18967" lon="3.19588">
        <ele>593.7</ele>
        <time>2021-09-30T14:42:49Z</time>
      </trkpt>
      <trkpt lat="44.18966" lon="3.19597">
        <ele>592.7</ele>
        <time>2021-09-30T14:42:51Z</time>
      </trkpt>
      <trkpt lat="44.18967" lon="3.1961">
        <ele>591.3</ele>
        <time>2021-09-30T14:42:53Z</time>
      </trkpt>
      <trkpt lat="44.18969" lon="3.19625">
        <ele>589.9</ele>
        <time>2021-09-30T14:42:55Z</time>
      </trkpt>
      <trkpt lat="44.18971" lon="3.19641">
        <ele>588.7</ele>
        <time>2021-09-30T14:42:57Z</time>
      </trkpt>
      <trkpt lat="44.18973" lon="3.19653">
        <ele>587.9</ele>
        <time>2021-09-30T14:42:59Z</time>
      </trkpt>
      <trkpt lat="44.18971" lon="3.19657">
        <ele>587.5</ele>
        <time>2021-09-30T14:43:00Z</time>
      </trkpt>
      <trkpt lat="44.18971" lon="3.1966">
        <ele>587.4</ele>
        <time>2021-09-30T14:43:01Z</time>
      </trkpt>
      <trkpt lat="44.18973" lon="3.19671">
        <ele>586.7</ele>
        <time>2021-09-30T14:43:03Z</time>
      </trkpt>
      <trkpt lat="44.18971" lon="3.19677">
        <ele>586.4</ele>
        <time>2021-09-30T14:43:04Z</time>
      </trkpt>
      <trkpt lat="44.18971" lon="3.19683">
        <ele>586.2</ele>
        <time>2021-09-30T14:43:05Z</time>
      </trkpt>
      <trkpt lat="44.18971" lon="3.19686">
        <ele>586.2</ele>
        <time>2021-09-30T14:43:06Z</time>
      </trkpt>
      <trkpt lat="44.18971" lon="3.19692">
        <ele>586.1</ele>
        <time>2021-09-30T14:43:08Z</time>
      </trkpt>
      <trkpt lat="44.1897" lon="3.19698">
        <ele>586</ele>
        <time>2021-09-30T14:43:09Z</time>
      </trkpt>
      <trkpt lat="44.1897" lon="3.197">
        <ele>586</ele>
        <time>2021-09-30T14:43:10Z</time>
      </trkpt>
      <trkpt lat="44.18969" lon="3.19704">
        <ele>585.9</ele>
        <time>2021-09-30T14:43:11Z</time>
      </trkpt>
      <trkpt lat="44.18968" lon="3.19709">
        <ele>585.8</ele>
        <time>2021-09-30T14:43:13Z</time>
      </trkpt>
      <trkpt lat="44.18965" lon="3.19714">
        <ele>585.5</ele>
        <time>2021-09-30T14:43:15Z</time>
      </trkpt>
      <trkpt lat="44.18964" lon="3.19719">
        <ele>585.3</ele>
        <time>2021-09-30T14:43:16Z</time>
      </trkpt>
      <trkpt lat="44.18961" lon="3.19732">
        <ele>584.1</ele>
        <time>2021-09-30T14:43:18Z</time>
      </trkpt>
      <trkpt lat="44.1896" lon="3.19739">
        <ele>583.4</ele>
        <time>2021-09-30T14:43:19Z</time>
      </trkpt>
      <trkpt lat="44.18959" lon="3.19747">
        <ele>582.5</ele>
        <time>2021-09-30T14:43:20Z</time>
      </trkpt>
      <trkpt lat="44.18955" lon="3.19758">
        <ele>581.2</ele>
        <time>2021-09-30T14:43:22Z</time>
      </trkpt>
      <trkpt lat="44.18954" lon="3.19765">
        <ele>580.5</ele>
        <time>2021-09-30T14:43:23Z</time>
      </trkpt>
      <trkpt lat="44.18952" lon="3.19779">
        <ele>579.2</ele>
        <time>2021-09-30T14:43:25Z</time>
      </trkpt>
      <trkpt lat="44.18952" lon="3.19784">
        <ele>578.7</ele>
        <time>2021-09-30T14:43:26Z</time>
      </trkpt>
      <trkpt lat="44.18952" lon="3.19786">
        <ele>578.5</ele>
        <time>2021-09-30T14:43:27Z</time>
      </trkpt>
      <trkpt lat="44.18954" lon="3.19792">
        <ele>577.9</ele>
        <time>2021-09-30T14:43:29Z</time>
      </trkpt>
      <trkpt lat="44.18957" lon="3.198">
        <ele>577.2</ele>
        <time>2021-09-30T14:43:30Z</time>
      </trkpt>
      <trkpt lat="44.18959" lon="3.19805">
        <ele>576.8</ele>
        <time>2021-09-30T14:43:32Z</time>
      </trkpt>
      <trkpt lat="44.18961" lon="3.19811">
        <ele>576.4</ele>
        <time>2021-09-30T14:43:33Z</time>
      </trkpt>
      <trkpt lat="44.18964" lon="3.19817">
        <ele>576.1</ele>
        <time>2021-09-30T14:43:35Z</time>
      </trkpt>
      <trkpt lat="44.18966" lon="3.19822">
        <ele>575.9</ele>
        <time>2021-09-30T14:43:36Z</time>
      </trkpt>
      <trkpt lat="44.18967" lon="3.19826">
        <ele>575.8</ele>
        <time>2021-09-30T14:43:37Z</time>
      </trkpt>
      <trkpt lat="44.18968" lon="3.19831">
        <ele>575.7</ele>
        <time>2021-09-30T14:43:38Z</time>
      </trkpt>
      <trkpt lat="44.18969" lon="3.19837">
        <ele>575.6</ele>
        <time>2021-09-30T14:43:39Z</time>
      </trkpt>
      <trkpt lat="44.18971" lon="3.19846">
        <ele>575.4</ele>
        <time>2021-09-30T14:43:41Z</time>
      </trkpt>
      <trkpt lat="44.18972" lon="3.19855">
        <ele>575.2</ele>
        <time>2021-09-30T14:43:42Z</time>
      </trkpt>
      <trkpt lat="44.18972" lon="3.19863">
        <ele>575.1</ele>
        <time>2021-09-30T14:43:43Z</time>
      </trkpt>
      <trkpt lat="44.18972" lon="3.1987">
        <ele>575</ele>
        <time>2021-09-30T14:43:45Z</time>
      </trkpt>
      <trkpt lat="44.18973" lon="3.19879">
        <ele>575</ele>
        <time>2021-09-30T14:43:46Z</time>
      </trkpt>
      <trkpt lat="44.18973" lon="3.19887">
        <ele>575</ele>
        <time>2021-09-30T14:43:48Z</time>
      </trkpt>
      <trkpt lat="44.18975" lon="3.19894">
        <ele>575.1</ele>
        <time>2021-09-30T14:43:49Z</time>
      </trkpt>
      <trkpt lat="44.18975" lon="3.19902">
        <ele>575.1</ele>
        <time>2021-09-30T14:43:50Z</time>
      </trkpt>
      <trkpt lat="44.18976" lon="3.19916">
        <ele>575</ele>
        <time>2021-09-30T14:43:52Z</time>
      </trkpt>
      <trkpt lat="44.18977" lon="3.19932">
        <ele>574.5</ele>
        <time>2021-09-30T14:43:53Z</time>
      </trkpt>
      <trkpt lat="44.18979" lon="3.19939">
        <ele>574.3</ele>
        <time>2021-09-30T14:43:54Z</time>
      </trkpt>
      <trkpt lat="44.1898" lon="3.19957">
        <ele>573.5</ele>
        <time>2021-09-30T14:43:56Z</time>
      </trkpt>
      <trkpt lat="44.18978" lon="3.19962">
        <ele>573.2</ele>
        <time>2021-09-30T14:43:57Z</time>
      </trkpt>
      <trkpt lat="44.18977" lon="3.19975">
        <ele>572.2</ele>
        <time>2021-09-30T14:43:59Z</time>
      </trkpt>
      <trkpt lat="44.18978" lon="3.19981">
        <ele>571.7</ele>
        <time>2021-09-30T14:44:00Z</time>
      </trkpt>
      <trkpt lat="44.18971" lon="3.19995">
        <ele>569.6</ele>
        <time>2021-09-30T14:44:02Z</time>
      </trkpt>
      <trkpt lat="44.18957" lon="3.20005">
        <ele>566.6</ele>
        <time>2021-09-30T14:44:04Z</time>
      </trkpt>
      <trkpt lat="44.18946" lon="3.20013">
        <ele>564.2</ele>
        <time>2021-09-30T14:44:06Z</time>
      </trkpt>
      <trkpt lat="44.18943" lon="3.2002">
        <ele>563</ele>
        <time>2021-09-30T14:44:07Z</time>
      </trkpt>
      <trkpt lat="44.18942" lon="3.20037">
        <ele>560.5</ele>
        <time>2021-09-30T14:44:09Z</time>
      </trkpt>
      <trkpt lat="44.18939" lon="3.20044">
        <ele>559.3</ele>
        <time>2021-09-30T14:44:11Z</time>
      </trkpt>
      <trkpt lat="44.1894" lon="3.2005">
        <ele>558.4</ele>
        <time>2021-09-30T14:44:12Z</time>
      </trkpt>
      <trkpt lat="44.18941" lon="3.20059">
        <ele>556.9</ele>
        <time>2021-09-30T14:44:14Z</time>
      </trkpt>
      <trkpt lat="44.1894" lon="3.20066">
        <ele>555.7</ele>
        <time>2021-09-30T14:44:15Z</time>
      </trkpt>
      <trkpt lat="44.1894" lon="3.20074">
        <ele>552.4</ele>
        <time>2021-09-30T14:44:16Z</time>
      </trkpt>
      <trkpt lat="44.18942" lon="3.20077">
        <ele>551</ele>
        <time>2021-09-30T14:44:18Z</time>
      </trkpt>
      <trkpt lat="44.18945" lon="3.20078">
        <ele>549.7</ele>
        <time>2021-09-30T14:44:19Z</time>
      </trkpt>
      <trkpt lat="44.18951" lon="3.20077">
        <ele>547.4</ele>
        <time>2021-09-30T14:44:20Z</time>
      </trkpt>
      <trkpt lat="44.18954" lon="3.20076">
        <ele>545.9</ele>
        <time>2021-09-30T14:44:22Z</time>
      </trkpt>
      <trkpt lat="44.18958" lon="3.20077">
        <ele>544.5</ele>
        <time>2021-09-30T14:44:24Z</time>
      </trkpt>
      <trkpt lat="44.18959" lon="3.20079">
        <ele>543.8</ele>
        <time>2021-09-30T14:44:25Z</time>
      </trkpt>
      <trkpt lat="44.18959" lon="3.20082">
        <ele>543.1</ele>
        <time>2021-09-30T14:44:26Z</time>
      </trkpt>
      <trkpt lat="44.18957" lon="3.20085">
        <ele>542.1</ele>
        <time>2021-09-30T14:44:28Z</time>
      </trkpt>
      <trkpt lat="44.18952" lon="3.20092">
        <ele>540</ele>
        <time>2021-09-30T14:44:30Z</time>
      </trkpt>
      <trkpt lat="44.18948" lon="3.20096">
        <ele>538.3</ele>
        <time>2021-09-30T14:44:31Z</time>
      </trkpt>
      <trkpt lat="44.18944" lon="3.20103">
        <ele>536.4</ele>
        <time>2021-09-30T14:44:32Z</time>
      </trkpt>
      <trkpt lat="44.18941" lon="3.20108">
        <ele>534.9</ele>
        <time>2021-09-30T14:44:33Z</time>
      </trkpt>
      <trkpt lat="44.18934" lon="3.20116">
        <ele>532.4</ele>
        <time>2021-09-30T14:44:35Z</time>
      </trkpt>
      <trkpt lat="44.18929" lon="3.20121">
        <ele>530.8</ele>
        <time>2021-09-30T14:44:37Z</time>
      </trkpt>
      <trkpt lat="44.18926" lon="3.20127">
        <ele>529.2</ele>
        <time>2021-09-30T14:44:38Z</time>
      </trkpt>
      <trkpt lat="44.18924" lon="3.20137">
        <ele>527.2</ele>
        <time>2021-09-30T14:44:40Z</time>
      </trkpt>
      <trkpt lat="44.18923" lon="3.20145">
        <ele>525.6</ele>
        <time>2021-09-30T14:44:41Z</time>
      </trkpt>
      <trkpt lat="44.18919" lon="3.20163">
        <ele>522</ele>
        <time>2021-09-30T14:44:43Z</time>
      </trkpt>
      <trkpt lat="44.18918" lon="3.20172">
        <ele>520.3</ele>
        <time>2021-09-30T14:44:44Z</time>
      </trkpt>
      <trkpt lat="44.18918" lon="3.20179">
        <ele>519</ele>
        <time>2021-09-30T14:44:45Z</time>
      </trkpt>
      <trkpt lat="44.18912" lon="3.20188">
        <ele>516.4</ele>
        <time>2021-09-30T14:44:47Z</time>
      </trkpt>
      <trkpt lat="44.18907" lon="3.20205">
        <ele>512.5</ele>
        <time>2021-09-30T14:44:49Z</time>
      </trkpt>
      <trkpt lat="44.18904" lon="3.20221">
        <ele>508.8</ele>
        <time>2021-09-30T14:44:51Z</time>
      </trkpt>
      <trkpt lat="44.18904" lon="3.2023">
        <ele>506.8</ele>
        <time>2021-09-30T14:44:52Z</time>
      </trkpt>
      <trkpt lat="44.18903" lon="3.20243">
        <ele>504.3</ele>
        <time>2021-09-30T14:44:54Z</time>
      </trkpt>
      <trkpt lat="44.189" lon="3.20247">
        <ele>503.4</ele>
        <time>2021-09-30T14:44:55Z</time>
      </trkpt>
      <trkpt lat="44.18898" lon="3.20251">
        <ele>502.4</ele>
        <time>2021-09-30T14:44:56Z</time>
      </trkpt>
      <trkpt lat="44.18895" lon="3.20256">
        <ele>501.5</ele>
        <time>2021-09-30T14:44:57Z</time>
      </trkpt>
      <trkpt lat="44.18892" lon="3.20261">
        <ele>500.3</ele>
        <time>2021-09-30T14:44:58Z</time>
      </trkpt>
      <trkpt lat="44.18887" lon="3.20267">
        <ele>498.9</ele>
        <time>2021-09-30T14:45:00Z</time>
      </trkpt>
      <trkpt lat="44.18884" lon="3.20273">
        <ele>497.7</ele>
        <time>2021-09-30T14:45:01Z</time>
      </trkpt>
      <trkpt lat="44.18881" lon="3.20279">
        <ele>496.6</ele>
        <time>2021-09-30T14:45:02Z</time>
      </trkpt>
      <trkpt lat="44.18878" lon="3.20284">
        <ele>495.7</ele>
        <time>2021-09-30T14:45:04Z</time>
      </trkpt>
      <trkpt lat="44.18876" lon="3.20289">
        <ele>494.8</ele>
        <time>2021-09-30T14:45:05Z</time>
      </trkpt>
      <trkpt lat="44.18876" lon="3.20301">
        <ele>493.1</ele>
        <time>2021-09-30T14:45:06Z</time>
      </trkpt>
      <trkpt lat="44.18879" lon="3.20318">
        <ele>490.5</ele>
        <time>2021-09-30T14:45:08Z</time>
      </trkpt>
      <trkpt lat="44.18879" lon="3.20331">
        <ele>488.5</ele>
        <time>2021-09-30T14:45:10Z</time>
      </trkpt>
      <trkpt lat="44.18878" lon="3.20335">
        <ele>488</ele>
        <time>2021-09-30T14:45:11Z</time>
      </trkpt>
      <trkpt lat="44.18876" lon="3.20342">
        <ele>487.2</ele>
        <time>2021-09-30T14:45:12Z</time>
      </trkpt>
      <trkpt lat="44.18875" lon="3.20358">
        <ele>485.1</ele>
        <time>2021-09-30T14:45:14Z</time>
      </trkpt>
      <trkpt lat="44.18875" lon="3.20365">
        <ele>484.3</ele>
        <time>2021-09-30T14:45:15Z</time>
      </trkpt>
      <trkpt lat="44.18875" lon="3.20369">
        <ele>483.7</ele>
        <time>2021-09-30T14:45:16Z</time>
      </trkpt>
      <trkpt lat="44.18875" lon="3.20372">
        <ele>483.5</ele>
        <time>2021-09-30T14:45:17Z</time>
      </trkpt>
      <trkpt lat="44.18876" lon="3.20382">
        <ele>482.2</ele>
        <time>2021-09-30T14:45:18Z</time>
      </trkpt>
      <trkpt lat="44.18881" lon="3.20401">
        <ele>480.3</ele>
        <time>2021-09-30T14:45:20Z</time>
      </trkpt>
      <trkpt lat="44.18883" lon="3.20413">
        <ele>479.2</ele>
        <time>2021-09-30T14:45:22Z</time>
      </trkpt>
      <trkpt lat="44.18885" lon="3.20418">
        <ele>478.7</ele>
        <time>2021-09-30T14:45:23Z</time>
      </trkpt>
      <trkpt lat="44.18886" lon="3.20424">
        <ele>478</ele>
        <time>2021-09-30T14:45:24Z</time>
      </trkpt>
      <trkpt lat="44.18887" lon="3.2043">
        <ele>477.1</ele>
        <time>2021-09-30T14:45:26Z</time>
      </trkpt>
      <trkpt lat="44.18888" lon="3.20436">
        <ele>476.2</ele>
        <time>2021-09-30T14:45:27Z</time>
      </trkpt>
      <trkpt lat="44.1889" lon="3.20449">
        <ele>474.2</ele>
        <time>2021-09-30T14:45:29Z</time>
      </trkpt>
      <trkpt lat="44.18891" lon="3.20459">
        <ele>472.5</ele>
        <time>2021-09-30T14:45:31Z</time>
      </trkpt>
      <trkpt lat="44.1889" lon="3.20465">
        <ele>471.4</ele>
        <time>2021-09-30T14:45:32Z</time>
      </trkpt>
      <trkpt lat="44.18889" lon="3.2047">
        <ele>470.4</ele>
        <time>2021-09-30T14:45:33Z</time>
      </trkpt>
      <trkpt lat="44.18889" lon="3.20476">
        <ele>469.3</ele>
        <time>2021-09-30T14:45:34Z</time>
      </trkpt>
      <trkpt lat="44.18889" lon="3.20481">
        <ele>468.4</ele>
        <time>2021-09-30T14:45:35Z</time>
      </trkpt>
      <trkpt lat="44.18889" lon="3.20486">
        <ele>467.3</ele>
        <time>2021-09-30T14:45:36Z</time>
      </trkpt>
      <trkpt lat="44.18891" lon="3.20493">
        <ele>465.8</ele>
        <time>2021-09-30T14:45:38Z</time>
      </trkpt>
      <trkpt lat="44.18892" lon="3.20499">
        <ele>464.7</ele>
        <time>2021-09-30T14:45:40Z</time>
      </trkpt>
      <trkpt lat="44.18892" lon="3.20503">
        <ele>463.9</ele>
        <time>2021-09-30T14:45:41Z</time>
      </trkpt>
      <trkpt lat="44.18891" lon="3.20508">
        <ele>463</ele>
        <time>2021-09-30T14:45:42Z</time>
      </trkpt>
      <trkpt lat="44.18892" lon="3.20514">
        <ele>461.9</ele>
        <time>2021-09-30T14:45:44Z</time>
      </trkpt>
      <trkpt lat="44.18894" lon="3.2052">
        <ele>460.9</ele>
        <time>2021-09-30T14:45:45Z</time>
      </trkpt>
      <trkpt lat="44.18893" lon="3.20522">
        <ele>460.4</ele>
        <time>2021-09-30T14:45:46Z</time>
      </trkpt>
      <trkpt lat="44.18893" lon="3.20527">
        <ele>459.4</ele>
        <time>2021-09-30T14:45:47Z</time>
      </trkpt>
      <trkpt lat="44.18893" lon="3.20533">
        <ele>458.3</ele>
        <time>2021-09-30T14:45:49Z</time>
      </trkpt>
      <trkpt lat="44.18894" lon="3.20537">
        <ele>457.5</ele>
        <time>2021-09-30T14:45:51Z</time>
      </trkpt>
      <trkpt lat="44.18897" lon="3.20537">
        <ele>456.7</ele>
        <time>2021-09-30T14:45:52Z</time>
      </trkpt>
      <trkpt lat="44.18899" lon="3.2054">
        <ele>455.8</ele>
        <time>2021-09-30T14:45:53Z</time>
      </trkpt>
      <trkpt lat="44.18902" lon="3.20544">
        <ele>454.6</ele>
        <time>2021-09-30T14:45:54Z</time>
      </trkpt>
      <trkpt lat="44.18904" lon="3.20549">
        <ele>453.5</ele>
        <time>2021-09-30T14:45:56Z</time>
      </trkpt>
      <trkpt lat="44.18906" lon="3.20556">
        <ele>451.9</ele>
        <time>2021-09-30T14:45:57Z</time>
      </trkpt>
      <trkpt lat="44.18908" lon="3.2056">
        <ele>450.7</ele>
        <time>2021-09-30T14:45:58Z</time>
      </trkpt>
      <trkpt lat="44.1891" lon="3.20563">
        <ele>449.9</ele>
        <time>2021-09-30T14:45:59Z</time>
      </trkpt>
      <trkpt lat="44.18912" lon="3.20568">
        <ele>448.8</ele>
        <time>2021-09-30T14:46:01Z</time>
      </trkpt>
      <trkpt lat="44.18913" lon="3.20574">
        <ele>447.8</ele>
        <time>2021-09-30T14:46:02Z</time>
      </trkpt>
      <trkpt lat="44.18914" lon="3.20584">
        <ele>446.3</ele>
        <time>2021-09-30T14:46:03Z</time>
      </trkpt>
      <trkpt lat="44.18913" lon="3.20593">
        <ele>445.2</ele>
        <time>2021-09-30T14:46:04Z</time>
      </trkpt>
      <trkpt lat="44.18913" lon="3.20604">
        <ele>444.1</ele>
        <time>2021-09-30T14:46:05Z</time>
      </trkpt>
      <trkpt lat="44.18912" lon="3.20622">
        <ele>441.7</ele>
        <time>2021-09-30T14:46:07Z</time>
      </trkpt>
      <trkpt lat="44.18912" lon="3.2063">
        <ele>440.5</ele>
        <time>2021-09-30T14:46:08Z</time>
      </trkpt>
      <trkpt lat="44.18912" lon="3.20638">
        <ele>439.2</ele>
        <time>2021-09-30T14:46:10Z</time>
      </trkpt>
      <trkpt lat="44.18913" lon="3.20642">
        <ele>438.2</ele>
        <time>2021-09-30T14:46:11Z</time>
      </trkpt>
      <trkpt lat="44.18913" lon="3.20647">
        <ele>437.2</ele>
        <time>2021-09-30T14:46:12Z</time>
      </trkpt>
      <trkpt lat="44.18914" lon="3.20653">
        <ele>436</ele>
        <time>2021-09-30T14:46:14Z</time>
      </trkpt>
      <trkpt lat="44.18914" lon="3.20655">
        <ele>435.6</ele>
        <time>2021-09-30T14:46:15Z</time>
      </trkpt>
      <trkpt lat="44.18915" lon="3.20657">
        <ele>435.1</ele>
        <time>2021-09-30T14:46:16Z</time>
      </trkpt>
      <trkpt lat="44.18918" lon="3.20659">
        <ele>426</ele>
        <time>2021-09-30T14:46:17Z</time>
      </trkpt>
      <trkpt lat="44.18921" lon="3.20658">
        <ele>424.7</ele>
        <time>2021-09-30T14:46:18Z</time>
      </trkpt>
      <trkpt lat="44.18924" lon="3.20657">
        <ele>423.8</ele>
        <time>2021-09-30T14:46:20Z</time>
      </trkpt>
      <trkpt lat="44.18926" lon="3.20656">
        <ele>423</ele>
        <time>2021-09-30T14:46:21Z</time>
      </trkpt>
      <trkpt lat="44.18928" lon="3.20655">
        <ele>422.1</ele>
        <time>2021-09-30T14:46:23Z</time>
      </trkpt>
      <trkpt lat="44.18927" lon="3.20658">
        <ele>421.1</ele>
        <time>2021-09-30T14:46:24Z</time>
      </trkpt>
      <trkpt lat="44.18926" lon="3.20661">
        <ele>420.5</ele>
        <time>2021-09-30T14:46:25Z</time>
      </trkpt>
      <trkpt lat="44.18926" lon="3.20663">
        <ele>419.9</ele>
        <time>2021-09-30T14:46:26Z</time>
      </trkpt>
      <trkpt lat="44.18926" lon="3.20666">
        <ele>419.3</ele>
        <time>2021-09-30T14:46:28Z</time>
      </trkpt>
      <trkpt lat="44.18926" lon="3.20668">
        <ele>418.7</ele>
        <time>2021-09-30T14:46:29Z</time>
      </trkpt>
      <trkpt lat="44.18926" lon="3.20671">
        <ele>418.2</ele>
        <time>2021-09-30T14:46:31Z</time>
      </trkpt>
      <trkpt lat="44.18926" lon="3.20673">
        <ele>417.6</ele>
        <time>2021-09-30T14:46:33Z</time>
      </trkpt>
      <trkpt lat="44.18926" lon="3.20676">
        <ele>417</ele>
        <time>2021-09-30T14:48:23Z</time>
      </trkpt>
      <trkpt lat="44.18926" lon="3.20678">
        <ele>416.5</ele>
        <time>2021-09-30T14:48:24Z</time>
      </trkpt>
      <trkpt lat="44.18924" lon="3.20683">
        <ele>415.3</ele>
        <time>2021-09-30T14:48:26Z</time>
      </trkpt>
      <trkpt lat="44.18923" lon="3.20686">
        <ele>414.4</ele>
        <time>2021-09-30T14:48:27Z</time>
      </trkpt>
      <trkpt lat="44.1892" lon="3.2069">
        <ele>414.7</ele>
        <time>2021-09-30T14:48:29Z</time>
      </trkpt>
      <trkpt lat="44.18919" lon="3.20692">
        <ele>414.8</ele>
        <time>2021-09-30T14:48:30Z</time>
      </trkpt>
      <trkpt lat="44.18916" lon="3.20697">
        <ele>415.1</ele>
        <time>2021-09-30T14:48:32Z</time>
      </trkpt>
      <trkpt lat="44.18914" lon="3.20702">
        <ele>415.2</ele>
        <time>2021-09-30T14:48:33Z</time>
      </trkpt>
      <trkpt lat="44.18912" lon="3.20708">
        <ele>415.3</ele>
        <time>2021-09-30T14:48:35Z</time>
      </trkpt>
      <trkpt lat="44.18912" lon="3.20715">
        <ele>415.5</ele>
        <time>2021-09-30T14:48:37Z</time>
      </trkpt>
      <trkpt lat="44.18911" lon="3.20721">
        <ele>415.8</ele>
        <time>2021-09-30T14:48:38Z</time>
      </trkpt>
      <trkpt lat="44.1891" lon="3.20727">
        <ele>416.2</ele>
        <time>2021-09-30T14:48:39Z</time>
      </trkpt>
      <trkpt lat="44.18909" lon="3.2073">
        <ele>416.5</ele>
        <time>2021-09-30T14:48:40Z</time>
      </trkpt>
      <trkpt lat="44.18907" lon="3.20733">
        <ele>417</ele>
        <time>2021-09-30T14:48:42Z</time>
      </trkpt>
      <trkpt lat="44.18905" lon="3.20737">
        <ele>417.5</ele>
        <time>2021-09-30T14:48:43Z</time>
      </trkpt>
      <trkpt lat="44.18904" lon="3.2074">
        <ele>417.8</ele>
        <time>2021-09-30T14:48:45Z</time>
      </trkpt>
      <trkpt lat="44.18901" lon="3.20745">
        <ele>417.8</ele>
        <time>2021-09-30T14:48:47Z</time>
      </trkpt>
      <trkpt lat="44.189" lon="3.20749">
        <ele>417.8</ele>
        <time>2021-09-30T14:48:48Z</time>
      </trkpt>
      <trkpt lat="44.18897" lon="3.20754">
        <ele>417.6</ele>
        <time>2021-09-30T14:48:50Z</time>
      </trkpt>
      <trkpt lat="44.18896" lon="3.20757">
        <ele>417.6</ele>
        <time>2021-09-30T14:48:51Z</time>
      </trkpt>
      <trkpt lat="44.18893" lon="3.20762">
        <ele>417.5</ele>
        <time>2021-09-30T14:48:53Z</time>
      </trkpt>
      <trkpt lat="44.18892" lon="3.20766">
        <ele>417.4</ele>
        <time>2021-09-30T14:48:54Z</time>
      </trkpt>
      <trkpt lat="44.18891" lon="3.20768">
        <ele>417.4</ele>
        <time>2021-09-30T14:48:55Z</time>
      </trkpt>
      <trkpt lat="44.18891" lon="3.2077">
        <ele>417.3</ele>
        <time>2021-09-30T14:48:56Z</time>
      </trkpt>
      <trkpt lat="44.18891" lon="3.20776">
        <ele>417.9</ele>
        <time>2021-09-30T14:48:58Z</time>
      </trkpt>
      <trkpt lat="44.1889" lon="3.20779">
        <ele>418.2</ele>
        <time>2021-09-30T14:48:59Z</time>
      </trkpt>
      <trkpt lat="44.1889" lon="3.20781">
        <ele>418.5</ele>
        <time>2021-09-30T14:49:00Z</time>
      </trkpt>
      <trkpt lat="44.1889" lon="3.20785">
        <ele>418.8</ele>
        <time>2021-09-30T14:49:02Z</time>
      </trkpt>
      <trkpt lat="44.18891" lon="3.20784">
        <ele>418.9</ele>
        <time>2021-09-30T14:49:04Z</time>
      </trkpt>
      <trkpt lat="44.18891" lon="3.20783">
        <ele>419.1</ele>
        <time>2021-09-30T14:49:06Z</time>
      </trkpt>
      <trkpt lat="44.18892" lon="3.20783">
        <ele>419.2</ele>
        <time>2021-09-30T14:49:07Z</time>
      </trkpt>
      <trkpt lat="44.1889" lon="3.20789">
        <ele>420</ele>
        <time>2021-09-30T14:49:09Z</time>
      </trkpt>
      <trkpt lat="44.18885" lon="3.20795">
        <ele>420.9</ele>
        <time>2021-09-30T14:49:11Z</time>
      </trkpt>
      <trkpt lat="44.18883" lon="3.20798">
        <ele>421.4</ele>
        <time>2021-09-30T14:49:12Z</time>
      </trkpt>
      <trkpt lat="44.18881" lon="3.20802">
        <ele>421.9</ele>
        <time>2021-09-30T14:49:13Z</time>
      </trkpt>
      <trkpt lat="44.18877" lon="3.20807">
        <ele>422.7</ele>
        <time>2021-09-30T14:49:15Z</time>
      </trkpt>
      <trkpt lat="44.18875" lon="3.20811">
        <ele>423.3</ele>
        <time>2021-09-30T14:49:16Z</time>
      </trkpt>
      <trkpt lat="44.18872" lon="3.20818">
        <ele>424.3</ele>
        <time>2021-09-30T14:49:18Z</time>
      </trkpt>
      <trkpt lat="44.18871" lon="3.20824">
        <ele>425</ele>
        <time>2021-09-30T14:49:19Z</time>
      </trkpt>
      <trkpt lat="44.18871" lon="3.20831">
        <ele>425.8</ele>
        <time>2021-09-30T14:49:20Z</time>
      </trkpt>
      <trkpt lat="44.18872" lon="3.2084">
        <ele>427</ele>
        <time>2021-09-30T14:49:21Z</time>
      </trkpt>
      <trkpt lat="44.18877" lon="3.20849">
        <ele>428.4</ele>
        <time>2021-09-30T14:49:23Z</time>
      </trkpt>
      <trkpt lat="44.1888" lon="3.20855">
        <ele>430.4</ele>
        <time>2021-09-30T14:49:24Z</time>
      </trkpt>
      <trkpt lat="44.18885" lon="3.20865">
        <ele>430.6</ele>
        <time>2021-09-30T14:49:26Z</time>
      </trkpt>
      <trkpt lat="44.18889" lon="3.20872">
        <ele>430.8</ele>
        <time>2021-09-30T14:49:28Z</time>
      </trkpt>
      <trkpt lat="44.18891" lon="3.20876">
        <ele>430.9</ele>
        <time>2021-09-30T14:49:29Z</time>
      </trkpt>
      <trkpt lat="44.18892" lon="3.2088">
        <ele>431</ele>
        <time>2021-09-30T14:49:30Z</time>
      </trkpt>
      <trkpt lat="44.18893" lon="3.20884">
        <ele>431.1</ele>
        <time>2021-09-30T14:49:31Z</time>
      </trkpt>
      <trkpt lat="44.18895" lon="3.20889">
        <ele>431.2</ele>
        <time>2021-09-30T14:49:32Z</time>
      </trkpt>
      <trkpt lat="44.18896" lon="3.20898">
        <ele>431.3</ele>
        <time>2021-09-30T14:49:34Z</time>
      </trkpt>
      <trkpt lat="44.18896" lon="3.20903">
        <ele>431.3</ele>
        <time>2021-09-30T14:49:35Z</time>
      </trkpt>
      <trkpt lat="44.18895" lon="3.20908">
        <ele>431.2</ele>
        <time>2021-09-30T14:49:36Z</time>
      </trkpt>
      <trkpt lat="44.18893" lon="3.20917">
        <ele>431.1</ele>
        <time>2021-09-30T14:49:38Z</time>
      </trkpt>
      <trkpt lat="44.1889" lon="3.20922">
        <ele>431.3</ele>
        <time>2021-09-30T14:49:39Z</time>
      </trkpt>
      <trkpt lat="44.18887" lon="3.20927">
        <ele>431.5</ele>
        <time>2021-09-30T14:49:40Z</time>
      </trkpt>
      <trkpt lat="44.18884" lon="3.2093">
        <ele>431.6</ele>
        <time>2021-09-30T14:49:41Z</time>
      </trkpt>
      <trkpt lat="44.18881" lon="3.20932">
        <ele>431.7</ele>
        <time>2021-09-30T14:49:43Z</time>
      </trkpt>
      <trkpt lat="44.18876" lon="3.20931">
        <ele>431.9</ele>
        <time>2021-09-30T14:49:44Z</time>
      </trkpt>
      <trkpt lat="44.18872" lon="3.20928">
        <ele>432.1</ele>
        <time>2021-09-30T14:49:45Z</time>
      </trkpt>
      <trkpt lat="44.18868" lon="3.20925">
        <ele>432.3</ele>
        <time>2021-09-30T14:49:46Z</time>
      </trkpt>
      <trkpt lat="44.18861" lon="3.20915">
        <ele>432.8</ele>
        <time>2021-09-30T14:49:48Z</time>
      </trkpt>
      <trkpt lat="44.18856" lon="3.20906">
        <ele>433.3</ele>
        <time>2021-09-30T14:49:50Z</time>
      </trkpt>
      <trkpt lat="44.18853" lon="3.20901">
        <ele>433.6</ele>
        <time>2021-09-30T14:49:51Z</time>
      </trkpt>
      <trkpt lat="44.18851" lon="3.20896">
        <ele>433.9</ele>
        <time>2021-09-30T14:49:52Z</time>
      </trkpt>
      <trkpt lat="44.18849" lon="3.2089">
        <ele>434.2</ele>
        <time>2021-09-30T14:49:53Z</time>
      </trkpt>
      <trkpt lat="44.18847" lon="3.20884">
        <ele>434.3</ele>
        <time>2021-09-30T14:49:54Z</time>
      </trkpt>
      <trkpt lat="44.18846" lon="3.20875">
        <ele>434.3</ele>
        <time>2021-09-30T14:49:55Z</time>
      </trkpt>
      <trkpt lat="44.18845" lon="3.20869">
        <ele>434.3</ele>
        <time>2021-09-30T14:49:56Z</time>
      </trkpt>
      <trkpt lat="44.18843" lon="3.20861">
        <ele>434.3</ele>
        <time>2021-09-30T14:49:58Z</time>
      </trkpt>
      <trkpt lat="44.18842" lon="3.20851">
        <ele>434.4</ele>
        <time>2021-09-30T14:50:00Z</time>
      </trkpt>
      <trkpt lat="44.18842" lon="3.20845">
        <ele>434.4</ele>
        <time>2021-09-30T14:50:01Z</time>
      </trkpt>
      <trkpt lat="44.18841" lon="3.20839">
        <ele>434.5</ele>
        <time>2021-09-30T14:50:02Z</time>
      </trkpt>
      <trkpt lat="44.18841" lon="3.20831">
        <ele>434.7</ele>
        <time>2021-09-30T14:50:03Z</time>
      </trkpt>
      <trkpt lat="44.18841" lon="3.20824">
        <ele>434.8</ele>
        <time>2021-09-30T14:50:05Z</time>
      </trkpt>
      <trkpt lat="44.18841" lon="3.20815">
        <ele>435.1</ele>
        <time>2021-09-30T14:50:07Z</time>
      </trkpt>
      <trkpt lat="44.18842" lon="3.20811">
        <ele>435.2</ele>
        <time>2021-09-30T14:50:08Z</time>
      </trkpt>
      <trkpt lat="44.18843" lon="3.20806">
        <ele>434.6</ele>
        <time>2021-09-30T14:50:10Z</time>
      </trkpt>
      <trkpt lat="44.18843" lon="3.20805">
        <ele>434.1</ele>
        <time>2021-09-30T14:50:11Z</time>
      </trkpt>
      <trkpt lat="44.18844" lon="3.20801">
        <ele>432.8</ele>
        <time>2021-09-30T14:50:12Z</time>
      </trkpt>
      <trkpt lat="44.18844" lon="3.20796">
        <ele>431.4</ele>
        <time>2021-09-30T14:50:13Z</time>
      </trkpt>
      <trkpt lat="44.18845" lon="3.20791">
        <ele>429.6</ele>
        <time>2021-09-30T14:50:15Z</time>
      </trkpt>
      <trkpt lat="44.18846" lon="3.20785">
        <ele>427.7</ele>
        <time>2021-09-30T14:50:17Z</time>
      </trkpt>
      <trkpt lat="44.18848" lon="3.2078">
        <ele>428.2</ele>
        <time>2021-09-30T14:50:18Z</time>
      </trkpt>
      <trkpt lat="44.18848" lon="3.20779">
        <ele>428.6</ele>
        <time>2021-09-30T14:50:19Z</time>
      </trkpt>
      <trkpt lat="44.1885" lon="3.20775">
        <ele>429.5</ele>
        <time>2021-09-30T14:50:20Z</time>
      </trkpt>
      <trkpt lat="44.18854" lon="3.2077">
        <ele>431.1</ele>
        <time>2021-09-30T14:50:21Z</time>
      </trkpt>
      <trkpt lat="44.18857" lon="3.20765">
        <ele>432.7</ele>
        <time>2021-09-30T14:50:23Z</time>
      </trkpt>
      <trkpt lat="44.1886" lon="3.20762">
        <ele>433.8</ele>
        <time>2021-09-30T14:50:24Z</time>
      </trkpt>
      <trkpt lat="44.18863" lon="3.20759">
        <ele>435.1</ele>
        <time>2021-09-30T14:50:25Z</time>
      </trkpt>
      <trkpt lat="44.18869" lon="3.20751">
        <ele>437.7</ele>
        <time>2021-09-30T14:50:28Z</time>
      </trkpt>
      <trkpt lat="44.18872" lon="3.20747">
        <ele>438.1</ele>
        <time>2021-09-30T14:50:29Z</time>
      </trkpt>
      <trkpt lat="44.18875" lon="3.20743">
        <ele>438.2</ele>
        <time>2021-09-30T14:50:31Z</time>
      </trkpt>
      <trkpt lat="44.18876" lon="3.20741">
        <ele>438.2</ele>
        <time>2021-09-30T14:50:32Z</time>
      </trkpt>
      <trkpt lat="44.18879" lon="3.20736">
        <ele>438.6</ele>
        <time>2021-09-30T14:50:34Z</time>
      </trkpt>
      <trkpt lat="44.18881" lon="3.20733">
        <ele>439.4</ele>
        <time>2021-09-30T14:50:35Z</time>
      </trkpt>
      <trkpt lat="44.18884" lon="3.2073">
        <ele>439.2</ele>
        <time>2021-09-30T14:50:36Z</time>
      </trkpt>
      <trkpt lat="44.18886" lon="3.20724">
        <ele>436.4</ele>
        <time>2021-09-30T14:50:37Z</time>
      </trkpt>
      <trkpt lat="44.18886" lon="3.20722">
        <ele>435.2</ele>
        <time>2021-09-30T14:50:38Z</time>
      </trkpt>
      <trkpt lat="44.18888" lon="3.20716">
        <ele>432.5</ele>
        <time>2021-09-30T14:50:40Z</time>
      </trkpt>
      <trkpt lat="44.18889" lon="3.20712">
        <ele>430.6</ele>
        <time>2021-09-30T14:50:41Z</time>
      </trkpt>
      <trkpt lat="44.18889" lon="3.20711">
        <ele>430</ele>
        <time>2021-09-30T14:50:42Z</time>
      </trkpt>
      <trkpt lat="44.18888" lon="3.20708">
        <ele>428.4</ele>
        <time>2021-09-30T14:50:43Z</time>
      </trkpt>
      <trkpt lat="44.18888" lon="3.20702">
        <ele>425.7</ele>
        <time>2021-09-30T14:50:45Z</time>
      </trkpt>
      <trkpt lat="44.18889" lon="3.20695">
        <ele>422.5</ele>
        <time>2021-09-30T14:50:47Z</time>
      </trkpt>
      <trkpt lat="44.18889" lon="3.2069">
        <ele>425.6</ele>
        <time>2021-09-30T14:50:48Z</time>
      </trkpt>
      <trkpt lat="44.18889" lon="3.20686">
        <ele>427.9</ele>
        <time>2021-09-30T14:50:49Z</time>
      </trkpt>
      <trkpt lat="44.18889" lon="3.20677">
        <ele>432.4</ele>
        <time>2021-09-30T14:50:51Z</time>
      </trkpt>
      <trkpt lat="44.18888" lon="3.20673">
        <ele>435</ele>
        <time>2021-09-30T14:50:52Z</time>
      </trkpt>
      <trkpt lat="44.18887" lon="3.20668">
        <ele>437.5</ele>
        <time>2021-09-30T14:50:53Z</time>
      </trkpt>
      <trkpt lat="44.18886" lon="3.20659">
        <ele>442.4</ele>
        <time>2021-09-30T14:50:55Z</time>
      </trkpt>
      <trkpt lat="44.18884" lon="3.20654">
        <ele>444.2</ele>
        <time>2021-09-30T14:50:56Z</time>
      </trkpt>
      <trkpt lat="44.1888" lon="3.20646">
        <ele>443.6</ele>
        <time>2021-09-30T14:50:57Z</time>
      </trkpt>
      <trkpt lat="44.18878" lon="3.20643">
        <ele>443.4</ele>
        <time>2021-09-30T14:50:58Z</time>
      </trkpt>
      <trkpt lat="44.18875" lon="3.2064">
        <ele>443</ele>
        <time>2021-09-30T14:51:00Z</time>
      </trkpt>
      <trkpt lat="44.18874" lon="3.20641">
        <ele>443</ele>
        <time>2021-09-30T14:51:01Z</time>
      </trkpt>
      <trkpt lat="44.18874" lon="3.2064">
        <ele>442.9</ele>
        <time>2021-09-30T14:51:04Z</time>
      </trkpt>
      <trkpt lat="44.18873" lon="3.2064">
        <ele>442.8</ele>
        <time>2021-09-30T14:51:05Z</time>
      </trkpt>
      <trkpt lat="44.18874" lon="3.2064">
        <ele>442.7</ele>
        <time>2021-09-30T14:51:10Z</time>
      </trkpt>
      <trkpt lat="44.18872" lon="3.20637">
        <ele>442.4</ele>
        <time>2021-09-30T14:51:15Z</time>
      </trkpt>
      <trkpt lat="44.18871" lon="3.20632">
        <ele>442.1</ele>
        <time>2021-09-30T14:51:16Z</time>
      </trkpt>
      <trkpt lat="44.18861" lon="3.20619">
        <ele>440.7</ele>
        <time>2021-09-30T14:51:18Z</time>
      </trkpt>
      <trkpt lat="44.1885" lon="3.20608">
        <ele>439.5</ele>
        <time>2021-09-30T14:51:20Z</time>
      </trkpt>
      <trkpt lat="44.1884" lon="3.20597">
        <ele>438.6</ele>
        <time>2021-09-30T14:51:22Z</time>
      </trkpt>
      <trkpt lat="44.18828" lon="3.20586">
        <ele>437.9</ele>
        <time>2021-09-30T14:51:24Z</time>
      </trkpt>
      <trkpt lat="44.18818" lon="3.20577">
        <ele>438.6</ele>
        <time>2021-09-30T14:51:26Z</time>
      </trkpt>
      <trkpt lat="44.18814" lon="3.20573">
        <ele>438.9</ele>
        <time>2021-09-30T14:51:27Z</time>
      </trkpt>
      <trkpt lat="44.18813" lon="3.20569">
        <ele>439.2</ele>
        <time>2021-09-30T14:51:28Z</time>
      </trkpt>
      <trkpt lat="44.18811" lon="3.20565">
        <ele>439.4</ele>
        <time>2021-09-30T14:51:30Z</time>
      </trkpt>
      <trkpt lat="44.18808" lon="3.20562">
        <ele>439.7</ele>
        <time>2021-09-30T14:51:31Z</time>
      </trkpt>
      <trkpt lat="44.18804" lon="3.20555">
        <ele>440.3</ele>
        <time>2021-09-30T14:51:33Z</time>
      </trkpt>
      <trkpt lat="44.18799" lon="3.20551">
        <ele>440.7</ele>
        <time>2021-09-30T14:51:35Z</time>
      </trkpt>
      <trkpt lat="44.18797" lon="3.20548">
        <ele>440.9</ele>
        <time>2021-09-30T14:51:36Z</time>
      </trkpt>
      <trkpt lat="44.18793" lon="3.20544">
        <ele>441.4</ele>
        <time>2021-09-30T14:51:38Z</time>
      </trkpt>
      <trkpt lat="44.1879" lon="3.20542">
        <ele>441.6</ele>
        <time>2021-09-30T14:51:39Z</time>
      </trkpt>
      <trkpt lat="44.18788" lon="3.2054">
        <ele>441.8</ele>
        <time>2021-09-30T14:51:40Z</time>
      </trkpt>
      <trkpt lat="44.18785" lon="3.20537">
        <ele>442.1</ele>
        <time>2021-09-30T14:51:41Z</time>
      </trkpt>
      <trkpt lat="44.18781" lon="3.20534">
        <ele>442.5</ele>
        <time>2021-09-30T14:51:43Z</time>
      </trkpt>
      <trkpt lat="44.18776" lon="3.20531">
        <ele>442.9</ele>
        <time>2021-09-30T14:51:45Z</time>
      </trkpt>
      <trkpt lat="44.18771" lon="3.20528">
        <ele>443.3</ele>
        <time>2021-09-30T14:51:47Z</time>
      </trkpt>
      <trkpt lat="44.18765" lon="3.20526">
        <ele>443.7</ele>
        <time>2021-09-30T14:51:49Z</time>
      </trkpt>
      <trkpt lat="44.18763" lon="3.20525">
        <ele>443.9</ele>
        <time>2021-09-30T14:51:50Z</time>
      </trkpt>
      <trkpt lat="44.18757" lon="3.20522">
        <ele>444.3</ele>
        <time>2021-09-30T14:51:52Z</time>
      </trkpt>
      <trkpt lat="44.18752" lon="3.20521">
        <ele>444.7</ele>
        <time>2021-09-30T14:51:54Z</time>
      </trkpt>
      <trkpt lat="44.18748" lon="3.2052">
        <ele>444.9</ele>
        <time>2021-09-30T14:51:55Z</time>
      </trkpt>
      <trkpt lat="44.18747" lon="3.2052">
        <ele>445</ele>
        <time>2021-09-30T14:51:56Z</time>
      </trkpt>
      <trkpt lat="44.18742" lon="3.20518">
        <ele>445.3</ele>
        <time>2021-09-30T14:51:58Z</time>
      </trkpt>
      <trkpt lat="44.18737" lon="3.20517">
        <ele>445.7</ele>
        <time>2021-09-30T14:52:00Z</time>
      </trkpt>
      <trkpt lat="44.18731" lon="3.20516">
        <ele>446.1</ele>
        <time>2021-09-30T14:52:02Z</time>
      </trkpt>
      <trkpt lat="44.18727" lon="3.20515">
        <ele>446.4</ele>
        <time>2021-09-30T14:52:04Z</time>
      </trkpt>
      <trkpt lat="44.18724" lon="3.20514">
        <ele>446.7</ele>
        <time>2021-09-30T14:52:05Z</time>
      </trkpt>
      <trkpt lat="44.18719" lon="3.20512">
        <ele>447</ele>
        <time>2021-09-30T14:52:07Z</time>
      </trkpt>
      <trkpt lat="44.18716" lon="3.20511">
        <ele>447.3</ele>
        <time>2021-09-30T14:52:08Z</time>
      </trkpt>
      <trkpt lat="44.18712" lon="3.20509">
        <ele>447.6</ele>
        <time>2021-09-30T14:52:10Z</time>
      </trkpt>
      <trkpt lat="44.18707" lon="3.20507">
        <ele>448</ele>
        <time>2021-09-30T14:52:12Z</time>
      </trkpt>
      <trkpt lat="44.18702" lon="3.20504">
        <ele>448.5</ele>
        <time>2021-09-30T14:52:14Z</time>
      </trkpt>
      <trkpt lat="44.18698" lon="3.20501">
        <ele>448.9</ele>
        <time>2021-09-30T14:52:16Z</time>
      </trkpt>
      <trkpt lat="44.18694" lon="3.20499">
        <ele>449.1</ele>
        <time>2021-09-30T14:52:17Z</time>
      </trkpt>
      <trkpt lat="44.18693" lon="3.20498">
        <ele>449.2</ele>
        <time>2021-09-30T14:52:18Z</time>
      </trkpt>
      <trkpt lat="44.1869" lon="3.20495">
        <ele>449.6</ele>
        <time>2021-09-30T14:52:19Z</time>
      </trkpt>
      <trkpt lat="44.18688" lon="3.20494">
        <ele>449.7</ele>
        <time>2021-09-30T14:52:20Z</time>
      </trkpt>
      <trkpt lat="44.18684" lon="3.20492">
        <ele>450</ele>
        <time>2021-09-30T14:52:22Z</time>
      </trkpt>
      <trkpt lat="44.18681" lon="3.2049">
        <ele>450.2</ele>
        <time>2021-09-30T14:52:23Z</time>
      </trkpt>
      <trkpt lat="44.18678" lon="3.20487">
        <ele>450.5</ele>
        <time>2021-09-30T14:52:25Z</time>
      </trkpt>
      <trkpt lat="44.18674" lon="3.20484">
        <ele>450.8</ele>
        <time>2021-09-30T14:52:26Z</time>
      </trkpt>
      <trkpt lat="44.18672" lon="3.20482">
        <ele>451</ele>
        <time>2021-09-30T14:52:27Z</time>
      </trkpt>
      <trkpt lat="44.18668" lon="3.2048">
        <ele>451.3</ele>
        <time>2021-09-30T14:52:29Z</time>
      </trkpt>
      <trkpt lat="44.18666" lon="3.20476">
        <ele>451.5</ele>
        <time>2021-09-30T14:52:30Z</time>
      </trkpt>
      <trkpt lat="44.18663" lon="3.20473">
        <ele>451.8</ele>
        <time>2021-09-30T14:52:31Z</time>
      </trkpt>
      <trkpt lat="44.1866" lon="3.2047">
        <ele>452.1</ele>
        <time>2021-09-30T14:52:33Z</time>
      </trkpt>
      <trkpt lat="44.18657" lon="3.20466">
        <ele>452.4</ele>
        <time>2021-09-30T14:52:34Z</time>
      </trkpt>
      <trkpt lat="44.18654" lon="3.20461">
        <ele>452.7</ele>
        <time>2021-09-30T14:52:36Z</time>
      </trkpt>
      <trkpt lat="44.18652" lon="3.20458">
        <ele>453</ele>
        <time>2021-09-30T14:52:37Z</time>
      </trkpt>
      <trkpt lat="44.1865" lon="3.20454">
        <ele>453.2</ele>
        <time>2021-09-30T14:52:38Z</time>
      </trkpt>
      <trkpt lat="44.18647" lon="3.2045">
        <ele>453.6</ele>
        <time>2021-09-30T14:52:40Z</time>
      </trkpt>
      <trkpt lat="44.18645" lon="3.20447">
        <ele>453.8</ele>
        <time>2021-09-30T14:52:41Z</time>
      </trkpt>
      <trkpt lat="44.18644" lon="3.20443">
        <ele>454.1</ele>
        <time>2021-09-30T14:52:42Z</time>
      </trkpt>
      <trkpt lat="44.18641" lon="3.20437">
        <ele>454.5</ele>
        <time>2021-09-30T14:52:44Z</time>
      </trkpt>
      <trkpt lat="44.18639" lon="3.20432">
        <ele>454.9</ele>
        <time>2021-09-30T14:52:45Z</time>
      </trkpt>
      <trkpt lat="44.18639" lon="3.2043">
        <ele>455</ele>
        <time>2021-09-30T14:52:46Z</time>
      </trkpt>
      <trkpt lat="44.18636" lon="3.20425">
        <ele>455.4</ele>
        <time>2021-09-30T14:52:48Z</time>
      </trkpt>
      <trkpt lat="44.18635" lon="3.20423">
        <ele>455.6</ele>
        <time>2021-09-30T14:52:49Z</time>
      </trkpt>
      <trkpt lat="44.18633" lon="3.20418">
        <ele>455.9</ele>
        <time>2021-09-30T14:52:51Z</time>
      </trkpt>
      <trkpt lat="44.1863" lon="3.20415">
        <ele>456.2</ele>
        <time>2021-09-30T14:52:52Z</time>
      </trkpt>
      <trkpt lat="44.18629" lon="3.20414">
        <ele>456.3</ele>
        <time>2021-09-30T14:52:53Z</time>
      </trkpt>
      <trkpt lat="44.18627" lon="3.20412">
        <ele>456.5</ele>
        <time>2021-09-30T14:52:55Z</time>
      </trkpt>
      <trkpt lat="44.18624" lon="3.20408">
        <ele>456.9</ele>
        <time>2021-09-30T14:52:57Z</time>
      </trkpt>
      <trkpt lat="44.18621" lon="3.20405">
        <ele>457.2</ele>
        <time>2021-09-30T14:52:58Z</time>
      </trkpt>
      <trkpt lat="44.18619" lon="3.20402">
        <ele>457.4</ele>
        <time>2021-09-30T14:53:00Z</time>
      </trkpt>
      <trkpt lat="44.18617" lon="3.20399">
        <ele>457.6</ele>
        <time>2021-09-30T14:53:01Z</time>
      </trkpt>
      <trkpt lat="44.18614" lon="3.20395">
        <ele>458</ele>
        <time>2021-09-30T14:53:03Z</time>
      </trkpt>
      <trkpt lat="44.1861" lon="3.20392">
        <ele>458.4</ele>
        <time>2021-09-30T14:53:05Z</time>
      </trkpt>
      <trkpt lat="44.18607" lon="3.20388">
        <ele>458.7</ele>
        <time>2021-09-30T14:53:07Z</time>
      </trkpt>
      <trkpt lat="44.18604" lon="3.20384">
        <ele>459.1</ele>
        <time>2021-09-30T14:53:09Z</time>
      </trkpt>
      <trkpt lat="44.18601" lon="3.2038">
        <ele>459.4</ele>
        <time>2021-09-30T14:53:11Z</time>
      </trkpt>
      <trkpt lat="44.18599" lon="3.20377">
        <ele>459.7</ele>
        <time>2021-09-30T14:53:12Z</time>
      </trkpt>
      <trkpt lat="44.18598" lon="3.20375">
        <ele>459.8</ele>
        <time>2021-09-30T14:53:13Z</time>
      </trkpt>
      <trkpt lat="44.18595" lon="3.20371">
        <ele>460.1</ele>
        <time>2021-09-30T14:53:15Z</time>
      </trkpt>
      <trkpt lat="44.18592" lon="3.20368">
        <ele>460.5</ele>
        <time>2021-09-30T14:53:17Z</time>
      </trkpt>
      <trkpt lat="44.18588" lon="3.20364">
        <ele>460.9</ele>
        <time>2021-09-30T14:53:19Z</time>
      </trkpt>
      <trkpt lat="44.18586" lon="3.20363">
        <ele>461.1</ele>
        <time>2021-09-30T14:53:20Z</time>
      </trkpt>
      <trkpt lat="44.18585" lon="3.20361">
        <ele>461.2</ele>
        <time>2021-09-30T14:53:21Z</time>
      </trkpt>
      <trkpt lat="44.18582" lon="3.20359">
        <ele>461.5</ele>
        <time>2021-09-30T14:53:23Z</time>
      </trkpt>
      <trkpt lat="44.18579" lon="3.20356">
        <ele>461.8</ele>
        <time>2021-09-30T14:53:25Z</time>
      </trkpt>
      <trkpt lat="44.18576" lon="3.20354">
        <ele>462.1</ele>
        <time>2021-09-30T14:53:26Z</time>
      </trkpt>
      <trkpt lat="44.18575" lon="3.20354">
        <ele>462.4</ele>
        <time>2021-09-30T14:53:27Z</time>
      </trkpt>
      <trkpt lat="44.18573" lon="3.20353">
        <ele>462.5</ele>
        <time>2021-09-30T14:53:28Z</time>
      </trkpt>
      <trkpt lat="44.18569" lon="3.20353">
        <ele>462.7</ele>
        <time>2021-09-30T14:53:30Z</time>
      </trkpt>
      <trkpt lat="44.18568" lon="3.20354">
        <ele>462.9</ele>
        <time>2021-09-30T14:53:31Z</time>
      </trkpt>
      <trkpt lat="44.18565" lon="3.20358">
        <ele>463.1</ele>
        <time>2021-09-30T14:53:33Z</time>
      </trkpt>
      <trkpt lat="44.18563" lon="3.20362">
        <ele>463.4</ele>
        <time>2021-09-30T14:53:35Z</time>
      </trkpt>
      <trkpt lat="44.18562" lon="3.20368">
        <ele>463.6</ele>
        <time>2021-09-30T14:53:37Z</time>
      </trkpt>
      <trkpt lat="44.18562" lon="3.2037">
        <ele>463.7</ele>
        <time>2021-09-30T14:53:38Z</time>
      </trkpt>
      <trkpt lat="44.18562" lon="3.20371">
        <ele>463.8</ele>
        <time>2021-09-30T14:53:39Z</time>
      </trkpt>
      <trkpt lat="44.18562" lon="3.20374">
        <ele>463.9</ele>
        <time>2021-09-30T14:53:40Z</time>
      </trkpt>
      <trkpt lat="44.18568" lon="3.2038">
        <ele>464.3</ele>
        <time>2021-09-30T14:53:42Z</time>
      </trkpt>
      <trkpt lat="44.18569" lon="3.20382">
        <ele>464.4</ele>
        <time>2021-09-30T14:53:43Z</time>
      </trkpt>
      <trkpt lat="44.18573" lon="3.20387">
        <ele>464.7</ele>
        <time>2021-09-30T14:53:45Z</time>
      </trkpt>
      <trkpt lat="44.18575" lon="3.2039">
        <ele>464.9</ele>
        <time>2021-09-30T14:53:46Z</time>
      </trkpt>
      <trkpt lat="44.18578" lon="3.20394">
        <ele>465.1</ele>
        <time>2021-09-30T14:53:48Z</time>
      </trkpt>
      <trkpt lat="44.18581" lon="3.20398">
        <ele>465.4</ele>
        <time>2021-09-30T14:53:49Z</time>
      </trkpt>
      <trkpt lat="44.18582" lon="3.204">
        <ele>465.4</ele>
        <time>2021-09-30T14:53:50Z</time>
      </trkpt>
      <trkpt lat="44.18583" lon="3.20404">
        <ele>465.6</ele>
        <time>2021-09-30T14:53:52Z</time>
      </trkpt>
      <trkpt lat="44.18586" lon="3.2041">
        <ele>465.9</ele>
        <time>2021-09-30T14:53:54Z</time>
      </trkpt>
      <trkpt lat="44.18586" lon="3.20412">
        <ele>466</ele>
        <time>2021-09-30T14:53:55Z</time>
      </trkpt>
      <trkpt lat="44.18588" lon="3.20418">
        <ele>466.2</ele>
        <time>2021-09-30T14:53:57Z</time>
      </trkpt>
      <trkpt lat="44.18589" lon="3.20424">
        <ele>466.5</ele>
        <time>2021-09-30T14:53:59Z</time>
      </trkpt>
      <trkpt lat="44.18589" lon="3.20429">
        <ele>466.7</ele>
        <time>2021-09-30T14:54:01Z</time>
      </trkpt>
      <trkpt lat="44.18589" lon="3.20432">
        <ele>466.8</ele>
        <time>2021-09-30T14:54:02Z</time>
      </trkpt>
      <trkpt lat="44.18589" lon="3.20436">
        <ele>467</ele>
        <time>2021-09-30T14:54:04Z</time>
      </trkpt>
      <trkpt lat="44.18589" lon="3.2044">
        <ele>467.2</ele>
        <time>2021-09-30T14:54:05Z</time>
      </trkpt>
      <trkpt lat="44.1859" lon="3.20445">
        <ele>467.4</ele>
        <time>2021-09-30T14:54:07Z</time>
      </trkpt>
      <trkpt lat="44.18591" lon="3.20451">
        <ele>467.7</ele>
        <time>2021-09-30T14:54:09Z</time>
      </trkpt>
      <trkpt lat="44.18592" lon="3.20454">
        <ele>467.8</ele>
        <time>2021-09-30T14:54:10Z</time>
      </trkpt>
      <trkpt lat="44.18594" lon="3.20459">
        <ele>468.2</ele>
        <time>2021-09-30T14:54:12Z</time>
      </trkpt>
      <trkpt lat="44.18596" lon="3.20463">
        <ele>468.4</ele>
        <time>2021-09-30T14:54:13Z</time>
      </trkpt>
      <trkpt lat="44.18596" lon="3.20465">
        <ele>468.5</ele>
        <time>2021-09-30T14:54:14Z</time>
      </trkpt>
      <trkpt lat="44.18598" lon="3.2047">
        <ele>468.8</ele>
        <time>2021-09-30T14:54:16Z</time>
      </trkpt>
      <trkpt lat="44.186" lon="3.20475">
        <ele>469.1</ele>
        <time>2021-09-30T14:54:18Z</time>
      </trkpt>
      <trkpt lat="44.18601" lon="3.20479">
        <ele>469.3</ele>
        <time>2021-09-30T14:54:20Z</time>
      </trkpt>
      <trkpt lat="44.18602" lon="3.20481">
        <ele>469.4</ele>
        <time>2021-09-30T14:54:21Z</time>
      </trkpt>
      <trkpt lat="44.18604" lon="3.20486">
        <ele>469.7</ele>
        <time>2021-09-30T14:54:23Z</time>
      </trkpt>
      <trkpt lat="44.18605" lon="3.2049">
        <ele>470</ele>
        <time>2021-09-30T14:54:24Z</time>
      </trkpt>
      <trkpt lat="44.18606" lon="3.20492">
        <ele>470.1</ele>
        <time>2021-09-30T14:54:25Z</time>
      </trkpt>
      <trkpt lat="44.18607" lon="3.20494">
        <ele>470.3</ele>
        <time>2021-09-30T14:54:26Z</time>
      </trkpt>
      <trkpt lat="44.18609" lon="3.20499">
        <ele>470.6</ele>
        <time>2021-09-30T14:54:28Z</time>
      </trkpt>
      <trkpt lat="44.1861" lon="3.20504">
        <ele>470.8</ele>
        <time>2021-09-30T14:54:30Z</time>
      </trkpt>
      <trkpt lat="44.18611" lon="3.20507">
        <ele>471.1</ele>
        <time>2021-09-30T14:54:31Z</time>
      </trkpt>
      <trkpt lat="44.18612" lon="3.20508">
        <ele>471.1</ele>
        <time>2021-09-30T14:54:32Z</time>
      </trkpt>
      <trkpt lat="44.18614" lon="3.20512">
        <ele>471.4</ele>
        <time>2021-09-30T14:54:34Z</time>
      </trkpt>
      <trkpt lat="44.18616" lon="3.20516">
        <ele>471.7</ele>
        <time>2021-09-30T14:54:35Z</time>
      </trkpt>
      <trkpt lat="44.18616" lon="3.20517">
        <ele>471.8</ele>
        <time>2021-09-30T14:54:36Z</time>
      </trkpt>
      <trkpt lat="44.18618" lon="3.2052">
        <ele>472</ele>
        <time>2021-09-30T14:54:37Z</time>
      </trkpt>
      <trkpt lat="44.1862" lon="3.20523">
        <ele>472.2</ele>
        <time>2021-09-30T14:54:39Z</time>
      </trkpt>
      <trkpt lat="44.18621" lon="3.20525">
        <ele>472.3</ele>
        <time>2021-09-30T14:54:40Z</time>
      </trkpt>
      <trkpt lat="44.18625" lon="3.20529">
        <ele>472.7</ele>
        <time>2021-09-30T14:54:42Z</time>
      </trkpt>
      <trkpt lat="44.18626" lon="3.20531">
        <ele>472.8</ele>
        <time>2021-09-30T14:54:43Z</time>
      </trkpt>
      <trkpt lat="44.18628" lon="3.20532">
        <ele>472.9</ele>
        <time>2021-09-30T14:54:44Z</time>
      </trkpt>
      <trkpt lat="44.18631" lon="3.20535">
        <ele>473.2</ele>
        <time>2021-09-30T14:54:46Z</time>
      </trkpt>
      <trkpt lat="44.18633" lon="3.20537">
        <ele>473.3</ele>
        <time>2021-09-30T14:54:47Z</time>
      </trkpt>
      <trkpt lat="44.18637" lon="3.20541">
        <ele>473.7</ele>
        <time>2021-09-30T14:54:49Z</time>
      </trkpt>
      <trkpt lat="44.18639" lon="3.20542">
        <ele>473.8</ele>
        <time>2021-09-30T14:54:50Z</time>
      </trkpt>
      <trkpt lat="44.18642" lon="3.20545">
        <ele>474.1</ele>
        <time>2021-09-30T14:54:52Z</time>
      </trkpt>
      <trkpt lat="44.18646" lon="3.2055">
        <ele>474.5</ele>
        <time>2021-09-30T14:54:54Z</time>
      </trkpt>
      <trkpt lat="44.18647" lon="3.20551">
        <ele>474.5</ele>
        <time>2021-09-30T14:54:55Z</time>
      </trkpt>
      <trkpt lat="44.18649" lon="3.20553">
        <ele>474.7</ele>
        <time>2021-09-30T14:54:56Z</time>
      </trkpt>
      <trkpt lat="44.18652" lon="3.20556">
        <ele>475</ele>
        <time>2021-09-30T14:54:58Z</time>
      </trkpt>
      <trkpt lat="44.18655" lon="3.20559">
        <ele>475.2</ele>
        <time>2021-09-30T14:54:59Z</time>
      </trkpt>
      <trkpt lat="44.18659" lon="3.20563">
        <ele>475.6</ele>
        <time>2021-09-30T14:55:01Z</time>
      </trkpt>
      <trkpt lat="44.18664" lon="3.20567">
        <ele>475.9</ele>
        <time>2021-09-30T14:55:03Z</time>
      </trkpt>
      <trkpt lat="44.18667" lon="3.20571">
        <ele>476.3</ele>
        <time>2021-09-30T14:55:05Z</time>
      </trkpt>
      <trkpt lat="44.18671" lon="3.20576">
        <ele>476.7</ele>
        <time>2021-09-30T14:55:07Z</time>
      </trkpt>
      <trkpt lat="44.18674" lon="3.20579">
        <ele>476.9</ele>
        <time>2021-09-30T14:55:08Z</time>
      </trkpt>
      <trkpt lat="44.18677" lon="3.20584">
        <ele>477.2</ele>
        <time>2021-09-30T14:55:10Z</time>
      </trkpt>
      <trkpt lat="44.18679" lon="3.20587">
        <ele>477.4</ele>
        <time>2021-09-30T14:55:11Z</time>
      </trkpt>
      <trkpt lat="44.18681" lon="3.20592">
        <ele>477.8</ele>
        <time>2021-09-30T14:55:13Z</time>
      </trkpt>
      <trkpt lat="44.18684" lon="3.20598">
        <ele>478.2</ele>
        <time>2021-09-30T14:55:15Z</time>
      </trkpt>
      <trkpt lat="44.18685" lon="3.20603">
        <ele>478.5</ele>
        <time>2021-09-30T14:55:16Z</time>
      </trkpt>
      <trkpt lat="44.18686" lon="3.20607">
        <ele>478.8</ele>
        <time>2021-09-30T14:55:18Z</time>
      </trkpt>
      <trkpt lat="44.18687" lon="3.20613">
        <ele>479.1</ele>
        <time>2021-09-30T14:55:20Z</time>
      </trkpt>
      <trkpt lat="44.18688" lon="3.20619">
        <ele>479.5</ele>
        <time>2021-09-30T14:55:22Z</time>
      </trkpt>
      <trkpt lat="44.18688" lon="3.20622">
        <ele>479.7</ele>
        <time>2021-09-30T14:55:23Z</time>
      </trkpt>
      <trkpt lat="44.18687" lon="3.20627">
        <ele>480</ele>
        <time>2021-09-30T14:55:25Z</time>
      </trkpt>
      <trkpt lat="44.18686" lon="3.20632">
        <ele>480.3</ele>
        <time>2021-09-30T14:55:26Z</time>
      </trkpt>
      <trkpt lat="44.18685" lon="3.20634">
        <ele>480.4</ele>
        <time>2021-09-30T14:55:27Z</time>
      </trkpt>
      <trkpt lat="44.18684" lon="3.20638">
        <ele>480.6</ele>
        <time>2021-09-30T14:55:29Z</time>
      </trkpt>
      <trkpt lat="44.18683" lon="3.2064">
        <ele>480.7</ele>
        <time>2021-09-30T14:55:30Z</time>
      </trkpt>
      <trkpt lat="44.18681" lon="3.20644">
        <ele>481</ele>
        <time>2021-09-30T14:55:31Z</time>
      </trkpt>
      <trkpt lat="44.1868" lon="3.20648">
        <ele>481.2</ele>
        <time>2021-09-30T14:55:33Z</time>
      </trkpt>
      <trkpt lat="44.18679" lon="3.20649">
        <ele>481.2</ele>
        <time>2021-09-30T14:55:34Z</time>
      </trkpt>
      <trkpt lat="44.18678" lon="3.20651">
        <ele>481.4</ele>
        <time>2021-09-30T14:55:35Z</time>
      </trkpt>
      <trkpt lat="44.18677" lon="3.20655">
        <ele>481.6</ele>
        <time>2021-09-30T14:55:37Z</time>
      </trkpt>
      <trkpt lat="44.18676" lon="3.20658">
        <ele>481.7</ele>
        <time>2021-09-30T14:55:38Z</time>
      </trkpt>
      <trkpt lat="44.18675" lon="3.2066">
        <ele>481.8</ele>
        <time>2021-09-30T14:55:39Z</time>
      </trkpt>
      <trkpt lat="44.18674" lon="3.20664">
        <ele>482</ele>
        <time>2021-09-30T14:55:41Z</time>
      </trkpt>
      <trkpt lat="44.18671" lon="3.20668">
        <ele>482.2</ele>
        <time>2021-09-30T14:55:43Z</time>
      </trkpt>
      <trkpt lat="44.1867" lon="3.20673">
        <ele>482.4</ele>
        <time>2021-09-30T14:55:45Z</time>
      </trkpt>
      <trkpt lat="44.18668" lon="3.20676">
        <ele>482.6</ele>
        <time>2021-09-30T14:55:46Z</time>
      </trkpt>
      <trkpt lat="44.18668" lon="3.20677">
        <ele>482.6</ele>
        <time>2021-09-30T14:55:47Z</time>
      </trkpt>
      <trkpt lat="44.18666" lon="3.2068">
        <ele>482.8</ele>
        <time>2021-09-30T14:55:48Z</time>
      </trkpt>
      <trkpt lat="44.18664" lon="3.20684">
        <ele>483</ele>
        <time>2021-09-30T14:55:50Z</time>
      </trkpt>
      <trkpt lat="44.18663" lon="3.20689">
        <ele>483.3</ele>
        <time>2021-09-30T14:55:52Z</time>
      </trkpt>
      <trkpt lat="44.18661" lon="3.20695">
        <ele>483.6</ele>
        <time>2021-09-30T14:55:54Z</time>
      </trkpt>
      <trkpt lat="44.1866" lon="3.20698">
        <ele>483.8</ele>
        <time>2021-09-30T14:55:55Z</time>
      </trkpt>
      <trkpt lat="44.18659" lon="3.207">
        <ele>483.9</ele>
        <time>2021-09-30T14:55:56Z</time>
      </trkpt>
      <trkpt lat="44.18658" lon="3.20704">
        <ele>484.2</ele>
        <time>2021-09-30T14:55:58Z</time>
      </trkpt>
      <trkpt lat="44.18656" lon="3.20708">
        <ele>484.4</ele>
        <time>2021-09-30T14:55:59Z</time>
      </trkpt>
      <trkpt lat="44.18655" lon="3.20711">
        <ele>484.6</ele>
        <time>2021-09-30T14:56:01Z</time>
      </trkpt>
      <trkpt lat="44.18653" lon="3.20715">
        <ele>484.9</ele>
        <time>2021-09-30T14:56:03Z</time>
      </trkpt>
      <trkpt lat="44.18651" lon="3.2072">
        <ele>485.1</ele>
        <time>2021-09-30T14:56:04Z</time>
      </trkpt>
      <trkpt lat="44.18651" lon="3.20721">
        <ele>485.2</ele>
        <time>2021-09-30T14:56:05Z</time>
      </trkpt>
      <trkpt lat="44.18649" lon="3.20725">
        <ele>485.5</ele>
        <time>2021-09-30T14:56:07Z</time>
      </trkpt>
      <trkpt lat="44.18649" lon="3.2073">
        <ele>485.7</ele>
        <time>2021-09-30T14:56:08Z</time>
      </trkpt>
      <trkpt lat="44.18649" lon="3.20734">
        <ele>486</ele>
        <time>2021-09-30T14:56:10Z</time>
      </trkpt>
      <trkpt lat="44.18649" lon="3.20739">
        <ele>486.3</ele>
        <time>2021-09-30T14:56:12Z</time>
      </trkpt>
      <trkpt lat="44.18648" lon="3.20744">
        <ele>486.5</ele>
        <time>2021-09-30T14:56:13Z</time>
      </trkpt>
      <trkpt lat="44.18648" lon="3.20746">
        <ele>486.6</ele>
        <time>2021-09-30T14:56:14Z</time>
      </trkpt>
      <trkpt lat="44.18647" lon="3.2075">
        <ele>486.9</ele>
        <time>2021-09-30T14:56:16Z</time>
      </trkpt>
      <trkpt lat="44.18647" lon="3.20752">
        <ele>487</ele>
        <time>2021-09-30T14:56:17Z</time>
      </trkpt>
      <trkpt lat="44.18647" lon="3.20757">
        <ele>487.3</ele>
        <time>2021-09-30T14:56:19Z</time>
      </trkpt>
      <trkpt lat="44.18646" lon="3.2076">
        <ele>487.4</ele>
        <time>2021-09-30T14:56:20Z</time>
      </trkpt>
      <trkpt lat="44.18646" lon="3.20766">
        <ele>487.8</ele>
        <time>2021-09-30T14:56:22Z</time>
      </trkpt>
      <trkpt lat="44.18645" lon="3.20771">
        <ele>488.1</ele>
        <time>2021-09-30T14:56:24Z</time>
      </trkpt>
      <trkpt lat="44.18643" lon="3.20776">
        <ele>488.4</ele>
        <time>2021-09-30T14:56:26Z</time>
      </trkpt>
      <trkpt lat="44.18642" lon="3.2078">
        <ele>488.6</ele>
        <time>2021-09-30T14:56:27Z</time>
      </trkpt>
      <trkpt lat="44.18641" lon="3.20781">
        <ele>488.7</ele>
        <time>2021-09-30T14:56:28Z</time>
      </trkpt>
      <trkpt lat="44.1864" lon="3.20786">
        <ele>488.9</ele>
        <time>2021-09-30T14:56:30Z</time>
      </trkpt>
      <trkpt lat="44.1864" lon="3.20788">
        <ele>489.1</ele>
        <time>2021-09-30T14:56:31Z</time>
      </trkpt>
      <trkpt lat="44.1864" lon="3.20791">
        <ele>489.2</ele>
        <time>2021-09-30T14:56:32Z</time>
      </trkpt>
      <trkpt lat="44.1864" lon="3.20793">
        <ele>489.3</ele>
        <time>2021-09-30T14:56:33Z</time>
      </trkpt>
      <trkpt lat="44.1864" lon="3.20798">
        <ele>489.6</ele>
        <time>2021-09-30T14:56:35Z</time>
      </trkpt>
      <trkpt lat="44.18639" lon="3.20801">
        <ele>489.8</ele>
        <time>2021-09-30T14:56:36Z</time>
      </trkpt>
      <trkpt lat="44.18639" lon="3.20802">
        <ele>489.9</ele>
        <time>2021-09-30T14:56:37Z</time>
      </trkpt>
      <trkpt lat="44.18638" lon="3.20807">
        <ele>490.1</ele>
        <time>2021-09-30T14:56:39Z</time>
      </trkpt>
      <trkpt lat="44.18638" lon="3.20811">
        <ele>490.4</ele>
        <time>2021-09-30T14:56:41Z</time>
      </trkpt>
      <trkpt lat="44.18637" lon="3.20815">
        <ele>490.6</ele>
        <time>2021-09-30T14:56:42Z</time>
      </trkpt>
      <trkpt lat="44.18636" lon="3.2082">
        <ele>490.9</ele>
        <time>2021-09-30T14:56:43Z</time>
      </trkpt>
      <trkpt lat="44.18635" lon="3.20821">
        <ele>491</ele>
        <time>2021-09-30T14:56:44Z</time>
      </trkpt>
      <trkpt lat="44.18634" lon="3.20827">
        <ele>491.3</ele>
        <time>2021-09-30T14:56:46Z</time>
      </trkpt>
      <trkpt lat="44.18633" lon="3.2083">
        <ele>491.5</ele>
        <time>2021-09-30T14:56:47Z</time>
      </trkpt>
      <trkpt lat="44.18631" lon="3.20835">
        <ele>491.9</ele>
        <time>2021-09-30T14:56:49Z</time>
      </trkpt>
      <trkpt lat="44.18629" lon="3.20838">
        <ele>492.1</ele>
        <time>2021-09-30T14:56:50Z</time>
      </trkpt>
      <trkpt lat="44.18627" lon="3.20841">
        <ele>492.3</ele>
        <time>2021-09-30T14:56:51Z</time>
      </trkpt>
      <trkpt lat="44.18624" lon="3.20847">
        <ele>492.7</ele>
        <time>2021-09-30T14:56:53Z</time>
      </trkpt>
      <trkpt lat="44.18622" lon="3.20848">
        <ele>492.9</ele>
        <time>2021-09-30T14:56:54Z</time>
      </trkpt>
      <trkpt lat="44.18621" lon="3.2085">
        <ele>493</ele>
        <time>2021-09-30T14:56:55Z</time>
      </trkpt>
      <trkpt lat="44.1862" lon="3.20853">
        <ele>493.2</ele>
        <time>2021-09-30T14:56:57Z</time>
      </trkpt>
      <trkpt lat="44.18618" lon="3.20856">
        <ele>493.4</ele>
        <time>2021-09-30T14:56:58Z</time>
      </trkpt>
      <trkpt lat="44.18615" lon="3.2086">
        <ele>493.8</ele>
        <time>2021-09-30T14:57:00Z</time>
      </trkpt>
      <trkpt lat="44.18613" lon="3.20864">
        <ele>494.1</ele>
        <time>2021-09-30T14:57:02Z</time>
      </trkpt>
      <trkpt lat="44.1861" lon="3.20869">
        <ele>494.5</ele>
        <time>2021-09-30T14:57:04Z</time>
      </trkpt>
      <trkpt lat="44.18608" lon="3.20873">
        <ele>494.8</ele>
        <time>2021-09-30T14:57:05Z</time>
      </trkpt>
      <trkpt lat="44.18607" lon="3.20874">
        <ele>494.8</ele>
        <time>2021-09-30T14:57:06Z</time>
      </trkpt>
      <trkpt lat="44.18605" lon="3.20878">
        <ele>495.1</ele>
        <time>2021-09-30T14:57:07Z</time>
      </trkpt>
      <trkpt lat="44.18603" lon="3.20882">
        <ele>495.4</ele>
        <time>2021-09-30T14:57:09Z</time>
      </trkpt>
      <trkpt lat="44.18603" lon="3.20883">
        <ele>495.5</ele>
        <time>2021-09-30T14:57:10Z</time>
      </trkpt>
      <trkpt lat="44.18602" lon="3.20885">
        <ele>495.6</ele>
        <time>2021-09-30T14:57:11Z</time>
      </trkpt>
      <trkpt lat="44.186" lon="3.20889">
        <ele>495.9</ele>
        <time>2021-09-30T14:57:13Z</time>
      </trkpt>
      <trkpt lat="44.18599" lon="3.20894">
        <ele>496.2</ele>
        <time>2021-09-30T14:57:15Z</time>
      </trkpt>
      <trkpt lat="44.18598" lon="3.20899">
        <ele>496.5</ele>
        <time>2021-09-30T14:57:16Z</time>
      </trkpt>
      <trkpt lat="44.18598" lon="3.20901">
        <ele>496.5</ele>
        <time>2021-09-30T14:57:17Z</time>
      </trkpt>
      <trkpt lat="44.18597" lon="3.20906">
        <ele>496.9</ele>
        <time>2021-09-30T14:57:18Z</time>
      </trkpt>
      <trkpt lat="44.18596" lon="3.20908">
        <ele>497</ele>
        <time>2021-09-30T14:57:19Z</time>
      </trkpt>
      <trkpt lat="44.18596" lon="3.20911">
        <ele>497.2</ele>
        <time>2021-09-30T14:57:20Z</time>
      </trkpt>
      <trkpt lat="44.18594" lon="3.20916">
        <ele>497.5</ele>
        <time>2021-09-30T14:57:22Z</time>
      </trkpt>
      <trkpt lat="44.18593" lon="3.20921">
        <ele>497.8</ele>
        <time>2021-09-30T14:57:24Z</time>
      </trkpt>
      <trkpt lat="44.18593" lon="3.20925">
        <ele>498</ele>
        <time>2021-09-30T14:57:25Z</time>
      </trkpt>
      <trkpt lat="44.18592" lon="3.2093">
        <ele>498.4</ele>
        <time>2021-09-30T14:57:27Z</time>
      </trkpt>
      <trkpt lat="44.18592" lon="3.20934">
        <ele>498.6</ele>
        <time>2021-09-30T14:57:28Z</time>
      </trkpt>
      <trkpt lat="44.18591" lon="3.20939">
        <ele>498.9</ele>
        <time>2021-09-30T14:57:29Z</time>
      </trkpt>
      <trkpt lat="44.18591" lon="3.2094">
        <ele>499</ele>
        <time>2021-09-30T14:57:30Z</time>
      </trkpt>
      <trkpt lat="44.18591" lon="3.20945">
        <ele>499.3</ele>
        <time>2021-09-30T14:57:32Z</time>
      </trkpt>
      <trkpt lat="44.18591" lon="3.20946">
        <ele>499.3</ele>
        <time>2021-09-30T14:57:33Z</time>
      </trkpt>
      <trkpt lat="44.18591" lon="3.20951">
        <ele>499.7</ele>
        <time>2021-09-30T14:57:34Z</time>
      </trkpt>
      <trkpt lat="44.18591" lon="3.20953">
        <ele>499.8</ele>
        <time>2021-09-30T14:57:35Z</time>
      </trkpt>
      <trkpt lat="44.18589" lon="3.20959">
        <ele>500.1</ele>
        <time>2021-09-30T14:57:37Z</time>
      </trkpt>
      <trkpt lat="44.18588" lon="3.2096">
        <ele>500.3</ele>
        <time>2021-09-30T14:57:38Z</time>
      </trkpt>
      <trkpt lat="44.18587" lon="3.20962">
        <ele>500.4</ele>
        <time>2021-09-30T14:57:39Z</time>
      </trkpt>
      <trkpt lat="44.18585" lon="3.20966">
        <ele>500.7</ele>
        <time>2021-09-30T14:57:40Z</time>
      </trkpt>
      <trkpt lat="44.18584" lon="3.20968">
        <ele>500.9</ele>
        <time>2021-09-30T14:57:41Z</time>
      </trkpt>
      <trkpt lat="44.18582" lon="3.20973">
        <ele>501.2</ele>
        <time>2021-09-30T14:57:43Z</time>
      </trkpt>
      <trkpt lat="44.18581" lon="3.20974">
        <ele>501.3</ele>
        <time>2021-09-30T14:57:44Z</time>
      </trkpt>
      <trkpt lat="44.18579" lon="3.20977">
        <ele>501.5</ele>
        <time>2021-09-30T14:57:45Z</time>
      </trkpt>
      <trkpt lat="44.18577" lon="3.20982">
        <ele>501.9</ele>
        <time>2021-09-30T14:57:47Z</time>
      </trkpt>
      <trkpt lat="44.18575" lon="3.20984">
        <ele>502</ele>
        <time>2021-09-30T14:57:48Z</time>
      </trkpt>
      <trkpt lat="44.18572" lon="3.20988">
        <ele>502.4</ele>
        <time>2021-09-30T14:57:50Z</time>
      </trkpt>
      <trkpt lat="44.1857" lon="3.20993">
        <ele>502.7</ele>
        <time>2021-09-30T14:57:51Z</time>
      </trkpt>
      <trkpt lat="44.18569" lon="3.20994">
        <ele>502.8</ele>
        <time>2021-09-30T14:57:52Z</time>
      </trkpt>
      <trkpt lat="44.18566" lon="3.20999">
        <ele>503.1</ele>
        <time>2021-09-30T14:57:54Z</time>
      </trkpt>
      <trkpt lat="44.18563" lon="3.21004">
        <ele>503.4</ele>
        <time>2021-09-30T14:57:56Z</time>
      </trkpt>
      <trkpt lat="44.18561" lon="3.21007">
        <ele>503.6</ele>
        <time>2021-09-30T14:57:57Z</time>
      </trkpt>
      <trkpt lat="44.18558" lon="3.21012">
        <ele>503.9</ele>
        <time>2021-09-30T14:57:58Z</time>
      </trkpt>
      <trkpt lat="44.18556" lon="3.21015">
        <ele>504.2</ele>
        <time>2021-09-30T14:58:00Z</time>
      </trkpt>
      <trkpt lat="44.18553" lon="3.21017">
        <ele>504.4</ele>
        <time>2021-09-30T14:58:01Z</time>
      </trkpt>
      <trkpt lat="44.18551" lon="3.2102">
        <ele>504.6</ele>
        <time>2021-09-30T14:58:02Z</time>
      </trkpt>
      <trkpt lat="44.1855" lon="3.21021">
        <ele>504.7</ele>
        <time>2021-09-30T14:58:03Z</time>
      </trkpt>
      <trkpt lat="44.18548" lon="3.21024">
        <ele>504.9</ele>
        <time>2021-09-30T14:58:05Z</time>
      </trkpt>
      <trkpt lat="44.18544" lon="3.21027">
        <ele>505.2</ele>
        <time>2021-09-30T14:58:07Z</time>
      </trkpt>
      <trkpt lat="44.18541" lon="3.2103">
        <ele>505.5</ele>
        <time>2021-09-30T14:58:08Z</time>
      </trkpt>
      <trkpt lat="44.1854" lon="3.21031">
        <ele>505.6</ele>
        <time>2021-09-30T14:58:09Z</time>
      </trkpt>
      <trkpt lat="44.18537" lon="3.21035">
        <ele>505.9</ele>
        <time>2021-09-30T14:58:11Z</time>
      </trkpt>
      <trkpt lat="44.18536" lon="3.21036">
        <ele>506</ele>
        <time>2021-09-30T14:58:12Z</time>
      </trkpt>
      <trkpt lat="44.18535" lon="3.21038">
        <ele>506.1</ele>
        <time>2021-09-30T14:58:13Z</time>
      </trkpt>
      <trkpt lat="44.18532" lon="3.21041">
        <ele>506.4</ele>
        <time>2021-09-30T14:58:15Z</time>
      </trkpt>
      <trkpt lat="44.18531" lon="3.21042">
        <ele>506.5</ele>
        <time>2021-09-30T14:58:16Z</time>
      </trkpt>
      <trkpt lat="44.18529" lon="3.21045">
        <ele>506.7</ele>
        <time>2021-09-30T14:58:17Z</time>
      </trkpt>
      <trkpt lat="44.18528" lon="3.21047">
        <ele>506.8</ele>
        <time>2021-09-30T14:58:18Z</time>
      </trkpt>
      <trkpt lat="44.18525" lon="3.2105">
        <ele>507.1</ele>
        <time>2021-09-30T14:58:20Z</time>
      </trkpt>
      <trkpt lat="44.18522" lon="3.21053">
        <ele>507.4</ele>
        <time>2021-09-30T14:58:21Z</time>
      </trkpt>
      <trkpt lat="44.1852" lon="3.21055">
        <ele>507.5</ele>
        <time>2021-09-30T14:58:22Z</time>
      </trkpt>
      <trkpt lat="44.18518" lon="3.21057">
        <ele>507.8</ele>
        <time>2021-09-30T14:58:24Z</time>
      </trkpt>
      <trkpt lat="44.18515" lon="3.2106">
        <ele>508.1</ele>
        <time>2021-09-30T14:58:26Z</time>
      </trkpt>
      <trkpt lat="44.18511" lon="3.21063">
        <ele>508.4</ele>
        <time>2021-09-30T14:58:28Z</time>
      </trkpt>
      <trkpt lat="44.18507" lon="3.21066">
        <ele>508.7</ele>
        <time>2021-09-30T14:58:30Z</time>
      </trkpt>
      <trkpt lat="44.18505" lon="3.21066">
        <ele>508.8</ele>
        <time>2021-09-30T14:58:31Z</time>
      </trkpt>
      <trkpt lat="44.18503" lon="3.21067">
        <ele>508.9</ele>
        <time>2021-09-30T14:58:33Z</time>
      </trkpt>
      <trkpt lat="44.185" lon="3.21068">
        <ele>509.2</ele>
        <time>2021-09-30T14:58:34Z</time>
      </trkpt>
      <trkpt lat="44.18497" lon="3.21069">
        <ele>509.4</ele>
        <time>2021-09-30T14:58:36Z</time>
      </trkpt>
      <trkpt lat="44.18492" lon="3.21071">
        <ele>509.8</ele>
        <time>2021-09-30T14:58:38Z</time>
      </trkpt>
      <trkpt lat="44.18488" lon="3.21072">
        <ele>510.1</ele>
        <time>2021-09-30T14:58:40Z</time>
      </trkpt>
      <trkpt lat="44.18487" lon="3.21073">
        <ele>510.2</ele>
        <time>2021-09-30T14:58:41Z</time>
      </trkpt>
      <trkpt lat="44.18485" lon="3.21074">
        <ele>510.3</ele>
        <time>2021-09-30T14:58:42Z</time>
      </trkpt>
      <trkpt lat="44.18482" lon="3.21074">
        <ele>510.6</ele>
        <time>2021-09-30T14:58:44Z</time>
      </trkpt>
      <trkpt lat="44.18478" lon="3.21073">
        <ele>510.9</ele>
        <time>2021-09-30T14:58:46Z</time>
      </trkpt>
      <trkpt lat="44.18476" lon="3.21073">
        <ele>511</ele>
        <time>2021-09-30T14:58:47Z</time>
      </trkpt>
      <trkpt lat="44.18471" lon="3.21073">
        <ele>511.3</ele>
        <time>2021-09-30T14:58:49Z</time>
      </trkpt>
      <trkpt lat="44.18469" lon="3.21073">
        <ele>511.5</ele>
        <time>2021-09-30T14:58:50Z</time>
      </trkpt>
      <trkpt lat="44.18464" lon="3.21074">
        <ele>511.8</ele>
        <time>2021-09-30T14:58:52Z</time>
      </trkpt>
      <trkpt lat="44.18459" lon="3.21074">
        <ele>512.2</ele>
        <time>2021-09-30T14:58:54Z</time>
      </trkpt>
      <trkpt lat="44.18455" lon="3.21074">
        <ele>512.4</ele>
        <time>2021-09-30T14:58:55Z</time>
      </trkpt>
      <trkpt lat="44.18453" lon="3.21074">
        <ele>512.6</ele>
        <time>2021-09-30T14:58:56Z</time>
      </trkpt>
      <trkpt lat="44.18449" lon="3.21074">
        <ele>512.8</ele>
        <time>2021-09-30T14:58:58Z</time>
      </trkpt>
      <trkpt lat="44.18445" lon="3.21074">
        <ele>513.1</ele>
        <time>2021-09-30T14:59:00Z</time>
      </trkpt>
      <trkpt lat="44.1844" lon="3.21075">
        <ele>513.4</ele>
        <time>2021-09-30T14:59:01Z</time>
      </trkpt>
      <trkpt lat="44.18439" lon="3.21076">
        <ele>513.5</ele>
        <time>2021-09-30T14:59:02Z</time>
      </trkpt>
      <trkpt lat="44.18437" lon="3.21076">
        <ele>513.7</ele>
        <time>2021-09-30T14:59:03Z</time>
      </trkpt>
      <trkpt lat="44.18433" lon="3.21077">
        <ele>513.9</ele>
        <time>2021-09-30T14:59:05Z</time>
      </trkpt>
      <trkpt lat="44.18431" lon="3.21078">
        <ele>514.1</ele>
        <time>2021-09-30T14:59:06Z</time>
      </trkpt>
      <trkpt lat="44.18426" lon="3.21079">
        <ele>514.4</ele>
        <time>2021-09-30T14:59:08Z</time>
      </trkpt>
      <trkpt lat="44.18422" lon="3.21078">
        <ele>514.7</ele>
        <time>2021-09-30T14:59:10Z</time>
      </trkpt>
      <trkpt lat="44.1842" lon="3.21078">
        <ele>514.9</ele>
        <time>2021-09-30T14:59:11Z</time>
      </trkpt>
      <trkpt lat="44.18416" lon="3.21079">
        <ele>515.1</ele>
        <time>2021-09-30T14:59:13Z</time>
      </trkpt>
      <trkpt lat="44.18413" lon="3.21081">
        <ele>515.3</ele>
        <time>2021-09-30T14:59:14Z</time>
      </trkpt>
      <trkpt lat="44.1841" lon="3.21082">
        <ele>515.6</ele>
        <time>2021-09-30T14:59:16Z</time>
      </trkpt>
      <trkpt lat="44.18406" lon="3.21084">
        <ele>515.8</ele>
        <time>2021-09-30T14:59:17Z</time>
      </trkpt>
      <trkpt lat="44.18405" lon="3.21085">
        <ele>515.9</ele>
        <time>2021-09-30T14:59:18Z</time>
      </trkpt>
      <trkpt lat="44.184" lon="3.21085">
        <ele>516.2</ele>
        <time>2021-09-30T14:59:20Z</time>
      </trkpt>
      <trkpt lat="44.18398" lon="3.21086">
        <ele>516.3</ele>
        <time>2021-09-30T14:59:21Z</time>
      </trkpt>
      <trkpt lat="44.18397" lon="3.21086">
        <ele>516.5</ele>
        <time>2021-09-30T14:59:22Z</time>
      </trkpt>
      <trkpt lat="44.18393" lon="3.21087">
        <ele>516.7</ele>
        <time>2021-09-30T14:59:23Z</time>
      </trkpt>
      <trkpt lat="44.18389" lon="3.21088">
        <ele>517</ele>
        <time>2021-09-30T14:59:25Z</time>
      </trkpt>
      <trkpt lat="44.18385" lon="3.2109">
        <ele>517.2</ele>
        <time>2021-09-30T14:59:26Z</time>
      </trkpt>
      <trkpt lat="44.18381" lon="3.21094">
        <ele>517.5</ele>
        <time>2021-09-30T14:59:28Z</time>
      </trkpt>
      <trkpt lat="44.1838" lon="3.21095">
        <ele>517.6</ele>
        <time>2021-09-30T14:59:29Z</time>
      </trkpt>
      <trkpt lat="44.18379" lon="3.21097">
        <ele>517.7</ele>
        <time>2021-09-30T14:59:30Z</time>
      </trkpt>
      <trkpt lat="44.18376" lon="3.211">
        <ele>517.9</ele>
        <time>2021-09-30T14:59:32Z</time>
      </trkpt>
      <trkpt lat="44.18375" lon="3.21102">
        <ele>518.1</ele>
        <time>2021-09-30T14:59:33Z</time>
      </trkpt>
      <trkpt lat="44.18372" lon="3.21106">
        <ele>518.3</ele>
        <time>2021-09-30T14:59:35Z</time>
      </trkpt>
      <trkpt lat="44.1837" lon="3.2111">
        <ele>518.5</ele>
        <time>2021-09-30T14:59:37Z</time>
      </trkpt>
      <trkpt lat="44.18369" lon="3.21112">
        <ele>518.6</ele>
        <time>2021-09-30T14:59:38Z</time>
      </trkpt>
      <trkpt lat="44.18367" lon="3.21117">
        <ele>518.9</ele>
        <time>2021-09-30T14:59:40Z</time>
      </trkpt>
      <trkpt lat="44.18365" lon="3.21122">
        <ele>519.1</ele>
        <time>2021-09-30T14:59:42Z</time>
      </trkpt>
      <trkpt lat="44.18363" lon="3.21127">
        <ele>519.3</ele>
        <time>2021-09-30T14:59:44Z</time>
      </trkpt>
      <trkpt lat="44.18363" lon="3.21129">
        <ele>519.4</ele>
        <time>2021-09-30T14:59:45Z</time>
      </trkpt>
      <trkpt lat="44.1836" lon="3.21134">
        <ele>519.7</ele>
        <time>2021-09-30T14:59:47Z</time>
      </trkpt>
      <trkpt lat="44.18359" lon="3.21137">
        <ele>519.8</ele>
        <time>2021-09-30T14:59:48Z</time>
      </trkpt>
      <trkpt lat="44.18357" lon="3.21142">
        <ele>520.1</ele>
        <time>2021-09-30T14:59:50Z</time>
      </trkpt>
      <trkpt lat="44.18355" lon="3.21145">
        <ele>520.3</ele>
        <time>2021-09-30T14:59:52Z</time>
      </trkpt>
      <trkpt lat="44.18353" lon="3.21146">
        <ele>520.4</ele>
        <time>2021-09-30T14:59:53Z</time>
      </trkpt>
      <trkpt lat="44.18349" lon="3.21147">
        <ele>520.7</ele>
        <time>2021-09-30T14:59:55Z</time>
      </trkpt>
      <trkpt lat="44.18342" lon="3.21143">
        <ele>518.3</ele>
      </trkpt>
      <trkpt lat="44.18342" lon="3.21137">
        <ele>521.1</ele>
      </trkpt>
      <trkpt lat="44.18349" lon="3.21128">
        <ele>521.9</ele>
      </trkpt>
      <trkpt lat="44.18373" lon="3.21097">
        <ele>523.6</ele>
      </trkpt>
      <trkpt lat="44.18386" lon="3.21085">
        <ele>520.4</ele>
      </trkpt>
      <trkpt lat="44.18418" lon="3.21073">
        <ele>522.4</ele>
      </trkpt>
      <trkpt lat="44.18453" lon="3.21057">
        <ele>525.4</ele>
      </trkpt>
      <trkpt lat="44.18474" lon="3.2104">
        <ele>529</ele>
      </trkpt>
      <trkpt lat="44.18493" lon="3.21011">
        <ele>530.4</ele>
      </trkpt>
      <trkpt lat="44.18519" lon="3.20959">
        <ele>531.1</ele>
      </trkpt>
      <trkpt lat="44.18549" lon="3.20826">
        <ele>538.8</ele>
      </trkpt>
      <trkpt lat="44.18551" lon="3.20791">
        <ele>541.9</ele>
      </trkpt>
      <trkpt lat="44.18545" lon="3.2072">
        <ele>547</ele>
      </trkpt>
      <trkpt lat="44.18547" lon="3.20681">
        <ele>550.1</ele>
      </trkpt>
      <trkpt lat="44.18542" lon="3.20656">
        <ele>550.3</ele>
      </trkpt>
      <trkpt lat="44.18523" lon="3.20642">
        <ele>554.2</ele>
      </trkpt>
      <trkpt lat="44.18502" lon="3.20629">
        <ele>556.5</ele>
      </trkpt>
      <trkpt lat="44.18487" lon="3.20615">
        <ele>558.5</ele>
      </trkpt>
      <trkpt lat="44.18445" lon="3.20545">
        <ele>560.9</ele>
      </trkpt>
      <trkpt lat="44.18417" lon="3.20512">
        <ele>565.3</ele>
      </trkpt>
      <trkpt lat="44.18395" lon="3.20492">
        <ele>565.8</ele>
      </trkpt>
      <trkpt lat="44.18368" lon="3.20478">
        <ele>567.1</ele>
      </trkpt>
      <trkpt lat="44.18332" lon="3.20471">
        <ele>568.7</ele>
      </trkpt>
      <trkpt lat="44.18295" lon="3.20467">
        <ele>573.2</ele>
      </trkpt>
      <trkpt lat="44.18267" lon="3.20458">
        <ele>574.9</ele>
      </trkpt>
      <trkpt lat="44.18243" lon="3.20454">
        <ele>576.8</ele>
      </trkpt>
      <trkpt lat="44.18213" lon="3.20461">
        <ele>581.1</ele>
      </trkpt>
      <trkpt lat="44.18177" lon="3.20459">
        <ele>586.4</ele>
      </trkpt>
      <trkpt lat="44.18144" lon="3.20445">
        <ele>588.5</ele>
      </trkpt>
      <trkpt lat="44.18123" lon="3.20414">
        <ele>587.6</ele>
      </trkpt>
      <trkpt lat="44.18103" lon="3.20375">
        <ele>586.9</ele>
      </trkpt>
      <trkpt lat="44.1809" lon="3.2036">
        <ele>587.8</ele>
      </trkpt>
      <trkpt lat="44.18081" lon="3.20364">
        <ele>593.4</ele>
      </trkpt>
      <trkpt lat="44.18083" lon="3.20379">
        <ele>599.6</ele>
      </trkpt>
      <trkpt lat="44.18096" lon="3.20387">
        <ele>595.3</ele>
      </trkpt>
      <trkpt lat="44.18109" lon="3.20406">
        <ele>593.8</ele>
      </trkpt>
      <trkpt lat="44.18126" lon="3.20447">
        <ele>597</ele>
      </trkpt>
      <trkpt lat="44.18148" lon="3.20476">
        <ele>602.4</ele>
      </trkpt>
      <trkpt lat="44.1819" lon="3.20498">
        <ele>602.7</ele>
      </trkpt>
      <trkpt lat="44.18233" lon="3.20508">
        <ele>606.4</ele>
      </trkpt>
      <trkpt lat="44.18328" lon="3.20554">
        <ele>615.1</ele>
      </trkpt>
      <trkpt lat="44.18348" lon="3.2057">
        <ele>616.9</ele>
      </trkpt>
      <trkpt lat="44.18368" lon="3.20596">
        <ele>619.8</ele>
      </trkpt>
      <trkpt lat="44.18422" lon="3.20685">
        <ele>625.7</ele>
      </trkpt>
      <trkpt lat="44.18433" lon="3.20698">
        <ele>624.9</ele>
      </trkpt>
      <trkpt lat="44.18449" lon="3.20738">
        <ele>625.9</ele>
      </trkpt>
      <trkpt lat="44.1845" lon="3.20759">
        <ele>626.6</ele>
      </trkpt>
      <trkpt lat="44.18442" lon="3.2079">
        <ele>630</ele>
      </trkpt>
      <trkpt lat="44.18432" lon="3.20806">
        <ele>632.5</ele>
      </trkpt>
      <trkpt lat="44.18427" lon="3.20804">
        <ele>635.6</ele>
      </trkpt>
      <trkpt lat="44.18427" lon="3.20793">
        <ele>638.2</ele>
      </trkpt>
      <trkpt lat="44.18436" lon="3.20764">
        <ele>636.4</ele>
      </trkpt>
      <trkpt lat="44.18436" lon="3.20746">
        <ele>636.3</ele>
      </trkpt>
      <trkpt lat="44.18395" lon="3.20694">
        <ele>642.8</ele>
      </trkpt>
      <trkpt lat="44.18332" lon="3.2063">
        <ele>649.8</ele>
      </trkpt>
      <trkpt lat="44.18302" lon="3.20611">
        <ele>649.4</ele>
      </trkpt>
      <trkpt lat="44.18223" lon="3.20603">
        <ele>659.4</ele>
      </trkpt>
      <trkpt lat="44.18196" lon="3.20599">
        <ele>659.9</ele>
      </trkpt>
      <trkpt lat="44.18168" lon="3.20588">
        <ele>663.7</ele>
      </trkpt>
      <trkpt lat="44.18141" lon="3.20573">
        <ele>664.7</ele>
      </trkpt>
      <trkpt lat="44.18107" lon="3.20566">
        <ele>672.6</ele>
      </trkpt>
      <trkpt lat="44.18065" lon="3.2054">
        <ele>676</ele>
      </trkpt>
      <trkpt lat="44.18034" lon="3.20518">
        <ele>678</ele>
      </trkpt>
      <trkpt lat="44.18018" lon="3.20484">
        <ele>673.1</ele>
      </trkpt>
      <trkpt lat="44.18011" lon="3.20485">
        <ele>674.3</ele>
      </trkpt>
      <trkpt lat="44.18003" lon="3.20496">
        <ele>677.7</ele>
      </trkpt>
      <trkpt lat="44.17988" lon="3.20515">
        <ele>682</ele>
      </trkpt>
      <trkpt lat="44.17963" lon="3.20529">
        <ele>682.6</ele>
      </trkpt>
      <trkpt lat="44.17937" lon="3.20547">
        <ele>683.7</ele>
      </trkpt>
      <trkpt lat="44.17891" lon="3.20598">
        <ele>688.3</ele>
      </trkpt>
      <trkpt lat="44.17858" lon="3.20647">
        <ele>692.2</ele>
      </trkpt>
      <trkpt lat="44.17845" lon="3.20666">
        <ele>690</ele>
      </trkpt>
      <trkpt lat="44.17843" lon="3.20686">
        <ele>691.9</ele>
      </trkpt>
      <trkpt lat="44.17851" lon="3.20714">
        <ele>694.7</ele>
      </trkpt>
      <trkpt lat="44.17858" lon="3.20731">
        <ele>696.9</ele>
      </trkpt>
      <trkpt lat="44.17852" lon="3.20749">
        <ele>698.2</ele>
      </trkpt>
      <trkpt lat="44.17834" lon="3.20762">
        <ele>699.7</ele>
      </trkpt>
      <trkpt lat="44.17811" lon="3.20774">
        <ele>701.1</ele>
      </trkpt>
      <trkpt lat="44.17787" lon="3.20802">
        <ele>701.3</ele>
      </trkpt>
      <trkpt lat="44.17762" lon="3.20841">
        <ele>705.6</ele>
      </trkpt>
      <trkpt lat="44.17699" lon="3.20896">
        <ele>709.5</ele>
      </trkpt>
      <trkpt lat="44.17674" lon="3.20923">
        <ele>712.9</ele>
      </trkpt>
      <trkpt lat="44.17657" lon="3.20916">
        <ele>712.3</ele>
      </trkpt>
      <trkpt lat="44.17604" lon="3.20867">
        <ele>717.1</ele>
      </trkpt>
      <trkpt lat="44.17568" lon="3.20861">
        <ele>719</ele>
      </trkpt>
      <trkpt lat="44.17534" lon="3.20844">
        <ele>721.5</ele>
      </trkpt>
      <trkpt lat="44.17508" lon="3.2083">
        <ele>721.8</ele>
      </trkpt>
      <trkpt lat="44.17475" lon="3.20817">
        <ele>723.2</ele>
      </trkpt>
      <trkpt lat="44.1743" lon="3.20813">
        <ele>725.2</ele>
      </trkpt>
      <trkpt lat="44.17391" lon="3.2081">
        <ele>727.1</ele>
      </trkpt>
      <trkpt lat="44.17367" lon="3.20807">
        <ele>728.7</ele>
      </trkpt>
      <trkpt lat="44.17343" lon="3.20785">
        <ele>728.8</ele>
      </trkpt>
      <trkpt lat="44.1733" lon="3.2078">
        <ele>729.2</ele>
      </trkpt>
      <trkpt lat="44.17319" lon="3.20707">
        <ele>724.7</ele>
      </trkpt>
      <trkpt lat="44.17321" lon="3.20643">
        <ele>725.3</ele>
      </trkpt>
      <trkpt lat="44.17333" lon="3.20578">
        <ele>728.4</ele>
      </trkpt>
      <trkpt lat="44.17348" lon="3.20487">
        <ele>736.2</ele>
      </trkpt>
      <trkpt lat="44.1735" lon="3.20454">
        <ele>737.3</ele>
      </trkpt>
      <trkpt lat="44.17347" lon="3.2042">
        <ele>737.9</ele>
      </trkpt>
      <trkpt lat="44.1734" lon="3.20377">
        <ele>738</ele>
      </trkpt>
      <trkpt lat="44.17331" lon="3.20342">
        <ele>738</ele>
      </trkpt>
      <trkpt lat="44.17321" lon="3.20316">
        <ele>737.2</ele>
      </trkpt>
      <trkpt lat="44.17302" lon="3.2029">
        <ele>737.1</ele>
      </trkpt>
      <trkpt lat="44.17283" lon="3.20287">
        <ele>737.8</ele>
      </trkpt>
      <trkpt lat="44.17267" lon="3.20295">
        <ele>738.5</ele>
      </trkpt>
      <trkpt lat="44.17257" lon="3.20302">
        <ele>738.8</ele>
      </trkpt>
      <trkpt lat="44.1724" lon="3.20301">
        <ele>739.5</ele>
      </trkpt>
      <trkpt lat="44.17231" lon="3.20293">
        <ele>740.2</ele>
      </trkpt>
      <trkpt lat="44.17223" lon="3.20278">
        <ele>741</ele>
      </trkpt>
      <trkpt lat="44.17225" lon="3.20218">
        <ele>743</ele>
      </trkpt>
      <trkpt lat="44.17212" lon="3.20228">
        <ele>743.9</ele>
      </trkpt>
      <trkpt lat="44.17182" lon="3.20226">
        <ele>747.2</ele>
      </trkpt>
      <trkpt lat="44.17158" lon="3.20231">
        <ele>750</ele>
      </trkpt>
      <trkpt lat="44.17144" lon="3.20225">
        <ele>751.5</ele>
      </trkpt>
      <trkpt lat="44.17139" lon="3.20213">
        <ele>751.7</ele>
      </trkpt>
      <trkpt lat="44.17121" lon="3.20197">
        <ele>752.3</ele>
      </trkpt>
      <trkpt lat="44.17105" lon="3.20195">
        <ele>753.3</ele>
      </trkpt>
      <trkpt lat="44.17092" lon="3.20201">
        <ele>753.9</ele>
      </trkpt>
      <trkpt lat="44.17048" lon="3.202">
        <ele>755.2</ele>
      </trkpt>
      <trkpt lat="44.17027" lon="3.20209">
        <ele>755.5</ele>
      </trkpt>
      <trkpt lat="44.16966" lon="3.20255">
        <ele>753.7</ele>
      </trkpt>
      <trkpt lat="44.16947" lon="3.20264">
        <ele>753.8</ele>
      </trkpt>
      <trkpt lat="44.16896" lon="3.20312">
        <ele>753.7</ele>
      </trkpt>
      <trkpt lat="44.16881" lon="3.2033">
        <ele>754.1</ele>
      </trkpt>
      <trkpt lat="44.1687" lon="3.20366">
        <ele>753.4</ele>
      </trkpt>
      <trkpt lat="44.16856" lon="3.20377">
        <ele>754.4</ele>
      </trkpt>
      <trkpt lat="44.16847" lon="3.20387">
        <ele>754.6</ele>
      </trkpt>
      <trkpt lat="44.16812" lon="3.20425">
        <ele>756.7</ele>
      </trkpt>
      <trkpt lat="44.16787" lon="3.20441">
        <ele>758.2</ele>
      </trkpt>
      <trkpt lat="44.16771" lon="3.20449">
        <ele>759.5</ele>
      </trkpt>
      <trkpt lat="44.16756" lon="3.20444">
        <ele>761.4</ele>
      </trkpt>
      <trkpt lat="44.16739" lon="3.20438">
        <ele>762.2</ele>
      </trkpt>
      <trkpt lat="44.16724" lon="3.20414">
        <ele>763</ele>
      </trkpt>
      <trkpt lat="44.16723" lon="3.20397">
        <ele>763</ele>
      </trkpt>
      <trkpt lat="44.16724" lon="3.20375">
        <ele>762.6</ele>
      </trkpt>
      <trkpt lat="44.16728" lon="3.20356">
        <ele>762.6</ele>
      </trkpt>
      <trkpt lat="44.16723" lon="3.20335">
        <ele>763</ele>
      </trkpt>
      <trkpt lat="44.16715" lon="3.20313">
        <ele>763.1</ele>
      </trkpt>
      <trkpt lat="44.16705" lon="3.20289">
        <ele>762</ele>
      </trkpt>
      <trkpt lat="44.16691" lon="3.20285">
        <ele>761.4</ele>
      </trkpt>
      <trkpt lat="44.16678" lon="3.20283">
        <ele>760.9</ele>
      </trkpt>
      <trkpt lat="44.16664" lon="3.20292">
        <ele>761.5</ele>
      </trkpt>
      <trkpt lat="44.16645" lon="3.20304">
        <ele>762.1</ele>
      </trkpt>
      <trkpt lat="44.16625" lon="3.20313">
        <ele>761.9</ele>
      </trkpt>
      <trkpt lat="44.16594" lon="3.20312">
        <ele>761.4</ele>
      </trkpt>
      <trkpt lat="44.16591" lon="3.20303">
        <ele>761</ele>
      </trkpt>
      <trkpt lat="44.16583" lon="3.20292">
        <ele>761</ele>
      </trkpt>
      <trkpt lat="44.16558" lon="3.20306">
        <ele>761</ele>
      </trkpt>
      <trkpt lat="44.16524" lon="3.20322">
        <ele>759.7</ele>
      </trkpt>
      <trkpt lat="44.16512" lon="3.20323">
        <ele>758.7</ele>
      </trkpt>
      <trkpt lat="44.16494" lon="3.20329">
        <ele>757.4</ele>
      </trkpt>
      <trkpt lat="44.16486" lon="3.2032">
        <ele>756.5</ele>
      </trkpt>
      <trkpt lat="44.16475" lon="3.20312">
        <ele>755.4</ele>
      </trkpt>
      <trkpt lat="44.16453" lon="3.20314">
        <ele>753.9</ele>
      </trkpt>
      <trkpt lat="44.16438" lon="3.20319">
        <ele>753.2</ele>
      </trkpt>
      <trkpt lat="44.1642" lon="3.20321">
        <ele>752.2</ele>
      </trkpt>
      <trkpt lat="44.16407" lon="3.20309">
        <ele>751.4</ele>
      </trkpt>
      <trkpt lat="44.16395" lon="3.20305">
        <ele>750.5</ele>
      </trkpt>
      <trkpt lat="44.16383" lon="3.20303">
        <ele>750</ele>
      </trkpt>
      <trkpt lat="44.1636" lon="3.20322">
        <ele>749.4</ele>
      </trkpt>
      <trkpt lat="44.16326" lon="3.2035">
        <ele>749.1</ele>
      </trkpt>
      <trkpt lat="44.16316" lon="3.20361">
        <ele>749</ele>
      </trkpt>
      <trkpt lat="44.16303" lon="3.20388">
        <ele>749</ele>
      </trkpt>
      <trkpt lat="44.16293" lon="3.20396">
        <ele>748.9</ele>
      </trkpt>
      <trkpt lat="44.16245" lon="3.20433">
        <ele>747.7</ele>
      </trkpt>
      <trkpt lat="44.16225" lon="3.20438">
        <ele>748.4</ele>
      </trkpt>
      <trkpt lat="44.16202" lon="3.20458">
        <ele>749.1</ele>
      </trkpt>
      <trkpt lat="44.16186" lon="3.20464">
        <ele>749.4</ele>
      </trkpt>
      <trkpt lat="44.1617" lon="3.20458">
        <ele>750</ele>
      </trkpt>
      <trkpt lat="44.16152" lon="3.20446">
        <ele>751.4</ele>
      </trkpt>
      <trkpt lat="44.16126" lon="3.2042">
        <ele>755.2</ele>
      </trkpt>
      <trkpt lat="44.16091" lon="3.20399">
        <ele>757.1</ele>
      </trkpt>
      <trkpt lat="44.16086" lon="3.20386">
        <ele>757.2</ele>
      </trkpt>
      <trkpt lat="44.16086" lon="3.20344">
        <ele>757.5</ele>
      </trkpt>
      <trkpt lat="44.16097" lon="3.20278">
        <ele>757.4</ele>
      </trkpt>
      <trkpt lat="44.16102" lon="3.20218">
        <ele>755.3</ele>
      </trkpt>
      <trkpt lat="44.16109" lon="3.2015">
        <ele>755</ele>
      </trkpt>
      <trkpt lat="44.16114" lon="3.20122">
        <ele>755.2</ele>
      </trkpt>
      <trkpt lat="44.16127" lon="3.20107">
        <ele>756.1</ele>
      </trkpt>
      <trkpt lat="44.16152" lon="3.201">
        <ele>760.4</ele>
        <time>2022-02-10T10:23:11Z</time>
        <extensions>
          <gpxtpx:TrackPointExtension xmlns:gpxtpx="http://www.garmin.com/xmlschemas/TrackPointExtension/v1">
            <gpxtpx:hr>153</gpxtpx:hr>
          </gpxtpx:TrackPointExtension>
        </extensions>
      </trkpt>
      <trkpt lat="44.16157" lon="3.20099">
        <ele>760.8</ele>
        <time>2022-02-10T10:23:13Z</time>
        <extensions>
          <gpxtpx:TrackPointExtension xmlns:gpxtpx="http://www.garmin.com/xmlschemas/TrackPointExtension/v1">
            <gpxtpx:hr>153</gpxtpx:hr>
          </gpxtpx:TrackPointExtension>
        </extensions>
      </trkpt>
      <trkpt lat="44.16161" lon="3.20097">
        <ele>761</ele>
        <time>2022-02-10T10:23:15Z</time>
        <extensions>
          <gpxtpx:TrackPointExtension xmlns:gpxtpx="http://www.garmin.com/xmlschemas/TrackPointExtension/v1">
            <gpxtpx:hr>154</gpxtpx:hr>
          </gpxtpx:TrackPointExtension>
        </extensions>
      </trkpt>
      <trkpt lat="44.16165" lon="3.20093">
        <ele>761.2</ele>
        <time>2022-02-10T10:23:17Z</time>
        <extensions>
          <gpxtpx:TrackPointExtension xmlns:gpxtpx="http://www.garmin.com/xmlschemas/TrackPointExtension/v1">
            <gpxtpx:hr>156</gpxtpx:hr>
          </gpxtpx:TrackPointExtension>
        </extensions>
      </trkpt>
      <trkpt lat="44.16169" lon="3.20089">
        <ele>761.6</ele>
        <time>2022-02-10T10:23:19Z</time>
        <extensions>
          <gpxtpx:TrackPointExtension xmlns:gpxtpx="http://www.garmin.com/xmlschemas/TrackPointExtension/v1">
            <gpxtpx:hr>155</gpxtpx:hr>
          </gpxtpx:TrackPointExtension>
        </extensions>
      </trkpt>
      <trkpt lat="44.16171" lon="3.20085">
        <ele>761.6</ele>
        <time>2022-02-10T10:23:21Z</time>
        <extensions>
          <gpxtpx:TrackPointExtension xmlns:gpxtpx="http://www.garmin.com/xmlschemas/TrackPointExtension/v1">
            <gpxtpx:hr>156</gpxtpx:hr>
          </gpxtpx:TrackPointExtension>
        </extensions>
      </trkpt>
      <trkpt lat="44.16173" lon="3.20083">
        <ele>761.8</ele>
        <time>2022-02-10T10:23:22Z</time>
        <extensions>
          <gpxtpx:TrackPointExtension xmlns:gpxtpx="http://www.garmin.com/xmlschemas/TrackPointExtension/v1">
            <gpxtpx:hr>155</gpxtpx:hr>
          </gpxtpx:TrackPointExtension>
        </extensions>
      </trkpt>
      <trkpt lat="44.16174" lon="3.20078">
        <ele>761.8</ele>
        <time>2022-02-10T10:23:24Z</time>
        <extensions>
          <gpxtpx:TrackPointExtension xmlns:gpxtpx="http://www.garmin.com/xmlschemas/TrackPointExtension/v1">
            <gpxtpx:hr>156</gpxtpx:hr>
          </gpxtpx:TrackPointExtension>
        </extensions>
      </trkpt>
      <trkpt lat="44.16175" lon="3.20075">
        <ele>761.8</ele>
        <time>2022-02-10T10:23:25Z</time>
        <extensions>
          <gpxtpx:TrackPointExtension xmlns:gpxtpx="http://www.garmin.com/xmlschemas/TrackPointExtension/v1">
            <gpxtpx:hr>156</gpxtpx:hr>
          </gpxtpx:TrackPointExtension>
        </extensions>
      </trkpt>
      <trkpt lat="44.16176" lon="3.20069">
        <ele>762</ele>
        <time>2022-02-10T10:23:27Z</time>
        <extensions>
          <gpxtpx:TrackPointExtension xmlns:gpxtpx="http://www.garmin.com/xmlschemas/TrackPointExtension/v1">
            <gpxtpx:hr>155</gpxtpx:hr>
          </gpxtpx:TrackPointExtension>
        </extensions>
      </trkpt>
      <trkpt lat="44.16177" lon="3.20066">
        <ele>762</ele>
        <time>2022-02-10T10:23:28Z</time>
        <extensions>
          <gpxtpx:TrackPointExtension xmlns:gpxtpx="http://www.garmin.com/xmlschemas/TrackPointExtension/v1">
            <gpxtpx:hr>156</gpxtpx:hr>
          </gpxtpx:TrackPointExtension>
        </extensions>
      </trkpt>
      <trkpt lat="44.16178" lon="3.20063">
        <ele>762.2</ele>
        <time>2022-02-10T10:23:29Z</time>
        <extensions>
          <gpxtpx:TrackPointExtension xmlns:gpxtpx="http://www.garmin.com/xmlschemas/TrackPointExtension/v1">
            <gpxtpx:hr>156</gpxtpx:hr>
          </gpxtpx:TrackPointExtension>
        </extensions>
      </trkpt>
      <trkpt lat="44.1618" lon="3.20056">
        <ele>762.2</ele>
        <time>2022-02-10T10:23:31Z</time>
        <extensions>
          <gpxtpx:TrackPointExtension xmlns:gpxtpx="http://www.garmin.com/xmlschemas/TrackPointExtension/v1">
            <gpxtpx:hr>158</gpxtpx:hr>
          </gpxtpx:TrackPointExtension>
        </extensions>
      </trkpt>
      <trkpt lat="44.16181" lon="3.20053">
        <ele>762.4</ele>
        <time>2022-02-10T10:23:32Z</time>
        <extensions>
          <gpxtpx:TrackPointExtension xmlns:gpxtpx="http://www.garmin.com/xmlschemas/TrackPointExtension/v1">
            <gpxtpx:hr>159</gpxtpx:hr>
          </gpxtpx:TrackPointExtension>
        </extensions>
      </trkpt>
      <trkpt lat="44.16182" lon="3.20047">
        <ele>762.4</ele>
        <time>2022-02-10T10:23:34Z</time>
        <extensions>
          <gpxtpx:TrackPointExtension xmlns:gpxtpx="http://www.garmin.com/xmlschemas/TrackPointExtension/v1">
            <gpxtpx:hr>162</gpxtpx:hr>
          </gpxtpx:TrackPointExtension>
        </extensions>
      </trkpt>
      <trkpt lat="44.16183" lon="3.20045">
        <ele>762.8</ele>
        <time>2022-02-10T10:23:35Z</time>
        <extensions>
          <gpxtpx:TrackPointExtension xmlns:gpxtpx="http://www.garmin.com/xmlschemas/TrackPointExtension/v1">
            <gpxtpx:hr>161</gpxtpx:hr>
          </gpxtpx:TrackPointExtension>
        </extensions>
      </trkpt>
      <trkpt lat="44.16183" lon="3.20042">
        <ele>762.8</ele>
        <time>2022-02-10T10:23:36Z</time>
        <extensions>
          <gpxtpx:TrackPointExtension xmlns:gpxtpx="http://www.garmin.com/xmlschemas/TrackPointExtension/v1">
            <gpxtpx:hr>159</gpxtpx:hr>
          </gpxtpx:TrackPointExtension>
        </extensions>
      </trkpt>
      <trkpt lat="44.16184" lon="3.20039">
        <ele>762.8</ele>
        <time>2022-02-10T10:23:37Z</time>
        <extensions>
          <gpxtpx:TrackPointExtension xmlns:gpxtpx="http://www.garmin.com/xmlschemas/TrackPointExtension/v1">
            <gpxtpx:hr>159</gpxtpx:hr>
          </gpxtpx:TrackPointExtension>
        </extensions>
      </trkpt>
      <trkpt lat="44.16185" lon="3.20036">
        <ele>763</ele>
        <time>2022-02-10T10:23:38Z</time>
        <extensions>
          <gpxtpx:TrackPointExtension xmlns:gpxtpx="http://www.garmin.com/xmlschemas/TrackPointExtension/v1">
            <gpxtpx:hr>161</gpxtpx:hr>
          </gpxtpx:TrackPointExtension>
        </extensions>
      </trkpt>
      <trkpt lat="44.16185" lon="3.2003">
        <ele>763</ele>
        <time>2022-02-10T10:23:40Z</time>
        <extensions>
          <gpxtpx:TrackPointExtension xmlns:gpxtpx="http://www.garmin.com/xmlschemas/TrackPointExtension/v1">
            <gpxtpx:hr>161</gpxtpx:hr>
          </gpxtpx:TrackPointExtension>
        </extensions>
      </trkpt>
      <trkpt lat="44.16186" lon="3.20027">
        <ele>763</ele>
        <time>2022-02-10T10:23:41Z</time>
        <extensions>
          <gpxtpx:TrackPointExtension xmlns:gpxtpx="http://www.garmin.com/xmlschemas/TrackPointExtension/v1">
            <gpxtpx:hr>161</gpxtpx:hr>
          </gpxtpx:TrackPointExtension>
        </extensions>
      </trkpt>
      <trkpt lat="44.16187" lon="3.20025">
        <ele>763</ele>
        <time>2022-02-10T10:23:42Z</time>
        <extensions>
          <gpxtpx:TrackPointExtension xmlns:gpxtpx="http://www.garmin.com/xmlschemas/TrackPointExtension/v1">
            <gpxtpx:hr>162</gpxtpx:hr>
          </gpxtpx:TrackPointExtension>
        </extensions>
      </trkpt>
      <trkpt lat="44.16187" lon="3.20022">
        <ele>763</ele>
        <time>2022-02-10T10:23:43Z</time>
        <extensions>
          <gpxtpx:TrackPointExtension xmlns:gpxtpx="http://www.garmin.com/xmlschemas/TrackPointExtension/v1">
            <gpxtpx:hr>161</gpxtpx:hr>
          </gpxtpx:TrackPointExtension>
        </extensions>
      </trkpt>
      <trkpt lat="44.16187" lon="3.20019">
        <ele>763</ele>
        <time>2022-02-10T10:23:44Z</time>
        <extensions>
          <gpxtpx:TrackPointExtension xmlns:gpxtpx="http://www.garmin.com/xmlschemas/TrackPointExtension/v1">
            <gpxtpx:hr>161</gpxtpx:hr>
          </gpxtpx:TrackPointExtension>
        </extensions>
      </trkpt>
      <trkpt lat="44.16188" lon="3.20016">
        <ele>763</ele>
        <time>2022-02-10T10:23:45Z</time>
        <extensions>
          <gpxtpx:TrackPointExtension xmlns:gpxtpx="http://www.garmin.com/xmlschemas/TrackPointExtension/v1">
            <gpxtpx:hr>161</gpxtpx:hr>
          </gpxtpx:TrackPointExtension>
        </extensions>
      </trkpt>
      <trkpt lat="44.16188" lon="3.20013">
        <ele>763</ele>
        <time>2022-02-10T10:23:46Z</time>
        <extensions>
          <gpxtpx:TrackPointExtension xmlns:gpxtpx="http://www.garmin.com/xmlschemas/TrackPointExtension/v1">
            <gpxtpx:hr>160</gpxtpx:hr>
          </gpxtpx:TrackPointExtension>
        </extensions>
      </trkpt>
      <trkpt lat="44.16188" lon="3.2001">
        <ele>763</ele>
        <time>2022-02-10T10:23:47Z</time>
        <extensions>
          <gpxtpx:TrackPointExtension xmlns:gpxtpx="http://www.garmin.com/xmlschemas/TrackPointExtension/v1">
            <gpxtpx:hr>161</gpxtpx:hr>
          </gpxtpx:TrackPointExtension>
        </extensions>
      </trkpt>
      <trkpt lat="44.16188" lon="3.20005">
        <ele>763.2</ele>
        <time>2022-02-10T10:23:49Z</time>
        <extensions>
          <gpxtpx:TrackPointExtension xmlns:gpxtpx="http://www.garmin.com/xmlschemas/TrackPointExtension/v1">
            <gpxtpx:hr>159</gpxtpx:hr>
          </gpxtpx:TrackPointExtension>
        </extensions>
      </trkpt>
      <trkpt lat="44.16187" lon="3.20002">
        <ele>763.2</ele>
        <time>2022-02-10T10:23:50Z</time>
        <extensions>
          <gpxtpx:TrackPointExtension xmlns:gpxtpx="http://www.garmin.com/xmlschemas/TrackPointExtension/v1">
            <gpxtpx:hr>159</gpxtpx:hr>
          </gpxtpx:TrackPointExtension>
        </extensions>
      </trkpt>
      <trkpt lat="44.16187" lon="3.19999">
        <ele>763.4</ele>
        <time>2022-02-10T10:23:51Z</time>
        <extensions>
          <gpxtpx:TrackPointExtension xmlns:gpxtpx="http://www.garmin.com/xmlschemas/TrackPointExtension/v1">
            <gpxtpx:hr>160</gpxtpx:hr>
          </gpxtpx:TrackPointExtension>
        </extensions>
      </trkpt>
      <trkpt lat="44.16187" lon="3.19997">
        <ele>763.4</ele>
        <time>2022-02-10T10:23:52Z</time>
        <extensions>
          <gpxtpx:TrackPointExtension xmlns:gpxtpx="http://www.garmin.com/xmlschemas/TrackPointExtension/v1">
            <gpxtpx:hr>159</gpxtpx:hr>
          </gpxtpx:TrackPointExtension>
        </extensions>
      </trkpt>
      <trkpt lat="44.16187" lon="3.19994">
        <ele>763.4</ele>
        <time>2022-02-10T10:23:53Z</time>
        <extensions>
          <gpxtpx:TrackPointExtension xmlns:gpxtpx="http://www.garmin.com/xmlschemas/TrackPointExtension/v1">
            <gpxtpx:hr>160</gpxtpx:hr>
          </gpxtpx:TrackPointExtension>
        </extensions>
      </trkpt>
      <trkpt lat="44.16187" lon="3.19991">
        <ele>763.4</ele>
        <time>2022-02-10T10:23:54Z</time>
        <extensions>
          <gpxtpx:TrackPointExtension xmlns:gpxtpx="http://www.garmin.com/xmlschemas/TrackPointExtension/v1">
            <gpxtpx:hr>162</gpxtpx:hr>
          </gpxtpx:TrackPointExtension>
        </extensions>
      </trkpt>
      <trkpt lat="44.16188" lon="3.19985">
        <ele>763.6</ele>
        <time>2022-02-10T10:23:56Z</time>
        <extensions>
          <gpxtpx:TrackPointExtension xmlns:gpxtpx="http://www.garmin.com/xmlschemas/TrackPointExtension/v1">
            <gpxtpx:hr>161</gpxtpx:hr>
          </gpxtpx:TrackPointExtension>
        </extensions>
      </trkpt>
      <trkpt lat="44.16189" lon="3.19982">
        <ele>763.6</ele>
        <time>2022-02-10T10:23:57Z</time>
        <extensions>
          <gpxtpx:TrackPointExtension xmlns:gpxtpx="http://www.garmin.com/xmlschemas/TrackPointExtension/v1">
            <gpxtpx:hr>162</gpxtpx:hr>
          </gpxtpx:TrackPointExtension>
        </extensions>
      </trkpt>
      <trkpt lat="44.1619" lon="3.19979">
        <ele>763.6</ele>
        <time>2022-02-10T10:23:58Z</time>
        <extensions>
          <gpxtpx:TrackPointExtension xmlns:gpxtpx="http://www.garmin.com/xmlschemas/TrackPointExtension/v1">
            <gpxtpx:hr>162</gpxtpx:hr>
          </gpxtpx:TrackPointExtension>
        </extensions>
      </trkpt>
      <trkpt lat="44.16193" lon="3.19973">
        <ele>764</ele>
        <time>2022-02-10T10:24:00Z</time>
        <extensions>
          <gpxtpx:TrackPointExtension xmlns:gpxtpx="http://www.garmin.com/xmlschemas/TrackPointExtension/v1">
            <gpxtpx:hr>161</gpxtpx:hr>
          </gpxtpx:TrackPointExtension>
        </extensions>
      </trkpt>
      <trkpt lat="44.16194" lon="3.19971">
        <ele>764</ele>
        <time>2022-02-10T10:24:01Z</time>
        <extensions>
          <gpxtpx:TrackPointExtension xmlns:gpxtpx="http://www.garmin.com/xmlschemas/TrackPointExtension/v1">
            <gpxtpx:hr>161</gpxtpx:hr>
          </gpxtpx:TrackPointExtension>
        </extensions>
      </trkpt>
      <trkpt lat="44.16196" lon="3.19969">
        <ele>764</ele>
        <time>2022-02-10T10:24:02Z</time>
        <extensions>
          <gpxtpx:TrackPointExtension xmlns:gpxtpx="http://www.garmin.com/xmlschemas/TrackPointExtension/v1">
            <gpxtpx:hr>162</gpxtpx:hr>
          </gpxtpx:TrackPointExtension>
        </extensions>
      </trkpt>
      <trkpt lat="44.16197" lon="3.19967">
        <ele>764</ele>
        <time>2022-02-10T10:24:03Z</time>
        <extensions>
          <gpxtpx:TrackPointExtension xmlns:gpxtpx="http://www.garmin.com/xmlschemas/TrackPointExtension/v1">
            <gpxtpx:hr>162</gpxtpx:hr>
          </gpxtpx:TrackPointExtension>
        </extensions>
      </trkpt>
      <trkpt lat="44.16201" lon="3.19963">
        <ele>764.2</ele>
        <time>2022-02-10T10:24:05Z</time>
        <extensions>
          <gpxtpx:TrackPointExtension xmlns:gpxtpx="http://www.garmin.com/xmlschemas/TrackPointExtension/v1">
            <gpxtpx:hr>161</gpxtpx:hr>
          </gpxtpx:TrackPointExtension>
        </extensions>
      </trkpt>
      <trkpt lat="44.16203" lon="3.19961">
        <ele>764.4</ele>
        <time>2022-02-10T10:24:06Z</time>
        <extensions>
          <gpxtpx:TrackPointExtension xmlns:gpxtpx="http://www.garmin.com/xmlschemas/TrackPointExtension/v1">
            <gpxtpx:hr>161</gpxtpx:hr>
          </gpxtpx:TrackPointExtension>
        </extensions>
      </trkpt>
      <trkpt lat="44.16205" lon="3.19958">
        <ele>764.4</ele>
        <time>2022-02-10T10:24:07Z</time>
        <extensions>
          <gpxtpx:TrackPointExtension xmlns:gpxtpx="http://www.garmin.com/xmlschemas/TrackPointExtension/v1">
            <gpxtpx:hr>160</gpxtpx:hr>
          </gpxtpx:TrackPointExtension>
        </extensions>
      </trkpt>
      <trkpt lat="44.16206" lon="3.19956">
        <ele>764.6</ele>
        <time>2022-02-10T10:24:08Z</time>
        <extensions>
          <gpxtpx:TrackPointExtension xmlns:gpxtpx="http://www.garmin.com/xmlschemas/TrackPointExtension/v1">
            <gpxtpx:hr>160</gpxtpx:hr>
          </gpxtpx:TrackPointExtension>
        </extensions>
      </trkpt>
      <trkpt lat="44.16207" lon="3.19953">
        <ele>764.6</ele>
        <time>2022-02-10T10:24:09Z</time>
        <extensions>
          <gpxtpx:TrackPointExtension xmlns:gpxtpx="http://www.garmin.com/xmlschemas/TrackPointExtension/v1">
            <gpxtpx:hr>160</gpxtpx:hr>
          </gpxtpx:TrackPointExtension>
        </extensions>
      </trkpt>
      <trkpt lat="44.16208" lon="3.1995">
        <ele>764.8</ele>
        <time>2022-02-10T10:24:10Z</time>
        <extensions>
          <gpxtpx:TrackPointExtension xmlns:gpxtpx="http://www.garmin.com/xmlschemas/TrackPointExtension/v1">
            <gpxtpx:hr>161</gpxtpx:hr>
          </gpxtpx:TrackPointExtension>
        </extensions>
      </trkpt>
      <trkpt lat="44.16209" lon="3.19947">
        <ele>764.8</ele>
        <time>2022-02-10T10:24:11Z</time>
        <extensions>
          <gpxtpx:TrackPointExtension xmlns:gpxtpx="http://www.garmin.com/xmlschemas/TrackPointExtension/v1">
            <gpxtpx:hr>161</gpxtpx:hr>
          </gpxtpx:TrackPointExtension>
        </extensions>
      </trkpt>
      <trkpt lat="44.1621" lon="3.19944">
        <ele>764.8</ele>
        <time>2022-02-10T10:24:12Z</time>
        <extensions>
          <gpxtpx:TrackPointExtension xmlns:gpxtpx="http://www.garmin.com/xmlschemas/TrackPointExtension/v1">
            <gpxtpx:hr>162</gpxtpx:hr>
          </gpxtpx:TrackPointExtension>
        </extensions>
      </trkpt>
      <trkpt lat="44.1621" lon="3.19941">
        <ele>765</ele>
        <time>2022-02-10T10:24:13Z</time>
        <extensions>
          <gpxtpx:TrackPointExtension xmlns:gpxtpx="http://www.garmin.com/xmlschemas/TrackPointExtension/v1">
            <gpxtpx:hr>161</gpxtpx:hr>
          </gpxtpx:TrackPointExtension>
        </extensions>
      </trkpt>
      <trkpt lat="44.16212" lon="3.19935">
        <ele>765</ele>
        <time>2022-02-10T10:24:15Z</time>
        <extensions>
          <gpxtpx:TrackPointExtension xmlns:gpxtpx="http://www.garmin.com/xmlschemas/TrackPointExtension/v1">
            <gpxtpx:hr>162</gpxtpx:hr>
          </gpxtpx:TrackPointExtension>
        </extensions>
      </trkpt>
      <trkpt lat="44.16213" lon="3.19929">
        <ele>765</ele>
        <time>2022-02-10T10:24:17Z</time>
        <extensions>
          <gpxtpx:TrackPointExtension xmlns:gpxtpx="http://www.garmin.com/xmlschemas/TrackPointExtension/v1">
            <gpxtpx:hr>162</gpxtpx:hr>
          </gpxtpx:TrackPointExtension>
        </extensions>
      </trkpt>
      <trkpt lat="44.16214" lon="3.19927">
        <ele>765.2</ele>
        <time>2022-02-10T10:24:18Z</time>
        <extensions>
          <gpxtpx:TrackPointExtension xmlns:gpxtpx="http://www.garmin.com/xmlschemas/TrackPointExtension/v1">
            <gpxtpx:hr>161</gpxtpx:hr>
          </gpxtpx:TrackPointExtension>
        </extensions>
      </trkpt>
      <trkpt lat="44.16215" lon="3.19924">
        <ele>765.2</ele>
        <time>2022-02-10T10:24:19Z</time>
        <extensions>
          <gpxtpx:TrackPointExtension xmlns:gpxtpx="http://www.garmin.com/xmlschemas/TrackPointExtension/v1">
            <gpxtpx:hr>161</gpxtpx:hr>
          </gpxtpx:TrackPointExtension>
        </extensions>
      </trkpt>
      <trkpt lat="44.16217" lon="3.19921">
        <ele>765.2</ele>
        <time>2022-02-10T10:24:20Z</time>
        <extensions>
          <gpxtpx:TrackPointExtension xmlns:gpxtpx="http://www.garmin.com/xmlschemas/TrackPointExtension/v1">
            <gpxtpx:hr>161</gpxtpx:hr>
          </gpxtpx:TrackPointExtension>
        </extensions>
      </trkpt>
      <trkpt lat="44.16218" lon="3.19919">
        <ele>765.2</ele>
        <time>2022-02-10T10:24:21Z</time>
        <extensions>
          <gpxtpx:TrackPointExtension xmlns:gpxtpx="http://www.garmin.com/xmlschemas/TrackPointExtension/v1">
            <gpxtpx:hr>161</gpxtpx:hr>
          </gpxtpx:TrackPointExtension>
        </extensions>
      </trkpt>
      <trkpt lat="44.16221" lon="3.19914">
        <ele>765.2</ele>
        <time>2022-02-10T10:24:23Z</time>
        <extensions>
          <gpxtpx:TrackPointExtension xmlns:gpxtpx="http://www.garmin.com/xmlschemas/TrackPointExtension/v1">
            <gpxtpx:hr>161</gpxtpx:hr>
          </gpxtpx:TrackPointExtension>
        </extensions>
      </trkpt>
      <trkpt lat="44.16223" lon="3.19909">
        <ele>765.4</ele>
        <time>2022-02-10T10:24:25Z</time>
        <extensions>
          <gpxtpx:TrackPointExtension xmlns:gpxtpx="http://www.garmin.com/xmlschemas/TrackPointExtension/v1">
            <gpxtpx:hr>161</gpxtpx:hr>
          </gpxtpx:TrackPointExtension>
        </extensions>
      </trkpt>
      <trkpt lat="44.16225" lon="3.19907">
        <ele>765.4</ele>
        <time>2022-02-10T10:24:26Z</time>
        <extensions>
          <gpxtpx:TrackPointExtension xmlns:gpxtpx="http://www.garmin.com/xmlschemas/TrackPointExtension/v1">
            <gpxtpx:hr>162</gpxtpx:hr>
          </gpxtpx:TrackPointExtension>
        </extensions>
      </trkpt>
      <trkpt lat="44.16226" lon="3.19904">
        <ele>765.4</ele>
        <time>2022-02-10T10:24:27Z</time>
        <extensions>
          <gpxtpx:TrackPointExtension xmlns:gpxtpx="http://www.garmin.com/xmlschemas/TrackPointExtension/v1">
            <gpxtpx:hr>162</gpxtpx:hr>
          </gpxtpx:TrackPointExtension>
        </extensions>
      </trkpt>
      <trkpt lat="44.16228" lon="3.199">
        <ele>765.6</ele>
        <time>2022-02-10T10:24:29Z</time>
        <extensions>
          <gpxtpx:TrackPointExtension xmlns:gpxtpx="http://www.garmin.com/xmlschemas/TrackPointExtension/v1">
            <gpxtpx:hr>161</gpxtpx:hr>
          </gpxtpx:TrackPointExtension>
        </extensions>
      </trkpt>
      <trkpt lat="44.16229" lon="3.19898">
        <ele>765.6</ele>
        <time>2022-02-10T10:24:30Z</time>
        <extensions>
          <gpxtpx:TrackPointExtension xmlns:gpxtpx="http://www.garmin.com/xmlschemas/TrackPointExtension/v1">
            <gpxtpx:hr>161</gpxtpx:hr>
          </gpxtpx:TrackPointExtension>
        </extensions>
      </trkpt>
      <trkpt lat="44.1623" lon="3.19895">
        <ele>765.6</ele>
        <time>2022-02-10T10:24:31Z</time>
        <extensions>
          <gpxtpx:TrackPointExtension xmlns:gpxtpx="http://www.garmin.com/xmlschemas/TrackPointExtension/v1">
            <gpxtpx:hr>161</gpxtpx:hr>
          </gpxtpx:TrackPointExtension>
        </extensions>
      </trkpt>
      <trkpt lat="44.16234" lon="3.1989">
        <ele>765.6</ele>
        <time>2022-02-10T10:24:34Z</time>
        <extensions>
          <gpxtpx:TrackPointExtension xmlns:gpxtpx="http://www.garmin.com/xmlschemas/TrackPointExtension/v1">
            <gpxtpx:hr>161</gpxtpx:hr>
          </gpxtpx:TrackPointExtension>
        </extensions>
      </trkpt>
      <trkpt lat="44.16235" lon="3.19887">
        <ele>766</ele>
        <time>2022-02-10T10:24:35Z</time>
        <extensions>
          <gpxtpx:TrackPointExtension xmlns:gpxtpx="http://www.garmin.com/xmlschemas/TrackPointExtension/v1">
            <gpxtpx:hr>160</gpxtpx:hr>
          </gpxtpx:TrackPointExtension>
        </extensions>
      </trkpt>
      <trkpt lat="44.16239" lon="3.1988">
        <ele>766</ele>
        <time>2022-02-10T10:24:38Z</time>
        <extensions>
          <gpxtpx:TrackPointExtension xmlns:gpxtpx="http://www.garmin.com/xmlschemas/TrackPointExtension/v1">
            <gpxtpx:hr>161</gpxtpx:hr>
          </gpxtpx:TrackPointExtension>
        </extensions>
      </trkpt>
      <trkpt lat="44.16239" lon="3.19878">
        <ele>766.2</ele>
        <time>2022-02-10T10:24:39Z</time>
        <extensions>
          <gpxtpx:TrackPointExtension xmlns:gpxtpx="http://www.garmin.com/xmlschemas/TrackPointExtension/v1">
            <gpxtpx:hr>161</gpxtpx:hr>
          </gpxtpx:TrackPointExtension>
        </extensions>
      </trkpt>
      <trkpt lat="44.16241" lon="3.19873">
        <ele>766.4</ele>
        <time>2022-02-10T10:24:41Z</time>
        <extensions>
          <gpxtpx:TrackPointExtension xmlns:gpxtpx="http://www.garmin.com/xmlschemas/TrackPointExtension/v1">
            <gpxtpx:hr>161</gpxtpx:hr>
          </gpxtpx:TrackPointExtension>
        </extensions>
      </trkpt>
      <trkpt lat="44.16241" lon="3.1987">
        <ele>766.4</ele>
        <time>2022-02-10T10:24:42Z</time>
        <extensions>
          <gpxtpx:TrackPointExtension xmlns:gpxtpx="http://www.garmin.com/xmlschemas/TrackPointExtension/v1">
            <gpxtpx:hr>160</gpxtpx:hr>
          </gpxtpx:TrackPointExtension>
        </extensions>
      </trkpt>
      <trkpt lat="44.16242" lon="3.19868">
        <ele>766.4</ele>
        <time>2022-02-10T10:24:43Z</time>
        <extensions>
          <gpxtpx:TrackPointExtension xmlns:gpxtpx="http://www.garmin.com/xmlschemas/TrackPointExtension/v1">
            <gpxtpx:hr>160</gpxtpx:hr>
          </gpxtpx:TrackPointExtension>
        </extensions>
      </trkpt>
      <trkpt lat="44.16244" lon="3.19863">
        <ele>766.6</ele>
        <time>2022-02-10T10:24:45Z</time>
        <extensions>
          <gpxtpx:TrackPointExtension xmlns:gpxtpx="http://www.garmin.com/xmlschemas/TrackPointExtension/v1">
            <gpxtpx:hr>161</gpxtpx:hr>
          </gpxtpx:TrackPointExtension>
        </extensions>
      </trkpt>
      <trkpt lat="44.16246" lon="3.19857">
        <ele>766.6</ele>
        <time>2022-02-10T10:24:47Z</time>
        <extensions>
          <gpxtpx:TrackPointExtension xmlns:gpxtpx="http://www.garmin.com/xmlschemas/TrackPointExtension/v1">
            <gpxtpx:hr>161</gpxtpx:hr>
          </gpxtpx:TrackPointExtension>
        </extensions>
      </trkpt>
      <trkpt lat="44.16248" lon="3.19852">
        <ele>766.8</ele>
        <time>2022-02-10T10:24:49Z</time>
        <extensions>
          <gpxtpx:TrackPointExtension xmlns:gpxtpx="http://www.garmin.com/xmlschemas/TrackPointExtension/v1">
            <gpxtpx:hr>162</gpxtpx:hr>
          </gpxtpx:TrackPointExtension>
        </extensions>
      </trkpt>
      <trkpt lat="44.16249" lon="3.1985">
        <ele>766.8</ele>
        <time>2022-02-10T10:24:50Z</time>
        <extensions>
          <gpxtpx:TrackPointExtension xmlns:gpxtpx="http://www.garmin.com/xmlschemas/TrackPointExtension/v1">
            <gpxtpx:hr>162</gpxtpx:hr>
          </gpxtpx:TrackPointExtension>
        </extensions>
      </trkpt>
      <trkpt lat="44.1625" lon="3.19847">
        <ele>766.8</ele>
        <time>2022-02-10T10:24:51Z</time>
        <extensions>
          <gpxtpx:TrackPointExtension xmlns:gpxtpx="http://www.garmin.com/xmlschemas/TrackPointExtension/v1">
            <gpxtpx:hr>162</gpxtpx:hr>
          </gpxtpx:TrackPointExtension>
        </extensions>
      </trkpt>
      <trkpt lat="44.16251" lon="3.19842">
        <ele>767</ele>
        <time>2022-02-10T10:24:53Z</time>
        <extensions>
          <gpxtpx:TrackPointExtension xmlns:gpxtpx="http://www.garmin.com/xmlschemas/TrackPointExtension/v1">
            <gpxtpx:hr>161</gpxtpx:hr>
          </gpxtpx:TrackPointExtension>
        </extensions>
      </trkpt>
      <trkpt lat="44.16252" lon="3.19839">
        <ele>767.2</ele>
        <time>2022-02-10T10:24:54Z</time>
        <extensions>
          <gpxtpx:TrackPointExtension xmlns:gpxtpx="http://www.garmin.com/xmlschemas/TrackPointExtension/v1">
            <gpxtpx:hr>161</gpxtpx:hr>
          </gpxtpx:TrackPointExtension>
        </extensions>
      </trkpt>
      <trkpt lat="44.16252" lon="3.19836">
        <ele>767.2</ele>
        <time>2022-02-10T10:24:55Z</time>
        <extensions>
          <gpxtpx:TrackPointExtension xmlns:gpxtpx="http://www.garmin.com/xmlschemas/TrackPointExtension/v1">
            <gpxtpx:hr>161</gpxtpx:hr>
          </gpxtpx:TrackPointExtension>
        </extensions>
      </trkpt>
      <trkpt lat="44.16252" lon="3.19833">
        <ele>767.6</ele>
        <time>2022-02-10T10:24:56Z</time>
        <extensions>
          <gpxtpx:TrackPointExtension xmlns:gpxtpx="http://www.garmin.com/xmlschemas/TrackPointExtension/v1">
            <gpxtpx:hr>163</gpxtpx:hr>
          </gpxtpx:TrackPointExtension>
        </extensions>
      </trkpt>
      <trkpt lat="44.16252" lon="3.19828">
        <ele>767.6</ele>
        <time>2022-02-10T10:24:58Z</time>
        <extensions>
          <gpxtpx:TrackPointExtension xmlns:gpxtpx="http://www.garmin.com/xmlschemas/TrackPointExtension/v1">
            <gpxtpx:hr>163</gpxtpx:hr>
          </gpxtpx:TrackPointExtension>
        </extensions>
      </trkpt>
      <trkpt lat="44.16252" lon="3.19822">
        <ele>767.8</ele>
        <time>2022-02-10T10:25:00Z</time>
        <extensions>
          <gpxtpx:TrackPointExtension xmlns:gpxtpx="http://www.garmin.com/xmlschemas/TrackPointExtension/v1">
            <gpxtpx:hr>160</gpxtpx:hr>
          </gpxtpx:TrackPointExtension>
        </extensions>
      </trkpt>
      <trkpt lat="44.16253" lon="3.19817">
        <ele>767.8</ele>
        <time>2022-02-10T10:25:02Z</time>
        <extensions>
          <gpxtpx:TrackPointExtension xmlns:gpxtpx="http://www.garmin.com/xmlschemas/TrackPointExtension/v1">
            <gpxtpx:hr>161</gpxtpx:hr>
          </gpxtpx:TrackPointExtension>
        </extensions>
      </trkpt>
      <trkpt lat="44.16254" lon="3.19811">
        <ele>768</ele>
        <time>2022-02-10T10:25:04Z</time>
        <extensions>
          <gpxtpx:TrackPointExtension xmlns:gpxtpx="http://www.garmin.com/xmlschemas/TrackPointExtension/v1">
            <gpxtpx:hr>161</gpxtpx:hr>
          </gpxtpx:TrackPointExtension>
        </extensions>
      </trkpt>
      <trkpt lat="44.16255" lon="3.19808">
        <ele>768</ele>
        <time>2022-02-10T10:25:05Z</time>
        <extensions>
          <gpxtpx:TrackPointExtension xmlns:gpxtpx="http://www.garmin.com/xmlschemas/TrackPointExtension/v1">
            <gpxtpx:hr>161</gpxtpx:hr>
          </gpxtpx:TrackPointExtension>
        </extensions>
      </trkpt>
      <trkpt lat="44.16256" lon="3.19805">
        <ele>768.4</ele>
        <time>2022-02-10T10:25:06Z</time>
        <extensions>
          <gpxtpx:TrackPointExtension xmlns:gpxtpx="http://www.garmin.com/xmlschemas/TrackPointExtension/v1">
            <gpxtpx:hr>161</gpxtpx:hr>
          </gpxtpx:TrackPointExtension>
        </extensions>
      </trkpt>
      <trkpt lat="44.16258" lon="3.19799">
        <ele>768.4</ele>
        <time>2022-02-10T10:25:08Z</time>
        <extensions>
          <gpxtpx:TrackPointExtension xmlns:gpxtpx="http://www.garmin.com/xmlschemas/TrackPointExtension/v1">
            <gpxtpx:hr>161</gpxtpx:hr>
          </gpxtpx:TrackPointExtension>
        </extensions>
      </trkpt>
      <trkpt lat="44.16259" lon="3.19797">
        <ele>768.6</ele>
        <time>2022-02-10T10:25:09Z</time>
        <extensions>
          <gpxtpx:TrackPointExtension xmlns:gpxtpx="http://www.garmin.com/xmlschemas/TrackPointExtension/v1">
            <gpxtpx:hr>160</gpxtpx:hr>
          </gpxtpx:TrackPointExtension>
        </extensions>
      </trkpt>
      <trkpt lat="44.1626" lon="3.19794">
        <ele>768.6</ele>
        <time>2022-02-10T10:25:10Z</time>
        <extensions>
          <gpxtpx:TrackPointExtension xmlns:gpxtpx="http://www.garmin.com/xmlschemas/TrackPointExtension/v1">
            <gpxtpx:hr>160</gpxtpx:hr>
          </gpxtpx:TrackPointExtension>
        </extensions>
      </trkpt>
      <trkpt lat="44.16261" lon="3.19789">
        <ele>768.6</ele>
        <time>2022-02-10T10:25:12Z</time>
        <extensions>
          <gpxtpx:TrackPointExtension xmlns:gpxtpx="http://www.garmin.com/xmlschemas/TrackPointExtension/v1">
            <gpxtpx:hr>160</gpxtpx:hr>
          </gpxtpx:TrackPointExtension>
        </extensions>
      </trkpt>
      <trkpt lat="44.16263" lon="3.19784">
        <ele>768.8</ele>
        <time>2022-02-10T10:25:14Z</time>
        <extensions>
          <gpxtpx:TrackPointExtension xmlns:gpxtpx="http://www.garmin.com/xmlschemas/TrackPointExtension/v1">
            <gpxtpx:hr>160</gpxtpx:hr>
          </gpxtpx:TrackPointExtension>
        </extensions>
      </trkpt>
      <trkpt lat="44.16264" lon="3.19779">
        <ele>768.8</ele>
        <time>2022-02-10T10:25:16Z</time>
        <extensions>
          <gpxtpx:TrackPointExtension xmlns:gpxtpx="http://www.garmin.com/xmlschemas/TrackPointExtension/v1">
            <gpxtpx:hr>160</gpxtpx:hr>
          </gpxtpx:TrackPointExtension>
        </extensions>
      </trkpt>
      <trkpt lat="44.16265" lon="3.19773">
        <ele>768.8</ele>
        <time>2022-02-10T10:25:18Z</time>
        <extensions>
          <gpxtpx:TrackPointExtension xmlns:gpxtpx="http://www.garmin.com/xmlschemas/TrackPointExtension/v1">
            <gpxtpx:hr>160</gpxtpx:hr>
          </gpxtpx:TrackPointExtension>
        </extensions>
      </trkpt>
      <trkpt lat="44.16266" lon="3.19768">
        <ele>768.8</ele>
        <time>2022-02-10T10:25:20Z</time>
        <extensions>
          <gpxtpx:TrackPointExtension xmlns:gpxtpx="http://www.garmin.com/xmlschemas/TrackPointExtension/v1">
            <gpxtpx:hr>159</gpxtpx:hr>
          </gpxtpx:TrackPointExtension>
        </extensions>
      </trkpt>
      <trkpt lat="44.16267" lon="3.19766">
        <ele>769</ele>
        <time>2022-02-10T10:25:21Z</time>
        <extensions>
          <gpxtpx:TrackPointExtension xmlns:gpxtpx="http://www.garmin.com/xmlschemas/TrackPointExtension/v1">
            <gpxtpx:hr>158</gpxtpx:hr>
          </gpxtpx:TrackPointExtension>
        </extensions>
      </trkpt>
      <trkpt lat="44.16268" lon="3.19763">
        <ele>769</ele>
        <time>2022-02-10T10:25:22Z</time>
        <extensions>
          <gpxtpx:TrackPointExtension xmlns:gpxtpx="http://www.garmin.com/xmlschemas/TrackPointExtension/v1">
            <gpxtpx:hr>158</gpxtpx:hr>
          </gpxtpx:TrackPointExtension>
        </extensions>
      </trkpt>
      <trkpt lat="44.1627" lon="3.19759">
        <ele>769</ele>
        <time>2022-02-10T10:25:24Z</time>
        <extensions>
          <gpxtpx:TrackPointExtension xmlns:gpxtpx="http://www.garmin.com/xmlschemas/TrackPointExtension/v1">
            <gpxtpx:hr>157</gpxtpx:hr>
          </gpxtpx:TrackPointExtension>
        </extensions>
      </trkpt>
      <trkpt lat="44.16272" lon="3.19754">
        <ele>769.2</ele>
        <time>2022-02-10T10:25:26Z</time>
        <extensions>
          <gpxtpx:TrackPointExtension xmlns:gpxtpx="http://www.garmin.com/xmlschemas/TrackPointExtension/v1">
            <gpxtpx:hr>157</gpxtpx:hr>
          </gpxtpx:TrackPointExtension>
        </extensions>
      </trkpt>
      <trkpt lat="44.16277" lon="3.19749">
        <ele>769.2</ele>
        <time>2022-02-10T10:25:29Z</time>
        <extensions>
          <gpxtpx:TrackPointExtension xmlns:gpxtpx="http://www.garmin.com/xmlschemas/TrackPointExtension/v1">
            <gpxtpx:hr>159</gpxtpx:hr>
          </gpxtpx:TrackPointExtension>
        </extensions>
      </trkpt>
      <trkpt lat="44.16281" lon="3.19744">
        <ele>769.2</ele>
        <time>2022-02-10T10:25:31Z</time>
        <extensions>
          <gpxtpx:TrackPointExtension xmlns:gpxtpx="http://www.garmin.com/xmlschemas/TrackPointExtension/v1">
            <gpxtpx:hr>158</gpxtpx:hr>
          </gpxtpx:TrackPointExtension>
        </extensions>
      </trkpt>
      <trkpt lat="44.16282" lon="3.19743">
        <ele>769</ele>
        <time>2022-02-10T10:25:32Z</time>
        <extensions>
          <gpxtpx:TrackPointExtension xmlns:gpxtpx="http://www.garmin.com/xmlschemas/TrackPointExtension/v1">
            <gpxtpx:hr>158</gpxtpx:hr>
          </gpxtpx:TrackPointExtension>
        </extensions>
      </trkpt>
      <trkpt lat="44.16286" lon="3.19737">
        <ele>769</ele>
        <time>2022-02-10T10:25:35Z</time>
        <extensions>
          <gpxtpx:TrackPointExtension xmlns:gpxtpx="http://www.garmin.com/xmlschemas/TrackPointExtension/v1">
            <gpxtpx:hr>159</gpxtpx:hr>
          </gpxtpx:TrackPointExtension>
        </extensions>
      </trkpt>
      <trkpt lat="44.16288" lon="3.19732">
        <ele>769</ele>
        <time>2022-02-10T10:25:37Z</time>
        <extensions>
          <gpxtpx:TrackPointExtension xmlns:gpxtpx="http://www.garmin.com/xmlschemas/TrackPointExtension/v1">
            <gpxtpx:hr>158</gpxtpx:hr>
          </gpxtpx:TrackPointExtension>
        </extensions>
      </trkpt>
      <trkpt lat="44.16291" lon="3.19728">
        <ele>769</ele>
        <time>2022-02-10T10:25:39Z</time>
        <extensions>
          <gpxtpx:TrackPointExtension xmlns:gpxtpx="http://www.garmin.com/xmlschemas/TrackPointExtension/v1">
            <gpxtpx:hr>158</gpxtpx:hr>
          </gpxtpx:TrackPointExtension>
        </extensions>
      </trkpt>
      <trkpt lat="44.16292" lon="3.19725">
        <ele>769</ele>
        <time>2022-02-10T10:25:40Z</time>
        <extensions>
          <gpxtpx:TrackPointExtension xmlns:gpxtpx="http://www.garmin.com/xmlschemas/TrackPointExtension/v1">
            <gpxtpx:hr>159</gpxtpx:hr>
          </gpxtpx:TrackPointExtension>
        </extensions>
      </trkpt>
      <trkpt lat="44.16293" lon="3.19723">
        <ele>769</ele>
        <time>2022-02-10T10:25:41Z</time>
        <extensions>
          <gpxtpx:TrackPointExtension xmlns:gpxtpx="http://www.garmin.com/xmlschemas/TrackPointExtension/v1">
            <gpxtpx:hr>159</gpxtpx:hr>
          </gpxtpx:TrackPointExtension>
        </extensions>
      </trkpt>
      <trkpt lat="44.16295" lon="3.19721">
        <ele>769</ele>
        <time>2022-02-10T10:25:42Z</time>
        <extensions>
          <gpxtpx:TrackPointExtension xmlns:gpxtpx="http://www.garmin.com/xmlschemas/TrackPointExtension/v1">
            <gpxtpx:hr>159</gpxtpx:hr>
          </gpxtpx:TrackPointExtension>
        </extensions>
      </trkpt>
      <trkpt lat="44.16298" lon="3.19716">
        <ele>769</ele>
        <time>2022-02-10T10:25:44Z</time>
        <extensions>
          <gpxtpx:TrackPointExtension xmlns:gpxtpx="http://www.garmin.com/xmlschemas/TrackPointExtension/v1">
            <gpxtpx:hr>158</gpxtpx:hr>
          </gpxtpx:TrackPointExtension>
        </extensions>
      </trkpt>
      <trkpt lat="44.16301" lon="3.19712">
        <ele>769</ele>
        <time>2022-02-10T10:25:46Z</time>
        <extensions>
          <gpxtpx:TrackPointExtension xmlns:gpxtpx="http://www.garmin.com/xmlschemas/TrackPointExtension/v1">
            <gpxtpx:hr>159</gpxtpx:hr>
          </gpxtpx:TrackPointExtension>
        </extensions>
      </trkpt>
      <trkpt lat="44.16305" lon="3.19709">
        <ele>769</ele>
        <time>2022-02-10T10:25:48Z</time>
        <extensions>
          <gpxtpx:TrackPointExtension xmlns:gpxtpx="http://www.garmin.com/xmlschemas/TrackPointExtension/v1">
            <gpxtpx:hr>159</gpxtpx:hr>
          </gpxtpx:TrackPointExtension>
        </extensions>
      </trkpt>
      <trkpt lat="44.16309" lon="3.19705">
        <ele>769</ele>
        <time>2022-02-10T10:25:50Z</time>
        <extensions>
          <gpxtpx:TrackPointExtension xmlns:gpxtpx="http://www.garmin.com/xmlschemas/TrackPointExtension/v1">
            <gpxtpx:hr>158</gpxtpx:hr>
          </gpxtpx:TrackPointExtension>
        </extensions>
      </trkpt>
      <trkpt lat="44.16312" lon="3.19701">
        <ele>769</ele>
        <time>2022-02-10T10:25:52Z</time>
        <extensions>
          <gpxtpx:TrackPointExtension xmlns:gpxtpx="http://www.garmin.com/xmlschemas/TrackPointExtension/v1">
            <gpxtpx:hr>157</gpxtpx:hr>
          </gpxtpx:TrackPointExtension>
        </extensions>
      </trkpt>
      <trkpt lat="44.16315" lon="3.19696">
        <ele>769</ele>
        <time>2022-02-10T10:25:54Z</time>
        <extensions>
          <gpxtpx:TrackPointExtension xmlns:gpxtpx="http://www.garmin.com/xmlschemas/TrackPointExtension/v1">
            <gpxtpx:hr>158</gpxtpx:hr>
          </gpxtpx:TrackPointExtension>
        </extensions>
      </trkpt>
      <trkpt lat="44.16317" lon="3.19691">
        <ele>769.2</ele>
        <time>2022-02-10T10:25:56Z</time>
        <extensions>
          <gpxtpx:TrackPointExtension xmlns:gpxtpx="http://www.garmin.com/xmlschemas/TrackPointExtension/v1">
            <gpxtpx:hr>158</gpxtpx:hr>
          </gpxtpx:TrackPointExtension>
        </extensions>
      </trkpt>
      <trkpt lat="44.16319" lon="3.19689">
        <ele>769.2</ele>
        <time>2022-02-10T10:25:57Z</time>
        <extensions>
          <gpxtpx:TrackPointExtension xmlns:gpxtpx="http://www.garmin.com/xmlschemas/TrackPointExtension/v1">
            <gpxtpx:hr>158</gpxtpx:hr>
          </gpxtpx:TrackPointExtension>
        </extensions>
      </trkpt>
      <trkpt lat="44.16322" lon="3.19685">
        <ele>769.2</ele>
        <time>2022-02-10T10:25:59Z</time>
        <extensions>
          <gpxtpx:TrackPointExtension xmlns:gpxtpx="http://www.garmin.com/xmlschemas/TrackPointExtension/v1">
            <gpxtpx:hr>159</gpxtpx:hr>
          </gpxtpx:TrackPointExtension>
        </extensions>
      </trkpt>
      <trkpt lat="44.16325" lon="3.19681">
        <ele>769.2</ele>
        <time>2022-02-10T10:26:01Z</time>
        <extensions>
          <gpxtpx:TrackPointExtension xmlns:gpxtpx="http://www.garmin.com/xmlschemas/TrackPointExtension/v1">
            <gpxtpx:hr>161</gpxtpx:hr>
          </gpxtpx:TrackPointExtension>
        </extensions>
      </trkpt>
      <trkpt lat="44.16328" lon="3.19677">
        <ele>769.2</ele>
        <time>2022-02-10T10:26:03Z</time>
        <extensions>
          <gpxtpx:TrackPointExtension xmlns:gpxtpx="http://www.garmin.com/xmlschemas/TrackPointExtension/v1">
            <gpxtpx:hr>160</gpxtpx:hr>
          </gpxtpx:TrackPointExtension>
        </extensions>
      </trkpt>
      <trkpt lat="44.16331" lon="3.19673">
        <ele>769.2</ele>
        <time>2022-02-10T10:26:05Z</time>
        <extensions>
          <gpxtpx:TrackPointExtension xmlns:gpxtpx="http://www.garmin.com/xmlschemas/TrackPointExtension/v1">
            <gpxtpx:hr>161</gpxtpx:hr>
          </gpxtpx:TrackPointExtension>
        </extensions>
      </trkpt>
      <trkpt lat="44.16333" lon="3.19668">
        <ele>769.2</ele>
        <time>2022-02-10T10:26:07Z</time>
        <extensions>
          <gpxtpx:TrackPointExtension xmlns:gpxtpx="http://www.garmin.com/xmlschemas/TrackPointExtension/v1">
            <gpxtpx:hr>160</gpxtpx:hr>
          </gpxtpx:TrackPointExtension>
        </extensions>
      </trkpt>
      <trkpt lat="44.16335" lon="3.19664">
        <ele>769.6</ele>
        <time>2022-02-10T10:26:09Z</time>
        <extensions>
          <gpxtpx:TrackPointExtension xmlns:gpxtpx="http://www.garmin.com/xmlschemas/TrackPointExtension/v1">
            <gpxtpx:hr>158</gpxtpx:hr>
          </gpxtpx:TrackPointExtension>
        </extensions>
      </trkpt>
      <trkpt lat="44.16338" lon="3.1966">
        <ele>769.8</ele>
        <time>2022-02-10T10:26:11Z</time>
        <extensions>
          <gpxtpx:TrackPointExtension xmlns:gpxtpx="http://www.garmin.com/xmlschemas/TrackPointExtension/v1">
            <gpxtpx:hr>158</gpxtpx:hr>
          </gpxtpx:TrackPointExtension>
        </extensions>
      </trkpt>
      <trkpt lat="44.1634" lon="3.19657">
        <ele>769.8</ele>
        <time>2022-02-10T10:26:13Z</time>
        <extensions>
          <gpxtpx:TrackPointExtension xmlns:gpxtpx="http://www.garmin.com/xmlschemas/TrackPointExtension/v1">
            <gpxtpx:hr>161</gpxtpx:hr>
          </gpxtpx:TrackPointExtension>
        </extensions>
      </trkpt>
      <trkpt lat="44.16343" lon="3.19654">
        <ele>770</ele>
        <time>2022-02-10T10:26:15Z</time>
        <extensions>
          <gpxtpx:TrackPointExtension xmlns:gpxtpx="http://www.garmin.com/xmlschemas/TrackPointExtension/v1">
            <gpxtpx:hr>161</gpxtpx:hr>
          </gpxtpx:TrackPointExtension>
        </extensions>
      </trkpt>
      <trkpt lat="44.16345" lon="3.19651">
        <ele>770</ele>
        <time>2022-02-10T10:26:17Z</time>
        <extensions>
          <gpxtpx:TrackPointExtension xmlns:gpxtpx="http://www.garmin.com/xmlschemas/TrackPointExtension/v1">
            <gpxtpx:hr>162</gpxtpx:hr>
          </gpxtpx:TrackPointExtension>
        </extensions>
      </trkpt>
      <trkpt lat="44.16347" lon="3.19647">
        <ele>770.4</ele>
        <time>2022-02-10T10:26:19Z</time>
        <extensions>
          <gpxtpx:TrackPointExtension xmlns:gpxtpx="http://www.garmin.com/xmlschemas/TrackPointExtension/v1">
            <gpxtpx:hr>163</gpxtpx:hr>
          </gpxtpx:TrackPointExtension>
        </extensions>
      </trkpt>
      <trkpt lat="44.16349" lon="3.19642">
        <ele>770.6</ele>
        <time>2022-02-10T10:26:21Z</time>
        <extensions>
          <gpxtpx:TrackPointExtension xmlns:gpxtpx="http://www.garmin.com/xmlschemas/TrackPointExtension/v1">
            <gpxtpx:hr>165</gpxtpx:hr>
          </gpxtpx:TrackPointExtension>
        </extensions>
      </trkpt>
      <trkpt lat="44.1635" lon="3.1964">
        <ele>770.6</ele>
        <time>2022-02-10T10:26:22Z</time>
        <extensions>
          <gpxtpx:TrackPointExtension xmlns:gpxtpx="http://www.garmin.com/xmlschemas/TrackPointExtension/v1">
            <gpxtpx:hr>163</gpxtpx:hr>
          </gpxtpx:TrackPointExtension>
        </extensions>
      </trkpt>
      <trkpt lat="44.16351" lon="3.19637">
        <ele>770.6</ele>
        <time>2022-02-10T10:26:23Z</time>
        <extensions>
          <gpxtpx:TrackPointExtension xmlns:gpxtpx="http://www.garmin.com/xmlschemas/TrackPointExtension/v1">
            <gpxtpx:hr>163</gpxtpx:hr>
          </gpxtpx:TrackPointExtension>
        </extensions>
      </trkpt>
      <trkpt lat="44.16353" lon="3.19632">
        <ele>770.8</ele>
        <time>2022-02-10T10:26:25Z</time>
        <extensions>
          <gpxtpx:TrackPointExtension xmlns:gpxtpx="http://www.garmin.com/xmlschemas/TrackPointExtension/v1">
            <gpxtpx:hr>164</gpxtpx:hr>
          </gpxtpx:TrackPointExtension>
        </extensions>
      </trkpt>
      <trkpt lat="44.16355" lon="3.19627">
        <ele>771</ele>
        <time>2022-02-10T10:26:27Z</time>
        <extensions>
          <gpxtpx:TrackPointExtension xmlns:gpxtpx="http://www.garmin.com/xmlschemas/TrackPointExtension/v1">
            <gpxtpx:hr>164</gpxtpx:hr>
          </gpxtpx:TrackPointExtension>
        </extensions>
      </trkpt>
      <trkpt lat="44.16357" lon="3.19622">
        <ele>771.4</ele>
        <time>2022-02-10T10:26:29Z</time>
        <extensions>
          <gpxtpx:TrackPointExtension xmlns:gpxtpx="http://www.garmin.com/xmlschemas/TrackPointExtension/v1">
            <gpxtpx:hr>165</gpxtpx:hr>
          </gpxtpx:TrackPointExtension>
        </extensions>
      </trkpt>
      <trkpt lat="44.16357" lon="3.1962">
        <ele>771.4</ele>
        <time>2022-02-10T10:26:30Z</time>
        <extensions>
          <gpxtpx:TrackPointExtension xmlns:gpxtpx="http://www.garmin.com/xmlschemas/TrackPointExtension/v1">
            <gpxtpx:hr>165</gpxtpx:hr>
          </gpxtpx:TrackPointExtension>
        </extensions>
      </trkpt>
      <trkpt lat="44.16359" lon="3.19615">
        <ele>771.6</ele>
        <time>2022-02-10T10:26:32Z</time>
        <extensions>
          <gpxtpx:TrackPointExtension xmlns:gpxtpx="http://www.garmin.com/xmlschemas/TrackPointExtension/v1">
            <gpxtpx:hr>165</gpxtpx:hr>
          </gpxtpx:TrackPointExtension>
        </extensions>
      </trkpt>
      <trkpt lat="44.1636" lon="3.19609">
        <ele>771.8</ele>
        <time>2022-02-10T10:26:34Z</time>
        <extensions>
          <gpxtpx:TrackPointExtension xmlns:gpxtpx="http://www.garmin.com/xmlschemas/TrackPointExtension/v1">
            <gpxtpx:hr>165</gpxtpx:hr>
          </gpxtpx:TrackPointExtension>
        </extensions>
      </trkpt>
      <trkpt lat="44.16361" lon="3.19604">
        <ele>772</ele>
        <time>2022-02-10T10:26:36Z</time>
        <extensions>
          <gpxtpx:TrackPointExtension xmlns:gpxtpx="http://www.garmin.com/xmlschemas/TrackPointExtension/v1">
            <gpxtpx:hr>166</gpxtpx:hr>
          </gpxtpx:TrackPointExtension>
        </extensions>
      </trkpt>
      <trkpt lat="44.16362" lon="3.19599">
        <ele>772.2</ele>
        <time>2022-02-10T10:26:38Z</time>
        <extensions>
          <gpxtpx:TrackPointExtension xmlns:gpxtpx="http://www.garmin.com/xmlschemas/TrackPointExtension/v1">
            <gpxtpx:hr>166</gpxtpx:hr>
          </gpxtpx:TrackPointExtension>
        </extensions>
      </trkpt>
      <trkpt lat="44.16365" lon="3.19594">
        <ele>772.6</ele>
        <time>2022-02-10T10:26:40Z</time>
        <extensions>
          <gpxtpx:TrackPointExtension xmlns:gpxtpx="http://www.garmin.com/xmlschemas/TrackPointExtension/v1">
            <gpxtpx:hr>167</gpxtpx:hr>
          </gpxtpx:TrackPointExtension>
        </extensions>
      </trkpt>
      <trkpt lat="44.16366" lon="3.19592">
        <ele>772.6</ele>
        <time>2022-02-10T10:26:41Z</time>
        <extensions>
          <gpxtpx:TrackPointExtension xmlns:gpxtpx="http://www.garmin.com/xmlschemas/TrackPointExtension/v1">
            <gpxtpx:hr>167</gpxtpx:hr>
          </gpxtpx:TrackPointExtension>
        </extensions>
      </trkpt>
      <trkpt lat="44.16367" lon="3.1959">
        <ele>772.8</ele>
        <time>2022-02-10T10:26:42Z</time>
        <extensions>
          <gpxtpx:TrackPointExtension xmlns:gpxtpx="http://www.garmin.com/xmlschemas/TrackPointExtension/v1">
            <gpxtpx:hr>166</gpxtpx:hr>
          </gpxtpx:TrackPointExtension>
        </extensions>
      </trkpt>
      <trkpt lat="44.16371" lon="3.19586">
        <ele>773</ele>
        <time>2022-02-10T10:26:44Z</time>
        <extensions>
          <gpxtpx:TrackPointExtension xmlns:gpxtpx="http://www.garmin.com/xmlschemas/TrackPointExtension/v1">
            <gpxtpx:hr>166</gpxtpx:hr>
          </gpxtpx:TrackPointExtension>
        </extensions>
      </trkpt>
      <trkpt lat="44.16372" lon="3.19584">
        <ele>773</ele>
        <time>2022-02-10T10:26:45Z</time>
        <extensions>
          <gpxtpx:TrackPointExtension xmlns:gpxtpx="http://www.garmin.com/xmlschemas/TrackPointExtension/v1">
            <gpxtpx:hr>166</gpxtpx:hr>
          </gpxtpx:TrackPointExtension>
        </extensions>
      </trkpt>
      <trkpt lat="44.16374" lon="3.19582">
        <ele>773</ele>
        <time>2022-02-10T10:26:46Z</time>
        <extensions>
          <gpxtpx:TrackPointExtension xmlns:gpxtpx="http://www.garmin.com/xmlschemas/TrackPointExtension/v1">
            <gpxtpx:hr>166</gpxtpx:hr>
          </gpxtpx:TrackPointExtension>
        </extensions>
      </trkpt>
      <trkpt lat="44.16377" lon="3.19578">
        <ele>773.2</ele>
        <time>2022-02-10T10:26:48Z</time>
        <extensions>
          <gpxtpx:TrackPointExtension xmlns:gpxtpx="http://www.garmin.com/xmlschemas/TrackPointExtension/v1">
            <gpxtpx:hr>165</gpxtpx:hr>
          </gpxtpx:TrackPointExtension>
        </extensions>
      </trkpt>
      <trkpt lat="44.16379" lon="3.19574">
        <ele>773.6</ele>
        <time>2022-02-10T10:26:50Z</time>
        <extensions>
          <gpxtpx:TrackPointExtension xmlns:gpxtpx="http://www.garmin.com/xmlschemas/TrackPointExtension/v1">
            <gpxtpx:hr>165</gpxtpx:hr>
          </gpxtpx:TrackPointExtension>
        </extensions>
      </trkpt>
      <trkpt lat="44.16381" lon="3.1957">
        <ele>773.8</ele>
        <time>2022-02-10T10:26:52Z</time>
        <extensions>
          <gpxtpx:TrackPointExtension xmlns:gpxtpx="http://www.garmin.com/xmlschemas/TrackPointExtension/v1">
            <gpxtpx:hr>166</gpxtpx:hr>
          </gpxtpx:TrackPointExtension>
        </extensions>
      </trkpt>
      <trkpt lat="44.16383" lon="3.19565">
        <ele>774</ele>
        <time>2022-02-10T10:26:54Z</time>
        <extensions>
          <gpxtpx:TrackPointExtension xmlns:gpxtpx="http://www.garmin.com/xmlschemas/TrackPointExtension/v1">
            <gpxtpx:hr>166</gpxtpx:hr>
          </gpxtpx:TrackPointExtension>
        </extensions>
      </trkpt>
      <trkpt lat="44.16387" lon="3.19558">
        <ele>774</ele>
        <time>2022-02-10T10:26:57Z</time>
        <extensions>
          <gpxtpx:TrackPointExtension xmlns:gpxtpx="http://www.garmin.com/xmlschemas/TrackPointExtension/v1">
            <gpxtpx:hr>165</gpxtpx:hr>
          </gpxtpx:TrackPointExtension>
        </extensions>
      </trkpt>
      <trkpt lat="44.16389" lon="3.19554">
        <ele>774</ele>
        <time>2022-02-10T10:26:59Z</time>
        <extensions>
          <gpxtpx:TrackPointExtension xmlns:gpxtpx="http://www.garmin.com/xmlschemas/TrackPointExtension/v1">
            <gpxtpx:hr>166</gpxtpx:hr>
          </gpxtpx:TrackPointExtension>
        </extensions>
      </trkpt>
      <trkpt lat="44.16389" lon="3.19551">
        <ele>774.2</ele>
        <time>2022-02-10T10:27:00Z</time>
        <extensions>
          <gpxtpx:TrackPointExtension xmlns:gpxtpx="http://www.garmin.com/xmlschemas/TrackPointExtension/v1">
            <gpxtpx:hr>166</gpxtpx:hr>
          </gpxtpx:TrackPointExtension>
        </extensions>
      </trkpt>
      <trkpt lat="44.1639" lon="3.19546">
        <ele>774.6</ele>
        <time>2022-02-10T10:27:02Z</time>
        <extensions>
          <gpxtpx:TrackPointExtension xmlns:gpxtpx="http://www.garmin.com/xmlschemas/TrackPointExtension/v1">
            <gpxtpx:hr>165</gpxtpx:hr>
          </gpxtpx:TrackPointExtension>
        </extensions>
      </trkpt>
      <trkpt lat="44.16391" lon="3.19541">
        <ele>774.6</ele>
        <time>2022-02-10T10:27:04Z</time>
        <extensions>
          <gpxtpx:TrackPointExtension xmlns:gpxtpx="http://www.garmin.com/xmlschemas/TrackPointExtension/v1">
            <gpxtpx:hr>164</gpxtpx:hr>
          </gpxtpx:TrackPointExtension>
        </extensions>
      </trkpt>
      <trkpt lat="44.16391" lon="3.19536">
        <ele>774.8</ele>
        <time>2022-02-10T10:27:06Z</time>
        <extensions>
          <gpxtpx:TrackPointExtension xmlns:gpxtpx="http://www.garmin.com/xmlschemas/TrackPointExtension/v1">
            <gpxtpx:hr>165</gpxtpx:hr>
          </gpxtpx:TrackPointExtension>
        </extensions>
      </trkpt>
      <trkpt lat="44.16392" lon="3.1953">
        <ele>774.8</ele>
        <time>2022-02-10T10:27:08Z</time>
        <extensions>
          <gpxtpx:TrackPointExtension xmlns:gpxtpx="http://www.garmin.com/xmlschemas/TrackPointExtension/v1">
            <gpxtpx:hr>167</gpxtpx:hr>
          </gpxtpx:TrackPointExtension>
        </extensions>
      </trkpt>
      <trkpt lat="44.16393" lon="3.19525">
        <ele>774.8</ele>
        <time>2022-02-10T10:27:10Z</time>
        <extensions>
          <gpxtpx:TrackPointExtension xmlns:gpxtpx="http://www.garmin.com/xmlschemas/TrackPointExtension/v1">
            <gpxtpx:hr>165</gpxtpx:hr>
          </gpxtpx:TrackPointExtension>
        </extensions>
      </trkpt>
      <trkpt lat="44.16393" lon="3.19523">
        <ele>774.8</ele>
        <time>2022-02-10T10:27:11Z</time>
        <extensions>
          <gpxtpx:TrackPointExtension xmlns:gpxtpx="http://www.garmin.com/xmlschemas/TrackPointExtension/v1">
            <gpxtpx:hr>166</gpxtpx:hr>
          </gpxtpx:TrackPointExtension>
        </extensions>
      </trkpt>
      <trkpt lat="44.16394" lon="3.1952">
        <ele>774.8</ele>
        <time>2022-02-10T10:27:12Z</time>
        <extensions>
          <gpxtpx:TrackPointExtension xmlns:gpxtpx="http://www.garmin.com/xmlschemas/TrackPointExtension/v1">
            <gpxtpx:hr>166</gpxtpx:hr>
          </gpxtpx:TrackPointExtension>
        </extensions>
      </trkpt>
      <trkpt lat="44.16396" lon="3.19515">
        <ele>774.6</ele>
        <time>2022-02-10T10:27:14Z</time>
        <extensions>
          <gpxtpx:TrackPointExtension xmlns:gpxtpx="http://www.garmin.com/xmlschemas/TrackPointExtension/v1">
            <gpxtpx:hr>166</gpxtpx:hr>
          </gpxtpx:TrackPointExtension>
        </extensions>
      </trkpt>
      <trkpt lat="44.16397" lon="3.19512">
        <ele>774.6</ele>
        <time>2022-02-10T10:27:15Z</time>
        <extensions>
          <gpxtpx:TrackPointExtension xmlns:gpxtpx="http://www.garmin.com/xmlschemas/TrackPointExtension/v1">
            <gpxtpx:hr>166</gpxtpx:hr>
          </gpxtpx:TrackPointExtension>
        </extensions>
      </trkpt>
      <trkpt lat="44.16397" lon="3.1951">
        <ele>774.2</ele>
        <time>2022-02-10T10:27:16Z</time>
        <extensions>
          <gpxtpx:TrackPointExtension xmlns:gpxtpx="http://www.garmin.com/xmlschemas/TrackPointExtension/v1">
            <gpxtpx:hr>165</gpxtpx:hr>
          </gpxtpx:TrackPointExtension>
        </extensions>
      </trkpt>
      <trkpt lat="44.16398" lon="3.19507">
        <ele>774.2</ele>
        <time>2022-02-10T10:27:17Z</time>
        <extensions>
          <gpxtpx:TrackPointExtension xmlns:gpxtpx="http://www.garmin.com/xmlschemas/TrackPointExtension/v1">
            <gpxtpx:hr>165</gpxtpx:hr>
          </gpxtpx:TrackPointExtension>
        </extensions>
      </trkpt>
      <trkpt lat="44.16399" lon="3.19504">
        <ele>774</ele>
        <time>2022-02-10T10:27:18Z</time>
        <extensions>
          <gpxtpx:TrackPointExtension xmlns:gpxtpx="http://www.garmin.com/xmlschemas/TrackPointExtension/v1">
            <gpxtpx:hr>164</gpxtpx:hr>
          </gpxtpx:TrackPointExtension>
        </extensions>
      </trkpt>
      <trkpt lat="44.164" lon="3.19501">
        <ele>774</ele>
        <time>2022-02-10T10:27:19Z</time>
        <extensions>
          <gpxtpx:TrackPointExtension xmlns:gpxtpx="http://www.garmin.com/xmlschemas/TrackPointExtension/v1">
            <gpxtpx:hr>163</gpxtpx:hr>
          </gpxtpx:TrackPointExtension>
        </extensions>
      </trkpt>
      <trkpt lat="44.16401" lon="3.19497">
        <ele>773.6</ele>
        <time>2022-02-10T10:27:20Z</time>
        <extensions>
          <gpxtpx:TrackPointExtension xmlns:gpxtpx="http://www.garmin.com/xmlschemas/TrackPointExtension/v1">
            <gpxtpx:hr>163</gpxtpx:hr>
          </gpxtpx:TrackPointExtension>
        </extensions>
      </trkpt>
      <trkpt lat="44.16403" lon="3.19491">
        <ele>773.4</ele>
        <time>2022-02-10T10:27:22Z</time>
        <extensions>
          <gpxtpx:TrackPointExtension xmlns:gpxtpx="http://www.garmin.com/xmlschemas/TrackPointExtension/v1">
            <gpxtpx:hr>163</gpxtpx:hr>
          </gpxtpx:TrackPointExtension>
        </extensions>
      </trkpt>
      <trkpt lat="44.16404" lon="3.19487">
        <ele>773</ele>
        <time>2022-02-10T10:27:23Z</time>
        <extensions>
          <gpxtpx:TrackPointExtension xmlns:gpxtpx="http://www.garmin.com/xmlschemas/TrackPointExtension/v1">
            <gpxtpx:hr>163</gpxtpx:hr>
          </gpxtpx:TrackPointExtension>
        </extensions>
      </trkpt>
      <trkpt lat="44.16405" lon="3.19485">
        <ele>772.8</ele>
        <time>2022-02-10T10:27:24Z</time>
        <extensions>
          <gpxtpx:TrackPointExtension xmlns:gpxtpx="http://www.garmin.com/xmlschemas/TrackPointExtension/v1">
            <gpxtpx:hr>162</gpxtpx:hr>
          </gpxtpx:TrackPointExtension>
        </extensions>
      </trkpt>
      <trkpt lat="44.16407" lon="3.19482">
        <ele>772.4</ele>
        <time>2022-02-10T10:27:25Z</time>
        <extensions>
          <gpxtpx:TrackPointExtension xmlns:gpxtpx="http://www.garmin.com/xmlschemas/TrackPointExtension/v1">
            <gpxtpx:hr>161</gpxtpx:hr>
          </gpxtpx:TrackPointExtension>
        </extensions>
      </trkpt>
      <trkpt lat="44.16408" lon="3.1948">
        <ele>772.2</ele>
        <time>2022-02-10T10:27:26Z</time>
        <extensions>
          <gpxtpx:TrackPointExtension xmlns:gpxtpx="http://www.garmin.com/xmlschemas/TrackPointExtension/v1">
            <gpxtpx:hr>161</gpxtpx:hr>
          </gpxtpx:TrackPointExtension>
        </extensions>
      </trkpt>
      <trkpt lat="44.16412" lon="3.19477">
        <ele>772</ele>
        <time>2022-02-10T10:27:28Z</time>
        <extensions>
          <gpxtpx:TrackPointExtension xmlns:gpxtpx="http://www.garmin.com/xmlschemas/TrackPointExtension/v1">
            <gpxtpx:hr>162</gpxtpx:hr>
          </gpxtpx:TrackPointExtension>
        </extensions>
      </trkpt>
      <trkpt lat="44.16414" lon="3.19475">
        <ele>771.4</ele>
        <time>2022-02-10T10:27:30Z</time>
        <extensions>
          <gpxtpx:TrackPointExtension xmlns:gpxtpx="http://www.garmin.com/xmlschemas/TrackPointExtension/v1">
            <gpxtpx:hr>162</gpxtpx:hr>
          </gpxtpx:TrackPointExtension>
        </extensions>
      </trkpt>
      <trkpt lat="44.16416" lon="3.19474">
        <ele>771.2</ele>
        <time>2022-02-10T10:27:31Z</time>
        <extensions>
          <gpxtpx:TrackPointExtension xmlns:gpxtpx="http://www.garmin.com/xmlschemas/TrackPointExtension/v1">
            <gpxtpx:hr>162</gpxtpx:hr>
          </gpxtpx:TrackPointExtension>
        </extensions>
      </trkpt>
      <trkpt lat="44.16419" lon="3.19472">
        <ele>770.8</ele>
        <time>2022-02-10T10:27:32Z</time>
        <extensions>
          <gpxtpx:TrackPointExtension xmlns:gpxtpx="http://www.garmin.com/xmlschemas/TrackPointExtension/v1">
            <gpxtpx:hr>162</gpxtpx:hr>
          </gpxtpx:TrackPointExtension>
        </extensions>
      </trkpt>
      <trkpt lat="44.16421" lon="3.19471">
        <ele>770.6</ele>
        <time>2022-02-10T10:27:33Z</time>
        <extensions>
          <gpxtpx:TrackPointExtension xmlns:gpxtpx="http://www.garmin.com/xmlschemas/TrackPointExtension/v1">
            <gpxtpx:hr>162</gpxtpx:hr>
          </gpxtpx:TrackPointExtension>
        </extensions>
      </trkpt>
      <trkpt lat="44.16423" lon="3.1947">
        <ele>770.6</ele>
        <time>2022-02-10T10:27:34Z</time>
        <extensions>
          <gpxtpx:TrackPointExtension xmlns:gpxtpx="http://www.garmin.com/xmlschemas/TrackPointExtension/v1">
            <gpxtpx:hr>161</gpxtpx:hr>
          </gpxtpx:TrackPointExtension>
        </extensions>
      </trkpt>
      <trkpt lat="44.16425" lon="3.19468">
        <ele>770.2</ele>
        <time>2022-02-10T10:27:35Z</time>
        <extensions>
          <gpxtpx:TrackPointExtension xmlns:gpxtpx="http://www.garmin.com/xmlschemas/TrackPointExtension/v1">
            <gpxtpx:hr>161</gpxtpx:hr>
          </gpxtpx:TrackPointExtension>
        </extensions>
      </trkpt>
      <trkpt lat="44.16427" lon="3.19467">
        <ele>770</ele>
        <time>2022-02-10T10:27:36Z</time>
        <extensions>
          <gpxtpx:TrackPointExtension xmlns:gpxtpx="http://www.garmin.com/xmlschemas/TrackPointExtension/v1">
            <gpxtpx:hr>161</gpxtpx:hr>
          </gpxtpx:TrackPointExtension>
        </extensions>
      </trkpt>
      <trkpt lat="44.16428" lon="3.19465">
        <ele>769.8</ele>
        <time>2022-02-10T10:27:37Z</time>
        <extensions>
          <gpxtpx:TrackPointExtension xmlns:gpxtpx="http://www.garmin.com/xmlschemas/TrackPointExtension/v1">
            <gpxtpx:hr>161</gpxtpx:hr>
          </gpxtpx:TrackPointExtension>
        </extensions>
      </trkpt>
      <trkpt lat="44.16431" lon="3.1946">
        <ele>769.4</ele>
        <time>2022-02-10T10:27:39Z</time>
        <extensions>
          <gpxtpx:TrackPointExtension xmlns:gpxtpx="http://www.garmin.com/xmlschemas/TrackPointExtension/v1">
            <gpxtpx:hr>159</gpxtpx:hr>
          </gpxtpx:TrackPointExtension>
        </extensions>
      </trkpt>
      <trkpt lat="44.16435" lon="3.19456">
        <ele>769</ele>
        <time>2022-02-10T10:27:41Z</time>
        <extensions>
          <gpxtpx:TrackPointExtension xmlns:gpxtpx="http://www.garmin.com/xmlschemas/TrackPointExtension/v1">
            <gpxtpx:hr>158</gpxtpx:hr>
          </gpxtpx:TrackPointExtension>
        </extensions>
      </trkpt>
      <trkpt lat="44.16438" lon="3.19451">
        <ele>768.8</ele>
        <time>2022-02-10T10:27:43Z</time>
        <extensions>
          <gpxtpx:TrackPointExtension xmlns:gpxtpx="http://www.garmin.com/xmlschemas/TrackPointExtension/v1">
            <gpxtpx:hr>158</gpxtpx:hr>
          </gpxtpx:TrackPointExtension>
        </extensions>
      </trkpt>
      <trkpt lat="44.16442" lon="3.19447">
        <ele>768.8</ele>
        <time>2022-02-10T10:27:45Z</time>
        <extensions>
          <gpxtpx:TrackPointExtension xmlns:gpxtpx="http://www.garmin.com/xmlschemas/TrackPointExtension/v1">
            <gpxtpx:hr>157</gpxtpx:hr>
          </gpxtpx:TrackPointExtension>
        </extensions>
      </trkpt>
      <trkpt lat="44.16445" lon="3.19442">
        <ele>768.6</ele>
        <time>2022-02-10T10:27:47Z</time>
        <extensions>
          <gpxtpx:TrackPointExtension xmlns:gpxtpx="http://www.garmin.com/xmlschemas/TrackPointExtension/v1">
            <gpxtpx:hr>155</gpxtpx:hr>
          </gpxtpx:TrackPointExtension>
        </extensions>
      </trkpt>
      <trkpt lat="44.16446" lon="3.1944">
        <ele>768.6</ele>
        <time>2022-02-10T10:27:48Z</time>
        <extensions>
          <gpxtpx:TrackPointExtension xmlns:gpxtpx="http://www.garmin.com/xmlschemas/TrackPointExtension/v1">
            <gpxtpx:hr>154</gpxtpx:hr>
          </gpxtpx:TrackPointExtension>
        </extensions>
      </trkpt>
      <trkpt lat="44.16447" lon="3.19438">
        <ele>768.4</ele>
        <time>2022-02-10T10:27:49Z</time>
        <extensions>
          <gpxtpx:TrackPointExtension xmlns:gpxtpx="http://www.garmin.com/xmlschemas/TrackPointExtension/v1">
            <gpxtpx:hr>153</gpxtpx:hr>
          </gpxtpx:TrackPointExtension>
        </extensions>
      </trkpt>
      <trkpt lat="44.16451" lon="3.19433">
        <ele>768.2</ele>
        <time>2022-02-10T10:27:51Z</time>
        <extensions>
          <gpxtpx:TrackPointExtension xmlns:gpxtpx="http://www.garmin.com/xmlschemas/TrackPointExtension/v1">
            <gpxtpx:hr>151</gpxtpx:hr>
          </gpxtpx:TrackPointExtension>
        </extensions>
      </trkpt>
      <trkpt lat="44.16452" lon="3.1943">
        <ele>768.2</ele>
        <time>2022-02-10T10:27:52Z</time>
        <extensions>
          <gpxtpx:TrackPointExtension xmlns:gpxtpx="http://www.garmin.com/xmlschemas/TrackPointExtension/v1">
            <gpxtpx:hr>150</gpxtpx:hr>
          </gpxtpx:TrackPointExtension>
        </extensions>
      </trkpt>
      <trkpt lat="44.16453" lon="3.19428">
        <ele>768.2</ele>
        <time>2022-02-10T10:27:53Z</time>
        <extensions>
          <gpxtpx:TrackPointExtension xmlns:gpxtpx="http://www.garmin.com/xmlschemas/TrackPointExtension/v1">
            <gpxtpx:hr>151</gpxtpx:hr>
          </gpxtpx:TrackPointExtension>
        </extensions>
      </trkpt>
      <trkpt lat="44.16456" lon="3.19421">
        <ele>767.6</ele>
        <time>2022-02-10T10:27:55Z</time>
        <extensions>
          <gpxtpx:TrackPointExtension xmlns:gpxtpx="http://www.garmin.com/xmlschemas/TrackPointExtension/v1">
            <gpxtpx:hr>154</gpxtpx:hr>
          </gpxtpx:TrackPointExtension>
        </extensions>
      </trkpt>
      <trkpt lat="44.16458" lon="3.19419">
        <ele>767.6</ele>
        <time>2022-02-10T10:27:56Z</time>
        <extensions>
          <gpxtpx:TrackPointExtension xmlns:gpxtpx="http://www.garmin.com/xmlschemas/TrackPointExtension/v1">
            <gpxtpx:hr>155</gpxtpx:hr>
          </gpxtpx:TrackPointExtension>
        </extensions>
      </trkpt>
      <trkpt lat="44.16459" lon="3.19416">
        <ele>767.4</ele>
        <time>2022-02-10T10:27:57Z</time>
        <extensions>
          <gpxtpx:TrackPointExtension xmlns:gpxtpx="http://www.garmin.com/xmlschemas/TrackPointExtension/v1">
            <gpxtpx:hr>156</gpxtpx:hr>
          </gpxtpx:TrackPointExtension>
        </extensions>
      </trkpt>
      <trkpt lat="44.16463" lon="3.19411">
        <ele>767</ele>
        <time>2022-02-10T10:27:59Z</time>
        <extensions>
          <gpxtpx:TrackPointExtension xmlns:gpxtpx="http://www.garmin.com/xmlschemas/TrackPointExtension/v1">
            <gpxtpx:hr>156</gpxtpx:hr>
          </gpxtpx:TrackPointExtension>
        </extensions>
      </trkpt>
      <trkpt lat="44.16465" lon="3.19409">
        <ele>767</ele>
        <time>2022-02-10T10:28:00Z</time>
        <extensions>
          <gpxtpx:TrackPointExtension xmlns:gpxtpx="http://www.garmin.com/xmlschemas/TrackPointExtension/v1">
            <gpxtpx:hr>155</gpxtpx:hr>
          </gpxtpx:TrackPointExtension>
        </extensions>
      </trkpt>
      <trkpt lat="44.16467" lon="3.19407">
        <ele>767</ele>
        <time>2022-02-10T10:28:01Z</time>
        <extensions>
          <gpxtpx:TrackPointExtension xmlns:gpxtpx="http://www.garmin.com/xmlschemas/TrackPointExtension/v1">
            <gpxtpx:hr>155</gpxtpx:hr>
          </gpxtpx:TrackPointExtension>
        </extensions>
      </trkpt>
      <trkpt lat="44.1647" lon="3.19403">
        <ele>766.6</ele>
        <time>2022-02-10T10:28:03Z</time>
        <extensions>
          <gpxtpx:TrackPointExtension xmlns:gpxtpx="http://www.garmin.com/xmlschemas/TrackPointExtension/v1">
            <gpxtpx:hr>157</gpxtpx:hr>
          </gpxtpx:TrackPointExtension>
        </extensions>
      </trkpt>
      <trkpt lat="44.16473" lon="3.19399">
        <ele>766.6</ele>
        <time>2022-02-10T10:28:05Z</time>
        <extensions>
          <gpxtpx:TrackPointExtension xmlns:gpxtpx="http://www.garmin.com/xmlschemas/TrackPointExtension/v1">
            <gpxtpx:hr>157</gpxtpx:hr>
          </gpxtpx:TrackPointExtension>
        </extensions>
      </trkpt>
      <trkpt lat="44.16477" lon="3.19396">
        <ele>766.2</ele>
        <time>2022-02-10T10:28:07Z</time>
        <extensions>
          <gpxtpx:TrackPointExtension xmlns:gpxtpx="http://www.garmin.com/xmlschemas/TrackPointExtension/v1">
            <gpxtpx:hr>157</gpxtpx:hr>
          </gpxtpx:TrackPointExtension>
        </extensions>
      </trkpt>
      <trkpt lat="44.16478" lon="3.19394">
        <ele>766.2</ele>
        <time>2022-02-10T10:28:08Z</time>
        <extensions>
          <gpxtpx:TrackPointExtension xmlns:gpxtpx="http://www.garmin.com/xmlschemas/TrackPointExtension/v1">
            <gpxtpx:hr>156</gpxtpx:hr>
          </gpxtpx:TrackPointExtension>
        </extensions>
      </trkpt>
      <trkpt lat="44.1648" lon="3.19392">
        <ele>766.2</ele>
        <time>2022-02-10T10:28:09Z</time>
        <extensions>
          <gpxtpx:TrackPointExtension xmlns:gpxtpx="http://www.garmin.com/xmlschemas/TrackPointExtension/v1">
            <gpxtpx:hr>156</gpxtpx:hr>
          </gpxtpx:TrackPointExtension>
        </extensions>
      </trkpt>
      <trkpt lat="44.16486" lon="3.19386">
        <ele>766</ele>
        <time>2022-02-10T10:28:12Z</time>
        <extensions>
          <gpxtpx:TrackPointExtension xmlns:gpxtpx="http://www.garmin.com/xmlschemas/TrackPointExtension/v1">
            <gpxtpx:hr>156</gpxtpx:hr>
          </gpxtpx:TrackPointExtension>
        </extensions>
      </trkpt>
      <trkpt lat="44.16487" lon="3.19385">
        <ele>766</ele>
        <time>2022-02-10T10:28:13Z</time>
        <extensions>
          <gpxtpx:TrackPointExtension xmlns:gpxtpx="http://www.garmin.com/xmlschemas/TrackPointExtension/v1">
            <gpxtpx:hr>157</gpxtpx:hr>
          </gpxtpx:TrackPointExtension>
        </extensions>
      </trkpt>
      <trkpt lat="44.16489" lon="3.19384">
        <ele>766</ele>
        <time>2022-02-10T10:28:14Z</time>
        <extensions>
          <gpxtpx:TrackPointExtension xmlns:gpxtpx="http://www.garmin.com/xmlschemas/TrackPointExtension/v1">
            <gpxtpx:hr>157</gpxtpx:hr>
          </gpxtpx:TrackPointExtension>
        </extensions>
      </trkpt>
      <trkpt lat="44.16491" lon="3.19383">
        <ele>765.8</ele>
        <time>2022-02-10T10:28:15Z</time>
        <extensions>
          <gpxtpx:TrackPointExtension xmlns:gpxtpx="http://www.garmin.com/xmlschemas/TrackPointExtension/v1">
            <gpxtpx:hr>158</gpxtpx:hr>
          </gpxtpx:TrackPointExtension>
        </extensions>
      </trkpt>
      <trkpt lat="44.16493" lon="3.19382">
        <ele>765.8</ele>
        <time>2022-02-10T10:28:16Z</time>
        <extensions>
          <gpxtpx:TrackPointExtension xmlns:gpxtpx="http://www.garmin.com/xmlschemas/TrackPointExtension/v1">
            <gpxtpx:hr>158</gpxtpx:hr>
          </gpxtpx:TrackPointExtension>
        </extensions>
      </trkpt>
      <trkpt lat="44.16495" lon="3.1938">
        <ele>765.8</ele>
        <time>2022-02-10T10:28:17Z</time>
        <extensions>
          <gpxtpx:TrackPointExtension xmlns:gpxtpx="http://www.garmin.com/xmlschemas/TrackPointExtension/v1">
            <gpxtpx:hr>158</gpxtpx:hr>
          </gpxtpx:TrackPointExtension>
        </extensions>
      </trkpt>
      <trkpt lat="44.16497" lon="3.19379">
        <ele>765.6</ele>
        <time>2022-02-10T10:28:18Z</time>
        <extensions>
          <gpxtpx:TrackPointExtension xmlns:gpxtpx="http://www.garmin.com/xmlschemas/TrackPointExtension/v1">
            <gpxtpx:hr>158</gpxtpx:hr>
          </gpxtpx:TrackPointExtension>
        </extensions>
      </trkpt>
      <trkpt lat="44.16499" lon="3.19378">
        <ele>765.6</ele>
        <time>2022-02-10T10:28:19Z</time>
        <extensions>
          <gpxtpx:TrackPointExtension xmlns:gpxtpx="http://www.garmin.com/xmlschemas/TrackPointExtension/v1">
            <gpxtpx:hr>158</gpxtpx:hr>
          </gpxtpx:TrackPointExtension>
        </extensions>
      </trkpt>
      <trkpt lat="44.16501" lon="3.19377">
        <ele>765.6</ele>
        <time>2022-02-10T10:28:20Z</time>
        <extensions>
          <gpxtpx:TrackPointExtension xmlns:gpxtpx="http://www.garmin.com/xmlschemas/TrackPointExtension/v1">
            <gpxtpx:hr>156</gpxtpx:hr>
          </gpxtpx:TrackPointExtension>
        </extensions>
      </trkpt>
      <trkpt lat="44.16503" lon="3.19375">
        <ele>765.4</ele>
        <time>2022-02-10T10:28:21Z</time>
        <extensions>
          <gpxtpx:TrackPointExtension xmlns:gpxtpx="http://www.garmin.com/xmlschemas/TrackPointExtension/v1">
            <gpxtpx:hr>155</gpxtpx:hr>
          </gpxtpx:TrackPointExtension>
        </extensions>
      </trkpt>
      <trkpt lat="44.16505" lon="3.19374">
        <ele>765.4</ele>
        <time>2022-02-10T10:28:22Z</time>
        <extensions>
          <gpxtpx:TrackPointExtension xmlns:gpxtpx="http://www.garmin.com/xmlschemas/TrackPointExtension/v1">
            <gpxtpx:hr>156</gpxtpx:hr>
          </gpxtpx:TrackPointExtension>
        </extensions>
      </trkpt>
      <trkpt lat="44.16507" lon="3.19373">
        <ele>765.4</ele>
        <time>2022-02-10T10:28:23Z</time>
        <extensions>
          <gpxtpx:TrackPointExtension xmlns:gpxtpx="http://www.garmin.com/xmlschemas/TrackPointExtension/v1">
            <gpxtpx:hr>154</gpxtpx:hr>
          </gpxtpx:TrackPointExtension>
        </extensions>
      </trkpt>
      <trkpt lat="44.16509" lon="3.19372">
        <ele>765.4</ele>
        <time>2022-02-10T10:28:24Z</time>
        <extensions>
          <gpxtpx:TrackPointExtension xmlns:gpxtpx="http://www.garmin.com/xmlschemas/TrackPointExtension/v1">
            <gpxtpx:hr>154</gpxtpx:hr>
          </gpxtpx:TrackPointExtension>
        </extensions>
      </trkpt>
      <trkpt lat="44.16512" lon="3.19372">
        <ele>765.4</ele>
        <time>2022-02-10T10:28:25Z</time>
        <extensions>
          <gpxtpx:TrackPointExtension xmlns:gpxtpx="http://www.garmin.com/xmlschemas/TrackPointExtension/v1">
            <gpxtpx:hr>154</gpxtpx:hr>
          </gpxtpx:TrackPointExtension>
        </extensions>
      </trkpt>
      <trkpt lat="44.16514" lon="3.19371">
        <ele>765.2</ele>
        <time>2022-02-10T10:28:26Z</time>
        <extensions>
          <gpxtpx:TrackPointExtension xmlns:gpxtpx="http://www.garmin.com/xmlschemas/TrackPointExtension/v1">
            <gpxtpx:hr>153</gpxtpx:hr>
          </gpxtpx:TrackPointExtension>
        </extensions>
      </trkpt>
      <trkpt lat="44.16516" lon="3.19371">
        <ele>765.2</ele>
        <time>2022-02-10T10:28:27Z</time>
        <extensions>
          <gpxtpx:TrackPointExtension xmlns:gpxtpx="http://www.garmin.com/xmlschemas/TrackPointExtension/v1">
            <gpxtpx:hr>152</gpxtpx:hr>
          </gpxtpx:TrackPointExtension>
        </extensions>
      </trkpt>
      <trkpt lat="44.16518" lon="3.19372">
        <ele>765.2</ele>
        <time>2022-02-10T10:28:28Z</time>
        <extensions>
          <gpxtpx:TrackPointExtension xmlns:gpxtpx="http://www.garmin.com/xmlschemas/TrackPointExtension/v1">
            <gpxtpx:hr>152</gpxtpx:hr>
          </gpxtpx:TrackPointExtension>
        </extensions>
      </trkpt>
      <trkpt lat="44.1652" lon="3.19372">
        <ele>765.2</ele>
        <time>2022-02-10T10:28:29Z</time>
        <extensions>
          <gpxtpx:TrackPointExtension xmlns:gpxtpx="http://www.garmin.com/xmlschemas/TrackPointExtension/v1">
            <gpxtpx:hr>150</gpxtpx:hr>
          </gpxtpx:TrackPointExtension>
        </extensions>
      </trkpt>
      <trkpt lat="44.16522" lon="3.19372">
        <ele>765.2</ele>
        <time>2022-02-10T10:28:30Z</time>
        <extensions>
          <gpxtpx:TrackPointExtension xmlns:gpxtpx="http://www.garmin.com/xmlschemas/TrackPointExtension/v1">
            <gpxtpx:hr>150</gpxtpx:hr>
          </gpxtpx:TrackPointExtension>
        </extensions>
      </trkpt>
      <trkpt lat="44.16524" lon="3.19372">
        <ele>765.2</ele>
        <time>2022-02-10T10:28:31Z</time>
        <extensions>
          <gpxtpx:TrackPointExtension xmlns:gpxtpx="http://www.garmin.com/xmlschemas/TrackPointExtension/v1">
            <gpxtpx:hr>152</gpxtpx:hr>
          </gpxtpx:TrackPointExtension>
        </extensions>
      </trkpt>
      <trkpt lat="44.16526" lon="3.19372">
        <ele>765.2</ele>
        <time>2022-02-10T10:28:32Z</time>
        <extensions>
          <gpxtpx:TrackPointExtension xmlns:gpxtpx="http://www.garmin.com/xmlschemas/TrackPointExtension/v1">
            <gpxtpx:hr>152</gpxtpx:hr>
          </gpxtpx:TrackPointExtension>
        </extensions>
      </trkpt>
      <trkpt lat="44.16529" lon="3.1937">
        <ele>765.2</ele>
        <time>2022-02-10T10:28:34Z</time>
        <extensions>
          <gpxtpx:TrackPointExtension xmlns:gpxtpx="http://www.garmin.com/xmlschemas/TrackPointExtension/v1">
            <gpxtpx:hr>151</gpxtpx:hr>
          </gpxtpx:TrackPointExtension>
        </extensions>
      </trkpt>
      <trkpt lat="44.16532" lon="3.19368">
        <ele>765.4</ele>
        <time>2022-02-10T10:28:36Z</time>
        <extensions>
          <gpxtpx:TrackPointExtension xmlns:gpxtpx="http://www.garmin.com/xmlschemas/TrackPointExtension/v1">
            <gpxtpx:hr>151</gpxtpx:hr>
          </gpxtpx:TrackPointExtension>
        </extensions>
      </trkpt>
      <trkpt lat="44.16535" lon="3.19366">
        <ele>765.4</ele>
        <time>2022-02-10T10:28:38Z</time>
        <extensions>
          <gpxtpx:TrackPointExtension xmlns:gpxtpx="http://www.garmin.com/xmlschemas/TrackPointExtension/v1">
            <gpxtpx:hr>151</gpxtpx:hr>
          </gpxtpx:TrackPointExtension>
        </extensions>
      </trkpt>
      <trkpt lat="44.16537" lon="3.19364">
        <ele>765.6</ele>
        <time>2022-02-10T10:28:40Z</time>
        <extensions>
          <gpxtpx:TrackPointExtension xmlns:gpxtpx="http://www.garmin.com/xmlschemas/TrackPointExtension/v1">
            <gpxtpx:hr>152</gpxtpx:hr>
          </gpxtpx:TrackPointExtension>
        </extensions>
      </trkpt>
      <trkpt lat="44.16539" lon="3.19363">
        <ele>765.6</ele>
        <time>2022-02-10T10:28:41Z</time>
        <extensions>
          <gpxtpx:TrackPointExtension xmlns:gpxtpx="http://www.garmin.com/xmlschemas/TrackPointExtension/v1">
            <gpxtpx:hr>152</gpxtpx:hr>
          </gpxtpx:TrackPointExtension>
        </extensions>
      </trkpt>
      <trkpt lat="44.16541" lon="3.1936">
        <ele>765.6</ele>
        <time>2022-02-10T10:28:43Z</time>
        <extensions>
          <gpxtpx:TrackPointExtension xmlns:gpxtpx="http://www.garmin.com/xmlschemas/TrackPointExtension/v1">
            <gpxtpx:hr>153</gpxtpx:hr>
          </gpxtpx:TrackPointExtension>
        </extensions>
      </trkpt>
      <trkpt lat="44.16542" lon="3.19356">
        <ele>766.2</ele>
        <time>2022-02-10T10:28:45Z</time>
        <extensions>
          <gpxtpx:TrackPointExtension xmlns:gpxtpx="http://www.garmin.com/xmlschemas/TrackPointExtension/v1">
            <gpxtpx:hr>154</gpxtpx:hr>
          </gpxtpx:TrackPointExtension>
        </extensions>
      </trkpt>
      <trkpt lat="44.16541" lon="3.19352">
        <ele>766.2</ele>
        <time>2022-02-10T10:28:47Z</time>
        <extensions>
          <gpxtpx:TrackPointExtension xmlns:gpxtpx="http://www.garmin.com/xmlschemas/TrackPointExtension/v1">
            <gpxtpx:hr>156</gpxtpx:hr>
          </gpxtpx:TrackPointExtension>
        </extensions>
      </trkpt>
      <trkpt lat="44.1654" lon="3.19348">
        <ele>766.4</ele>
        <time>2022-02-10T10:28:49Z</time>
        <extensions>
          <gpxtpx:TrackPointExtension xmlns:gpxtpx="http://www.garmin.com/xmlschemas/TrackPointExtension/v1">
            <gpxtpx:hr>158</gpxtpx:hr>
          </gpxtpx:TrackPointExtension>
        </extensions>
      </trkpt>
      <trkpt lat="44.16538" lon="3.19346">
        <ele>766.6</ele>
        <time>2022-02-10T10:28:51Z</time>
        <extensions>
          <gpxtpx:TrackPointExtension xmlns:gpxtpx="http://www.garmin.com/xmlschemas/TrackPointExtension/v1">
            <gpxtpx:hr>159</gpxtpx:hr>
          </gpxtpx:TrackPointExtension>
        </extensions>
      </trkpt>
      <trkpt lat="44.16536" lon="3.19344">
        <ele>767.4</ele>
        <time>2022-02-10T10:28:53Z</time>
        <extensions>
          <gpxtpx:TrackPointExtension xmlns:gpxtpx="http://www.garmin.com/xmlschemas/TrackPointExtension/v1">
            <gpxtpx:hr>162</gpxtpx:hr>
          </gpxtpx:TrackPointExtension>
        </extensions>
      </trkpt>
      <trkpt lat="44.16534" lon="3.19343">
        <ele>767.8</ele>
        <time>2022-02-10T10:28:55Z</time>
        <extensions>
          <gpxtpx:TrackPointExtension xmlns:gpxtpx="http://www.garmin.com/xmlschemas/TrackPointExtension/v1">
            <gpxtpx:hr>163</gpxtpx:hr>
          </gpxtpx:TrackPointExtension>
        </extensions>
      </trkpt>
      <trkpt lat="44.16532" lon="3.19342">
        <ele>768</ele>
        <time>2022-02-10T10:28:57Z</time>
        <extensions>
          <gpxtpx:TrackPointExtension xmlns:gpxtpx="http://www.garmin.com/xmlschemas/TrackPointExtension/v1">
            <gpxtpx:hr>163</gpxtpx:hr>
          </gpxtpx:TrackPointExtension>
        </extensions>
      </trkpt>
      <trkpt lat="44.1653" lon="3.1934">
        <ele>768.4</ele>
        <time>2022-02-10T10:28:59Z</time>
        <extensions>
          <gpxtpx:TrackPointExtension xmlns:gpxtpx="http://www.garmin.com/xmlschemas/TrackPointExtension/v1">
            <gpxtpx:hr>162</gpxtpx:hr>
          </gpxtpx:TrackPointExtension>
        </extensions>
      </trkpt>
      <trkpt lat="44.16527" lon="3.19336">
        <ele>768.6</ele>
        <time>2022-02-10T10:29:01Z</time>
        <extensions>
          <gpxtpx:TrackPointExtension xmlns:gpxtpx="http://www.garmin.com/xmlschemas/TrackPointExtension/v1">
            <gpxtpx:hr>162</gpxtpx:hr>
          </gpxtpx:TrackPointExtension>
        </extensions>
      </trkpt>
      <trkpt lat="44.16525" lon="3.1933">
        <ele>768.8</ele>
        <time>2022-02-10T10:29:03Z</time>
        <extensions>
          <gpxtpx:TrackPointExtension xmlns:gpxtpx="http://www.garmin.com/xmlschemas/TrackPointExtension/v1">
            <gpxtpx:hr>162</gpxtpx:hr>
          </gpxtpx:TrackPointExtension>
        </extensions>
      </trkpt>
      <trkpt lat="44.16525" lon="3.19328">
        <ele>769</ele>
        <time>2022-02-10T10:29:04Z</time>
        <extensions>
          <gpxtpx:TrackPointExtension xmlns:gpxtpx="http://www.garmin.com/xmlschemas/TrackPointExtension/v1">
            <gpxtpx:hr>162</gpxtpx:hr>
          </gpxtpx:TrackPointExtension>
        </extensions>
      </trkpt>
      <trkpt lat="44.16526" lon="3.19322">
        <ele>769</ele>
        <time>2022-02-10T10:29:06Z</time>
        <extensions>
          <gpxtpx:TrackPointExtension xmlns:gpxtpx="http://www.garmin.com/xmlschemas/TrackPointExtension/v1">
            <gpxtpx:hr>163</gpxtpx:hr>
          </gpxtpx:TrackPointExtension>
        </extensions>
      </trkpt>
      <trkpt lat="44.16528" lon="3.19316">
        <ele>769.4</ele>
        <time>2022-02-10T10:29:08Z</time>
        <extensions>
          <gpxtpx:TrackPointExtension xmlns:gpxtpx="http://www.garmin.com/xmlschemas/TrackPointExtension/v1">
            <gpxtpx:hr>164</gpxtpx:hr>
          </gpxtpx:TrackPointExtension>
        </extensions>
      </trkpt>
      <trkpt lat="44.16529" lon="3.19314">
        <ele>769.4</ele>
        <time>2022-02-10T10:29:09Z</time>
        <extensions>
          <gpxtpx:TrackPointExtension xmlns:gpxtpx="http://www.garmin.com/xmlschemas/TrackPointExtension/v1">
            <gpxtpx:hr>165</gpxtpx:hr>
          </gpxtpx:TrackPointExtension>
        </extensions>
      </trkpt>
      <trkpt lat="44.1653" lon="3.19311">
        <ele>769.4</ele>
        <time>2022-02-10T10:29:10Z</time>
        <extensions>
          <gpxtpx:TrackPointExtension xmlns:gpxtpx="http://www.garmin.com/xmlschemas/TrackPointExtension/v1">
            <gpxtpx:hr>166</gpxtpx:hr>
          </gpxtpx:TrackPointExtension>
        </extensions>
      </trkpt>
      <trkpt lat="44.16533" lon="3.19307">
        <ele>769</ele>
        <time>2022-02-10T10:29:12Z</time>
        <extensions>
          <gpxtpx:TrackPointExtension xmlns:gpxtpx="http://www.garmin.com/xmlschemas/TrackPointExtension/v1">
            <gpxtpx:hr>164</gpxtpx:hr>
          </gpxtpx:TrackPointExtension>
        </extensions>
      </trkpt>
      <trkpt lat="44.16536" lon="3.19303">
        <ele>768.8</ele>
        <time>2022-02-10T10:29:14Z</time>
        <extensions>
          <gpxtpx:TrackPointExtension xmlns:gpxtpx="http://www.garmin.com/xmlschemas/TrackPointExtension/v1">
            <gpxtpx:hr>165</gpxtpx:hr>
          </gpxtpx:TrackPointExtension>
        </extensions>
      </trkpt>
      <trkpt lat="44.16538" lon="3.19301">
        <ele>768.8</ele>
        <time>2022-02-10T10:29:15Z</time>
        <extensions>
          <gpxtpx:TrackPointExtension xmlns:gpxtpx="http://www.garmin.com/xmlschemas/TrackPointExtension/v1">
            <gpxtpx:hr>164</gpxtpx:hr>
          </gpxtpx:TrackPointExtension>
        </extensions>
      </trkpt>
      <trkpt lat="44.1654" lon="3.193">
        <ele>768.8</ele>
        <time>2022-02-10T10:29:16Z</time>
        <extensions>
          <gpxtpx:TrackPointExtension xmlns:gpxtpx="http://www.garmin.com/xmlschemas/TrackPointExtension/v1">
            <gpxtpx:hr>163</gpxtpx:hr>
          </gpxtpx:TrackPointExtension>
        </extensions>
      </trkpt>
      <trkpt lat="44.16542" lon="3.19298">
        <ele>768.8</ele>
        <time>2022-02-10T10:29:17Z</time>
        <extensions>
          <gpxtpx:TrackPointExtension xmlns:gpxtpx="http://www.garmin.com/xmlschemas/TrackPointExtension/v1">
            <gpxtpx:hr>163</gpxtpx:hr>
          </gpxtpx:TrackPointExtension>
        </extensions>
      </trkpt>
      <trkpt lat="44.16544" lon="3.19297">
        <ele>768.8</ele>
        <time>2022-02-10T10:29:18Z</time>
        <extensions>
          <gpxtpx:TrackPointExtension xmlns:gpxtpx="http://www.garmin.com/xmlschemas/TrackPointExtension/v1">
            <gpxtpx:hr>163</gpxtpx:hr>
          </gpxtpx:TrackPointExtension>
        </extensions>
      </trkpt>
      <trkpt lat="44.16549" lon="3.19295">
        <ele>768.8</ele>
        <time>2022-02-10T10:29:20Z</time>
        <extensions>
          <gpxtpx:TrackPointExtension xmlns:gpxtpx="http://www.garmin.com/xmlschemas/TrackPointExtension/v1">
            <gpxtpx:hr>163</gpxtpx:hr>
          </gpxtpx:TrackPointExtension>
        </extensions>
      </trkpt>
      <trkpt lat="44.1655" lon="3.19293">
        <ele>768.8</ele>
        <time>2022-02-10T10:29:21Z</time>
        <extensions>
          <gpxtpx:TrackPointExtension xmlns:gpxtpx="http://www.garmin.com/xmlschemas/TrackPointExtension/v1">
            <gpxtpx:hr>164</gpxtpx:hr>
          </gpxtpx:TrackPointExtension>
        </extensions>
      </trkpt>
      <trkpt lat="44.16554" lon="3.1929">
        <ele>768.8</ele>
        <time>2022-02-10T10:29:23Z</time>
        <extensions>
          <gpxtpx:TrackPointExtension xmlns:gpxtpx="http://www.garmin.com/xmlschemas/TrackPointExtension/v1">
            <gpxtpx:hr>163</gpxtpx:hr>
          </gpxtpx:TrackPointExtension>
        </extensions>
      </trkpt>
      <trkpt lat="44.16556" lon="3.19287">
        <ele>768.8</ele>
        <time>2022-02-10T10:29:24Z</time>
        <extensions>
          <gpxtpx:TrackPointExtension xmlns:gpxtpx="http://www.garmin.com/xmlschemas/TrackPointExtension/v1">
            <gpxtpx:hr>163</gpxtpx:hr>
          </gpxtpx:TrackPointExtension>
        </extensions>
      </trkpt>
      <trkpt lat="44.16557" lon="3.19285">
        <ele>768.8</ele>
        <time>2022-02-10T10:29:25Z</time>
        <extensions>
          <gpxtpx:TrackPointExtension xmlns:gpxtpx="http://www.garmin.com/xmlschemas/TrackPointExtension/v1">
            <gpxtpx:hr>163</gpxtpx:hr>
          </gpxtpx:TrackPointExtension>
        </extensions>
      </trkpt>
      <trkpt lat="44.1656" lon="3.1928">
        <ele>768.8</ele>
        <time>2022-02-10T10:29:27Z</time>
        <extensions>
          <gpxtpx:TrackPointExtension xmlns:gpxtpx="http://www.garmin.com/xmlschemas/TrackPointExtension/v1">
            <gpxtpx:hr>164</gpxtpx:hr>
          </gpxtpx:TrackPointExtension>
        </extensions>
      </trkpt>
      <trkpt lat="44.16561" lon="3.19276">
        <ele>768.8</ele>
        <time>2022-02-10T10:29:28Z</time>
        <extensions>
          <gpxtpx:TrackPointExtension xmlns:gpxtpx="http://www.garmin.com/xmlschemas/TrackPointExtension/v1">
            <gpxtpx:hr>164</gpxtpx:hr>
          </gpxtpx:TrackPointExtension>
        </extensions>
      </trkpt>
      <trkpt lat="44.16562" lon="3.19273">
        <ele>768.8</ele>
        <time>2022-02-10T10:29:29Z</time>
        <extensions>
          <gpxtpx:TrackPointExtension xmlns:gpxtpx="http://www.garmin.com/xmlschemas/TrackPointExtension/v1">
            <gpxtpx:hr>163</gpxtpx:hr>
          </gpxtpx:TrackPointExtension>
        </extensions>
      </trkpt>
      <trkpt lat="44.16564" lon="3.19267">
        <ele>768.8</ele>
        <time>2022-02-10T10:29:31Z</time>
        <extensions>
          <gpxtpx:TrackPointExtension xmlns:gpxtpx="http://www.garmin.com/xmlschemas/TrackPointExtension/v1">
            <gpxtpx:hr>164</gpxtpx:hr>
          </gpxtpx:TrackPointExtension>
        </extensions>
      </trkpt>
      <trkpt lat="44.16565" lon="3.19264">
        <ele>768.8</ele>
        <time>2022-02-10T10:29:32Z</time>
        <extensions>
          <gpxtpx:TrackPointExtension xmlns:gpxtpx="http://www.garmin.com/xmlschemas/TrackPointExtension/v1">
            <gpxtpx:hr>163</gpxtpx:hr>
          </gpxtpx:TrackPointExtension>
        </extensions>
      </trkpt>
      <trkpt lat="44.16566" lon="3.19261">
        <ele>769</ele>
        <time>2022-02-10T10:29:33Z</time>
        <extensions>
          <gpxtpx:TrackPointExtension xmlns:gpxtpx="http://www.garmin.com/xmlschemas/TrackPointExtension/v1">
            <gpxtpx:hr>162</gpxtpx:hr>
          </gpxtpx:TrackPointExtension>
        </extensions>
      </trkpt>
      <trkpt lat="44.16568" lon="3.19256">
        <ele>769</ele>
        <time>2022-02-10T10:29:35Z</time>
        <extensions>
          <gpxtpx:TrackPointExtension xmlns:gpxtpx="http://www.garmin.com/xmlschemas/TrackPointExtension/v1">
            <gpxtpx:hr>162</gpxtpx:hr>
          </gpxtpx:TrackPointExtension>
        </extensions>
      </trkpt>
      <trkpt lat="44.16569" lon="3.19253">
        <ele>769</ele>
        <time>2022-02-10T10:29:36Z</time>
        <extensions>
          <gpxtpx:TrackPointExtension xmlns:gpxtpx="http://www.garmin.com/xmlschemas/TrackPointExtension/v1">
            <gpxtpx:hr>163</gpxtpx:hr>
          </gpxtpx:TrackPointExtension>
        </extensions>
      </trkpt>
      <trkpt lat="44.16571" lon="3.19251">
        <ele>769.2</ele>
        <time>2022-02-10T10:29:37Z</time>
        <extensions>
          <gpxtpx:TrackPointExtension xmlns:gpxtpx="http://www.garmin.com/xmlschemas/TrackPointExtension/v1">
            <gpxtpx:hr>164</gpxtpx:hr>
          </gpxtpx:TrackPointExtension>
        </extensions>
      </trkpt>
      <trkpt lat="44.16573" lon="3.19246">
        <ele>769.4</ele>
        <time>2022-02-10T10:29:39Z</time>
        <extensions>
          <gpxtpx:TrackPointExtension xmlns:gpxtpx="http://www.garmin.com/xmlschemas/TrackPointExtension/v1">
            <gpxtpx:hr>164</gpxtpx:hr>
          </gpxtpx:TrackPointExtension>
        </extensions>
      </trkpt>
      <trkpt lat="44.16576" lon="3.19242">
        <ele>769.8</ele>
        <time>2022-02-10T10:29:41Z</time>
        <extensions>
          <gpxtpx:TrackPointExtension xmlns:gpxtpx="http://www.garmin.com/xmlschemas/TrackPointExtension/v1">
            <gpxtpx:hr>164</gpxtpx:hr>
          </gpxtpx:TrackPointExtension>
        </extensions>
      </trkpt>
      <trkpt lat="44.1658" lon="3.19238">
        <ele>770</ele>
        <time>2022-02-10T10:29:43Z</time>
        <extensions>
          <gpxtpx:TrackPointExtension xmlns:gpxtpx="http://www.garmin.com/xmlschemas/TrackPointExtension/v1">
            <gpxtpx:hr>164</gpxtpx:hr>
          </gpxtpx:TrackPointExtension>
        </extensions>
      </trkpt>
      <trkpt lat="44.16584" lon="3.19232">
        <ele>770.4</ele>
        <time>2022-02-10T10:29:46Z</time>
        <extensions>
          <gpxtpx:TrackPointExtension xmlns:gpxtpx="http://www.garmin.com/xmlschemas/TrackPointExtension/v1">
            <gpxtpx:hr>164</gpxtpx:hr>
          </gpxtpx:TrackPointExtension>
        </extensions>
      </trkpt>
      <trkpt lat="44.16587" lon="3.19226">
        <ele>770.4</ele>
        <time>2022-02-10T10:29:48Z</time>
        <extensions>
          <gpxtpx:TrackPointExtension xmlns:gpxtpx="http://www.garmin.com/xmlschemas/TrackPointExtension/v1">
            <gpxtpx:hr>164</gpxtpx:hr>
          </gpxtpx:TrackPointExtension>
        </extensions>
      </trkpt>
      <trkpt lat="44.16587" lon="3.19225">
        <ele>770.6</ele>
        <time>2022-02-10T10:29:49Z</time>
        <extensions>
          <gpxtpx:TrackPointExtension xmlns:gpxtpx="http://www.garmin.com/xmlschemas/TrackPointExtension/v1">
            <gpxtpx:hr>165</gpxtpx:hr>
          </gpxtpx:TrackPointExtension>
        </extensions>
      </trkpt>
      <trkpt lat="44.16589" lon="3.1922">
        <ele>770.8</ele>
        <time>2022-02-10T10:29:51Z</time>
        <extensions>
          <gpxtpx:TrackPointExtension xmlns:gpxtpx="http://www.garmin.com/xmlschemas/TrackPointExtension/v1">
            <gpxtpx:hr>165</gpxtpx:hr>
          </gpxtpx:TrackPointExtension>
        </extensions>
      </trkpt>
      <trkpt lat="44.1659" lon="3.19218">
        <ele>770.8</ele>
        <time>2022-02-10T10:29:52Z</time>
        <extensions>
          <gpxtpx:TrackPointExtension xmlns:gpxtpx="http://www.garmin.com/xmlschemas/TrackPointExtension/v1">
            <gpxtpx:hr>165</gpxtpx:hr>
          </gpxtpx:TrackPointExtension>
        </extensions>
      </trkpt>
      <trkpt lat="44.16591" lon="3.19215">
        <ele>770.8</ele>
        <time>2022-02-10T10:29:53Z</time>
        <extensions>
          <gpxtpx:TrackPointExtension xmlns:gpxtpx="http://www.garmin.com/xmlschemas/TrackPointExtension/v1">
            <gpxtpx:hr>165</gpxtpx:hr>
          </gpxtpx:TrackPointExtension>
        </extensions>
      </trkpt>
      <trkpt lat="44.16592" lon="3.1921">
        <ele>771</ele>
        <time>2022-02-10T10:29:55Z</time>
        <extensions>
          <gpxtpx:TrackPointExtension xmlns:gpxtpx="http://www.garmin.com/xmlschemas/TrackPointExtension/v1">
            <gpxtpx:hr>165</gpxtpx:hr>
          </gpxtpx:TrackPointExtension>
        </extensions>
      </trkpt>
      <trkpt lat="44.16593" lon="3.19208">
        <ele>771</ele>
        <time>2022-02-10T10:29:56Z</time>
        <extensions>
          <gpxtpx:TrackPointExtension xmlns:gpxtpx="http://www.garmin.com/xmlschemas/TrackPointExtension/v1">
            <gpxtpx:hr>165</gpxtpx:hr>
          </gpxtpx:TrackPointExtension>
        </extensions>
      </trkpt>
      <trkpt lat="44.16594" lon="3.19205">
        <ele>771.4</ele>
        <time>2022-02-10T10:29:57Z</time>
        <extensions>
          <gpxtpx:TrackPointExtension xmlns:gpxtpx="http://www.garmin.com/xmlschemas/TrackPointExtension/v1">
            <gpxtpx:hr>165</gpxtpx:hr>
          </gpxtpx:TrackPointExtension>
        </extensions>
      </trkpt>
      <trkpt lat="44.16594" lon="3.19198">
        <ele>771.4</ele>
        <time>2022-02-10T10:30:00Z</time>
        <extensions>
          <gpxtpx:TrackPointExtension xmlns:gpxtpx="http://www.garmin.com/xmlschemas/TrackPointExtension/v1">
            <gpxtpx:hr>165</gpxtpx:hr>
          </gpxtpx:TrackPointExtension>
        </extensions>
      </trkpt>
      <trkpt lat="44.16593" lon="3.19195">
        <ele>771.6</ele>
        <time>2022-02-10T10:30:02Z</time>
        <extensions>
          <gpxtpx:TrackPointExtension xmlns:gpxtpx="http://www.garmin.com/xmlschemas/TrackPointExtension/v1">
            <gpxtpx:hr>166</gpxtpx:hr>
          </gpxtpx:TrackPointExtension>
        </extensions>
      </trkpt>
      <trkpt lat="44.16593" lon="3.19193">
        <ele>771.6</ele>
        <time>2022-02-10T10:30:03Z</time>
        <extensions>
          <gpxtpx:TrackPointExtension xmlns:gpxtpx="http://www.garmin.com/xmlschemas/TrackPointExtension/v1">
            <gpxtpx:hr>167</gpxtpx:hr>
          </gpxtpx:TrackPointExtension>
        </extensions>
      </trkpt>
      <trkpt lat="44.16592" lon="3.19191">
        <ele>771.8</ele>
        <time>2022-02-10T10:30:04Z</time>
        <extensions>
          <gpxtpx:TrackPointExtension xmlns:gpxtpx="http://www.garmin.com/xmlschemas/TrackPointExtension/v1">
            <gpxtpx:hr>167</gpxtpx:hr>
          </gpxtpx:TrackPointExtension>
        </extensions>
      </trkpt>
      <trkpt lat="44.16591" lon="3.19189">
        <ele>772.2</ele>
        <time>2022-02-10T10:30:05Z</time>
        <extensions>
          <gpxtpx:TrackPointExtension xmlns:gpxtpx="http://www.garmin.com/xmlschemas/TrackPointExtension/v1">
            <gpxtpx:hr>167</gpxtpx:hr>
          </gpxtpx:TrackPointExtension>
        </extensions>
      </trkpt>
      <trkpt lat="44.16591" lon="3.19187">
        <ele>772.2</ele>
        <time>2022-02-10T10:30:06Z</time>
        <extensions>
          <gpxtpx:TrackPointExtension xmlns:gpxtpx="http://www.garmin.com/xmlschemas/TrackPointExtension/v1">
            <gpxtpx:hr>166</gpxtpx:hr>
          </gpxtpx:TrackPointExtension>
        </extensions>
      </trkpt>
      <trkpt lat="44.1659" lon="3.19184">
        <ele>772.2</ele>
        <time>2022-02-10T10:30:07Z</time>
        <extensions>
          <gpxtpx:TrackPointExtension xmlns:gpxtpx="http://www.garmin.com/xmlschemas/TrackPointExtension/v1">
            <gpxtpx:hr>166</gpxtpx:hr>
          </gpxtpx:TrackPointExtension>
        </extensions>
      </trkpt>
      <trkpt lat="44.1659" lon="3.19182">
        <ele>772.6</ele>
        <time>2022-02-10T10:30:08Z</time>
        <extensions>
          <gpxtpx:TrackPointExtension xmlns:gpxtpx="http://www.garmin.com/xmlschemas/TrackPointExtension/v1">
            <gpxtpx:hr>166</gpxtpx:hr>
          </gpxtpx:TrackPointExtension>
        </extensions>
      </trkpt>
      <trkpt lat="44.16589" lon="3.1918">
        <ele>773</ele>
        <time>2022-02-10T10:30:09Z</time>
        <extensions>
          <gpxtpx:TrackPointExtension xmlns:gpxtpx="http://www.garmin.com/xmlschemas/TrackPointExtension/v1">
            <gpxtpx:hr>166</gpxtpx:hr>
          </gpxtpx:TrackPointExtension>
        </extensions>
      </trkpt>
      <trkpt lat="44.16588" lon="3.19179">
        <ele>773</ele>
        <time>2022-02-10T10:30:10Z</time>
        <extensions>
          <gpxtpx:TrackPointExtension xmlns:gpxtpx="http://www.garmin.com/xmlschemas/TrackPointExtension/v1">
            <gpxtpx:hr>166</gpxtpx:hr>
          </gpxtpx:TrackPointExtension>
        </extensions>
      </trkpt>
      <trkpt lat="44.16588" lon="3.19177">
        <ele>773</ele>
        <time>2022-02-10T10:30:11Z</time>
        <extensions>
          <gpxtpx:TrackPointExtension xmlns:gpxtpx="http://www.garmin.com/xmlschemas/TrackPointExtension/v1">
            <gpxtpx:hr>166</gpxtpx:hr>
          </gpxtpx:TrackPointExtension>
        </extensions>
      </trkpt>
      <trkpt lat="44.16587" lon="3.19175">
        <ele>773.2</ele>
        <time>2022-02-10T10:30:12Z</time>
        <extensions>
          <gpxtpx:TrackPointExtension xmlns:gpxtpx="http://www.garmin.com/xmlschemas/TrackPointExtension/v1">
            <gpxtpx:hr>167</gpxtpx:hr>
          </gpxtpx:TrackPointExtension>
        </extensions>
      </trkpt>
      <trkpt lat="44.16587" lon="3.19173">
        <ele>773.6</ele>
        <time>2022-02-10T10:30:13Z</time>
        <extensions>
          <gpxtpx:TrackPointExtension xmlns:gpxtpx="http://www.garmin.com/xmlschemas/TrackPointExtension/v1">
            <gpxtpx:hr>168</gpxtpx:hr>
          </gpxtpx:TrackPointExtension>
        </extensions>
      </trkpt>
      <trkpt lat="44.16586" lon="3.19171">
        <ele>773.8</ele>
        <time>2022-02-10T10:30:14Z</time>
        <extensions>
          <gpxtpx:TrackPointExtension xmlns:gpxtpx="http://www.garmin.com/xmlschemas/TrackPointExtension/v1">
            <gpxtpx:hr>167</gpxtpx:hr>
          </gpxtpx:TrackPointExtension>
        </extensions>
      </trkpt>
      <trkpt lat="44.16586" lon="3.19169">
        <ele>773.8</ele>
        <time>2022-02-10T10:30:15Z</time>
        <extensions>
          <gpxtpx:TrackPointExtension xmlns:gpxtpx="http://www.garmin.com/xmlschemas/TrackPointExtension/v1">
            <gpxtpx:hr>167</gpxtpx:hr>
          </gpxtpx:TrackPointExtension>
        </extensions>
      </trkpt>
      <trkpt lat="44.16585" lon="3.19167">
        <ele>774.2</ele>
        <time>2022-02-10T10:30:16Z</time>
        <extensions>
          <gpxtpx:TrackPointExtension xmlns:gpxtpx="http://www.garmin.com/xmlschemas/TrackPointExtension/v1">
            <gpxtpx:hr>167</gpxtpx:hr>
          </gpxtpx:TrackPointExtension>
        </extensions>
      </trkpt>
      <trkpt lat="44.16584" lon="3.19165">
        <ele>774.2</ele>
        <time>2022-02-10T10:30:17Z</time>
        <extensions>
          <gpxtpx:TrackPointExtension xmlns:gpxtpx="http://www.garmin.com/xmlschemas/TrackPointExtension/v1">
            <gpxtpx:hr>167</gpxtpx:hr>
          </gpxtpx:TrackPointExtension>
        </extensions>
      </trkpt>
      <trkpt lat="44.16584" lon="3.19162">
        <ele>774.2</ele>
        <time>2022-02-10T10:30:18Z</time>
        <extensions>
          <gpxtpx:TrackPointExtension xmlns:gpxtpx="http://www.garmin.com/xmlschemas/TrackPointExtension/v1">
            <gpxtpx:hr>167</gpxtpx:hr>
          </gpxtpx:TrackPointExtension>
        </extensions>
      </trkpt>
      <trkpt lat="44.16583" lon="3.1916">
        <ele>774.2</ele>
        <time>2022-02-10T10:30:19Z</time>
        <extensions>
          <gpxtpx:TrackPointExtension xmlns:gpxtpx="http://www.garmin.com/xmlschemas/TrackPointExtension/v1">
            <gpxtpx:hr>167</gpxtpx:hr>
          </gpxtpx:TrackPointExtension>
        </extensions>
      </trkpt>
      <trkpt lat="44.16583" lon="3.19158">
        <ele>774.4</ele>
        <time>2022-02-10T10:30:20Z</time>
        <extensions>
          <gpxtpx:TrackPointExtension xmlns:gpxtpx="http://www.garmin.com/xmlschemas/TrackPointExtension/v1">
            <gpxtpx:hr>167</gpxtpx:hr>
          </gpxtpx:TrackPointExtension>
        </extensions>
      </trkpt>
      <trkpt lat="44.16583" lon="3.19156">
        <ele>774.6</ele>
        <time>2022-02-10T10:30:21Z</time>
        <extensions>
          <gpxtpx:TrackPointExtension xmlns:gpxtpx="http://www.garmin.com/xmlschemas/TrackPointExtension/v1">
            <gpxtpx:hr>167</gpxtpx:hr>
          </gpxtpx:TrackPointExtension>
        </extensions>
      </trkpt>
      <trkpt lat="44.16582" lon="3.19154">
        <ele>774.6</ele>
        <time>2022-02-10T10:30:22Z</time>
        <extensions>
          <gpxtpx:TrackPointExtension xmlns:gpxtpx="http://www.garmin.com/xmlschemas/TrackPointExtension/v1">
            <gpxtpx:hr>167</gpxtpx:hr>
          </gpxtpx:TrackPointExtension>
        </extensions>
      </trkpt>
      <trkpt lat="44.16582" lon="3.19152">
        <ele>774.8</ele>
        <time>2022-02-10T10:30:23Z</time>
        <extensions>
          <gpxtpx:TrackPointExtension xmlns:gpxtpx="http://www.garmin.com/xmlschemas/TrackPointExtension/v1">
            <gpxtpx:hr>167</gpxtpx:hr>
          </gpxtpx:TrackPointExtension>
        </extensions>
      </trkpt>
      <trkpt lat="44.16582" lon="3.1915">
        <ele>774.8</ele>
        <time>2022-02-10T10:30:24Z</time>
        <extensions>
          <gpxtpx:TrackPointExtension xmlns:gpxtpx="http://www.garmin.com/xmlschemas/TrackPointExtension/v1">
            <gpxtpx:hr>167</gpxtpx:hr>
          </gpxtpx:TrackPointExtension>
        </extensions>
      </trkpt>
      <trkpt lat="44.16581" lon="3.19147">
        <ele>775.2</ele>
        <time>2022-02-10T10:30:25Z</time>
        <extensions>
          <gpxtpx:TrackPointExtension xmlns:gpxtpx="http://www.garmin.com/xmlschemas/TrackPointExtension/v1">
            <gpxtpx:hr>167</gpxtpx:hr>
          </gpxtpx:TrackPointExtension>
        </extensions>
      </trkpt>
      <trkpt lat="44.16582" lon="3.19145">
        <ele>775.2</ele>
        <time>2022-02-10T10:30:26Z</time>
        <extensions>
          <gpxtpx:TrackPointExtension xmlns:gpxtpx="http://www.garmin.com/xmlschemas/TrackPointExtension/v1">
            <gpxtpx:hr>167</gpxtpx:hr>
          </gpxtpx:TrackPointExtension>
        </extensions>
      </trkpt>
      <trkpt lat="44.16582" lon="3.19143">
        <ele>775.6</ele>
        <time>2022-02-10T10:30:27Z</time>
        <extensions>
          <gpxtpx:TrackPointExtension xmlns:gpxtpx="http://www.garmin.com/xmlschemas/TrackPointExtension/v1">
            <gpxtpx:hr>168</gpxtpx:hr>
          </gpxtpx:TrackPointExtension>
        </extensions>
      </trkpt>
      <trkpt lat="44.16582" lon="3.19141">
        <ele>775.6</ele>
        <time>2022-02-10T10:30:28Z</time>
        <extensions>
          <gpxtpx:TrackPointExtension xmlns:gpxtpx="http://www.garmin.com/xmlschemas/TrackPointExtension/v1">
            <gpxtpx:hr>168</gpxtpx:hr>
          </gpxtpx:TrackPointExtension>
        </extensions>
      </trkpt>
      <trkpt lat="44.16583" lon="3.19138">
        <ele>775.8</ele>
        <time>2022-02-10T10:30:29Z</time>
        <extensions>
          <gpxtpx:TrackPointExtension xmlns:gpxtpx="http://www.garmin.com/xmlschemas/TrackPointExtension/v1">
            <gpxtpx:hr>169</gpxtpx:hr>
          </gpxtpx:TrackPointExtension>
        </extensions>
      </trkpt>
      <trkpt lat="44.16583" lon="3.19136">
        <ele>776.2</ele>
        <time>2022-02-10T10:30:30Z</time>
        <extensions>
          <gpxtpx:TrackPointExtension xmlns:gpxtpx="http://www.garmin.com/xmlschemas/TrackPointExtension/v1">
            <gpxtpx:hr>169</gpxtpx:hr>
          </gpxtpx:TrackPointExtension>
        </extensions>
      </trkpt>
      <trkpt lat="44.16583" lon="3.19134">
        <ele>776.4</ele>
        <time>2022-02-10T10:30:31Z</time>
        <extensions>
          <gpxtpx:TrackPointExtension xmlns:gpxtpx="http://www.garmin.com/xmlschemas/TrackPointExtension/v1">
            <gpxtpx:hr>169</gpxtpx:hr>
          </gpxtpx:TrackPointExtension>
        </extensions>
      </trkpt>
      <trkpt lat="44.16584" lon="3.19131">
        <ele>776.4</ele>
        <time>2022-02-10T10:30:32Z</time>
        <extensions>
          <gpxtpx:TrackPointExtension xmlns:gpxtpx="http://www.garmin.com/xmlschemas/TrackPointExtension/v1">
            <gpxtpx:hr>169</gpxtpx:hr>
          </gpxtpx:TrackPointExtension>
        </extensions>
      </trkpt>
      <trkpt lat="44.16585" lon="3.19129">
        <ele>776.6</ele>
        <time>2022-02-10T10:30:33Z</time>
        <extensions>
          <gpxtpx:TrackPointExtension xmlns:gpxtpx="http://www.garmin.com/xmlschemas/TrackPointExtension/v1">
            <gpxtpx:hr>169</gpxtpx:hr>
          </gpxtpx:TrackPointExtension>
        </extensions>
      </trkpt>
      <trkpt lat="44.16585" lon="3.19126">
        <ele>776.6</ele>
        <time>2022-02-10T10:30:34Z</time>
        <extensions>
          <gpxtpx:TrackPointExtension xmlns:gpxtpx="http://www.garmin.com/xmlschemas/TrackPointExtension/v1">
            <gpxtpx:hr>169</gpxtpx:hr>
          </gpxtpx:TrackPointExtension>
        </extensions>
      </trkpt>
      <trkpt lat="44.16586" lon="3.19123">
        <ele>776.6</ele>
        <time>2022-02-10T10:30:35Z</time>
        <extensions>
          <gpxtpx:TrackPointExtension xmlns:gpxtpx="http://www.garmin.com/xmlschemas/TrackPointExtension/v1">
            <gpxtpx:hr>170</gpxtpx:hr>
          </gpxtpx:TrackPointExtension>
        </extensions>
      </trkpt>
      <trkpt lat="44.16586" lon="3.19121">
        <ele>777</ele>
        <time>2022-02-10T10:30:36Z</time>
        <extensions>
          <gpxtpx:TrackPointExtension xmlns:gpxtpx="http://www.garmin.com/xmlschemas/TrackPointExtension/v1">
            <gpxtpx:hr>171</gpxtpx:hr>
          </gpxtpx:TrackPointExtension>
        </extensions>
      </trkpt>
      <trkpt lat="44.16587" lon="3.19118">
        <ele>777.4</ele>
        <time>2022-02-10T10:30:37Z</time>
        <extensions>
          <gpxtpx:TrackPointExtension xmlns:gpxtpx="http://www.garmin.com/xmlschemas/TrackPointExtension/v1">
            <gpxtpx:hr>172</gpxtpx:hr>
          </gpxtpx:TrackPointExtension>
        </extensions>
      </trkpt>
      <trkpt lat="44.16587" lon="3.19116">
        <ele>777.4</ele>
        <time>2022-02-10T10:30:38Z</time>
        <extensions>
          <gpxtpx:TrackPointExtension xmlns:gpxtpx="http://www.garmin.com/xmlschemas/TrackPointExtension/v1">
            <gpxtpx:hr>172</gpxtpx:hr>
          </gpxtpx:TrackPointExtension>
        </extensions>
      </trkpt>
      <trkpt lat="44.16587" lon="3.19113">
        <ele>777.4</ele>
        <time>2022-02-10T10:30:39Z</time>
        <extensions>
          <gpxtpx:TrackPointExtension xmlns:gpxtpx="http://www.garmin.com/xmlschemas/TrackPointExtension/v1">
            <gpxtpx:hr>172</gpxtpx:hr>
          </gpxtpx:TrackPointExtension>
        </extensions>
      </trkpt>
      <trkpt lat="44.16588" lon="3.19111">
        <ele>777.8</ele>
        <time>2022-02-10T10:30:40Z</time>
        <extensions>
          <gpxtpx:TrackPointExtension xmlns:gpxtpx="http://www.garmin.com/xmlschemas/TrackPointExtension/v1">
            <gpxtpx:hr>172</gpxtpx:hr>
          </gpxtpx:TrackPointExtension>
        </extensions>
      </trkpt>
      <trkpt lat="44.16588" lon="3.19108">
        <ele>778</ele>
        <time>2022-02-10T10:30:41Z</time>
        <extensions>
          <gpxtpx:TrackPointExtension xmlns:gpxtpx="http://www.garmin.com/xmlschemas/TrackPointExtension/v1">
            <gpxtpx:hr>171</gpxtpx:hr>
          </gpxtpx:TrackPointExtension>
        </extensions>
      </trkpt>
      <trkpt lat="44.16588" lon="3.19106">
        <ele>778</ele>
        <time>2022-02-10T10:30:42Z</time>
        <extensions>
          <gpxtpx:TrackPointExtension xmlns:gpxtpx="http://www.garmin.com/xmlschemas/TrackPointExtension/v1">
            <gpxtpx:hr>170</gpxtpx:hr>
          </gpxtpx:TrackPointExtension>
        </extensions>
      </trkpt>
      <trkpt lat="44.16588" lon="3.19103">
        <ele>778</ele>
        <time>2022-02-10T10:30:43Z</time>
        <extensions>
          <gpxtpx:TrackPointExtension xmlns:gpxtpx="http://www.garmin.com/xmlschemas/TrackPointExtension/v1">
            <gpxtpx:hr>171</gpxtpx:hr>
          </gpxtpx:TrackPointExtension>
        </extensions>
      </trkpt>
      <trkpt lat="44.16588" lon="3.19101">
        <ele>778.6</ele>
        <time>2022-02-10T10:30:44Z</time>
        <extensions>
          <gpxtpx:TrackPointExtension xmlns:gpxtpx="http://www.garmin.com/xmlschemas/TrackPointExtension/v1">
            <gpxtpx:hr>172</gpxtpx:hr>
          </gpxtpx:TrackPointExtension>
        </extensions>
      </trkpt>
      <trkpt lat="44.16588" lon="3.19099">
        <ele>778.8</ele>
        <time>2022-02-10T10:30:45Z</time>
        <extensions>
          <gpxtpx:TrackPointExtension xmlns:gpxtpx="http://www.garmin.com/xmlschemas/TrackPointExtension/v1">
            <gpxtpx:hr>172</gpxtpx:hr>
          </gpxtpx:TrackPointExtension>
        </extensions>
      </trkpt>
      <trkpt lat="44.16588" lon="3.19096">
        <ele>779</ele>
        <time>2022-02-10T10:30:46Z</time>
        <extensions>
          <gpxtpx:TrackPointExtension xmlns:gpxtpx="http://www.garmin.com/xmlschemas/TrackPointExtension/v1">
            <gpxtpx:hr>171</gpxtpx:hr>
          </gpxtpx:TrackPointExtension>
        </extensions>
      </trkpt>
      <trkpt lat="44.16588" lon="3.19094">
        <ele>779.4</ele>
        <time>2022-02-10T10:30:47Z</time>
        <extensions>
          <gpxtpx:TrackPointExtension xmlns:gpxtpx="http://www.garmin.com/xmlschemas/TrackPointExtension/v1">
            <gpxtpx:hr>171</gpxtpx:hr>
          </gpxtpx:TrackPointExtension>
        </extensions>
      </trkpt>
      <trkpt lat="44.16588" lon="3.19092">
        <ele>779.6</ele>
        <time>2022-02-10T10:30:48Z</time>
        <extensions>
          <gpxtpx:TrackPointExtension xmlns:gpxtpx="http://www.garmin.com/xmlschemas/TrackPointExtension/v1">
            <gpxtpx:hr>171</gpxtpx:hr>
          </gpxtpx:TrackPointExtension>
        </extensions>
      </trkpt>
      <trkpt lat="44.16588" lon="3.1909">
        <ele>779.6</ele>
        <time>2022-02-10T10:30:49Z</time>
        <extensions>
          <gpxtpx:TrackPointExtension xmlns:gpxtpx="http://www.garmin.com/xmlschemas/TrackPointExtension/v1">
            <gpxtpx:hr>172</gpxtpx:hr>
          </gpxtpx:TrackPointExtension>
        </extensions>
      </trkpt>
      <trkpt lat="44.16588" lon="3.19087">
        <ele>780</ele>
        <time>2022-02-10T10:30:50Z</time>
        <extensions>
          <gpxtpx:TrackPointExtension xmlns:gpxtpx="http://www.garmin.com/xmlschemas/TrackPointExtension/v1">
            <gpxtpx:hr>173</gpxtpx:hr>
          </gpxtpx:TrackPointExtension>
        </extensions>
      </trkpt>
      <trkpt lat="44.16588" lon="3.19085">
        <ele>780.2</ele>
        <time>2022-02-10T10:30:51Z</time>
        <extensions>
          <gpxtpx:TrackPointExtension xmlns:gpxtpx="http://www.garmin.com/xmlschemas/TrackPointExtension/v1">
            <gpxtpx:hr>174</gpxtpx:hr>
          </gpxtpx:TrackPointExtension>
        </extensions>
      </trkpt>
      <trkpt lat="44.16588" lon="3.19083">
        <ele>780.6</ele>
        <time>2022-02-10T10:30:52Z</time>
        <extensions>
          <gpxtpx:TrackPointExtension xmlns:gpxtpx="http://www.garmin.com/xmlschemas/TrackPointExtension/v1">
            <gpxtpx:hr>174</gpxtpx:hr>
          </gpxtpx:TrackPointExtension>
        </extensions>
      </trkpt>
      <trkpt lat="44.16588" lon="3.19081">
        <ele>780.6</ele>
        <time>2022-02-10T10:30:53Z</time>
        <extensions>
          <gpxtpx:TrackPointExtension xmlns:gpxtpx="http://www.garmin.com/xmlschemas/TrackPointExtension/v1">
            <gpxtpx:hr>175</gpxtpx:hr>
          </gpxtpx:TrackPointExtension>
        </extensions>
      </trkpt>
      <trkpt lat="44.16589" lon="3.19079">
        <ele>780.8</ele>
        <time>2022-02-10T10:30:54Z</time>
        <extensions>
          <gpxtpx:TrackPointExtension xmlns:gpxtpx="http://www.garmin.com/xmlschemas/TrackPointExtension/v1">
            <gpxtpx:hr>174</gpxtpx:hr>
          </gpxtpx:TrackPointExtension>
        </extensions>
      </trkpt>
      <trkpt lat="44.16589" lon="3.19076">
        <ele>781.2</ele>
        <time>2022-02-10T10:30:55Z</time>
        <extensions>
          <gpxtpx:TrackPointExtension xmlns:gpxtpx="http://www.garmin.com/xmlschemas/TrackPointExtension/v1">
            <gpxtpx:hr>174</gpxtpx:hr>
          </gpxtpx:TrackPointExtension>
        </extensions>
      </trkpt>
      <trkpt lat="44.1659" lon="3.19073">
        <ele>781.6</ele>
        <time>2022-02-10T10:30:56Z</time>
        <extensions>
          <gpxtpx:TrackPointExtension xmlns:gpxtpx="http://www.garmin.com/xmlschemas/TrackPointExtension/v1">
            <gpxtpx:hr>174</gpxtpx:hr>
          </gpxtpx:TrackPointExtension>
        </extensions>
      </trkpt>
      <trkpt lat="44.1659" lon="3.19071">
        <ele>781.8</ele>
        <time>2022-02-10T10:30:57Z</time>
        <extensions>
          <gpxtpx:TrackPointExtension xmlns:gpxtpx="http://www.garmin.com/xmlschemas/TrackPointExtension/v1">
            <gpxtpx:hr>174</gpxtpx:hr>
          </gpxtpx:TrackPointExtension>
        </extensions>
      </trkpt>
      <trkpt lat="44.16591" lon="3.19068">
        <ele>782</ele>
        <time>2022-02-10T10:30:58Z</time>
        <extensions>
          <gpxtpx:TrackPointExtension xmlns:gpxtpx="http://www.garmin.com/xmlschemas/TrackPointExtension/v1">
            <gpxtpx:hr>174</gpxtpx:hr>
          </gpxtpx:TrackPointExtension>
        </extensions>
      </trkpt>
      <trkpt lat="44.16591" lon="3.19065">
        <ele>782.2</ele>
        <time>2022-02-10T10:30:59Z</time>
        <extensions>
          <gpxtpx:TrackPointExtension xmlns:gpxtpx="http://www.garmin.com/xmlschemas/TrackPointExtension/v1">
            <gpxtpx:hr>174</gpxtpx:hr>
          </gpxtpx:TrackPointExtension>
        </extensions>
      </trkpt>
      <trkpt lat="44.16593" lon="3.19064">
        <ele>782.6</ele>
        <time>2022-02-10T10:31:00Z</time>
        <extensions>
          <gpxtpx:TrackPointExtension xmlns:gpxtpx="http://www.garmin.com/xmlschemas/TrackPointExtension/v1">
            <gpxtpx:hr>175</gpxtpx:hr>
          </gpxtpx:TrackPointExtension>
        </extensions>
      </trkpt>
      <trkpt lat="44.16594" lon="3.19062">
        <ele>782.8</ele>
        <time>2022-02-10T10:31:01Z</time>
        <extensions>
          <gpxtpx:TrackPointExtension xmlns:gpxtpx="http://www.garmin.com/xmlschemas/TrackPointExtension/v1">
            <gpxtpx:hr>174</gpxtpx:hr>
          </gpxtpx:TrackPointExtension>
        </extensions>
      </trkpt>
      <trkpt lat="44.16595" lon="3.19061">
        <ele>782.8</ele>
        <time>2022-02-10T10:31:02Z</time>
        <extensions>
          <gpxtpx:TrackPointExtension xmlns:gpxtpx="http://www.garmin.com/xmlschemas/TrackPointExtension/v1">
            <gpxtpx:hr>174</gpxtpx:hr>
          </gpxtpx:TrackPointExtension>
        </extensions>
      </trkpt>
      <trkpt lat="44.16596" lon="3.1906">
        <ele>783.2</ele>
        <time>2022-02-10T10:31:03Z</time>
        <extensions>
          <gpxtpx:TrackPointExtension xmlns:gpxtpx="http://www.garmin.com/xmlschemas/TrackPointExtension/v1">
            <gpxtpx:hr>175</gpxtpx:hr>
          </gpxtpx:TrackPointExtension>
        </extensions>
      </trkpt>
      <trkpt lat="44.16598" lon="3.19059">
        <ele>783.2</ele>
        <time>2022-02-10T10:31:04Z</time>
        <extensions>
          <gpxtpx:TrackPointExtension xmlns:gpxtpx="http://www.garmin.com/xmlschemas/TrackPointExtension/v1">
            <gpxtpx:hr>175</gpxtpx:hr>
          </gpxtpx:TrackPointExtension>
        </extensions>
      </trkpt>
      <trkpt lat="44.16599" lon="3.19057">
        <ele>783.6</ele>
        <time>2022-02-10T10:31:05Z</time>
        <extensions>
          <gpxtpx:TrackPointExtension xmlns:gpxtpx="http://www.garmin.com/xmlschemas/TrackPointExtension/v1">
            <gpxtpx:hr>175</gpxtpx:hr>
          </gpxtpx:TrackPointExtension>
        </extensions>
      </trkpt>
      <trkpt lat="44.166" lon="3.19056">
        <ele>783.6</ele>
        <time>2022-02-10T10:31:06Z</time>
        <extensions>
          <gpxtpx:TrackPointExtension xmlns:gpxtpx="http://www.garmin.com/xmlschemas/TrackPointExtension/v1">
            <gpxtpx:hr>176</gpxtpx:hr>
          </gpxtpx:TrackPointExtension>
        </extensions>
      </trkpt>
      <trkpt lat="44.16602" lon="3.19055">
        <ele>783.6</ele>
        <time>2022-02-10T10:31:07Z</time>
        <extensions>
          <gpxtpx:TrackPointExtension xmlns:gpxtpx="http://www.garmin.com/xmlschemas/TrackPointExtension/v1">
            <gpxtpx:hr>176</gpxtpx:hr>
          </gpxtpx:TrackPointExtension>
        </extensions>
      </trkpt>
      <trkpt lat="44.16603" lon="3.19053">
        <ele>783.6</ele>
        <time>2022-02-10T10:31:08Z</time>
        <extensions>
          <gpxtpx:TrackPointExtension xmlns:gpxtpx="http://www.garmin.com/xmlschemas/TrackPointExtension/v1">
            <gpxtpx:hr>176</gpxtpx:hr>
          </gpxtpx:TrackPointExtension>
        </extensions>
      </trkpt>
      <trkpt lat="44.16605" lon="3.19052">
        <ele>783.8</ele>
        <time>2022-02-10T10:31:09Z</time>
        <extensions>
          <gpxtpx:TrackPointExtension xmlns:gpxtpx="http://www.garmin.com/xmlschemas/TrackPointExtension/v1">
            <gpxtpx:hr>176</gpxtpx:hr>
          </gpxtpx:TrackPointExtension>
        </extensions>
      </trkpt>
      <trkpt lat="44.16607" lon="3.19051">
        <ele>783.8</ele>
        <time>2022-02-10T10:31:10Z</time>
        <extensions>
          <gpxtpx:TrackPointExtension xmlns:gpxtpx="http://www.garmin.com/xmlschemas/TrackPointExtension/v1">
            <gpxtpx:hr>176</gpxtpx:hr>
          </gpxtpx:TrackPointExtension>
        </extensions>
      </trkpt>
      <trkpt lat="44.16608" lon="3.19049">
        <ele>783.8</ele>
        <time>2022-02-10T10:31:11Z</time>
        <extensions>
          <gpxtpx:TrackPointExtension xmlns:gpxtpx="http://www.garmin.com/xmlschemas/TrackPointExtension/v1">
            <gpxtpx:hr>175</gpxtpx:hr>
          </gpxtpx:TrackPointExtension>
        </extensions>
      </trkpt>
      <trkpt lat="44.1661" lon="3.19048">
        <ele>783.8</ele>
        <time>2022-02-10T10:31:12Z</time>
        <extensions>
          <gpxtpx:TrackPointExtension xmlns:gpxtpx="http://www.garmin.com/xmlschemas/TrackPointExtension/v1">
            <gpxtpx:hr>175</gpxtpx:hr>
          </gpxtpx:TrackPointExtension>
        </extensions>
      </trkpt>
      <trkpt lat="44.16611" lon="3.19046">
        <ele>783.8</ele>
        <time>2022-02-10T10:31:13Z</time>
        <extensions>
          <gpxtpx:TrackPointExtension xmlns:gpxtpx="http://www.garmin.com/xmlschemas/TrackPointExtension/v1">
            <gpxtpx:hr>175</gpxtpx:hr>
          </gpxtpx:TrackPointExtension>
        </extensions>
      </trkpt>
      <trkpt lat="44.16612" lon="3.19044">
        <ele>783.8</ele>
        <time>2022-02-10T10:31:14Z</time>
        <extensions>
          <gpxtpx:TrackPointExtension xmlns:gpxtpx="http://www.garmin.com/xmlschemas/TrackPointExtension/v1">
            <gpxtpx:hr>174</gpxtpx:hr>
          </gpxtpx:TrackPointExtension>
        </extensions>
      </trkpt>
      <trkpt lat="44.16614" lon="3.19041">
        <ele>783.8</ele>
        <time>2022-02-10T10:31:15Z</time>
        <extensions>
          <gpxtpx:TrackPointExtension xmlns:gpxtpx="http://www.garmin.com/xmlschemas/TrackPointExtension/v1">
            <gpxtpx:hr>174</gpxtpx:hr>
          </gpxtpx:TrackPointExtension>
        </extensions>
      </trkpt>
      <trkpt lat="44.16616" lon="3.19037">
        <ele>783.8</ele>
        <time>2022-02-10T10:31:17Z</time>
        <extensions>
          <gpxtpx:TrackPointExtension xmlns:gpxtpx="http://www.garmin.com/xmlschemas/TrackPointExtension/v1">
            <gpxtpx:hr>173</gpxtpx:hr>
          </gpxtpx:TrackPointExtension>
        </extensions>
      </trkpt>
      <trkpt lat="44.16617" lon="3.19035">
        <ele>784</ele>
        <time>2022-02-10T10:31:19Z</time>
        <extensions>
          <gpxtpx:TrackPointExtension xmlns:gpxtpx="http://www.garmin.com/xmlschemas/TrackPointExtension/v1">
            <gpxtpx:hr>173</gpxtpx:hr>
          </gpxtpx:TrackPointExtension>
        </extensions>
      </trkpt>
      <trkpt lat="44.16618" lon="3.19033">
        <ele>784</ele>
        <time>2022-02-10T10:31:20Z</time>
        <extensions>
          <gpxtpx:TrackPointExtension xmlns:gpxtpx="http://www.garmin.com/xmlschemas/TrackPointExtension/v1">
            <gpxtpx:hr>173</gpxtpx:hr>
          </gpxtpx:TrackPointExtension>
        </extensions>
      </trkpt>
      <trkpt lat="44.16619" lon="3.19031">
        <ele>784</ele>
        <time>2022-02-10T10:31:21Z</time>
        <extensions>
          <gpxtpx:TrackPointExtension xmlns:gpxtpx="http://www.garmin.com/xmlschemas/TrackPointExtension/v1">
            <gpxtpx:hr>173</gpxtpx:hr>
          </gpxtpx:TrackPointExtension>
        </extensions>
      </trkpt>
      <trkpt lat="44.1662" lon="3.19029">
        <ele>784</ele>
        <time>2022-02-10T10:31:22Z</time>
        <extensions>
          <gpxtpx:TrackPointExtension xmlns:gpxtpx="http://www.garmin.com/xmlschemas/TrackPointExtension/v1">
            <gpxtpx:hr>172</gpxtpx:hr>
          </gpxtpx:TrackPointExtension>
        </extensions>
      </trkpt>
      <trkpt lat="44.16621" lon="3.19027">
        <ele>784.2</ele>
        <time>2022-02-10T10:31:23Z</time>
        <extensions>
          <gpxtpx:TrackPointExtension xmlns:gpxtpx="http://www.garmin.com/xmlschemas/TrackPointExtension/v1">
            <gpxtpx:hr>172</gpxtpx:hr>
          </gpxtpx:TrackPointExtension>
        </extensions>
      </trkpt>
      <trkpt lat="44.16622" lon="3.19026">
        <ele>784.2</ele>
        <time>2022-02-10T10:31:24Z</time>
        <extensions>
          <gpxtpx:TrackPointExtension xmlns:gpxtpx="http://www.garmin.com/xmlschemas/TrackPointExtension/v1">
            <gpxtpx:hr>173</gpxtpx:hr>
          </gpxtpx:TrackPointExtension>
        </extensions>
      </trkpt>
      <trkpt lat="44.16624" lon="3.19025">
        <ele>784.4</ele>
        <time>2022-02-10T10:31:25Z</time>
        <extensions>
          <gpxtpx:TrackPointExtension xmlns:gpxtpx="http://www.garmin.com/xmlschemas/TrackPointExtension/v1">
            <gpxtpx:hr>172</gpxtpx:hr>
          </gpxtpx:TrackPointExtension>
        </extensions>
      </trkpt>
      <trkpt lat="44.16626" lon="3.19023">
        <ele>784.4</ele>
        <time>2022-02-10T10:31:26Z</time>
        <extensions>
          <gpxtpx:TrackPointExtension xmlns:gpxtpx="http://www.garmin.com/xmlschemas/TrackPointExtension/v1">
            <gpxtpx:hr>171</gpxtpx:hr>
          </gpxtpx:TrackPointExtension>
        </extensions>
      </trkpt>
      <trkpt lat="44.16628" lon="3.19022">
        <ele>784.4</ele>
        <time>2022-02-10T10:31:27Z</time>
        <extensions>
          <gpxtpx:TrackPointExtension xmlns:gpxtpx="http://www.garmin.com/xmlschemas/TrackPointExtension/v1">
            <gpxtpx:hr>170</gpxtpx:hr>
          </gpxtpx:TrackPointExtension>
        </extensions>
      </trkpt>
      <trkpt lat="44.16629" lon="3.19021">
        <ele>784.8</ele>
        <time>2022-02-10T10:31:28Z</time>
        <extensions>
          <gpxtpx:TrackPointExtension xmlns:gpxtpx="http://www.garmin.com/xmlschemas/TrackPointExtension/v1">
            <gpxtpx:hr>170</gpxtpx:hr>
          </gpxtpx:TrackPointExtension>
        </extensions>
      </trkpt>
      <trkpt lat="44.16631" lon="3.1902">
        <ele>785</ele>
        <time>2022-02-10T10:31:29Z</time>
        <extensions>
          <gpxtpx:TrackPointExtension xmlns:gpxtpx="http://www.garmin.com/xmlschemas/TrackPointExtension/v1">
            <gpxtpx:hr>171</gpxtpx:hr>
          </gpxtpx:TrackPointExtension>
        </extensions>
      </trkpt>
      <trkpt lat="44.16633" lon="3.1902">
        <ele>785.2</ele>
        <time>2022-02-10T10:31:30Z</time>
        <extensions>
          <gpxtpx:TrackPointExtension xmlns:gpxtpx="http://www.garmin.com/xmlschemas/TrackPointExtension/v1">
            <gpxtpx:hr>171</gpxtpx:hr>
          </gpxtpx:TrackPointExtension>
        </extensions>
      </trkpt>
      <trkpt lat="44.16635" lon="3.1902">
        <ele>785.2</ele>
        <time>2022-02-10T10:31:31Z</time>
        <extensions>
          <gpxtpx:TrackPointExtension xmlns:gpxtpx="http://www.garmin.com/xmlschemas/TrackPointExtension/v1">
            <gpxtpx:hr>171</gpxtpx:hr>
          </gpxtpx:TrackPointExtension>
        </extensions>
      </trkpt>
      <trkpt lat="44.16636" lon="3.19019">
        <ele>785.2</ele>
        <time>2022-02-10T10:31:32Z</time>
        <extensions>
          <gpxtpx:TrackPointExtension xmlns:gpxtpx="http://www.garmin.com/xmlschemas/TrackPointExtension/v1">
            <gpxtpx:hr>171</gpxtpx:hr>
          </gpxtpx:TrackPointExtension>
        </extensions>
      </trkpt>
      <trkpt lat="44.16638" lon="3.19019">
        <ele>785.6</ele>
        <time>2022-02-10T10:31:33Z</time>
        <extensions>
          <gpxtpx:TrackPointExtension xmlns:gpxtpx="http://www.garmin.com/xmlschemas/TrackPointExtension/v1">
            <gpxtpx:hr>171</gpxtpx:hr>
          </gpxtpx:TrackPointExtension>
        </extensions>
      </trkpt>
      <trkpt lat="44.1664" lon="3.19018">
        <ele>785.6</ele>
        <time>2022-02-10T10:31:34Z</time>
        <extensions>
          <gpxtpx:TrackPointExtension xmlns:gpxtpx="http://www.garmin.com/xmlschemas/TrackPointExtension/v1">
            <gpxtpx:hr>171</gpxtpx:hr>
          </gpxtpx:TrackPointExtension>
        </extensions>
      </trkpt>
      <trkpt lat="44.16642" lon="3.19018">
        <ele>786</ele>
        <time>2022-02-10T10:31:35Z</time>
        <extensions>
          <gpxtpx:TrackPointExtension xmlns:gpxtpx="http://www.garmin.com/xmlschemas/TrackPointExtension/v1">
            <gpxtpx:hr>171</gpxtpx:hr>
          </gpxtpx:TrackPointExtension>
        </extensions>
      </trkpt>
      <trkpt lat="44.16644" lon="3.19018">
        <ele>786.4</ele>
        <time>2022-02-10T10:31:36Z</time>
        <extensions>
          <gpxtpx:TrackPointExtension xmlns:gpxtpx="http://www.garmin.com/xmlschemas/TrackPointExtension/v1">
            <gpxtpx:hr>172</gpxtpx:hr>
          </gpxtpx:TrackPointExtension>
        </extensions>
      </trkpt>
      <trkpt lat="44.16647" lon="3.19017">
        <ele>786.4</ele>
        <time>2022-02-10T10:31:37Z</time>
        <extensions>
          <gpxtpx:TrackPointExtension xmlns:gpxtpx="http://www.garmin.com/xmlschemas/TrackPointExtension/v1">
            <gpxtpx:hr>172</gpxtpx:hr>
          </gpxtpx:TrackPointExtension>
        </extensions>
      </trkpt>
      <trkpt lat="44.16649" lon="3.19017">
        <ele>786.6</ele>
        <time>2022-02-10T10:31:38Z</time>
        <extensions>
          <gpxtpx:TrackPointExtension xmlns:gpxtpx="http://www.garmin.com/xmlschemas/TrackPointExtension/v1">
            <gpxtpx:hr>172</gpxtpx:hr>
          </gpxtpx:TrackPointExtension>
        </extensions>
      </trkpt>
      <trkpt lat="44.16651" lon="3.19017">
        <ele>786.6</ele>
        <time>2022-02-10T10:31:39Z</time>
        <extensions>
          <gpxtpx:TrackPointExtension xmlns:gpxtpx="http://www.garmin.com/xmlschemas/TrackPointExtension/v1">
            <gpxtpx:hr>172</gpxtpx:hr>
          </gpxtpx:TrackPointExtension>
        </extensions>
      </trkpt>
      <trkpt lat="44.16653" lon="3.19016">
        <ele>786.6</ele>
        <time>2022-02-10T10:31:40Z</time>
        <extensions>
          <gpxtpx:TrackPointExtension xmlns:gpxtpx="http://www.garmin.com/xmlschemas/TrackPointExtension/v1">
            <gpxtpx:hr>172</gpxtpx:hr>
          </gpxtpx:TrackPointExtension>
        </extensions>
      </trkpt>
      <trkpt lat="44.16655" lon="3.19016">
        <ele>786.8</ele>
        <time>2022-02-10T10:31:41Z</time>
        <extensions>
          <gpxtpx:TrackPointExtension xmlns:gpxtpx="http://www.garmin.com/xmlschemas/TrackPointExtension/v1">
            <gpxtpx:hr>173</gpxtpx:hr>
          </gpxtpx:TrackPointExtension>
        </extensions>
      </trkpt>
      <trkpt lat="44.16658" lon="3.19016">
        <ele>787.2</ele>
        <time>2022-02-10T10:31:42Z</time>
        <extensions>
          <gpxtpx:TrackPointExtension xmlns:gpxtpx="http://www.garmin.com/xmlschemas/TrackPointExtension/v1">
            <gpxtpx:hr>173</gpxtpx:hr>
          </gpxtpx:TrackPointExtension>
        </extensions>
      </trkpt>
      <trkpt lat="44.1666" lon="3.19015">
        <ele>787.2</ele>
        <time>2022-02-10T10:31:43Z</time>
        <extensions>
          <gpxtpx:TrackPointExtension xmlns:gpxtpx="http://www.garmin.com/xmlschemas/TrackPointExtension/v1">
            <gpxtpx:hr>173</gpxtpx:hr>
          </gpxtpx:TrackPointExtension>
        </extensions>
      </trkpt>
      <trkpt lat="44.16662" lon="3.19015">
        <ele>787.6</ele>
        <time>2022-02-10T10:31:44Z</time>
        <extensions>
          <gpxtpx:TrackPointExtension xmlns:gpxtpx="http://www.garmin.com/xmlschemas/TrackPointExtension/v1">
            <gpxtpx:hr>172</gpxtpx:hr>
          </gpxtpx:TrackPointExtension>
        </extensions>
      </trkpt>
      <trkpt lat="44.16663" lon="3.19015">
        <ele>788</ele>
        <time>2022-02-10T10:31:45Z</time>
        <extensions>
          <gpxtpx:TrackPointExtension xmlns:gpxtpx="http://www.garmin.com/xmlschemas/TrackPointExtension/v1">
            <gpxtpx:hr>173</gpxtpx:hr>
          </gpxtpx:TrackPointExtension>
        </extensions>
      </trkpt>
      <trkpt lat="44.16665" lon="3.19015">
        <ele>788.2</ele>
        <time>2022-02-10T10:31:46Z</time>
        <extensions>
          <gpxtpx:TrackPointExtension xmlns:gpxtpx="http://www.garmin.com/xmlschemas/TrackPointExtension/v1">
            <gpxtpx:hr>173</gpxtpx:hr>
          </gpxtpx:TrackPointExtension>
        </extensions>
      </trkpt>
      <trkpt lat="44.16668" lon="3.19014">
        <ele>788.4</ele>
        <time>2022-02-10T10:31:47Z</time>
        <extensions>
          <gpxtpx:TrackPointExtension xmlns:gpxtpx="http://www.garmin.com/xmlschemas/TrackPointExtension/v1">
            <gpxtpx:hr>172</gpxtpx:hr>
          </gpxtpx:TrackPointExtension>
        </extensions>
      </trkpt>
      <trkpt lat="44.1667" lon="3.19013">
        <ele>789</ele>
        <time>2022-02-10T10:31:49Z</time>
        <extensions>
          <gpxtpx:TrackPointExtension xmlns:gpxtpx="http://www.garmin.com/xmlschemas/TrackPointExtension/v1">
            <gpxtpx:hr>172</gpxtpx:hr>
          </gpxtpx:TrackPointExtension>
        </extensions>
      </trkpt>
      <trkpt lat="44.16672" lon="3.19012">
        <ele>789.6</ele>
        <time>2022-02-10T10:31:51Z</time>
        <extensions>
          <gpxtpx:TrackPointExtension xmlns:gpxtpx="http://www.garmin.com/xmlschemas/TrackPointExtension/v1">
            <gpxtpx:hr>173</gpxtpx:hr>
          </gpxtpx:TrackPointExtension>
        </extensions>
      </trkpt>
      <trkpt lat="44.16675" lon="3.19012">
        <ele>789.8</ele>
        <time>2022-02-10T10:31:53Z</time>
        <extensions>
          <gpxtpx:TrackPointExtension xmlns:gpxtpx="http://www.garmin.com/xmlschemas/TrackPointExtension/v1">
            <gpxtpx:hr>173</gpxtpx:hr>
          </gpxtpx:TrackPointExtension>
        </extensions>
      </trkpt>
      <trkpt lat="44.16677" lon="3.19013">
        <ele>790</ele>
        <time>2022-02-10T10:31:55Z</time>
        <extensions>
          <gpxtpx:TrackPointExtension xmlns:gpxtpx="http://www.garmin.com/xmlschemas/TrackPointExtension/v1">
            <gpxtpx:hr>173</gpxtpx:hr>
          </gpxtpx:TrackPointExtension>
        </extensions>
      </trkpt>
      <trkpt lat="44.16681" lon="3.19015">
        <ele>790.4</ele>
        <time>2022-02-10T10:31:57Z</time>
        <extensions>
          <gpxtpx:TrackPointExtension xmlns:gpxtpx="http://www.garmin.com/xmlschemas/TrackPointExtension/v1">
            <gpxtpx:hr>173</gpxtpx:hr>
          </gpxtpx:TrackPointExtension>
        </extensions>
      </trkpt>
      <trkpt lat="44.16684" lon="3.19016">
        <ele>790.4</ele>
        <time>2022-02-10T10:31:59Z</time>
        <extensions>
          <gpxtpx:TrackPointExtension xmlns:gpxtpx="http://www.garmin.com/xmlschemas/TrackPointExtension/v1">
            <gpxtpx:hr>174</gpxtpx:hr>
          </gpxtpx:TrackPointExtension>
        </extensions>
      </trkpt>
      <trkpt lat="44.16687" lon="3.19016">
        <ele>790.6</ele>
        <time>2022-02-10T10:32:01Z</time>
        <extensions>
          <gpxtpx:TrackPointExtension xmlns:gpxtpx="http://www.garmin.com/xmlschemas/TrackPointExtension/v1">
            <gpxtpx:hr>174</gpxtpx:hr>
          </gpxtpx:TrackPointExtension>
        </extensions>
      </trkpt>
      <trkpt lat="44.16691" lon="3.19016">
        <ele>791.2</ele>
        <time>2022-02-10T10:32:03Z</time>
        <extensions>
          <gpxtpx:TrackPointExtension xmlns:gpxtpx="http://www.garmin.com/xmlschemas/TrackPointExtension/v1">
            <gpxtpx:hr>174</gpxtpx:hr>
          </gpxtpx:TrackPointExtension>
        </extensions>
      </trkpt>
      <trkpt lat="44.16695" lon="3.19013">
        <ele>791.6</ele>
        <time>2022-02-10T10:32:06Z</time>
        <extensions>
          <gpxtpx:TrackPointExtension xmlns:gpxtpx="http://www.garmin.com/xmlschemas/TrackPointExtension/v1">
            <gpxtpx:hr>174</gpxtpx:hr>
          </gpxtpx:TrackPointExtension>
        </extensions>
      </trkpt>
      <trkpt lat="44.16697" lon="3.19011">
        <ele>791.8</ele>
        <time>2022-02-10T10:32:07Z</time>
        <extensions>
          <gpxtpx:TrackPointExtension xmlns:gpxtpx="http://www.garmin.com/xmlschemas/TrackPointExtension/v1">
            <gpxtpx:hr>174</gpxtpx:hr>
          </gpxtpx:TrackPointExtension>
        </extensions>
      </trkpt>
      <trkpt lat="44.167" lon="3.19008">
        <ele>791.8</ele>
        <time>2022-02-10T10:32:09Z</time>
        <extensions>
          <gpxtpx:TrackPointExtension xmlns:gpxtpx="http://www.garmin.com/xmlschemas/TrackPointExtension/v1">
            <gpxtpx:hr>174</gpxtpx:hr>
          </gpxtpx:TrackPointExtension>
        </extensions>
      </trkpt>
      <trkpt lat="44.16703" lon="3.19005">
        <ele>792</ele>
        <time>2022-02-10T10:32:11Z</time>
        <extensions>
          <gpxtpx:TrackPointExtension xmlns:gpxtpx="http://www.garmin.com/xmlschemas/TrackPointExtension/v1">
            <gpxtpx:hr>175</gpxtpx:hr>
          </gpxtpx:TrackPointExtension>
        </extensions>
      </trkpt>
      <trkpt lat="44.16705" lon="3.19002">
        <ele>792.4</ele>
        <time>2022-02-10T10:32:13Z</time>
        <extensions>
          <gpxtpx:TrackPointExtension xmlns:gpxtpx="http://www.garmin.com/xmlschemas/TrackPointExtension/v1">
            <gpxtpx:hr>175</gpxtpx:hr>
          </gpxtpx:TrackPointExtension>
        </extensions>
      </trkpt>
      <trkpt lat="44.16707" lon="3.18999">
        <ele>792.8</ele>
        <time>2022-02-10T10:32:15Z</time>
        <extensions>
          <gpxtpx:TrackPointExtension xmlns:gpxtpx="http://www.garmin.com/xmlschemas/TrackPointExtension/v1">
            <gpxtpx:hr>174</gpxtpx:hr>
          </gpxtpx:TrackPointExtension>
        </extensions>
      </trkpt>
      <trkpt lat="44.16709" lon="3.18996">
        <ele>792.8</ele>
        <time>2022-02-10T10:32:17Z</time>
        <extensions>
          <gpxtpx:TrackPointExtension xmlns:gpxtpx="http://www.garmin.com/xmlschemas/TrackPointExtension/v1">
            <gpxtpx:hr>176</gpxtpx:hr>
          </gpxtpx:TrackPointExtension>
        </extensions>
      </trkpt>
      <trkpt lat="44.16713" lon="3.18993">
        <ele>793.2</ele>
        <time>2022-02-10T10:32:19Z</time>
        <extensions>
          <gpxtpx:TrackPointExtension xmlns:gpxtpx="http://www.garmin.com/xmlschemas/TrackPointExtension/v1">
            <gpxtpx:hr>175</gpxtpx:hr>
          </gpxtpx:TrackPointExtension>
        </extensions>
      </trkpt>
      <trkpt lat="44.16714" lon="3.18991">
        <ele>793.2</ele>
        <time>2022-02-10T10:32:20Z</time>
        <extensions>
          <gpxtpx:TrackPointExtension xmlns:gpxtpx="http://www.garmin.com/xmlschemas/TrackPointExtension/v1">
            <gpxtpx:hr>174</gpxtpx:hr>
          </gpxtpx:TrackPointExtension>
        </extensions>
      </trkpt>
      <trkpt lat="44.16716" lon="3.18989">
        <ele>793.4</ele>
        <time>2022-02-10T10:32:21Z</time>
        <extensions>
          <gpxtpx:TrackPointExtension xmlns:gpxtpx="http://www.garmin.com/xmlschemas/TrackPointExtension/v1">
            <gpxtpx:hr>174</gpxtpx:hr>
          </gpxtpx:TrackPointExtension>
        </extensions>
      </trkpt>
      <trkpt lat="44.16718" lon="3.18988">
        <ele>793.4</ele>
        <time>2022-02-10T10:32:22Z</time>
        <extensions>
          <gpxtpx:TrackPointExtension xmlns:gpxtpx="http://www.garmin.com/xmlschemas/TrackPointExtension/v1">
            <gpxtpx:hr>174</gpxtpx:hr>
          </gpxtpx:TrackPointExtension>
        </extensions>
      </trkpt>
      <trkpt lat="44.16719" lon="3.18986">
        <ele>793.4</ele>
        <time>2022-02-10T10:32:23Z</time>
        <extensions>
          <gpxtpx:TrackPointExtension xmlns:gpxtpx="http://www.garmin.com/xmlschemas/TrackPointExtension/v1">
            <gpxtpx:hr>175</gpxtpx:hr>
          </gpxtpx:TrackPointExtension>
        </extensions>
      </trkpt>
      <trkpt lat="44.16721" lon="3.18984">
        <ele>793.6</ele>
        <time>2022-02-10T10:32:24Z</time>
        <extensions>
          <gpxtpx:TrackPointExtension xmlns:gpxtpx="http://www.garmin.com/xmlschemas/TrackPointExtension/v1">
            <gpxtpx:hr>174</gpxtpx:hr>
          </gpxtpx:TrackPointExtension>
        </extensions>
      </trkpt>
      <trkpt lat="44.16723" lon="3.18983">
        <ele>793.6</ele>
        <time>2022-02-10T10:32:25Z</time>
        <extensions>
          <gpxtpx:TrackPointExtension xmlns:gpxtpx="http://www.garmin.com/xmlschemas/TrackPointExtension/v1">
            <gpxtpx:hr>174</gpxtpx:hr>
          </gpxtpx:TrackPointExtension>
        </extensions>
      </trkpt>
      <trkpt lat="44.16725" lon="3.18981">
        <ele>793.8</ele>
        <time>2022-02-10T10:32:26Z</time>
        <extensions>
          <gpxtpx:TrackPointExtension xmlns:gpxtpx="http://www.garmin.com/xmlschemas/TrackPointExtension/v1">
            <gpxtpx:hr>174</gpxtpx:hr>
          </gpxtpx:TrackPointExtension>
        </extensions>
      </trkpt>
      <trkpt lat="44.16726" lon="3.18979">
        <ele>793.8</ele>
        <time>2022-02-10T10:32:27Z</time>
        <extensions>
          <gpxtpx:TrackPointExtension xmlns:gpxtpx="http://www.garmin.com/xmlschemas/TrackPointExtension/v1">
            <gpxtpx:hr>174</gpxtpx:hr>
          </gpxtpx:TrackPointExtension>
        </extensions>
      </trkpt>
      <trkpt lat="44.16728" lon="3.18977">
        <ele>794</ele>
        <time>2022-02-10T10:32:28Z</time>
        <extensions>
          <gpxtpx:TrackPointExtension xmlns:gpxtpx="http://www.garmin.com/xmlschemas/TrackPointExtension/v1">
            <gpxtpx:hr>174</gpxtpx:hr>
          </gpxtpx:TrackPointExtension>
        </extensions>
      </trkpt>
      <trkpt lat="44.16729" lon="3.18975">
        <ele>794</ele>
        <time>2022-02-10T10:32:29Z</time>
        <extensions>
          <gpxtpx:TrackPointExtension xmlns:gpxtpx="http://www.garmin.com/xmlschemas/TrackPointExtension/v1">
            <gpxtpx:hr>174</gpxtpx:hr>
          </gpxtpx:TrackPointExtension>
        </extensions>
      </trkpt>
      <trkpt lat="44.16731" lon="3.18973">
        <ele>794</ele>
        <time>2022-02-10T10:32:30Z</time>
        <extensions>
          <gpxtpx:TrackPointExtension xmlns:gpxtpx="http://www.garmin.com/xmlschemas/TrackPointExtension/v1">
            <gpxtpx:hr>174</gpxtpx:hr>
          </gpxtpx:TrackPointExtension>
        </extensions>
      </trkpt>
      <trkpt lat="44.16732" lon="3.18971">
        <ele>794</ele>
        <time>2022-02-10T10:32:31Z</time>
        <extensions>
          <gpxtpx:TrackPointExtension xmlns:gpxtpx="http://www.garmin.com/xmlschemas/TrackPointExtension/v1">
            <gpxtpx:hr>174</gpxtpx:hr>
          </gpxtpx:TrackPointExtension>
        </extensions>
      </trkpt>
      <trkpt lat="44.16733" lon="3.18969">
        <ele>794.2</ele>
        <time>2022-02-10T10:32:32Z</time>
        <extensions>
          <gpxtpx:TrackPointExtension xmlns:gpxtpx="http://www.garmin.com/xmlschemas/TrackPointExtension/v1">
            <gpxtpx:hr>175</gpxtpx:hr>
          </gpxtpx:TrackPointExtension>
        </extensions>
      </trkpt>
      <trkpt lat="44.16735" lon="3.18966">
        <ele>794.2</ele>
        <time>2022-02-10T10:32:33Z</time>
        <extensions>
          <gpxtpx:TrackPointExtension xmlns:gpxtpx="http://www.garmin.com/xmlschemas/TrackPointExtension/v1">
            <gpxtpx:hr>174</gpxtpx:hr>
          </gpxtpx:TrackPointExtension>
        </extensions>
      </trkpt>
      <trkpt lat="44.16736" lon="3.18964">
        <ele>794.2</ele>
        <time>2022-02-10T10:32:34Z</time>
        <extensions>
          <gpxtpx:TrackPointExtension xmlns:gpxtpx="http://www.garmin.com/xmlschemas/TrackPointExtension/v1">
            <gpxtpx:hr>174</gpxtpx:hr>
          </gpxtpx:TrackPointExtension>
        </extensions>
      </trkpt>
      <trkpt lat="44.16739" lon="3.1896">
        <ele>794.2</ele>
        <time>2022-02-10T10:32:36Z</time>
        <extensions>
          <gpxtpx:TrackPointExtension xmlns:gpxtpx="http://www.garmin.com/xmlschemas/TrackPointExtension/v1">
            <gpxtpx:hr>173</gpxtpx:hr>
          </gpxtpx:TrackPointExtension>
        </extensions>
      </trkpt>
      <trkpt lat="44.16741" lon="3.18957">
        <ele>794.2</ele>
        <time>2022-02-10T10:32:38Z</time>
        <extensions>
          <gpxtpx:TrackPointExtension xmlns:gpxtpx="http://www.garmin.com/xmlschemas/TrackPointExtension/v1">
            <gpxtpx:hr>172</gpxtpx:hr>
          </gpxtpx:TrackPointExtension>
        </extensions>
      </trkpt>
      <trkpt lat="44.16742" lon="3.18955">
        <ele>794.2</ele>
        <time>2022-02-10T10:32:40Z</time>
        <extensions>
          <gpxtpx:TrackPointExtension xmlns:gpxtpx="http://www.garmin.com/xmlschemas/TrackPointExtension/v1">
            <gpxtpx:hr>171</gpxtpx:hr>
          </gpxtpx:TrackPointExtension>
        </extensions>
      </trkpt>
      <trkpt lat="44.16743" lon="3.18952">
        <ele>794.2</ele>
        <time>2022-02-10T10:32:43Z</time>
        <extensions>
          <gpxtpx:TrackPointExtension xmlns:gpxtpx="http://www.garmin.com/xmlschemas/TrackPointExtension/v1">
            <gpxtpx:hr>170</gpxtpx:hr>
          </gpxtpx:TrackPointExtension>
        </extensions>
      </trkpt>
      <trkpt lat="44.16745" lon="3.18949">
        <ele>794.2</ele>
        <time>2022-02-10T10:32:45Z</time>
        <extensions>
          <gpxtpx:TrackPointExtension xmlns:gpxtpx="http://www.garmin.com/xmlschemas/TrackPointExtension/v1">
            <gpxtpx:hr>169</gpxtpx:hr>
          </gpxtpx:TrackPointExtension>
        </extensions>
      </trkpt>
      <trkpt lat="44.16746" lon="3.18946">
        <ele>794</ele>
        <time>2022-02-10T10:32:47Z</time>
        <extensions>
          <gpxtpx:TrackPointExtension xmlns:gpxtpx="http://www.garmin.com/xmlschemas/TrackPointExtension/v1">
            <gpxtpx:hr>168</gpxtpx:hr>
          </gpxtpx:TrackPointExtension>
        </extensions>
      </trkpt>
      <trkpt lat="44.16748" lon="3.18942">
        <ele>794</ele>
        <time>2022-02-10T10:32:49Z</time>
        <extensions>
          <gpxtpx:TrackPointExtension xmlns:gpxtpx="http://www.garmin.com/xmlschemas/TrackPointExtension/v1">
            <gpxtpx:hr>168</gpxtpx:hr>
          </gpxtpx:TrackPointExtension>
        </extensions>
      </trkpt>
      <trkpt lat="44.1675" lon="3.18938">
        <ele>793.6</ele>
        <time>2022-02-10T10:32:51Z</time>
        <extensions>
          <gpxtpx:TrackPointExtension xmlns:gpxtpx="http://www.garmin.com/xmlschemas/TrackPointExtension/v1">
            <gpxtpx:hr>167</gpxtpx:hr>
          </gpxtpx:TrackPointExtension>
        </extensions>
      </trkpt>
      <trkpt lat="44.16752" lon="3.18933">
        <ele>793</ele>
        <time>2022-02-10T10:32:53Z</time>
        <extensions>
          <gpxtpx:TrackPointExtension xmlns:gpxtpx="http://www.garmin.com/xmlschemas/TrackPointExtension/v1">
            <gpxtpx:hr>166</gpxtpx:hr>
          </gpxtpx:TrackPointExtension>
        </extensions>
      </trkpt>
      <trkpt lat="44.16756" lon="3.18928">
        <ele>792.8</ele>
        <time>2022-02-10T10:32:55Z</time>
        <extensions>
          <gpxtpx:TrackPointExtension xmlns:gpxtpx="http://www.garmin.com/xmlschemas/TrackPointExtension/v1">
            <gpxtpx:hr>166</gpxtpx:hr>
          </gpxtpx:TrackPointExtension>
        </extensions>
      </trkpt>
      <trkpt lat="44.16759" lon="3.18923">
        <ele>792.4</ele>
        <time>2022-02-10T10:32:57Z</time>
        <extensions>
          <gpxtpx:TrackPointExtension xmlns:gpxtpx="http://www.garmin.com/xmlschemas/TrackPointExtension/v1">
            <gpxtpx:hr>165</gpxtpx:hr>
          </gpxtpx:TrackPointExtension>
        </extensions>
      </trkpt>
      <trkpt lat="44.16764" lon="3.18919">
        <ele>792</ele>
        <time>2022-02-10T10:32:59Z</time>
        <extensions>
          <gpxtpx:TrackPointExtension xmlns:gpxtpx="http://www.garmin.com/xmlschemas/TrackPointExtension/v1">
            <gpxtpx:hr>164</gpxtpx:hr>
          </gpxtpx:TrackPointExtension>
        </extensions>
      </trkpt>
      <trkpt lat="44.16768" lon="3.18915">
        <ele>791.8</ele>
        <time>2022-02-10T10:33:01Z</time>
        <extensions>
          <gpxtpx:TrackPointExtension xmlns:gpxtpx="http://www.garmin.com/xmlschemas/TrackPointExtension/v1">
            <gpxtpx:hr>163</gpxtpx:hr>
          </gpxtpx:TrackPointExtension>
        </extensions>
      </trkpt>
      <trkpt lat="44.16773" lon="3.18911">
        <ele>791.6</ele>
        <time>2022-02-10T10:33:03Z</time>
        <extensions>
          <gpxtpx:TrackPointExtension xmlns:gpxtpx="http://www.garmin.com/xmlschemas/TrackPointExtension/v1">
            <gpxtpx:hr>162</gpxtpx:hr>
          </gpxtpx:TrackPointExtension>
        </extensions>
      </trkpt>
      <trkpt lat="44.16777" lon="3.18908">
        <ele>791.2</ele>
        <time>2022-02-10T10:33:05Z</time>
        <extensions>
          <gpxtpx:TrackPointExtension xmlns:gpxtpx="http://www.garmin.com/xmlschemas/TrackPointExtension/v1">
            <gpxtpx:hr>160</gpxtpx:hr>
          </gpxtpx:TrackPointExtension>
        </extensions>
      </trkpt>
      <trkpt lat="44.1678" lon="3.18904">
        <ele>791.2</ele>
        <time>2022-02-10T10:33:07Z</time>
        <extensions>
          <gpxtpx:TrackPointExtension xmlns:gpxtpx="http://www.garmin.com/xmlschemas/TrackPointExtension/v1">
            <gpxtpx:hr>159</gpxtpx:hr>
          </gpxtpx:TrackPointExtension>
        </extensions>
      </trkpt>
      <trkpt lat="44.16782" lon="3.18903">
        <ele>791.2</ele>
        <time>2022-02-10T10:33:08Z</time>
        <extensions>
          <gpxtpx:TrackPointExtension xmlns:gpxtpx="http://www.garmin.com/xmlschemas/TrackPointExtension/v1">
            <gpxtpx:hr>159</gpxtpx:hr>
          </gpxtpx:TrackPointExtension>
        </extensions>
      </trkpt>
      <trkpt lat="44.16785" lon="3.18901">
        <ele>791.2</ele>
        <time>2022-02-10T10:33:10Z</time>
        <extensions>
          <gpxtpx:TrackPointExtension xmlns:gpxtpx="http://www.garmin.com/xmlschemas/TrackPointExtension/v1">
            <gpxtpx:hr>158</gpxtpx:hr>
          </gpxtpx:TrackPointExtension>
        </extensions>
      </trkpt>
      <trkpt lat="44.16787" lon="3.189">
        <ele>791.2</ele>
        <time>2022-02-10T10:33:12Z</time>
        <extensions>
          <gpxtpx:TrackPointExtension xmlns:gpxtpx="http://www.garmin.com/xmlschemas/TrackPointExtension/v1">
            <gpxtpx:hr>158</gpxtpx:hr>
          </gpxtpx:TrackPointExtension>
        </extensions>
      </trkpt>
      <trkpt lat="44.1679" lon="3.18898">
        <ele>791</ele>
        <time>2022-02-10T10:33:14Z</time>
        <extensions>
          <gpxtpx:TrackPointExtension xmlns:gpxtpx="http://www.garmin.com/xmlschemas/TrackPointExtension/v1">
            <gpxtpx:hr>157</gpxtpx:hr>
          </gpxtpx:TrackPointExtension>
        </extensions>
      </trkpt>
      <trkpt lat="44.16792" lon="3.18896">
        <ele>791</ele>
        <time>2022-02-10T10:33:16Z</time>
        <extensions>
          <gpxtpx:TrackPointExtension xmlns:gpxtpx="http://www.garmin.com/xmlschemas/TrackPointExtension/v1">
            <gpxtpx:hr>159</gpxtpx:hr>
          </gpxtpx:TrackPointExtension>
        </extensions>
      </trkpt>
      <trkpt lat="44.16794" lon="3.18894">
        <ele>790.8</ele>
        <time>2022-02-10T10:33:18Z</time>
        <extensions>
          <gpxtpx:TrackPointExtension xmlns:gpxtpx="http://www.garmin.com/xmlschemas/TrackPointExtension/v1">
            <gpxtpx:hr>158</gpxtpx:hr>
          </gpxtpx:TrackPointExtension>
        </extensions>
      </trkpt>
      <trkpt lat="44.16797" lon="3.18893">
        <ele>790.8</ele>
        <time>2022-02-10T10:33:20Z</time>
        <extensions>
          <gpxtpx:TrackPointExtension xmlns:gpxtpx="http://www.garmin.com/xmlschemas/TrackPointExtension/v1">
            <gpxtpx:hr>157</gpxtpx:hr>
          </gpxtpx:TrackPointExtension>
        </extensions>
      </trkpt>
      <trkpt lat="44.16799" lon="3.18894">
        <ele>790.8</ele>
        <time>2022-02-10T10:33:22Z</time>
        <extensions>
          <gpxtpx:TrackPointExtension xmlns:gpxtpx="http://www.garmin.com/xmlschemas/TrackPointExtension/v1">
            <gpxtpx:hr>156</gpxtpx:hr>
          </gpxtpx:TrackPointExtension>
        </extensions>
      </trkpt>
      <trkpt lat="44.16801" lon="3.18894">
        <ele>790.6</ele>
        <time>2022-02-10T10:33:24Z</time>
        <extensions>
          <gpxtpx:TrackPointExtension xmlns:gpxtpx="http://www.garmin.com/xmlschemas/TrackPointExtension/v1">
            <gpxtpx:hr>158</gpxtpx:hr>
          </gpxtpx:TrackPointExtension>
        </extensions>
      </trkpt>
      <trkpt lat="44.16802" lon="3.18895">
        <ele>790.6</ele>
        <time>2022-02-10T10:33:25Z</time>
        <extensions>
          <gpxtpx:TrackPointExtension xmlns:gpxtpx="http://www.garmin.com/xmlschemas/TrackPointExtension/v1">
            <gpxtpx:hr>159</gpxtpx:hr>
          </gpxtpx:TrackPointExtension>
        </extensions>
      </trkpt>
      <trkpt lat="44.16804" lon="3.18895">
        <ele>790.6</ele>
        <time>2022-02-10T10:33:26Z</time>
        <extensions>
          <gpxtpx:TrackPointExtension xmlns:gpxtpx="http://www.garmin.com/xmlschemas/TrackPointExtension/v1">
            <gpxtpx:hr>157</gpxtpx:hr>
          </gpxtpx:TrackPointExtension>
        </extensions>
      </trkpt>
      <trkpt lat="44.16805" lon="3.18895">
        <ele>790.6</ele>
        <time>2022-02-10T10:33:27Z</time>
        <extensions>
          <gpxtpx:TrackPointExtension xmlns:gpxtpx="http://www.garmin.com/xmlschemas/TrackPointExtension/v1">
            <gpxtpx:hr>156</gpxtpx:hr>
          </gpxtpx:TrackPointExtension>
        </extensions>
      </trkpt>
      <trkpt lat="44.16807" lon="3.18896">
        <ele>790.6</ele>
        <time>2022-02-10T10:33:28Z</time>
        <extensions>
          <gpxtpx:TrackPointExtension xmlns:gpxtpx="http://www.garmin.com/xmlschemas/TrackPointExtension/v1">
            <gpxtpx:hr>154</gpxtpx:hr>
          </gpxtpx:TrackPointExtension>
        </extensions>
      </trkpt>
      <trkpt lat="44.16808" lon="3.18896">
        <ele>790.6</ele>
        <time>2022-02-10T10:33:29Z</time>
        <extensions>
          <gpxtpx:TrackPointExtension xmlns:gpxtpx="http://www.garmin.com/xmlschemas/TrackPointExtension/v1">
            <gpxtpx:hr>154</gpxtpx:hr>
          </gpxtpx:TrackPointExtension>
        </extensions>
      </trkpt>
      <trkpt lat="44.16809" lon="3.18896">
        <ele>790.6</ele>
        <time>2022-02-10T10:33:30Z</time>
        <extensions>
          <gpxtpx:TrackPointExtension xmlns:gpxtpx="http://www.garmin.com/xmlschemas/TrackPointExtension/v1">
            <gpxtpx:hr>154</gpxtpx:hr>
          </gpxtpx:TrackPointExtension>
        </extensions>
      </trkpt>
      <trkpt lat="44.16809" lon="3.18897">
        <ele>790.6</ele>
        <time>2022-02-10T10:33:31Z</time>
        <extensions>
          <gpxtpx:TrackPointExtension xmlns:gpxtpx="http://www.garmin.com/xmlschemas/TrackPointExtension/v1">
            <gpxtpx:hr>154</gpxtpx:hr>
          </gpxtpx:TrackPointExtension>
        </extensions>
      </trkpt>
      <trkpt lat="44.1681" lon="3.18897">
        <ele>790.6</ele>
        <time>2022-02-10T10:33:32Z</time>
        <extensions>
          <gpxtpx:TrackPointExtension xmlns:gpxtpx="http://www.garmin.com/xmlschemas/TrackPointExtension/v1">
            <gpxtpx:hr>155</gpxtpx:hr>
          </gpxtpx:TrackPointExtension>
        </extensions>
      </trkpt>
      <trkpt lat="44.16811" lon="3.18898">
        <ele>790.6</ele>
        <time>2022-02-10T10:33:34Z</time>
        <extensions>
          <gpxtpx:TrackPointExtension xmlns:gpxtpx="http://www.garmin.com/xmlschemas/TrackPointExtension/v1">
            <gpxtpx:hr>156</gpxtpx:hr>
          </gpxtpx:TrackPointExtension>
        </extensions>
      </trkpt>
      <trkpt lat="44.16812" lon="3.18898">
        <ele>790.6</ele>
        <time>2022-02-10T10:33:36Z</time>
        <extensions>
          <gpxtpx:TrackPointExtension xmlns:gpxtpx="http://www.garmin.com/xmlschemas/TrackPointExtension/v1">
            <gpxtpx:hr>155</gpxtpx:hr>
          </gpxtpx:TrackPointExtension>
        </extensions>
      </trkpt>
      <trkpt lat="44.16813" lon="3.18899">
        <ele>790.6</ele>
        <time>2022-02-10T10:33:38Z</time>
        <extensions>
          <gpxtpx:TrackPointExtension xmlns:gpxtpx="http://www.garmin.com/xmlschemas/TrackPointExtension/v1">
            <gpxtpx:hr>157</gpxtpx:hr>
          </gpxtpx:TrackPointExtension>
        </extensions>
      </trkpt>
      <trkpt lat="44.1681" lon="3.18899">
        <ele>790</ele>
        <time>2022-02-10T10:33:41Z</time>
        <extensions>
          <gpxtpx:TrackPointExtension xmlns:gpxtpx="http://www.garmin.com/xmlschemas/TrackPointExtension/v1">
            <gpxtpx:hr>157</gpxtpx:hr>
          </gpxtpx:TrackPointExtension>
        </extensions>
      </trkpt>
      <trkpt lat="44.16807" lon="3.18898">
        <ele>790</ele>
        <time>2022-02-10T10:33:44Z</time>
        <extensions>
          <gpxtpx:TrackPointExtension xmlns:gpxtpx="http://www.garmin.com/xmlschemas/TrackPointExtension/v1">
            <gpxtpx:hr>156</gpxtpx:hr>
          </gpxtpx:TrackPointExtension>
        </extensions>
      </trkpt>
      <trkpt lat="44.16805" lon="3.18898">
        <ele>789.8</ele>
        <time>2022-02-10T10:33:46Z</time>
        <extensions>
          <gpxtpx:TrackPointExtension xmlns:gpxtpx="http://www.garmin.com/xmlschemas/TrackPointExtension/v1">
            <gpxtpx:hr>154</gpxtpx:hr>
          </gpxtpx:TrackPointExtension>
        </extensions>
      </trkpt>
      <trkpt lat="44.16803" lon="3.18896">
        <ele>789.6</ele>
        <time>2022-02-10T10:33:49Z</time>
        <extensions>
          <gpxtpx:TrackPointExtension xmlns:gpxtpx="http://www.garmin.com/xmlschemas/TrackPointExtension/v1">
            <gpxtpx:hr>152</gpxtpx:hr>
          </gpxtpx:TrackPointExtension>
        </extensions>
      </trkpt>
      <trkpt lat="44.16805" lon="3.18895">
        <ele>789.2</ele>
        <time>2022-02-10T10:33:51Z</time>
        <extensions>
          <gpxtpx:TrackPointExtension xmlns:gpxtpx="http://www.garmin.com/xmlschemas/TrackPointExtension/v1">
            <gpxtpx:hr>151</gpxtpx:hr>
          </gpxtpx:TrackPointExtension>
        </extensions>
      </trkpt>
      <trkpt lat="44.16807" lon="3.18894">
        <ele>789.2</ele>
        <time>2022-02-10T10:33:52Z</time>
        <extensions>
          <gpxtpx:TrackPointExtension xmlns:gpxtpx="http://www.garmin.com/xmlschemas/TrackPointExtension/v1">
            <gpxtpx:hr>150</gpxtpx:hr>
          </gpxtpx:TrackPointExtension>
        </extensions>
      </trkpt>
      <trkpt lat="44.16812" lon="3.18892">
        <ele>789</ele>
        <time>2022-02-10T10:33:54Z</time>
        <extensions>
          <gpxtpx:TrackPointExtension xmlns:gpxtpx="http://www.garmin.com/xmlschemas/TrackPointExtension/v1">
            <gpxtpx:hr>150</gpxtpx:hr>
          </gpxtpx:TrackPointExtension>
        </extensions>
      </trkpt>
      <trkpt lat="44.16815" lon="3.18892">
        <ele>789</ele>
        <time>2022-02-10T10:33:55Z</time>
        <extensions>
          <gpxtpx:TrackPointExtension xmlns:gpxtpx="http://www.garmin.com/xmlschemas/TrackPointExtension/v1">
            <gpxtpx:hr>150</gpxtpx:hr>
          </gpxtpx:TrackPointExtension>
        </extensions>
      </trkpt>
      <trkpt lat="44.16821" lon="3.18893">
        <ele>788.8</ele>
        <time>2022-02-10T10:33:57Z</time>
        <extensions>
          <gpxtpx:TrackPointExtension xmlns:gpxtpx="http://www.garmin.com/xmlschemas/TrackPointExtension/v1">
            <gpxtpx:hr>146</gpxtpx:hr>
          </gpxtpx:TrackPointExtension>
        </extensions>
      </trkpt>
      <trkpt lat="44.16827" lon="3.18894">
        <ele>788.8</ele>
        <time>2022-02-10T10:33:59Z</time>
        <extensions>
          <gpxtpx:TrackPointExtension xmlns:gpxtpx="http://www.garmin.com/xmlschemas/TrackPointExtension/v1">
            <gpxtpx:hr>145</gpxtpx:hr>
          </gpxtpx:TrackPointExtension>
        </extensions>
      </trkpt>
      <trkpt lat="44.16832" lon="3.18895">
        <ele>788.8</ele>
        <time>2022-02-10T10:34:01Z</time>
        <extensions>
          <gpxtpx:TrackPointExtension xmlns:gpxtpx="http://www.garmin.com/xmlschemas/TrackPointExtension/v1">
            <gpxtpx:hr>145</gpxtpx:hr>
          </gpxtpx:TrackPointExtension>
        </extensions>
      </trkpt>
      <trkpt lat="44.16837" lon="3.18895">
        <ele>789</ele>
        <time>2022-02-10T10:34:03Z</time>
        <extensions>
          <gpxtpx:TrackPointExtension xmlns:gpxtpx="http://www.garmin.com/xmlschemas/TrackPointExtension/v1">
            <gpxtpx:hr>144</gpxtpx:hr>
          </gpxtpx:TrackPointExtension>
        </extensions>
      </trkpt>
      <trkpt lat="44.16838" lon="3.18895">
        <ele>789</ele>
        <time>2022-02-10T10:34:04Z</time>
        <extensions>
          <gpxtpx:TrackPointExtension xmlns:gpxtpx="http://www.garmin.com/xmlschemas/TrackPointExtension/v1">
            <gpxtpx:hr>144</gpxtpx:hr>
          </gpxtpx:TrackPointExtension>
        </extensions>
      </trkpt>
      <trkpt lat="44.16841" lon="3.18894">
        <ele>789</ele>
        <time>2022-02-10T10:34:05Z</time>
        <extensions>
          <gpxtpx:TrackPointExtension xmlns:gpxtpx="http://www.garmin.com/xmlschemas/TrackPointExtension/v1">
            <gpxtpx:hr>144</gpxtpx:hr>
          </gpxtpx:TrackPointExtension>
        </extensions>
      </trkpt>
      <trkpt lat="44.16843" lon="3.18893">
        <ele>789</ele>
        <time>2022-02-10T10:34:06Z</time>
        <extensions>
          <gpxtpx:TrackPointExtension xmlns:gpxtpx="http://www.garmin.com/xmlschemas/TrackPointExtension/v1">
            <gpxtpx:hr>144</gpxtpx:hr>
          </gpxtpx:TrackPointExtension>
        </extensions>
      </trkpt>
      <trkpt lat="44.16845" lon="3.18892">
        <ele>789</ele>
        <time>2022-02-10T10:34:07Z</time>
        <extensions>
          <gpxtpx:TrackPointExtension xmlns:gpxtpx="http://www.garmin.com/xmlschemas/TrackPointExtension/v1">
            <gpxtpx:hr>143</gpxtpx:hr>
          </gpxtpx:TrackPointExtension>
        </extensions>
      </trkpt>
      <trkpt lat="44.16846" lon="3.18891">
        <ele>788.8</ele>
        <time>2022-02-10T10:34:08Z</time>
        <extensions>
          <gpxtpx:TrackPointExtension xmlns:gpxtpx="http://www.garmin.com/xmlschemas/TrackPointExtension/v1">
            <gpxtpx:hr>142</gpxtpx:hr>
          </gpxtpx:TrackPointExtension>
        </extensions>
      </trkpt>
      <trkpt lat="44.16848" lon="3.18889">
        <ele>788.6</ele>
        <time>2022-02-10T10:34:10Z</time>
        <extensions>
          <gpxtpx:TrackPointExtension xmlns:gpxtpx="http://www.garmin.com/xmlschemas/TrackPointExtension/v1">
            <gpxtpx:hr>144</gpxtpx:hr>
          </gpxtpx:TrackPointExtension>
        </extensions>
      </trkpt>
      <trkpt lat="44.1685" lon="3.18887">
        <ele>788.6</ele>
        <time>2022-02-10T10:34:11Z</time>
        <extensions>
          <gpxtpx:TrackPointExtension xmlns:gpxtpx="http://www.garmin.com/xmlschemas/TrackPointExtension/v1">
            <gpxtpx:hr>144</gpxtpx:hr>
          </gpxtpx:TrackPointExtension>
        </extensions>
      </trkpt>
      <trkpt lat="44.16852" lon="3.18886">
        <ele>788.6</ele>
        <time>2022-02-10T10:34:12Z</time>
        <extensions>
          <gpxtpx:TrackPointExtension xmlns:gpxtpx="http://www.garmin.com/xmlschemas/TrackPointExtension/v1">
            <gpxtpx:hr>145</gpxtpx:hr>
          </gpxtpx:TrackPointExtension>
        </extensions>
      </trkpt>
      <trkpt lat="44.16855" lon="3.18883">
        <ele>788.2</ele>
        <time>2022-02-10T10:34:13Z</time>
        <extensions>
          <gpxtpx:TrackPointExtension xmlns:gpxtpx="http://www.garmin.com/xmlschemas/TrackPointExtension/v1">
            <gpxtpx:hr>145</gpxtpx:hr>
          </gpxtpx:TrackPointExtension>
        </extensions>
      </trkpt>
      <trkpt lat="44.16859" lon="3.18882">
        <ele>788.2</ele>
        <time>2022-02-10T10:34:15Z</time>
        <extensions>
          <gpxtpx:TrackPointExtension xmlns:gpxtpx="http://www.garmin.com/xmlschemas/TrackPointExtension/v1">
            <gpxtpx:hr>144</gpxtpx:hr>
          </gpxtpx:TrackPointExtension>
        </extensions>
      </trkpt>
      <trkpt lat="44.16872" lon="3.18865">
        <ele>784.1</ele>
      </trkpt>
      <trkpt lat="44.16876" lon="3.18854">
        <ele>783.9</ele>
      </trkpt>
      <trkpt lat="44.16871" lon="3.18834">
        <ele>783.6</ele>
      </trkpt>
      <trkpt lat="44.16867" lon="3.18824">
        <ele>783.8</ele>
      </trkpt>
      <trkpt lat="44.16865" lon="3.18808">
        <ele>783.9</ele>
      </trkpt>
      <trkpt lat="44.16874" lon="3.18794">
        <ele>783.5</ele>
      </trkpt>
      <trkpt lat="44.16891" lon="3.18791">
        <ele>782.9</ele>
      </trkpt>
      <trkpt lat="44.16903" lon="3.18782">
        <ele>782</ele>
      </trkpt>
      <trkpt lat="44.16911" lon="3.1877">
        <ele>781.4</ele>
      </trkpt>
      <trkpt lat="44.16933" lon="3.18768">
        <ele>780.2</ele>
      </trkpt>
      <trkpt lat="44.16979" lon="3.18768">
        <ele>780.3</ele>
      </trkpt>
      <trkpt lat="44.16985" lon="3.18761">
        <ele>780.3</ele>
      </trkpt>
      <trkpt lat="44.16989" lon="3.1874">
        <ele>779.4</ele>
      </trkpt>
      <trkpt lat="44.16994" lon="3.18704">
        <ele>777.6</ele>
      </trkpt>
      <trkpt lat="44.16995" lon="3.18658">
        <ele>776.4</ele>
      </trkpt>
      <trkpt lat="44.16995" lon="3.18646">
        <ele>777.8</ele>
        <time>2022-02-10T10:49:11Z</time>
        <extensions>
          <gpxtpx:TrackPointExtension xmlns:gpxtpx="http://www.garmin.com/xmlschemas/TrackPointExtension/v1">
            <gpxtpx:hr>131</gpxtpx:hr>
          </gpxtpx:TrackPointExtension>
        </extensions>
      </trkpt>
      <trkpt lat="44.16998" lon="3.18642">
        <ele>777.6</ele>
        <time>2022-02-10T10:49:13Z</time>
        <extensions>
          <gpxtpx:TrackPointExtension xmlns:gpxtpx="http://www.garmin.com/xmlschemas/TrackPointExtension/v1">
            <gpxtpx:hr>132</gpxtpx:hr>
          </gpxtpx:TrackPointExtension>
        </extensions>
      </trkpt>
      <trkpt lat="44.17002" lon="3.18639">
        <ele>777.6</ele>
        <time>2022-02-10T10:49:15Z</time>
        <extensions>
          <gpxtpx:TrackPointExtension xmlns:gpxtpx="http://www.garmin.com/xmlschemas/TrackPointExtension/v1">
            <gpxtpx:hr>135</gpxtpx:hr>
          </gpxtpx:TrackPointExtension>
        </extensions>
      </trkpt>
      <trkpt lat="44.17005" lon="3.18637">
        <ele>777.2</ele>
        <time>2022-02-10T10:49:16Z</time>
        <extensions>
          <gpxtpx:TrackPointExtension xmlns:gpxtpx="http://www.garmin.com/xmlschemas/TrackPointExtension/v1">
            <gpxtpx:hr>136</gpxtpx:hr>
          </gpxtpx:TrackPointExtension>
        </extensions>
      </trkpt>
      <trkpt lat="44.17007" lon="3.18636">
        <ele>777.2</ele>
        <time>2022-02-10T10:49:17Z</time>
        <extensions>
          <gpxtpx:TrackPointExtension xmlns:gpxtpx="http://www.garmin.com/xmlschemas/TrackPointExtension/v1">
            <gpxtpx:hr>136</gpxtpx:hr>
          </gpxtpx:TrackPointExtension>
        </extensions>
      </trkpt>
      <trkpt lat="44.17011" lon="3.18635">
        <ele>777.2</ele>
        <time>2022-02-10T10:49:18Z</time>
        <extensions>
          <gpxtpx:TrackPointExtension xmlns:gpxtpx="http://www.garmin.com/xmlschemas/TrackPointExtension/v1">
            <gpxtpx:hr>136</gpxtpx:hr>
          </gpxtpx:TrackPointExtension>
        </extensions>
      </trkpt>
      <trkpt lat="44.17012" lon="3.18634">
        <ele>777.2</ele>
        <time>2022-02-10T10:49:19Z</time>
        <extensions>
          <gpxtpx:TrackPointExtension xmlns:gpxtpx="http://www.garmin.com/xmlschemas/TrackPointExtension/v1">
            <gpxtpx:hr>138</gpxtpx:hr>
          </gpxtpx:TrackPointExtension>
        </extensions>
      </trkpt>
      <trkpt lat="44.17014" lon="3.18633">
        <ele>777</ele>
        <time>2022-02-10T10:49:20Z</time>
        <extensions>
          <gpxtpx:TrackPointExtension xmlns:gpxtpx="http://www.garmin.com/xmlschemas/TrackPointExtension/v1">
            <gpxtpx:hr>138</gpxtpx:hr>
          </gpxtpx:TrackPointExtension>
        </extensions>
      </trkpt>
      <trkpt lat="44.17019" lon="3.1863">
        <ele>777</ele>
        <time>2022-02-10T10:49:22Z</time>
        <extensions>
          <gpxtpx:TrackPointExtension xmlns:gpxtpx="http://www.garmin.com/xmlschemas/TrackPointExtension/v1">
            <gpxtpx:hr>138</gpxtpx:hr>
          </gpxtpx:TrackPointExtension>
        </extensions>
      </trkpt>
      <trkpt lat="44.17021" lon="3.18629">
        <ele>776.8</ele>
        <time>2022-02-10T10:49:23Z</time>
        <extensions>
          <gpxtpx:TrackPointExtension xmlns:gpxtpx="http://www.garmin.com/xmlschemas/TrackPointExtension/v1">
            <gpxtpx:hr>139</gpxtpx:hr>
          </gpxtpx:TrackPointExtension>
        </extensions>
      </trkpt>
      <trkpt lat="44.17024" lon="3.18628">
        <ele>776.8</ele>
        <time>2022-02-10T10:49:24Z</time>
        <extensions>
          <gpxtpx:TrackPointExtension xmlns:gpxtpx="http://www.garmin.com/xmlschemas/TrackPointExtension/v1">
            <gpxtpx:hr>138</gpxtpx:hr>
          </gpxtpx:TrackPointExtension>
        </extensions>
      </trkpt>
      <trkpt lat="44.17027" lon="3.18627">
        <ele>776.6</ele>
        <time>2022-02-10T10:49:25Z</time>
        <extensions>
          <gpxtpx:TrackPointExtension xmlns:gpxtpx="http://www.garmin.com/xmlschemas/TrackPointExtension/v1">
            <gpxtpx:hr>140</gpxtpx:hr>
          </gpxtpx:TrackPointExtension>
        </extensions>
      </trkpt>
      <trkpt lat="44.17031" lon="3.18627">
        <ele>776.6</ele>
        <time>2022-02-10T10:49:27Z</time>
        <extensions>
          <gpxtpx:TrackPointExtension xmlns:gpxtpx="http://www.garmin.com/xmlschemas/TrackPointExtension/v1">
            <gpxtpx:hr>139</gpxtpx:hr>
          </gpxtpx:TrackPointExtension>
        </extensions>
      </trkpt>
      <trkpt lat="44.17034" lon="3.18628">
        <ele>776.6</ele>
        <time>2022-02-10T10:49:28Z</time>
        <extensions>
          <gpxtpx:TrackPointExtension xmlns:gpxtpx="http://www.garmin.com/xmlschemas/TrackPointExtension/v1">
            <gpxtpx:hr>139</gpxtpx:hr>
          </gpxtpx:TrackPointExtension>
        </extensions>
      </trkpt>
      <trkpt lat="44.17037" lon="3.18628">
        <ele>776.6</ele>
        <time>2022-02-10T10:49:29Z</time>
        <extensions>
          <gpxtpx:TrackPointExtension xmlns:gpxtpx="http://www.garmin.com/xmlschemas/TrackPointExtension/v1">
            <gpxtpx:hr>141</gpxtpx:hr>
          </gpxtpx:TrackPointExtension>
        </extensions>
      </trkpt>
      <trkpt lat="44.17042" lon="3.1863">
        <ele>776.6</ele>
        <time>2022-02-10T10:49:31Z</time>
        <extensions>
          <gpxtpx:TrackPointExtension xmlns:gpxtpx="http://www.garmin.com/xmlschemas/TrackPointExtension/v1">
            <gpxtpx:hr>142</gpxtpx:hr>
          </gpxtpx:TrackPointExtension>
        </extensions>
      </trkpt>
      <trkpt lat="44.17045" lon="3.1863">
        <ele>776.6</ele>
        <time>2022-02-10T10:49:32Z</time>
        <extensions>
          <gpxtpx:TrackPointExtension xmlns:gpxtpx="http://www.garmin.com/xmlschemas/TrackPointExtension/v1">
            <gpxtpx:hr>143</gpxtpx:hr>
          </gpxtpx:TrackPointExtension>
        </extensions>
      </trkpt>
      <trkpt lat="44.17047" lon="3.1863">
        <ele>776.6</ele>
        <time>2022-02-10T10:49:33Z</time>
        <extensions>
          <gpxtpx:TrackPointExtension xmlns:gpxtpx="http://www.garmin.com/xmlschemas/TrackPointExtension/v1">
            <gpxtpx:hr>142</gpxtpx:hr>
          </gpxtpx:TrackPointExtension>
        </extensions>
      </trkpt>
      <trkpt lat="44.1705" lon="3.1863">
        <ele>776.6</ele>
        <time>2022-02-10T10:49:34Z</time>
        <extensions>
          <gpxtpx:TrackPointExtension xmlns:gpxtpx="http://www.garmin.com/xmlschemas/TrackPointExtension/v1">
            <gpxtpx:hr>142</gpxtpx:hr>
          </gpxtpx:TrackPointExtension>
        </extensions>
      </trkpt>
      <trkpt lat="44.17052" lon="3.1863">
        <ele>776.6</ele>
        <time>2022-02-10T10:49:35Z</time>
        <extensions>
          <gpxtpx:TrackPointExtension xmlns:gpxtpx="http://www.garmin.com/xmlschemas/TrackPointExtension/v1">
            <gpxtpx:hr>142</gpxtpx:hr>
          </gpxtpx:TrackPointExtension>
        </extensions>
      </trkpt>
      <trkpt lat="44.17057" lon="3.18629">
        <ele>776.6</ele>
        <time>2022-02-10T10:49:37Z</time>
        <extensions>
          <gpxtpx:TrackPointExtension xmlns:gpxtpx="http://www.garmin.com/xmlschemas/TrackPointExtension/v1">
            <gpxtpx:hr>143</gpxtpx:hr>
          </gpxtpx:TrackPointExtension>
        </extensions>
      </trkpt>
      <trkpt lat="44.1706" lon="3.18628">
        <ele>776.6</ele>
        <time>2022-02-10T10:49:38Z</time>
        <extensions>
          <gpxtpx:TrackPointExtension xmlns:gpxtpx="http://www.garmin.com/xmlschemas/TrackPointExtension/v1">
            <gpxtpx:hr>144</gpxtpx:hr>
          </gpxtpx:TrackPointExtension>
        </extensions>
      </trkpt>
      <trkpt lat="44.17062" lon="3.18627">
        <ele>776.6</ele>
        <time>2022-02-10T10:49:39Z</time>
        <extensions>
          <gpxtpx:TrackPointExtension xmlns:gpxtpx="http://www.garmin.com/xmlschemas/TrackPointExtension/v1">
            <gpxtpx:hr>142</gpxtpx:hr>
          </gpxtpx:TrackPointExtension>
        </extensions>
      </trkpt>
      <trkpt lat="44.17064" lon="3.18626">
        <ele>776.6</ele>
        <time>2022-02-10T10:49:40Z</time>
        <extensions>
          <gpxtpx:TrackPointExtension xmlns:gpxtpx="http://www.garmin.com/xmlschemas/TrackPointExtension/v1">
            <gpxtpx:hr>143</gpxtpx:hr>
          </gpxtpx:TrackPointExtension>
        </extensions>
      </trkpt>
      <trkpt lat="44.17067" lon="3.18624">
        <ele>776.6</ele>
        <time>2022-02-10T10:49:41Z</time>
        <extensions>
          <gpxtpx:TrackPointExtension xmlns:gpxtpx="http://www.garmin.com/xmlschemas/TrackPointExtension/v1">
            <gpxtpx:hr>144</gpxtpx:hr>
          </gpxtpx:TrackPointExtension>
        </extensions>
      </trkpt>
      <trkpt lat="44.17068" lon="3.18622">
        <ele>776.6</ele>
        <time>2022-02-10T10:49:42Z</time>
        <extensions>
          <gpxtpx:TrackPointExtension xmlns:gpxtpx="http://www.garmin.com/xmlschemas/TrackPointExtension/v1">
            <gpxtpx:hr>144</gpxtpx:hr>
          </gpxtpx:TrackPointExtension>
        </extensions>
      </trkpt>
      <trkpt lat="44.1707" lon="3.18619">
        <ele>776.6</ele>
        <time>2022-02-10T10:49:43Z</time>
        <extensions>
          <gpxtpx:TrackPointExtension xmlns:gpxtpx="http://www.garmin.com/xmlschemas/TrackPointExtension/v1">
            <gpxtpx:hr>145</gpxtpx:hr>
          </gpxtpx:TrackPointExtension>
        </extensions>
      </trkpt>
      <trkpt lat="44.1707" lon="3.18616">
        <ele>776.6</ele>
        <time>2022-02-10T10:49:44Z</time>
        <extensions>
          <gpxtpx:TrackPointExtension xmlns:gpxtpx="http://www.garmin.com/xmlschemas/TrackPointExtension/v1">
            <gpxtpx:hr>143</gpxtpx:hr>
          </gpxtpx:TrackPointExtension>
        </extensions>
      </trkpt>
      <trkpt lat="44.17071" lon="3.18613">
        <ele>776.6</ele>
        <time>2022-02-10T10:49:45Z</time>
        <extensions>
          <gpxtpx:TrackPointExtension xmlns:gpxtpx="http://www.garmin.com/xmlschemas/TrackPointExtension/v1">
            <gpxtpx:hr>143</gpxtpx:hr>
          </gpxtpx:TrackPointExtension>
        </extensions>
      </trkpt>
      <trkpt lat="44.1707" lon="3.18609">
        <ele>776.6</ele>
        <time>2022-02-10T10:49:46Z</time>
        <extensions>
          <gpxtpx:TrackPointExtension xmlns:gpxtpx="http://www.garmin.com/xmlschemas/TrackPointExtension/v1">
            <gpxtpx:hr>143</gpxtpx:hr>
          </gpxtpx:TrackPointExtension>
        </extensions>
      </trkpt>
      <trkpt lat="44.17069" lon="3.18606">
        <ele>776.6</ele>
        <time>2022-02-10T10:49:47Z</time>
        <extensions>
          <gpxtpx:TrackPointExtension xmlns:gpxtpx="http://www.garmin.com/xmlschemas/TrackPointExtension/v1">
            <gpxtpx:hr>145</gpxtpx:hr>
          </gpxtpx:TrackPointExtension>
        </extensions>
      </trkpt>
      <trkpt lat="44.17067" lon="3.186">
        <ele>776.8</ele>
        <time>2022-02-10T10:49:49Z</time>
        <extensions>
          <gpxtpx:TrackPointExtension xmlns:gpxtpx="http://www.garmin.com/xmlschemas/TrackPointExtension/v1">
            <gpxtpx:hr>145</gpxtpx:hr>
          </gpxtpx:TrackPointExtension>
        </extensions>
      </trkpt>
      <trkpt lat="44.17063" lon="3.18594">
        <ele>777.6</ele>
        <time>2022-02-10T10:49:51Z</time>
        <extensions>
          <gpxtpx:TrackPointExtension xmlns:gpxtpx="http://www.garmin.com/xmlschemas/TrackPointExtension/v1">
            <gpxtpx:hr>147</gpxtpx:hr>
          </gpxtpx:TrackPointExtension>
        </extensions>
      </trkpt>
      <trkpt lat="44.17062" lon="3.18592">
        <ele>777.8</ele>
        <time>2022-02-10T10:49:52Z</time>
        <extensions>
          <gpxtpx:TrackPointExtension xmlns:gpxtpx="http://www.garmin.com/xmlschemas/TrackPointExtension/v1">
            <gpxtpx:hr>148</gpxtpx:hr>
          </gpxtpx:TrackPointExtension>
        </extensions>
      </trkpt>
      <trkpt lat="44.17058" lon="3.18587">
        <ele>778.2</ele>
        <time>2022-02-10T10:49:54Z</time>
        <extensions>
          <gpxtpx:TrackPointExtension xmlns:gpxtpx="http://www.garmin.com/xmlschemas/TrackPointExtension/v1">
            <gpxtpx:hr>146</gpxtpx:hr>
          </gpxtpx:TrackPointExtension>
        </extensions>
      </trkpt>
      <trkpt lat="44.17057" lon="3.18585">
        <ele>778.2</ele>
        <time>2022-02-10T10:49:55Z</time>
        <extensions>
          <gpxtpx:TrackPointExtension xmlns:gpxtpx="http://www.garmin.com/xmlschemas/TrackPointExtension/v1">
            <gpxtpx:hr>146</gpxtpx:hr>
          </gpxtpx:TrackPointExtension>
        </extensions>
      </trkpt>
      <trkpt lat="44.17055" lon="3.18583">
        <ele>778.6</ele>
        <time>2022-02-10T10:49:56Z</time>
        <extensions>
          <gpxtpx:TrackPointExtension xmlns:gpxtpx="http://www.garmin.com/xmlschemas/TrackPointExtension/v1">
            <gpxtpx:hr>146</gpxtpx:hr>
          </gpxtpx:TrackPointExtension>
        </extensions>
      </trkpt>
      <trkpt lat="44.17052" lon="3.18577">
        <ele>778.6</ele>
        <time>2022-02-10T10:49:58Z</time>
        <extensions>
          <gpxtpx:TrackPointExtension xmlns:gpxtpx="http://www.garmin.com/xmlschemas/TrackPointExtension/v1">
            <gpxtpx:hr>148</gpxtpx:hr>
          </gpxtpx:TrackPointExtension>
        </extensions>
      </trkpt>
      <trkpt lat="44.17051" lon="3.18576">
        <ele>778.6</ele>
        <time>2022-02-10T10:49:59Z</time>
        <extensions>
          <gpxtpx:TrackPointExtension xmlns:gpxtpx="http://www.garmin.com/xmlschemas/TrackPointExtension/v1">
            <gpxtpx:hr>148</gpxtpx:hr>
          </gpxtpx:TrackPointExtension>
        </extensions>
      </trkpt>
      <trkpt lat="44.1705" lon="3.18574">
        <ele>778.6</ele>
        <time>2022-02-10T10:50:00Z</time>
        <extensions>
          <gpxtpx:TrackPointExtension xmlns:gpxtpx="http://www.garmin.com/xmlschemas/TrackPointExtension/v1">
            <gpxtpx:hr>149</gpxtpx:hr>
          </gpxtpx:TrackPointExtension>
        </extensions>
      </trkpt>
      <trkpt lat="44.17047" lon="3.18567">
        <ele>778.2</ele>
        <time>2022-02-10T10:50:03Z</time>
        <extensions>
          <gpxtpx:TrackPointExtension xmlns:gpxtpx="http://www.garmin.com/xmlschemas/TrackPointExtension/v1">
            <gpxtpx:hr>150</gpxtpx:hr>
          </gpxtpx:TrackPointExtension>
        </extensions>
      </trkpt>
      <trkpt lat="44.17046" lon="3.18563">
        <ele>777.8</ele>
        <time>2022-02-10T10:50:05Z</time>
        <extensions>
          <gpxtpx:TrackPointExtension xmlns:gpxtpx="http://www.garmin.com/xmlschemas/TrackPointExtension/v1">
            <gpxtpx:hr>150</gpxtpx:hr>
          </gpxtpx:TrackPointExtension>
        </extensions>
      </trkpt>
      <trkpt lat="44.17045" lon="3.18559">
        <ele>777.6</ele>
        <time>2022-02-10T10:50:06Z</time>
        <extensions>
          <gpxtpx:TrackPointExtension xmlns:gpxtpx="http://www.garmin.com/xmlschemas/TrackPointExtension/v1">
            <gpxtpx:hr>151</gpxtpx:hr>
          </gpxtpx:TrackPointExtension>
        </extensions>
      </trkpt>
      <trkpt lat="44.17043" lon="3.18556">
        <ele>777.2</ele>
        <time>2022-02-10T10:50:07Z</time>
        <extensions>
          <gpxtpx:TrackPointExtension xmlns:gpxtpx="http://www.garmin.com/xmlschemas/TrackPointExtension/v1">
            <gpxtpx:hr>152</gpxtpx:hr>
          </gpxtpx:TrackPointExtension>
        </extensions>
      </trkpt>
      <trkpt lat="44.17042" lon="3.18552">
        <ele>777</ele>
        <time>2022-02-10T10:50:08Z</time>
        <extensions>
          <gpxtpx:TrackPointExtension xmlns:gpxtpx="http://www.garmin.com/xmlschemas/TrackPointExtension/v1">
            <gpxtpx:hr>152</gpxtpx:hr>
          </gpxtpx:TrackPointExtension>
        </extensions>
      </trkpt>
      <trkpt lat="44.17041" lon="3.18548">
        <ele>776.6</ele>
        <time>2022-02-10T10:50:09Z</time>
        <extensions>
          <gpxtpx:TrackPointExtension xmlns:gpxtpx="http://www.garmin.com/xmlschemas/TrackPointExtension/v1">
            <gpxtpx:hr>153</gpxtpx:hr>
          </gpxtpx:TrackPointExtension>
        </extensions>
      </trkpt>
      <trkpt lat="44.17039" lon="3.18545">
        <ele>776.2</ele>
        <time>2022-02-10T10:50:10Z</time>
        <extensions>
          <gpxtpx:TrackPointExtension xmlns:gpxtpx="http://www.garmin.com/xmlschemas/TrackPointExtension/v1">
            <gpxtpx:hr>153</gpxtpx:hr>
          </gpxtpx:TrackPointExtension>
        </extensions>
      </trkpt>
      <trkpt lat="44.17037" lon="3.18541">
        <ele>775.8</ele>
        <time>2022-02-10T10:50:11Z</time>
        <extensions>
          <gpxtpx:TrackPointExtension xmlns:gpxtpx="http://www.garmin.com/xmlschemas/TrackPointExtension/v1">
            <gpxtpx:hr>154</gpxtpx:hr>
          </gpxtpx:TrackPointExtension>
        </extensions>
      </trkpt>
      <trkpt lat="44.17036" lon="3.18538">
        <ele>775.4</ele>
        <time>2022-02-10T10:50:12Z</time>
        <extensions>
          <gpxtpx:TrackPointExtension xmlns:gpxtpx="http://www.garmin.com/xmlschemas/TrackPointExtension/v1">
            <gpxtpx:hr>154</gpxtpx:hr>
          </gpxtpx:TrackPointExtension>
        </extensions>
      </trkpt>
      <trkpt lat="44.17034" lon="3.18535">
        <ele>774.6</ele>
        <time>2022-02-10T10:50:14Z</time>
        <extensions>
          <gpxtpx:TrackPointExtension xmlns:gpxtpx="http://www.garmin.com/xmlschemas/TrackPointExtension/v1">
            <gpxtpx:hr>154</gpxtpx:hr>
          </gpxtpx:TrackPointExtension>
        </extensions>
      </trkpt>
      <trkpt lat="44.17032" lon="3.18532">
        <ele>774.4</ele>
        <time>2022-02-10T10:50:15Z</time>
        <extensions>
          <gpxtpx:TrackPointExtension xmlns:gpxtpx="http://www.garmin.com/xmlschemas/TrackPointExtension/v1">
            <gpxtpx:hr>155</gpxtpx:hr>
          </gpxtpx:TrackPointExtension>
        </extensions>
      </trkpt>
      <trkpt lat="44.17031" lon="3.18529">
        <ele>774</ele>
        <time>2022-02-10T10:50:16Z</time>
        <extensions>
          <gpxtpx:TrackPointExtension xmlns:gpxtpx="http://www.garmin.com/xmlschemas/TrackPointExtension/v1">
            <gpxtpx:hr>154</gpxtpx:hr>
          </gpxtpx:TrackPointExtension>
        </extensions>
      </trkpt>
      <trkpt lat="44.17029" lon="3.18525">
        <ele>773.8</ele>
        <time>2022-02-10T10:50:17Z</time>
        <extensions>
          <gpxtpx:TrackPointExtension xmlns:gpxtpx="http://www.garmin.com/xmlschemas/TrackPointExtension/v1">
            <gpxtpx:hr>154</gpxtpx:hr>
          </gpxtpx:TrackPointExtension>
        </extensions>
      </trkpt>
      <trkpt lat="44.17028" lon="3.18523">
        <ele>773.4</ele>
        <time>2022-02-10T10:50:18Z</time>
        <extensions>
          <gpxtpx:TrackPointExtension xmlns:gpxtpx="http://www.garmin.com/xmlschemas/TrackPointExtension/v1">
            <gpxtpx:hr>154</gpxtpx:hr>
          </gpxtpx:TrackPointExtension>
        </extensions>
      </trkpt>
      <trkpt lat="44.17028" lon="3.1852">
        <ele>773</ele>
        <time>2022-02-10T10:50:19Z</time>
        <extensions>
          <gpxtpx:TrackPointExtension xmlns:gpxtpx="http://www.garmin.com/xmlschemas/TrackPointExtension/v1">
            <gpxtpx:hr>154</gpxtpx:hr>
          </gpxtpx:TrackPointExtension>
        </extensions>
      </trkpt>
      <trkpt lat="44.17027" lon="3.18517">
        <ele>772.8</ele>
        <time>2022-02-10T10:50:20Z</time>
        <extensions>
          <gpxtpx:TrackPointExtension xmlns:gpxtpx="http://www.garmin.com/xmlschemas/TrackPointExtension/v1">
            <gpxtpx:hr>153</gpxtpx:hr>
          </gpxtpx:TrackPointExtension>
        </extensions>
      </trkpt>
      <trkpt lat="44.17026" lon="3.18515">
        <ele>772.4</ele>
        <time>2022-02-10T10:50:21Z</time>
        <extensions>
          <gpxtpx:TrackPointExtension xmlns:gpxtpx="http://www.garmin.com/xmlschemas/TrackPointExtension/v1">
            <gpxtpx:hr>153</gpxtpx:hr>
          </gpxtpx:TrackPointExtension>
        </extensions>
      </trkpt>
      <trkpt lat="44.17025" lon="3.18512">
        <ele>772</ele>
        <time>2022-02-10T10:50:22Z</time>
        <extensions>
          <gpxtpx:TrackPointExtension xmlns:gpxtpx="http://www.garmin.com/xmlschemas/TrackPointExtension/v1">
            <gpxtpx:hr>153</gpxtpx:hr>
          </gpxtpx:TrackPointExtension>
        </extensions>
      </trkpt>
      <trkpt lat="44.17025" lon="3.18509">
        <ele>771.8</ele>
        <time>2022-02-10T10:50:23Z</time>
        <extensions>
          <gpxtpx:TrackPointExtension xmlns:gpxtpx="http://www.garmin.com/xmlschemas/TrackPointExtension/v1">
            <gpxtpx:hr>152</gpxtpx:hr>
          </gpxtpx:TrackPointExtension>
        </extensions>
      </trkpt>
      <trkpt lat="44.17026" lon="3.18506">
        <ele>771.4</ele>
        <time>2022-02-10T10:50:24Z</time>
        <extensions>
          <gpxtpx:TrackPointExtension xmlns:gpxtpx="http://www.garmin.com/xmlschemas/TrackPointExtension/v1">
            <gpxtpx:hr>149</gpxtpx:hr>
          </gpxtpx:TrackPointExtension>
        </extensions>
      </trkpt>
      <trkpt lat="44.17026" lon="3.18502">
        <ele>771.2</ele>
        <time>2022-02-10T10:50:25Z</time>
        <extensions>
          <gpxtpx:TrackPointExtension xmlns:gpxtpx="http://www.garmin.com/xmlschemas/TrackPointExtension/v1">
            <gpxtpx:hr>151</gpxtpx:hr>
          </gpxtpx:TrackPointExtension>
        </extensions>
      </trkpt>
      <trkpt lat="44.17026" lon="3.18499">
        <ele>771</ele>
        <time>2022-02-10T10:50:26Z</time>
        <extensions>
          <gpxtpx:TrackPointExtension xmlns:gpxtpx="http://www.garmin.com/xmlschemas/TrackPointExtension/v1">
            <gpxtpx:hr>151</gpxtpx:hr>
          </gpxtpx:TrackPointExtension>
        </extensions>
      </trkpt>
      <trkpt lat="44.17026" lon="3.18496">
        <ele>771</ele>
        <time>2022-02-10T10:50:27Z</time>
        <extensions>
          <gpxtpx:TrackPointExtension xmlns:gpxtpx="http://www.garmin.com/xmlschemas/TrackPointExtension/v1">
            <gpxtpx:hr>151</gpxtpx:hr>
          </gpxtpx:TrackPointExtension>
        </extensions>
      </trkpt>
      <trkpt lat="44.17029" lon="3.18493">
        <ele>770.6</ele>
        <time>2022-02-10T10:50:28Z</time>
        <extensions>
          <gpxtpx:TrackPointExtension xmlns:gpxtpx="http://www.garmin.com/xmlschemas/TrackPointExtension/v1">
            <gpxtpx:hr>151</gpxtpx:hr>
          </gpxtpx:TrackPointExtension>
        </extensions>
      </trkpt>
      <trkpt lat="44.17031" lon="3.1849">
        <ele>770.6</ele>
        <time>2022-02-10T10:50:29Z</time>
        <extensions>
          <gpxtpx:TrackPointExtension xmlns:gpxtpx="http://www.garmin.com/xmlschemas/TrackPointExtension/v1">
            <gpxtpx:hr>152</gpxtpx:hr>
          </gpxtpx:TrackPointExtension>
        </extensions>
      </trkpt>
      <trkpt lat="44.17034" lon="3.18487">
        <ele>770.4</ele>
        <time>2022-02-10T10:50:30Z</time>
        <extensions>
          <gpxtpx:TrackPointExtension xmlns:gpxtpx="http://www.garmin.com/xmlschemas/TrackPointExtension/v1">
            <gpxtpx:hr>152</gpxtpx:hr>
          </gpxtpx:TrackPointExtension>
        </extensions>
      </trkpt>
      <trkpt lat="44.17036" lon="3.18484">
        <ele>770.4</ele>
        <time>2022-02-10T10:50:31Z</time>
        <extensions>
          <gpxtpx:TrackPointExtension xmlns:gpxtpx="http://www.garmin.com/xmlschemas/TrackPointExtension/v1">
            <gpxtpx:hr>152</gpxtpx:hr>
          </gpxtpx:TrackPointExtension>
        </extensions>
      </trkpt>
      <trkpt lat="44.17039" lon="3.18483">
        <ele>770</ele>
        <time>2022-02-10T10:50:32Z</time>
        <extensions>
          <gpxtpx:TrackPointExtension xmlns:gpxtpx="http://www.garmin.com/xmlschemas/TrackPointExtension/v1">
            <gpxtpx:hr>151</gpxtpx:hr>
          </gpxtpx:TrackPointExtension>
        </extensions>
      </trkpt>
      <trkpt lat="44.17042" lon="3.18482">
        <ele>769.8</ele>
        <time>2022-02-10T10:50:34Z</time>
        <extensions>
          <gpxtpx:TrackPointExtension xmlns:gpxtpx="http://www.garmin.com/xmlschemas/TrackPointExtension/v1">
            <gpxtpx:hr>152</gpxtpx:hr>
          </gpxtpx:TrackPointExtension>
        </extensions>
      </trkpt>
      <trkpt lat="44.17044" lon="3.18482">
        <ele>769.8</ele>
        <time>2022-02-10T10:50:35Z</time>
        <extensions>
          <gpxtpx:TrackPointExtension xmlns:gpxtpx="http://www.garmin.com/xmlschemas/TrackPointExtension/v1">
            <gpxtpx:hr>153</gpxtpx:hr>
          </gpxtpx:TrackPointExtension>
        </extensions>
      </trkpt>
      <trkpt lat="44.17047" lon="3.18481">
        <ele>769.6</ele>
        <time>2022-02-10T10:50:36Z</time>
        <extensions>
          <gpxtpx:TrackPointExtension xmlns:gpxtpx="http://www.garmin.com/xmlschemas/TrackPointExtension/v1">
            <gpxtpx:hr>152</gpxtpx:hr>
          </gpxtpx:TrackPointExtension>
        </extensions>
      </trkpt>
      <trkpt lat="44.1705" lon="3.18481">
        <ele>769.6</ele>
        <time>2022-02-10T10:50:37Z</time>
        <extensions>
          <gpxtpx:TrackPointExtension xmlns:gpxtpx="http://www.garmin.com/xmlschemas/TrackPointExtension/v1">
            <gpxtpx:hr>151</gpxtpx:hr>
          </gpxtpx:TrackPointExtension>
        </extensions>
      </trkpt>
      <trkpt lat="44.17053" lon="3.1848">
        <ele>769.6</ele>
        <time>2022-02-10T10:50:38Z</time>
        <extensions>
          <gpxtpx:TrackPointExtension xmlns:gpxtpx="http://www.garmin.com/xmlschemas/TrackPointExtension/v1">
            <gpxtpx:hr>150</gpxtpx:hr>
          </gpxtpx:TrackPointExtension>
        </extensions>
      </trkpt>
      <trkpt lat="44.17056" lon="3.18479">
        <ele>769.2</ele>
        <time>2022-02-10T10:50:39Z</time>
        <extensions>
          <gpxtpx:TrackPointExtension xmlns:gpxtpx="http://www.garmin.com/xmlschemas/TrackPointExtension/v1">
            <gpxtpx:hr>149</gpxtpx:hr>
          </gpxtpx:TrackPointExtension>
        </extensions>
      </trkpt>
      <trkpt lat="44.17059" lon="3.18478">
        <ele>769.2</ele>
        <time>2022-02-10T10:50:40Z</time>
        <extensions>
          <gpxtpx:TrackPointExtension xmlns:gpxtpx="http://www.garmin.com/xmlschemas/TrackPointExtension/v1">
            <gpxtpx:hr>149</gpxtpx:hr>
          </gpxtpx:TrackPointExtension>
        </extensions>
      </trkpt>
      <trkpt lat="44.17062" lon="3.18477">
        <ele>769</ele>
        <time>2022-02-10T10:50:41Z</time>
        <extensions>
          <gpxtpx:TrackPointExtension xmlns:gpxtpx="http://www.garmin.com/xmlschemas/TrackPointExtension/v1">
            <gpxtpx:hr>149</gpxtpx:hr>
          </gpxtpx:TrackPointExtension>
        </extensions>
      </trkpt>
      <trkpt lat="44.17063" lon="3.18476">
        <ele>769</ele>
        <time>2022-02-10T10:50:42Z</time>
        <extensions>
          <gpxtpx:TrackPointExtension xmlns:gpxtpx="http://www.garmin.com/xmlschemas/TrackPointExtension/v1">
            <gpxtpx:hr>150</gpxtpx:hr>
          </gpxtpx:TrackPointExtension>
        </extensions>
      </trkpt>
      <trkpt lat="44.17069" lon="3.18474">
        <ele>769</ele>
        <time>2022-02-10T10:50:43Z</time>
        <extensions>
          <gpxtpx:TrackPointExtension xmlns:gpxtpx="http://www.garmin.com/xmlschemas/TrackPointExtension/v1">
            <gpxtpx:hr>149</gpxtpx:hr>
          </gpxtpx:TrackPointExtension>
        </extensions>
      </trkpt>
      <trkpt lat="44.17071" lon="3.18472">
        <ele>768.8</ele>
        <time>2022-02-10T10:50:44Z</time>
        <extensions>
          <gpxtpx:TrackPointExtension xmlns:gpxtpx="http://www.garmin.com/xmlschemas/TrackPointExtension/v1">
            <gpxtpx:hr>149</gpxtpx:hr>
          </gpxtpx:TrackPointExtension>
        </extensions>
      </trkpt>
      <trkpt lat="44.17074" lon="3.18471">
        <ele>768.8</ele>
        <time>2022-02-10T10:50:45Z</time>
        <extensions>
          <gpxtpx:TrackPointExtension xmlns:gpxtpx="http://www.garmin.com/xmlschemas/TrackPointExtension/v1">
            <gpxtpx:hr>146</gpxtpx:hr>
          </gpxtpx:TrackPointExtension>
        </extensions>
      </trkpt>
      <trkpt lat="44.17079" lon="3.18468">
        <ele>768.8</ele>
        <time>2022-02-10T10:50:47Z</time>
        <extensions>
          <gpxtpx:TrackPointExtension xmlns:gpxtpx="http://www.garmin.com/xmlschemas/TrackPointExtension/v1">
            <gpxtpx:hr>144</gpxtpx:hr>
          </gpxtpx:TrackPointExtension>
        </extensions>
      </trkpt>
      <trkpt lat="44.17081" lon="3.18467">
        <ele>768.4</ele>
        <time>2022-02-10T10:50:48Z</time>
        <extensions>
          <gpxtpx:TrackPointExtension xmlns:gpxtpx="http://www.garmin.com/xmlschemas/TrackPointExtension/v1">
            <gpxtpx:hr>146</gpxtpx:hr>
          </gpxtpx:TrackPointExtension>
        </extensions>
      </trkpt>
      <trkpt lat="44.17083" lon="3.18466">
        <ele>768.4</ele>
        <time>2022-02-10T10:50:49Z</time>
        <extensions>
          <gpxtpx:TrackPointExtension xmlns:gpxtpx="http://www.garmin.com/xmlschemas/TrackPointExtension/v1">
            <gpxtpx:hr>145</gpxtpx:hr>
          </gpxtpx:TrackPointExtension>
        </extensions>
      </trkpt>
      <trkpt lat="44.17086" lon="3.18465">
        <ele>768.4</ele>
        <time>2022-02-10T10:50:50Z</time>
        <extensions>
          <gpxtpx:TrackPointExtension xmlns:gpxtpx="http://www.garmin.com/xmlschemas/TrackPointExtension/v1">
            <gpxtpx:hr>147</gpxtpx:hr>
          </gpxtpx:TrackPointExtension>
        </extensions>
      </trkpt>
      <trkpt lat="44.17088" lon="3.18465">
        <ele>768.2</ele>
        <time>2022-02-10T10:50:51Z</time>
        <extensions>
          <gpxtpx:TrackPointExtension xmlns:gpxtpx="http://www.garmin.com/xmlschemas/TrackPointExtension/v1">
            <gpxtpx:hr>145</gpxtpx:hr>
          </gpxtpx:TrackPointExtension>
        </extensions>
      </trkpt>
      <trkpt lat="44.17091" lon="3.18465">
        <ele>768</ele>
        <time>2022-02-10T10:50:54Z</time>
        <extensions>
          <gpxtpx:TrackPointExtension xmlns:gpxtpx="http://www.garmin.com/xmlschemas/TrackPointExtension/v1">
            <gpxtpx:hr>144</gpxtpx:hr>
          </gpxtpx:TrackPointExtension>
        </extensions>
      </trkpt>
      <trkpt lat="44.17094" lon="3.18465">
        <ele>768</ele>
        <time>2022-02-10T10:50:55Z</time>
        <extensions>
          <gpxtpx:TrackPointExtension xmlns:gpxtpx="http://www.garmin.com/xmlschemas/TrackPointExtension/v1">
            <gpxtpx:hr>143</gpxtpx:hr>
          </gpxtpx:TrackPointExtension>
        </extensions>
      </trkpt>
      <trkpt lat="44.17097" lon="3.18465">
        <ele>768</ele>
        <time>2022-02-10T10:50:56Z</time>
        <extensions>
          <gpxtpx:TrackPointExtension xmlns:gpxtpx="http://www.garmin.com/xmlschemas/TrackPointExtension/v1">
            <gpxtpx:hr>143</gpxtpx:hr>
          </gpxtpx:TrackPointExtension>
        </extensions>
      </trkpt>
      <trkpt lat="44.171" lon="3.18465">
        <ele>767.6</ele>
        <time>2022-02-10T10:50:57Z</time>
        <extensions>
          <gpxtpx:TrackPointExtension xmlns:gpxtpx="http://www.garmin.com/xmlschemas/TrackPointExtension/v1">
            <gpxtpx:hr>143</gpxtpx:hr>
          </gpxtpx:TrackPointExtension>
        </extensions>
      </trkpt>
      <trkpt lat="44.17103" lon="3.18467">
        <ele>767.6</ele>
        <time>2022-02-10T10:50:58Z</time>
        <extensions>
          <gpxtpx:TrackPointExtension xmlns:gpxtpx="http://www.garmin.com/xmlschemas/TrackPointExtension/v1">
            <gpxtpx:hr>142</gpxtpx:hr>
          </gpxtpx:TrackPointExtension>
        </extensions>
      </trkpt>
      <trkpt lat="44.17106" lon="3.18468">
        <ele>767.6</ele>
        <time>2022-02-10T10:50:59Z</time>
        <extensions>
          <gpxtpx:TrackPointExtension xmlns:gpxtpx="http://www.garmin.com/xmlschemas/TrackPointExtension/v1">
            <gpxtpx:hr>144</gpxtpx:hr>
          </gpxtpx:TrackPointExtension>
        </extensions>
      </trkpt>
      <trkpt lat="44.17109" lon="3.18469">
        <ele>767.6</ele>
        <time>2022-02-10T10:51:00Z</time>
        <extensions>
          <gpxtpx:TrackPointExtension xmlns:gpxtpx="http://www.garmin.com/xmlschemas/TrackPointExtension/v1">
            <gpxtpx:hr>145</gpxtpx:hr>
          </gpxtpx:TrackPointExtension>
        </extensions>
      </trkpt>
      <trkpt lat="44.17113" lon="3.1847">
        <ele>767.6</ele>
        <time>2022-02-10T10:51:01Z</time>
        <extensions>
          <gpxtpx:TrackPointExtension xmlns:gpxtpx="http://www.garmin.com/xmlschemas/TrackPointExtension/v1">
            <gpxtpx:hr>144</gpxtpx:hr>
          </gpxtpx:TrackPointExtension>
        </extensions>
      </trkpt>
      <trkpt lat="44.17115" lon="3.18471">
        <ele>767.6</ele>
        <time>2022-02-10T10:51:02Z</time>
        <extensions>
          <gpxtpx:TrackPointExtension xmlns:gpxtpx="http://www.garmin.com/xmlschemas/TrackPointExtension/v1">
            <gpxtpx:hr>144</gpxtpx:hr>
          </gpxtpx:TrackPointExtension>
        </extensions>
      </trkpt>
      <trkpt lat="44.17117" lon="3.18472">
        <ele>767.6</ele>
        <time>2022-02-10T10:51:03Z</time>
        <extensions>
          <gpxtpx:TrackPointExtension xmlns:gpxtpx="http://www.garmin.com/xmlschemas/TrackPointExtension/v1">
            <gpxtpx:hr>143</gpxtpx:hr>
          </gpxtpx:TrackPointExtension>
        </extensions>
      </trkpt>
      <trkpt lat="44.17122" lon="3.18473">
        <ele>767.4</ele>
        <time>2022-02-10T10:51:05Z</time>
        <extensions>
          <gpxtpx:TrackPointExtension xmlns:gpxtpx="http://www.garmin.com/xmlschemas/TrackPointExtension/v1">
            <gpxtpx:hr>142</gpxtpx:hr>
          </gpxtpx:TrackPointExtension>
        </extensions>
      </trkpt>
      <trkpt lat="44.17124" lon="3.18472">
        <ele>767.2</ele>
        <time>2022-02-10T10:51:06Z</time>
        <extensions>
          <gpxtpx:TrackPointExtension xmlns:gpxtpx="http://www.garmin.com/xmlschemas/TrackPointExtension/v1">
            <gpxtpx:hr>141</gpxtpx:hr>
          </gpxtpx:TrackPointExtension>
        </extensions>
      </trkpt>
      <trkpt lat="44.17127" lon="3.18471">
        <ele>766.8</ele>
        <time>2022-02-10T10:51:08Z</time>
        <extensions>
          <gpxtpx:TrackPointExtension xmlns:gpxtpx="http://www.garmin.com/xmlschemas/TrackPointExtension/v1">
            <gpxtpx:hr>141</gpxtpx:hr>
          </gpxtpx:TrackPointExtension>
        </extensions>
      </trkpt>
      <trkpt lat="44.17128" lon="3.1847">
        <ele>766.8</ele>
        <time>2022-02-10T10:51:09Z</time>
        <extensions>
          <gpxtpx:TrackPointExtension xmlns:gpxtpx="http://www.garmin.com/xmlschemas/TrackPointExtension/v1">
            <gpxtpx:hr>143</gpxtpx:hr>
          </gpxtpx:TrackPointExtension>
        </extensions>
      </trkpt>
      <trkpt lat="44.17131" lon="3.18466">
        <ele>766.4</ele>
        <time>2022-02-10T10:51:11Z</time>
        <extensions>
          <gpxtpx:TrackPointExtension xmlns:gpxtpx="http://www.garmin.com/xmlschemas/TrackPointExtension/v1">
            <gpxtpx:hr>144</gpxtpx:hr>
          </gpxtpx:TrackPointExtension>
        </extensions>
      </trkpt>
      <trkpt lat="44.17134" lon="3.18463">
        <ele>766.2</ele>
        <time>2022-02-10T10:51:13Z</time>
        <extensions>
          <gpxtpx:TrackPointExtension xmlns:gpxtpx="http://www.garmin.com/xmlschemas/TrackPointExtension/v1">
            <gpxtpx:hr>145</gpxtpx:hr>
          </gpxtpx:TrackPointExtension>
        </extensions>
      </trkpt>
      <trkpt lat="44.17135" lon="3.18461">
        <ele>765.8</ele>
        <time>2022-02-10T10:51:14Z</time>
        <extensions>
          <gpxtpx:TrackPointExtension xmlns:gpxtpx="http://www.garmin.com/xmlschemas/TrackPointExtension/v1">
            <gpxtpx:hr>147</gpxtpx:hr>
          </gpxtpx:TrackPointExtension>
        </extensions>
      </trkpt>
      <trkpt lat="44.17137" lon="3.18459">
        <ele>765.8</ele>
        <time>2022-02-10T10:51:15Z</time>
        <extensions>
          <gpxtpx:TrackPointExtension xmlns:gpxtpx="http://www.garmin.com/xmlschemas/TrackPointExtension/v1">
            <gpxtpx:hr>146</gpxtpx:hr>
          </gpxtpx:TrackPointExtension>
        </extensions>
      </trkpt>
      <trkpt lat="44.17139" lon="3.18458">
        <ele>765.8</ele>
        <time>2022-02-10T10:51:16Z</time>
        <extensions>
          <gpxtpx:TrackPointExtension xmlns:gpxtpx="http://www.garmin.com/xmlschemas/TrackPointExtension/v1">
            <gpxtpx:hr>146</gpxtpx:hr>
          </gpxtpx:TrackPointExtension>
        </extensions>
      </trkpt>
      <trkpt lat="44.17141" lon="3.18456">
        <ele>765.6</ele>
        <time>2022-02-10T10:51:17Z</time>
        <extensions>
          <gpxtpx:TrackPointExtension xmlns:gpxtpx="http://www.garmin.com/xmlschemas/TrackPointExtension/v1">
            <gpxtpx:hr>147</gpxtpx:hr>
          </gpxtpx:TrackPointExtension>
        </extensions>
      </trkpt>
      <trkpt lat="44.17143" lon="3.18455">
        <ele>765.6</ele>
        <time>2022-02-10T10:51:18Z</time>
        <extensions>
          <gpxtpx:TrackPointExtension xmlns:gpxtpx="http://www.garmin.com/xmlschemas/TrackPointExtension/v1">
            <gpxtpx:hr>147</gpxtpx:hr>
          </gpxtpx:TrackPointExtension>
        </extensions>
      </trkpt>
      <trkpt lat="44.17145" lon="3.18453">
        <ele>765.6</ele>
        <time>2022-02-10T10:51:19Z</time>
        <extensions>
          <gpxtpx:TrackPointExtension xmlns:gpxtpx="http://www.garmin.com/xmlschemas/TrackPointExtension/v1">
            <gpxtpx:hr>145</gpxtpx:hr>
          </gpxtpx:TrackPointExtension>
        </extensions>
      </trkpt>
      <trkpt lat="44.17147" lon="3.18452">
        <ele>765.4</ele>
        <time>2022-02-10T10:51:20Z</time>
        <extensions>
          <gpxtpx:TrackPointExtension xmlns:gpxtpx="http://www.garmin.com/xmlschemas/TrackPointExtension/v1">
            <gpxtpx:hr>146</gpxtpx:hr>
          </gpxtpx:TrackPointExtension>
        </extensions>
      </trkpt>
      <trkpt lat="44.17149" lon="3.18451">
        <ele>765.4</ele>
        <time>2022-02-10T10:51:21Z</time>
        <extensions>
          <gpxtpx:TrackPointExtension xmlns:gpxtpx="http://www.garmin.com/xmlschemas/TrackPointExtension/v1">
            <gpxtpx:hr>145</gpxtpx:hr>
          </gpxtpx:TrackPointExtension>
        </extensions>
      </trkpt>
      <trkpt lat="44.17151" lon="3.1845">
        <ele>765.4</ele>
        <time>2022-02-10T10:51:22Z</time>
        <extensions>
          <gpxtpx:TrackPointExtension xmlns:gpxtpx="http://www.garmin.com/xmlschemas/TrackPointExtension/v1">
            <gpxtpx:hr>145</gpxtpx:hr>
          </gpxtpx:TrackPointExtension>
        </extensions>
      </trkpt>
      <trkpt lat="44.17154" lon="3.1845">
        <ele>765.2</ele>
        <time>2022-02-10T10:51:23Z</time>
        <extensions>
          <gpxtpx:TrackPointExtension xmlns:gpxtpx="http://www.garmin.com/xmlschemas/TrackPointExtension/v1">
            <gpxtpx:hr>145</gpxtpx:hr>
          </gpxtpx:TrackPointExtension>
        </extensions>
      </trkpt>
      <trkpt lat="44.17156" lon="3.18449">
        <ele>765.2</ele>
        <time>2022-02-10T10:51:24Z</time>
        <extensions>
          <gpxtpx:TrackPointExtension xmlns:gpxtpx="http://www.garmin.com/xmlschemas/TrackPointExtension/v1">
            <gpxtpx:hr>144</gpxtpx:hr>
          </gpxtpx:TrackPointExtension>
        </extensions>
      </trkpt>
      <trkpt lat="44.17158" lon="3.1845">
        <ele>765.2</ele>
        <time>2022-02-10T10:51:25Z</time>
        <extensions>
          <gpxtpx:TrackPointExtension xmlns:gpxtpx="http://www.garmin.com/xmlschemas/TrackPointExtension/v1">
            <gpxtpx:hr>143</gpxtpx:hr>
          </gpxtpx:TrackPointExtension>
        </extensions>
      </trkpt>
      <trkpt lat="44.17161" lon="3.1845">
        <ele>765.2</ele>
        <time>2022-02-10T10:51:26Z</time>
        <extensions>
          <gpxtpx:TrackPointExtension xmlns:gpxtpx="http://www.garmin.com/xmlschemas/TrackPointExtension/v1">
            <gpxtpx:hr>142</gpxtpx:hr>
          </gpxtpx:TrackPointExtension>
        </extensions>
      </trkpt>
      <trkpt lat="44.17163" lon="3.18451">
        <ele>764.8</ele>
        <time>2022-02-10T10:51:27Z</time>
        <extensions>
          <gpxtpx:TrackPointExtension xmlns:gpxtpx="http://www.garmin.com/xmlschemas/TrackPointExtension/v1">
            <gpxtpx:hr>141</gpxtpx:hr>
          </gpxtpx:TrackPointExtension>
        </extensions>
      </trkpt>
      <trkpt lat="44.17165" lon="3.18451">
        <ele>764.8</ele>
        <time>2022-02-10T10:51:28Z</time>
        <extensions>
          <gpxtpx:TrackPointExtension xmlns:gpxtpx="http://www.garmin.com/xmlschemas/TrackPointExtension/v1">
            <gpxtpx:hr>141</gpxtpx:hr>
          </gpxtpx:TrackPointExtension>
        </extensions>
      </trkpt>
      <trkpt lat="44.17168" lon="3.18452">
        <ele>764.6</ele>
        <time>2022-02-10T10:51:29Z</time>
        <extensions>
          <gpxtpx:TrackPointExtension xmlns:gpxtpx="http://www.garmin.com/xmlschemas/TrackPointExtension/v1">
            <gpxtpx:hr>139</gpxtpx:hr>
          </gpxtpx:TrackPointExtension>
        </extensions>
      </trkpt>
      <trkpt lat="44.17173" lon="3.18453">
        <ele>764.6</ele>
        <time>2022-02-10T10:51:31Z</time>
        <extensions>
          <gpxtpx:TrackPointExtension xmlns:gpxtpx="http://www.garmin.com/xmlschemas/TrackPointExtension/v1">
            <gpxtpx:hr>141</gpxtpx:hr>
          </gpxtpx:TrackPointExtension>
        </extensions>
      </trkpt>
      <trkpt lat="44.17175" lon="3.18454">
        <ele>764.2</ele>
        <time>2022-02-10T10:51:32Z</time>
        <extensions>
          <gpxtpx:TrackPointExtension xmlns:gpxtpx="http://www.garmin.com/xmlschemas/TrackPointExtension/v1">
            <gpxtpx:hr>142</gpxtpx:hr>
          </gpxtpx:TrackPointExtension>
        </extensions>
      </trkpt>
      <trkpt lat="44.17178" lon="3.18454">
        <ele>764.2</ele>
        <time>2022-02-10T10:51:33Z</time>
        <extensions>
          <gpxtpx:TrackPointExtension xmlns:gpxtpx="http://www.garmin.com/xmlschemas/TrackPointExtension/v1">
            <gpxtpx:hr>143</gpxtpx:hr>
          </gpxtpx:TrackPointExtension>
        </extensions>
      </trkpt>
      <trkpt lat="44.1718" lon="3.18455">
        <ele>764.2</ele>
        <time>2022-02-10T10:51:34Z</time>
        <extensions>
          <gpxtpx:TrackPointExtension xmlns:gpxtpx="http://www.garmin.com/xmlschemas/TrackPointExtension/v1">
            <gpxtpx:hr>143</gpxtpx:hr>
          </gpxtpx:TrackPointExtension>
        </extensions>
      </trkpt>
      <trkpt lat="44.17182" lon="3.18455">
        <ele>764</ele>
        <time>2022-02-10T10:51:35Z</time>
        <extensions>
          <gpxtpx:TrackPointExtension xmlns:gpxtpx="http://www.garmin.com/xmlschemas/TrackPointExtension/v1">
            <gpxtpx:hr>143</gpxtpx:hr>
          </gpxtpx:TrackPointExtension>
        </extensions>
      </trkpt>
      <trkpt lat="44.17184" lon="3.18456">
        <ele>764</ele>
        <time>2022-02-10T10:51:36Z</time>
        <extensions>
          <gpxtpx:TrackPointExtension xmlns:gpxtpx="http://www.garmin.com/xmlschemas/TrackPointExtension/v1">
            <gpxtpx:hr>142</gpxtpx:hr>
          </gpxtpx:TrackPointExtension>
        </extensions>
      </trkpt>
      <trkpt lat="44.17186" lon="3.18456">
        <ele>764</ele>
        <time>2022-02-10T10:51:37Z</time>
        <extensions>
          <gpxtpx:TrackPointExtension xmlns:gpxtpx="http://www.garmin.com/xmlschemas/TrackPointExtension/v1">
            <gpxtpx:hr>142</gpxtpx:hr>
          </gpxtpx:TrackPointExtension>
        </extensions>
      </trkpt>
      <trkpt lat="44.17188" lon="3.18456">
        <ele>764</ele>
        <time>2022-02-10T10:51:38Z</time>
        <extensions>
          <gpxtpx:TrackPointExtension xmlns:gpxtpx="http://www.garmin.com/xmlschemas/TrackPointExtension/v1">
            <gpxtpx:hr>142</gpxtpx:hr>
          </gpxtpx:TrackPointExtension>
        </extensions>
      </trkpt>
      <trkpt lat="44.1719" lon="3.18456">
        <ele>764</ele>
        <time>2022-02-10T10:51:39Z</time>
        <extensions>
          <gpxtpx:TrackPointExtension xmlns:gpxtpx="http://www.garmin.com/xmlschemas/TrackPointExtension/v1">
            <gpxtpx:hr>141</gpxtpx:hr>
          </gpxtpx:TrackPointExtension>
        </extensions>
      </trkpt>
      <trkpt lat="44.17195" lon="3.18456">
        <ele>763.8</ele>
        <time>2022-02-10T10:51:41Z</time>
        <extensions>
          <gpxtpx:TrackPointExtension xmlns:gpxtpx="http://www.garmin.com/xmlschemas/TrackPointExtension/v1">
            <gpxtpx:hr>139</gpxtpx:hr>
          </gpxtpx:TrackPointExtension>
        </extensions>
      </trkpt>
      <trkpt lat="44.17197" lon="3.18456">
        <ele>763.8</ele>
        <time>2022-02-10T10:51:42Z</time>
        <extensions>
          <gpxtpx:TrackPointExtension xmlns:gpxtpx="http://www.garmin.com/xmlschemas/TrackPointExtension/v1">
            <gpxtpx:hr>138</gpxtpx:hr>
          </gpxtpx:TrackPointExtension>
        </extensions>
      </trkpt>
      <trkpt lat="44.172" lon="3.18455">
        <ele>763.8</ele>
        <time>2022-02-10T10:51:43Z</time>
        <extensions>
          <gpxtpx:TrackPointExtension xmlns:gpxtpx="http://www.garmin.com/xmlschemas/TrackPointExtension/v1">
            <gpxtpx:hr>138</gpxtpx:hr>
          </gpxtpx:TrackPointExtension>
        </extensions>
      </trkpt>
      <trkpt lat="44.17204" lon="3.18454">
        <ele>763.6</ele>
        <time>2022-02-10T10:51:45Z</time>
        <extensions>
          <gpxtpx:TrackPointExtension xmlns:gpxtpx="http://www.garmin.com/xmlschemas/TrackPointExtension/v1">
            <gpxtpx:hr>138</gpxtpx:hr>
          </gpxtpx:TrackPointExtension>
        </extensions>
      </trkpt>
      <trkpt lat="44.17211" lon="3.18453">
        <ele>763.6</ele>
        <time>2022-02-10T10:51:48Z</time>
        <extensions>
          <gpxtpx:TrackPointExtension xmlns:gpxtpx="http://www.garmin.com/xmlschemas/TrackPointExtension/v1">
            <gpxtpx:hr>139</gpxtpx:hr>
          </gpxtpx:TrackPointExtension>
        </extensions>
      </trkpt>
      <trkpt lat="44.17213" lon="3.18453">
        <ele>763.4</ele>
        <time>2022-02-10T10:51:49Z</time>
        <extensions>
          <gpxtpx:TrackPointExtension xmlns:gpxtpx="http://www.garmin.com/xmlschemas/TrackPointExtension/v1">
            <gpxtpx:hr>141</gpxtpx:hr>
          </gpxtpx:TrackPointExtension>
        </extensions>
      </trkpt>
      <trkpt lat="44.17215" lon="3.18453">
        <ele>763.4</ele>
        <time>2022-02-10T10:51:50Z</time>
        <extensions>
          <gpxtpx:TrackPointExtension xmlns:gpxtpx="http://www.garmin.com/xmlschemas/TrackPointExtension/v1">
            <gpxtpx:hr>141</gpxtpx:hr>
          </gpxtpx:TrackPointExtension>
        </extensions>
      </trkpt>
      <trkpt lat="44.17217" lon="3.18453">
        <ele>763.4</ele>
        <time>2022-02-10T10:51:51Z</time>
        <extensions>
          <gpxtpx:TrackPointExtension xmlns:gpxtpx="http://www.garmin.com/xmlschemas/TrackPointExtension/v1">
            <gpxtpx:hr>140</gpxtpx:hr>
          </gpxtpx:TrackPointExtension>
        </extensions>
      </trkpt>
      <trkpt lat="44.17219" lon="3.18453">
        <ele>763.2</ele>
        <time>2022-02-10T10:51:53Z</time>
        <extensions>
          <gpxtpx:TrackPointExtension xmlns:gpxtpx="http://www.garmin.com/xmlschemas/TrackPointExtension/v1">
            <gpxtpx:hr>140</gpxtpx:hr>
          </gpxtpx:TrackPointExtension>
        </extensions>
      </trkpt>
      <trkpt lat="44.17221" lon="3.18453">
        <ele>763.2</ele>
        <time>2022-02-10T10:51:54Z</time>
        <extensions>
          <gpxtpx:TrackPointExtension xmlns:gpxtpx="http://www.garmin.com/xmlschemas/TrackPointExtension/v1">
            <gpxtpx:hr>141</gpxtpx:hr>
          </gpxtpx:TrackPointExtension>
        </extensions>
      </trkpt>
      <trkpt lat="44.17223" lon="3.18453">
        <ele>763</ele>
        <time>2022-02-10T10:51:55Z</time>
        <extensions>
          <gpxtpx:TrackPointExtension xmlns:gpxtpx="http://www.garmin.com/xmlschemas/TrackPointExtension/v1">
            <gpxtpx:hr>143</gpxtpx:hr>
          </gpxtpx:TrackPointExtension>
        </extensions>
      </trkpt>
      <trkpt lat="44.17226" lon="3.18453">
        <ele>763</ele>
        <time>2022-02-10T10:51:56Z</time>
        <extensions>
          <gpxtpx:TrackPointExtension xmlns:gpxtpx="http://www.garmin.com/xmlschemas/TrackPointExtension/v1">
            <gpxtpx:hr>143</gpxtpx:hr>
          </gpxtpx:TrackPointExtension>
        </extensions>
      </trkpt>
      <trkpt lat="44.17228" lon="3.18453">
        <ele>763</ele>
        <time>2022-02-10T10:51:57Z</time>
        <extensions>
          <gpxtpx:TrackPointExtension xmlns:gpxtpx="http://www.garmin.com/xmlschemas/TrackPointExtension/v1">
            <gpxtpx:hr>142</gpxtpx:hr>
          </gpxtpx:TrackPointExtension>
        </extensions>
      </trkpt>
      <trkpt lat="44.1723" lon="3.18453">
        <ele>763</ele>
        <time>2022-02-10T10:51:58Z</time>
        <extensions>
          <gpxtpx:TrackPointExtension xmlns:gpxtpx="http://www.garmin.com/xmlschemas/TrackPointExtension/v1">
            <gpxtpx:hr>141</gpxtpx:hr>
          </gpxtpx:TrackPointExtension>
        </extensions>
      </trkpt>
      <trkpt lat="44.17232" lon="3.18454">
        <ele>762.6</ele>
        <time>2022-02-10T10:51:59Z</time>
        <extensions>
          <gpxtpx:TrackPointExtension xmlns:gpxtpx="http://www.garmin.com/xmlschemas/TrackPointExtension/v1">
            <gpxtpx:hr>141</gpxtpx:hr>
          </gpxtpx:TrackPointExtension>
        </extensions>
      </trkpt>
      <trkpt lat="44.17234" lon="3.18454">
        <ele>762.6</ele>
        <time>2022-02-10T10:52:00Z</time>
        <extensions>
          <gpxtpx:TrackPointExtension xmlns:gpxtpx="http://www.garmin.com/xmlschemas/TrackPointExtension/v1">
            <gpxtpx:hr>140</gpxtpx:hr>
          </gpxtpx:TrackPointExtension>
        </extensions>
      </trkpt>
      <trkpt lat="44.17237" lon="3.18455">
        <ele>762.4</ele>
        <time>2022-02-10T10:52:01Z</time>
        <extensions>
          <gpxtpx:TrackPointExtension xmlns:gpxtpx="http://www.garmin.com/xmlschemas/TrackPointExtension/v1">
            <gpxtpx:hr>137</gpxtpx:hr>
          </gpxtpx:TrackPointExtension>
        </extensions>
      </trkpt>
      <trkpt lat="44.17239" lon="3.18456">
        <ele>762.4</ele>
        <time>2022-02-10T10:52:02Z</time>
        <extensions>
          <gpxtpx:TrackPointExtension xmlns:gpxtpx="http://www.garmin.com/xmlschemas/TrackPointExtension/v1">
            <gpxtpx:hr>137</gpxtpx:hr>
          </gpxtpx:TrackPointExtension>
        </extensions>
      </trkpt>
      <trkpt lat="44.17241" lon="3.18457">
        <ele>762</ele>
        <time>2022-02-10T10:52:03Z</time>
        <extensions>
          <gpxtpx:TrackPointExtension xmlns:gpxtpx="http://www.garmin.com/xmlschemas/TrackPointExtension/v1">
            <gpxtpx:hr>138</gpxtpx:hr>
          </gpxtpx:TrackPointExtension>
        </extensions>
      </trkpt>
      <trkpt lat="44.17243" lon="3.18458">
        <ele>762</ele>
        <time>2022-02-10T10:52:04Z</time>
        <extensions>
          <gpxtpx:TrackPointExtension xmlns:gpxtpx="http://www.garmin.com/xmlschemas/TrackPointExtension/v1">
            <gpxtpx:hr>136</gpxtpx:hr>
          </gpxtpx:TrackPointExtension>
        </extensions>
      </trkpt>
      <trkpt lat="44.17246" lon="3.18459">
        <ele>761.8</ele>
        <time>2022-02-10T10:52:05Z</time>
        <extensions>
          <gpxtpx:TrackPointExtension xmlns:gpxtpx="http://www.garmin.com/xmlschemas/TrackPointExtension/v1">
            <gpxtpx:hr>135</gpxtpx:hr>
          </gpxtpx:TrackPointExtension>
        </extensions>
      </trkpt>
      <trkpt lat="44.17249" lon="3.18461">
        <ele>761.8</ele>
        <time>2022-02-10T10:52:06Z</time>
        <extensions>
          <gpxtpx:TrackPointExtension xmlns:gpxtpx="http://www.garmin.com/xmlschemas/TrackPointExtension/v1">
            <gpxtpx:hr>136</gpxtpx:hr>
          </gpxtpx:TrackPointExtension>
        </extensions>
      </trkpt>
      <trkpt lat="44.17252" lon="3.18464">
        <ele>761.4</ele>
        <time>2022-02-10T10:52:07Z</time>
        <extensions>
          <gpxtpx:TrackPointExtension xmlns:gpxtpx="http://www.garmin.com/xmlschemas/TrackPointExtension/v1">
            <gpxtpx:hr>136</gpxtpx:hr>
          </gpxtpx:TrackPointExtension>
        </extensions>
      </trkpt>
      <trkpt lat="44.17254" lon="3.18466">
        <ele>761</ele>
        <time>2022-02-10T10:52:08Z</time>
        <extensions>
          <gpxtpx:TrackPointExtension xmlns:gpxtpx="http://www.garmin.com/xmlschemas/TrackPointExtension/v1">
            <gpxtpx:hr>138</gpxtpx:hr>
          </gpxtpx:TrackPointExtension>
        </extensions>
      </trkpt>
      <trkpt lat="44.17257" lon="3.18467">
        <ele>761</ele>
        <time>2022-02-10T10:52:09Z</time>
        <extensions>
          <gpxtpx:TrackPointExtension xmlns:gpxtpx="http://www.garmin.com/xmlschemas/TrackPointExtension/v1">
            <gpxtpx:hr>138</gpxtpx:hr>
          </gpxtpx:TrackPointExtension>
        </extensions>
      </trkpt>
      <trkpt lat="44.17259" lon="3.18469">
        <ele>760.8</ele>
        <time>2022-02-10T10:52:10Z</time>
        <extensions>
          <gpxtpx:TrackPointExtension xmlns:gpxtpx="http://www.garmin.com/xmlschemas/TrackPointExtension/v1">
            <gpxtpx:hr>139</gpxtpx:hr>
          </gpxtpx:TrackPointExtension>
        </extensions>
      </trkpt>
      <trkpt lat="44.17261" lon="3.1847">
        <ele>760.6</ele>
        <time>2022-02-10T10:52:11Z</time>
        <extensions>
          <gpxtpx:TrackPointExtension xmlns:gpxtpx="http://www.garmin.com/xmlschemas/TrackPointExtension/v1">
            <gpxtpx:hr>139</gpxtpx:hr>
          </gpxtpx:TrackPointExtension>
        </extensions>
      </trkpt>
      <trkpt lat="44.17263" lon="3.18471">
        <ele>760.6</ele>
        <time>2022-02-10T10:52:12Z</time>
        <extensions>
          <gpxtpx:TrackPointExtension xmlns:gpxtpx="http://www.garmin.com/xmlschemas/TrackPointExtension/v1">
            <gpxtpx:hr>140</gpxtpx:hr>
          </gpxtpx:TrackPointExtension>
        </extensions>
      </trkpt>
      <trkpt lat="44.17265" lon="3.18472">
        <ele>760.4</ele>
        <time>2022-02-10T10:52:13Z</time>
        <extensions>
          <gpxtpx:TrackPointExtension xmlns:gpxtpx="http://www.garmin.com/xmlschemas/TrackPointExtension/v1">
            <gpxtpx:hr>140</gpxtpx:hr>
          </gpxtpx:TrackPointExtension>
        </extensions>
      </trkpt>
      <trkpt lat="44.17268" lon="3.18472">
        <ele>760</ele>
        <time>2022-02-10T10:52:14Z</time>
        <extensions>
          <gpxtpx:TrackPointExtension xmlns:gpxtpx="http://www.garmin.com/xmlschemas/TrackPointExtension/v1">
            <gpxtpx:hr>140</gpxtpx:hr>
          </gpxtpx:TrackPointExtension>
        </extensions>
      </trkpt>
      <trkpt lat="44.17271" lon="3.18473">
        <ele>759.6</ele>
        <time>2022-02-10T10:52:15Z</time>
        <extensions>
          <gpxtpx:TrackPointExtension xmlns:gpxtpx="http://www.garmin.com/xmlschemas/TrackPointExtension/v1">
            <gpxtpx:hr>141</gpxtpx:hr>
          </gpxtpx:TrackPointExtension>
        </extensions>
      </trkpt>
      <trkpt lat="44.17274" lon="3.18473">
        <ele>759.2</ele>
        <time>2022-02-10T10:52:16Z</time>
        <extensions>
          <gpxtpx:TrackPointExtension xmlns:gpxtpx="http://www.garmin.com/xmlschemas/TrackPointExtension/v1">
            <gpxtpx:hr>141</gpxtpx:hr>
          </gpxtpx:TrackPointExtension>
        </extensions>
      </trkpt>
      <trkpt lat="44.17276" lon="3.18473">
        <ele>759</ele>
        <time>2022-02-10T10:52:17Z</time>
        <extensions>
          <gpxtpx:TrackPointExtension xmlns:gpxtpx="http://www.garmin.com/xmlschemas/TrackPointExtension/v1">
            <gpxtpx:hr>141</gpxtpx:hr>
          </gpxtpx:TrackPointExtension>
        </extensions>
      </trkpt>
      <trkpt lat="44.17278" lon="3.18474">
        <ele>758.6</ele>
        <time>2022-02-10T10:52:18Z</time>
        <extensions>
          <gpxtpx:TrackPointExtension xmlns:gpxtpx="http://www.garmin.com/xmlschemas/TrackPointExtension/v1">
            <gpxtpx:hr>142</gpxtpx:hr>
          </gpxtpx:TrackPointExtension>
        </extensions>
      </trkpt>
      <trkpt lat="44.1728" lon="3.18474">
        <ele>758.4</ele>
        <time>2022-02-10T10:52:19Z</time>
        <extensions>
          <gpxtpx:TrackPointExtension xmlns:gpxtpx="http://www.garmin.com/xmlschemas/TrackPointExtension/v1">
            <gpxtpx:hr>143</gpxtpx:hr>
          </gpxtpx:TrackPointExtension>
        </extensions>
      </trkpt>
      <trkpt lat="44.17282" lon="3.18475">
        <ele>758</ele>
        <time>2022-02-10T10:52:20Z</time>
        <extensions>
          <gpxtpx:TrackPointExtension xmlns:gpxtpx="http://www.garmin.com/xmlschemas/TrackPointExtension/v1">
            <gpxtpx:hr>144</gpxtpx:hr>
          </gpxtpx:TrackPointExtension>
        </extensions>
      </trkpt>
      <trkpt lat="44.17285" lon="3.18475">
        <ele>757.6</ele>
        <time>2022-02-10T10:52:21Z</time>
        <extensions>
          <gpxtpx:TrackPointExtension xmlns:gpxtpx="http://www.garmin.com/xmlschemas/TrackPointExtension/v1">
            <gpxtpx:hr>143</gpxtpx:hr>
          </gpxtpx:TrackPointExtension>
        </extensions>
      </trkpt>
      <trkpt lat="44.17286" lon="3.18478">
        <ele>757.2</ele>
        <time>2022-02-10T10:52:22Z</time>
        <extensions>
          <gpxtpx:TrackPointExtension xmlns:gpxtpx="http://www.garmin.com/xmlschemas/TrackPointExtension/v1">
            <gpxtpx:hr>143</gpxtpx:hr>
          </gpxtpx:TrackPointExtension>
        </extensions>
      </trkpt>
      <trkpt lat="44.17288" lon="3.1848">
        <ele>756.6</ele>
        <time>2022-02-10T10:52:23Z</time>
        <extensions>
          <gpxtpx:TrackPointExtension xmlns:gpxtpx="http://www.garmin.com/xmlschemas/TrackPointExtension/v1">
            <gpxtpx:hr>143</gpxtpx:hr>
          </gpxtpx:TrackPointExtension>
        </extensions>
      </trkpt>
      <trkpt lat="44.1729" lon="3.18483">
        <ele>756.2</ele>
        <time>2022-02-10T10:52:24Z</time>
        <extensions>
          <gpxtpx:TrackPointExtension xmlns:gpxtpx="http://www.garmin.com/xmlschemas/TrackPointExtension/v1">
            <gpxtpx:hr>143</gpxtpx:hr>
          </gpxtpx:TrackPointExtension>
        </extensions>
      </trkpt>
      <trkpt lat="44.17291" lon="3.18485">
        <ele>755.8</ele>
        <time>2022-02-10T10:52:25Z</time>
        <extensions>
          <gpxtpx:TrackPointExtension xmlns:gpxtpx="http://www.garmin.com/xmlschemas/TrackPointExtension/v1">
            <gpxtpx:hr>144</gpxtpx:hr>
          </gpxtpx:TrackPointExtension>
        </extensions>
      </trkpt>
      <trkpt lat="44.17292" lon="3.18488">
        <ele>755.2</ele>
        <time>2022-02-10T10:52:26Z</time>
        <extensions>
          <gpxtpx:TrackPointExtension xmlns:gpxtpx="http://www.garmin.com/xmlschemas/TrackPointExtension/v1">
            <gpxtpx:hr>144</gpxtpx:hr>
          </gpxtpx:TrackPointExtension>
        </extensions>
      </trkpt>
      <trkpt lat="44.17293" lon="3.18491">
        <ele>755.2</ele>
        <time>2022-02-10T10:52:27Z</time>
        <extensions>
          <gpxtpx:TrackPointExtension xmlns:gpxtpx="http://www.garmin.com/xmlschemas/TrackPointExtension/v1">
            <gpxtpx:hr>144</gpxtpx:hr>
          </gpxtpx:TrackPointExtension>
        </extensions>
      </trkpt>
      <trkpt lat="44.17294" lon="3.18493">
        <ele>754.6</ele>
        <time>2022-02-10T10:52:28Z</time>
        <extensions>
          <gpxtpx:TrackPointExtension xmlns:gpxtpx="http://www.garmin.com/xmlschemas/TrackPointExtension/v1">
            <gpxtpx:hr>145</gpxtpx:hr>
          </gpxtpx:TrackPointExtension>
        </extensions>
      </trkpt>
      <trkpt lat="44.17295" lon="3.18496">
        <ele>754</ele>
        <time>2022-02-10T10:52:29Z</time>
        <extensions>
          <gpxtpx:TrackPointExtension xmlns:gpxtpx="http://www.garmin.com/xmlschemas/TrackPointExtension/v1">
            <gpxtpx:hr>144</gpxtpx:hr>
          </gpxtpx:TrackPointExtension>
        </extensions>
      </trkpt>
      <trkpt lat="44.17296" lon="3.18498">
        <ele>753.4</ele>
        <time>2022-02-10T10:52:30Z</time>
        <extensions>
          <gpxtpx:TrackPointExtension xmlns:gpxtpx="http://www.garmin.com/xmlschemas/TrackPointExtension/v1">
            <gpxtpx:hr>145</gpxtpx:hr>
          </gpxtpx:TrackPointExtension>
        </extensions>
      </trkpt>
      <trkpt lat="44.17297" lon="3.18503">
        <ele>752.8</ele>
        <time>2022-02-10T10:52:31Z</time>
        <extensions>
          <gpxtpx:TrackPointExtension xmlns:gpxtpx="http://www.garmin.com/xmlschemas/TrackPointExtension/v1">
            <gpxtpx:hr>146</gpxtpx:hr>
          </gpxtpx:TrackPointExtension>
        </extensions>
      </trkpt>
      <trkpt lat="44.17299" lon="3.18508">
        <ele>752.2</ele>
        <time>2022-02-10T10:52:32Z</time>
        <extensions>
          <gpxtpx:TrackPointExtension xmlns:gpxtpx="http://www.garmin.com/xmlschemas/TrackPointExtension/v1">
            <gpxtpx:hr>146</gpxtpx:hr>
          </gpxtpx:TrackPointExtension>
        </extensions>
      </trkpt>
      <trkpt lat="44.173" lon="3.18513">
        <ele>751.6</ele>
        <time>2022-02-10T10:52:33Z</time>
        <extensions>
          <gpxtpx:TrackPointExtension xmlns:gpxtpx="http://www.garmin.com/xmlschemas/TrackPointExtension/v1">
            <gpxtpx:hr>148</gpxtpx:hr>
          </gpxtpx:TrackPointExtension>
        </extensions>
      </trkpt>
      <trkpt lat="44.17302" lon="3.18516">
        <ele>751.2</ele>
        <time>2022-02-10T10:52:34Z</time>
        <extensions>
          <gpxtpx:TrackPointExtension xmlns:gpxtpx="http://www.garmin.com/xmlschemas/TrackPointExtension/v1">
            <gpxtpx:hr>147</gpxtpx:hr>
          </gpxtpx:TrackPointExtension>
        </extensions>
      </trkpt>
      <trkpt lat="44.17303" lon="3.18519">
        <ele>750.6</ele>
        <time>2022-02-10T10:52:35Z</time>
        <extensions>
          <gpxtpx:TrackPointExtension xmlns:gpxtpx="http://www.garmin.com/xmlschemas/TrackPointExtension/v1">
            <gpxtpx:hr>147</gpxtpx:hr>
          </gpxtpx:TrackPointExtension>
        </extensions>
      </trkpt>
      <trkpt lat="44.17304" lon="3.18522">
        <ele>750.2</ele>
        <time>2022-02-10T10:52:36Z</time>
        <extensions>
          <gpxtpx:TrackPointExtension xmlns:gpxtpx="http://www.garmin.com/xmlschemas/TrackPointExtension/v1">
            <gpxtpx:hr>147</gpxtpx:hr>
          </gpxtpx:TrackPointExtension>
        </extensions>
      </trkpt>
      <trkpt lat="44.17306" lon="3.18524">
        <ele>749.8</ele>
        <time>2022-02-10T10:52:37Z</time>
        <extensions>
          <gpxtpx:TrackPointExtension xmlns:gpxtpx="http://www.garmin.com/xmlschemas/TrackPointExtension/v1">
            <gpxtpx:hr>147</gpxtpx:hr>
          </gpxtpx:TrackPointExtension>
        </extensions>
      </trkpt>
      <trkpt lat="44.17308" lon="3.18527">
        <ele>749.6</ele>
        <time>2022-02-10T10:52:38Z</time>
        <extensions>
          <gpxtpx:TrackPointExtension xmlns:gpxtpx="http://www.garmin.com/xmlschemas/TrackPointExtension/v1">
            <gpxtpx:hr>147</gpxtpx:hr>
          </gpxtpx:TrackPointExtension>
        </extensions>
      </trkpt>
      <trkpt lat="44.17309" lon="3.1853">
        <ele>749.2</ele>
        <time>2022-02-10T10:52:39Z</time>
        <extensions>
          <gpxtpx:TrackPointExtension xmlns:gpxtpx="http://www.garmin.com/xmlschemas/TrackPointExtension/v1">
            <gpxtpx:hr>146</gpxtpx:hr>
          </gpxtpx:TrackPointExtension>
        </extensions>
      </trkpt>
      <trkpt lat="44.17311" lon="3.18533">
        <ele>749</ele>
        <time>2022-02-10T10:52:40Z</time>
        <extensions>
          <gpxtpx:TrackPointExtension xmlns:gpxtpx="http://www.garmin.com/xmlschemas/TrackPointExtension/v1">
            <gpxtpx:hr>146</gpxtpx:hr>
          </gpxtpx:TrackPointExtension>
        </extensions>
      </trkpt>
      <trkpt lat="44.17313" lon="3.18536">
        <ele>748.8</ele>
        <time>2022-02-10T10:52:41Z</time>
        <extensions>
          <gpxtpx:TrackPointExtension xmlns:gpxtpx="http://www.garmin.com/xmlschemas/TrackPointExtension/v1">
            <gpxtpx:hr>146</gpxtpx:hr>
          </gpxtpx:TrackPointExtension>
        </extensions>
      </trkpt>
      <trkpt lat="44.17315" lon="3.18539">
        <ele>748.6</ele>
        <time>2022-02-10T10:52:42Z</time>
        <extensions>
          <gpxtpx:TrackPointExtension xmlns:gpxtpx="http://www.garmin.com/xmlschemas/TrackPointExtension/v1">
            <gpxtpx:hr>144</gpxtpx:hr>
          </gpxtpx:TrackPointExtension>
        </extensions>
      </trkpt>
      <trkpt lat="44.17317" lon="3.18542">
        <ele>748.6</ele>
        <time>2022-02-10T10:52:43Z</time>
        <extensions>
          <gpxtpx:TrackPointExtension xmlns:gpxtpx="http://www.garmin.com/xmlschemas/TrackPointExtension/v1">
            <gpxtpx:hr>144</gpxtpx:hr>
          </gpxtpx:TrackPointExtension>
        </extensions>
      </trkpt>
      <trkpt lat="44.17319" lon="3.18546">
        <ele>748.2</ele>
        <time>2022-02-10T10:52:44Z</time>
        <extensions>
          <gpxtpx:TrackPointExtension xmlns:gpxtpx="http://www.garmin.com/xmlschemas/TrackPointExtension/v1">
            <gpxtpx:hr>143</gpxtpx:hr>
          </gpxtpx:TrackPointExtension>
        </extensions>
      </trkpt>
      <trkpt lat="44.17321" lon="3.18549">
        <ele>748.2</ele>
        <time>2022-02-10T10:52:45Z</time>
        <extensions>
          <gpxtpx:TrackPointExtension xmlns:gpxtpx="http://www.garmin.com/xmlschemas/TrackPointExtension/v1">
            <gpxtpx:hr>144</gpxtpx:hr>
          </gpxtpx:TrackPointExtension>
        </extensions>
      </trkpt>
      <trkpt lat="44.17323" lon="3.18552">
        <ele>748</ele>
        <time>2022-02-10T10:52:46Z</time>
        <extensions>
          <gpxtpx:TrackPointExtension xmlns:gpxtpx="http://www.garmin.com/xmlschemas/TrackPointExtension/v1">
            <gpxtpx:hr>144</gpxtpx:hr>
          </gpxtpx:TrackPointExtension>
        </extensions>
      </trkpt>
      <trkpt lat="44.17325" lon="3.18555">
        <ele>748</ele>
        <time>2022-02-10T10:52:47Z</time>
        <extensions>
          <gpxtpx:TrackPointExtension xmlns:gpxtpx="http://www.garmin.com/xmlschemas/TrackPointExtension/v1">
            <gpxtpx:hr>145</gpxtpx:hr>
          </gpxtpx:TrackPointExtension>
        </extensions>
      </trkpt>
      <trkpt lat="44.17326" lon="3.18557">
        <ele>748</ele>
        <time>2022-02-10T10:52:48Z</time>
        <extensions>
          <gpxtpx:TrackPointExtension xmlns:gpxtpx="http://www.garmin.com/xmlschemas/TrackPointExtension/v1">
            <gpxtpx:hr>145</gpxtpx:hr>
          </gpxtpx:TrackPointExtension>
        </extensions>
      </trkpt>
      <trkpt lat="44.17328" lon="3.18559">
        <ele>747.6</ele>
        <time>2022-02-10T10:52:49Z</time>
        <extensions>
          <gpxtpx:TrackPointExtension xmlns:gpxtpx="http://www.garmin.com/xmlschemas/TrackPointExtension/v1">
            <gpxtpx:hr>144</gpxtpx:hr>
          </gpxtpx:TrackPointExtension>
        </extensions>
      </trkpt>
      <trkpt lat="44.17329" lon="3.18561">
        <ele>747.6</ele>
        <time>2022-02-10T10:52:50Z</time>
        <extensions>
          <gpxtpx:TrackPointExtension xmlns:gpxtpx="http://www.garmin.com/xmlschemas/TrackPointExtension/v1">
            <gpxtpx:hr>144</gpxtpx:hr>
          </gpxtpx:TrackPointExtension>
        </extensions>
      </trkpt>
      <trkpt lat="44.17334" lon="3.18569">
        <ele>747.6</ele>
        <time>2022-02-10T10:52:51Z</time>
        <extensions>
          <gpxtpx:TrackPointExtension xmlns:gpxtpx="http://www.garmin.com/xmlschemas/TrackPointExtension/v1">
            <gpxtpx:hr>144</gpxtpx:hr>
          </gpxtpx:TrackPointExtension>
        </extensions>
      </trkpt>
      <trkpt lat="44.17336" lon="3.18572">
        <ele>747.4</ele>
        <time>2022-02-10T10:52:52Z</time>
        <extensions>
          <gpxtpx:TrackPointExtension xmlns:gpxtpx="http://www.garmin.com/xmlschemas/TrackPointExtension/v1">
            <gpxtpx:hr>143</gpxtpx:hr>
          </gpxtpx:TrackPointExtension>
        </extensions>
      </trkpt>
      <trkpt lat="44.17338" lon="3.18574">
        <ele>747.4</ele>
        <time>2022-02-10T10:52:53Z</time>
        <extensions>
          <gpxtpx:TrackPointExtension xmlns:gpxtpx="http://www.garmin.com/xmlschemas/TrackPointExtension/v1">
            <gpxtpx:hr>142</gpxtpx:hr>
          </gpxtpx:TrackPointExtension>
        </extensions>
      </trkpt>
      <trkpt lat="44.17339" lon="3.18577">
        <ele>747</ele>
        <time>2022-02-10T10:52:54Z</time>
        <extensions>
          <gpxtpx:TrackPointExtension xmlns:gpxtpx="http://www.garmin.com/xmlschemas/TrackPointExtension/v1">
            <gpxtpx:hr>142</gpxtpx:hr>
          </gpxtpx:TrackPointExtension>
        </extensions>
      </trkpt>
      <trkpt lat="44.1734" lon="3.18579">
        <ele>747</ele>
        <time>2022-02-10T10:52:55Z</time>
        <extensions>
          <gpxtpx:TrackPointExtension xmlns:gpxtpx="http://www.garmin.com/xmlschemas/TrackPointExtension/v1">
            <gpxtpx:hr>142</gpxtpx:hr>
          </gpxtpx:TrackPointExtension>
        </extensions>
      </trkpt>
      <trkpt lat="44.17341" lon="3.18582">
        <ele>746.6</ele>
        <time>2022-02-10T10:52:56Z</time>
        <extensions>
          <gpxtpx:TrackPointExtension xmlns:gpxtpx="http://www.garmin.com/xmlschemas/TrackPointExtension/v1">
            <gpxtpx:hr>142</gpxtpx:hr>
          </gpxtpx:TrackPointExtension>
        </extensions>
      </trkpt>
      <trkpt lat="44.17343" lon="3.18584">
        <ele>746.2</ele>
        <time>2022-02-10T10:52:57Z</time>
        <extensions>
          <gpxtpx:TrackPointExtension xmlns:gpxtpx="http://www.garmin.com/xmlschemas/TrackPointExtension/v1">
            <gpxtpx:hr>142</gpxtpx:hr>
          </gpxtpx:TrackPointExtension>
        </extensions>
      </trkpt>
      <trkpt lat="44.17344" lon="3.18587">
        <ele>745.8</ele>
        <time>2022-02-10T10:52:58Z</time>
        <extensions>
          <gpxtpx:TrackPointExtension xmlns:gpxtpx="http://www.garmin.com/xmlschemas/TrackPointExtension/v1">
            <gpxtpx:hr>141</gpxtpx:hr>
          </gpxtpx:TrackPointExtension>
        </extensions>
      </trkpt>
      <trkpt lat="44.17345" lon="3.18589">
        <ele>745.6</ele>
        <time>2022-02-10T10:52:59Z</time>
        <extensions>
          <gpxtpx:TrackPointExtension xmlns:gpxtpx="http://www.garmin.com/xmlschemas/TrackPointExtension/v1">
            <gpxtpx:hr>143</gpxtpx:hr>
          </gpxtpx:TrackPointExtension>
        </extensions>
      </trkpt>
      <trkpt lat="44.17347" lon="3.18595">
        <ele>745.4</ele>
        <time>2022-02-10T10:53:00Z</time>
        <extensions>
          <gpxtpx:TrackPointExtension xmlns:gpxtpx="http://www.garmin.com/xmlschemas/TrackPointExtension/v1">
            <gpxtpx:hr>143</gpxtpx:hr>
          </gpxtpx:TrackPointExtension>
        </extensions>
      </trkpt>
      <trkpt lat="44.17349" lon="3.18601">
        <ele>745.2</ele>
        <time>2022-02-10T10:53:01Z</time>
        <extensions>
          <gpxtpx:TrackPointExtension xmlns:gpxtpx="http://www.garmin.com/xmlschemas/TrackPointExtension/v1">
            <gpxtpx:hr>142</gpxtpx:hr>
          </gpxtpx:TrackPointExtension>
        </extensions>
      </trkpt>
      <trkpt lat="44.1735" lon="3.18605">
        <ele>744.8</ele>
        <time>2022-02-10T10:53:02Z</time>
        <extensions>
          <gpxtpx:TrackPointExtension xmlns:gpxtpx="http://www.garmin.com/xmlschemas/TrackPointExtension/v1">
            <gpxtpx:hr>142</gpxtpx:hr>
          </gpxtpx:TrackPointExtension>
        </extensions>
      </trkpt>
      <trkpt lat="44.17351" lon="3.18609">
        <ele>744.8</ele>
        <time>2022-02-10T10:53:03Z</time>
        <extensions>
          <gpxtpx:TrackPointExtension xmlns:gpxtpx="http://www.garmin.com/xmlschemas/TrackPointExtension/v1">
            <gpxtpx:hr>141</gpxtpx:hr>
          </gpxtpx:TrackPointExtension>
        </extensions>
      </trkpt>
      <trkpt lat="44.17352" lon="3.18613">
        <ele>744.4</ele>
        <time>2022-02-10T10:53:04Z</time>
        <extensions>
          <gpxtpx:TrackPointExtension xmlns:gpxtpx="http://www.garmin.com/xmlschemas/TrackPointExtension/v1">
            <gpxtpx:hr>142</gpxtpx:hr>
          </gpxtpx:TrackPointExtension>
        </extensions>
      </trkpt>
      <trkpt lat="44.17352" lon="3.18616">
        <ele>744.2</ele>
        <time>2022-02-10T10:53:05Z</time>
        <extensions>
          <gpxtpx:TrackPointExtension xmlns:gpxtpx="http://www.garmin.com/xmlschemas/TrackPointExtension/v1">
            <gpxtpx:hr>142</gpxtpx:hr>
          </gpxtpx:TrackPointExtension>
        </extensions>
      </trkpt>
      <trkpt lat="44.17352" lon="3.1862">
        <ele>744</ele>
        <time>2022-02-10T10:53:06Z</time>
        <extensions>
          <gpxtpx:TrackPointExtension xmlns:gpxtpx="http://www.garmin.com/xmlschemas/TrackPointExtension/v1">
            <gpxtpx:hr>142</gpxtpx:hr>
          </gpxtpx:TrackPointExtension>
        </extensions>
      </trkpt>
      <trkpt lat="44.17353" lon="3.18623">
        <ele>743.8</ele>
        <time>2022-02-10T10:53:07Z</time>
        <extensions>
          <gpxtpx:TrackPointExtension xmlns:gpxtpx="http://www.garmin.com/xmlschemas/TrackPointExtension/v1">
            <gpxtpx:hr>142</gpxtpx:hr>
          </gpxtpx:TrackPointExtension>
        </extensions>
      </trkpt>
      <trkpt lat="44.17353" lon="3.18627">
        <ele>743.4</ele>
        <time>2022-02-10T10:53:08Z</time>
        <extensions>
          <gpxtpx:TrackPointExtension xmlns:gpxtpx="http://www.garmin.com/xmlschemas/TrackPointExtension/v1">
            <gpxtpx:hr>142</gpxtpx:hr>
          </gpxtpx:TrackPointExtension>
        </extensions>
      </trkpt>
      <trkpt lat="44.17353" lon="3.1863">
        <ele>743</ele>
        <time>2022-02-10T10:53:09Z</time>
        <extensions>
          <gpxtpx:TrackPointExtension xmlns:gpxtpx="http://www.garmin.com/xmlschemas/TrackPointExtension/v1">
            <gpxtpx:hr>142</gpxtpx:hr>
          </gpxtpx:TrackPointExtension>
        </extensions>
      </trkpt>
      <trkpt lat="44.17353" lon="3.18634">
        <ele>742.8</ele>
        <time>2022-02-10T10:53:10Z</time>
        <extensions>
          <gpxtpx:TrackPointExtension xmlns:gpxtpx="http://www.garmin.com/xmlschemas/TrackPointExtension/v1">
            <gpxtpx:hr>141</gpxtpx:hr>
          </gpxtpx:TrackPointExtension>
        </extensions>
      </trkpt>
      <trkpt lat="44.17353" lon="3.18637">
        <ele>742.4</ele>
        <time>2022-02-10T10:53:11Z</time>
        <extensions>
          <gpxtpx:TrackPointExtension xmlns:gpxtpx="http://www.garmin.com/xmlschemas/TrackPointExtension/v1">
            <gpxtpx:hr>141</gpxtpx:hr>
          </gpxtpx:TrackPointExtension>
        </extensions>
      </trkpt>
      <trkpt lat="44.17352" lon="3.18641">
        <ele>742</ele>
        <time>2022-02-10T10:53:12Z</time>
        <extensions>
          <gpxtpx:TrackPointExtension xmlns:gpxtpx="http://www.garmin.com/xmlschemas/TrackPointExtension/v1">
            <gpxtpx:hr>141</gpxtpx:hr>
          </gpxtpx:TrackPointExtension>
        </extensions>
      </trkpt>
      <trkpt lat="44.17352" lon="3.18644">
        <ele>741.6</ele>
        <time>2022-02-10T10:53:13Z</time>
        <extensions>
          <gpxtpx:TrackPointExtension xmlns:gpxtpx="http://www.garmin.com/xmlschemas/TrackPointExtension/v1">
            <gpxtpx:hr>141</gpxtpx:hr>
          </gpxtpx:TrackPointExtension>
        </extensions>
      </trkpt>
      <trkpt lat="44.17352" lon="3.18647">
        <ele>741.4</ele>
        <time>2022-02-10T10:53:14Z</time>
        <extensions>
          <gpxtpx:TrackPointExtension xmlns:gpxtpx="http://www.garmin.com/xmlschemas/TrackPointExtension/v1">
            <gpxtpx:hr>142</gpxtpx:hr>
          </gpxtpx:TrackPointExtension>
        </extensions>
      </trkpt>
      <trkpt lat="44.17352" lon="3.18651">
        <ele>741.2</ele>
        <time>2022-02-10T10:53:15Z</time>
        <extensions>
          <gpxtpx:TrackPointExtension xmlns:gpxtpx="http://www.garmin.com/xmlschemas/TrackPointExtension/v1">
            <gpxtpx:hr>142</gpxtpx:hr>
          </gpxtpx:TrackPointExtension>
        </extensions>
      </trkpt>
      <trkpt lat="44.17352" lon="3.18654">
        <ele>741</ele>
        <time>2022-02-10T10:53:16Z</time>
        <extensions>
          <gpxtpx:TrackPointExtension xmlns:gpxtpx="http://www.garmin.com/xmlschemas/TrackPointExtension/v1">
            <gpxtpx:hr>142</gpxtpx:hr>
          </gpxtpx:TrackPointExtension>
        </extensions>
      </trkpt>
      <trkpt lat="44.17351" lon="3.18657">
        <ele>741</ele>
        <time>2022-02-10T10:53:17Z</time>
        <extensions>
          <gpxtpx:TrackPointExtension xmlns:gpxtpx="http://www.garmin.com/xmlschemas/TrackPointExtension/v1">
            <gpxtpx:hr>141</gpxtpx:hr>
          </gpxtpx:TrackPointExtension>
        </extensions>
      </trkpt>
      <trkpt lat="44.17351" lon="3.18659">
        <ele>741</ele>
        <time>2022-02-10T10:53:18Z</time>
        <extensions>
          <gpxtpx:TrackPointExtension xmlns:gpxtpx="http://www.garmin.com/xmlschemas/TrackPointExtension/v1">
            <gpxtpx:hr>139</gpxtpx:hr>
          </gpxtpx:TrackPointExtension>
        </extensions>
      </trkpt>
      <trkpt lat="44.17351" lon="3.18662">
        <ele>740.8</ele>
        <time>2022-02-10T10:53:19Z</time>
        <extensions>
          <gpxtpx:TrackPointExtension xmlns:gpxtpx="http://www.garmin.com/xmlschemas/TrackPointExtension/v1">
            <gpxtpx:hr>140</gpxtpx:hr>
          </gpxtpx:TrackPointExtension>
        </extensions>
      </trkpt>
      <trkpt lat="44.1735" lon="3.18664">
        <ele>740.4</ele>
        <time>2022-02-10T10:53:20Z</time>
        <extensions>
          <gpxtpx:TrackPointExtension xmlns:gpxtpx="http://www.garmin.com/xmlschemas/TrackPointExtension/v1">
            <gpxtpx:hr>140</gpxtpx:hr>
          </gpxtpx:TrackPointExtension>
        </extensions>
      </trkpt>
      <trkpt lat="44.1735" lon="3.18667">
        <ele>740.4</ele>
        <time>2022-02-10T10:53:21Z</time>
        <extensions>
          <gpxtpx:TrackPointExtension xmlns:gpxtpx="http://www.garmin.com/xmlschemas/TrackPointExtension/v1">
            <gpxtpx:hr>142</gpxtpx:hr>
          </gpxtpx:TrackPointExtension>
        </extensions>
      </trkpt>
      <trkpt lat="44.17349" lon="3.1867">
        <ele>740.2</ele>
        <time>2022-02-10T10:53:22Z</time>
        <extensions>
          <gpxtpx:TrackPointExtension xmlns:gpxtpx="http://www.garmin.com/xmlschemas/TrackPointExtension/v1">
            <gpxtpx:hr>142</gpxtpx:hr>
          </gpxtpx:TrackPointExtension>
        </extensions>
      </trkpt>
      <trkpt lat="44.17349" lon="3.18672">
        <ele>740.2</ele>
        <time>2022-02-10T10:53:23Z</time>
        <extensions>
          <gpxtpx:TrackPointExtension xmlns:gpxtpx="http://www.garmin.com/xmlschemas/TrackPointExtension/v1">
            <gpxtpx:hr>139</gpxtpx:hr>
          </gpxtpx:TrackPointExtension>
        </extensions>
      </trkpt>
      <trkpt lat="44.17348" lon="3.18675">
        <ele>740.2</ele>
        <time>2022-02-10T10:53:24Z</time>
        <extensions>
          <gpxtpx:TrackPointExtension xmlns:gpxtpx="http://www.garmin.com/xmlschemas/TrackPointExtension/v1">
            <gpxtpx:hr>140</gpxtpx:hr>
          </gpxtpx:TrackPointExtension>
        </extensions>
      </trkpt>
      <trkpt lat="44.17347" lon="3.18678">
        <ele>740</ele>
        <time>2022-02-10T10:53:25Z</time>
        <extensions>
          <gpxtpx:TrackPointExtension xmlns:gpxtpx="http://www.garmin.com/xmlschemas/TrackPointExtension/v1">
            <gpxtpx:hr>140</gpxtpx:hr>
          </gpxtpx:TrackPointExtension>
        </extensions>
      </trkpt>
      <trkpt lat="44.17347" lon="3.18681">
        <ele>740</ele>
        <time>2022-02-10T10:53:26Z</time>
        <extensions>
          <gpxtpx:TrackPointExtension xmlns:gpxtpx="http://www.garmin.com/xmlschemas/TrackPointExtension/v1">
            <gpxtpx:hr>141</gpxtpx:hr>
          </gpxtpx:TrackPointExtension>
        </extensions>
      </trkpt>
      <trkpt lat="44.17347" lon="3.18684">
        <ele>740</ele>
        <time>2022-02-10T10:53:27Z</time>
        <extensions>
          <gpxtpx:TrackPointExtension xmlns:gpxtpx="http://www.garmin.com/xmlschemas/TrackPointExtension/v1">
            <gpxtpx:hr>141</gpxtpx:hr>
          </gpxtpx:TrackPointExtension>
        </extensions>
      </trkpt>
      <trkpt lat="44.17347" lon="3.18686">
        <ele>739.6</ele>
        <time>2022-02-10T10:53:28Z</time>
        <extensions>
          <gpxtpx:TrackPointExtension xmlns:gpxtpx="http://www.garmin.com/xmlschemas/TrackPointExtension/v1">
            <gpxtpx:hr>141</gpxtpx:hr>
          </gpxtpx:TrackPointExtension>
        </extensions>
      </trkpt>
      <trkpt lat="44.17347" lon="3.18689">
        <ele>739.6</ele>
        <time>2022-02-10T10:53:29Z</time>
        <extensions>
          <gpxtpx:TrackPointExtension xmlns:gpxtpx="http://www.garmin.com/xmlschemas/TrackPointExtension/v1">
            <gpxtpx:hr>141</gpxtpx:hr>
          </gpxtpx:TrackPointExtension>
        </extensions>
      </trkpt>
      <trkpt lat="44.17348" lon="3.18692">
        <ele>739.6</ele>
        <time>2022-02-10T10:53:30Z</time>
        <extensions>
          <gpxtpx:TrackPointExtension xmlns:gpxtpx="http://www.garmin.com/xmlschemas/TrackPointExtension/v1">
            <gpxtpx:hr>140</gpxtpx:hr>
          </gpxtpx:TrackPointExtension>
        </extensions>
      </trkpt>
      <trkpt lat="44.17348" lon="3.18695">
        <ele>739.4</ele>
        <time>2022-02-10T10:53:31Z</time>
        <extensions>
          <gpxtpx:TrackPointExtension xmlns:gpxtpx="http://www.garmin.com/xmlschemas/TrackPointExtension/v1">
            <gpxtpx:hr>140</gpxtpx:hr>
          </gpxtpx:TrackPointExtension>
        </extensions>
      </trkpt>
      <trkpt lat="44.17348" lon="3.18698">
        <ele>739.4</ele>
        <time>2022-02-10T10:53:32Z</time>
        <extensions>
          <gpxtpx:TrackPointExtension xmlns:gpxtpx="http://www.garmin.com/xmlschemas/TrackPointExtension/v1">
            <gpxtpx:hr>140</gpxtpx:hr>
          </gpxtpx:TrackPointExtension>
        </extensions>
      </trkpt>
      <trkpt lat="44.17348" lon="3.18701">
        <ele>739.4</ele>
        <time>2022-02-10T10:53:33Z</time>
        <extensions>
          <gpxtpx:TrackPointExtension xmlns:gpxtpx="http://www.garmin.com/xmlschemas/TrackPointExtension/v1">
            <gpxtpx:hr>142</gpxtpx:hr>
          </gpxtpx:TrackPointExtension>
        </extensions>
      </trkpt>
      <trkpt lat="44.17348" lon="3.18704">
        <ele>739</ele>
        <time>2022-02-10T10:53:34Z</time>
        <extensions>
          <gpxtpx:TrackPointExtension xmlns:gpxtpx="http://www.garmin.com/xmlschemas/TrackPointExtension/v1">
            <gpxtpx:hr>141</gpxtpx:hr>
          </gpxtpx:TrackPointExtension>
        </extensions>
      </trkpt>
      <trkpt lat="44.17349" lon="3.18707">
        <ele>739</ele>
        <time>2022-02-10T10:53:35Z</time>
        <extensions>
          <gpxtpx:TrackPointExtension xmlns:gpxtpx="http://www.garmin.com/xmlschemas/TrackPointExtension/v1">
            <gpxtpx:hr>142</gpxtpx:hr>
          </gpxtpx:TrackPointExtension>
        </extensions>
      </trkpt>
      <trkpt lat="44.17349" lon="3.1871">
        <ele>738.8</ele>
        <time>2022-02-10T10:53:36Z</time>
        <extensions>
          <gpxtpx:TrackPointExtension xmlns:gpxtpx="http://www.garmin.com/xmlschemas/TrackPointExtension/v1">
            <gpxtpx:hr>141</gpxtpx:hr>
          </gpxtpx:TrackPointExtension>
        </extensions>
      </trkpt>
      <trkpt lat="44.17349" lon="3.18712">
        <ele>738.8</ele>
        <time>2022-02-10T10:53:37Z</time>
        <extensions>
          <gpxtpx:TrackPointExtension xmlns:gpxtpx="http://www.garmin.com/xmlschemas/TrackPointExtension/v1">
            <gpxtpx:hr>141</gpxtpx:hr>
          </gpxtpx:TrackPointExtension>
        </extensions>
      </trkpt>
      <trkpt lat="44.1735" lon="3.18714">
        <ele>738.4</ele>
        <time>2022-02-10T10:53:38Z</time>
        <extensions>
          <gpxtpx:TrackPointExtension xmlns:gpxtpx="http://www.garmin.com/xmlschemas/TrackPointExtension/v1">
            <gpxtpx:hr>142</gpxtpx:hr>
          </gpxtpx:TrackPointExtension>
        </extensions>
      </trkpt>
      <trkpt lat="44.1735" lon="3.18717">
        <ele>738.4</ele>
        <time>2022-02-10T10:53:39Z</time>
        <extensions>
          <gpxtpx:TrackPointExtension xmlns:gpxtpx="http://www.garmin.com/xmlschemas/TrackPointExtension/v1">
            <gpxtpx:hr>142</gpxtpx:hr>
          </gpxtpx:TrackPointExtension>
        </extensions>
      </trkpt>
      <trkpt lat="44.17351" lon="3.18719">
        <ele>738.2</ele>
        <time>2022-02-10T10:53:40Z</time>
        <extensions>
          <gpxtpx:TrackPointExtension xmlns:gpxtpx="http://www.garmin.com/xmlschemas/TrackPointExtension/v1">
            <gpxtpx:hr>142</gpxtpx:hr>
          </gpxtpx:TrackPointExtension>
        </extensions>
      </trkpt>
      <trkpt lat="44.17351" lon="3.18721">
        <ele>738</ele>
        <time>2022-02-10T10:53:41Z</time>
        <extensions>
          <gpxtpx:TrackPointExtension xmlns:gpxtpx="http://www.garmin.com/xmlschemas/TrackPointExtension/v1">
            <gpxtpx:hr>143</gpxtpx:hr>
          </gpxtpx:TrackPointExtension>
        </extensions>
      </trkpt>
      <trkpt lat="44.17353" lon="3.18724">
        <ele>738</ele>
        <time>2022-02-10T10:53:42Z</time>
        <extensions>
          <gpxtpx:TrackPointExtension xmlns:gpxtpx="http://www.garmin.com/xmlschemas/TrackPointExtension/v1">
            <gpxtpx:hr>143</gpxtpx:hr>
          </gpxtpx:TrackPointExtension>
        </extensions>
      </trkpt>
      <trkpt lat="44.17354" lon="3.18726">
        <ele>737.6</ele>
        <time>2022-02-10T10:53:43Z</time>
        <extensions>
          <gpxtpx:TrackPointExtension xmlns:gpxtpx="http://www.garmin.com/xmlschemas/TrackPointExtension/v1">
            <gpxtpx:hr>143</gpxtpx:hr>
          </gpxtpx:TrackPointExtension>
        </extensions>
      </trkpt>
      <trkpt lat="44.17356" lon="3.18728">
        <ele>737.6</ele>
        <time>2022-02-10T10:53:44Z</time>
        <extensions>
          <gpxtpx:TrackPointExtension xmlns:gpxtpx="http://www.garmin.com/xmlschemas/TrackPointExtension/v1">
            <gpxtpx:hr>143</gpxtpx:hr>
          </gpxtpx:TrackPointExtension>
        </extensions>
      </trkpt>
      <trkpt lat="44.17357" lon="3.1873">
        <ele>737.6</ele>
        <time>2022-02-10T10:53:45Z</time>
        <extensions>
          <gpxtpx:TrackPointExtension xmlns:gpxtpx="http://www.garmin.com/xmlschemas/TrackPointExtension/v1">
            <gpxtpx:hr>142</gpxtpx:hr>
          </gpxtpx:TrackPointExtension>
        </extensions>
      </trkpt>
      <trkpt lat="44.17359" lon="3.18732">
        <ele>737.4</ele>
        <time>2022-02-10T10:53:46Z</time>
        <extensions>
          <gpxtpx:TrackPointExtension xmlns:gpxtpx="http://www.garmin.com/xmlschemas/TrackPointExtension/v1">
            <gpxtpx:hr>143</gpxtpx:hr>
          </gpxtpx:TrackPointExtension>
        </extensions>
      </trkpt>
      <trkpt lat="44.1736" lon="3.18735">
        <ele>737.4</ele>
        <time>2022-02-10T10:53:47Z</time>
        <extensions>
          <gpxtpx:TrackPointExtension xmlns:gpxtpx="http://www.garmin.com/xmlschemas/TrackPointExtension/v1">
            <gpxtpx:hr>145</gpxtpx:hr>
          </gpxtpx:TrackPointExtension>
        </extensions>
      </trkpt>
      <trkpt lat="44.17362" lon="3.18738">
        <ele>737.4</ele>
        <time>2022-02-10T10:53:48Z</time>
        <extensions>
          <gpxtpx:TrackPointExtension xmlns:gpxtpx="http://www.garmin.com/xmlschemas/TrackPointExtension/v1">
            <gpxtpx:hr>144</gpxtpx:hr>
          </gpxtpx:TrackPointExtension>
        </extensions>
      </trkpt>
      <trkpt lat="44.17364" lon="3.1874">
        <ele>737.2</ele>
        <time>2022-02-10T10:53:49Z</time>
        <extensions>
          <gpxtpx:TrackPointExtension xmlns:gpxtpx="http://www.garmin.com/xmlschemas/TrackPointExtension/v1">
            <gpxtpx:hr>143</gpxtpx:hr>
          </gpxtpx:TrackPointExtension>
        </extensions>
      </trkpt>
      <trkpt lat="44.17365" lon="3.18743">
        <ele>737.2</ele>
        <time>2022-02-10T10:53:50Z</time>
        <extensions>
          <gpxtpx:TrackPointExtension xmlns:gpxtpx="http://www.garmin.com/xmlschemas/TrackPointExtension/v1">
            <gpxtpx:hr>144</gpxtpx:hr>
          </gpxtpx:TrackPointExtension>
        </extensions>
      </trkpt>
      <trkpt lat="44.17366" lon="3.18744">
        <ele>737.2</ele>
        <time>2022-02-10T10:53:51Z</time>
        <extensions>
          <gpxtpx:TrackPointExtension xmlns:gpxtpx="http://www.garmin.com/xmlschemas/TrackPointExtension/v1">
            <gpxtpx:hr>143</gpxtpx:hr>
          </gpxtpx:TrackPointExtension>
        </extensions>
      </trkpt>
      <trkpt lat="44.17368" lon="3.18746">
        <ele>737.2</ele>
        <time>2022-02-10T10:53:52Z</time>
        <extensions>
          <gpxtpx:TrackPointExtension xmlns:gpxtpx="http://www.garmin.com/xmlschemas/TrackPointExtension/v1">
            <gpxtpx:hr>144</gpxtpx:hr>
          </gpxtpx:TrackPointExtension>
        </extensions>
      </trkpt>
      <trkpt lat="44.17369" lon="3.18748">
        <ele>736.8</ele>
        <time>2022-02-10T10:53:53Z</time>
        <extensions>
          <gpxtpx:TrackPointExtension xmlns:gpxtpx="http://www.garmin.com/xmlschemas/TrackPointExtension/v1">
            <gpxtpx:hr>145</gpxtpx:hr>
          </gpxtpx:TrackPointExtension>
        </extensions>
      </trkpt>
      <trkpt lat="44.17375" lon="3.18754">
        <ele>736.8</ele>
        <time>2022-02-10T10:53:54Z</time>
        <extensions>
          <gpxtpx:TrackPointExtension xmlns:gpxtpx="http://www.garmin.com/xmlschemas/TrackPointExtension/v1">
            <gpxtpx:hr>143</gpxtpx:hr>
          </gpxtpx:TrackPointExtension>
        </extensions>
      </trkpt>
      <trkpt lat="44.17377" lon="3.18756">
        <ele>736.8</ele>
        <time>2022-02-10T10:53:55Z</time>
        <extensions>
          <gpxtpx:TrackPointExtension xmlns:gpxtpx="http://www.garmin.com/xmlschemas/TrackPointExtension/v1">
            <gpxtpx:hr>143</gpxtpx:hr>
          </gpxtpx:TrackPointExtension>
        </extensions>
      </trkpt>
      <trkpt lat="44.1738" lon="3.18758">
        <ele>736.6</ele>
        <time>2022-02-10T10:53:56Z</time>
        <extensions>
          <gpxtpx:TrackPointExtension xmlns:gpxtpx="http://www.garmin.com/xmlschemas/TrackPointExtension/v1">
            <gpxtpx:hr>142</gpxtpx:hr>
          </gpxtpx:TrackPointExtension>
        </extensions>
      </trkpt>
      <trkpt lat="44.17382" lon="3.1876">
        <ele>736.6</ele>
        <time>2022-02-10T10:53:57Z</time>
        <extensions>
          <gpxtpx:TrackPointExtension xmlns:gpxtpx="http://www.garmin.com/xmlschemas/TrackPointExtension/v1">
            <gpxtpx:hr>142</gpxtpx:hr>
          </gpxtpx:TrackPointExtension>
        </extensions>
      </trkpt>
      <trkpt lat="44.17384" lon="3.1876">
        <ele>736.4</ele>
        <time>2022-02-10T10:53:58Z</time>
        <extensions>
          <gpxtpx:TrackPointExtension xmlns:gpxtpx="http://www.garmin.com/xmlschemas/TrackPointExtension/v1">
            <gpxtpx:hr>141</gpxtpx:hr>
          </gpxtpx:TrackPointExtension>
        </extensions>
      </trkpt>
      <trkpt lat="44.17385" lon="3.18761">
        <ele>736.4</ele>
        <time>2022-02-10T10:53:59Z</time>
        <extensions>
          <gpxtpx:TrackPointExtension xmlns:gpxtpx="http://www.garmin.com/xmlschemas/TrackPointExtension/v1">
            <gpxtpx:hr>141</gpxtpx:hr>
          </gpxtpx:TrackPointExtension>
        </extensions>
      </trkpt>
      <trkpt lat="44.17387" lon="3.18762">
        <ele>736</ele>
        <time>2022-02-10T10:54:00Z</time>
        <extensions>
          <gpxtpx:TrackPointExtension xmlns:gpxtpx="http://www.garmin.com/xmlschemas/TrackPointExtension/v1">
            <gpxtpx:hr>141</gpxtpx:hr>
          </gpxtpx:TrackPointExtension>
        </extensions>
      </trkpt>
      <trkpt lat="44.17389" lon="3.18762">
        <ele>736</ele>
        <time>2022-02-10T10:54:01Z</time>
        <extensions>
          <gpxtpx:TrackPointExtension xmlns:gpxtpx="http://www.garmin.com/xmlschemas/TrackPointExtension/v1">
            <gpxtpx:hr>141</gpxtpx:hr>
          </gpxtpx:TrackPointExtension>
        </extensions>
      </trkpt>
      <trkpt lat="44.17391" lon="3.18763">
        <ele>736</ele>
        <time>2022-02-10T10:54:02Z</time>
        <extensions>
          <gpxtpx:TrackPointExtension xmlns:gpxtpx="http://www.garmin.com/xmlschemas/TrackPointExtension/v1">
            <gpxtpx:hr>142</gpxtpx:hr>
          </gpxtpx:TrackPointExtension>
        </extensions>
      </trkpt>
      <trkpt lat="44.17393" lon="3.18762">
        <ele>736</ele>
        <time>2022-02-10T10:54:03Z</time>
        <extensions>
          <gpxtpx:TrackPointExtension xmlns:gpxtpx="http://www.garmin.com/xmlschemas/TrackPointExtension/v1">
            <gpxtpx:hr>140</gpxtpx:hr>
          </gpxtpx:TrackPointExtension>
        </extensions>
      </trkpt>
      <trkpt lat="44.17394" lon="3.18761">
        <ele>735.8</ele>
        <time>2022-02-10T10:54:04Z</time>
        <extensions>
          <gpxtpx:TrackPointExtension xmlns:gpxtpx="http://www.garmin.com/xmlschemas/TrackPointExtension/v1">
            <gpxtpx:hr>141</gpxtpx:hr>
          </gpxtpx:TrackPointExtension>
        </extensions>
      </trkpt>
      <trkpt lat="44.17396" lon="3.1876">
        <ele>735.8</ele>
        <time>2022-02-10T10:54:05Z</time>
        <extensions>
          <gpxtpx:TrackPointExtension xmlns:gpxtpx="http://www.garmin.com/xmlschemas/TrackPointExtension/v1">
            <gpxtpx:hr>140</gpxtpx:hr>
          </gpxtpx:TrackPointExtension>
        </extensions>
      </trkpt>
      <trkpt lat="44.17398" lon="3.18759">
        <ele>735.6</ele>
        <time>2022-02-10T10:54:06Z</time>
        <extensions>
          <gpxtpx:TrackPointExtension xmlns:gpxtpx="http://www.garmin.com/xmlschemas/TrackPointExtension/v1">
            <gpxtpx:hr>140</gpxtpx:hr>
          </gpxtpx:TrackPointExtension>
        </extensions>
      </trkpt>
      <trkpt lat="44.174" lon="3.18758">
        <ele>735.6</ele>
        <time>2022-02-10T10:54:07Z</time>
        <extensions>
          <gpxtpx:TrackPointExtension xmlns:gpxtpx="http://www.garmin.com/xmlschemas/TrackPointExtension/v1">
            <gpxtpx:hr>140</gpxtpx:hr>
          </gpxtpx:TrackPointExtension>
        </extensions>
      </trkpt>
      <trkpt lat="44.17401" lon="3.18757">
        <ele>735.6</ele>
        <time>2022-02-10T10:54:08Z</time>
        <extensions>
          <gpxtpx:TrackPointExtension xmlns:gpxtpx="http://www.garmin.com/xmlschemas/TrackPointExtension/v1">
            <gpxtpx:hr>138</gpxtpx:hr>
          </gpxtpx:TrackPointExtension>
        </extensions>
      </trkpt>
      <trkpt lat="44.17403" lon="3.18755">
        <ele>735.4</ele>
        <time>2022-02-10T10:54:09Z</time>
        <extensions>
          <gpxtpx:TrackPointExtension xmlns:gpxtpx="http://www.garmin.com/xmlschemas/TrackPointExtension/v1">
            <gpxtpx:hr>138</gpxtpx:hr>
          </gpxtpx:TrackPointExtension>
        </extensions>
      </trkpt>
      <trkpt lat="44.17405" lon="3.18754">
        <ele>735.4</ele>
        <time>2022-02-10T10:54:10Z</time>
        <extensions>
          <gpxtpx:TrackPointExtension xmlns:gpxtpx="http://www.garmin.com/xmlschemas/TrackPointExtension/v1">
            <gpxtpx:hr>138</gpxtpx:hr>
          </gpxtpx:TrackPointExtension>
        </extensions>
      </trkpt>
      <trkpt lat="44.17406" lon="3.18753">
        <ele>735.4</ele>
        <time>2022-02-10T10:54:11Z</time>
        <extensions>
          <gpxtpx:TrackPointExtension xmlns:gpxtpx="http://www.garmin.com/xmlschemas/TrackPointExtension/v1">
            <gpxtpx:hr>137</gpxtpx:hr>
          </gpxtpx:TrackPointExtension>
        </extensions>
      </trkpt>
      <trkpt lat="44.17408" lon="3.18751">
        <ele>735.2</ele>
        <time>2022-02-10T10:54:12Z</time>
        <extensions>
          <gpxtpx:TrackPointExtension xmlns:gpxtpx="http://www.garmin.com/xmlschemas/TrackPointExtension/v1">
            <gpxtpx:hr>136</gpxtpx:hr>
          </gpxtpx:TrackPointExtension>
        </extensions>
      </trkpt>
      <trkpt lat="44.1741" lon="3.1875">
        <ele>735.2</ele>
        <time>2022-02-10T10:54:13Z</time>
        <extensions>
          <gpxtpx:TrackPointExtension xmlns:gpxtpx="http://www.garmin.com/xmlschemas/TrackPointExtension/v1">
            <gpxtpx:hr>136</gpxtpx:hr>
          </gpxtpx:TrackPointExtension>
        </extensions>
      </trkpt>
      <trkpt lat="44.17412" lon="3.18749">
        <ele>735.2</ele>
        <time>2022-02-10T10:54:14Z</time>
        <extensions>
          <gpxtpx:TrackPointExtension xmlns:gpxtpx="http://www.garmin.com/xmlschemas/TrackPointExtension/v1">
            <gpxtpx:hr>136</gpxtpx:hr>
          </gpxtpx:TrackPointExtension>
        </extensions>
      </trkpt>
      <trkpt lat="44.17414" lon="3.18747">
        <ele>735.2</ele>
        <time>2022-02-10T10:54:15Z</time>
        <extensions>
          <gpxtpx:TrackPointExtension xmlns:gpxtpx="http://www.garmin.com/xmlschemas/TrackPointExtension/v1">
            <gpxtpx:hr>135</gpxtpx:hr>
          </gpxtpx:TrackPointExtension>
        </extensions>
      </trkpt>
      <trkpt lat="44.17416" lon="3.18746">
        <ele>735</ele>
        <time>2022-02-10T10:54:16Z</time>
        <extensions>
          <gpxtpx:TrackPointExtension xmlns:gpxtpx="http://www.garmin.com/xmlschemas/TrackPointExtension/v1">
            <gpxtpx:hr>134</gpxtpx:hr>
          </gpxtpx:TrackPointExtension>
        </extensions>
      </trkpt>
      <trkpt lat="44.17418" lon="3.18745">
        <ele>735</ele>
        <time>2022-02-10T10:54:17Z</time>
        <extensions>
          <gpxtpx:TrackPointExtension xmlns:gpxtpx="http://www.garmin.com/xmlschemas/TrackPointExtension/v1">
            <gpxtpx:hr>135</gpxtpx:hr>
          </gpxtpx:TrackPointExtension>
        </extensions>
      </trkpt>
      <trkpt lat="44.1742" lon="3.18744">
        <ele>734.8</ele>
        <time>2022-02-10T10:54:18Z</time>
        <extensions>
          <gpxtpx:TrackPointExtension xmlns:gpxtpx="http://www.garmin.com/xmlschemas/TrackPointExtension/v1">
            <gpxtpx:hr>136</gpxtpx:hr>
          </gpxtpx:TrackPointExtension>
        </extensions>
      </trkpt>
      <trkpt lat="44.17422" lon="3.18744">
        <ele>734.8</ele>
        <time>2022-02-10T10:54:19Z</time>
        <extensions>
          <gpxtpx:TrackPointExtension xmlns:gpxtpx="http://www.garmin.com/xmlschemas/TrackPointExtension/v1">
            <gpxtpx:hr>137</gpxtpx:hr>
          </gpxtpx:TrackPointExtension>
        </extensions>
      </trkpt>
      <trkpt lat="44.17424" lon="3.18743">
        <ele>734.8</ele>
        <time>2022-02-10T10:54:20Z</time>
        <extensions>
          <gpxtpx:TrackPointExtension xmlns:gpxtpx="http://www.garmin.com/xmlschemas/TrackPointExtension/v1">
            <gpxtpx:hr>136</gpxtpx:hr>
          </gpxtpx:TrackPointExtension>
        </extensions>
      </trkpt>
      <trkpt lat="44.17426" lon="3.18742">
        <ele>734.4</ele>
        <time>2022-02-10T10:54:21Z</time>
        <extensions>
          <gpxtpx:TrackPointExtension xmlns:gpxtpx="http://www.garmin.com/xmlschemas/TrackPointExtension/v1">
            <gpxtpx:hr>134</gpxtpx:hr>
          </gpxtpx:TrackPointExtension>
        </extensions>
      </trkpt>
      <trkpt lat="44.17429" lon="3.18742">
        <ele>734.4</ele>
        <time>2022-02-10T10:54:22Z</time>
        <extensions>
          <gpxtpx:TrackPointExtension xmlns:gpxtpx="http://www.garmin.com/xmlschemas/TrackPointExtension/v1">
            <gpxtpx:hr>135</gpxtpx:hr>
          </gpxtpx:TrackPointExtension>
        </extensions>
      </trkpt>
      <trkpt lat="44.17431" lon="3.18741">
        <ele>734.2</ele>
        <time>2022-02-10T10:54:23Z</time>
        <extensions>
          <gpxtpx:TrackPointExtension xmlns:gpxtpx="http://www.garmin.com/xmlschemas/TrackPointExtension/v1">
            <gpxtpx:hr>137</gpxtpx:hr>
          </gpxtpx:TrackPointExtension>
        </extensions>
      </trkpt>
      <trkpt lat="44.17434" lon="3.1874">
        <ele>734.2</ele>
        <time>2022-02-10T10:54:24Z</time>
        <extensions>
          <gpxtpx:TrackPointExtension xmlns:gpxtpx="http://www.garmin.com/xmlschemas/TrackPointExtension/v1">
            <gpxtpx:hr>138</gpxtpx:hr>
          </gpxtpx:TrackPointExtension>
        </extensions>
      </trkpt>
      <trkpt lat="44.17437" lon="3.18739">
        <ele>734</ele>
        <time>2022-02-10T10:54:25Z</time>
        <extensions>
          <gpxtpx:TrackPointExtension xmlns:gpxtpx="http://www.garmin.com/xmlschemas/TrackPointExtension/v1">
            <gpxtpx:hr>140</gpxtpx:hr>
          </gpxtpx:TrackPointExtension>
        </extensions>
      </trkpt>
      <trkpt lat="44.17439" lon="3.18739">
        <ele>733.8</ele>
        <time>2022-02-10T10:54:26Z</time>
        <extensions>
          <gpxtpx:TrackPointExtension xmlns:gpxtpx="http://www.garmin.com/xmlschemas/TrackPointExtension/v1">
            <gpxtpx:hr>141</gpxtpx:hr>
          </gpxtpx:TrackPointExtension>
        </extensions>
      </trkpt>
      <trkpt lat="44.1744" lon="3.1874">
        <ele>733.6</ele>
        <time>2022-02-10T10:54:27Z</time>
        <extensions>
          <gpxtpx:TrackPointExtension xmlns:gpxtpx="http://www.garmin.com/xmlschemas/TrackPointExtension/v1">
            <gpxtpx:hr>141</gpxtpx:hr>
          </gpxtpx:TrackPointExtension>
        </extensions>
      </trkpt>
      <trkpt lat="44.17442" lon="3.18741">
        <ele>733.2</ele>
        <time>2022-02-10T10:54:28Z</time>
        <extensions>
          <gpxtpx:TrackPointExtension xmlns:gpxtpx="http://www.garmin.com/xmlschemas/TrackPointExtension/v1">
            <gpxtpx:hr>137</gpxtpx:hr>
          </gpxtpx:TrackPointExtension>
        </extensions>
      </trkpt>
      <trkpt lat="44.17444" lon="3.18741">
        <ele>732.8</ele>
        <time>2022-02-10T10:54:29Z</time>
        <extensions>
          <gpxtpx:TrackPointExtension xmlns:gpxtpx="http://www.garmin.com/xmlschemas/TrackPointExtension/v1">
            <gpxtpx:hr>137</gpxtpx:hr>
          </gpxtpx:TrackPointExtension>
        </extensions>
      </trkpt>
      <trkpt lat="44.17446" lon="3.18742">
        <ele>732.6</ele>
        <time>2022-02-10T10:54:30Z</time>
        <extensions>
          <gpxtpx:TrackPointExtension xmlns:gpxtpx="http://www.garmin.com/xmlschemas/TrackPointExtension/v1">
            <gpxtpx:hr>137</gpxtpx:hr>
          </gpxtpx:TrackPointExtension>
        </extensions>
      </trkpt>
      <trkpt lat="44.17448" lon="3.18743">
        <ele>732.2</ele>
        <time>2022-02-10T10:54:31Z</time>
        <extensions>
          <gpxtpx:TrackPointExtension xmlns:gpxtpx="http://www.garmin.com/xmlschemas/TrackPointExtension/v1">
            <gpxtpx:hr>139</gpxtpx:hr>
          </gpxtpx:TrackPointExtension>
        </extensions>
      </trkpt>
      <trkpt lat="44.1745" lon="3.18743">
        <ele>731.8</ele>
        <time>2022-02-10T10:54:32Z</time>
        <extensions>
          <gpxtpx:TrackPointExtension xmlns:gpxtpx="http://www.garmin.com/xmlschemas/TrackPointExtension/v1">
            <gpxtpx:hr>139</gpxtpx:hr>
          </gpxtpx:TrackPointExtension>
        </extensions>
      </trkpt>
      <trkpt lat="44.17452" lon="3.18743">
        <ele>731.4</ele>
        <time>2022-02-10T10:54:33Z</time>
        <extensions>
          <gpxtpx:TrackPointExtension xmlns:gpxtpx="http://www.garmin.com/xmlschemas/TrackPointExtension/v1">
            <gpxtpx:hr>141</gpxtpx:hr>
          </gpxtpx:TrackPointExtension>
        </extensions>
      </trkpt>
      <trkpt lat="44.17454" lon="3.18744">
        <ele>731.2</ele>
        <time>2022-02-10T10:54:34Z</time>
        <extensions>
          <gpxtpx:TrackPointExtension xmlns:gpxtpx="http://www.garmin.com/xmlschemas/TrackPointExtension/v1">
            <gpxtpx:hr>141</gpxtpx:hr>
          </gpxtpx:TrackPointExtension>
        </extensions>
      </trkpt>
      <trkpt lat="44.17456" lon="3.18744">
        <ele>731</ele>
        <time>2022-02-10T10:54:35Z</time>
        <extensions>
          <gpxtpx:TrackPointExtension xmlns:gpxtpx="http://www.garmin.com/xmlschemas/TrackPointExtension/v1">
            <gpxtpx:hr>141</gpxtpx:hr>
          </gpxtpx:TrackPointExtension>
        </extensions>
      </trkpt>
      <trkpt lat="44.1746" lon="3.18744">
        <ele>731</ele>
        <time>2022-02-10T10:54:36Z</time>
        <extensions>
          <gpxtpx:TrackPointExtension xmlns:gpxtpx="http://www.garmin.com/xmlschemas/TrackPointExtension/v1">
            <gpxtpx:hr>141</gpxtpx:hr>
          </gpxtpx:TrackPointExtension>
        </extensions>
      </trkpt>
      <trkpt lat="44.17463" lon="3.18745">
        <ele>730.6</ele>
        <time>2022-02-10T10:54:37Z</time>
        <extensions>
          <gpxtpx:TrackPointExtension xmlns:gpxtpx="http://www.garmin.com/xmlschemas/TrackPointExtension/v1">
            <gpxtpx:hr>141</gpxtpx:hr>
          </gpxtpx:TrackPointExtension>
        </extensions>
      </trkpt>
      <trkpt lat="44.17466" lon="3.18745">
        <ele>730.6</ele>
        <time>2022-02-10T10:54:38Z</time>
        <extensions>
          <gpxtpx:TrackPointExtension xmlns:gpxtpx="http://www.garmin.com/xmlschemas/TrackPointExtension/v1">
            <gpxtpx:hr>141</gpxtpx:hr>
          </gpxtpx:TrackPointExtension>
        </extensions>
      </trkpt>
      <trkpt lat="44.17468" lon="3.18745">
        <ele>730.2</ele>
        <time>2022-02-10T10:54:39Z</time>
        <extensions>
          <gpxtpx:TrackPointExtension xmlns:gpxtpx="http://www.garmin.com/xmlschemas/TrackPointExtension/v1">
            <gpxtpx:hr>141</gpxtpx:hr>
          </gpxtpx:TrackPointExtension>
        </extensions>
      </trkpt>
      <trkpt lat="44.17469" lon="3.18745">
        <ele>730</ele>
        <time>2022-02-10T10:54:40Z</time>
        <extensions>
          <gpxtpx:TrackPointExtension xmlns:gpxtpx="http://www.garmin.com/xmlschemas/TrackPointExtension/v1">
            <gpxtpx:hr>143</gpxtpx:hr>
          </gpxtpx:TrackPointExtension>
        </extensions>
      </trkpt>
      <trkpt lat="44.1747" lon="3.18745">
        <ele>730</ele>
        <time>2022-02-10T10:54:41Z</time>
        <extensions>
          <gpxtpx:TrackPointExtension xmlns:gpxtpx="http://www.garmin.com/xmlschemas/TrackPointExtension/v1">
            <gpxtpx:hr>141</gpxtpx:hr>
          </gpxtpx:TrackPointExtension>
        </extensions>
      </trkpt>
      <trkpt lat="44.17472" lon="3.18746">
        <ele>729.8</ele>
        <time>2022-02-10T10:54:42Z</time>
        <extensions>
          <gpxtpx:TrackPointExtension xmlns:gpxtpx="http://www.garmin.com/xmlschemas/TrackPointExtension/v1">
            <gpxtpx:hr>141</gpxtpx:hr>
          </gpxtpx:TrackPointExtension>
        </extensions>
      </trkpt>
      <trkpt lat="44.17479" lon="3.18746">
        <ele>729.8</ele>
        <time>2022-02-10T10:54:43Z</time>
        <extensions>
          <gpxtpx:TrackPointExtension xmlns:gpxtpx="http://www.garmin.com/xmlschemas/TrackPointExtension/v1">
            <gpxtpx:hr>140</gpxtpx:hr>
          </gpxtpx:TrackPointExtension>
        </extensions>
      </trkpt>
      <trkpt lat="44.1748" lon="3.18745">
        <ele>729.4</ele>
        <time>2022-02-10T10:54:44Z</time>
        <extensions>
          <gpxtpx:TrackPointExtension xmlns:gpxtpx="http://www.garmin.com/xmlschemas/TrackPointExtension/v1">
            <gpxtpx:hr>141</gpxtpx:hr>
          </gpxtpx:TrackPointExtension>
        </extensions>
      </trkpt>
      <trkpt lat="44.17481" lon="3.18745">
        <ele>729.4</ele>
        <time>2022-02-10T10:54:45Z</time>
        <extensions>
          <gpxtpx:TrackPointExtension xmlns:gpxtpx="http://www.garmin.com/xmlschemas/TrackPointExtension/v1">
            <gpxtpx:hr>140</gpxtpx:hr>
          </gpxtpx:TrackPointExtension>
        </extensions>
      </trkpt>
      <trkpt lat="44.17483" lon="3.18745">
        <ele>729</ele>
        <time>2022-02-10T10:54:46Z</time>
        <extensions>
          <gpxtpx:TrackPointExtension xmlns:gpxtpx="http://www.garmin.com/xmlschemas/TrackPointExtension/v1">
            <gpxtpx:hr>140</gpxtpx:hr>
          </gpxtpx:TrackPointExtension>
        </extensions>
      </trkpt>
      <trkpt lat="44.17489" lon="3.18743">
        <ele>728.8</ele>
        <time>2022-02-10T10:54:47Z</time>
        <extensions>
          <gpxtpx:TrackPointExtension xmlns:gpxtpx="http://www.garmin.com/xmlschemas/TrackPointExtension/v1">
            <gpxtpx:hr>139</gpxtpx:hr>
          </gpxtpx:TrackPointExtension>
        </extensions>
      </trkpt>
      <trkpt lat="44.17491" lon="3.18743">
        <ele>728.6</ele>
        <time>2022-02-10T10:54:48Z</time>
        <extensions>
          <gpxtpx:TrackPointExtension xmlns:gpxtpx="http://www.garmin.com/xmlschemas/TrackPointExtension/v1">
            <gpxtpx:hr>139</gpxtpx:hr>
          </gpxtpx:TrackPointExtension>
        </extensions>
      </trkpt>
      <trkpt lat="44.17492" lon="3.18743">
        <ele>728.6</ele>
        <time>2022-02-10T10:54:49Z</time>
        <extensions>
          <gpxtpx:TrackPointExtension xmlns:gpxtpx="http://www.garmin.com/xmlschemas/TrackPointExtension/v1">
            <gpxtpx:hr>140</gpxtpx:hr>
          </gpxtpx:TrackPointExtension>
        </extensions>
      </trkpt>
      <trkpt lat="44.17493" lon="3.18742">
        <ele>728.2</ele>
        <time>2022-02-10T10:54:50Z</time>
        <extensions>
          <gpxtpx:TrackPointExtension xmlns:gpxtpx="http://www.garmin.com/xmlschemas/TrackPointExtension/v1">
            <gpxtpx:hr>140</gpxtpx:hr>
          </gpxtpx:TrackPointExtension>
        </extensions>
      </trkpt>
      <trkpt lat="44.17501" lon="3.18741">
        <ele>728.2</ele>
        <time>2022-02-10T10:54:51Z</time>
        <extensions>
          <gpxtpx:TrackPointExtension xmlns:gpxtpx="http://www.garmin.com/xmlschemas/TrackPointExtension/v1">
            <gpxtpx:hr>141</gpxtpx:hr>
          </gpxtpx:TrackPointExtension>
        </extensions>
      </trkpt>
      <trkpt lat="44.17504" lon="3.18741">
        <ele>728</ele>
        <time>2022-02-10T10:54:52Z</time>
        <extensions>
          <gpxtpx:TrackPointExtension xmlns:gpxtpx="http://www.garmin.com/xmlschemas/TrackPointExtension/v1">
            <gpxtpx:hr>141</gpxtpx:hr>
          </gpxtpx:TrackPointExtension>
        </extensions>
      </trkpt>
      <trkpt lat="44.17506" lon="3.1874">
        <ele>728</ele>
        <time>2022-02-10T10:54:53Z</time>
        <extensions>
          <gpxtpx:TrackPointExtension xmlns:gpxtpx="http://www.garmin.com/xmlschemas/TrackPointExtension/v1">
            <gpxtpx:hr>143</gpxtpx:hr>
          </gpxtpx:TrackPointExtension>
        </extensions>
      </trkpt>
      <trkpt lat="44.17508" lon="3.1874">
        <ele>727.6</ele>
        <time>2022-02-10T10:54:54Z</time>
        <extensions>
          <gpxtpx:TrackPointExtension xmlns:gpxtpx="http://www.garmin.com/xmlschemas/TrackPointExtension/v1">
            <gpxtpx:hr>145</gpxtpx:hr>
          </gpxtpx:TrackPointExtension>
        </extensions>
      </trkpt>
      <trkpt lat="44.1751" lon="3.1874">
        <ele>727.6</ele>
        <time>2022-02-10T10:54:55Z</time>
        <extensions>
          <gpxtpx:TrackPointExtension xmlns:gpxtpx="http://www.garmin.com/xmlschemas/TrackPointExtension/v1">
            <gpxtpx:hr>145</gpxtpx:hr>
          </gpxtpx:TrackPointExtension>
        </extensions>
      </trkpt>
      <trkpt lat="44.17512" lon="3.18741">
        <ele>727.2</ele>
        <time>2022-02-10T10:54:56Z</time>
        <extensions>
          <gpxtpx:TrackPointExtension xmlns:gpxtpx="http://www.garmin.com/xmlschemas/TrackPointExtension/v1">
            <gpxtpx:hr>147</gpxtpx:hr>
          </gpxtpx:TrackPointExtension>
        </extensions>
      </trkpt>
      <trkpt lat="44.17514" lon="3.18741">
        <ele>727.2</ele>
        <time>2022-02-10T10:54:57Z</time>
        <extensions>
          <gpxtpx:TrackPointExtension xmlns:gpxtpx="http://www.garmin.com/xmlschemas/TrackPointExtension/v1">
            <gpxtpx:hr>149</gpxtpx:hr>
          </gpxtpx:TrackPointExtension>
        </extensions>
      </trkpt>
      <trkpt lat="44.17516" lon="3.18741">
        <ele>727</ele>
        <time>2022-02-10T10:54:58Z</time>
        <extensions>
          <gpxtpx:TrackPointExtension xmlns:gpxtpx="http://www.garmin.com/xmlschemas/TrackPointExtension/v1">
            <gpxtpx:hr>151</gpxtpx:hr>
          </gpxtpx:TrackPointExtension>
        </extensions>
      </trkpt>
      <trkpt lat="44.17518" lon="3.18741">
        <ele>727</ele>
        <time>2022-02-10T10:54:59Z</time>
        <extensions>
          <gpxtpx:TrackPointExtension xmlns:gpxtpx="http://www.garmin.com/xmlschemas/TrackPointExtension/v1">
            <gpxtpx:hr>151</gpxtpx:hr>
          </gpxtpx:TrackPointExtension>
        </extensions>
      </trkpt>
      <trkpt lat="44.17519" lon="3.18742">
        <ele>727</ele>
        <time>2022-02-10T10:55:00Z</time>
        <extensions>
          <gpxtpx:TrackPointExtension xmlns:gpxtpx="http://www.garmin.com/xmlschemas/TrackPointExtension/v1">
            <gpxtpx:hr>150</gpxtpx:hr>
          </gpxtpx:TrackPointExtension>
        </extensions>
      </trkpt>
      <trkpt lat="44.1752" lon="3.18743">
        <ele>726.6</ele>
        <time>2022-02-10T10:55:01Z</time>
        <extensions>
          <gpxtpx:TrackPointExtension xmlns:gpxtpx="http://www.garmin.com/xmlschemas/TrackPointExtension/v1">
            <gpxtpx:hr>150</gpxtpx:hr>
          </gpxtpx:TrackPointExtension>
        </extensions>
      </trkpt>
      <trkpt lat="44.17521" lon="3.18745">
        <ele>726.6</ele>
        <time>2022-02-10T10:55:02Z</time>
        <extensions>
          <gpxtpx:TrackPointExtension xmlns:gpxtpx="http://www.garmin.com/xmlschemas/TrackPointExtension/v1">
            <gpxtpx:hr>149</gpxtpx:hr>
          </gpxtpx:TrackPointExtension>
        </extensions>
      </trkpt>
      <trkpt lat="44.17522" lon="3.18746">
        <ele>726.4</ele>
        <time>2022-02-10T10:55:03Z</time>
        <extensions>
          <gpxtpx:TrackPointExtension xmlns:gpxtpx="http://www.garmin.com/xmlschemas/TrackPointExtension/v1">
            <gpxtpx:hr>150</gpxtpx:hr>
          </gpxtpx:TrackPointExtension>
        </extensions>
      </trkpt>
      <trkpt lat="44.17529" lon="3.18753">
        <ele>726.4</ele>
        <time>2022-02-10T10:55:04Z</time>
        <extensions>
          <gpxtpx:TrackPointExtension xmlns:gpxtpx="http://www.garmin.com/xmlschemas/TrackPointExtension/v1">
            <gpxtpx:hr>150</gpxtpx:hr>
          </gpxtpx:TrackPointExtension>
        </extensions>
      </trkpt>
      <trkpt lat="44.1753" lon="3.18755">
        <ele>726.4</ele>
        <time>2022-02-10T10:55:05Z</time>
        <extensions>
          <gpxtpx:TrackPointExtension xmlns:gpxtpx="http://www.garmin.com/xmlschemas/TrackPointExtension/v1">
            <gpxtpx:hr>147</gpxtpx:hr>
          </gpxtpx:TrackPointExtension>
        </extensions>
      </trkpt>
      <trkpt lat="44.17532" lon="3.18757">
        <ele>726.2</ele>
        <time>2022-02-10T10:55:06Z</time>
        <extensions>
          <gpxtpx:TrackPointExtension xmlns:gpxtpx="http://www.garmin.com/xmlschemas/TrackPointExtension/v1">
            <gpxtpx:hr>147</gpxtpx:hr>
          </gpxtpx:TrackPointExtension>
        </extensions>
      </trkpt>
      <trkpt lat="44.17533" lon="3.1876">
        <ele>726.2</ele>
        <time>2022-02-10T10:55:07Z</time>
        <extensions>
          <gpxtpx:TrackPointExtension xmlns:gpxtpx="http://www.garmin.com/xmlschemas/TrackPointExtension/v1">
            <gpxtpx:hr>147</gpxtpx:hr>
          </gpxtpx:TrackPointExtension>
        </extensions>
      </trkpt>
      <trkpt lat="44.17535" lon="3.18762">
        <ele>726.2</ele>
        <time>2022-02-10T10:55:08Z</time>
        <extensions>
          <gpxtpx:TrackPointExtension xmlns:gpxtpx="http://www.garmin.com/xmlschemas/TrackPointExtension/v1">
            <gpxtpx:hr>147</gpxtpx:hr>
          </gpxtpx:TrackPointExtension>
        </extensions>
      </trkpt>
      <trkpt lat="44.17537" lon="3.18765">
        <ele>726</ele>
        <time>2022-02-10T10:55:09Z</time>
        <extensions>
          <gpxtpx:TrackPointExtension xmlns:gpxtpx="http://www.garmin.com/xmlschemas/TrackPointExtension/v1">
            <gpxtpx:hr>147</gpxtpx:hr>
          </gpxtpx:TrackPointExtension>
        </extensions>
      </trkpt>
      <trkpt lat="44.17539" lon="3.18769">
        <ele>726</ele>
        <time>2022-02-10T10:55:10Z</time>
        <extensions>
          <gpxtpx:TrackPointExtension xmlns:gpxtpx="http://www.garmin.com/xmlschemas/TrackPointExtension/v1">
            <gpxtpx:hr>147</gpxtpx:hr>
          </gpxtpx:TrackPointExtension>
        </extensions>
      </trkpt>
      <trkpt lat="44.17541" lon="3.18772">
        <ele>726</ele>
        <time>2022-02-10T10:55:11Z</time>
        <extensions>
          <gpxtpx:TrackPointExtension xmlns:gpxtpx="http://www.garmin.com/xmlschemas/TrackPointExtension/v1">
            <gpxtpx:hr>147</gpxtpx:hr>
          </gpxtpx:TrackPointExtension>
        </extensions>
      </trkpt>
      <trkpt lat="44.17544" lon="3.18776">
        <ele>725.8</ele>
        <time>2022-02-10T10:55:12Z</time>
        <extensions>
          <gpxtpx:TrackPointExtension xmlns:gpxtpx="http://www.garmin.com/xmlschemas/TrackPointExtension/v1">
            <gpxtpx:hr>147</gpxtpx:hr>
          </gpxtpx:TrackPointExtension>
        </extensions>
      </trkpt>
      <trkpt lat="44.17546" lon="3.18779">
        <ele>725.8</ele>
        <time>2022-02-10T10:55:13Z</time>
        <extensions>
          <gpxtpx:TrackPointExtension xmlns:gpxtpx="http://www.garmin.com/xmlschemas/TrackPointExtension/v1">
            <gpxtpx:hr>146</gpxtpx:hr>
          </gpxtpx:TrackPointExtension>
        </extensions>
      </trkpt>
      <trkpt lat="44.17548" lon="3.18782">
        <ele>725.6</ele>
        <time>2022-02-10T10:55:14Z</time>
        <extensions>
          <gpxtpx:TrackPointExtension xmlns:gpxtpx="http://www.garmin.com/xmlschemas/TrackPointExtension/v1">
            <gpxtpx:hr>147</gpxtpx:hr>
          </gpxtpx:TrackPointExtension>
        </extensions>
      </trkpt>
      <trkpt lat="44.1755" lon="3.18784">
        <ele>725.4</ele>
        <time>2022-02-10T10:55:15Z</time>
        <extensions>
          <gpxtpx:TrackPointExtension xmlns:gpxtpx="http://www.garmin.com/xmlschemas/TrackPointExtension/v1">
            <gpxtpx:hr>148</gpxtpx:hr>
          </gpxtpx:TrackPointExtension>
        </extensions>
      </trkpt>
      <trkpt lat="44.17552" lon="3.18787">
        <ele>725.2</ele>
        <time>2022-02-10T10:55:16Z</time>
        <extensions>
          <gpxtpx:TrackPointExtension xmlns:gpxtpx="http://www.garmin.com/xmlschemas/TrackPointExtension/v1">
            <gpxtpx:hr>151</gpxtpx:hr>
          </gpxtpx:TrackPointExtension>
        </extensions>
      </trkpt>
      <trkpt lat="44.17554" lon="3.18789">
        <ele>725</ele>
        <time>2022-02-10T10:55:17Z</time>
        <extensions>
          <gpxtpx:TrackPointExtension xmlns:gpxtpx="http://www.garmin.com/xmlschemas/TrackPointExtension/v1">
            <gpxtpx:hr>151</gpxtpx:hr>
          </gpxtpx:TrackPointExtension>
        </extensions>
      </trkpt>
      <trkpt lat="44.17556" lon="3.18791">
        <ele>725</ele>
        <time>2022-02-10T10:55:18Z</time>
        <extensions>
          <gpxtpx:TrackPointExtension xmlns:gpxtpx="http://www.garmin.com/xmlschemas/TrackPointExtension/v1">
            <gpxtpx:hr>151</gpxtpx:hr>
          </gpxtpx:TrackPointExtension>
        </extensions>
      </trkpt>
      <trkpt lat="44.17558" lon="3.18791">
        <ele>724.6</ele>
        <time>2022-02-10T10:55:19Z</time>
        <extensions>
          <gpxtpx:TrackPointExtension xmlns:gpxtpx="http://www.garmin.com/xmlschemas/TrackPointExtension/v1">
            <gpxtpx:hr>151</gpxtpx:hr>
          </gpxtpx:TrackPointExtension>
        </extensions>
      </trkpt>
      <trkpt lat="44.1756" lon="3.18791">
        <ele>724.6</ele>
        <time>2022-02-10T10:55:20Z</time>
        <extensions>
          <gpxtpx:TrackPointExtension xmlns:gpxtpx="http://www.garmin.com/xmlschemas/TrackPointExtension/v1">
            <gpxtpx:hr>151</gpxtpx:hr>
          </gpxtpx:TrackPointExtension>
        </extensions>
      </trkpt>
      <trkpt lat="44.17563" lon="3.18792">
        <ele>724.2</ele>
        <time>2022-02-10T10:55:21Z</time>
        <extensions>
          <gpxtpx:TrackPointExtension xmlns:gpxtpx="http://www.garmin.com/xmlschemas/TrackPointExtension/v1">
            <gpxtpx:hr>151</gpxtpx:hr>
          </gpxtpx:TrackPointExtension>
        </extensions>
      </trkpt>
      <trkpt lat="44.17565" lon="3.18792">
        <ele>724.2</ele>
        <time>2022-02-10T10:55:22Z</time>
        <extensions>
          <gpxtpx:TrackPointExtension xmlns:gpxtpx="http://www.garmin.com/xmlschemas/TrackPointExtension/v1">
            <gpxtpx:hr>151</gpxtpx:hr>
          </gpxtpx:TrackPointExtension>
        </extensions>
      </trkpt>
      <trkpt lat="44.17568" lon="3.18791">
        <ele>724.2</ele>
        <time>2022-02-10T10:55:23Z</time>
        <extensions>
          <gpxtpx:TrackPointExtension xmlns:gpxtpx="http://www.garmin.com/xmlschemas/TrackPointExtension/v1">
            <gpxtpx:hr>152</gpxtpx:hr>
          </gpxtpx:TrackPointExtension>
        </extensions>
      </trkpt>
      <trkpt lat="44.17571" lon="3.18789">
        <ele>724</ele>
        <time>2022-02-10T10:55:24Z</time>
        <extensions>
          <gpxtpx:TrackPointExtension xmlns:gpxtpx="http://www.garmin.com/xmlschemas/TrackPointExtension/v1">
            <gpxtpx:hr>151</gpxtpx:hr>
          </gpxtpx:TrackPointExtension>
        </extensions>
      </trkpt>
      <trkpt lat="44.17574" lon="3.18788">
        <ele>724</ele>
        <time>2022-02-10T10:55:25Z</time>
        <extensions>
          <gpxtpx:TrackPointExtension xmlns:gpxtpx="http://www.garmin.com/xmlschemas/TrackPointExtension/v1">
            <gpxtpx:hr>151</gpxtpx:hr>
          </gpxtpx:TrackPointExtension>
        </extensions>
      </trkpt>
      <trkpt lat="44.17576" lon="3.18787">
        <ele>724</ele>
        <time>2022-02-10T10:55:26Z</time>
        <extensions>
          <gpxtpx:TrackPointExtension xmlns:gpxtpx="http://www.garmin.com/xmlschemas/TrackPointExtension/v1">
            <gpxtpx:hr>150</gpxtpx:hr>
          </gpxtpx:TrackPointExtension>
        </extensions>
      </trkpt>
      <trkpt lat="44.17578" lon="3.18786">
        <ele>723.8</ele>
        <time>2022-02-10T10:55:27Z</time>
        <extensions>
          <gpxtpx:TrackPointExtension xmlns:gpxtpx="http://www.garmin.com/xmlschemas/TrackPointExtension/v1">
            <gpxtpx:hr>150</gpxtpx:hr>
          </gpxtpx:TrackPointExtension>
        </extensions>
      </trkpt>
      <trkpt lat="44.17579" lon="3.18785">
        <ele>723.4</ele>
        <time>2022-02-10T10:55:28Z</time>
        <extensions>
          <gpxtpx:TrackPointExtension xmlns:gpxtpx="http://www.garmin.com/xmlschemas/TrackPointExtension/v1">
            <gpxtpx:hr>150</gpxtpx:hr>
          </gpxtpx:TrackPointExtension>
        </extensions>
      </trkpt>
      <trkpt lat="44.17581" lon="3.18784">
        <ele>723.4</ele>
        <time>2022-02-10T10:55:29Z</time>
        <extensions>
          <gpxtpx:TrackPointExtension xmlns:gpxtpx="http://www.garmin.com/xmlschemas/TrackPointExtension/v1">
            <gpxtpx:hr>149</gpxtpx:hr>
          </gpxtpx:TrackPointExtension>
        </extensions>
      </trkpt>
      <trkpt lat="44.17583" lon="3.18783">
        <ele>723.2</ele>
        <time>2022-02-10T10:55:30Z</time>
        <extensions>
          <gpxtpx:TrackPointExtension xmlns:gpxtpx="http://www.garmin.com/xmlschemas/TrackPointExtension/v1">
            <gpxtpx:hr>150</gpxtpx:hr>
          </gpxtpx:TrackPointExtension>
        </extensions>
      </trkpt>
      <trkpt lat="44.17585" lon="3.18782">
        <ele>723.2</ele>
        <time>2022-02-10T10:55:31Z</time>
        <extensions>
          <gpxtpx:TrackPointExtension xmlns:gpxtpx="http://www.garmin.com/xmlschemas/TrackPointExtension/v1">
            <gpxtpx:hr>150</gpxtpx:hr>
          </gpxtpx:TrackPointExtension>
        </extensions>
      </trkpt>
      <trkpt lat="44.17587" lon="3.18781">
        <ele>723.2</ele>
        <time>2022-02-10T10:55:32Z</time>
        <extensions>
          <gpxtpx:TrackPointExtension xmlns:gpxtpx="http://www.garmin.com/xmlschemas/TrackPointExtension/v1">
            <gpxtpx:hr>150</gpxtpx:hr>
          </gpxtpx:TrackPointExtension>
        </extensions>
      </trkpt>
      <trkpt lat="44.17589" lon="3.18781">
        <ele>722.8</ele>
        <time>2022-02-10T10:55:33Z</time>
        <extensions>
          <gpxtpx:TrackPointExtension xmlns:gpxtpx="http://www.garmin.com/xmlschemas/TrackPointExtension/v1">
            <gpxtpx:hr>150</gpxtpx:hr>
          </gpxtpx:TrackPointExtension>
        </extensions>
      </trkpt>
      <trkpt lat="44.17591" lon="3.1878">
        <ele>722.6</ele>
        <time>2022-02-10T10:55:34Z</time>
        <extensions>
          <gpxtpx:TrackPointExtension xmlns:gpxtpx="http://www.garmin.com/xmlschemas/TrackPointExtension/v1">
            <gpxtpx:hr>151</gpxtpx:hr>
          </gpxtpx:TrackPointExtension>
        </extensions>
      </trkpt>
      <trkpt lat="44.17593" lon="3.18779">
        <ele>722.6</ele>
        <time>2022-02-10T10:55:35Z</time>
        <extensions>
          <gpxtpx:TrackPointExtension xmlns:gpxtpx="http://www.garmin.com/xmlschemas/TrackPointExtension/v1">
            <gpxtpx:hr>150</gpxtpx:hr>
          </gpxtpx:TrackPointExtension>
        </extensions>
      </trkpt>
      <trkpt lat="44.17594" lon="3.18779">
        <ele>722.4</ele>
        <time>2022-02-10T10:55:36Z</time>
        <extensions>
          <gpxtpx:TrackPointExtension xmlns:gpxtpx="http://www.garmin.com/xmlschemas/TrackPointExtension/v1">
            <gpxtpx:hr>151</gpxtpx:hr>
          </gpxtpx:TrackPointExtension>
        </extensions>
      </trkpt>
      <trkpt lat="44.17596" lon="3.18779">
        <ele>722.4</ele>
        <time>2022-02-10T10:55:37Z</time>
        <extensions>
          <gpxtpx:TrackPointExtension xmlns:gpxtpx="http://www.garmin.com/xmlschemas/TrackPointExtension/v1">
            <gpxtpx:hr>150</gpxtpx:hr>
          </gpxtpx:TrackPointExtension>
        </extensions>
      </trkpt>
      <trkpt lat="44.17597" lon="3.18779">
        <ele>722.4</ele>
        <time>2022-02-10T10:55:38Z</time>
        <extensions>
          <gpxtpx:TrackPointExtension xmlns:gpxtpx="http://www.garmin.com/xmlschemas/TrackPointExtension/v1">
            <gpxtpx:hr>150</gpxtpx:hr>
          </gpxtpx:TrackPointExtension>
        </extensions>
      </trkpt>
      <trkpt lat="44.17598" lon="3.18779">
        <ele>722.4</ele>
        <time>2022-02-10T10:55:39Z</time>
        <extensions>
          <gpxtpx:TrackPointExtension xmlns:gpxtpx="http://www.garmin.com/xmlschemas/TrackPointExtension/v1">
            <gpxtpx:hr>149</gpxtpx:hr>
          </gpxtpx:TrackPointExtension>
        </extensions>
      </trkpt>
      <trkpt lat="44.17605" lon="3.18781">
        <ele>722.4</ele>
        <time>2022-02-10T10:55:40Z</time>
        <extensions>
          <gpxtpx:TrackPointExtension xmlns:gpxtpx="http://www.garmin.com/xmlschemas/TrackPointExtension/v1">
            <gpxtpx:hr>150</gpxtpx:hr>
          </gpxtpx:TrackPointExtension>
        </extensions>
      </trkpt>
      <trkpt lat="44.17606" lon="3.18782">
        <ele>722.2</ele>
        <time>2022-02-10T10:55:41Z</time>
        <extensions>
          <gpxtpx:TrackPointExtension xmlns:gpxtpx="http://www.garmin.com/xmlschemas/TrackPointExtension/v1">
            <gpxtpx:hr>150</gpxtpx:hr>
          </gpxtpx:TrackPointExtension>
        </extensions>
      </trkpt>
      <trkpt lat="44.17608" lon="3.18783">
        <ele>722.2</ele>
        <time>2022-02-10T10:55:42Z</time>
        <extensions>
          <gpxtpx:TrackPointExtension xmlns:gpxtpx="http://www.garmin.com/xmlschemas/TrackPointExtension/v1">
            <gpxtpx:hr>150</gpxtpx:hr>
          </gpxtpx:TrackPointExtension>
        </extensions>
      </trkpt>
      <trkpt lat="44.17609" lon="3.18784">
        <ele>722.2</ele>
        <time>2022-02-10T10:55:43Z</time>
        <extensions>
          <gpxtpx:TrackPointExtension xmlns:gpxtpx="http://www.garmin.com/xmlschemas/TrackPointExtension/v1">
            <gpxtpx:hr>149</gpxtpx:hr>
          </gpxtpx:TrackPointExtension>
        </extensions>
      </trkpt>
      <trkpt lat="44.17611" lon="3.18786">
        <ele>722.2</ele>
        <time>2022-02-10T10:55:44Z</time>
        <extensions>
          <gpxtpx:TrackPointExtension xmlns:gpxtpx="http://www.garmin.com/xmlschemas/TrackPointExtension/v1">
            <gpxtpx:hr>150</gpxtpx:hr>
          </gpxtpx:TrackPointExtension>
        </extensions>
      </trkpt>
      <trkpt lat="44.17613" lon="3.18787">
        <ele>722.2</ele>
        <time>2022-02-10T10:55:45Z</time>
        <extensions>
          <gpxtpx:TrackPointExtension xmlns:gpxtpx="http://www.garmin.com/xmlschemas/TrackPointExtension/v1">
            <gpxtpx:hr>149</gpxtpx:hr>
          </gpxtpx:TrackPointExtension>
        </extensions>
      </trkpt>
      <trkpt lat="44.17615" lon="3.18789">
        <ele>722.2</ele>
        <time>2022-02-10T10:55:46Z</time>
        <extensions>
          <gpxtpx:TrackPointExtension xmlns:gpxtpx="http://www.garmin.com/xmlschemas/TrackPointExtension/v1">
            <gpxtpx:hr>148</gpxtpx:hr>
          </gpxtpx:TrackPointExtension>
        </extensions>
      </trkpt>
      <trkpt lat="44.17618" lon="3.1879">
        <ele>722.2</ele>
        <time>2022-02-10T10:55:47Z</time>
        <extensions>
          <gpxtpx:TrackPointExtension xmlns:gpxtpx="http://www.garmin.com/xmlschemas/TrackPointExtension/v1">
            <gpxtpx:hr>147</gpxtpx:hr>
          </gpxtpx:TrackPointExtension>
        </extensions>
      </trkpt>
      <trkpt lat="44.17621" lon="3.18792">
        <ele>722.2</ele>
        <time>2022-02-10T10:55:48Z</time>
        <extensions>
          <gpxtpx:TrackPointExtension xmlns:gpxtpx="http://www.garmin.com/xmlschemas/TrackPointExtension/v1">
            <gpxtpx:hr>147</gpxtpx:hr>
          </gpxtpx:TrackPointExtension>
        </extensions>
      </trkpt>
      <trkpt lat="44.17628" lon="3.18796">
        <ele>722</ele>
        <time>2022-02-10T10:55:51Z</time>
        <extensions>
          <gpxtpx:TrackPointExtension xmlns:gpxtpx="http://www.garmin.com/xmlschemas/TrackPointExtension/v1">
            <gpxtpx:hr>146</gpxtpx:hr>
          </gpxtpx:TrackPointExtension>
        </extensions>
      </trkpt>
      <trkpt lat="44.1763" lon="3.18797">
        <ele>722</ele>
        <time>2022-02-10T10:55:52Z</time>
        <extensions>
          <gpxtpx:TrackPointExtension xmlns:gpxtpx="http://www.garmin.com/xmlschemas/TrackPointExtension/v1">
            <gpxtpx:hr>146</gpxtpx:hr>
          </gpxtpx:TrackPointExtension>
        </extensions>
      </trkpt>
      <trkpt lat="44.17636" lon="3.18799">
        <ele>722</ele>
        <time>2022-02-10T10:55:54Z</time>
        <extensions>
          <gpxtpx:TrackPointExtension xmlns:gpxtpx="http://www.garmin.com/xmlschemas/TrackPointExtension/v1">
            <gpxtpx:hr>148</gpxtpx:hr>
          </gpxtpx:TrackPointExtension>
        </extensions>
      </trkpt>
      <trkpt lat="44.17641" lon="3.18801">
        <ele>722</ele>
        <time>2022-02-10T10:55:56Z</time>
        <extensions>
          <gpxtpx:TrackPointExtension xmlns:gpxtpx="http://www.garmin.com/xmlschemas/TrackPointExtension/v1">
            <gpxtpx:hr>148</gpxtpx:hr>
          </gpxtpx:TrackPointExtension>
        </extensions>
      </trkpt>
      <trkpt lat="44.17644" lon="3.18802">
        <ele>722</ele>
        <time>2022-02-10T10:55:57Z</time>
        <extensions>
          <gpxtpx:TrackPointExtension xmlns:gpxtpx="http://www.garmin.com/xmlschemas/TrackPointExtension/v1">
            <gpxtpx:hr>148</gpxtpx:hr>
          </gpxtpx:TrackPointExtension>
        </extensions>
      </trkpt>
      <trkpt lat="44.17646" lon="3.18802">
        <ele>721.8</ele>
        <time>2022-02-10T10:55:58Z</time>
        <extensions>
          <gpxtpx:TrackPointExtension xmlns:gpxtpx="http://www.garmin.com/xmlschemas/TrackPointExtension/v1">
            <gpxtpx:hr>150</gpxtpx:hr>
          </gpxtpx:TrackPointExtension>
        </extensions>
      </trkpt>
      <trkpt lat="44.17651" lon="3.18802">
        <ele>721.4</ele>
        <time>2022-02-10T10:56:00Z</time>
        <extensions>
          <gpxtpx:TrackPointExtension xmlns:gpxtpx="http://www.garmin.com/xmlschemas/TrackPointExtension/v1">
            <gpxtpx:hr>150</gpxtpx:hr>
          </gpxtpx:TrackPointExtension>
        </extensions>
      </trkpt>
      <trkpt lat="44.17653" lon="3.18802">
        <ele>721.4</ele>
        <time>2022-02-10T10:56:01Z</time>
        <extensions>
          <gpxtpx:TrackPointExtension xmlns:gpxtpx="http://www.garmin.com/xmlschemas/TrackPointExtension/v1">
            <gpxtpx:hr>151</gpxtpx:hr>
          </gpxtpx:TrackPointExtension>
        </extensions>
      </trkpt>
      <trkpt lat="44.17656" lon="3.18802">
        <ele>721.2</ele>
        <time>2022-02-10T10:56:02Z</time>
        <extensions>
          <gpxtpx:TrackPointExtension xmlns:gpxtpx="http://www.garmin.com/xmlschemas/TrackPointExtension/v1">
            <gpxtpx:hr>150</gpxtpx:hr>
          </gpxtpx:TrackPointExtension>
        </extensions>
      </trkpt>
      <trkpt lat="44.17658" lon="3.18802">
        <ele>721.2</ele>
        <time>2022-02-10T10:56:03Z</time>
        <extensions>
          <gpxtpx:TrackPointExtension xmlns:gpxtpx="http://www.garmin.com/xmlschemas/TrackPointExtension/v1">
            <gpxtpx:hr>150</gpxtpx:hr>
          </gpxtpx:TrackPointExtension>
        </extensions>
      </trkpt>
      <trkpt lat="44.1766" lon="3.18803">
        <ele>721</ele>
        <time>2022-02-10T10:56:04Z</time>
        <extensions>
          <gpxtpx:TrackPointExtension xmlns:gpxtpx="http://www.garmin.com/xmlschemas/TrackPointExtension/v1">
            <gpxtpx:hr>151</gpxtpx:hr>
          </gpxtpx:TrackPointExtension>
        </extensions>
      </trkpt>
      <trkpt lat="44.17662" lon="3.18803">
        <ele>721</ele>
        <time>2022-02-10T10:56:05Z</time>
        <extensions>
          <gpxtpx:TrackPointExtension xmlns:gpxtpx="http://www.garmin.com/xmlschemas/TrackPointExtension/v1">
            <gpxtpx:hr>149</gpxtpx:hr>
          </gpxtpx:TrackPointExtension>
        </extensions>
      </trkpt>
      <trkpt lat="44.17665" lon="3.18804">
        <ele>720.8</ele>
        <time>2022-02-10T10:56:06Z</time>
        <extensions>
          <gpxtpx:TrackPointExtension xmlns:gpxtpx="http://www.garmin.com/xmlschemas/TrackPointExtension/v1">
            <gpxtpx:hr>150</gpxtpx:hr>
          </gpxtpx:TrackPointExtension>
        </extensions>
      </trkpt>
      <trkpt lat="44.17668" lon="3.18805">
        <ele>720.8</ele>
        <time>2022-02-10T10:56:07Z</time>
        <extensions>
          <gpxtpx:TrackPointExtension xmlns:gpxtpx="http://www.garmin.com/xmlschemas/TrackPointExtension/v1">
            <gpxtpx:hr>148</gpxtpx:hr>
          </gpxtpx:TrackPointExtension>
        </extensions>
      </trkpt>
      <trkpt lat="44.1767" lon="3.18806">
        <ele>720.8</ele>
        <time>2022-02-10T10:56:08Z</time>
        <extensions>
          <gpxtpx:TrackPointExtension xmlns:gpxtpx="http://www.garmin.com/xmlschemas/TrackPointExtension/v1">
            <gpxtpx:hr>148</gpxtpx:hr>
          </gpxtpx:TrackPointExtension>
        </extensions>
      </trkpt>
      <trkpt lat="44.17672" lon="3.18807">
        <ele>720.4</ele>
        <time>2022-02-10T10:56:09Z</time>
        <extensions>
          <gpxtpx:TrackPointExtension xmlns:gpxtpx="http://www.garmin.com/xmlschemas/TrackPointExtension/v1">
            <gpxtpx:hr>149</gpxtpx:hr>
          </gpxtpx:TrackPointExtension>
        </extensions>
      </trkpt>
      <trkpt lat="44.17674" lon="3.18809">
        <ele>720.4</ele>
        <time>2022-02-10T10:56:10Z</time>
        <extensions>
          <gpxtpx:TrackPointExtension xmlns:gpxtpx="http://www.garmin.com/xmlschemas/TrackPointExtension/v1">
            <gpxtpx:hr>148</gpxtpx:hr>
          </gpxtpx:TrackPointExtension>
        </extensions>
      </trkpt>
      <trkpt lat="44.17678" lon="3.18813">
        <ele>719.6</ele>
        <time>2022-02-10T10:56:12Z</time>
        <extensions>
          <gpxtpx:TrackPointExtension xmlns:gpxtpx="http://www.garmin.com/xmlschemas/TrackPointExtension/v1">
            <gpxtpx:hr>148</gpxtpx:hr>
          </gpxtpx:TrackPointExtension>
        </extensions>
      </trkpt>
      <trkpt lat="44.1768" lon="3.18816">
        <ele>719.6</ele>
        <time>2022-02-10T10:56:13Z</time>
        <extensions>
          <gpxtpx:TrackPointExtension xmlns:gpxtpx="http://www.garmin.com/xmlschemas/TrackPointExtension/v1">
            <gpxtpx:hr>149</gpxtpx:hr>
          </gpxtpx:TrackPointExtension>
        </extensions>
      </trkpt>
      <trkpt lat="44.17682" lon="3.18818">
        <ele>719.2</ele>
        <time>2022-02-10T10:56:14Z</time>
        <extensions>
          <gpxtpx:TrackPointExtension xmlns:gpxtpx="http://www.garmin.com/xmlschemas/TrackPointExtension/v1">
            <gpxtpx:hr>150</gpxtpx:hr>
          </gpxtpx:TrackPointExtension>
        </extensions>
      </trkpt>
      <trkpt lat="44.17685" lon="3.1882">
        <ele>719</ele>
        <time>2022-02-10T10:56:15Z</time>
        <extensions>
          <gpxtpx:TrackPointExtension xmlns:gpxtpx="http://www.garmin.com/xmlschemas/TrackPointExtension/v1">
            <gpxtpx:hr>152</gpxtpx:hr>
          </gpxtpx:TrackPointExtension>
        </extensions>
      </trkpt>
      <trkpt lat="44.17689" lon="3.18823">
        <ele>718.6</ele>
        <time>2022-02-10T10:56:17Z</time>
        <extensions>
          <gpxtpx:TrackPointExtension xmlns:gpxtpx="http://www.garmin.com/xmlschemas/TrackPointExtension/v1">
            <gpxtpx:hr>152</gpxtpx:hr>
          </gpxtpx:TrackPointExtension>
        </extensions>
      </trkpt>
      <trkpt lat="44.17694" lon="3.18825">
        <ele>718.4</ele>
        <time>2022-02-10T10:56:19Z</time>
        <extensions>
          <gpxtpx:TrackPointExtension xmlns:gpxtpx="http://www.garmin.com/xmlschemas/TrackPointExtension/v1">
            <gpxtpx:hr>151</gpxtpx:hr>
          </gpxtpx:TrackPointExtension>
        </extensions>
      </trkpt>
      <trkpt lat="44.17696" lon="3.18825">
        <ele>718</ele>
        <time>2022-02-10T10:56:20Z</time>
        <extensions>
          <gpxtpx:TrackPointExtension xmlns:gpxtpx="http://www.garmin.com/xmlschemas/TrackPointExtension/v1">
            <gpxtpx:hr>150</gpxtpx:hr>
          </gpxtpx:TrackPointExtension>
        </extensions>
      </trkpt>
      <trkpt lat="44.17699" lon="3.18826">
        <ele>718</ele>
        <time>2022-02-10T10:56:21Z</time>
        <extensions>
          <gpxtpx:TrackPointExtension xmlns:gpxtpx="http://www.garmin.com/xmlschemas/TrackPointExtension/v1">
            <gpxtpx:hr>151</gpxtpx:hr>
          </gpxtpx:TrackPointExtension>
        </extensions>
      </trkpt>
      <trkpt lat="44.17701" lon="3.18826">
        <ele>717.8</ele>
        <time>2022-02-10T10:56:22Z</time>
        <extensions>
          <gpxtpx:TrackPointExtension xmlns:gpxtpx="http://www.garmin.com/xmlschemas/TrackPointExtension/v1">
            <gpxtpx:hr>152</gpxtpx:hr>
          </gpxtpx:TrackPointExtension>
        </extensions>
      </trkpt>
      <trkpt lat="44.17704" lon="3.18826">
        <ele>717.8</ele>
        <time>2022-02-10T10:56:23Z</time>
        <extensions>
          <gpxtpx:TrackPointExtension xmlns:gpxtpx="http://www.garmin.com/xmlschemas/TrackPointExtension/v1">
            <gpxtpx:hr>153</gpxtpx:hr>
          </gpxtpx:TrackPointExtension>
        </extensions>
      </trkpt>
      <trkpt lat="44.17706" lon="3.18826">
        <ele>717.6</ele>
        <time>2022-02-10T10:56:24Z</time>
        <extensions>
          <gpxtpx:TrackPointExtension xmlns:gpxtpx="http://www.garmin.com/xmlschemas/TrackPointExtension/v1">
            <gpxtpx:hr>153</gpxtpx:hr>
          </gpxtpx:TrackPointExtension>
        </extensions>
      </trkpt>
      <trkpt lat="44.17708" lon="3.18826">
        <ele>717.2</ele>
        <time>2022-02-10T10:56:25Z</time>
        <extensions>
          <gpxtpx:TrackPointExtension xmlns:gpxtpx="http://www.garmin.com/xmlschemas/TrackPointExtension/v1">
            <gpxtpx:hr>152</gpxtpx:hr>
          </gpxtpx:TrackPointExtension>
        </extensions>
      </trkpt>
      <trkpt lat="44.17713" lon="3.18826">
        <ele>717</ele>
        <time>2022-02-10T10:56:27Z</time>
        <extensions>
          <gpxtpx:TrackPointExtension xmlns:gpxtpx="http://www.garmin.com/xmlschemas/TrackPointExtension/v1">
            <gpxtpx:hr>150</gpxtpx:hr>
          </gpxtpx:TrackPointExtension>
        </extensions>
      </trkpt>
      <trkpt lat="44.17714" lon="3.18826">
        <ele>716.8</ele>
        <time>2022-02-10T10:56:29Z</time>
        <extensions>
          <gpxtpx:TrackPointExtension xmlns:gpxtpx="http://www.garmin.com/xmlschemas/TrackPointExtension/v1">
            <gpxtpx:hr>150</gpxtpx:hr>
          </gpxtpx:TrackPointExtension>
        </extensions>
      </trkpt>
      <trkpt lat="44.17716" lon="3.18826">
        <ele>716.4</ele>
        <time>2022-02-10T10:56:30Z</time>
        <extensions>
          <gpxtpx:TrackPointExtension xmlns:gpxtpx="http://www.garmin.com/xmlschemas/TrackPointExtension/v1">
            <gpxtpx:hr>149</gpxtpx:hr>
          </gpxtpx:TrackPointExtension>
        </extensions>
      </trkpt>
      <trkpt lat="44.17717" lon="3.18826">
        <ele>716.4</ele>
        <time>2022-02-10T10:56:31Z</time>
        <extensions>
          <gpxtpx:TrackPointExtension xmlns:gpxtpx="http://www.garmin.com/xmlschemas/TrackPointExtension/v1">
            <gpxtpx:hr>148</gpxtpx:hr>
          </gpxtpx:TrackPointExtension>
        </extensions>
      </trkpt>
      <trkpt lat="44.17719" lon="3.18827">
        <ele>716.2</ele>
        <time>2022-02-10T10:56:32Z</time>
        <extensions>
          <gpxtpx:TrackPointExtension xmlns:gpxtpx="http://www.garmin.com/xmlschemas/TrackPointExtension/v1">
            <gpxtpx:hr>148</gpxtpx:hr>
          </gpxtpx:TrackPointExtension>
        </extensions>
      </trkpt>
      <trkpt lat="44.17725" lon="3.18827">
        <ele>716.2</ele>
        <time>2022-02-10T10:56:33Z</time>
        <extensions>
          <gpxtpx:TrackPointExtension xmlns:gpxtpx="http://www.garmin.com/xmlschemas/TrackPointExtension/v1">
            <gpxtpx:hr>148</gpxtpx:hr>
          </gpxtpx:TrackPointExtension>
        </extensions>
      </trkpt>
      <trkpt lat="44.17728" lon="3.18827">
        <ele>716</ele>
        <time>2022-02-10T10:56:34Z</time>
        <extensions>
          <gpxtpx:TrackPointExtension xmlns:gpxtpx="http://www.garmin.com/xmlschemas/TrackPointExtension/v1">
            <gpxtpx:hr>150</gpxtpx:hr>
          </gpxtpx:TrackPointExtension>
        </extensions>
      </trkpt>
      <trkpt lat="44.1773" lon="3.18828">
        <ele>716</ele>
        <time>2022-02-10T10:56:35Z</time>
        <extensions>
          <gpxtpx:TrackPointExtension xmlns:gpxtpx="http://www.garmin.com/xmlschemas/TrackPointExtension/v1">
            <gpxtpx:hr>150</gpxtpx:hr>
          </gpxtpx:TrackPointExtension>
        </extensions>
      </trkpt>
      <trkpt lat="44.17732" lon="3.18828">
        <ele>715.8</ele>
        <time>2022-02-10T10:56:36Z</time>
        <extensions>
          <gpxtpx:TrackPointExtension xmlns:gpxtpx="http://www.garmin.com/xmlschemas/TrackPointExtension/v1">
            <gpxtpx:hr>152</gpxtpx:hr>
          </gpxtpx:TrackPointExtension>
        </extensions>
      </trkpt>
      <trkpt lat="44.17734" lon="3.18829">
        <ele>715.8</ele>
        <time>2022-02-10T10:56:37Z</time>
        <extensions>
          <gpxtpx:TrackPointExtension xmlns:gpxtpx="http://www.garmin.com/xmlschemas/TrackPointExtension/v1">
            <gpxtpx:hr>150</gpxtpx:hr>
          </gpxtpx:TrackPointExtension>
        </extensions>
      </trkpt>
      <trkpt lat="44.17736" lon="3.18829">
        <ele>715.4</ele>
        <time>2022-02-10T10:56:38Z</time>
        <extensions>
          <gpxtpx:TrackPointExtension xmlns:gpxtpx="http://www.garmin.com/xmlschemas/TrackPointExtension/v1">
            <gpxtpx:hr>149</gpxtpx:hr>
          </gpxtpx:TrackPointExtension>
        </extensions>
      </trkpt>
      <trkpt lat="44.17739" lon="3.18828">
        <ele>715.4</ele>
        <time>2022-02-10T10:56:39Z</time>
        <extensions>
          <gpxtpx:TrackPointExtension xmlns:gpxtpx="http://www.garmin.com/xmlschemas/TrackPointExtension/v1">
            <gpxtpx:hr>149</gpxtpx:hr>
          </gpxtpx:TrackPointExtension>
        </extensions>
      </trkpt>
      <trkpt lat="44.17741" lon="3.18828">
        <ele>715.2</ele>
        <time>2022-02-10T10:56:40Z</time>
        <extensions>
          <gpxtpx:TrackPointExtension xmlns:gpxtpx="http://www.garmin.com/xmlschemas/TrackPointExtension/v1">
            <gpxtpx:hr>149</gpxtpx:hr>
          </gpxtpx:TrackPointExtension>
        </extensions>
      </trkpt>
      <trkpt lat="44.17744" lon="3.18827">
        <ele>715.2</ele>
        <time>2022-02-10T10:56:41Z</time>
        <extensions>
          <gpxtpx:TrackPointExtension xmlns:gpxtpx="http://www.garmin.com/xmlschemas/TrackPointExtension/v1">
            <gpxtpx:hr>148</gpxtpx:hr>
          </gpxtpx:TrackPointExtension>
        </extensions>
      </trkpt>
      <trkpt lat="44.17776" lon="3.18817">
        <ele>705.8</ele>
      </trkpt>
      <trkpt lat="44.1779" lon="3.18813">
        <ele>703.5</ele>
      </trkpt>
      <trkpt lat="44.17807" lon="3.18801">
        <ele>701.1</ele>
      </trkpt>
      <trkpt lat="44.17823" lon="3.18785">
        <ele>699.5</ele>
      </trkpt>
      <trkpt lat="44.17837" lon="3.18776">
        <ele>697.7</ele>
      </trkpt>
      <trkpt lat="44.17852" lon="3.18766">
        <ele>696.3</ele>
      </trkpt>
      <trkpt lat="44.17861" lon="3.18759">
        <ele>695.4</ele>
      </trkpt>
      <trkpt lat="44.17868" lon="3.18741">
        <ele>696.7</ele>
      </trkpt>
      <trkpt lat="44.17869" lon="3.18734">
        <ele>697.3</ele>
      </trkpt>
      <trkpt lat="44.1787" lon="3.18728">
        <ele>708.6</ele>
        <time>2022-02-10T11:00:21Z</time>
        <extensions>
          <gpxtpx:TrackPointExtension xmlns:gpxtpx="http://www.garmin.com/xmlschemas/TrackPointExtension/v1">
            <gpxtpx:hr>130</gpxtpx:hr>
          </gpxtpx:TrackPointExtension>
        </extensions>
      </trkpt>
      <trkpt lat="44.17871" lon="3.18724">
        <ele>708.2</ele>
        <time>2022-02-10T11:00:23Z</time>
        <extensions>
          <gpxtpx:TrackPointExtension xmlns:gpxtpx="http://www.garmin.com/xmlschemas/TrackPointExtension/v1">
            <gpxtpx:hr>134</gpxtpx:hr>
          </gpxtpx:TrackPointExtension>
        </extensions>
      </trkpt>
      <trkpt lat="44.17871" lon="3.1872">
        <ele>708</ele>
        <time>2022-02-10T11:00:25Z</time>
        <extensions>
          <gpxtpx:TrackPointExtension xmlns:gpxtpx="http://www.garmin.com/xmlschemas/TrackPointExtension/v1">
            <gpxtpx:hr>135</gpxtpx:hr>
          </gpxtpx:TrackPointExtension>
        </extensions>
      </trkpt>
      <trkpt lat="44.1787" lon="3.18713">
        <ele>708</ele>
        <time>2022-02-10T11:00:27Z</time>
        <extensions>
          <gpxtpx:TrackPointExtension xmlns:gpxtpx="http://www.garmin.com/xmlschemas/TrackPointExtension/v1">
            <gpxtpx:hr>134</gpxtpx:hr>
          </gpxtpx:TrackPointExtension>
        </extensions>
      </trkpt>
      <trkpt lat="44.17869" lon="3.18705">
        <ele>708</ele>
        <time>2022-02-10T11:00:29Z</time>
        <extensions>
          <gpxtpx:TrackPointExtension xmlns:gpxtpx="http://www.garmin.com/xmlschemas/TrackPointExtension/v1">
            <gpxtpx:hr>137</gpxtpx:hr>
          </gpxtpx:TrackPointExtension>
        </extensions>
      </trkpt>
      <trkpt lat="44.17869" lon="3.18701">
        <ele>708</ele>
        <time>2022-02-10T11:00:30Z</time>
        <extensions>
          <gpxtpx:TrackPointExtension xmlns:gpxtpx="http://www.garmin.com/xmlschemas/TrackPointExtension/v1">
            <gpxtpx:hr>137</gpxtpx:hr>
          </gpxtpx:TrackPointExtension>
        </extensions>
      </trkpt>
      <trkpt lat="44.17869" lon="3.18696">
        <ele>708</ele>
        <time>2022-02-10T11:00:31Z</time>
        <extensions>
          <gpxtpx:TrackPointExtension xmlns:gpxtpx="http://www.garmin.com/xmlschemas/TrackPointExtension/v1">
            <gpxtpx:hr>137</gpxtpx:hr>
          </gpxtpx:TrackPointExtension>
        </extensions>
      </trkpt>
      <trkpt lat="44.17868" lon="3.18689">
        <ele>708</ele>
        <time>2022-02-10T11:00:33Z</time>
        <extensions>
          <gpxtpx:TrackPointExtension xmlns:gpxtpx="http://www.garmin.com/xmlschemas/TrackPointExtension/v1">
            <gpxtpx:hr>137</gpxtpx:hr>
          </gpxtpx:TrackPointExtension>
        </extensions>
      </trkpt>
      <trkpt lat="44.17867" lon="3.18685">
        <ele>708</ele>
        <time>2022-02-10T11:00:34Z</time>
        <extensions>
          <gpxtpx:TrackPointExtension xmlns:gpxtpx="http://www.garmin.com/xmlschemas/TrackPointExtension/v1">
            <gpxtpx:hr>137</gpxtpx:hr>
          </gpxtpx:TrackPointExtension>
        </extensions>
      </trkpt>
      <trkpt lat="44.17867" lon="3.18682">
        <ele>708</ele>
        <time>2022-02-10T11:00:35Z</time>
        <extensions>
          <gpxtpx:TrackPointExtension xmlns:gpxtpx="http://www.garmin.com/xmlschemas/TrackPointExtension/v1">
            <gpxtpx:hr>138</gpxtpx:hr>
          </gpxtpx:TrackPointExtension>
        </extensions>
      </trkpt>
      <trkpt lat="44.17865" lon="3.18679">
        <ele>708</ele>
        <time>2022-02-10T11:00:36Z</time>
        <extensions>
          <gpxtpx:TrackPointExtension xmlns:gpxtpx="http://www.garmin.com/xmlschemas/TrackPointExtension/v1">
            <gpxtpx:hr>138</gpxtpx:hr>
          </gpxtpx:TrackPointExtension>
        </extensions>
      </trkpt>
      <trkpt lat="44.17865" lon="3.18676">
        <ele>708</ele>
        <time>2022-02-10T11:00:37Z</time>
        <extensions>
          <gpxtpx:TrackPointExtension xmlns:gpxtpx="http://www.garmin.com/xmlschemas/TrackPointExtension/v1">
            <gpxtpx:hr>139</gpxtpx:hr>
          </gpxtpx:TrackPointExtension>
        </extensions>
      </trkpt>
      <trkpt lat="44.17862" lon="3.1867">
        <ele>708.2</ele>
        <time>2022-02-10T11:00:39Z</time>
        <extensions>
          <gpxtpx:TrackPointExtension xmlns:gpxtpx="http://www.garmin.com/xmlschemas/TrackPointExtension/v1">
            <gpxtpx:hr>138</gpxtpx:hr>
          </gpxtpx:TrackPointExtension>
        </extensions>
      </trkpt>
      <trkpt lat="44.17861" lon="3.18668">
        <ele>708.2</ele>
        <time>2022-02-10T11:00:40Z</time>
        <extensions>
          <gpxtpx:TrackPointExtension xmlns:gpxtpx="http://www.garmin.com/xmlschemas/TrackPointExtension/v1">
            <gpxtpx:hr>138</gpxtpx:hr>
          </gpxtpx:TrackPointExtension>
        </extensions>
      </trkpt>
      <trkpt lat="44.17861" lon="3.18665">
        <ele>708.2</ele>
        <time>2022-02-10T11:00:41Z</time>
        <extensions>
          <gpxtpx:TrackPointExtension xmlns:gpxtpx="http://www.garmin.com/xmlschemas/TrackPointExtension/v1">
            <gpxtpx:hr>139</gpxtpx:hr>
          </gpxtpx:TrackPointExtension>
        </extensions>
      </trkpt>
      <trkpt lat="44.1786" lon="3.18663">
        <ele>708.2</ele>
        <time>2022-02-10T11:00:42Z</time>
        <extensions>
          <gpxtpx:TrackPointExtension xmlns:gpxtpx="http://www.garmin.com/xmlschemas/TrackPointExtension/v1">
            <gpxtpx:hr>140</gpxtpx:hr>
          </gpxtpx:TrackPointExtension>
        </extensions>
      </trkpt>
      <trkpt lat="44.17859" lon="3.18661">
        <ele>708.2</ele>
        <time>2022-02-10T11:00:43Z</time>
        <extensions>
          <gpxtpx:TrackPointExtension xmlns:gpxtpx="http://www.garmin.com/xmlschemas/TrackPointExtension/v1">
            <gpxtpx:hr>140</gpxtpx:hr>
          </gpxtpx:TrackPointExtension>
        </extensions>
      </trkpt>
      <trkpt lat="44.17858" lon="3.18658">
        <ele>708.2</ele>
        <time>2022-02-10T11:00:44Z</time>
        <extensions>
          <gpxtpx:TrackPointExtension xmlns:gpxtpx="http://www.garmin.com/xmlschemas/TrackPointExtension/v1">
            <gpxtpx:hr>140</gpxtpx:hr>
          </gpxtpx:TrackPointExtension>
        </extensions>
      </trkpt>
      <trkpt lat="44.17857" lon="3.18655">
        <ele>708.2</ele>
        <time>2022-02-10T11:00:45Z</time>
        <extensions>
          <gpxtpx:TrackPointExtension xmlns:gpxtpx="http://www.garmin.com/xmlschemas/TrackPointExtension/v1">
            <gpxtpx:hr>141</gpxtpx:hr>
          </gpxtpx:TrackPointExtension>
        </extensions>
      </trkpt>
      <trkpt lat="44.17856" lon="3.1865">
        <ele>708.2</ele>
        <time>2022-02-10T11:00:47Z</time>
        <extensions>
          <gpxtpx:TrackPointExtension xmlns:gpxtpx="http://www.garmin.com/xmlschemas/TrackPointExtension/v1">
            <gpxtpx:hr>140</gpxtpx:hr>
          </gpxtpx:TrackPointExtension>
        </extensions>
      </trkpt>
      <trkpt lat="44.17856" lon="3.18644">
        <ele>708.2</ele>
        <time>2022-02-10T11:00:49Z</time>
        <extensions>
          <gpxtpx:TrackPointExtension xmlns:gpxtpx="http://www.garmin.com/xmlschemas/TrackPointExtension/v1">
            <gpxtpx:hr>141</gpxtpx:hr>
          </gpxtpx:TrackPointExtension>
        </extensions>
      </trkpt>
      <trkpt lat="44.17857" lon="3.18638">
        <ele>708.2</ele>
        <time>2022-02-10T11:00:51Z</time>
        <extensions>
          <gpxtpx:TrackPointExtension xmlns:gpxtpx="http://www.garmin.com/xmlschemas/TrackPointExtension/v1">
            <gpxtpx:hr>142</gpxtpx:hr>
          </gpxtpx:TrackPointExtension>
        </extensions>
      </trkpt>
      <trkpt lat="44.17859" lon="3.18632">
        <ele>708.2</ele>
        <time>2022-02-10T11:00:53Z</time>
        <extensions>
          <gpxtpx:TrackPointExtension xmlns:gpxtpx="http://www.garmin.com/xmlschemas/TrackPointExtension/v1">
            <gpxtpx:hr>144</gpxtpx:hr>
          </gpxtpx:TrackPointExtension>
        </extensions>
      </trkpt>
      <trkpt lat="44.17859" lon="3.18629">
        <ele>708.2</ele>
        <time>2022-02-10T11:00:54Z</time>
        <extensions>
          <gpxtpx:TrackPointExtension xmlns:gpxtpx="http://www.garmin.com/xmlschemas/TrackPointExtension/v1">
            <gpxtpx:hr>144</gpxtpx:hr>
          </gpxtpx:TrackPointExtension>
        </extensions>
      </trkpt>
      <trkpt lat="44.1786" lon="3.18627">
        <ele>708.2</ele>
        <time>2022-02-10T11:00:55Z</time>
        <extensions>
          <gpxtpx:TrackPointExtension xmlns:gpxtpx="http://www.garmin.com/xmlschemas/TrackPointExtension/v1">
            <gpxtpx:hr>145</gpxtpx:hr>
          </gpxtpx:TrackPointExtension>
        </extensions>
      </trkpt>
      <trkpt lat="44.17861" lon="3.18624">
        <ele>708.2</ele>
        <time>2022-02-10T11:00:56Z</time>
        <extensions>
          <gpxtpx:TrackPointExtension xmlns:gpxtpx="http://www.garmin.com/xmlschemas/TrackPointExtension/v1">
            <gpxtpx:hr>145</gpxtpx:hr>
          </gpxtpx:TrackPointExtension>
        </extensions>
      </trkpt>
      <trkpt lat="44.17863" lon="3.18621">
        <ele>708.2</ele>
        <time>2022-02-10T11:00:58Z</time>
        <extensions>
          <gpxtpx:TrackPointExtension xmlns:gpxtpx="http://www.garmin.com/xmlschemas/TrackPointExtension/v1">
            <gpxtpx:hr>148</gpxtpx:hr>
          </gpxtpx:TrackPointExtension>
        </extensions>
      </trkpt>
      <trkpt lat="44.17865" lon="3.1862">
        <ele>708.2</ele>
        <time>2022-02-10T11:00:59Z</time>
        <extensions>
          <gpxtpx:TrackPointExtension xmlns:gpxtpx="http://www.garmin.com/xmlschemas/TrackPointExtension/v1">
            <gpxtpx:hr>149</gpxtpx:hr>
          </gpxtpx:TrackPointExtension>
        </extensions>
      </trkpt>
      <trkpt lat="44.17867" lon="3.1862">
        <ele>708.2</ele>
        <time>2022-02-10T11:01:00Z</time>
        <extensions>
          <gpxtpx:TrackPointExtension xmlns:gpxtpx="http://www.garmin.com/xmlschemas/TrackPointExtension/v1">
            <gpxtpx:hr>149</gpxtpx:hr>
          </gpxtpx:TrackPointExtension>
        </extensions>
      </trkpt>
      <trkpt lat="44.17869" lon="3.1862">
        <ele>708.2</ele>
        <time>2022-02-10T11:01:01Z</time>
        <extensions>
          <gpxtpx:TrackPointExtension xmlns:gpxtpx="http://www.garmin.com/xmlschemas/TrackPointExtension/v1">
            <gpxtpx:hr>149</gpxtpx:hr>
          </gpxtpx:TrackPointExtension>
        </extensions>
      </trkpt>
      <trkpt lat="44.17872" lon="3.1862">
        <ele>708.2</ele>
        <time>2022-02-10T11:01:02Z</time>
        <extensions>
          <gpxtpx:TrackPointExtension xmlns:gpxtpx="http://www.garmin.com/xmlschemas/TrackPointExtension/v1">
            <gpxtpx:hr>149</gpxtpx:hr>
          </gpxtpx:TrackPointExtension>
        </extensions>
      </trkpt>
      <trkpt lat="44.17875" lon="3.18621">
        <ele>708.4</ele>
        <time>2022-02-10T11:01:03Z</time>
        <extensions>
          <gpxtpx:TrackPointExtension xmlns:gpxtpx="http://www.garmin.com/xmlschemas/TrackPointExtension/v1">
            <gpxtpx:hr>150</gpxtpx:hr>
          </gpxtpx:TrackPointExtension>
        </extensions>
      </trkpt>
      <trkpt lat="44.17879" lon="3.18623">
        <ele>708.8</ele>
        <time>2022-02-10T11:01:05Z</time>
        <extensions>
          <gpxtpx:TrackPointExtension xmlns:gpxtpx="http://www.garmin.com/xmlschemas/TrackPointExtension/v1">
            <gpxtpx:hr>148</gpxtpx:hr>
          </gpxtpx:TrackPointExtension>
        </extensions>
      </trkpt>
      <trkpt lat="44.17883" lon="3.18626">
        <ele>709</ele>
        <time>2022-02-10T11:01:07Z</time>
        <extensions>
          <gpxtpx:TrackPointExtension xmlns:gpxtpx="http://www.garmin.com/xmlschemas/TrackPointExtension/v1">
            <gpxtpx:hr>146</gpxtpx:hr>
          </gpxtpx:TrackPointExtension>
        </extensions>
      </trkpt>
      <trkpt lat="44.17887" lon="3.18628">
        <ele>709.4</ele>
        <time>2022-02-10T11:01:09Z</time>
        <extensions>
          <gpxtpx:TrackPointExtension xmlns:gpxtpx="http://www.garmin.com/xmlschemas/TrackPointExtension/v1">
            <gpxtpx:hr>148</gpxtpx:hr>
          </gpxtpx:TrackPointExtension>
        </extensions>
      </trkpt>
      <trkpt lat="44.17889" lon="3.1863">
        <ele>709.4</ele>
        <time>2022-02-10T11:01:10Z</time>
        <extensions>
          <gpxtpx:TrackPointExtension xmlns:gpxtpx="http://www.garmin.com/xmlschemas/TrackPointExtension/v1">
            <gpxtpx:hr>147</gpxtpx:hr>
          </gpxtpx:TrackPointExtension>
        </extensions>
      </trkpt>
      <trkpt lat="44.17891" lon="3.18632">
        <ele>709.8</ele>
        <time>2022-02-10T11:01:11Z</time>
        <extensions>
          <gpxtpx:TrackPointExtension xmlns:gpxtpx="http://www.garmin.com/xmlschemas/TrackPointExtension/v1">
            <gpxtpx:hr>147</gpxtpx:hr>
          </gpxtpx:TrackPointExtension>
        </extensions>
      </trkpt>
      <trkpt lat="44.17892" lon="3.18634">
        <ele>710</ele>
        <time>2022-02-10T11:01:12Z</time>
        <extensions>
          <gpxtpx:TrackPointExtension xmlns:gpxtpx="http://www.garmin.com/xmlschemas/TrackPointExtension/v1">
            <gpxtpx:hr>148</gpxtpx:hr>
          </gpxtpx:TrackPointExtension>
        </extensions>
      </trkpt>
      <trkpt lat="44.17894" lon="3.18636">
        <ele>710.2</ele>
        <time>2022-02-10T11:01:13Z</time>
        <extensions>
          <gpxtpx:TrackPointExtension xmlns:gpxtpx="http://www.garmin.com/xmlschemas/TrackPointExtension/v1">
            <gpxtpx:hr>149</gpxtpx:hr>
          </gpxtpx:TrackPointExtension>
        </extensions>
      </trkpt>
      <trkpt lat="44.17895" lon="3.18638">
        <ele>710.2</ele>
        <time>2022-02-10T11:01:14Z</time>
        <extensions>
          <gpxtpx:TrackPointExtension xmlns:gpxtpx="http://www.garmin.com/xmlschemas/TrackPointExtension/v1">
            <gpxtpx:hr>150</gpxtpx:hr>
          </gpxtpx:TrackPointExtension>
        </extensions>
      </trkpt>
      <trkpt lat="44.17898" lon="3.18643">
        <ele>710.8</ele>
        <time>2022-02-10T11:01:16Z</time>
        <extensions>
          <gpxtpx:TrackPointExtension xmlns:gpxtpx="http://www.garmin.com/xmlschemas/TrackPointExtension/v1">
            <gpxtpx:hr>149</gpxtpx:hr>
          </gpxtpx:TrackPointExtension>
        </extensions>
      </trkpt>
      <trkpt lat="44.17902" lon="3.18648">
        <ele>711.4</ele>
        <time>2022-02-10T11:01:19Z</time>
        <extensions>
          <gpxtpx:TrackPointExtension xmlns:gpxtpx="http://www.garmin.com/xmlschemas/TrackPointExtension/v1">
            <gpxtpx:hr>149</gpxtpx:hr>
          </gpxtpx:TrackPointExtension>
        </extensions>
      </trkpt>
      <trkpt lat="44.17904" lon="3.1865">
        <ele>711.8</ele>
        <time>2022-02-10T11:01:20Z</time>
        <extensions>
          <gpxtpx:TrackPointExtension xmlns:gpxtpx="http://www.garmin.com/xmlschemas/TrackPointExtension/v1">
            <gpxtpx:hr>152</gpxtpx:hr>
          </gpxtpx:TrackPointExtension>
        </extensions>
      </trkpt>
      <trkpt lat="44.17909" lon="3.18652">
        <ele>712.4</ele>
        <time>2022-02-10T11:01:23Z</time>
        <extensions>
          <gpxtpx:TrackPointExtension xmlns:gpxtpx="http://www.garmin.com/xmlschemas/TrackPointExtension/v1">
            <gpxtpx:hr>155</gpxtpx:hr>
          </gpxtpx:TrackPointExtension>
        </extensions>
      </trkpt>
      <trkpt lat="44.17911" lon="3.18652">
        <ele>712.8</ele>
        <time>2022-02-10T11:01:24Z</time>
        <extensions>
          <gpxtpx:TrackPointExtension xmlns:gpxtpx="http://www.garmin.com/xmlschemas/TrackPointExtension/v1">
            <gpxtpx:hr>156</gpxtpx:hr>
          </gpxtpx:TrackPointExtension>
        </extensions>
      </trkpt>
      <trkpt lat="44.17915" lon="3.18653">
        <ele>713.4</ele>
        <time>2022-02-10T11:01:26Z</time>
        <extensions>
          <gpxtpx:TrackPointExtension xmlns:gpxtpx="http://www.garmin.com/xmlschemas/TrackPointExtension/v1">
            <gpxtpx:hr>158</gpxtpx:hr>
          </gpxtpx:TrackPointExtension>
        </extensions>
      </trkpt>
      <trkpt lat="44.17919" lon="3.18652">
        <ele>713.6</ele>
        <time>2022-02-10T11:01:28Z</time>
        <extensions>
          <gpxtpx:TrackPointExtension xmlns:gpxtpx="http://www.garmin.com/xmlschemas/TrackPointExtension/v1">
            <gpxtpx:hr>158</gpxtpx:hr>
          </gpxtpx:TrackPointExtension>
        </extensions>
      </trkpt>
      <trkpt lat="44.17923" lon="3.18652">
        <ele>714</ele>
        <time>2022-02-10T11:01:30Z</time>
        <extensions>
          <gpxtpx:TrackPointExtension xmlns:gpxtpx="http://www.garmin.com/xmlschemas/TrackPointExtension/v1">
            <gpxtpx:hr>158</gpxtpx:hr>
          </gpxtpx:TrackPointExtension>
        </extensions>
      </trkpt>
      <trkpt lat="44.17927" lon="3.18651">
        <ele>714.4</ele>
        <time>2022-02-10T11:01:32Z</time>
        <extensions>
          <gpxtpx:TrackPointExtension xmlns:gpxtpx="http://www.garmin.com/xmlschemas/TrackPointExtension/v1">
            <gpxtpx:hr>160</gpxtpx:hr>
          </gpxtpx:TrackPointExtension>
        </extensions>
      </trkpt>
      <trkpt lat="44.17931" lon="3.1865">
        <ele>714.6</ele>
        <time>2022-02-10T11:01:34Z</time>
        <extensions>
          <gpxtpx:TrackPointExtension xmlns:gpxtpx="http://www.garmin.com/xmlschemas/TrackPointExtension/v1">
            <gpxtpx:hr>160</gpxtpx:hr>
          </gpxtpx:TrackPointExtension>
        </extensions>
      </trkpt>
      <trkpt lat="44.17933" lon="3.1865">
        <ele>714.6</ele>
        <time>2022-02-10T11:01:35Z</time>
        <extensions>
          <gpxtpx:TrackPointExtension xmlns:gpxtpx="http://www.garmin.com/xmlschemas/TrackPointExtension/v1">
            <gpxtpx:hr>161</gpxtpx:hr>
          </gpxtpx:TrackPointExtension>
        </extensions>
      </trkpt>
      <trkpt lat="44.17934" lon="3.1865">
        <ele>715</ele>
        <time>2022-02-10T11:01:36Z</time>
        <extensions>
          <gpxtpx:TrackPointExtension xmlns:gpxtpx="http://www.garmin.com/xmlschemas/TrackPointExtension/v1">
            <gpxtpx:hr>160</gpxtpx:hr>
          </gpxtpx:TrackPointExtension>
        </extensions>
      </trkpt>
      <trkpt lat="44.17938" lon="3.18649">
        <ele>715.4</ele>
        <time>2022-02-10T11:01:38Z</time>
        <extensions>
          <gpxtpx:TrackPointExtension xmlns:gpxtpx="http://www.garmin.com/xmlschemas/TrackPointExtension/v1">
            <gpxtpx:hr>160</gpxtpx:hr>
          </gpxtpx:TrackPointExtension>
        </extensions>
      </trkpt>
      <trkpt lat="44.1794" lon="3.18649">
        <ele>715.4</ele>
        <time>2022-02-10T11:01:39Z</time>
        <extensions>
          <gpxtpx:TrackPointExtension xmlns:gpxtpx="http://www.garmin.com/xmlschemas/TrackPointExtension/v1">
            <gpxtpx:hr>161</gpxtpx:hr>
          </gpxtpx:TrackPointExtension>
        </extensions>
      </trkpt>
      <trkpt lat="44.17942" lon="3.18648">
        <ele>715.4</ele>
        <time>2022-02-10T11:01:40Z</time>
        <extensions>
          <gpxtpx:TrackPointExtension xmlns:gpxtpx="http://www.garmin.com/xmlschemas/TrackPointExtension/v1">
            <gpxtpx:hr>161</gpxtpx:hr>
          </gpxtpx:TrackPointExtension>
        </extensions>
      </trkpt>
      <trkpt lat="44.17948" lon="3.18647">
        <ele>716.2</ele>
        <time>2022-02-10T11:01:43Z</time>
        <extensions>
          <gpxtpx:TrackPointExtension xmlns:gpxtpx="http://www.garmin.com/xmlschemas/TrackPointExtension/v1">
            <gpxtpx:hr>162</gpxtpx:hr>
          </gpxtpx:TrackPointExtension>
        </extensions>
      </trkpt>
      <trkpt lat="44.17951" lon="3.18646">
        <ele>716.6</ele>
        <time>2022-02-10T11:01:45Z</time>
        <extensions>
          <gpxtpx:TrackPointExtension xmlns:gpxtpx="http://www.garmin.com/xmlschemas/TrackPointExtension/v1">
            <gpxtpx:hr>162</gpxtpx:hr>
          </gpxtpx:TrackPointExtension>
        </extensions>
      </trkpt>
      <trkpt lat="44.17954" lon="3.18646">
        <ele>717</ele>
        <time>2022-02-10T11:01:47Z</time>
        <extensions>
          <gpxtpx:TrackPointExtension xmlns:gpxtpx="http://www.garmin.com/xmlschemas/TrackPointExtension/v1">
            <gpxtpx:hr>161</gpxtpx:hr>
          </gpxtpx:TrackPointExtension>
        </extensions>
      </trkpt>
      <trkpt lat="44.17957" lon="3.18645">
        <ele>717.4</ele>
        <time>2022-02-10T11:01:49Z</time>
        <extensions>
          <gpxtpx:TrackPointExtension xmlns:gpxtpx="http://www.garmin.com/xmlschemas/TrackPointExtension/v1">
            <gpxtpx:hr>162</gpxtpx:hr>
          </gpxtpx:TrackPointExtension>
        </extensions>
      </trkpt>
      <trkpt lat="44.17963" lon="3.18644">
        <ele>718</ele>
        <time>2022-02-10T11:01:52Z</time>
        <extensions>
          <gpxtpx:TrackPointExtension xmlns:gpxtpx="http://www.garmin.com/xmlschemas/TrackPointExtension/v1">
            <gpxtpx:hr>163</gpxtpx:hr>
          </gpxtpx:TrackPointExtension>
        </extensions>
      </trkpt>
      <trkpt lat="44.17966" lon="3.18644">
        <ele>718.6</ele>
        <time>2022-02-10T11:01:54Z</time>
        <extensions>
          <gpxtpx:TrackPointExtension xmlns:gpxtpx="http://www.garmin.com/xmlschemas/TrackPointExtension/v1">
            <gpxtpx:hr>164</gpxtpx:hr>
          </gpxtpx:TrackPointExtension>
        </extensions>
      </trkpt>
      <trkpt lat="44.17968" lon="3.18644">
        <ele>718.6</ele>
        <time>2022-02-10T11:01:55Z</time>
        <extensions>
          <gpxtpx:TrackPointExtension xmlns:gpxtpx="http://www.garmin.com/xmlschemas/TrackPointExtension/v1">
            <gpxtpx:hr>163</gpxtpx:hr>
          </gpxtpx:TrackPointExtension>
        </extensions>
      </trkpt>
      <trkpt lat="44.17972" lon="3.18644">
        <ele>719</ele>
        <time>2022-02-10T11:01:57Z</time>
        <extensions>
          <gpxtpx:TrackPointExtension xmlns:gpxtpx="http://www.garmin.com/xmlschemas/TrackPointExtension/v1">
            <gpxtpx:hr>162</gpxtpx:hr>
          </gpxtpx:TrackPointExtension>
        </extensions>
      </trkpt>
      <trkpt lat="44.17975" lon="3.18644">
        <ele>719.4</ele>
        <time>2022-02-10T11:01:59Z</time>
        <extensions>
          <gpxtpx:TrackPointExtension xmlns:gpxtpx="http://www.garmin.com/xmlschemas/TrackPointExtension/v1">
            <gpxtpx:hr>163</gpxtpx:hr>
          </gpxtpx:TrackPointExtension>
        </extensions>
      </trkpt>
      <trkpt lat="44.17977" lon="3.18643">
        <ele>719.6</ele>
        <time>2022-02-10T11:02:00Z</time>
        <extensions>
          <gpxtpx:TrackPointExtension xmlns:gpxtpx="http://www.garmin.com/xmlschemas/TrackPointExtension/v1">
            <gpxtpx:hr>163</gpxtpx:hr>
          </gpxtpx:TrackPointExtension>
        </extensions>
      </trkpt>
      <trkpt lat="44.17981" lon="3.18643">
        <ele>720</ele>
        <time>2022-02-10T11:02:02Z</time>
        <extensions>
          <gpxtpx:TrackPointExtension xmlns:gpxtpx="http://www.garmin.com/xmlschemas/TrackPointExtension/v1">
            <gpxtpx:hr>164</gpxtpx:hr>
          </gpxtpx:TrackPointExtension>
        </extensions>
      </trkpt>
      <trkpt lat="44.17982" lon="3.18643">
        <ele>720</ele>
        <time>2022-02-10T11:02:03Z</time>
        <extensions>
          <gpxtpx:TrackPointExtension xmlns:gpxtpx="http://www.garmin.com/xmlschemas/TrackPointExtension/v1">
            <gpxtpx:hr>164</gpxtpx:hr>
          </gpxtpx:TrackPointExtension>
        </extensions>
      </trkpt>
      <trkpt lat="44.17988" lon="3.18642">
        <ele>720.2</ele>
        <time>2022-02-10T11:02:06Z</time>
        <extensions>
          <gpxtpx:TrackPointExtension xmlns:gpxtpx="http://www.garmin.com/xmlschemas/TrackPointExtension/v1">
            <gpxtpx:hr>164</gpxtpx:hr>
          </gpxtpx:TrackPointExtension>
        </extensions>
      </trkpt>
      <trkpt lat="44.1799" lon="3.18642">
        <ele>720.6</ele>
        <time>2022-02-10T11:02:07Z</time>
        <extensions>
          <gpxtpx:TrackPointExtension xmlns:gpxtpx="http://www.garmin.com/xmlschemas/TrackPointExtension/v1">
            <gpxtpx:hr>163</gpxtpx:hr>
          </gpxtpx:TrackPointExtension>
        </extensions>
      </trkpt>
      <trkpt lat="44.17993" lon="3.18641">
        <ele>720.8</ele>
        <time>2022-02-10T11:02:09Z</time>
        <extensions>
          <gpxtpx:TrackPointExtension xmlns:gpxtpx="http://www.garmin.com/xmlschemas/TrackPointExtension/v1">
            <gpxtpx:hr>163</gpxtpx:hr>
          </gpxtpx:TrackPointExtension>
        </extensions>
      </trkpt>
      <trkpt lat="44.17997" lon="3.18641">
        <ele>721.2</ele>
        <time>2022-02-10T11:02:11Z</time>
        <extensions>
          <gpxtpx:TrackPointExtension xmlns:gpxtpx="http://www.garmin.com/xmlschemas/TrackPointExtension/v1">
            <gpxtpx:hr>164</gpxtpx:hr>
          </gpxtpx:TrackPointExtension>
        </extensions>
      </trkpt>
      <trkpt lat="44.18" lon="3.1864">
        <ele>721.4</ele>
        <time>2022-02-10T11:02:13Z</time>
        <extensions>
          <gpxtpx:TrackPointExtension xmlns:gpxtpx="http://www.garmin.com/xmlschemas/TrackPointExtension/v1">
            <gpxtpx:hr>165</gpxtpx:hr>
          </gpxtpx:TrackPointExtension>
        </extensions>
      </trkpt>
      <trkpt lat="44.18004" lon="3.1864">
        <ele>721.8</ele>
        <time>2022-02-10T11:02:15Z</time>
        <extensions>
          <gpxtpx:TrackPointExtension xmlns:gpxtpx="http://www.garmin.com/xmlschemas/TrackPointExtension/v1">
            <gpxtpx:hr>166</gpxtpx:hr>
          </gpxtpx:TrackPointExtension>
        </extensions>
      </trkpt>
      <trkpt lat="44.18006" lon="3.1864">
        <ele>722.2</ele>
        <time>2022-02-10T11:02:17Z</time>
        <extensions>
          <gpxtpx:TrackPointExtension xmlns:gpxtpx="http://www.garmin.com/xmlschemas/TrackPointExtension/v1">
            <gpxtpx:hr>165</gpxtpx:hr>
          </gpxtpx:TrackPointExtension>
        </extensions>
      </trkpt>
      <trkpt lat="44.18012" lon="3.1864">
        <ele>722.8</ele>
        <time>2022-02-10T11:02:20Z</time>
        <extensions>
          <gpxtpx:TrackPointExtension xmlns:gpxtpx="http://www.garmin.com/xmlschemas/TrackPointExtension/v1">
            <gpxtpx:hr>165</gpxtpx:hr>
          </gpxtpx:TrackPointExtension>
        </extensions>
      </trkpt>
      <trkpt lat="44.18013" lon="3.1864">
        <ele>722.8</ele>
        <time>2022-02-10T11:02:21Z</time>
        <extensions>
          <gpxtpx:TrackPointExtension xmlns:gpxtpx="http://www.garmin.com/xmlschemas/TrackPointExtension/v1">
            <gpxtpx:hr>164</gpxtpx:hr>
          </gpxtpx:TrackPointExtension>
        </extensions>
      </trkpt>
      <trkpt lat="44.18016" lon="3.18639">
        <ele>723</ele>
        <time>2022-02-10T11:02:23Z</time>
        <extensions>
          <gpxtpx:TrackPointExtension xmlns:gpxtpx="http://www.garmin.com/xmlschemas/TrackPointExtension/v1">
            <gpxtpx:hr>164</gpxtpx:hr>
          </gpxtpx:TrackPointExtension>
        </extensions>
      </trkpt>
      <trkpt lat="44.18022" lon="3.18639">
        <ele>723.4</ele>
        <time>2022-02-10T11:02:26Z</time>
        <extensions>
          <gpxtpx:TrackPointExtension xmlns:gpxtpx="http://www.garmin.com/xmlschemas/TrackPointExtension/v1">
            <gpxtpx:hr>164</gpxtpx:hr>
          </gpxtpx:TrackPointExtension>
        </extensions>
      </trkpt>
      <trkpt lat="44.18024" lon="3.18639">
        <ele>723.8</ele>
        <time>2022-02-10T11:02:27Z</time>
        <extensions>
          <gpxtpx:TrackPointExtension xmlns:gpxtpx="http://www.garmin.com/xmlschemas/TrackPointExtension/v1">
            <gpxtpx:hr>165</gpxtpx:hr>
          </gpxtpx:TrackPointExtension>
        </extensions>
      </trkpt>
      <trkpt lat="44.18027" lon="3.18639">
        <ele>724</ele>
        <time>2022-02-10T11:02:29Z</time>
        <extensions>
          <gpxtpx:TrackPointExtension xmlns:gpxtpx="http://www.garmin.com/xmlschemas/TrackPointExtension/v1">
            <gpxtpx:hr>166</gpxtpx:hr>
          </gpxtpx:TrackPointExtension>
        </extensions>
      </trkpt>
      <trkpt lat="44.1803" lon="3.18638">
        <ele>724.4</ele>
        <time>2022-02-10T11:02:31Z</time>
        <extensions>
          <gpxtpx:TrackPointExtension xmlns:gpxtpx="http://www.garmin.com/xmlschemas/TrackPointExtension/v1">
            <gpxtpx:hr>166</gpxtpx:hr>
          </gpxtpx:TrackPointExtension>
        </extensions>
      </trkpt>
      <trkpt lat="44.18036" lon="3.18637">
        <ele>725</ele>
        <time>2022-02-10T11:02:34Z</time>
        <extensions>
          <gpxtpx:TrackPointExtension xmlns:gpxtpx="http://www.garmin.com/xmlschemas/TrackPointExtension/v1">
            <gpxtpx:hr>165</gpxtpx:hr>
          </gpxtpx:TrackPointExtension>
        </extensions>
      </trkpt>
      <trkpt lat="44.18039" lon="3.18636">
        <ele>725.4</ele>
        <time>2022-02-10T11:02:36Z</time>
        <extensions>
          <gpxtpx:TrackPointExtension xmlns:gpxtpx="http://www.garmin.com/xmlschemas/TrackPointExtension/v1">
            <gpxtpx:hr>166</gpxtpx:hr>
          </gpxtpx:TrackPointExtension>
        </extensions>
      </trkpt>
      <trkpt lat="44.18043" lon="3.18636">
        <ele>725.8</ele>
        <time>2022-02-10T11:02:38Z</time>
        <extensions>
          <gpxtpx:TrackPointExtension xmlns:gpxtpx="http://www.garmin.com/xmlschemas/TrackPointExtension/v1">
            <gpxtpx:hr>165</gpxtpx:hr>
          </gpxtpx:TrackPointExtension>
        </extensions>
      </trkpt>
      <trkpt lat="44.18046" lon="3.18635">
        <ele>726</ele>
        <time>2022-02-10T11:02:40Z</time>
        <extensions>
          <gpxtpx:TrackPointExtension xmlns:gpxtpx="http://www.garmin.com/xmlschemas/TrackPointExtension/v1">
            <gpxtpx:hr>165</gpxtpx:hr>
          </gpxtpx:TrackPointExtension>
        </extensions>
      </trkpt>
      <trkpt lat="44.1805" lon="3.18636">
        <ele>726.2</ele>
        <time>2022-02-10T11:02:42Z</time>
        <extensions>
          <gpxtpx:TrackPointExtension xmlns:gpxtpx="http://www.garmin.com/xmlschemas/TrackPointExtension/v1">
            <gpxtpx:hr>165</gpxtpx:hr>
          </gpxtpx:TrackPointExtension>
        </extensions>
      </trkpt>
      <trkpt lat="44.18053" lon="3.18636">
        <ele>726.2</ele>
        <time>2022-02-10T11:02:44Z</time>
        <extensions>
          <gpxtpx:TrackPointExtension xmlns:gpxtpx="http://www.garmin.com/xmlschemas/TrackPointExtension/v1">
            <gpxtpx:hr>166</gpxtpx:hr>
          </gpxtpx:TrackPointExtension>
        </extensions>
      </trkpt>
      <trkpt lat="44.18058" lon="3.18635">
        <ele>726.4</ele>
        <time>2022-02-10T11:02:47Z</time>
        <extensions>
          <gpxtpx:TrackPointExtension xmlns:gpxtpx="http://www.garmin.com/xmlschemas/TrackPointExtension/v1">
            <gpxtpx:hr>166</gpxtpx:hr>
          </gpxtpx:TrackPointExtension>
        </extensions>
      </trkpt>
      <trkpt lat="44.18064" lon="3.18633">
        <ele>726.6</ele>
        <time>2022-02-10T11:02:50Z</time>
        <extensions>
          <gpxtpx:TrackPointExtension xmlns:gpxtpx="http://www.garmin.com/xmlschemas/TrackPointExtension/v1">
            <gpxtpx:hr>167</gpxtpx:hr>
          </gpxtpx:TrackPointExtension>
        </extensions>
      </trkpt>
      <trkpt lat="44.18065" lon="3.18633">
        <ele>726.6</ele>
        <time>2022-02-10T11:02:51Z</time>
        <extensions>
          <gpxtpx:TrackPointExtension xmlns:gpxtpx="http://www.garmin.com/xmlschemas/TrackPointExtension/v1">
            <gpxtpx:hr>167</gpxtpx:hr>
          </gpxtpx:TrackPointExtension>
        </extensions>
      </trkpt>
      <trkpt lat="44.18068" lon="3.18631">
        <ele>727</ele>
        <time>2022-02-10T11:02:53Z</time>
        <extensions>
          <gpxtpx:TrackPointExtension xmlns:gpxtpx="http://www.garmin.com/xmlschemas/TrackPointExtension/v1">
            <gpxtpx:hr>167</gpxtpx:hr>
          </gpxtpx:TrackPointExtension>
        </extensions>
      </trkpt>
      <trkpt lat="44.18073" lon="3.18629">
        <ele>727.6</ele>
        <time>2022-02-10T11:02:56Z</time>
        <extensions>
          <gpxtpx:TrackPointExtension xmlns:gpxtpx="http://www.garmin.com/xmlschemas/TrackPointExtension/v1">
            <gpxtpx:hr>166</gpxtpx:hr>
          </gpxtpx:TrackPointExtension>
        </extensions>
      </trkpt>
      <trkpt lat="44.18076" lon="3.18626">
        <ele>727.8</ele>
        <time>2022-02-10T11:02:58Z</time>
        <extensions>
          <gpxtpx:TrackPointExtension xmlns:gpxtpx="http://www.garmin.com/xmlschemas/TrackPointExtension/v1">
            <gpxtpx:hr>166</gpxtpx:hr>
          </gpxtpx:TrackPointExtension>
        </extensions>
      </trkpt>
      <trkpt lat="44.18078" lon="3.18624">
        <ele>728.2</ele>
        <time>2022-02-10T11:03:00Z</time>
        <extensions>
          <gpxtpx:TrackPointExtension xmlns:gpxtpx="http://www.garmin.com/xmlschemas/TrackPointExtension/v1">
            <gpxtpx:hr>164</gpxtpx:hr>
          </gpxtpx:TrackPointExtension>
        </extensions>
      </trkpt>
      <trkpt lat="44.1808" lon="3.18623">
        <ele>728.2</ele>
        <time>2022-02-10T11:03:01Z</time>
        <extensions>
          <gpxtpx:TrackPointExtension xmlns:gpxtpx="http://www.garmin.com/xmlschemas/TrackPointExtension/v1">
            <gpxtpx:hr>164</gpxtpx:hr>
          </gpxtpx:TrackPointExtension>
        </extensions>
      </trkpt>
      <trkpt lat="44.18083" lon="3.1862">
        <ele>728.6</ele>
        <time>2022-02-10T11:03:03Z</time>
        <extensions>
          <gpxtpx:TrackPointExtension xmlns:gpxtpx="http://www.garmin.com/xmlschemas/TrackPointExtension/v1">
            <gpxtpx:hr>165</gpxtpx:hr>
          </gpxtpx:TrackPointExtension>
        </extensions>
      </trkpt>
      <trkpt lat="44.18085" lon="3.18618">
        <ele>729.4</ele>
        <time>2022-02-10T11:03:05Z</time>
        <extensions>
          <gpxtpx:TrackPointExtension xmlns:gpxtpx="http://www.garmin.com/xmlschemas/TrackPointExtension/v1">
            <gpxtpx:hr>165</gpxtpx:hr>
          </gpxtpx:TrackPointExtension>
        </extensions>
      </trkpt>
      <trkpt lat="44.18087" lon="3.18616">
        <ele>729.4</ele>
        <time>2022-02-10T11:03:06Z</time>
        <extensions>
          <gpxtpx:TrackPointExtension xmlns:gpxtpx="http://www.garmin.com/xmlschemas/TrackPointExtension/v1">
            <gpxtpx:hr>166</gpxtpx:hr>
          </gpxtpx:TrackPointExtension>
        </extensions>
      </trkpt>
      <trkpt lat="44.18089" lon="3.18615">
        <ele>729.4</ele>
        <time>2022-02-10T11:03:07Z</time>
        <extensions>
          <gpxtpx:TrackPointExtension xmlns:gpxtpx="http://www.garmin.com/xmlschemas/TrackPointExtension/v1">
            <gpxtpx:hr>166</gpxtpx:hr>
          </gpxtpx:TrackPointExtension>
        </extensions>
      </trkpt>
      <trkpt lat="44.18092" lon="3.18611">
        <ele>729.6</ele>
        <time>2022-02-10T11:03:09Z</time>
        <extensions>
          <gpxtpx:TrackPointExtension xmlns:gpxtpx="http://www.garmin.com/xmlschemas/TrackPointExtension/v1">
            <gpxtpx:hr>166</gpxtpx:hr>
          </gpxtpx:TrackPointExtension>
        </extensions>
      </trkpt>
      <trkpt lat="44.18095" lon="3.18607">
        <ele>730.2</ele>
        <time>2022-02-10T11:03:11Z</time>
        <extensions>
          <gpxtpx:TrackPointExtension xmlns:gpxtpx="http://www.garmin.com/xmlschemas/TrackPointExtension/v1">
            <gpxtpx:hr>166</gpxtpx:hr>
          </gpxtpx:TrackPointExtension>
        </extensions>
      </trkpt>
      <trkpt lat="44.18099" lon="3.18603">
        <ele>730.4</ele>
        <time>2022-02-10T11:03:13Z</time>
        <extensions>
          <gpxtpx:TrackPointExtension xmlns:gpxtpx="http://www.garmin.com/xmlschemas/TrackPointExtension/v1">
            <gpxtpx:hr>166</gpxtpx:hr>
          </gpxtpx:TrackPointExtension>
        </extensions>
      </trkpt>
      <trkpt lat="44.18103" lon="3.18597">
        <ele>730.8</ele>
        <time>2022-02-10T11:03:16Z</time>
        <extensions>
          <gpxtpx:TrackPointExtension xmlns:gpxtpx="http://www.garmin.com/xmlschemas/TrackPointExtension/v1">
            <gpxtpx:hr>167</gpxtpx:hr>
          </gpxtpx:TrackPointExtension>
        </extensions>
      </trkpt>
      <trkpt lat="44.18104" lon="3.18595">
        <ele>731.2</ele>
        <time>2022-02-10T11:03:17Z</time>
        <extensions>
          <gpxtpx:TrackPointExtension xmlns:gpxtpx="http://www.garmin.com/xmlschemas/TrackPointExtension/v1">
            <gpxtpx:hr>167</gpxtpx:hr>
          </gpxtpx:TrackPointExtension>
        </extensions>
      </trkpt>
      <trkpt lat="44.18107" lon="3.18591">
        <ele>731.4</ele>
        <time>2022-02-10T11:03:19Z</time>
        <extensions>
          <gpxtpx:TrackPointExtension xmlns:gpxtpx="http://www.garmin.com/xmlschemas/TrackPointExtension/v1">
            <gpxtpx:hr>167</gpxtpx:hr>
          </gpxtpx:TrackPointExtension>
        </extensions>
      </trkpt>
      <trkpt lat="44.18109" lon="3.18588">
        <ele>731.6</ele>
        <time>2022-02-10T11:03:21Z</time>
        <extensions>
          <gpxtpx:TrackPointExtension xmlns:gpxtpx="http://www.garmin.com/xmlschemas/TrackPointExtension/v1">
            <gpxtpx:hr>167</gpxtpx:hr>
          </gpxtpx:TrackPointExtension>
        </extensions>
      </trkpt>
      <trkpt lat="44.1811" lon="3.18585">
        <ele>732.2</ele>
        <time>2022-02-10T11:03:23Z</time>
        <extensions>
          <gpxtpx:TrackPointExtension xmlns:gpxtpx="http://www.garmin.com/xmlschemas/TrackPointExtension/v1">
            <gpxtpx:hr>167</gpxtpx:hr>
          </gpxtpx:TrackPointExtension>
        </extensions>
      </trkpt>
      <trkpt lat="44.18112" lon="3.18583">
        <ele>732.6</ele>
        <time>2022-02-10T11:03:25Z</time>
        <extensions>
          <gpxtpx:TrackPointExtension xmlns:gpxtpx="http://www.garmin.com/xmlschemas/TrackPointExtension/v1">
            <gpxtpx:hr>167</gpxtpx:hr>
          </gpxtpx:TrackPointExtension>
        </extensions>
      </trkpt>
      <trkpt lat="44.18115" lon="3.1858">
        <ele>732.8</ele>
        <time>2022-02-10T11:03:27Z</time>
        <extensions>
          <gpxtpx:TrackPointExtension xmlns:gpxtpx="http://www.garmin.com/xmlschemas/TrackPointExtension/v1">
            <gpxtpx:hr>168</gpxtpx:hr>
          </gpxtpx:TrackPointExtension>
        </extensions>
      </trkpt>
      <trkpt lat="44.18117" lon="3.18577">
        <ele>733.2</ele>
        <time>2022-02-10T11:03:29Z</time>
        <extensions>
          <gpxtpx:TrackPointExtension xmlns:gpxtpx="http://www.garmin.com/xmlschemas/TrackPointExtension/v1">
            <gpxtpx:hr>167</gpxtpx:hr>
          </gpxtpx:TrackPointExtension>
        </extensions>
      </trkpt>
      <trkpt lat="44.18119" lon="3.18574">
        <ele>734</ele>
        <time>2022-02-10T11:03:31Z</time>
        <extensions>
          <gpxtpx:TrackPointExtension xmlns:gpxtpx="http://www.garmin.com/xmlschemas/TrackPointExtension/v1">
            <gpxtpx:hr>167</gpxtpx:hr>
          </gpxtpx:TrackPointExtension>
        </extensions>
      </trkpt>
      <trkpt lat="44.18121" lon="3.18571">
        <ele>734.2</ele>
        <time>2022-02-10T11:03:33Z</time>
        <extensions>
          <gpxtpx:TrackPointExtension xmlns:gpxtpx="http://www.garmin.com/xmlschemas/TrackPointExtension/v1">
            <gpxtpx:hr>167</gpxtpx:hr>
          </gpxtpx:TrackPointExtension>
        </extensions>
      </trkpt>
      <trkpt lat="44.18124" lon="3.18567">
        <ele>734.8</ele>
        <time>2022-02-10T11:03:35Z</time>
        <extensions>
          <gpxtpx:TrackPointExtension xmlns:gpxtpx="http://www.garmin.com/xmlschemas/TrackPointExtension/v1">
            <gpxtpx:hr>168</gpxtpx:hr>
          </gpxtpx:TrackPointExtension>
        </extensions>
      </trkpt>
      <trkpt lat="44.18125" lon="3.18564">
        <ele>735</ele>
        <time>2022-02-10T11:03:37Z</time>
        <extensions>
          <gpxtpx:TrackPointExtension xmlns:gpxtpx="http://www.garmin.com/xmlschemas/TrackPointExtension/v1">
            <gpxtpx:hr>168</gpxtpx:hr>
          </gpxtpx:TrackPointExtension>
        </extensions>
      </trkpt>
      <trkpt lat="44.18127" lon="3.18561">
        <ele>735.4</ele>
        <time>2022-02-10T11:03:39Z</time>
        <extensions>
          <gpxtpx:TrackPointExtension xmlns:gpxtpx="http://www.garmin.com/xmlschemas/TrackPointExtension/v1">
            <gpxtpx:hr>169</gpxtpx:hr>
          </gpxtpx:TrackPointExtension>
        </extensions>
      </trkpt>
      <trkpt lat="44.18129" lon="3.18558">
        <ele>736</ele>
        <time>2022-02-10T11:03:41Z</time>
        <extensions>
          <gpxtpx:TrackPointExtension xmlns:gpxtpx="http://www.garmin.com/xmlschemas/TrackPointExtension/v1">
            <gpxtpx:hr>169</gpxtpx:hr>
          </gpxtpx:TrackPointExtension>
        </extensions>
      </trkpt>
      <trkpt lat="44.18131" lon="3.18555">
        <ele>736</ele>
        <time>2022-02-10T11:03:43Z</time>
        <extensions>
          <gpxtpx:TrackPointExtension xmlns:gpxtpx="http://www.garmin.com/xmlschemas/TrackPointExtension/v1">
            <gpxtpx:hr>169</gpxtpx:hr>
          </gpxtpx:TrackPointExtension>
        </extensions>
      </trkpt>
      <trkpt lat="44.18133" lon="3.18552">
        <ele>736.6</ele>
        <time>2022-02-10T11:03:45Z</time>
        <extensions>
          <gpxtpx:TrackPointExtension xmlns:gpxtpx="http://www.garmin.com/xmlschemas/TrackPointExtension/v1">
            <gpxtpx:hr>169</gpxtpx:hr>
          </gpxtpx:TrackPointExtension>
        </extensions>
      </trkpt>
      <trkpt lat="44.18138" lon="3.18548">
        <ele>737</ele>
        <time>2022-02-10T11:03:48Z</time>
        <extensions>
          <gpxtpx:TrackPointExtension xmlns:gpxtpx="http://www.garmin.com/xmlschemas/TrackPointExtension/v1">
            <gpxtpx:hr>168</gpxtpx:hr>
          </gpxtpx:TrackPointExtension>
        </extensions>
      </trkpt>
      <trkpt lat="44.18139" lon="3.18547">
        <ele>737.6</ele>
        <time>2022-02-10T11:03:49Z</time>
        <extensions>
          <gpxtpx:TrackPointExtension xmlns:gpxtpx="http://www.garmin.com/xmlschemas/TrackPointExtension/v1">
            <gpxtpx:hr>167</gpxtpx:hr>
          </gpxtpx:TrackPointExtension>
        </extensions>
      </trkpt>
      <trkpt lat="44.18142" lon="3.18544">
        <ele>737.6</ele>
        <time>2022-02-10T11:03:51Z</time>
        <extensions>
          <gpxtpx:TrackPointExtension xmlns:gpxtpx="http://www.garmin.com/xmlschemas/TrackPointExtension/v1">
            <gpxtpx:hr>167</gpxtpx:hr>
          </gpxtpx:TrackPointExtension>
        </extensions>
      </trkpt>
      <trkpt lat="44.18144" lon="3.18542">
        <ele>737.8</ele>
        <time>2022-02-10T11:03:52Z</time>
        <extensions>
          <gpxtpx:TrackPointExtension xmlns:gpxtpx="http://www.garmin.com/xmlschemas/TrackPointExtension/v1">
            <gpxtpx:hr>167</gpxtpx:hr>
          </gpxtpx:TrackPointExtension>
        </extensions>
      </trkpt>
      <trkpt lat="44.18147" lon="3.1854">
        <ele>738</ele>
        <time>2022-02-10T11:03:54Z</time>
        <extensions>
          <gpxtpx:TrackPointExtension xmlns:gpxtpx="http://www.garmin.com/xmlschemas/TrackPointExtension/v1">
            <gpxtpx:hr>167</gpxtpx:hr>
          </gpxtpx:TrackPointExtension>
        </extensions>
      </trkpt>
      <trkpt lat="44.18149" lon="3.18538">
        <ele>738</ele>
        <time>2022-02-10T11:03:55Z</time>
        <extensions>
          <gpxtpx:TrackPointExtension xmlns:gpxtpx="http://www.garmin.com/xmlschemas/TrackPointExtension/v1">
            <gpxtpx:hr>167</gpxtpx:hr>
          </gpxtpx:TrackPointExtension>
        </extensions>
      </trkpt>
      <trkpt lat="44.1815" lon="3.18537">
        <ele>738</ele>
        <time>2022-02-10T11:03:56Z</time>
        <extensions>
          <gpxtpx:TrackPointExtension xmlns:gpxtpx="http://www.garmin.com/xmlschemas/TrackPointExtension/v1">
            <gpxtpx:hr>167</gpxtpx:hr>
          </gpxtpx:TrackPointExtension>
        </extensions>
      </trkpt>
      <trkpt lat="44.18153" lon="3.18535">
        <ele>738.4</ele>
        <time>2022-02-10T11:03:58Z</time>
        <extensions>
          <gpxtpx:TrackPointExtension xmlns:gpxtpx="http://www.garmin.com/xmlschemas/TrackPointExtension/v1">
            <gpxtpx:hr>167</gpxtpx:hr>
          </gpxtpx:TrackPointExtension>
        </extensions>
      </trkpt>
      <trkpt lat="44.18156" lon="3.18533">
        <ele>738.6</ele>
        <time>2022-02-10T11:04:00Z</time>
        <extensions>
          <gpxtpx:TrackPointExtension xmlns:gpxtpx="http://www.garmin.com/xmlschemas/TrackPointExtension/v1">
            <gpxtpx:hr>168</gpxtpx:hr>
          </gpxtpx:TrackPointExtension>
        </extensions>
      </trkpt>
      <trkpt lat="44.18159" lon="3.18532">
        <ele>738.6</ele>
        <time>2022-02-10T11:04:02Z</time>
        <extensions>
          <gpxtpx:TrackPointExtension xmlns:gpxtpx="http://www.garmin.com/xmlschemas/TrackPointExtension/v1">
            <gpxtpx:hr>168</gpxtpx:hr>
          </gpxtpx:TrackPointExtension>
        </extensions>
      </trkpt>
      <trkpt lat="44.18162" lon="3.1853">
        <ele>739</ele>
        <time>2022-02-10T11:04:04Z</time>
        <extensions>
          <gpxtpx:TrackPointExtension xmlns:gpxtpx="http://www.garmin.com/xmlschemas/TrackPointExtension/v1">
            <gpxtpx:hr>167</gpxtpx:hr>
          </gpxtpx:TrackPointExtension>
        </extensions>
      </trkpt>
      <trkpt lat="44.18165" lon="3.18529">
        <ele>739</ele>
        <time>2022-02-10T11:04:06Z</time>
        <extensions>
          <gpxtpx:TrackPointExtension xmlns:gpxtpx="http://www.garmin.com/xmlschemas/TrackPointExtension/v1">
            <gpxtpx:hr>168</gpxtpx:hr>
          </gpxtpx:TrackPointExtension>
        </extensions>
      </trkpt>
      <trkpt lat="44.18166" lon="3.18528">
        <ele>738.6</ele>
        <time>2022-02-10T11:04:09Z</time>
        <extensions>
          <gpxtpx:TrackPointExtension xmlns:gpxtpx="http://www.garmin.com/xmlschemas/TrackPointExtension/v1">
            <gpxtpx:hr>168</gpxtpx:hr>
          </gpxtpx:TrackPointExtension>
        </extensions>
      </trkpt>
      <trkpt lat="44.18225" lon="3.18503">
        <ele>734.4</ele>
      </trkpt>
      <trkpt lat="44.18281" lon="3.18481">
        <ele>732.4</ele>
      </trkpt>
      <trkpt lat="44.18305" lon="3.18464">
        <ele>732.5</ele>
      </trkpt>
      <trkpt lat="44.18348" lon="3.18428">
        <ele>731.3</ele>
      </trkpt>
      <trkpt lat="44.18354" lon="3.18427">
        <ele>730.6</ele>
      </trkpt>
      <trkpt lat="44.18358" lon="3.18431">
        <ele>729.9</ele>
      </trkpt>
      <trkpt lat="44.18359" lon="3.18444">
        <ele>729.2</ele>
      </trkpt>
      <trkpt lat="44.18362" lon="3.18456">
        <ele>727.7</ele>
      </trkpt>
      <trkpt lat="44.18364" lon="3.18472">
        <ele>726</ele>
      </trkpt>
      <trkpt lat="44.18369" lon="3.1848">
        <ele>725.6</ele>
      </trkpt>
      <trkpt lat="44.18381" lon="3.18481">
        <ele>725.3</ele>
      </trkpt>
      <trkpt lat="44.1839" lon="3.18475">
        <ele>728.9</ele>
        <time>2019-04-19T15:17:05Z</time>
      </trkpt>
      <trkpt lat="44.18393" lon="3.18474">
        <ele>728.9</ele>
        <time>2019-04-19T15:17:01Z</time>
      </trkpt>
      <trkpt lat="44.18396" lon="3.18474">
        <ele>729.1</ele>
        <time>2019-04-19T15:16:59Z</time>
      </trkpt>
      <trkpt lat="44.18399" lon="3.18469">
        <ele>729.3</ele>
        <time>2019-04-19T15:16:58Z</time>
      </trkpt>
      <trkpt lat="44.18401" lon="3.18466">
        <ele>729.5</ele>
        <time>2019-04-19T15:16:57Z</time>
      </trkpt>
      <trkpt lat="44.18404" lon="3.18463">
        <ele>729.7</ele>
        <time>2019-04-19T15:16:56Z</time>
      </trkpt>
      <trkpt lat="44.18406" lon="3.18457">
        <ele>730</ele>
        <time>2019-04-19T15:16:55Z</time>
      </trkpt>
      <trkpt lat="44.1841" lon="3.18448">
        <ele>730.5</ele>
        <time>2019-04-19T15:16:54Z</time>
      </trkpt>
      <trkpt lat="44.18413" lon="3.18445">
        <ele>730.7</ele>
        <time>2019-04-19T15:16:53Z</time>
      </trkpt>
      <trkpt lat="44.18416" lon="3.18441">
        <ele>730.9</ele>
        <time>2019-04-19T15:16:52Z</time>
      </trkpt>
      <trkpt lat="44.1842" lon="3.18438">
        <ele>731.2</ele>
        <time>2019-04-19T15:16:51Z</time>
      </trkpt>
      <trkpt lat="44.18425" lon="3.18434">
        <ele>731.5</ele>
        <time>2019-04-19T15:16:50Z</time>
      </trkpt>
      <trkpt lat="44.18428" lon="3.18427">
        <ele>731.8</ele>
        <time>2019-04-19T15:16:49Z</time>
      </trkpt>
      <trkpt lat="44.18433" lon="3.18423">
        <ele>732.2</ele>
        <time>2019-04-19T15:16:48Z</time>
      </trkpt>
      <trkpt lat="44.18435" lon="3.18414">
        <ele>732.5</ele>
        <time>2019-04-19T15:16:47Z</time>
      </trkpt>
      <trkpt lat="44.18437" lon="3.18405">
        <ele>733</ele>
        <time>2019-04-19T15:16:46Z</time>
      </trkpt>
      <trkpt lat="44.1844" lon="3.18394">
        <ele>733.3</ele>
        <time>2019-04-19T15:16:45Z</time>
      </trkpt>
      <trkpt lat="44.18442" lon="3.18384">
        <ele>733.8</ele>
        <time>2019-04-19T15:16:44Z</time>
      </trkpt>
      <trkpt lat="44.18445" lon="3.18378">
        <ele>734.1</ele>
        <time>2019-04-19T15:16:43Z</time>
      </trkpt>
      <trkpt lat="44.1845" lon="3.18374">
        <ele>734.4</ele>
        <time>2019-04-19T15:16:42Z</time>
      </trkpt>
      <trkpt lat="44.18457" lon="3.18366">
        <ele>734.6</ele>
        <time>2019-04-19T15:16:41Z</time>
      </trkpt>
      <trkpt lat="44.18463" lon="3.18356">
        <ele>734.8</ele>
        <time>2019-04-19T15:16:40Z</time>
      </trkpt>
      <trkpt lat="44.1847" lon="3.1835">
        <ele>735.1</ele>
        <time>2019-04-19T15:16:39Z</time>
      </trkpt>
      <trkpt lat="44.18476" lon="3.18343">
        <ele>735.4</ele>
        <time>2019-04-19T15:16:38Z</time>
      </trkpt>
      <trkpt lat="44.18483" lon="3.18341">
        <ele>735.5</ele>
        <time>2019-04-19T15:16:37Z</time>
      </trkpt>
      <trkpt lat="44.1849" lon="3.18337">
        <ele>735.8</ele>
        <time>2019-04-19T15:16:36Z</time>
      </trkpt>
      <trkpt lat="44.18503" lon="3.18336">
        <ele>736.3</ele>
        <time>2019-04-19T15:16:35Z</time>
      </trkpt>
      <trkpt lat="44.18505" lon="3.18327">
        <ele>736.7</ele>
        <time>2019-04-19T15:16:34Z</time>
      </trkpt>
      <trkpt lat="44.18509" lon="3.18316">
        <ele>737.3</ele>
        <time>2019-04-19T15:16:33Z</time>
      </trkpt>
      <trkpt lat="44.18516" lon="3.18306">
        <ele>738.1</ele>
        <time>2019-04-19T15:16:32Z</time>
      </trkpt>
      <trkpt lat="44.18518" lon="3.18297">
        <ele>738.7</ele>
        <time>2019-04-19T15:16:31Z</time>
      </trkpt>
      <trkpt lat="44.18521" lon="3.18294">
        <ele>739</ele>
        <time>2019-04-19T15:16:30Z</time>
      </trkpt>
      <trkpt lat="44.18528" lon="3.18294">
        <ele>739.6</ele>
        <time>2019-04-19T15:16:29Z</time>
      </trkpt>
      <trkpt lat="44.18535" lon="3.18293">
        <ele>740.3</ele>
        <time>2019-04-19T15:16:28Z</time>
      </trkpt>
      <trkpt lat="44.18544" lon="3.18288">
        <ele>741.1</ele>
        <time>2019-04-19T15:16:27Z</time>
      </trkpt>
      <trkpt lat="44.1855" lon="3.18279">
        <ele>742</ele>
        <time>2019-04-19T15:16:26Z</time>
      </trkpt>
      <trkpt lat="44.18559" lon="3.18279">
        <ele>742.8</ele>
        <time>2019-04-19T15:16:25Z</time>
      </trkpt>
      <trkpt lat="44.18564" lon="3.18275">
        <ele>743.3</ele>
        <time>2019-04-19T15:16:24Z</time>
      </trkpt>
      <trkpt lat="44.1857" lon="3.18267">
        <ele>744.1</ele>
        <time>2019-04-19T15:16:23Z</time>
      </trkpt>
      <trkpt lat="44.18577" lon="3.18262">
        <ele>745</ele>
        <time>2019-04-19T15:16:22Z</time>
      </trkpt>
      <trkpt lat="44.18584" lon="3.18261">
        <ele>745.7</ele>
        <time>2019-04-19T15:16:21Z</time>
      </trkpt>
      <trkpt lat="44.18589" lon="3.18255">
        <ele>746.5</ele>
        <time>2019-04-19T15:16:20Z</time>
      </trkpt>
      <trkpt lat="44.18594" lon="3.1825">
        <ele>747.4</ele>
        <time>2019-04-19T15:16:19Z</time>
      </trkpt>
      <trkpt lat="44.18598" lon="3.18243">
        <ele>748.4</ele>
        <time>2019-04-19T15:16:18Z</time>
      </trkpt>
      <trkpt lat="44.18602" lon="3.18239">
        <ele>749</ele>
        <time>2019-04-19T15:16:17Z</time>
      </trkpt>
      <trkpt lat="44.18606" lon="3.18233">
        <ele>749.5</ele>
        <time>2019-04-19T15:16:16Z</time>
      </trkpt>
      <trkpt lat="44.1861" lon="3.18228">
        <ele>750</ele>
        <time>2019-04-19T15:16:15Z</time>
      </trkpt>
      <trkpt lat="44.18614" lon="3.18221">
        <ele>750.5</ele>
        <time>2019-04-19T15:16:14Z</time>
      </trkpt>
      <trkpt lat="44.18618" lon="3.18213">
        <ele>750.9</ele>
        <time>2019-04-19T15:16:13Z</time>
      </trkpt>
      <trkpt lat="44.18623" lon="3.18211">
        <ele>751.2</ele>
        <time>2019-04-19T15:16:12Z</time>
      </trkpt>
      <trkpt lat="44.18629" lon="3.18207">
        <ele>751.6</ele>
        <time>2019-04-19T15:16:11Z</time>
      </trkpt>
      <trkpt lat="44.18633" lon="3.18199">
        <ele>751.9</ele>
        <time>2019-04-19T15:16:10Z</time>
      </trkpt>
      <trkpt lat="44.18636" lon="3.18196">
        <ele>752</ele>
        <time>2019-04-19T15:16:09Z</time>
      </trkpt>
      <trkpt lat="44.18639" lon="3.1819">
        <ele>752.2</ele>
        <time>2019-04-19T15:16:08Z</time>
      </trkpt>
      <trkpt lat="44.1864" lon="3.18176">
        <ele>752.8</ele>
        <time>2019-04-19T15:16:07Z</time>
      </trkpt>
      <trkpt lat="44.18643" lon="3.18171">
        <ele>753</ele>
        <time>2019-04-19T15:16:06Z</time>
      </trkpt>
      <trkpt lat="44.18645" lon="3.18167">
        <ele>753</ele>
        <time>2019-04-19T15:16:05Z</time>
      </trkpt>
      <trkpt lat="44.18648" lon="3.18164">
        <ele>753.1</ele>
        <time>2019-04-19T15:16:04Z</time>
      </trkpt>
      <trkpt lat="44.1865" lon="3.1816">
        <ele>753.3</ele>
        <time>2019-04-19T15:16:03Z</time>
      </trkpt>
      <trkpt lat="44.18653" lon="3.18156">
        <ele>753.4</ele>
        <time>2019-04-19T15:16:02Z</time>
      </trkpt>
      <trkpt lat="44.18655" lon="3.18152">
        <ele>753.5</ele>
        <time>2019-04-19T15:16:01Z</time>
      </trkpt>
      <trkpt lat="44.18657" lon="3.18148">
        <ele>753.5</ele>
        <time>2019-04-19T15:16:00Z</time>
      </trkpt>
      <trkpt lat="44.1866" lon="3.18143">
        <ele>753.6</ele>
        <time>2019-04-19T15:15:59Z</time>
      </trkpt>
      <trkpt lat="44.18662" lon="3.18139">
        <ele>753.6</ele>
        <time>2019-04-19T15:15:58Z</time>
      </trkpt>
      <trkpt lat="44.18663" lon="3.18135">
        <ele>753.5</ele>
        <time>2019-04-19T15:15:57Z</time>
      </trkpt>
      <trkpt lat="44.18665" lon="3.1813">
        <ele>753.5</ele>
        <time>2019-04-19T15:15:56Z</time>
      </trkpt>
      <trkpt lat="44.18666" lon="3.18124">
        <ele>753.5</ele>
        <time>2019-04-19T15:15:55Z</time>
      </trkpt>
      <trkpt lat="44.18667" lon="3.18118">
        <ele>753.5</ele>
        <time>2019-04-19T15:15:54Z</time>
      </trkpt>
      <trkpt lat="44.18668" lon="3.18112">
        <ele>753.5</ele>
        <time>2019-04-19T15:15:53Z</time>
      </trkpt>
      <trkpt lat="44.18668" lon="3.18106">
        <ele>753.5</ele>
        <time>2019-04-19T15:15:52Z</time>
      </trkpt>
      <trkpt lat="44.18668" lon="3.18101">
        <ele>753.6</ele>
        <time>2019-04-19T15:15:51Z</time>
      </trkpt>
      <trkpt lat="44.18668" lon="3.18097">
        <ele>753.6</ele>
        <time>2019-04-19T15:15:50Z</time>
      </trkpt>
      <trkpt lat="44.18669" lon="3.18091">
        <ele>753.6</ele>
        <time>2019-04-19T15:15:49Z</time>
      </trkpt>
      <trkpt lat="44.18671" lon="3.18086">
        <ele>753.6</ele>
        <time>2019-04-19T15:15:47Z</time>
      </trkpt>
      <trkpt lat="44.18672" lon="3.1808">
        <ele>753.6</ele>
        <time>2019-04-19T15:15:29Z</time>
      </trkpt>
      <trkpt lat="44.1867" lon="3.18077">
        <ele>753.5</ele>
        <time>2019-04-19T15:15:25Z</time>
      </trkpt>
      <trkpt lat="44.18667" lon="3.18074">
        <ele>753.4</ele>
        <time>2019-04-19T15:15:23Z</time>
      </trkpt>
      <trkpt lat="44.18663" lon="3.18073">
        <ele>753.4</ele>
        <time>2019-04-19T15:15:21Z</time>
      </trkpt>
      <trkpt lat="44.1866" lon="3.1807">
        <ele>753.3</ele>
        <time>2019-04-19T15:15:19Z</time>
      </trkpt>
      <trkpt lat="44.18658" lon="3.18068">
        <ele>753.2</ele>
        <time>2019-04-19T15:15:18Z</time>
      </trkpt>
      <trkpt lat="44.18656" lon="3.18065">
        <ele>753.1</ele>
        <time>2019-04-19T15:15:17Z</time>
      </trkpt>
      <trkpt lat="44.18655" lon="3.18059">
        <ele>753</ele>
        <time>2019-04-19T15:15:15Z</time>
      </trkpt>
      <trkpt lat="44.18654" lon="3.18052">
        <ele>752.9</ele>
        <time>2019-04-19T15:15:13Z</time>
      </trkpt>
      <trkpt lat="44.18651" lon="3.18049">
        <ele>752.9</ele>
        <time>2019-04-19T15:15:11Z</time>
      </trkpt>
      <trkpt lat="44.18647" lon="3.18047">
        <ele>752.8</ele>
        <time>2019-04-19T15:15:09Z</time>
      </trkpt>
      <trkpt lat="44.18643" lon="3.18046">
        <ele>752.7</ele>
        <time>2019-04-19T15:15:07Z</time>
      </trkpt>
      <trkpt lat="44.18639" lon="3.18044">
        <ele>752.5</ele>
        <time>2019-04-19T15:15:05Z</time>
      </trkpt>
      <trkpt lat="44.18635" lon="3.18045">
        <ele>752.4</ele>
        <time>2019-04-19T15:15:03Z</time>
      </trkpt>
      <trkpt lat="44.18633" lon="3.18048">
        <ele>752.3</ele>
        <time>2019-04-19T15:15:01Z</time>
      </trkpt>
      <trkpt lat="44.18629" lon="3.18053">
        <ele>752.1</ele>
        <time>2019-04-19T15:14:59Z</time>
      </trkpt>
      <trkpt lat="44.18627" lon="3.18055">
        <ele>752</ele>
        <time>2019-04-19T15:14:58Z</time>
      </trkpt>
      <trkpt lat="44.18623" lon="3.18059">
        <ele>751.8</ele>
        <time>2019-04-19T15:14:56Z</time>
      </trkpt>
      <trkpt lat="44.18619" lon="3.18061">
        <ele>751.7</ele>
        <time>2019-04-19T15:14:54Z</time>
      </trkpt>
      <trkpt lat="44.18616" lon="3.18062">
        <ele>751.6</ele>
        <time>2019-04-19T15:14:53Z</time>
      </trkpt>
      <trkpt lat="44.18613" lon="3.18064">
        <ele>751.5</ele>
        <time>2019-04-19T15:14:52Z</time>
      </trkpt>
      <trkpt lat="44.18611" lon="3.18065">
        <ele>751.4</ele>
        <time>2019-04-19T15:14:51Z</time>
      </trkpt>
      <trkpt lat="44.18606" lon="3.18068">
        <ele>751.3</ele>
        <time>2019-04-19T15:14:49Z</time>
      </trkpt>
      <trkpt lat="44.18603" lon="3.18068">
        <ele>751.1</ele>
        <time>2019-04-19T15:14:47Z</time>
      </trkpt>
      <trkpt lat="44.186" lon="3.18067">
        <ele>751</ele>
        <time>2019-04-19T15:14:45Z</time>
      </trkpt>
      <trkpt lat="44.18597" lon="3.18065">
        <ele>750.9</ele>
        <time>2019-04-19T15:14:44Z</time>
      </trkpt>
      <trkpt lat="44.18594" lon="3.18062">
        <ele>750.9</ele>
        <time>2019-04-19T15:14:43Z</time>
      </trkpt>
      <trkpt lat="44.18591" lon="3.18058">
        <ele>750.8</ele>
        <time>2019-04-19T15:14:42Z</time>
      </trkpt>
      <trkpt lat="44.18588" lon="3.18054">
        <ele>750.7</ele>
        <time>2019-04-19T15:14:41Z</time>
      </trkpt>
      <trkpt lat="44.18585" lon="3.18049">
        <ele>750.5</ele>
        <time>2019-04-19T15:14:40Z</time>
      </trkpt>
      <trkpt lat="44.18584" lon="3.18045">
        <ele>750.4</ele>
        <time>2019-04-19T15:14:39Z</time>
      </trkpt>
      <trkpt lat="44.18584" lon="3.18039">
        <ele>750.2</ele>
        <time>2019-04-19T15:14:36Z</time>
      </trkpt>
      <trkpt lat="44.18585" lon="3.18035">
        <ele>750.1</ele>
        <time>2019-04-19T15:14:33Z</time>
      </trkpt>
      <trkpt lat="44.18587" lon="3.1803">
        <ele>750</ele>
        <time>2019-04-19T15:14:31Z</time>
      </trkpt>
      <trkpt lat="44.18584" lon="3.18026">
        <ele>749.9</ele>
        <time>2019-04-19T15:14:30Z</time>
      </trkpt>
      <trkpt lat="44.18582" lon="3.18019">
        <ele>750</ele>
        <time>2019-04-19T15:14:28Z</time>
      </trkpt>
      <trkpt lat="44.18578" lon="3.18013">
        <ele>750.3</ele>
        <time>2019-04-19T15:14:25Z</time>
      </trkpt>
      <trkpt lat="44.18581" lon="3.18011">
        <ele>750.5</ele>
        <time>2019-04-19T15:14:23Z</time>
      </trkpt>
      <trkpt lat="44.18581" lon="3.18007">
        <ele>750.7</ele>
        <time>2019-04-19T15:14:22Z</time>
      </trkpt>
      <trkpt lat="44.18581" lon="3.17994">
        <ele>751.2</ele>
        <time>2019-04-19T15:14:21Z</time>
      </trkpt>
      <trkpt lat="44.18582" lon="3.17981">
        <ele>751.6</ele>
        <time>2019-04-19T15:14:20Z</time>
      </trkpt>
      <trkpt lat="44.18583" lon="3.17976">
        <ele>751.8</ele>
        <time>2019-04-19T15:14:19Z</time>
      </trkpt>
      <trkpt lat="44.18584" lon="3.17969">
        <ele>751.9</ele>
        <time>2019-04-19T15:14:18Z</time>
      </trkpt>
      <trkpt lat="44.18585" lon="3.17957">
        <ele>752.2</ele>
        <time>2019-04-19T15:14:17Z</time>
      </trkpt>
      <trkpt lat="44.1859" lon="3.17946">
        <ele>752.7</ele>
        <time>2019-04-19T15:14:16Z</time>
      </trkpt>
      <trkpt lat="44.18595" lon="3.17935">
        <ele>753.2</ele>
        <time>2019-04-19T15:14:15Z</time>
      </trkpt>
      <trkpt lat="44.18601" lon="3.17929">
        <ele>753.7</ele>
        <time>2019-04-19T15:14:14Z</time>
      </trkpt>
      <trkpt lat="44.18604" lon="3.17928">
        <ele>753.9</ele>
        <time>2019-04-19T15:14:13Z</time>
      </trkpt>
      <trkpt lat="44.18607" lon="3.17922">
        <ele>754.3</ele>
        <time>2019-04-19T15:14:12Z</time>
      </trkpt>
      <trkpt lat="44.18608" lon="3.17916">
        <ele>754.5</ele>
        <time>2019-04-19T15:14:11Z</time>
      </trkpt>
      <trkpt lat="44.1861" lon="3.179">
        <ele>755.3</ele>
        <time>2019-04-19T15:14:10Z</time>
      </trkpt>
      <trkpt lat="44.18612" lon="3.17893">
        <ele>755.7</ele>
        <time>2019-04-19T15:14:09Z</time>
      </trkpt>
      <trkpt lat="44.18614" lon="3.17887">
        <ele>756</ele>
        <time>2019-04-19T15:14:08Z</time>
      </trkpt>
      <trkpt lat="44.18615" lon="3.17884">
        <ele>756.3</ele>
        <time>2019-04-19T15:14:07Z</time>
      </trkpt>
      <trkpt lat="44.18619" lon="3.17878">
        <ele>756.6</ele>
        <time>2019-04-19T15:14:05Z</time>
      </trkpt>
      <trkpt lat="44.18622" lon="3.17875">
        <ele>757.2</ele>
        <time>2019-04-19T15:14:03Z</time>
      </trkpt>
      <trkpt lat="44.18625" lon="3.1787">
        <ele>757.6</ele>
        <time>2019-04-19T15:13:57Z</time>
      </trkpt>
      <trkpt lat="44.18623" lon="3.17867">
        <ele>757.9</ele>
        <time>2019-04-19T15:13:54Z</time>
      </trkpt>
      <trkpt lat="44.18624" lon="3.17862">
        <ele>758.3</ele>
        <time>2019-04-19T15:13:43Z</time>
      </trkpt>
      <trkpt lat="44.18626" lon="3.17861">
        <ele>758.6</ele>
        <time>2019-04-19T15:13:42Z</time>
      </trkpt>
      <trkpt lat="44.18628" lon="3.17856">
        <ele>758.8</ele>
        <time>2019-04-19T15:13:40Z</time>
      </trkpt>
      <trkpt lat="44.18629" lon="3.17851">
        <ele>759</ele>
        <time>2019-04-19T15:12:17Z</time>
      </trkpt>
      <trkpt lat="44.18626" lon="3.1785">
        <ele>759.3</ele>
        <time>2019-04-19T15:12:08Z</time>
      </trkpt>
      <trkpt lat="44.18625" lon="3.17846">
        <ele>759.6</ele>
        <time>2019-04-19T15:12:07Z</time>
      </trkpt>
      <trkpt lat="44.18624" lon="3.17839">
        <ele>760.1</ele>
        <time>2019-04-19T15:12:06Z</time>
      </trkpt>
      <trkpt lat="44.18621" lon="3.17833">
        <ele>760.3</ele>
        <time>2019-04-19T15:12:05Z</time>
      </trkpt>
      <trkpt lat="44.18619" lon="3.17827">
        <ele>760.6</ele>
        <time>2019-04-19T15:12:04Z</time>
      </trkpt>
      <trkpt lat="44.18615" lon="3.17819">
        <ele>760.9</ele>
        <time>2019-04-19T15:12:03Z</time>
      </trkpt>
      <trkpt lat="44.18613" lon="3.17813">
        <ele>761.1</ele>
        <time>2019-04-19T15:12:02Z</time>
      </trkpt>
      <trkpt lat="44.18611" lon="3.17807">
        <ele>761.3</ele>
        <time>2019-04-19T15:12:01Z</time>
      </trkpt>
      <trkpt lat="44.18608" lon="3.17799">
        <ele>762</ele>
        <time>2019-04-19T15:12:00Z</time>
      </trkpt>
      <trkpt lat="44.18608" lon="3.17792">
        <ele>762.3</ele>
        <time>2019-04-19T15:11:59Z</time>
      </trkpt>
      <trkpt lat="44.18607" lon="3.17779">
        <ele>762.9</ele>
        <time>2019-04-19T15:11:58Z</time>
      </trkpt>
      <trkpt lat="44.18606" lon="3.17773">
        <ele>763.2</ele>
        <time>2019-04-19T15:11:57Z</time>
      </trkpt>
      <trkpt lat="44.18604" lon="3.17767">
        <ele>763.3</ele>
        <time>2019-04-19T15:11:56Z</time>
      </trkpt>
      <trkpt lat="44.18603" lon="3.17762">
        <ele>763.5</ele>
        <time>2019-04-19T15:11:55Z</time>
      </trkpt>
      <trkpt lat="44.18602" lon="3.17757">
        <ele>763.6</ele>
        <time>2019-04-19T15:11:54Z</time>
      </trkpt>
      <trkpt lat="44.18602" lon="3.17753">
        <ele>763.7</ele>
        <time>2019-04-19T15:11:53Z</time>
      </trkpt>
      <trkpt lat="44.18603" lon="3.17747">
        <ele>763.8</ele>
        <time>2019-04-19T15:11:51Z</time>
      </trkpt>
      <trkpt lat="44.18605" lon="3.17741">
        <ele>763.9</ele>
        <time>2019-04-19T15:11:49Z</time>
      </trkpt>
      <trkpt lat="44.18606" lon="3.17734">
        <ele>764</ele>
        <time>2019-04-19T15:11:47Z</time>
      </trkpt>
      <trkpt lat="44.18607" lon="3.1773">
        <ele>764.1</ele>
        <time>2019-04-19T15:11:46Z</time>
      </trkpt>
      <trkpt lat="44.18607" lon="3.17726">
        <ele>764.1</ele>
        <time>2019-04-19T15:11:45Z</time>
      </trkpt>
      <trkpt lat="44.18607" lon="3.17721">
        <ele>764.2</ele>
        <time>2019-04-19T15:11:44Z</time>
      </trkpt>
      <trkpt lat="44.18606" lon="3.17717">
        <ele>764.3</ele>
        <time>2019-04-19T15:11:43Z</time>
      </trkpt>
      <trkpt lat="44.18603" lon="3.17712">
        <ele>764.3</ele>
        <time>2019-04-19T15:11:41Z</time>
      </trkpt>
      <trkpt lat="44.18601" lon="3.17708">
        <ele>764.4</ele>
        <time>2019-04-19T15:11:40Z</time>
      </trkpt>
      <trkpt lat="44.18599" lon="3.17705">
        <ele>764.4</ele>
        <time>2019-04-19T15:11:39Z</time>
      </trkpt>
      <trkpt lat="44.18596" lon="3.17701">
        <ele>764.5</ele>
        <time>2019-04-19T15:11:38Z</time>
      </trkpt>
      <trkpt lat="44.18594" lon="3.17697">
        <ele>764.6</ele>
        <time>2019-04-19T15:11:37Z</time>
      </trkpt>
      <trkpt lat="44.18591" lon="3.17693">
        <ele>764.6</ele>
        <time>2019-04-19T15:11:36Z</time>
      </trkpt>
      <trkpt lat="44.18586" lon="3.17688">
        <ele>764.7</ele>
        <time>2019-04-19T15:11:34Z</time>
      </trkpt>
      <trkpt lat="44.18582" lon="3.17685">
        <ele>764.8</ele>
        <time>2019-04-19T15:11:33Z</time>
      </trkpt>
      <trkpt lat="44.1858" lon="3.17681">
        <ele>764.9</ele>
        <time>2019-04-19T15:11:32Z</time>
      </trkpt>
      <trkpt lat="44.18577" lon="3.17675">
        <ele>765.1</ele>
        <time>2019-04-19T15:11:31Z</time>
      </trkpt>
      <trkpt lat="44.18575" lon="3.1767">
        <ele>765.3</ele>
        <time>2019-04-19T15:11:30Z</time>
      </trkpt>
      <trkpt lat="44.18574" lon="3.17664">
        <ele>765.4</ele>
        <time>2019-04-19T15:11:29Z</time>
      </trkpt>
      <trkpt lat="44.18573" lon="3.17657">
        <ele>765.6</ele>
        <time>2019-04-19T15:11:28Z</time>
      </trkpt>
      <trkpt lat="44.18571" lon="3.17647">
        <ele>765.8</ele>
        <time>2019-04-19T15:11:27Z</time>
      </trkpt>
      <trkpt lat="44.18571" lon="3.17641">
        <ele>766</ele>
        <time>2019-04-19T15:11:26Z</time>
      </trkpt>
      <trkpt lat="44.18571" lon="3.17634">
        <ele>766.1</ele>
        <time>2019-04-19T15:11:25Z</time>
      </trkpt>
      <trkpt lat="44.18573" lon="3.17627">
        <ele>766.3</ele>
        <time>2019-04-19T15:11:24Z</time>
      </trkpt>
      <trkpt lat="44.18575" lon="3.17622">
        <ele>766.4</ele>
        <time>2019-04-19T15:11:23Z</time>
      </trkpt>
      <trkpt lat="44.18577" lon="3.17617">
        <ele>766.5</ele>
        <time>2019-04-19T15:11:22Z</time>
      </trkpt>
      <trkpt lat="44.18577" lon="3.1761">
        <ele>766.6</ele>
        <time>2019-04-19T15:11:21Z</time>
      </trkpt>
      <trkpt lat="44.18575" lon="3.17604">
        <ele>766.8</ele>
        <time>2019-04-19T15:11:20Z</time>
      </trkpt>
      <trkpt lat="44.18575" lon="3.17596">
        <ele>766.9</ele>
        <time>2019-04-19T15:11:19Z</time>
      </trkpt>
      <trkpt lat="44.18573" lon="3.17592">
        <ele>766.9</ele>
        <time>2019-04-19T15:11:18Z</time>
      </trkpt>
      <trkpt lat="44.18568" lon="3.17589">
        <ele>766.9</ele>
        <time>2019-04-19T15:11:17Z</time>
      </trkpt>
      <trkpt lat="44.18562" lon="3.17586">
        <ele>766.9</ele>
        <time>2019-04-19T15:11:15Z</time>
      </trkpt>
      <trkpt lat="44.18559" lon="3.17586">
        <ele>766.9</ele>
        <time>2019-04-19T15:11:14Z</time>
      </trkpt>
      <trkpt lat="44.18552" lon="3.17586">
        <ele>766.8</ele>
        <time>2019-04-19T15:11:12Z</time>
      </trkpt>
      <trkpt lat="44.18548" lon="3.17588">
        <ele>766.8</ele>
        <time>2019-04-19T15:11:10Z</time>
      </trkpt>
      <trkpt lat="44.18545" lon="3.17581">
        <ele>766.7</ele>
        <time>2019-04-19T15:11:09Z</time>
      </trkpt>
      <trkpt lat="44.18542" lon="3.17574">
        <ele>766.7</ele>
        <time>2019-04-19T15:11:08Z</time>
      </trkpt>
      <trkpt lat="44.18542" lon="3.17569">
        <ele>766.6</ele>
        <time>2019-04-19T15:11:07Z</time>
      </trkpt>
      <trkpt lat="44.18541" lon="3.17559">
        <ele>766.6</ele>
        <time>2019-04-19T15:11:06Z</time>
      </trkpt>
      <trkpt lat="44.18538" lon="3.1755">
        <ele>766.7</ele>
        <time>2019-04-19T15:11:05Z</time>
      </trkpt>
      <trkpt lat="44.18534" lon="3.17538">
        <ele>766.9</ele>
        <time>2019-04-19T15:11:04Z</time>
      </trkpt>
      <trkpt lat="44.18527" lon="3.17533">
        <ele>767.3</ele>
        <time>2019-04-19T15:11:03Z</time>
      </trkpt>
      <trkpt lat="44.1852" lon="3.17528">
        <ele>767.6</ele>
        <time>2019-04-19T15:11:02Z</time>
      </trkpt>
      <trkpt lat="44.18512" lon="3.17524">
        <ele>767.9</ele>
        <time>2019-04-19T15:11:01Z</time>
      </trkpt>
      <trkpt lat="44.18506" lon="3.1752">
        <ele>767.9</ele>
        <time>2019-04-19T15:11:00Z</time>
      </trkpt>
      <trkpt lat="44.18499" lon="3.17518">
        <ele>767.6</ele>
        <time>2019-04-19T15:10:59Z</time>
      </trkpt>
      <trkpt lat="44.18493" lon="3.17517">
        <ele>767.4</ele>
        <time>2019-04-19T15:10:58Z</time>
      </trkpt>
      <trkpt lat="44.18488" lon="3.17516">
        <ele>767.3</ele>
        <time>2019-04-19T15:10:57Z</time>
      </trkpt>
      <trkpt lat="44.18482" lon="3.17515">
        <ele>767.5</ele>
        <time>2019-04-19T15:10:56Z</time>
      </trkpt>
      <trkpt lat="44.18476" lon="3.17512">
        <ele>768</ele>
        <time>2019-04-19T15:10:55Z</time>
      </trkpt>
      <trkpt lat="44.18471" lon="3.17508">
        <ele>768.4</ele>
        <time>2019-04-19T15:10:54Z</time>
      </trkpt>
      <trkpt lat="44.18464" lon="3.17503">
        <ele>769</ele>
        <time>2019-04-19T15:10:53Z</time>
      </trkpt>
      <trkpt lat="44.18462" lon="3.17497">
        <ele>769.4</ele>
        <time>2019-04-19T15:10:52Z</time>
      </trkpt>
      <trkpt lat="44.1846" lon="3.17493">
        <ele>769.7</ele>
        <time>2019-04-19T15:10:51Z</time>
      </trkpt>
      <trkpt lat="44.18459" lon="3.17488">
        <ele>770.1</ele>
        <time>2019-04-19T15:10:50Z</time>
      </trkpt>
      <trkpt lat="44.18458" lon="3.17482">
        <ele>770.4</ele>
        <time>2019-04-19T15:10:49Z</time>
      </trkpt>
      <trkpt lat="44.18458" lon="3.17476">
        <ele>770.7</ele>
        <time>2019-04-19T15:10:48Z</time>
      </trkpt>
      <trkpt lat="44.18457" lon="3.1747">
        <ele>771</ele>
        <time>2019-04-19T15:10:47Z</time>
      </trkpt>
      <trkpt lat="44.18457" lon="3.17465">
        <ele>771.3</ele>
        <time>2019-04-19T15:10:46Z</time>
      </trkpt>
      <trkpt lat="44.18457" lon="3.1746">
        <ele>771.7</ele>
        <time>2019-04-19T15:10:45Z</time>
      </trkpt>
      <trkpt lat="44.18456" lon="3.17454">
        <ele>772.1</ele>
        <time>2019-04-19T15:10:44Z</time>
      </trkpt>
      <trkpt lat="44.18457" lon="3.17449">
        <ele>772.5</ele>
        <time>2019-04-19T15:10:43Z</time>
      </trkpt>
      <trkpt lat="44.18457" lon="3.17443">
        <ele>772.9</ele>
        <time>2019-04-19T15:10:42Z</time>
      </trkpt>
      <trkpt lat="44.18457" lon="3.17439">
        <ele>773.2</ele>
        <time>2019-04-19T15:10:41Z</time>
      </trkpt>
      <trkpt lat="44.18457" lon="3.17434">
        <ele>773.5</ele>
        <time>2019-04-19T15:10:40Z</time>
      </trkpt>
      <trkpt lat="44.18457" lon="3.17429">
        <ele>773.7</ele>
        <time>2019-04-19T15:10:39Z</time>
      </trkpt>
      <trkpt lat="44.18456" lon="3.17424">
        <ele>774</ele>
        <time>2019-04-19T15:10:38Z</time>
      </trkpt>
      <trkpt lat="44.18455" lon="3.17419">
        <ele>774.3</ele>
        <time>2019-04-19T15:10:37Z</time>
      </trkpt>
      <trkpt lat="44.18453" lon="3.17414">
        <ele>774.7</ele>
        <time>2019-04-19T15:10:36Z</time>
      </trkpt>
      <trkpt lat="44.18452" lon="3.17408">
        <ele>775</ele>
        <time>2019-04-19T15:10:35Z</time>
      </trkpt>
      <trkpt lat="44.18451" lon="3.17404">
        <ele>775.1</ele>
        <time>2019-04-19T15:10:34Z</time>
      </trkpt>
      <trkpt lat="44.18451" lon="3.174">
        <ele>775.2</ele>
        <time>2019-04-19T15:10:33Z</time>
      </trkpt>
      <trkpt lat="44.18451" lon="3.17396">
        <ele>775.3</ele>
        <time>2019-04-19T15:10:32Z</time>
      </trkpt>
      <trkpt lat="44.18452" lon="3.17393">
        <ele>775.4</ele>
        <time>2019-04-19T15:10:31Z</time>
      </trkpt>
      <trkpt lat="44.18451" lon="3.17388">
        <ele>775.4</ele>
        <time>2019-04-19T15:10:27Z</time>
      </trkpt>
      <trkpt lat="44.18451" lon="3.17392">
        <ele>775.5</ele>
        <time>2019-04-19T15:10:25Z</time>
      </trkpt>
      <trkpt lat="44.18451" lon="3.17396">
        <ele>775.5</ele>
        <time>2019-04-19T15:10:23Z</time>
      </trkpt>
      <trkpt lat="44.1845" lon="3.17401">
        <ele>775.6</ele>
        <time>2019-04-19T15:10:21Z</time>
      </trkpt>
      <trkpt lat="44.18452" lon="3.17407">
        <ele>775.7</ele>
        <time>2019-04-19T15:10:19Z</time>
      </trkpt>
      <trkpt lat="44.18455" lon="3.17412">
        <ele>775.7</ele>
        <time>2019-04-19T15:10:17Z</time>
      </trkpt>
      <trkpt lat="44.18456" lon="3.17416">
        <ele>775.7</ele>
        <time>2019-04-19T15:10:16Z</time>
      </trkpt>
      <trkpt lat="44.18456" lon="3.1742">
        <ele>775.7</ele>
        <time>2019-04-19T15:10:15Z</time>
      </trkpt>
      <trkpt lat="44.18457" lon="3.17424">
        <ele>775.7</ele>
        <time>2019-04-19T15:10:14Z</time>
      </trkpt>
      <trkpt lat="44.18458" lon="3.17432">
        <ele>775.8</ele>
        <time>2019-04-19T15:10:12Z</time>
      </trkpt>
      <trkpt lat="44.18457" lon="3.17438">
        <ele>775.8</ele>
        <time>2019-04-19T15:10:10Z</time>
      </trkpt>
      <trkpt lat="44.18454" lon="3.17439">
        <ele>775.8</ele>
        <time>2019-04-19T15:10:08Z</time>
      </trkpt>
      <trkpt lat="44.1845" lon="3.17438">
        <ele>775.9</ele>
        <time>2019-04-19T15:10:03Z</time>
      </trkpt>
      <trkpt lat="44.18447" lon="3.17437">
        <ele>775.9</ele>
        <time>2019-04-19T15:10:01Z</time>
      </trkpt>
      <trkpt lat="44.18445" lon="3.1744">
        <ele>775.9</ele>
        <time>2019-04-19T15:09:57Z</time>
      </trkpt>
      <trkpt lat="44.18443" lon="3.17442">
        <ele>776</ele>
        <time>2019-04-19T15:09:50Z</time>
      </trkpt>
      <trkpt lat="44.18445" lon="3.17439">
        <ele>776.1</ele>
        <time>2019-04-19T15:09:40Z</time>
      </trkpt>
      <trkpt lat="44.18442" lon="3.17439">
        <ele>776.3</ele>
        <time>2019-04-19T15:09:37Z</time>
      </trkpt>
      <trkpt lat="44.1844" lon="3.17435">
        <ele>776.5</ele>
        <time>2019-04-19T15:09:35Z</time>
      </trkpt>
      <trkpt lat="44.18437" lon="3.17432">
        <ele>776.7</ele>
        <time>2019-04-19T15:09:33Z</time>
      </trkpt>
      <trkpt lat="44.18434" lon="3.17432">
        <ele>776.9</ele>
        <time>2019-04-19T15:09:32Z</time>
      </trkpt>
      <trkpt lat="44.18431" lon="3.17433">
        <ele>777.1</ele>
        <time>2019-04-19T15:09:31Z</time>
      </trkpt>
      <trkpt lat="44.18428" lon="3.17435">
        <ele>777.2</ele>
        <time>2019-04-19T15:09:30Z</time>
      </trkpt>
      <trkpt lat="44.18425" lon="3.17437">
        <ele>777.3</ele>
        <time>2019-04-19T15:09:29Z</time>
      </trkpt>
      <trkpt lat="44.18423" lon="3.17438">
        <ele>777.5</ele>
        <time>2019-04-19T15:09:28Z</time>
      </trkpt>
      <trkpt lat="44.1842" lon="3.17439">
        <ele>777.7</ele>
        <time>2019-04-19T15:09:27Z</time>
      </trkpt>
      <trkpt lat="44.18415" lon="3.17437">
        <ele>778.2</ele>
        <time>2019-04-19T15:09:25Z</time>
      </trkpt>
      <trkpt lat="44.18413" lon="3.17432">
        <ele>778.6</ele>
        <time>2019-04-19T15:09:22Z</time>
      </trkpt>
      <trkpt lat="44.18411" lon="3.17424">
        <ele>779</ele>
        <time>2019-04-19T15:08:52Z</time>
      </trkpt>
      <trkpt lat="44.18409" lon="3.17421">
        <ele>779.2</ele>
        <time>2019-04-19T15:08:50Z</time>
      </trkpt>
      <trkpt lat="44.18406" lon="3.17417">
        <ele>779.5</ele>
        <time>2019-04-19T15:08:48Z</time>
      </trkpt>
      <trkpt lat="44.18403" lon="3.17414">
        <ele>779.8</ele>
        <time>2019-04-19T15:08:46Z</time>
      </trkpt>
      <trkpt lat="44.18399" lon="3.17412">
        <ele>780.1</ele>
        <time>2019-04-19T15:08:44Z</time>
      </trkpt>
      <trkpt lat="44.18396" lon="3.17408">
        <ele>780.5</ele>
        <time>2019-04-19T15:08:42Z</time>
      </trkpt>
      <trkpt lat="44.18395" lon="3.17403">
        <ele>780.8</ele>
        <time>2019-04-19T15:08:40Z</time>
      </trkpt>
      <trkpt lat="44.18394" lon="3.17397">
        <ele>781.1</ele>
        <time>2019-04-19T15:08:38Z</time>
      </trkpt>
      <trkpt lat="44.18392" lon="3.17391">
        <ele>781.2</ele>
        <time>2019-04-19T15:08:36Z</time>
      </trkpt>
      <trkpt lat="44.1839" lon="3.17386">
        <ele>781.2</ele>
        <time>2019-04-19T15:08:34Z</time>
      </trkpt>
      <trkpt lat="44.18389" lon="3.17382">
        <ele>781.3</ele>
        <time>2019-04-19T15:08:32Z</time>
      </trkpt>
      <trkpt lat="44.1839" lon="3.17378">
        <ele>781.3</ele>
        <time>2019-04-19T15:08:14Z</time>
      </trkpt>
      <trkpt lat="44.18387" lon="3.17376">
        <ele>781.3</ele>
        <time>2019-04-19T15:08:12Z</time>
      </trkpt>
      <trkpt lat="44.18385" lon="3.17379">
        <ele>781.2</ele>
        <time>2019-04-19T15:07:41Z</time>
      </trkpt>
      <trkpt lat="44.18383" lon="3.17375">
        <ele>781.1</ele>
        <time>2019-04-19T15:07:37Z</time>
      </trkpt>
      <trkpt lat="44.18383" lon="3.17371">
        <ele>780.9</ele>
        <time>2019-04-19T15:05:44Z</time>
      </trkpt>
      <trkpt lat="44.18382" lon="3.17367">
        <ele>780.8</ele>
        <time>2019-04-19T15:05:42Z</time>
      </trkpt>
      <trkpt lat="44.18382" lon="3.17362">
        <ele>780.6</ele>
        <time>2019-04-19T15:05:41Z</time>
      </trkpt>
      <trkpt lat="44.18383" lon="3.17357">
        <ele>780.4</ele>
        <time>2019-04-19T15:05:40Z</time>
      </trkpt>
      <trkpt lat="44.18383" lon="3.17352">
        <ele>780.2</ele>
        <time>2019-04-19T15:05:39Z</time>
      </trkpt>
      <trkpt lat="44.18384" lon="3.17346">
        <ele>780</ele>
        <time>2019-04-19T15:05:38Z</time>
      </trkpt>
      <trkpt lat="44.18384" lon="3.1734">
        <ele>779.7</ele>
        <time>2019-04-19T15:05:37Z</time>
      </trkpt>
      <trkpt lat="44.18385" lon="3.17335">
        <ele>779.5</ele>
        <time>2019-04-19T15:05:36Z</time>
      </trkpt>
      <trkpt lat="44.18386" lon="3.17329">
        <ele>779.3</ele>
        <time>2019-04-19T15:05:35Z</time>
      </trkpt>
      <trkpt lat="44.18387" lon="3.17324">
        <ele>779.1</ele>
        <time>2019-04-19T15:05:34Z</time>
      </trkpt>
      <trkpt lat="44.18388" lon="3.17319">
        <ele>779</ele>
        <time>2019-04-19T15:05:33Z</time>
      </trkpt>
      <trkpt lat="44.18389" lon="3.17312">
        <ele>778.7</ele>
        <time>2019-04-19T15:05:32Z</time>
      </trkpt>
      <trkpt lat="44.1839" lon="3.17306">
        <ele>778.5</ele>
        <time>2019-04-19T15:05:31Z</time>
      </trkpt>
      <trkpt lat="44.1839" lon="3.17302">
        <ele>778.4</ele>
        <time>2019-04-19T15:05:30Z</time>
      </trkpt>
      <trkpt lat="44.18391" lon="3.17296">
        <ele>778.2</ele>
        <time>2019-04-19T15:05:29Z</time>
      </trkpt>
      <trkpt lat="44.18392" lon="3.17291">
        <ele>778</ele>
        <time>2019-04-19T15:05:28Z</time>
      </trkpt>
      <trkpt lat="44.18393" lon="3.17287">
        <ele>777.9</ele>
        <time>2019-04-19T15:05:27Z</time>
      </trkpt>
      <trkpt lat="44.18395" lon="3.17282">
        <ele>777.7</ele>
        <time>2019-04-19T15:05:26Z</time>
      </trkpt>
      <trkpt lat="44.18395" lon="3.17274">
        <ele>777.6</ele>
        <time>2019-04-19T15:05:25Z</time>
      </trkpt>
      <trkpt lat="44.18395" lon="3.17267">
        <ele>777.5</ele>
        <time>2019-04-19T15:05:24Z</time>
      </trkpt>
      <trkpt lat="44.18397" lon="3.17263">
        <ele>777.4</ele>
        <time>2019-04-19T15:05:23Z</time>
      </trkpt>
      <trkpt lat="44.18397" lon="3.17256">
        <ele>777.4</ele>
        <time>2019-04-19T15:05:22Z</time>
      </trkpt>
      <trkpt lat="44.18398" lon="3.17249">
        <ele>777.4</ele>
        <time>2019-04-19T15:05:21Z</time>
      </trkpt>
      <trkpt lat="44.184" lon="3.17243">
        <ele>777.5</ele>
        <time>2019-04-19T15:05:20Z</time>
      </trkpt>
      <trkpt lat="44.18402" lon="3.17235">
        <ele>777.5</ele>
        <time>2019-04-19T15:05:19Z</time>
      </trkpt>
      <trkpt lat="44.18404" lon="3.17228">
        <ele>777.5</ele>
        <time>2019-04-19T15:05:18Z</time>
      </trkpt>
      <trkpt lat="44.18406" lon="3.17221">
        <ele>777.5</ele>
        <time>2019-04-19T15:05:17Z</time>
      </trkpt>
      <trkpt lat="44.18407" lon="3.17214">
        <ele>777.6</ele>
        <time>2019-04-19T15:05:16Z</time>
      </trkpt>
      <trkpt lat="44.18408" lon="3.17207">
        <ele>777.6</ele>
        <time>2019-04-19T15:05:15Z</time>
      </trkpt>
      <trkpt lat="44.18411" lon="3.172">
        <ele>777.6</ele>
        <time>2019-04-19T15:05:14Z</time>
      </trkpt>
      <trkpt lat="44.18413" lon="3.17195">
        <ele>777.7</ele>
        <time>2019-04-19T15:05:13Z</time>
      </trkpt>
      <trkpt lat="44.18412" lon="3.1719">
        <ele>777.7</ele>
        <time>2019-04-19T15:05:12Z</time>
      </trkpt>
      <trkpt lat="44.18412" lon="3.17181">
        <ele>777.7</ele>
        <time>2019-04-19T15:05:11Z</time>
      </trkpt>
      <trkpt lat="44.18413" lon="3.17175">
        <ele>777.8</ele>
        <time>2019-04-19T15:05:10Z</time>
      </trkpt>
      <trkpt lat="44.18414" lon="3.17169">
        <ele>777.8</ele>
        <time>2019-04-19T15:05:09Z</time>
      </trkpt>
      <trkpt lat="44.18415" lon="3.17162">
        <ele>777.8</ele>
        <time>2019-04-19T15:05:08Z</time>
      </trkpt>
      <trkpt lat="44.18418" lon="3.17158">
        <ele>777.8</ele>
        <time>2019-04-19T15:05:07Z</time>
      </trkpt>
      <trkpt lat="44.18421" lon="3.17154">
        <ele>777.8</ele>
        <time>2019-04-19T15:05:06Z</time>
      </trkpt>
      <trkpt lat="44.18423" lon="3.17149">
        <ele>777.8</ele>
        <time>2019-04-19T15:05:05Z</time>
      </trkpt>
      <trkpt lat="44.18425" lon="3.17146">
        <ele>777.8</ele>
        <time>2019-04-19T15:05:04Z</time>
      </trkpt>
      <trkpt lat="44.18428" lon="3.17144">
        <ele>777.8</ele>
        <time>2019-04-19T15:05:03Z</time>
      </trkpt>
      <trkpt lat="44.18431" lon="3.17142">
        <ele>777.8</ele>
        <time>2019-04-19T15:05:02Z</time>
      </trkpt>
      <trkpt lat="44.18435" lon="3.17141">
        <ele>777.8</ele>
        <time>2019-04-19T15:05:01Z</time>
      </trkpt>
      <trkpt lat="44.18439" lon="3.1714">
        <ele>777.9</ele>
        <time>2019-04-19T15:05:00Z</time>
      </trkpt>
      <trkpt lat="44.18442" lon="3.17139">
        <ele>777.9</ele>
        <time>2019-04-19T15:04:59Z</time>
      </trkpt>
      <trkpt lat="44.18446" lon="3.17138">
        <ele>777.9</ele>
        <time>2019-04-19T15:04:58Z</time>
      </trkpt>
      <trkpt lat="44.18452" lon="3.17135">
        <ele>778</ele>
        <time>2019-04-19T15:04:57Z</time>
      </trkpt>
      <trkpt lat="44.18456" lon="3.17133">
        <ele>778</ele>
        <time>2019-04-19T15:04:56Z</time>
      </trkpt>
      <trkpt lat="44.18459" lon="3.17126">
        <ele>778.1</ele>
        <time>2019-04-19T15:04:55Z</time>
      </trkpt>
      <trkpt lat="44.18464" lon="3.17123">
        <ele>778.3</ele>
        <time>2019-04-19T15:04:54Z</time>
      </trkpt>
      <trkpt lat="44.18468" lon="3.17119">
        <ele>778.3</ele>
        <time>2019-04-19T15:04:53Z</time>
      </trkpt>
      <trkpt lat="44.18472" lon="3.17116">
        <ele>778.4</ele>
        <time>2019-04-19T15:04:52Z</time>
      </trkpt>
      <trkpt lat="44.18475" lon="3.17111">
        <ele>778.5</ele>
        <time>2019-04-19T15:04:51Z</time>
      </trkpt>
      <trkpt lat="44.18478" lon="3.17105">
        <ele>778.6</ele>
        <time>2019-04-19T15:04:50Z</time>
      </trkpt>
      <trkpt lat="44.18482" lon="3.17102">
        <ele>778.7</ele>
        <time>2019-04-19T15:04:49Z</time>
      </trkpt>
      <trkpt lat="44.18485" lon="3.17096">
        <ele>778.8</ele>
        <time>2019-04-19T15:04:48Z</time>
      </trkpt>
      <trkpt lat="44.18487" lon="3.17091">
        <ele>778.8</ele>
        <time>2019-04-19T15:04:47Z</time>
      </trkpt>
      <trkpt lat="44.18492" lon="3.17087">
        <ele>778.8</ele>
        <time>2019-04-19T15:04:46Z</time>
      </trkpt>
      <trkpt lat="44.18496" lon="3.17085">
        <ele>778.8</ele>
        <time>2019-04-19T15:04:45Z</time>
      </trkpt>
      <trkpt lat="44.185" lon="3.17081">
        <ele>778.8</ele>
        <time>2019-04-19T15:04:44Z</time>
      </trkpt>
      <trkpt lat="44.18505" lon="3.17081">
        <ele>778.7</ele>
        <time>2019-04-19T15:04:43Z</time>
      </trkpt>
      <trkpt lat="44.18509" lon="3.17081">
        <ele>778.6</ele>
        <time>2019-04-19T15:04:42Z</time>
      </trkpt>
      <trkpt lat="44.18512" lon="3.17077">
        <ele>778.5</ele>
        <time>2019-04-19T15:04:41Z</time>
      </trkpt>
      <trkpt lat="44.18518" lon="3.17077">
        <ele>778.4</ele>
        <time>2019-04-19T15:04:40Z</time>
      </trkpt>
      <trkpt lat="44.18523" lon="3.17076">
        <ele>778.2</ele>
        <time>2019-04-19T15:04:39Z</time>
      </trkpt>
      <trkpt lat="44.18528" lon="3.17074">
        <ele>778.1</ele>
        <time>2019-04-19T15:04:38Z</time>
      </trkpt>
      <trkpt lat="44.18533" lon="3.17073">
        <ele>777.9</ele>
        <time>2019-04-19T15:04:37Z</time>
      </trkpt>
      <trkpt lat="44.18538" lon="3.17072">
        <ele>777.8</ele>
        <time>2019-04-19T15:04:36Z</time>
      </trkpt>
      <trkpt lat="44.18543" lon="3.17071">
        <ele>777.6</ele>
        <time>2019-04-19T15:04:35Z</time>
      </trkpt>
      <trkpt lat="44.18547" lon="3.17071">
        <ele>777.4</ele>
        <time>2019-04-19T15:04:34Z</time>
      </trkpt>
      <trkpt lat="44.18555" lon="3.17068">
        <ele>777.3</ele>
        <time>2019-04-19T15:04:33Z</time>
      </trkpt>
      <trkpt lat="44.18559" lon="3.17068">
        <ele>777.2</ele>
        <time>2019-04-19T15:04:32Z</time>
      </trkpt>
      <trkpt lat="44.18564" lon="3.17068">
        <ele>777.1</ele>
        <time>2019-04-19T15:04:31Z</time>
      </trkpt>
      <trkpt lat="44.18569" lon="3.17068">
        <ele>777</ele>
        <time>2019-04-19T15:04:30Z</time>
      </trkpt>
      <trkpt lat="44.18573" lon="3.17069">
        <ele>776.9</ele>
        <time>2019-04-19T15:04:29Z</time>
      </trkpt>
      <trkpt lat="44.18576" lon="3.1707">
        <ele>776.8</ele>
        <time>2019-04-19T15:04:28Z</time>
      </trkpt>
      <trkpt lat="44.1858" lon="3.17071">
        <ele>776.7</ele>
        <time>2019-04-19T15:04:27Z</time>
      </trkpt>
      <trkpt lat="44.18584" lon="3.17072">
        <ele>776.6</ele>
        <time>2019-04-19T15:04:26Z</time>
      </trkpt>
      <trkpt lat="44.18588" lon="3.17073">
        <ele>776.6</ele>
        <time>2019-04-19T15:04:25Z</time>
      </trkpt>
      <trkpt lat="44.18592" lon="3.17074">
        <ele>776.5</ele>
        <time>2019-04-19T15:04:24Z</time>
      </trkpt>
      <trkpt lat="44.18595" lon="3.17075">
        <ele>776.4</ele>
        <time>2019-04-19T15:04:23Z</time>
      </trkpt>
      <trkpt lat="44.18598" lon="3.17076">
        <ele>776.3</ele>
        <time>2019-04-19T15:04:22Z</time>
      </trkpt>
      <trkpt lat="44.18602" lon="3.17077">
        <ele>776.3</ele>
        <time>2019-04-19T15:04:21Z</time>
      </trkpt>
      <trkpt lat="44.18605" lon="3.17078">
        <ele>776.2</ele>
        <time>2019-04-19T15:04:20Z</time>
      </trkpt>
      <trkpt lat="44.18609" lon="3.17079">
        <ele>776.1</ele>
        <time>2019-04-19T15:04:18Z</time>
      </trkpt>
      <trkpt lat="44.18614" lon="3.17079">
        <ele>776</ele>
        <time>2019-04-19T15:04:16Z</time>
      </trkpt>
      <trkpt lat="44.18619" lon="3.1708">
        <ele>775.8</ele>
        <time>2019-04-19T15:04:14Z</time>
      </trkpt>
      <trkpt lat="44.18623" lon="3.1708">
        <ele>775.7</ele>
        <time>2019-04-19T15:04:12Z</time>
      </trkpt>
      <trkpt lat="44.18628" lon="3.1708">
        <ele>775.6</ele>
        <time>2019-04-19T15:04:10Z</time>
      </trkpt>
      <trkpt lat="44.18633" lon="3.1708">
        <ele>775.6</ele>
        <time>2019-04-19T15:04:08Z</time>
      </trkpt>
      <trkpt lat="44.18636" lon="3.17079">
        <ele>775.5</ele>
        <time>2019-04-19T15:04:07Z</time>
      </trkpt>
      <trkpt lat="44.18639" lon="3.17079">
        <ele>775.5</ele>
        <time>2019-04-19T15:04:06Z</time>
      </trkpt>
      <trkpt lat="44.18642" lon="3.17079">
        <ele>775.4</ele>
        <time>2019-04-19T15:04:05Z</time>
      </trkpt>
      <trkpt lat="44.18644" lon="3.17079">
        <ele>775.3</ele>
        <time>2019-04-19T15:04:04Z</time>
      </trkpt>
      <trkpt lat="44.18647" lon="3.17078">
        <ele>775.3</ele>
        <time>2019-04-19T15:04:03Z</time>
      </trkpt>
      <trkpt lat="44.18651" lon="3.17078">
        <ele>775.2</ele>
        <time>2019-04-19T15:04:02Z</time>
      </trkpt>
      <trkpt lat="44.18654" lon="3.17078">
        <ele>775.2</ele>
        <time>2019-04-19T15:04:01Z</time>
      </trkpt>
      <trkpt lat="44.18658" lon="3.17076">
        <ele>775.1</ele>
        <time>2019-04-19T15:03:59Z</time>
      </trkpt>
      <trkpt lat="44.1866" lon="3.17073">
        <ele>775.1</ele>
        <time>2019-04-19T15:03:58Z</time>
      </trkpt>
      <trkpt lat="44.18661" lon="3.17069">
        <ele>775</ele>
        <time>2019-04-19T15:03:57Z</time>
      </trkpt>
      <trkpt lat="44.18663" lon="3.17066">
        <ele>775</ele>
        <time>2019-04-19T15:03:56Z</time>
      </trkpt>
      <trkpt lat="44.18666" lon="3.17061">
        <ele>774.9</ele>
        <time>2019-04-19T15:03:54Z</time>
      </trkpt>
      <trkpt lat="44.1867" lon="3.17057">
        <ele>774.8</ele>
        <time>2019-04-19T15:03:52Z</time>
      </trkpt>
      <trkpt lat="44.18672" lon="3.17052">
        <ele>774.8</ele>
        <time>2019-04-19T15:03:50Z</time>
      </trkpt>
      <trkpt lat="44.18675" lon="3.17047">
        <ele>774.7</ele>
        <time>2019-04-19T15:03:48Z</time>
      </trkpt>
      <trkpt lat="44.18676" lon="3.1704">
        <ele>774.6</ele>
        <time>2019-04-19T15:03:46Z</time>
      </trkpt>
      <trkpt lat="44.18677" lon="3.17035">
        <ele>774.5</ele>
        <time>2019-04-19T15:03:44Z</time>
      </trkpt>
      <trkpt lat="44.18677" lon="3.17031">
        <ele>774.5</ele>
        <time>2019-04-19T15:03:43Z</time>
      </trkpt>
      <trkpt lat="44.18679" lon="3.17024">
        <ele>774.4</ele>
        <time>2019-04-19T15:03:41Z</time>
      </trkpt>
      <trkpt lat="44.1868" lon="3.17021">
        <ele>774.3</ele>
        <time>2019-04-19T15:03:40Z</time>
      </trkpt>
      <trkpt lat="44.18682" lon="3.17015">
        <ele>774.2</ele>
        <time>2019-04-19T15:03:39Z</time>
      </trkpt>
      <trkpt lat="44.18682" lon="3.1701">
        <ele>774.1</ele>
        <time>2019-04-19T15:03:38Z</time>
      </trkpt>
      <trkpt lat="44.1868" lon="3.16997">
        <ele>774.1</ele>
        <time>2019-04-19T15:03:37Z</time>
      </trkpt>
      <trkpt lat="44.18679" lon="3.16991">
        <ele>774</ele>
        <time>2019-04-19T15:03:36Z</time>
      </trkpt>
      <trkpt lat="44.18677" lon="3.16985">
        <ele>773.9</ele>
        <time>2019-04-19T15:03:35Z</time>
      </trkpt>
      <trkpt lat="44.18675" lon="3.16979">
        <ele>773.9</ele>
        <time>2019-04-19T15:03:34Z</time>
      </trkpt>
      <trkpt lat="44.18674" lon="3.16973">
        <ele>773.8</ele>
        <time>2019-04-19T15:03:33Z</time>
      </trkpt>
      <trkpt lat="44.18673" lon="3.16968">
        <ele>773.8</ele>
        <time>2019-04-19T15:03:32Z</time>
      </trkpt>
      <trkpt lat="44.18672" lon="3.16964">
        <ele>773.7</ele>
        <time>2019-04-19T15:03:31Z</time>
      </trkpt>
      <trkpt lat="44.1867" lon="3.16959">
        <ele>773.7</ele>
        <time>2019-04-19T15:03:30Z</time>
      </trkpt>
      <trkpt lat="44.18669" lon="3.16955">
        <ele>773.6</ele>
        <time>2019-04-19T15:03:29Z</time>
      </trkpt>
      <trkpt lat="44.18667" lon="3.16947">
        <ele>773.4</ele>
        <time>2019-04-19T15:03:27Z</time>
      </trkpt>
      <trkpt lat="44.18666" lon="3.16943">
        <ele>773.3</ele>
        <time>2019-04-19T15:03:26Z</time>
      </trkpt>
      <trkpt lat="44.18664" lon="3.16939">
        <ele>773.1</ele>
        <time>2019-04-19T15:03:25Z</time>
      </trkpt>
      <trkpt lat="44.18663" lon="3.16935">
        <ele>773</ele>
        <time>2019-04-19T15:03:24Z</time>
      </trkpt>
      <trkpt lat="44.18663" lon="3.16932">
        <ele>772.8</ele>
        <time>2019-04-19T15:03:23Z</time>
      </trkpt>
      <trkpt lat="44.18664" lon="3.16926">
        <ele>772.6</ele>
        <time>2019-04-19T15:03:21Z</time>
      </trkpt>
      <trkpt lat="44.18664" lon="3.16921">
        <ele>772.5</ele>
        <time>2019-04-19T15:03:19Z</time>
      </trkpt>
      <trkpt lat="44.18665" lon="3.16916">
        <ele>772.3</ele>
        <time>2019-04-19T15:03:17Z</time>
      </trkpt>
      <trkpt lat="44.18668" lon="3.16911">
        <ele>772.1</ele>
        <time>2019-04-19T15:03:15Z</time>
      </trkpt>
      <trkpt lat="44.18672" lon="3.16907">
        <ele>771.9</ele>
        <time>2019-04-19T15:03:13Z</time>
      </trkpt>
      <trkpt lat="44.18675" lon="3.16904">
        <ele>771.7</ele>
        <time>2019-04-19T15:03:10Z</time>
      </trkpt>
      <trkpt lat="44.18676" lon="3.169">
        <ele>771.5</ele>
        <time>2019-04-19T15:03:07Z</time>
      </trkpt>
      <trkpt lat="44.18677" lon="3.16895">
        <ele>771.3</ele>
        <time>2019-04-19T15:03:05Z</time>
      </trkpt>
      <trkpt lat="44.18678" lon="3.16891">
        <ele>771.3</ele>
        <time>2019-04-19T15:03:03Z</time>
      </trkpt>
      <trkpt lat="44.18678" lon="3.16885">
        <ele>771.3</ele>
        <time>2019-04-19T15:03:01Z</time>
      </trkpt>
      <trkpt lat="44.18679" lon="3.16881">
        <ele>771</ele>
        <time>2019-04-19T15:03:00Z</time>
      </trkpt>
      <trkpt lat="44.18679" lon="3.16873">
        <ele>770.6</ele>
        <time>2019-04-19T15:02:58Z</time>
      </trkpt>
      <trkpt lat="44.18679" lon="3.16868">
        <ele>770.3</ele>
        <time>2019-04-19T15:02:56Z</time>
      </trkpt>
      <trkpt lat="44.18679" lon="3.16862">
        <ele>769.8</ele>
        <time>2019-04-19T15:02:54Z</time>
      </trkpt>
      <trkpt lat="44.18681" lon="3.16858">
        <ele>769.4</ele>
        <time>2019-04-19T15:02:52Z</time>
      </trkpt>
      <trkpt lat="44.18682" lon="3.16853">
        <ele>769</ele>
        <time>2019-04-19T15:02:50Z</time>
      </trkpt>
      <trkpt lat="44.1868" lon="3.16847">
        <ele>768.6</ele>
        <time>2019-04-19T15:02:48Z</time>
      </trkpt>
      <trkpt lat="44.18677" lon="3.16844">
        <ele>768.2</ele>
        <time>2019-04-19T15:02:47Z</time>
      </trkpt>
      <trkpt lat="44.18674" lon="3.1684">
        <ele>767.8</ele>
        <time>2019-04-19T15:02:46Z</time>
      </trkpt>
      <trkpt lat="44.18671" lon="3.16835">
        <ele>767.6</ele>
        <time>2019-04-19T15:02:44Z</time>
      </trkpt>
      <trkpt lat="44.18669" lon="3.1683">
        <ele>767.5</ele>
        <time>2019-04-19T15:02:42Z</time>
      </trkpt>
      <trkpt lat="44.18667" lon="3.16824">
        <ele>767.4</ele>
        <time>2019-04-19T15:02:40Z</time>
      </trkpt>
      <trkpt lat="44.18667" lon="3.16818">
        <ele>767.4</ele>
        <time>2019-04-19T15:02:38Z</time>
      </trkpt>
      <trkpt lat="44.18667" lon="3.16814">
        <ele>767.3</ele>
        <time>2019-04-19T15:02:37Z</time>
      </trkpt>
      <trkpt lat="44.18667" lon="3.16806">
        <ele>766.8</ele>
        <time>2019-04-19T15:02:35Z</time>
      </trkpt>
      <trkpt lat="44.18666" lon="3.16802">
        <ele>766.5</ele>
        <time>2019-04-19T15:02:34Z</time>
      </trkpt>
      <trkpt lat="44.18665" lon="3.16795">
        <ele>766</ele>
        <time>2019-04-19T15:02:32Z</time>
      </trkpt>
      <trkpt lat="44.18663" lon="3.16789">
        <ele>765.8</ele>
        <time>2019-04-19T15:02:30Z</time>
      </trkpt>
      <trkpt lat="44.18661" lon="3.16784">
        <ele>765.6</ele>
        <time>2019-04-19T15:02:28Z</time>
      </trkpt>
      <trkpt lat="44.18658" lon="3.16779">
        <ele>765.3</ele>
        <time>2019-04-19T15:02:26Z</time>
      </trkpt>
      <trkpt lat="44.18656" lon="3.16776">
        <ele>765.2</ele>
        <time>2019-04-19T15:02:25Z</time>
      </trkpt>
      <trkpt lat="44.18654" lon="3.16773">
        <ele>765.1</ele>
        <time>2019-04-19T15:02:24Z</time>
      </trkpt>
      <trkpt lat="44.18652" lon="3.16769">
        <ele>764.9</ele>
        <time>2019-04-19T15:02:23Z</time>
      </trkpt>
      <trkpt lat="44.1865" lon="3.16765">
        <ele>764.8</ele>
        <time>2019-04-19T15:02:22Z</time>
      </trkpt>
      <trkpt lat="44.18649" lon="3.16761">
        <ele>764.7</ele>
        <time>2019-04-19T15:02:21Z</time>
      </trkpt>
      <trkpt lat="44.18648" lon="3.16757">
        <ele>764.5</ele>
        <time>2019-04-19T15:02:20Z</time>
      </trkpt>
      <trkpt lat="44.18648" lon="3.16753">
        <ele>764.3</ele>
        <time>2019-04-19T15:02:19Z</time>
      </trkpt>
      <trkpt lat="44.18645" lon="3.16746">
        <ele>764</ele>
        <time>2019-04-19T15:02:17Z</time>
      </trkpt>
      <trkpt lat="44.18641" lon="3.16741">
        <ele>763.9</ele>
        <time>2019-04-19T15:02:15Z</time>
      </trkpt>
      <trkpt lat="44.18639" lon="3.16734">
        <ele>763.9</ele>
        <time>2019-04-19T15:02:14Z</time>
      </trkpt>
      <trkpt lat="44.18637" lon="3.16728">
        <ele>764</ele>
        <time>2019-04-19T15:02:13Z</time>
      </trkpt>
      <trkpt lat="44.18633" lon="3.16722">
        <ele>763.7</ele>
        <time>2019-04-19T15:02:12Z</time>
      </trkpt>
      <trkpt lat="44.18631" lon="3.16715">
        <ele>763.5</ele>
        <time>2019-04-19T15:02:11Z</time>
      </trkpt>
      <trkpt lat="44.18627" lon="3.1671">
        <ele>763.4</ele>
        <time>2019-04-19T15:02:10Z</time>
      </trkpt>
      <trkpt lat="44.18627" lon="3.16703">
        <ele>763.3</ele>
        <time>2019-04-19T15:02:09Z</time>
      </trkpt>
      <trkpt lat="44.18624" lon="3.16694">
        <ele>763</ele>
        <time>2019-04-19T15:02:08Z</time>
      </trkpt>
      <trkpt lat="44.18622" lon="3.16686">
        <ele>762.5</ele>
        <time>2019-04-19T15:02:07Z</time>
      </trkpt>
      <trkpt lat="44.18623" lon="3.16677">
        <ele>762</ele>
        <time>2019-04-19T15:02:06Z</time>
      </trkpt>
      <trkpt lat="44.18621" lon="3.1667">
        <ele>761.5</ele>
        <time>2019-04-19T15:02:05Z</time>
      </trkpt>
      <trkpt lat="44.18618" lon="3.16663">
        <ele>761</ele>
        <time>2019-04-19T15:02:04Z</time>
      </trkpt>
      <trkpt lat="44.18615" lon="3.16657">
        <ele>760.8</ele>
        <time>2019-04-19T15:02:03Z</time>
      </trkpt>
      <trkpt lat="44.18613" lon="3.1665">
        <ele>760.9</ele>
        <time>2019-04-19T15:02:02Z</time>
      </trkpt>
      <trkpt lat="44.18608" lon="3.16646">
        <ele>760.9</ele>
        <time>2019-04-19T15:02:01Z</time>
      </trkpt>
      <trkpt lat="44.18604" lon="3.1664">
        <ele>760.9</ele>
        <time>2019-04-19T15:02:00Z</time>
      </trkpt>
      <trkpt lat="44.18601" lon="3.16636">
        <ele>760.9</ele>
        <time>2019-04-19T15:01:59Z</time>
      </trkpt>
      <trkpt lat="44.18596" lon="3.1663">
        <ele>761.1</ele>
        <time>2019-04-19T15:01:58Z</time>
      </trkpt>
      <trkpt lat="44.1859" lon="3.16626">
        <ele>761.3</ele>
        <time>2019-04-19T15:01:57Z</time>
      </trkpt>
      <trkpt lat="44.18586" lon="3.16623">
        <ele>761.5</ele>
        <time>2019-04-19T15:01:56Z</time>
      </trkpt>
      <trkpt lat="44.18582" lon="3.1662">
        <ele>761.6</ele>
        <time>2019-04-19T15:01:55Z</time>
      </trkpt>
      <trkpt lat="44.18576" lon="3.16619">
        <ele>761.9</ele>
        <time>2019-04-19T15:01:54Z</time>
      </trkpt>
      <trkpt lat="44.18571" lon="3.16616">
        <ele>762.3</ele>
        <time>2019-04-19T15:01:53Z</time>
      </trkpt>
      <trkpt lat="44.18566" lon="3.16614">
        <ele>762.7</ele>
        <time>2019-04-19T15:01:52Z</time>
      </trkpt>
      <trkpt lat="44.18557" lon="3.16612">
        <ele>763.1</ele>
        <time>2019-04-19T15:01:51Z</time>
      </trkpt>
      <trkpt lat="44.18553" lon="3.16609">
        <ele>763.3</ele>
        <time>2019-04-19T15:01:50Z</time>
      </trkpt>
      <trkpt lat="44.18549" lon="3.16606">
        <ele>763.5</ele>
        <time>2019-04-19T15:01:49Z</time>
      </trkpt>
      <trkpt lat="44.18546" lon="3.16604">
        <ele>763.7</ele>
        <time>2019-04-19T15:01:48Z</time>
      </trkpt>
      <trkpt lat="44.18544" lon="3.16603">
        <ele>763.8</ele>
        <time>2019-04-19T15:01:47Z</time>
      </trkpt>
      <trkpt lat="44.1854" lon="3.16602">
        <ele>763.9</ele>
        <time>2019-04-19T15:01:46Z</time>
      </trkpt>
      <trkpt lat="44.18537" lon="3.16602">
        <ele>764</ele>
        <time>2019-04-19T15:01:45Z</time>
      </trkpt>
      <trkpt lat="44.18533" lon="3.16602">
        <ele>764.2</ele>
        <time>2019-04-19T15:01:44Z</time>
      </trkpt>
      <trkpt lat="44.18529" lon="3.16602">
        <ele>764.3</ele>
        <time>2019-04-19T15:01:43Z</time>
      </trkpt>
      <trkpt lat="44.18523" lon="3.16604">
        <ele>764.7</ele>
        <time>2019-04-19T15:01:42Z</time>
      </trkpt>
      <trkpt lat="44.1852" lon="3.16602">
        <ele>764.8</ele>
        <time>2019-04-19T15:01:41Z</time>
      </trkpt>
      <trkpt lat="44.18516" lon="3.16599">
        <ele>765</ele>
        <time>2019-04-19T15:01:40Z</time>
      </trkpt>
      <trkpt lat="44.18512" lon="3.16595">
        <ele>765</ele>
        <time>2019-04-19T15:01:39Z</time>
      </trkpt>
      <trkpt lat="44.1851" lon="3.16591">
        <ele>765.1</ele>
        <time>2019-04-19T15:01:38Z</time>
      </trkpt>
      <trkpt lat="44.18506" lon="3.16588">
        <ele>765.1</ele>
        <time>2019-04-19T15:01:37Z</time>
      </trkpt>
      <trkpt lat="44.18502" lon="3.16584">
        <ele>765.2</ele>
        <time>2019-04-19T15:01:36Z</time>
      </trkpt>
      <trkpt lat="44.18498" lon="3.16582">
        <ele>765.3</ele>
        <time>2019-04-19T15:01:35Z</time>
      </trkpt>
      <trkpt lat="44.18495" lon="3.16579">
        <ele>765.4</ele>
        <time>2019-04-19T15:01:34Z</time>
      </trkpt>
      <trkpt lat="44.18491" lon="3.16577">
        <ele>765.6</ele>
        <time>2019-04-19T15:01:33Z</time>
      </trkpt>
      <trkpt lat="44.18484" lon="3.16576">
        <ele>765.8</ele>
        <time>2019-04-19T15:01:32Z</time>
      </trkpt>
      <trkpt lat="44.18479" lon="3.16573">
        <ele>766</ele>
        <time>2019-04-19T15:01:31Z</time>
      </trkpt>
      <trkpt lat="44.18474" lon="3.16573">
        <ele>766.2</ele>
        <time>2019-04-19T15:01:30Z</time>
      </trkpt>
      <trkpt lat="44.18471" lon="3.16573">
        <ele>766.4</ele>
        <time>2019-04-19T15:01:29Z</time>
      </trkpt>
      <trkpt lat="44.18468" lon="3.16571">
        <ele>766.5</ele>
        <time>2019-04-19T15:01:28Z</time>
      </trkpt>
      <trkpt lat="44.18463" lon="3.16571">
        <ele>766.7</ele>
        <time>2019-04-19T15:01:27Z</time>
      </trkpt>
      <trkpt lat="44.18458" lon="3.16572">
        <ele>767</ele>
        <time>2019-04-19T15:01:26Z</time>
      </trkpt>
      <trkpt lat="44.18453" lon="3.16572">
        <ele>767.2</ele>
        <time>2019-04-19T15:01:25Z</time>
      </trkpt>
      <trkpt lat="44.18447" lon="3.16572">
        <ele>767.5</ele>
        <time>2019-04-19T15:01:24Z</time>
      </trkpt>
      <trkpt lat="44.18443" lon="3.16573">
        <ele>767.7</ele>
        <time>2019-04-19T15:01:23Z</time>
      </trkpt>
      <trkpt lat="44.18432" lon="3.16564">
        <ele>764.7</ele>
      </trkpt>
      <trkpt lat="44.18432" lon="3.16558">
        <ele>764.1</ele>
      </trkpt>
      <trkpt lat="44.1843" lon="3.16552">
        <ele>764.3</ele>
      </trkpt>
      <trkpt lat="44.18451" lon="3.16535">
        <ele>764.8</ele>
      </trkpt>
      <trkpt lat="44.18465" lon="3.16516">
        <ele>766.3</ele>
      </trkpt>
      <trkpt lat="44.18494" lon="3.16467">
        <ele>769.2</ele>
      </trkpt>
      <trkpt lat="44.18505" lon="3.16441">
        <ele>770.9</ele>
      </trkpt>
      <trkpt lat="44.1852" lon="3.16426">
        <ele>770.4</ele>
      </trkpt>
      <trkpt lat="44.18532" lon="3.16426">
        <ele>769.7</ele>
      </trkpt>
      <trkpt lat="44.18558" lon="3.16439">
        <ele>764.2</ele>
        <time>2021-10-31T15:41:31Z</time>
      </trkpt>
      <trkpt lat="44.18564" lon="3.1644">
        <ele>764</ele>
        <time>2021-10-31T15:41:33Z</time>
      </trkpt>
      <trkpt lat="44.18568" lon="3.16442">
        <ele>763.9</ele>
        <time>2021-10-31T15:41:34Z</time>
      </trkpt>
      <trkpt lat="44.18575" lon="3.16445">
        <ele>763.5</ele>
        <time>2021-10-31T15:41:35Z</time>
      </trkpt>
      <trkpt lat="44.18579" lon="3.16446">
        <ele>763.3</ele>
        <time>2021-10-31T15:41:36Z</time>
      </trkpt>
      <trkpt lat="44.18583" lon="3.16446">
        <ele>763</ele>
        <time>2021-10-31T15:41:38Z</time>
      </trkpt>
      <trkpt lat="44.18602" lon="3.16444">
        <ele>761.8</ele>
        <time>2021-10-31T15:41:40Z</time>
      </trkpt>
      <trkpt lat="44.18615" lon="3.16441">
        <ele>760.9</ele>
        <time>2021-10-31T15:41:42Z</time>
      </trkpt>
      <trkpt lat="44.18627" lon="3.16439">
        <ele>760.3</ele>
        <time>2021-10-31T15:41:44Z</time>
      </trkpt>
      <trkpt lat="44.18634" lon="3.1644">
        <ele>760</ele>
        <time>2021-10-31T15:41:45Z</time>
      </trkpt>
      <trkpt lat="44.18646" lon="3.1644">
        <ele>759.6</ele>
        <time>2021-10-31T15:41:47Z</time>
      </trkpt>
      <trkpt lat="44.18652" lon="3.16441">
        <ele>759.4</ele>
        <time>2021-10-31T15:41:48Z</time>
      </trkpt>
      <trkpt lat="44.18657" lon="3.16442">
        <ele>759.1</ele>
        <time>2021-10-31T15:41:49Z</time>
      </trkpt>
      <trkpt lat="44.18663" lon="3.16443">
        <ele>758.9</ele>
        <time>2021-10-31T15:41:50Z</time>
      </trkpt>
      <trkpt lat="44.1867" lon="3.16444">
        <ele>758.5</ele>
        <time>2021-10-31T15:41:52Z</time>
      </trkpt>
      <trkpt lat="44.18675" lon="3.16444">
        <ele>758.2</ele>
        <time>2021-10-31T15:41:53Z</time>
      </trkpt>
      <trkpt lat="44.18687" lon="3.16444">
        <ele>757.9</ele>
        <time>2021-10-31T15:41:55Z</time>
      </trkpt>
      <trkpt lat="44.18693" lon="3.16445">
        <ele>757.8</ele>
        <time>2021-10-31T15:41:56Z</time>
      </trkpt>
      <trkpt lat="44.18696" lon="3.16448">
        <ele>757.7</ele>
        <time>2021-10-31T15:41:58Z</time>
      </trkpt>
      <trkpt lat="44.18711" lon="3.16447">
        <ele>757.4</ele>
        <time>2021-10-31T15:42:00Z</time>
      </trkpt>
      <trkpt lat="44.18716" lon="3.16447">
        <ele>757.3</ele>
        <time>2021-10-31T15:42:01Z</time>
      </trkpt>
      <trkpt lat="44.18728" lon="3.16443">
        <ele>756.8</ele>
        <time>2021-10-31T15:42:03Z</time>
      </trkpt>
      <trkpt lat="44.18739" lon="3.16443">
        <ele>756.3</ele>
        <time>2021-10-31T15:42:05Z</time>
      </trkpt>
      <trkpt lat="44.18744" lon="3.16444">
        <ele>756.1</ele>
        <time>2021-10-31T15:42:06Z</time>
      </trkpt>
      <trkpt lat="44.18749" lon="3.16444">
        <ele>755.9</ele>
        <time>2021-10-31T15:42:07Z</time>
      </trkpt>
      <trkpt lat="44.18753" lon="3.16446">
        <ele>755.6</ele>
        <time>2021-10-31T15:42:08Z</time>
      </trkpt>
      <trkpt lat="44.1876" lon="3.16449">
        <ele>755.2</ele>
        <time>2021-10-31T15:42:09Z</time>
      </trkpt>
      <trkpt lat="44.18766" lon="3.16452">
        <ele>754.9</ele>
        <time>2021-10-31T15:42:11Z</time>
      </trkpt>
      <trkpt lat="44.18771" lon="3.16455">
        <ele>754.5</ele>
        <time>2021-10-31T15:42:12Z</time>
      </trkpt>
      <trkpt lat="44.18782" lon="3.16462">
        <ele>753.9</ele>
        <time>2021-10-31T15:42:14Z</time>
      </trkpt>
      <trkpt lat="44.1879" lon="3.16464">
        <ele>753.5</ele>
        <time>2021-10-31T15:42:15Z</time>
      </trkpt>
      <trkpt lat="44.18798" lon="3.16473">
        <ele>753.1</ele>
        <time>2021-10-31T15:42:17Z</time>
      </trkpt>
      <trkpt lat="44.18805" lon="3.16479">
        <ele>752.8</ele>
        <time>2021-10-31T15:42:18Z</time>
      </trkpt>
      <trkpt lat="44.18817" lon="3.16486">
        <ele>752.1</ele>
        <time>2021-10-31T15:42:20Z</time>
      </trkpt>
      <trkpt lat="44.18824" lon="3.16488">
        <ele>751.8</ele>
        <time>2021-10-31T15:42:21Z</time>
      </trkpt>
      <trkpt lat="44.18834" lon="3.16487">
        <ele>751.3</ele>
        <time>2021-10-31T15:42:23Z</time>
      </trkpt>
      <trkpt lat="44.18842" lon="3.16493">
        <ele>750.9</ele>
        <time>2021-10-31T15:42:25Z</time>
      </trkpt>
      <trkpt lat="44.18846" lon="3.16495">
        <ele>750.6</ele>
        <time>2021-10-31T15:42:26Z</time>
      </trkpt>
      <trkpt lat="44.18849" lon="3.16497">
        <ele>750.4</ele>
        <time>2021-10-31T15:42:27Z</time>
      </trkpt>
      <trkpt lat="44.18858" lon="3.16498">
        <ele>750</ele>
        <time>2021-10-31T15:42:29Z</time>
      </trkpt>
      <trkpt lat="44.18869" lon="3.16502">
        <ele>749.3</ele>
        <time>2021-10-31T15:42:31Z</time>
      </trkpt>
      <trkpt lat="44.1888" lon="3.16508">
        <ele>748.6</ele>
        <time>2021-10-31T15:42:33Z</time>
      </trkpt>
      <trkpt lat="44.18893" lon="3.16518">
        <ele>747.8</ele>
        <time>2021-10-31T15:42:35Z</time>
      </trkpt>
      <trkpt lat="44.18904" lon="3.16524">
        <ele>747.2</ele>
        <time>2021-10-31T15:42:37Z</time>
      </trkpt>
      <trkpt lat="44.1891" lon="3.16526">
        <ele>747</ele>
        <time>2021-10-31T15:42:38Z</time>
      </trkpt>
      <trkpt lat="44.18915" lon="3.16529">
        <ele>746.7</ele>
        <time>2021-10-31T15:42:39Z</time>
      </trkpt>
      <trkpt lat="44.1892" lon="3.16534">
        <ele>746.4</ele>
        <time>2021-10-31T15:42:40Z</time>
      </trkpt>
      <trkpt lat="44.18933" lon="3.1654">
        <ele>745.8</ele>
        <time>2021-10-31T15:42:42Z</time>
      </trkpt>
      <trkpt lat="44.18946" lon="3.16545">
        <ele>745.3</ele>
        <time>2021-10-31T15:42:44Z</time>
      </trkpt>
      <trkpt lat="44.18958" lon="3.1655">
        <ele>744.9</ele>
        <time>2021-10-31T15:42:46Z</time>
      </trkpt>
      <trkpt lat="44.18966" lon="3.1655">
        <ele>744.7</ele>
        <time>2021-10-31T15:42:48Z</time>
      </trkpt>
      <trkpt lat="44.1897" lon="3.16552">
        <ele>744.6</ele>
        <time>2021-10-31T15:42:49Z</time>
      </trkpt>
      <trkpt lat="44.18974" lon="3.16556">
        <ele>744.5</ele>
        <time>2021-10-31T15:42:50Z</time>
      </trkpt>
      <trkpt lat="44.18978" lon="3.16558">
        <ele>744.5</ele>
        <time>2021-10-31T15:42:51Z</time>
      </trkpt>
      <trkpt lat="44.18988" lon="3.16562">
        <ele>744.5</ele>
        <time>2021-10-31T15:42:53Z</time>
      </trkpt>
      <trkpt lat="44.18992" lon="3.16562">
        <ele>744.5</ele>
        <time>2021-10-31T15:42:54Z</time>
      </trkpt>
      <trkpt lat="44.18996" lon="3.16563">
        <ele>744.5</ele>
        <time>2021-10-31T15:42:55Z</time>
      </trkpt>
      <trkpt lat="44.19" lon="3.16564">
        <ele>744.5</ele>
        <time>2021-10-31T15:42:56Z</time>
      </trkpt>
      <trkpt lat="44.19005" lon="3.16564">
        <ele>744.6</ele>
        <time>2021-10-31T15:42:57Z</time>
      </trkpt>
      <trkpt lat="44.19011" lon="3.16566">
        <ele>744.6</ele>
        <time>2021-10-31T15:42:59Z</time>
      </trkpt>
      <trkpt lat="44.19016" lon="3.16568">
        <ele>744.7</ele>
        <time>2021-10-31T15:43:00Z</time>
      </trkpt>
      <trkpt lat="44.1902" lon="3.16566">
        <ele>744.7</ele>
        <time>2021-10-31T15:43:01Z</time>
      </trkpt>
      <trkpt lat="44.19024" lon="3.16567">
        <ele>744.8</ele>
        <time>2021-10-31T15:43:02Z</time>
      </trkpt>
      <trkpt lat="44.19028" lon="3.16567">
        <ele>744.8</ele>
        <time>2021-10-31T15:43:04Z</time>
      </trkpt>
      <trkpt lat="44.19032" lon="3.16567">
        <ele>744.9</ele>
        <time>2021-10-31T15:43:05Z</time>
      </trkpt>
      <trkpt lat="44.19036" lon="3.16567">
        <ele>744.9</ele>
        <time>2021-10-31T15:43:07Z</time>
      </trkpt>
      <trkpt lat="44.1904" lon="3.16567">
        <ele>745</ele>
        <time>2021-10-31T15:43:08Z</time>
      </trkpt>
      <trkpt lat="44.19044" lon="3.16568">
        <ele>745.1</ele>
        <time>2021-10-31T15:43:10Z</time>
      </trkpt>
      <trkpt lat="44.19048" lon="3.1657">
        <ele>745.1</ele>
        <time>2021-10-31T15:43:11Z</time>
      </trkpt>
      <trkpt lat="44.19051" lon="3.1657">
        <ele>745.2</ele>
        <time>2021-10-31T15:43:12Z</time>
      </trkpt>
      <trkpt lat="44.19056" lon="3.16572">
        <ele>745.3</ele>
        <time>2021-10-31T15:43:14Z</time>
      </trkpt>
      <trkpt lat="44.1906" lon="3.16573">
        <ele>745.3</ele>
        <time>2021-10-31T15:43:15Z</time>
      </trkpt>
      <trkpt lat="44.19065" lon="3.16574">
        <ele>745.3</ele>
        <time>2021-10-31T15:43:17Z</time>
      </trkpt>
      <trkpt lat="44.19069" lon="3.16576">
        <ele>745.4</ele>
        <time>2021-10-31T15:43:18Z</time>
      </trkpt>
      <trkpt lat="44.1907" lon="3.16576">
        <ele>745.4</ele>
        <time>2021-10-31T15:43:19Z</time>
      </trkpt>
      <trkpt lat="44.19073" lon="3.16578">
        <ele>745.3</ele>
        <time>2021-10-31T15:43:20Z</time>
      </trkpt>
      <trkpt lat="44.19077" lon="3.16579">
        <ele>745.3</ele>
        <time>2021-10-31T15:43:21Z</time>
      </trkpt>
      <trkpt lat="44.1908" lon="3.16578">
        <ele>745.3</ele>
        <time>2021-10-31T15:43:22Z</time>
      </trkpt>
      <trkpt lat="44.19083" lon="3.16578">
        <ele>745.3</ele>
        <time>2021-10-31T15:43:24Z</time>
      </trkpt>
      <trkpt lat="44.19086" lon="3.16576">
        <ele>745.2</ele>
        <time>2021-10-31T15:43:25Z</time>
      </trkpt>
      <trkpt lat="44.1909" lon="3.16575">
        <ele>745.1</ele>
        <time>2021-10-31T15:43:27Z</time>
      </trkpt>
      <trkpt lat="44.19091" lon="3.16575">
        <ele>745.1</ele>
        <time>2021-10-31T15:43:28Z</time>
      </trkpt>
      <trkpt lat="44.19095" lon="3.16575">
        <ele>744.9</ele>
        <time>2021-10-31T15:43:29Z</time>
      </trkpt>
      <trkpt lat="44.19099" lon="3.16574">
        <ele>744.8</ele>
        <time>2021-10-31T15:43:31Z</time>
      </trkpt>
      <trkpt lat="44.19104" lon="3.16578">
        <ele>744.5</ele>
        <time>2021-10-31T15:43:32Z</time>
      </trkpt>
      <trkpt lat="44.19109" lon="3.16579">
        <ele>744.3</ele>
        <time>2021-10-31T15:43:33Z</time>
      </trkpt>
      <trkpt lat="44.19113" lon="3.16579">
        <ele>744.1</ele>
        <time>2021-10-31T15:43:34Z</time>
      </trkpt>
      <trkpt lat="44.19118" lon="3.16578">
        <ele>743.9</ele>
        <time>2021-10-31T15:43:36Z</time>
      </trkpt>
      <trkpt lat="44.19123" lon="3.16579">
        <ele>743.7</ele>
        <time>2021-10-31T15:43:38Z</time>
      </trkpt>
      <trkpt lat="44.19127" lon="3.16582">
        <ele>743.5</ele>
        <time>2021-10-31T15:43:39Z</time>
      </trkpt>
      <trkpt lat="44.19132" lon="3.16584">
        <ele>743.4</ele>
        <time>2021-10-31T15:43:40Z</time>
      </trkpt>
      <trkpt lat="44.19137" lon="3.16585">
        <ele>743.2</ele>
        <time>2021-10-31T15:43:42Z</time>
      </trkpt>
      <trkpt lat="44.1914" lon="3.16584">
        <ele>743.1</ele>
        <time>2021-10-31T15:43:43Z</time>
      </trkpt>
      <trkpt lat="44.19144" lon="3.16584">
        <ele>743</ele>
        <time>2021-10-31T15:43:44Z</time>
      </trkpt>
      <trkpt lat="44.19151" lon="3.16587">
        <ele>742.7</ele>
        <time>2021-10-31T15:43:45Z</time>
      </trkpt>
      <trkpt lat="44.19156" lon="3.16587">
        <ele>742.6</ele>
        <time>2021-10-31T15:43:47Z</time>
      </trkpt>
      <trkpt lat="44.1916" lon="3.16586">
        <ele>742.5</ele>
        <time>2021-10-31T15:43:48Z</time>
      </trkpt>
      <trkpt lat="44.19164" lon="3.16586">
        <ele>742.4</ele>
        <time>2021-10-31T15:43:50Z</time>
      </trkpt>
      <trkpt lat="44.19169" lon="3.16584">
        <ele>742.4</ele>
        <time>2021-10-31T15:43:51Z</time>
      </trkpt>
      <trkpt lat="44.19172" lon="3.16581">
        <ele>742.4</ele>
        <time>2021-10-31T15:43:53Z</time>
      </trkpt>
      <trkpt lat="44.19174" lon="3.16579">
        <ele>742.4</ele>
        <time>2021-10-31T15:43:54Z</time>
      </trkpt>
      <trkpt lat="44.19179" lon="3.16576">
        <ele>742.4</ele>
        <time>2021-10-31T15:43:55Z</time>
      </trkpt>
      <trkpt lat="44.19182" lon="3.16576">
        <ele>742.4</ele>
        <time>2021-10-31T15:43:57Z</time>
      </trkpt>
      <trkpt lat="44.19185" lon="3.16576">
        <ele>742.4</ele>
        <time>2021-10-31T15:43:58Z</time>
      </trkpt>
      <trkpt lat="44.19189" lon="3.16577">
        <ele>742.4</ele>
        <time>2021-10-31T15:43:59Z</time>
      </trkpt>
      <trkpt lat="44.19195" lon="3.16577">
        <ele>742.4</ele>
        <time>2021-10-31T15:44:00Z</time>
      </trkpt>
      <trkpt lat="44.19199" lon="3.16578">
        <ele>742.3</ele>
        <time>2021-10-31T15:44:01Z</time>
      </trkpt>
      <trkpt lat="44.19205" lon="3.16578">
        <ele>742.3</ele>
        <time>2021-10-31T15:44:03Z</time>
      </trkpt>
      <trkpt lat="44.19208" lon="3.16578">
        <ele>742.3</ele>
        <time>2021-10-31T15:44:04Z</time>
      </trkpt>
      <trkpt lat="44.19212" lon="3.16578">
        <ele>742.3</ele>
        <time>2021-10-31T15:44:05Z</time>
      </trkpt>
      <trkpt lat="44.19215" lon="3.1658">
        <ele>742.2</ele>
        <time>2021-10-31T15:44:07Z</time>
      </trkpt>
      <trkpt lat="44.19219" lon="3.16581">
        <ele>742.2</ele>
        <time>2021-10-31T15:44:08Z</time>
      </trkpt>
      <trkpt lat="44.1922" lon="3.16582">
        <ele>742.2</ele>
        <time>2021-10-31T15:44:09Z</time>
      </trkpt>
      <trkpt lat="44.19223" lon="3.16583">
        <ele>742.1</ele>
        <time>2021-10-31T15:44:10Z</time>
      </trkpt>
      <trkpt lat="44.19225" lon="3.16583">
        <ele>742.1</ele>
        <time>2021-10-31T15:44:11Z</time>
      </trkpt>
      <trkpt lat="44.19229" lon="3.16582">
        <ele>742</ele>
        <time>2021-10-31T15:44:12Z</time>
      </trkpt>
      <trkpt lat="44.19232" lon="3.16582">
        <ele>741.9</ele>
        <time>2021-10-31T15:44:14Z</time>
      </trkpt>
      <trkpt lat="44.19237" lon="3.16581">
        <ele>741.7</ele>
        <time>2021-10-31T15:44:15Z</time>
      </trkpt>
      <trkpt lat="44.19242" lon="3.16579">
        <ele>741.4</ele>
        <time>2021-10-31T15:44:17Z</time>
      </trkpt>
      <trkpt lat="44.19246" lon="3.16576">
        <ele>741.2</ele>
        <time>2021-10-31T15:44:18Z</time>
      </trkpt>
      <trkpt lat="44.19249" lon="3.16575">
        <ele>740.9</ele>
        <time>2021-10-31T15:44:19Z</time>
      </trkpt>
      <trkpt lat="44.19252" lon="3.16575">
        <ele>740.7</ele>
        <time>2021-10-31T15:44:20Z</time>
      </trkpt>
      <trkpt lat="44.19254" lon="3.16574">
        <ele>740.5</ele>
        <time>2021-10-31T15:44:21Z</time>
      </trkpt>
      <trkpt lat="44.19256" lon="3.16574">
        <ele>740.2</ele>
        <time>2021-10-31T15:44:23Z</time>
      </trkpt>
      <trkpt lat="44.19259" lon="3.1657">
        <ele>739.7</ele>
        <time>2021-10-31T15:44:24Z</time>
      </trkpt>
      <trkpt lat="44.1926" lon="3.16569">
        <ele>739.5</ele>
        <time>2021-10-31T15:44:25Z</time>
      </trkpt>
      <trkpt lat="44.19261" lon="3.16566">
        <ele>739</ele>
        <time>2021-10-31T15:44:26Z</time>
      </trkpt>
      <trkpt lat="44.19264" lon="3.16562">
        <ele>738.3</ele>
        <time>2021-10-31T15:44:28Z</time>
      </trkpt>
      <trkpt lat="44.19267" lon="3.16561">
        <ele>737.6</ele>
        <time>2021-10-31T15:44:29Z</time>
      </trkpt>
      <trkpt lat="44.19275" lon="3.16555">
        <ele>735.8</ele>
        <time>2021-10-31T15:44:30Z</time>
      </trkpt>
      <trkpt lat="44.1928" lon="3.16551">
        <ele>734.4</ele>
        <time>2021-10-31T15:44:31Z</time>
      </trkpt>
      <trkpt lat="44.19286" lon="3.16547">
        <ele>732.7</ele>
        <time>2021-10-31T15:44:32Z</time>
      </trkpt>
      <trkpt lat="44.19293" lon="3.1654">
        <ele>730.4</ele>
        <time>2021-10-31T15:44:34Z</time>
      </trkpt>
      <trkpt lat="44.19297" lon="3.16537">
        <ele>729</ele>
        <time>2021-10-31T15:44:35Z</time>
      </trkpt>
      <trkpt lat="44.193" lon="3.16535">
        <ele>727.9</ele>
        <time>2021-10-31T15:44:36Z</time>
      </trkpt>
      <trkpt lat="44.19302" lon="3.16533">
        <ele>727.3</ele>
        <time>2021-10-31T15:44:37Z</time>
      </trkpt>
      <trkpt lat="44.19305" lon="3.16526">
        <ele>725.4</ele>
        <time>2021-10-31T15:44:39Z</time>
      </trkpt>
      <trkpt lat="44.19309" lon="3.16522">
        <ele>723.6</ele>
        <time>2021-10-31T15:44:41Z</time>
      </trkpt>
      <trkpt lat="44.19313" lon="3.16521">
        <ele>722.3</ele>
        <time>2021-10-31T15:44:42Z</time>
      </trkpt>
      <trkpt lat="44.19317" lon="3.16519">
        <ele>720.7</ele>
        <time>2021-10-31T15:44:43Z</time>
      </trkpt>
      <trkpt lat="44.19318" lon="3.16515">
        <ele>719.2</ele>
        <time>2021-10-31T15:44:45Z</time>
      </trkpt>
      <trkpt lat="44.19319" lon="3.16513">
        <ele>718.6</ele>
        <time>2021-10-31T15:44:46Z</time>
      </trkpt>
      <trkpt lat="44.19321" lon="3.16509">
        <ele>717.2</ele>
        <time>2021-10-31T15:44:48Z</time>
      </trkpt>
      <trkpt lat="44.19322" lon="3.16509">
        <ele>716.9</ele>
        <time>2021-10-31T15:44:49Z</time>
      </trkpt>
      <trkpt lat="44.19323" lon="3.16509">
        <ele>716.3</ele>
        <time>2021-10-31T15:44:50Z</time>
      </trkpt>
      <trkpt lat="44.19325" lon="3.1651">
        <ele>715.7</ele>
        <time>2021-10-31T15:44:51Z</time>
      </trkpt>
      <trkpt lat="44.19326" lon="3.16509">
        <ele>715</ele>
        <time>2021-10-31T15:44:52Z</time>
      </trkpt>
      <trkpt lat="44.19327" lon="3.16509">
        <ele>714.7</ele>
        <time>2021-10-31T15:44:54Z</time>
      </trkpt>
      <trkpt lat="44.19328" lon="3.1651">
        <ele>714.2</ele>
        <time>2021-10-31T15:44:55Z</time>
      </trkpt>
      <trkpt lat="44.19329" lon="3.1651">
        <ele>713.6</ele>
        <time>2021-10-31T15:44:56Z</time>
      </trkpt>
      <trkpt lat="44.1933" lon="3.16509">
        <ele>713.1</ele>
        <time>2021-10-31T15:44:57Z</time>
      </trkpt>
      <trkpt lat="44.19331" lon="3.16508">
        <ele>712.7</ele>
        <time>2021-10-31T15:44:59Z</time>
      </trkpt>
      <trkpt lat="44.19332" lon="3.16507">
        <ele>712.2</ele>
        <time>2021-10-31T15:45:00Z</time>
      </trkpt>
      <trkpt lat="44.19333" lon="3.16506">
        <ele>711.7</ele>
        <time>2021-10-31T15:45:01Z</time>
      </trkpt>
      <trkpt lat="44.19335" lon="3.16504">
        <ele>710.6</ele>
        <time>2021-10-31T15:45:02Z</time>
      </trkpt>
      <trkpt lat="44.19338" lon="3.16504">
        <ele>709.3</ele>
        <time>2021-10-31T15:45:04Z</time>
      </trkpt>
      <trkpt lat="44.19341" lon="3.16503">
        <ele>708</ele>
        <time>2021-10-31T15:45:05Z</time>
      </trkpt>
      <trkpt lat="44.19345" lon="3.16501">
        <ele>706.4</ele>
        <time>2021-10-31T15:45:07Z</time>
      </trkpt>
      <trkpt lat="44.19347" lon="3.165">
        <ele>705.5</ele>
        <time>2021-10-31T15:45:08Z</time>
      </trkpt>
      <trkpt lat="44.19348" lon="3.16499">
        <ele>704.8</ele>
        <time>2021-10-31T15:45:10Z</time>
      </trkpt>
      <trkpt lat="44.1935" lon="3.16495">
        <ele>703.7</ele>
        <time>2021-10-31T15:45:11Z</time>
      </trkpt>
      <trkpt lat="44.19351" lon="3.16494">
        <ele>703.4</ele>
        <time>2021-10-31T15:45:12Z</time>
      </trkpt>
      <trkpt lat="44.19353" lon="3.16493">
        <ele>702.5</ele>
        <time>2021-10-31T15:45:13Z</time>
      </trkpt>
      <trkpt lat="44.19358" lon="3.16491">
        <ele>700.8</ele>
        <time>2021-10-31T15:45:15Z</time>
      </trkpt>
      <trkpt lat="44.19361" lon="3.16489">
        <ele>699.5</ele>
        <time>2021-10-31T15:45:16Z</time>
      </trkpt>
      <trkpt lat="44.19363" lon="3.1649">
        <ele>699</ele>
        <time>2021-10-31T15:45:17Z</time>
      </trkpt>
      <trkpt lat="44.19366" lon="3.1649">
        <ele>698.2</ele>
        <time>2021-10-31T15:45:18Z</time>
      </trkpt>
      <trkpt lat="44.1937" lon="3.16491">
        <ele>697.1</ele>
        <time>2021-10-31T15:45:20Z</time>
      </trkpt>
      <trkpt lat="44.19371" lon="3.16491">
        <ele>696.8</ele>
        <time>2021-10-31T15:45:21Z</time>
      </trkpt>
      <trkpt lat="44.19372" lon="3.16491">
        <ele>696.4</ele>
        <time>2021-10-31T15:45:22Z</time>
      </trkpt>
      <trkpt lat="44.19375" lon="3.16489">
        <ele>695.6</ele>
        <time>2021-10-31T15:45:24Z</time>
      </trkpt>
      <trkpt lat="44.19379" lon="3.16486">
        <ele>694.5</ele>
        <time>2021-10-31T15:45:25Z</time>
      </trkpt>
      <trkpt lat="44.19383" lon="3.16482">
        <ele>693.2</ele>
        <time>2021-10-31T15:45:26Z</time>
      </trkpt>
      <trkpt lat="44.19394" lon="3.16472">
        <ele>690.5</ele>
        <time>2021-10-31T15:45:28Z</time>
      </trkpt>
      <trkpt lat="44.19401" lon="3.16467">
        <ele>689.3</ele>
        <time>2021-10-31T15:45:29Z</time>
      </trkpt>
      <trkpt lat="44.1941" lon="3.16462">
        <ele>687.7</ele>
        <time>2021-10-31T15:45:31Z</time>
      </trkpt>
      <trkpt lat="44.19412" lon="3.1646">
        <ele>687.1</ele>
        <time>2021-10-31T15:45:32Z</time>
      </trkpt>
      <trkpt lat="44.19413" lon="3.16458">
        <ele>686.9</ele>
        <time>2021-10-31T15:45:33Z</time>
      </trkpt>
      <trkpt lat="44.19414" lon="3.16455">
        <ele>686.4</ele>
        <time>2021-10-31T15:45:35Z</time>
      </trkpt>
      <trkpt lat="44.19413" lon="3.16454">
        <ele>686.2</ele>
        <time>2021-10-31T15:45:36Z</time>
      </trkpt>
      <trkpt lat="44.19413" lon="3.16455">
        <ele>686.1</ele>
        <time>2021-10-31T15:45:38Z</time>
      </trkpt>
      <trkpt lat="44.19416" lon="3.16453">
        <ele>685.5</ele>
        <time>2021-10-31T15:45:39Z</time>
      </trkpt>
      <trkpt lat="44.19418" lon="3.1645">
        <ele>685</ele>
        <time>2021-10-31T15:45:40Z</time>
      </trkpt>
      <trkpt lat="44.1942" lon="3.16447">
        <ele>684.4</ele>
        <time>2021-10-31T15:45:42Z</time>
      </trkpt>
      <trkpt lat="44.19422" lon="3.16444">
        <ele>683.7</ele>
        <time>2021-10-31T15:45:43Z</time>
      </trkpt>
      <trkpt lat="44.19424" lon="3.16441">
        <ele>683.1</ele>
        <time>2021-10-31T15:45:44Z</time>
      </trkpt>
      <trkpt lat="44.19427" lon="3.16439">
        <ele>682.4</ele>
        <time>2021-10-31T15:45:45Z</time>
      </trkpt>
      <trkpt lat="44.19431" lon="3.16436">
        <ele>681.3</ele>
        <time>2021-10-31T15:45:47Z</time>
      </trkpt>
      <trkpt lat="44.19435" lon="3.16432">
        <ele>680.4</ele>
        <time>2021-10-31T15:45:48Z</time>
      </trkpt>
      <trkpt lat="44.1944" lon="3.16428">
        <ele>679.2</ele>
        <time>2021-10-31T15:45:49Z</time>
      </trkpt>
      <trkpt lat="44.19444" lon="3.16425">
        <ele>678.4</ele>
        <time>2021-10-31T15:45:51Z</time>
      </trkpt>
      <trkpt lat="44.1945" lon="3.16421">
        <ele>677.1</ele>
        <time>2021-10-31T15:45:52Z</time>
      </trkpt>
      <trkpt lat="44.19455" lon="3.16415">
        <ele>675.7</ele>
        <time>2021-10-31T15:45:54Z</time>
      </trkpt>
      <trkpt lat="44.19458" lon="3.16412">
        <ele>675</ele>
        <time>2021-10-31T15:45:55Z</time>
      </trkpt>
      <trkpt lat="44.1946" lon="3.16407">
        <ele>674.1</ele>
        <time>2021-10-31T15:45:57Z</time>
      </trkpt>
      <trkpt lat="44.19463" lon="3.16403">
        <ele>673</ele>
        <time>2021-10-31T15:45:58Z</time>
      </trkpt>
      <trkpt lat="44.19465" lon="3.16401">
        <ele>672.4</ele>
        <time>2021-10-31T15:45:59Z</time>
      </trkpt>
      <trkpt lat="44.19466" lon="3.16399">
        <ele>671.9</ele>
        <time>2021-10-31T15:46:01Z</time>
      </trkpt>
      <trkpt lat="44.19467" lon="3.16397">
        <ele>671.6</ele>
        <time>2021-10-31T15:46:02Z</time>
      </trkpt>
      <trkpt lat="44.19468" lon="3.16392">
        <ele>670.6</ele>
        <time>2021-10-31T15:46:04Z</time>
      </trkpt>
      <trkpt lat="44.19469" lon="3.16391">
        <ele>670.2</ele>
        <time>2021-10-31T15:46:05Z</time>
      </trkpt>
      <trkpt lat="44.19473" lon="3.16386">
        <ele>668.8</ele>
        <time>2021-10-31T15:46:06Z</time>
      </trkpt>
      <trkpt lat="44.19475" lon="3.16382">
        <ele>667.8</ele>
        <time>2021-10-31T15:46:07Z</time>
      </trkpt>
      <trkpt lat="44.1948" lon="3.16376">
        <ele>666.1</ele>
        <time>2021-10-31T15:46:09Z</time>
      </trkpt>
      <trkpt lat="44.19484" lon="3.16371">
        <ele>664.6</ele>
        <time>2021-10-31T15:46:10Z</time>
      </trkpt>
      <trkpt lat="44.19488" lon="3.16368">
        <ele>663.2</ele>
        <time>2021-10-31T15:46:12Z</time>
      </trkpt>
      <trkpt lat="44.19491" lon="3.16365">
        <ele>662.2</ele>
        <time>2021-10-31T15:46:13Z</time>
      </trkpt>
      <trkpt lat="44.19494" lon="3.16361">
        <ele>661.1</ele>
        <time>2021-10-31T15:46:15Z</time>
      </trkpt>
      <trkpt lat="44.19497" lon="3.16358">
        <ele>659.9</ele>
        <time>2021-10-31T15:46:16Z</time>
      </trkpt>
      <trkpt lat="44.19498" lon="3.16356">
        <ele>659.2</ele>
        <time>2021-10-31T15:46:18Z</time>
      </trkpt>
      <trkpt lat="44.195" lon="3.16355">
        <ele>658.5</ele>
        <time>2021-10-31T15:46:19Z</time>
      </trkpt>
      <trkpt lat="44.19502" lon="3.16353">
        <ele>657.8</ele>
        <time>2021-10-31T15:46:21Z</time>
      </trkpt>
      <trkpt lat="44.19504" lon="3.16352">
        <ele>657.2</ele>
        <time>2021-10-31T15:46:23Z</time>
      </trkpt>
      <trkpt lat="44.19505" lon="3.1635">
        <ele>656.5</ele>
        <time>2021-10-31T15:47:13Z</time>
      </trkpt>
      <trkpt lat="44.19507" lon="3.16348">
        <ele>655.8</ele>
        <time>2021-10-31T15:47:14Z</time>
      </trkpt>
      <trkpt lat="44.19509" lon="3.16347">
        <ele>655.2</ele>
        <time>2021-10-31T15:47:16Z</time>
      </trkpt>
      <trkpt lat="44.19511" lon="3.16345">
        <ele>654.6</ele>
        <time>2021-10-31T15:47:17Z</time>
      </trkpt>
      <trkpt lat="44.19512" lon="3.16343">
        <ele>654.1</ele>
        <time>2021-10-31T15:47:18Z</time>
      </trkpt>
      <trkpt lat="44.19514" lon="3.1634">
        <ele>653.3</ele>
        <time>2021-10-31T15:47:20Z</time>
      </trkpt>
      <trkpt lat="44.19516" lon="3.16338">
        <ele>652.6</ele>
        <time>2021-10-31T15:47:21Z</time>
      </trkpt>
      <trkpt lat="44.19522" lon="3.16333">
        <ele>650.7</ele>
        <time>2021-10-31T15:47:23Z</time>
      </trkpt>
      <trkpt lat="44.19527" lon="3.16328">
        <ele>649.2</ele>
        <time>2021-10-31T15:47:24Z</time>
      </trkpt>
      <trkpt lat="44.1953" lon="3.16324">
        <ele>648.1</ele>
        <time>2021-10-31T15:47:25Z</time>
      </trkpt>
      <trkpt lat="44.19534" lon="3.16319">
        <ele>646.7</ele>
        <time>2021-10-31T15:47:27Z</time>
      </trkpt>
      <trkpt lat="44.19537" lon="3.16315">
        <ele>645.5</ele>
        <time>2021-10-31T15:47:28Z</time>
      </trkpt>
      <trkpt lat="44.1954" lon="3.16311">
        <ele>644.5</ele>
        <time>2021-10-31T15:47:30Z</time>
      </trkpt>
      <trkpt lat="44.19542" lon="3.16309">
        <ele>643.7</ele>
        <time>2021-10-31T15:47:31Z</time>
      </trkpt>
      <trkpt lat="44.19545" lon="3.16305">
        <ele>642.9</ele>
        <time>2021-10-31T15:47:32Z</time>
      </trkpt>
      <trkpt lat="44.19547" lon="3.16302">
        <ele>642</ele>
        <time>2021-10-31T15:47:34Z</time>
      </trkpt>
      <trkpt lat="44.1955" lon="3.16296">
        <ele>640.8</ele>
        <time>2021-10-31T15:47:35Z</time>
      </trkpt>
      <trkpt lat="44.19554" lon="3.16291">
        <ele>639.6</ele>
        <time>2021-10-31T15:47:37Z</time>
      </trkpt>
      <trkpt lat="44.19557" lon="3.16288">
        <ele>638.7</ele>
        <time>2021-10-31T15:47:38Z</time>
      </trkpt>
      <trkpt lat="44.19561" lon="3.16284">
        <ele>637.3</ele>
        <time>2021-10-31T15:47:40Z</time>
      </trkpt>
      <trkpt lat="44.19566" lon="3.16281">
        <ele>636.1</ele>
        <time>2021-10-31T15:47:41Z</time>
      </trkpt>
      <trkpt lat="44.19568" lon="3.16279">
        <ele>635.4</ele>
        <time>2021-10-31T15:47:42Z</time>
      </trkpt>
      <trkpt lat="44.19571" lon="3.16277">
        <ele>634.5</ele>
        <time>2021-10-31T15:47:44Z</time>
      </trkpt>
      <trkpt lat="44.19574" lon="3.16274">
        <ele>633.5</ele>
        <time>2021-10-31T15:47:45Z</time>
      </trkpt>
      <trkpt lat="44.19575" lon="3.16273">
        <ele>633.1</ele>
        <time>2021-10-31T15:47:46Z</time>
      </trkpt>
      <trkpt lat="44.19577" lon="3.16269">
        <ele>631.9</ele>
        <time>2021-10-31T15:47:48Z</time>
      </trkpt>
      <trkpt lat="44.19578" lon="3.16267">
        <ele>631.6</ele>
        <time>2021-10-31T15:47:49Z</time>
      </trkpt>
      <trkpt lat="44.19579" lon="3.16266">
        <ele>631.2</ele>
        <time>2021-10-31T15:47:50Z</time>
      </trkpt>
      <trkpt lat="44.19581" lon="3.16262">
        <ele>630.1</ele>
        <time>2021-10-31T15:47:51Z</time>
      </trkpt>
      <trkpt lat="44.19582" lon="3.1626">
        <ele>629.8</ele>
        <time>2021-10-31T15:47:52Z</time>
      </trkpt>
      <trkpt lat="44.19585" lon="3.16259">
        <ele>629</ele>
        <time>2021-10-31T15:47:54Z</time>
      </trkpt>
      <trkpt lat="44.19588" lon="3.1626">
        <ele>628.1</ele>
        <time>2021-10-31T15:47:56Z</time>
      </trkpt>
      <trkpt lat="44.19589" lon="3.16261">
        <ele>627.9</ele>
        <time>2021-10-31T15:47:58Z</time>
      </trkpt>
      <trkpt lat="44.19589" lon="3.16262">
        <ele>627.7</ele>
        <time>2021-10-31T15:47:59Z</time>
      </trkpt>
      <trkpt lat="44.1959" lon="3.16262">
        <ele>627.5</ele>
        <time>2021-10-31T15:48:00Z</time>
      </trkpt>
      <trkpt lat="44.19591" lon="3.16265">
        <ele>627.1</ele>
        <time>2021-10-31T15:48:02Z</time>
      </trkpt>
      <trkpt lat="44.19591" lon="3.16267">
        <ele>626.8</ele>
        <time>2021-10-31T15:48:04Z</time>
      </trkpt>
      <trkpt lat="44.19592" lon="3.16269">
        <ele>626.6</ele>
        <time>2021-10-31T15:48:05Z</time>
      </trkpt>
      <trkpt lat="44.19593" lon="3.16269">
        <ele>626.4</ele>
        <time>2021-10-31T15:48:07Z</time>
      </trkpt>
      <trkpt lat="44.19595" lon="3.16271">
        <ele>626</ele>
        <time>2021-10-31T15:48:09Z</time>
      </trkpt>
      <trkpt lat="44.19597" lon="3.16272">
        <ele>625.7</ele>
        <time>2021-10-31T15:48:10Z</time>
      </trkpt>
      <trkpt lat="44.19597" lon="3.16273">
        <ele>625.6</ele>
        <time>2021-10-31T15:48:12Z</time>
      </trkpt>
      <trkpt lat="44.19598" lon="3.16275">
        <ele>625.5</ele>
        <time>2021-10-31T15:48:13Z</time>
      </trkpt>
      <trkpt lat="44.19599" lon="3.16277">
        <ele>625.3</ele>
        <time>2021-10-31T15:48:15Z</time>
      </trkpt>
      <trkpt lat="44.196" lon="3.16283">
        <ele>624.7</ele>
        <time>2021-10-31T15:48:17Z</time>
      </trkpt>
      <trkpt lat="44.196" lon="3.16285">
        <ele>624.5</ele>
        <time>2021-10-31T15:48:18Z</time>
      </trkpt>
      <trkpt lat="44.19598" lon="3.1629">
        <ele>624.1</ele>
        <time>2021-10-31T15:48:20Z</time>
      </trkpt>
      <trkpt lat="44.19598" lon="3.16291">
        <ele>623.9</ele>
        <time>2021-10-31T15:48:21Z</time>
      </trkpt>
      <trkpt lat="44.19596" lon="3.16296">
        <ele>623.5</ele>
        <time>2021-10-31T15:48:22Z</time>
      </trkpt>
      <trkpt lat="44.19595" lon="3.163">
        <ele>623.1</ele>
        <time>2021-10-31T15:48:23Z</time>
      </trkpt>
      <trkpt lat="44.19595" lon="3.16305">
        <ele>622.6</ele>
        <time>2021-10-31T15:48:25Z</time>
      </trkpt>
      <trkpt lat="44.19595" lon="3.1631">
        <ele>622</ele>
        <time>2021-10-31T15:48:26Z</time>
      </trkpt>
      <trkpt lat="44.19596" lon="3.16314">
        <ele>621.5</ele>
        <time>2021-10-31T15:48:28Z</time>
      </trkpt>
      <trkpt lat="44.19596" lon="3.1632">
        <ele>620.8</ele>
        <time>2021-10-31T15:48:29Z</time>
      </trkpt>
      <trkpt lat="44.19596" lon="3.16327">
        <ele>620.1</ele>
        <time>2021-10-31T15:48:31Z</time>
      </trkpt>
      <trkpt lat="44.19596" lon="3.16335">
        <ele>619</ele>
        <time>2021-10-31T15:48:32Z</time>
      </trkpt>
      <trkpt lat="44.19596" lon="3.16341">
        <ele>618.2</ele>
        <time>2021-10-31T15:48:33Z</time>
      </trkpt>
      <trkpt lat="44.19596" lon="3.1635">
        <ele>617.1</ele>
        <time>2021-10-31T15:48:35Z</time>
      </trkpt>
      <trkpt lat="44.19596" lon="3.1636">
        <ele>615.9</ele>
        <time>2021-10-31T15:48:36Z</time>
      </trkpt>
      <trkpt lat="44.19596" lon="3.16366">
        <ele>615.2</ele>
        <time>2021-10-31T15:48:38Z</time>
      </trkpt>
      <trkpt lat="44.19596" lon="3.16374">
        <ele>614.4</ele>
        <time>2021-10-31T15:48:39Z</time>
      </trkpt>
      <trkpt lat="44.19597" lon="3.16379">
        <ele>614</ele>
        <time>2021-10-31T15:48:40Z</time>
      </trkpt>
      <trkpt lat="44.19597" lon="3.16385">
        <ele>613.4</ele>
        <time>2021-10-31T15:48:42Z</time>
      </trkpt>
      <trkpt lat="44.19596" lon="3.16391">
        <ele>612.7</ele>
        <time>2021-10-31T15:48:43Z</time>
      </trkpt>
      <trkpt lat="44.19596" lon="3.16398">
        <ele>612.1</ele>
        <time>2021-10-31T15:48:44Z</time>
      </trkpt>
      <trkpt lat="44.19594" lon="3.16407">
        <ele>611.4</ele>
        <time>2021-10-31T15:48:46Z</time>
      </trkpt>
      <trkpt lat="44.19593" lon="3.16411">
        <ele>611</ele>
        <time>2021-10-31T15:48:48Z</time>
      </trkpt>
      <trkpt lat="44.19593" lon="3.16413">
        <ele>610.9</ele>
        <time>2021-10-31T15:48:49Z</time>
      </trkpt>
      <trkpt lat="44.19591" lon="3.16419">
        <ele>610.3</ele>
        <time>2021-10-31T15:48:50Z</time>
      </trkpt>
      <trkpt lat="44.1959" lon="3.16426">
        <ele>609.8</ele>
        <time>2021-10-31T15:48:51Z</time>
      </trkpt>
      <trkpt lat="44.1959" lon="3.16429">
        <ele>609.5</ele>
        <time>2021-10-31T15:48:52Z</time>
      </trkpt>
      <trkpt lat="44.19589" lon="3.16432">
        <ele>609.3</ele>
        <time>2021-10-31T15:48:54Z</time>
      </trkpt>
      <trkpt lat="44.19589" lon="3.16437">
        <ele>609</ele>
        <time>2021-10-31T15:48:55Z</time>
      </trkpt>
      <trkpt lat="44.19588" lon="3.16444">
        <ele>608.6</ele>
        <time>2021-10-31T15:48:57Z</time>
      </trkpt>
      <trkpt lat="44.19587" lon="3.16446">
        <ele>608.5</ele>
        <time>2021-10-31T15:48:58Z</time>
      </trkpt>
      <trkpt lat="44.19587" lon="3.16449">
        <ele>608.3</ele>
        <time>2021-10-31T15:48:59Z</time>
      </trkpt>
      <trkpt lat="44.19586" lon="3.16454">
        <ele>608.1</ele>
        <time>2021-10-31T15:49:01Z</time>
      </trkpt>
      <trkpt lat="44.19583" lon="3.16459">
        <ele>607.7</ele>
        <time>2021-10-31T15:49:02Z</time>
      </trkpt>
      <trkpt lat="44.1958" lon="3.16462">
        <ele>607.5</ele>
        <time>2021-10-31T15:49:03Z</time>
      </trkpt>
      <trkpt lat="44.19578" lon="3.16465">
        <ele>607.3</ele>
        <time>2021-10-31T15:49:05Z</time>
      </trkpt>
      <trkpt lat="44.19578" lon="3.16469">
        <ele>607</ele>
        <time>2021-10-31T15:49:06Z</time>
      </trkpt>
      <trkpt lat="44.19576" lon="3.16474">
        <ele>606.6</ele>
        <time>2021-10-31T15:49:07Z</time>
      </trkpt>
      <trkpt lat="44.19575" lon="3.16481">
        <ele>606.1</ele>
        <time>2021-10-31T15:49:08Z</time>
      </trkpt>
      <trkpt lat="44.19572" lon="3.1649">
        <ele>605.4</ele>
        <time>2021-10-31T15:49:10Z</time>
      </trkpt>
      <trkpt lat="44.19571" lon="3.16495">
        <ele>605</ele>
        <time>2021-10-31T15:49:12Z</time>
      </trkpt>
      <trkpt lat="44.19569" lon="3.165">
        <ele>604.6</ele>
        <time>2021-10-31T15:49:13Z</time>
      </trkpt>
      <trkpt lat="44.19568" lon="3.16502">
        <ele>604.5</ele>
        <time>2021-10-31T15:49:14Z</time>
      </trkpt>
      <trkpt lat="44.19566" lon="3.16507">
        <ele>604</ele>
        <time>2021-10-31T15:49:16Z</time>
      </trkpt>
      <trkpt lat="44.19564" lon="3.1651">
        <ele>603.8</ele>
        <time>2021-10-31T15:49:17Z</time>
      </trkpt>
      <trkpt lat="44.19563" lon="3.16516">
        <ele>603.3</ele>
        <time>2021-10-31T15:49:18Z</time>
      </trkpt>
      <trkpt lat="44.19562" lon="3.16521">
        <ele>603</ele>
        <time>2021-10-31T15:49:20Z</time>
      </trkpt>
      <trkpt lat="44.1956" lon="3.16524">
        <ele>602.6</ele>
        <time>2021-10-31T15:49:21Z</time>
      </trkpt>
      <trkpt lat="44.19558" lon="3.16527">
        <ele>602.2</ele>
        <time>2021-10-31T15:49:22Z</time>
      </trkpt>
      <trkpt lat="44.19554" lon="3.1653">
        <ele>601.7</ele>
        <time>2021-10-31T15:49:23Z</time>
      </trkpt>
      <trkpt lat="44.19551" lon="3.16532">
        <ele>601.3</ele>
        <time>2021-10-31T15:49:24Z</time>
      </trkpt>
      <trkpt lat="44.19549" lon="3.16535">
        <ele>601</ele>
        <time>2021-10-31T15:49:25Z</time>
      </trkpt>
      <trkpt lat="44.19546" lon="3.16537">
        <ele>600.6</ele>
        <time>2021-10-31T15:49:27Z</time>
      </trkpt>
      <trkpt lat="44.19542" lon="3.16541">
        <ele>600</ele>
        <time>2021-10-31T15:49:28Z</time>
      </trkpt>
      <trkpt lat="44.19538" lon="3.16546">
        <ele>599.5</ele>
        <time>2021-10-31T15:49:30Z</time>
      </trkpt>
      <trkpt lat="44.19537" lon="3.16549">
        <ele>599.4</ele>
        <time>2021-10-31T15:49:32Z</time>
      </trkpt>
      <trkpt lat="44.19537" lon="3.16551">
        <ele>599.2</ele>
        <time>2021-10-31T15:49:33Z</time>
      </trkpt>
      <trkpt lat="44.19536" lon="3.16554">
        <ele>599</ele>
        <time>2021-10-31T15:49:34Z</time>
      </trkpt>
      <trkpt lat="44.19534" lon="3.16557">
        <ele>598.7</ele>
        <time>2021-10-31T15:49:36Z</time>
      </trkpt>
      <trkpt lat="44.19531" lon="3.16561">
        <ele>598.3</ele>
        <time>2021-10-31T15:49:37Z</time>
      </trkpt>
      <trkpt lat="44.19528" lon="3.16565">
        <ele>597.8</ele>
        <time>2021-10-31T15:49:38Z</time>
      </trkpt>
      <trkpt lat="44.19525" lon="3.16569">
        <ele>597.4</ele>
        <time>2021-10-31T15:49:39Z</time>
      </trkpt>
      <trkpt lat="44.19524" lon="3.16572">
        <ele>597</ele>
        <time>2021-10-31T15:49:40Z</time>
      </trkpt>
      <trkpt lat="44.19521" lon="3.16576">
        <ele>596.5</ele>
        <time>2021-10-31T15:49:41Z</time>
      </trkpt>
      <trkpt lat="44.1952" lon="3.16577">
        <ele>596.2</ele>
        <time>2021-10-31T15:49:42Z</time>
      </trkpt>
      <trkpt lat="44.19518" lon="3.16582">
        <ele>595.5</ele>
        <time>2021-10-31T15:49:44Z</time>
      </trkpt>
      <trkpt lat="44.19517" lon="3.16585">
        <ele>595.2</ele>
        <time>2021-10-31T15:49:45Z</time>
      </trkpt>
      <trkpt lat="44.19515" lon="3.16589">
        <ele>594.6</ele>
        <time>2021-10-31T15:49:46Z</time>
      </trkpt>
      <trkpt lat="44.19515" lon="3.1659">
        <ele>594.4</ele>
        <time>2021-10-31T15:49:47Z</time>
      </trkpt>
      <trkpt lat="44.19513" lon="3.16593">
        <ele>594</ele>
        <time>2021-10-31T15:49:48Z</time>
      </trkpt>
      <trkpt lat="44.1951" lon="3.16596">
        <ele>593.3</ele>
        <time>2021-10-31T15:49:50Z</time>
      </trkpt>
      <trkpt lat="44.19506" lon="3.166">
        <ele>592.2</ele>
        <time>2021-10-31T15:49:52Z</time>
      </trkpt>
      <trkpt lat="44.19502" lon="3.16602">
        <ele>591.5</ele>
        <time>2021-10-31T15:49:53Z</time>
      </trkpt>
      <trkpt lat="44.195" lon="3.16606">
        <ele>590.9</ele>
        <time>2021-10-31T15:49:54Z</time>
      </trkpt>
      <trkpt lat="44.19497" lon="3.16611">
        <ele>589.9</ele>
        <time>2021-10-31T15:49:56Z</time>
      </trkpt>
      <trkpt lat="44.19496" lon="3.16613">
        <ele>589.6</ele>
        <time>2021-10-31T15:49:57Z</time>
      </trkpt>
      <trkpt lat="44.19495" lon="3.16615">
        <ele>589.3</ele>
        <time>2021-10-31T15:49:58Z</time>
      </trkpt>
      <trkpt lat="44.19495" lon="3.16619">
        <ele>588.6</ele>
        <time>2021-10-31T15:49:59Z</time>
      </trkpt>
      <trkpt lat="44.19495" lon="3.1662">
        <ele>588.5</ele>
        <time>2021-10-31T15:50:01Z</time>
      </trkpt>
      <trkpt lat="44.19494" lon="3.16623">
        <ele>588</ele>
        <time>2021-10-31T15:50:02Z</time>
      </trkpt>
      <trkpt lat="44.19493" lon="3.16625">
        <ele>587.7</ele>
        <time>2021-10-31T15:50:03Z</time>
      </trkpt>
      <trkpt lat="44.19492" lon="3.16628">
        <ele>587.2</ele>
        <time>2021-10-31T15:50:05Z</time>
      </trkpt>
      <trkpt lat="44.19492" lon="3.16629">
        <ele>587.1</ele>
        <time>2021-10-31T15:50:06Z</time>
      </trkpt>
      <trkpt lat="44.19493" lon="3.16629">
        <ele>586.8</ele>
        <time>2021-10-31T15:50:15Z</time>
      </trkpt>
      <trkpt lat="44.19493" lon="3.16636">
        <ele>585.7</ele>
        <time>2021-10-31T15:50:35Z</time>
      </trkpt>
      <trkpt lat="44.19492" lon="3.16642">
        <ele>584.7</ele>
        <time>2021-10-31T15:50:37Z</time>
      </trkpt>
      <trkpt lat="44.1949" lon="3.16647">
        <ele>583.6</ele>
        <time>2021-10-31T15:50:38Z</time>
      </trkpt>
      <trkpt lat="44.19487" lon="3.16655">
        <ele>582.1</ele>
        <time>2021-10-31T15:50:40Z</time>
      </trkpt>
      <trkpt lat="44.19486" lon="3.16659">
        <ele>580.1</ele>
        <time>2021-10-31T15:50:41Z</time>
      </trkpt>
      <trkpt lat="44.19485" lon="3.16663">
        <ele>580.3</ele>
        <time>2021-10-31T15:50:42Z</time>
      </trkpt>
      <trkpt lat="44.19483" lon="3.16668">
        <ele>578.2</ele>
        <time>2021-10-31T15:50:44Z</time>
      </trkpt>
      <trkpt lat="44.19481" lon="3.16675">
        <ele>576.8</ele>
        <time>2021-10-31T15:50:45Z</time>
      </trkpt>
      <trkpt lat="44.19478" lon="3.16677">
        <ele>577.6</ele>
        <time>2021-10-31T15:50:46Z</time>
      </trkpt>
      <trkpt lat="44.19476" lon="3.16681">
        <ele>580.5</ele>
        <time>2021-10-31T15:50:48Z</time>
      </trkpt>
      <trkpt lat="44.19472" lon="3.16685">
        <ele>581.4</ele>
        <time>2021-10-31T15:50:49Z</time>
      </trkpt>
      <trkpt lat="44.19469" lon="3.16691">
        <ele>580.2</ele>
        <time>2021-10-31T15:50:51Z</time>
      </trkpt>
      <trkpt lat="44.19468" lon="3.16692">
        <ele>580.2</ele>
        <time>2021-10-31T15:50:52Z</time>
      </trkpt>
      <trkpt lat="44.19467" lon="3.16694">
        <ele>578.1</ele>
        <time>2021-10-31T15:50:53Z</time>
      </trkpt>
      <trkpt lat="44.19466" lon="3.16697">
        <ele>580.7</ele>
        <time>2021-10-31T15:50:55Z</time>
      </trkpt>
      <trkpt lat="44.19466" lon="3.16698">
        <ele>578.5</ele>
        <time>2021-10-31T15:50:56Z</time>
      </trkpt>
      <trkpt lat="44.19465" lon="3.16699">
        <ele>578.6</ele>
        <time>2021-10-31T15:50:57Z</time>
      </trkpt>
      <trkpt lat="44.19465" lon="3.167">
        <ele>578.6</ele>
        <time>2021-10-31T15:50:58Z</time>
      </trkpt>
      <trkpt lat="44.19465" lon="3.16701">
        <ele>578.7</ele>
        <time>2021-10-31T15:51:00Z</time>
      </trkpt>
      <trkpt lat="44.19466" lon="3.16701">
        <ele>578.7</ele>
        <time>2021-10-31T15:51:01Z</time>
      </trkpt>
      <trkpt lat="44.19467" lon="3.16701">
        <ele>578.8</ele>
        <time>2021-10-31T15:51:02Z</time>
      </trkpt>
      <trkpt lat="44.19468" lon="3.16701">
        <ele>576.3</ele>
        <time>2021-10-31T15:51:05Z</time>
      </trkpt>
      <trkpt lat="44.19467" lon="3.16716">
        <ele>567.5</ele>
        <time>2021-10-31T15:51:58Z</time>
      </trkpt>
      <trkpt lat="44.19467" lon="3.16715">
        <ele>567.3</ele>
        <time>2021-10-31T15:52:00Z</time>
      </trkpt>
      <trkpt lat="44.19468" lon="3.16715">
        <ele>567.1</ele>
        <time>2021-10-31T15:52:06Z</time>
      </trkpt>
      <trkpt lat="44.19468" lon="3.16716">
        <ele>567</ele>
        <time>2021-10-31T15:52:09Z</time>
      </trkpt>
      <trkpt lat="44.19468" lon="3.16717">
        <ele>566.8</ele>
        <time>2021-10-31T15:52:12Z</time>
      </trkpt>
      <trkpt lat="44.19469" lon="3.16717">
        <ele>566.6</ele>
        <time>2021-10-31T15:52:13Z</time>
      </trkpt>
      <trkpt lat="44.1947" lon="3.16717">
        <ele>566.3</ele>
        <time>2021-10-31T15:52:15Z</time>
      </trkpt>
      <trkpt lat="44.19474" lon="3.16716">
        <ele>565.2</ele>
        <time>2021-10-31T15:52:16Z</time>
      </trkpt>
      <trkpt lat="44.19478" lon="3.16715">
        <ele>564.3</ele>
        <time>2021-10-31T15:52:17Z</time>
      </trkpt>
      <trkpt lat="44.19483" lon="3.16713">
        <ele>563.2</ele>
        <time>2021-10-31T15:52:19Z</time>
      </trkpt>
      <trkpt lat="44.19487" lon="3.16711">
        <ele>562.2</ele>
        <time>2021-10-31T15:52:20Z</time>
      </trkpt>
      <trkpt lat="44.19491" lon="3.16709">
        <ele>561.3</ele>
        <time>2021-10-31T15:52:21Z</time>
      </trkpt>
      <trkpt lat="44.19495" lon="3.16707">
        <ele>560.3</ele>
        <time>2021-10-31T15:52:22Z</time>
      </trkpt>
      <trkpt lat="44.19499" lon="3.16706">
        <ele>559.5</ele>
        <time>2021-10-31T15:52:24Z</time>
      </trkpt>
      <trkpt lat="44.19504" lon="3.16705">
        <ele>558.3</ele>
        <time>2021-10-31T15:52:25Z</time>
      </trkpt>
      <trkpt lat="44.19517" lon="3.16696">
        <ele>555.1</ele>
        <time>2021-10-31T15:52:28Z</time>
      </trkpt>
      <trkpt lat="44.19519" lon="3.16695">
        <ele>554.4</ele>
        <time>2021-10-31T15:52:29Z</time>
      </trkpt>
      <trkpt lat="44.19524" lon="3.16692">
        <ele>553.3</ele>
        <time>2021-10-31T15:52:30Z</time>
      </trkpt>
      <trkpt lat="44.19527" lon="3.16686">
        <ele>552.2</ele>
        <time>2021-10-31T15:52:32Z</time>
      </trkpt>
      <trkpt lat="44.1953" lon="3.1668">
        <ele>551</ele>
        <time>2021-10-31T15:52:33Z</time>
      </trkpt>
      <trkpt lat="44.19534" lon="3.16676">
        <ele>550.2</ele>
        <time>2021-10-31T15:52:34Z</time>
      </trkpt>
      <trkpt lat="44.19539" lon="3.16668">
        <ele>548.9</ele>
        <time>2021-10-31T15:52:35Z</time>
      </trkpt>
      <trkpt lat="44.19544" lon="3.16662">
        <ele>547.6</ele>
        <time>2021-10-31T15:52:37Z</time>
      </trkpt>
      <trkpt lat="44.19548" lon="3.16659">
        <ele>546.7</ele>
        <time>2021-10-31T15:52:38Z</time>
      </trkpt>
      <trkpt lat="44.19553" lon="3.16655">
        <ele>545.7</ele>
        <time>2021-10-31T15:52:39Z</time>
      </trkpt>
      <trkpt lat="44.19564" lon="3.16648">
        <ele>543.4</ele>
        <time>2021-10-31T15:52:40Z</time>
      </trkpt>
      <trkpt lat="44.19568" lon="3.16642">
        <ele>542.3</ele>
        <time>2021-10-31T15:52:42Z</time>
      </trkpt>
      <trkpt lat="44.19575" lon="3.1664">
        <ele>541.1</ele>
        <time>2021-10-31T15:52:43Z</time>
      </trkpt>
      <trkpt lat="44.19582" lon="3.16638">
        <ele>539.8</ele>
        <time>2021-10-31T15:52:44Z</time>
      </trkpt>
      <trkpt lat="44.19588" lon="3.16637">
        <ele>538.7</ele>
        <time>2021-10-31T15:52:46Z</time>
      </trkpt>
      <trkpt lat="44.19605" lon="3.16632">
        <ele>535.6</ele>
        <time>2021-10-31T15:52:48Z</time>
      </trkpt>
      <trkpt lat="44.19612" lon="3.16628">
        <ele>534.3</ele>
        <time>2021-10-31T15:52:49Z</time>
      </trkpt>
      <trkpt lat="44.1962" lon="3.16622">
        <ele>532.8</ele>
        <time>2021-10-31T15:52:51Z</time>
      </trkpt>
      <trkpt lat="44.19624" lon="3.16619">
        <ele>532.1</ele>
        <time>2021-10-31T15:52:52Z</time>
      </trkpt>
      <trkpt lat="44.19624" lon="3.16618">
        <ele>532</ele>
        <time>2021-10-31T15:52:54Z</time>
      </trkpt>
      <trkpt lat="44.19622" lon="3.1662">
        <ele>531.6</ele>
        <time>2021-10-31T15:52:55Z</time>
      </trkpt>
      <trkpt lat="44.19622" lon="3.16622">
        <ele>531.3</ele>
        <time>2021-10-31T15:52:57Z</time>
      </trkpt>
      <trkpt lat="44.19622" lon="3.16623">
        <ele>531.2</ele>
        <time>2021-10-31T15:52:59Z</time>
      </trkpt>
      <trkpt lat="44.19622" lon="3.16622">
        <ele>531.1</ele>
        <time>2021-10-31T15:53:02Z</time>
      </trkpt>
      <trkpt lat="44.1962" lon="3.16625">
        <ele>530.5</ele>
        <time>2021-10-31T15:53:53Z</time>
      </trkpt>
      <trkpt lat="44.19619" lon="3.16625">
        <ele>530.4</ele>
        <time>2021-10-31T15:53:58Z</time>
      </trkpt>
      <trkpt lat="44.19619" lon="3.16627">
        <ele>530.1</ele>
        <time>2021-10-31T15:54:00Z</time>
      </trkpt>
      <trkpt lat="44.19619" lon="3.16626">
        <ele>529.9</ele>
        <time>2021-10-31T15:54:01Z</time>
      </trkpt>
      <trkpt lat="44.1962" lon="3.16626">
        <ele>529.9</ele>
        <time>2021-10-31T15:54:02Z</time>
      </trkpt>
      <trkpt lat="44.19619" lon="3.16627">
        <ele>529.8</ele>
        <time>2021-10-31T15:54:05Z</time>
      </trkpt>
      <trkpt lat="44.19619" lon="3.16628">
        <ele>529.6</ele>
        <time>2021-10-31T15:54:11Z</time>
      </trkpt>
      <trkpt lat="44.19621" lon="3.16628">
        <ele>529.2</ele>
        <time>2021-10-31T15:54:21Z</time>
      </trkpt>
      <trkpt lat="44.19621" lon="3.16627">
        <ele>529.1</ele>
        <time>2021-10-31T15:54:22Z</time>
      </trkpt>
      <trkpt lat="44.19622" lon="3.16627">
        <ele>528.9</ele>
        <time>2021-10-31T15:54:24Z</time>
      </trkpt>
      <trkpt lat="44.19623" lon="3.16628">
        <ele>528.7</ele>
        <time>2021-10-31T15:54:31Z</time>
      </trkpt>
      <trkpt lat="44.19623" lon="3.16629">
        <ele>528.5</ele>
        <time>2021-10-31T15:54:33Z</time>
      </trkpt>
      <trkpt lat="44.19624" lon="3.16629">
        <ele>528.3</ele>
        <time>2021-10-31T15:54:36Z</time>
      </trkpt>
      <trkpt lat="44.19624" lon="3.16628">
        <ele>528.2</ele>
        <time>2021-10-31T15:54:37Z</time>
      </trkpt>
      <trkpt lat="44.19625" lon="3.16629">
        <ele>528.1</ele>
        <time>2021-10-31T15:54:38Z</time>
      </trkpt>
      <trkpt lat="44.19626" lon="3.16629">
        <ele>527.7</ele>
        <time>2021-10-31T15:54:40Z</time>
      </trkpt>
      <trkpt lat="44.19628" lon="3.16629">
        <ele>527.2</ele>
        <time>2021-10-31T15:54:42Z</time>
      </trkpt>
      <trkpt lat="44.19632" lon="3.16628">
        <ele>526.3</ele>
        <time>2021-10-31T15:54:43Z</time>
      </trkpt>
      <trkpt lat="44.19638" lon="3.16626">
        <ele>525.2</ele>
        <time>2021-10-31T15:54:44Z</time>
      </trkpt>
      <trkpt lat="44.19643" lon="3.16624">
        <ele>524.2</ele>
        <time>2021-10-31T15:54:46Z</time>
      </trkpt>
      <trkpt lat="44.19652" lon="3.1662">
        <ele>522.4</ele>
        <time>2021-10-31T15:54:47Z</time>
      </trkpt>
      <trkpt lat="44.19658" lon="3.16617">
        <ele>521.2</ele>
        <time>2021-10-31T15:54:48Z</time>
      </trkpt>
      <trkpt lat="44.19664" lon="3.16615">
        <ele>520</ele>
        <time>2021-10-31T15:54:50Z</time>
      </trkpt>
      <trkpt lat="44.1967" lon="3.16613">
        <ele>518.8</ele>
        <time>2021-10-31T15:54:51Z</time>
      </trkpt>
      <trkpt lat="44.19676" lon="3.16612">
        <ele>517.7</ele>
        <time>2021-10-31T15:54:52Z</time>
      </trkpt>
      <trkpt lat="44.19686" lon="3.16608">
        <ele>515.6</ele>
        <time>2021-10-31T15:54:54Z</time>
      </trkpt>
      <trkpt lat="44.19692" lon="3.16605">
        <ele>514.2</ele>
        <time>2021-10-31T15:54:56Z</time>
      </trkpt>
      <trkpt lat="44.19695" lon="3.16605">
        <ele>513.5</ele>
        <time>2021-10-31T15:54:57Z</time>
      </trkpt>
      <trkpt lat="44.19696" lon="3.16605">
        <ele>513.3</ele>
        <time>2021-10-31T15:54:58Z</time>
      </trkpt>
      <trkpt lat="44.19698" lon="3.16607">
        <ele>511.8</ele>
        <time>2021-10-31T15:54:59Z</time>
      </trkpt>
      <trkpt lat="44.19699" lon="3.16608">
        <ele>511.7</ele>
        <time>2021-10-31T15:55:00Z</time>
      </trkpt>
      <trkpt lat="44.19701" lon="3.1661">
        <ele>511.2</ele>
        <time>2021-10-31T15:55:02Z</time>
      </trkpt>
      <trkpt lat="44.19703" lon="3.16612">
        <ele>510.7</ele>
        <time>2021-10-31T15:55:04Z</time>
      </trkpt>
      <trkpt lat="44.19705" lon="3.16615">
        <ele>510.2</ele>
        <time>2021-10-31T15:55:05Z</time>
      </trkpt>
      <trkpt lat="44.19708" lon="3.16616">
        <ele>509.6</ele>
        <time>2021-10-31T15:55:07Z</time>
      </trkpt>
      <trkpt lat="44.19711" lon="3.16618">
        <ele>509.1</ele>
        <time>2021-10-31T15:55:08Z</time>
      </trkpt>
      <trkpt lat="44.19714" lon="3.16619">
        <ele>508.5</ele>
        <time>2021-10-31T15:55:10Z</time>
      </trkpt>
      <trkpt lat="44.19717" lon="3.16622">
        <ele>507.8</ele>
        <time>2021-10-31T15:55:11Z</time>
      </trkpt>
      <trkpt lat="44.1972" lon="3.16626">
        <ele>507</ele>
        <time>2021-10-31T15:55:13Z</time>
      </trkpt>
      <trkpt lat="44.19721" lon="3.16627">
        <ele>506.7</ele>
        <time>2021-10-31T15:55:14Z</time>
      </trkpt>
      <trkpt lat="44.19722" lon="3.16629">
        <ele>506.4</ele>
        <time>2021-10-31T15:55:15Z</time>
      </trkpt>
      <trkpt lat="44.19724" lon="3.1663">
        <ele>506.1</ele>
        <time>2021-10-31T15:55:16Z</time>
      </trkpt>
      <trkpt lat="44.19727" lon="3.16631">
        <ele>505.6</ele>
        <time>2021-10-31T15:55:18Z</time>
      </trkpt>
      <trkpt lat="44.19728" lon="3.16632">
        <ele>505.3</ele>
        <time>2021-10-31T15:55:19Z</time>
      </trkpt>
      <trkpt lat="44.19728" lon="3.16635">
        <ele>504.9</ele>
        <time>2021-10-31T15:55:20Z</time>
      </trkpt>
      <trkpt lat="44.19729" lon="3.16638">
        <ele>504.5</ele>
        <time>2021-10-31T15:55:21Z</time>
      </trkpt>
      <trkpt lat="44.1973" lon="3.1664">
        <ele>504.2</ele>
        <time>2021-10-31T15:55:23Z</time>
      </trkpt>
      <trkpt lat="44.19733" lon="3.16644">
        <ele>503.5</ele>
        <time>2021-10-31T15:55:25Z</time>
      </trkpt>
      <trkpt lat="44.19735" lon="3.16648">
        <ele>502.8</ele>
        <time>2021-10-31T15:55:26Z</time>
      </trkpt>
      <trkpt lat="44.19737" lon="3.1665">
        <ele>502.4</ele>
        <time>2021-10-31T15:55:28Z</time>
      </trkpt>
      <trkpt lat="44.19738" lon="3.16652">
        <ele>501.9</ele>
        <time>2021-10-31T15:55:30Z</time>
      </trkpt>
      <trkpt lat="44.19739" lon="3.16653">
        <ele>501.7</ele>
        <time>2021-10-31T15:55:32Z</time>
      </trkpt>
      <trkpt lat="44.1974" lon="3.16654">
        <ele>501.4</ele>
        <time>2021-10-31T15:55:33Z</time>
      </trkpt>
      <trkpt lat="44.19741" lon="3.16655">
        <ele>501.2</ele>
        <time>2021-10-31T15:55:34Z</time>
      </trkpt>
      <trkpt lat="44.19747" lon="3.16662">
        <ele>499.6</ele>
        <time>2021-10-31T15:55:36Z</time>
      </trkpt>
      <trkpt lat="44.1975" lon="3.16667">
        <ele>498.6</ele>
        <time>2021-10-31T15:55:38Z</time>
      </trkpt>
      <trkpt lat="44.19754" lon="3.16674">
        <ele>497.4</ele>
        <time>2021-10-31T15:55:39Z</time>
      </trkpt>
      <trkpt lat="44.19757" lon="3.16677">
        <ele>496.7</ele>
        <time>2021-10-31T15:55:40Z</time>
      </trkpt>
      <trkpt lat="44.19762" lon="3.16679">
        <ele>495.6</ele>
        <time>2021-10-31T15:55:42Z</time>
      </trkpt>
      <trkpt lat="44.19764" lon="3.1668">
        <ele>495.3</ele>
        <time>2021-10-31T15:55:43Z</time>
      </trkpt>
      <trkpt lat="44.19765" lon="3.16681">
        <ele>494.9</ele>
        <time>2021-10-31T15:55:44Z</time>
      </trkpt>
      <trkpt lat="44.19768" lon="3.16683">
        <ele>494.3</ele>
        <time>2021-10-31T15:55:45Z</time>
      </trkpt>
      <trkpt lat="44.19771" lon="3.16684">
        <ele>493.7</ele>
        <time>2021-10-31T15:55:47Z</time>
      </trkpt>
      <trkpt lat="44.19775" lon="3.16685">
        <ele>492.9</ele>
        <time>2021-10-31T15:55:49Z</time>
      </trkpt>
      <trkpt lat="44.19779" lon="3.16687">
        <ele>492</ele>
        <time>2021-10-31T15:55:50Z</time>
      </trkpt>
      <trkpt lat="44.19784" lon="3.16689">
        <ele>491</ele>
        <time>2021-10-31T15:55:52Z</time>
      </trkpt>
      <trkpt lat="44.19789" lon="3.16692">
        <ele>490</ele>
        <time>2021-10-31T15:55:53Z</time>
      </trkpt>
      <trkpt lat="44.19792" lon="3.16695">
        <ele>489.2</ele>
        <time>2021-10-31T15:55:55Z</time>
      </trkpt>
      <trkpt lat="44.19795" lon="3.16698">
        <ele>488.5</ele>
        <time>2021-10-31T15:55:56Z</time>
      </trkpt>
      <trkpt lat="44.19798" lon="3.16702">
        <ele>487.8</ele>
        <time>2021-10-31T15:55:58Z</time>
      </trkpt>
      <trkpt lat="44.198" lon="3.16705">
        <ele>487.1</ele>
        <time>2021-10-31T15:55:59Z</time>
      </trkpt>
      <trkpt lat="44.19802" lon="3.16706">
        <ele>486.9</ele>
        <time>2021-10-31T15:56:00Z</time>
      </trkpt>
      <trkpt lat="44.19803" lon="3.16707">
        <ele>486.6</ele>
        <time>2021-10-31T15:56:03Z</time>
      </trkpt>
      <trkpt lat="44.19804" lon="3.16708">
        <ele>486.4</ele>
        <time>2021-10-31T15:56:04Z</time>
      </trkpt>
      <trkpt lat="44.19805" lon="3.16708">
        <ele>486.3</ele>
        <time>2021-10-31T15:56:05Z</time>
      </trkpt>
      <trkpt lat="44.19805" lon="3.16709">
        <ele>486.1</ele>
        <time>2021-10-31T15:56:07Z</time>
      </trkpt>
      <trkpt lat="44.19806" lon="3.1671">
        <ele>485.9</ele>
        <time>2021-10-31T15:56:09Z</time>
      </trkpt>
      <trkpt lat="44.19806" lon="3.16711">
        <ele>485.9</ele>
        <time>2021-10-31T15:56:10Z</time>
      </trkpt>
      <trkpt lat="44.19807" lon="3.16711">
        <ele>485.7</ele>
        <time>2021-10-31T15:56:11Z</time>
      </trkpt>
      <trkpt lat="44.19807" lon="3.16712">
        <ele>485.6</ele>
        <time>2021-10-31T15:56:13Z</time>
      </trkpt>
      <trkpt lat="44.19813" lon="3.16719">
        <ele>484.3</ele>
        <time>2021-10-31T15:56:37Z</time>
      </trkpt>
      <trkpt lat="44.19813" lon="3.16722">
        <ele>484</ele>
        <time>2021-10-31T15:56:39Z</time>
      </trkpt>
      <trkpt lat="44.19814" lon="3.16724">
        <ele>483.7</ele>
        <time>2021-10-31T15:56:40Z</time>
      </trkpt>
      <trkpt lat="44.19816" lon="3.16729">
        <ele>483</ele>
        <time>2021-10-31T15:56:42Z</time>
      </trkpt>
      <trkpt lat="44.19817" lon="3.1673">
        <ele>482.7</ele>
        <time>2021-10-31T15:56:43Z</time>
      </trkpt>
      <trkpt lat="44.19819" lon="3.16732">
        <ele>482.3</ele>
        <time>2021-10-31T15:56:44Z</time>
      </trkpt>
      <trkpt lat="44.19823" lon="3.16734">
        <ele>481.6</ele>
        <time>2021-10-31T15:56:46Z</time>
      </trkpt>
      <trkpt lat="44.19827" lon="3.16737">
        <ele>480.7</ele>
        <time>2021-10-31T15:56:47Z</time>
      </trkpt>
      <trkpt lat="44.19831" lon="3.16741">
        <ele>479.8</ele>
        <time>2021-10-31T15:56:49Z</time>
      </trkpt>
      <trkpt lat="44.19835" lon="3.16744">
        <ele>479</ele>
        <time>2021-10-31T15:56:51Z</time>
      </trkpt>
      <trkpt lat="44.19839" lon="3.16747">
        <ele>478.1</ele>
        <time>2021-10-31T15:56:52Z</time>
      </trkpt>
      <trkpt lat="44.19842" lon="3.1675">
        <ele>477.5</ele>
        <time>2021-10-31T15:56:54Z</time>
      </trkpt>
      <trkpt lat="44.19844" lon="3.16752">
        <ele>477</ele>
        <time>2021-10-31T15:56:55Z</time>
      </trkpt>
      <trkpt lat="44.19848" lon="3.16752">
        <ele>476.3</ele>
        <time>2021-10-31T15:56:57Z</time>
      </trkpt>
      <trkpt lat="44.19851" lon="3.16753">
        <ele>475.8</ele>
        <time>2021-10-31T15:56:58Z</time>
      </trkpt>
      <trkpt lat="44.19853" lon="3.16754">
        <ele>475.4</ele>
        <time>2021-10-31T15:56:59Z</time>
      </trkpt>
      <trkpt lat="44.19855" lon="3.16755">
        <ele>475.1</ele>
        <time>2021-10-31T15:57:01Z</time>
      </trkpt>
      <trkpt lat="44.19857" lon="3.16758">
        <ele>474.5</ele>
        <time>2021-10-31T15:57:02Z</time>
      </trkpt>
      <trkpt lat="44.19859" lon="3.16759">
        <ele>472.2</ele>
        <time>2021-10-31T15:57:03Z</time>
      </trkpt>
      <trkpt lat="44.19862" lon="3.1676">
        <ele>470.3</ele>
        <time>2021-10-31T15:57:05Z</time>
      </trkpt>
      <trkpt lat="44.19867" lon="3.16761">
        <ele>467.3</ele>
        <time>2021-10-31T15:57:06Z</time>
      </trkpt>
      <trkpt lat="44.19869" lon="3.16761">
        <ele>466.5</ele>
        <time>2021-10-31T15:57:07Z</time>
      </trkpt>
      <trkpt lat="44.19872" lon="3.1676">
        <ele>464.6</ele>
        <time>2021-10-31T15:57:09Z</time>
      </trkpt>
      <trkpt lat="44.19873" lon="3.1676">
        <ele>462.7</ele>
        <time>2021-10-31T15:57:10Z</time>
      </trkpt>
      <trkpt lat="44.19874" lon="3.1676">
        <ele>462</ele>
        <time>2021-10-31T15:57:11Z</time>
      </trkpt>
      <trkpt lat="44.19875" lon="3.16761">
        <ele>461.2</ele>
        <time>2021-10-31T15:57:12Z</time>
      </trkpt>
      <trkpt lat="44.19876" lon="3.16762">
        <ele>459.2</ele>
        <time>2021-10-31T15:57:13Z</time>
      </trkpt>
      <trkpt lat="44.19877" lon="3.16762">
        <ele>458.5</ele>
        <time>2021-10-31T15:57:14Z</time>
      </trkpt>
      <trkpt lat="44.19878" lon="3.16763">
        <ele>457.5</ele>
        <time>2021-10-31T15:57:15Z</time>
      </trkpt>
      <trkpt lat="44.19878" lon="3.16764">
        <ele>456.7</ele>
        <time>2021-10-31T15:57:17Z</time>
      </trkpt>
      <trkpt lat="44.19878" lon="3.16765">
        <ele>454.4</ele>
        <time>2021-10-31T15:57:21Z</time>
      </trkpt>
      <trkpt lat="44.19878" lon="3.16766">
        <ele>452</ele>
        <time>2021-10-31T15:57:25Z</time>
      </trkpt>
      <trkpt lat="44.19878" lon="3.16767">
        <ele>451</ele>
        <time>2021-10-31T15:57:26Z</time>
      </trkpt>
      <trkpt lat="44.19881" lon="3.16771">
        <ele>448.1</ele>
        <time>2021-10-31T15:57:31Z</time>
      </trkpt>
      <trkpt lat="44.19886" lon="3.16777">
        <ele>444.6</ele>
        <time>2021-10-31T15:57:33Z</time>
      </trkpt>
      <trkpt lat="44.19891" lon="3.16785">
        <ele>440.9</ele>
        <time>2021-10-31T15:57:34Z</time>
      </trkpt>
      <trkpt lat="44.19896" lon="3.1679">
        <ele>438.7</ele>
        <time>2021-10-31T15:57:35Z</time>
      </trkpt>
      <trkpt lat="44.199" lon="3.16794">
        <ele>436.6</ele>
        <time>2021-10-31T15:57:36Z</time>
      </trkpt>
      <trkpt lat="44.19904" lon="3.16798">
        <ele>433.4</ele>
        <time>2021-10-31T15:57:38Z</time>
      </trkpt>
      <trkpt lat="44.19909" lon="3.16804">
        <ele>431.4</ele>
        <time>2021-10-31T15:57:40Z</time>
      </trkpt>
      <trkpt lat="44.19911" lon="3.16809">
        <ele>429.4</ele>
        <time>2021-10-31T15:57:41Z</time>
      </trkpt>
      <trkpt lat="44.19911" lon="3.16814">
        <ele>428.4</ele>
        <time>2021-10-31T15:57:43Z</time>
      </trkpt>
      <trkpt lat="44.19908" lon="3.16819">
        <ele>428.6</ele>
        <time>2021-10-31T15:57:45Z</time>
      </trkpt>
      <trkpt lat="44.19905" lon="3.16821">
        <ele>428.8</ele>
        <time>2021-10-31T15:57:46Z</time>
      </trkpt>
      <trkpt lat="44.19903" lon="3.16821">
        <ele>429.1</ele>
        <time>2021-10-31T15:57:47Z</time>
      </trkpt>
      <trkpt lat="44.199" lon="3.16822">
        <ele>429.4</ele>
        <time>2021-10-31T15:57:48Z</time>
      </trkpt>
      <trkpt lat="44.19898" lon="3.16822">
        <ele>427.9</ele>
        <time>2021-10-31T15:57:50Z</time>
      </trkpt>
      <trkpt lat="44.19897" lon="3.16824">
        <ele>428.1</ele>
        <time>2021-10-31T15:57:52Z</time>
      </trkpt>
      <trkpt lat="44.19896" lon="3.16827">
        <ele>427.2</ele>
        <time>2021-10-31T15:57:54Z</time>
      </trkpt>
      <trkpt lat="44.19895" lon="3.16831">
        <ele>426.2</ele>
        <time>2021-10-31T15:57:55Z</time>
      </trkpt>
      <trkpt lat="44.19894" lon="3.16834">
        <ele>425.4</ele>
        <time>2021-10-31T15:57:56Z</time>
      </trkpt>
      <trkpt lat="44.19892" lon="3.16836">
        <ele>425.6</ele>
        <time>2021-10-31T15:57:57Z</time>
      </trkpt>
      <trkpt lat="44.19891" lon="3.16837">
        <ele>426</ele>
        <time>2021-10-31T15:57:58Z</time>
      </trkpt>
      <trkpt lat="44.1989" lon="3.16839">
        <ele>425.2</ele>
        <time>2021-10-31T15:58:00Z</time>
      </trkpt>
      <trkpt lat="44.19889" lon="3.1684">
        <ele>424.3</ele>
        <time>2021-10-31T15:58:01Z</time>
      </trkpt>
      <trkpt lat="44.19888" lon="3.16845">
        <ele>423.3</ele>
        <time>2021-10-31T15:58:02Z</time>
      </trkpt>
      <trkpt lat="44.19888" lon="3.16846">
        <ele>423.6</ele>
        <time>2021-10-31T15:58:03Z</time>
      </trkpt>
      <trkpt lat="44.19887" lon="3.16851">
        <ele>422.7</ele>
        <time>2021-10-31T15:58:04Z</time>
      </trkpt>
      <trkpt lat="44.19887" lon="3.16854">
        <ele>422.3</ele>
        <time>2021-10-31T15:58:06Z</time>
      </trkpt>
      <trkpt lat="44.19887" lon="3.16856">
        <ele>422</ele>
        <time>2021-10-31T15:58:07Z</time>
      </trkpt>
      <trkpt lat="44.19888" lon="3.1686">
        <ele>421.4</ele>
        <time>2021-10-31T15:58:08Z</time>
      </trkpt>
      <trkpt lat="44.1989" lon="3.16865">
        <ele>420.6</ele>
        <time>2021-10-31T15:58:09Z</time>
      </trkpt>
      <trkpt lat="44.19894" lon="3.1687">
        <ele>419.5</ele>
        <time>2021-10-31T15:58:11Z</time>
      </trkpt>
      <trkpt lat="44.19914" lon="3.16892">
        <ele>414.5</ele>
        <time>2021-10-31T15:58:12Z</time>
      </trkpt>
      <trkpt lat="44.19921" lon="3.16897">
        <ele>413</ele>
        <time>2021-10-31T15:58:14Z</time>
      </trkpt>
      <trkpt lat="44.19938" lon="3.16919">
        <ele>409</ele>
        <time>2021-10-31T15:58:16Z</time>
      </trkpt>
      <trkpt lat="44.19957" lon="3.16946">
        <ele>404.5</ele>
        <time>2021-10-31T15:58:18Z</time>
      </trkpt>
      <trkpt lat="44.19973" lon="3.16966">
        <ele>400.7</ele>
        <time>2021-10-31T15:58:20Z</time>
      </trkpt>
      <trkpt lat="44.19978" lon="3.16975">
        <ele>399</ele>
        <time>2021-10-31T15:58:21Z</time>
      </trkpt>
      <trkpt lat="44.19983" lon="3.16983">
        <ele>397.3</ele>
        <time>2021-10-31T15:58:22Z</time>
      </trkpt>
      <trkpt lat="44.19987" lon="3.16992">
        <ele>395.7</ele>
        <time>2021-10-31T15:58:23Z</time>
      </trkpt>
      <trkpt lat="44.1999" lon="3.17001">
        <ele>394.3</ele>
        <time>2021-10-31T15:58:24Z</time>
      </trkpt>
      <trkpt lat="44.19996" lon="3.17018">
        <ele>391.6</ele>
        <time>2021-10-31T15:58:26Z</time>
      </trkpt>
      <trkpt lat="44.2" lon="3.17026">
        <ele>389.9</ele>
        <time>2021-10-31T15:58:28Z</time>
      </trkpt>
      <trkpt lat="44.20001" lon="3.17025">
        <ele>389.9</ele>
        <time>2021-10-31T15:58:29Z</time>
      </trkpt>
      <trkpt lat="44.20002" lon="3.17024">
        <ele>389.9</ele>
        <time>2021-10-31T15:58:31Z</time>
      </trkpt>
      <trkpt lat="44.20003" lon="3.17023">
        <ele>389.9</ele>
        <time>2021-10-31T15:58:32Z</time>
      </trkpt>
      <trkpt lat="44.20003" lon="3.17022">
        <ele>389.9</ele>
        <time>2021-10-31T15:58:34Z</time>
      </trkpt>
      <trkpt lat="44.20004" lon="3.17021">
        <ele>389.9</ele>
        <time>2021-10-31T15:58:35Z</time>
      </trkpt>
      <trkpt lat="44.20005" lon="3.17019">
        <ele>389.9</ele>
        <time>2021-10-31T15:58:36Z</time>
      </trkpt>
      <trkpt lat="44.20006" lon="3.17016">
        <ele>389.9</ele>
        <time>2021-10-31T15:58:39Z</time>
      </trkpt>
      <trkpt lat="44.20007" lon="3.17017">
        <ele>389.9</ele>
        <time>2021-10-31T15:58:41Z</time>
      </trkpt>
      <trkpt lat="44.20007" lon="3.17016">
        <ele>389.9</ele>
        <time>2021-10-31T15:58:42Z</time>
      </trkpt>
      <trkpt lat="44.20008" lon="3.17016">
        <ele>389.9</ele>
        <time>2021-10-31T15:58:50Z</time>
      </trkpt>
      <trkpt lat="44.20008" lon="3.17009">
        <ele>389.8</ele>
        <time>2021-10-31T15:59:06Z</time>
      </trkpt>
      <trkpt lat="44.20009" lon="3.17005">
        <ele>389.8</ele>
        <time>2021-10-31T15:59:07Z</time>
      </trkpt>
      <trkpt lat="44.2001" lon="3.16998">
        <ele>389.8</ele>
        <time>2021-10-31T15:59:09Z</time>
      </trkpt>
      <trkpt lat="44.20012" lon="3.16992">
        <ele>389.8</ele>
        <time>2021-10-31T15:59:10Z</time>
      </trkpt>
      <trkpt lat="44.20013" lon="3.16987">
        <ele>389.7</ele>
        <time>2021-10-31T15:59:12Z</time>
      </trkpt>
      <trkpt lat="44.20015" lon="3.16982">
        <ele>389.7</ele>
        <time>2021-10-31T15:59:13Z</time>
      </trkpt>
      <trkpt lat="44.20016" lon="3.16978">
        <ele>389.6</ele>
        <time>2021-10-31T15:59:14Z</time>
      </trkpt>
      <trkpt lat="44.20016" lon="3.16974">
        <ele>389.6</ele>
        <time>2021-10-31T15:59:15Z</time>
      </trkpt>
      <trkpt lat="44.20019" lon="3.16969">
        <ele>389.5</ele>
        <time>2021-10-31T15:59:17Z</time>
      </trkpt>
      <trkpt lat="44.2002" lon="3.16964">
        <ele>389.5</ele>
        <time>2021-10-31T15:59:18Z</time>
      </trkpt>
      <trkpt lat="44.20022" lon="3.1696">
        <ele>389.4</ele>
        <time>2021-10-31T15:59:19Z</time>
      </trkpt>
      <trkpt lat="44.20023" lon="3.16959">
        <ele>389.4</ele>
        <time>2021-10-31T15:59:20Z</time>
      </trkpt>
      <trkpt lat="44.20023" lon="3.16957">
        <ele>389.4</ele>
        <time>2021-10-31T15:59:21Z</time>
      </trkpt>
      <trkpt lat="44.20022" lon="3.16954">
        <ele>389.4</ele>
        <time>2021-10-31T15:59:23Z</time>
      </trkpt>
      <trkpt lat="44.20022" lon="3.16949">
        <ele>389.4</ele>
        <time>2021-10-31T15:59:24Z</time>
      </trkpt>
      <trkpt lat="44.20022" lon="3.16945">
        <ele>389.4</ele>
        <time>2021-10-31T15:59:25Z</time>
      </trkpt>
      <trkpt lat="44.20023" lon="3.16943">
        <ele>389.4</ele>
        <time>2021-10-31T15:59:26Z</time>
      </trkpt>
      <trkpt lat="44.20023" lon="3.16938">
        <ele>389.3</ele>
        <time>2021-10-31T15:59:28Z</time>
      </trkpt>
      <trkpt lat="44.20024" lon="3.16933">
        <ele>389.3</ele>
        <time>2021-10-31T15:59:29Z</time>
      </trkpt>
      <trkpt lat="44.20025" lon="3.16927">
        <ele>389.3</ele>
        <time>2021-10-31T15:59:30Z</time>
      </trkpt>
      <trkpt lat="44.20027" lon="3.16922">
        <ele>389.3</ele>
        <time>2021-10-31T15:59:32Z</time>
      </trkpt>
      <trkpt lat="44.20028" lon="3.16916">
        <ele>389.3</ele>
        <time>2021-10-31T15:59:33Z</time>
      </trkpt>
      <trkpt lat="44.2003" lon="3.1691">
        <ele>389.2</ele>
        <time>2021-10-31T15:59:34Z</time>
      </trkpt>
      <trkpt lat="44.20032" lon="3.169">
        <ele>389.2</ele>
        <time>2021-10-31T15:59:36Z</time>
      </trkpt>
      <trkpt lat="44.20034" lon="3.16889">
        <ele>389.1</ele>
        <time>2021-10-31T15:59:37Z</time>
      </trkpt>
      <trkpt lat="44.20034" lon="3.16882">
        <ele>389.1</ele>
        <time>2021-10-31T15:59:39Z</time>
      </trkpt>
      <trkpt lat="44.20033" lon="3.16876">
        <ele>389.1</ele>
        <time>2021-10-31T15:59:40Z</time>
      </trkpt>
      <trkpt lat="44.20031" lon="3.16868">
        <ele>389.1</ele>
        <time>2021-10-31T15:59:41Z</time>
      </trkpt>
      <trkpt lat="44.2003" lon="3.16863">
        <ele>389.1</ele>
        <time>2021-10-31T15:59:43Z</time>
      </trkpt>
      <trkpt lat="44.20028" lon="3.16856">
        <ele>389.1</ele>
        <time>2021-10-31T15:59:44Z</time>
      </trkpt>
      <trkpt lat="44.20025" lon="3.16844">
        <ele>389.2</ele>
        <time>2021-10-31T15:59:46Z</time>
      </trkpt>
      <trkpt lat="44.20023" lon="3.16815">
        <ele>389.5</ele>
        <time>2021-10-31T15:59:48Z</time>
      </trkpt>
      <trkpt lat="44.20022" lon="3.16808">
        <ele>389.5</ele>
        <time>2021-10-31T15:59:49Z</time>
      </trkpt>
      <trkpt lat="44.2002" lon="3.16796">
        <ele>389.7</ele>
        <time>2021-10-31T15:59:50Z</time>
      </trkpt>
      <trkpt lat="44.20019" lon="3.16783">
        <ele>389.9</ele>
        <time>2021-10-31T15:59:52Z</time>
      </trkpt>
      <trkpt lat="44.20018" lon="3.16768">
        <ele>390.1</ele>
        <time>2021-10-31T15:59:54Z</time>
      </trkpt>
      <trkpt lat="44.20014" lon="3.16758">
        <ele>390.4</ele>
        <time>2021-10-31T15:59:56Z</time>
      </trkpt>
      <trkpt lat="44.20014" lon="3.1675">
        <ele>390.5</ele>
        <time>2021-10-31T15:59:57Z</time>
      </trkpt>
      <trkpt lat="44.20014" lon="3.16742">
        <ele>390.8</ele>
        <time>2021-10-31T15:59:58Z</time>
      </trkpt>
      <trkpt lat="44.20014" lon="3.1673">
        <ele>391.1</ele>
        <time>2021-10-31T16:00:00Z</time>
      </trkpt>
      <trkpt lat="44.20013" lon="3.16725">
        <ele>391.3</ele>
        <time>2021-10-31T16:00:01Z</time>
      </trkpt>
      <trkpt lat="44.20013" lon="3.16719">
        <ele>391.5</ele>
        <time>2021-10-31T16:00:02Z</time>
      </trkpt>
      <trkpt lat="44.20013" lon="3.16708">
        <ele>391.8</ele>
        <time>2021-10-31T16:00:04Z</time>
      </trkpt>
      <trkpt lat="44.20011" lon="3.16696">
        <ele>392.2</ele>
        <time>2021-10-31T16:00:05Z</time>
      </trkpt>
      <trkpt lat="44.20011" lon="3.16684">
        <ele>392.5</ele>
        <time>2021-10-31T16:00:08Z</time>
      </trkpt>
      <trkpt lat="44.2001" lon="3.16679">
        <ele>392.7</ele>
        <time>2021-10-31T16:00:09Z</time>
      </trkpt>
      <trkpt lat="44.2001" lon="3.16674">
        <ele>392.8</ele>
        <time>2021-10-31T16:00:10Z</time>
      </trkpt>
      <trkpt lat="44.20009" lon="3.16667">
        <ele>393</ele>
        <time>2021-10-31T16:00:11Z</time>
      </trkpt>
      <trkpt lat="44.20008" lon="3.1666">
        <ele>393.2</ele>
        <time>2021-10-31T16:00:13Z</time>
      </trkpt>
      <trkpt lat="44.20007" lon="3.16655">
        <ele>393.4</ele>
        <time>2021-10-31T16:00:14Z</time>
      </trkpt>
      <trkpt lat="44.20004" lon="3.1665">
        <ele>393.6</ele>
        <time>2021-10-31T16:00:15Z</time>
      </trkpt>
      <trkpt lat="44.20001" lon="3.16647">
        <ele>393.8</ele>
        <time>2021-10-31T16:00:17Z</time>
      </trkpt>
      <trkpt lat="44.19998" lon="3.16641">
        <ele>394.1</ele>
        <time>2021-10-31T16:00:18Z</time>
      </trkpt>
      <trkpt lat="44.19996" lon="3.16635">
        <ele>394.4</ele>
        <time>2021-10-31T16:00:19Z</time>
      </trkpt>
      <trkpt lat="44.19995" lon="3.16629">
        <ele>394.6</ele>
        <time>2021-10-31T16:00:21Z</time>
      </trkpt>
      <trkpt lat="44.19994" lon="3.16623">
        <ele>394.8</ele>
        <time>2021-10-31T16:00:22Z</time>
      </trkpt>
      <trkpt lat="44.19992" lon="3.16615">
        <ele>395.1</ele>
        <time>2021-10-31T16:00:24Z</time>
      </trkpt>
      <trkpt lat="44.19989" lon="3.16605">
        <ele>395.5</ele>
        <time>2021-10-31T16:00:26Z</time>
      </trkpt>
      <trkpt lat="44.19988" lon="3.16599">
        <ele>395.7</ele>
        <time>2021-10-31T16:00:27Z</time>
      </trkpt>
      <trkpt lat="44.19987" lon="3.16594">
        <ele>395.9</ele>
        <time>2021-10-31T16:00:28Z</time>
      </trkpt>
      <trkpt lat="44.19986" lon="3.16584">
        <ele>396.2</ele>
        <time>2021-10-31T16:00:29Z</time>
      </trkpt>
      <trkpt lat="44.19985" lon="3.16577">
        <ele>396.5</ele>
        <time>2021-10-31T16:00:31Z</time>
      </trkpt>
      <trkpt lat="44.19985" lon="3.16568">
        <ele>396.7</ele>
        <time>2021-10-31T16:00:33Z</time>
      </trkpt>
      <trkpt lat="44.19983" lon="3.16563">
        <ele>396.9</ele>
        <time>2021-10-31T16:00:34Z</time>
      </trkpt>
      <trkpt lat="44.19982" lon="3.16556">
        <ele>397.2</ele>
        <time>2021-10-31T16:00:36Z</time>
      </trkpt>
      <trkpt lat="44.19981" lon="3.16548">
        <ele>397.5</ele>
        <time>2021-10-31T16:00:37Z</time>
      </trkpt>
      <trkpt lat="44.19979" lon="3.16538">
        <ele>397.8</ele>
        <time>2021-10-31T16:00:39Z</time>
      </trkpt>
      <trkpt lat="44.19976" lon="3.1653">
        <ele>398.2</ele>
        <time>2021-10-31T16:00:41Z</time>
      </trkpt>
      <trkpt lat="44.19975" lon="3.16526">
        <ele>398.3</ele>
        <time>2021-10-31T16:00:42Z</time>
      </trkpt>
      <trkpt lat="44.19973" lon="3.16522">
        <ele>398.5</ele>
        <time>2021-10-31T16:00:44Z</time>
      </trkpt>
      <trkpt lat="44.1997" lon="3.16515">
        <ele>398.8</ele>
        <time>2021-10-31T16:00:45Z</time>
      </trkpt>
      <trkpt lat="44.19969" lon="3.16507">
        <ele>399.1</ele>
        <time>2021-10-31T16:00:47Z</time>
      </trkpt>
      <trkpt lat="44.19968" lon="3.16498">
        <ele>399.4</ele>
        <time>2021-10-31T16:00:48Z</time>
      </trkpt>
      <trkpt lat="44.19967" lon="3.16491">
        <ele>399.6</ele>
        <time>2021-10-31T16:00:50Z</time>
      </trkpt>
      <trkpt lat="44.19964" lon="3.16482">
        <ele>400</ele>
        <time>2021-10-31T16:00:52Z</time>
      </trkpt>
      <trkpt lat="44.19964" lon="3.16476">
        <ele>400.1</ele>
        <time>2021-10-31T16:00:53Z</time>
      </trkpt>
      <trkpt lat="44.19963" lon="3.16468">
        <ele>400.4</ele>
        <time>2021-10-31T16:00:55Z</time>
      </trkpt>
      <trkpt lat="44.19963" lon="3.16463">
        <ele>400.5</ele>
        <time>2021-10-31T16:00:56Z</time>
      </trkpt>
      <trkpt lat="44.19962" lon="3.16457">
        <ele>400.7</ele>
        <time>2021-10-31T16:00:57Z</time>
      </trkpt>
      <trkpt lat="44.19962" lon="3.16448">
        <ele>400.9</ele>
        <time>2021-10-31T16:00:58Z</time>
      </trkpt>
      <trkpt lat="44.19962" lon="3.16438">
        <ele>401.1</ele>
        <time>2021-10-31T16:01:00Z</time>
      </trkpt>
      <trkpt lat="44.19961" lon="3.16424">
        <ele>401.3</ele>
        <time>2021-10-31T16:01:01Z</time>
      </trkpt>
      <trkpt lat="44.1996" lon="3.16416">
        <ele>401.4</ele>
        <time>2021-10-31T16:01:03Z</time>
      </trkpt>
      <trkpt lat="44.19959" lon="3.16404">
        <ele>401.5</ele>
        <time>2021-10-31T16:01:05Z</time>
      </trkpt>
      <trkpt lat="44.19958" lon="3.16398">
        <ele>401.6</ele>
        <time>2021-10-31T16:01:06Z</time>
      </trkpt>
      <trkpt lat="44.19958" lon="3.1639">
        <ele>401.7</ele>
        <time>2021-10-31T16:01:07Z</time>
      </trkpt>
      <trkpt lat="44.19958" lon="3.16379">
        <ele>401.7</ele>
        <time>2021-10-31T16:01:08Z</time>
      </trkpt>
      <trkpt lat="44.19958" lon="3.16371">
        <ele>401.7</ele>
        <time>2021-10-31T16:01:10Z</time>
      </trkpt>
      <trkpt lat="44.19958" lon="3.16359">
        <ele>401.7</ele>
        <time>2021-10-31T16:01:11Z</time>
      </trkpt>
      <trkpt lat="44.19953" lon="3.16341">
        <ele>401.6</ele>
        <time>2021-10-31T16:01:13Z</time>
      </trkpt>
      <trkpt lat="44.19951" lon="3.16326">
        <ele>401.5</ele>
        <time>2021-10-31T16:01:15Z</time>
      </trkpt>
      <trkpt lat="44.19951" lon="3.16313">
        <ele>401.4</ele>
        <time>2021-10-31T16:01:17Z</time>
      </trkpt>
      <trkpt lat="44.19948" lon="3.16298">
        <ele>401.1</ele>
        <time>2021-10-31T16:01:19Z</time>
      </trkpt>
      <trkpt lat="44.19941" lon="3.16281">
        <ele>400.8</ele>
        <time>2021-10-31T16:01:21Z</time>
      </trkpt>
      <trkpt lat="44.19939" lon="3.16272">
        <ele>400.6</ele>
        <time>2021-10-31T16:01:22Z</time>
      </trkpt>
      <trkpt lat="44.1994" lon="3.16257">
        <ele>400.2</ele>
        <time>2021-10-31T16:01:24Z</time>
      </trkpt>
      <trkpt lat="44.19935" lon="3.16243">
        <ele>399.8</ele>
        <time>2021-10-31T16:01:26Z</time>
      </trkpt>
      <trkpt lat="44.19932" lon="3.16236">
        <ele>399.6</ele>
        <time>2021-10-31T16:01:27Z</time>
      </trkpt>
      <trkpt lat="44.19931" lon="3.16227">
        <ele>399.3</ele>
        <time>2021-10-31T16:01:28Z</time>
      </trkpt>
      <trkpt lat="44.1993" lon="3.16207">
        <ele>398.8</ele>
        <time>2021-10-31T16:01:30Z</time>
      </trkpt>
      <trkpt lat="44.1993" lon="3.16198">
        <ele>398.5</ele>
        <time>2021-10-31T16:01:31Z</time>
      </trkpt>
      <trkpt lat="44.19929" lon="3.16191">
        <ele>398.3</ele>
        <time>2021-10-31T16:01:32Z</time>
      </trkpt>
      <trkpt lat="44.19926" lon="3.16181">
        <ele>398</ele>
        <time>2021-10-31T16:01:33Z</time>
      </trkpt>
      <trkpt lat="44.19921" lon="3.16162">
        <ele>397.3</ele>
        <time>2021-10-31T16:01:35Z</time>
      </trkpt>
      <trkpt lat="44.19919" lon="3.16152">
        <ele>396.9</ele>
        <time>2021-10-31T16:01:36Z</time>
      </trkpt>
      <trkpt lat="44.19916" lon="3.16131">
        <ele>396.1</ele>
        <time>2021-10-31T16:01:38Z</time>
      </trkpt>
      <trkpt lat="44.19914" lon="3.1611">
        <ele>395.3</ele>
        <time>2021-10-31T16:01:40Z</time>
      </trkpt>
      <trkpt lat="44.19912" lon="3.16099">
        <ele>394.8</ele>
        <time>2021-10-31T16:01:41Z</time>
      </trkpt>
      <trkpt lat="44.19909" lon="3.16087">
        <ele>394.4</ele>
        <time>2021-10-31T16:01:42Z</time>
      </trkpt>
      <trkpt lat="44.19902" lon="3.16065">
        <ele>393.4</ele>
        <time>2021-10-31T16:01:44Z</time>
      </trkpt>
      <trkpt lat="44.19895" lon="3.16043">
        <ele>392.3</ele>
        <time>2021-10-31T16:01:46Z</time>
      </trkpt>
      <trkpt lat="44.19892" lon="3.16032">
        <ele>391.8</ele>
        <time>2021-10-31T16:01:47Z</time>
      </trkpt>
      <trkpt lat="44.19889" lon="3.1602">
        <ele>391.3</ele>
        <time>2021-10-31T16:01:48Z</time>
      </trkpt>
      <trkpt lat="44.19883" lon="3.15996">
        <ele>390.4</ele>
        <time>2021-10-31T16:01:50Z</time>
      </trkpt>
      <trkpt lat="44.19881" lon="3.15985">
        <ele>390</ele>
        <time>2021-10-31T16:01:51Z</time>
      </trkpt>
      <trkpt lat="44.19877" lon="3.15963">
        <ele>389.6</ele>
        <time>2021-10-31T16:01:53Z</time>
      </trkpt>
      <trkpt lat="44.19875" lon="3.15953">
        <ele>389.5</ele>
        <time>2021-10-31T16:01:54Z</time>
      </trkpt>
      <trkpt lat="44.1987" lon="3.15944">
        <ele>389.5</ele>
        <time>2021-10-31T16:01:55Z</time>
      </trkpt>
      <trkpt lat="44.19861" lon="3.15927">
        <ele>389.6</ele>
        <time>2021-10-31T16:01:57Z</time>
      </trkpt>
      <trkpt lat="44.19851" lon="3.15913">
        <ele>389.8</ele>
        <time>2021-10-31T16:01:59Z</time>
      </trkpt>
      <trkpt lat="44.19846" lon="3.15906">
        <ele>390</ele>
        <time>2021-10-31T16:02:00Z</time>
      </trkpt>
      <trkpt lat="44.19841" lon="3.15901">
        <ele>390.2</ele>
        <time>2021-10-31T16:02:01Z</time>
      </trkpt>
      <trkpt lat="44.19836" lon="3.15895">
        <ele>390.4</ele>
        <time>2021-10-31T16:02:02Z</time>
      </trkpt>
      <trkpt lat="44.19832" lon="3.1589">
        <ele>390.7</ele>
        <time>2021-10-31T16:02:03Z</time>
      </trkpt>
      <trkpt lat="44.19824" lon="3.1588">
        <ele>391.3</ele>
        <time>2021-10-31T16:02:05Z</time>
      </trkpt>
      <trkpt lat="44.1982" lon="3.15876">
        <ele>391.6</ele>
        <time>2021-10-31T16:02:06Z</time>
      </trkpt>
      <trkpt lat="44.19815" lon="3.15869">
        <ele>392.1</ele>
        <time>2021-10-31T16:02:08Z</time>
      </trkpt>
      <trkpt lat="44.19812" lon="3.15865">
        <ele>392.5</ele>
        <time>2021-10-31T16:02:09Z</time>
      </trkpt>
      <trkpt lat="44.19806" lon="3.15858">
        <ele>393</ele>
        <time>2021-10-31T16:02:11Z</time>
      </trkpt>
      <trkpt lat="44.19803" lon="3.15855">
        <ele>393.2</ele>
        <time>2021-10-31T16:02:12Z</time>
      </trkpt>
      <trkpt lat="44.198" lon="3.15851">
        <ele>393.5</ele>
        <time>2021-10-31T16:02:13Z</time>
      </trkpt>
      <trkpt lat="44.198" lon="3.15852">
        <ele>393.5</ele>
        <time>2021-10-31T16:02:14Z</time>
      </trkpt>
      <trkpt lat="44.19798" lon="3.15849">
        <ele>393.7</ele>
        <time>2021-10-31T16:02:16Z</time>
      </trkpt>
      <trkpt lat="44.19796" lon="3.15846">
        <ele>393.9</ele>
        <time>2021-10-31T16:02:17Z</time>
      </trkpt>
      <trkpt lat="44.19793" lon="3.15838">
        <ele>394.5</ele>
        <time>2021-10-31T16:02:19Z</time>
      </trkpt>
      <trkpt lat="44.19791" lon="3.15835">
        <ele>394.7</ele>
        <time>2021-10-31T16:02:20Z</time>
      </trkpt>
      <trkpt lat="44.1979" lon="3.1583">
        <ele>395.1</ele>
        <time>2021-10-31T16:02:21Z</time>
      </trkpt>
      <trkpt lat="44.19787" lon="3.15826">
        <ele>395.4</ele>
        <time>2021-10-31T16:02:22Z</time>
      </trkpt>
      <trkpt lat="44.19785" lon="3.15823">
        <ele>395.8</ele>
        <time>2021-10-31T16:02:24Z</time>
      </trkpt>
      <trkpt lat="44.19783" lon="3.1582">
        <ele>396</ele>
        <time>2021-10-31T16:02:25Z</time>
      </trkpt>
      <trkpt lat="44.19782" lon="3.15817">
        <ele>396.3</ele>
        <time>2021-10-31T16:02:26Z</time>
      </trkpt>
      <trkpt lat="44.19779" lon="3.15814">
        <ele>396.6</ele>
        <time>2021-10-31T16:02:28Z</time>
      </trkpt>
      <trkpt lat="44.19777" lon="3.15811">
        <ele>397</ele>
        <time>2021-10-31T16:02:29Z</time>
      </trkpt>
      <trkpt lat="44.19774" lon="3.15806">
        <ele>397.4</ele>
        <time>2021-10-31T16:02:31Z</time>
      </trkpt>
      <trkpt lat="44.19771" lon="3.15802">
        <ele>397.8</ele>
        <time>2021-10-31T16:02:32Z</time>
      </trkpt>
      <trkpt lat="44.19768" lon="3.15799">
        <ele>398.2</ele>
        <time>2021-10-31T16:02:34Z</time>
      </trkpt>
      <trkpt lat="44.19767" lon="3.15798">
        <ele>398.3</ele>
        <time>2021-10-31T16:02:35Z</time>
      </trkpt>
      <trkpt lat="44.19764" lon="3.15795">
        <ele>398.6</ele>
        <time>2021-10-31T16:02:36Z</time>
      </trkpt>
      <trkpt lat="44.19762" lon="3.15793">
        <ele>398.9</ele>
        <time>2021-10-31T16:02:37Z</time>
      </trkpt>
      <trkpt lat="44.19759" lon="3.15791">
        <ele>399.2</ele>
        <time>2021-10-31T16:02:38Z</time>
      </trkpt>
      <trkpt lat="44.19756" lon="3.15787">
        <ele>399.6</ele>
        <time>2021-10-31T16:02:40Z</time>
      </trkpt>
      <trkpt lat="44.19754" lon="3.15786">
        <ele>399.8</ele>
        <time>2021-10-31T16:02:41Z</time>
      </trkpt>
      <trkpt lat="44.19753" lon="3.15785">
        <ele>399.9</ele>
        <time>2021-10-31T16:02:42Z</time>
      </trkpt>
      <trkpt lat="44.19749" lon="3.15782">
        <ele>400.3</ele>
        <time>2021-10-31T16:02:43Z</time>
      </trkpt>
      <trkpt lat="44.19746" lon="3.1578">
        <ele>400.7</ele>
        <time>2021-10-31T16:02:45Z</time>
      </trkpt>
      <trkpt lat="44.19742" lon="3.15776">
        <ele>401.1</ele>
        <time>2021-10-31T16:02:47Z</time>
      </trkpt>
      <trkpt lat="44.19739" lon="3.15774">
        <ele>401.5</ele>
        <time>2021-10-31T16:02:48Z</time>
      </trkpt>
      <trkpt lat="44.19738" lon="3.15773">
        <ele>401.6</ele>
        <time>2021-10-31T16:02:49Z</time>
      </trkpt>
      <trkpt lat="44.19734" lon="3.15771">
        <ele>402</ele>
        <time>2021-10-31T16:02:50Z</time>
      </trkpt>
      <trkpt lat="44.19732" lon="3.1577">
        <ele>402.2</ele>
        <time>2021-10-31T16:02:51Z</time>
      </trkpt>
      <trkpt lat="44.19729" lon="3.15768">
        <ele>402.6</ele>
        <time>2021-10-31T16:02:53Z</time>
      </trkpt>
      <trkpt lat="44.19725" lon="3.15766">
        <ele>403</ele>
        <time>2021-10-31T16:02:54Z</time>
      </trkpt>
      <trkpt lat="44.19722" lon="3.15764">
        <ele>403.3</ele>
        <time>2021-10-31T16:02:56Z</time>
      </trkpt>
      <trkpt lat="44.19718" lon="3.15763">
        <ele>403.7</ele>
        <time>2021-10-31T16:02:57Z</time>
      </trkpt>
      <trkpt lat="44.19715" lon="3.15761">
        <ele>404</ele>
        <time>2021-10-31T16:02:58Z</time>
      </trkpt>
      <trkpt lat="44.19711" lon="3.1576">
        <ele>404.3</ele>
        <time>2021-10-31T16:03:00Z</time>
      </trkpt>
      <trkpt lat="44.19708" lon="3.15758">
        <ele>404.7</ele>
        <time>2021-10-31T16:03:01Z</time>
      </trkpt>
      <trkpt lat="44.19707" lon="3.15757">
        <ele>404.9</ele>
        <time>2021-10-31T16:03:02Z</time>
      </trkpt>
      <trkpt lat="44.19703" lon="3.15755">
        <ele>405.2</ele>
        <time>2021-10-31T16:03:04Z</time>
      </trkpt>
      <trkpt lat="44.19701" lon="3.15755">
        <ele>405.4</ele>
        <time>2021-10-31T16:03:05Z</time>
      </trkpt>
      <trkpt lat="44.19697" lon="3.15755">
        <ele>405.8</ele>
        <time>2021-10-31T16:03:07Z</time>
      </trkpt>
      <trkpt lat="44.19694" lon="3.15754">
        <ele>406.1</ele>
        <time>2021-10-31T16:03:08Z</time>
      </trkpt>
      <trkpt lat="44.19691" lon="3.15753">
        <ele>406.4</ele>
        <time>2021-10-31T16:03:10Z</time>
      </trkpt>
      <trkpt lat="44.19687" lon="3.15751">
        <ele>406.9</ele>
        <time>2021-10-31T16:03:12Z</time>
      </trkpt>
      <trkpt lat="44.19684" lon="3.15751">
        <ele>407.2</ele>
        <time>2021-10-31T16:03:13Z</time>
      </trkpt>
      <trkpt lat="44.19682" lon="3.1575">
        <ele>407.3</ele>
        <time>2021-10-31T16:03:14Z</time>
      </trkpt>
      <trkpt lat="44.19679" lon="3.1575">
        <ele>407.6</ele>
        <time>2021-10-31T16:03:16Z</time>
      </trkpt>
      <trkpt lat="44.19675" lon="3.15749">
        <ele>408</ele>
        <time>2021-10-31T16:03:18Z</time>
      </trkpt>
      <trkpt lat="44.19672" lon="3.15749">
        <ele>408.3</ele>
        <time>2021-10-31T16:03:19Z</time>
      </trkpt>
      <trkpt lat="44.1967" lon="3.15748">
        <ele>408.5</ele>
        <time>2021-10-31T16:03:20Z</time>
      </trkpt>
      <trkpt lat="44.19665" lon="3.15748">
        <ele>408.9</ele>
        <time>2021-10-31T16:03:22Z</time>
      </trkpt>
      <trkpt lat="44.19663" lon="3.15748">
        <ele>409</ele>
        <time>2021-10-31T16:03:23Z</time>
      </trkpt>
      <trkpt lat="44.19662" lon="3.15748">
        <ele>409.2</ele>
        <time>2021-10-31T16:03:24Z</time>
      </trkpt>
      <trkpt lat="44.19658" lon="3.15749">
        <ele>409.5</ele>
        <time>2021-10-31T16:03:26Z</time>
      </trkpt>
      <trkpt lat="44.19654" lon="3.1575">
        <ele>409.9</ele>
        <time>2021-10-31T16:03:28Z</time>
      </trkpt>
      <trkpt lat="44.19649" lon="3.15751">
        <ele>410.2</ele>
        <time>2021-10-31T16:03:30Z</time>
      </trkpt>
      <trkpt lat="44.19645" lon="3.15752">
        <ele>410.6</ele>
        <time>2021-10-31T16:03:32Z</time>
      </trkpt>
      <trkpt lat="44.19642" lon="3.15753">
        <ele>410.9</ele>
        <time>2021-10-31T16:03:33Z</time>
      </trkpt>
      <trkpt lat="44.19638" lon="3.15755">
        <ele>411.3</ele>
        <time>2021-10-31T16:03:35Z</time>
      </trkpt>
      <trkpt lat="44.19635" lon="3.15756">
        <ele>411.5</ele>
        <time>2021-10-31T16:03:36Z</time>
      </trkpt>
      <trkpt lat="44.1963" lon="3.15759">
        <ele>412</ele>
        <time>2021-10-31T16:03:38Z</time>
      </trkpt>
      <trkpt lat="44.19628" lon="3.1576">
        <ele>412.2</ele>
        <time>2021-10-31T16:03:39Z</time>
      </trkpt>
      <trkpt lat="44.19624" lon="3.15762">
        <ele>412.6</ele>
        <time>2021-10-31T16:03:41Z</time>
      </trkpt>
      <trkpt lat="44.19621" lon="3.15763">
        <ele>412.8</ele>
        <time>2021-10-31T16:03:42Z</time>
      </trkpt>
      <trkpt lat="44.19617" lon="3.15765">
        <ele>413.2</ele>
        <time>2021-10-31T16:03:44Z</time>
      </trkpt>
      <trkpt lat="44.19614" lon="3.15767">
        <ele>413.4</ele>
        <time>2021-10-31T16:03:45Z</time>
      </trkpt>
      <trkpt lat="44.19612" lon="3.15768">
        <ele>413.6</ele>
        <time>2021-10-31T16:03:46Z</time>
      </trkpt>
      <trkpt lat="44.19608" lon="3.1577">
        <ele>413.9</ele>
        <time>2021-10-31T16:03:48Z</time>
      </trkpt>
      <trkpt lat="44.19604" lon="3.15772">
        <ele>414.3</ele>
        <time>2021-10-31T16:03:50Z</time>
      </trkpt>
      <trkpt lat="44.19601" lon="3.15774">
        <ele>414.6</ele>
        <time>2021-10-31T16:03:52Z</time>
      </trkpt>
      <trkpt lat="44.19598" lon="3.15775">
        <ele>414.8</ele>
        <time>2021-10-31T16:03:53Z</time>
      </trkpt>
      <trkpt lat="44.19594" lon="3.15777">
        <ele>415.2</ele>
        <time>2021-10-31T16:03:55Z</time>
      </trkpt>
      <trkpt lat="44.1959" lon="3.15778">
        <ele>415.6</ele>
        <time>2021-10-31T16:03:57Z</time>
      </trkpt>
      <trkpt lat="44.19587" lon="3.1578">
        <ele>415.9</ele>
        <time>2021-10-31T16:03:58Z</time>
      </trkpt>
      <trkpt lat="44.19585" lon="3.15781">
        <ele>416</ele>
        <time>2021-10-31T16:03:59Z</time>
      </trkpt>
      <trkpt lat="44.19582" lon="3.15782">
        <ele>416.3</ele>
        <time>2021-10-31T16:04:02Z</time>
      </trkpt>
      <trkpt lat="44.19579" lon="3.15784">
        <ele>416.5</ele>
        <time>2021-10-31T16:04:03Z</time>
      </trkpt>
      <trkpt lat="44.19577" lon="3.15785">
        <ele>416.7</ele>
        <time>2021-10-31T16:04:05Z</time>
      </trkpt>
      <trkpt lat="44.19574" lon="3.15785">
        <ele>417</ele>
        <time>2021-10-31T16:04:06Z</time>
      </trkpt>
      <trkpt lat="44.19572" lon="3.15786">
        <ele>417.1</ele>
        <time>2021-10-31T16:04:07Z</time>
      </trkpt>
      <trkpt lat="44.19569" lon="3.15787">
        <ele>417.3</ele>
        <time>2021-10-31T16:04:09Z</time>
      </trkpt>
      <trkpt lat="44.19565" lon="3.15788">
        <ele>417.6</ele>
        <time>2021-10-31T16:04:11Z</time>
      </trkpt>
      <trkpt lat="44.19563" lon="3.15788">
        <ele>417.7</ele>
        <time>2021-10-31T16:04:12Z</time>
      </trkpt>
      <trkpt lat="44.19559" lon="3.15788">
        <ele>418</ele>
        <time>2021-10-31T16:04:14Z</time>
      </trkpt>
      <trkpt lat="44.19556" lon="3.15788">
        <ele>418.2</ele>
        <time>2021-10-31T16:04:15Z</time>
      </trkpt>
      <trkpt lat="44.19555" lon="3.15788">
        <ele>418.3</ele>
        <time>2021-10-31T16:04:16Z</time>
      </trkpt>
      <trkpt lat="44.19552" lon="3.15788">
        <ele>418.5</ele>
        <time>2021-10-31T16:04:17Z</time>
      </trkpt>
      <trkpt lat="44.19549" lon="3.15787">
        <ele>418.7</ele>
        <time>2021-10-31T16:04:19Z</time>
      </trkpt>
      <trkpt lat="44.19547" lon="3.15788">
        <ele>418.8</ele>
        <time>2021-10-31T16:04:20Z</time>
      </trkpt>
      <trkpt lat="44.19545" lon="3.15788">
        <ele>418.9</ele>
        <time>2021-10-31T16:04:22Z</time>
      </trkpt>
      <trkpt lat="44.19541" lon="3.15789">
        <ele>419.1</ele>
        <time>2021-10-31T16:04:23Z</time>
      </trkpt>
      <trkpt lat="44.19538" lon="3.1579">
        <ele>419.2</ele>
        <time>2021-10-31T16:04:25Z</time>
      </trkpt>
      <trkpt lat="44.19534" lon="3.1579">
        <ele>419.4</ele>
        <time>2021-10-31T16:04:26Z</time>
      </trkpt>
      <trkpt lat="44.19528" lon="3.15791">
        <ele>419.7</ele>
        <time>2021-10-31T16:04:28Z</time>
      </trkpt>
      <trkpt lat="44.19522" lon="3.15792">
        <ele>419.9</ele>
        <time>2021-10-31T16:04:29Z</time>
      </trkpt>
      <trkpt lat="44.19518" lon="3.15793">
        <ele>420</ele>
        <time>2021-10-31T16:04:31Z</time>
      </trkpt>
      <trkpt lat="44.19514" lon="3.15794">
        <ele>420.1</ele>
        <time>2021-10-31T16:04:32Z</time>
      </trkpt>
      <trkpt lat="44.1951" lon="3.15795">
        <ele>420.2</ele>
        <time>2021-10-31T16:04:33Z</time>
      </trkpt>
      <trkpt lat="44.19506" lon="3.15797">
        <ele>420.4</ele>
        <time>2021-10-31T16:04:34Z</time>
      </trkpt>
      <trkpt lat="44.19501" lon="3.15799">
        <ele>420.5</ele>
        <time>2021-10-31T16:04:35Z</time>
      </trkpt>
      <trkpt lat="44.19496" lon="3.15801">
        <ele>420.6</ele>
        <time>2021-10-31T16:04:37Z</time>
      </trkpt>
      <trkpt lat="44.1949" lon="3.15803">
        <ele>420.7</ele>
        <time>2021-10-31T16:04:38Z</time>
      </trkpt>
      <trkpt lat="44.19485" lon="3.15807">
        <ele>420.7</ele>
        <time>2021-10-31T16:04:40Z</time>
      </trkpt>
      <trkpt lat="44.19481" lon="3.1581">
        <ele>420.8</ele>
        <time>2021-10-31T16:04:41Z</time>
      </trkpt>
      <trkpt lat="44.19475" lon="3.15814">
        <ele>420.8</ele>
        <time>2021-10-31T16:04:42Z</time>
      </trkpt>
      <trkpt lat="44.1947" lon="3.15817">
        <ele>420.8</ele>
        <time>2021-10-31T16:04:44Z</time>
      </trkpt>
      <trkpt lat="44.19466" lon="3.15819">
        <ele>420.8</ele>
        <time>2021-10-31T16:04:45Z</time>
      </trkpt>
      <trkpt lat="44.19461" lon="3.15823">
        <ele>420.7</ele>
        <time>2021-10-31T16:04:46Z</time>
      </trkpt>
      <trkpt lat="44.19451" lon="3.15829">
        <ele>420.6</ele>
        <time>2021-10-31T16:04:48Z</time>
      </trkpt>
      <trkpt lat="44.19442" lon="3.15836">
        <ele>420.4</ele>
        <time>2021-10-31T16:04:50Z</time>
      </trkpt>
      <trkpt lat="44.19433" lon="3.15841">
        <ele>420.1</ele>
        <time>2021-10-31T16:04:52Z</time>
      </trkpt>
      <trkpt lat="44.19428" lon="3.15844">
        <ele>420</ele>
        <time>2021-10-31T16:04:53Z</time>
      </trkpt>
      <trkpt lat="44.19419" lon="3.1585">
        <ele>419.6</ele>
        <time>2021-10-31T16:04:55Z</time>
      </trkpt>
      <trkpt lat="44.19414" lon="3.15854">
        <ele>419.3</ele>
        <time>2021-10-31T16:04:56Z</time>
      </trkpt>
      <trkpt lat="44.19409" lon="3.15858">
        <ele>419.1</ele>
        <time>2021-10-31T16:04:57Z</time>
      </trkpt>
      <trkpt lat="44.19404" lon="3.15862">
        <ele>418.8</ele>
        <time>2021-10-31T16:04:58Z</time>
      </trkpt>
      <trkpt lat="44.19398" lon="3.15866">
        <ele>418.5</ele>
        <time>2021-10-31T16:04:59Z</time>
      </trkpt>
      <trkpt lat="44.19384" lon="3.15874">
        <ele>417.7</ele>
        <time>2021-10-31T16:05:01Z</time>
      </trkpt>
      <trkpt lat="44.1937" lon="3.15882">
        <ele>416.7</ele>
        <time>2021-10-31T16:05:03Z</time>
      </trkpt>
      <trkpt lat="44.19355" lon="3.1589">
        <ele>415.4</ele>
        <time>2021-10-31T16:05:05Z</time>
      </trkpt>
      <trkpt lat="44.19346" lon="3.15894">
        <ele>414.7</ele>
        <time>2021-10-31T16:05:06Z</time>
      </trkpt>
      <trkpt lat="44.19329" lon="3.15903">
        <ele>413.1</ele>
        <time>2021-10-31T16:05:08Z</time>
      </trkpt>
      <trkpt lat="44.19311" lon="3.1591">
        <ele>411.4</ele>
        <time>2021-10-31T16:05:10Z</time>
      </trkpt>
      <trkpt lat="44.19292" lon="3.15917">
        <ele>409.7</ele>
        <time>2021-10-31T16:05:12Z</time>
      </trkpt>
      <trkpt lat="44.19272" lon="3.15922">
        <ele>408</ele>
        <time>2021-10-31T16:05:14Z</time>
      </trkpt>
      <trkpt lat="44.19261" lon="3.15927">
        <ele>407</ele>
        <time>2021-10-31T16:05:15Z</time>
      </trkpt>
      <trkpt lat="44.1924" lon="3.15932">
        <ele>405.1</ele>
        <time>2021-10-31T16:05:17Z</time>
      </trkpt>
      <trkpt lat="44.19219" lon="3.15938">
        <ele>403.3</ele>
        <time>2021-10-31T16:05:19Z</time>
      </trkpt>
      <trkpt lat="44.19208" lon="3.1594">
        <ele>402.4</ele>
        <time>2021-10-31T16:05:20Z</time>
      </trkpt>
      <trkpt lat="44.19196" lon="3.15941">
        <ele>401.4</ele>
        <time>2021-10-31T16:05:21Z</time>
      </trkpt>
      <trkpt lat="44.19183" lon="3.15941">
        <ele>400.4</ele>
        <time>2021-10-31T16:05:22Z</time>
      </trkpt>
      <trkpt lat="44.1917" lon="3.15942">
        <ele>399.2</ele>
        <time>2021-10-31T16:05:23Z</time>
      </trkpt>
      <trkpt lat="44.19146" lon="3.15943">
        <ele>397.1</ele>
        <time>2021-10-31T16:05:25Z</time>
      </trkpt>
      <trkpt lat="44.19135" lon="3.15943">
        <ele>396</ele>
        <time>2021-10-31T16:05:26Z</time>
      </trkpt>
      <trkpt lat="44.19116" lon="3.15939">
        <ele>394.3</ele>
        <time>2021-10-31T16:05:28Z</time>
      </trkpt>
      <trkpt lat="44.19096" lon="3.15933">
        <ele>392.5</ele>
        <time>2021-10-31T16:05:30Z</time>
      </trkpt>
      <trkpt lat="44.19086" lon="3.15928">
        <ele>391.6</ele>
        <time>2021-10-31T16:05:31Z</time>
      </trkpt>
      <trkpt lat="44.19076" lon="3.15923">
        <ele>390.6</ele>
        <time>2021-10-31T16:05:32Z</time>
      </trkpt>
      <trkpt lat="44.19066" lon="3.15919">
        <ele>389.7</ele>
        <time>2021-10-31T16:05:33Z</time>
      </trkpt>
      <trkpt lat="44.19054" lon="3.15914">
        <ele>388.6</ele>
        <time>2021-10-31T16:05:34Z</time>
      </trkpt>
      <trkpt lat="44.19029" lon="3.15904">
        <ele>386.8</ele>
        <time>2021-10-31T16:05:36Z</time>
      </trkpt>
      <trkpt lat="44.19004" lon="3.15894">
        <ele>385.8</ele>
        <time>2021-10-31T16:05:38Z</time>
      </trkpt>
      <trkpt lat="44.18986" lon="3.15884">
        <ele>385.6</ele>
        <time>2021-10-31T16:05:40Z</time>
      </trkpt>
      <trkpt lat="44.1898" lon="3.15881">
        <ele>385.7</ele>
        <time>2021-10-31T16:05:41Z</time>
      </trkpt>
      <trkpt lat="44.18964" lon="3.15871">
        <ele>386.1</ele>
        <time>2021-10-31T16:05:43Z</time>
      </trkpt>
      <trkpt lat="44.18949" lon="3.1586">
        <ele>386.8</ele>
        <time>2021-10-31T16:05:45Z</time>
      </trkpt>
      <trkpt lat="44.18936" lon="3.15851">
        <ele>387.4</ele>
        <time>2021-10-31T16:05:47Z</time>
      </trkpt>
      <trkpt lat="44.18926" lon="3.15842">
        <ele>387.9</ele>
        <time>2021-10-31T16:05:49Z</time>
      </trkpt>
      <trkpt lat="44.18922" lon="3.15839">
        <ele>388.2</ele>
        <time>2021-10-31T16:05:50Z</time>
      </trkpt>
      <trkpt lat="44.18918" lon="3.15836">
        <ele>388.4</ele>
        <time>2021-10-31T16:05:51Z</time>
      </trkpt>
      <trkpt lat="44.18915" lon="3.15832">
        <ele>388.7</ele>
        <time>2021-10-31T16:05:52Z</time>
      </trkpt>
      <trkpt lat="44.18912" lon="3.15829">
        <ele>388.9</ele>
        <time>2021-10-31T16:05:54Z</time>
      </trkpt>
      <trkpt lat="44.18906" lon="3.15825">
        <ele>389.3</ele>
        <time>2021-10-31T16:05:56Z</time>
      </trkpt>
      <trkpt lat="44.18901" lon="3.15821">
        <ele>389.7</ele>
        <time>2021-10-31T16:05:58Z</time>
      </trkpt>
      <trkpt lat="44.18895" lon="3.15816">
        <ele>390.1</ele>
        <time>2021-10-31T16:06:00Z</time>
      </trkpt>
      <trkpt lat="44.18887" lon="3.15811">
        <ele>390.6</ele>
        <time>2021-10-31T16:06:02Z</time>
      </trkpt>
      <trkpt lat="44.18883" lon="3.15808">
        <ele>390.9</ele>
        <time>2021-10-31T16:06:03Z</time>
      </trkpt>
      <trkpt lat="44.18879" lon="3.15806">
        <ele>391.1</ele>
        <time>2021-10-31T16:06:04Z</time>
      </trkpt>
      <trkpt lat="44.18876" lon="3.15803">
        <ele>391.3</ele>
        <time>2021-10-31T16:06:05Z</time>
      </trkpt>
      <trkpt lat="44.18873" lon="3.15801">
        <ele>391.5</ele>
        <time>2021-10-31T16:06:06Z</time>
      </trkpt>
      <trkpt lat="44.1887" lon="3.15798">
        <ele>391.7</ele>
        <time>2021-10-31T16:06:07Z</time>
      </trkpt>
      <trkpt lat="44.18864" lon="3.15793">
        <ele>392</ele>
        <time>2021-10-31T16:06:09Z</time>
      </trkpt>
      <trkpt lat="44.18856" lon="3.15787">
        <ele>392.4</ele>
        <time>2021-10-31T16:06:11Z</time>
      </trkpt>
      <trkpt lat="44.18849" lon="3.1578">
        <ele>392.7</ele>
        <time>2021-10-31T16:06:13Z</time>
      </trkpt>
      <trkpt lat="44.18845" lon="3.15777">
        <ele>392.9</ele>
        <time>2021-10-31T16:06:14Z</time>
      </trkpt>
      <trkpt lat="44.18841" lon="3.15773">
        <ele>393</ele>
        <time>2021-10-31T16:06:15Z</time>
      </trkpt>
      <trkpt lat="44.18833" lon="3.15763">
        <ele>393.3</ele>
        <time>2021-10-31T16:06:17Z</time>
      </trkpt>
      <trkpt lat="44.18829" lon="3.15759">
        <ele>393.5</ele>
        <time>2021-10-31T16:06:18Z</time>
      </trkpt>
      <trkpt lat="44.18824" lon="3.1575">
        <ele>393.7</ele>
        <time>2021-10-31T16:06:20Z</time>
      </trkpt>
      <trkpt lat="44.18822" lon="3.15746">
        <ele>393.9</ele>
        <time>2021-10-31T16:06:21Z</time>
      </trkpt>
      <trkpt lat="44.1882" lon="3.15741">
        <ele>394</ele>
        <time>2021-10-31T16:06:22Z</time>
      </trkpt>
      <trkpt lat="44.18817" lon="3.15737">
        <ele>394.2</ele>
        <time>2021-10-31T16:06:23Z</time>
      </trkpt>
      <trkpt lat="44.18815" lon="3.15731">
        <ele>394.3</ele>
        <time>2021-10-31T16:06:24Z</time>
      </trkpt>
      <trkpt lat="44.18812" lon="3.15722">
        <ele>394.6</ele>
        <time>2021-10-31T16:06:26Z</time>
      </trkpt>
      <trkpt lat="44.18808" lon="3.15713">
        <ele>394.9</ele>
        <time>2021-10-31T16:06:28Z</time>
      </trkpt>
      <trkpt lat="44.18806" lon="3.15709">
        <ele>395</ele>
        <time>2021-10-31T16:06:29Z</time>
      </trkpt>
      <trkpt lat="44.18804" lon="3.15703">
        <ele>395.1</ele>
        <time>2021-10-31T16:06:30Z</time>
      </trkpt>
      <trkpt lat="44.18801" lon="3.15698">
        <ele>395.3</ele>
        <time>2021-10-31T16:06:31Z</time>
      </trkpt>
      <trkpt lat="44.18799" lon="3.15693">
        <ele>395.5</ele>
        <time>2021-10-31T16:06:32Z</time>
      </trkpt>
      <trkpt lat="44.18795" lon="3.15685">
        <ele>395.7</ele>
        <time>2021-10-31T16:06:34Z</time>
      </trkpt>
      <trkpt lat="44.18794" lon="3.15682">
        <ele>395.8</ele>
        <time>2021-10-31T16:06:35Z</time>
      </trkpt>
      <trkpt lat="44.18792" lon="3.15677">
        <ele>396</ele>
        <time>2021-10-31T16:06:37Z</time>
      </trkpt>
      <trkpt lat="44.1879" lon="3.15668">
        <ele>396.2</ele>
        <time>2021-10-31T16:06:39Z</time>
      </trkpt>
      <trkpt lat="44.18788" lon="3.15662">
        <ele>396.4</ele>
        <time>2021-10-31T16:06:40Z</time>
      </trkpt>
      <trkpt lat="44.18787" lon="3.15657">
        <ele>396.5</ele>
        <time>2021-10-31T16:06:41Z</time>
      </trkpt>
      <trkpt lat="44.18784" lon="3.15653">
        <ele>396.7</ele>
        <time>2021-10-31T16:06:43Z</time>
      </trkpt>
      <trkpt lat="44.18781" lon="3.15644">
        <ele>396.8</ele>
        <time>2021-10-31T16:06:45Z</time>
      </trkpt>
      <trkpt lat="44.18778" lon="3.15634">
        <ele>397.1</ele>
        <time>2021-10-31T16:06:47Z</time>
      </trkpt>
      <trkpt lat="44.18776" lon="3.15628">
        <ele>397.2</ele>
        <time>2021-10-31T16:06:48Z</time>
      </trkpt>
      <trkpt lat="44.18775" lon="3.15621">
        <ele>397.4</ele>
        <time>2021-10-31T16:06:49Z</time>
      </trkpt>
      <trkpt lat="44.18773" lon="3.15615">
        <ele>397.6</ele>
        <time>2021-10-31T16:06:50Z</time>
      </trkpt>
      <trkpt lat="44.18771" lon="3.15609">
        <ele>397.7</ele>
        <time>2021-10-31T16:06:51Z</time>
      </trkpt>
      <trkpt lat="44.18769" lon="3.15603">
        <ele>397.9</ele>
        <time>2021-10-31T16:06:53Z</time>
      </trkpt>
      <trkpt lat="44.18768" lon="3.15599">
        <ele>398</ele>
        <time>2021-10-31T16:06:54Z</time>
      </trkpt>
      <trkpt lat="44.18768" lon="3.15594">
        <ele>398.1</ele>
        <time>2021-10-31T16:06:55Z</time>
      </trkpt>
      <trkpt lat="44.18769" lon="3.15589">
        <ele>398.3</ele>
        <time>2021-10-31T16:06:57Z</time>
      </trkpt>
      <trkpt lat="44.18769" lon="3.15584">
        <ele>398.4</ele>
        <time>2021-10-31T16:06:58Z</time>
      </trkpt>
      <trkpt lat="44.18768" lon="3.15575">
        <ele>398.6</ele>
        <time>2021-10-31T16:07:00Z</time>
      </trkpt>
      <trkpt lat="44.18768" lon="3.15568">
        <ele>398.8</ele>
        <time>2021-10-31T16:07:01Z</time>
      </trkpt>
      <trkpt lat="44.18767" lon="3.15563">
        <ele>399</ele>
        <time>2021-10-31T16:07:02Z</time>
      </trkpt>
      <trkpt lat="44.18766" lon="3.15557">
        <ele>399.1</ele>
        <time>2021-10-31T16:07:04Z</time>
      </trkpt>
      <trkpt lat="44.18764" lon="3.15548">
        <ele>399.4</ele>
        <time>2021-10-31T16:07:06Z</time>
      </trkpt>
      <trkpt lat="44.18764" lon="3.1554">
        <ele>399.6</ele>
        <time>2021-10-31T16:07:07Z</time>
      </trkpt>
      <trkpt lat="44.18764" lon="3.15533">
        <ele>399.8</ele>
        <time>2021-10-31T16:07:09Z</time>
      </trkpt>
      <trkpt lat="44.18765" lon="3.15529">
        <ele>400</ele>
        <time>2021-10-31T16:07:10Z</time>
      </trkpt>
      <trkpt lat="44.18766" lon="3.15525">
        <ele>400.1</ele>
        <time>2021-10-31T16:07:11Z</time>
      </trkpt>
      <trkpt lat="44.18767" lon="3.15518">
        <ele>400.3</ele>
        <time>2021-10-31T16:07:13Z</time>
      </trkpt>
      <trkpt lat="44.18767" lon="3.15514">
        <ele>400.4</ele>
        <time>2021-10-31T16:07:14Z</time>
      </trkpt>
      <trkpt lat="44.18769" lon="3.15509">
        <ele>400.6</ele>
        <time>2021-10-31T16:07:16Z</time>
      </trkpt>
      <trkpt lat="44.18769" lon="3.15502">
        <ele>400.8</ele>
        <time>2021-10-31T16:07:17Z</time>
      </trkpt>
      <trkpt lat="44.18769" lon="3.15499">
        <ele>400.9</ele>
        <time>2021-10-31T16:07:18Z</time>
      </trkpt>
      <trkpt lat="44.18768" lon="3.15494">
        <ele>401.1</ele>
        <time>2021-10-31T16:07:19Z</time>
      </trkpt>
      <trkpt lat="44.18765" lon="3.15488">
        <ele>401.3</ele>
        <time>2021-10-31T16:07:21Z</time>
      </trkpt>
      <trkpt lat="44.18764" lon="3.15485">
        <ele>401.4</ele>
        <time>2021-10-31T16:07:22Z</time>
      </trkpt>
      <trkpt lat="44.18762" lon="3.1548">
        <ele>401.6</ele>
        <time>2021-10-31T16:07:23Z</time>
      </trkpt>
      <trkpt lat="44.18762" lon="3.15477">
        <ele>401.7</ele>
        <time>2021-10-31T16:07:24Z</time>
      </trkpt>
      <trkpt lat="44.18761" lon="3.1547">
        <ele>402</ele>
        <time>2021-10-31T16:07:25Z</time>
      </trkpt>
      <trkpt lat="44.18759" lon="3.15462">
        <ele>402.3</ele>
        <time>2021-10-31T16:07:27Z</time>
      </trkpt>
      <trkpt lat="44.18757" lon="3.15456">
        <ele>402.6</ele>
        <time>2021-10-31T16:07:28Z</time>
      </trkpt>
      <trkpt lat="44.18754" lon="3.15447">
        <ele>403</ele>
        <time>2021-10-31T16:07:30Z</time>
      </trkpt>
      <trkpt lat="44.18751" lon="3.15438">
        <ele>403.4</ele>
        <time>2021-10-31T16:07:32Z</time>
      </trkpt>
      <trkpt lat="44.1875" lon="3.15434">
        <ele>403.6</ele>
        <time>2021-10-31T16:07:33Z</time>
      </trkpt>
      <trkpt lat="44.18748" lon="3.15429">
        <ele>403.8</ele>
        <time>2021-10-31T16:07:34Z</time>
      </trkpt>
      <trkpt lat="44.18746" lon="3.15425">
        <ele>404</ele>
        <time>2021-10-31T16:07:35Z</time>
      </trkpt>
      <trkpt lat="44.18743" lon="3.15416">
        <ele>404.4</ele>
        <time>2021-10-31T16:07:37Z</time>
      </trkpt>
      <trkpt lat="44.18743" lon="3.15411">
        <ele>404.7</ele>
        <time>2021-10-31T16:07:38Z</time>
      </trkpt>
      <trkpt lat="44.18742" lon="3.15406">
        <ele>404.9</ele>
        <time>2021-10-31T16:07:39Z</time>
      </trkpt>
      <trkpt lat="44.18742" lon="3.15399">
        <ele>405.2</ele>
        <time>2021-10-31T16:07:40Z</time>
      </trkpt>
      <trkpt lat="44.18742" lon="3.15393">
        <ele>405.4</ele>
        <time>2021-10-31T16:07:41Z</time>
      </trkpt>
      <trkpt lat="44.18743" lon="3.15385">
        <ele>405.7</ele>
        <time>2021-10-31T16:07:43Z</time>
      </trkpt>
      <trkpt lat="44.18745" lon="3.15377">
        <ele>406</ele>
        <time>2021-10-31T16:07:45Z</time>
      </trkpt>
      <trkpt lat="44.18745" lon="3.15371">
        <ele>406.2</ele>
        <time>2021-10-31T16:07:46Z</time>
      </trkpt>
      <trkpt lat="44.18746" lon="3.15365">
        <ele>406.4</ele>
        <time>2021-10-31T16:07:47Z</time>
      </trkpt>
      <trkpt lat="44.18746" lon="3.15357">
        <ele>406.7</ele>
        <time>2021-10-31T16:07:49Z</time>
      </trkpt>
      <trkpt lat="44.18746" lon="3.15352">
        <ele>406.8</ele>
        <time>2021-10-31T16:07:50Z</time>
      </trkpt>
      <trkpt lat="44.18744" lon="3.15344">
        <ele>407</ele>
        <time>2021-10-31T16:07:51Z</time>
      </trkpt>
      <trkpt lat="44.1874" lon="3.15338">
        <ele>407.3</ele>
        <time>2021-10-31T16:07:53Z</time>
      </trkpt>
      <trkpt lat="44.18737" lon="3.15333">
        <ele>407.4</ele>
        <time>2021-10-31T16:07:54Z</time>
      </trkpt>
      <trkpt lat="44.18734" lon="3.15328">
        <ele>407.6</ele>
        <time>2021-10-31T16:07:55Z</time>
      </trkpt>
      <trkpt lat="44.18731" lon="3.1532">
        <ele>407.7</ele>
        <time>2021-10-31T16:07:56Z</time>
      </trkpt>
      <trkpt lat="44.18729" lon="3.15315">
        <ele>407.8</ele>
        <time>2021-10-31T16:07:58Z</time>
      </trkpt>
      <trkpt lat="44.18728" lon="3.15308">
        <ele>407.9</ele>
        <time>2021-10-31T16:07:59Z</time>
      </trkpt>
      <trkpt lat="44.18727" lon="3.15301">
        <ele>408</ele>
        <time>2021-10-31T16:08:01Z</time>
      </trkpt>
      <trkpt lat="44.18727" lon="3.15295">
        <ele>408.1</ele>
        <time>2021-10-31T16:08:02Z</time>
      </trkpt>
      <trkpt lat="44.18726" lon="3.15287">
        <ele>408.1</ele>
        <time>2021-10-31T16:08:03Z</time>
      </trkpt>
      <trkpt lat="44.18725" lon="3.15279">
        <ele>408.1</ele>
        <time>2021-10-31T16:08:05Z</time>
      </trkpt>
      <trkpt lat="44.18724" lon="3.15274">
        <ele>408.1</ele>
        <time>2021-10-31T16:08:06Z</time>
      </trkpt>
      <trkpt lat="44.18722" lon="3.15264">
        <ele>408.1</ele>
        <time>2021-10-31T16:08:07Z</time>
      </trkpt>
      <trkpt lat="44.1872" lon="3.15257">
        <ele>408.1</ele>
        <time>2021-10-31T16:08:08Z</time>
      </trkpt>
      <trkpt lat="44.18717" lon="3.15252">
        <ele>408</ele>
        <time>2021-10-31T16:08:09Z</time>
      </trkpt>
      <trkpt lat="44.18715" lon="3.15245">
        <ele>408</ele>
        <time>2021-10-31T16:08:10Z</time>
      </trkpt>
      <trkpt lat="44.18713" lon="3.15238">
        <ele>407.9</ele>
        <time>2021-10-31T16:08:12Z</time>
      </trkpt>
      <trkpt lat="44.18715" lon="3.15229">
        <ele>407.8</ele>
        <time>2021-10-31T16:08:13Z</time>
      </trkpt>
      <trkpt lat="44.18724" lon="3.15211">
        <ele>407.4</ele>
        <time>2021-10-31T16:08:15Z</time>
      </trkpt>
      <trkpt lat="44.18729" lon="3.15203">
        <ele>407.2</ele>
        <time>2021-10-31T16:08:16Z</time>
      </trkpt>
      <trkpt lat="44.18733" lon="3.15195">
        <ele>406.9</ele>
        <time>2021-10-31T16:08:17Z</time>
      </trkpt>
      <trkpt lat="44.18743" lon="3.15182">
        <ele>406.2</ele>
        <time>2021-10-31T16:08:19Z</time>
      </trkpt>
      <trkpt lat="44.18748" lon="3.15176">
        <ele>405.8</ele>
        <time>2021-10-31T16:08:20Z</time>
      </trkpt>
      <trkpt lat="44.18754" lon="3.1517">
        <ele>405.4</ele>
        <time>2021-10-31T16:08:21Z</time>
      </trkpt>
      <trkpt lat="44.18766" lon="3.15158">
        <ele>404.6</ele>
        <time>2021-10-31T16:08:23Z</time>
      </trkpt>
      <trkpt lat="44.18778" lon="3.15143">
        <ele>403.7</ele>
        <time>2021-10-31T16:08:25Z</time>
      </trkpt>
      <trkpt lat="44.18784" lon="3.15135">
        <ele>403.2</ele>
        <time>2021-10-31T16:08:26Z</time>
      </trkpt>
      <trkpt lat="44.18789" lon="3.15126">
        <ele>402.7</ele>
        <time>2021-10-31T16:08:27Z</time>
      </trkpt>
      <trkpt lat="44.18793" lon="3.15116">
        <ele>402.2</ele>
        <time>2021-10-31T16:08:28Z</time>
      </trkpt>
      <trkpt lat="44.18797" lon="3.15106">
        <ele>401.6</ele>
        <time>2021-10-31T16:08:29Z</time>
      </trkpt>
      <trkpt lat="44.18807" lon="3.15086">
        <ele>400.2</ele>
        <time>2021-10-31T16:08:31Z</time>
      </trkpt>
      <trkpt lat="44.18814" lon="3.15075">
        <ele>399.3</ele>
        <time>2021-10-31T16:08:32Z</time>
      </trkpt>
      <trkpt lat="44.18823" lon="3.15053">
        <ele>397.8</ele>
        <time>2021-10-31T16:08:34Z</time>
      </trkpt>
      <trkpt lat="44.18827" lon="3.1504">
        <ele>397.1</ele>
        <time>2021-10-31T16:08:35Z</time>
      </trkpt>
      <trkpt lat="44.18835" lon="3.15016">
        <ele>395.6</ele>
        <time>2021-10-31T16:08:37Z</time>
      </trkpt>
      <trkpt lat="44.18843" lon="3.1499">
        <ele>393.9</ele>
        <time>2021-10-31T16:08:39Z</time>
      </trkpt>
      <trkpt lat="44.18851" lon="3.14965">
        <ele>392.4</ele>
        <time>2021-10-31T16:08:41Z</time>
      </trkpt>
      <trkpt lat="44.18856" lon="3.14953">
        <ele>391.7</ele>
        <time>2021-10-31T16:08:42Z</time>
      </trkpt>
      <trkpt lat="44.18861" lon="3.1494">
        <ele>391.1</ele>
        <time>2021-10-31T16:08:43Z</time>
      </trkpt>
      <trkpt lat="44.18868" lon="3.14912">
        <ele>390</ele>
        <time>2021-10-31T16:08:45Z</time>
      </trkpt>
      <trkpt lat="44.18875" lon="3.14887">
        <ele>389.5</ele>
        <time>2021-10-31T16:08:47Z</time>
      </trkpt>
      <trkpt lat="44.18881" lon="3.14865">
        <ele>389.4</ele>
        <time>2021-10-31T16:08:49Z</time>
      </trkpt>
      <trkpt lat="44.18885" lon="3.14845">
        <ele>389.6</ele>
        <time>2021-10-31T16:08:51Z</time>
      </trkpt>
      <trkpt lat="44.18887" lon="3.14835">
        <ele>389.8</ele>
        <time>2021-10-31T16:08:52Z</time>
      </trkpt>
      <trkpt lat="44.18891" lon="3.14818">
        <ele>390.3</ele>
        <time>2021-10-31T16:08:54Z</time>
      </trkpt>
      <trkpt lat="44.18895" lon="3.14801">
        <ele>390.7</ele>
        <time>2021-10-31T16:08:56Z</time>
      </trkpt>
      <trkpt lat="44.18898" lon="3.14787">
        <ele>391.1</ele>
        <time>2021-10-31T16:08:58Z</time>
      </trkpt>
      <trkpt lat="44.18899" lon="3.14771">
        <ele>391.4</ele>
        <time>2021-10-31T16:09:00Z</time>
      </trkpt>
      <trkpt lat="44.189" lon="3.14763">
        <ele>391.6</ele>
        <time>2021-10-31T16:09:01Z</time>
      </trkpt>
      <trkpt lat="44.18902" lon="3.14756">
        <ele>391.7</ele>
        <time>2021-10-31T16:09:02Z</time>
      </trkpt>
      <trkpt lat="44.18902" lon="3.14742">
        <ele>392</ele>
        <time>2021-10-31T16:09:04Z</time>
      </trkpt>
      <trkpt lat="44.18902" lon="3.14735">
        <ele>392.1</ele>
        <time>2021-10-31T16:09:05Z</time>
      </trkpt>
      <trkpt lat="44.18902" lon="3.14721">
        <ele>392.4</ele>
        <time>2021-10-31T16:09:07Z</time>
      </trkpt>
      <trkpt lat="44.18902" lon="3.14715">
        <ele>392.5</ele>
        <time>2021-10-31T16:09:08Z</time>
      </trkpt>
      <trkpt lat="44.18901" lon="3.14708">
        <ele>392.6</ele>
        <time>2021-10-31T16:09:09Z</time>
      </trkpt>
      <trkpt lat="44.18901" lon="3.14701">
        <ele>392.7</ele>
        <time>2021-10-31T16:09:10Z</time>
      </trkpt>
      <trkpt lat="44.189" lon="3.14688">
        <ele>392.9</ele>
        <time>2021-10-31T16:09:12Z</time>
      </trkpt>
      <trkpt lat="44.189" lon="3.1468">
        <ele>393</ele>
        <time>2021-10-31T16:09:13Z</time>
      </trkpt>
      <trkpt lat="44.18899" lon="3.14667">
        <ele>393.2</ele>
        <time>2021-10-31T16:09:15Z</time>
      </trkpt>
      <trkpt lat="44.18899" lon="3.1466">
        <ele>393.2</ele>
        <time>2021-10-31T16:09:16Z</time>
      </trkpt>
      <trkpt lat="44.189" lon="3.14647">
        <ele>393.2</ele>
        <time>2021-10-31T16:09:18Z</time>
      </trkpt>
      <trkpt lat="44.18901" lon="3.1464">
        <ele>393.2</ele>
        <time>2021-10-31T16:09:19Z</time>
      </trkpt>
      <trkpt lat="44.18901" lon="3.14633">
        <ele>393.2</ele>
        <time>2021-10-31T16:09:20Z</time>
      </trkpt>
      <trkpt lat="44.18901" lon="3.14623">
        <ele>393.2</ele>
        <time>2021-10-31T16:09:22Z</time>
      </trkpt>
      <trkpt lat="44.18902" lon="3.14616">
        <ele>393.2</ele>
        <time>2021-10-31T16:09:23Z</time>
      </trkpt>
      <trkpt lat="44.18904" lon="3.1461">
        <ele>393.2</ele>
        <time>2021-10-31T16:09:24Z</time>
      </trkpt>
      <trkpt lat="44.18906" lon="3.14597">
        <ele>393.1</ele>
        <time>2021-10-31T16:09:26Z</time>
      </trkpt>
      <trkpt lat="44.18906" lon="3.14591">
        <ele>393</ele>
        <time>2021-10-31T16:09:27Z</time>
      </trkpt>
      <trkpt lat="44.18908" lon="3.14576">
        <ele>392.9</ele>
        <time>2021-10-31T16:09:29Z</time>
      </trkpt>
      <trkpt lat="44.18909" lon="3.14561">
        <ele>392.6</ele>
        <time>2021-10-31T16:09:31Z</time>
      </trkpt>
      <trkpt lat="44.1891" lon="3.14553">
        <ele>392.5</ele>
        <time>2021-10-31T16:09:32Z</time>
      </trkpt>
      <trkpt lat="44.18913" lon="3.14537">
        <ele>392.3</ele>
        <time>2021-10-31T16:09:34Z</time>
      </trkpt>
      <trkpt lat="44.18912" lon="3.14522">
        <ele>392</ele>
        <time>2021-10-31T16:09:36Z</time>
      </trkpt>
      <trkpt lat="44.18913" lon="3.14505">
        <ele>391.7</ele>
        <time>2021-10-31T16:09:38Z</time>
      </trkpt>
      <trkpt lat="44.18915" lon="3.14489">
        <ele>391.4</ele>
        <time>2021-10-31T16:09:40Z</time>
      </trkpt>
      <trkpt lat="44.18916" lon="3.14471">
        <ele>391</ele>
        <time>2021-10-31T16:09:42Z</time>
      </trkpt>
      <trkpt lat="44.18916" lon="3.14461">
        <ele>390.8</ele>
        <time>2021-10-31T16:09:43Z</time>
      </trkpt>
      <trkpt lat="44.18915" lon="3.14443">
        <ele>390.5</ele>
        <time>2021-10-31T16:09:45Z</time>
      </trkpt>
      <trkpt lat="44.18916" lon="3.14434">
        <ele>390.4</ele>
        <time>2021-10-31T16:09:46Z</time>
      </trkpt>
      <trkpt lat="44.18918" lon="3.14419">
        <ele>390.2</ele>
        <time>2021-10-31T16:09:48Z</time>
      </trkpt>
      <trkpt lat="44.1892" lon="3.14404">
        <ele>390.1</ele>
        <time>2021-10-31T16:09:50Z</time>
      </trkpt>
      <trkpt lat="44.18918" lon="3.14395">
        <ele>390.1</ele>
        <time>2021-10-31T16:09:51Z</time>
      </trkpt>
      <trkpt lat="44.18912" lon="3.14377">
        <ele>390.1</ele>
        <time>2021-10-31T16:09:53Z</time>
      </trkpt>
      <trkpt lat="44.1891" lon="3.1437">
        <ele>390.2</ele>
        <time>2021-10-31T16:09:54Z</time>
      </trkpt>
      <trkpt lat="44.18905" lon="3.14357">
        <ele>390.4</ele>
        <time>2021-10-31T16:09:56Z</time>
      </trkpt>
      <trkpt lat="44.18903" lon="3.14351">
        <ele>390.4</ele>
        <time>2021-10-31T16:09:57Z</time>
      </trkpt>
      <trkpt lat="44.18898" lon="3.14339">
        <ele>390.6</ele>
        <time>2021-10-31T16:09:59Z</time>
      </trkpt>
      <trkpt lat="44.18894" lon="3.14327">
        <ele>390.9</ele>
        <time>2021-10-31T16:10:01Z</time>
      </trkpt>
      <trkpt lat="44.18892" lon="3.14321">
        <ele>391</ele>
        <time>2021-10-31T16:10:02Z</time>
      </trkpt>
      <trkpt lat="44.1889" lon="3.14316">
        <ele>391.1</ele>
        <time>2021-10-31T16:10:03Z</time>
      </trkpt>
      <trkpt lat="44.18889" lon="3.1431">
        <ele>391.3</ele>
        <time>2021-10-31T16:10:04Z</time>
      </trkpt>
      <trkpt lat="44.18887" lon="3.14305">
        <ele>391.4</ele>
        <time>2021-10-31T16:10:05Z</time>
      </trkpt>
      <trkpt lat="44.18885" lon="3.14295">
        <ele>391.7</ele>
        <time>2021-10-31T16:10:07Z</time>
      </trkpt>
      <trkpt lat="44.18883" lon="3.1429">
        <ele>391.8</ele>
        <time>2021-10-31T16:10:08Z</time>
      </trkpt>
      <trkpt lat="44.18882" lon="3.14285">
        <ele>392</ele>
        <time>2021-10-31T16:10:09Z</time>
      </trkpt>
      <trkpt lat="44.18878" lon="3.14275">
        <ele>392.3</ele>
        <time>2021-10-31T16:10:11Z</time>
      </trkpt>
      <trkpt lat="44.18876" lon="3.14266">
        <ele>392.6</ele>
        <time>2021-10-31T16:10:13Z</time>
      </trkpt>
      <trkpt lat="44.18875" lon="3.14262">
        <ele>392.8</ele>
        <time>2021-10-31T16:10:14Z</time>
      </trkpt>
      <trkpt lat="44.18872" lon="3.14253">
        <ele>393.2</ele>
        <time>2021-10-31T16:10:16Z</time>
      </trkpt>
      <trkpt lat="44.1887" lon="3.14244">
        <ele>393.6</ele>
        <time>2021-10-31T16:10:18Z</time>
      </trkpt>
      <trkpt lat="44.18867" lon="3.14236">
        <ele>394.1</ele>
        <time>2021-10-31T16:10:20Z</time>
      </trkpt>
      <trkpt lat="44.18866" lon="3.14232">
        <ele>394.3</ele>
        <time>2021-10-31T16:10:21Z</time>
      </trkpt>
      <trkpt lat="44.18865" lon="3.14229">
        <ele>394.5</ele>
        <time>2021-10-31T16:10:22Z</time>
      </trkpt>
      <trkpt lat="44.18864" lon="3.14225">
        <ele>394.7</ele>
        <time>2021-10-31T16:10:23Z</time>
      </trkpt>
      <trkpt lat="44.18862" lon="3.14221">
        <ele>395</ele>
        <time>2021-10-31T16:10:24Z</time>
      </trkpt>
      <trkpt lat="44.1886" lon="3.14214">
        <ele>395.4</ele>
        <time>2021-10-31T16:10:26Z</time>
      </trkpt>
      <trkpt lat="44.18859" lon="3.1421">
        <ele>395.7</ele>
        <time>2021-10-31T16:10:27Z</time>
      </trkpt>
      <trkpt lat="44.18857" lon="3.14202">
        <ele>396.2</ele>
        <time>2021-10-31T16:10:29Z</time>
      </trkpt>
      <trkpt lat="44.18856" lon="3.14196">
        <ele>396.6</ele>
        <time>2021-10-31T16:10:30Z</time>
      </trkpt>
      <trkpt lat="44.18853" lon="3.1419">
        <ele>397.1</ele>
        <time>2021-10-31T16:10:31Z</time>
      </trkpt>
      <trkpt lat="44.18851" lon="3.14185">
        <ele>397.4</ele>
        <time>2021-10-31T16:10:33Z</time>
      </trkpt>
      <trkpt lat="44.18849" lon="3.14179">
        <ele>397.8</ele>
        <time>2021-10-31T16:10:34Z</time>
      </trkpt>
      <trkpt lat="44.18847" lon="3.14173">
        <ele>398.3</ele>
        <time>2021-10-31T16:10:36Z</time>
      </trkpt>
      <trkpt lat="44.18845" lon="3.14169">
        <ele>398.5</ele>
        <time>2021-10-31T16:10:37Z</time>
      </trkpt>
      <trkpt lat="44.18843" lon="3.1416">
        <ele>399</ele>
        <time>2021-10-31T16:10:39Z</time>
      </trkpt>
      <trkpt lat="44.1884" lon="3.14153">
        <ele>399.4</ele>
        <time>2021-10-31T16:10:41Z</time>
      </trkpt>
      <trkpt lat="44.18839" lon="3.14148">
        <ele>399.5</ele>
        <time>2021-10-31T16:10:42Z</time>
      </trkpt>
      <trkpt lat="44.18837" lon="3.14144">
        <ele>399.6</ele>
        <time>2021-10-31T16:10:43Z</time>
      </trkpt>
      <trkpt lat="44.18836" lon="3.14139">
        <ele>399.8</ele>
        <time>2021-10-31T16:10:44Z</time>
      </trkpt>
      <trkpt lat="44.18834" lon="3.14132">
        <ele>400</ele>
        <time>2021-10-31T16:10:45Z</time>
      </trkpt>
      <trkpt lat="44.18832" lon="3.14127">
        <ele>400.1</ele>
        <time>2021-10-31T16:10:46Z</time>
      </trkpt>
      <trkpt lat="44.1883" lon="3.14122">
        <ele>400.2</ele>
        <time>2021-10-31T16:10:48Z</time>
      </trkpt>
      <trkpt lat="44.18828" lon="3.14114">
        <ele>400.4</ele>
        <time>2021-10-31T16:10:49Z</time>
      </trkpt>
      <trkpt lat="44.18826" lon="3.14108">
        <ele>400.5</ele>
        <time>2021-10-31T16:10:51Z</time>
      </trkpt>
      <trkpt lat="44.18824" lon="3.14104">
        <ele>400.5</ele>
        <time>2021-10-31T16:10:52Z</time>
      </trkpt>
      <trkpt lat="44.18821" lon="3.14096">
        <ele>400.6</ele>
        <time>2021-10-31T16:10:53Z</time>
      </trkpt>
      <trkpt lat="44.18818" lon="3.14089">
        <ele>400.6</ele>
        <time>2021-10-31T16:10:55Z</time>
      </trkpt>
      <trkpt lat="44.18815" lon="3.14082">
        <ele>400.6</ele>
        <time>2021-10-31T16:10:56Z</time>
      </trkpt>
      <trkpt lat="44.18813" lon="3.14075">
        <ele>400.5</ele>
        <time>2021-10-31T16:10:57Z</time>
      </trkpt>
      <trkpt lat="44.18809" lon="3.14067">
        <ele>400.4</ele>
        <time>2021-10-31T16:10:59Z</time>
      </trkpt>
      <trkpt lat="44.18807" lon="3.1406">
        <ele>400.3</ele>
        <time>2021-10-31T16:11:00Z</time>
      </trkpt>
      <trkpt lat="44.18804" lon="3.14052">
        <ele>400.2</ele>
        <time>2021-10-31T16:11:01Z</time>
      </trkpt>
      <trkpt lat="44.18802" lon="3.14046">
        <ele>400.1</ele>
        <time>2021-10-31T16:11:02Z</time>
      </trkpt>
      <trkpt lat="44.18802" lon="3.14041">
        <ele>400</ele>
        <time>2021-10-31T16:11:04Z</time>
      </trkpt>
      <trkpt lat="44.18801" lon="3.14036">
        <ele>399.9</ele>
        <time>2021-10-31T16:11:05Z</time>
      </trkpt>
      <trkpt lat="44.188" lon="3.14028">
        <ele>399.8</ele>
        <time>2021-10-31T16:11:06Z</time>
      </trkpt>
      <trkpt lat="44.18799" lon="3.1402">
        <ele>399.6</ele>
        <time>2021-10-31T16:11:08Z</time>
      </trkpt>
      <trkpt lat="44.18795" lon="3.14009">
        <ele>399.4</ele>
        <time>2021-10-31T16:11:09Z</time>
      </trkpt>
      <trkpt lat="44.18791" lon="3.14003">
        <ele>399.3</ele>
        <time>2021-10-31T16:11:10Z</time>
      </trkpt>
      <trkpt lat="44.1878" lon="3.13985">
        <ele>398.8</ele>
        <time>2021-10-31T16:11:12Z</time>
      </trkpt>
      <trkpt lat="44.18771" lon="3.13968">
        <ele>398.4</ele>
        <time>2021-10-31T16:11:14Z</time>
      </trkpt>
      <trkpt lat="44.18769" lon="3.1396">
        <ele>398.2</ele>
        <time>2021-10-31T16:11:15Z</time>
      </trkpt>
      <trkpt lat="44.18766" lon="3.13951">
        <ele>398</ele>
        <time>2021-10-31T16:11:16Z</time>
      </trkpt>
      <trkpt lat="44.18762" lon="3.13933">
        <ele>397.6</ele>
        <time>2021-10-31T16:11:18Z</time>
      </trkpt>
      <trkpt lat="44.1876" lon="3.13924">
        <ele>397.4</ele>
        <time>2021-10-31T16:11:19Z</time>
      </trkpt>
      <trkpt lat="44.18756" lon="3.13906">
        <ele>397</ele>
        <time>2021-10-31T16:11:21Z</time>
      </trkpt>
      <trkpt lat="44.18751" lon="3.13887">
        <ele>396.6</ele>
        <time>2021-10-31T16:11:23Z</time>
      </trkpt>
      <trkpt lat="44.18749" lon="3.13877">
        <ele>396.5</ele>
        <time>2021-10-31T16:11:24Z</time>
      </trkpt>
      <trkpt lat="44.18744" lon="3.13857">
        <ele>396.1</ele>
        <time>2021-10-31T16:11:26Z</time>
      </trkpt>
      <trkpt lat="44.18742" lon="3.13847">
        <ele>395.9</ele>
        <time>2021-10-31T16:11:27Z</time>
      </trkpt>
      <trkpt lat="44.18738" lon="3.13827">
        <ele>395.6</ele>
        <time>2021-10-31T16:11:29Z</time>
      </trkpt>
      <trkpt lat="44.18734" lon="3.13806">
        <ele>395.3</ele>
        <time>2021-10-31T16:11:31Z</time>
      </trkpt>
      <trkpt lat="44.1873" lon="3.13786">
        <ele>394.9</ele>
        <time>2021-10-31T16:11:33Z</time>
      </trkpt>
      <trkpt lat="44.18726" lon="3.13765">
        <ele>394.6</ele>
        <time>2021-10-31T16:11:35Z</time>
      </trkpt>
      <trkpt lat="44.18725" lon="3.13755">
        <ele>394.5</ele>
        <time>2021-10-31T16:11:36Z</time>
      </trkpt>
      <trkpt lat="44.18721" lon="3.13734">
        <ele>394.3</ele>
        <time>2021-10-31T16:11:38Z</time>
      </trkpt>
      <trkpt lat="44.18717" lon="3.13713">
        <ele>394</ele>
        <time>2021-10-31T16:11:40Z</time>
      </trkpt>
      <trkpt lat="44.18714" lon="3.13703">
        <ele>393.8</ele>
        <time>2021-10-31T16:11:41Z</time>
      </trkpt>
      <trkpt lat="44.1871" lon="3.13694">
        <ele>393.7</ele>
        <time>2021-10-31T16:11:42Z</time>
      </trkpt>
      <trkpt lat="44.18706" lon="3.13684">
        <ele>393.5</ele>
        <time>2021-10-31T16:11:43Z</time>
      </trkpt>
      <trkpt lat="44.18702" lon="3.13675">
        <ele>393.4</ele>
        <time>2021-10-31T16:11:44Z</time>
      </trkpt>
      <trkpt lat="44.18695" lon="3.13657">
        <ele>393.1</ele>
        <time>2021-10-31T16:11:46Z</time>
      </trkpt>
      <trkpt lat="44.18691" lon="3.13648">
        <ele>393</ele>
        <time>2021-10-31T16:11:47Z</time>
      </trkpt>
      <trkpt lat="44.18682" lon="3.13629">
        <ele>392.9</ele>
        <time>2021-10-31T16:11:49Z</time>
      </trkpt>
      <trkpt lat="44.18675" lon="3.1361">
        <ele>392.8</ele>
        <time>2021-10-31T16:11:51Z</time>
      </trkpt>
      <trkpt lat="44.18673" lon="3.13601">
        <ele>392.7</ele>
        <time>2021-10-31T16:11:52Z</time>
      </trkpt>
      <trkpt lat="44.18667" lon="3.13582">
        <ele>392.7</ele>
        <time>2021-10-31T16:11:54Z</time>
      </trkpt>
      <trkpt lat="44.18664" lon="3.13574">
        <ele>392.7</ele>
        <time>2021-10-31T16:11:55Z</time>
      </trkpt>
      <trkpt lat="44.18661" lon="3.13565">
        <ele>392.6</ele>
        <time>2021-10-31T16:11:56Z</time>
      </trkpt>
      <trkpt lat="44.18655" lon="3.13549">
        <ele>392.6</ele>
        <time>2021-10-31T16:11:58Z</time>
      </trkpt>
      <trkpt lat="44.18648" lon="3.13534">
        <ele>392.5</ele>
        <time>2021-10-31T16:12:00Z</time>
      </trkpt>
      <trkpt lat="44.18644" lon="3.13526">
        <ele>392.5</ele>
        <time>2021-10-31T16:12:01Z</time>
      </trkpt>
      <trkpt lat="44.1864" lon="3.13518">
        <ele>392.4</ele>
        <time>2021-10-31T16:12:02Z</time>
      </trkpt>
      <trkpt lat="44.18631" lon="3.13503">
        <ele>392.2</ele>
        <time>2021-10-31T16:12:04Z</time>
      </trkpt>
      <trkpt lat="44.18627" lon="3.13495">
        <ele>392.1</ele>
        <time>2021-10-31T16:12:05Z</time>
      </trkpt>
      <trkpt lat="44.18619" lon="3.13479">
        <ele>391.8</ele>
        <time>2021-10-31T16:12:07Z</time>
      </trkpt>
      <trkpt lat="44.1861" lon="3.13464">
        <ele>391.6</ele>
        <time>2021-10-31T16:12:09Z</time>
      </trkpt>
      <trkpt lat="44.18602" lon="3.13452">
        <ele>391.4</ele>
        <time>2021-10-31T16:12:11Z</time>
      </trkpt>
      <trkpt lat="44.18591" lon="3.13439">
        <ele>391.2</ele>
        <time>2021-10-31T16:12:13Z</time>
      </trkpt>
      <trkpt lat="44.18581" lon="3.13427">
        <ele>391</ele>
        <time>2021-10-31T16:12:15Z</time>
      </trkpt>
      <trkpt lat="44.18574" lon="3.13421">
        <ele>390.9</ele>
        <time>2021-10-31T16:12:16Z</time>
      </trkpt>
      <trkpt lat="44.18564" lon="3.13407">
        <ele>390.1</ele>
        <time>2021-10-31T16:12:18Z</time>
      </trkpt>
      <trkpt lat="44.18559" lon="3.13387">
        <ele>388</ele>
        <time>2021-10-31T16:12:20Z</time>
      </trkpt>
      <trkpt lat="44.18557" lon="3.13363">
        <ele>385.4</ele>
        <time>2021-10-31T16:12:22Z</time>
      </trkpt>
      <trkpt lat="44.1855" lon="3.13331">
        <ele>382.7</ele>
        <time>2021-10-31T16:12:24Z</time>
      </trkpt>
      <trkpt lat="44.18545" lon="3.13316">
        <ele>381.9</ele>
        <time>2021-10-31T16:12:25Z</time>
      </trkpt>
      <trkpt lat="44.18536" lon="3.13289">
        <ele>380.7</ele>
        <time>2021-10-31T16:12:27Z</time>
      </trkpt>
      <trkpt lat="44.18528" lon="3.13261">
        <ele>379.8</ele>
        <time>2021-10-31T16:12:29Z</time>
      </trkpt>
      <trkpt lat="44.18523" lon="3.13248">
        <ele>379.4</ele>
        <time>2021-10-31T16:12:30Z</time>
      </trkpt>
      <trkpt lat="44.18518" lon="3.13237">
        <ele>379.2</ele>
        <time>2021-10-31T16:12:31Z</time>
      </trkpt>
      <trkpt lat="44.18507" lon="3.1322">
        <ele>379</ele>
        <time>2021-10-31T16:12:33Z</time>
      </trkpt>
      <trkpt lat="44.18497" lon="3.13205">
        <ele>378.8</ele>
        <time>2021-10-31T16:12:35Z</time>
      </trkpt>
      <trkpt lat="44.18487" lon="3.13191">
        <ele>378.6</ele>
        <time>2021-10-31T16:12:37Z</time>
      </trkpt>
      <trkpt lat="44.18476" lon="3.13178">
        <ele>378.5</ele>
        <time>2021-10-31T16:12:39Z</time>
      </trkpt>
      <trkpt lat="44.18464" lon="3.13165">
        <ele>378.5</ele>
        <time>2021-10-31T16:12:41Z</time>
      </trkpt>
      <trkpt lat="44.18458" lon="3.13159">
        <ele>378.5</ele>
        <time>2021-10-31T16:12:42Z</time>
      </trkpt>
      <trkpt lat="44.18449" lon="3.1315">
        <ele>378.5</ele>
        <time>2021-10-31T16:12:44Z</time>
      </trkpt>
      <trkpt lat="44.18438" lon="3.13142">
        <ele>378.6</ele>
        <time>2021-10-31T16:12:46Z</time>
      </trkpt>
      <trkpt lat="44.18432" lon="3.13138">
        <ele>378.7</ele>
        <time>2021-10-31T16:12:47Z</time>
      </trkpt>
      <trkpt lat="44.18423" lon="3.13132">
        <ele>378.8</ele>
        <time>2021-10-31T16:12:49Z</time>
      </trkpt>
      <trkpt lat="44.18412" lon="3.13126">
        <ele>379</ele>
        <time>2021-10-31T16:12:51Z</time>
      </trkpt>
      <trkpt lat="44.18407" lon="3.13123">
        <ele>379</ele>
        <time>2021-10-31T16:12:52Z</time>
      </trkpt>
      <trkpt lat="44.18397" lon="3.13114">
        <ele>379</ele>
        <time>2021-10-31T16:12:54Z</time>
      </trkpt>
      <trkpt lat="44.18391" lon="3.1311">
        <ele>379</ele>
        <time>2021-10-31T16:12:55Z</time>
      </trkpt>
      <trkpt lat="44.18386" lon="3.13105">
        <ele>378.9</ele>
        <time>2021-10-31T16:12:56Z</time>
      </trkpt>
      <trkpt lat="44.18374" lon="3.13094">
        <ele>378.8</ele>
        <time>2021-10-31T16:12:58Z</time>
      </trkpt>
      <trkpt lat="44.18368" lon="3.1309">
        <ele>378.8</ele>
        <time>2021-10-31T16:12:59Z</time>
      </trkpt>
      <trkpt lat="44.18363" lon="3.13086">
        <ele>378.7</ele>
        <time>2021-10-31T16:13:00Z</time>
      </trkpt>
      <trkpt lat="44.18358" lon="3.13082">
        <ele>378.7</ele>
        <time>2021-10-31T16:13:01Z</time>
      </trkpt>
      <trkpt lat="44.18347" lon="3.13075">
        <ele>378.6</ele>
        <time>2021-10-31T16:13:03Z</time>
      </trkpt>
      <trkpt lat="44.18338" lon="3.1307">
        <ele>378.6</ele>
        <time>2021-10-31T16:13:05Z</time>
      </trkpt>
      <trkpt lat="44.18334" lon="3.13067">
        <ele>378.6</ele>
        <time>2021-10-31T16:13:06Z</time>
      </trkpt>
      <trkpt lat="44.18328" lon="3.13064">
        <ele>378.6</ele>
        <time>2021-10-31T16:13:07Z</time>
      </trkpt>
      <trkpt lat="44.18319" lon="3.13058">
        <ele>378.6</ele>
        <time>2021-10-31T16:13:09Z</time>
      </trkpt>
      <trkpt lat="44.1831" lon="3.13051">
        <ele>378.6</ele>
        <time>2021-10-31T16:13:11Z</time>
      </trkpt>
      <trkpt lat="44.183" lon="3.13045">
        <ele>378.7</ele>
        <time>2021-10-31T16:13:13Z</time>
      </trkpt>
      <trkpt lat="44.1829" lon="3.13039">
        <ele>378.7</ele>
        <time>2021-10-31T16:13:15Z</time>
      </trkpt>
      <trkpt lat="44.18281" lon="3.13034">
        <ele>378.8</ele>
        <time>2021-10-31T16:13:17Z</time>
      </trkpt>
      <trkpt lat="44.18276" lon="3.13031">
        <ele>378.8</ele>
        <time>2021-10-31T16:13:18Z</time>
      </trkpt>
      <trkpt lat="44.18272" lon="3.13028">
        <ele>378.8</ele>
        <time>2021-10-31T16:13:19Z</time>
      </trkpt>
      <trkpt lat="44.18262" lon="3.1302">
        <ele>378.8</ele>
        <time>2021-10-31T16:13:21Z</time>
      </trkpt>
      <trkpt lat="44.18256" lon="3.13016">
        <ele>378.8</ele>
        <time>2021-10-31T16:13:22Z</time>
      </trkpt>
      <trkpt lat="44.18246" lon="3.13008">
        <ele>378.8</ele>
        <time>2021-10-31T16:13:24Z</time>
      </trkpt>
      <trkpt lat="44.18235" lon="3.13001">
        <ele>378.8</ele>
        <time>2021-10-31T16:13:26Z</time>
      </trkpt>
      <trkpt lat="44.1823" lon="3.12997">
        <ele>378.7</ele>
        <time>2021-10-31T16:13:27Z</time>
      </trkpt>
      <trkpt lat="44.18219" lon="3.1299">
        <ele>378.7</ele>
        <time>2021-10-31T16:13:29Z</time>
      </trkpt>
      <trkpt lat="44.18209" lon="3.12983">
        <ele>378.6</ele>
        <time>2021-10-31T16:13:31Z</time>
      </trkpt>
      <trkpt lat="44.18205" lon="3.1298">
        <ele>378.6</ele>
        <time>2021-10-31T16:13:32Z</time>
      </trkpt>
      <trkpt lat="44.182" lon="3.12976">
        <ele>378.6</ele>
        <time>2021-10-31T16:13:33Z</time>
      </trkpt>
      <trkpt lat="44.18191" lon="3.1297">
        <ele>378.6</ele>
        <time>2021-10-31T16:13:35Z</time>
      </trkpt>
      <trkpt lat="44.18186" lon="3.12967">
        <ele>378.6</ele>
        <time>2021-10-31T16:13:36Z</time>
      </trkpt>
      <trkpt lat="44.18174" lon="3.12959">
        <ele>378.6</ele>
        <time>2021-10-31T16:13:38Z</time>
      </trkpt>
      <trkpt lat="44.18162" lon="3.12952">
        <ele>378.6</ele>
        <time>2021-10-31T16:13:40Z</time>
      </trkpt>
      <trkpt lat="44.18155" lon="3.12948">
        <ele>378.5</ele>
        <time>2021-10-31T16:13:41Z</time>
      </trkpt>
      <trkpt lat="44.18143" lon="3.12941">
        <ele>378.5</ele>
        <time>2021-10-31T16:13:43Z</time>
      </trkpt>
      <trkpt lat="44.18136" lon="3.12936">
        <ele>378.5</ele>
        <time>2021-10-31T16:13:44Z</time>
      </trkpt>
      <trkpt lat="44.18126" lon="3.12925">
        <ele>378.5</ele>
        <time>2021-10-31T16:13:46Z</time>
      </trkpt>
      <trkpt lat="44.18122" lon="3.12918">
        <ele>378.4</ele>
        <time>2021-10-31T16:13:47Z</time>
      </trkpt>
      <trkpt lat="44.18116" lon="3.12904">
        <ele>378.4</ele>
        <time>2021-10-31T16:13:49Z</time>
      </trkpt>
      <trkpt lat="44.18111" lon="3.12892">
        <ele>378.3</ele>
        <time>2021-10-31T16:13:51Z</time>
      </trkpt>
      <trkpt lat="44.18108" lon="3.12886">
        <ele>378.3</ele>
        <time>2021-10-31T16:13:52Z</time>
      </trkpt>
      <trkpt lat="44.18107" lon="3.1288">
        <ele>378.2</ele>
        <time>2021-10-31T16:13:53Z</time>
      </trkpt>
      <trkpt lat="44.18104" lon="3.1287">
        <ele>378.2</ele>
        <time>2021-10-31T16:13:55Z</time>
      </trkpt>
      <trkpt lat="44.18101" lon="3.12861">
        <ele>378.2</ele>
        <time>2021-10-31T16:13:57Z</time>
      </trkpt>
      <trkpt lat="44.18099" lon="3.12857">
        <ele>378.2</ele>
        <time>2021-10-31T16:13:58Z</time>
      </trkpt>
      <trkpt lat="44.18094" lon="3.12848">
        <ele>378.2</ele>
        <time>2021-10-31T16:14:00Z</time>
      </trkpt>
      <trkpt lat="44.18091" lon="3.12845">
        <ele>378.2</ele>
        <time>2021-10-31T16:14:01Z</time>
      </trkpt>
      <trkpt lat="44.18083" lon="3.12839">
        <ele>378.3</ele>
        <time>2021-10-31T16:14:03Z</time>
      </trkpt>
      <trkpt lat="44.18078" lon="3.12837">
        <ele>378.3</ele>
        <time>2021-10-31T16:14:04Z</time>
      </trkpt>
      <trkpt lat="44.18073" lon="3.12837">
        <ele>378.4</ele>
        <time>2021-10-31T16:14:05Z</time>
      </trkpt>
      <trkpt lat="44.18064" lon="3.12838">
        <ele>378.6</ele>
        <time>2021-10-31T16:14:07Z</time>
      </trkpt>
      <trkpt lat="44.18055" lon="3.12836">
        <ele>378.8</ele>
        <time>2021-10-31T16:14:09Z</time>
      </trkpt>
      <trkpt lat="44.18052" lon="3.12833">
        <ele>378.9</ele>
        <time>2021-10-31T16:14:10Z</time>
      </trkpt>
      <trkpt lat="44.1805" lon="3.12832">
        <ele>379</ele>
        <time>2021-10-31T16:14:11Z</time>
      </trkpt>
      <trkpt lat="44.18043" lon="3.1283">
        <ele>379.3</ele>
        <time>2021-10-31T16:14:13Z</time>
      </trkpt>
      <trkpt lat="44.18039" lon="3.12829">
        <ele>379.5</ele>
        <time>2021-10-31T16:14:14Z</time>
      </trkpt>
      <trkpt lat="44.18029" lon="3.12829">
        <ele>380</ele>
        <time>2021-10-31T16:14:16Z</time>
      </trkpt>
      <trkpt lat="44.18021" lon="3.12831">
        <ele>380.5</ele>
        <time>2021-10-31T16:14:20Z</time>
      </trkpt>
      <trkpt lat="44.18016" lon="3.1283">
        <ele>380.8</ele>
        <time>2021-10-31T16:14:21Z</time>
      </trkpt>
      <trkpt lat="44.18014" lon="3.12829">
        <ele>381</ele>
        <time>2021-10-31T16:14:22Z</time>
      </trkpt>
      <trkpt lat="44.18011" lon="3.12829">
        <ele>381.2</ele>
        <time>2021-10-31T16:14:24Z</time>
      </trkpt>
      <trkpt lat="44.1801" lon="3.12829">
        <ele>381.3</ele>
        <time>2021-10-31T16:14:25Z</time>
      </trkpt>
      <trkpt lat="44.18008" lon="3.1283">
        <ele>381.4</ele>
        <time>2021-10-31T16:14:26Z</time>
      </trkpt>
      <trkpt lat="44.18005" lon="3.12833">
        <ele>381.7</ele>
        <time>2021-10-31T16:14:28Z</time>
      </trkpt>
      <trkpt lat="44.18" lon="3.12836">
        <ele>382.1</ele>
        <time>2021-10-31T16:14:30Z</time>
      </trkpt>
      <trkpt lat="44.17996" lon="3.12838">
        <ele>382.4</ele>
        <time>2021-10-31T16:14:31Z</time>
      </trkpt>
      <trkpt lat="44.17993" lon="3.12839">
        <ele>382.6</ele>
        <time>2021-10-31T16:14:32Z</time>
      </trkpt>
      <trkpt lat="44.17989" lon="3.1284">
        <ele>382.9</ele>
        <time>2021-10-31T16:14:33Z</time>
      </trkpt>
      <trkpt lat="44.17985" lon="3.12841">
        <ele>383.2</ele>
        <time>2021-10-31T16:14:35Z</time>
      </trkpt>
      <trkpt lat="44.17982" lon="3.12842">
        <ele>383.4</ele>
        <time>2021-10-31T16:14:36Z</time>
      </trkpt>
      <trkpt lat="44.17977" lon="3.12844">
        <ele>383.8</ele>
        <time>2021-10-31T16:14:38Z</time>
      </trkpt>
      <trkpt lat="44.17973" lon="3.12846">
        <ele>384.1</ele>
        <time>2021-10-31T16:14:39Z</time>
      </trkpt>
      <trkpt lat="44.1797" lon="3.12847">
        <ele>384.3</ele>
        <time>2021-10-31T16:14:40Z</time>
      </trkpt>
      <trkpt lat="44.17966" lon="3.12847">
        <ele>384.6</ele>
        <time>2021-10-31T16:14:42Z</time>
      </trkpt>
      <trkpt lat="44.17965" lon="3.12847">
        <ele>384.7</ele>
        <time>2021-10-31T16:14:43Z</time>
      </trkpt>
      <trkpt lat="44.17962" lon="3.12847">
        <ele>384.9</ele>
        <time>2021-10-31T16:14:44Z</time>
      </trkpt>
      <trkpt lat="44.17959" lon="3.12848">
        <ele>385.1</ele>
        <time>2021-10-31T16:14:45Z</time>
      </trkpt>
      <trkpt lat="44.17955" lon="3.12847">
        <ele>385.4</ele>
        <time>2021-10-31T16:14:47Z</time>
      </trkpt>
      <trkpt lat="44.17952" lon="3.12846">
        <ele>385.6</ele>
        <time>2021-10-31T16:14:48Z</time>
      </trkpt>
      <trkpt lat="44.17947" lon="3.12845">
        <ele>385.9</ele>
        <time>2021-10-31T16:14:50Z</time>
      </trkpt>
      <trkpt lat="44.17945" lon="3.12843">
        <ele>386.1</ele>
        <time>2021-10-31T16:14:51Z</time>
      </trkpt>
      <trkpt lat="44.1794" lon="3.12841">
        <ele>386.4</ele>
        <time>2021-10-31T16:14:53Z</time>
      </trkpt>
      <trkpt lat="44.17937" lon="3.12839">
        <ele>386.7</ele>
        <time>2021-10-31T16:14:54Z</time>
      </trkpt>
      <trkpt lat="44.17935" lon="3.12839">
        <ele>386.8</ele>
        <time>2021-10-31T16:14:55Z</time>
      </trkpt>
      <trkpt lat="44.17931" lon="3.12836">
        <ele>387</ele>
        <time>2021-10-31T16:14:56Z</time>
      </trkpt>
      <trkpt lat="44.1793" lon="3.12835">
        <ele>387.1</ele>
        <time>2021-10-31T16:14:57Z</time>
      </trkpt>
      <trkpt lat="44.17926" lon="3.12833">
        <ele>387.4</ele>
        <time>2021-10-31T16:14:59Z</time>
      </trkpt>
      <trkpt lat="44.17923" lon="3.12831">
        <ele>387.5</ele>
        <time>2021-10-31T16:15:00Z</time>
      </trkpt>
      <trkpt lat="44.17919" lon="3.12828">
        <ele>387.9</ele>
        <time>2021-10-31T16:15:02Z</time>
      </trkpt>
      <trkpt lat="44.17914" lon="3.12826">
        <ele>388.2</ele>
        <time>2021-10-31T16:15:04Z</time>
      </trkpt>
      <trkpt lat="44.17909" lon="3.12824">
        <ele>388.5</ele>
        <time>2021-10-31T16:15:05Z</time>
      </trkpt>
      <trkpt lat="44.17905" lon="3.12823">
        <ele>388.8</ele>
        <time>2021-10-31T16:15:07Z</time>
      </trkpt>
      <trkpt lat="44.17904" lon="3.12823">
        <ele>388.9</ele>
        <time>2021-10-31T16:15:08Z</time>
      </trkpt>
      <trkpt lat="44.179" lon="3.12821">
        <ele>389.2</ele>
        <time>2021-10-31T16:15:10Z</time>
      </trkpt>
      <trkpt lat="44.17895" lon="3.1282">
        <ele>389.6</ele>
        <time>2021-10-31T16:15:12Z</time>
      </trkpt>
      <trkpt lat="44.17889" lon="3.12818">
        <ele>390</ele>
        <time>2021-10-31T16:15:14Z</time>
      </trkpt>
      <trkpt lat="44.17885" lon="3.12817">
        <ele>390.2</ele>
        <time>2021-10-31T16:15:15Z</time>
      </trkpt>
      <trkpt lat="44.17881" lon="3.12816">
        <ele>390.6</ele>
        <time>2021-10-31T16:15:16Z</time>
      </trkpt>
      <trkpt lat="44.17876" lon="3.12815">
        <ele>390.9</ele>
        <time>2021-10-31T16:15:18Z</time>
      </trkpt>
      <trkpt lat="44.17874" lon="3.12815">
        <ele>391</ele>
        <time>2021-10-31T16:15:19Z</time>
      </trkpt>
      <trkpt lat="44.17872" lon="3.12814">
        <ele>391.1</ele>
        <time>2021-10-31T16:15:20Z</time>
      </trkpt>
      <trkpt lat="44.1787" lon="3.12812">
        <ele>391.3</ele>
        <time>2021-10-31T16:15:22Z</time>
      </trkpt>
      <trkpt lat="44.17868" lon="3.12807">
        <ele>391.6</ele>
        <time>2021-10-31T16:15:23Z</time>
      </trkpt>
      <trkpt lat="44.17868" lon="3.12802">
        <ele>392.5</ele>
        <time>2021-10-31T16:15:24Z</time>
      </trkpt>
      <trkpt lat="44.17869" lon="3.12791">
        <ele>392.1</ele>
        <time>2021-10-31T16:15:27Z</time>
      </trkpt>
      <trkpt lat="44.17871" lon="3.12782">
        <ele>391.7</ele>
        <time>2021-10-31T16:15:28Z</time>
      </trkpt>
      <trkpt lat="44.17868" lon="3.12766">
        <ele>391.1</ele>
        <time>2021-10-31T16:15:30Z</time>
      </trkpt>
      <trkpt lat="44.1787" lon="3.1275">
        <ele>390.5</ele>
        <time>2021-10-31T16:15:32Z</time>
      </trkpt>
      <trkpt lat="44.1787" lon="3.12738">
        <ele>390.1</ele>
        <time>2021-10-31T16:15:34Z</time>
      </trkpt>
      <trkpt lat="44.17869" lon="3.1273">
        <ele>389.8</ele>
        <time>2021-10-31T16:15:35Z</time>
      </trkpt>
      <trkpt lat="44.17865" lon="3.12714">
        <ele>389.1</ele>
        <time>2021-10-31T16:15:37Z</time>
      </trkpt>
      <trkpt lat="44.17862" lon="3.12707">
        <ele>388.8</ele>
        <time>2021-10-31T16:15:38Z</time>
      </trkpt>
      <trkpt lat="44.17857" lon="3.12702">
        <ele>388.4</ele>
        <time>2021-10-31T16:15:39Z</time>
      </trkpt>
      <trkpt lat="44.17842" lon="3.12694">
        <ele>387.5</ele>
        <time>2021-10-31T16:15:41Z</time>
      </trkpt>
      <trkpt lat="44.17834" lon="3.1269">
        <ele>387</ele>
        <time>2021-10-31T16:15:42Z</time>
      </trkpt>
      <trkpt lat="44.17827" lon="3.12686">
        <ele>386.6</ele>
        <time>2021-10-31T16:15:43Z</time>
      </trkpt>
      <trkpt lat="44.17814" lon="3.12679">
        <ele>385.9</ele>
        <time>2021-10-31T16:15:45Z</time>
      </trkpt>
      <trkpt lat="44.178" lon="3.12667">
        <ele>385.2</ele>
        <time>2021-10-31T16:15:47Z</time>
      </trkpt>
      <trkpt lat="44.17789" lon="3.12651">
        <ele>384.6</ele>
        <time>2021-10-31T16:15:49Z</time>
      </trkpt>
      <trkpt lat="44.17786" lon="3.1264">
        <ele>384.4</ele>
        <time>2021-10-31T16:15:50Z</time>
      </trkpt>
      <trkpt lat="44.17781" lon="3.12619">
        <ele>384.2</ele>
        <time>2021-10-31T16:15:52Z</time>
      </trkpt>
      <trkpt lat="44.17779" lon="3.12608">
        <ele>384.1</ele>
        <time>2021-10-31T16:15:53Z</time>
      </trkpt>
      <trkpt lat="44.17777" lon="3.12599">
        <ele>384.1</ele>
        <time>2021-10-31T16:15:54Z</time>
      </trkpt>
      <trkpt lat="44.17774" lon="3.12592">
        <ele>384.1</ele>
        <time>2021-10-31T16:15:56Z</time>
      </trkpt>
      <trkpt lat="44.17775" lon="3.12585">
        <ele>384.1</ele>
        <time>2021-10-31T16:15:57Z</time>
      </trkpt>
      <trkpt lat="44.17774" lon="3.12573">
        <ele>384.1</ele>
        <time>2021-10-31T16:15:59Z</time>
      </trkpt>
      <trkpt lat="44.17771" lon="3.12566">
        <ele>384.2</ele>
        <time>2021-10-31T16:16:00Z</time>
      </trkpt>
      <trkpt lat="44.17768" lon="3.12557">
        <ele>384.2</ele>
        <time>2021-10-31T16:16:01Z</time>
      </trkpt>
      <trkpt lat="44.17764" lon="3.12544">
        <ele>384.3</ele>
        <time>2021-10-31T16:16:02Z</time>
      </trkpt>
      <trkpt lat="44.1776" lon="3.12533">
        <ele>384.4</ele>
        <time>2021-10-31T16:16:03Z</time>
      </trkpt>
      <trkpt lat="44.17753" lon="3.12524">
        <ele>384.4</ele>
        <time>2021-10-31T16:16:04Z</time>
      </trkpt>
      <trkpt lat="44.17747" lon="3.1252">
        <ele>384.5</ele>
        <time>2021-10-31T16:16:05Z</time>
      </trkpt>
      <trkpt lat="44.17743" lon="3.12514">
        <ele>384.6</ele>
        <time>2021-10-31T16:16:07Z</time>
      </trkpt>
      <trkpt lat="44.17744" lon="3.12518">
        <ele>384.6</ele>
        <time>2021-10-31T16:16:08Z</time>
      </trkpt>
      <trkpt lat="44.1774" lon="3.12522">
        <ele>384.7</ele>
        <time>2021-10-31T16:16:09Z</time>
      </trkpt>
      <trkpt lat="44.17723" lon="3.1252">
        <ele>385</ele>
        <time>2021-10-31T16:16:11Z</time>
      </trkpt>
      <trkpt lat="44.1772" lon="3.12523">
        <ele>385.1</ele>
        <time>2021-10-31T16:16:13Z</time>
      </trkpt>
      <trkpt lat="44.17715" lon="3.12523">
        <ele>385.2</ele>
        <time>2021-10-31T16:16:14Z</time>
      </trkpt>
      <trkpt lat="44.17708" lon="3.1252">
        <ele>385.4</ele>
        <time>2021-10-31T16:16:15Z</time>
      </trkpt>
      <trkpt lat="44.17702" lon="3.12517">
        <ele>385.6</ele>
        <time>2021-10-31T16:16:16Z</time>
      </trkpt>
      <trkpt lat="44.17696" lon="3.12514">
        <ele>386</ele>
        <time>2021-10-31T16:16:17Z</time>
      </trkpt>
      <trkpt lat="44.1769" lon="3.12511">
        <ele>386.4</ele>
        <time>2021-10-31T16:16:18Z</time>
      </trkpt>
      <trkpt lat="44.17685" lon="3.12509">
        <ele>386.8</ele>
        <time>2021-10-31T16:16:20Z</time>
      </trkpt>
      <trkpt lat="44.17678" lon="3.12505">
        <ele>387.3</ele>
        <time>2021-10-31T16:16:21Z</time>
      </trkpt>
      <trkpt lat="44.17673" lon="3.12501">
        <ele>387.7</ele>
        <time>2021-10-31T16:16:22Z</time>
      </trkpt>
      <trkpt lat="44.17669" lon="3.12498">
        <ele>388.1</ele>
        <time>2021-10-31T16:16:24Z</time>
      </trkpt>
      <trkpt lat="44.17665" lon="3.12495">
        <ele>388.5</ele>
        <time>2021-10-31T16:16:25Z</time>
      </trkpt>
      <trkpt lat="44.17657" lon="3.1249">
        <ele>389.1</ele>
        <time>2021-10-31T16:16:27Z</time>
      </trkpt>
      <trkpt lat="44.17653" lon="3.12488">
        <ele>389.4</ele>
        <time>2021-10-31T16:16:28Z</time>
      </trkpt>
      <trkpt lat="44.17649" lon="3.12486">
        <ele>389.8</ele>
        <time>2021-10-31T16:16:29Z</time>
      </trkpt>
      <trkpt lat="44.17643" lon="3.12483">
        <ele>390.3</ele>
        <time>2021-10-31T16:16:30Z</time>
      </trkpt>
      <trkpt lat="44.17638" lon="3.12482">
        <ele>390.7</ele>
        <time>2021-10-31T16:16:32Z</time>
      </trkpt>
      <trkpt lat="44.17632" lon="3.12481">
        <ele>391.2</ele>
        <time>2021-10-31T16:16:34Z</time>
      </trkpt>
      <trkpt lat="44.17629" lon="3.12481">
        <ele>391.4</ele>
        <time>2021-10-31T16:16:35Z</time>
      </trkpt>
      <trkpt lat="44.17624" lon="3.12481">
        <ele>391.7</ele>
        <time>2021-10-31T16:16:36Z</time>
      </trkpt>
      <trkpt lat="44.1762" lon="3.1248">
        <ele>392</ele>
        <time>2021-10-31T16:16:37Z</time>
      </trkpt>
      <trkpt lat="44.17613" lon="3.12477">
        <ele>392.4</ele>
        <time>2021-10-31T16:16:40Z</time>
      </trkpt>
      <trkpt lat="44.17608" lon="3.12469">
        <ele>393.4</ele>
        <time>2021-10-31T16:16:42Z</time>
      </trkpt>
      <trkpt lat="44.17609" lon="3.12463">
        <ele>393.9</ele>
        <time>2021-10-31T16:16:43Z</time>
      </trkpt>
      <trkpt lat="44.17613" lon="3.1246">
        <ele>394.8</ele>
        <time>2021-10-31T16:16:44Z</time>
      </trkpt>
      <trkpt lat="44.17619" lon="3.12458">
        <ele>395</ele>
        <time>2021-10-31T16:16:46Z</time>
      </trkpt>
      <trkpt lat="44.17626" lon="3.12456">
        <ele>395.1</ele>
        <time>2021-10-31T16:16:47Z</time>
      </trkpt>
      <trkpt lat="44.17633" lon="3.12456">
        <ele>395.3</ele>
        <time>2021-10-31T16:16:48Z</time>
      </trkpt>
      <trkpt lat="44.17638" lon="3.12455">
        <ele>395.4</ele>
        <time>2021-10-31T16:16:50Z</time>
      </trkpt>
      <trkpt lat="44.17643" lon="3.12455">
        <ele>395.5</ele>
        <time>2021-10-31T16:16:51Z</time>
      </trkpt>
      <trkpt lat="44.17649" lon="3.12455">
        <ele>395.6</ele>
        <time>2021-10-31T16:16:52Z</time>
      </trkpt>
      <trkpt lat="44.17655" lon="3.12454">
        <ele>395.8</ele>
        <time>2021-10-31T16:16:54Z</time>
      </trkpt>
      <trkpt lat="44.17659" lon="3.12454">
        <ele>395.9</ele>
        <time>2021-10-31T16:16:55Z</time>
      </trkpt>
      <trkpt lat="44.17665" lon="3.12453">
        <ele>396</ele>
        <time>2021-10-31T16:16:56Z</time>
      </trkpt>
      <trkpt lat="44.17669" lon="3.12453">
        <ele>396.1</ele>
        <time>2021-10-31T16:16:57Z</time>
      </trkpt>
      <trkpt lat="44.17674" lon="3.12453">
        <ele>396.2</ele>
        <time>2021-10-31T16:16:58Z</time>
      </trkpt>
      <trkpt lat="44.1768" lon="3.12452">
        <ele>396.4</ele>
        <time>2021-10-31T16:17:00Z</time>
      </trkpt>
      <trkpt lat="44.17686" lon="3.12451">
        <ele>396.6</ele>
        <time>2021-10-31T16:17:01Z</time>
      </trkpt>
      <trkpt lat="44.1769" lon="3.1245">
        <ele>396.8</ele>
        <time>2021-10-31T16:17:02Z</time>
      </trkpt>
      <trkpt lat="44.17694" lon="3.1245">
        <ele>396.9</ele>
        <time>2021-10-31T16:17:04Z</time>
      </trkpt>
      <trkpt lat="44.17698" lon="3.12449">
        <ele>397</ele>
        <time>2021-10-31T16:17:05Z</time>
      </trkpt>
      <trkpt lat="44.17703" lon="3.12449">
        <ele>397.2</ele>
        <time>2021-10-31T16:17:06Z</time>
      </trkpt>
      <trkpt lat="44.17709" lon="3.12448">
        <ele>397.4</ele>
        <time>2021-10-31T16:17:07Z</time>
      </trkpt>
      <trkpt lat="44.17714" lon="3.12447">
        <ele>397.6</ele>
        <time>2021-10-31T16:17:09Z</time>
      </trkpt>
      <trkpt lat="44.1772" lon="3.12447">
        <ele>397.7</ele>
        <time>2021-10-31T16:17:10Z</time>
      </trkpt>
      <trkpt lat="44.17724" lon="3.12446">
        <ele>397.8</ele>
        <time>2021-10-31T16:17:11Z</time>
      </trkpt>
      <trkpt lat="44.17729" lon="3.12446">
        <ele>397.9</ele>
        <time>2021-10-31T16:17:13Z</time>
      </trkpt>
      <trkpt lat="44.17733" lon="3.12445">
        <ele>398</ele>
        <time>2021-10-31T16:17:14Z</time>
      </trkpt>
      <trkpt lat="44.17737" lon="3.12445">
        <ele>398.1</ele>
        <time>2021-10-31T16:17:15Z</time>
      </trkpt>
      <trkpt lat="44.17745" lon="3.12444">
        <ele>398.2</ele>
        <time>2021-10-31T16:17:16Z</time>
      </trkpt>
      <trkpt lat="44.17751" lon="3.12443">
        <ele>398.3</ele>
        <time>2021-10-31T16:17:18Z</time>
      </trkpt>
      <trkpt lat="44.17756" lon="3.12443">
        <ele>398.4</ele>
        <time>2021-10-31T16:17:19Z</time>
      </trkpt>
      <trkpt lat="44.17765" lon="3.12442">
        <ele>398.4</ele>
        <time>2021-10-31T16:17:21Z</time>
      </trkpt>
      <trkpt lat="44.1777" lon="3.12442">
        <ele>398.4</ele>
        <time>2021-10-31T16:17:23Z</time>
      </trkpt>
      <trkpt lat="44.17775" lon="3.12442">
        <ele>398.4</ele>
        <time>2021-10-31T16:17:24Z</time>
      </trkpt>
      <trkpt lat="44.17779" lon="3.12442">
        <ele>398.4</ele>
        <time>2021-10-31T16:17:25Z</time>
      </trkpt>
      <trkpt lat="44.1779" lon="3.1244">
        <ele>398.3</ele>
        <time>2021-10-31T16:17:27Z</time>
      </trkpt>
      <trkpt lat="44.17796" lon="3.12439">
        <ele>398.3</ele>
        <time>2021-10-31T16:17:28Z</time>
      </trkpt>
      <trkpt lat="44.17801" lon="3.12437">
        <ele>398.2</ele>
        <time>2021-10-31T16:17:29Z</time>
      </trkpt>
      <trkpt lat="44.17806" lon="3.12435">
        <ele>398.1</ele>
        <time>2021-10-31T16:17:30Z</time>
      </trkpt>
      <trkpt lat="44.17812" lon="3.12434">
        <ele>398</ele>
        <time>2021-10-31T16:17:31Z</time>
      </trkpt>
      <trkpt lat="44.17825" lon="3.12432">
        <ele>397.7</ele>
        <time>2021-10-31T16:17:33Z</time>
      </trkpt>
      <trkpt lat="44.17837" lon="3.1243">
        <ele>397.4</ele>
        <time>2021-10-31T16:17:35Z</time>
      </trkpt>
      <trkpt lat="44.17843" lon="3.12429">
        <ele>397.3</ele>
        <time>2021-10-31T16:17:36Z</time>
      </trkpt>
      <trkpt lat="44.17855" lon="3.12427">
        <ele>397.1</ele>
        <time>2021-10-31T16:17:38Z</time>
      </trkpt>
      <trkpt lat="44.17862" lon="3.12427">
        <ele>397.1</ele>
        <time>2021-10-31T16:17:39Z</time>
      </trkpt>
      <trkpt lat="44.17868" lon="3.12427">
        <ele>397</ele>
        <time>2021-10-31T16:17:40Z</time>
      </trkpt>
      <trkpt lat="44.1788" lon="3.12427">
        <ele>396.8</ele>
        <time>2021-10-31T16:17:42Z</time>
      </trkpt>
      <trkpt lat="44.17893" lon="3.12429">
        <ele>396.6</ele>
        <time>2021-10-31T16:17:44Z</time>
      </trkpt>
      <trkpt lat="44.17906" lon="3.12434">
        <ele>396.2</ele>
        <time>2021-10-31T16:17:46Z</time>
      </trkpt>
      <trkpt lat="44.17912" lon="3.12437">
        <ele>396.1</ele>
        <time>2021-10-31T16:17:47Z</time>
      </trkpt>
      <trkpt lat="44.17925" lon="3.12442">
        <ele>395.8</ele>
        <time>2021-10-31T16:17:49Z</time>
      </trkpt>
      <trkpt lat="44.17938" lon="3.12448">
        <ele>395.5</ele>
        <time>2021-10-31T16:17:51Z</time>
      </trkpt>
      <trkpt lat="44.17951" lon="3.12453">
        <ele>395.1</ele>
        <time>2021-10-31T16:17:53Z</time>
      </trkpt>
      <trkpt lat="44.17958" lon="3.12457">
        <ele>394.9</ele>
        <time>2021-10-31T16:17:54Z</time>
      </trkpt>
      <trkpt lat="44.1797" lon="3.12465">
        <ele>394.6</ele>
        <time>2021-10-31T16:17:56Z</time>
      </trkpt>
      <trkpt lat="44.17977" lon="3.12468">
        <ele>394.4</ele>
        <time>2021-10-31T16:17:57Z</time>
      </trkpt>
      <trkpt lat="44.17984" lon="3.12471">
        <ele>394.2</ele>
        <time>2021-10-31T16:17:58Z</time>
      </trkpt>
      <trkpt lat="44.17998" lon="3.12478">
        <ele>393.8</ele>
        <time>2021-10-31T16:18:00Z</time>
      </trkpt>
      <trkpt lat="44.18011" lon="3.12485">
        <ele>393.5</ele>
        <time>2021-10-31T16:18:02Z</time>
      </trkpt>
      <trkpt lat="44.18018" lon="3.12488">
        <ele>393.3</ele>
        <time>2021-10-31T16:18:03Z</time>
      </trkpt>
      <trkpt lat="44.18025" lon="3.12491">
        <ele>393.2</ele>
        <time>2021-10-31T16:18:04Z</time>
      </trkpt>
      <trkpt lat="44.18032" lon="3.12494">
        <ele>393</ele>
        <time>2021-10-31T16:18:05Z</time>
      </trkpt>
      <trkpt lat="44.18045" lon="3.12501">
        <ele>392.7</ele>
        <time>2021-10-31T16:18:07Z</time>
      </trkpt>
      <trkpt lat="44.18058" lon="3.12507">
        <ele>392.4</ele>
        <time>2021-10-31T16:18:09Z</time>
      </trkpt>
      <trkpt lat="44.18072" lon="3.12513">
        <ele>392.1</ele>
        <time>2021-10-31T16:18:11Z</time>
      </trkpt>
      <trkpt lat="44.18078" lon="3.12516">
        <ele>391.9</ele>
        <time>2021-10-31T16:18:12Z</time>
      </trkpt>
      <trkpt lat="44.18092" lon="3.12522">
        <ele>391.6</ele>
        <time>2021-10-31T16:18:14Z</time>
      </trkpt>
      <trkpt lat="44.18099" lon="3.12525">
        <ele>391.5</ele>
        <time>2021-10-31T16:18:15Z</time>
      </trkpt>
      <trkpt lat="44.18112" lon="3.12531">
        <ele>391.2</ele>
        <time>2021-10-31T16:18:17Z</time>
      </trkpt>
      <trkpt lat="44.18119" lon="3.12535">
        <ele>391.1</ele>
        <time>2021-10-31T16:18:18Z</time>
      </trkpt>
      <trkpt lat="44.18126" lon="3.12538">
        <ele>390.9</ele>
        <time>2021-10-31T16:18:19Z</time>
      </trkpt>
      <trkpt lat="44.18132" lon="3.12541">
        <ele>390.8</ele>
        <time>2021-10-31T16:18:20Z</time>
      </trkpt>
      <trkpt lat="44.18145" lon="3.12549">
        <ele>390.5</ele>
        <time>2021-10-31T16:18:22Z</time>
      </trkpt>
      <trkpt lat="44.18151" lon="3.12553">
        <ele>390.3</ele>
        <time>2021-10-31T16:18:23Z</time>
      </trkpt>
      <trkpt lat="44.18157" lon="3.12556">
        <ele>390.2</ele>
        <time>2021-10-31T16:18:24Z</time>
      </trkpt>
      <trkpt lat="44.1817" lon="3.12563">
        <ele>389.8</ele>
        <time>2021-10-31T16:18:26Z</time>
      </trkpt>
      <trkpt lat="44.18176" lon="3.12567">
        <ele>389.6</ele>
        <time>2021-10-31T16:18:27Z</time>
      </trkpt>
      <trkpt lat="44.18182" lon="3.12572">
        <ele>389.5</ele>
        <time>2021-10-31T16:18:28Z</time>
      </trkpt>
      <trkpt lat="44.18188" lon="3.12576">
        <ele>389.3</ele>
        <time>2021-10-31T16:18:29Z</time>
      </trkpt>
      <trkpt lat="44.18195" lon="3.1258">
        <ele>389.1</ele>
        <time>2021-10-31T16:18:30Z</time>
      </trkpt>
      <trkpt lat="44.18207" lon="3.12589">
        <ele>388.8</ele>
        <time>2021-10-31T16:18:32Z</time>
      </trkpt>
      <trkpt lat="44.18214" lon="3.12594">
        <ele>388.6</ele>
        <time>2021-10-31T16:18:33Z</time>
      </trkpt>
      <trkpt lat="44.1822" lon="3.12599">
        <ele>388.5</ele>
        <time>2021-10-31T16:18:34Z</time>
      </trkpt>
      <trkpt lat="44.18233" lon="3.1261">
        <ele>388.3</ele>
        <time>2021-10-31T16:18:36Z</time>
      </trkpt>
      <trkpt lat="44.18243" lon="3.12623">
        <ele>388.1</ele>
        <time>2021-10-31T16:18:38Z</time>
      </trkpt>
      <trkpt lat="44.18249" lon="3.1263">
        <ele>387.9</ele>
        <time>2021-10-31T16:18:39Z</time>
      </trkpt>
      <trkpt lat="44.18254" lon="3.12636">
        <ele>387.8</ele>
        <time>2021-10-31T16:18:40Z</time>
      </trkpt>
      <trkpt lat="44.18265" lon="3.12647">
        <ele>387.6</ele>
        <time>2021-10-31T16:18:42Z</time>
      </trkpt>
      <trkpt lat="44.18271" lon="3.12652">
        <ele>387.4</ele>
        <time>2021-10-31T16:18:43Z</time>
      </trkpt>
      <trkpt lat="44.18284" lon="3.12661">
        <ele>387.2</ele>
        <time>2021-10-31T16:18:45Z</time>
      </trkpt>
      <trkpt lat="44.18298" lon="3.12667">
        <ele>386.9</ele>
        <time>2021-10-31T16:18:47Z</time>
      </trkpt>
      <trkpt lat="44.18311" lon="3.12671">
        <ele>386.6</ele>
        <time>2021-10-31T16:18:49Z</time>
      </trkpt>
      <trkpt lat="44.18325" lon="3.12677">
        <ele>386.3</ele>
        <time>2021-10-31T16:18:51Z</time>
      </trkpt>
      <trkpt lat="44.18332" lon="3.12679">
        <ele>386.2</ele>
        <time>2021-10-31T16:18:52Z</time>
      </trkpt>
      <trkpt lat="44.18339" lon="3.12681">
        <ele>386</ele>
        <time>2021-10-31T16:18:53Z</time>
      </trkpt>
      <trkpt lat="44.18355" lon="3.12686">
        <ele>385.7</ele>
        <time>2021-10-31T16:18:55Z</time>
      </trkpt>
      <trkpt lat="44.18363" lon="3.12688">
        <ele>385.5</ele>
        <time>2021-10-31T16:18:56Z</time>
      </trkpt>
      <trkpt lat="44.18371" lon="3.1269">
        <ele>385.3</ele>
        <time>2021-10-31T16:18:57Z</time>
      </trkpt>
      <trkpt lat="44.18379" lon="3.12693">
        <ele>385.2</ele>
        <time>2021-10-31T16:18:58Z</time>
      </trkpt>
      <trkpt lat="44.18395" lon="3.12699">
        <ele>384.8</ele>
        <time>2021-10-31T16:19:00Z</time>
      </trkpt>
      <trkpt lat="44.18402" lon="3.12702">
        <ele>384.7</ele>
        <time>2021-10-31T16:19:01Z</time>
      </trkpt>
      <trkpt lat="44.18418" lon="3.12709">
        <ele>384.4</ele>
        <time>2021-10-31T16:19:03Z</time>
      </trkpt>
      <trkpt lat="44.18426" lon="3.12712">
        <ele>384.2</ele>
        <time>2021-10-31T16:19:04Z</time>
      </trkpt>
      <trkpt lat="44.18434" lon="3.12716">
        <ele>384.1</ele>
        <time>2021-10-31T16:19:05Z</time>
      </trkpt>
      <trkpt lat="44.18449" lon="3.12726">
        <ele>383.9</ele>
        <time>2021-10-31T16:19:07Z</time>
      </trkpt>
      <trkpt lat="44.18455" lon="3.12732">
        <ele>383.9</ele>
        <time>2021-10-31T16:19:08Z</time>
      </trkpt>
      <trkpt lat="44.18462" lon="3.12738">
        <ele>383.8</ele>
        <time>2021-10-31T16:19:09Z</time>
      </trkpt>
      <trkpt lat="44.18474" lon="3.12749">
        <ele>383.9</ele>
        <time>2021-10-31T16:19:11Z</time>
      </trkpt>
      <trkpt lat="44.1848" lon="3.12755">
        <ele>383.9</ele>
        <time>2021-10-31T16:19:12Z</time>
      </trkpt>
      <trkpt lat="44.18491" lon="3.12764">
        <ele>384</ele>
        <time>2021-10-31T16:19:14Z</time>
      </trkpt>
      <trkpt lat="44.18496" lon="3.12768">
        <ele>384.1</ele>
        <time>2021-10-31T16:19:15Z</time>
      </trkpt>
      <trkpt lat="44.18507" lon="3.12777">
        <ele>384.2</ele>
        <time>2021-10-31T16:19:17Z</time>
      </trkpt>
      <trkpt lat="44.18512" lon="3.12781">
        <ele>384.3</ele>
        <time>2021-10-31T16:19:18Z</time>
      </trkpt>
      <trkpt lat="44.18517" lon="3.12786">
        <ele>384.3</ele>
        <time>2021-10-31T16:19:19Z</time>
      </trkpt>
      <trkpt lat="44.18521" lon="3.1279">
        <ele>384.4</ele>
        <time>2021-10-31T16:19:20Z</time>
      </trkpt>
      <trkpt lat="44.1853" lon="3.12798">
        <ele>384.5</ele>
        <time>2021-10-31T16:19:22Z</time>
      </trkpt>
      <trkpt lat="44.18534" lon="3.12801">
        <ele>384.6</ele>
        <time>2021-10-31T16:19:23Z</time>
      </trkpt>
      <trkpt lat="44.18542" lon="3.12807">
        <ele>384.7</ele>
        <time>2021-10-31T16:19:25Z</time>
      </trkpt>
      <trkpt lat="44.18546" lon="3.12811">
        <ele>384.7</ele>
        <time>2021-10-31T16:19:26Z</time>
      </trkpt>
      <trkpt lat="44.18551" lon="3.12814">
        <ele>384.8</ele>
        <time>2021-10-31T16:19:27Z</time>
      </trkpt>
      <trkpt lat="44.18559" lon="3.12819">
        <ele>384.9</ele>
        <time>2021-10-31T16:19:29Z</time>
      </trkpt>
      <trkpt lat="44.18562" lon="3.12822">
        <ele>384.9</ele>
        <time>2021-10-31T16:19:30Z</time>
      </trkpt>
      <trkpt lat="44.18565" lon="3.12824">
        <ele>385</ele>
        <time>2021-10-31T16:19:31Z</time>
      </trkpt>
      <trkpt lat="44.18569" lon="3.12829">
        <ele>385</ele>
        <time>2021-10-31T16:19:33Z</time>
      </trkpt>
      <trkpt lat="44.18571" lon="3.12831">
        <ele>385.1</ele>
        <time>2021-10-31T16:19:34Z</time>
      </trkpt>
      <trkpt lat="44.18575" lon="3.12834">
        <ele>385.1</ele>
        <time>2021-10-31T16:19:36Z</time>
      </trkpt>
      <trkpt lat="44.18578" lon="3.12836">
        <ele>385.2</ele>
        <time>2021-10-31T16:19:38Z</time>
      </trkpt>
      <trkpt lat="44.1858" lon="3.12838">
        <ele>385.2</ele>
        <time>2021-10-31T16:19:39Z</time>
      </trkpt>
      <trkpt lat="44.18582" lon="3.12835">
        <ele>385.4</ele>
        <time>2021-10-31T16:19:41Z</time>
      </trkpt>
      <trkpt lat="44.18586" lon="3.12828">
        <ele>386</ele>
        <time>2021-10-31T16:19:42Z</time>
      </trkpt>
      <trkpt lat="44.18592" lon="3.12815">
        <ele>386.8</ele>
        <time>2021-10-31T16:19:44Z</time>
      </trkpt>
      <trkpt lat="44.18596" lon="3.1281">
        <ele>387.1</ele>
        <time>2021-10-31T16:19:45Z</time>
      </trkpt>
      <trkpt lat="44.18603" lon="3.12806">
        <ele>387.7</ele>
        <time>2021-10-31T16:19:46Z</time>
      </trkpt>
      <trkpt lat="44.18608" lon="3.1281">
        <ele>388.1</ele>
        <time>2021-10-31T16:19:48Z</time>
      </trkpt>
      <trkpt lat="44.18613" lon="3.12811">
        <ele>388.4</ele>
        <time>2021-10-31T16:19:49Z</time>
      </trkpt>
      <trkpt lat="44.1862" lon="3.12808">
        <ele>388.9</ele>
        <time>2021-10-31T16:19:51Z</time>
      </trkpt>
      <trkpt lat="44.18625" lon="3.12804">
        <ele>389.4</ele>
        <time>2021-10-31T16:19:52Z</time>
      </trkpt>
      <trkpt lat="44.18631" lon="3.12799">
        <ele>389.8</ele>
        <time>2021-10-31T16:19:54Z</time>
      </trkpt>
      <trkpt lat="44.18636" lon="3.12791">
        <ele>390.4</ele>
        <time>2021-10-31T16:19:56Z</time>
      </trkpt>
      <trkpt lat="44.18639" lon="3.12786">
        <ele>390.7</ele>
        <time>2021-10-31T16:19:57Z</time>
      </trkpt>
      <trkpt lat="44.18642" lon="3.12779">
        <ele>391.2</ele>
        <time>2021-10-31T16:19:58Z</time>
      </trkpt>
      <trkpt lat="44.18644" lon="3.12773">
        <ele>391.5</ele>
        <time>2021-10-31T16:19:59Z</time>
      </trkpt>
      <trkpt lat="44.18647" lon="3.12761">
        <ele>392</ele>
        <time>2021-10-31T16:20:01Z</time>
      </trkpt>
      <trkpt lat="44.18648" lon="3.12751">
        <ele>392.5</ele>
        <time>2021-10-31T16:20:03Z</time>
      </trkpt>
      <trkpt lat="44.18646" lon="3.12742">
        <ele>392.6</ele>
        <time>2021-10-31T16:20:05Z</time>
      </trkpt>
      <trkpt lat="44.18645" lon="3.12738">
        <ele>392.6</ele>
        <time>2021-10-31T16:20:06Z</time>
      </trkpt>
      <trkpt lat="44.18644" lon="3.12737">
        <ele>392.6</ele>
        <time>2021-10-31T16:20:08Z</time>
      </trkpt>
      <trkpt lat="44.18643" lon="3.12738">
        <ele>392.7</ele>
        <time>2021-10-31T16:20:09Z</time>
      </trkpt>
      <trkpt lat="44.18641" lon="3.12739">
        <ele>392.7</ele>
        <time>2021-10-31T16:20:11Z</time>
      </trkpt>
      <trkpt lat="44.1864" lon="3.12743">
        <ele>392.7</ele>
        <time>2021-10-31T16:20:12Z</time>
      </trkpt>
      <trkpt lat="44.18639" lon="3.12743">
        <ele>392.7</ele>
        <time>2021-10-31T16:20:14Z</time>
      </trkpt>
      <trkpt lat="44.18638" lon="3.12743">
        <ele>392.7</ele>
        <time>2021-10-31T16:20:15Z</time>
      </trkpt>
      <trkpt lat="44.18638" lon="3.12744">
        <ele>392.8</ele>
        <time>2021-10-31T16:20:16Z</time>
      </trkpt>
      <trkpt lat="44.18637" lon="3.12744">
        <ele>392.8</ele>
        <time>2021-10-31T16:20:18Z</time>
      </trkpt>
      <trkpt lat="44.18636" lon="3.12745">
        <ele>392.8</ele>
        <time>2021-10-31T16:20:22Z</time>
      </trkpt>
      <trkpt lat="44.18635" lon="3.12745">
        <ele>392.8</ele>
        <time>2021-10-31T16:20:48Z</time>
      </trkpt>
      <trkpt lat="44.18635" lon="3.12746">
        <ele>392.8</ele>
        <time>2021-10-31T16:20:49Z</time>
      </trkpt>
      <trkpt lat="44.18634" lon="3.12746">
        <ele>392.8</ele>
        <time>2021-10-31T16:20:51Z</time>
      </trkpt>
      <trkpt lat="44.18634" lon="3.12747">
        <ele>392.8</ele>
        <time>2021-10-31T16:20:54Z</time>
      </trkpt>
      <trkpt lat="44.18633" lon="3.12747">
        <ele>392.8</ele>
        <time>2021-10-31T16:20:55Z</time>
      </trkpt>
      <trkpt lat="44.18632" lon="3.12749">
        <ele>392.9</ele>
        <time>2021-10-31T16:20:58Z</time>
      </trkpt>
      <trkpt lat="44.18632" lon="3.1275">
        <ele>392.9</ele>
        <time>2021-10-31T16:21:00Z</time>
      </trkpt>
    </trkseg>
  </trk>
  <trk>
    <name><![CDATA[Trace 2]]></name>
    <desc><![CDATA[Tout en corniches + arche (variante)]]></desc>
    <extensions>
      <line xmlns="http://www.topografix.com/GPX/gpx_style/0/2">
        <color>ff0000</color>
        <width>4</width>
          <extensions>
            <sens>1</sens>
          </extensions>
      </line>
    </extensions>
    <trkseg>
      <trkpt lat="44.12319" lon="3.11844">
        <ele>834.4</ele>
        <time>2021-09-30T12:06:37Z</time>
      </trkpt>
      <trkpt lat="44.1233" lon="3.11856">
        <ele>834.3</ele>
        <time>2021-09-30T12:06:39Z</time>
      </trkpt>
      <trkpt lat="44.12335" lon="3.1186">
        <ele>834.2</ele>
        <time>2021-09-30T12:06:40Z</time>
      </trkpt>
      <trkpt lat="44.12348" lon="3.11857">
        <ele>834</ele>
        <time>2021-09-30T12:06:42Z</time>
      </trkpt>
      <trkpt lat="44.12353" lon="3.11853">
        <ele>833.9</ele>
        <time>2021-09-30T12:06:43Z</time>
      </trkpt>
      <trkpt lat="44.12358" lon="3.1185">
        <ele>833.9</ele>
        <time>2021-09-30T12:06:44Z</time>
      </trkpt>
      <trkpt lat="44.12367" lon="3.11845">
        <ele>833.5</ele>
        <time>2021-09-30T12:06:46Z</time>
      </trkpt>
      <trkpt lat="44.1238" lon="3.11846">
        <ele>833</ele>
        <time>2021-09-30T12:06:48Z</time>
      </trkpt>
      <trkpt lat="44.12392" lon="3.11858">
        <ele>832.5</ele>
        <time>2021-09-30T12:06:50Z</time>
      </trkpt>
      <trkpt lat="44.12396" lon="3.11863">
        <ele>832.5</ele>
        <time>2021-09-30T12:06:51Z</time>
      </trkpt>
      <trkpt lat="44.12404" lon="3.1187">
        <ele>832.3</ele>
        <time>2021-09-30T12:06:53Z</time>
      </trkpt>
      <trkpt lat="44.1241" lon="3.1187">
        <ele>832.2</ele>
        <time>2021-09-30T12:06:54Z</time>
      </trkpt>
      <trkpt lat="44.12423" lon="3.11876">
        <ele>831.4</ele>
        <time>2021-09-30T12:06:56Z</time>
      </trkpt>
      <trkpt lat="44.12435" lon="3.11877">
        <ele>830.8</ele>
        <time>2021-09-30T12:06:58Z</time>
      </trkpt>
      <trkpt lat="44.12441" lon="3.11872">
        <ele>830.2</ele>
        <time>2021-09-30T12:06:59Z</time>
      </trkpt>
      <trkpt lat="44.12447" lon="3.11867">
        <ele>829.1</ele>
        <time>2021-09-30T12:07:00Z</time>
      </trkpt>
      <trkpt lat="44.1246" lon="3.11857">
        <ele>827.2</ele>
        <time>2021-09-30T12:07:02Z</time>
      </trkpt>
      <trkpt lat="44.12474" lon="3.11853">
        <ele>825.4</ele>
        <time>2021-09-30T12:07:04Z</time>
      </trkpt>
      <trkpt lat="44.12481" lon="3.11851">
        <ele>824.4</ele>
        <time>2021-09-30T12:07:05Z</time>
      </trkpt>
      <trkpt lat="44.12489" lon="3.11849">
        <ele>823.2</ele>
        <time>2021-09-30T12:07:06Z</time>
      </trkpt>
      <trkpt lat="44.12505" lon="3.11847">
        <ele>820.8</ele>
        <time>2021-09-30T12:07:08Z</time>
      </trkpt>
      <trkpt lat="44.12519" lon="3.1185">
        <ele>818.9</ele>
        <time>2021-09-30T12:07:10Z</time>
      </trkpt>
      <trkpt lat="44.12525" lon="3.11853">
        <ele>818.3</ele>
        <time>2021-09-30T12:07:11Z</time>
      </trkpt>
      <trkpt lat="44.12528" lon="3.11855">
        <ele>817.9</ele>
        <time>2021-09-30T12:07:12Z</time>
      </trkpt>
      <trkpt lat="44.12538" lon="3.11854">
        <ele>816.6</ele>
        <time>2021-09-30T12:07:14Z</time>
      </trkpt>
      <trkpt lat="44.12549" lon="3.11852">
        <ele>814.7</ele>
        <time>2021-09-30T12:07:16Z</time>
      </trkpt>
      <trkpt lat="44.12562" lon="3.11851">
        <ele>812.7</ele>
        <time>2021-09-30T12:07:18Z</time>
      </trkpt>
      <trkpt lat="44.12575" lon="3.11847">
        <ele>810.7</ele>
        <time>2021-09-30T12:07:20Z</time>
      </trkpt>
      <trkpt lat="44.1258" lon="3.11841">
        <ele>809.6</ele>
        <time>2021-09-30T12:07:21Z</time>
      </trkpt>
      <trkpt lat="44.12587" lon="3.11836">
        <ele>808.5</ele>
        <time>2021-09-30T12:07:22Z</time>
      </trkpt>
      <trkpt lat="44.12602" lon="3.11833">
        <ele>806.2</ele>
        <time>2021-09-30T12:07:24Z</time>
      </trkpt>
      <trkpt lat="44.12611" lon="3.11827">
        <ele>804.7</ele>
        <time>2021-09-30T12:07:26Z</time>
      </trkpt>
      <trkpt lat="44.12613" lon="3.11822">
        <ele>804.5</ele>
        <time>2021-09-30T12:07:27Z</time>
      </trkpt>
      <trkpt lat="44.12611" lon="3.11821">
        <ele>804.6</ele>
        <time>2021-09-30T12:07:28Z</time>
      </trkpt>
      <trkpt lat="44.1261" lon="3.11821">
        <ele>805.1</ele>
        <time>2021-09-30T12:07:29Z</time>
      </trkpt>
      <trkpt lat="44.12608" lon="3.11821">
        <ele>805.2</ele>
        <time>2021-09-30T12:07:30Z</time>
      </trkpt>
      <trkpt lat="44.12605" lon="3.11819">
        <ele>805.7</ele>
        <time>2021-09-30T12:07:31Z</time>
      </trkpt>
      <trkpt lat="44.12602" lon="3.11816">
        <ele>806.1</ele>
        <time>2021-09-30T12:07:32Z</time>
      </trkpt>
      <trkpt lat="44.12601" lon="3.11815">
        <ele>806.6</ele>
        <time>2021-09-30T12:07:33Z</time>
      </trkpt>
      <trkpt lat="44.12598" lon="3.11812">
        <ele>807</ele>
        <time>2021-09-30T12:07:35Z</time>
      </trkpt>
      <trkpt lat="44.12595" lon="3.11813">
        <ele>807.1</ele>
        <time>2021-09-30T12:07:37Z</time>
      </trkpt>
      <trkpt lat="44.12595" lon="3.11815">
        <ele>807.7</ele>
        <time>2021-09-30T12:07:38Z</time>
      </trkpt>
      <trkpt lat="44.12593" lon="3.11812">
        <ele>807.6</ele>
        <time>2021-09-30T12:07:39Z</time>
      </trkpt>
      <trkpt lat="44.12591" lon="3.11808">
        <ele>808</ele>
        <time>2021-09-30T12:07:41Z</time>
      </trkpt>
      <trkpt lat="44.12589" lon="3.11803">
        <ele>808.5</ele>
        <time>2021-09-30T12:07:42Z</time>
      </trkpt>
      <trkpt lat="44.12586" lon="3.11798">
        <ele>808.9</ele>
        <time>2021-09-30T12:07:43Z</time>
      </trkpt>
      <trkpt lat="44.12584" lon="3.11794">
        <ele>809</ele>
        <time>2021-09-30T12:07:44Z</time>
      </trkpt>
      <trkpt lat="44.12582" lon="3.11789">
        <ele>809.5</ele>
        <time>2021-09-30T12:07:45Z</time>
      </trkpt>
      <trkpt lat="44.12581" lon="3.11783">
        <ele>809.7</ele>
        <time>2021-09-30T12:07:46Z</time>
      </trkpt>
      <trkpt lat="44.1258" lon="3.11776">
        <ele>809.8</ele>
        <time>2021-09-30T12:07:48Z</time>
      </trkpt>
      <trkpt lat="44.1258" lon="3.11771">
        <ele>809.9</ele>
        <time>2021-09-30T12:07:49Z</time>
      </trkpt>
      <trkpt lat="44.12581" lon="3.11764">
        <ele>810</ele>
        <time>2021-09-30T12:07:50Z</time>
      </trkpt>
      <trkpt lat="44.12581" lon="3.11757">
        <ele>810.2</ele>
        <time>2021-09-30T12:07:52Z</time>
      </trkpt>
      <trkpt lat="44.12579" lon="3.11749">
        <ele>810.9</ele>
        <time>2021-09-30T12:07:53Z</time>
      </trkpt>
      <trkpt lat="44.12577" lon="3.11745">
        <ele>811</ele>
        <time>2021-09-30T12:07:54Z</time>
      </trkpt>
      <trkpt lat="44.12572" lon="3.1174">
        <ele>812</ele>
        <time>2021-09-30T12:07:56Z</time>
      </trkpt>
      <trkpt lat="44.12569" lon="3.11734">
        <ele>812.6</ele>
        <time>2021-09-30T12:07:57Z</time>
      </trkpt>
      <trkpt lat="44.12569" lon="3.11729">
        <ele>812.7</ele>
        <time>2021-09-30T12:07:58Z</time>
      </trkpt>
      <trkpt lat="44.12569" lon="3.11724">
        <ele>812.9</ele>
        <time>2021-09-30T12:08:00Z</time>
      </trkpt>
      <trkpt lat="44.12569" lon="3.11723">
        <ele>813.1</ele>
        <time>2021-09-30T12:08:01Z</time>
      </trkpt>
      <trkpt lat="44.12569" lon="3.11717">
        <ele>813.3</ele>
        <time>2021-09-30T12:08:02Z</time>
      </trkpt>
      <trkpt lat="44.12568" lon="3.11712">
        <ele>813.4</ele>
        <time>2021-09-30T12:08:03Z</time>
      </trkpt>
      <trkpt lat="44.12567" lon="3.11707">
        <ele>814</ele>
        <time>2021-09-30T12:08:04Z</time>
      </trkpt>
      <trkpt lat="44.12566" lon="3.11701">
        <ele>814.1</ele>
        <time>2021-09-30T12:08:06Z</time>
      </trkpt>
      <trkpt lat="44.12564" lon="3.11694">
        <ele>814.6</ele>
        <time>2021-09-30T12:08:07Z</time>
      </trkpt>
      <trkpt lat="44.12563" lon="3.1169">
        <ele>814.7</ele>
        <time>2021-09-30T12:08:08Z</time>
      </trkpt>
      <trkpt lat="44.12561" lon="3.11686">
        <ele>814.8</ele>
        <time>2021-09-30T12:08:10Z</time>
      </trkpt>
      <trkpt lat="44.12558" lon="3.11682">
        <ele>815.3</ele>
        <time>2021-09-30T12:08:11Z</time>
      </trkpt>
      <trkpt lat="44.12554" lon="3.11679">
        <ele>816</ele>
        <time>2021-09-30T12:08:13Z</time>
      </trkpt>
      <trkpt lat="44.12551" lon="3.11675">
        <ele>816.4</ele>
        <time>2021-09-30T12:08:14Z</time>
      </trkpt>
      <trkpt lat="44.12548" lon="3.11672">
        <ele>816.8</ele>
        <time>2021-09-30T12:08:15Z</time>
      </trkpt>
      <trkpt lat="44.12544" lon="3.11667">
        <ele>817</ele>
        <time>2021-09-30T12:08:17Z</time>
      </trkpt>
      <trkpt lat="44.12541" lon="3.11662">
        <ele>817.2</ele>
        <time>2021-09-30T12:08:18Z</time>
      </trkpt>
      <trkpt lat="44.1254" lon="3.11656">
        <ele>817.3</ele>
        <time>2021-09-30T12:08:19Z</time>
      </trkpt>
      <trkpt lat="44.12539" lon="3.11648">
        <ele>817.4</ele>
        <time>2021-09-30T12:08:21Z</time>
      </trkpt>
      <trkpt lat="44.1254" lon="3.11642">
        <ele>817.3</ele>
        <time>2021-09-30T12:08:22Z</time>
      </trkpt>
      <trkpt lat="44.12542" lon="3.11635">
        <ele>817.2</ele>
        <time>2021-09-30T12:08:23Z</time>
      </trkpt>
      <trkpt lat="44.12544" lon="3.1163">
        <ele>817.2</ele>
        <time>2021-09-30T12:08:24Z</time>
      </trkpt>
      <trkpt lat="44.12545" lon="3.11621">
        <ele>817.1</ele>
        <time>2021-09-30T12:08:26Z</time>
      </trkpt>
      <trkpt lat="44.12544" lon="3.11613">
        <ele>817</ele>
        <time>2021-09-30T12:08:27Z</time>
      </trkpt>
      <trkpt lat="44.12543" lon="3.11604">
        <ele>816.9</ele>
        <time>2021-09-30T12:08:28Z</time>
      </trkpt>
      <trkpt lat="44.1253" lon="3.11585">
        <ele>816.7</ele>
        <time>2021-09-30T12:08:30Z</time>
      </trkpt>
      <trkpt lat="44.12524" lon="3.1158">
        <ele>816.6</ele>
        <time>2021-09-30T12:08:31Z</time>
      </trkpt>
      <trkpt lat="44.12514" lon="3.11569">
        <ele>816.5</ele>
        <time>2021-09-30T12:08:33Z</time>
      </trkpt>
      <trkpt lat="44.12508" lon="3.1155">
        <ele>816.4</ele>
        <time>2021-09-30T12:08:35Z</time>
      </trkpt>
      <trkpt lat="44.12506" lon="3.11541">
        <ele>816.3</ele>
        <time>2021-09-30T12:08:36Z</time>
      </trkpt>
      <trkpt lat="44.12497" lon="3.1153">
        <ele>816.1</ele>
        <time>2021-09-30T12:08:38Z</time>
      </trkpt>
      <trkpt lat="44.12485" lon="3.11525">
        <ele>816</ele>
        <time>2021-09-30T12:08:40Z</time>
      </trkpt>
      <trkpt lat="44.12473" lon="3.1152">
        <ele>815.7</ele>
        <time>2021-09-30T12:08:42Z</time>
      </trkpt>
      <trkpt lat="44.1247" lon="3.11517">
        <ele>815.6</ele>
        <time>2021-09-30T12:08:43Z</time>
      </trkpt>
      <trkpt lat="44.12467" lon="3.11516">
        <ele>815.6</ele>
        <time>2021-09-30T12:08:44Z</time>
      </trkpt>
      <trkpt lat="44.12454" lon="3.1151">
        <ele>815.3</ele>
        <time>2021-09-30T12:08:46Z</time>
      </trkpt>
      <trkpt lat="44.12447" lon="3.11507">
        <ele>815.2</ele>
        <time>2021-09-30T12:08:47Z</time>
      </trkpt>
      <trkpt lat="44.12434" lon="3.11498">
        <ele>814.9</ele>
        <time>2021-09-30T12:08:49Z</time>
      </trkpt>
      <trkpt lat="44.12427" lon="3.11493">
        <ele>814.7</ele>
        <time>2021-09-30T12:08:50Z</time>
      </trkpt>
      <trkpt lat="44.1242" lon="3.11488">
        <ele>814.5</ele>
        <time>2021-09-30T12:08:51Z</time>
      </trkpt>
      <trkpt lat="44.1241" lon="3.11484">
        <ele>814.2</ele>
        <time>2021-09-30T12:08:53Z</time>
      </trkpt>
      <trkpt lat="44.12397" lon="3.11477">
        <ele>813.7</ele>
        <time>2021-09-30T12:08:55Z</time>
      </trkpt>
      <trkpt lat="44.12393" lon="3.11471">
        <ele>813.5</ele>
        <time>2021-09-30T12:08:56Z</time>
      </trkpt>
      <trkpt lat="44.12383" lon="3.11458">
        <ele>813.1</ele>
        <time>2021-09-30T12:08:58Z</time>
      </trkpt>
      <trkpt lat="44.12374" lon="3.11447">
        <ele>812.7</ele>
        <time>2021-09-30T12:09:00Z</time>
      </trkpt>
      <trkpt lat="44.12369" lon="3.11442">
        <ele>812.6</ele>
        <time>2021-09-30T12:09:01Z</time>
      </trkpt>
      <trkpt lat="44.12357" lon="3.11433">
        <ele>812.1</ele>
        <time>2021-09-30T12:09:03Z</time>
      </trkpt>
      <trkpt lat="44.12347" lon="3.11427">
        <ele>811.8</ele>
        <time>2021-09-30T12:09:05Z</time>
      </trkpt>
      <trkpt lat="44.12343" lon="3.11425">
        <ele>811.7</ele>
        <time>2021-09-30T12:09:06Z</time>
      </trkpt>
      <trkpt lat="44.12333" lon="3.1142">
        <ele>811.4</ele>
        <time>2021-09-30T12:09:08Z</time>
      </trkpt>
      <trkpt lat="44.12326" lon="3.11419">
        <ele>811.2</ele>
        <time>2021-09-30T12:09:09Z</time>
      </trkpt>
      <trkpt lat="44.12315" lon="3.11419">
        <ele>810.9</ele>
        <time>2021-09-30T12:09:11Z</time>
      </trkpt>
      <trkpt lat="44.1231" lon="3.11419">
        <ele>810.8</ele>
        <time>2021-09-30T12:09:12Z</time>
      </trkpt>
      <trkpt lat="44.123" lon="3.11417">
        <ele>810.6</ele>
        <time>2021-09-30T12:09:14Z</time>
      </trkpt>
      <trkpt lat="44.12291" lon="3.11415">
        <ele>810.4</ele>
        <time>2021-09-30T12:09:16Z</time>
      </trkpt>
      <trkpt lat="44.12279" lon="3.11414">
        <ele>810.1</ele>
        <time>2021-09-30T12:09:18Z</time>
      </trkpt>
      <trkpt lat="44.12273" lon="3.11413">
        <ele>810</ele>
        <time>2021-09-30T12:09:19Z</time>
      </trkpt>
      <trkpt lat="44.12263" lon="3.11412">
        <ele>809.8</ele>
        <time>2021-09-30T12:09:21Z</time>
      </trkpt>
      <trkpt lat="44.12258" lon="3.11411">
        <ele>809.7</ele>
        <time>2021-09-30T12:09:22Z</time>
      </trkpt>
      <trkpt lat="44.12247" lon="3.11408">
        <ele>809.4</ele>
        <time>2021-09-30T12:09:24Z</time>
      </trkpt>
      <trkpt lat="44.12237" lon="3.11409">
        <ele>809.2</ele>
        <time>2021-09-30T12:09:26Z</time>
      </trkpt>
      <trkpt lat="44.12233" lon="3.1141">
        <ele>809.1</ele>
        <time>2021-09-30T12:09:27Z</time>
      </trkpt>
      <trkpt lat="44.12228" lon="3.11409">
        <ele>808.9</ele>
        <time>2021-09-30T12:09:29Z</time>
      </trkpt>
      <trkpt lat="44.12222" lon="3.11406">
        <ele>808.8</ele>
        <time>2021-09-30T12:09:30Z</time>
      </trkpt>
      <trkpt lat="44.12216" lon="3.11404">
        <ele>808.6</ele>
        <time>2021-09-30T12:09:31Z</time>
      </trkpt>
      <trkpt lat="44.12209" lon="3.11401">
        <ele>808.5</ele>
        <time>2021-09-30T12:09:32Z</time>
      </trkpt>
      <trkpt lat="44.12203" lon="3.11397">
        <ele>808.3</ele>
        <time>2021-09-30T12:09:33Z</time>
      </trkpt>
      <trkpt lat="44.12189" lon="3.11391">
        <ele>808</ele>
        <time>2021-09-30T12:09:35Z</time>
      </trkpt>
      <trkpt lat="44.12178" lon="3.11384">
        <ele>807.9</ele>
        <time>2021-09-30T12:09:37Z</time>
      </trkpt>
      <trkpt lat="44.12172" lon="3.1138">
        <ele>803.7</ele>
        <time>2021-09-30T12:09:38Z</time>
      </trkpt>
      <trkpt lat="44.12162" lon="3.11373">
        <ele>802.2</ele>
        <time>2021-09-30T12:09:40Z</time>
      </trkpt>
      <trkpt lat="44.12156" lon="3.11367">
        <ele>801.4</ele>
        <time>2021-09-30T12:09:41Z</time>
      </trkpt>
      <trkpt lat="44.12151" lon="3.11362">
        <ele>800.7</ele>
        <time>2021-09-30T12:09:42Z</time>
      </trkpt>
      <trkpt lat="44.12141" lon="3.11354">
        <ele>799.4</ele>
        <time>2021-09-30T12:09:44Z</time>
      </trkpt>
      <trkpt lat="44.12134" lon="3.11344">
        <ele>794.2</ele>
        <time>2019-04-19T11:43:36Z</time>
      </trkpt>
      <trkpt lat="44.12131" lon="3.11339">
        <ele>793.4</ele>
        <time>2019-04-19T11:43:37Z</time>
      </trkpt>
      <trkpt lat="44.12124" lon="3.11332">
        <ele>792.3</ele>
        <time>2019-04-19T11:43:38Z</time>
      </trkpt>
      <trkpt lat="44.1212" lon="3.11327">
        <ele>791.7</ele>
        <time>2019-04-19T11:43:39Z</time>
      </trkpt>
      <trkpt lat="44.12116" lon="3.11323">
        <ele>791</ele>
        <time>2019-04-19T11:43:40Z</time>
      </trkpt>
      <trkpt lat="44.12113" lon="3.1132">
        <ele>790.5</ele>
        <time>2019-04-19T11:43:41Z</time>
      </trkpt>
      <trkpt lat="44.12108" lon="3.11317">
        <ele>789.8</ele>
        <time>2019-04-19T11:43:42Z</time>
      </trkpt>
      <trkpt lat="44.12105" lon="3.11314">
        <ele>789.4</ele>
        <time>2019-04-19T11:43:43Z</time>
      </trkpt>
      <trkpt lat="44.12102" lon="3.11313">
        <ele>789</ele>
        <time>2019-04-19T11:43:44Z</time>
      </trkpt>
      <trkpt lat="44.12099" lon="3.11314">
        <ele>789.3</ele>
        <time>2019-04-19T11:43:45Z</time>
      </trkpt>
      <trkpt lat="44.12097" lon="3.11311">
        <ele>789.6</ele>
        <time>2019-04-19T11:43:48Z</time>
      </trkpt>
      <trkpt lat="44.12093" lon="3.1131">
        <ele>789.9</ele>
        <time>2019-04-19T11:43:51Z</time>
      </trkpt>
      <trkpt lat="44.12089" lon="3.11311">
        <ele>790.3</ele>
        <time>2019-04-19T11:43:53Z</time>
      </trkpt>
      <trkpt lat="44.12085" lon="3.11312">
        <ele>790.6</ele>
        <time>2019-04-19T11:43:54Z</time>
      </trkpt>
      <trkpt lat="44.12082" lon="3.11313">
        <ele>790.9</ele>
        <time>2019-04-19T11:43:55Z</time>
      </trkpt>
      <trkpt lat="44.12078" lon="3.11314">
        <ele>791.1</ele>
        <time>2019-04-19T11:43:56Z</time>
      </trkpt>
      <trkpt lat="44.12075" lon="3.11314">
        <ele>791.4</ele>
        <time>2019-04-19T11:43:57Z</time>
      </trkpt>
      <trkpt lat="44.12071" lon="3.11312">
        <ele>791.5</ele>
        <time>2019-04-19T11:43:58Z</time>
      </trkpt>
      <trkpt lat="44.12067" lon="3.11309">
        <ele>791.7</ele>
        <time>2019-04-19T11:43:59Z</time>
      </trkpt>
      <trkpt lat="44.12062" lon="3.11306">
        <ele>791.9</ele>
        <time>2019-04-19T11:44:00Z</time>
      </trkpt>
      <trkpt lat="44.12055" lon="3.11301">
        <ele>792.2</ele>
        <time>2019-04-19T11:44:01Z</time>
      </trkpt>
      <trkpt lat="44.12053" lon="3.11299">
        <ele>792.4</ele>
        <time>2019-04-19T11:44:02Z</time>
      </trkpt>
      <trkpt lat="44.1205" lon="3.11298">
        <ele>792.6</ele>
        <time>2019-04-19T11:44:03Z</time>
      </trkpt>
      <trkpt lat="44.12046" lon="3.11297">
        <ele>792.9</ele>
        <time>2019-04-19T11:44:04Z</time>
      </trkpt>
      <trkpt lat="44.12043" lon="3.11295">
        <ele>793.1</ele>
        <time>2019-04-19T11:44:05Z</time>
      </trkpt>
      <trkpt lat="44.12039" lon="3.11298">
        <ele>793.5</ele>
        <time>2019-04-19T11:44:06Z</time>
      </trkpt>
      <trkpt lat="44.12033" lon="3.11297">
        <ele>793.9</ele>
        <time>2019-04-19T11:44:07Z</time>
      </trkpt>
      <trkpt lat="44.1203" lon="3.11295">
        <ele>794.1</ele>
        <time>2019-04-19T11:44:08Z</time>
      </trkpt>
      <trkpt lat="44.12026" lon="3.11296">
        <ele>794.5</ele>
        <time>2019-04-19T11:44:10Z</time>
      </trkpt>
      <trkpt lat="44.12018" lon="3.11299">
        <ele>795.2</ele>
        <time>2019-04-19T11:44:11Z</time>
      </trkpt>
      <trkpt lat="44.12015" lon="3.113">
        <ele>795.5</ele>
        <time>2019-04-19T11:44:12Z</time>
      </trkpt>
      <trkpt lat="44.1201" lon="3.11302">
        <ele>795.9</ele>
        <time>2019-04-19T11:44:14Z</time>
      </trkpt>
      <trkpt lat="44.12005" lon="3.11304">
        <ele>796.3</ele>
        <time>2019-04-19T11:44:16Z</time>
      </trkpt>
      <trkpt lat="44.12002" lon="3.11302">
        <ele>796.6</ele>
        <time>2019-04-19T11:44:18Z</time>
      </trkpt>
      <trkpt lat="44.12" lon="3.11299">
        <ele>796.8</ele>
        <time>2019-04-19T11:44:19Z</time>
      </trkpt>
      <trkpt lat="44.11998" lon="3.11295">
        <ele>796.9</ele>
        <time>2019-04-19T11:44:20Z</time>
      </trkpt>
      <trkpt lat="44.11995" lon="3.11292">
        <ele>797.1</ele>
        <time>2019-04-19T11:44:21Z</time>
      </trkpt>
      <trkpt lat="44.11993" lon="3.11289">
        <ele>797.3</ele>
        <time>2019-04-19T11:44:22Z</time>
      </trkpt>
      <trkpt lat="44.11991" lon="3.11285">
        <ele>797.4</ele>
        <time>2019-04-19T11:44:23Z</time>
      </trkpt>
      <trkpt lat="44.11987" lon="3.1128">
        <ele>797.5</ele>
        <time>2019-04-19T11:44:24Z</time>
      </trkpt>
      <trkpt lat="44.11984" lon="3.11275">
        <ele>797.7</ele>
        <time>2019-04-19T11:44:25Z</time>
      </trkpt>
      <trkpt lat="44.11981" lon="3.11272">
        <ele>797.8</ele>
        <time>2019-04-19T11:44:26Z</time>
      </trkpt>
      <trkpt lat="44.11977" lon="3.11273">
        <ele>797.9</ele>
        <time>2019-04-19T11:44:28Z</time>
      </trkpt>
      <trkpt lat="44.11974" lon="3.11273">
        <ele>798</ele>
        <time>2019-04-19T11:44:32Z</time>
      </trkpt>
      <trkpt lat="44.11971" lon="3.11271">
        <ele>798.1</ele>
        <time>2019-04-19T11:44:37Z</time>
      </trkpt>
      <trkpt lat="44.11967" lon="3.11267">
        <ele>798.2</ele>
        <time>2019-04-19T11:44:39Z</time>
      </trkpt>
      <trkpt lat="44.11965" lon="3.11265">
        <ele>798.3</ele>
        <time>2019-04-19T11:44:40Z</time>
      </trkpt>
      <trkpt lat="44.11961" lon="3.11262">
        <ele>798.4</ele>
        <time>2019-04-19T11:44:41Z</time>
      </trkpt>
      <trkpt lat="44.11957" lon="3.11259">
        <ele>798.5</ele>
        <time>2019-04-19T11:44:42Z</time>
      </trkpt>
      <trkpt lat="44.11954" lon="3.11257">
        <ele>798.5</ele>
        <time>2019-04-19T11:44:43Z</time>
      </trkpt>
      <trkpt lat="44.1195" lon="3.11255">
        <ele>798.5</ele>
        <time>2019-04-19T11:44:44Z</time>
      </trkpt>
      <trkpt lat="44.11943" lon="3.11246">
        <ele>798.6</ele>
        <time>2019-04-19T11:44:45Z</time>
      </trkpt>
      <trkpt lat="44.11929" lon="3.11243">
        <ele>799</ele>
        <time>2019-04-19T11:44:46Z</time>
      </trkpt>
      <trkpt lat="44.11928" lon="3.11238">
        <ele>799.3</ele>
        <time>2019-04-19T11:44:47Z</time>
      </trkpt>
      <trkpt lat="44.11925" lon="3.11234">
        <ele>799.5</ele>
        <time>2019-04-19T11:44:48Z</time>
      </trkpt>
      <trkpt lat="44.11921" lon="3.1123">
        <ele>800</ele>
        <time>2019-04-19T11:44:49Z</time>
      </trkpt>
      <trkpt lat="44.11918" lon="3.11225">
        <ele>800.3</ele>
        <time>2019-04-19T11:44:50Z</time>
      </trkpt>
      <trkpt lat="44.11914" lon="3.11217">
        <ele>800.8</ele>
        <time>2019-04-19T11:44:51Z</time>
      </trkpt>
      <trkpt lat="44.11909" lon="3.11215">
        <ele>800.9</ele>
        <time>2019-04-19T11:44:52Z</time>
      </trkpt>
      <trkpt lat="44.11906" lon="3.1121">
        <ele>801</ele>
        <time>2019-04-19T11:44:53Z</time>
      </trkpt>
      <trkpt lat="44.119" lon="3.11202">
        <ele>800.9</ele>
        <time>2019-04-19T11:44:54Z</time>
      </trkpt>
      <trkpt lat="44.11895" lon="3.11195">
        <ele>800.5</ele>
        <time>2019-04-19T11:44:55Z</time>
      </trkpt>
      <trkpt lat="44.11891" lon="3.11186">
        <ele>800.3</ele>
        <time>2019-04-19T11:44:56Z</time>
      </trkpt>
      <trkpt lat="44.11893" lon="3.11179">
        <ele>800.1</ele>
        <time>2019-04-19T11:44:57Z</time>
      </trkpt>
      <trkpt lat="44.11893" lon="3.11169">
        <ele>799.9</ele>
        <time>2019-04-19T11:44:58Z</time>
      </trkpt>
      <trkpt lat="44.11893" lon="3.1116">
        <ele>799.7</ele>
        <time>2019-04-19T11:44:59Z</time>
      </trkpt>
      <trkpt lat="44.11891" lon="3.11152">
        <ele>799.6</ele>
        <time>2019-04-19T11:45:00Z</time>
      </trkpt>
      <trkpt lat="44.11889" lon="3.1115">
        <ele>799.6</ele>
        <time>2019-04-19T11:45:01Z</time>
      </trkpt>
      <trkpt lat="44.11886" lon="3.11147">
        <ele>799.5</ele>
        <time>2019-04-19T11:45:02Z</time>
      </trkpt>
      <trkpt lat="44.11884" lon="3.11146">
        <ele>799.5</ele>
        <time>2019-04-19T11:45:03Z</time>
      </trkpt>
      <trkpt lat="44.11885" lon="3.11141">
        <ele>799.6</ele>
        <time>2019-04-19T11:45:05Z</time>
      </trkpt>
      <trkpt lat="44.11887" lon="3.11135">
        <ele>799.7</ele>
        <time>2019-04-19T11:45:07Z</time>
      </trkpt>
      <trkpt lat="44.11889" lon="3.11132">
        <ele>800.2</ele>
        <time>2019-04-19T11:45:08Z</time>
      </trkpt>
      <trkpt lat="44.11889" lon="3.11125">
        <ele>800.3</ele>
        <time>2019-04-19T11:45:09Z</time>
      </trkpt>
      <trkpt lat="44.1189" lon="3.11121">
        <ele>800.5</ele>
        <time>2019-04-19T11:45:10Z</time>
      </trkpt>
      <trkpt lat="44.11889" lon="3.11117">
        <ele>800.6</ele>
        <time>2019-04-19T11:45:11Z</time>
      </trkpt>
      <trkpt lat="44.11889" lon="3.11113">
        <ele>800.7</ele>
        <time>2019-04-19T11:45:12Z</time>
      </trkpt>
      <trkpt lat="44.11889" lon="3.11109">
        <ele>800.9</ele>
        <time>2019-04-19T11:45:13Z</time>
      </trkpt>
      <trkpt lat="44.11888" lon="3.11105">
        <ele>801.1</ele>
        <time>2019-04-19T11:45:14Z</time>
      </trkpt>
      <trkpt lat="44.11888" lon="3.111">
        <ele>801.4</ele>
        <time>2019-04-19T11:45:15Z</time>
      </trkpt>
      <trkpt lat="44.11887" lon="3.11094">
        <ele>801.8</ele>
        <time>2019-04-19T11:45:17Z</time>
      </trkpt>
      <trkpt lat="44.11886" lon="3.1109">
        <ele>802</ele>
        <time>2019-04-19T11:45:18Z</time>
      </trkpt>
      <trkpt lat="44.11885" lon="3.11086">
        <ele>802.3</ele>
        <time>2019-04-19T11:45:19Z</time>
      </trkpt>
      <trkpt lat="44.11884" lon="3.11081">
        <ele>802.6</ele>
        <time>2019-04-19T11:45:20Z</time>
      </trkpt>
      <trkpt lat="44.11884" lon="3.11075">
        <ele>802.9</ele>
        <time>2019-04-19T11:45:21Z</time>
      </trkpt>
      <trkpt lat="44.11883" lon="3.1107">
        <ele>803</ele>
        <time>2019-04-19T11:45:22Z</time>
      </trkpt>
      <trkpt lat="44.11882" lon="3.11066">
        <ele>803.2</ele>
        <time>2019-04-19T11:45:23Z</time>
      </trkpt>
      <trkpt lat="44.11881" lon="3.11061">
        <ele>803.4</ele>
        <time>2019-04-19T11:45:24Z</time>
      </trkpt>
      <trkpt lat="44.11881" lon="3.11056">
        <ele>803.5</ele>
        <time>2019-04-19T11:45:25Z</time>
      </trkpt>
      <trkpt lat="44.11881" lon="3.11051">
        <ele>803.7</ele>
        <time>2019-04-19T11:45:26Z</time>
      </trkpt>
      <trkpt lat="44.11881" lon="3.11046">
        <ele>803.9</ele>
        <time>2019-04-19T11:45:27Z</time>
      </trkpt>
      <trkpt lat="44.11881" lon="3.11042">
        <ele>804.1</ele>
        <time>2019-04-19T11:45:28Z</time>
      </trkpt>
      <trkpt lat="44.11881" lon="3.11037">
        <ele>804.3</ele>
        <time>2019-04-19T11:45:29Z</time>
      </trkpt>
      <trkpt lat="44.11881" lon="3.11033">
        <ele>804.5</ele>
        <time>2019-04-19T11:45:30Z</time>
      </trkpt>
      <trkpt lat="44.1188" lon="3.11028">
        <ele>804.7</ele>
        <time>2019-04-19T11:45:31Z</time>
      </trkpt>
      <trkpt lat="44.11879" lon="3.11024">
        <ele>804.9</ele>
        <time>2019-04-19T11:45:32Z</time>
      </trkpt>
      <trkpt lat="44.11878" lon="3.11019">
        <ele>805.1</ele>
        <time>2019-04-19T11:45:33Z</time>
      </trkpt>
      <trkpt lat="44.11876" lon="3.11015">
        <ele>805.4</ele>
        <time>2019-04-19T11:45:34Z</time>
      </trkpt>
      <trkpt lat="44.11875" lon="3.11011">
        <ele>805.6</ele>
        <time>2019-04-19T11:45:35Z</time>
      </trkpt>
      <trkpt lat="44.11874" lon="3.11007">
        <ele>805.8</ele>
        <time>2019-04-19T11:45:36Z</time>
      </trkpt>
      <trkpt lat="44.11873" lon="3.11003">
        <ele>806</ele>
        <time>2019-04-19T11:45:37Z</time>
      </trkpt>
      <trkpt lat="44.11871" lon="3.10997">
        <ele>806.4</ele>
        <time>2019-04-19T11:45:39Z</time>
      </trkpt>
      <trkpt lat="44.11869" lon="3.10993">
        <ele>806.6</ele>
        <time>2019-04-19T11:45:40Z</time>
      </trkpt>
      <trkpt lat="44.11866" lon="3.10988">
        <ele>807</ele>
        <time>2019-04-19T11:45:42Z</time>
      </trkpt>
      <trkpt lat="44.11862" lon="3.10986">
        <ele>807.4</ele>
        <time>2019-04-19T11:45:44Z</time>
      </trkpt>
      <trkpt lat="44.11859" lon="3.10983">
        <ele>807.8</ele>
        <time>2019-04-19T11:45:46Z</time>
      </trkpt>
      <trkpt lat="44.11854" lon="3.10982">
        <ele>808.3</ele>
        <time>2019-04-19T11:45:48Z</time>
      </trkpt>
      <trkpt lat="44.11851" lon="3.10981">
        <ele>808.7</ele>
        <time>2019-04-19T11:45:49Z</time>
      </trkpt>
      <trkpt lat="44.11847" lon="3.10981">
        <ele>809</ele>
        <time>2019-04-19T11:45:51Z</time>
      </trkpt>
      <trkpt lat="44.11843" lon="3.1098">
        <ele>809.3</ele>
        <time>2019-04-19T11:45:53Z</time>
      </trkpt>
      <trkpt lat="44.11839" lon="3.1098">
        <ele>809.8</ele>
        <time>2019-04-19T11:45:55Z</time>
      </trkpt>
      <trkpt lat="44.11835" lon="3.10979">
        <ele>810.4</ele>
        <time>2019-04-19T11:45:57Z</time>
      </trkpt>
      <trkpt lat="44.11831" lon="3.10975">
        <ele>810.9</ele>
        <time>2019-04-19T11:45:59Z</time>
      </trkpt>
      <trkpt lat="44.11829" lon="3.10972">
        <ele>811.2</ele>
        <time>2019-04-19T11:46:01Z</time>
      </trkpt>
      <trkpt lat="44.11827" lon="3.10968">
        <ele>811.6</ele>
        <time>2019-04-19T11:46:03Z</time>
      </trkpt>
      <trkpt lat="44.11825" lon="3.10965">
        <ele>811.9</ele>
        <time>2019-04-19T11:46:04Z</time>
      </trkpt>
      <trkpt lat="44.11823" lon="3.10961">
        <ele>812.2</ele>
        <time>2019-04-19T11:46:05Z</time>
      </trkpt>
      <trkpt lat="44.1182" lon="3.10959">
        <ele>812.6</ele>
        <time>2019-04-19T11:46:06Z</time>
      </trkpt>
      <trkpt lat="44.11817" lon="3.10957">
        <ele>812.9</ele>
        <time>2019-04-19T11:46:07Z</time>
      </trkpt>
      <trkpt lat="44.11813" lon="3.10952">
        <ele>813.2</ele>
        <time>2019-04-19T11:46:09Z</time>
      </trkpt>
      <trkpt lat="44.11811" lon="3.1095">
        <ele>813.3</ele>
        <time>2019-04-19T11:46:10Z</time>
      </trkpt>
      <trkpt lat="44.11808" lon="3.10948">
        <ele>813.4</ele>
        <time>2019-04-19T11:46:11Z</time>
      </trkpt>
      <trkpt lat="44.11804" lon="3.10945">
        <ele>813.5</ele>
        <time>2019-04-19T11:46:13Z</time>
      </trkpt>
      <trkpt lat="44.11798" lon="3.10944">
        <ele>813.4</ele>
        <time>2019-04-19T11:46:15Z</time>
      </trkpt>
      <trkpt lat="44.11793" lon="3.10943">
        <ele>813.3</ele>
        <time>2019-04-19T11:46:16Z</time>
      </trkpt>
      <trkpt lat="44.11788" lon="3.10941">
        <ele>812.9</ele>
        <time>2019-04-19T11:46:17Z</time>
      </trkpt>
      <trkpt lat="44.11764" lon="3.10928">
        <ele>809.2</ele>
        <time>2019-04-19T11:46:19Z</time>
      </trkpt>
      <trkpt lat="44.11761" lon="3.10916">
        <ele>807.8</ele>
        <time>2019-04-19T11:46:20Z</time>
      </trkpt>
      <trkpt lat="44.11753" lon="3.10907">
        <ele>806.1</ele>
        <time>2019-04-19T11:46:21Z</time>
      </trkpt>
      <trkpt lat="44.1175" lon="3.10896">
        <ele>804.2</ele>
        <time>2019-04-19T11:46:22Z</time>
      </trkpt>
      <trkpt lat="44.11743" lon="3.10882">
        <ele>801.6</ele>
        <time>2019-04-19T11:46:23Z</time>
      </trkpt>
      <trkpt lat="44.11742" lon="3.1087">
        <ele>799.5</ele>
        <time>2019-04-19T11:46:24Z</time>
      </trkpt>
      <trkpt lat="44.1174" lon="3.10858">
        <ele>797.5</ele>
        <time>2019-04-19T11:46:25Z</time>
      </trkpt>
      <trkpt lat="44.11739" lon="3.1085">
        <ele>796.5</ele>
        <time>2019-04-19T11:46:26Z</time>
      </trkpt>
      <trkpt lat="44.11736" lon="3.10844">
        <ele>795.7</ele>
        <time>2019-04-19T11:46:27Z</time>
      </trkpt>
      <trkpt lat="44.1173" lon="3.10839">
        <ele>794.9</ele>
        <time>2019-04-19T11:46:28Z</time>
      </trkpt>
      <trkpt lat="44.11726" lon="3.10834">
        <ele>794.3</ele>
        <time>2019-04-19T11:46:29Z</time>
      </trkpt>
      <trkpt lat="44.11725" lon="3.10828">
        <ele>793.8</ele>
        <time>2019-04-19T11:46:30Z</time>
      </trkpt>
      <trkpt lat="44.11721" lon="3.10818">
        <ele>792.8</ele>
        <time>2019-04-19T11:46:31Z</time>
      </trkpt>
      <trkpt lat="44.11712" lon="3.10808">
        <ele>791.6</ele>
        <time>2019-04-19T11:46:32Z</time>
      </trkpt>
      <trkpt lat="44.11708" lon="3.10804">
        <ele>791.2</ele>
        <time>2019-04-19T11:46:33Z</time>
      </trkpt>
      <trkpt lat="44.11703" lon="3.10802">
        <ele>790.8</ele>
        <time>2019-04-19T11:46:34Z</time>
      </trkpt>
      <trkpt lat="44.11698" lon="3.10801">
        <ele>790.3</ele>
        <time>2019-04-19T11:46:35Z</time>
      </trkpt>
      <trkpt lat="44.11696" lon="3.10808">
        <ele>789.9</ele>
        <time>2019-04-19T11:46:36Z</time>
      </trkpt>
      <trkpt lat="44.1169" lon="3.10805">
        <ele>789.6</ele>
        <time>2019-04-19T11:46:37Z</time>
      </trkpt>
      <trkpt lat="44.11687" lon="3.108">
        <ele>789.3</ele>
        <time>2019-04-19T11:46:38Z</time>
      </trkpt>
      <trkpt lat="44.11681" lon="3.10796">
        <ele>788.8</ele>
        <time>2019-04-19T11:46:39Z</time>
      </trkpt>
      <trkpt lat="44.11674" lon="3.10797">
        <ele>788.4</ele>
        <time>2019-04-19T11:46:40Z</time>
      </trkpt>
      <trkpt lat="44.11672" lon="3.10794">
        <ele>788.2</ele>
        <time>2019-04-19T11:46:41Z</time>
      </trkpt>
      <trkpt lat="44.11667" lon="3.1079">
        <ele>788</ele>
        <time>2019-04-19T11:46:42Z</time>
      </trkpt>
      <trkpt lat="44.11664" lon="3.10788">
        <ele>787.8</ele>
        <time>2019-04-19T11:46:43Z</time>
      </trkpt>
      <trkpt lat="44.11662" lon="3.10785">
        <ele>787.8</ele>
        <time>2019-04-19T11:46:44Z</time>
      </trkpt>
      <trkpt lat="44.11657" lon="3.1078">
        <ele>787.7</ele>
        <time>2019-04-19T11:46:46Z</time>
      </trkpt>
      <trkpt lat="44.11655" lon="3.10777">
        <ele>787.8</ele>
        <time>2019-04-19T11:46:47Z</time>
      </trkpt>
      <trkpt lat="44.1165" lon="3.10774">
        <ele>788</ele>
        <time>2019-04-19T11:46:48Z</time>
      </trkpt>
      <trkpt lat="44.11647" lon="3.10771">
        <ele>788.2</ele>
        <time>2019-04-19T11:46:49Z</time>
      </trkpt>
      <trkpt lat="44.11643" lon="3.10768">
        <ele>788.5</ele>
        <time>2019-04-19T11:46:50Z</time>
      </trkpt>
      <trkpt lat="44.1164" lon="3.10766">
        <ele>788.8</ele>
        <time>2019-04-19T11:46:52Z</time>
      </trkpt>
      <trkpt lat="44.11637" lon="3.10764">
        <ele>789.3</ele>
        <time>2019-04-19T11:46:54Z</time>
      </trkpt>
      <trkpt lat="44.11632" lon="3.10762">
        <ele>789.8</ele>
        <time>2019-04-19T11:46:56Z</time>
      </trkpt>
      <trkpt lat="44.11629" lon="3.10762">
        <ele>790.1</ele>
        <time>2019-04-19T11:46:58Z</time>
      </trkpt>
      <trkpt lat="44.11626" lon="3.10761">
        <ele>790.5</ele>
        <time>2019-04-19T11:47:00Z</time>
      </trkpt>
      <trkpt lat="44.11622" lon="3.10759">
        <ele>791</ele>
        <time>2019-04-19T11:47:02Z</time>
      </trkpt>
      <trkpt lat="44.11619" lon="3.10755">
        <ele>791.5</ele>
        <time>2019-04-19T11:47:04Z</time>
      </trkpt>
      <trkpt lat="44.11616" lon="3.10753">
        <ele>791.8</ele>
        <time>2019-04-19T11:47:05Z</time>
      </trkpt>
      <trkpt lat="44.11614" lon="3.10751">
        <ele>792</ele>
        <time>2019-04-19T11:47:06Z</time>
      </trkpt>
      <trkpt lat="44.11611" lon="3.10747">
        <ele>792.4</ele>
        <time>2019-04-19T11:47:08Z</time>
      </trkpt>
      <trkpt lat="44.11608" lon="3.10741">
        <ele>793</ele>
        <time>2019-04-19T11:47:10Z</time>
      </trkpt>
      <trkpt lat="44.11605" lon="3.10737">
        <ele>793.4</ele>
        <time>2019-04-19T11:47:12Z</time>
      </trkpt>
      <trkpt lat="44.11603" lon="3.10734">
        <ele>793.7</ele>
        <time>2019-04-19T11:47:13Z</time>
      </trkpt>
      <trkpt lat="44.11601" lon="3.10732">
        <ele>794</ele>
        <time>2019-04-19T11:47:14Z</time>
      </trkpt>
      <trkpt lat="44.11597" lon="3.10729">
        <ele>794.7</ele>
        <time>2019-04-19T11:47:16Z</time>
      </trkpt>
      <trkpt lat="44.11594" lon="3.10725">
        <ele>795.1</ele>
        <time>2019-04-19T11:47:18Z</time>
      </trkpt>
      <trkpt lat="44.11592" lon="3.10722">
        <ele>795.5</ele>
        <time>2019-04-19T11:47:20Z</time>
      </trkpt>
      <trkpt lat="44.1159" lon="3.10719">
        <ele>796</ele>
        <time>2019-04-19T11:47:22Z</time>
      </trkpt>
      <trkpt lat="44.11587" lon="3.10716">
        <ele>796.5</ele>
        <time>2019-04-19T11:47:24Z</time>
      </trkpt>
      <trkpt lat="44.11585" lon="3.10713">
        <ele>797</ele>
        <time>2019-04-19T11:47:27Z</time>
      </trkpt>
      <trkpt lat="44.11582" lon="3.1071">
        <ele>797.6</ele>
        <time>2019-04-19T11:47:30Z</time>
      </trkpt>
      <trkpt lat="44.1158" lon="3.10706">
        <ele>798.3</ele>
        <time>2019-04-19T11:47:33Z</time>
      </trkpt>
      <trkpt lat="44.11577" lon="3.10703">
        <ele>799</ele>
        <time>2019-04-19T11:47:36Z</time>
      </trkpt>
      <trkpt lat="44.11574" lon="3.107">
        <ele>799.5</ele>
        <time>2019-04-19T11:47:39Z</time>
      </trkpt>
      <trkpt lat="44.11572" lon="3.10696">
        <ele>800.1</ele>
        <time>2019-04-19T11:47:43Z</time>
      </trkpt>
      <trkpt lat="44.1157" lon="3.10693">
        <ele>800.6</ele>
        <time>2019-04-19T11:47:46Z</time>
      </trkpt>
      <trkpt lat="44.11566" lon="3.10689">
        <ele>801.4</ele>
        <time>2019-04-19T11:47:49Z</time>
      </trkpt>
      <trkpt lat="44.11564" lon="3.10688">
        <ele>801.9</ele>
        <time>2019-04-19T11:47:50Z</time>
      </trkpt>
      <trkpt lat="44.1156" lon="3.10687">
        <ele>802.6</ele>
        <time>2019-04-19T11:47:52Z</time>
      </trkpt>
      <trkpt lat="44.11557" lon="3.10687">
        <ele>803.1</ele>
        <time>2019-04-19T11:47:53Z</time>
      </trkpt>
      <trkpt lat="44.11552" lon="3.10687">
        <ele>803.8</ele>
        <time>2019-04-19T11:47:55Z</time>
      </trkpt>
      <trkpt lat="44.11548" lon="3.10688">
        <ele>804.5</ele>
        <time>2019-04-19T11:47:57Z</time>
      </trkpt>
      <trkpt lat="44.11545" lon="3.10688">
        <ele>805.1</ele>
        <time>2019-04-19T11:48:00Z</time>
      </trkpt>
      <trkpt lat="44.11543" lon="3.10685">
        <ele>805.6</ele>
        <time>2019-04-19T11:48:03Z</time>
      </trkpt>
      <trkpt lat="44.11543" lon="3.1068">
        <ele>806</ele>
        <time>2019-04-19T11:48:07Z</time>
      </trkpt>
      <trkpt lat="44.11542" lon="3.10677">
        <ele>806.3</ele>
        <time>2019-04-19T11:48:09Z</time>
      </trkpt>
      <trkpt lat="44.11543" lon="3.10671">
        <ele>806.6</ele>
        <time>2019-04-19T11:48:12Z</time>
      </trkpt>
      <trkpt lat="44.11542" lon="3.10666">
        <ele>806.8</ele>
        <time>2019-04-19T11:48:14Z</time>
      </trkpt>
      <trkpt lat="44.1154" lon="3.10661">
        <ele>807.1</ele>
        <time>2019-04-19T11:48:16Z</time>
      </trkpt>
      <trkpt lat="44.11538" lon="3.10659">
        <ele>807.4</ele>
        <time>2019-04-19T11:48:18Z</time>
      </trkpt>
      <trkpt lat="44.11535" lon="3.10657">
        <ele>807.7</ele>
        <time>2019-04-19T11:48:20Z</time>
      </trkpt>
      <trkpt lat="44.11531" lon="3.10652">
        <ele>808.2</ele>
        <time>2019-04-19T11:48:22Z</time>
      </trkpt>
      <trkpt lat="44.11527" lon="3.10649">
        <ele>808.8</ele>
        <time>2019-04-19T11:48:24Z</time>
      </trkpt>
      <trkpt lat="44.11524" lon="3.10648">
        <ele>809.1</ele>
        <time>2019-04-19T11:48:25Z</time>
      </trkpt>
      <trkpt lat="44.1152" lon="3.10645">
        <ele>809.6</ele>
        <time>2019-04-19T11:48:27Z</time>
      </trkpt>
      <trkpt lat="44.11516" lon="3.10643">
        <ele>810.2</ele>
        <time>2019-04-19T11:48:29Z</time>
      </trkpt>
      <trkpt lat="44.11512" lon="3.10642">
        <ele>810.6</ele>
        <time>2019-04-19T11:48:31Z</time>
      </trkpt>
      <trkpt lat="44.11508" lon="3.10643">
        <ele>811.2</ele>
        <time>2019-04-19T11:48:34Z</time>
      </trkpt>
      <trkpt lat="44.11504" lon="3.10645">
        <ele>811.7</ele>
        <time>2019-04-19T11:48:36Z</time>
      </trkpt>
      <trkpt lat="44.115" lon="3.10644">
        <ele>812.1</ele>
        <time>2019-04-19T11:48:38Z</time>
      </trkpt>
      <trkpt lat="44.11496" lon="3.10645">
        <ele>812.4</ele>
        <time>2019-04-19T11:48:41Z</time>
      </trkpt>
      <trkpt lat="44.11492" lon="3.10645">
        <ele>812.7</ele>
        <time>2019-04-19T11:48:43Z</time>
      </trkpt>
      <trkpt lat="44.11489" lon="3.10644">
        <ele>812.9</ele>
        <time>2019-04-19T11:48:44Z</time>
      </trkpt>
      <trkpt lat="44.11485" lon="3.10645">
        <ele>813.1</ele>
        <time>2019-04-19T11:48:46Z</time>
      </trkpt>
      <trkpt lat="44.11482" lon="3.10642">
        <ele>813.3</ele>
        <time>2019-04-19T11:48:49Z</time>
      </trkpt>
      <trkpt lat="44.11479" lon="3.10639">
        <ele>813.3</ele>
        <time>2019-04-19T11:48:51Z</time>
      </trkpt>
      <trkpt lat="44.11477" lon="3.10635">
        <ele>813.4</ele>
        <time>2019-04-19T11:48:53Z</time>
      </trkpt>
      <trkpt lat="44.11473" lon="3.1063">
        <ele>813.4</ele>
        <time>2019-04-19T11:48:55Z</time>
      </trkpt>
      <trkpt lat="44.11471" lon="3.10627">
        <ele>813.4</ele>
        <time>2019-04-19T11:48:56Z</time>
      </trkpt>
      <trkpt lat="44.11469" lon="3.10624">
        <ele>813.5</ele>
        <time>2019-04-19T11:48:57Z</time>
      </trkpt>
      <trkpt lat="44.11466" lon="3.1062">
        <ele>813.5</ele>
        <time>2019-04-19T11:48:58Z</time>
      </trkpt>
      <trkpt lat="44.11464" lon="3.10617">
        <ele>813.5</ele>
        <time>2019-04-19T11:48:59Z</time>
      </trkpt>
      <trkpt lat="44.1146" lon="3.10612">
        <ele>813.5</ele>
        <time>2019-04-19T11:49:01Z</time>
      </trkpt>
      <trkpt lat="44.11457" lon="3.1061">
        <ele>813.5</ele>
        <time>2019-04-19T11:49:02Z</time>
      </trkpt>
      <trkpt lat="44.11455" lon="3.10607">
        <ele>813.5</ele>
        <time>2019-04-19T11:49:03Z</time>
      </trkpt>
      <trkpt lat="44.11453" lon="3.10603">
        <ele>813.5</ele>
        <time>2019-04-19T11:49:04Z</time>
      </trkpt>
      <trkpt lat="44.1145" lon="3.10598">
        <ele>813.6</ele>
        <time>2019-04-19T11:49:05Z</time>
      </trkpt>
      <trkpt lat="44.11448" lon="3.10594">
        <ele>813.6</ele>
        <time>2019-04-19T11:49:06Z</time>
      </trkpt>
      <trkpt lat="44.11445" lon="3.1059">
        <ele>813.6</ele>
        <time>2019-04-19T11:49:07Z</time>
      </trkpt>
      <trkpt lat="44.11442" lon="3.10587">
        <ele>813.6</ele>
        <time>2019-04-19T11:49:08Z</time>
      </trkpt>
      <trkpt lat="44.11438" lon="3.10584">
        <ele>813.6</ele>
        <time>2019-04-19T11:49:09Z</time>
      </trkpt>
      <trkpt lat="44.11435" lon="3.1058">
        <ele>813.6</ele>
        <time>2019-04-19T11:49:10Z</time>
      </trkpt>
      <trkpt lat="44.11432" lon="3.10577">
        <ele>813.5</ele>
        <time>2019-04-19T11:49:11Z</time>
      </trkpt>
      <trkpt lat="44.11429" lon="3.10573">
        <ele>813.4</ele>
        <time>2019-04-19T11:49:12Z</time>
      </trkpt>
      <trkpt lat="44.11426" lon="3.1057">
        <ele>813.3</ele>
        <time>2019-04-19T11:49:13Z</time>
      </trkpt>
      <trkpt lat="44.11422" lon="3.10568">
        <ele>813.2</ele>
        <time>2019-04-19T11:49:14Z</time>
      </trkpt>
      <trkpt lat="44.11419" lon="3.10565">
        <ele>813.1</ele>
        <time>2019-04-19T11:49:15Z</time>
      </trkpt>
      <trkpt lat="44.11415" lon="3.10563">
        <ele>813</ele>
        <time>2019-04-19T11:49:16Z</time>
      </trkpt>
      <trkpt lat="44.11412" lon="3.10561">
        <ele>813</ele>
        <time>2019-04-19T11:49:17Z</time>
      </trkpt>
      <trkpt lat="44.11409" lon="3.10558">
        <ele>813</ele>
        <time>2019-04-19T11:49:18Z</time>
      </trkpt>
      <trkpt lat="44.11406" lon="3.10555">
        <ele>813.1</ele>
        <time>2019-04-19T11:49:19Z</time>
      </trkpt>
      <trkpt lat="44.11403" lon="3.10552">
        <ele>813.2</ele>
        <time>2019-04-19T11:49:20Z</time>
      </trkpt>
      <trkpt lat="44.114" lon="3.1055">
        <ele>813.2</ele>
        <time>2019-04-19T11:49:21Z</time>
      </trkpt>
      <trkpt lat="44.11398" lon="3.10547">
        <ele>813.4</ele>
        <time>2019-04-19T11:49:22Z</time>
      </trkpt>
      <trkpt lat="44.11395" lon="3.10544">
        <ele>813.5</ele>
        <time>2019-04-19T11:49:23Z</time>
      </trkpt>
      <trkpt lat="44.11393" lon="3.10542">
        <ele>813.6</ele>
        <time>2019-04-19T11:49:24Z</time>
      </trkpt>
      <trkpt lat="44.11391" lon="3.10538">
        <ele>813.8</ele>
        <time>2019-04-19T11:49:26Z</time>
      </trkpt>
      <trkpt lat="44.11389" lon="3.10533">
        <ele>814</ele>
        <time>2019-04-19T11:49:28Z</time>
      </trkpt>
      <trkpt lat="44.11387" lon="3.10531">
        <ele>814.1</ele>
        <time>2019-04-19T11:49:29Z</time>
      </trkpt>
      <trkpt lat="44.11383" lon="3.1053">
        <ele>814.4</ele>
        <time>2019-04-19T11:49:31Z</time>
      </trkpt>
      <trkpt lat="44.11379" lon="3.10529">
        <ele>814.7</ele>
        <time>2019-04-19T11:49:33Z</time>
      </trkpt>
      <trkpt lat="44.11375" lon="3.10529">
        <ele>815</ele>
        <time>2019-04-19T11:49:35Z</time>
      </trkpt>
      <trkpt lat="44.1137" lon="3.10529">
        <ele>815.4</ele>
        <time>2019-04-19T11:49:37Z</time>
      </trkpt>
      <trkpt lat="44.11365" lon="3.10527">
        <ele>815.8</ele>
        <time>2019-04-19T11:49:39Z</time>
      </trkpt>
      <trkpt lat="44.11362" lon="3.10525">
        <ele>816.2</ele>
        <time>2019-04-19T11:49:41Z</time>
      </trkpt>
      <trkpt lat="44.11357" lon="3.10523">
        <ele>816.6</ele>
        <time>2019-04-19T11:49:43Z</time>
      </trkpt>
      <trkpt lat="44.11353" lon="3.10522">
        <ele>816.9</ele>
        <time>2019-04-19T11:49:44Z</time>
      </trkpt>
      <trkpt lat="44.1135" lon="3.10521">
        <ele>817.2</ele>
        <time>2019-04-19T11:49:45Z</time>
      </trkpt>
      <trkpt lat="44.11346" lon="3.1052">
        <ele>817.5</ele>
        <time>2019-04-19T11:49:46Z</time>
      </trkpt>
      <trkpt lat="44.11344" lon="3.1052">
        <ele>817.8</ele>
        <time>2019-04-19T11:49:47Z</time>
      </trkpt>
      <trkpt lat="44.11339" lon="3.10522">
        <ele>818.2</ele>
        <time>2019-04-19T11:49:49Z</time>
      </trkpt>
      <trkpt lat="44.11335" lon="3.10527">
        <ele>818.8</ele>
        <time>2019-04-19T11:49:51Z</time>
      </trkpt>
      <trkpt lat="44.11333" lon="3.1053">
        <ele>819.1</ele>
        <time>2019-04-19T11:49:52Z</time>
      </trkpt>
      <trkpt lat="44.1133" lon="3.10533">
        <ele>819.4</ele>
        <time>2019-04-19T11:49:54Z</time>
      </trkpt>
      <trkpt lat="44.11327" lon="3.10535">
        <ele>819.7</ele>
        <time>2019-04-19T11:49:56Z</time>
      </trkpt>
      <trkpt lat="44.11323" lon="3.10541">
        <ele>820</ele>
        <time>2019-04-19T11:49:58Z</time>
      </trkpt>
      <trkpt lat="44.11321" lon="3.10546">
        <ele>820.1</ele>
        <time>2019-04-19T11:49:59Z</time>
      </trkpt>
      <trkpt lat="44.1132" lon="3.1055">
        <ele>820.2</ele>
        <time>2019-04-19T11:50:00Z</time>
      </trkpt>
      <trkpt lat="44.11318" lon="3.10557">
        <ele>820.2</ele>
        <time>2019-04-19T11:50:02Z</time>
      </trkpt>
      <trkpt lat="44.11315" lon="3.1056">
        <ele>820.3</ele>
        <time>2019-04-19T11:50:04Z</time>
      </trkpt>
      <trkpt lat="44.11312" lon="3.1056">
        <ele>820.3</ele>
        <time>2019-04-19T11:50:06Z</time>
      </trkpt>
      <trkpt lat="44.11308" lon="3.1056">
        <ele>820.3</ele>
        <time>2019-04-19T11:50:08Z</time>
      </trkpt>
      <trkpt lat="44.11304" lon="3.10559">
        <ele>820.3</ele>
        <time>2019-04-19T11:50:12Z</time>
      </trkpt>
      <trkpt lat="44.113" lon="3.10558">
        <ele>820.3</ele>
        <time>2019-04-19T11:50:13Z</time>
      </trkpt>
      <trkpt lat="44.11296" lon="3.10559">
        <ele>820.2</ele>
        <time>2019-04-19T11:50:14Z</time>
      </trkpt>
      <trkpt lat="44.11292" lon="3.10558">
        <ele>820.2</ele>
        <time>2019-04-19T11:50:15Z</time>
      </trkpt>
      <trkpt lat="44.11288" lon="3.10557">
        <ele>820.2</ele>
        <time>2019-04-19T11:50:16Z</time>
      </trkpt>
      <trkpt lat="44.11284" lon="3.10557">
        <ele>820.2</ele>
        <time>2019-04-19T11:50:17Z</time>
      </trkpt>
      <trkpt lat="44.11281" lon="3.10556">
        <ele>820.1</ele>
        <time>2019-04-19T11:50:18Z</time>
      </trkpt>
      <trkpt lat="44.11278" lon="3.10555">
        <ele>820.1</ele>
        <time>2019-04-19T11:50:19Z</time>
      </trkpt>
      <trkpt lat="44.11275" lon="3.10554">
        <ele>820</ele>
        <time>2019-04-19T11:50:20Z</time>
      </trkpt>
      <trkpt lat="44.11271" lon="3.10553">
        <ele>819.9</ele>
        <time>2019-04-19T11:50:21Z</time>
      </trkpt>
      <trkpt lat="44.11266" lon="3.10553">
        <ele>819.7</ele>
        <time>2019-04-19T11:50:22Z</time>
      </trkpt>
      <trkpt lat="44.11261" lon="3.10554">
        <ele>819.5</ele>
        <time>2019-04-19T11:50:23Z</time>
      </trkpt>
      <trkpt lat="44.11257" lon="3.10555">
        <ele>819.2</ele>
        <time>2019-04-19T11:50:24Z</time>
      </trkpt>
      <trkpt lat="44.11252" lon="3.10555">
        <ele>818.9</ele>
        <time>2019-04-19T11:50:25Z</time>
      </trkpt>
      <trkpt lat="44.11247" lon="3.10554">
        <ele>818.5</ele>
        <time>2019-04-19T11:50:26Z</time>
      </trkpt>
      <trkpt lat="44.11243" lon="3.10551">
        <ele>818</ele>
        <time>2019-04-19T11:50:27Z</time>
      </trkpt>
      <trkpt lat="44.11238" lon="3.10547">
        <ele>817.7</ele>
        <time>2019-04-19T11:50:28Z</time>
      </trkpt>
      <trkpt lat="44.11235" lon="3.10542">
        <ele>817.2</ele>
        <time>2019-04-19T11:50:29Z</time>
      </trkpt>
      <trkpt lat="44.11233" lon="3.10538">
        <ele>817</ele>
        <time>2019-04-19T11:50:30Z</time>
      </trkpt>
      <trkpt lat="44.11232" lon="3.10532">
        <ele>816.7</ele>
        <time>2019-04-19T11:50:31Z</time>
      </trkpt>
      <trkpt lat="44.1123" lon="3.10525">
        <ele>816.5</ele>
        <time>2019-04-19T11:50:32Z</time>
      </trkpt>
      <trkpt lat="44.11228" lon="3.1052">
        <ele>816.4</ele>
        <time>2019-04-19T11:50:33Z</time>
      </trkpt>
      <trkpt lat="44.11227" lon="3.10514">
        <ele>816.4</ele>
        <time>2019-04-19T11:50:34Z</time>
      </trkpt>
      <trkpt lat="44.11226" lon="3.10511">
        <ele>816.4</ele>
        <time>2019-04-19T11:50:35Z</time>
      </trkpt>
      <trkpt lat="44.11222" lon="3.10507">
        <ele>816.5</ele>
        <time>2019-04-19T11:50:37Z</time>
      </trkpt>
      <trkpt lat="44.11218" lon="3.10503">
        <ele>816.7</ele>
        <time>2019-04-19T11:50:39Z</time>
      </trkpt>
      <trkpt lat="44.11214" lon="3.10501">
        <ele>817</ele>
        <time>2019-04-19T11:50:41Z</time>
      </trkpt>
      <trkpt lat="44.11213" lon="3.10498">
        <ele>817.2</ele>
        <time>2019-04-19T11:50:42Z</time>
      </trkpt>
      <trkpt lat="44.1121" lon="3.10495">
        <ele>817.4</ele>
        <time>2019-04-19T11:50:43Z</time>
      </trkpt>
      <trkpt lat="44.11208" lon="3.10491">
        <ele>817.6</ele>
        <time>2019-04-19T11:50:44Z</time>
      </trkpt>
      <trkpt lat="44.11205" lon="3.10486">
        <ele>818</ele>
        <time>2019-04-19T11:50:46Z</time>
      </trkpt>
      <trkpt lat="44.11202" lon="3.10483">
        <ele>818.3</ele>
        <time>2019-04-19T11:50:47Z</time>
      </trkpt>
      <trkpt lat="44.11199" lon="3.10481">
        <ele>818.6</ele>
        <time>2019-04-19T11:50:48Z</time>
      </trkpt>
      <trkpt lat="44.11197" lon="3.10479">
        <ele>818.9</ele>
        <time>2019-04-19T11:50:49Z</time>
      </trkpt>
      <trkpt lat="44.11193" lon="3.10478">
        <ele>819.2</ele>
        <time>2019-04-19T11:50:50Z</time>
      </trkpt>
      <trkpt lat="44.1119" lon="3.10476">
        <ele>819.6</ele>
        <time>2019-04-19T11:50:53Z</time>
      </trkpt>
      <trkpt lat="44.11188" lon="3.10473">
        <ele>820</ele>
        <time>2019-04-19T11:50:55Z</time>
      </trkpt>
      <trkpt lat="44.11184" lon="3.10469">
        <ele>820.5</ele>
        <time>2019-04-19T11:50:58Z</time>
      </trkpt>
      <trkpt lat="44.11183" lon="3.10464">
        <ele>820.9</ele>
        <time>2019-04-19T11:51:00Z</time>
      </trkpt>
      <trkpt lat="44.11182" lon="3.10457">
        <ele>821.3</ele>
        <time>2019-04-19T11:51:02Z</time>
      </trkpt>
      <trkpt lat="44.11179" lon="3.10453">
        <ele>821.8</ele>
        <time>2019-04-19T11:51:04Z</time>
      </trkpt>
      <trkpt lat="44.11177" lon="3.10451">
        <ele>822.1</ele>
        <time>2019-04-19T11:51:05Z</time>
      </trkpt>
      <trkpt lat="44.11173" lon="3.10447">
        <ele>822.7</ele>
        <time>2019-04-19T11:51:07Z</time>
      </trkpt>
      <trkpt lat="44.11169" lon="3.10442">
        <ele>823.3</ele>
        <time>2019-04-19T11:51:09Z</time>
      </trkpt>
      <trkpt lat="44.11166" lon="3.1044">
        <ele>823.7</ele>
        <time>2019-04-19T11:51:10Z</time>
      </trkpt>
      <trkpt lat="44.11163" lon="3.10438">
        <ele>824</ele>
        <time>2019-04-19T11:51:11Z</time>
      </trkpt>
      <trkpt lat="44.1116" lon="3.10436">
        <ele>824.2</ele>
        <time>2019-04-19T11:51:12Z</time>
      </trkpt>
      <trkpt lat="44.11157" lon="3.10433">
        <ele>824.4</ele>
        <time>2019-04-19T11:51:13Z</time>
      </trkpt>
      <trkpt lat="44.11155" lon="3.10429">
        <ele>824.7</ele>
        <time>2019-04-19T11:51:14Z</time>
      </trkpt>
      <trkpt lat="44.11153" lon="3.10425">
        <ele>824.9</ele>
        <time>2019-04-19T11:51:15Z</time>
      </trkpt>
      <trkpt lat="44.11151" lon="3.10421">
        <ele>825</ele>
        <time>2019-04-19T11:51:16Z</time>
      </trkpt>
      <trkpt lat="44.11149" lon="3.10418">
        <ele>825</ele>
        <time>2019-04-19T11:51:17Z</time>
      </trkpt>
      <trkpt lat="44.11147" lon="3.10415">
        <ele>825.1</ele>
        <time>2019-04-19T11:51:18Z</time>
      </trkpt>
      <trkpt lat="44.11145" lon="3.10412">
        <ele>825.1</ele>
        <time>2019-04-19T11:51:19Z</time>
      </trkpt>
      <trkpt lat="44.11142" lon="3.10408">
        <ele>825.2</ele>
        <time>2019-04-19T11:51:21Z</time>
      </trkpt>
      <trkpt lat="44.11139" lon="3.10402">
        <ele>825.3</ele>
        <time>2019-04-19T11:51:23Z</time>
      </trkpt>
      <trkpt lat="44.11138" lon="3.10397">
        <ele>825.4</ele>
        <time>2019-04-19T11:51:24Z</time>
      </trkpt>
      <trkpt lat="44.11138" lon="3.10393">
        <ele>825.5</ele>
        <time>2019-04-19T11:51:25Z</time>
      </trkpt>
      <trkpt lat="44.11136" lon="3.10389">
        <ele>825.6</ele>
        <time>2019-04-19T11:51:26Z</time>
      </trkpt>
      <trkpt lat="44.11134" lon="3.10386">
        <ele>825.7</ele>
        <time>2019-04-19T11:51:27Z</time>
      </trkpt>
      <trkpt lat="44.11132" lon="3.10383">
        <ele>825.8</ele>
        <time>2019-04-19T11:51:28Z</time>
      </trkpt>
      <trkpt lat="44.11129" lon="3.1038">
        <ele>826</ele>
        <time>2019-04-19T11:51:29Z</time>
      </trkpt>
      <trkpt lat="44.11126" lon="3.10376">
        <ele>826.1</ele>
        <time>2019-04-19T11:51:30Z</time>
      </trkpt>
      <trkpt lat="44.11124" lon="3.10373">
        <ele>826.2</ele>
        <time>2019-04-19T11:51:31Z</time>
      </trkpt>
      <trkpt lat="44.11122" lon="3.10371">
        <ele>826.3</ele>
        <time>2019-04-19T11:51:32Z</time>
      </trkpt>
      <trkpt lat="44.1112" lon="3.10368">
        <ele>826.4</ele>
        <time>2019-04-19T11:51:33Z</time>
      </trkpt>
      <trkpt lat="44.11118" lon="3.10365">
        <ele>826.3</ele>
        <time>2019-04-19T11:51:34Z</time>
      </trkpt>
      <trkpt lat="44.11115" lon="3.10359">
        <ele>826.2</ele>
        <time>2019-04-19T11:51:36Z</time>
      </trkpt>
      <trkpt lat="44.11112" lon="3.10355">
        <ele>826.1</ele>
        <time>2019-04-19T11:51:37Z</time>
      </trkpt>
      <trkpt lat="44.1111" lon="3.10351">
        <ele>826.1</ele>
        <time>2019-04-19T11:51:38Z</time>
      </trkpt>
      <trkpt lat="44.11107" lon="3.10347">
        <ele>826</ele>
        <time>2019-04-19T11:51:39Z</time>
      </trkpt>
      <trkpt lat="44.11104" lon="3.10341">
        <ele>825.9</ele>
        <time>2019-04-19T11:51:40Z</time>
      </trkpt>
      <trkpt lat="44.11101" lon="3.10335">
        <ele>825.7</ele>
        <time>2019-04-19T11:51:41Z</time>
      </trkpt>
      <trkpt lat="44.11099" lon="3.10329">
        <ele>825.5</ele>
        <time>2019-04-19T11:51:42Z</time>
      </trkpt>
      <trkpt lat="44.11097" lon="3.10322">
        <ele>825.3</ele>
        <time>2019-04-19T11:51:43Z</time>
      </trkpt>
      <trkpt lat="44.11096" lon="3.10317">
        <ele>825.1</ele>
        <time>2019-04-19T11:51:44Z</time>
      </trkpt>
      <trkpt lat="44.11094" lon="3.10313">
        <ele>824.9</ele>
        <time>2019-04-19T11:51:45Z</time>
      </trkpt>
      <trkpt lat="44.11092" lon="3.10308">
        <ele>824.7</ele>
        <time>2019-04-19T11:51:46Z</time>
      </trkpt>
      <trkpt lat="44.1109" lon="3.10303">
        <ele>824.5</ele>
        <time>2019-04-19T11:51:47Z</time>
      </trkpt>
      <trkpt lat="44.11087" lon="3.10298">
        <ele>824.3</ele>
        <time>2019-04-19T11:51:48Z</time>
      </trkpt>
      <trkpt lat="44.11085" lon="3.10293">
        <ele>824</ele>
        <time>2019-04-19T11:51:49Z</time>
      </trkpt>
      <trkpt lat="44.11082" lon="3.10289">
        <ele>823.8</ele>
        <time>2019-04-19T11:51:50Z</time>
      </trkpt>
      <trkpt lat="44.11081" lon="3.10285">
        <ele>823.7</ele>
        <time>2019-04-19T11:51:51Z</time>
      </trkpt>
      <trkpt lat="44.11077" lon="3.1028">
        <ele>823.5</ele>
        <time>2019-04-19T11:51:53Z</time>
      </trkpt>
      <trkpt lat="44.11076" lon="3.10274">
        <ele>823.4</ele>
        <time>2019-04-19T11:51:55Z</time>
      </trkpt>
      <trkpt lat="44.11077" lon="3.1027">
        <ele>823.3</ele>
        <time>2019-04-19T11:51:57Z</time>
      </trkpt>
      <trkpt lat="44.11081" lon="3.10268">
        <ele>823.3</ele>
        <time>2019-04-19T11:51:59Z</time>
      </trkpt>
      <trkpt lat="44.11085" lon="3.10266">
        <ele>823.3</ele>
        <time>2019-04-19T11:52:01Z</time>
      </trkpt>
      <trkpt lat="44.11088" lon="3.10259">
        <ele>822.8</ele>
        <time>2019-04-19T11:52:03Z</time>
      </trkpt>
      <trkpt lat="44.11088" lon="3.10254">
        <ele>822.5</ele>
        <time>2019-04-19T11:52:04Z</time>
      </trkpt>
      <trkpt lat="44.11088" lon="3.10249">
        <ele>822.2</ele>
        <time>2019-04-19T11:52:05Z</time>
      </trkpt>
      <trkpt lat="44.11086" lon="3.10244">
        <ele>821.9</ele>
        <time>2019-04-19T11:52:06Z</time>
      </trkpt>
      <trkpt lat="44.11084" lon="3.10239">
        <ele>821.6</ele>
        <time>2019-04-19T11:52:07Z</time>
      </trkpt>
      <trkpt lat="44.11082" lon="3.10235">
        <ele>821.3</ele>
        <time>2019-04-19T11:52:08Z</time>
      </trkpt>
      <trkpt lat="44.1108" lon="3.1023">
        <ele>821.1</ele>
        <time>2019-04-19T11:52:09Z</time>
      </trkpt>
      <trkpt lat="44.11077" lon="3.10226">
        <ele>820.8</ele>
        <time>2019-04-19T11:52:10Z</time>
      </trkpt>
      <trkpt lat="44.11075" lon="3.10221">
        <ele>820.5</ele>
        <time>2019-04-19T11:52:11Z</time>
      </trkpt>
      <trkpt lat="44.11072" lon="3.10216">
        <ele>820.2</ele>
        <time>2019-04-19T11:52:12Z</time>
      </trkpt>
      <trkpt lat="44.11069" lon="3.10211">
        <ele>819.8</ele>
        <time>2019-04-19T11:52:13Z</time>
      </trkpt>
      <trkpt lat="44.11066" lon="3.10206">
        <ele>819.5</ele>
        <time>2019-04-19T11:52:14Z</time>
      </trkpt>
      <trkpt lat="44.11063" lon="3.10202">
        <ele>819.2</ele>
        <time>2019-04-19T11:52:15Z</time>
      </trkpt>
      <trkpt lat="44.11061" lon="3.10199">
        <ele>818.9</ele>
        <time>2019-04-19T11:52:16Z</time>
      </trkpt>
      <trkpt lat="44.11059" lon="3.10195">
        <ele>818.6</ele>
        <time>2019-04-19T11:52:17Z</time>
      </trkpt>
      <trkpt lat="44.11057" lon="3.1019">
        <ele>818.3</ele>
        <time>2019-04-19T11:52:18Z</time>
      </trkpt>
      <trkpt lat="44.11057" lon="3.10184">
        <ele>818</ele>
        <time>2019-04-19T11:52:19Z</time>
      </trkpt>
      <trkpt lat="44.11056" lon="3.10178">
        <ele>817.7</ele>
        <time>2019-04-19T11:52:20Z</time>
      </trkpt>
      <trkpt lat="44.11056" lon="3.10172">
        <ele>817.4</ele>
        <time>2019-04-19T11:52:21Z</time>
      </trkpt>
      <trkpt lat="44.11056" lon="3.10166">
        <ele>817.1</ele>
        <time>2019-04-19T11:52:22Z</time>
      </trkpt>
      <trkpt lat="44.11056" lon="3.10162">
        <ele>816.8</ele>
        <time>2019-04-19T11:52:23Z</time>
      </trkpt>
      <trkpt lat="44.11056" lon="3.10157">
        <ele>816.6</ele>
        <time>2019-04-19T11:52:25Z</time>
      </trkpt>
      <trkpt lat="44.11053" lon="3.10156">
        <ele>816.4</ele>
        <time>2019-04-19T11:53:13Z</time>
      </trkpt>
      <trkpt lat="44.1105" lon="3.10154">
        <ele>816.2</ele>
        <time>2019-04-19T11:53:15Z</time>
      </trkpt>
      <trkpt lat="44.11045" lon="3.10153">
        <ele>816</ele>
        <time>2019-04-19T11:53:17Z</time>
      </trkpt>
      <trkpt lat="44.11042" lon="3.10153">
        <ele>815.9</ele>
        <time>2019-04-19T11:53:18Z</time>
      </trkpt>
      <trkpt lat="44.11038" lon="3.10152">
        <ele>815.7</ele>
        <time>2019-04-19T11:53:19Z</time>
      </trkpt>
      <trkpt lat="44.11035" lon="3.10151">
        <ele>815.6</ele>
        <time>2019-04-19T11:53:20Z</time>
      </trkpt>
      <trkpt lat="44.11032" lon="3.1015">
        <ele>815.5</ele>
        <time>2019-04-19T11:53:21Z</time>
      </trkpt>
      <trkpt lat="44.11027" lon="3.10148">
        <ele>815.3</ele>
        <time>2019-04-19T11:53:23Z</time>
      </trkpt>
      <trkpt lat="44.11022" lon="3.10148">
        <ele>815.1</ele>
        <time>2019-04-19T11:53:25Z</time>
      </trkpt>
      <trkpt lat="44.11019" lon="3.10147">
        <ele>815</ele>
        <time>2019-04-19T11:53:26Z</time>
      </trkpt>
      <trkpt lat="44.11016" lon="3.10148">
        <ele>814.8</ele>
        <time>2019-04-19T11:53:27Z</time>
      </trkpt>
      <trkpt lat="44.11012" lon="3.10149">
        <ele>814.6</ele>
        <time>2019-04-19T11:53:28Z</time>
      </trkpt>
      <trkpt lat="44.11008" lon="3.1015">
        <ele>814.2</ele>
        <time>2019-04-19T11:53:29Z</time>
      </trkpt>
      <trkpt lat="44.11006" lon="3.10152">
        <ele>814.8</ele>
        <time>2019-04-19T11:53:30Z</time>
      </trkpt>
      <trkpt lat="44.11003" lon="3.10156">
        <ele>815.6</ele>
        <time>2019-04-19T11:53:32Z</time>
      </trkpt>
      <trkpt lat="44.11" lon="3.1016">
        <ele>816.1</ele>
        <time>2019-04-19T11:53:34Z</time>
      </trkpt>
      <trkpt lat="44.10998" lon="3.10164">
        <ele>816.7</ele>
        <time>2019-04-19T11:53:36Z</time>
      </trkpt>
      <trkpt lat="44.10998" lon="3.10168">
        <ele>817.3</ele>
        <time>2019-04-19T11:53:38Z</time>
      </trkpt>
      <trkpt lat="44.11001" lon="3.10172">
        <ele>818.1</ele>
        <time>2019-04-19T11:53:41Z</time>
      </trkpt>
      <trkpt lat="44.11002" lon="3.10176">
        <ele>818.6</ele>
        <time>2019-04-19T11:53:43Z</time>
      </trkpt>
      <trkpt lat="44.11003" lon="3.1018">
        <ele>819.3</ele>
        <time>2019-04-19T11:53:46Z</time>
      </trkpt>
      <trkpt lat="44.11003" lon="3.10184">
        <ele>819.8</ele>
        <time>2019-04-19T11:53:48Z</time>
      </trkpt>
      <trkpt lat="44.11005" lon="3.10188">
        <ele>820.5</ele>
        <time>2019-04-19T11:53:51Z</time>
      </trkpt>
      <trkpt lat="44.11008" lon="3.10187">
        <ele>821</ele>
        <time>2019-04-19T11:53:59Z</time>
      </trkpt>
      <trkpt lat="44.11009" lon="3.10191">
        <ele>821.7</ele>
        <time>2019-04-19T11:54:12Z</time>
      </trkpt>
      <trkpt lat="44.1101" lon="3.10196">
        <ele>822.3</ele>
        <time>2019-04-19T11:54:16Z</time>
      </trkpt>
      <trkpt lat="44.11011" lon="3.102">
        <ele>822.6</ele>
        <time>2019-04-19T11:54:22Z</time>
      </trkpt>
      <trkpt lat="44.11012" lon="3.10203">
        <ele>823</ele>
        <time>2019-04-19T11:54:26Z</time>
      </trkpt>
      <trkpt lat="44.11012" lon="3.10208">
        <ele>823.3</ele>
        <time>2019-04-19T11:54:29Z</time>
      </trkpt>
      <trkpt lat="44.11013" lon="3.10213">
        <ele>823.8</ele>
        <time>2019-04-19T11:54:33Z</time>
      </trkpt>
      <trkpt lat="44.11014" lon="3.10216">
        <ele>824.1</ele>
        <time>2019-04-19T11:54:35Z</time>
      </trkpt>
      <trkpt lat="44.11015" lon="3.10221">
        <ele>824.5</ele>
        <time>2019-04-19T11:54:38Z</time>
      </trkpt>
      <trkpt lat="44.11016" lon="3.10225">
        <ele>824.8</ele>
        <time>2019-04-19T11:54:41Z</time>
      </trkpt>
      <trkpt lat="44.11017" lon="3.10228">
        <ele>825.1</ele>
        <time>2019-04-19T11:54:46Z</time>
      </trkpt>
      <trkpt lat="44.11018" lon="3.10233">
        <ele>825.5</ele>
        <time>2019-04-19T11:54:48Z</time>
      </trkpt>
      <trkpt lat="44.11019" lon="3.1024">
        <ele>826.2</ele>
        <time>2019-04-19T11:54:50Z</time>
      </trkpt>
      <trkpt lat="44.1102" lon="3.10247">
        <ele>826.9</ele>
        <time>2019-04-19T11:54:52Z</time>
      </trkpt>
      <trkpt lat="44.11022" lon="3.10253">
        <ele>827.5</ele>
        <time>2019-04-19T11:54:54Z</time>
      </trkpt>
      <trkpt lat="44.11023" lon="3.1026">
        <ele>827.9</ele>
        <time>2019-04-19T11:54:56Z</time>
      </trkpt>
      <trkpt lat="44.11026" lon="3.10266">
        <ele>828.4</ele>
        <time>2019-04-19T11:54:58Z</time>
      </trkpt>
      <trkpt lat="44.11028" lon="3.10272">
        <ele>828.8</ele>
        <time>2019-04-19T11:55:00Z</time>
      </trkpt>
      <trkpt lat="44.1103" lon="3.10277">
        <ele>829</ele>
        <time>2019-04-19T11:55:02Z</time>
      </trkpt>
      <trkpt lat="44.11031" lon="3.10285">
        <ele>829.3</ele>
        <time>2019-04-19T11:55:04Z</time>
      </trkpt>
      <trkpt lat="44.1103" lon="3.10289">
        <ele>829.4</ele>
        <time>2019-04-19T11:55:05Z</time>
      </trkpt>
      <trkpt lat="44.11029" lon="3.10295">
        <ele>829.5</ele>
        <time>2019-04-19T11:55:07Z</time>
      </trkpt>
      <trkpt lat="44.11026" lon="3.103">
        <ele>829.6</ele>
        <time>2019-04-19T11:55:09Z</time>
      </trkpt>
      <trkpt lat="44.11024" lon="3.10302">
        <ele>829.6</ele>
        <time>2019-04-19T11:55:11Z</time>
      </trkpt>
      <trkpt lat="44.11021" lon="3.10303">
        <ele>829.6</ele>
        <time>2019-04-19T11:55:14Z</time>
      </trkpt>
      <trkpt lat="44.11019" lon="3.10307">
        <ele>829.6</ele>
        <time>2019-04-19T11:55:17Z</time>
      </trkpt>
      <trkpt lat="44.11019" lon="3.10312">
        <ele>829.6</ele>
        <time>2019-04-19T11:55:20Z</time>
      </trkpt>
      <trkpt lat="44.11019" lon="3.10317">
        <ele>829.5</ele>
        <time>2019-04-19T11:55:22Z</time>
      </trkpt>
      <trkpt lat="44.11019" lon="3.10322">
        <ele>829.4</ele>
        <time>2019-04-19T11:55:24Z</time>
      </trkpt>
      <trkpt lat="44.11018" lon="3.10326">
        <ele>829.3</ele>
        <time>2019-04-19T11:55:34Z</time>
      </trkpt>
      <trkpt lat="44.11017" lon="3.1033">
        <ele>829.3</ele>
        <time>2019-04-19T11:55:38Z</time>
      </trkpt>
      <trkpt lat="44.11016" lon="3.10335">
        <ele>829.2</ele>
        <time>2019-04-19T11:55:40Z</time>
      </trkpt>
      <trkpt lat="44.11016" lon="3.1034">
        <ele>829.1</ele>
        <time>2019-04-19T11:55:42Z</time>
      </trkpt>
      <trkpt lat="44.11015" lon="3.10347">
        <ele>829</ele>
        <time>2019-04-19T11:55:44Z</time>
      </trkpt>
      <trkpt lat="44.11015" lon="3.10352">
        <ele>829.1</ele>
        <time>2019-04-19T11:55:45Z</time>
      </trkpt>
      <trkpt lat="44.11015" lon="3.10357">
        <ele>829.2</ele>
        <time>2019-04-19T11:55:46Z</time>
      </trkpt>
      <trkpt lat="44.11015" lon="3.10362">
        <ele>829.4</ele>
        <time>2019-04-19T11:55:47Z</time>
      </trkpt>
      <trkpt lat="44.11013" lon="3.10371">
        <ele>829.6</ele>
        <time>2019-04-19T11:55:48Z</time>
      </trkpt>
      <trkpt lat="44.11012" lon="3.10378">
        <ele>829.7</ele>
        <time>2019-04-19T11:55:49Z</time>
      </trkpt>
      <trkpt lat="44.11012" lon="3.10386">
        <ele>829.8</ele>
        <time>2019-04-19T11:55:50Z</time>
      </trkpt>
      <trkpt lat="44.11011" lon="3.10395">
        <ele>829.9</ele>
        <time>2019-04-19T11:55:51Z</time>
      </trkpt>
      <trkpt lat="44.1101" lon="3.10403">
        <ele>829.9</ele>
        <time>2019-04-19T11:55:52Z</time>
      </trkpt>
      <trkpt lat="44.1101" lon="3.10411">
        <ele>829.9</ele>
        <time>2019-04-19T11:55:53Z</time>
      </trkpt>
      <trkpt lat="44.1101" lon="3.10426">
        <ele>830.3</ele>
        <time>2019-04-19T11:55:54Z</time>
      </trkpt>
      <trkpt lat="44.11009" lon="3.1043">
        <ele>830.5</ele>
        <time>2019-04-19T11:55:55Z</time>
      </trkpt>
      <trkpt lat="44.11008" lon="3.10439">
        <ele>830.9</ele>
        <time>2019-04-19T11:55:57Z</time>
      </trkpt>
      <trkpt lat="44.11007" lon="3.10444">
        <ele>831.1</ele>
        <time>2019-04-19T11:55:58Z</time>
      </trkpt>
      <trkpt lat="44.11006" lon="3.10449">
        <ele>831.4</ele>
        <time>2019-04-19T11:55:59Z</time>
      </trkpt>
      <trkpt lat="44.11006" lon="3.10454">
        <ele>831.6</ele>
        <time>2019-04-19T11:56:00Z</time>
      </trkpt>
      <trkpt lat="44.11004" lon="3.1046">
        <ele>831.8</ele>
        <time>2019-04-19T11:56:01Z</time>
      </trkpt>
      <trkpt lat="44.11004" lon="3.10465">
        <ele>832</ele>
        <time>2019-04-19T11:56:02Z</time>
      </trkpt>
      <trkpt lat="44.11003" lon="3.10472">
        <ele>832.3</ele>
        <time>2019-04-19T11:56:03Z</time>
      </trkpt>
      <trkpt lat="44.11007" lon="3.105">
        <ele>832.9</ele>
        <time>2019-04-19T11:56:05Z</time>
      </trkpt>
      <trkpt lat="44.11006" lon="3.10507">
        <ele>833</ele>
        <time>2019-04-19T11:56:06Z</time>
      </trkpt>
      <trkpt lat="44.11005" lon="3.10512">
        <ele>833.1</ele>
        <time>2019-04-19T11:56:07Z</time>
      </trkpt>
      <trkpt lat="44.11004" lon="3.10519">
        <ele>833.1</ele>
        <time>2019-04-19T11:56:08Z</time>
      </trkpt>
      <trkpt lat="44.11003" lon="3.10524">
        <ele>833.1</ele>
        <time>2019-04-19T11:56:09Z</time>
      </trkpt>
      <trkpt lat="44.11002" lon="3.10531">
        <ele>832.9</ele>
        <time>2019-04-19T11:56:10Z</time>
      </trkpt>
      <trkpt lat="44.11003" lon="3.10539">
        <ele>832.6</ele>
        <time>2019-04-19T11:56:11Z</time>
      </trkpt>
      <trkpt lat="44.11003" lon="3.10546">
        <ele>832.3</ele>
        <time>2019-04-19T11:56:12Z</time>
      </trkpt>
      <trkpt lat="44.11004" lon="3.10554">
        <ele>831.6</ele>
        <time>2019-04-19T11:56:13Z</time>
      </trkpt>
      <trkpt lat="44.11003" lon="3.10562">
        <ele>830.8</ele>
        <time>2019-04-19T11:56:14Z</time>
      </trkpt>
      <trkpt lat="44.10999" lon="3.10561">
        <ele>830.4</ele>
        <time>2019-04-19T11:56:15Z</time>
      </trkpt>
      <trkpt lat="44.10995" lon="3.10563">
        <ele>829.8</ele>
        <time>2019-04-19T11:56:17Z</time>
      </trkpt>
      <trkpt lat="44.10993" lon="3.10568">
        <ele>829.3</ele>
        <time>2019-04-19T11:56:18Z</time>
      </trkpt>
      <trkpt lat="44.10994" lon="3.10577">
        <ele>828.4</ele>
        <time>2019-04-19T11:56:19Z</time>
      </trkpt>
      <trkpt lat="44.10994" lon="3.10585">
        <ele>827.5</ele>
        <time>2019-04-19T11:56:20Z</time>
      </trkpt>
      <trkpt lat="44.10993" lon="3.10593">
        <ele>826.6</ele>
        <time>2019-04-19T11:56:21Z</time>
      </trkpt>
      <trkpt lat="44.10992" lon="3.10598">
        <ele>825.9</ele>
        <time>2019-04-19T11:56:22Z</time>
      </trkpt>
      <trkpt lat="44.10994" lon="3.10603">
        <ele>825</ele>
        <time>2019-04-19T11:56:39Z</time>
      </trkpt>
      <trkpt lat="44.10998" lon="3.10605">
        <ele>824.4</ele>
        <time>2019-04-19T11:56:41Z</time>
      </trkpt>
      <trkpt lat="44.11001" lon="3.10606">
        <ele>823.9</ele>
        <time>2019-04-19T11:56:42Z</time>
      </trkpt>
      <trkpt lat="44.11004" lon="3.10609">
        <ele>823.2</ele>
        <time>2019-04-19T11:56:44Z</time>
      </trkpt>
      <trkpt lat="44.11001" lon="3.10609">
        <ele>822.5</ele>
        <time>2019-04-19T11:56:59Z</time>
      </trkpt>
      <trkpt lat="44.10996" lon="3.10606">
        <ele>821.6</ele>
        <time>2019-04-19T11:57:01Z</time>
      </trkpt>
      <trkpt lat="44.10992" lon="3.10605">
        <ele>821</ele>
        <time>2019-04-19T11:57:03Z</time>
      </trkpt>
      <trkpt lat="44.10988" lon="3.10606">
        <ele>820.5</ele>
        <time>2019-04-19T11:57:06Z</time>
      </trkpt>
      <trkpt lat="44.10985" lon="3.10605">
        <ele>820.1</ele>
        <time>2019-04-19T11:57:08Z</time>
      </trkpt>
      <trkpt lat="44.10982" lon="3.10606">
        <ele>819.8</ele>
        <time>2019-04-19T11:57:10Z</time>
      </trkpt>
      <trkpt lat="44.1098" lon="3.10616">
        <ele>819.3</ele>
        <time>2019-04-19T11:57:12Z</time>
      </trkpt>
      <trkpt lat="44.10983" lon="3.10629">
        <ele>819.1</ele>
        <time>2019-04-19T11:57:13Z</time>
      </trkpt>
      <trkpt lat="44.10985" lon="3.10638">
        <ele>819.1</ele>
        <time>2019-04-19T11:57:14Z</time>
      </trkpt>
      <trkpt lat="44.10987" lon="3.10645">
        <ele>819.1</ele>
        <time>2019-04-19T11:57:15Z</time>
      </trkpt>
      <trkpt lat="44.1099" lon="3.10653">
        <ele>819.1</ele>
        <time>2019-04-19T11:57:16Z</time>
      </trkpt>
      <trkpt lat="44.10994" lon="3.10657">
        <ele>819</ele>
        <time>2019-04-19T11:57:17Z</time>
      </trkpt>
      <trkpt lat="44.10999" lon="3.10659">
        <ele>818.7</ele>
        <time>2019-04-19T11:57:18Z</time>
      </trkpt>
      <trkpt lat="44.11004" lon="3.10662">
        <ele>818.5</ele>
        <time>2019-04-19T11:57:19Z</time>
      </trkpt>
      <trkpt lat="44.1101" lon="3.10665">
        <ele>818.2</ele>
        <time>2019-04-19T11:57:20Z</time>
      </trkpt>
      <trkpt lat="44.11014" lon="3.1067">
        <ele>818</ele>
        <time>2019-04-19T11:57:21Z</time>
      </trkpt>
      <trkpt lat="44.11018" lon="3.10677">
        <ele>817.8</ele>
        <time>2019-04-19T11:57:22Z</time>
      </trkpt>
      <trkpt lat="44.1102" lon="3.10681">
        <ele>817.7</ele>
        <time>2019-04-19T11:57:23Z</time>
      </trkpt>
      <trkpt lat="44.11027" lon="3.10685">
        <ele>817.6</ele>
        <time>2019-04-19T11:57:24Z</time>
      </trkpt>
      <trkpt lat="44.11032" lon="3.10685">
        <ele>817.4</ele>
        <time>2019-04-19T11:57:25Z</time>
      </trkpt>
      <trkpt lat="44.11037" lon="3.10685">
        <ele>817.2</ele>
        <time>2019-04-19T11:57:26Z</time>
      </trkpt>
      <trkpt lat="44.11044" lon="3.10683">
        <ele>816.5</ele>
        <time>2019-04-19T11:57:27Z</time>
      </trkpt>
      <trkpt lat="44.11048" lon="3.10682">
        <ele>815.9</ele>
        <time>2019-04-19T11:57:28Z</time>
      </trkpt>
      <trkpt lat="44.11053" lon="3.10682">
        <ele>815.2</ele>
        <time>2019-04-19T11:57:29Z</time>
      </trkpt>
      <trkpt lat="44.11055" lon="3.10688">
        <ele>814.3</ele>
        <time>2019-04-19T11:57:31Z</time>
      </trkpt>
      <trkpt lat="44.11057" lon="3.10694">
        <ele>813.4</ele>
        <time>2019-04-19T11:57:32Z</time>
      </trkpt>
      <trkpt lat="44.11057" lon="3.10701">
        <ele>812.5</ele>
        <time>2019-04-19T11:57:33Z</time>
      </trkpt>
      <trkpt lat="44.11058" lon="3.10709">
        <ele>811.4</ele>
        <time>2019-04-19T11:57:34Z</time>
      </trkpt>
      <trkpt lat="44.1106" lon="3.10716">
        <ele>810.5</ele>
        <time>2019-04-19T11:57:35Z</time>
      </trkpt>
      <trkpt lat="44.11062" lon="3.10726">
        <ele>809.4</ele>
        <time>2019-04-19T11:57:36Z</time>
      </trkpt>
      <trkpt lat="44.11063" lon="3.10736">
        <ele>808.3</ele>
        <time>2019-04-19T11:57:37Z</time>
      </trkpt>
      <trkpt lat="44.11065" lon="3.10744">
        <ele>807.3</ele>
        <time>2019-04-19T11:57:38Z</time>
      </trkpt>
      <trkpt lat="44.11065" lon="3.10751">
        <ele>806.6</ele>
        <time>2019-04-19T11:57:39Z</time>
      </trkpt>
      <trkpt lat="44.11065" lon="3.10757">
        <ele>806</ele>
        <time>2019-04-19T11:57:40Z</time>
      </trkpt>
      <trkpt lat="44.11066" lon="3.10762">
        <ele>805.5</ele>
        <time>2019-04-19T11:57:41Z</time>
      </trkpt>
      <trkpt lat="44.11069" lon="3.1076">
        <ele>805.1</ele>
        <time>2019-04-19T11:57:42Z</time>
      </trkpt>
      <trkpt lat="44.11073" lon="3.10762">
        <ele>804.7</ele>
        <time>2019-04-19T11:57:43Z</time>
      </trkpt>
      <trkpt lat="44.11074" lon="3.10768">
        <ele>804.3</ele>
        <time>2019-04-19T11:57:45Z</time>
      </trkpt>
      <trkpt lat="44.11075" lon="3.10782">
        <ele>803.3</ele>
        <time>2019-04-19T11:57:47Z</time>
      </trkpt>
      <trkpt lat="44.11075" lon="3.10788">
        <ele>803</ele>
        <time>2019-04-19T11:57:48Z</time>
      </trkpt>
      <trkpt lat="44.11072" lon="3.10795">
        <ele>802.5</ele>
        <time>2019-04-19T11:57:49Z</time>
      </trkpt>
      <trkpt lat="44.11071" lon="3.10804">
        <ele>802</ele>
        <time>2019-04-19T11:57:50Z</time>
      </trkpt>
      <trkpt lat="44.11071" lon="3.10814">
        <ele>801.6</ele>
        <time>2019-04-19T11:57:51Z</time>
      </trkpt>
      <trkpt lat="44.1107" lon="3.10821">
        <ele>801.3</ele>
        <time>2019-04-19T11:57:52Z</time>
      </trkpt>
      <trkpt lat="44.11068" lon="3.10831">
        <ele>800.9</ele>
        <time>2019-04-19T11:57:53Z</time>
      </trkpt>
      <trkpt lat="44.11068" lon="3.1084">
        <ele>800.6</ele>
        <time>2019-04-19T11:57:54Z</time>
      </trkpt>
      <trkpt lat="44.11069" lon="3.10848">
        <ele>800.3</ele>
        <time>2019-04-19T11:57:55Z</time>
      </trkpt>
      <trkpt lat="44.11069" lon="3.10858">
        <ele>799.8</ele>
        <time>2019-04-19T11:57:56Z</time>
      </trkpt>
      <trkpt lat="44.11073" lon="3.10871">
        <ele>799.1</ele>
        <time>2019-04-19T11:57:57Z</time>
      </trkpt>
      <trkpt lat="44.11077" lon="3.10881">
        <ele>798.7</ele>
        <time>2019-04-19T11:57:58Z</time>
      </trkpt>
      <trkpt lat="44.11081" lon="3.10892">
        <ele>798.3</ele>
        <time>2019-04-19T11:57:59Z</time>
      </trkpt>
      <trkpt lat="44.11085" lon="3.109">
        <ele>798</ele>
        <time>2019-04-19T11:58:00Z</time>
      </trkpt>
      <trkpt lat="44.11091" lon="3.10912">
        <ele>797.4</ele>
        <time>2019-04-19T11:58:01Z</time>
      </trkpt>
      <trkpt lat="44.11098" lon="3.10925">
        <ele>796.5</ele>
        <time>2019-04-19T11:58:02Z</time>
      </trkpt>
      <trkpt lat="44.11103" lon="3.10932">
        <ele>795.7</ele>
        <time>2019-04-19T11:58:03Z</time>
      </trkpt>
      <trkpt lat="44.11113" lon="3.10943">
        <ele>794.6</ele>
        <time>2019-04-19T11:58:04Z</time>
      </trkpt>
      <trkpt lat="44.11121" lon="3.10947">
        <ele>794.1</ele>
        <time>2019-04-19T11:58:05Z</time>
      </trkpt>
      <trkpt lat="44.11129" lon="3.10951">
        <ele>793.8</ele>
        <time>2019-04-19T11:58:06Z</time>
      </trkpt>
      <trkpt lat="44.11136" lon="3.10953">
        <ele>793.8</ele>
        <time>2019-04-19T11:58:07Z</time>
      </trkpt>
      <trkpt lat="44.11143" lon="3.10953">
        <ele>793.7</ele>
        <time>2019-04-19T11:58:08Z</time>
      </trkpt>
      <trkpt lat="44.11151" lon="3.10954">
        <ele>793.7</ele>
        <time>2019-04-19T11:58:09Z</time>
      </trkpt>
      <trkpt lat="44.11158" lon="3.10955">
        <ele>793.7</ele>
        <time>2019-04-19T11:58:10Z</time>
      </trkpt>
      <trkpt lat="44.11165" lon="3.10959">
        <ele>793.7</ele>
        <time>2019-04-19T11:58:11Z</time>
      </trkpt>
      <trkpt lat="44.11169" lon="3.10962">
        <ele>793.6</ele>
        <time>2019-04-19T11:58:12Z</time>
      </trkpt>
      <trkpt lat="44.11173" lon="3.10965">
        <ele>793.6</ele>
        <time>2019-04-19T11:58:13Z</time>
      </trkpt>
      <trkpt lat="44.11177" lon="3.1097">
        <ele>793.5</ele>
        <time>2019-04-19T11:58:14Z</time>
      </trkpt>
      <trkpt lat="44.11181" lon="3.10972">
        <ele>793.3</ele>
        <time>2019-04-19T11:58:15Z</time>
      </trkpt>
      <trkpt lat="44.11187" lon="3.10977">
        <ele>793</ele>
        <time>2019-04-19T11:58:16Z</time>
      </trkpt>
      <trkpt lat="44.11188" lon="3.10983">
        <ele>792.7</ele>
        <time>2019-04-19T11:58:17Z</time>
      </trkpt>
      <trkpt lat="44.1119" lon="3.1099">
        <ele>792.5</ele>
        <time>2019-04-19T11:58:18Z</time>
      </trkpt>
      <trkpt lat="44.11193" lon="3.10995">
        <ele>792.3</ele>
        <time>2019-04-19T11:58:19Z</time>
      </trkpt>
      <trkpt lat="44.11197" lon="3.10998">
        <ele>792.1</ele>
        <time>2019-04-19T11:58:20Z</time>
      </trkpt>
      <trkpt lat="44.11201" lon="3.11004">
        <ele>791.9</ele>
        <time>2019-04-19T11:58:21Z</time>
      </trkpt>
      <trkpt lat="44.11205" lon="3.11006">
        <ele>791.9</ele>
        <time>2019-04-19T11:58:22Z</time>
      </trkpt>
      <trkpt lat="44.1121" lon="3.11009">
        <ele>791.8</ele>
        <time>2019-04-19T11:58:23Z</time>
      </trkpt>
      <trkpt lat="44.11212" lon="3.11013">
        <ele>791.8</ele>
        <time>2019-04-19T11:58:24Z</time>
      </trkpt>
      <trkpt lat="44.11216" lon="3.11014">
        <ele>791.9</ele>
        <time>2019-04-19T11:58:26Z</time>
      </trkpt>
      <trkpt lat="44.11217" lon="3.11018">
        <ele>791.9</ele>
        <time>2019-04-19T11:58:27Z</time>
      </trkpt>
      <trkpt lat="44.11221" lon="3.11022">
        <ele>792</ele>
        <time>2019-04-19T11:58:28Z</time>
      </trkpt>
      <trkpt lat="44.11227" lon="3.11028">
        <ele>792.2</ele>
        <time>2019-04-19T11:58:29Z</time>
      </trkpt>
      <trkpt lat="44.1123" lon="3.11034">
        <ele>792.4</ele>
        <time>2019-04-19T11:58:30Z</time>
      </trkpt>
      <trkpt lat="44.11234" lon="3.11039">
        <ele>792.6</ele>
        <time>2019-04-19T11:58:31Z</time>
      </trkpt>
      <trkpt lat="44.11238" lon="3.11045">
        <ele>792.8</ele>
        <time>2019-04-19T11:58:32Z</time>
      </trkpt>
      <trkpt lat="44.11243" lon="3.11047">
        <ele>793</ele>
        <time>2019-04-19T11:58:33Z</time>
      </trkpt>
      <trkpt lat="44.11245" lon="3.1105">
        <ele>793</ele>
        <time>2019-04-19T11:58:34Z</time>
      </trkpt>
      <trkpt lat="44.11251" lon="3.11051">
        <ele>793.1</ele>
        <time>2019-04-19T11:58:35Z</time>
      </trkpt>
      <trkpt lat="44.11256" lon="3.11056">
        <ele>793</ele>
        <time>2019-04-19T11:58:36Z</time>
      </trkpt>
      <trkpt lat="44.1126" lon="3.1106">
        <ele>792.9</ele>
        <time>2019-04-19T11:58:37Z</time>
      </trkpt>
      <trkpt lat="44.11266" lon="3.11062">
        <ele>792.9</ele>
        <time>2019-04-19T11:58:38Z</time>
      </trkpt>
      <trkpt lat="44.11271" lon="3.11067">
        <ele>792.8</ele>
        <time>2019-04-19T11:58:39Z</time>
      </trkpt>
      <trkpt lat="44.11275" lon="3.11072">
        <ele>792.8</ele>
        <time>2019-04-19T11:58:40Z</time>
      </trkpt>
      <trkpt lat="44.11278" lon="3.11077">
        <ele>792.8</ele>
        <time>2019-04-19T11:58:41Z</time>
      </trkpt>
      <trkpt lat="44.11282" lon="3.1108">
        <ele>792.8</ele>
        <time>2019-04-19T11:58:42Z</time>
      </trkpt>
      <trkpt lat="44.11287" lon="3.11082">
        <ele>792.8</ele>
        <time>2019-04-19T11:58:43Z</time>
      </trkpt>
      <trkpt lat="44.11294" lon="3.11086">
        <ele>792.8</ele>
        <time>2019-04-19T11:58:44Z</time>
      </trkpt>
      <trkpt lat="44.11298" lon="3.11088">
        <ele>792.9</ele>
        <time>2019-04-19T11:58:45Z</time>
      </trkpt>
      <trkpt lat="44.11302" lon="3.11092">
        <ele>792.9</ele>
        <time>2019-04-19T11:58:46Z</time>
      </trkpt>
      <trkpt lat="44.11305" lon="3.11096">
        <ele>793</ele>
        <time>2019-04-19T11:58:47Z</time>
      </trkpt>
      <trkpt lat="44.11309" lon="3.11097">
        <ele>793</ele>
        <time>2019-04-19T11:58:48Z</time>
      </trkpt>
      <trkpt lat="44.11312" lon="3.11099">
        <ele>793.1</ele>
        <time>2019-04-19T11:58:49Z</time>
      </trkpt>
      <trkpt lat="44.11316" lon="3.111">
        <ele>793.1</ele>
        <time>2019-04-19T11:58:50Z</time>
      </trkpt>
      <trkpt lat="44.11319" lon="3.11103">
        <ele>793.1</ele>
        <time>2019-04-19T11:58:51Z</time>
      </trkpt>
      <trkpt lat="44.11322" lon="3.11106">
        <ele>793.1</ele>
        <time>2019-04-19T11:58:52Z</time>
      </trkpt>
      <trkpt lat="44.11326" lon="3.1111">
        <ele>793.1</ele>
        <time>2019-04-19T11:58:53Z</time>
      </trkpt>
      <trkpt lat="44.1133" lon="3.11113">
        <ele>793</ele>
        <time>2019-04-19T11:58:54Z</time>
      </trkpt>
      <trkpt lat="44.11334" lon="3.11116">
        <ele>793</ele>
        <time>2019-04-19T11:58:55Z</time>
      </trkpt>
      <trkpt lat="44.11346" lon="3.11123">
        <ele>793</ele>
        <time>2019-04-19T11:58:56Z</time>
      </trkpt>
      <trkpt lat="44.1135" lon="3.11127">
        <ele>792.9</ele>
        <time>2019-04-19T11:58:57Z</time>
      </trkpt>
      <trkpt lat="44.11356" lon="3.1113">
        <ele>792.9</ele>
        <time>2019-04-19T11:58:58Z</time>
      </trkpt>
      <trkpt lat="44.1136" lon="3.11135">
        <ele>792.8</ele>
        <time>2019-04-19T11:58:59Z</time>
      </trkpt>
      <trkpt lat="44.11365" lon="3.1114">
        <ele>792.7</ele>
        <time>2019-04-19T11:59:00Z</time>
      </trkpt>
      <trkpt lat="44.11372" lon="3.11141">
        <ele>792.5</ele>
        <time>2019-04-19T11:59:01Z</time>
      </trkpt>
      <trkpt lat="44.1138" lon="3.1114">
        <ele>792.1</ele>
        <time>2019-04-19T11:59:02Z</time>
      </trkpt>
      <trkpt lat="44.11386" lon="3.11142">
        <ele>791.8</ele>
        <time>2019-04-19T11:59:03Z</time>
      </trkpt>
      <trkpt lat="44.11393" lon="3.11142">
        <ele>791.5</ele>
        <time>2019-04-19T11:59:04Z</time>
      </trkpt>
      <trkpt lat="44.11399" lon="3.11144">
        <ele>791.2</ele>
        <time>2019-04-19T11:59:05Z</time>
      </trkpt>
      <trkpt lat="44.11406" lon="3.11146">
        <ele>791</ele>
        <time>2019-04-19T11:59:06Z</time>
      </trkpt>
      <trkpt lat="44.11413" lon="3.11144">
        <ele>790.9</ele>
        <time>2019-04-19T11:59:07Z</time>
      </trkpt>
      <trkpt lat="44.11418" lon="3.11144">
        <ele>790.9</ele>
        <time>2019-04-19T11:59:08Z</time>
      </trkpt>
      <trkpt lat="44.11423" lon="3.11143">
        <ele>790.9</ele>
        <time>2019-04-19T11:59:09Z</time>
      </trkpt>
      <trkpt lat="44.11428" lon="3.11141">
        <ele>790.9</ele>
        <time>2019-04-19T11:59:10Z</time>
      </trkpt>
      <trkpt lat="44.11433" lon="3.11136">
        <ele>790.9</ele>
        <time>2019-04-19T11:59:11Z</time>
      </trkpt>
      <trkpt lat="44.11441" lon="3.1113">
        <ele>790.9</ele>
        <time>2019-04-19T11:59:12Z</time>
      </trkpt>
      <trkpt lat="44.11447" lon="3.11126">
        <ele>790.8</ele>
        <time>2019-04-19T11:59:13Z</time>
      </trkpt>
      <trkpt lat="44.11457" lon="3.11113">
        <ele>791.1</ele>
        <time>2019-04-19T11:59:14Z</time>
      </trkpt>
      <trkpt lat="44.11464" lon="3.11109">
        <ele>791.4</ele>
        <time>2019-04-19T11:59:15Z</time>
      </trkpt>
      <trkpt lat="44.11468" lon="3.11104">
        <ele>791.6</ele>
        <time>2019-04-19T11:59:16Z</time>
      </trkpt>
      <trkpt lat="44.11474" lon="3.11103">
        <ele>791.6</ele>
        <time>2019-04-19T11:59:17Z</time>
      </trkpt>
      <trkpt lat="44.11477" lon="3.11104">
        <ele>791.7</ele>
        <time>2019-04-19T11:59:18Z</time>
      </trkpt>
      <trkpt lat="44.11481" lon="3.11108">
        <ele>791.8</ele>
        <time>2019-04-19T11:59:19Z</time>
      </trkpt>
      <trkpt lat="44.11487" lon="3.11108">
        <ele>791.8</ele>
        <time>2019-04-19T11:59:20Z</time>
      </trkpt>
      <trkpt lat="44.11488" lon="3.11114">
        <ele>791.7</ele>
        <time>2019-04-19T11:59:21Z</time>
      </trkpt>
      <trkpt lat="44.11489" lon="3.11121">
        <ele>791.5</ele>
        <time>2019-04-19T11:59:24Z</time>
      </trkpt>
      <trkpt lat="44.11489" lon="3.11124">
        <ele>791.4</ele>
        <time>2019-04-19T11:59:25Z</time>
      </trkpt>
      <trkpt lat="44.11487" lon="3.11127">
        <ele>791.3</ele>
        <time>2019-04-19T11:59:26Z</time>
      </trkpt>
      <trkpt lat="44.11485" lon="3.11132">
        <ele>791</ele>
        <time>2019-04-19T11:59:27Z</time>
      </trkpt>
      <trkpt lat="44.11483" lon="3.11138">
        <ele>790.8</ele>
        <time>2019-04-19T11:59:28Z</time>
      </trkpt>
      <trkpt lat="44.11483" lon="3.11143">
        <ele>790.6</ele>
        <time>2019-04-19T11:59:29Z</time>
      </trkpt>
      <trkpt lat="44.11483" lon="3.11153">
        <ele>790.4</ele>
        <time>2019-04-19T11:59:30Z</time>
      </trkpt>
      <trkpt lat="44.11483" lon="3.11161">
        <ele>790.3</ele>
        <time>2019-04-19T11:59:31Z</time>
      </trkpt>
      <trkpt lat="44.11484" lon="3.11169">
        <ele>790.3</ele>
        <time>2019-04-19T11:59:32Z</time>
      </trkpt>
      <trkpt lat="44.11487" lon="3.11176">
        <ele>790.4</ele>
        <time>2019-04-19T11:59:33Z</time>
      </trkpt>
      <trkpt lat="44.11482" lon="3.11181">
        <ele>790.5</ele>
        <time>2019-04-19T11:59:34Z</time>
      </trkpt>
      <trkpt lat="44.11476" lon="3.11185">
        <ele>790.8</ele>
        <time>2019-04-19T11:59:35Z</time>
      </trkpt>
      <trkpt lat="44.11473" lon="3.11187">
        <ele>791</ele>
        <time>2019-04-19T11:59:36Z</time>
      </trkpt>
      <trkpt lat="44.11473" lon="3.11199">
        <ele>792</ele>
        <time>2019-04-19T11:59:39Z</time>
      </trkpt>
      <trkpt lat="44.11474" lon="3.11204">
        <ele>792</ele>
        <time>2019-04-19T11:59:40Z</time>
      </trkpt>
      <trkpt lat="44.11474" lon="3.11209">
        <ele>792</ele>
        <time>2019-04-19T11:59:43Z</time>
      </trkpt>
      <trkpt lat="44.11476" lon="3.11213">
        <ele>792.9</ele>
        <time>2019-04-19T11:59:45Z</time>
      </trkpt>
      <trkpt lat="44.11478" lon="3.11217">
        <ele>793.4</ele>
        <time>2019-04-19T11:59:47Z</time>
      </trkpt>
      <trkpt lat="44.11479" lon="3.11222">
        <ele>793.9</ele>
        <time>2019-04-19T11:59:49Z</time>
      </trkpt>
      <trkpt lat="44.1148" lon="3.11227">
        <ele>794.4</ele>
        <time>2019-04-19T11:59:52Z</time>
      </trkpt>
      <trkpt lat="44.11482" lon="3.11231">
        <ele>795</ele>
        <time>2019-04-19T11:59:54Z</time>
      </trkpt>
      <trkpt lat="44.11485" lon="3.11236">
        <ele>796</ele>
        <time>2019-04-19T11:59:56Z</time>
      </trkpt>
      <trkpt lat="44.11487" lon="3.11241">
        <ele>796.9</ele>
        <time>2019-04-19T11:59:58Z</time>
      </trkpt>
      <trkpt lat="44.11488" lon="3.11246">
        <ele>797.7</ele>
        <time>2019-04-19T12:00:00Z</time>
      </trkpt>
      <trkpt lat="44.1149" lon="3.11249">
        <ele>798.5</ele>
        <time>2019-04-19T12:00:03Z</time>
      </trkpt>
      <trkpt lat="44.11493" lon="3.11253">
        <ele>799.3</ele>
        <time>2019-04-19T12:00:05Z</time>
      </trkpt>
      <trkpt lat="44.11495" lon="3.11254">
        <ele>799.9</ele>
        <time>2019-04-19T12:00:12Z</time>
      </trkpt>
      <trkpt lat="44.11505" lon="3.11272">
        <ele>802.8</ele>
        <time>2019-04-19T12:01:27Z</time>
      </trkpt>
      <trkpt lat="44.11503" lon="3.11275">
        <ele>803.3</ele>
        <time>2019-04-19T12:01:29Z</time>
      </trkpt>
      <trkpt lat="44.11502" lon="3.11278">
        <ele>803.7</ele>
        <time>2019-04-19T12:01:31Z</time>
      </trkpt>
      <trkpt lat="44.115" lon="3.11282">
        <ele>805.1</ele>
        <time>2019-04-19T12:01:34Z</time>
      </trkpt>
      <trkpt lat="44.11499" lon="3.11286">
        <ele>805.3</ele>
        <time>2019-04-19T12:01:37Z</time>
      </trkpt>
      <trkpt lat="44.11498" lon="3.1129">
        <ele>805.6</ele>
        <time>2019-04-19T12:01:40Z</time>
      </trkpt>
      <trkpt lat="44.11497" lon="3.11295">
        <ele>805.8</ele>
        <time>2019-04-19T12:01:43Z</time>
      </trkpt>
      <trkpt lat="44.11495" lon="3.11299">
        <ele>806.1</ele>
        <time>2019-04-19T12:01:45Z</time>
      </trkpt>
      <trkpt lat="44.11493" lon="3.11302">
        <ele>806.3</ele>
        <time>2019-04-19T12:01:47Z</time>
      </trkpt>
      <trkpt lat="44.1149" lon="3.11303">
        <ele>806.5</ele>
        <time>2019-04-19T12:01:50Z</time>
      </trkpt>
      <trkpt lat="44.11488" lon="3.11308">
        <ele>806.7</ele>
        <time>2019-04-19T12:01:52Z</time>
      </trkpt>
      <trkpt lat="44.11486" lon="3.11312">
        <ele>806.9</ele>
        <time>2019-04-19T12:01:53Z</time>
      </trkpt>
      <trkpt lat="44.11484" lon="3.11316">
        <ele>807</ele>
        <time>2019-04-19T12:01:54Z</time>
      </trkpt>
      <trkpt lat="44.11481" lon="3.11321">
        <ele>807.2</ele>
        <time>2019-04-19T12:01:55Z</time>
      </trkpt>
      <trkpt lat="44.11477" lon="3.11322">
        <ele>807.3</ele>
        <time>2019-04-19T12:01:56Z</time>
      </trkpt>
      <trkpt lat="44.11474" lon="3.11323">
        <ele>807.4</ele>
        <time>2019-04-19T12:01:57Z</time>
      </trkpt>
      <trkpt lat="44.1147" lon="3.11324">
        <ele>807.5</ele>
        <time>2019-04-19T12:01:58Z</time>
      </trkpt>
      <trkpt lat="44.11466" lon="3.11325">
        <ele>807.7</ele>
        <time>2019-04-19T12:01:59Z</time>
      </trkpt>
      <trkpt lat="44.11463" lon="3.11326">
        <ele>807.8</ele>
        <time>2019-04-19T12:02:00Z</time>
      </trkpt>
      <trkpt lat="44.11459" lon="3.11328">
        <ele>807.9</ele>
        <time>2019-04-19T12:02:02Z</time>
      </trkpt>
      <trkpt lat="44.11455" lon="3.11332">
        <ele>808.2</ele>
        <time>2019-04-19T12:02:04Z</time>
      </trkpt>
      <trkpt lat="44.11452" lon="3.11336">
        <ele>808.4</ele>
        <time>2019-04-19T12:02:06Z</time>
      </trkpt>
      <trkpt lat="44.11449" lon="3.11343">
        <ele>808.7</ele>
        <time>2019-04-19T12:02:08Z</time>
      </trkpt>
      <trkpt lat="44.11446" lon="3.11346">
        <ele>809</ele>
        <time>2019-04-19T12:02:09Z</time>
      </trkpt>
      <trkpt lat="44.11442" lon="3.11348">
        <ele>809.3</ele>
        <time>2019-04-19T12:02:10Z</time>
      </trkpt>
      <trkpt lat="44.11438" lon="3.1135">
        <ele>809.7</ele>
        <time>2019-04-19T12:02:11Z</time>
      </trkpt>
      <trkpt lat="44.11434" lon="3.11351">
        <ele>809.9</ele>
        <time>2019-04-19T12:02:12Z</time>
      </trkpt>
      <trkpt lat="44.11431" lon="3.11352">
        <ele>810.1</ele>
        <time>2019-04-19T12:02:13Z</time>
      </trkpt>
      <trkpt lat="44.11428" lon="3.11353">
        <ele>810.3</ele>
        <time>2019-04-19T12:02:14Z</time>
      </trkpt>
      <trkpt lat="44.11425" lon="3.11354">
        <ele>810.6</ele>
        <time>2019-04-19T12:02:15Z</time>
      </trkpt>
      <trkpt lat="44.11422" lon="3.11355">
        <ele>810.8</ele>
        <time>2019-04-19T12:02:16Z</time>
      </trkpt>
      <trkpt lat="44.1142" lon="3.11357">
        <ele>811</ele>
        <time>2019-04-19T12:02:17Z</time>
      </trkpt>
      <trkpt lat="44.11417" lon="3.1136">
        <ele>811.2</ele>
        <time>2019-04-19T12:02:18Z</time>
      </trkpt>
      <trkpt lat="44.11415" lon="3.11362">
        <ele>811.4</ele>
        <time>2019-04-19T12:02:19Z</time>
      </trkpt>
      <trkpt lat="44.11411" lon="3.11366">
        <ele>811.9</ele>
        <time>2019-04-19T12:02:21Z</time>
      </trkpt>
      <trkpt lat="44.11409" lon="3.11372">
        <ele>812.4</ele>
        <time>2019-04-19T12:02:23Z</time>
      </trkpt>
      <trkpt lat="44.11405" lon="3.11379">
        <ele>813.2</ele>
        <time>2019-04-19T12:02:25Z</time>
      </trkpt>
      <trkpt lat="44.11404" lon="3.11383">
        <ele>813.5</ele>
        <time>2019-04-19T12:02:26Z</time>
      </trkpt>
      <trkpt lat="44.114" lon="3.11388">
        <ele>814.2</ele>
        <time>2019-04-19T12:02:27Z</time>
      </trkpt>
      <trkpt lat="44.11395" lon="3.11391">
        <ele>814.8</ele>
        <time>2019-04-19T12:02:28Z</time>
      </trkpt>
      <trkpt lat="44.11393" lon="3.11394">
        <ele>815.2</ele>
        <time>2019-04-19T12:02:29Z</time>
      </trkpt>
      <trkpt lat="44.11389" lon="3.11397">
        <ele>815.8</ele>
        <time>2019-04-19T12:02:31Z</time>
      </trkpt>
      <trkpt lat="44.11386" lon="3.11399">
        <ele>816.2</ele>
        <time>2019-04-19T12:02:33Z</time>
      </trkpt>
      <trkpt lat="44.11383" lon="3.11402">
        <ele>816.7</ele>
        <time>2019-04-19T12:02:35Z</time>
      </trkpt>
      <trkpt lat="44.11379" lon="3.11404">
        <ele>817.1</ele>
        <time>2019-04-19T12:02:37Z</time>
      </trkpt>
      <trkpt lat="44.11376" lon="3.11406">
        <ele>817.5</ele>
        <time>2019-04-19T12:02:39Z</time>
      </trkpt>
      <trkpt lat="44.11373" lon="3.11409">
        <ele>817.9</ele>
        <time>2019-04-19T12:02:41Z</time>
      </trkpt>
      <trkpt lat="44.1137" lon="3.1141">
        <ele>818.3</ele>
        <time>2019-04-19T12:02:43Z</time>
      </trkpt>
      <trkpt lat="44.11366" lon="3.11411">
        <ele>818.7</ele>
        <time>2019-04-19T12:02:45Z</time>
      </trkpt>
      <trkpt lat="44.11364" lon="3.11413">
        <ele>819</ele>
        <time>2019-04-19T12:02:47Z</time>
      </trkpt>
      <trkpt lat="44.11361" lon="3.11413">
        <ele>819.3</ele>
        <time>2019-04-19T12:02:49Z</time>
      </trkpt>
      <trkpt lat="44.11358" lon="3.11415">
        <ele>819.7</ele>
        <time>2019-04-19T12:02:51Z</time>
      </trkpt>
      <trkpt lat="44.11356" lon="3.11421">
        <ele>820.3</ele>
        <time>2019-04-19T12:02:54Z</time>
      </trkpt>
      <trkpt lat="44.11355" lon="3.11428">
        <ele>820.9</ele>
        <time>2019-04-19T12:02:56Z</time>
      </trkpt>
      <trkpt lat="44.11354" lon="3.11432">
        <ele>821.2</ele>
        <time>2019-04-19T12:02:58Z</time>
      </trkpt>
      <trkpt lat="44.1135" lon="3.11431">
        <ele>821.6</ele>
        <time>2019-04-19T12:03:01Z</time>
      </trkpt>
      <trkpt lat="44.11347" lon="3.11432">
        <ele>821.8</ele>
        <time>2019-04-19T12:03:03Z</time>
      </trkpt>
      <trkpt lat="44.11343" lon="3.11434">
        <ele>822.1</ele>
        <time>2019-04-19T12:03:05Z</time>
      </trkpt>
      <trkpt lat="44.11338" lon="3.11436">
        <ele>822.6</ele>
        <time>2019-04-19T12:03:07Z</time>
      </trkpt>
      <trkpt lat="44.11334" lon="3.11437">
        <ele>822.8</ele>
        <time>2019-04-19T12:03:09Z</time>
      </trkpt>
      <trkpt lat="44.11332" lon="3.11439">
        <ele>823</ele>
        <time>2019-04-19T12:03:12Z</time>
      </trkpt>
      <trkpt lat="44.11328" lon="3.11442">
        <ele>823.1</ele>
        <time>2019-04-19T12:03:14Z</time>
      </trkpt>
      <trkpt lat="44.11324" lon="3.11443">
        <ele>823.2</ele>
        <time>2019-04-19T12:03:15Z</time>
      </trkpt>
      <trkpt lat="44.11321" lon="3.11443">
        <ele>823.3</ele>
        <time>2019-04-19T12:03:16Z</time>
      </trkpt>
      <trkpt lat="44.11316" lon="3.11443">
        <ele>823.3</ele>
        <time>2019-04-19T12:03:17Z</time>
      </trkpt>
      <trkpt lat="44.11311" lon="3.11443">
        <ele>823.4</ele>
        <time>2019-04-19T12:03:18Z</time>
      </trkpt>
      <trkpt lat="44.11306" lon="3.11443">
        <ele>823.5</ele>
        <time>2019-04-19T12:03:19Z</time>
      </trkpt>
      <trkpt lat="44.11301" lon="3.11443">
        <ele>823.5</ele>
        <time>2019-04-19T12:03:20Z</time>
      </trkpt>
      <trkpt lat="44.11296" lon="3.11444">
        <ele>823.6</ele>
        <time>2019-04-19T12:03:21Z</time>
      </trkpt>
      <trkpt lat="44.11289" lon="3.11444">
        <ele>823.6</ele>
        <time>2019-04-19T12:03:22Z</time>
      </trkpt>
      <trkpt lat="44.11283" lon="3.11445">
        <ele>823.7</ele>
        <time>2019-04-19T12:03:23Z</time>
      </trkpt>
      <trkpt lat="44.11279" lon="3.11445">
        <ele>823.7</ele>
        <time>2019-04-19T12:03:24Z</time>
      </trkpt>
      <trkpt lat="44.11276" lon="3.11444">
        <ele>823.7</ele>
        <time>2019-04-19T12:03:25Z</time>
      </trkpt>
      <trkpt lat="44.11272" lon="3.11443">
        <ele>823.8</ele>
        <time>2019-04-19T12:03:26Z</time>
      </trkpt>
      <trkpt lat="44.11268" lon="3.11442">
        <ele>823.7</ele>
        <time>2019-04-19T12:03:27Z</time>
      </trkpt>
      <trkpt lat="44.11265" lon="3.11442">
        <ele>823.7</ele>
        <time>2019-04-19T12:03:28Z</time>
      </trkpt>
      <trkpt lat="44.11261" lon="3.11442">
        <ele>823.7</ele>
        <time>2019-04-19T12:03:29Z</time>
      </trkpt>
      <trkpt lat="44.11257" lon="3.11442">
        <ele>823.7</ele>
        <time>2019-04-19T12:03:30Z</time>
      </trkpt>
      <trkpt lat="44.11254" lon="3.11443">
        <ele>823.7</ele>
        <time>2019-04-19T12:03:31Z</time>
      </trkpt>
      <trkpt lat="44.11251" lon="3.11444">
        <ele>823.6</ele>
        <time>2019-04-19T12:03:32Z</time>
      </trkpt>
      <trkpt lat="44.11247" lon="3.11445">
        <ele>823.6</ele>
        <time>2019-04-19T12:03:33Z</time>
      </trkpt>
      <trkpt lat="44.11243" lon="3.11446">
        <ele>823.5</ele>
        <time>2019-04-19T12:03:34Z</time>
      </trkpt>
      <trkpt lat="44.11239" lon="3.11448">
        <ele>823.5</ele>
        <time>2019-04-19T12:03:35Z</time>
      </trkpt>
      <trkpt lat="44.11233" lon="3.11452">
        <ele>823.4</ele>
        <time>2019-04-19T12:03:36Z</time>
      </trkpt>
      <trkpt lat="44.11228" lon="3.11457">
        <ele>823.3</ele>
        <time>2019-04-19T12:03:37Z</time>
      </trkpt>
      <trkpt lat="44.11215" lon="3.11461">
        <ele>822.9</ele>
        <time>2019-04-19T12:03:38Z</time>
      </trkpt>
      <trkpt lat="44.1121" lon="3.11462">
        <ele>822.8</ele>
        <time>2019-04-19T12:03:39Z</time>
      </trkpt>
      <trkpt lat="44.11204" lon="3.11465">
        <ele>822.6</ele>
        <time>2019-04-19T12:03:40Z</time>
      </trkpt>
      <trkpt lat="44.112" lon="3.11464">
        <ele>822.5</ele>
        <time>2019-04-19T12:03:41Z</time>
      </trkpt>
      <trkpt lat="44.11193" lon="3.11466">
        <ele>822.3</ele>
        <time>2019-04-19T12:03:42Z</time>
      </trkpt>
      <trkpt lat="44.11189" lon="3.11474">
        <ele>822</ele>
        <time>2019-04-19T12:03:43Z</time>
      </trkpt>
      <trkpt lat="44.11182" lon="3.11474">
        <ele>821.7</ele>
        <time>2019-04-19T12:03:44Z</time>
      </trkpt>
      <trkpt lat="44.11178" lon="3.11476">
        <ele>821.5</ele>
        <time>2019-04-19T12:03:45Z</time>
      </trkpt>
      <trkpt lat="44.11172" lon="3.1148">
        <ele>821.3</ele>
        <time>2019-04-19T12:03:46Z</time>
      </trkpt>
      <trkpt lat="44.11166" lon="3.11484">
        <ele>821</ele>
        <time>2019-04-19T12:03:47Z</time>
      </trkpt>
      <trkpt lat="44.11161" lon="3.11489">
        <ele>820.8</ele>
        <time>2019-04-19T12:03:48Z</time>
      </trkpt>
      <trkpt lat="44.11157" lon="3.11496">
        <ele>820.5</ele>
        <time>2019-04-19T12:03:49Z</time>
      </trkpt>
      <trkpt lat="44.11154" lon="3.115">
        <ele>820.3</ele>
        <time>2019-04-19T12:03:50Z</time>
      </trkpt>
      <trkpt lat="44.11148" lon="3.11507">
        <ele>820</ele>
        <time>2019-04-19T12:03:51Z</time>
      </trkpt>
      <trkpt lat="44.11144" lon="3.11513">
        <ele>819.7</ele>
        <time>2019-04-19T12:03:52Z</time>
      </trkpt>
      <trkpt lat="44.11138" lon="3.1152">
        <ele>819.3</ele>
        <time>2019-04-19T12:03:53Z</time>
      </trkpt>
      <trkpt lat="44.11133" lon="3.11526">
        <ele>818.9</ele>
        <time>2019-04-19T12:03:54Z</time>
      </trkpt>
      <trkpt lat="44.11128" lon="3.11532">
        <ele>818.5</ele>
        <time>2019-04-19T12:03:55Z</time>
      </trkpt>
      <trkpt lat="44.11124" lon="3.11538">
        <ele>818.1</ele>
        <time>2019-04-19T12:03:56Z</time>
      </trkpt>
      <trkpt lat="44.11118" lon="3.11545">
        <ele>817.8</ele>
        <time>2019-04-19T12:03:57Z</time>
      </trkpt>
      <trkpt lat="44.11113" lon="3.11551">
        <ele>817.4</ele>
        <time>2019-04-19T12:03:58Z</time>
      </trkpt>
      <trkpt lat="44.11109" lon="3.11563">
        <ele>816.9</ele>
        <time>2019-04-19T12:03:59Z</time>
      </trkpt>
      <trkpt lat="44.11104" lon="3.1157">
        <ele>816.6</ele>
        <time>2019-04-19T12:04:00Z</time>
      </trkpt>
      <trkpt lat="44.11099" lon="3.11576">
        <ele>816.2</ele>
        <time>2019-04-19T12:04:01Z</time>
      </trkpt>
      <trkpt lat="44.11095" lon="3.11583">
        <ele>815.9</ele>
        <time>2019-04-19T12:04:02Z</time>
      </trkpt>
      <trkpt lat="44.11093" lon="3.11589">
        <ele>815.6</ele>
        <time>2019-04-19T12:04:03Z</time>
      </trkpt>
      <trkpt lat="44.1109" lon="3.11595">
        <ele>815.6</ele>
        <time>2019-04-19T12:04:05Z</time>
      </trkpt>
      <trkpt lat="44.11088" lon="3.11599">
        <ele>816.1</ele>
        <time>2019-04-19T12:04:07Z</time>
      </trkpt>
      <trkpt lat="44.11091" lon="3.11605">
        <ele>816.8</ele>
        <time>2019-04-19T12:04:10Z</time>
      </trkpt>
      <trkpt lat="44.11094" lon="3.11604">
        <ele>817.3</ele>
        <time>2019-04-19T12:04:12Z</time>
      </trkpt>
      <trkpt lat="44.11097" lon="3.11606">
        <ele>817.8</ele>
        <time>2019-04-19T12:04:14Z</time>
      </trkpt>
      <trkpt lat="44.111" lon="3.11608">
        <ele>818.2</ele>
        <time>2019-04-19T12:04:16Z</time>
      </trkpt>
      <trkpt lat="44.11104" lon="3.1161">
        <ele>818.7</ele>
        <time>2019-04-19T12:04:18Z</time>
      </trkpt>
      <trkpt lat="44.1111" lon="3.11609">
        <ele>819.3</ele>
        <time>2019-04-19T12:04:20Z</time>
      </trkpt>
      <trkpt lat="44.11114" lon="3.11607">
        <ele>819.8</ele>
        <time>2019-04-19T12:04:22Z</time>
      </trkpt>
      <trkpt lat="44.11119" lon="3.11607">
        <ele>820.3</ele>
        <time>2019-04-19T12:04:24Z</time>
      </trkpt>
      <trkpt lat="44.11122" lon="3.11607">
        <ele>820.7</ele>
        <time>2019-04-19T12:04:26Z</time>
      </trkpt>
      <trkpt lat="44.11126" lon="3.11608">
        <ele>821.1</ele>
        <time>2019-04-19T12:04:28Z</time>
      </trkpt>
      <trkpt lat="44.11131" lon="3.11609">
        <ele>821.6</ele>
        <time>2019-04-19T12:04:30Z</time>
      </trkpt>
      <trkpt lat="44.11135" lon="3.11611">
        <ele>822.1</ele>
        <time>2019-04-19T12:04:32Z</time>
      </trkpt>
      <trkpt lat="44.11139" lon="3.11612">
        <ele>822.7</ele>
        <time>2019-04-19T12:04:35Z</time>
      </trkpt>
      <trkpt lat="44.11143" lon="3.11612">
        <ele>823.2</ele>
        <time>2019-04-19T12:04:37Z</time>
      </trkpt>
      <trkpt lat="44.11146" lon="3.11614">
        <ele>823.6</ele>
        <time>2019-04-19T12:04:39Z</time>
      </trkpt>
      <trkpt lat="44.11148" lon="3.11617">
        <ele>824</ele>
        <time>2019-04-19T12:04:41Z</time>
      </trkpt>
      <trkpt lat="44.11152" lon="3.11618">
        <ele>824.5</ele>
        <time>2019-04-19T12:04:43Z</time>
      </trkpt>
      <trkpt lat="44.11157" lon="3.1162">
        <ele>825.1</ele>
        <time>2019-04-19T12:04:45Z</time>
      </trkpt>
      <trkpt lat="44.1116" lon="3.1162">
        <ele>825.5</ele>
        <time>2019-04-19T12:04:46Z</time>
      </trkpt>
      <trkpt lat="44.11164" lon="3.11622">
        <ele>826</ele>
        <time>2019-04-19T12:04:48Z</time>
      </trkpt>
      <trkpt lat="44.11166" lon="3.11624">
        <ele>826.4</ele>
        <time>2019-04-19T12:04:50Z</time>
      </trkpt>
      <trkpt lat="44.11171" lon="3.11623">
        <ele>827</ele>
        <time>2019-04-19T12:04:53Z</time>
      </trkpt>
      <trkpt lat="44.11173" lon="3.11626">
        <ele>827.4</ele>
        <time>2019-04-19T12:04:55Z</time>
      </trkpt>
      <trkpt lat="44.11177" lon="3.11628">
        <ele>827.8</ele>
        <time>2019-04-19T12:04:58Z</time>
      </trkpt>
      <trkpt lat="44.11182" lon="3.11627">
        <ele>828.4</ele>
        <time>2019-04-19T12:05:00Z</time>
      </trkpt>
      <trkpt lat="44.11184" lon="3.11625">
        <ele>828.8</ele>
        <time>2019-04-19T12:05:02Z</time>
      </trkpt>
      <trkpt lat="44.11188" lon="3.11624">
        <ele>829.3</ele>
        <time>2019-04-19T12:05:04Z</time>
      </trkpt>
      <trkpt lat="44.11193" lon="3.11624">
        <ele>829.9</ele>
        <time>2019-04-19T12:05:06Z</time>
      </trkpt>
      <trkpt lat="44.11196" lon="3.11624">
        <ele>830.3</ele>
        <time>2019-04-19T12:05:08Z</time>
      </trkpt>
      <trkpt lat="44.11199" lon="3.11626">
        <ele>830.7</ele>
        <time>2019-04-19T12:05:10Z</time>
      </trkpt>
      <trkpt lat="44.11202" lon="3.1163">
        <ele>831.2</ele>
        <time>2019-04-19T12:05:13Z</time>
      </trkpt>
      <trkpt lat="44.11203" lon="3.11634">
        <ele>831.6</ele>
        <time>2019-04-19T12:05:16Z</time>
      </trkpt>
      <trkpt lat="44.11206" lon="3.11635">
        <ele>832</ele>
        <time>2019-04-19T12:05:18Z</time>
      </trkpt>
      <trkpt lat="44.1121" lon="3.11636">
        <ele>832.5</ele>
        <time>2019-04-19T12:05:20Z</time>
      </trkpt>
      <trkpt lat="44.11212" lon="3.11632">
        <ele>832.9</ele>
        <time>2019-04-19T12:05:24Z</time>
      </trkpt>
      <trkpt lat="44.11212" lon="3.11628">
        <ele>833.3</ele>
        <time>2019-04-19T12:05:31Z</time>
      </trkpt>
      <trkpt lat="44.11215" lon="3.11627">
        <ele>833.7</ele>
        <time>2019-04-19T12:07:08Z</time>
      </trkpt>
      <trkpt lat="44.11218" lon="3.11627">
        <ele>834.1</ele>
        <time>2019-04-19T12:07:11Z</time>
      </trkpt>
      <trkpt lat="44.11222" lon="3.11626">
        <ele>834.5</ele>
        <time>2019-04-19T12:07:13Z</time>
      </trkpt>
      <trkpt lat="44.11225" lon="3.11626">
        <ele>835</ele>
        <time>2019-04-19T12:07:15Z</time>
      </trkpt>
      <trkpt lat="44.11228" lon="3.11627">
        <ele>835.4</ele>
        <time>2019-04-19T12:07:17Z</time>
      </trkpt>
      <trkpt lat="44.11232" lon="3.11627">
        <ele>836</ele>
        <time>2019-04-19T12:07:19Z</time>
      </trkpt>
      <trkpt lat="44.11235" lon="3.11627">
        <ele>836.5</ele>
        <time>2019-04-19T12:07:21Z</time>
      </trkpt>
      <trkpt lat="44.11239" lon="3.11627">
        <ele>837</ele>
        <time>2019-04-19T12:07:23Z</time>
      </trkpt>
      <trkpt lat="44.11243" lon="3.11627">
        <ele>837.4</ele>
        <time>2019-04-19T12:07:25Z</time>
      </trkpt>
      <trkpt lat="44.11247" lon="3.11627">
        <ele>837.8</ele>
        <time>2019-04-19T12:07:27Z</time>
      </trkpt>
      <trkpt lat="44.1125" lon="3.11625">
        <ele>838.2</ele>
        <time>2019-04-19T12:07:29Z</time>
      </trkpt>
      <trkpt lat="44.11253" lon="3.11624">
        <ele>838.5</ele>
        <time>2019-04-19T12:07:31Z</time>
      </trkpt>
      <trkpt lat="44.11257" lon="3.11622">
        <ele>838.9</ele>
        <time>2019-04-19T12:07:33Z</time>
      </trkpt>
      <trkpt lat="44.1126" lon="3.11621">
        <ele>839.3</ele>
        <time>2019-04-19T12:07:35Z</time>
      </trkpt>
      <trkpt lat="44.11263" lon="3.1162">
        <ele>839.6</ele>
        <time>2019-04-19T12:07:37Z</time>
      </trkpt>
      <trkpt lat="44.11268" lon="3.11619">
        <ele>840.1</ele>
        <time>2019-04-19T12:07:39Z</time>
      </trkpt>
      <trkpt lat="44.11271" lon="3.11619">
        <ele>840.5</ele>
        <time>2019-04-19T12:07:41Z</time>
      </trkpt>
      <trkpt lat="44.11275" lon="3.1162">
        <ele>841</ele>
        <time>2019-04-19T12:07:44Z</time>
      </trkpt>
      <trkpt lat="44.11279" lon="3.11618">
        <ele>841.5</ele>
        <time>2019-04-19T12:07:46Z</time>
      </trkpt>
      <trkpt lat="44.11281" lon="3.11615">
        <ele>841.9</ele>
        <time>2019-04-19T12:07:47Z</time>
      </trkpt>
      <trkpt lat="44.11285" lon="3.11614">
        <ele>842.1</ele>
        <time>2019-04-19T12:07:48Z</time>
      </trkpt>
      <trkpt lat="44.11288" lon="3.11613">
        <ele>842.3</ele>
        <time>2019-04-19T12:07:49Z</time>
      </trkpt>
      <trkpt lat="44.11292" lon="3.11613">
        <ele>842.7</ele>
        <time>2019-04-19T12:07:51Z</time>
      </trkpt>
      <trkpt lat="44.11295" lon="3.11613">
        <ele>842.9</ele>
        <time>2019-04-19T12:07:52Z</time>
      </trkpt>
      <trkpt lat="44.11298" lon="3.11613">
        <ele>843.1</ele>
        <time>2019-04-19T12:07:53Z</time>
      </trkpt>
      <trkpt lat="44.11302" lon="3.11613">
        <ele>843.3</ele>
        <time>2019-04-19T12:07:55Z</time>
      </trkpt>
      <trkpt lat="44.11305" lon="3.11615">
        <ele>843.5</ele>
        <time>2019-04-19T12:07:57Z</time>
      </trkpt>
      <trkpt lat="44.11308" lon="3.11618">
        <ele>843.6</ele>
        <time>2019-04-19T12:07:59Z</time>
      </trkpt>
      <trkpt lat="44.1131" lon="3.11621">
        <ele>843.7</ele>
        <time>2019-04-19T12:08:01Z</time>
      </trkpt>
      <trkpt lat="44.11314" lon="3.11626">
        <ele>843.8</ele>
        <time>2019-04-19T12:08:03Z</time>
      </trkpt>
      <trkpt lat="44.11317" lon="3.11628">
        <ele>843.9</ele>
        <time>2019-04-19T12:08:04Z</time>
      </trkpt>
      <trkpt lat="44.1132" lon="3.1163">
        <ele>844</ele>
        <time>2019-04-19T12:08:05Z</time>
      </trkpt>
      <trkpt lat="44.11323" lon="3.11631">
        <ele>844.1</ele>
        <time>2019-04-19T12:08:06Z</time>
      </trkpt>
      <trkpt lat="44.11328" lon="3.11632">
        <ele>844.4</ele>
        <time>2019-04-19T12:08:08Z</time>
      </trkpt>
      <trkpt lat="44.11331" lon="3.11633">
        <ele>844.6</ele>
        <time>2019-04-19T12:08:10Z</time>
      </trkpt>
      <trkpt lat="44.11334" lon="3.11634">
        <ele>844.8</ele>
        <time>2019-04-19T12:08:12Z</time>
      </trkpt>
      <trkpt lat="44.11337" lon="3.11634">
        <ele>845</ele>
        <time>2019-04-19T12:08:13Z</time>
      </trkpt>
      <trkpt lat="44.1134" lon="3.11635">
        <ele>845.2</ele>
        <time>2019-04-19T12:08:14Z</time>
      </trkpt>
      <trkpt lat="44.11345" lon="3.11637">
        <ele>845.7</ele>
        <time>2019-04-19T12:08:16Z</time>
      </trkpt>
      <trkpt lat="44.11349" lon="3.11639">
        <ele>846.1</ele>
        <time>2019-04-19T12:08:18Z</time>
      </trkpt>
      <trkpt lat="44.11353" lon="3.11641">
        <ele>846.4</ele>
        <time>2019-04-19T12:08:19Z</time>
      </trkpt>
      <trkpt lat="44.11356" lon="3.11642">
        <ele>846.6</ele>
        <time>2019-04-19T12:08:20Z</time>
      </trkpt>
      <trkpt lat="44.11361" lon="3.11645">
        <ele>847</ele>
        <time>2019-04-19T12:08:22Z</time>
      </trkpt>
      <trkpt lat="44.11364" lon="3.11647">
        <ele>847.1</ele>
        <time>2019-04-19T12:08:23Z</time>
      </trkpt>
      <trkpt lat="44.11369" lon="3.1165">
        <ele>847.4</ele>
        <time>2019-04-19T12:08:25Z</time>
      </trkpt>
      <trkpt lat="44.11373" lon="3.11652">
        <ele>847.6</ele>
        <time>2019-04-19T12:08:26Z</time>
      </trkpt>
      <trkpt lat="44.11376" lon="3.11653">
        <ele>847.8</ele>
        <time>2019-04-19T12:08:27Z</time>
      </trkpt>
      <trkpt lat="44.1138" lon="3.11654">
        <ele>848</ele>
        <time>2019-04-19T12:08:28Z</time>
      </trkpt>
      <trkpt lat="44.11383" lon="3.11655">
        <ele>848.2</ele>
        <time>2019-04-19T12:08:29Z</time>
      </trkpt>
      <trkpt lat="44.11387" lon="3.11656">
        <ele>848.5</ele>
        <time>2019-04-19T12:08:30Z</time>
      </trkpt>
      <trkpt lat="44.1139" lon="3.11657">
        <ele>848.7</ele>
        <time>2019-04-19T12:08:31Z</time>
      </trkpt>
      <trkpt lat="44.11393" lon="3.11657">
        <ele>849</ele>
        <time>2019-04-19T12:08:32Z</time>
      </trkpt>
      <trkpt lat="44.11396" lon="3.11658">
        <ele>849.2</ele>
        <time>2019-04-19T12:08:33Z</time>
      </trkpt>
      <trkpt lat="44.11399" lon="3.11658">
        <ele>849.4</ele>
        <time>2019-04-19T12:08:34Z</time>
      </trkpt>
      <trkpt lat="44.11403" lon="3.1166">
        <ele>849.8</ele>
        <time>2019-04-19T12:08:36Z</time>
      </trkpt>
      <trkpt lat="44.11406" lon="3.11661">
        <ele>850</ele>
        <time>2019-04-19T12:08:38Z</time>
      </trkpt>
      <trkpt lat="44.11409" lon="3.11663">
        <ele>850.3</ele>
        <time>2019-04-19T12:08:39Z</time>
      </trkpt>
      <trkpt lat="44.11412" lon="3.11664">
        <ele>850.5</ele>
        <time>2019-04-19T12:08:40Z</time>
      </trkpt>
      <trkpt lat="44.11416" lon="3.11666">
        <ele>850.8</ele>
        <time>2019-04-19T12:08:41Z</time>
      </trkpt>
      <trkpt lat="44.11419" lon="3.11666">
        <ele>851</ele>
        <time>2019-04-19T12:08:42Z</time>
      </trkpt>
      <trkpt lat="44.11422" lon="3.11666">
        <ele>851.3</ele>
        <time>2019-04-19T12:08:43Z</time>
      </trkpt>
      <trkpt lat="44.11426" lon="3.11666">
        <ele>851.6</ele>
        <time>2019-04-19T12:08:44Z</time>
      </trkpt>
      <trkpt lat="44.1143" lon="3.11668">
        <ele>851.9</ele>
        <time>2019-04-19T12:08:45Z</time>
      </trkpt>
      <trkpt lat="44.11433" lon="3.11669">
        <ele>852.1</ele>
        <time>2019-04-19T12:08:46Z</time>
      </trkpt>
      <trkpt lat="44.11437" lon="3.11671">
        <ele>852.3</ele>
        <time>2019-04-19T12:08:47Z</time>
      </trkpt>
      <trkpt lat="44.1144" lon="3.11672">
        <ele>852.5</ele>
        <time>2019-04-19T12:08:48Z</time>
      </trkpt>
      <trkpt lat="44.11443" lon="3.11674">
        <ele>852.6</ele>
        <time>2019-04-19T12:08:49Z</time>
      </trkpt>
      <trkpt lat="44.11446" lon="3.11676">
        <ele>852.8</ele>
        <time>2019-04-19T12:08:50Z</time>
      </trkpt>
      <trkpt lat="44.11449" lon="3.11678">
        <ele>852.9</ele>
        <time>2019-04-19T12:08:51Z</time>
      </trkpt>
      <trkpt lat="44.11452" lon="3.11679">
        <ele>853</ele>
        <time>2019-04-19T12:08:52Z</time>
      </trkpt>
      <trkpt lat="44.11457" lon="3.1168">
        <ele>853.2</ele>
        <time>2019-04-19T12:08:54Z</time>
      </trkpt>
      <trkpt lat="44.11461" lon="3.1168">
        <ele>853.4</ele>
        <time>2019-04-19T12:08:55Z</time>
      </trkpt>
      <trkpt lat="44.11464" lon="3.1168">
        <ele>853.5</ele>
        <time>2019-04-19T12:08:56Z</time>
      </trkpt>
      <trkpt lat="44.11467" lon="3.11681">
        <ele>853.6</ele>
        <time>2019-04-19T12:08:57Z</time>
      </trkpt>
      <trkpt lat="44.11471" lon="3.11682">
        <ele>853.6</ele>
        <time>2019-04-19T12:08:58Z</time>
      </trkpt>
      <trkpt lat="44.11474" lon="3.11683">
        <ele>853.7</ele>
        <time>2019-04-19T12:08:59Z</time>
      </trkpt>
      <trkpt lat="44.11477" lon="3.11684">
        <ele>853.7</ele>
        <time>2019-04-19T12:09:00Z</time>
      </trkpt>
      <trkpt lat="44.1148" lon="3.11686">
        <ele>853.8</ele>
        <time>2019-04-19T12:09:01Z</time>
      </trkpt>
      <trkpt lat="44.11483" lon="3.11687">
        <ele>853.9</ele>
        <time>2019-04-19T12:09:02Z</time>
      </trkpt>
      <trkpt lat="44.11486" lon="3.11689">
        <ele>854</ele>
        <time>2019-04-19T12:09:03Z</time>
      </trkpt>
      <trkpt lat="44.11488" lon="3.11693">
        <ele>854.6</ele>
        <time>2019-04-19T12:09:04Z</time>
      </trkpt>
      <trkpt lat="44.1149" lon="3.11697">
        <ele>854.8</ele>
        <time>2019-04-19T12:09:05Z</time>
      </trkpt>
      <trkpt lat="44.11492" lon="3.11701">
        <ele>854.9</ele>
        <time>2019-04-19T12:09:07Z</time>
      </trkpt>
      <trkpt lat="44.11494" lon="3.11705">
        <ele>855.1</ele>
        <time>2019-04-19T12:09:09Z</time>
      </trkpt>
      <trkpt lat="44.11496" lon="3.1171">
        <ele>855.2</ele>
        <time>2019-04-19T12:09:11Z</time>
      </trkpt>
      <trkpt lat="44.11499" lon="3.11715">
        <ele>855.3</ele>
        <time>2019-04-19T12:09:13Z</time>
      </trkpt>
      <trkpt lat="44.11502" lon="3.11718">
        <ele>855.4</ele>
        <time>2019-04-19T12:09:14Z</time>
      </trkpt>
      <trkpt lat="44.11504" lon="3.11722">
        <ele>855.5</ele>
        <time>2019-04-19T12:09:15Z</time>
      </trkpt>
      <trkpt lat="44.11507" lon="3.11725">
        <ele>855.6</ele>
        <time>2019-04-19T12:09:16Z</time>
      </trkpt>
      <trkpt lat="44.11509" lon="3.11729">
        <ele>855.7</ele>
        <time>2019-04-19T12:09:17Z</time>
      </trkpt>
      <trkpt lat="44.11512" lon="3.11732">
        <ele>855.8</ele>
        <time>2019-04-19T12:09:18Z</time>
      </trkpt>
      <trkpt lat="44.11514" lon="3.11736">
        <ele>855.9</ele>
        <time>2019-04-19T12:09:19Z</time>
      </trkpt>
      <trkpt lat="44.11517" lon="3.1174">
        <ele>855.9</ele>
        <time>2019-04-19T12:09:20Z</time>
      </trkpt>
      <trkpt lat="44.11519" lon="3.11745">
        <ele>856</ele>
        <time>2019-04-19T12:09:21Z</time>
      </trkpt>
      <trkpt lat="44.11522" lon="3.1175">
        <ele>856.1</ele>
        <time>2019-04-19T12:09:22Z</time>
      </trkpt>
      <trkpt lat="44.11525" lon="3.11754">
        <ele>856.1</ele>
        <time>2019-04-19T12:09:23Z</time>
      </trkpt>
      <trkpt lat="44.11527" lon="3.11757">
        <ele>856.1</ele>
        <time>2019-04-19T12:09:24Z</time>
      </trkpt>
      <trkpt lat="44.11529" lon="3.11762">
        <ele>856.1</ele>
        <time>2019-04-19T12:09:25Z</time>
      </trkpt>
      <trkpt lat="44.11536" lon="3.11788">
        <ele>855.6</ele>
        <time>2019-04-19T12:09:27Z</time>
      </trkpt>
      <trkpt lat="44.11538" lon="3.11797">
        <ele>855.3</ele>
        <time>2019-04-19T12:09:28Z</time>
      </trkpt>
      <trkpt lat="44.11543" lon="3.11808">
        <ele>854.7</ele>
        <time>2019-04-19T12:09:29Z</time>
      </trkpt>
      <trkpt lat="44.11547" lon="3.11822">
        <ele>853.8</ele>
        <time>2019-04-19T12:09:30Z</time>
      </trkpt>
      <trkpt lat="44.11552" lon="3.11828">
        <ele>853.2</ele>
        <time>2019-04-19T12:09:31Z</time>
      </trkpt>
      <trkpt lat="44.11555" lon="3.1184">
        <ele>852.2</ele>
        <time>2019-04-19T12:09:32Z</time>
      </trkpt>
      <trkpt lat="44.11558" lon="3.11852">
        <ele>851.2</ele>
        <time>2019-04-19T12:09:33Z</time>
      </trkpt>
      <trkpt lat="44.11562" lon="3.11864">
        <ele>850.2</ele>
        <time>2019-04-19T12:09:34Z</time>
      </trkpt>
      <trkpt lat="44.11565" lon="3.11881">
        <ele>848.8</ele>
        <time>2019-04-19T12:09:35Z</time>
      </trkpt>
      <trkpt lat="44.11569" lon="3.11896">
        <ele>847.3</ele>
        <time>2019-04-19T12:09:36Z</time>
      </trkpt>
      <trkpt lat="44.11572" lon="3.11908">
        <ele>845.9</ele>
        <time>2019-04-19T12:09:37Z</time>
      </trkpt>
      <trkpt lat="44.11572" lon="3.1192">
        <ele>844.5</ele>
        <time>2019-04-19T12:09:38Z</time>
      </trkpt>
      <trkpt lat="44.11574" lon="3.11938">
        <ele>842.2</ele>
        <time>2019-04-19T12:09:39Z</time>
      </trkpt>
      <trkpt lat="44.11577" lon="3.11954">
        <ele>839.8</ele>
        <time>2019-04-19T12:09:40Z</time>
      </trkpt>
      <trkpt lat="44.11578" lon="3.11963">
        <ele>838.5</ele>
        <time>2019-04-19T12:09:41Z</time>
      </trkpt>
      <trkpt lat="44.11579" lon="3.11973">
        <ele>837.2</ele>
        <time>2019-04-19T12:09:42Z</time>
      </trkpt>
      <trkpt lat="44.11582" lon="3.11981">
        <ele>835.8</ele>
        <time>2019-04-19T12:09:43Z</time>
      </trkpt>
      <trkpt lat="44.11581" lon="3.11985">
        <ele>835.2</ele>
        <time>2019-04-19T12:09:45Z</time>
      </trkpt>
      <trkpt lat="44.11583" lon="3.11987">
        <ele>834.7</ele>
        <time>2019-04-19T12:09:48Z</time>
      </trkpt>
      <trkpt lat="44.11585" lon="3.1199">
        <ele>834.1</ele>
        <time>2019-04-19T12:09:49Z</time>
      </trkpt>
      <trkpt lat="44.11586" lon="3.11995">
        <ele>832.8</ele>
        <time>2019-04-19T12:10:08Z</time>
      </trkpt>
      <trkpt lat="44.1159" lon="3.11997">
        <ele>832.5</ele>
        <time>2019-04-19T12:10:10Z</time>
      </trkpt>
      <trkpt lat="44.11594" lon="3.12001">
        <ele>832.1</ele>
        <time>2019-04-19T12:10:12Z</time>
      </trkpt>
      <trkpt lat="44.11598" lon="3.12005">
        <ele>831.8</ele>
        <time>2019-04-19T12:10:13Z</time>
      </trkpt>
      <trkpt lat="44.116" lon="3.12007">
        <ele>831.6</ele>
        <time>2019-04-19T12:10:14Z</time>
      </trkpt>
      <trkpt lat="44.11603" lon="3.12009">
        <ele>831.4</ele>
        <time>2019-04-19T12:10:15Z</time>
      </trkpt>
      <trkpt lat="44.11606" lon="3.12011">
        <ele>831.1</ele>
        <time>2019-04-19T12:10:16Z</time>
      </trkpt>
      <trkpt lat="44.1161" lon="3.12013">
        <ele>830.8</ele>
        <time>2019-04-19T12:10:17Z</time>
      </trkpt>
      <trkpt lat="44.11617" lon="3.12016">
        <ele>830.3</ele>
        <time>2019-04-19T12:10:18Z</time>
      </trkpt>
      <trkpt lat="44.11623" lon="3.12019">
        <ele>829.9</ele>
        <time>2019-04-19T12:10:19Z</time>
      </trkpt>
      <trkpt lat="44.1163" lon="3.12024">
        <ele>829.5</ele>
        <time>2019-04-19T12:10:20Z</time>
      </trkpt>
      <trkpt lat="44.11635" lon="3.12028">
        <ele>829.2</ele>
        <time>2019-04-19T12:10:21Z</time>
      </trkpt>
      <trkpt lat="44.11641" lon="3.1203">
        <ele>828.9</ele>
        <time>2019-04-19T12:10:22Z</time>
      </trkpt>
      <trkpt lat="44.11646" lon="3.12032">
        <ele>828.8</ele>
        <time>2019-04-19T12:10:23Z</time>
      </trkpt>
      <trkpt lat="44.1165" lon="3.12035">
        <ele>828.7</ele>
        <time>2019-04-19T12:10:24Z</time>
      </trkpt>
      <trkpt lat="44.11654" lon="3.12042">
        <ele>828.7</ele>
        <time>2019-04-19T12:10:25Z</time>
      </trkpt>
      <trkpt lat="44.11654" lon="3.12046">
        <ele>828.8</ele>
        <time>2019-04-19T12:10:26Z</time>
      </trkpt>
      <trkpt lat="44.11655" lon="3.1205">
        <ele>829.2</ele>
        <time>2019-04-19T12:10:27Z</time>
      </trkpt>
      <trkpt lat="44.11657" lon="3.12057">
        <ele>829.2</ele>
        <time>2019-04-19T12:10:28Z</time>
      </trkpt>
      <trkpt lat="44.11659" lon="3.12062">
        <ele>829.3</ele>
        <time>2019-04-19T12:10:29Z</time>
      </trkpt>
      <trkpt lat="44.11662" lon="3.12068">
        <ele>829.4</ele>
        <time>2019-04-19T12:10:30Z</time>
      </trkpt>
      <trkpt lat="44.11663" lon="3.12076">
        <ele>829.5</ele>
        <time>2019-04-19T12:10:31Z</time>
      </trkpt>
      <trkpt lat="44.11665" lon="3.12085">
        <ele>829.5</ele>
        <time>2019-04-19T12:10:32Z</time>
      </trkpt>
      <trkpt lat="44.11669" lon="3.12095">
        <ele>829.5</ele>
        <time>2019-04-19T12:10:33Z</time>
      </trkpt>
      <trkpt lat="44.11675" lon="3.12103">
        <ele>829.4</ele>
        <time>2019-04-19T12:10:34Z</time>
      </trkpt>
      <trkpt lat="44.11674" lon="3.12107">
        <ele>829.3</ele>
        <time>2019-04-19T12:10:35Z</time>
      </trkpt>
      <trkpt lat="44.11671" lon="3.12109">
        <ele>829.2</ele>
        <time>2019-04-19T12:10:36Z</time>
      </trkpt>
      <trkpt lat="44.11671" lon="3.12113">
        <ele>829</ele>
        <time>2019-04-19T12:10:37Z</time>
      </trkpt>
      <trkpt lat="44.1167" lon="3.12119">
        <ele>829</ele>
        <time>2019-04-19T12:10:38Z</time>
      </trkpt>
      <trkpt lat="44.11669" lon="3.12124">
        <ele>829</ele>
        <time>2019-04-19T12:10:39Z</time>
      </trkpt>
      <trkpt lat="44.11668" lon="3.12131">
        <ele>829</ele>
        <time>2019-04-19T12:10:40Z</time>
      </trkpt>
      <trkpt lat="44.11669" lon="3.1214">
        <ele>829.1</ele>
        <time>2019-04-19T12:10:41Z</time>
      </trkpt>
      <trkpt lat="44.11669" lon="3.12146">
        <ele>829.2</ele>
        <time>2019-04-19T12:10:42Z</time>
      </trkpt>
      <trkpt lat="44.11667" lon="3.12151">
        <ele>829.3</ele>
        <time>2019-04-19T12:10:43Z</time>
      </trkpt>
      <trkpt lat="44.11664" lon="3.12156">
        <ele>829.4</ele>
        <time>2019-04-19T12:10:44Z</time>
      </trkpt>
      <trkpt lat="44.11662" lon="3.12162">
        <ele>829.5</ele>
        <time>2019-04-19T12:10:45Z</time>
      </trkpt>
      <trkpt lat="44.11661" lon="3.12167">
        <ele>829.7</ele>
        <time>2019-04-19T12:10:46Z</time>
      </trkpt>
      <trkpt lat="44.11659" lon="3.12174">
        <ele>829.8</ele>
        <time>2019-04-19T12:10:47Z</time>
      </trkpt>
      <trkpt lat="44.11658" lon="3.1218">
        <ele>830</ele>
        <time>2019-04-19T12:10:48Z</time>
      </trkpt>
      <trkpt lat="44.11656" lon="3.12185">
        <ele>830.1</ele>
        <time>2019-04-19T12:10:49Z</time>
      </trkpt>
      <trkpt lat="44.11656" lon="3.12192">
        <ele>830.2</ele>
        <time>2019-04-19T12:10:50Z</time>
      </trkpt>
      <trkpt lat="44.11655" lon="3.12199">
        <ele>830.4</ele>
        <time>2019-04-19T12:10:51Z</time>
      </trkpt>
      <trkpt lat="44.11654" lon="3.12205">
        <ele>830.5</ele>
        <time>2019-04-19T12:10:52Z</time>
      </trkpt>
      <trkpt lat="44.11653" lon="3.12212">
        <ele>830.6</ele>
        <time>2019-04-19T12:10:53Z</time>
      </trkpt>
      <trkpt lat="44.11652" lon="3.12219">
        <ele>830.8</ele>
        <time>2019-04-19T12:10:54Z</time>
      </trkpt>
      <trkpt lat="44.1165" lon="3.1223">
        <ele>831</ele>
        <time>2019-04-19T12:10:55Z</time>
      </trkpt>
      <trkpt lat="44.11648" lon="3.12236">
        <ele>831.2</ele>
        <time>2019-04-19T12:10:56Z</time>
      </trkpt>
      <trkpt lat="44.11647" lon="3.12242">
        <ele>831.3</ele>
        <time>2019-04-19T12:10:57Z</time>
      </trkpt>
      <trkpt lat="44.11646" lon="3.12246">
        <ele>831.5</ele>
        <time>2019-04-19T12:10:59Z</time>
      </trkpt>
      <trkpt lat="44.11644" lon="3.12249">
        <ele>831.6</ele>
        <time>2019-04-19T12:11:00Z</time>
      </trkpt>
      <trkpt lat="44.11645" lon="3.12265">
        <ele>832.2</ele>
        <time>2019-04-19T12:11:02Z</time>
      </trkpt>
      <trkpt lat="44.11646" lon="3.12269">
        <ele>832.3</ele>
        <time>2019-04-19T12:11:03Z</time>
      </trkpt>
      <trkpt lat="44.11646" lon="3.12278">
        <ele>832.6</ele>
        <time>2019-04-19T12:11:04Z</time>
      </trkpt>
      <trkpt lat="44.11647" lon="3.12281">
        <ele>832.6</ele>
        <time>2019-04-19T12:11:05Z</time>
      </trkpt>
      <trkpt lat="44.11648" lon="3.12289">
        <ele>832.7</ele>
        <time>2019-04-19T12:11:07Z</time>
      </trkpt>
      <trkpt lat="44.1165" lon="3.12293">
        <ele>832.6</ele>
        <time>2019-04-19T12:11:08Z</time>
      </trkpt>
      <trkpt lat="44.11652" lon="3.12297">
        <ele>832.6</ele>
        <time>2019-04-19T12:11:09Z</time>
      </trkpt>
      <trkpt lat="44.11653" lon="3.12301">
        <ele>832.6</ele>
        <time>2019-04-19T12:11:10Z</time>
      </trkpt>
      <trkpt lat="44.11655" lon="3.12305">
        <ele>832.5</ele>
        <time>2019-04-19T12:11:11Z</time>
      </trkpt>
      <trkpt lat="44.11657" lon="3.12308">
        <ele>832.4</ele>
        <time>2019-04-19T12:11:12Z</time>
      </trkpt>
      <trkpt lat="44.11659" lon="3.12312">
        <ele>832.3</ele>
        <time>2019-04-19T12:11:14Z</time>
      </trkpt>
      <trkpt lat="44.11661" lon="3.12316">
        <ele>832.3</ele>
        <time>2019-04-19T12:11:15Z</time>
      </trkpt>
      <trkpt lat="44.11663" lon="3.12319">
        <ele>832.2</ele>
        <time>2019-04-19T12:11:16Z</time>
      </trkpt>
      <trkpt lat="44.11664" lon="3.12324">
        <ele>832.1</ele>
        <time>2019-04-19T12:11:17Z</time>
      </trkpt>
      <trkpt lat="44.11666" lon="3.12329">
        <ele>832.1</ele>
        <time>2019-04-19T12:11:18Z</time>
      </trkpt>
      <trkpt lat="44.11667" lon="3.12334">
        <ele>832.1</ele>
        <time>2019-04-19T12:11:19Z</time>
      </trkpt>
      <trkpt lat="44.11668" lon="3.12339">
        <ele>832</ele>
        <time>2019-04-19T12:11:20Z</time>
      </trkpt>
      <trkpt lat="44.11668" lon="3.12344">
        <ele>832</ele>
        <time>2019-04-19T12:11:21Z</time>
      </trkpt>
      <trkpt lat="44.1167" lon="3.12349">
        <ele>832</ele>
        <time>2019-04-19T12:11:22Z</time>
      </trkpt>
      <trkpt lat="44.11671" lon="3.12354">
        <ele>831.9</ele>
        <time>2019-04-19T12:11:23Z</time>
      </trkpt>
      <trkpt lat="44.11674" lon="3.1236">
        <ele>831.7</ele>
        <time>2019-04-19T12:11:24Z</time>
      </trkpt>
      <trkpt lat="44.11677" lon="3.12365">
        <ele>831.5</ele>
        <time>2019-04-19T12:11:25Z</time>
      </trkpt>
      <trkpt lat="44.1168" lon="3.1237">
        <ele>831.3</ele>
        <time>2019-04-19T12:11:26Z</time>
      </trkpt>
      <trkpt lat="44.11683" lon="3.12375">
        <ele>830.9</ele>
        <time>2019-04-19T12:11:27Z</time>
      </trkpt>
      <trkpt lat="44.11687" lon="3.1238">
        <ele>830.6</ele>
        <time>2019-04-19T12:11:28Z</time>
      </trkpt>
      <trkpt lat="44.1169" lon="3.12384">
        <ele>830.3</ele>
        <time>2019-04-19T12:11:29Z</time>
      </trkpt>
      <trkpt lat="44.11693" lon="3.12388">
        <ele>829.9</ele>
        <time>2019-04-19T12:11:30Z</time>
      </trkpt>
      <trkpt lat="44.11695" lon="3.12392">
        <ele>829.6</ele>
        <time>2019-04-19T12:11:31Z</time>
      </trkpt>
      <trkpt lat="44.11705" lon="3.12402">
        <ele>828.8</ele>
        <time>2019-04-19T12:11:32Z</time>
      </trkpt>
      <trkpt lat="44.11711" lon="3.12409">
        <ele>828.3</ele>
        <time>2019-04-19T12:11:33Z</time>
      </trkpt>
      <trkpt lat="44.11715" lon="3.12417">
        <ele>827.8</ele>
        <time>2019-04-19T12:11:34Z</time>
      </trkpt>
      <trkpt lat="44.11727" lon="3.12428">
        <ele>826.7</ele>
        <time>2019-04-19T12:11:35Z</time>
      </trkpt>
      <trkpt lat="44.11732" lon="3.12435">
        <ele>826.2</ele>
        <time>2019-04-19T12:11:36Z</time>
      </trkpt>
      <trkpt lat="44.11739" lon="3.1244">
        <ele>825.7</ele>
        <time>2019-04-19T12:11:37Z</time>
      </trkpt>
      <trkpt lat="44.11744" lon="3.12441">
        <ele>825.4</ele>
        <time>2019-04-19T12:11:38Z</time>
      </trkpt>
      <trkpt lat="44.11755" lon="3.12444">
        <ele>824.9</ele>
        <time>2019-04-19T12:11:39Z</time>
      </trkpt>
      <trkpt lat="44.11762" lon="3.1245">
        <ele>824.4</ele>
        <time>2019-04-19T12:11:40Z</time>
      </trkpt>
      <trkpt lat="44.1176" lon="3.12458">
        <ele>823.3</ele>
        <time>2019-04-19T12:11:41Z</time>
      </trkpt>
      <trkpt lat="44.11759" lon="3.12462">
        <ele>823</ele>
        <time>2019-04-19T12:11:42Z</time>
      </trkpt>
      <trkpt lat="44.11756" lon="3.12465">
        <ele>822.6</ele>
        <time>2019-04-19T12:11:43Z</time>
      </trkpt>
      <trkpt lat="44.11754" lon="3.12468">
        <ele>822.3</ele>
        <time>2019-04-19T12:11:44Z</time>
      </trkpt>
      <trkpt lat="44.11752" lon="3.12474">
        <ele>822</ele>
        <time>2019-04-19T12:11:45Z</time>
      </trkpt>
      <trkpt lat="44.11749" lon="3.1248">
        <ele>821.7</ele>
        <time>2019-04-19T12:11:46Z</time>
      </trkpt>
      <trkpt lat="44.11746" lon="3.12485">
        <ele>821.4</ele>
        <time>2019-04-19T12:11:47Z</time>
      </trkpt>
      <trkpt lat="44.1174" lon="3.1249">
        <ele>820.9</ele>
        <time>2019-04-19T12:11:48Z</time>
      </trkpt>
      <trkpt lat="44.1174" lon="3.12495">
        <ele>820.7</ele>
        <time>2019-04-19T12:11:49Z</time>
      </trkpt>
      <trkpt lat="44.11737" lon="3.12502">
        <ele>820.4</ele>
        <time>2019-04-19T12:11:50Z</time>
      </trkpt>
      <trkpt lat="44.11737" lon="3.12509">
        <ele>820.2</ele>
        <time>2019-04-19T12:11:51Z</time>
      </trkpt>
      <trkpt lat="44.11736" lon="3.12514">
        <ele>820</ele>
        <time>2019-04-19T12:11:52Z</time>
      </trkpt>
      <trkpt lat="44.11738" lon="3.12509">
        <ele>819.9</ele>
        <time>2019-04-19T12:12:05Z</time>
      </trkpt>
      <trkpt lat="44.11739" lon="3.12508">
        <ele>819.8</ele>
        <time>2019-04-19T12:12:08Z</time>
      </trkpt>
      <trkpt lat="44.11739" lon="3.12507">
        <ele>819.8</ele>
        <time>2019-04-19T12:12:10Z</time>
      </trkpt>
      <trkpt lat="44.1174" lon="3.12506">
        <ele>819.7</ele>
        <time>2019-04-19T12:12:13Z</time>
      </trkpt>
      <trkpt lat="44.11741" lon="3.12505">
        <ele>819.7</ele>
        <time>2019-04-19T12:12:15Z</time>
      </trkpt>
      <trkpt lat="44.11741" lon="3.12504">
        <ele>819.6</ele>
        <time>2019-04-19T12:14:34Z</time>
      </trkpt>
      <trkpt lat="44.11742" lon="3.12503">
        <ele>819.6</ele>
        <time>2019-04-19T12:14:35Z</time>
      </trkpt>
      <trkpt lat="44.11739" lon="3.12508">
        <ele>819.4</ele>
        <time>2019-04-19T12:14:36Z</time>
      </trkpt>
      <trkpt lat="44.11737" lon="3.12513">
        <ele>819.2</ele>
        <time>2019-04-19T12:14:37Z</time>
      </trkpt>
      <trkpt lat="44.11738" lon="3.12522">
        <ele>818.9</ele>
        <time>2019-04-19T12:14:38Z</time>
      </trkpt>
      <trkpt lat="44.11735" lon="3.12533">
        <ele>818.5</ele>
        <time>2019-04-19T12:14:39Z</time>
      </trkpt>
      <trkpt lat="44.11734" lon="3.12541">
        <ele>818.1</ele>
        <time>2019-04-19T12:14:40Z</time>
      </trkpt>
      <trkpt lat="44.11735" lon="3.12547">
        <ele>817.9</ele>
        <time>2019-04-19T12:14:41Z</time>
      </trkpt>
      <trkpt lat="44.11739" lon="3.12554">
        <ele>817.5</ele>
        <time>2019-04-19T12:14:42Z</time>
      </trkpt>
      <trkpt lat="44.11743" lon="3.12556">
        <ele>817.2</ele>
        <time>2019-04-19T12:14:43Z</time>
      </trkpt>
      <trkpt lat="44.11743" lon="3.12563">
        <ele>816.9</ele>
        <time>2019-04-19T12:14:45Z</time>
      </trkpt>
      <trkpt lat="44.11741" lon="3.12571">
        <ele>816.5</ele>
        <time>2019-04-19T12:14:46Z</time>
      </trkpt>
      <trkpt lat="44.11743" lon="3.12577">
        <ele>816.2</ele>
        <time>2019-04-19T12:14:47Z</time>
      </trkpt>
      <trkpt lat="44.11748" lon="3.12584">
        <ele>815.8</ele>
        <time>2019-04-19T12:14:48Z</time>
      </trkpt>
      <trkpt lat="44.1175" lon="3.12591">
        <ele>815.5</ele>
        <time>2019-04-19T12:14:49Z</time>
      </trkpt>
      <trkpt lat="44.11751" lon="3.12599">
        <ele>815.2</ele>
        <time>2019-04-19T12:14:50Z</time>
      </trkpt>
      <trkpt lat="44.11755" lon="3.12608">
        <ele>814.9</ele>
        <time>2019-04-19T12:14:51Z</time>
      </trkpt>
      <trkpt lat="44.11757" lon="3.12617">
        <ele>814.6</ele>
        <time>2019-04-19T12:14:52Z</time>
      </trkpt>
      <trkpt lat="44.11757" lon="3.12626">
        <ele>814.2</ele>
        <time>2019-04-19T12:14:53Z</time>
      </trkpt>
      <trkpt lat="44.11759" lon="3.12634">
        <ele>813.9</ele>
        <time>2019-04-19T12:14:54Z</time>
      </trkpt>
      <trkpt lat="44.11761" lon="3.1264">
        <ele>813.5</ele>
        <time>2019-04-19T12:14:55Z</time>
      </trkpt>
      <trkpt lat="44.11764" lon="3.12645">
        <ele>813.2</ele>
        <time>2019-04-19T12:14:56Z</time>
      </trkpt>
      <trkpt lat="44.1177" lon="3.12646">
        <ele>813</ele>
        <time>2019-04-19T12:14:57Z</time>
      </trkpt>
      <trkpt lat="44.11773" lon="3.12653">
        <ele>812.9</ele>
        <time>2019-04-19T12:14:59Z</time>
      </trkpt>
      <trkpt lat="44.11775" lon="3.12658">
        <ele>813</ele>
        <time>2019-04-19T12:15:00Z</time>
      </trkpt>
      <trkpt lat="44.11781" lon="3.1266">
        <ele>813.1</ele>
        <time>2019-04-19T12:15:01Z</time>
      </trkpt>
      <trkpt lat="44.11785" lon="3.12664">
        <ele>813.2</ele>
        <time>2019-04-19T12:15:02Z</time>
      </trkpt>
      <trkpt lat="44.11787" lon="3.1267">
        <ele>813.4</ele>
        <time>2019-04-19T12:15:03Z</time>
      </trkpt>
      <trkpt lat="44.11787" lon="3.12675">
        <ele>813.5</ele>
        <time>2019-04-19T12:15:04Z</time>
      </trkpt>
      <trkpt lat="44.11788" lon="3.12681">
        <ele>813.8</ele>
        <time>2019-04-19T12:15:06Z</time>
      </trkpt>
      <trkpt lat="44.11789" lon="3.12685">
        <ele>813.9</ele>
        <time>2019-04-19T12:15:07Z</time>
      </trkpt>
      <trkpt lat="44.1179" lon="3.1269">
        <ele>814.1</ele>
        <time>2019-04-19T12:15:08Z</time>
      </trkpt>
      <trkpt lat="44.11791" lon="3.12695">
        <ele>814.3</ele>
        <time>2019-04-19T12:15:09Z</time>
      </trkpt>
      <trkpt lat="44.11791" lon="3.12699">
        <ele>814.6</ele>
        <time>2019-04-19T12:15:10Z</time>
      </trkpt>
      <trkpt lat="44.11791" lon="3.12704">
        <ele>814.8</ele>
        <time>2019-04-19T12:15:11Z</time>
      </trkpt>
      <trkpt lat="44.11792" lon="3.12708">
        <ele>815.1</ele>
        <time>2019-04-19T12:15:12Z</time>
      </trkpt>
      <trkpt lat="44.11793" lon="3.12711">
        <ele>815.3</ele>
        <time>2019-04-19T12:15:13Z</time>
      </trkpt>
      <trkpt lat="44.11795" lon="3.12715">
        <ele>815.6</ele>
        <time>2019-04-19T12:15:14Z</time>
      </trkpt>
      <trkpt lat="44.11797" lon="3.12719">
        <ele>816</ele>
        <time>2019-04-19T12:15:15Z</time>
      </trkpt>
      <trkpt lat="44.118" lon="3.12723">
        <ele>816.3</ele>
        <time>2019-04-19T12:15:16Z</time>
      </trkpt>
      <trkpt lat="44.11802" lon="3.12727">
        <ele>816.7</ele>
        <time>2019-04-19T12:15:17Z</time>
      </trkpt>
      <trkpt lat="44.11803" lon="3.12732">
        <ele>817</ele>
        <time>2019-04-19T12:15:18Z</time>
      </trkpt>
      <trkpt lat="44.11805" lon="3.12736">
        <ele>817.4</ele>
        <time>2019-04-19T12:15:19Z</time>
      </trkpt>
      <trkpt lat="44.11808" lon="3.12741">
        <ele>817.9</ele>
        <time>2019-04-19T12:15:21Z</time>
      </trkpt>
      <trkpt lat="44.11811" lon="3.12744">
        <ele>818.2</ele>
        <time>2019-04-19T12:15:23Z</time>
      </trkpt>
      <trkpt lat="44.11813" lon="3.12748">
        <ele>818.4</ele>
        <time>2019-04-19T12:15:25Z</time>
      </trkpt>
      <trkpt lat="44.11814" lon="3.12752">
        <ele>818.7</ele>
        <time>2019-04-19T12:15:26Z</time>
      </trkpt>
      <trkpt lat="44.11816" lon="3.12757">
        <ele>819.1</ele>
        <time>2019-04-19T12:15:28Z</time>
      </trkpt>
      <trkpt lat="44.11819" lon="3.1276">
        <ele>819.4</ele>
        <time>2019-04-19T12:15:30Z</time>
      </trkpt>
      <trkpt lat="44.11822" lon="3.12763">
        <ele>819.7</ele>
        <time>2019-04-19T12:15:32Z</time>
      </trkpt>
      <trkpt lat="44.11826" lon="3.12766">
        <ele>820.1</ele>
        <time>2019-04-19T12:15:34Z</time>
      </trkpt>
      <trkpt lat="44.11829" lon="3.12767">
        <ele>820.4</ele>
        <time>2019-04-19T12:15:36Z</time>
      </trkpt>
      <trkpt lat="44.11833" lon="3.12768">
        <ele>820.7</ele>
        <time>2019-04-19T12:15:38Z</time>
      </trkpt>
      <trkpt lat="44.11836" lon="3.12769">
        <ele>821</ele>
        <time>2019-04-19T12:15:40Z</time>
      </trkpt>
      <trkpt lat="44.11839" lon="3.12774">
        <ele>821.4</ele>
        <time>2019-04-19T12:15:42Z</time>
      </trkpt>
      <trkpt lat="44.11841" lon="3.12778">
        <ele>821.7</ele>
        <time>2019-04-19T12:15:43Z</time>
      </trkpt>
      <trkpt lat="44.11842" lon="3.12782">
        <ele>822</ele>
        <time>2019-04-19T12:15:44Z</time>
      </trkpt>
      <trkpt lat="44.11845" lon="3.12787">
        <ele>822.7</ele>
        <time>2019-04-19T12:15:46Z</time>
      </trkpt>
      <trkpt lat="44.11848" lon="3.12789">
        <ele>822.4</ele>
        <time>2019-04-19T12:15:47Z</time>
      </trkpt>
      <trkpt lat="44.1185" lon="3.12791">
        <ele>822.2</ele>
        <time>2019-04-19T12:15:49Z</time>
      </trkpt>
      <trkpt lat="44.11851" lon="3.12795">
        <ele>821.8</ele>
        <time>2019-04-19T12:15:51Z</time>
      </trkpt>
      <trkpt lat="44.11853" lon="3.12802">
        <ele>821.3</ele>
        <time>2019-04-19T12:15:53Z</time>
      </trkpt>
      <trkpt lat="44.11853" lon="3.12809">
        <ele>820.6</ele>
        <time>2019-04-19T12:15:55Z</time>
      </trkpt>
      <trkpt lat="44.11854" lon="3.12814">
        <ele>820.2</ele>
        <time>2019-04-19T12:15:56Z</time>
      </trkpt>
      <trkpt lat="44.11854" lon="3.12819">
        <ele>819.7</ele>
        <time>2019-04-19T12:15:57Z</time>
      </trkpt>
      <trkpt lat="44.11854" lon="3.12824">
        <ele>819.2</ele>
        <time>2019-04-19T12:15:58Z</time>
      </trkpt>
      <trkpt lat="44.11854" lon="3.12829">
        <ele>818.8</ele>
        <time>2019-04-19T12:15:59Z</time>
      </trkpt>
      <trkpt lat="44.11855" lon="3.12836">
        <ele>818.3</ele>
        <time>2019-04-19T12:16:00Z</time>
      </trkpt>
      <trkpt lat="44.11855" lon="3.12843">
        <ele>817.8</ele>
        <time>2019-04-19T12:16:01Z</time>
      </trkpt>
      <trkpt lat="44.11856" lon="3.12859">
        <ele>816.6</ele>
        <time>2019-04-19T12:16:02Z</time>
      </trkpt>
      <trkpt lat="44.11854" lon="3.12864">
        <ele>816.1</ele>
        <time>2019-04-19T12:16:03Z</time>
      </trkpt>
      <trkpt lat="44.11853" lon="3.12873">
        <ele>815.1</ele>
        <time>2019-04-19T12:16:04Z</time>
      </trkpt>
      <trkpt lat="44.11851" lon="3.12877">
        <ele>814.6</ele>
        <time>2019-04-19T12:16:05Z</time>
      </trkpt>
      <trkpt lat="44.1185" lon="3.12886">
        <ele>813.4</ele>
        <time>2019-04-19T12:16:06Z</time>
      </trkpt>
      <trkpt lat="44.11848" lon="3.12892">
        <ele>812.5</ele>
        <time>2019-04-19T12:16:07Z</time>
      </trkpt>
      <trkpt lat="44.11845" lon="3.12898">
        <ele>811.5</ele>
        <time>2019-04-19T12:16:08Z</time>
      </trkpt>
      <trkpt lat="44.11843" lon="3.12903">
        <ele>810.7</ele>
        <time>2019-04-19T12:16:09Z</time>
      </trkpt>
      <trkpt lat="44.11843" lon="3.12913">
        <ele>809.6</ele>
        <time>2019-04-19T12:16:10Z</time>
      </trkpt>
      <trkpt lat="44.11841" lon="3.12916">
        <ele>809</ele>
        <time>2019-04-19T12:16:11Z</time>
      </trkpt>
      <trkpt lat="44.11839" lon="3.12922">
        <ele>808.2</ele>
        <time>2019-04-19T12:16:13Z</time>
      </trkpt>
      <trkpt lat="44.11836" lon="3.12929">
        <ele>807.5</ele>
        <time>2019-04-19T12:16:14Z</time>
      </trkpt>
      <trkpt lat="44.11834" lon="3.12934">
        <ele>807.2</ele>
        <time>2019-04-19T12:16:15Z</time>
      </trkpt>
      <trkpt lat="44.1183" lon="3.12935">
        <ele>807</ele>
        <time>2019-04-19T12:16:16Z</time>
      </trkpt>
      <trkpt lat="44.11826" lon="3.12938">
        <ele>806.9</ele>
        <time>2019-04-19T12:16:17Z</time>
      </trkpt>
      <trkpt lat="44.11823" lon="3.12941">
        <ele>806.9</ele>
        <time>2019-04-19T12:16:19Z</time>
      </trkpt>
      <trkpt lat="44.11822" lon="3.12947">
        <ele>807</ele>
        <time>2019-04-19T12:16:21Z</time>
      </trkpt>
      <trkpt lat="44.11819" lon="3.12948">
        <ele>807.1</ele>
        <time>2019-04-19T12:16:22Z</time>
      </trkpt>
      <trkpt lat="44.11816" lon="3.12951">
        <ele>807.3</ele>
        <time>2019-04-19T12:16:24Z</time>
      </trkpt>
      <trkpt lat="44.11816" lon="3.12956">
        <ele>807.4</ele>
        <time>2019-04-19T12:16:25Z</time>
      </trkpt>
      <trkpt lat="44.11817" lon="3.1296">
        <ele>807.6</ele>
        <time>2019-04-19T12:16:26Z</time>
      </trkpt>
      <trkpt lat="44.11814" lon="3.12965">
        <ele>807.8</ele>
        <time>2019-04-19T12:16:28Z</time>
      </trkpt>
      <trkpt lat="44.11811" lon="3.12969">
        <ele>807.9</ele>
        <time>2019-04-19T12:16:30Z</time>
      </trkpt>
      <trkpt lat="44.11809" lon="3.12972">
        <ele>808</ele>
        <time>2019-04-19T12:16:31Z</time>
      </trkpt>
      <trkpt lat="44.11808" lon="3.12976">
        <ele>808.1</ele>
        <time>2019-04-19T12:16:32Z</time>
      </trkpt>
      <trkpt lat="44.11805" lon="3.12981">
        <ele>808.1</ele>
        <time>2019-04-19T12:16:33Z</time>
      </trkpt>
      <trkpt lat="44.11803" lon="3.12985">
        <ele>808.1</ele>
        <time>2019-04-19T12:16:34Z</time>
      </trkpt>
      <trkpt lat="44.11801" lon="3.12989">
        <ele>808.1</ele>
        <time>2019-04-19T12:16:35Z</time>
      </trkpt>
      <trkpt lat="44.11798" lon="3.12993">
        <ele>808.1</ele>
        <time>2019-04-19T12:16:36Z</time>
      </trkpt>
      <trkpt lat="44.11796" lon="3.12996">
        <ele>808</ele>
        <time>2019-04-19T12:16:37Z</time>
      </trkpt>
      <trkpt lat="44.11792" lon="3.13001">
        <ele>807.9</ele>
        <time>2019-04-19T12:16:38Z</time>
      </trkpt>
      <trkpt lat="44.11789" lon="3.13007">
        <ele>807.6</ele>
        <time>2019-04-19T12:16:39Z</time>
      </trkpt>
      <trkpt lat="44.11783" lon="3.13017">
        <ele>807.1</ele>
        <time>2019-04-19T12:16:40Z</time>
      </trkpt>
      <trkpt lat="44.11779" lon="3.13023">
        <ele>806.8</ele>
        <time>2019-04-19T12:16:41Z</time>
      </trkpt>
      <trkpt lat="44.11776" lon="3.13029">
        <ele>806.5</ele>
        <time>2019-04-19T12:16:42Z</time>
      </trkpt>
      <trkpt lat="44.11772" lon="3.13036">
        <ele>806.2</ele>
        <time>2019-04-19T12:16:43Z</time>
      </trkpt>
      <trkpt lat="44.11769" lon="3.13041">
        <ele>806</ele>
        <time>2019-04-19T12:16:44Z</time>
      </trkpt>
      <trkpt lat="44.11767" lon="3.13046">
        <ele>805.9</ele>
        <time>2019-04-19T12:16:45Z</time>
      </trkpt>
      <trkpt lat="44.11763" lon="3.1305">
        <ele>805.8</ele>
        <time>2019-04-19T12:16:46Z</time>
      </trkpt>
      <trkpt lat="44.11758" lon="3.13063">
        <ele>805.6</ele>
        <time>2019-04-19T12:16:47Z</time>
      </trkpt>
      <trkpt lat="44.11753" lon="3.13068">
        <ele>805.5</ele>
        <time>2019-04-19T12:16:48Z</time>
      </trkpt>
      <trkpt lat="44.11749" lon="3.13071">
        <ele>805.5</ele>
        <time>2019-04-19T12:16:49Z</time>
      </trkpt>
      <trkpt lat="44.11747" lon="3.13074">
        <ele>805.5</ele>
        <time>2019-04-19T12:16:51Z</time>
      </trkpt>
      <trkpt lat="44.11746" lon="3.13078">
        <ele>805.5</ele>
        <time>2019-04-19T12:16:53Z</time>
      </trkpt>
      <trkpt lat="44.11745" lon="3.13086">
        <ele>805.5</ele>
        <time>2019-04-19T12:16:57Z</time>
      </trkpt>
      <trkpt lat="44.11744" lon="3.13091">
        <ele>805.5</ele>
        <time>2019-04-19T12:16:59Z</time>
      </trkpt>
      <trkpt lat="44.11744" lon="3.13098">
        <ele>805.9</ele>
        <time>2019-04-19T12:17:01Z</time>
      </trkpt>
      <trkpt lat="44.11741" lon="3.13103">
        <ele>806.1</ele>
        <time>2019-04-19T12:17:03Z</time>
      </trkpt>
      <trkpt lat="44.11741" lon="3.13109">
        <ele>806.4</ele>
        <time>2019-04-19T12:17:05Z</time>
      </trkpt>
      <trkpt lat="44.11739" lon="3.13117">
        <ele>806.6</ele>
        <time>2019-04-19T12:17:07Z</time>
      </trkpt>
      <trkpt lat="44.11738" lon="3.13121">
        <ele>806.7</ele>
        <time>2019-04-19T12:17:08Z</time>
      </trkpt>
      <trkpt lat="44.11736" lon="3.13125">
        <ele>806.8</ele>
        <time>2019-04-19T12:17:09Z</time>
      </trkpt>
      <trkpt lat="44.11734" lon="3.13129">
        <ele>806.9</ele>
        <time>2019-04-19T12:17:10Z</time>
      </trkpt>
      <trkpt lat="44.11732" lon="3.13132">
        <ele>807</ele>
        <time>2019-04-19T12:17:11Z</time>
      </trkpt>
      <trkpt lat="44.1173" lon="3.13135">
        <ele>807.1</ele>
        <time>2019-04-19T12:17:12Z</time>
      </trkpt>
      <trkpt lat="44.11728" lon="3.1314">
        <ele>807.2</ele>
        <time>2019-04-19T12:17:13Z</time>
      </trkpt>
      <trkpt lat="44.11726" lon="3.13146">
        <ele>807.3</ele>
        <time>2019-04-19T12:17:14Z</time>
      </trkpt>
      <trkpt lat="44.11725" lon="3.1315">
        <ele>807.4</ele>
        <time>2019-04-19T12:17:15Z</time>
      </trkpt>
      <trkpt lat="44.11722" lon="3.13155">
        <ele>807.6</ele>
        <time>2019-04-19T12:17:17Z</time>
      </trkpt>
      <trkpt lat="44.11721" lon="3.13159">
        <ele>807.7</ele>
        <time>2019-04-19T12:17:18Z</time>
      </trkpt>
      <trkpt lat="44.1172" lon="3.13162">
        <ele>807.9</ele>
        <time>2019-04-19T12:17:19Z</time>
      </trkpt>
      <trkpt lat="44.11719" lon="3.13166">
        <ele>808.1</ele>
        <time>2019-04-19T12:17:20Z</time>
      </trkpt>
      <trkpt lat="44.11718" lon="3.13171">
        <ele>808.3</ele>
        <time>2019-04-19T12:17:21Z</time>
      </trkpt>
      <trkpt lat="44.11717" lon="3.13175">
        <ele>808.6</ele>
        <time>2019-04-19T12:17:22Z</time>
      </trkpt>
      <trkpt lat="44.11717" lon="3.13179">
        <ele>808.8</ele>
        <time>2019-04-19T12:17:23Z</time>
      </trkpt>
      <trkpt lat="44.11717" lon="3.13183">
        <ele>809.1</ele>
        <time>2019-04-19T12:17:24Z</time>
      </trkpt>
      <trkpt lat="44.11717" lon="3.13187">
        <ele>809.3</ele>
        <time>2019-04-19T12:17:25Z</time>
      </trkpt>
      <trkpt lat="44.11717" lon="3.13193">
        <ele>809.7</ele>
        <time>2019-04-19T12:17:27Z</time>
      </trkpt>
      <trkpt lat="44.11717" lon="3.13198">
        <ele>810</ele>
        <time>2019-04-19T12:17:29Z</time>
      </trkpt>
      <trkpt lat="44.11718" lon="3.13205">
        <ele>810.4</ele>
        <time>2019-04-19T12:17:31Z</time>
      </trkpt>
      <trkpt lat="44.11718" lon="3.13209">
        <ele>810.7</ele>
        <time>2019-04-19T12:17:32Z</time>
      </trkpt>
      <trkpt lat="44.1172" lon="3.13215">
        <ele>811</ele>
        <time>2019-04-19T12:17:34Z</time>
      </trkpt>
      <trkpt lat="44.11721" lon="3.13219">
        <ele>811.2</ele>
        <time>2019-04-19T12:17:35Z</time>
      </trkpt>
      <trkpt lat="44.11722" lon="3.13224">
        <ele>811.4</ele>
        <time>2019-04-19T12:17:36Z</time>
      </trkpt>
      <trkpt lat="44.11724" lon="3.13228">
        <ele>811.5</ele>
        <time>2019-04-19T12:17:37Z</time>
      </trkpt>
      <trkpt lat="44.11724" lon="3.13232">
        <ele>811.7</ele>
        <time>2019-04-19T12:17:38Z</time>
      </trkpt>
      <trkpt lat="44.11725" lon="3.1324">
        <ele>811.8</ele>
        <time>2019-04-19T12:17:40Z</time>
      </trkpt>
      <trkpt lat="44.11726" lon="3.13244">
        <ele>811.9</ele>
        <time>2019-04-19T12:17:41Z</time>
      </trkpt>
      <trkpt lat="44.11726" lon="3.1325">
        <ele>812</ele>
        <time>2019-04-19T12:17:42Z</time>
      </trkpt>
      <trkpt lat="44.11726" lon="3.13255">
        <ele>812</ele>
        <time>2019-04-19T12:17:43Z</time>
      </trkpt>
      <trkpt lat="44.11726" lon="3.1326">
        <ele>812.1</ele>
        <time>2019-04-19T12:17:44Z</time>
      </trkpt>
      <trkpt lat="44.11727" lon="3.13264">
        <ele>812.2</ele>
        <time>2019-04-19T12:17:45Z</time>
      </trkpt>
      <trkpt lat="44.11727" lon="3.13268">
        <ele>812.2</ele>
        <time>2019-04-19T12:17:46Z</time>
      </trkpt>
      <trkpt lat="44.11727" lon="3.13273">
        <ele>812.4</ele>
        <time>2019-04-19T12:17:48Z</time>
      </trkpt>
      <trkpt lat="44.11727" lon="3.13279">
        <ele>812.5</ele>
        <time>2019-04-19T12:17:50Z</time>
      </trkpt>
      <trkpt lat="44.11728" lon="3.13283">
        <ele>812.7</ele>
        <time>2019-04-19T12:17:51Z</time>
      </trkpt>
      <trkpt lat="44.11729" lon="3.13286">
        <ele>812.8</ele>
        <time>2019-04-19T12:17:52Z</time>
      </trkpt>
      <trkpt lat="44.11731" lon="3.1329">
        <ele>813</ele>
        <time>2019-04-19T12:17:53Z</time>
      </trkpt>
      <trkpt lat="44.11733" lon="3.13292">
        <ele>813.3</ele>
        <time>2019-04-19T12:17:54Z</time>
      </trkpt>
      <trkpt lat="44.11737" lon="3.13297">
        <ele>813.7</ele>
        <time>2019-04-19T12:17:56Z</time>
      </trkpt>
      <trkpt lat="44.11741" lon="3.133">
        <ele>814.3</ele>
        <time>2019-04-19T12:17:58Z</time>
      </trkpt>
      <trkpt lat="44.11745" lon="3.13304">
        <ele>814.9</ele>
        <time>2019-04-19T12:18:00Z</time>
      </trkpt>
      <trkpt lat="44.1175" lon="3.13306">
        <ele>815.4</ele>
        <time>2019-04-19T12:18:02Z</time>
      </trkpt>
      <trkpt lat="44.11753" lon="3.13307">
        <ele>815.8</ele>
        <time>2019-04-19T12:18:04Z</time>
      </trkpt>
      <trkpt lat="44.11756" lon="3.13309">
        <ele>816.2</ele>
        <time>2019-04-19T12:18:06Z</time>
      </trkpt>
      <trkpt lat="44.11759" lon="3.13312">
        <ele>816.7</ele>
        <time>2019-04-19T12:18:09Z</time>
      </trkpt>
      <trkpt lat="44.11762" lon="3.13316">
        <ele>817.1</ele>
        <time>2019-04-19T12:18:13Z</time>
      </trkpt>
      <trkpt lat="44.11766" lon="3.13316">
        <ele>817.5</ele>
        <time>2019-04-19T12:18:16Z</time>
      </trkpt>
      <trkpt lat="44.11769" lon="3.13317">
        <ele>817.7</ele>
        <time>2019-04-19T12:18:18Z</time>
      </trkpt>
      <trkpt lat="44.11774" lon="3.13321">
        <ele>818.1</ele>
        <time>2019-04-19T12:18:20Z</time>
      </trkpt>
      <trkpt lat="44.11778" lon="3.13323">
        <ele>818.4</ele>
        <time>2019-04-19T12:18:22Z</time>
      </trkpt>
      <trkpt lat="44.11781" lon="3.13324">
        <ele>818.6</ele>
        <time>2019-04-19T12:18:23Z</time>
      </trkpt>
      <trkpt lat="44.11784" lon="3.13327">
        <ele>818.8</ele>
        <time>2019-04-19T12:18:24Z</time>
      </trkpt>
      <trkpt lat="44.11786" lon="3.13329">
        <ele>818.9</ele>
        <time>2019-04-19T12:18:25Z</time>
      </trkpt>
      <trkpt lat="44.11788" lon="3.13332">
        <ele>819</ele>
        <time>2019-04-19T12:18:26Z</time>
      </trkpt>
      <trkpt lat="44.1179" lon="3.13334">
        <ele>819.1</ele>
        <time>2019-04-19T12:18:28Z</time>
      </trkpt>
      <trkpt lat="44.11793" lon="3.13333">
        <ele>819.1</ele>
        <time>2019-04-19T12:18:35Z</time>
      </trkpt>
      <trkpt lat="44.118" lon="3.13336">
        <ele>819.2</ele>
        <time>2019-04-19T12:19:18Z</time>
      </trkpt>
      <trkpt lat="44.11803" lon="3.13338">
        <ele>819.2</ele>
        <time>2019-04-19T12:19:20Z</time>
      </trkpt>
      <trkpt lat="44.11807" lon="3.13341">
        <ele>819.2</ele>
        <time>2019-04-19T12:19:22Z</time>
      </trkpt>
      <trkpt lat="44.1181" lon="3.13341">
        <ele>819.3</ele>
        <time>2019-04-19T12:19:23Z</time>
      </trkpt>
      <trkpt lat="44.11814" lon="3.13341">
        <ele>819.5</ele>
        <time>2019-04-19T12:19:24Z</time>
      </trkpt>
      <trkpt lat="44.11817" lon="3.1334">
        <ele>819.6</ele>
        <time>2019-04-19T12:19:25Z</time>
      </trkpt>
      <trkpt lat="44.1182" lon="3.1334">
        <ele>819.8</ele>
        <time>2019-04-19T12:19:26Z</time>
      </trkpt>
      <trkpt lat="44.11824" lon="3.13339">
        <ele>820</ele>
        <time>2019-04-19T12:19:28Z</time>
      </trkpt>
      <trkpt lat="44.11828" lon="3.1334">
        <ele>820.3</ele>
        <time>2019-04-19T12:19:32Z</time>
      </trkpt>
      <trkpt lat="44.11833" lon="3.13342">
        <ele>820.5</ele>
        <time>2019-04-19T12:19:34Z</time>
      </trkpt>
      <trkpt lat="44.11837" lon="3.13344">
        <ele>820.8</ele>
        <time>2019-04-19T12:19:36Z</time>
      </trkpt>
      <trkpt lat="44.1184" lon="3.13346">
        <ele>821</ele>
        <time>2019-04-19T12:19:38Z</time>
      </trkpt>
      <trkpt lat="44.11843" lon="3.13349">
        <ele>821.3</ele>
        <time>2019-04-19T12:19:40Z</time>
      </trkpt>
      <trkpt lat="44.11846" lon="3.13355">
        <ele>821.6</ele>
        <time>2019-04-19T12:19:42Z</time>
      </trkpt>
      <trkpt lat="44.11849" lon="3.13359">
        <ele>821.9</ele>
        <time>2019-04-19T12:19:44Z</time>
      </trkpt>
      <trkpt lat="44.11852" lon="3.13362">
        <ele>822.1</ele>
        <time>2019-04-19T12:19:45Z</time>
      </trkpt>
      <trkpt lat="44.11854" lon="3.13364">
        <ele>822.2</ele>
        <time>2019-04-19T12:19:46Z</time>
      </trkpt>
      <trkpt lat="44.11856" lon="3.13367">
        <ele>822.3</ele>
        <time>2019-04-19T12:19:47Z</time>
      </trkpt>
      <trkpt lat="44.11859" lon="3.13372">
        <ele>822.5</ele>
        <time>2019-04-19T12:19:49Z</time>
      </trkpt>
      <trkpt lat="44.11861" lon="3.13375">
        <ele>822.6</ele>
        <time>2019-04-19T12:19:50Z</time>
      </trkpt>
      <trkpt lat="44.11864" lon="3.13379">
        <ele>822.7</ele>
        <time>2019-04-19T12:19:51Z</time>
      </trkpt>
      <trkpt lat="44.11867" lon="3.13382">
        <ele>822.7</ele>
        <time>2019-04-19T12:19:52Z</time>
      </trkpt>
      <trkpt lat="44.11871" lon="3.13384">
        <ele>822.6</ele>
        <time>2019-04-19T12:19:53Z</time>
      </trkpt>
      <trkpt lat="44.11876" lon="3.13386">
        <ele>822.5</ele>
        <time>2019-04-19T12:19:54Z</time>
      </trkpt>
      <trkpt lat="44.11881" lon="3.13389">
        <ele>822.2</ele>
        <time>2019-04-19T12:19:55Z</time>
      </trkpt>
      <trkpt lat="44.11885" lon="3.13392">
        <ele>821.9</ele>
        <time>2019-04-19T12:19:56Z</time>
      </trkpt>
      <trkpt lat="44.11889" lon="3.13396">
        <ele>821.6</ele>
        <time>2019-04-19T12:19:57Z</time>
      </trkpt>
      <trkpt lat="44.11893" lon="3.13401">
        <ele>821.2</ele>
        <time>2019-04-19T12:19:58Z</time>
      </trkpt>
      <trkpt lat="44.11896" lon="3.13406">
        <ele>820.7</ele>
        <time>2019-04-19T12:19:59Z</time>
      </trkpt>
      <trkpt lat="44.11899" lon="3.13411">
        <ele>820.3</ele>
        <time>2019-04-19T12:20:00Z</time>
      </trkpt>
      <trkpt lat="44.11901" lon="3.13415">
        <ele>819.9</ele>
        <time>2019-04-19T12:20:01Z</time>
      </trkpt>
      <trkpt lat="44.11901" lon="3.13421">
        <ele>819.5</ele>
        <time>2019-04-19T12:20:02Z</time>
      </trkpt>
      <trkpt lat="44.11902" lon="3.13426">
        <ele>819</ele>
        <time>2019-04-19T12:20:03Z</time>
      </trkpt>
      <trkpt lat="44.11903" lon="3.13432">
        <ele>818.5</ele>
        <time>2019-04-19T12:20:04Z</time>
      </trkpt>
      <trkpt lat="44.11905" lon="3.13437">
        <ele>817.8</ele>
        <time>2019-04-19T12:20:05Z</time>
      </trkpt>
      <trkpt lat="44.11907" lon="3.13441">
        <ele>817.2</ele>
        <time>2019-04-19T12:20:06Z</time>
      </trkpt>
      <trkpt lat="44.11909" lon="3.13444">
        <ele>816.7</ele>
        <time>2019-04-19T12:20:07Z</time>
      </trkpt>
      <trkpt lat="44.11912" lon="3.13447">
        <ele>816.2</ele>
        <time>2019-04-19T12:20:08Z</time>
      </trkpt>
      <trkpt lat="44.11915" lon="3.1345">
        <ele>815.6</ele>
        <time>2019-04-19T12:20:09Z</time>
      </trkpt>
      <trkpt lat="44.11918" lon="3.13453">
        <ele>815.1</ele>
        <time>2019-04-19T12:20:10Z</time>
      </trkpt>
      <trkpt lat="44.11921" lon="3.13455">
        <ele>814.7</ele>
        <time>2019-04-19T12:20:11Z</time>
      </trkpt>
      <trkpt lat="44.11926" lon="3.13458">
        <ele>814.1</ele>
        <time>2019-04-19T12:20:13Z</time>
      </trkpt>
      <trkpt lat="44.1193" lon="3.13458">
        <ele>813.6</ele>
        <time>2019-04-19T12:20:14Z</time>
      </trkpt>
      <trkpt lat="44.11934" lon="3.13458">
        <ele>813.2</ele>
        <time>2019-04-19T12:20:15Z</time>
      </trkpt>
      <trkpt lat="44.11939" lon="3.13458">
        <ele>812.8</ele>
        <time>2019-04-19T12:20:16Z</time>
      </trkpt>
      <trkpt lat="44.11943" lon="3.13458">
        <ele>812.6</ele>
        <time>2019-04-19T12:20:17Z</time>
      </trkpt>
      <trkpt lat="44.11946" lon="3.13461">
        <ele>812.4</ele>
        <time>2019-04-19T12:20:18Z</time>
      </trkpt>
      <trkpt lat="44.11948" lon="3.13463">
        <ele>812.2</ele>
        <time>2019-04-19T12:20:19Z</time>
      </trkpt>
      <trkpt lat="44.1195" lon="3.13467">
        <ele>812</ele>
        <time>2019-04-19T12:20:20Z</time>
      </trkpt>
      <trkpt lat="44.11953" lon="3.13473">
        <ele>811.7</ele>
        <time>2019-04-19T12:20:21Z</time>
      </trkpt>
      <trkpt lat="44.1196" lon="3.13484">
        <ele>811</ele>
        <time>2019-04-19T12:20:22Z</time>
      </trkpt>
      <trkpt lat="44.11961" lon="3.1349">
        <ele>810.6</ele>
        <time>2019-04-19T12:20:23Z</time>
      </trkpt>
      <trkpt lat="44.11967" lon="3.13501">
        <ele>809.4</ele>
        <time>2019-04-19T12:20:24Z</time>
      </trkpt>
      <trkpt lat="44.11971" lon="3.13507">
        <ele>808.5</ele>
        <time>2019-04-19T12:20:25Z</time>
      </trkpt>
      <trkpt lat="44.11974" lon="3.13515">
        <ele>807.6</ele>
        <time>2019-04-19T12:20:26Z</time>
      </trkpt>
      <trkpt lat="44.11976" lon="3.1352">
        <ele>806.8</ele>
        <time>2019-04-19T12:20:27Z</time>
      </trkpt>
      <trkpt lat="44.11978" lon="3.13526">
        <ele>805.9</ele>
        <time>2019-04-19T12:20:28Z</time>
      </trkpt>
      <trkpt lat="44.11981" lon="3.13529">
        <ele>805.2</ele>
        <time>2019-04-19T12:20:29Z</time>
      </trkpt>
      <trkpt lat="44.11983" lon="3.13534">
        <ele>804.4</ele>
        <time>2019-04-19T12:20:31Z</time>
      </trkpt>
      <trkpt lat="44.11985" lon="3.13537">
        <ele>803.8</ele>
        <time>2019-04-19T12:20:32Z</time>
      </trkpt>
      <trkpt lat="44.11988" lon="3.13541">
        <ele>803</ele>
        <time>2019-04-19T12:20:33Z</time>
      </trkpt>
      <trkpt lat="44.11992" lon="3.13544">
        <ele>802.4</ele>
        <time>2019-04-19T12:20:34Z</time>
      </trkpt>
      <trkpt lat="44.1199" lon="3.13551">
        <ele>801.7</ele>
        <time>2019-04-19T12:20:36Z</time>
      </trkpt>
      <trkpt lat="44.1199" lon="3.13556">
        <ele>801.1</ele>
        <time>2019-04-19T12:20:37Z</time>
      </trkpt>
      <trkpt lat="44.11989" lon="3.13561">
        <ele>800.5</ele>
        <time>2019-04-19T12:20:38Z</time>
      </trkpt>
      <trkpt lat="44.11992" lon="3.13572">
        <ele>799.3</ele>
        <time>2019-04-19T12:20:39Z</time>
      </trkpt>
      <trkpt lat="44.11992" lon="3.13577">
        <ele>798.8</ele>
        <time>2019-04-19T12:20:40Z</time>
      </trkpt>
      <trkpt lat="44.11989" lon="3.13586">
        <ele>797.6</ele>
        <time>2019-04-19T12:20:41Z</time>
      </trkpt>
      <trkpt lat="44.11987" lon="3.13593">
        <ele>796.7</ele>
        <time>2019-04-19T12:20:42Z</time>
      </trkpt>
      <trkpt lat="44.11986" lon="3.13601">
        <ele>795.7</ele>
        <time>2019-04-19T12:20:43Z</time>
      </trkpt>
      <trkpt lat="44.11985" lon="3.13611">
        <ele>794.5</ele>
        <time>2019-04-19T12:20:45Z</time>
      </trkpt>
      <trkpt lat="44.11986" lon="3.13615">
        <ele>793.9</ele>
        <time>2019-04-19T12:20:46Z</time>
      </trkpt>
      <trkpt lat="44.11987" lon="3.13623">
        <ele>793</ele>
        <time>2019-04-19T12:20:47Z</time>
      </trkpt>
      <trkpt lat="44.11993" lon="3.13632">
        <ele>791.7</ele>
        <time>2019-04-19T12:20:48Z</time>
      </trkpt>
      <trkpt lat="44.11994" lon="3.13638">
        <ele>791.1</ele>
        <time>2019-04-19T12:20:49Z</time>
      </trkpt>
      <trkpt lat="44.11996" lon="3.13646">
        <ele>790.4</ele>
        <time>2019-04-19T12:20:50Z</time>
      </trkpt>
      <trkpt lat="44.11997" lon="3.1365">
        <ele>790</ele>
        <time>2019-04-19T12:20:51Z</time>
      </trkpt>
      <trkpt lat="44.11998" lon="3.13657">
        <ele>789.3</ele>
        <time>2019-04-19T12:20:52Z</time>
      </trkpt>
      <trkpt lat="44.12001" lon="3.13664">
        <ele>788.8</ele>
        <time>2019-04-19T12:20:53Z</time>
      </trkpt>
      <trkpt lat="44.12001" lon="3.1367">
        <ele>788.4</ele>
        <time>2019-04-19T12:20:54Z</time>
      </trkpt>
      <trkpt lat="44.12005" lon="3.13679">
        <ele>787.6</ele>
        <time>2019-04-19T12:20:55Z</time>
      </trkpt>
      <trkpt lat="44.12006" lon="3.13684">
        <ele>787.2</ele>
        <time>2019-04-19T12:20:56Z</time>
      </trkpt>
      <trkpt lat="44.12009" lon="3.13688">
        <ele>786.7</ele>
        <time>2019-04-19T12:20:57Z</time>
      </trkpt>
      <trkpt lat="44.12014" lon="3.13692">
        <ele>786.1</ele>
        <time>2019-04-19T12:20:58Z</time>
      </trkpt>
      <trkpt lat="44.12016" lon="3.13697">
        <ele>785.7</ele>
        <time>2019-04-19T12:20:59Z</time>
      </trkpt>
      <trkpt lat="44.12019" lon="3.13701">
        <ele>785.3</ele>
        <time>2019-04-19T12:21:00Z</time>
      </trkpt>
      <trkpt lat="44.12021" lon="3.13704">
        <ele>785</ele>
        <time>2019-04-19T12:21:01Z</time>
      </trkpt>
      <trkpt lat="44.12023" lon="3.13707">
        <ele>784.8</ele>
        <time>2019-04-19T12:21:02Z</time>
      </trkpt>
      <trkpt lat="44.12025" lon="3.1371">
        <ele>784.5</ele>
        <time>2019-04-19T12:21:03Z</time>
      </trkpt>
      <trkpt lat="44.12027" lon="3.13714">
        <ele>784.3</ele>
        <time>2019-04-19T12:21:14Z</time>
      </trkpt>
      <trkpt lat="44.12029" lon="3.13718">
        <ele>784</ele>
        <time>2019-04-19T12:21:15Z</time>
      </trkpt>
      <trkpt lat="44.12033" lon="3.13729">
        <ele>783.5</ele>
        <time>2019-04-19T12:21:16Z</time>
      </trkpt>
      <trkpt lat="44.12036" lon="3.13736">
        <ele>783.1</ele>
        <time>2019-04-19T12:21:17Z</time>
      </trkpt>
      <trkpt lat="44.1204" lon="3.13744">
        <ele>782.7</ele>
        <time>2019-04-19T12:21:18Z</time>
      </trkpt>
      <trkpt lat="44.12042" lon="3.1375">
        <ele>782.3</ele>
        <time>2019-04-19T12:21:19Z</time>
      </trkpt>
      <trkpt lat="44.12043" lon="3.13755">
        <ele>782</ele>
        <time>2019-04-19T12:21:20Z</time>
      </trkpt>
      <trkpt lat="44.12046" lon="3.13761">
        <ele>781.3</ele>
        <time>2019-04-19T12:21:21Z</time>
      </trkpt>
      <trkpt lat="44.12049" lon="3.13767">
        <ele>780.7</ele>
        <time>2019-04-19T12:21:22Z</time>
      </trkpt>
      <trkpt lat="44.12051" lon="3.13772">
        <ele>780.1</ele>
        <time>2019-04-19T12:21:23Z</time>
      </trkpt>
      <trkpt lat="44.12054" lon="3.13778">
        <ele>779.4</ele>
        <time>2019-04-19T12:21:24Z</time>
      </trkpt>
      <trkpt lat="44.12055" lon="3.13782">
        <ele>779</ele>
        <time>2019-04-19T12:21:25Z</time>
      </trkpt>
      <trkpt lat="44.12051" lon="3.13777">
        <ele>778.3</ele>
        <time>2019-04-19T12:21:54Z</time>
      </trkpt>
      <trkpt lat="44.12055" lon="3.1377">
        <ele>777.6</ele>
        <time>2019-04-19T12:23:06Z</time>
      </trkpt>
      <trkpt lat="44.12055" lon="3.13766">
        <ele>778.4</ele>
        <time>2019-04-19T12:23:09Z</time>
      </trkpt>
      <trkpt lat="44.12059" lon="3.13765">
        <ele>779.3</ele>
        <time>2019-04-19T12:23:12Z</time>
      </trkpt>
      <trkpt lat="44.12062" lon="3.13766">
        <ele>780.2</ele>
        <time>2019-04-19T12:23:14Z</time>
      </trkpt>
      <trkpt lat="44.12065" lon="3.13765">
        <ele>781.8</ele>
        <time>2019-04-19T12:23:17Z</time>
      </trkpt>
      <trkpt lat="44.12069" lon="3.13762">
        <ele>783.1</ele>
        <time>2019-04-19T12:23:20Z</time>
      </trkpt>
      <trkpt lat="44.12072" lon="3.1376">
        <ele>783.8</ele>
        <time>2019-04-19T12:23:23Z</time>
      </trkpt>
      <trkpt lat="44.12071" lon="3.13756">
        <ele>783.9</ele>
        <time>2019-04-19T12:23:33Z</time>
      </trkpt>
      <trkpt lat="44.12073" lon="3.13754">
        <ele>784.6</ele>
        <time>2019-04-19T12:24:15Z</time>
      </trkpt>
      <trkpt lat="44.12077" lon="3.13753">
        <ele>785.9</ele>
        <time>2019-04-19T12:24:17Z</time>
      </trkpt>
      <trkpt lat="44.12081" lon="3.13751">
        <ele>787.1</ele>
        <time>2019-04-19T12:24:19Z</time>
      </trkpt>
      <trkpt lat="44.12084" lon="3.13747">
        <ele>788.4</ele>
        <time>2019-04-19T12:24:23Z</time>
      </trkpt>
      <trkpt lat="44.12086" lon="3.13744">
        <ele>789.2</ele>
        <time>2019-04-19T12:24:26Z</time>
      </trkpt>
      <trkpt lat="44.12089" lon="3.13743">
        <ele>789.8</ele>
        <time>2019-04-19T12:24:28Z</time>
      </trkpt>
      <trkpt lat="44.12093" lon="3.13742">
        <ele>790.4</ele>
        <time>2019-04-19T12:24:30Z</time>
      </trkpt>
      <trkpt lat="44.12096" lon="3.13743">
        <ele>790.9</ele>
        <time>2019-04-19T12:24:32Z</time>
      </trkpt>
      <trkpt lat="44.12099" lon="3.13744">
        <ele>791.3</ele>
        <time>2019-04-19T12:24:34Z</time>
      </trkpt>
      <trkpt lat="44.12102" lon="3.13742">
        <ele>791.9</ele>
        <time>2019-04-19T12:24:37Z</time>
      </trkpt>
      <trkpt lat="44.12105" lon="3.13741">
        <ele>792.7</ele>
        <time>2019-04-19T12:24:40Z</time>
      </trkpt>
      <trkpt lat="44.12106" lon="3.13737">
        <ele>793.1</ele>
        <time>2019-04-19T12:24:43Z</time>
      </trkpt>
      <trkpt lat="44.12106" lon="3.13732">
        <ele>794.5</ele>
        <time>2019-04-19T12:24:45Z</time>
      </trkpt>
      <trkpt lat="44.12108" lon="3.13728">
        <ele>795.5</ele>
        <time>2019-04-19T12:24:48Z</time>
      </trkpt>
      <trkpt lat="44.12112" lon="3.13727">
        <ele>795.8</ele>
        <time>2019-04-19T12:24:51Z</time>
      </trkpt>
      <trkpt lat="44.12115" lon="3.13727">
        <ele>796.1</ele>
        <time>2019-04-19T12:24:53Z</time>
      </trkpt>
      <trkpt lat="44.12118" lon="3.13725">
        <ele>796.3</ele>
        <time>2019-04-19T12:24:56Z</time>
      </trkpt>
      <trkpt lat="44.12121" lon="3.13723">
        <ele>797</ele>
        <time>2019-04-19T12:24:58Z</time>
      </trkpt>
      <trkpt lat="44.12124" lon="3.13721">
        <ele>797.2</ele>
        <time>2019-04-19T12:25:01Z</time>
      </trkpt>
      <trkpt lat="44.12127" lon="3.13722">
        <ele>797.4</ele>
        <time>2019-04-19T12:25:04Z</time>
      </trkpt>
      <trkpt lat="44.12131" lon="3.13723">
        <ele>797.6</ele>
        <time>2019-04-19T12:25:07Z</time>
      </trkpt>
      <trkpt lat="44.12134" lon="3.13724">
        <ele>797.7</ele>
        <time>2019-04-19T12:25:09Z</time>
      </trkpt>
      <trkpt lat="44.12137" lon="3.13722">
        <ele>797.9</ele>
        <time>2019-04-19T12:25:11Z</time>
      </trkpt>
      <trkpt lat="44.12141" lon="3.13719">
        <ele>798.5</ele>
        <time>2019-04-19T12:25:13Z</time>
      </trkpt>
      <trkpt lat="44.12144" lon="3.13719">
        <ele>798.6</ele>
        <time>2019-04-19T12:25:15Z</time>
      </trkpt>
      <trkpt lat="44.12147" lon="3.13722">
        <ele>798.2</ele>
        <time>2019-04-19T12:25:17Z</time>
      </trkpt>
      <trkpt lat="44.12149" lon="3.13727">
        <ele>797.8</ele>
        <time>2019-04-19T12:25:19Z</time>
      </trkpt>
      <trkpt lat="44.12153" lon="3.13729">
        <ele>797.4</ele>
        <time>2019-04-19T12:25:22Z</time>
      </trkpt>
      <trkpt lat="44.12157" lon="3.13727">
        <ele>797.9</ele>
        <time>2019-04-19T12:25:24Z</time>
      </trkpt>
      <trkpt lat="44.1216" lon="3.13725">
        <ele>798</ele>
        <time>2019-04-19T12:25:26Z</time>
      </trkpt>
      <trkpt lat="44.12163" lon="3.13721">
        <ele>798.6</ele>
        <time>2019-04-19T12:25:28Z</time>
      </trkpt>
      <trkpt lat="44.12164" lon="3.13718">
        <ele>799.2</ele>
        <time>2019-04-19T12:25:31Z</time>
      </trkpt>
      <trkpt lat="44.12165" lon="3.13713">
        <ele>799.7</ele>
        <time>2019-04-19T12:25:34Z</time>
      </trkpt>
      <trkpt lat="44.12167" lon="3.1371">
        <ele>800.3</ele>
        <time>2019-04-19T12:25:37Z</time>
      </trkpt>
      <trkpt lat="44.1217" lon="3.13708">
        <ele>800.3</ele>
        <time>2019-04-19T12:25:40Z</time>
      </trkpt>
      <trkpt lat="44.12174" lon="3.13707">
        <ele>800.4</ele>
        <time>2019-04-19T12:25:42Z</time>
      </trkpt>
      <trkpt lat="44.12177" lon="3.13706">
        <ele>800.9</ele>
        <time>2019-04-19T12:25:44Z</time>
      </trkpt>
      <trkpt lat="44.1218" lon="3.13704">
        <ele>800.9</ele>
        <time>2019-04-19T12:25:46Z</time>
      </trkpt>
      <trkpt lat="44.12183" lon="3.13701">
        <ele>801.3</ele>
        <time>2019-04-19T12:25:48Z</time>
      </trkpt>
      <trkpt lat="44.12186" lon="3.13699">
        <ele>801.3</ele>
        <time>2019-04-19T12:25:50Z</time>
      </trkpt>
      <trkpt lat="44.12189" lon="3.13695">
        <ele>801.8</ele>
        <time>2019-04-19T12:25:52Z</time>
      </trkpt>
      <trkpt lat="44.12192" lon="3.13693">
        <ele>802.2</ele>
        <time>2019-04-19T12:25:54Z</time>
      </trkpt>
      <trkpt lat="44.12196" lon="3.13694">
        <ele>802.2</ele>
        <time>2019-04-19T12:25:56Z</time>
      </trkpt>
      <trkpt lat="44.122" lon="3.13694">
        <ele>802.1</ele>
        <time>2019-04-19T12:25:58Z</time>
      </trkpt>
      <trkpt lat="44.12202" lon="3.13691">
        <ele>802.1</ele>
        <time>2019-04-19T12:26:00Z</time>
      </trkpt>
      <trkpt lat="44.12204" lon="3.13688">
        <ele>802.7</ele>
        <time>2019-04-19T12:26:02Z</time>
      </trkpt>
      <trkpt lat="44.12206" lon="3.13685">
        <ele>803.2</ele>
        <time>2019-04-19T12:26:05Z</time>
      </trkpt>
      <trkpt lat="44.12209" lon="3.13681">
        <ele>803.6</ele>
        <time>2019-04-19T12:26:07Z</time>
      </trkpt>
      <trkpt lat="44.1221" lon="3.13676">
        <ele>804.1</ele>
        <time>2019-04-19T12:26:09Z</time>
      </trkpt>
      <trkpt lat="44.1221" lon="3.13672">
        <ele>804.6</ele>
        <time>2019-04-19T12:26:12Z</time>
      </trkpt>
      <trkpt lat="44.12212" lon="3.13668">
        <ele>805.1</ele>
        <time>2019-04-19T12:26:14Z</time>
      </trkpt>
      <trkpt lat="44.12214" lon="3.13663">
        <ele>805.5</ele>
        <time>2019-04-19T12:26:16Z</time>
      </trkpt>
      <trkpt lat="44.12215" lon="3.13658">
        <ele>806</ele>
        <time>2019-04-19T12:26:18Z</time>
      </trkpt>
      <trkpt lat="44.12216" lon="3.13654">
        <ele>806.4</ele>
        <time>2019-04-19T12:26:20Z</time>
      </trkpt>
      <trkpt lat="44.12217" lon="3.13649">
        <ele>806.9</ele>
        <time>2019-04-19T12:26:22Z</time>
      </trkpt>
      <trkpt lat="44.1222" lon="3.13646">
        <ele>807.3</ele>
        <time>2019-04-19T12:26:25Z</time>
      </trkpt>
      <trkpt lat="44.12222" lon="3.13644">
        <ele>807.4</ele>
        <time>2019-04-19T12:26:27Z</time>
      </trkpt>
      <trkpt lat="44.12224" lon="3.1364">
        <ele>807.8</ele>
        <time>2019-04-19T12:26:29Z</time>
      </trkpt>
      <trkpt lat="44.12226" lon="3.13636">
        <ele>808.1</ele>
        <time>2019-04-19T12:26:31Z</time>
      </trkpt>
      <trkpt lat="44.12229" lon="3.13633">
        <ele>808.5</ele>
        <time>2019-04-19T12:26:34Z</time>
      </trkpt>
      <trkpt lat="44.12232" lon="3.1363">
        <ele>808.4</ele>
        <time>2019-04-19T12:26:37Z</time>
      </trkpt>
      <trkpt lat="44.12235" lon="3.13626">
        <ele>808.8</ele>
        <time>2019-04-19T12:26:39Z</time>
      </trkpt>
      <trkpt lat="44.12237" lon="3.1362">
        <ele>809.8</ele>
        <time>2019-04-19T12:26:41Z</time>
      </trkpt>
      <trkpt lat="44.1224" lon="3.13615">
        <ele>810.2</ele>
        <time>2019-04-19T12:26:43Z</time>
      </trkpt>
      <trkpt lat="44.12243" lon="3.1361">
        <ele>810.6</ele>
        <time>2019-04-19T12:26:45Z</time>
      </trkpt>
      <trkpt lat="44.12246" lon="3.13605">
        <ele>811</ele>
        <time>2019-04-19T12:26:47Z</time>
      </trkpt>
      <trkpt lat="44.12248" lon="3.13602">
        <ele>811.4</ele>
        <time>2019-04-19T12:26:48Z</time>
      </trkpt>
      <trkpt lat="44.12251" lon="3.13597">
        <ele>811.7</ele>
        <time>2019-04-19T12:26:50Z</time>
      </trkpt>
      <trkpt lat="44.12253" lon="3.13592">
        <ele>812.2</ele>
        <time>2019-04-19T12:26:52Z</time>
      </trkpt>
      <trkpt lat="44.12255" lon="3.13585">
        <ele>812.7</ele>
        <time>2019-04-19T12:26:54Z</time>
      </trkpt>
      <trkpt lat="44.12256" lon="3.13582">
        <ele>813.2</ele>
        <time>2019-04-19T12:26:55Z</time>
      </trkpt>
      <trkpt lat="44.12258" lon="3.13576">
        <ele>813.4</ele>
        <time>2019-04-19T12:26:57Z</time>
      </trkpt>
      <trkpt lat="44.1226" lon="3.13572">
        <ele>813.6</ele>
        <time>2019-04-19T12:26:59Z</time>
      </trkpt>
      <trkpt lat="44.12262" lon="3.1357">
        <ele>814</ele>
        <time>2019-04-19T12:27:01Z</time>
      </trkpt>
      <trkpt lat="44.12265" lon="3.13566">
        <ele>813.9</ele>
        <time>2019-04-19T12:27:03Z</time>
      </trkpt>
      <trkpt lat="44.12267" lon="3.13563">
        <ele>814.1</ele>
        <time>2019-04-19T12:27:05Z</time>
      </trkpt>
      <trkpt lat="44.12271" lon="3.1356">
        <ele>814.3</ele>
        <time>2019-04-19T12:27:08Z</time>
      </trkpt>
      <trkpt lat="44.12274" lon="3.1356">
        <ele>814.1</ele>
        <time>2019-04-19T12:27:09Z</time>
      </trkpt>
      <trkpt lat="44.12277" lon="3.13558">
        <ele>813.9</ele>
        <time>2019-04-19T12:27:11Z</time>
      </trkpt>
      <trkpt lat="44.12279" lon="3.13554">
        <ele>814</ele>
        <time>2019-04-19T12:27:13Z</time>
      </trkpt>
      <trkpt lat="44.1228" lon="3.1355">
        <ele>814.4</ele>
        <time>2019-04-19T12:27:15Z</time>
      </trkpt>
      <trkpt lat="44.12281" lon="3.13544">
        <ele>814.8</ele>
        <time>2019-04-19T12:27:17Z</time>
      </trkpt>
      <trkpt lat="44.12281" lon="3.1354">
        <ele>814.8</ele>
        <time>2019-04-19T12:27:18Z</time>
      </trkpt>
      <trkpt lat="44.12282" lon="3.13535">
        <ele>815.2</ele>
        <time>2019-04-19T12:27:19Z</time>
      </trkpt>
      <trkpt lat="44.12283" lon="3.13531">
        <ele>815.9</ele>
        <time>2019-04-19T12:27:20Z</time>
      </trkpt>
      <trkpt lat="44.12284" lon="3.13526">
        <ele>816.3</ele>
        <time>2019-04-19T12:27:21Z</time>
      </trkpt>
      <trkpt lat="44.12285" lon="3.13523">
        <ele>816</ele>
        <time>2019-04-19T12:27:22Z</time>
      </trkpt>
      <trkpt lat="44.12287" lon="3.13517">
        <ele>816.8</ele>
        <time>2019-04-19T12:27:24Z</time>
      </trkpt>
      <trkpt lat="44.12288" lon="3.13513">
        <ele>816.9</ele>
        <time>2019-04-19T12:27:25Z</time>
      </trkpt>
      <trkpt lat="44.12288" lon="3.13509">
        <ele>817.3</ele>
        <time>2019-04-19T12:27:26Z</time>
      </trkpt>
      <trkpt lat="44.12288" lon="3.13505">
        <ele>817.7</ele>
        <time>2019-04-19T12:27:27Z</time>
      </trkpt>
      <trkpt lat="44.12288" lon="3.135">
        <ele>818</ele>
        <time>2019-04-19T12:27:28Z</time>
      </trkpt>
      <trkpt lat="44.12288" lon="3.13496">
        <ele>818.3</ele>
        <time>2019-04-19T12:27:29Z</time>
      </trkpt>
      <trkpt lat="44.12287" lon="3.13491">
        <ele>818.6</ele>
        <time>2019-04-19T12:27:30Z</time>
      </trkpt>
      <trkpt lat="44.12286" lon="3.13487">
        <ele>818.6</ele>
        <time>2019-04-19T12:27:31Z</time>
      </trkpt>
      <trkpt lat="44.12285" lon="3.13483">
        <ele>818.6</ele>
        <time>2019-04-19T12:27:32Z</time>
      </trkpt>
      <trkpt lat="44.12283" lon="3.13477">
        <ele>818.9</ele>
        <time>2019-04-19T12:27:34Z</time>
      </trkpt>
      <trkpt lat="44.1228" lon="3.13471">
        <ele>819.4</ele>
        <time>2019-04-19T12:27:36Z</time>
      </trkpt>
      <trkpt lat="44.12278" lon="3.13468">
        <ele>819.6</ele>
        <time>2019-04-19T12:27:37Z</time>
      </trkpt>
      <trkpt lat="44.12274" lon="3.13463">
        <ele>819.9</ele>
        <time>2019-04-19T12:27:39Z</time>
      </trkpt>
      <trkpt lat="44.12273" lon="3.13459">
        <ele>820</ele>
        <time>2019-04-19T12:27:40Z</time>
      </trkpt>
      <trkpt lat="44.12271" lon="3.13456">
        <ele>820.2</ele>
        <time>2019-04-19T12:27:41Z</time>
      </trkpt>
      <trkpt lat="44.12269" lon="3.13452">
        <ele>820.3</ele>
        <time>2019-04-19T12:27:42Z</time>
      </trkpt>
      <trkpt lat="44.12268" lon="3.13449">
        <ele>820.4</ele>
        <time>2019-04-19T12:27:43Z</time>
      </trkpt>
      <trkpt lat="44.12264" lon="3.13446">
        <ele>820.6</ele>
        <time>2019-04-19T12:27:44Z</time>
      </trkpt>
      <trkpt lat="44.12262" lon="3.13444">
        <ele>820.7</ele>
        <time>2019-04-19T12:27:45Z</time>
      </trkpt>
      <trkpt lat="44.12258" lon="3.13442">
        <ele>820.7</ele>
        <time>2019-04-19T12:27:46Z</time>
      </trkpt>
      <trkpt lat="44.12254" lon="3.1344">
        <ele>820.8</ele>
        <time>2019-04-19T12:27:47Z</time>
      </trkpt>
      <trkpt lat="44.1225" lon="3.13436">
        <ele>820.8</ele>
        <time>2019-04-19T12:27:48Z</time>
      </trkpt>
      <trkpt lat="44.12247" lon="3.13433">
        <ele>820.8</ele>
        <time>2019-04-19T12:27:49Z</time>
      </trkpt>
      <trkpt lat="44.12245" lon="3.13429">
        <ele>820.9</ele>
        <time>2019-04-19T12:27:50Z</time>
      </trkpt>
      <trkpt lat="44.12243" lon="3.13424">
        <ele>820.9</ele>
        <time>2019-04-19T12:27:51Z</time>
      </trkpt>
      <trkpt lat="44.12241" lon="3.13419">
        <ele>821</ele>
        <time>2019-04-19T12:27:52Z</time>
      </trkpt>
      <trkpt lat="44.12239" lon="3.13413">
        <ele>821</ele>
        <time>2019-04-19T12:27:53Z</time>
      </trkpt>
      <trkpt lat="44.12236" lon="3.13408">
        <ele>821</ele>
        <time>2019-04-19T12:27:54Z</time>
      </trkpt>
      <trkpt lat="44.12233" lon="3.13403">
        <ele>820.9</ele>
        <time>2019-04-19T12:27:55Z</time>
      </trkpt>
      <trkpt lat="44.12231" lon="3.13398">
        <ele>820.9</ele>
        <time>2019-04-19T12:27:56Z</time>
      </trkpt>
      <trkpt lat="44.12228" lon="3.13392">
        <ele>820.8</ele>
        <time>2019-04-19T12:27:57Z</time>
      </trkpt>
      <trkpt lat="44.12227" lon="3.13386">
        <ele>820.8</ele>
        <time>2019-04-19T12:27:58Z</time>
      </trkpt>
      <trkpt lat="44.12225" lon="3.1338">
        <ele>820.7</ele>
        <time>2019-04-19T12:27:59Z</time>
      </trkpt>
      <trkpt lat="44.12224" lon="3.13374">
        <ele>820.7</ele>
        <time>2019-04-19T12:28:00Z</time>
      </trkpt>
      <trkpt lat="44.12223" lon="3.13369">
        <ele>820.7</ele>
        <time>2019-04-19T12:28:01Z</time>
      </trkpt>
      <trkpt lat="44.12222" lon="3.13363">
        <ele>820.9</ele>
        <time>2019-04-19T12:28:02Z</time>
      </trkpt>
      <trkpt lat="44.12221" lon="3.13357">
        <ele>821</ele>
        <time>2019-04-19T12:28:03Z</time>
      </trkpt>
      <trkpt lat="44.1222" lon="3.13351">
        <ele>821.2</ele>
        <time>2019-04-19T12:28:04Z</time>
      </trkpt>
      <trkpt lat="44.12217" lon="3.13345">
        <ele>821.6</ele>
        <time>2019-04-19T12:28:05Z</time>
      </trkpt>
      <trkpt lat="44.12216" lon="3.13339">
        <ele>821.9</ele>
        <time>2019-04-19T12:28:06Z</time>
      </trkpt>
      <trkpt lat="44.12214" lon="3.13334">
        <ele>822.2</ele>
        <time>2019-04-19T12:28:07Z</time>
      </trkpt>
      <trkpt lat="44.12211" lon="3.13329">
        <ele>822.4</ele>
        <time>2019-04-19T12:28:08Z</time>
      </trkpt>
      <trkpt lat="44.1221" lon="3.13325">
        <ele>822.6</ele>
        <time>2019-04-19T12:28:09Z</time>
      </trkpt>
      <trkpt lat="44.12208" lon="3.13319">
        <ele>823.1</ele>
        <time>2019-04-19T12:28:10Z</time>
      </trkpt>
      <trkpt lat="44.12206" lon="3.13312">
        <ele>823.4</ele>
        <time>2019-04-19T12:28:12Z</time>
      </trkpt>
      <trkpt lat="44.12207" lon="3.13306">
        <ele>823.7</ele>
        <time>2019-04-19T12:28:14Z</time>
      </trkpt>
      <trkpt lat="44.12206" lon="3.13299">
        <ele>824</ele>
        <time>2019-04-19T12:28:16Z</time>
      </trkpt>
      <trkpt lat="44.12206" lon="3.13292">
        <ele>824.2</ele>
        <time>2019-04-19T12:28:18Z</time>
      </trkpt>
      <trkpt lat="44.12206" lon="3.13285">
        <ele>824.4</ele>
        <time>2019-04-19T12:28:20Z</time>
      </trkpt>
      <trkpt lat="44.12208" lon="3.13278">
        <ele>824.6</ele>
        <time>2019-04-19T12:28:22Z</time>
      </trkpt>
      <trkpt lat="44.1221" lon="3.13274">
        <ele>824.7</ele>
        <time>2019-04-19T12:28:23Z</time>
      </trkpt>
      <trkpt lat="44.12211" lon="3.1327">
        <ele>824.9</ele>
        <time>2019-04-19T12:28:24Z</time>
      </trkpt>
      <trkpt lat="44.12212" lon="3.13263">
        <ele>825.2</ele>
        <time>2019-04-19T12:28:26Z</time>
      </trkpt>
      <trkpt lat="44.12215" lon="3.13257">
        <ele>825.4</ele>
        <time>2019-04-19T12:28:28Z</time>
      </trkpt>
      <trkpt lat="44.12218" lon="3.13252">
        <ele>825.7</ele>
        <time>2019-04-19T12:28:30Z</time>
      </trkpt>
      <trkpt lat="44.12222" lon="3.13247">
        <ele>826</ele>
        <time>2019-04-19T12:28:32Z</time>
      </trkpt>
      <trkpt lat="44.12225" lon="3.13242">
        <ele>826.3</ele>
        <time>2019-04-19T12:28:34Z</time>
      </trkpt>
      <trkpt lat="44.12226" lon="3.13239">
        <ele>826.5</ele>
        <time>2019-04-19T12:28:35Z</time>
      </trkpt>
      <trkpt lat="44.12228" lon="3.13236">
        <ele>826.7</ele>
        <time>2019-04-19T12:28:36Z</time>
      </trkpt>
      <trkpt lat="44.12231" lon="3.13231">
        <ele>826.9</ele>
        <time>2019-04-19T12:28:38Z</time>
      </trkpt>
      <trkpt lat="44.12235" lon="3.13228">
        <ele>827</ele>
        <time>2019-04-19T12:28:40Z</time>
      </trkpt>
      <trkpt lat="44.12239" lon="3.13226">
        <ele>827.2</ele>
        <time>2019-04-19T12:28:42Z</time>
      </trkpt>
      <trkpt lat="44.12241" lon="3.13223">
        <ele>827.3</ele>
        <time>2019-04-19T12:28:43Z</time>
      </trkpt>
      <trkpt lat="44.12245" lon="3.13218">
        <ele>827.5</ele>
        <time>2019-04-19T12:28:45Z</time>
      </trkpt>
      <trkpt lat="44.12248" lon="3.13214">
        <ele>827.5</ele>
        <time>2019-04-19T12:28:46Z</time>
      </trkpt>
      <trkpt lat="44.12251" lon="3.13212">
        <ele>827.5</ele>
        <time>2019-04-19T12:28:47Z</time>
      </trkpt>
      <trkpt lat="44.12254" lon="3.1321">
        <ele>827.5</ele>
        <time>2019-04-19T12:28:49Z</time>
      </trkpt>
      <trkpt lat="44.12258" lon="3.13208">
        <ele>827.6</ele>
        <time>2019-04-19T12:28:51Z</time>
      </trkpt>
      <trkpt lat="44.12262" lon="3.13203">
        <ele>827.6</ele>
        <time>2019-04-19T12:28:53Z</time>
      </trkpt>
      <trkpt lat="44.12264" lon="3.132">
        <ele>827.7</ele>
        <time>2019-04-19T12:28:54Z</time>
      </trkpt>
      <trkpt lat="44.12267" lon="3.13195">
        <ele>828</ele>
        <time>2019-04-19T12:28:56Z</time>
      </trkpt>
      <trkpt lat="44.12268" lon="3.13189">
        <ele>828.3</ele>
        <time>2019-04-19T12:28:58Z</time>
      </trkpt>
      <trkpt lat="44.12269" lon="3.13184">
        <ele>828.6</ele>
        <time>2019-04-19T12:29:00Z</time>
      </trkpt>
      <trkpt lat="44.12269" lon="3.13179">
        <ele>829</ele>
        <time>2019-04-19T12:29:02Z</time>
      </trkpt>
      <trkpt lat="44.1227" lon="3.13173">
        <ele>829.2</ele>
        <time>2019-04-19T12:29:04Z</time>
      </trkpt>
      <trkpt lat="44.12271" lon="3.13166">
        <ele>829.5</ele>
        <time>2019-04-19T12:29:06Z</time>
      </trkpt>
      <trkpt lat="44.12273" lon="3.1316">
        <ele>830</ele>
        <time>2019-04-19T12:29:08Z</time>
      </trkpt>
      <trkpt lat="44.12275" lon="3.13155">
        <ele>830.4</ele>
        <time>2019-04-19T12:29:10Z</time>
      </trkpt>
      <trkpt lat="44.12276" lon="3.13149">
        <ele>830.9</ele>
        <time>2019-04-19T12:29:12Z</time>
      </trkpt>
      <trkpt lat="44.12276" lon="3.13143">
        <ele>831.4</ele>
        <time>2019-04-19T12:29:14Z</time>
      </trkpt>
      <trkpt lat="44.12278" lon="3.1314">
        <ele>831.6</ele>
        <time>2019-04-19T12:29:15Z</time>
      </trkpt>
      <trkpt lat="44.1228" lon="3.13135">
        <ele>831.8</ele>
        <time>2019-04-19T12:29:17Z</time>
      </trkpt>
      <trkpt lat="44.12282" lon="3.13131">
        <ele>832.1</ele>
        <time>2019-04-19T12:29:18Z</time>
      </trkpt>
      <trkpt lat="44.12283" lon="3.13127">
        <ele>832.4</ele>
        <time>2019-04-19T12:29:19Z</time>
      </trkpt>
      <trkpt lat="44.12284" lon="3.13124">
        <ele>832.7</ele>
        <time>2019-04-19T12:29:20Z</time>
      </trkpt>
      <trkpt lat="44.12285" lon="3.1312">
        <ele>832.9</ele>
        <time>2019-04-19T12:29:21Z</time>
      </trkpt>
      <trkpt lat="44.12287" lon="3.13117">
        <ele>833.2</ele>
        <time>2019-04-19T12:29:22Z</time>
      </trkpt>
      <trkpt lat="44.12289" lon="3.13114">
        <ele>833.5</ele>
        <time>2019-04-19T12:29:23Z</time>
      </trkpt>
      <trkpt lat="44.12292" lon="3.13108">
        <ele>833.9</ele>
        <time>2019-04-19T12:29:25Z</time>
      </trkpt>
      <trkpt lat="44.12294" lon="3.131">
        <ele>834.4</ele>
        <time>2019-04-19T12:29:27Z</time>
      </trkpt>
      <trkpt lat="44.12295" lon="3.13096">
        <ele>834.8</ele>
        <time>2019-04-19T12:29:28Z</time>
      </trkpt>
      <trkpt lat="44.12295" lon="3.13091">
        <ele>835.1</ele>
        <time>2019-04-19T12:29:29Z</time>
      </trkpt>
      <trkpt lat="44.12294" lon="3.13087">
        <ele>835.5</ele>
        <time>2019-04-19T12:29:30Z</time>
      </trkpt>
      <trkpt lat="44.12294" lon="3.13083">
        <ele>835.7</ele>
        <time>2019-04-19T12:29:31Z</time>
      </trkpt>
      <trkpt lat="44.12294" lon="3.13078">
        <ele>836</ele>
        <time>2019-04-19T12:29:32Z</time>
      </trkpt>
      <trkpt lat="44.12294" lon="3.13074">
        <ele>836.2</ele>
        <time>2019-04-19T12:29:33Z</time>
      </trkpt>
      <trkpt lat="44.12293" lon="3.13069">
        <ele>836.5</ele>
        <time>2019-04-19T12:29:35Z</time>
      </trkpt>
      <trkpt lat="44.1229" lon="3.13061">
        <ele>837</ele>
        <time>2019-04-19T12:29:37Z</time>
      </trkpt>
      <trkpt lat="44.12289" lon="3.13057">
        <ele>837.3</ele>
        <time>2019-04-19T12:29:38Z</time>
      </trkpt>
      <trkpt lat="44.12288" lon="3.13052">
        <ele>837.5</ele>
        <time>2019-04-19T12:29:39Z</time>
      </trkpt>
      <trkpt lat="44.12286" lon="3.13048">
        <ele>837.9</ele>
        <time>2019-04-19T12:29:40Z</time>
      </trkpt>
      <trkpt lat="44.12284" lon="3.13044">
        <ele>838.1</ele>
        <time>2019-04-19T12:29:41Z</time>
      </trkpt>
      <trkpt lat="44.12282" lon="3.13041">
        <ele>838.3</ele>
        <time>2019-04-19T12:29:42Z</time>
      </trkpt>
      <trkpt lat="44.12279" lon="3.13035">
        <ele>838.7</ele>
        <time>2019-04-19T12:29:44Z</time>
      </trkpt>
      <trkpt lat="44.12277" lon="3.13028">
        <ele>839</ele>
        <time>2019-04-19T12:29:46Z</time>
      </trkpt>
      <trkpt lat="44.12275" lon="3.13021">
        <ele>839.4</ele>
        <time>2019-04-19T12:29:48Z</time>
      </trkpt>
      <trkpt lat="44.12274" lon="3.13018">
        <ele>839.6</ele>
        <time>2019-04-19T12:29:49Z</time>
      </trkpt>
      <trkpt lat="44.12274" lon="3.13014">
        <ele>839.7</ele>
        <time>2019-04-19T12:29:50Z</time>
      </trkpt>
      <trkpt lat="44.12273" lon="3.1301">
        <ele>839.8</ele>
        <time>2019-04-19T12:29:51Z</time>
      </trkpt>
      <trkpt lat="44.12272" lon="3.13006">
        <ele>840</ele>
        <time>2019-04-19T12:29:52Z</time>
      </trkpt>
      <trkpt lat="44.12272" lon="3.12999">
        <ele>840.2</ele>
        <time>2019-04-19T12:29:54Z</time>
      </trkpt>
      <trkpt lat="44.12271" lon="3.12994">
        <ele>840.4</ele>
        <time>2019-04-19T12:29:56Z</time>
      </trkpt>
      <trkpt lat="44.12269" lon="3.12989">
        <ele>840.5</ele>
        <time>2019-04-19T12:29:58Z</time>
      </trkpt>
      <trkpt lat="44.12267" lon="3.12981">
        <ele>840.6</ele>
        <time>2019-04-19T12:30:00Z</time>
      </trkpt>
      <trkpt lat="44.12267" lon="3.12975">
        <ele>840.7</ele>
        <time>2019-04-19T12:30:02Z</time>
      </trkpt>
      <trkpt lat="44.12267" lon="3.1297">
        <ele>840.8</ele>
        <time>2019-04-19T12:30:04Z</time>
      </trkpt>
      <trkpt lat="44.12267" lon="3.12964">
        <ele>841</ele>
        <time>2019-04-19T12:30:06Z</time>
      </trkpt>
      <trkpt lat="44.12266" lon="3.12958">
        <ele>841.2</ele>
        <time>2019-04-19T12:30:08Z</time>
      </trkpt>
      <trkpt lat="44.12265" lon="3.12952">
        <ele>841.6</ele>
        <time>2019-04-19T12:30:10Z</time>
      </trkpt>
      <trkpt lat="44.12265" lon="3.12944">
        <ele>841.9</ele>
        <time>2019-04-19T12:30:12Z</time>
      </trkpt>
      <trkpt lat="44.12265" lon="3.1294">
        <ele>842.1</ele>
        <time>2019-04-19T12:30:13Z</time>
      </trkpt>
      <trkpt lat="44.12266" lon="3.12936">
        <ele>842.2</ele>
        <time>2019-04-19T12:30:14Z</time>
      </trkpt>
      <trkpt lat="44.12267" lon="3.12933">
        <ele>842.4</ele>
        <time>2019-04-19T12:30:15Z</time>
      </trkpt>
      <trkpt lat="44.12268" lon="3.12926">
        <ele>842.6</ele>
        <time>2019-04-19T12:30:17Z</time>
      </trkpt>
      <trkpt lat="44.12268" lon="3.12922">
        <ele>842.7</ele>
        <time>2019-04-19T12:30:18Z</time>
      </trkpt>
      <trkpt lat="44.12267" lon="3.12918">
        <ele>842.8</ele>
        <time>2019-04-19T12:30:19Z</time>
      </trkpt>
      <trkpt lat="44.12266" lon="3.12911">
        <ele>842.9</ele>
        <time>2019-04-19T12:30:21Z</time>
      </trkpt>
      <trkpt lat="44.12266" lon="3.12904">
        <ele>843</ele>
        <time>2019-04-19T12:30:23Z</time>
      </trkpt>
      <trkpt lat="44.12267" lon="3.12898">
        <ele>843.1</ele>
        <time>2019-04-19T12:30:25Z</time>
      </trkpt>
      <trkpt lat="44.12268" lon="3.12892">
        <ele>843.2</ele>
        <time>2019-04-19T12:30:27Z</time>
      </trkpt>
      <trkpt lat="44.12269" lon="3.12885">
        <ele>843.4</ele>
        <time>2019-04-19T12:30:29Z</time>
      </trkpt>
      <trkpt lat="44.1227" lon="3.12881">
        <ele>843.5</ele>
        <time>2019-04-19T12:30:30Z</time>
      </trkpt>
      <trkpt lat="44.1227" lon="3.12877">
        <ele>843.6</ele>
        <time>2019-04-19T12:30:31Z</time>
      </trkpt>
      <trkpt lat="44.1227" lon="3.12872">
        <ele>843.7</ele>
        <time>2019-04-19T12:30:32Z</time>
      </trkpt>
      <trkpt lat="44.1227" lon="3.12868">
        <ele>843.9</ele>
        <time>2019-04-19T12:30:33Z</time>
      </trkpt>
      <trkpt lat="44.12269" lon="3.12864">
        <ele>844.1</ele>
        <time>2019-04-19T12:30:34Z</time>
      </trkpt>
      <trkpt lat="44.12268" lon="3.1286">
        <ele>844.3</ele>
        <time>2019-04-19T12:30:35Z</time>
      </trkpt>
      <trkpt lat="44.12268" lon="3.12857">
        <ele>844.5</ele>
        <time>2019-04-19T12:30:36Z</time>
      </trkpt>
      <trkpt lat="44.12267" lon="3.12851">
        <ele>845</ele>
        <time>2019-04-19T12:30:38Z</time>
      </trkpt>
      <trkpt lat="44.12267" lon="3.12843">
        <ele>845.3</ele>
        <time>2019-04-19T12:30:40Z</time>
      </trkpt>
      <trkpt lat="44.12267" lon="3.12839">
        <ele>845.4</ele>
        <time>2019-04-19T12:30:41Z</time>
      </trkpt>
      <trkpt lat="44.12267" lon="3.12834">
        <ele>845.6</ele>
        <time>2019-04-19T12:30:42Z</time>
      </trkpt>
      <trkpt lat="44.12267" lon="3.1283">
        <ele>845.7</ele>
        <time>2019-04-19T12:30:43Z</time>
      </trkpt>
      <trkpt lat="44.12266" lon="3.12825">
        <ele>845.8</ele>
        <time>2019-04-19T12:30:44Z</time>
      </trkpt>
      <trkpt lat="44.12266" lon="3.1282">
        <ele>845.9</ele>
        <time>2019-04-19T12:30:45Z</time>
      </trkpt>
      <trkpt lat="44.12266" lon="3.12815">
        <ele>846</ele>
        <time>2019-04-19T12:30:46Z</time>
      </trkpt>
      <trkpt lat="44.12266" lon="3.1281">
        <ele>846.1</ele>
        <time>2019-04-19T12:30:47Z</time>
      </trkpt>
      <trkpt lat="44.12265" lon="3.12805">
        <ele>846.2</ele>
        <time>2019-04-19T12:30:48Z</time>
      </trkpt>
      <trkpt lat="44.12265" lon="3.128">
        <ele>846.4</ele>
        <time>2019-04-19T12:30:49Z</time>
      </trkpt>
      <trkpt lat="44.12266" lon="3.12795">
        <ele>846.5</ele>
        <time>2019-04-19T12:30:50Z</time>
      </trkpt>
      <trkpt lat="44.12266" lon="3.1279">
        <ele>846.7</ele>
        <time>2019-04-19T12:30:51Z</time>
      </trkpt>
      <trkpt lat="44.12266" lon="3.12786">
        <ele>846.9</ele>
        <time>2019-04-19T12:30:52Z</time>
      </trkpt>
      <trkpt lat="44.12265" lon="3.12781">
        <ele>847</ele>
        <time>2019-04-19T12:30:53Z</time>
      </trkpt>
      <trkpt lat="44.12265" lon="3.12775">
        <ele>847.1</ele>
        <time>2019-04-19T12:30:54Z</time>
      </trkpt>
      <trkpt lat="44.12265" lon="3.12769">
        <ele>847.2</ele>
        <time>2019-04-19T12:30:55Z</time>
      </trkpt>
      <trkpt lat="44.12265" lon="3.12763">
        <ele>847.4</ele>
        <time>2019-04-19T12:30:56Z</time>
      </trkpt>
      <trkpt lat="44.12265" lon="3.12758">
        <ele>847.6</ele>
        <time>2019-04-19T12:30:57Z</time>
      </trkpt>
      <trkpt lat="44.12265" lon="3.12752">
        <ele>847.8</ele>
        <time>2019-04-19T12:30:58Z</time>
      </trkpt>
      <trkpt lat="44.12266" lon="3.12747">
        <ele>848</ele>
        <time>2019-04-19T12:30:59Z</time>
      </trkpt>
      <trkpt lat="44.12266" lon="3.12742">
        <ele>848.1</ele>
        <time>2019-04-19T12:31:00Z</time>
      </trkpt>
      <trkpt lat="44.12265" lon="3.12736">
        <ele>848.2</ele>
        <time>2019-04-19T12:31:01Z</time>
      </trkpt>
      <trkpt lat="44.12265" lon="3.12731">
        <ele>848.1</ele>
        <time>2019-04-19T12:31:02Z</time>
      </trkpt>
      <trkpt lat="44.12264" lon="3.12727">
        <ele>848</ele>
        <time>2019-04-19T12:31:03Z</time>
      </trkpt>
      <trkpt lat="44.12263" lon="3.12723">
        <ele>848.1</ele>
        <time>2019-04-19T12:31:04Z</time>
      </trkpt>
      <trkpt lat="44.12263" lon="3.12718">
        <ele>848.1</ele>
        <time>2019-04-19T12:31:05Z</time>
      </trkpt>
      <trkpt lat="44.12264" lon="3.12712">
        <ele>847.9</ele>
        <time>2019-04-19T12:31:06Z</time>
      </trkpt>
      <trkpt lat="44.12265" lon="3.12706">
        <ele>847.8</ele>
        <time>2019-04-19T12:31:07Z</time>
      </trkpt>
      <trkpt lat="44.12266" lon="3.12703">
        <ele>847.8</ele>
        <time>2019-04-19T12:31:08Z</time>
      </trkpt>
      <trkpt lat="44.1227" lon="3.12698">
        <ele>847.7</ele>
        <time>2019-04-19T12:31:10Z</time>
      </trkpt>
      <trkpt lat="44.12273" lon="3.12696">
        <ele>847.7</ele>
        <time>2019-04-19T12:31:11Z</time>
      </trkpt>
      <trkpt lat="44.12277" lon="3.12693">
        <ele>847.7</ele>
        <time>2019-04-19T12:31:12Z</time>
      </trkpt>
      <trkpt lat="44.12284" lon="3.12688">
        <ele>847.5</ele>
        <time>2019-04-19T12:31:13Z</time>
      </trkpt>
      <trkpt lat="44.1229" lon="3.12679">
        <ele>847.1</ele>
        <time>2019-04-19T12:31:14Z</time>
      </trkpt>
      <trkpt lat="44.12298" lon="3.12671">
        <ele>846.8</ele>
        <time>2019-04-19T12:31:15Z</time>
      </trkpt>
      <trkpt lat="44.12304" lon="3.12664">
        <ele>846.5</ele>
        <time>2019-04-19T12:31:16Z</time>
      </trkpt>
      <trkpt lat="44.12309" lon="3.12659">
        <ele>846.3</ele>
        <time>2019-04-19T12:31:17Z</time>
      </trkpt>
      <trkpt lat="44.12308" lon="3.12662">
        <ele>846.2</ele>
        <time>2019-04-19T12:31:18Z</time>
      </trkpt>
      <trkpt lat="44.12312" lon="3.12664">
        <ele>846</ele>
        <time>2019-04-19T12:31:20Z</time>
      </trkpt>
      <trkpt lat="44.12316" lon="3.12664">
        <ele>845.6</ele>
        <time>2019-04-19T12:31:21Z</time>
      </trkpt>
      <trkpt lat="44.12321" lon="3.12669">
        <ele>845.6</ele>
        <time>2019-04-19T12:31:23Z</time>
      </trkpt>
      <trkpt lat="44.12322" lon="3.12676">
        <ele>845.6</ele>
        <time>2019-04-19T12:31:25Z</time>
      </trkpt>
      <trkpt lat="44.12324" lon="3.12681">
        <ele>845.6</ele>
        <time>2019-04-19T12:31:26Z</time>
      </trkpt>
      <trkpt lat="44.12328" lon="3.12686">
        <ele>845.6</ele>
        <time>2019-04-19T12:31:27Z</time>
      </trkpt>
      <trkpt lat="44.12332" lon="3.1269">
        <ele>845.1</ele>
        <time>2019-04-19T12:31:28Z</time>
      </trkpt>
      <trkpt lat="44.12337" lon="3.12694">
        <ele>844.8</ele>
        <time>2019-04-19T12:31:29Z</time>
      </trkpt>
      <trkpt lat="44.12343" lon="3.12697">
        <ele>844.5</ele>
        <time>2019-04-19T12:31:30Z</time>
      </trkpt>
      <trkpt lat="44.12348" lon="3.12701">
        <ele>844.3</ele>
        <time>2019-04-19T12:31:31Z</time>
      </trkpt>
      <trkpt lat="44.12353" lon="3.12707">
        <ele>844</ele>
        <time>2019-04-19T12:31:32Z</time>
      </trkpt>
      <trkpt lat="44.12355" lon="3.1271">
        <ele>843.9</ele>
        <time>2019-04-19T12:31:33Z</time>
      </trkpt>
      <trkpt lat="44.12359" lon="3.12712">
        <ele>843.9</ele>
        <time>2019-04-19T12:31:34Z</time>
      </trkpt>
      <trkpt lat="44.12365" lon="3.12715">
        <ele>843.9</ele>
        <time>2019-04-19T12:31:35Z</time>
      </trkpt>
      <trkpt lat="44.12369" lon="3.12716">
        <ele>843.9</ele>
        <time>2019-04-19T12:31:36Z</time>
      </trkpt>
      <trkpt lat="44.12374" lon="3.12716">
        <ele>844</ele>
        <time>2019-04-19T12:31:37Z</time>
      </trkpt>
      <trkpt lat="44.12379" lon="3.12716">
        <ele>844.1</ele>
        <time>2019-04-19T12:31:38Z</time>
      </trkpt>
      <trkpt lat="44.12383" lon="3.12718">
        <ele>844.2</ele>
        <time>2019-04-19T12:31:39Z</time>
      </trkpt>
      <trkpt lat="44.12388" lon="3.12721">
        <ele>844.2</ele>
        <time>2019-04-19T12:31:40Z</time>
      </trkpt>
      <trkpt lat="44.12392" lon="3.1272">
        <ele>844.2</ele>
        <time>2019-04-19T12:31:41Z</time>
      </trkpt>
      <trkpt lat="44.12397" lon="3.1272">
        <ele>844.2</ele>
        <time>2019-04-19T12:31:42Z</time>
      </trkpt>
      <trkpt lat="44.124" lon="3.12723">
        <ele>844.2</ele>
        <time>2019-04-19T12:31:43Z</time>
      </trkpt>
      <trkpt lat="44.12405" lon="3.12723">
        <ele>844.2</ele>
        <time>2019-04-19T12:31:44Z</time>
      </trkpt>
      <trkpt lat="44.12408" lon="3.12727">
        <ele>844.2</ele>
        <time>2019-04-19T12:31:45Z</time>
      </trkpt>
      <trkpt lat="44.1241" lon="3.12731">
        <ele>844.2</ele>
        <time>2019-04-19T12:31:46Z</time>
      </trkpt>
      <trkpt lat="44.12415" lon="3.12733">
        <ele>844.2</ele>
        <time>2019-04-19T12:31:47Z</time>
      </trkpt>
      <trkpt lat="44.1242" lon="3.12735">
        <ele>844.1</ele>
        <time>2019-04-19T12:31:48Z</time>
      </trkpt>
      <trkpt lat="44.12425" lon="3.12738">
        <ele>844</ele>
        <time>2019-04-19T12:31:49Z</time>
      </trkpt>
      <trkpt lat="44.12431" lon="3.1274">
        <ele>843.9</ele>
        <time>2019-04-19T12:31:50Z</time>
      </trkpt>
      <trkpt lat="44.12435" lon="3.12742">
        <ele>843.9</ele>
        <time>2019-04-19T12:31:51Z</time>
      </trkpt>
      <trkpt lat="44.12437" lon="3.12749">
        <ele>843.8</ele>
        <time>2019-04-19T12:31:52Z</time>
      </trkpt>
      <trkpt lat="44.1244" lon="3.12754">
        <ele>843.7</ele>
        <time>2019-04-19T12:31:53Z</time>
      </trkpt>
      <trkpt lat="44.12444" lon="3.12757">
        <ele>843.7</ele>
        <time>2019-04-19T12:31:54Z</time>
      </trkpt>
      <trkpt lat="44.12447" lon="3.12762">
        <ele>843.6</ele>
        <time>2019-04-19T12:31:55Z</time>
      </trkpt>
      <trkpt lat="44.12452" lon="3.12763">
        <ele>843.6</ele>
        <time>2019-04-19T12:31:56Z</time>
      </trkpt>
      <trkpt lat="44.12455" lon="3.12768">
        <ele>843.6</ele>
        <time>2019-04-19T12:31:57Z</time>
      </trkpt>
      <trkpt lat="44.1246" lon="3.12772">
        <ele>843.5</ele>
        <time>2019-04-19T12:31:58Z</time>
      </trkpt>
      <trkpt lat="44.12466" lon="3.12775">
        <ele>843.5</ele>
        <time>2019-04-19T12:31:59Z</time>
      </trkpt>
      <trkpt lat="44.12469" lon="3.12779">
        <ele>843.5</ele>
        <time>2019-04-19T12:32:00Z</time>
      </trkpt>
      <trkpt lat="44.12473" lon="3.12781">
        <ele>843.4</ele>
        <time>2019-04-19T12:32:01Z</time>
      </trkpt>
      <trkpt lat="44.12477" lon="3.12782">
        <ele>843.4</ele>
        <time>2019-04-19T12:32:02Z</time>
      </trkpt>
      <trkpt lat="44.12481" lon="3.12783">
        <ele>843.4</ele>
        <time>2019-04-19T12:32:03Z</time>
      </trkpt>
      <trkpt lat="44.12484" lon="3.12781">
        <ele>843.4</ele>
        <time>2019-04-19T12:32:04Z</time>
      </trkpt>
      <trkpt lat="44.12488" lon="3.12779">
        <ele>843.3</ele>
        <time>2019-04-19T12:32:05Z</time>
      </trkpt>
      <trkpt lat="44.12492" lon="3.12776">
        <ele>843.3</ele>
        <time>2019-04-19T12:32:06Z</time>
      </trkpt>
      <trkpt lat="44.12496" lon="3.12771">
        <ele>843.3</ele>
        <time>2019-04-19T12:32:07Z</time>
      </trkpt>
      <trkpt lat="44.12499" lon="3.12772">
        <ele>843.3</ele>
        <time>2019-04-19T12:32:08Z</time>
      </trkpt>
      <trkpt lat="44.12504" lon="3.12773">
        <ele>843.1</ele>
        <time>2019-04-19T12:32:09Z</time>
      </trkpt>
      <trkpt lat="44.12509" lon="3.12769">
        <ele>842.9</ele>
        <time>2019-04-19T12:32:10Z</time>
      </trkpt>
      <trkpt lat="44.12512" lon="3.12765">
        <ele>842.6</ele>
        <time>2019-04-19T12:32:11Z</time>
      </trkpt>
      <trkpt lat="44.12516" lon="3.12762">
        <ele>842.3</ele>
        <time>2019-04-19T12:32:12Z</time>
      </trkpt>
      <trkpt lat="44.12519" lon="3.12761">
        <ele>842</ele>
        <time>2019-04-19T12:32:13Z</time>
      </trkpt>
      <trkpt lat="44.12523" lon="3.12762">
        <ele>841.8</ele>
        <time>2019-04-19T12:32:14Z</time>
      </trkpt>
      <trkpt lat="44.12526" lon="3.12766">
        <ele>841.5</ele>
        <time>2019-04-19T12:32:15Z</time>
      </trkpt>
      <trkpt lat="44.12529" lon="3.12771">
        <ele>841.1</ele>
        <time>2019-04-19T12:32:16Z</time>
      </trkpt>
      <trkpt lat="44.12532" lon="3.12776">
        <ele>840.7</ele>
        <time>2019-04-19T12:32:17Z</time>
      </trkpt>
      <trkpt lat="44.12537" lon="3.12791">
        <ele>839.7</ele>
        <time>2019-04-19T12:32:18Z</time>
      </trkpt>
      <trkpt lat="44.12538" lon="3.12801">
        <ele>839.3</ele>
        <time>2019-04-19T12:32:19Z</time>
      </trkpt>
      <trkpt lat="44.12539" lon="3.12808">
        <ele>839</ele>
        <time>2019-04-19T12:32:20Z</time>
      </trkpt>
      <trkpt lat="44.12541" lon="3.12816">
        <ele>838.7</ele>
        <time>2019-04-19T12:32:21Z</time>
      </trkpt>
      <trkpt lat="44.12546" lon="3.12824">
        <ele>838.2</ele>
        <time>2019-04-19T12:32:22Z</time>
      </trkpt>
      <trkpt lat="44.12551" lon="3.1283">
        <ele>837.8</ele>
        <time>2019-04-19T12:32:23Z</time>
      </trkpt>
      <trkpt lat="44.12557" lon="3.1284">
        <ele>837.3</ele>
        <time>2019-04-19T12:32:24Z</time>
      </trkpt>
      <trkpt lat="44.12561" lon="3.12848">
        <ele>836.9</ele>
        <time>2019-04-19T12:32:25Z</time>
      </trkpt>
      <trkpt lat="44.12566" lon="3.12855">
        <ele>836.5</ele>
        <time>2019-04-19T12:32:26Z</time>
      </trkpt>
      <trkpt lat="44.12572" lon="3.12864">
        <ele>835.9</ele>
        <time>2019-04-19T12:32:27Z</time>
      </trkpt>
      <trkpt lat="44.12578" lon="3.12872">
        <ele>835.1</ele>
        <time>2019-04-19T12:32:28Z</time>
      </trkpt>
      <trkpt lat="44.12584" lon="3.12881">
        <ele>834.4</ele>
        <time>2019-04-19T12:32:29Z</time>
      </trkpt>
      <trkpt lat="44.12591" lon="3.12892">
        <ele>833.8</ele>
        <time>2019-04-19T12:32:30Z</time>
      </trkpt>
      <trkpt lat="44.12597" lon="3.12902">
        <ele>833.2</ele>
        <time>2019-04-19T12:32:31Z</time>
      </trkpt>
      <trkpt lat="44.12606" lon="3.12908">
        <ele>832.5</ele>
        <time>2019-04-19T12:32:32Z</time>
      </trkpt>
      <trkpt lat="44.12613" lon="3.12919">
        <ele>832</ele>
        <time>2019-04-19T12:32:33Z</time>
      </trkpt>
      <trkpt lat="44.12621" lon="3.12921">
        <ele>831.7</ele>
        <time>2019-04-19T12:32:34Z</time>
      </trkpt>
      <trkpt lat="44.12628" lon="3.12927">
        <ele>831.5</ele>
        <time>2019-04-19T12:32:35Z</time>
      </trkpt>
      <trkpt lat="44.12635" lon="3.12932">
        <ele>831.2</ele>
        <time>2019-04-19T12:32:36Z</time>
      </trkpt>
      <trkpt lat="44.12639" lon="3.12933">
        <ele>831.1</ele>
        <time>2019-04-19T12:32:37Z</time>
      </trkpt>
      <trkpt lat="44.12642" lon="3.12938">
        <ele>831</ele>
        <time>2019-04-19T12:32:38Z</time>
      </trkpt>
      <trkpt lat="44.12645" lon="3.12945">
        <ele>830.9</ele>
        <time>2019-04-19T12:32:39Z</time>
      </trkpt>
      <trkpt lat="44.1265" lon="3.12952">
        <ele>830.8</ele>
        <time>2019-04-19T12:32:40Z</time>
      </trkpt>
      <trkpt lat="44.12653" lon="3.12957">
        <ele>830.7</ele>
        <time>2019-04-19T12:32:41Z</time>
      </trkpt>
      <trkpt lat="44.12655" lon="3.12962">
        <ele>830.6</ele>
        <time>2019-04-19T12:32:42Z</time>
      </trkpt>
      <trkpt lat="44.1266" lon="3.12974">
        <ele>830.3</ele>
        <time>2019-04-19T12:32:43Z</time>
      </trkpt>
      <trkpt lat="44.12666" lon="3.12983">
        <ele>829.8</ele>
        <time>2019-04-19T12:32:44Z</time>
      </trkpt>
      <trkpt lat="44.12669" lon="3.12995">
        <ele>829.3</ele>
        <time>2019-04-19T12:32:45Z</time>
      </trkpt>
      <trkpt lat="44.12671" lon="3.13003">
        <ele>828.8</ele>
        <time>2019-04-19T12:32:46Z</time>
      </trkpt>
      <trkpt lat="44.12671" lon="3.1301">
        <ele>828.4</ele>
        <time>2019-04-19T12:32:47Z</time>
      </trkpt>
      <trkpt lat="44.12676" lon="3.13018">
        <ele>827.6</ele>
        <time>2019-04-19T12:32:48Z</time>
      </trkpt>
      <trkpt lat="44.12682" lon="3.13026">
        <ele>826.7</ele>
        <time>2019-04-19T12:32:49Z</time>
      </trkpt>
      <trkpt lat="44.12689" lon="3.13033">
        <ele>825.9</ele>
        <time>2019-04-19T12:32:50Z</time>
      </trkpt>
      <trkpt lat="44.12695" lon="3.13036">
        <ele>824.3</ele>
        <time>2019-04-19T12:32:51Z</time>
      </trkpt>
      <trkpt lat="44.12699" lon="3.13039">
        <ele>824.1</ele>
        <time>2019-04-19T12:32:52Z</time>
      </trkpt>
      <trkpt lat="44.12704" lon="3.13041">
        <ele>824</ele>
        <time>2019-04-19T12:32:53Z</time>
      </trkpt>
      <trkpt lat="44.12709" lon="3.13045">
        <ele>823.8</ele>
        <time>2019-04-19T12:32:54Z</time>
      </trkpt>
      <trkpt lat="44.12716" lon="3.13039">
        <ele>823.5</ele>
        <time>2019-04-19T12:32:55Z</time>
      </trkpt>
      <trkpt lat="44.1272" lon="3.1304">
        <ele>823.4</ele>
        <time>2019-04-19T12:32:56Z</time>
      </trkpt>
      <trkpt lat="44.12725" lon="3.13039">
        <ele>823.3</ele>
        <time>2019-04-19T12:32:57Z</time>
      </trkpt>
      <trkpt lat="44.12729" lon="3.13039">
        <ele>823.2</ele>
        <time>2019-04-19T12:32:58Z</time>
      </trkpt>
      <trkpt lat="44.12737" lon="3.13032">
        <ele>823</ele>
        <time>2019-04-19T12:33:00Z</time>
      </trkpt>
      <trkpt lat="44.12742" lon="3.13031">
        <ele>822.8</ele>
        <time>2019-04-19T12:33:01Z</time>
      </trkpt>
      <trkpt lat="44.12748" lon="3.13024">
        <ele>822.7</ele>
        <time>2019-04-19T12:33:02Z</time>
      </trkpt>
      <trkpt lat="44.1275" lon="3.13026">
        <ele>822.6</ele>
        <time>2019-04-19T12:33:03Z</time>
      </trkpt>
      <trkpt lat="44.12755" lon="3.13025">
        <ele>822.5</ele>
        <time>2019-04-19T12:33:04Z</time>
      </trkpt>
      <trkpt lat="44.1276" lon="3.13024">
        <ele>822.4</ele>
        <time>2019-04-19T12:33:05Z</time>
      </trkpt>
      <trkpt lat="44.12765" lon="3.13021">
        <ele>822.2</ele>
        <time>2019-04-19T12:33:06Z</time>
      </trkpt>
      <trkpt lat="44.1277" lon="3.13018">
        <ele>822.1</ele>
        <time>2019-04-19T12:33:07Z</time>
      </trkpt>
      <trkpt lat="44.12776" lon="3.13015">
        <ele>821.9</ele>
        <time>2019-04-19T12:33:08Z</time>
      </trkpt>
      <trkpt lat="44.12784" lon="3.1301">
        <ele>821.6</ele>
        <time>2019-04-19T12:33:09Z</time>
      </trkpt>
      <trkpt lat="44.1279" lon="3.13002">
        <ele>821.4</ele>
        <time>2019-04-19T12:33:10Z</time>
      </trkpt>
      <trkpt lat="44.12793" lon="3.12997">
        <ele>821.2</ele>
        <time>2019-04-19T12:33:11Z</time>
      </trkpt>
      <trkpt lat="44.12794" lon="3.12989">
        <ele>821</ele>
        <time>2019-04-19T12:33:12Z</time>
      </trkpt>
      <trkpt lat="44.12798" lon="3.12977">
        <ele>820.5</ele>
        <time>2019-04-19T12:33:13Z</time>
      </trkpt>
      <trkpt lat="44.128" lon="3.12966">
        <ele>820</ele>
        <time>2019-04-19T12:33:14Z</time>
      </trkpt>
      <trkpt lat="44.12805" lon="3.12958">
        <ele>819.5</ele>
        <time>2019-04-19T12:33:15Z</time>
      </trkpt>
      <trkpt lat="44.12804" lon="3.1295">
        <ele>819.2</ele>
        <time>2019-04-19T12:33:16Z</time>
      </trkpt>
      <trkpt lat="44.12804" lon="3.12944">
        <ele>819</ele>
        <time>2019-04-19T12:33:17Z</time>
      </trkpt>
      <trkpt lat="44.12807" lon="3.12933">
        <ele>818.5</ele>
        <time>2019-04-19T12:33:18Z</time>
      </trkpt>
      <trkpt lat="44.12808" lon="3.12923">
        <ele>818</ele>
        <time>2019-04-19T12:33:19Z</time>
      </trkpt>
      <trkpt lat="44.1281" lon="3.12911">
        <ele>817.5</ele>
        <time>2019-04-19T12:33:20Z</time>
      </trkpt>
      <trkpt lat="44.12811" lon="3.12901">
        <ele>817.2</ele>
        <time>2019-04-19T12:33:21Z</time>
      </trkpt>
      <trkpt lat="44.12812" lon="3.12889">
        <ele>816.8</ele>
        <time>2019-04-19T12:33:22Z</time>
      </trkpt>
      <trkpt lat="44.12811" lon="3.12876">
        <ele>816.6</ele>
        <time>2019-04-19T12:33:23Z</time>
      </trkpt>
      <trkpt lat="44.12813" lon="3.12866">
        <ele>816.4</ele>
        <time>2019-04-19T12:33:24Z</time>
      </trkpt>
      <trkpt lat="44.12816" lon="3.12857">
        <ele>816.4</ele>
        <time>2019-04-19T12:33:25Z</time>
      </trkpt>
      <trkpt lat="44.12821" lon="3.12851">
        <ele>816.3</ele>
        <time>2019-04-19T12:33:26Z</time>
      </trkpt>
      <trkpt lat="44.12827" lon="3.12848">
        <ele>816.3</ele>
        <time>2019-04-19T12:33:27Z</time>
      </trkpt>
      <trkpt lat="44.12832" lon="3.12847">
        <ele>816.3</ele>
        <time>2019-04-19T12:33:28Z</time>
      </trkpt>
      <trkpt lat="44.12841" lon="3.12849">
        <ele>816.3</ele>
        <time>2019-04-19T12:33:29Z</time>
      </trkpt>
      <trkpt lat="44.12848" lon="3.12851">
        <ele>816.4</ele>
        <time>2019-04-19T12:33:30Z</time>
      </trkpt>
      <trkpt lat="44.12854" lon="3.12851">
        <ele>816.4</ele>
        <time>2019-04-19T12:33:31Z</time>
      </trkpt>
      <trkpt lat="44.1286" lon="3.12851">
        <ele>816.5</ele>
        <time>2019-04-19T12:33:32Z</time>
      </trkpt>
      <trkpt lat="44.12865" lon="3.12853">
        <ele>816.5</ele>
        <time>2019-04-19T12:33:33Z</time>
      </trkpt>
      <trkpt lat="44.12871" lon="3.12854">
        <ele>816.6</ele>
        <time>2019-04-19T12:33:34Z</time>
      </trkpt>
      <trkpt lat="44.12877" lon="3.12854">
        <ele>816.7</ele>
        <time>2019-04-19T12:33:35Z</time>
      </trkpt>
      <trkpt lat="44.12881" lon="3.12856">
        <ele>816.7</ele>
        <time>2019-04-19T12:33:36Z</time>
      </trkpt>
      <trkpt lat="44.12885" lon="3.12857">
        <ele>816.7</ele>
        <time>2019-04-19T12:33:37Z</time>
      </trkpt>
      <trkpt lat="44.12891" lon="3.12857">
        <ele>816.8</ele>
        <time>2019-04-19T12:33:38Z</time>
      </trkpt>
      <trkpt lat="44.12895" lon="3.12858">
        <ele>816.9</ele>
        <time>2019-04-19T12:33:39Z</time>
      </trkpt>
      <trkpt lat="44.12901" lon="3.12855">
        <ele>816.9</ele>
        <time>2019-04-19T12:33:40Z</time>
      </trkpt>
      <trkpt lat="44.12906" lon="3.12856">
        <ele>817</ele>
        <time>2019-04-19T12:33:41Z</time>
      </trkpt>
      <trkpt lat="44.12912" lon="3.1286">
        <ele>817</ele>
        <time>2019-04-19T12:33:42Z</time>
      </trkpt>
      <trkpt lat="44.12919" lon="3.12858">
        <ele>817.1</ele>
        <time>2019-04-19T12:33:43Z</time>
      </trkpt>
      <trkpt lat="44.12924" lon="3.1286">
        <ele>817.1</ele>
        <time>2019-04-19T12:33:44Z</time>
      </trkpt>
      <trkpt lat="44.12929" lon="3.1286">
        <ele>817.1</ele>
        <time>2019-04-19T12:33:45Z</time>
      </trkpt>
      <trkpt lat="44.12929" lon="3.12864">
        <ele>817.1</ele>
        <time>2019-04-19T12:33:46Z</time>
      </trkpt>
      <trkpt lat="44.12935" lon="3.12866">
        <ele>817.1</ele>
        <time>2019-04-19T12:33:48Z</time>
      </trkpt>
      <trkpt lat="44.12941" lon="3.12869">
        <ele>817.2</ele>
        <time>2019-04-19T12:33:49Z</time>
      </trkpt>
      <trkpt lat="44.12949" lon="3.12871">
        <ele>817.1</ele>
        <time>2019-04-19T12:33:51Z</time>
      </trkpt>
      <trkpt lat="44.12956" lon="3.12871">
        <ele>817.1</ele>
        <time>2019-04-19T12:33:52Z</time>
      </trkpt>
      <trkpt lat="44.12961" lon="3.12875">
        <ele>817</ele>
        <time>2019-04-19T12:33:54Z</time>
      </trkpt>
      <trkpt lat="44.12966" lon="3.12877">
        <ele>817</ele>
        <time>2019-04-19T12:33:55Z</time>
      </trkpt>
      <trkpt lat="44.12971" lon="3.12879">
        <ele>816.9</ele>
        <time>2019-04-19T12:33:56Z</time>
      </trkpt>
      <trkpt lat="44.12975" lon="3.12885">
        <ele>816.5</ele>
        <time>2019-04-19T12:33:57Z</time>
      </trkpt>
      <trkpt lat="44.12978" lon="3.12889">
        <ele>816.4</ele>
        <time>2019-04-19T12:33:58Z</time>
      </trkpt>
      <trkpt lat="44.12982" lon="3.12898">
        <ele>816.2</ele>
        <time>2019-04-19T12:33:59Z</time>
      </trkpt>
      <trkpt lat="44.12986" lon="3.12903">
        <ele>816.1</ele>
        <time>2019-04-19T12:34:00Z</time>
      </trkpt>
      <trkpt lat="44.12985" lon="3.12909">
        <ele>816</ele>
        <time>2019-04-19T12:34:01Z</time>
      </trkpt>
      <trkpt lat="44.12988" lon="3.1292">
        <ele>815.9</ele>
        <time>2019-04-19T12:34:02Z</time>
      </trkpt>
      <trkpt lat="44.1299" lon="3.12927">
        <ele>815.8</ele>
        <time>2019-04-19T12:34:03Z</time>
      </trkpt>
      <trkpt lat="44.12992" lon="3.12933">
        <ele>815.7</ele>
        <time>2019-04-19T12:34:04Z</time>
      </trkpt>
      <trkpt lat="44.12994" lon="3.12939">
        <ele>815.6</ele>
        <time>2019-04-19T12:34:05Z</time>
      </trkpt>
      <trkpt lat="44.12995" lon="3.12945">
        <ele>815.6</ele>
        <time>2019-04-19T12:34:06Z</time>
      </trkpt>
      <trkpt lat="44.12993" lon="3.12948">
        <ele>815.6</ele>
        <time>2019-04-19T12:34:10Z</time>
      </trkpt>
      <trkpt lat="44.12997" lon="3.12942">
        <ele>815.5</ele>
        <time>2019-04-19T12:34:15Z</time>
      </trkpt>
      <trkpt lat="44.12997" lon="3.12938">
        <ele>815.5</ele>
        <time>2019-04-19T12:34:16Z</time>
      </trkpt>
      <trkpt lat="44.12996" lon="3.12932">
        <ele>815.5</ele>
        <time>2019-04-19T12:34:18Z</time>
      </trkpt>
      <trkpt lat="44.12995" lon="3.12928">
        <ele>815.5</ele>
        <time>2019-04-19T12:34:19Z</time>
      </trkpt>
      <trkpt lat="44.12994" lon="3.12924">
        <ele>815.5</ele>
        <time>2019-04-19T12:34:20Z</time>
      </trkpt>
      <trkpt lat="44.12993" lon="3.1292">
        <ele>815.4</ele>
        <time>2019-04-19T12:34:21Z</time>
      </trkpt>
      <trkpt lat="44.12992" lon="3.12916">
        <ele>815.4</ele>
        <time>2019-04-19T12:34:22Z</time>
      </trkpt>
      <trkpt lat="44.12992" lon="3.12912">
        <ele>815.4</ele>
        <time>2019-04-19T12:34:23Z</time>
      </trkpt>
      <trkpt lat="44.12991" lon="3.12906">
        <ele>815.4</ele>
        <time>2019-04-19T12:34:25Z</time>
      </trkpt>
      <trkpt lat="44.12994" lon="3.12909">
        <ele>815.4</ele>
        <time>2019-04-19T12:34:28Z</time>
      </trkpt>
      <trkpt lat="44.12996" lon="3.12913">
        <ele>815.4</ele>
        <time>2019-04-19T12:34:29Z</time>
      </trkpt>
      <trkpt lat="44.12998" lon="3.12917">
        <ele>815.4</ele>
        <time>2019-04-19T12:34:30Z</time>
      </trkpt>
      <trkpt lat="44.13001" lon="3.12924">
        <ele>815.4</ele>
        <time>2019-04-19T12:34:31Z</time>
      </trkpt>
      <trkpt lat="44.13006" lon="3.12937">
        <ele>815.4</ele>
        <time>2019-04-19T12:34:32Z</time>
      </trkpt>
      <trkpt lat="44.13008" lon="3.12943">
        <ele>815.4</ele>
        <time>2019-04-19T12:34:33Z</time>
      </trkpt>
      <trkpt lat="44.1301" lon="3.12948">
        <ele>815.4</ele>
        <time>2019-04-19T12:34:34Z</time>
      </trkpt>
      <trkpt lat="44.13014" lon="3.12955">
        <ele>815.4</ele>
        <time>2019-04-19T12:34:35Z</time>
      </trkpt>
      <trkpt lat="44.13018" lon="3.12959">
        <ele>815.2</ele>
        <time>2019-04-19T12:34:36Z</time>
      </trkpt>
      <trkpt lat="44.13022" lon="3.12963">
        <ele>815</ele>
        <time>2019-04-19T12:34:37Z</time>
      </trkpt>
      <trkpt lat="44.13027" lon="3.12969">
        <ele>814.6</ele>
        <time>2019-04-19T12:34:38Z</time>
      </trkpt>
      <trkpt lat="44.13031" lon="3.12974">
        <ele>814.3</ele>
        <time>2019-04-19T12:34:39Z</time>
      </trkpt>
      <trkpt lat="44.13034" lon="3.12979">
        <ele>814.2</ele>
        <time>2019-04-19T12:34:40Z</time>
      </trkpt>
      <trkpt lat="44.13041" lon="3.12986">
        <ele>813.8</ele>
        <time>2019-04-19T12:34:41Z</time>
      </trkpt>
      <trkpt lat="44.13044" lon="3.12987">
        <ele>813.7</ele>
        <time>2019-04-19T12:34:42Z</time>
      </trkpt>
      <trkpt lat="44.13051" lon="3.12983">
        <ele>813.5</ele>
        <time>2019-04-19T12:34:43Z</time>
      </trkpt>
      <trkpt lat="44.13059" lon="3.12987">
        <ele>813</ele>
        <time>2019-04-19T12:34:44Z</time>
      </trkpt>
      <trkpt lat="44.13063" lon="3.12985">
        <ele>813</ele>
        <time>2019-04-19T12:34:45Z</time>
      </trkpt>
      <trkpt lat="44.13067" lon="3.12984">
        <ele>812.9</ele>
        <time>2019-04-19T12:34:46Z</time>
      </trkpt>
      <trkpt lat="44.13071" lon="3.1298">
        <ele>813.1</ele>
        <time>2019-04-19T12:34:47Z</time>
      </trkpt>
      <trkpt lat="44.13074" lon="3.12978">
        <ele>813.2</ele>
        <time>2019-04-19T12:34:48Z</time>
      </trkpt>
      <trkpt lat="44.1308" lon="3.12975">
        <ele>813.7</ele>
        <time>2019-04-19T12:34:49Z</time>
      </trkpt>
      <trkpt lat="44.13085" lon="3.12971">
        <ele>814.4</ele>
        <time>2019-04-19T12:34:50Z</time>
      </trkpt>
      <trkpt lat="44.13087" lon="3.12974">
        <ele>814.1</ele>
        <time>2019-04-19T12:34:51Z</time>
      </trkpt>
      <trkpt lat="44.13096" lon="3.12972">
        <ele>815.2</ele>
        <time>2019-04-19T12:34:53Z</time>
      </trkpt>
      <trkpt lat="44.13099" lon="3.12973">
        <ele>815.4</ele>
        <time>2019-04-19T12:34:54Z</time>
      </trkpt>
      <trkpt lat="44.13102" lon="3.12973">
        <ele>815.4</ele>
        <time>2019-04-19T12:34:55Z</time>
      </trkpt>
      <trkpt lat="44.13106" lon="3.12973">
        <ele>816.2</ele>
        <time>2019-04-19T12:34:56Z</time>
      </trkpt>
      <trkpt lat="44.13111" lon="3.12974">
        <ele>816.3</ele>
        <time>2019-04-19T12:34:57Z</time>
      </trkpt>
      <trkpt lat="44.13114" lon="3.12977">
        <ele>816.6</ele>
        <time>2019-04-19T12:34:58Z</time>
      </trkpt>
      <trkpt lat="44.13118" lon="3.12979">
        <ele>816.6</ele>
        <time>2019-04-19T12:34:59Z</time>
      </trkpt>
      <trkpt lat="44.13123" lon="3.12981">
        <ele>817.1</ele>
        <time>2019-04-19T12:35:00Z</time>
      </trkpt>
      <trkpt lat="44.13127" lon="3.12983">
        <ele>817.2</ele>
        <time>2019-04-19T12:35:01Z</time>
      </trkpt>
      <trkpt lat="44.13131" lon="3.12985">
        <ele>817.8</ele>
        <time>2019-04-19T12:35:02Z</time>
      </trkpt>
      <trkpt lat="44.13135" lon="3.12988">
        <ele>818</ele>
        <time>2019-04-19T12:35:03Z</time>
      </trkpt>
      <trkpt lat="44.13138" lon="3.12991">
        <ele>818.1</ele>
        <time>2019-04-19T12:35:04Z</time>
      </trkpt>
      <trkpt lat="44.13139" lon="3.12994">
        <ele>818.1</ele>
        <time>2019-04-19T12:35:05Z</time>
      </trkpt>
      <trkpt lat="44.13141" lon="3.12999">
        <ele>818.2</ele>
        <time>2019-04-19T12:35:06Z</time>
      </trkpt>
      <trkpt lat="44.13142" lon="3.13004">
        <ele>818.1</ele>
        <time>2019-04-19T12:35:07Z</time>
      </trkpt>
      <trkpt lat="44.13144" lon="3.1301">
        <ele>818.3</ele>
        <time>2019-04-19T12:35:08Z</time>
      </trkpt>
      <trkpt lat="44.13146" lon="3.13015">
        <ele>818.2</ele>
        <time>2019-04-19T12:35:09Z</time>
      </trkpt>
      <trkpt lat="44.13147" lon="3.1302">
        <ele>818.4</ele>
        <time>2019-04-19T12:35:10Z</time>
      </trkpt>
      <trkpt lat="44.13149" lon="3.13026">
        <ele>818.2</ele>
        <time>2019-04-19T12:35:11Z</time>
      </trkpt>
      <trkpt lat="44.1315" lon="3.13031">
        <ele>818.4</ele>
        <time>2019-04-19T12:35:12Z</time>
      </trkpt>
      <trkpt lat="44.13152" lon="3.13034">
        <ele>818.2</ele>
        <time>2019-04-19T12:35:13Z</time>
      </trkpt>
      <trkpt lat="44.13156" lon="3.1304">
        <ele>818.4</ele>
        <time>2019-04-19T12:35:15Z</time>
      </trkpt>
      <trkpt lat="44.13158" lon="3.13044">
        <ele>818.6</ele>
        <time>2019-04-19T12:35:16Z</time>
      </trkpt>
      <trkpt lat="44.13161" lon="3.13048">
        <ele>818.7</ele>
        <time>2019-04-19T12:35:17Z</time>
      </trkpt>
      <trkpt lat="44.13164" lon="3.13053">
        <ele>818.8</ele>
        <time>2019-04-19T12:35:18Z</time>
      </trkpt>
      <trkpt lat="44.13168" lon="3.13057">
        <ele>818.9</ele>
        <time>2019-04-19T12:35:19Z</time>
      </trkpt>
      <trkpt lat="44.13172" lon="3.13061">
        <ele>819.3</ele>
        <time>2019-04-19T12:35:20Z</time>
      </trkpt>
      <trkpt lat="44.13175" lon="3.13064">
        <ele>819.4</ele>
        <time>2019-04-19T12:35:21Z</time>
      </trkpt>
      <trkpt lat="44.13177" lon="3.13067">
        <ele>819.4</ele>
        <time>2019-04-19T12:35:22Z</time>
      </trkpt>
      <trkpt lat="44.13179" lon="3.13069">
        <ele>819.5</ele>
        <time>2019-04-19T12:35:23Z</time>
      </trkpt>
      <trkpt lat="44.13181" lon="3.13073">
        <ele>819.6</ele>
        <time>2019-04-19T12:35:24Z</time>
      </trkpt>
      <trkpt lat="44.13184" lon="3.13078">
        <ele>819.7</ele>
        <time>2019-04-19T12:35:25Z</time>
      </trkpt>
      <trkpt lat="44.13199" lon="3.13103">
        <ele>819.9</ele>
        <time>2019-04-19T12:35:27Z</time>
      </trkpt>
      <trkpt lat="44.13193" lon="3.13103">
        <ele>819.4</ele>
        <time>2019-04-19T12:35:29Z</time>
      </trkpt>
      <trkpt lat="44.13189" lon="3.13107">
        <ele>818.7</ele>
        <time>2019-04-19T12:35:30Z</time>
      </trkpt>
      <trkpt lat="44.13187" lon="3.13112">
        <ele>818.4</ele>
        <time>2019-04-19T12:35:31Z</time>
      </trkpt>
      <trkpt lat="44.13188" lon="3.13119">
        <ele>817.9</ele>
        <time>2019-04-19T12:35:32Z</time>
      </trkpt>
      <trkpt lat="44.13187" lon="3.13123">
        <ele>817.9</ele>
        <time>2019-04-19T12:35:33Z</time>
      </trkpt>
      <trkpt lat="44.13184" lon="3.13128">
        <ele>817.2</ele>
        <time>2019-04-19T12:35:35Z</time>
      </trkpt>
      <trkpt lat="44.13182" lon="3.13132">
        <ele>816.9</ele>
        <time>2019-04-19T12:35:36Z</time>
      </trkpt>
      <trkpt lat="44.1318" lon="3.13134">
        <ele>816.7</ele>
        <time>2019-04-19T12:35:37Z</time>
      </trkpt>
      <trkpt lat="44.1318" lon="3.13141">
        <ele>815.8</ele>
        <time>2019-04-19T12:35:38Z</time>
      </trkpt>
      <trkpt lat="44.13179" lon="3.13147">
        <ele>815.5</ele>
        <time>2019-04-19T12:35:39Z</time>
      </trkpt>
      <trkpt lat="44.13178" lon="3.13152">
        <ele>815.3</ele>
        <time>2019-04-19T12:35:40Z</time>
      </trkpt>
      <trkpt lat="44.13177" lon="3.13157">
        <ele>814.7</ele>
        <time>2019-04-19T12:35:41Z</time>
      </trkpt>
      <trkpt lat="44.13175" lon="3.13162">
        <ele>814.3</ele>
        <time>2019-04-19T12:35:42Z</time>
      </trkpt>
      <trkpt lat="44.13174" lon="3.13169">
        <ele>814.1</ele>
        <time>2019-04-19T12:35:43Z</time>
      </trkpt>
      <trkpt lat="44.13176" lon="3.13187">
        <ele>813.5</ele>
        <time>2019-04-19T12:35:44Z</time>
      </trkpt>
      <trkpt lat="44.13176" lon="3.13194">
        <ele>813.3</ele>
        <time>2019-04-19T12:35:45Z</time>
      </trkpt>
      <trkpt lat="44.13176" lon="3.13203">
        <ele>813.1</ele>
        <time>2019-04-19T12:35:46Z</time>
      </trkpt>
      <trkpt lat="44.13173" lon="3.13213">
        <ele>812.6</ele>
        <time>2019-04-19T12:35:47Z</time>
      </trkpt>
      <trkpt lat="44.13171" lon="3.13221">
        <ele>812.1</ele>
        <time>2019-04-19T12:35:48Z</time>
      </trkpt>
      <trkpt lat="44.13171" lon="3.13228">
        <ele>812</ele>
        <time>2019-04-19T12:35:49Z</time>
      </trkpt>
      <trkpt lat="44.1317" lon="3.13235">
        <ele>812</ele>
        <time>2019-04-19T12:35:50Z</time>
      </trkpt>
      <trkpt lat="44.13169" lon="3.13242">
        <ele>811.9</ele>
        <time>2019-04-19T12:35:51Z</time>
      </trkpt>
      <trkpt lat="44.13167" lon="3.13252">
        <ele>811.7</ele>
        <time>2019-04-19T12:35:52Z</time>
      </trkpt>
      <trkpt lat="44.13169" lon="3.1326">
        <ele>811.9</ele>
        <time>2019-04-19T12:35:53Z</time>
      </trkpt>
      <trkpt lat="44.13169" lon="3.1327">
        <ele>811.9</ele>
        <time>2019-04-19T12:35:54Z</time>
      </trkpt>
      <trkpt lat="44.13169" lon="3.13277">
        <ele>811.9</ele>
        <time>2019-04-19T12:35:55Z</time>
      </trkpt>
      <trkpt lat="44.13166" lon="3.13284">
        <ele>811.7</ele>
        <time>2019-04-19T12:35:56Z</time>
      </trkpt>
      <trkpt lat="44.13165" lon="3.13293">
        <ele>811.7</ele>
        <time>2019-04-19T12:35:58Z</time>
      </trkpt>
      <trkpt lat="44.13163" lon="3.13304">
        <ele>811.7</ele>
        <time>2019-04-19T12:35:59Z</time>
      </trkpt>
      <trkpt lat="44.13162" lon="3.13307">
        <ele>811.6</ele>
        <time>2019-04-19T12:36:00Z</time>
      </trkpt>
      <trkpt lat="44.13158" lon="3.13311">
        <ele>811.6</ele>
        <time>2019-04-19T12:36:02Z</time>
      </trkpt>
      <trkpt lat="44.13157" lon="3.13316">
        <ele>811.7</ele>
        <time>2019-04-19T12:36:03Z</time>
      </trkpt>
      <trkpt lat="44.13157" lon="3.13331">
        <ele>811.8</ele>
        <time>2019-04-19T12:36:04Z</time>
      </trkpt>
      <trkpt lat="44.13157" lon="3.1334">
        <ele>811.9</ele>
        <time>2019-04-19T12:36:05Z</time>
      </trkpt>
      <trkpt lat="44.13155" lon="3.13348">
        <ele>812</ele>
        <time>2019-04-19T12:36:06Z</time>
      </trkpt>
      <trkpt lat="44.13155" lon="3.13355">
        <ele>812.1</ele>
        <time>2019-04-19T12:36:07Z</time>
      </trkpt>
      <trkpt lat="44.13155" lon="3.13363">
        <ele>812.1</ele>
        <time>2019-04-19T12:36:08Z</time>
      </trkpt>
      <trkpt lat="44.13153" lon="3.13368">
        <ele>812.2</ele>
        <time>2019-04-19T12:36:09Z</time>
      </trkpt>
      <trkpt lat="44.13152" lon="3.13377">
        <ele>812.3</ele>
        <time>2019-04-19T12:36:10Z</time>
      </trkpt>
      <trkpt lat="44.13153" lon="3.13385">
        <ele>812.3</ele>
        <time>2019-04-19T12:36:11Z</time>
      </trkpt>
      <trkpt lat="44.13155" lon="3.13394">
        <ele>812.4</ele>
        <time>2019-04-19T12:36:12Z</time>
      </trkpt>
      <trkpt lat="44.13155" lon="3.13401">
        <ele>812.4</ele>
        <time>2019-04-19T12:36:13Z</time>
      </trkpt>
      <trkpt lat="44.13156" lon="3.13411">
        <ele>812.4</ele>
        <time>2019-04-19T12:36:14Z</time>
      </trkpt>
      <trkpt lat="44.13157" lon="3.13418">
        <ele>812.4</ele>
        <time>2019-04-19T12:36:15Z</time>
      </trkpt>
      <trkpt lat="44.13158" lon="3.13424">
        <ele>812.4</ele>
        <time>2019-04-19T12:36:16Z</time>
      </trkpt>
      <trkpt lat="44.13157" lon="3.13432">
        <ele>812.4</ele>
        <time>2019-04-19T12:36:17Z</time>
      </trkpt>
      <trkpt lat="44.1316" lon="3.13436">
        <ele>812.4</ele>
        <time>2019-04-19T12:36:18Z</time>
      </trkpt>
      <trkpt lat="44.13163" lon="3.13439">
        <ele>812.3</ele>
        <time>2019-04-19T12:36:20Z</time>
      </trkpt>
      <trkpt lat="44.13169" lon="3.13445">
        <ele>812.2</ele>
        <time>2019-04-19T12:36:22Z</time>
      </trkpt>
      <trkpt lat="44.13172" lon="3.13448">
        <ele>812.2</ele>
        <time>2019-04-19T12:36:24Z</time>
      </trkpt>
      <trkpt lat="44.13176" lon="3.13449">
        <ele>812.2</ele>
        <time>2019-04-19T12:36:26Z</time>
      </trkpt>
      <trkpt lat="44.13182" lon="3.13449">
        <ele>812.3</ele>
        <time>2019-04-19T12:36:28Z</time>
      </trkpt>
      <trkpt lat="44.13186" lon="3.13449">
        <ele>812.3</ele>
        <time>2019-04-19T12:36:29Z</time>
      </trkpt>
      <trkpt lat="44.1319" lon="3.13449">
        <ele>812.4</ele>
        <time>2019-04-19T12:36:30Z</time>
      </trkpt>
      <trkpt lat="44.13194" lon="3.13449">
        <ele>812.4</ele>
        <time>2019-04-19T12:36:31Z</time>
      </trkpt>
      <trkpt lat="44.13198" lon="3.13448">
        <ele>812.5</ele>
        <time>2019-04-19T12:36:32Z</time>
      </trkpt>
      <trkpt lat="44.13201" lon="3.13447">
        <ele>812.5</ele>
        <time>2019-04-19T12:36:33Z</time>
      </trkpt>
      <trkpt lat="44.13203" lon="3.13451">
        <ele>812.6</ele>
        <time>2019-04-19T12:36:40Z</time>
      </trkpt>
      <trkpt lat="44.13203" lon="3.13454">
        <ele>812.6</ele>
        <time>2019-04-19T12:36:45Z</time>
      </trkpt>
      <trkpt lat="44.13209" lon="3.13457">
        <ele>812.7</ele>
        <time>2019-04-19T12:38:38Z</time>
      </trkpt>
      <trkpt lat="44.13212" lon="3.13457">
        <ele>812.8</ele>
        <time>2019-04-19T12:38:41Z</time>
      </trkpt>
      <trkpt lat="44.13214" lon="3.13455">
        <ele>812.9</ele>
        <time>2019-04-19T12:38:43Z</time>
      </trkpt>
      <trkpt lat="44.1322" lon="3.13452">
        <ele>813</ele>
        <time>2019-04-19T12:38:45Z</time>
      </trkpt>
      <trkpt lat="44.13222" lon="3.13452">
        <ele>813.1</ele>
        <time>2019-04-19T12:38:46Z</time>
      </trkpt>
      <trkpt lat="44.13227" lon="3.1345">
        <ele>813.2</ele>
        <time>2019-04-19T12:38:48Z</time>
      </trkpt>
      <trkpt lat="44.13233" lon="3.13451">
        <ele>813.4</ele>
        <time>2019-04-19T12:38:50Z</time>
      </trkpt>
      <trkpt lat="44.13238" lon="3.13453">
        <ele>813.6</ele>
        <time>2019-04-19T12:38:52Z</time>
      </trkpt>
      <trkpt lat="44.1324" lon="3.13453">
        <ele>813.7</ele>
        <time>2019-04-19T12:38:53Z</time>
      </trkpt>
      <trkpt lat="44.13244" lon="3.13452">
        <ele>813.8</ele>
        <time>2019-04-19T12:38:54Z</time>
      </trkpt>
      <trkpt lat="44.13247" lon="3.13451">
        <ele>814.1</ele>
        <time>2019-04-19T12:38:55Z</time>
      </trkpt>
      <trkpt lat="44.13251" lon="3.13449">
        <ele>814.3</ele>
        <time>2019-04-19T12:38:56Z</time>
      </trkpt>
      <trkpt lat="44.13254" lon="3.13448">
        <ele>814.5</ele>
        <time>2019-04-19T12:38:57Z</time>
      </trkpt>
      <trkpt lat="44.13258" lon="3.13447">
        <ele>814.7</ele>
        <time>2019-04-19T12:38:58Z</time>
      </trkpt>
      <trkpt lat="44.13262" lon="3.13447">
        <ele>814.9</ele>
        <time>2019-04-19T12:38:59Z</time>
      </trkpt>
      <trkpt lat="44.13265" lon="3.13446">
        <ele>815.2</ele>
        <time>2019-04-19T12:39:00Z</time>
      </trkpt>
      <trkpt lat="44.13268" lon="3.13446">
        <ele>815.4</ele>
        <time>2019-04-19T12:39:01Z</time>
      </trkpt>
      <trkpt lat="44.13273" lon="3.13445">
        <ele>815.6</ele>
        <time>2019-04-19T12:39:03Z</time>
      </trkpt>
      <trkpt lat="44.13278" lon="3.13443">
        <ele>815.8</ele>
        <time>2019-04-19T12:39:05Z</time>
      </trkpt>
      <trkpt lat="44.13282" lon="3.13443">
        <ele>816</ele>
        <time>2019-04-19T12:39:06Z</time>
      </trkpt>
      <trkpt lat="44.13286" lon="3.13442">
        <ele>816.1</ele>
        <time>2019-04-19T12:39:07Z</time>
      </trkpt>
      <trkpt lat="44.13291" lon="3.13441">
        <ele>816.3</ele>
        <time>2019-04-19T12:39:09Z</time>
      </trkpt>
      <trkpt lat="44.13294" lon="3.13441">
        <ele>816.4</ele>
        <time>2019-04-19T12:39:10Z</time>
      </trkpt>
      <trkpt lat="44.13297" lon="3.1344">
        <ele>816.5</ele>
        <time>2019-04-19T12:39:11Z</time>
      </trkpt>
      <trkpt lat="44.13302" lon="3.13438">
        <ele>816.7</ele>
        <time>2019-04-19T12:39:13Z</time>
      </trkpt>
      <trkpt lat="44.13306" lon="3.13435">
        <ele>816.9</ele>
        <time>2019-04-19T12:39:15Z</time>
      </trkpt>
      <trkpt lat="44.13309" lon="3.13433">
        <ele>817</ele>
        <time>2019-04-19T12:39:16Z</time>
      </trkpt>
      <trkpt lat="44.13312" lon="3.13431">
        <ele>817.2</ele>
        <time>2019-04-19T12:39:17Z</time>
      </trkpt>
      <trkpt lat="44.13315" lon="3.13428">
        <ele>817.5</ele>
        <time>2019-04-19T12:39:18Z</time>
      </trkpt>
      <trkpt lat="44.13318" lon="3.13427">
        <ele>817.7</ele>
        <time>2019-04-19T12:39:19Z</time>
      </trkpt>
      <trkpt lat="44.13321" lon="3.13426">
        <ele>817.8</ele>
        <time>2019-04-19T12:39:20Z</time>
      </trkpt>
      <trkpt lat="44.13325" lon="3.13425">
        <ele>818</ele>
        <time>2019-04-19T12:39:21Z</time>
      </trkpt>
      <trkpt lat="44.13328" lon="3.13424">
        <ele>818.2</ele>
        <time>2019-04-19T12:39:22Z</time>
      </trkpt>
      <trkpt lat="44.13334" lon="3.13425">
        <ele>818.8</ele>
        <time>2019-04-19T12:39:24Z</time>
      </trkpt>
      <trkpt lat="44.13337" lon="3.13426">
        <ele>819</ele>
        <time>2019-04-19T12:39:25Z</time>
      </trkpt>
      <trkpt lat="44.1334" lon="3.13426">
        <ele>819.2</ele>
        <time>2019-04-19T12:39:26Z</time>
      </trkpt>
      <trkpt lat="44.13343" lon="3.13427">
        <ele>819.4</ele>
        <time>2019-04-19T12:39:27Z</time>
      </trkpt>
      <trkpt lat="44.13347" lon="3.13428">
        <ele>819.6</ele>
        <time>2019-04-19T12:39:29Z</time>
      </trkpt>
      <trkpt lat="44.1335" lon="3.13432">
        <ele>819.9</ele>
        <time>2019-04-19T12:39:31Z</time>
      </trkpt>
      <trkpt lat="44.13354" lon="3.13434">
        <ele>820.2</ele>
        <time>2019-04-19T12:39:33Z</time>
      </trkpt>
      <trkpt lat="44.13357" lon="3.13433">
        <ele>820.4</ele>
        <time>2019-04-19T12:39:34Z</time>
      </trkpt>
      <trkpt lat="44.13361" lon="3.13433">
        <ele>820.6</ele>
        <time>2019-04-19T12:39:35Z</time>
      </trkpt>
      <trkpt lat="44.13365" lon="3.13432">
        <ele>820.9</ele>
        <time>2019-04-19T12:39:37Z</time>
      </trkpt>
      <trkpt lat="44.13369" lon="3.13434">
        <ele>821.1</ele>
        <time>2019-04-19T12:39:39Z</time>
      </trkpt>
      <trkpt lat="44.13372" lon="3.13436">
        <ele>821.4</ele>
        <time>2019-04-19T12:39:41Z</time>
      </trkpt>
      <trkpt lat="44.13377" lon="3.13439">
        <ele>821.8</ele>
        <time>2019-04-19T12:39:43Z</time>
      </trkpt>
      <trkpt lat="44.13379" lon="3.13441">
        <ele>822.1</ele>
        <time>2019-04-19T12:39:44Z</time>
      </trkpt>
      <trkpt lat="44.13382" lon="3.13444">
        <ele>822.4</ele>
        <time>2019-04-19T12:39:45Z</time>
      </trkpt>
      <trkpt lat="44.13384" lon="3.13448">
        <ele>822.7</ele>
        <time>2019-04-19T12:39:46Z</time>
      </trkpt>
      <trkpt lat="44.13386" lon="3.13452">
        <ele>823</ele>
        <time>2019-04-19T12:39:47Z</time>
      </trkpt>
      <trkpt lat="44.13388" lon="3.13455">
        <ele>823.3</ele>
        <time>2019-04-19T12:39:48Z</time>
      </trkpt>
      <trkpt lat="44.13391" lon="3.13459">
        <ele>823.6</ele>
        <time>2019-04-19T12:39:49Z</time>
      </trkpt>
      <trkpt lat="44.13393" lon="3.13463">
        <ele>824</ele>
        <time>2019-04-19T12:39:50Z</time>
      </trkpt>
      <trkpt lat="44.13396" lon="3.13466">
        <ele>823.9</ele>
        <time>2019-04-19T12:39:51Z</time>
      </trkpt>
      <trkpt lat="44.134" lon="3.13469">
        <ele>823.7</ele>
        <time>2019-04-19T12:39:52Z</time>
      </trkpt>
      <trkpt lat="44.13404" lon="3.13473">
        <ele>823.4</ele>
        <time>2019-04-19T12:39:53Z</time>
      </trkpt>
      <trkpt lat="44.13408" lon="3.13476">
        <ele>823.2</ele>
        <time>2019-04-19T12:39:54Z</time>
      </trkpt>
      <trkpt lat="44.13412" lon="3.13479">
        <ele>823</ele>
        <time>2019-04-19T12:39:55Z</time>
      </trkpt>
      <trkpt lat="44.13416" lon="3.13481">
        <ele>822.9</ele>
        <time>2019-04-19T12:39:56Z</time>
      </trkpt>
      <trkpt lat="44.13419" lon="3.13483">
        <ele>822.7</ele>
        <time>2019-04-19T12:39:57Z</time>
      </trkpt>
      <trkpt lat="44.13423" lon="3.13486">
        <ele>822.6</ele>
        <time>2019-04-19T12:39:58Z</time>
      </trkpt>
      <trkpt lat="44.13427" lon="3.13488">
        <ele>822.5</ele>
        <time>2019-04-19T12:39:59Z</time>
      </trkpt>
      <trkpt lat="44.13431" lon="3.13491">
        <ele>822.5</ele>
        <time>2019-04-19T12:40:00Z</time>
      </trkpt>
      <trkpt lat="44.13434" lon="3.13493">
        <ele>822.5</ele>
        <time>2019-04-19T12:40:01Z</time>
      </trkpt>
      <trkpt lat="44.13437" lon="3.13494">
        <ele>822.5</ele>
        <time>2019-04-19T12:40:02Z</time>
      </trkpt>
      <trkpt lat="44.1344" lon="3.13496">
        <ele>822.5</ele>
        <time>2019-04-19T12:40:03Z</time>
      </trkpt>
      <trkpt lat="44.13443" lon="3.13498">
        <ele>822.6</ele>
        <time>2019-04-19T12:40:04Z</time>
      </trkpt>
      <trkpt lat="44.13446" lon="3.135">
        <ele>822.7</ele>
        <time>2019-04-19T12:40:05Z</time>
      </trkpt>
      <trkpt lat="44.1345" lon="3.13503">
        <ele>822.8</ele>
        <time>2019-04-19T12:40:06Z</time>
      </trkpt>
      <trkpt lat="44.13454" lon="3.13506">
        <ele>823</ele>
        <time>2019-04-19T12:40:07Z</time>
      </trkpt>
      <trkpt lat="44.13459" lon="3.1351">
        <ele>823.3</ele>
        <time>2019-04-19T12:40:08Z</time>
      </trkpt>
      <trkpt lat="44.13464" lon="3.13513">
        <ele>823.5</ele>
        <time>2019-04-19T12:40:09Z</time>
      </trkpt>
      <trkpt lat="44.13469" lon="3.13515">
        <ele>823.7</ele>
        <time>2019-04-19T12:40:10Z</time>
      </trkpt>
      <trkpt lat="44.13476" lon="3.13517">
        <ele>823.8</ele>
        <time>2019-04-19T12:40:11Z</time>
      </trkpt>
      <trkpt lat="44.13482" lon="3.13518">
        <ele>823.8</ele>
        <time>2019-04-19T12:40:12Z</time>
      </trkpt>
      <trkpt lat="44.13487" lon="3.13518">
        <ele>823.9</ele>
        <time>2019-04-19T12:40:13Z</time>
      </trkpt>
      <trkpt lat="44.13493" lon="3.13517">
        <ele>823.8</ele>
        <time>2019-04-19T12:40:14Z</time>
      </trkpt>
      <trkpt lat="44.13498" lon="3.13516">
        <ele>823.8</ele>
        <time>2019-04-19T12:40:15Z</time>
      </trkpt>
      <trkpt lat="44.13504" lon="3.13515">
        <ele>823.7</ele>
        <time>2019-04-19T12:40:16Z</time>
      </trkpt>
      <trkpt lat="44.13509" lon="3.13514">
        <ele>823.6</ele>
        <time>2019-04-19T12:40:17Z</time>
      </trkpt>
      <trkpt lat="44.13514" lon="3.13513">
        <ele>823.4</ele>
        <time>2019-04-19T12:40:18Z</time>
      </trkpt>
      <trkpt lat="44.13518" lon="3.13514">
        <ele>823.2</ele>
        <time>2019-04-19T12:40:19Z</time>
      </trkpt>
      <trkpt lat="44.13523" lon="3.13515">
        <ele>823</ele>
        <time>2019-04-19T12:40:20Z</time>
      </trkpt>
      <trkpt lat="44.13528" lon="3.13516">
        <ele>822.9</ele>
        <time>2019-04-19T12:40:21Z</time>
      </trkpt>
      <trkpt lat="44.13532" lon="3.13515">
        <ele>822.7</ele>
        <time>2019-04-19T12:40:22Z</time>
      </trkpt>
      <trkpt lat="44.13536" lon="3.13513">
        <ele>822.6</ele>
        <time>2019-04-19T12:40:23Z</time>
      </trkpt>
      <trkpt lat="44.13541" lon="3.13511">
        <ele>822.6</ele>
        <time>2019-04-19T12:40:24Z</time>
      </trkpt>
      <trkpt lat="44.13545" lon="3.13508">
        <ele>822.6</ele>
        <time>2019-04-19T12:40:25Z</time>
      </trkpt>
      <trkpt lat="44.13549" lon="3.13505">
        <ele>822.6</ele>
        <time>2019-04-19T12:40:26Z</time>
      </trkpt>
      <trkpt lat="44.13552" lon="3.13502">
        <ele>822.7</ele>
        <time>2019-04-19T12:40:27Z</time>
      </trkpt>
      <trkpt lat="44.13555" lon="3.13499">
        <ele>822.7</ele>
        <time>2019-04-19T12:40:28Z</time>
      </trkpt>
      <trkpt lat="44.13558" lon="3.13496">
        <ele>822.8</ele>
        <time>2019-04-19T12:40:29Z</time>
      </trkpt>
      <trkpt lat="44.13561" lon="3.13494">
        <ele>822.9</ele>
        <time>2019-04-19T12:40:30Z</time>
      </trkpt>
      <trkpt lat="44.13564" lon="3.13491">
        <ele>822.9</ele>
        <time>2019-04-19T12:40:31Z</time>
      </trkpt>
      <trkpt lat="44.13567" lon="3.13489">
        <ele>823</ele>
        <time>2019-04-19T12:40:32Z</time>
      </trkpt>
      <trkpt lat="44.1357" lon="3.13487">
        <ele>823.1</ele>
        <time>2019-04-19T12:40:33Z</time>
      </trkpt>
      <trkpt lat="44.13573" lon="3.13484">
        <ele>823.3</ele>
        <time>2019-04-19T12:40:34Z</time>
      </trkpt>
      <trkpt lat="44.13576" lon="3.1348">
        <ele>823.4</ele>
        <time>2019-04-19T12:40:35Z</time>
      </trkpt>
      <trkpt lat="44.13579" lon="3.13478">
        <ele>823.5</ele>
        <time>2019-04-19T12:40:36Z</time>
      </trkpt>
      <trkpt lat="44.13582" lon="3.13475">
        <ele>823.6</ele>
        <time>2019-04-19T12:40:37Z</time>
      </trkpt>
      <trkpt lat="44.13585" lon="3.13473">
        <ele>823.7</ele>
        <time>2019-04-19T12:40:38Z</time>
      </trkpt>
      <trkpt lat="44.13588" lon="3.13472">
        <ele>823.8</ele>
        <time>2019-04-19T12:40:39Z</time>
      </trkpt>
      <trkpt lat="44.13591" lon="3.1347">
        <ele>823.9</ele>
        <time>2019-04-19T12:40:40Z</time>
      </trkpt>
      <trkpt lat="44.13594" lon="3.13468">
        <ele>824.1</ele>
        <time>2019-04-19T12:40:41Z</time>
      </trkpt>
      <trkpt lat="44.13597" lon="3.13465">
        <ele>824.3</ele>
        <time>2019-04-19T12:40:42Z</time>
      </trkpt>
      <trkpt lat="44.136" lon="3.13462">
        <ele>824.6</ele>
        <time>2019-04-19T12:40:43Z</time>
      </trkpt>
      <trkpt lat="44.13603" lon="3.13459">
        <ele>824.8</ele>
        <time>2019-04-19T12:40:44Z</time>
      </trkpt>
      <trkpt lat="44.13606" lon="3.13456">
        <ele>825</ele>
        <time>2019-04-19T12:40:45Z</time>
      </trkpt>
      <trkpt lat="44.1361" lon="3.13453">
        <ele>825.2</ele>
        <time>2019-04-19T12:40:46Z</time>
      </trkpt>
      <trkpt lat="44.13613" lon="3.1345">
        <ele>825.5</ele>
        <time>2019-04-19T12:40:47Z</time>
      </trkpt>
      <trkpt lat="44.13617" lon="3.13448">
        <ele>825.8</ele>
        <time>2019-04-19T12:40:48Z</time>
      </trkpt>
      <trkpt lat="44.1362" lon="3.13445">
        <ele>826</ele>
        <time>2019-04-19T12:40:49Z</time>
      </trkpt>
      <trkpt lat="44.13624" lon="3.13443">
        <ele>826.3</ele>
        <time>2019-04-19T12:40:50Z</time>
      </trkpt>
      <trkpt lat="44.13627" lon="3.13441">
        <ele>826.5</ele>
        <time>2019-04-19T12:40:51Z</time>
      </trkpt>
      <trkpt lat="44.1363" lon="3.13439">
        <ele>826.7</ele>
        <time>2019-04-19T12:40:52Z</time>
      </trkpt>
      <trkpt lat="44.13632" lon="3.13436">
        <ele>826.9</ele>
        <time>2019-04-19T12:40:53Z</time>
      </trkpt>
      <trkpt lat="44.13635" lon="3.13433">
        <ele>827.1</ele>
        <time>2019-04-19T12:40:54Z</time>
      </trkpt>
      <trkpt lat="44.13637" lon="3.13431">
        <ele>827.3</ele>
        <time>2019-04-19T12:40:55Z</time>
      </trkpt>
      <trkpt lat="44.13641" lon="3.13428">
        <ele>827.5</ele>
        <time>2019-04-19T12:40:56Z</time>
      </trkpt>
      <trkpt lat="44.13644" lon="3.13427">
        <ele>827.7</ele>
        <time>2019-04-19T12:40:57Z</time>
      </trkpt>
      <trkpt lat="44.13647" lon="3.13425">
        <ele>828</ele>
        <time>2019-04-19T12:40:58Z</time>
      </trkpt>
      <trkpt lat="44.13651" lon="3.13423">
        <ele>828.2</ele>
        <time>2019-04-19T12:40:59Z</time>
      </trkpt>
      <trkpt lat="44.13654" lon="3.13421">
        <ele>828.5</ele>
        <time>2019-04-19T12:41:00Z</time>
      </trkpt>
      <trkpt lat="44.13657" lon="3.13419">
        <ele>828.7</ele>
        <time>2019-04-19T12:41:01Z</time>
      </trkpt>
      <trkpt lat="44.1366" lon="3.13416">
        <ele>828.9</ele>
        <time>2019-04-19T12:41:02Z</time>
      </trkpt>
      <trkpt lat="44.13663" lon="3.13414">
        <ele>829.2</ele>
        <time>2019-04-19T12:41:03Z</time>
      </trkpt>
      <trkpt lat="44.13666" lon="3.13412">
        <ele>829.6</ele>
        <time>2019-04-19T12:41:04Z</time>
      </trkpt>
      <trkpt lat="44.13669" lon="3.1341">
        <ele>829.8</ele>
        <time>2019-04-19T12:41:05Z</time>
      </trkpt>
      <trkpt lat="44.13672" lon="3.13408">
        <ele>830</ele>
        <time>2019-04-19T12:41:06Z</time>
      </trkpt>
      <trkpt lat="44.13676" lon="3.13406">
        <ele>830.1</ele>
        <time>2019-04-19T12:41:07Z</time>
      </trkpt>
      <trkpt lat="44.13679" lon="3.13403">
        <ele>830.3</ele>
        <time>2019-04-19T12:41:08Z</time>
      </trkpt>
      <trkpt lat="44.13682" lon="3.13402">
        <ele>830.5</ele>
        <time>2019-04-19T12:41:09Z</time>
      </trkpt>
      <trkpt lat="44.13685" lon="3.134">
        <ele>830.7</ele>
        <time>2019-04-19T12:41:10Z</time>
      </trkpt>
      <trkpt lat="44.13688" lon="3.13398">
        <ele>830.9</ele>
        <time>2019-04-19T12:41:11Z</time>
      </trkpt>
      <trkpt lat="44.13691" lon="3.13396">
        <ele>831</ele>
        <time>2019-04-19T12:41:12Z</time>
      </trkpt>
      <trkpt lat="44.13693" lon="3.13394">
        <ele>831.2</ele>
        <time>2019-04-19T12:41:13Z</time>
      </trkpt>
      <trkpt lat="44.13696" lon="3.13392">
        <ele>831.4</ele>
        <time>2019-04-19T12:41:14Z</time>
      </trkpt>
      <trkpt lat="44.13701" lon="3.13389">
        <ele>831.7</ele>
        <time>2019-04-19T12:41:16Z</time>
      </trkpt>
      <trkpt lat="44.13704" lon="3.13387">
        <ele>831.9</ele>
        <time>2019-04-19T12:41:17Z</time>
      </trkpt>
      <trkpt lat="44.13707" lon="3.13385">
        <ele>832.1</ele>
        <time>2019-04-19T12:41:18Z</time>
      </trkpt>
      <trkpt lat="44.1371" lon="3.13383">
        <ele>832.4</ele>
        <time>2019-04-19T12:41:19Z</time>
      </trkpt>
      <trkpt lat="44.13712" lon="3.1338">
        <ele>832.6</ele>
        <time>2019-04-19T12:41:20Z</time>
      </trkpt>
      <trkpt lat="44.13715" lon="3.13377">
        <ele>832.8</ele>
        <time>2019-04-19T12:41:21Z</time>
      </trkpt>
      <trkpt lat="44.13717" lon="3.13374">
        <ele>833</ele>
        <time>2019-04-19T12:41:22Z</time>
      </trkpt>
      <trkpt lat="44.1372" lon="3.13372">
        <ele>833.3</ele>
        <time>2019-04-19T12:41:23Z</time>
      </trkpt>
      <trkpt lat="44.13723" lon="3.13369">
        <ele>833.7</ele>
        <time>2019-04-19T12:41:24Z</time>
      </trkpt>
      <trkpt lat="44.13726" lon="3.13367">
        <ele>834</ele>
        <time>2019-04-19T12:41:25Z</time>
      </trkpt>
      <trkpt lat="44.13728" lon="3.13365">
        <ele>834.2</ele>
        <time>2019-04-19T12:41:26Z</time>
      </trkpt>
      <trkpt lat="44.13731" lon="3.13364">
        <ele>834.5</ele>
        <time>2019-04-19T12:41:27Z</time>
      </trkpt>
      <trkpt lat="44.13735" lon="3.13361">
        <ele>834.9</ele>
        <time>2019-04-19T12:41:29Z</time>
      </trkpt>
      <trkpt lat="44.13738" lon="3.13359">
        <ele>835</ele>
        <time>2019-04-19T12:41:30Z</time>
      </trkpt>
      <trkpt lat="44.13741" lon="3.13357">
        <ele>835.2</ele>
        <time>2019-04-19T12:41:31Z</time>
      </trkpt>
      <trkpt lat="44.13743" lon="3.13355">
        <ele>835.4</ele>
        <time>2019-04-19T12:41:32Z</time>
      </trkpt>
      <trkpt lat="44.13746" lon="3.13353">
        <ele>835.5</ele>
        <time>2019-04-19T12:41:33Z</time>
      </trkpt>
      <trkpt lat="44.13751" lon="3.1335">
        <ele>835.9</ele>
        <time>2019-04-19T12:41:35Z</time>
      </trkpt>
      <trkpt lat="44.13753" lon="3.13348">
        <ele>836.1</ele>
        <time>2019-04-19T12:41:36Z</time>
      </trkpt>
      <trkpt lat="44.13756" lon="3.13346">
        <ele>836.3</ele>
        <time>2019-04-19T12:41:37Z</time>
      </trkpt>
      <trkpt lat="44.13759" lon="3.13344">
        <ele>836.5</ele>
        <time>2019-04-19T12:41:38Z</time>
      </trkpt>
      <trkpt lat="44.13761" lon="3.13342">
        <ele>836.7</ele>
        <time>2019-04-19T12:41:39Z</time>
      </trkpt>
      <trkpt lat="44.13764" lon="3.1334">
        <ele>836.9</ele>
        <time>2019-04-19T12:41:40Z</time>
      </trkpt>
      <trkpt lat="44.13768" lon="3.13337">
        <ele>837.2</ele>
        <time>2019-04-19T12:41:42Z</time>
      </trkpt>
      <trkpt lat="44.1377" lon="3.13334">
        <ele>837.4</ele>
        <time>2019-04-19T12:41:43Z</time>
      </trkpt>
      <trkpt lat="44.13775" lon="3.1333">
        <ele>837.7</ele>
        <time>2019-04-19T12:41:45Z</time>
      </trkpt>
      <trkpt lat="44.13777" lon="3.13328">
        <ele>837.8</ele>
        <time>2019-04-19T12:41:46Z</time>
      </trkpt>
      <trkpt lat="44.1378" lon="3.13326">
        <ele>838</ele>
        <time>2019-04-19T12:41:47Z</time>
      </trkpt>
      <trkpt lat="44.13784" lon="3.13323">
        <ele>838.3</ele>
        <time>2019-04-19T12:41:49Z</time>
      </trkpt>
      <trkpt lat="44.13787" lon="3.13321">
        <ele>838.6</ele>
        <time>2019-04-19T12:41:50Z</time>
      </trkpt>
      <trkpt lat="44.1379" lon="3.1332">
        <ele>838.8</ele>
        <time>2019-04-19T12:41:51Z</time>
      </trkpt>
      <trkpt lat="44.13795" lon="3.13316">
        <ele>839.3</ele>
        <time>2019-04-19T12:41:53Z</time>
      </trkpt>
      <trkpt lat="44.13797" lon="3.13315">
        <ele>839.5</ele>
        <time>2019-04-19T12:41:54Z</time>
      </trkpt>
      <trkpt lat="44.13802" lon="3.13311">
        <ele>839.9</ele>
        <time>2019-04-19T12:41:56Z</time>
      </trkpt>
      <trkpt lat="44.13804" lon="3.13308">
        <ele>840.2</ele>
        <time>2019-04-19T12:41:57Z</time>
      </trkpt>
      <trkpt lat="44.13807" lon="3.13306">
        <ele>840.3</ele>
        <time>2019-04-19T12:41:58Z</time>
      </trkpt>
      <trkpt lat="44.13809" lon="3.13303">
        <ele>840.5</ele>
        <time>2019-04-19T12:41:59Z</time>
      </trkpt>
      <trkpt lat="44.13811" lon="3.133">
        <ele>840.6</ele>
        <time>2019-04-19T12:42:00Z</time>
      </trkpt>
      <trkpt lat="44.13814" lon="3.13295">
        <ele>840.9</ele>
        <time>2019-04-19T12:42:02Z</time>
      </trkpt>
      <trkpt lat="44.13818" lon="3.1329">
        <ele>841.2</ele>
        <time>2019-04-19T12:42:04Z</time>
      </trkpt>
      <trkpt lat="44.13821" lon="3.13284">
        <ele>841.5</ele>
        <time>2019-04-19T12:42:06Z</time>
      </trkpt>
      <trkpt lat="44.13823" lon="3.13281">
        <ele>841.7</ele>
        <time>2019-04-19T12:42:07Z</time>
      </trkpt>
      <trkpt lat="44.13824" lon="3.13277">
        <ele>841.8</ele>
        <time>2019-04-19T12:42:08Z</time>
      </trkpt>
      <trkpt lat="44.13826" lon="3.13274">
        <ele>841.9</ele>
        <time>2019-04-19T12:42:09Z</time>
      </trkpt>
      <trkpt lat="44.13827" lon="3.1327">
        <ele>842</ele>
        <time>2019-04-19T12:42:10Z</time>
      </trkpt>
      <trkpt lat="44.13828" lon="3.13266">
        <ele>842.2</ele>
        <time>2019-04-19T12:42:11Z</time>
      </trkpt>
      <trkpt lat="44.13829" lon="3.13262">
        <ele>842.3</ele>
        <time>2019-04-19T12:42:12Z</time>
      </trkpt>
      <trkpt lat="44.1383" lon="3.13258">
        <ele>842.4</ele>
        <time>2019-04-19T12:42:13Z</time>
      </trkpt>
      <trkpt lat="44.13833" lon="3.13251">
        <ele>842.6</ele>
        <time>2019-04-19T12:42:15Z</time>
      </trkpt>
      <trkpt lat="44.13834" lon="3.13248">
        <ele>842.6</ele>
        <time>2019-04-19T12:42:16Z</time>
      </trkpt>
      <trkpt lat="44.13836" lon="3.13241">
        <ele>842.7</ele>
        <time>2019-04-19T12:42:18Z</time>
      </trkpt>
      <trkpt lat="44.13838" lon="3.13237">
        <ele>842.8</ele>
        <time>2019-04-19T12:42:19Z</time>
      </trkpt>
      <trkpt lat="44.13839" lon="3.13233">
        <ele>842.9</ele>
        <time>2019-04-19T12:42:20Z</time>
      </trkpt>
      <trkpt lat="44.1384" lon="3.13229">
        <ele>842.9</ele>
        <time>2019-04-19T12:42:21Z</time>
      </trkpt>
      <trkpt lat="44.13841" lon="3.13223">
        <ele>842.9</ele>
        <time>2019-04-19T12:42:22Z</time>
      </trkpt>
      <trkpt lat="44.13843" lon="3.13219">
        <ele>843</ele>
        <time>2019-04-19T12:42:23Z</time>
      </trkpt>
      <trkpt lat="44.13844" lon="3.13214">
        <ele>843</ele>
        <time>2019-04-19T12:42:24Z</time>
      </trkpt>
      <trkpt lat="44.13845" lon="3.13208">
        <ele>843</ele>
        <time>2019-04-19T12:42:25Z</time>
      </trkpt>
      <trkpt lat="44.13846" lon="3.13203">
        <ele>843</ele>
        <time>2019-04-19T12:42:26Z</time>
      </trkpt>
      <trkpt lat="44.13848" lon="3.13198">
        <ele>843</ele>
        <time>2019-04-19T12:42:27Z</time>
      </trkpt>
      <trkpt lat="44.13849" lon="3.13193">
        <ele>843</ele>
        <time>2019-04-19T12:42:28Z</time>
      </trkpt>
      <trkpt lat="44.1385" lon="3.13187">
        <ele>843</ele>
        <time>2019-04-19T12:42:29Z</time>
      </trkpt>
      <trkpt lat="44.13852" lon="3.13182">
        <ele>842.9</ele>
        <time>2019-04-19T12:42:30Z</time>
      </trkpt>
      <trkpt lat="44.13853" lon="3.13176">
        <ele>842.9</ele>
        <time>2019-04-19T12:42:31Z</time>
      </trkpt>
      <trkpt lat="44.13854" lon="3.1317">
        <ele>842.9</ele>
        <time>2019-04-19T12:42:32Z</time>
      </trkpt>
      <trkpt lat="44.13854" lon="3.13162">
        <ele>842.8</ele>
        <time>2019-04-19T12:42:33Z</time>
      </trkpt>
      <trkpt lat="44.13855" lon="3.13156">
        <ele>842.7</ele>
        <time>2019-04-19T12:42:34Z</time>
      </trkpt>
      <trkpt lat="44.13856" lon="3.13151">
        <ele>842.6</ele>
        <time>2019-04-19T12:42:35Z</time>
      </trkpt>
      <trkpt lat="44.13857" lon="3.13142">
        <ele>842.5</ele>
        <time>2019-04-19T12:42:36Z</time>
      </trkpt>
      <trkpt lat="44.13858" lon="3.13135">
        <ele>842.4</ele>
        <time>2019-04-19T12:42:37Z</time>
      </trkpt>
      <trkpt lat="44.13858" lon="3.13128">
        <ele>842</ele>
        <time>2019-04-19T12:42:38Z</time>
      </trkpt>
      <trkpt lat="44.13858" lon="3.13121">
        <ele>841.7</ele>
        <time>2019-04-19T12:42:39Z</time>
      </trkpt>
      <trkpt lat="44.13859" lon="3.13114">
        <ele>841.4</ele>
        <time>2019-04-19T12:42:40Z</time>
      </trkpt>
      <trkpt lat="44.13859" lon="3.13105">
        <ele>841</ele>
        <time>2019-04-19T12:42:41Z</time>
      </trkpt>
      <trkpt lat="44.13859" lon="3.13097">
        <ele>840.5</ele>
        <time>2019-04-19T12:42:42Z</time>
      </trkpt>
      <trkpt lat="44.13859" lon="3.1309">
        <ele>840.2</ele>
        <time>2019-04-19T12:42:43Z</time>
      </trkpt>
      <trkpt lat="44.13858" lon="3.13079">
        <ele>839.7</ele>
        <time>2019-04-19T12:42:44Z</time>
      </trkpt>
      <trkpt lat="44.13858" lon="3.13069">
        <ele>839.2</ele>
        <time>2019-04-19T12:42:45Z</time>
      </trkpt>
      <trkpt lat="44.13857" lon="3.1306">
        <ele>838.8</ele>
        <time>2019-04-19T12:42:46Z</time>
      </trkpt>
      <trkpt lat="44.13857" lon="3.13051">
        <ele>838.4</ele>
        <time>2019-04-19T12:42:47Z</time>
      </trkpt>
      <trkpt lat="44.13857" lon="3.13041">
        <ele>838.2</ele>
        <time>2019-04-19T12:42:48Z</time>
      </trkpt>
      <trkpt lat="44.13856" lon="3.13032">
        <ele>838</ele>
        <time>2019-04-19T12:42:49Z</time>
      </trkpt>
      <trkpt lat="44.13856" lon="3.13022">
        <ele>837.8</ele>
        <time>2019-04-19T12:42:50Z</time>
      </trkpt>
      <trkpt lat="44.13855" lon="3.13012">
        <ele>837.4</ele>
        <time>2019-04-19T12:42:51Z</time>
      </trkpt>
      <trkpt lat="44.13855" lon="3.13">
        <ele>837.1</ele>
        <time>2019-04-19T12:42:52Z</time>
      </trkpt>
      <trkpt lat="44.13856" lon="3.12988">
        <ele>836.7</ele>
        <time>2019-04-19T12:42:53Z</time>
      </trkpt>
      <trkpt lat="44.13855" lon="3.12977">
        <ele>836.4</ele>
        <time>2019-04-19T12:42:54Z</time>
      </trkpt>
      <trkpt lat="44.13854" lon="3.12966">
        <ele>835.9</ele>
        <time>2019-04-19T12:42:55Z</time>
      </trkpt>
      <trkpt lat="44.13854" lon="3.12954">
        <ele>835.7</ele>
        <time>2019-04-19T12:42:56Z</time>
      </trkpt>
      <trkpt lat="44.13853" lon="3.12943">
        <ele>835.4</ele>
        <time>2019-04-19T12:42:57Z</time>
      </trkpt>
      <trkpt lat="44.13852" lon="3.12933">
        <ele>835.2</ele>
        <time>2019-04-19T12:42:58Z</time>
      </trkpt>
      <trkpt lat="44.13852" lon="3.12922">
        <ele>835.1</ele>
        <time>2019-04-19T12:42:59Z</time>
      </trkpt>
      <trkpt lat="44.13851" lon="3.12912">
        <ele>835</ele>
        <time>2019-04-19T12:43:00Z</time>
      </trkpt>
      <trkpt lat="44.13852" lon="3.12905">
        <ele>835</ele>
        <time>2019-04-19T12:43:01Z</time>
      </trkpt>
      <trkpt lat="44.13854" lon="3.129">
        <ele>834.8</ele>
        <time>2019-04-19T12:43:02Z</time>
      </trkpt>
      <trkpt lat="44.1386" lon="3.12899">
        <ele>834.7</ele>
        <time>2019-04-19T12:43:03Z</time>
      </trkpt>
      <trkpt lat="44.13866" lon="3.12898">
        <ele>834.5</ele>
        <time>2019-04-19T12:43:04Z</time>
      </trkpt>
      <trkpt lat="44.1387" lon="3.12898">
        <ele>834.4</ele>
        <time>2019-04-19T12:43:05Z</time>
      </trkpt>
      <trkpt lat="44.13874" lon="3.12901">
        <ele>834.4</ele>
        <time>2019-04-19T12:43:06Z</time>
      </trkpt>
      <trkpt lat="44.13877" lon="3.12901">
        <ele>834.3</ele>
        <time>2019-04-19T12:43:07Z</time>
      </trkpt>
      <trkpt lat="44.13881" lon="3.12902">
        <ele>834.2</ele>
        <time>2019-04-19T12:43:08Z</time>
      </trkpt>
      <trkpt lat="44.13888" lon="3.12901">
        <ele>833.9</ele>
        <time>2019-04-19T12:43:10Z</time>
      </trkpt>
      <trkpt lat="44.13893" lon="3.129">
        <ele>833.4</ele>
        <time>2019-04-19T12:43:11Z</time>
      </trkpt>
      <trkpt lat="44.13896" lon="3.12901">
        <ele>833.4</ele>
        <time>2019-04-19T12:43:12Z</time>
      </trkpt>
      <trkpt lat="44.13901" lon="3.12904">
        <ele>833</ele>
        <time>2019-04-19T12:43:14Z</time>
      </trkpt>
      <trkpt lat="44.13905" lon="3.12907">
        <ele>833.1</ele>
        <time>2019-04-19T12:43:15Z</time>
      </trkpt>
      <trkpt lat="44.1391" lon="3.12913">
        <ele>833.2</ele>
        <time>2019-04-19T12:43:16Z</time>
      </trkpt>
      <trkpt lat="44.13914" lon="3.12911">
        <ele>833</ele>
        <time>2019-04-19T12:43:17Z</time>
      </trkpt>
      <trkpt lat="44.13917" lon="3.12913">
        <ele>833.2</ele>
        <time>2019-04-19T12:43:18Z</time>
      </trkpt>
      <trkpt lat="44.13923" lon="3.12911">
        <ele>832.5</ele>
        <time>2019-04-19T12:43:19Z</time>
      </trkpt>
      <trkpt lat="44.13928" lon="3.12908">
        <ele>832</ele>
        <time>2019-04-19T12:43:20Z</time>
      </trkpt>
      <trkpt lat="44.13934" lon="3.1291">
        <ele>832.1</ele>
        <time>2019-04-19T12:43:21Z</time>
      </trkpt>
      <trkpt lat="44.13937" lon="3.12915">
        <ele>832.4</ele>
        <time>2019-04-19T12:43:22Z</time>
      </trkpt>
      <trkpt lat="44.13943" lon="3.12914">
        <ele>832.1</ele>
        <time>2019-04-19T12:43:23Z</time>
      </trkpt>
      <trkpt lat="44.13948" lon="3.12912">
        <ele>831.2</ele>
        <time>2019-04-19T12:43:24Z</time>
      </trkpt>
      <trkpt lat="44.13951" lon="3.12911">
        <ele>830.9</ele>
        <time>2019-04-19T12:43:25Z</time>
      </trkpt>
      <trkpt lat="44.13957" lon="3.12912">
        <ele>830.5</ele>
        <time>2019-04-19T12:43:26Z</time>
      </trkpt>
      <trkpt lat="44.13961" lon="3.12911">
        <ele>830.2</ele>
        <time>2019-04-19T12:43:27Z</time>
      </trkpt>
      <trkpt lat="44.13964" lon="3.12914">
        <ele>830.4</ele>
        <time>2019-04-19T12:43:28Z</time>
      </trkpt>
      <trkpt lat="44.13969" lon="3.12917">
        <ele>829.8</ele>
        <time>2019-04-19T12:43:30Z</time>
      </trkpt>
      <trkpt lat="44.13974" lon="3.12921">
        <ele>829.9</ele>
        <time>2019-04-19T12:43:31Z</time>
      </trkpt>
      <trkpt lat="44.13979" lon="3.12923">
        <ele>829.6</ele>
        <time>2019-04-19T12:43:32Z</time>
      </trkpt>
      <trkpt lat="44.13984" lon="3.12922">
        <ele>829.3</ele>
        <time>2019-04-19T12:43:33Z</time>
      </trkpt>
      <trkpt lat="44.13987" lon="3.12923">
        <ele>829</ele>
        <time>2019-04-19T12:43:34Z</time>
      </trkpt>
      <trkpt lat="44.1399" lon="3.12923">
        <ele>828.7</ele>
        <time>2019-04-19T12:43:35Z</time>
      </trkpt>
      <trkpt lat="44.13994" lon="3.12924">
        <ele>828.2</ele>
        <time>2019-04-19T12:43:36Z</time>
      </trkpt>
      <trkpt lat="44.13999" lon="3.12926">
        <ele>827.9</ele>
        <time>2019-04-19T12:43:38Z</time>
      </trkpt>
      <trkpt lat="44.14003" lon="3.12927">
        <ele>828.1</ele>
        <time>2019-04-19T12:43:39Z</time>
      </trkpt>
      <trkpt lat="44.14006" lon="3.12928">
        <ele>827.6</ele>
        <time>2019-04-19T12:43:40Z</time>
      </trkpt>
      <trkpt lat="44.1401" lon="3.12929">
        <ele>827.4</ele>
        <time>2019-04-19T12:43:41Z</time>
      </trkpt>
      <trkpt lat="44.14014" lon="3.1293">
        <ele>827.9</ele>
        <time>2019-04-19T12:43:42Z</time>
      </trkpt>
      <trkpt lat="44.14018" lon="3.12932">
        <ele>827.7</ele>
        <time>2019-04-19T12:43:43Z</time>
      </trkpt>
      <trkpt lat="44.14023" lon="3.12933">
        <ele>827.3</ele>
        <time>2019-04-19T12:43:44Z</time>
      </trkpt>
      <trkpt lat="44.14029" lon="3.12935">
        <ele>827.6</ele>
        <time>2019-04-19T12:43:45Z</time>
      </trkpt>
      <trkpt lat="44.14036" lon="3.12937">
        <ele>827.2</ele>
        <time>2019-04-19T12:43:46Z</time>
      </trkpt>
      <trkpt lat="44.14042" lon="3.12938">
        <ele>826.8</ele>
        <time>2019-04-19T12:43:47Z</time>
      </trkpt>
      <trkpt lat="44.14048" lon="3.1294">
        <ele>826.8</ele>
        <time>2019-04-19T12:43:48Z</time>
      </trkpt>
      <trkpt lat="44.14053" lon="3.12941">
        <ele>826.2</ele>
        <time>2019-04-19T12:43:49Z</time>
      </trkpt>
      <trkpt lat="44.14059" lon="3.12941">
        <ele>825.6</ele>
        <time>2019-04-19T12:43:50Z</time>
      </trkpt>
      <trkpt lat="44.14064" lon="3.12941">
        <ele>825</ele>
        <time>2019-04-19T12:43:51Z</time>
      </trkpt>
      <trkpt lat="44.14068" lon="3.12941">
        <ele>824.8</ele>
        <time>2019-04-19T12:43:52Z</time>
      </trkpt>
      <trkpt lat="44.14072" lon="3.12941">
        <ele>824.6</ele>
        <time>2019-04-19T12:43:53Z</time>
      </trkpt>
      <trkpt lat="44.14075" lon="3.12941">
        <ele>824.4</ele>
        <time>2019-04-19T12:43:54Z</time>
      </trkpt>
      <trkpt lat="44.14078" lon="3.12941">
        <ele>824.3</ele>
        <time>2019-04-19T12:43:55Z</time>
      </trkpt>
      <trkpt lat="44.14083" lon="3.12942">
        <ele>824.1</ele>
        <time>2019-04-19T12:43:56Z</time>
      </trkpt>
      <trkpt lat="44.14086" lon="3.12942">
        <ele>824</ele>
        <time>2019-04-19T12:43:57Z</time>
      </trkpt>
      <trkpt lat="44.14089" lon="3.12942">
        <ele>823.9</ele>
        <time>2019-04-19T12:43:58Z</time>
      </trkpt>
      <trkpt lat="44.14096" lon="3.12943">
        <ele>823.9</ele>
        <time>2019-04-19T12:44:00Z</time>
      </trkpt>
      <trkpt lat="44.141" lon="3.12943">
        <ele>823.9</ele>
        <time>2019-04-19T12:44:01Z</time>
      </trkpt>
      <trkpt lat="44.14105" lon="3.12941">
        <ele>823.9</ele>
        <time>2019-04-19T12:44:02Z</time>
      </trkpt>
      <trkpt lat="44.14108" lon="3.12939">
        <ele>823.9</ele>
        <time>2019-04-19T12:44:03Z</time>
      </trkpt>
      <trkpt lat="44.14112" lon="3.12937">
        <ele>823.5</ele>
        <time>2019-04-19T12:44:04Z</time>
      </trkpt>
      <trkpt lat="44.14115" lon="3.12937">
        <ele>823.5</ele>
        <time>2019-04-19T12:44:05Z</time>
      </trkpt>
      <trkpt lat="44.14117" lon="3.12936">
        <ele>823.5</ele>
        <time>2019-04-19T12:44:06Z</time>
      </trkpt>
      <trkpt lat="44.14121" lon="3.12936">
        <ele>823.5</ele>
        <time>2019-04-19T12:44:07Z</time>
      </trkpt>
      <trkpt lat="44.14124" lon="3.12936">
        <ele>823.6</ele>
        <time>2019-04-19T12:44:08Z</time>
      </trkpt>
      <trkpt lat="44.14129" lon="3.12936">
        <ele>823.6</ele>
        <time>2019-04-19T12:44:09Z</time>
      </trkpt>
      <trkpt lat="44.14133" lon="3.12936">
        <ele>823.7</ele>
        <time>2019-04-19T12:44:10Z</time>
      </trkpt>
      <trkpt lat="44.14138" lon="3.12937">
        <ele>823.8</ele>
        <time>2019-04-19T12:44:11Z</time>
      </trkpt>
      <trkpt lat="44.14142" lon="3.12938">
        <ele>823.8</ele>
        <time>2019-04-19T12:44:12Z</time>
      </trkpt>
      <trkpt lat="44.14145" lon="3.12939">
        <ele>824.4</ele>
        <time>2019-04-19T12:44:13Z</time>
      </trkpt>
      <trkpt lat="44.14149" lon="3.12942">
        <ele>824.4</ele>
        <time>2019-04-19T12:44:15Z</time>
      </trkpt>
      <trkpt lat="44.14154" lon="3.12947">
        <ele>825.6</ele>
        <time>2019-04-19T12:44:17Z</time>
      </trkpt>
      <trkpt lat="44.14158" lon="3.12951">
        <ele>825.6</ele>
        <time>2019-04-19T12:44:18Z</time>
      </trkpt>
      <trkpt lat="44.14162" lon="3.12955">
        <ele>826.2</ele>
        <time>2019-04-19T12:44:19Z</time>
      </trkpt>
      <trkpt lat="44.14166" lon="3.12959">
        <ele>826.7</ele>
        <time>2019-04-19T12:44:20Z</time>
      </trkpt>
      <trkpt lat="44.1417" lon="3.12962">
        <ele>827.3</ele>
        <time>2019-04-19T12:44:21Z</time>
      </trkpt>
      <trkpt lat="44.14173" lon="3.12964">
        <ele>827.3</ele>
        <time>2019-04-19T12:44:22Z</time>
      </trkpt>
      <trkpt lat="44.14176" lon="3.12967">
        <ele>827.8</ele>
        <time>2019-04-19T12:44:23Z</time>
      </trkpt>
      <trkpt lat="44.14181" lon="3.12971">
        <ele>828.4</ele>
        <time>2019-04-19T12:44:24Z</time>
      </trkpt>
      <trkpt lat="44.14185" lon="3.12973">
        <ele>828.4</ele>
        <time>2019-04-19T12:44:25Z</time>
      </trkpt>
      <trkpt lat="44.14189" lon="3.12973">
        <ele>828.9</ele>
        <time>2019-04-19T12:44:26Z</time>
      </trkpt>
      <trkpt lat="44.14193" lon="3.12974">
        <ele>828.8</ele>
        <time>2019-04-19T12:44:27Z</time>
      </trkpt>
      <trkpt lat="44.14197" lon="3.12973">
        <ele>828.7</ele>
        <time>2019-04-19T12:44:28Z</time>
      </trkpt>
      <trkpt lat="44.14201" lon="3.12974">
        <ele>828.5</ele>
        <time>2019-04-19T12:44:29Z</time>
      </trkpt>
      <trkpt lat="44.14206" lon="3.12976">
        <ele>828.2</ele>
        <time>2019-04-19T12:44:30Z</time>
      </trkpt>
      <trkpt lat="44.14211" lon="3.12978">
        <ele>828.6</ele>
        <time>2019-04-19T12:44:31Z</time>
      </trkpt>
      <trkpt lat="44.14216" lon="3.1298">
        <ele>828.2</ele>
        <time>2019-04-19T12:44:32Z</time>
      </trkpt>
      <trkpt lat="44.1422" lon="3.12981">
        <ele>828</ele>
        <time>2019-04-19T12:44:33Z</time>
      </trkpt>
      <trkpt lat="44.14225" lon="3.12982">
        <ele>828.1</ele>
        <time>2019-04-19T12:44:34Z</time>
      </trkpt>
      <trkpt lat="44.14236" lon="3.12982">
        <ele>826.9</ele>
        <time>2019-04-19T12:44:35Z</time>
      </trkpt>
      <trkpt lat="44.14244" lon="3.12981">
        <ele>826</ele>
        <time>2019-04-19T12:44:36Z</time>
      </trkpt>
      <trkpt lat="44.14251" lon="3.12978">
        <ele>825.3</ele>
        <time>2019-04-19T12:44:37Z</time>
      </trkpt>
      <trkpt lat="44.14256" lon="3.12978">
        <ele>824.4</ele>
        <time>2019-04-19T12:44:38Z</time>
      </trkpt>
      <trkpt lat="44.14264" lon="3.12978">
        <ele>823.4</ele>
        <time>2019-04-19T12:44:39Z</time>
      </trkpt>
      <trkpt lat="44.1427" lon="3.12979">
        <ele>822.5</ele>
        <time>2019-04-19T12:44:40Z</time>
      </trkpt>
      <trkpt lat="44.14275" lon="3.12977">
        <ele>821.2</ele>
        <time>2019-04-19T12:44:41Z</time>
      </trkpt>
      <trkpt lat="44.14283" lon="3.12972">
        <ele>818.8</ele>
        <time>2019-04-19T12:44:42Z</time>
      </trkpt>
      <trkpt lat="44.14292" lon="3.12973">
        <ele>817.8</ele>
        <time>2019-04-19T12:44:43Z</time>
      </trkpt>
      <trkpt lat="44.14301" lon="3.12973">
        <ele>816.4</ele>
        <time>2019-04-19T12:44:44Z</time>
      </trkpt>
      <trkpt lat="44.14309" lon="3.12968">
        <ele>814.7</ele>
        <time>2019-04-19T12:44:45Z</time>
      </trkpt>
      <trkpt lat="44.14317" lon="3.12962">
        <ele>813.6</ele>
        <time>2019-04-19T12:44:46Z</time>
      </trkpt>
      <trkpt lat="44.14323" lon="3.12956">
        <ele>812</ele>
        <time>2019-04-19T12:44:47Z</time>
      </trkpt>
      <trkpt lat="44.1433" lon="3.12954">
        <ele>810.7</ele>
        <time>2019-04-19T12:44:48Z</time>
      </trkpt>
      <trkpt lat="44.14335" lon="3.12954">
        <ele>810.1</ele>
        <time>2019-04-19T12:44:49Z</time>
      </trkpt>
      <trkpt lat="44.1434" lon="3.12954">
        <ele>809.1</ele>
        <time>2019-04-19T12:44:50Z</time>
      </trkpt>
      <trkpt lat="44.14344" lon="3.12951">
        <ele>808.3</ele>
        <time>2019-04-19T12:44:51Z</time>
      </trkpt>
      <trkpt lat="44.14351" lon="3.12949">
        <ele>807.3</ele>
        <time>2019-04-19T12:44:52Z</time>
      </trkpt>
      <trkpt lat="44.14356" lon="3.12946">
        <ele>806.1</ele>
        <time>2019-04-19T12:44:53Z</time>
      </trkpt>
      <trkpt lat="44.14363" lon="3.12939">
        <ele>804.8</ele>
        <time>2019-04-19T12:44:54Z</time>
      </trkpt>
      <trkpt lat="44.14369" lon="3.12935">
        <ele>803.6</ele>
        <time>2019-04-19T12:44:55Z</time>
      </trkpt>
      <trkpt lat="44.14375" lon="3.1293">
        <ele>802</ele>
        <time>2019-04-19T12:44:56Z</time>
      </trkpt>
      <trkpt lat="44.14377" lon="3.12934">
        <ele>802</ele>
        <time>2019-04-19T12:44:57Z</time>
      </trkpt>
      <trkpt lat="44.14383" lon="3.1293">
        <ele>800.8</ele>
        <time>2019-04-19T12:44:58Z</time>
      </trkpt>
      <trkpt lat="44.14385" lon="3.12926">
        <ele>800</ele>
        <time>2019-04-19T12:45:01Z</time>
      </trkpt>
      <trkpt lat="44.14389" lon="3.12929">
        <ele>800</ele>
        <time>2019-04-19T12:45:28Z</time>
      </trkpt>
      <trkpt lat="44.1439" lon="3.12934">
        <ele>800.4</ele>
        <time>2019-04-19T12:45:30Z</time>
      </trkpt>
      <trkpt lat="44.14391" lon="3.12938">
        <ele>800.4</ele>
        <time>2019-04-19T12:45:31Z</time>
      </trkpt>
      <trkpt lat="44.14392" lon="3.12943">
        <ele>800.8</ele>
        <time>2019-04-19T12:45:32Z</time>
      </trkpt>
      <trkpt lat="44.14393" lon="3.12947">
        <ele>801.4</ele>
        <time>2019-04-19T12:45:33Z</time>
      </trkpt>
      <trkpt lat="44.14395" lon="3.12953">
        <ele>801.4</ele>
        <time>2019-04-19T12:45:35Z</time>
      </trkpt>
      <trkpt lat="44.14396" lon="3.12957">
        <ele>801.8</ele>
        <time>2019-04-19T12:45:39Z</time>
      </trkpt>
      <trkpt lat="44.14397" lon="3.12964">
        <ele>802.3</ele>
        <time>2019-04-19T12:45:41Z</time>
      </trkpt>
      <trkpt lat="44.14397" lon="3.12968">
        <ele>802.6</ele>
        <time>2019-04-19T12:45:42Z</time>
      </trkpt>
      <trkpt lat="44.14396" lon="3.12972">
        <ele>802.9</ele>
        <time>2019-04-19T12:45:43Z</time>
      </trkpt>
      <trkpt lat="44.14396" lon="3.12976">
        <ele>803.2</ele>
        <time>2019-04-19T12:45:44Z</time>
      </trkpt>
      <trkpt lat="44.14396" lon="3.1298">
        <ele>803.5</ele>
        <time>2019-04-19T12:45:45Z</time>
      </trkpt>
      <trkpt lat="44.14397" lon="3.12984">
        <ele>803.8</ele>
        <time>2019-04-19T12:45:46Z</time>
      </trkpt>
      <trkpt lat="44.14397" lon="3.12988">
        <ele>804.1</ele>
        <time>2019-04-19T12:45:47Z</time>
      </trkpt>
      <trkpt lat="44.14397" lon="3.12993">
        <ele>804.4</ele>
        <time>2019-04-19T12:45:48Z</time>
      </trkpt>
      <trkpt lat="44.14397" lon="3.12997">
        <ele>804.6</ele>
        <time>2019-04-19T12:45:49Z</time>
      </trkpt>
      <trkpt lat="44.14397" lon="3.13001">
        <ele>804.8</ele>
        <time>2019-04-19T12:45:50Z</time>
      </trkpt>
      <trkpt lat="44.14397" lon="3.13005">
        <ele>805</ele>
        <time>2019-04-19T12:45:51Z</time>
      </trkpt>
      <trkpt lat="44.14397" lon="3.1301">
        <ele>805.3</ele>
        <time>2019-04-19T12:45:52Z</time>
      </trkpt>
      <trkpt lat="44.14398" lon="3.13014">
        <ele>805.5</ele>
        <time>2019-04-19T12:45:53Z</time>
      </trkpt>
      <trkpt lat="44.14399" lon="3.13019">
        <ele>805.7</ele>
        <time>2019-04-19T12:45:54Z</time>
      </trkpt>
      <trkpt lat="44.14399" lon="3.13025">
        <ele>805.9</ele>
        <time>2019-04-19T12:45:55Z</time>
      </trkpt>
      <trkpt lat="44.14399" lon="3.1303">
        <ele>806.1</ele>
        <time>2019-04-19T12:45:56Z</time>
      </trkpt>
      <trkpt lat="44.14399" lon="3.13035">
        <ele>806.2</ele>
        <time>2019-04-19T12:45:57Z</time>
      </trkpt>
      <trkpt lat="44.144" lon="3.13041">
        <ele>806.4</ele>
        <time>2019-04-19T12:45:58Z</time>
      </trkpt>
      <trkpt lat="44.14401" lon="3.13048">
        <ele>806.5</ele>
        <time>2019-04-19T12:45:59Z</time>
      </trkpt>
      <trkpt lat="44.14402" lon="3.13054">
        <ele>806.6</ele>
        <time>2019-04-19T12:46:00Z</time>
      </trkpt>
      <trkpt lat="44.14402" lon="3.1306">
        <ele>806.6</ele>
        <time>2019-04-19T12:46:01Z</time>
      </trkpt>
      <trkpt lat="44.14402" lon="3.13065">
        <ele>806.7</ele>
        <time>2019-04-19T12:46:02Z</time>
      </trkpt>
      <trkpt lat="44.14403" lon="3.1307">
        <ele>806.7</ele>
        <time>2019-04-19T12:46:03Z</time>
      </trkpt>
      <trkpt lat="44.14404" lon="3.13075">
        <ele>806.7</ele>
        <time>2019-04-19T12:46:04Z</time>
      </trkpt>
      <trkpt lat="44.14405" lon="3.13082">
        <ele>806.8</ele>
        <time>2019-04-19T12:46:05Z</time>
      </trkpt>
      <trkpt lat="44.14406" lon="3.13088">
        <ele>806.9</ele>
        <time>2019-04-19T12:46:06Z</time>
      </trkpt>
      <trkpt lat="44.14406" lon="3.13092">
        <ele>807</ele>
        <time>2019-04-19T12:46:07Z</time>
      </trkpt>
      <trkpt lat="44.14407" lon="3.13097">
        <ele>807.1</ele>
        <time>2019-04-19T12:46:08Z</time>
      </trkpt>
      <trkpt lat="44.14406" lon="3.13103">
        <ele>807.2</ele>
        <time>2019-04-19T12:46:09Z</time>
      </trkpt>
      <trkpt lat="44.14406" lon="3.13108">
        <ele>807.4</ele>
        <time>2019-04-19T12:46:10Z</time>
      </trkpt>
      <trkpt lat="44.14405" lon="3.13114">
        <ele>807.5</ele>
        <time>2019-04-19T12:46:11Z</time>
      </trkpt>
      <trkpt lat="44.14405" lon="3.13122">
        <ele>807.7</ele>
        <time>2019-04-19T12:46:12Z</time>
      </trkpt>
      <trkpt lat="44.14403" lon="3.13126">
        <ele>807.8</ele>
        <time>2019-04-19T12:46:13Z</time>
      </trkpt>
      <trkpt lat="44.14403" lon="3.13133">
        <ele>808</ele>
        <time>2019-04-19T12:46:14Z</time>
      </trkpt>
      <trkpt lat="44.14402" lon="3.13139">
        <ele>808</ele>
        <time>2019-04-19T12:46:15Z</time>
      </trkpt>
      <trkpt lat="44.14402" lon="3.13146">
        <ele>808</ele>
        <time>2019-04-19T12:46:16Z</time>
      </trkpt>
      <trkpt lat="44.144" lon="3.13153">
        <ele>808</ele>
        <time>2019-04-19T12:46:17Z</time>
      </trkpt>
      <trkpt lat="44.14399" lon="3.13159">
        <ele>807.9</ele>
        <time>2019-04-19T12:46:18Z</time>
      </trkpt>
      <trkpt lat="44.14399" lon="3.13167">
        <ele>807.6</ele>
        <time>2019-04-19T12:46:19Z</time>
      </trkpt>
      <trkpt lat="44.14398" lon="3.13173">
        <ele>807.4</ele>
        <time>2019-04-19T12:46:20Z</time>
      </trkpt>
      <trkpt lat="44.14397" lon="3.1318">
        <ele>807.1</ele>
        <time>2019-04-19T12:46:21Z</time>
      </trkpt>
      <trkpt lat="44.14397" lon="3.13187">
        <ele>806.8</ele>
        <time>2019-04-19T12:46:22Z</time>
      </trkpt>
      <trkpt lat="44.14395" lon="3.13193">
        <ele>806.7</ele>
        <time>2019-04-19T12:46:23Z</time>
      </trkpt>
      <trkpt lat="44.14394" lon="3.13198">
        <ele>806.6</ele>
        <time>2019-04-19T12:46:24Z</time>
      </trkpt>
      <trkpt lat="44.14392" lon="3.13205">
        <ele>806.5</ele>
        <time>2019-04-19T12:46:25Z</time>
      </trkpt>
      <trkpt lat="44.1439" lon="3.1321">
        <ele>806.4</ele>
        <time>2019-04-19T12:46:26Z</time>
      </trkpt>
      <trkpt lat="44.14389" lon="3.13213">
        <ele>806.4</ele>
        <time>2019-04-19T12:46:27Z</time>
      </trkpt>
      <trkpt lat="44.14387" lon="3.13216">
        <ele>806.4</ele>
        <time>2019-04-19T12:46:28Z</time>
      </trkpt>
      <trkpt lat="44.14386" lon="3.13222">
        <ele>806.3</ele>
        <time>2019-04-19T12:46:29Z</time>
      </trkpt>
      <trkpt lat="44.14385" lon="3.13226">
        <ele>806.4</ele>
        <time>2019-04-19T12:46:30Z</time>
      </trkpt>
      <trkpt lat="44.14384" lon="3.13232">
        <ele>806.4</ele>
        <time>2019-04-19T12:46:31Z</time>
      </trkpt>
      <trkpt lat="44.14381" lon="3.1324">
        <ele>806.6</ele>
        <time>2019-04-19T12:46:32Z</time>
      </trkpt>
      <trkpt lat="44.1438" lon="3.13245">
        <ele>806.8</ele>
        <time>2019-04-19T12:46:33Z</time>
      </trkpt>
      <trkpt lat="44.14379" lon="3.13249">
        <ele>806.9</ele>
        <time>2019-04-19T12:46:34Z</time>
      </trkpt>
      <trkpt lat="44.1438" lon="3.13253">
        <ele>807.1</ele>
        <time>2019-04-19T12:46:35Z</time>
      </trkpt>
      <trkpt lat="44.14377" lon="3.13259">
        <ele>807.4</ele>
        <time>2019-04-19T12:46:36Z</time>
      </trkpt>
      <trkpt lat="44.14379" lon="3.13264">
        <ele>807.7</ele>
        <time>2019-04-19T12:46:37Z</time>
      </trkpt>
      <trkpt lat="44.14378" lon="3.13269">
        <ele>807.9</ele>
        <time>2019-04-19T12:46:38Z</time>
      </trkpt>
      <trkpt lat="44.14377" lon="3.13273">
        <ele>808.2</ele>
        <time>2019-04-19T12:46:39Z</time>
      </trkpt>
      <trkpt lat="44.14375" lon="3.13278">
        <ele>808.5</ele>
        <time>2019-04-19T12:46:40Z</time>
      </trkpt>
      <trkpt lat="44.14377" lon="3.13285">
        <ele>808.9</ele>
        <time>2019-04-19T12:46:42Z</time>
      </trkpt>
      <trkpt lat="44.14377" lon="3.13288">
        <ele>809.1</ele>
        <time>2019-04-19T12:46:43Z</time>
      </trkpt>
      <trkpt lat="44.14377" lon="3.13293">
        <ele>809.4</ele>
        <time>2019-04-19T12:46:44Z</time>
      </trkpt>
      <trkpt lat="44.14377" lon="3.13297">
        <ele>809.7</ele>
        <time>2019-04-19T12:46:45Z</time>
      </trkpt>
      <trkpt lat="44.14377" lon="3.13301">
        <ele>810</ele>
        <time>2019-04-19T12:46:46Z</time>
      </trkpt>
      <trkpt lat="44.14377" lon="3.13305">
        <ele>810.2</ele>
        <time>2019-04-19T12:46:47Z</time>
      </trkpt>
      <trkpt lat="44.14378" lon="3.13309">
        <ele>810.4</ele>
        <time>2019-04-19T12:46:48Z</time>
      </trkpt>
      <trkpt lat="44.14378" lon="3.13313">
        <ele>810.6</ele>
        <time>2019-04-19T12:46:49Z</time>
      </trkpt>
      <trkpt lat="44.14379" lon="3.13317">
        <ele>810.9</ele>
        <time>2019-04-19T12:46:50Z</time>
      </trkpt>
      <trkpt lat="44.14379" lon="3.13321">
        <ele>811.1</ele>
        <time>2019-04-19T12:46:51Z</time>
      </trkpt>
      <trkpt lat="44.14378" lon="3.13325">
        <ele>811.4</ele>
        <time>2019-04-19T12:46:52Z</time>
      </trkpt>
      <trkpt lat="44.14378" lon="3.1333">
        <ele>811.6</ele>
        <time>2019-04-19T12:46:53Z</time>
      </trkpt>
      <trkpt lat="44.14378" lon="3.13334">
        <ele>811.9</ele>
        <time>2019-04-19T12:46:54Z</time>
      </trkpt>
      <trkpt lat="44.14379" lon="3.1334">
        <ele>812.2</ele>
        <time>2019-04-19T12:46:56Z</time>
      </trkpt>
      <trkpt lat="44.14379" lon="3.13346">
        <ele>812.6</ele>
        <time>2019-04-19T12:46:58Z</time>
      </trkpt>
      <trkpt lat="44.1438" lon="3.13354">
        <ele>813.1</ele>
        <time>2019-04-19T12:47:00Z</time>
      </trkpt>
      <trkpt lat="44.14381" lon="3.13357">
        <ele>813.3</ele>
        <time>2019-04-19T12:47:01Z</time>
      </trkpt>
      <trkpt lat="44.14382" lon="3.13365">
        <ele>813.8</ele>
        <time>2019-04-19T12:47:03Z</time>
      </trkpt>
      <trkpt lat="44.14381" lon="3.13371">
        <ele>814.1</ele>
        <time>2019-04-19T12:47:05Z</time>
      </trkpt>
      <trkpt lat="44.14379" lon="3.13376">
        <ele>814.3</ele>
        <time>2019-04-19T12:47:07Z</time>
      </trkpt>
      <trkpt lat="44.14378" lon="3.13381">
        <ele>814.6</ele>
        <time>2019-04-19T12:47:09Z</time>
      </trkpt>
      <trkpt lat="44.14379" lon="3.13388">
        <ele>815</ele>
        <time>2019-04-19T12:47:11Z</time>
      </trkpt>
      <trkpt lat="44.14381" lon="3.13391">
        <ele>815.2</ele>
        <time>2019-04-19T12:47:12Z</time>
      </trkpt>
      <trkpt lat="44.14384" lon="3.13397">
        <ele>815.5</ele>
        <time>2019-04-19T12:47:14Z</time>
      </trkpt>
      <trkpt lat="44.14386" lon="3.134">
        <ele>815.6</ele>
        <time>2019-04-19T12:47:15Z</time>
      </trkpt>
      <trkpt lat="44.14388" lon="3.13404">
        <ele>815.8</ele>
        <time>2019-04-19T12:47:16Z</time>
      </trkpt>
      <trkpt lat="44.14391" lon="3.1341">
        <ele>816.1</ele>
        <time>2019-04-19T12:47:18Z</time>
      </trkpt>
      <trkpt lat="44.14392" lon="3.13416">
        <ele>816.3</ele>
        <time>2019-04-19T12:47:20Z</time>
      </trkpt>
      <trkpt lat="44.14392" lon="3.13423">
        <ele>816.6</ele>
        <time>2019-04-19T12:47:22Z</time>
      </trkpt>
      <trkpt lat="44.14392" lon="3.1343">
        <ele>816.7</ele>
        <time>2019-04-19T12:47:24Z</time>
      </trkpt>
      <trkpt lat="44.14392" lon="3.13434">
        <ele>816.8</ele>
        <time>2019-04-19T12:47:25Z</time>
      </trkpt>
      <trkpt lat="44.14392" lon="3.13438">
        <ele>817</ele>
        <time>2019-04-19T12:47:26Z</time>
      </trkpt>
      <trkpt lat="44.14393" lon="3.13442">
        <ele>817</ele>
        <time>2019-04-19T12:47:27Z</time>
      </trkpt>
      <trkpt lat="44.14394" lon="3.13446">
        <ele>817.1</ele>
        <time>2019-04-19T12:47:28Z</time>
      </trkpt>
      <trkpt lat="44.14395" lon="3.13453">
        <ele>817.3</ele>
        <time>2019-04-19T12:47:30Z</time>
      </trkpt>
      <trkpt lat="44.14396" lon="3.13458">
        <ele>817.4</ele>
        <time>2019-04-19T12:47:31Z</time>
      </trkpt>
      <trkpt lat="44.14398" lon="3.13462">
        <ele>817.4</ele>
        <time>2019-04-19T12:47:32Z</time>
      </trkpt>
      <trkpt lat="44.144" lon="3.13466">
        <ele>817.5</ele>
        <time>2019-04-19T12:47:33Z</time>
      </trkpt>
      <trkpt lat="44.14401" lon="3.1347">
        <ele>817.7</ele>
        <time>2019-04-19T12:47:34Z</time>
      </trkpt>
      <trkpt lat="44.14403" lon="3.13477">
        <ele>817.9</ele>
        <time>2019-04-19T12:47:36Z</time>
      </trkpt>
      <trkpt lat="44.14405" lon="3.13482">
        <ele>818.1</ele>
        <time>2019-04-19T12:47:37Z</time>
      </trkpt>
      <trkpt lat="44.14407" lon="3.13487">
        <ele>818.3</ele>
        <time>2019-04-19T12:47:38Z</time>
      </trkpt>
      <trkpt lat="44.14409" lon="3.13491">
        <ele>818.4</ele>
        <time>2019-04-19T12:47:39Z</time>
      </trkpt>
      <trkpt lat="44.1441" lon="3.13495">
        <ele>818.6</ele>
        <time>2019-04-19T12:47:40Z</time>
      </trkpt>
      <trkpt lat="44.14411" lon="3.135">
        <ele>818.8</ele>
        <time>2019-04-19T12:47:41Z</time>
      </trkpt>
      <trkpt lat="44.14413" lon="3.13505">
        <ele>818.9</ele>
        <time>2019-04-19T12:47:42Z</time>
      </trkpt>
      <trkpt lat="44.14414" lon="3.13511">
        <ele>819.1</ele>
        <time>2019-04-19T12:47:43Z</time>
      </trkpt>
      <trkpt lat="44.14415" lon="3.13516">
        <ele>819.2</ele>
        <time>2019-04-19T12:47:44Z</time>
      </trkpt>
      <trkpt lat="44.14416" lon="3.13521">
        <ele>819.4</ele>
        <time>2019-04-19T12:47:45Z</time>
      </trkpt>
      <trkpt lat="44.14418" lon="3.13525">
        <ele>819.5</ele>
        <time>2019-04-19T12:47:46Z</time>
      </trkpt>
      <trkpt lat="44.14419" lon="3.13529">
        <ele>819.6</ele>
        <time>2019-04-19T12:47:47Z</time>
      </trkpt>
      <trkpt lat="44.14421" lon="3.13533">
        <ele>819.6</ele>
        <time>2019-04-19T12:47:48Z</time>
      </trkpt>
      <trkpt lat="44.14422" lon="3.13537">
        <ele>819.7</ele>
        <time>2019-04-19T12:47:49Z</time>
      </trkpt>
      <trkpt lat="44.14424" lon="3.1354">
        <ele>819.8</ele>
        <time>2019-04-19T12:47:50Z</time>
      </trkpt>
      <trkpt lat="44.14425" lon="3.13546">
        <ele>819.9</ele>
        <time>2019-04-19T12:47:52Z</time>
      </trkpt>
      <trkpt lat="44.14427" lon="3.1355">
        <ele>819.9</ele>
        <time>2019-04-19T12:47:54Z</time>
      </trkpt>
      <trkpt lat="44.14429" lon="3.13556">
        <ele>820</ele>
        <time>2019-04-19T12:47:56Z</time>
      </trkpt>
      <trkpt lat="44.14432" lon="3.13562">
        <ele>820.1</ele>
        <time>2019-04-19T12:47:58Z</time>
      </trkpt>
      <trkpt lat="44.14434" lon="3.13565">
        <ele>820.2</ele>
        <time>2019-04-19T12:47:59Z</time>
      </trkpt>
      <trkpt lat="44.14435" lon="3.13569">
        <ele>820.2</ele>
        <time>2019-04-19T12:48:00Z</time>
      </trkpt>
      <trkpt lat="44.14437" lon="3.13572">
        <ele>820.2</ele>
        <time>2019-04-19T12:48:01Z</time>
      </trkpt>
      <trkpt lat="44.14439" lon="3.13577">
        <ele>820.3</ele>
        <time>2019-04-19T12:48:03Z</time>
      </trkpt>
      <trkpt lat="44.14441" lon="3.13582">
        <ele>820.2</ele>
        <time>2019-04-19T12:48:05Z</time>
      </trkpt>
      <trkpt lat="44.14442" lon="3.13586">
        <ele>820.2</ele>
        <time>2019-04-19T12:48:06Z</time>
      </trkpt>
      <trkpt lat="44.14445" lon="3.1359">
        <ele>820.2</ele>
        <time>2019-04-19T12:48:07Z</time>
      </trkpt>
      <trkpt lat="44.14448" lon="3.13595">
        <ele>820.1</ele>
        <time>2019-04-19T12:48:08Z</time>
      </trkpt>
      <trkpt lat="44.14452" lon="3.136">
        <ele>820</ele>
        <time>2019-04-19T12:48:09Z</time>
      </trkpt>
      <trkpt lat="44.14456" lon="3.13606">
        <ele>819.9</ele>
        <time>2019-04-19T12:48:10Z</time>
      </trkpt>
      <trkpt lat="44.1446" lon="3.13611">
        <ele>819.8</ele>
        <time>2019-04-19T12:48:11Z</time>
      </trkpt>
      <trkpt lat="44.14463" lon="3.13616">
        <ele>819.7</ele>
        <time>2019-04-19T12:48:12Z</time>
      </trkpt>
      <trkpt lat="44.1447" lon="3.13626">
        <ele>819.4</ele>
        <time>2019-04-19T12:48:13Z</time>
      </trkpt>
      <trkpt lat="44.14473" lon="3.13631">
        <ele>819.2</ele>
        <time>2019-04-19T12:48:14Z</time>
      </trkpt>
      <trkpt lat="44.14474" lon="3.13636">
        <ele>819.1</ele>
        <time>2019-04-19T12:48:15Z</time>
      </trkpt>
      <trkpt lat="44.14476" lon="3.13642">
        <ele>818.9</ele>
        <time>2019-04-19T12:48:16Z</time>
      </trkpt>
      <trkpt lat="44.14479" lon="3.13647">
        <ele>818.7</ele>
        <time>2019-04-19T12:48:17Z</time>
      </trkpt>
      <trkpt lat="44.14482" lon="3.13652">
        <ele>818.5</ele>
        <time>2019-04-19T12:48:18Z</time>
      </trkpt>
      <trkpt lat="44.14482" lon="3.13659">
        <ele>818.3</ele>
        <time>2019-04-19T12:48:19Z</time>
      </trkpt>
      <trkpt lat="44.14486" lon="3.13667">
        <ele>818.1</ele>
        <time>2019-04-19T12:48:20Z</time>
      </trkpt>
      <trkpt lat="44.14489" lon="3.13673">
        <ele>818.1</ele>
        <time>2019-04-19T12:48:21Z</time>
      </trkpt>
      <trkpt lat="44.1449" lon="3.13679">
        <ele>818</ele>
        <time>2019-04-19T12:48:22Z</time>
      </trkpt>
      <trkpt lat="44.14492" lon="3.13683">
        <ele>818</ele>
        <time>2019-04-19T12:48:23Z</time>
      </trkpt>
      <trkpt lat="44.14492" lon="3.13687">
        <ele>818</ele>
        <time>2019-04-19T12:48:24Z</time>
      </trkpt>
      <trkpt lat="44.14491" lon="3.13692">
        <ele>818</ele>
        <time>2019-04-19T12:48:25Z</time>
      </trkpt>
      <trkpt lat="44.14494" lon="3.13699">
        <ele>818</ele>
        <time>2019-04-19T12:48:26Z</time>
      </trkpt>
      <trkpt lat="44.14494" lon="3.13703">
        <ele>818</ele>
        <time>2019-04-19T12:48:27Z</time>
      </trkpt>
      <trkpt lat="44.14497" lon="3.13708">
        <ele>818</ele>
        <time>2019-04-19T12:48:28Z</time>
      </trkpt>
      <trkpt lat="44.145" lon="3.13718">
        <ele>818</ele>
        <time>2019-04-19T12:48:29Z</time>
      </trkpt>
      <trkpt lat="44.145" lon="3.13724">
        <ele>818</ele>
        <time>2019-04-19T12:48:30Z</time>
      </trkpt>
      <trkpt lat="44.14502" lon="3.13731">
        <ele>818</ele>
        <time>2019-04-19T12:48:31Z</time>
      </trkpt>
      <trkpt lat="44.14506" lon="3.13739">
        <ele>818</ele>
        <time>2019-04-19T12:48:32Z</time>
      </trkpt>
      <trkpt lat="44.14509" lon="3.13749">
        <ele>818</ele>
        <time>2019-04-19T12:48:33Z</time>
      </trkpt>
      <trkpt lat="44.1451" lon="3.13757">
        <ele>817.9</ele>
        <time>2019-04-19T12:48:34Z</time>
      </trkpt>
      <trkpt lat="44.14511" lon="3.13764">
        <ele>817.8</ele>
        <time>2019-04-19T12:48:35Z</time>
      </trkpt>
      <trkpt lat="44.14513" lon="3.1377">
        <ele>817.7</ele>
        <time>2019-04-19T12:48:36Z</time>
      </trkpt>
      <trkpt lat="44.1452" lon="3.13778">
        <ele>817.6</ele>
        <time>2019-04-19T12:48:37Z</time>
      </trkpt>
      <trkpt lat="44.14522" lon="3.13783">
        <ele>817.4</ele>
        <time>2019-04-19T12:48:38Z</time>
      </trkpt>
      <trkpt lat="44.14527" lon="3.13791">
        <ele>817.3</ele>
        <time>2019-04-19T12:48:39Z</time>
      </trkpt>
      <trkpt lat="44.14527" lon="3.138">
        <ele>817.3</ele>
        <time>2019-04-19T12:48:40Z</time>
      </trkpt>
      <trkpt lat="44.14526" lon="3.13805">
        <ele>817.4</ele>
        <time>2019-04-19T12:48:41Z</time>
      </trkpt>
      <trkpt lat="44.14526" lon="3.13811">
        <ele>817.4</ele>
        <time>2019-04-19T12:48:42Z</time>
      </trkpt>
      <trkpt lat="44.14526" lon="3.13817">
        <ele>817.5</ele>
        <time>2019-04-19T12:48:43Z</time>
      </trkpt>
      <trkpt lat="44.14527" lon="3.13822">
        <ele>817.6</ele>
        <time>2019-04-19T12:48:44Z</time>
      </trkpt>
      <trkpt lat="44.14528" lon="3.13828">
        <ele>817.7</ele>
        <time>2019-04-19T12:48:45Z</time>
      </trkpt>
      <trkpt lat="44.14529" lon="3.13834">
        <ele>817.8</ele>
        <time>2019-04-19T12:48:46Z</time>
      </trkpt>
      <trkpt lat="44.1453" lon="3.13839">
        <ele>817.9</ele>
        <time>2019-04-19T12:48:47Z</time>
      </trkpt>
      <trkpt lat="44.14532" lon="3.13845">
        <ele>818</ele>
        <time>2019-04-19T12:48:48Z</time>
      </trkpt>
      <trkpt lat="44.14533" lon="3.1385">
        <ele>818</ele>
        <time>2019-04-19T12:48:49Z</time>
      </trkpt>
      <trkpt lat="44.14534" lon="3.13855">
        <ele>818.1</ele>
        <time>2019-04-19T12:48:50Z</time>
      </trkpt>
      <trkpt lat="44.14537" lon="3.13861">
        <ele>818.2</ele>
        <time>2019-04-19T12:48:51Z</time>
      </trkpt>
      <trkpt lat="44.14541" lon="3.13869">
        <ele>818.3</ele>
        <time>2019-04-19T12:48:52Z</time>
      </trkpt>
      <trkpt lat="44.14543" lon="3.13875">
        <ele>818.3</ele>
        <time>2019-04-19T12:48:53Z</time>
      </trkpt>
      <trkpt lat="44.14547" lon="3.13879">
        <ele>818.4</ele>
        <time>2019-04-19T12:48:54Z</time>
      </trkpt>
      <trkpt lat="44.1455" lon="3.13884">
        <ele>818.4</ele>
        <time>2019-04-19T12:48:55Z</time>
      </trkpt>
      <trkpt lat="44.14552" lon="3.1389">
        <ele>818.4</ele>
        <time>2019-04-19T12:48:56Z</time>
      </trkpt>
      <trkpt lat="44.14552" lon="3.13894">
        <ele>818.4</ele>
        <time>2019-04-19T12:48:57Z</time>
      </trkpt>
      <trkpt lat="44.14555" lon="3.13897">
        <ele>818.5</ele>
        <time>2019-04-19T12:48:58Z</time>
      </trkpt>
      <trkpt lat="44.14557" lon="3.13901">
        <ele>818.5</ele>
        <time>2019-04-19T12:48:59Z</time>
      </trkpt>
      <trkpt lat="44.14561" lon="3.13907">
        <ele>818.5</ele>
        <time>2019-04-19T12:49:00Z</time>
      </trkpt>
      <trkpt lat="44.14563" lon="3.1391">
        <ele>818.5</ele>
        <time>2019-04-19T12:49:01Z</time>
      </trkpt>
      <trkpt lat="44.14567" lon="3.13913">
        <ele>818.6</ele>
        <time>2019-04-19T12:49:02Z</time>
      </trkpt>
      <trkpt lat="44.14573" lon="3.13916">
        <ele>818.6</ele>
        <time>2019-04-19T12:49:03Z</time>
      </trkpt>
      <trkpt lat="44.14578" lon="3.13917">
        <ele>818.6</ele>
        <time>2019-04-19T12:49:04Z</time>
      </trkpt>
      <trkpt lat="44.14583" lon="3.13917">
        <ele>818.6</ele>
        <time>2019-04-19T12:49:05Z</time>
      </trkpt>
      <trkpt lat="44.14587" lon="3.13919">
        <ele>818.7</ele>
        <time>2019-04-19T12:49:06Z</time>
      </trkpt>
      <trkpt lat="44.14591" lon="3.13919">
        <ele>818.7</ele>
        <time>2019-04-19T12:49:07Z</time>
      </trkpt>
      <trkpt lat="44.14595" lon="3.13918">
        <ele>818.7</ele>
        <time>2019-04-19T12:49:08Z</time>
      </trkpt>
      <trkpt lat="44.14598" lon="3.13916">
        <ele>818.7</ele>
        <time>2019-04-19T12:49:09Z</time>
      </trkpt>
      <trkpt lat="44.14602" lon="3.13915">
        <ele>818.8</ele>
        <time>2019-04-19T12:49:10Z</time>
      </trkpt>
      <trkpt lat="44.14605" lon="3.13913">
        <ele>818.8</ele>
        <time>2019-04-19T12:49:11Z</time>
      </trkpt>
      <trkpt lat="44.1461" lon="3.13908">
        <ele>818.9</ele>
        <time>2019-04-19T12:49:12Z</time>
      </trkpt>
      <trkpt lat="44.14615" lon="3.13905">
        <ele>819</ele>
        <time>2019-04-19T12:49:13Z</time>
      </trkpt>
      <trkpt lat="44.14618" lon="3.13903">
        <ele>819</ele>
        <time>2019-04-19T12:49:14Z</time>
      </trkpt>
      <trkpt lat="44.14623" lon="3.13899">
        <ele>819.1</ele>
        <time>2019-04-19T12:49:15Z</time>
      </trkpt>
      <trkpt lat="44.14629" lon="3.13895">
        <ele>819.1</ele>
        <time>2019-04-19T12:49:17Z</time>
      </trkpt>
      <trkpt lat="44.14632" lon="3.13891">
        <ele>819.2</ele>
        <time>2019-04-19T12:49:18Z</time>
      </trkpt>
      <trkpt lat="44.14635" lon="3.13888">
        <ele>819.3</ele>
        <time>2019-04-19T12:49:19Z</time>
      </trkpt>
      <trkpt lat="44.14638" lon="3.1389">
        <ele>819.3</ele>
        <time>2019-04-19T12:49:20Z</time>
      </trkpt>
      <trkpt lat="44.14641" lon="3.13887">
        <ele>819.3</ele>
        <time>2019-04-19T12:49:21Z</time>
      </trkpt>
      <trkpt lat="44.14645" lon="3.13884">
        <ele>819.4</ele>
        <time>2019-04-19T12:49:22Z</time>
      </trkpt>
      <trkpt lat="44.1465" lon="3.13882">
        <ele>819.5</ele>
        <time>2019-04-19T12:49:24Z</time>
      </trkpt>
      <trkpt lat="44.14653" lon="3.13881">
        <ele>819.5</ele>
        <time>2019-04-19T12:49:25Z</time>
      </trkpt>
      <trkpt lat="44.14657" lon="3.13875">
        <ele>819.6</ele>
        <time>2019-04-19T12:49:26Z</time>
      </trkpt>
      <trkpt lat="44.14661" lon="3.1387">
        <ele>819.7</ele>
        <time>2019-04-19T12:49:27Z</time>
      </trkpt>
      <trkpt lat="44.14666" lon="3.13864">
        <ele>819.8</ele>
        <time>2019-04-19T12:49:29Z</time>
      </trkpt>
      <trkpt lat="44.14671" lon="3.1386">
        <ele>819.9</ele>
        <time>2019-04-19T12:49:30Z</time>
      </trkpt>
      <trkpt lat="44.14674" lon="3.13855">
        <ele>820.1</ele>
        <time>2019-04-19T12:49:31Z</time>
      </trkpt>
      <trkpt lat="44.14677" lon="3.13853">
        <ele>820.2</ele>
        <time>2019-04-19T12:49:32Z</time>
      </trkpt>
      <trkpt lat="44.14681" lon="3.13848">
        <ele>820.3</ele>
        <time>2019-04-19T12:49:33Z</time>
      </trkpt>
      <trkpt lat="44.14685" lon="3.13846">
        <ele>820.4</ele>
        <time>2019-04-19T12:49:34Z</time>
      </trkpt>
      <trkpt lat="44.14688" lon="3.13839">
        <ele>820.6</ele>
        <time>2019-04-19T12:49:35Z</time>
      </trkpt>
      <trkpt lat="44.14693" lon="3.13834">
        <ele>820.7</ele>
        <time>2019-04-19T12:49:36Z</time>
      </trkpt>
      <trkpt lat="44.14698" lon="3.1383">
        <ele>820.9</ele>
        <time>2019-04-19T12:49:37Z</time>
      </trkpt>
      <trkpt lat="44.14702" lon="3.13827">
        <ele>821</ele>
        <time>2019-04-19T12:49:38Z</time>
      </trkpt>
      <trkpt lat="44.14706" lon="3.13823">
        <ele>821.1</ele>
        <time>2019-04-19T12:49:39Z</time>
      </trkpt>
      <trkpt lat="44.14709" lon="3.1382">
        <ele>821.2</ele>
        <time>2019-04-19T12:49:40Z</time>
      </trkpt>
      <trkpt lat="44.14713" lon="3.13814">
        <ele>821.4</ele>
        <time>2019-04-19T12:49:41Z</time>
      </trkpt>
      <trkpt lat="44.14716" lon="3.13811">
        <ele>821.4</ele>
        <time>2019-04-19T12:49:42Z</time>
      </trkpt>
      <trkpt lat="44.1472" lon="3.13809">
        <ele>821.5</ele>
        <time>2019-04-19T12:49:43Z</time>
      </trkpt>
      <trkpt lat="44.14723" lon="3.13804">
        <ele>821.5</ele>
        <time>2019-04-19T12:49:44Z</time>
      </trkpt>
      <trkpt lat="44.14727" lon="3.13804">
        <ele>821.5</ele>
        <time>2019-04-19T12:49:45Z</time>
      </trkpt>
      <trkpt lat="44.14729" lon="3.13809">
        <ele>821.5</ele>
        <time>2019-04-19T12:49:46Z</time>
      </trkpt>
      <trkpt lat="44.14733" lon="3.13809">
        <ele>821.5</ele>
        <time>2019-04-19T12:49:47Z</time>
      </trkpt>
      <trkpt lat="44.14738" lon="3.1381">
        <ele>821.5</ele>
        <time>2019-04-19T12:49:49Z</time>
      </trkpt>
      <trkpt lat="44.14742" lon="3.13808">
        <ele>821.5</ele>
        <time>2019-04-19T12:49:50Z</time>
      </trkpt>
      <trkpt lat="44.14746" lon="3.13809">
        <ele>821.5</ele>
        <time>2019-04-19T12:49:51Z</time>
      </trkpt>
      <trkpt lat="44.14749" lon="3.13807">
        <ele>821.5</ele>
        <time>2019-04-19T12:49:52Z</time>
      </trkpt>
      <trkpt lat="44.14754" lon="3.13808">
        <ele>821.6</ele>
        <time>2019-04-19T12:49:53Z</time>
      </trkpt>
      <trkpt lat="44.1476" lon="3.13797">
        <ele>821.6</ele>
        <time>2019-04-19T12:49:54Z</time>
      </trkpt>
      <trkpt lat="44.14765" lon="3.13794">
        <ele>821.7</ele>
        <time>2019-04-19T12:49:55Z</time>
      </trkpt>
      <trkpt lat="44.14772" lon="3.13789">
        <ele>821.8</ele>
        <time>2019-04-19T12:49:56Z</time>
      </trkpt>
      <trkpt lat="44.14778" lon="3.13789">
        <ele>821.8</ele>
        <time>2019-04-19T12:49:57Z</time>
      </trkpt>
      <trkpt lat="44.14782" lon="3.13789">
        <ele>821.9</ele>
        <time>2019-04-19T12:49:58Z</time>
      </trkpt>
      <trkpt lat="44.14788" lon="3.13788">
        <ele>822</ele>
        <time>2019-04-19T12:49:59Z</time>
      </trkpt>
      <trkpt lat="44.14791" lon="3.13786">
        <ele>822.1</ele>
        <time>2019-04-19T12:50:00Z</time>
      </trkpt>
      <trkpt lat="44.14796" lon="3.13778">
        <ele>822.3</ele>
        <time>2019-04-19T12:50:01Z</time>
      </trkpt>
      <trkpt lat="44.148" lon="3.13777">
        <ele>822.5</ele>
        <time>2019-04-19T12:50:02Z</time>
      </trkpt>
      <trkpt lat="44.14806" lon="3.1377">
        <ele>822.7</ele>
        <time>2019-04-19T12:50:03Z</time>
      </trkpt>
      <trkpt lat="44.14811" lon="3.13766">
        <ele>822.9</ele>
        <time>2019-04-19T12:50:04Z</time>
      </trkpt>
      <trkpt lat="44.14817" lon="3.13766">
        <ele>823</ele>
        <time>2019-04-19T12:50:06Z</time>
      </trkpt>
      <trkpt lat="44.1482" lon="3.13763">
        <ele>823.2</ele>
        <time>2019-04-19T12:50:07Z</time>
      </trkpt>
      <trkpt lat="44.14823" lon="3.13759">
        <ele>823.4</ele>
        <time>2019-04-19T12:50:08Z</time>
      </trkpt>
      <trkpt lat="44.14828" lon="3.13755">
        <ele>823.7</ele>
        <time>2019-04-19T12:50:10Z</time>
      </trkpt>
      <trkpt lat="44.14831" lon="3.13751">
        <ele>824</ele>
        <time>2019-04-19T12:50:11Z</time>
      </trkpt>
      <trkpt lat="44.14832" lon="3.13748">
        <ele>824.1</ele>
        <time>2019-04-19T12:50:12Z</time>
      </trkpt>
      <trkpt lat="44.14838" lon="3.13734">
        <ele>824.5</ele>
        <time>2019-04-19T12:50:14Z</time>
      </trkpt>
      <trkpt lat="44.1484" lon="3.13726">
        <ele>824.7</ele>
        <time>2019-04-19T12:50:16Z</time>
      </trkpt>
      <trkpt lat="44.14841" lon="3.13721">
        <ele>824.9</ele>
        <time>2019-04-19T12:50:18Z</time>
      </trkpt>
      <trkpt lat="44.14842" lon="3.13717">
        <ele>825</ele>
        <time>2019-04-19T12:50:19Z</time>
      </trkpt>
      <trkpt lat="44.14842" lon="3.13713">
        <ele>825.1</ele>
        <time>2019-04-19T12:50:20Z</time>
      </trkpt>
      <trkpt lat="44.14843" lon="3.13708">
        <ele>825.2</ele>
        <time>2019-04-19T12:50:21Z</time>
      </trkpt>
      <trkpt lat="44.14843" lon="3.13704">
        <ele>825.4</ele>
        <time>2019-04-19T12:50:22Z</time>
      </trkpt>
      <trkpt lat="44.14844" lon="3.13696">
        <ele>825.7</ele>
        <time>2019-04-19T12:50:24Z</time>
      </trkpt>
      <trkpt lat="44.14845" lon="3.13692">
        <ele>825.8</ele>
        <time>2019-04-19T12:50:25Z</time>
      </trkpt>
      <trkpt lat="44.14846" lon="3.13688">
        <ele>826</ele>
        <time>2019-04-19T12:50:26Z</time>
      </trkpt>
      <trkpt lat="44.14847" lon="3.13684">
        <ele>826.1</ele>
        <time>2019-04-19T12:50:27Z</time>
      </trkpt>
      <trkpt lat="44.14849" lon="3.1368">
        <ele>826.3</ele>
        <time>2019-04-19T12:50:28Z</time>
      </trkpt>
      <trkpt lat="44.14853" lon="3.13675">
        <ele>826.5</ele>
        <time>2019-04-19T12:50:30Z</time>
      </trkpt>
      <trkpt lat="44.14856" lon="3.13672">
        <ele>826.6</ele>
        <time>2019-04-19T12:50:31Z</time>
      </trkpt>
      <trkpt lat="44.14858" lon="3.1367">
        <ele>826.7</ele>
        <time>2019-04-19T12:50:32Z</time>
      </trkpt>
      <trkpt lat="44.1486" lon="3.13667">
        <ele>826.8</ele>
        <time>2019-04-19T12:50:33Z</time>
      </trkpt>
      <trkpt lat="44.14864" lon="3.13662">
        <ele>827</ele>
        <time>2019-04-19T12:50:35Z</time>
      </trkpt>
      <trkpt lat="44.14866" lon="3.13659">
        <ele>827.1</ele>
        <time>2019-04-19T12:50:36Z</time>
      </trkpt>
      <trkpt lat="44.14868" lon="3.13656">
        <ele>827.2</ele>
        <time>2019-04-19T12:50:37Z</time>
      </trkpt>
      <trkpt lat="44.1487" lon="3.13652">
        <ele>827.3</ele>
        <time>2019-04-19T12:50:38Z</time>
      </trkpt>
      <trkpt lat="44.14872" lon="3.13649">
        <ele>827.3</ele>
        <time>2019-04-19T12:50:39Z</time>
      </trkpt>
      <trkpt lat="44.14875" lon="3.13645">
        <ele>827.4</ele>
        <time>2019-04-19T12:50:40Z</time>
      </trkpt>
      <trkpt lat="44.14876" lon="3.13641">
        <ele>827.4</ele>
        <time>2019-04-19T12:50:41Z</time>
      </trkpt>
      <trkpt lat="44.14878" lon="3.13637">
        <ele>827</ele>
        <time>2019-04-19T12:50:42Z</time>
      </trkpt>
      <trkpt lat="44.1488" lon="3.13632">
        <ele>826.7</ele>
        <time>2019-04-19T12:50:43Z</time>
      </trkpt>
      <trkpt lat="44.14882" lon="3.13627">
        <ele>826.4</ele>
        <time>2019-04-19T12:50:44Z</time>
      </trkpt>
      <trkpt lat="44.14886" lon="3.13621">
        <ele>826.1</ele>
        <time>2019-04-19T12:50:45Z</time>
      </trkpt>
      <trkpt lat="44.14889" lon="3.13614">
        <ele>825.8</ele>
        <time>2019-04-19T12:50:46Z</time>
      </trkpt>
      <trkpt lat="44.14891" lon="3.13608">
        <ele>825.5</ele>
        <time>2019-04-19T12:50:47Z</time>
      </trkpt>
      <trkpt lat="44.14893" lon="3.13601">
        <ele>825.3</ele>
        <time>2019-04-19T12:50:48Z</time>
      </trkpt>
      <trkpt lat="44.14895" lon="3.13594">
        <ele>825.2</ele>
        <time>2019-04-19T12:50:49Z</time>
      </trkpt>
      <trkpt lat="44.14897" lon="3.13588">
        <ele>825</ele>
        <time>2019-04-19T12:50:50Z</time>
      </trkpt>
      <trkpt lat="44.14897" lon="3.1358">
        <ele>824.9</ele>
        <time>2019-04-19T12:50:51Z</time>
      </trkpt>
      <trkpt lat="44.14902" lon="3.13572">
        <ele>824.7</ele>
        <time>2019-04-19T12:50:53Z</time>
      </trkpt>
      <trkpt lat="44.14904" lon="3.13566">
        <ele>824.6</ele>
        <time>2019-04-19T12:50:54Z</time>
      </trkpt>
      <trkpt lat="44.14905" lon="3.1356">
        <ele>824.5</ele>
        <time>2019-04-19T12:50:55Z</time>
      </trkpt>
      <trkpt lat="44.14908" lon="3.13553">
        <ele>824.5</ele>
        <time>2019-04-19T12:50:56Z</time>
      </trkpt>
      <trkpt lat="44.1491" lon="3.13549">
        <ele>824.4</ele>
        <time>2019-04-19T12:50:57Z</time>
      </trkpt>
      <trkpt lat="44.14911" lon="3.13543">
        <ele>824.4</ele>
        <time>2019-04-19T12:50:58Z</time>
      </trkpt>
      <trkpt lat="44.14913" lon="3.13535">
        <ele>824.3</ele>
        <time>2019-04-19T12:50:59Z</time>
      </trkpt>
      <trkpt lat="44.14912" lon="3.13529">
        <ele>824.3</ele>
        <time>2019-04-19T12:51:00Z</time>
      </trkpt>
      <trkpt lat="44.14914" lon="3.13524">
        <ele>824.2</ele>
        <time>2019-04-19T12:51:01Z</time>
      </trkpt>
      <trkpt lat="44.14922" lon="3.1352">
        <ele>824.1</ele>
        <time>2019-04-19T12:51:02Z</time>
      </trkpt>
      <trkpt lat="44.14929" lon="3.1351">
        <ele>823.9</ele>
        <time>2019-04-19T12:51:03Z</time>
      </trkpt>
      <trkpt lat="44.14933" lon="3.13504">
        <ele>823.7</ele>
        <time>2019-04-19T12:51:04Z</time>
      </trkpt>
      <trkpt lat="44.14936" lon="3.13495">
        <ele>823.5</ele>
        <time>2019-04-19T12:51:05Z</time>
      </trkpt>
      <trkpt lat="44.14939" lon="3.13488">
        <ele>823.4</ele>
        <time>2019-04-19T12:51:06Z</time>
      </trkpt>
      <trkpt lat="44.14941" lon="3.13478">
        <ele>823.2</ele>
        <time>2019-04-19T12:51:07Z</time>
      </trkpt>
      <trkpt lat="44.14945" lon="3.13469">
        <ele>822.9</ele>
        <time>2019-04-19T12:51:08Z</time>
      </trkpt>
      <trkpt lat="44.14947" lon="3.13462">
        <ele>822.8</ele>
        <time>2019-04-19T12:51:09Z</time>
      </trkpt>
      <trkpt lat="44.1495" lon="3.13454">
        <ele>822.6</ele>
        <time>2019-04-19T12:51:10Z</time>
      </trkpt>
      <trkpt lat="44.14952" lon="3.13445">
        <ele>822.4</ele>
        <time>2019-04-19T12:51:11Z</time>
      </trkpt>
      <trkpt lat="44.14953" lon="3.13438">
        <ele>822.3</ele>
        <time>2019-04-19T12:51:12Z</time>
      </trkpt>
      <trkpt lat="44.14955" lon="3.13429">
        <ele>822.1</ele>
        <time>2019-04-19T12:51:13Z</time>
      </trkpt>
      <trkpt lat="44.14956" lon="3.13422">
        <ele>821.9</ele>
        <time>2019-04-19T12:51:14Z</time>
      </trkpt>
      <trkpt lat="44.14961" lon="3.13414">
        <ele>821.7</ele>
        <time>2019-04-19T12:51:15Z</time>
      </trkpt>
      <trkpt lat="44.14963" lon="3.13405">
        <ele>821.5</ele>
        <time>2019-04-19T12:51:16Z</time>
      </trkpt>
      <trkpt lat="44.14965" lon="3.13395">
        <ele>821.3</ele>
        <time>2019-04-19T12:51:17Z</time>
      </trkpt>
      <trkpt lat="44.14967" lon="3.13384">
        <ele>821.2</ele>
        <time>2019-04-19T12:51:18Z</time>
      </trkpt>
      <trkpt lat="44.14968" lon="3.13376">
        <ele>821</ele>
        <time>2019-04-19T12:51:19Z</time>
      </trkpt>
      <trkpt lat="44.14969" lon="3.13367">
        <ele>820.9</ele>
        <time>2019-04-19T12:51:20Z</time>
      </trkpt>
      <trkpt lat="44.1497" lon="3.13357">
        <ele>820.7</ele>
        <time>2019-04-19T12:51:21Z</time>
      </trkpt>
      <trkpt lat="44.1497" lon="3.13347">
        <ele>820.6</ele>
        <time>2019-04-19T12:51:22Z</time>
      </trkpt>
      <trkpt lat="44.14971" lon="3.13336">
        <ele>820.5</ele>
        <time>2019-04-19T12:51:23Z</time>
      </trkpt>
      <trkpt lat="44.14971" lon="3.13327">
        <ele>820.3</ele>
        <time>2019-04-19T12:51:24Z</time>
      </trkpt>
      <trkpt lat="44.14973" lon="3.13317">
        <ele>820.2</ele>
        <time>2019-04-19T12:51:25Z</time>
      </trkpt>
      <trkpt lat="44.14971" lon="3.13306">
        <ele>820.1</ele>
        <time>2019-04-19T12:51:26Z</time>
      </trkpt>
      <trkpt lat="44.14974" lon="3.13298">
        <ele>820</ele>
        <time>2019-04-19T12:51:27Z</time>
      </trkpt>
      <trkpt lat="44.14972" lon="3.13287">
        <ele>819.9</ele>
        <time>2019-04-19T12:51:28Z</time>
      </trkpt>
      <trkpt lat="44.14974" lon="3.13278">
        <ele>819.9</ele>
        <time>2019-04-19T12:51:29Z</time>
      </trkpt>
      <trkpt lat="44.14972" lon="3.13269">
        <ele>819.8</ele>
        <time>2019-04-19T12:51:30Z</time>
      </trkpt>
      <trkpt lat="44.14961" lon="3.1326">
        <ele>819.7</ele>
        <time>2019-04-19T12:51:31Z</time>
      </trkpt>
      <trkpt lat="44.14958" lon="3.13252">
        <ele>819.7</ele>
        <time>2019-04-19T12:51:32Z</time>
      </trkpt>
      <trkpt lat="44.14957" lon="3.13243">
        <ele>819.7</ele>
        <time>2019-04-19T12:51:33Z</time>
      </trkpt>
      <trkpt lat="44.14955" lon="3.13234">
        <ele>819.6</ele>
        <time>2019-04-19T12:51:34Z</time>
      </trkpt>
      <trkpt lat="44.14958" lon="3.13226">
        <ele>819.6</ele>
        <time>2019-04-19T12:51:35Z</time>
      </trkpt>
      <trkpt lat="44.14958" lon="3.13218">
        <ele>819.6</ele>
        <time>2019-04-19T12:51:36Z</time>
      </trkpt>
      <trkpt lat="44.14956" lon="3.1321">
        <ele>819.6</ele>
        <time>2019-04-19T12:51:37Z</time>
      </trkpt>
      <trkpt lat="44.14956" lon="3.132">
        <ele>819.6</ele>
        <time>2019-04-19T12:51:38Z</time>
      </trkpt>
      <trkpt lat="44.14955" lon="3.13192">
        <ele>819.6</ele>
        <time>2019-04-19T12:51:39Z</time>
      </trkpt>
      <trkpt lat="44.14953" lon="3.13184">
        <ele>819.5</ele>
        <time>2019-04-19T12:51:40Z</time>
      </trkpt>
      <trkpt lat="44.14954" lon="3.13177">
        <ele>819.5</ele>
        <time>2019-04-19T12:51:41Z</time>
      </trkpt>
      <trkpt lat="44.1495" lon="3.13169">
        <ele>819.4</ele>
        <time>2019-04-19T12:51:42Z</time>
      </trkpt>
      <trkpt lat="44.14946" lon="3.13162">
        <ele>819.3</ele>
        <time>2019-04-19T12:51:43Z</time>
      </trkpt>
      <trkpt lat="44.14944" lon="3.13155">
        <ele>819.2</ele>
        <time>2019-04-19T12:51:44Z</time>
      </trkpt>
      <trkpt lat="44.14939" lon="3.13147">
        <ele>819.1</ele>
        <time>2019-04-19T12:51:45Z</time>
      </trkpt>
      <trkpt lat="44.14937" lon="3.13141">
        <ele>819</ele>
        <time>2019-04-19T12:51:46Z</time>
      </trkpt>
      <trkpt lat="44.14934" lon="3.13133">
        <ele>818.8</ele>
        <time>2019-04-19T12:51:47Z</time>
      </trkpt>
      <trkpt lat="44.14937" lon="3.13126">
        <ele>818.7</ele>
        <time>2019-04-19T12:51:48Z</time>
      </trkpt>
      <trkpt lat="44.14936" lon="3.13119">
        <ele>818.5</ele>
        <time>2019-04-19T12:51:49Z</time>
      </trkpt>
      <trkpt lat="44.14934" lon="3.1311">
        <ele>818</ele>
        <time>2019-04-19T12:51:50Z</time>
      </trkpt>
      <trkpt lat="44.14933" lon="3.13102">
        <ele>817.5</ele>
        <time>2019-04-19T12:51:51Z</time>
      </trkpt>
      <trkpt lat="44.14937" lon="3.13097">
        <ele>817.1</ele>
        <time>2019-04-19T12:51:52Z</time>
      </trkpt>
      <trkpt lat="44.14941" lon="3.13089">
        <ele>816.6</ele>
        <time>2019-04-19T12:51:53Z</time>
      </trkpt>
      <trkpt lat="44.14945" lon="3.13083">
        <ele>816.3</ele>
        <time>2019-04-19T12:51:54Z</time>
      </trkpt>
      <trkpt lat="44.14949" lon="3.13074">
        <ele>815.9</ele>
        <time>2019-04-19T12:51:55Z</time>
      </trkpt>
      <trkpt lat="44.14952" lon="3.13066">
        <ele>815.5</ele>
        <time>2019-04-19T12:51:56Z</time>
      </trkpt>
      <trkpt lat="44.14957" lon="3.13055">
        <ele>815.2</ele>
        <time>2019-04-19T12:51:57Z</time>
      </trkpt>
      <trkpt lat="44.14961" lon="3.13044">
        <ele>814.9</ele>
        <time>2019-04-19T12:51:58Z</time>
      </trkpt>
      <trkpt lat="44.14964" lon="3.13035">
        <ele>814.8</ele>
        <time>2019-04-19T12:51:59Z</time>
      </trkpt>
      <trkpt lat="44.14966" lon="3.13028">
        <ele>814.7</ele>
        <time>2019-04-19T12:52:00Z</time>
      </trkpt>
      <trkpt lat="44.14969" lon="3.13023">
        <ele>814.7</ele>
        <time>2019-04-19T12:52:01Z</time>
      </trkpt>
      <trkpt lat="44.14971" lon="3.13018">
        <ele>814.7</ele>
        <time>2019-04-19T12:52:02Z</time>
      </trkpt>
      <trkpt lat="44.14971" lon="3.13014">
        <ele>814.7</ele>
        <time>2019-04-19T12:52:03Z</time>
      </trkpt>
      <trkpt lat="44.14975" lon="3.13008">
        <ele>814.7</ele>
        <time>2019-04-19T12:52:04Z</time>
      </trkpt>
      <trkpt lat="44.14977" lon="3.13002">
        <ele>814.8</ele>
        <time>2019-04-19T12:52:05Z</time>
      </trkpt>
      <trkpt lat="44.14978" lon="3.12999">
        <ele>814.8</ele>
        <time>2019-04-19T12:52:06Z</time>
      </trkpt>
      <trkpt lat="44.14978" lon="3.12994">
        <ele>814.8</ele>
        <time>2019-04-19T12:52:07Z</time>
      </trkpt>
      <trkpt lat="44.14978" lon="3.12988">
        <ele>814.9</ele>
        <time>2019-04-19T12:52:08Z</time>
      </trkpt>
      <trkpt lat="44.14978" lon="3.12984">
        <ele>814.9</ele>
        <time>2019-04-19T12:52:09Z</time>
      </trkpt>
      <trkpt lat="44.1498" lon="3.12981">
        <ele>815</ele>
        <time>2019-04-19T12:52:10Z</time>
      </trkpt>
      <trkpt lat="44.14983" lon="3.12977">
        <ele>815.1</ele>
        <time>2019-04-19T12:52:11Z</time>
      </trkpt>
      <trkpt lat="44.14989" lon="3.12974">
        <ele>815.2</ele>
        <time>2019-04-19T12:52:13Z</time>
      </trkpt>
      <trkpt lat="44.14995" lon="3.12963">
        <ele>815.5</ele>
        <time>2019-04-19T12:52:14Z</time>
      </trkpt>
      <trkpt lat="44.14997" lon="3.12959">
        <ele>815.6</ele>
        <time>2019-04-19T12:52:16Z</time>
      </trkpt>
      <trkpt lat="44.14995" lon="3.12956">
        <ele>815.7</ele>
        <time>2019-04-19T12:52:21Z</time>
      </trkpt>
      <trkpt lat="44.14992" lon="3.12953">
        <ele>815.8</ele>
        <time>2019-04-19T12:52:23Z</time>
      </trkpt>
      <trkpt lat="44.14989" lon="3.1295">
        <ele>816</ele>
        <time>2019-04-19T12:52:27Z</time>
      </trkpt>
      <trkpt lat="44.14986" lon="3.12948">
        <ele>816.1</ele>
        <time>2019-04-19T12:52:38Z</time>
      </trkpt>
      <trkpt lat="44.14983" lon="3.12946">
        <ele>816.2</ele>
        <time>2019-04-19T12:52:41Z</time>
      </trkpt>
      <trkpt lat="44.14985" lon="3.12956">
        <ele>816.6</ele>
        <time>2019-04-19T12:53:40Z</time>
      </trkpt>
      <trkpt lat="44.14987" lon="3.1296">
        <ele>816.7</ele>
        <time>2019-04-19T12:53:43Z</time>
      </trkpt>
      <trkpt lat="44.14991" lon="3.1296">
        <ele>816.9</ele>
        <time>2019-04-19T12:53:47Z</time>
      </trkpt>
      <trkpt lat="44.14994" lon="3.12959">
        <ele>817</ele>
        <time>2019-04-19T12:53:58Z</time>
      </trkpt>
      <trkpt lat="44.14997" lon="3.12955">
        <ele>817.2</ele>
        <time>2019-04-19T12:54:00Z</time>
      </trkpt>
      <trkpt lat="44.14999" lon="3.1295">
        <ele>817.4</ele>
        <time>2019-04-19T12:54:02Z</time>
      </trkpt>
      <trkpt lat="44.14999" lon="3.12942">
        <ele>817.7</ele>
        <time>2019-04-19T12:54:04Z</time>
      </trkpt>
      <trkpt lat="44.15" lon="3.12935">
        <ele>818</ele>
        <time>2019-04-19T12:54:06Z</time>
      </trkpt>
      <trkpt lat="44.15004" lon="3.1293">
        <ele>818.3</ele>
        <time>2019-04-19T12:54:08Z</time>
      </trkpt>
      <trkpt lat="44.15006" lon="3.12928">
        <ele>818.4</ele>
        <time>2019-04-19T12:54:09Z</time>
      </trkpt>
      <trkpt lat="44.15009" lon="3.12925">
        <ele>818.6</ele>
        <time>2019-04-19T12:54:10Z</time>
      </trkpt>
      <trkpt lat="44.15012" lon="3.12922">
        <ele>818.9</ele>
        <time>2019-04-19T12:54:11Z</time>
      </trkpt>
      <trkpt lat="44.15014" lon="3.12919">
        <ele>819.1</ele>
        <time>2019-04-19T12:54:12Z</time>
      </trkpt>
      <trkpt lat="44.15016" lon="3.12916">
        <ele>819.3</ele>
        <time>2019-04-19T12:54:13Z</time>
      </trkpt>
      <trkpt lat="44.15018" lon="3.12913">
        <ele>819.6</ele>
        <time>2019-04-19T12:54:14Z</time>
      </trkpt>
      <trkpt lat="44.15022" lon="3.12907">
        <ele>820.2</ele>
        <time>2019-04-19T12:54:16Z</time>
      </trkpt>
      <trkpt lat="44.15024" lon="3.12904">
        <ele>820.5</ele>
        <time>2019-04-19T12:54:17Z</time>
      </trkpt>
      <trkpt lat="44.15025" lon="3.129">
        <ele>820.9</ele>
        <time>2019-04-19T12:54:18Z</time>
      </trkpt>
      <trkpt lat="44.15027" lon="3.12897">
        <ele>821.3</ele>
        <time>2019-04-19T12:54:19Z</time>
      </trkpt>
      <trkpt lat="44.1503" lon="3.12892">
        <ele>821.9</ele>
        <time>2019-04-19T12:54:21Z</time>
      </trkpt>
      <trkpt lat="44.15032" lon="3.12887">
        <ele>822.4</ele>
        <time>2019-04-19T12:54:23Z</time>
      </trkpt>
      <trkpt lat="44.15034" lon="3.12882">
        <ele>822.9</ele>
        <time>2019-04-19T12:54:25Z</time>
      </trkpt>
      <trkpt lat="44.15035" lon="3.12877">
        <ele>823.4</ele>
        <time>2019-04-19T12:54:27Z</time>
      </trkpt>
      <trkpt lat="44.15036" lon="3.12872">
        <ele>823.8</ele>
        <time>2019-04-19T12:54:29Z</time>
      </trkpt>
      <trkpt lat="44.15038" lon="3.12865">
        <ele>824.3</ele>
        <time>2019-04-19T12:54:31Z</time>
      </trkpt>
      <trkpt lat="44.15041" lon="3.1286">
        <ele>824.7</ele>
        <time>2019-04-19T12:54:33Z</time>
      </trkpt>
      <trkpt lat="44.15043" lon="3.12858">
        <ele>824.9</ele>
        <time>2019-04-19T12:54:34Z</time>
      </trkpt>
      <trkpt lat="44.15046" lon="3.12855">
        <ele>825.1</ele>
        <time>2019-04-19T12:54:35Z</time>
      </trkpt>
      <trkpt lat="44.1505" lon="3.1285">
        <ele>825.5</ele>
        <time>2019-04-19T12:54:37Z</time>
      </trkpt>
      <trkpt lat="44.15053" lon="3.12847">
        <ele>825.7</ele>
        <time>2019-04-19T12:54:38Z</time>
      </trkpt>
      <trkpt lat="44.15056" lon="3.12844">
        <ele>825.9</ele>
        <time>2019-04-19T12:54:40Z</time>
      </trkpt>
      <trkpt lat="44.15058" lon="3.12839">
        <ele>826.1</ele>
        <time>2019-04-19T12:54:42Z</time>
      </trkpt>
      <trkpt lat="44.15061" lon="3.12833">
        <ele>826.2</ele>
        <time>2019-04-19T12:54:44Z</time>
      </trkpt>
      <trkpt lat="44.15062" lon="3.12827">
        <ele>826.4</ele>
        <time>2019-04-19T12:54:46Z</time>
      </trkpt>
      <trkpt lat="44.15063" lon="3.12823">
        <ele>826.5</ele>
        <time>2019-04-19T12:54:47Z</time>
      </trkpt>
      <trkpt lat="44.15064" lon="3.12819">
        <ele>826.6</ele>
        <time>2019-04-19T12:54:48Z</time>
      </trkpt>
      <trkpt lat="44.15064" lon="3.12815">
        <ele>826.7</ele>
        <time>2019-04-19T12:54:49Z</time>
      </trkpt>
      <trkpt lat="44.15064" lon="3.12811">
        <ele>826.8</ele>
        <time>2019-04-19T12:54:50Z</time>
      </trkpt>
      <trkpt lat="44.15064" lon="3.12807">
        <ele>826.9</ele>
        <time>2019-04-19T12:54:51Z</time>
      </trkpt>
      <trkpt lat="44.15063" lon="3.12799">
        <ele>827.2</ele>
        <time>2019-04-19T12:54:53Z</time>
      </trkpt>
      <trkpt lat="44.15063" lon="3.12795">
        <ele>827.3</ele>
        <time>2019-04-19T12:54:54Z</time>
      </trkpt>
      <trkpt lat="44.15063" lon="3.1279">
        <ele>827.5</ele>
        <time>2019-04-19T12:54:55Z</time>
      </trkpt>
      <trkpt lat="44.15065" lon="3.12786">
        <ele>827.7</ele>
        <time>2019-04-19T12:54:56Z</time>
      </trkpt>
      <trkpt lat="44.15066" lon="3.12782">
        <ele>827.9</ele>
        <time>2019-04-19T12:54:57Z</time>
      </trkpt>
      <trkpt lat="44.15067" lon="3.12778">
        <ele>828.1</ele>
        <time>2019-04-19T12:54:58Z</time>
      </trkpt>
      <trkpt lat="44.15069" lon="3.12772">
        <ele>828.4</ele>
        <time>2019-04-19T12:55:00Z</time>
      </trkpt>
      <trkpt lat="44.15071" lon="3.12766">
        <ele>828.7</ele>
        <time>2019-04-19T12:55:02Z</time>
      </trkpt>
      <trkpt lat="44.15073" lon="3.12758">
        <ele>829.1</ele>
        <time>2019-04-19T12:55:04Z</time>
      </trkpt>
      <trkpt lat="44.15076" lon="3.12755">
        <ele>829.3</ele>
        <time>2019-04-19T12:55:06Z</time>
      </trkpt>
      <trkpt lat="44.15077" lon="3.12751">
        <ele>829.6</ele>
        <time>2019-04-19T12:55:07Z</time>
      </trkpt>
      <trkpt lat="44.15079" lon="3.12747">
        <ele>829.8</ele>
        <time>2019-04-19T12:55:08Z</time>
      </trkpt>
      <trkpt lat="44.15081" lon="3.12743">
        <ele>830</ele>
        <time>2019-04-19T12:55:09Z</time>
      </trkpt>
      <trkpt lat="44.15083" lon="3.12739">
        <ele>830.2</ele>
        <time>2019-04-19T12:55:10Z</time>
      </trkpt>
      <trkpt lat="44.15084" lon="3.12735">
        <ele>830.3</ele>
        <time>2019-04-19T12:55:11Z</time>
      </trkpt>
      <trkpt lat="44.15086" lon="3.12732">
        <ele>830.5</ele>
        <time>2019-04-19T12:55:12Z</time>
      </trkpt>
      <trkpt lat="44.1509" lon="3.12726">
        <ele>830.8</ele>
        <time>2019-04-19T12:55:14Z</time>
      </trkpt>
      <trkpt lat="44.15092" lon="3.12722">
        <ele>830.9</ele>
        <time>2019-04-19T12:55:15Z</time>
      </trkpt>
      <trkpt lat="44.15093" lon="3.12719">
        <ele>831</ele>
        <time>2019-04-19T12:55:16Z</time>
      </trkpt>
      <trkpt lat="44.15095" lon="3.12716">
        <ele>831.1</ele>
        <time>2019-04-19T12:55:17Z</time>
      </trkpt>
      <trkpt lat="44.15097" lon="3.12712">
        <ele>831.2</ele>
        <time>2019-04-19T12:55:18Z</time>
      </trkpt>
      <trkpt lat="44.15099" lon="3.12709">
        <ele>831.3</ele>
        <time>2019-04-19T12:55:19Z</time>
      </trkpt>
      <trkpt lat="44.15101" lon="3.12706">
        <ele>831.4</ele>
        <time>2019-04-19T12:55:20Z</time>
      </trkpt>
      <trkpt lat="44.15104" lon="3.12703">
        <ele>831.5</ele>
        <time>2019-04-19T12:55:21Z</time>
      </trkpt>
      <trkpt lat="44.15107" lon="3.12696">
        <ele>831.6</ele>
        <time>2019-04-19T12:55:23Z</time>
      </trkpt>
      <trkpt lat="44.15109" lon="3.12691">
        <ele>831.7</ele>
        <time>2019-04-19T12:55:24Z</time>
      </trkpt>
      <trkpt lat="44.15112" lon="3.12686">
        <ele>831.8</ele>
        <time>2019-04-19T12:55:25Z</time>
      </trkpt>
      <trkpt lat="44.15114" lon="3.12681">
        <ele>831.9</ele>
        <time>2019-04-19T12:55:26Z</time>
      </trkpt>
      <trkpt lat="44.15115" lon="3.12677">
        <ele>831.9</ele>
        <time>2019-04-19T12:55:27Z</time>
      </trkpt>
      <trkpt lat="44.15115" lon="3.12671">
        <ele>831.9</ele>
        <time>2019-04-19T12:55:28Z</time>
      </trkpt>
      <trkpt lat="44.15115" lon="3.12666">
        <ele>831.9</ele>
        <time>2019-04-19T12:55:29Z</time>
      </trkpt>
      <trkpt lat="44.15115" lon="3.1266">
        <ele>832</ele>
        <time>2019-04-19T12:55:30Z</time>
      </trkpt>
      <trkpt lat="44.15115" lon="3.12654">
        <ele>832</ele>
        <time>2019-04-19T12:55:31Z</time>
      </trkpt>
      <trkpt lat="44.15114" lon="3.12648">
        <ele>832</ele>
        <time>2019-04-19T12:55:32Z</time>
      </trkpt>
      <trkpt lat="44.15113" lon="3.12644">
        <ele>832</ele>
        <time>2019-04-19T12:55:33Z</time>
      </trkpt>
      <trkpt lat="44.15111" lon="3.12639">
        <ele>832.1</ele>
        <time>2019-04-19T12:55:34Z</time>
      </trkpt>
      <trkpt lat="44.15108" lon="3.12635">
        <ele>832.1</ele>
        <time>2019-04-19T12:55:35Z</time>
      </trkpt>
      <trkpt lat="44.15106" lon="3.12632">
        <ele>832.1</ele>
        <time>2019-04-19T12:55:36Z</time>
      </trkpt>
      <trkpt lat="44.15102" lon="3.12628">
        <ele>832.2</ele>
        <time>2019-04-19T12:55:37Z</time>
      </trkpt>
      <trkpt lat="44.15099" lon="3.12624">
        <ele>832.2</ele>
        <time>2019-04-19T12:55:38Z</time>
      </trkpt>
      <trkpt lat="44.15096" lon="3.1262">
        <ele>832.3</ele>
        <time>2019-04-19T12:55:39Z</time>
      </trkpt>
      <trkpt lat="44.15093" lon="3.12616">
        <ele>832.4</ele>
        <time>2019-04-19T12:55:40Z</time>
      </trkpt>
      <trkpt lat="44.1509" lon="3.12612">
        <ele>832.4</ele>
        <time>2019-04-19T12:55:41Z</time>
      </trkpt>
      <trkpt lat="44.15088" lon="3.12608">
        <ele>832.5</ele>
        <time>2019-04-19T12:55:42Z</time>
      </trkpt>
      <trkpt lat="44.15085" lon="3.12605">
        <ele>832.5</ele>
        <time>2019-04-19T12:55:43Z</time>
      </trkpt>
      <trkpt lat="44.15082" lon="3.12601">
        <ele>832.6</ele>
        <time>2019-04-19T12:55:44Z</time>
      </trkpt>
      <trkpt lat="44.15079" lon="3.12598">
        <ele>832.6</ele>
        <time>2019-04-19T12:55:45Z</time>
      </trkpt>
      <trkpt lat="44.15076" lon="3.12594">
        <ele>832.6</ele>
        <time>2019-04-19T12:55:46Z</time>
      </trkpt>
      <trkpt lat="44.15073" lon="3.1259">
        <ele>832.7</ele>
        <time>2019-04-19T12:55:47Z</time>
      </trkpt>
      <trkpt lat="44.1507" lon="3.12588">
        <ele>832.7</ele>
        <time>2019-04-19T12:55:48Z</time>
      </trkpt>
      <trkpt lat="44.15066" lon="3.12586">
        <ele>832.7</ele>
        <time>2019-04-19T12:55:49Z</time>
      </trkpt>
      <trkpt lat="44.15062" lon="3.12583">
        <ele>832.7</ele>
        <time>2019-04-19T12:55:50Z</time>
      </trkpt>
      <trkpt lat="44.15058" lon="3.12581">
        <ele>832.4</ele>
        <time>2019-04-19T12:55:51Z</time>
      </trkpt>
      <trkpt lat="44.15054" lon="3.12578">
        <ele>832.1</ele>
        <time>2019-04-19T12:55:52Z</time>
      </trkpt>
      <trkpt lat="44.1505" lon="3.12575">
        <ele>831.8</ele>
        <time>2019-04-19T12:55:53Z</time>
      </trkpt>
      <trkpt lat="44.15046" lon="3.12572">
        <ele>831.5</ele>
        <time>2019-04-19T12:55:54Z</time>
      </trkpt>
      <trkpt lat="44.15042" lon="3.12568">
        <ele>831.3</ele>
        <time>2019-04-19T12:55:55Z</time>
      </trkpt>
      <trkpt lat="44.15038" lon="3.12565">
        <ele>831.2</ele>
        <time>2019-04-19T12:55:56Z</time>
      </trkpt>
      <trkpt lat="44.15035" lon="3.12562">
        <ele>831.1</ele>
        <time>2019-04-19T12:55:57Z</time>
      </trkpt>
      <trkpt lat="44.15032" lon="3.12557">
        <ele>831</ele>
        <time>2019-04-19T12:55:58Z</time>
      </trkpt>
      <trkpt lat="44.15028" lon="3.12544">
        <ele>830.9</ele>
        <time>2019-04-19T12:55:59Z</time>
      </trkpt>
      <trkpt lat="44.15027" lon="3.12538">
        <ele>830.8</ele>
        <time>2019-04-19T12:56:00Z</time>
      </trkpt>
      <trkpt lat="44.15025" lon="3.12532">
        <ele>830.8</ele>
        <time>2019-04-19T12:56:01Z</time>
      </trkpt>
      <trkpt lat="44.15022" lon="3.12525">
        <ele>830.8</ele>
        <time>2019-04-19T12:56:02Z</time>
      </trkpt>
      <trkpt lat="44.15019" lon="3.12519">
        <ele>830.7</ele>
        <time>2019-04-19T12:56:03Z</time>
      </trkpt>
      <trkpt lat="44.15017" lon="3.12514">
        <ele>830.7</ele>
        <time>2019-04-19T12:56:04Z</time>
      </trkpt>
      <trkpt lat="44.15016" lon="3.12508">
        <ele>830.6</ele>
        <time>2019-04-19T12:56:05Z</time>
      </trkpt>
      <trkpt lat="44.15018" lon="3.12498">
        <ele>830.5</ele>
        <time>2019-04-19T12:56:06Z</time>
      </trkpt>
      <trkpt lat="44.15015" lon="3.12489">
        <ele>830.3</ele>
        <time>2019-04-19T12:56:07Z</time>
      </trkpt>
      <trkpt lat="44.15013" lon="3.12481">
        <ele>830.2</ele>
        <time>2019-04-19T12:56:08Z</time>
      </trkpt>
      <trkpt lat="44.15012" lon="3.12473">
        <ele>830.1</ele>
        <time>2019-04-19T12:56:09Z</time>
      </trkpt>
      <trkpt lat="44.15012" lon="3.12463">
        <ele>830</ele>
        <time>2019-04-19T12:56:11Z</time>
      </trkpt>
      <trkpt lat="44.15009" lon="3.12456">
        <ele>829.9</ele>
        <time>2019-04-19T12:56:12Z</time>
      </trkpt>
      <trkpt lat="44.15007" lon="3.12448">
        <ele>829.9</ele>
        <time>2019-04-19T12:56:13Z</time>
      </trkpt>
      <trkpt lat="44.15003" lon="3.12441">
        <ele>829.9</ele>
        <time>2019-04-19T12:56:14Z</time>
      </trkpt>
      <trkpt lat="44.15005" lon="3.12436">
        <ele>829.9</ele>
        <time>2019-04-19T12:56:15Z</time>
      </trkpt>
      <trkpt lat="44.15005" lon="3.12428">
        <ele>829.9</ele>
        <time>2019-04-19T12:56:16Z</time>
      </trkpt>
      <trkpt lat="44.15003" lon="3.12422">
        <ele>829.9</ele>
        <time>2019-04-19T12:56:17Z</time>
      </trkpt>
      <trkpt lat="44.15" lon="3.12416">
        <ele>830</ele>
        <time>2019-04-19T12:56:18Z</time>
      </trkpt>
      <trkpt lat="44.14998" lon="3.1241">
        <ele>830</ele>
        <time>2019-04-19T12:56:19Z</time>
      </trkpt>
      <trkpt lat="44.14996" lon="3.12406">
        <ele>830.1</ele>
        <time>2019-04-19T12:56:20Z</time>
      </trkpt>
      <trkpt lat="44.14994" lon="3.124">
        <ele>830.2</ele>
        <time>2019-04-19T12:56:21Z</time>
      </trkpt>
      <trkpt lat="44.14994" lon="3.12394">
        <ele>830.3</ele>
        <time>2019-04-19T12:56:22Z</time>
      </trkpt>
      <trkpt lat="44.14994" lon="3.12388">
        <ele>830.4</ele>
        <time>2019-04-19T12:56:23Z</time>
      </trkpt>
      <trkpt lat="44.14989" lon="3.1238">
        <ele>830.6</ele>
        <time>2019-04-19T12:56:24Z</time>
      </trkpt>
      <trkpt lat="44.14986" lon="3.1237">
        <ele>830.7</ele>
        <time>2019-04-19T12:56:25Z</time>
      </trkpt>
      <trkpt lat="44.14983" lon="3.12363">
        <ele>830.9</ele>
        <time>2019-04-19T12:56:26Z</time>
      </trkpt>
      <trkpt lat="44.14981" lon="3.12355">
        <ele>831</ele>
        <time>2019-04-19T12:56:27Z</time>
      </trkpt>
      <trkpt lat="44.14977" lon="3.12347">
        <ele>831.2</ele>
        <time>2019-04-19T12:56:28Z</time>
      </trkpt>
      <trkpt lat="44.14974" lon="3.12339">
        <ele>831.4</ele>
        <time>2019-04-19T12:56:29Z</time>
      </trkpt>
      <trkpt lat="44.14972" lon="3.12329">
        <ele>831.6</ele>
        <time>2019-04-19T12:56:30Z</time>
      </trkpt>
      <trkpt lat="44.14968" lon="3.12321">
        <ele>831.7</ele>
        <time>2019-04-19T12:56:31Z</time>
      </trkpt>
      <trkpt lat="44.1497" lon="3.12317">
        <ele>831.7</ele>
        <time>2019-04-19T12:56:32Z</time>
      </trkpt>
      <trkpt lat="44.14964" lon="3.12313">
        <ele>831.7</ele>
        <time>2019-04-19T12:56:33Z</time>
      </trkpt>
      <trkpt lat="44.14961" lon="3.12307">
        <ele>831.7</ele>
        <time>2019-04-19T12:56:34Z</time>
      </trkpt>
      <trkpt lat="44.14958" lon="3.12298">
        <ele>831.7</ele>
        <time>2019-04-19T12:56:35Z</time>
      </trkpt>
      <trkpt lat="44.14957" lon="3.1229">
        <ele>831.6</ele>
        <time>2019-04-19T12:56:36Z</time>
      </trkpt>
      <trkpt lat="44.14956" lon="3.12282">
        <ele>831.5</ele>
        <time>2019-04-19T12:56:37Z</time>
      </trkpt>
      <trkpt lat="44.14955" lon="3.12277">
        <ele>831.5</ele>
        <time>2019-04-19T12:56:38Z</time>
      </trkpt>
      <trkpt lat="44.14952" lon="3.12268">
        <ele>831.4</ele>
        <time>2019-04-19T12:56:39Z</time>
      </trkpt>
      <trkpt lat="44.14949" lon="3.12263">
        <ele>831.4</ele>
        <time>2019-04-19T12:56:40Z</time>
      </trkpt>
      <trkpt lat="44.1495" lon="3.12255">
        <ele>831.4</ele>
        <time>2019-04-19T12:56:41Z</time>
      </trkpt>
      <trkpt lat="44.1495" lon="3.12248">
        <ele>831.4</ele>
        <time>2019-04-19T12:56:42Z</time>
      </trkpt>
      <trkpt lat="44.14944" lon="3.12239">
        <ele>831.5</ele>
        <time>2019-04-19T12:56:43Z</time>
      </trkpt>
      <trkpt lat="44.14943" lon="3.12231">
        <ele>831.6</ele>
        <time>2019-04-19T12:56:44Z</time>
      </trkpt>
      <trkpt lat="44.14944" lon="3.12225">
        <ele>831.7</ele>
        <time>2019-04-19T12:56:45Z</time>
      </trkpt>
      <trkpt lat="44.14943" lon="3.12218">
        <ele>831.8</ele>
        <time>2019-04-19T12:56:46Z</time>
      </trkpt>
      <trkpt lat="44.14941" lon="3.12211">
        <ele>831.9</ele>
        <time>2019-04-19T12:56:47Z</time>
      </trkpt>
      <trkpt lat="44.14936" lon="3.12204">
        <ele>832</ele>
        <time>2019-04-19T12:56:48Z</time>
      </trkpt>
      <trkpt lat="44.14941" lon="3.12198">
        <ele>832.1</ele>
        <time>2019-04-19T12:56:49Z</time>
      </trkpt>
      <trkpt lat="44.14938" lon="3.12191">
        <ele>832.2</ele>
        <time>2019-04-19T12:56:50Z</time>
      </trkpt>
      <trkpt lat="44.14938" lon="3.12186">
        <ele>832.3</ele>
        <time>2019-04-19T12:56:51Z</time>
      </trkpt>
      <trkpt lat="44.1494" lon="3.1218">
        <ele>832.4</ele>
        <time>2019-04-19T12:56:52Z</time>
      </trkpt>
      <trkpt lat="44.1494" lon="3.12175">
        <ele>832.5</ele>
        <time>2019-04-19T12:56:53Z</time>
      </trkpt>
      <trkpt lat="44.14938" lon="3.1217">
        <ele>832.6</ele>
        <time>2019-04-19T12:56:54Z</time>
      </trkpt>
      <trkpt lat="44.14933" lon="3.12164">
        <ele>832.8</ele>
        <time>2019-04-19T12:56:55Z</time>
      </trkpt>
      <trkpt lat="44.14933" lon="3.12156">
        <ele>833.1</ele>
        <time>2019-04-19T12:56:57Z</time>
      </trkpt>
      <trkpt lat="44.14931" lon="3.12152">
        <ele>833.2</ele>
        <time>2019-04-19T12:56:58Z</time>
      </trkpt>
      <trkpt lat="44.1493" lon="3.12148">
        <ele>833.4</ele>
        <time>2019-04-19T12:56:59Z</time>
      </trkpt>
      <trkpt lat="44.14928" lon="3.12145">
        <ele>833.5</ele>
        <time>2019-04-19T12:57:00Z</time>
      </trkpt>
      <trkpt lat="44.14926" lon="3.12141">
        <ele>833.7</ele>
        <time>2019-04-19T12:57:01Z</time>
      </trkpt>
      <trkpt lat="44.14922" lon="3.12138">
        <ele>834</ele>
        <time>2019-04-19T12:57:02Z</time>
      </trkpt>
      <trkpt lat="44.14919" lon="3.12135">
        <ele>834.2</ele>
        <time>2019-04-19T12:57:03Z</time>
      </trkpt>
      <trkpt lat="44.14917" lon="3.12131">
        <ele>834.5</ele>
        <time>2019-04-19T12:57:04Z</time>
      </trkpt>
      <trkpt lat="44.14914" lon="3.12127">
        <ele>834.8</ele>
        <time>2019-04-19T12:57:05Z</time>
      </trkpt>
      <trkpt lat="44.14911" lon="3.12124">
        <ele>835</ele>
        <time>2019-04-19T12:57:06Z</time>
      </trkpt>
      <trkpt lat="44.14909" lon="3.12121">
        <ele>835.3</ele>
        <time>2019-04-19T12:57:07Z</time>
      </trkpt>
      <trkpt lat="44.14907" lon="3.12117">
        <ele>835.5</ele>
        <time>2019-04-19T12:57:08Z</time>
      </trkpt>
      <trkpt lat="44.14904" lon="3.12111">
        <ele>836.1</ele>
        <time>2019-04-19T12:57:10Z</time>
      </trkpt>
      <trkpt lat="44.14901" lon="3.12107">
        <ele>836.4</ele>
        <time>2019-04-19T12:57:11Z</time>
      </trkpt>
      <trkpt lat="44.14899" lon="3.12104">
        <ele>836.8</ele>
        <time>2019-04-19T12:57:12Z</time>
      </trkpt>
      <trkpt lat="44.14897" lon="3.121">
        <ele>837.1</ele>
        <time>2019-04-19T12:57:13Z</time>
      </trkpt>
      <trkpt lat="44.14895" lon="3.12097">
        <ele>837.5</ele>
        <time>2019-04-19T12:57:14Z</time>
      </trkpt>
      <trkpt lat="44.14894" lon="3.12091">
        <ele>838.1</ele>
        <time>2019-04-19T12:57:16Z</time>
      </trkpt>
      <trkpt lat="44.14894" lon="3.12085">
        <ele>838.6</ele>
        <time>2019-04-19T12:57:18Z</time>
      </trkpt>
      <trkpt lat="44.14892" lon="3.12078">
        <ele>839.2</ele>
        <time>2019-04-19T12:57:20Z</time>
      </trkpt>
      <trkpt lat="44.14891" lon="3.12075">
        <ele>839.5</ele>
        <time>2019-04-19T12:57:21Z</time>
      </trkpt>
      <trkpt lat="44.14889" lon="3.12067">
        <ele>840.1</ele>
        <time>2019-04-19T12:57:23Z</time>
      </trkpt>
      <trkpt lat="44.14887" lon="3.12064">
        <ele>840.4</ele>
        <time>2019-04-19T12:57:24Z</time>
      </trkpt>
      <trkpt lat="44.14885" lon="3.1206">
        <ele>840.7</ele>
        <time>2019-04-19T12:57:25Z</time>
      </trkpt>
      <trkpt lat="44.14883" lon="3.12056">
        <ele>841</ele>
        <time>2019-04-19T12:57:26Z</time>
      </trkpt>
      <trkpt lat="44.1488" lon="3.12052">
        <ele>841.2</ele>
        <time>2019-04-19T12:57:27Z</time>
      </trkpt>
      <trkpt lat="44.14877" lon="3.12047">
        <ele>841.4</ele>
        <time>2019-04-19T12:57:28Z</time>
      </trkpt>
      <trkpt lat="44.14875" lon="3.12043">
        <ele>841.6</ele>
        <time>2019-04-19T12:57:29Z</time>
      </trkpt>
      <trkpt lat="44.14872" lon="3.12038">
        <ele>841.8</ele>
        <time>2019-04-19T12:57:30Z</time>
      </trkpt>
      <trkpt lat="44.1487" lon="3.12033">
        <ele>842</ele>
        <time>2019-04-19T12:57:31Z</time>
      </trkpt>
      <trkpt lat="44.14868" lon="3.12028">
        <ele>842.1</ele>
        <time>2019-04-19T12:57:32Z</time>
      </trkpt>
      <trkpt lat="44.14866" lon="3.12024">
        <ele>842.3</ele>
        <time>2019-04-19T12:57:33Z</time>
      </trkpt>
      <trkpt lat="44.14865" lon="3.12019">
        <ele>842.4</ele>
        <time>2019-04-19T12:57:34Z</time>
      </trkpt>
      <trkpt lat="44.14863" lon="3.12013">
        <ele>842.5</ele>
        <time>2019-04-19T12:57:35Z</time>
      </trkpt>
      <trkpt lat="44.14861" lon="3.12008">
        <ele>842.6</ele>
        <time>2019-04-19T12:57:36Z</time>
      </trkpt>
      <trkpt lat="44.14856" lon="3.11999">
        <ele>842.8</ele>
        <time>2019-04-19T12:57:37Z</time>
      </trkpt>
      <trkpt lat="44.1485" lon="3.11995">
        <ele>842.9</ele>
        <time>2019-04-19T12:57:38Z</time>
      </trkpt>
      <trkpt lat="44.14847" lon="3.11989">
        <ele>842.9</ele>
        <time>2019-04-19T12:57:39Z</time>
      </trkpt>
      <trkpt lat="44.14845" lon="3.11982">
        <ele>842.9</ele>
        <time>2019-04-19T12:57:40Z</time>
      </trkpt>
      <trkpt lat="44.14843" lon="3.11976">
        <ele>843</ele>
        <time>2019-04-19T12:57:41Z</time>
      </trkpt>
      <trkpt lat="44.14847" lon="3.1197">
        <ele>843</ele>
        <time>2019-04-19T12:57:42Z</time>
      </trkpt>
      <trkpt lat="44.1485" lon="3.11964">
        <ele>842.7</ele>
        <time>2019-04-19T12:57:43Z</time>
      </trkpt>
      <trkpt lat="44.14853" lon="3.11958">
        <ele>842.3</ele>
        <time>2019-04-19T12:57:44Z</time>
      </trkpt>
      <trkpt lat="44.14858" lon="3.11955">
        <ele>841.9</ele>
        <time>2019-04-19T12:57:45Z</time>
      </trkpt>
      <trkpt lat="44.14861" lon="3.11952">
        <ele>841.7</ele>
        <time>2019-04-19T12:57:46Z</time>
      </trkpt>
      <trkpt lat="44.14867" lon="3.1195">
        <ele>841.3</ele>
        <time>2019-04-19T12:57:48Z</time>
      </trkpt>
      <trkpt lat="44.1487" lon="3.11946">
        <ele>841</ele>
        <time>2019-04-19T12:57:49Z</time>
      </trkpt>
      <trkpt lat="44.14874" lon="3.11947">
        <ele>840.8</ele>
        <time>2019-04-19T12:57:50Z</time>
      </trkpt>
      <trkpt lat="44.14877" lon="3.11943">
        <ele>840.5</ele>
        <time>2019-04-19T12:57:51Z</time>
      </trkpt>
      <trkpt lat="44.14882" lon="3.1194">
        <ele>840.2</ele>
        <time>2019-04-19T12:57:52Z</time>
      </trkpt>
      <trkpt lat="44.14884" lon="3.11937">
        <ele>839.9</ele>
        <time>2019-04-19T12:57:53Z</time>
      </trkpt>
      <trkpt lat="44.14886" lon="3.11933">
        <ele>839.5</ele>
        <time>2019-04-19T12:57:54Z</time>
      </trkpt>
      <trkpt lat="44.14891" lon="3.11936">
        <ele>839.1</ele>
        <time>2019-04-19T12:57:56Z</time>
      </trkpt>
      <trkpt lat="44.14893" lon="3.11935">
        <ele>838.8</ele>
        <time>2019-04-19T12:57:57Z</time>
      </trkpt>
      <trkpt lat="44.14896" lon="3.11933">
        <ele>838.6</ele>
        <time>2019-04-19T12:57:58Z</time>
      </trkpt>
      <trkpt lat="44.149" lon="3.11927">
        <ele>838.2</ele>
        <time>2019-04-19T12:57:59Z</time>
      </trkpt>
      <trkpt lat="44.14903" lon="3.11922">
        <ele>838</ele>
        <time>2019-04-19T12:58:00Z</time>
      </trkpt>
      <trkpt lat="44.14906" lon="3.11915">
        <ele>837.6</ele>
        <time>2019-04-19T12:58:01Z</time>
      </trkpt>
      <trkpt lat="44.14907" lon="3.1191">
        <ele>837.4</ele>
        <time>2019-04-19T12:58:02Z</time>
      </trkpt>
      <trkpt lat="44.14908" lon="3.11904">
        <ele>837.2</ele>
        <time>2019-04-19T12:58:03Z</time>
      </trkpt>
      <trkpt lat="44.14909" lon="3.11899">
        <ele>837</ele>
        <time>2019-04-19T12:58:04Z</time>
      </trkpt>
      <trkpt lat="44.1491" lon="3.11894">
        <ele>836.6</ele>
        <time>2019-04-19T12:58:05Z</time>
      </trkpt>
      <trkpt lat="44.14914" lon="3.11889">
        <ele>836.1</ele>
        <time>2019-04-19T12:58:06Z</time>
      </trkpt>
      <trkpt lat="44.14915" lon="3.11884">
        <ele>835.8</ele>
        <time>2019-04-19T12:58:07Z</time>
      </trkpt>
      <trkpt lat="44.14916" lon="3.11877">
        <ele>835.5</ele>
        <time>2019-04-19T12:58:08Z</time>
      </trkpt>
      <trkpt lat="44.14919" lon="3.11871">
        <ele>835.4</ele>
        <time>2019-04-19T12:58:09Z</time>
      </trkpt>
      <trkpt lat="44.14922" lon="3.11864">
        <ele>835.1</ele>
        <time>2019-04-19T12:58:10Z</time>
      </trkpt>
      <trkpt lat="44.14922" lon="3.11858">
        <ele>835</ele>
        <time>2019-04-19T12:58:11Z</time>
      </trkpt>
      <trkpt lat="44.14923" lon="3.11852">
        <ele>834.8</ele>
        <time>2019-04-19T12:58:12Z</time>
      </trkpt>
      <trkpt lat="44.14924" lon="3.11845">
        <ele>834.5</ele>
        <time>2019-04-19T12:58:13Z</time>
      </trkpt>
      <trkpt lat="44.14927" lon="3.11837">
        <ele>834.2</ele>
        <time>2019-04-19T12:58:14Z</time>
      </trkpt>
      <trkpt lat="44.14926" lon="3.11831">
        <ele>834.1</ele>
        <time>2019-04-19T12:58:15Z</time>
      </trkpt>
      <trkpt lat="44.14928" lon="3.11825">
        <ele>834</ele>
        <time>2019-04-19T12:58:16Z</time>
      </trkpt>
      <trkpt lat="44.1493" lon="3.11821">
        <ele>833.9</ele>
        <time>2019-04-19T12:58:17Z</time>
      </trkpt>
      <trkpt lat="44.14933" lon="3.11816">
        <ele>833.8</ele>
        <time>2019-04-19T12:58:18Z</time>
      </trkpt>
      <trkpt lat="44.14935" lon="3.11811">
        <ele>833.6</ele>
        <time>2019-04-19T12:58:19Z</time>
      </trkpt>
      <trkpt lat="44.14937" lon="3.11806">
        <ele>833.5</ele>
        <time>2019-04-19T12:58:20Z</time>
      </trkpt>
      <trkpt lat="44.14939" lon="3.11801">
        <ele>833.4</ele>
        <time>2019-04-19T12:58:21Z</time>
      </trkpt>
      <trkpt lat="44.1494" lon="3.11796">
        <ele>833.3</ele>
        <time>2019-04-19T12:58:22Z</time>
      </trkpt>
      <trkpt lat="44.14942" lon="3.11791">
        <ele>833.2</ele>
        <time>2019-04-19T12:58:23Z</time>
      </trkpt>
      <trkpt lat="44.14945" lon="3.11787">
        <ele>833</ele>
        <time>2019-04-19T12:58:24Z</time>
      </trkpt>
      <trkpt lat="44.14948" lon="3.11784">
        <ele>832.8</ele>
        <time>2019-04-19T12:58:25Z</time>
      </trkpt>
      <trkpt lat="44.14951" lon="3.11782">
        <ele>832.7</ele>
        <time>2019-04-19T12:58:26Z</time>
      </trkpt>
      <trkpt lat="44.14954" lon="3.11779">
        <ele>832.5</ele>
        <time>2019-04-19T12:58:27Z</time>
      </trkpt>
      <trkpt lat="44.14958" lon="3.11778">
        <ele>832.3</ele>
        <time>2019-04-19T12:58:28Z</time>
      </trkpt>
      <trkpt lat="44.14962" lon="3.11777">
        <ele>832.2</ele>
        <time>2019-04-19T12:58:29Z</time>
      </trkpt>
      <trkpt lat="44.14965" lon="3.11777">
        <ele>832.1</ele>
        <time>2019-04-19T12:58:30Z</time>
      </trkpt>
      <trkpt lat="44.14968" lon="3.11776">
        <ele>831.9</ele>
        <time>2019-04-19T12:58:31Z</time>
      </trkpt>
      <trkpt lat="44.14972" lon="3.11774">
        <ele>831.8</ele>
        <time>2019-04-19T12:58:32Z</time>
      </trkpt>
      <trkpt lat="44.14975" lon="3.11773">
        <ele>831.6</ele>
        <time>2019-04-19T12:58:33Z</time>
      </trkpt>
      <trkpt lat="44.14978" lon="3.11772">
        <ele>831.4</ele>
        <time>2019-04-19T12:58:34Z</time>
      </trkpt>
      <trkpt lat="44.14981" lon="3.11771">
        <ele>831.2</ele>
        <time>2019-04-19T12:58:35Z</time>
      </trkpt>
      <trkpt lat="44.14985" lon="3.1177">
        <ele>830.9</ele>
        <time>2019-04-19T12:58:36Z</time>
      </trkpt>
      <trkpt lat="44.14989" lon="3.11769">
        <ele>830.7</ele>
        <time>2019-04-19T12:58:37Z</time>
      </trkpt>
      <trkpt lat="44.14993" lon="3.1177">
        <ele>830.3</ele>
        <time>2019-04-19T12:58:38Z</time>
      </trkpt>
      <trkpt lat="44.14997" lon="3.11771">
        <ele>830</ele>
        <time>2019-04-19T12:58:39Z</time>
      </trkpt>
      <trkpt lat="44.15002" lon="3.11772">
        <ele>829.7</ele>
        <time>2019-04-19T12:58:40Z</time>
      </trkpt>
      <trkpt lat="44.15006" lon="3.11773">
        <ele>829.5</ele>
        <time>2019-04-19T12:58:41Z</time>
      </trkpt>
      <trkpt lat="44.1501" lon="3.11774">
        <ele>829.2</ele>
        <time>2019-04-19T12:58:42Z</time>
      </trkpt>
      <trkpt lat="44.15013" lon="3.11775">
        <ele>829.1</ele>
        <time>2019-04-19T12:58:43Z</time>
      </trkpt>
      <trkpt lat="44.15017" lon="3.11776">
        <ele>828.9</ele>
        <time>2019-04-19T12:58:44Z</time>
      </trkpt>
      <trkpt lat="44.1502" lon="3.11777">
        <ele>828.8</ele>
        <time>2019-04-19T12:58:45Z</time>
      </trkpt>
      <trkpt lat="44.15023" lon="3.11778">
        <ele>828.7</ele>
        <time>2019-04-19T12:58:46Z</time>
      </trkpt>
      <trkpt lat="44.15026" lon="3.11779">
        <ele>828.5</ele>
        <time>2019-04-19T12:58:47Z</time>
      </trkpt>
      <trkpt lat="44.1503" lon="3.11778">
        <ele>828.4</ele>
        <time>2019-04-19T12:58:49Z</time>
      </trkpt>
      <trkpt lat="44.15031" lon="3.11775">
        <ele>828.3</ele>
        <time>2019-04-19T12:58:54Z</time>
      </trkpt>
      <trkpt lat="44.15032" lon="3.11771">
        <ele>828.2</ele>
        <time>2019-04-19T12:59:04Z</time>
      </trkpt>
      <trkpt lat="44.15035" lon="3.11768">
        <ele>828</ele>
        <time>2019-04-19T13:00:04Z</time>
      </trkpt>
      <trkpt lat="44.15038" lon="3.11768">
        <ele>827.1</ele>
        <time>2019-04-19T13:00:06Z</time>
      </trkpt>
      <trkpt lat="44.15042" lon="3.11771">
        <ele>826.3</ele>
        <time>2019-04-19T13:00:08Z</time>
      </trkpt>
      <trkpt lat="44.15043" lon="3.11775">
        <ele>827.5</ele>
        <time>2019-04-19T13:00:11Z</time>
      </trkpt>
      <trkpt lat="44.15046" lon="3.11776">
        <ele>827.9</ele>
        <time>2019-04-19T13:06:24Z</time>
      </trkpt>
      <trkpt lat="44.15044" lon="3.11779">
        <ele>827.9</ele>
        <time>2019-04-19T13:06:27Z</time>
      </trkpt>
      <trkpt lat="44.15048" lon="3.11788">
        <ele>829.4</ele>
        <time>2019-04-19T13:06:49Z</time>
      </trkpt>
      <trkpt lat="44.15051" lon="3.11791">
        <ele>829.5</ele>
        <time>2019-04-19T13:06:50Z</time>
      </trkpt>
      <trkpt lat="44.15054" lon="3.11795">
        <ele>829.6</ele>
        <time>2019-04-19T13:06:51Z</time>
      </trkpt>
      <trkpt lat="44.15056" lon="3.11799">
        <ele>830.7</ele>
        <time>2019-04-19T13:06:52Z</time>
      </trkpt>
      <trkpt lat="44.15058" lon="3.11803">
        <ele>830.8</ele>
        <time>2019-04-19T13:06:53Z</time>
      </trkpt>
      <trkpt lat="44.1506" lon="3.11807">
        <ele>830.9</ele>
        <time>2019-04-19T13:06:54Z</time>
      </trkpt>
      <trkpt lat="44.15062" lon="3.11811">
        <ele>831</ele>
        <time>2019-04-19T13:06:55Z</time>
      </trkpt>
      <trkpt lat="44.15064" lon="3.11815">
        <ele>832.2</ele>
        <time>2019-04-19T13:06:56Z</time>
      </trkpt>
      <trkpt lat="44.15065" lon="3.11819">
        <ele>833.4</ele>
        <time>2019-04-19T13:06:57Z</time>
      </trkpt>
      <trkpt lat="44.15065" lon="3.11824">
        <ele>834.5</ele>
        <time>2019-04-19T13:06:58Z</time>
      </trkpt>
      <trkpt lat="44.15064" lon="3.11828">
        <ele>835.6</ele>
        <time>2019-04-19T13:06:59Z</time>
      </trkpt>
      <trkpt lat="44.15065" lon="3.11833">
        <ele>835.8</ele>
        <time>2019-04-19T13:07:00Z</time>
      </trkpt>
      <trkpt lat="44.15067" lon="3.11837">
        <ele>837</ele>
        <time>2019-04-19T13:07:01Z</time>
      </trkpt>
      <trkpt lat="44.15068" lon="3.1184">
        <ele>836.8</ele>
        <time>2019-04-19T13:07:02Z</time>
      </trkpt>
      <trkpt lat="44.1507" lon="3.11843">
        <ele>836.8</ele>
        <time>2019-04-19T13:07:03Z</time>
      </trkpt>
      <trkpt lat="44.15072" lon="3.11847">
        <ele>837</ele>
        <time>2019-04-19T13:07:04Z</time>
      </trkpt>
      <trkpt lat="44.1508" lon="3.11851">
        <ele>835.9</ele>
        <time>2019-04-19T13:07:05Z</time>
      </trkpt>
      <trkpt lat="44.15084" lon="3.11855">
        <ele>835.9</ele>
        <time>2019-04-19T13:07:06Z</time>
      </trkpt>
      <trkpt lat="44.15087" lon="3.11859">
        <ele>834.7</ele>
        <time>2019-04-19T13:07:07Z</time>
      </trkpt>
      <trkpt lat="44.15091" lon="3.11863">
        <ele>834.6</ele>
        <time>2019-04-19T13:07:08Z</time>
      </trkpt>
      <trkpt lat="44.15096" lon="3.11863">
        <ele>833.5</ele>
        <time>2019-04-19T13:07:09Z</time>
      </trkpt>
      <trkpt lat="44.15099" lon="3.11864">
        <ele>831.2</ele>
        <time>2019-04-19T13:07:10Z</time>
      </trkpt>
      <trkpt lat="44.15102" lon="3.11863">
        <ele>829.9</ele>
        <time>2019-04-19T13:07:11Z</time>
      </trkpt>
      <trkpt lat="44.15106" lon="3.11867">
        <ele>829.6</ele>
        <time>2019-04-19T13:07:12Z</time>
      </trkpt>
      <trkpt lat="44.15109" lon="3.11872">
        <ele>829.1</ele>
        <time>2019-04-19T13:07:13Z</time>
      </trkpt>
      <trkpt lat="44.15111" lon="3.11876">
        <ele>829.9</ele>
        <time>2019-04-19T13:07:14Z</time>
      </trkpt>
      <trkpt lat="44.15113" lon="3.11879">
        <ele>829.3</ele>
        <time>2019-04-19T13:07:15Z</time>
      </trkpt>
      <trkpt lat="44.15117" lon="3.11882">
        <ele>827.9</ele>
        <time>2019-04-19T13:07:16Z</time>
      </trkpt>
      <trkpt lat="44.15123" lon="3.11883">
        <ele>825</ele>
        <time>2019-04-19T13:07:17Z</time>
      </trkpt>
      <trkpt lat="44.15127" lon="3.11889">
        <ele>825.4</ele>
        <time>2019-04-19T13:07:18Z</time>
      </trkpt>
      <trkpt lat="44.1513" lon="3.11893">
        <ele>823.6</ele>
        <time>2019-04-19T13:07:19Z</time>
      </trkpt>
      <trkpt lat="44.15131" lon="3.11897">
        <ele>824.5</ele>
        <time>2019-04-19T13:07:20Z</time>
      </trkpt>
      <trkpt lat="44.15136" lon="3.11905">
        <ele>824.9</ele>
        <time>2019-04-19T13:07:21Z</time>
      </trkpt>
      <trkpt lat="44.1514" lon="3.11913">
        <ele>823</ele>
        <time>2019-04-19T13:07:22Z</time>
      </trkpt>
      <trkpt lat="44.15146" lon="3.11917">
        <ele>821.3</ele>
        <time>2019-04-19T13:07:23Z</time>
      </trkpt>
      <trkpt lat="44.15151" lon="3.11919">
        <ele>821</ele>
        <time>2019-04-19T13:07:24Z</time>
      </trkpt>
      <trkpt lat="44.15155" lon="3.11918">
        <ele>818.9</ele>
        <time>2019-04-19T13:07:25Z</time>
      </trkpt>
      <trkpt lat="44.15161" lon="3.11914">
        <ele>815.5</ele>
        <time>2019-04-19T13:08:50Z</time>
      </trkpt>
      <trkpt lat="44.15165" lon="3.11917">
        <ele>815.1</ele>
        <time>2019-04-19T13:08:52Z</time>
      </trkpt>
      <trkpt lat="44.15168" lon="3.11921">
        <ele>813.7</ele>
        <time>2019-04-19T13:08:53Z</time>
      </trkpt>
      <trkpt lat="44.15171" lon="3.11925">
        <ele>813.4</ele>
        <time>2019-04-19T13:08:54Z</time>
      </trkpt>
      <trkpt lat="44.15175" lon="3.11929">
        <ele>813.3</ele>
        <time>2019-04-19T13:08:55Z</time>
      </trkpt>
      <trkpt lat="44.15178" lon="3.11933">
        <ele>813.3</ele>
        <time>2019-04-19T13:08:56Z</time>
      </trkpt>
      <trkpt lat="44.15181" lon="3.11937">
        <ele>813.4</ele>
        <time>2019-04-19T13:08:57Z</time>
      </trkpt>
      <trkpt lat="44.15184" lon="3.11942">
        <ele>813.5</ele>
        <time>2019-04-19T13:08:58Z</time>
      </trkpt>
      <trkpt lat="44.15186" lon="3.11946">
        <ele>813.6</ele>
        <time>2019-04-19T13:08:59Z</time>
      </trkpt>
      <trkpt lat="44.15183" lon="3.11955">
        <ele>816.9</ele>
        <time>2019-04-19T13:09:00Z</time>
      </trkpt>
      <trkpt lat="44.1518" lon="3.11963">
        <ele>819.7</ele>
        <time>2019-04-19T13:09:02Z</time>
      </trkpt>
      <trkpt lat="44.15176" lon="3.11966">
        <ele>821.5</ele>
        <time>2019-04-19T13:09:04Z</time>
      </trkpt>
      <trkpt lat="44.15172" lon="3.11968">
        <ele>823.3</ele>
        <time>2019-04-19T13:09:05Z</time>
      </trkpt>
      <trkpt lat="44.15172" lon="3.11973">
        <ele>824.1</ele>
        <time>2019-04-19T13:09:06Z</time>
      </trkpt>
      <trkpt lat="44.15169" lon="3.1198">
        <ele>826.6</ele>
        <time>2019-04-19T13:09:07Z</time>
      </trkpt>
      <trkpt lat="44.15168" lon="3.11987">
        <ele>828.1</ele>
        <time>2019-04-19T13:09:08Z</time>
      </trkpt>
      <trkpt lat="44.15168" lon="3.11993">
        <ele>828.7</ele>
        <time>2019-04-19T13:09:09Z</time>
      </trkpt>
      <trkpt lat="44.15168" lon="3.11998">
        <ele>829.3</ele>
        <time>2019-04-19T13:09:10Z</time>
      </trkpt>
      <trkpt lat="44.15169" lon="3.12006">
        <ele>830.3</ele>
        <time>2019-04-19T13:09:11Z</time>
      </trkpt>
      <trkpt lat="44.15171" lon="3.1201">
        <ele>830.1</ele>
        <time>2019-04-19T13:09:12Z</time>
      </trkpt>
      <trkpt lat="44.15176" lon="3.12015">
        <ele>830.2</ele>
        <time>2019-04-19T13:09:14Z</time>
      </trkpt>
      <trkpt lat="44.15179" lon="3.12019">
        <ele>829.6</ele>
        <time>2019-04-19T13:09:15Z</time>
      </trkpt>
      <trkpt lat="44.15184" lon="3.12022">
        <ele>829.4</ele>
        <time>2019-04-19T13:09:17Z</time>
      </trkpt>
      <trkpt lat="44.1519" lon="3.12022">
        <ele>828</ele>
        <time>2019-04-19T13:09:18Z</time>
      </trkpt>
      <trkpt lat="44.15194" lon="3.12023">
        <ele>827.2</ele>
        <time>2019-04-19T13:09:19Z</time>
      </trkpt>
      <trkpt lat="44.15199" lon="3.12025">
        <ele>826.2</ele>
        <time>2019-04-19T13:09:20Z</time>
      </trkpt>
      <trkpt lat="44.15203" lon="3.12026">
        <ele>825.4</ele>
        <time>2019-04-19T13:09:21Z</time>
      </trkpt>
      <trkpt lat="44.15206" lon="3.12028">
        <ele>824.6</ele>
        <time>2019-04-19T13:09:22Z</time>
      </trkpt>
      <trkpt lat="44.1521" lon="3.12029">
        <ele>823.8</ele>
        <time>2019-04-19T13:09:23Z</time>
      </trkpt>
      <trkpt lat="44.15213" lon="3.12029">
        <ele>822</ele>
        <time>2019-04-19T13:09:24Z</time>
      </trkpt>
      <trkpt lat="44.15216" lon="3.12029">
        <ele>821</ele>
        <time>2019-04-19T13:09:25Z</time>
      </trkpt>
      <trkpt lat="44.15221" lon="3.1203">
        <ele>820.6</ele>
        <time>2019-04-19T13:09:27Z</time>
      </trkpt>
      <trkpt lat="44.15225" lon="3.12032">
        <ele>818.4</ele>
        <time>2019-04-19T13:09:28Z</time>
      </trkpt>
      <trkpt lat="44.1523" lon="3.12034">
        <ele>818</ele>
        <time>2019-04-19T13:09:29Z</time>
      </trkpt>
      <trkpt lat="44.15233" lon="3.12037">
        <ele>816.9</ele>
        <time>2019-04-19T13:09:30Z</time>
      </trkpt>
      <trkpt lat="44.15236" lon="3.12039">
        <ele>816.7</ele>
        <time>2019-04-19T13:09:31Z</time>
      </trkpt>
      <trkpt lat="44.15239" lon="3.1204">
        <ele>815.7</ele>
        <time>2019-04-19T13:09:33Z</time>
      </trkpt>
      <trkpt lat="44.15243" lon="3.12041">
        <ele>814.6</ele>
        <time>2019-04-19T13:09:35Z</time>
      </trkpt>
      <trkpt lat="44.15248" lon="3.12043">
        <ele>813.2</ele>
        <time>2019-04-19T13:09:37Z</time>
      </trkpt>
      <trkpt lat="44.15251" lon="3.12044">
        <ele>811.9</ele>
        <time>2019-04-19T13:09:38Z</time>
      </trkpt>
      <trkpt lat="44.15254" lon="3.12047">
        <ele>811.4</ele>
        <time>2019-04-19T13:09:39Z</time>
      </trkpt>
      <trkpt lat="44.15257" lon="3.1205">
        <ele>810.2</ele>
        <time>2019-04-19T13:09:40Z</time>
      </trkpt>
      <trkpt lat="44.1526" lon="3.12054">
        <ele>809.8</ele>
        <time>2019-04-19T13:09:41Z</time>
      </trkpt>
      <trkpt lat="44.15263" lon="3.1206">
        <ele>810.4</ele>
        <time>2019-04-19T13:09:43Z</time>
      </trkpt>
      <trkpt lat="44.15267" lon="3.12063">
        <ele>809.3</ele>
        <time>2019-04-19T13:09:44Z</time>
      </trkpt>
      <trkpt lat="44.15271" lon="3.12066">
        <ele>809.1</ele>
        <time>2019-04-19T13:09:45Z</time>
      </trkpt>
      <trkpt lat="44.15274" lon="3.12069">
        <ele>809</ele>
        <time>2019-04-19T13:09:46Z</time>
      </trkpt>
      <trkpt lat="44.15276" lon="3.12071">
        <ele>807.7</ele>
        <time>2019-04-19T13:09:47Z</time>
      </trkpt>
      <trkpt lat="44.15279" lon="3.12076">
        <ele>808.8</ele>
        <time>2019-04-19T13:09:49Z</time>
      </trkpt>
      <trkpt lat="44.15281" lon="3.12079">
        <ele>807.7</ele>
        <time>2019-04-19T13:09:50Z</time>
      </trkpt>
      <trkpt lat="44.15283" lon="3.12082">
        <ele>808.9</ele>
        <time>2019-04-19T13:09:52Z</time>
      </trkpt>
      <trkpt lat="44.15285" lon="3.12086">
        <ele>809.1</ele>
        <time>2019-04-19T13:09:53Z</time>
      </trkpt>
      <trkpt lat="44.15287" lon="3.12089">
        <ele>808.2</ele>
        <time>2019-04-19T13:09:57Z</time>
      </trkpt>
      <trkpt lat="44.15292" lon="3.12096">
        <ele>808.7</ele>
        <time>2019-04-19T13:10:16Z</time>
      </trkpt>
      <trkpt lat="44.15294" lon="3.12099">
        <ele>808.9</ele>
        <time>2019-04-19T13:10:18Z</time>
      </trkpt>
      <trkpt lat="44.15297" lon="3.12101">
        <ele>809.1</ele>
        <time>2019-04-19T13:10:19Z</time>
      </trkpt>
      <trkpt lat="44.15301" lon="3.12104">
        <ele>809.4</ele>
        <time>2019-04-19T13:10:21Z</time>
      </trkpt>
      <trkpt lat="44.15304" lon="3.12106">
        <ele>809.6</ele>
        <time>2019-04-19T13:10:23Z</time>
      </trkpt>
      <trkpt lat="44.15307" lon="3.12108">
        <ele>809.8</ele>
        <time>2019-04-19T13:10:26Z</time>
      </trkpt>
      <trkpt lat="44.1531" lon="3.12111">
        <ele>809.9</ele>
        <time>2019-04-19T13:10:28Z</time>
      </trkpt>
      <trkpt lat="44.15315" lon="3.12116">
        <ele>810</ele>
        <time>2019-04-19T13:10:30Z</time>
      </trkpt>
      <trkpt lat="44.15318" lon="3.12121">
        <ele>810.1</ele>
        <time>2019-04-19T13:10:32Z</time>
      </trkpt>
      <trkpt lat="44.15321" lon="3.12126">
        <ele>810.2</ele>
        <time>2019-04-19T13:10:34Z</time>
      </trkpt>
      <trkpt lat="44.15324" lon="3.1213">
        <ele>810.3</ele>
        <time>2019-04-19T13:10:36Z</time>
      </trkpt>
      <trkpt lat="44.15328" lon="3.12133">
        <ele>810.4</ele>
        <time>2019-04-19T13:10:38Z</time>
      </trkpt>
      <trkpt lat="44.15332" lon="3.12135">
        <ele>810.4</ele>
        <time>2019-04-19T13:10:40Z</time>
      </trkpt>
      <trkpt lat="44.15335" lon="3.12138">
        <ele>810.3</ele>
        <time>2019-04-19T13:10:41Z</time>
      </trkpt>
      <trkpt lat="44.15339" lon="3.12141">
        <ele>810.2</ele>
        <time>2019-04-19T13:10:42Z</time>
      </trkpt>
      <trkpt lat="44.15343" lon="3.12144">
        <ele>810</ele>
        <time>2019-04-19T13:10:43Z</time>
      </trkpt>
      <trkpt lat="44.15347" lon="3.12147">
        <ele>809.9</ele>
        <time>2019-04-19T13:10:44Z</time>
      </trkpt>
      <trkpt lat="44.15351" lon="3.12151">
        <ele>809.8</ele>
        <time>2019-04-19T13:10:45Z</time>
      </trkpt>
      <trkpt lat="44.15356" lon="3.12154">
        <ele>809.7</ele>
        <time>2019-04-19T13:10:46Z</time>
      </trkpt>
      <trkpt lat="44.1536" lon="3.12158">
        <ele>809.6</ele>
        <time>2019-04-19T13:10:47Z</time>
      </trkpt>
      <trkpt lat="44.15363" lon="3.12162">
        <ele>809.5</ele>
        <time>2019-04-19T13:10:48Z</time>
      </trkpt>
      <trkpt lat="44.15366" lon="3.12166">
        <ele>809.5</ele>
        <time>2019-04-19T13:10:49Z</time>
      </trkpt>
      <trkpt lat="44.1537" lon="3.1217">
        <ele>809.5</ele>
        <time>2019-04-19T13:10:50Z</time>
      </trkpt>
      <trkpt lat="44.15373" lon="3.12173">
        <ele>809.5</ele>
        <time>2019-04-19T13:10:51Z</time>
      </trkpt>
      <trkpt lat="44.15377" lon="3.12175">
        <ele>809.5</ele>
        <time>2019-04-19T13:10:52Z</time>
      </trkpt>
      <trkpt lat="44.15381" lon="3.12177">
        <ele>809.7</ele>
        <time>2019-04-19T13:10:53Z</time>
      </trkpt>
      <trkpt lat="44.15385" lon="3.1218">
        <ele>809.8</ele>
        <time>2019-04-19T13:10:54Z</time>
      </trkpt>
      <trkpt lat="44.15389" lon="3.12183">
        <ele>810</ele>
        <time>2019-04-19T13:10:55Z</time>
      </trkpt>
      <trkpt lat="44.15392" lon="3.12185">
        <ele>810.1</ele>
        <time>2019-04-19T13:10:56Z</time>
      </trkpt>
      <trkpt lat="44.15395" lon="3.12187">
        <ele>810.3</ele>
        <time>2019-04-19T13:10:57Z</time>
      </trkpt>
      <trkpt lat="44.15398" lon="3.12189">
        <ele>810.4</ele>
        <time>2019-04-19T13:10:58Z</time>
      </trkpt>
      <trkpt lat="44.15401" lon="3.12192">
        <ele>810.6</ele>
        <time>2019-04-19T13:10:59Z</time>
      </trkpt>
      <trkpt lat="44.15403" lon="3.12197">
        <ele>810.7</ele>
        <time>2019-04-19T13:11:00Z</time>
      </trkpt>
      <trkpt lat="44.15405" lon="3.12202">
        <ele>810.8</ele>
        <time>2019-04-19T13:11:02Z</time>
      </trkpt>
      <trkpt lat="44.15408" lon="3.12203">
        <ele>810.9</ele>
        <time>2019-04-19T13:11:05Z</time>
      </trkpt>
      <trkpt lat="44.15411" lon="3.12205">
        <ele>810.9</ele>
        <time>2019-04-19T13:11:10Z</time>
      </trkpt>
      <trkpt lat="44.15414" lon="3.12211">
        <ele>811</ele>
        <time>2019-04-19T13:11:12Z</time>
      </trkpt>
      <trkpt lat="44.15417" lon="3.12216">
        <ele>811</ele>
        <time>2019-04-19T13:11:14Z</time>
      </trkpt>
      <trkpt lat="44.15421" lon="3.1222">
        <ele>811.1</ele>
        <time>2019-04-19T13:11:16Z</time>
      </trkpt>
      <trkpt lat="44.15422" lon="3.12223">
        <ele>811.1</ele>
        <time>2019-04-19T13:11:17Z</time>
      </trkpt>
      <trkpt lat="44.15424" lon="3.12227">
        <ele>811.1</ele>
        <time>2019-04-19T13:11:18Z</time>
      </trkpt>
      <trkpt lat="44.15425" lon="3.12233">
        <ele>811.2</ele>
        <time>2019-04-19T13:11:20Z</time>
      </trkpt>
      <trkpt lat="44.15425" lon="3.12238">
        <ele>811.2</ele>
        <time>2019-04-19T13:11:21Z</time>
      </trkpt>
      <trkpt lat="44.15423" lon="3.12241">
        <ele>811.2</ele>
        <time>2019-04-19T13:11:22Z</time>
      </trkpt>
      <trkpt lat="44.15422" lon="3.12245">
        <ele>811.2</ele>
        <time>2019-04-19T13:11:23Z</time>
      </trkpt>
      <trkpt lat="44.1542" lon="3.12249">
        <ele>811.3</ele>
        <time>2019-04-19T13:11:24Z</time>
      </trkpt>
      <trkpt lat="44.1542" lon="3.12253">
        <ele>811.3</ele>
        <time>2019-04-19T13:11:25Z</time>
      </trkpt>
      <trkpt lat="44.15423" lon="3.12259">
        <ele>811.3</ele>
        <time>2019-04-19T13:11:27Z</time>
      </trkpt>
      <trkpt lat="44.15426" lon="3.12261">
        <ele>811.3</ele>
        <time>2019-04-19T13:11:28Z</time>
      </trkpt>
      <trkpt lat="44.15429" lon="3.12263">
        <ele>811.3</ele>
        <time>2019-04-19T13:11:29Z</time>
      </trkpt>
      <trkpt lat="44.15432" lon="3.12265">
        <ele>811.3</ele>
        <time>2019-04-19T13:11:30Z</time>
      </trkpt>
      <trkpt lat="44.15436" lon="3.12266">
        <ele>811.3</ele>
        <time>2019-04-19T13:11:31Z</time>
      </trkpt>
      <trkpt lat="44.15441" lon="3.12267">
        <ele>811.3</ele>
        <time>2019-04-19T13:11:32Z</time>
      </trkpt>
      <trkpt lat="44.15446" lon="3.12268">
        <ele>811.3</ele>
        <time>2019-04-19T13:11:33Z</time>
      </trkpt>
      <trkpt lat="44.15451" lon="3.12268">
        <ele>811.3</ele>
        <time>2019-04-19T13:11:34Z</time>
      </trkpt>
      <trkpt lat="44.15454" lon="3.12269">
        <ele>811.3</ele>
        <time>2019-04-19T13:11:35Z</time>
      </trkpt>
      <trkpt lat="44.15458" lon="3.1227">
        <ele>811.3</ele>
        <time>2019-04-19T13:13:11Z</time>
      </trkpt>
      <trkpt lat="44.15459" lon="3.12274">
        <ele>811.3</ele>
        <time>2019-04-19T13:13:13Z</time>
      </trkpt>
      <trkpt lat="44.15461" lon="3.12279">
        <ele>811.3</ele>
        <time>2019-04-19T13:13:15Z</time>
      </trkpt>
      <trkpt lat="44.15466" lon="3.12284">
        <ele>811.3</ele>
        <time>2019-04-19T13:13:17Z</time>
      </trkpt>
      <trkpt lat="44.15469" lon="3.1229">
        <ele>811.3</ele>
        <time>2019-04-19T13:13:18Z</time>
      </trkpt>
      <trkpt lat="44.15473" lon="3.12294">
        <ele>811.3</ele>
        <time>2019-04-19T13:13:19Z</time>
      </trkpt>
      <trkpt lat="44.15477" lon="3.12299">
        <ele>811.3</ele>
        <time>2019-04-19T13:13:20Z</time>
      </trkpt>
      <trkpt lat="44.1548" lon="3.12304">
        <ele>811.4</ele>
        <time>2019-04-19T13:13:21Z</time>
      </trkpt>
      <trkpt lat="44.15484" lon="3.12308">
        <ele>811.4</ele>
        <time>2019-04-19T13:13:22Z</time>
      </trkpt>
      <trkpt lat="44.15488" lon="3.12312">
        <ele>811.4</ele>
        <time>2019-04-19T13:13:23Z</time>
      </trkpt>
      <trkpt lat="44.15492" lon="3.12316">
        <ele>811.4</ele>
        <time>2019-04-19T13:13:24Z</time>
      </trkpt>
      <trkpt lat="44.15495" lon="3.12321">
        <ele>811.4</ele>
        <time>2019-04-19T13:13:25Z</time>
      </trkpt>
      <trkpt lat="44.15499" lon="3.12324">
        <ele>811.5</ele>
        <time>2019-04-19T13:13:26Z</time>
      </trkpt>
      <trkpt lat="44.15505" lon="3.12329">
        <ele>811.6</ele>
        <time>2019-04-19T13:13:27Z</time>
      </trkpt>
      <trkpt lat="44.15507" lon="3.12335">
        <ele>811.6</ele>
        <time>2019-04-19T13:13:28Z</time>
      </trkpt>
      <trkpt lat="44.15508" lon="3.12341">
        <ele>811.7</ele>
        <time>2019-04-19T13:13:29Z</time>
      </trkpt>
      <trkpt lat="44.15511" lon="3.12346">
        <ele>811.7</ele>
        <time>2019-04-19T13:13:30Z</time>
      </trkpt>
      <trkpt lat="44.15514" lon="3.12351">
        <ele>811.8</ele>
        <time>2019-04-19T13:13:31Z</time>
      </trkpt>
      <trkpt lat="44.15515" lon="3.12358">
        <ele>811.8</ele>
        <time>2019-04-19T13:13:33Z</time>
      </trkpt>
      <trkpt lat="44.15517" lon="3.12362">
        <ele>811.8</ele>
        <time>2019-04-19T13:13:34Z</time>
      </trkpt>
      <trkpt lat="44.15518" lon="3.12365">
        <ele>811.9</ele>
        <time>2019-04-19T13:13:35Z</time>
      </trkpt>
      <trkpt lat="44.15521" lon="3.12367">
        <ele>811.9</ele>
        <time>2019-04-19T13:13:36Z</time>
      </trkpt>
      <trkpt lat="44.15526" lon="3.12368">
        <ele>812</ele>
        <time>2019-04-19T13:13:37Z</time>
      </trkpt>
      <trkpt lat="44.15528" lon="3.12371">
        <ele>812</ele>
        <time>2019-04-19T13:13:38Z</time>
      </trkpt>
      <trkpt lat="44.15533" lon="3.12374">
        <ele>812.1</ele>
        <time>2019-04-19T13:13:39Z</time>
      </trkpt>
      <trkpt lat="44.15536" lon="3.12375">
        <ele>812.1</ele>
        <time>2019-04-19T13:13:40Z</time>
      </trkpt>
      <trkpt lat="44.15539" lon="3.12378">
        <ele>812.2</ele>
        <time>2019-04-19T13:13:41Z</time>
      </trkpt>
      <trkpt lat="44.15543" lon="3.12381">
        <ele>812.2</ele>
        <time>2019-04-19T13:13:42Z</time>
      </trkpt>
      <trkpt lat="44.15547" lon="3.12384">
        <ele>812.3</ele>
        <time>2019-04-19T13:13:43Z</time>
      </trkpt>
      <trkpt lat="44.1555" lon="3.12386">
        <ele>812.4</ele>
        <time>2019-04-19T13:13:44Z</time>
      </trkpt>
      <trkpt lat="44.15553" lon="3.12388">
        <ele>812.5</ele>
        <time>2019-04-19T13:13:45Z</time>
      </trkpt>
      <trkpt lat="44.15556" lon="3.1239">
        <ele>812.6</ele>
        <time>2019-04-19T13:13:46Z</time>
      </trkpt>
      <trkpt lat="44.1556" lon="3.12392">
        <ele>812.7</ele>
        <time>2019-04-19T13:13:48Z</time>
      </trkpt>
      <trkpt lat="44.15564" lon="3.12392">
        <ele>812.9</ele>
        <time>2019-04-19T13:13:50Z</time>
      </trkpt>
      <trkpt lat="44.15569" lon="3.12391">
        <ele>813.2</ele>
        <time>2019-04-19T13:13:52Z</time>
      </trkpt>
      <trkpt lat="44.15572" lon="3.12392">
        <ele>813.4</ele>
        <time>2019-04-19T13:13:53Z</time>
      </trkpt>
      <trkpt lat="44.15575" lon="3.12393">
        <ele>813.6</ele>
        <time>2019-04-19T13:13:54Z</time>
      </trkpt>
      <trkpt lat="44.15578" lon="3.12394">
        <ele>813.9</ele>
        <time>2019-04-19T13:13:55Z</time>
      </trkpt>
      <trkpt lat="44.15581" lon="3.12396">
        <ele>814.2</ele>
        <time>2019-04-19T13:13:56Z</time>
      </trkpt>
      <trkpt lat="44.15584" lon="3.12397">
        <ele>814.5</ele>
        <time>2019-04-19T13:13:57Z</time>
      </trkpt>
      <trkpt lat="44.15587" lon="3.124">
        <ele>814.7</ele>
        <time>2019-04-19T13:13:58Z</time>
      </trkpt>
      <trkpt lat="44.15591" lon="3.12402">
        <ele>815</ele>
        <time>2019-04-19T13:13:59Z</time>
      </trkpt>
      <trkpt lat="44.15594" lon="3.12405">
        <ele>815.2</ele>
        <time>2019-04-19T13:14:00Z</time>
      </trkpt>
      <trkpt lat="44.15598" lon="3.12409">
        <ele>815.5</ele>
        <time>2019-04-19T13:14:01Z</time>
      </trkpt>
      <trkpt lat="44.15601" lon="3.12412">
        <ele>815.7</ele>
        <time>2019-04-19T13:14:02Z</time>
      </trkpt>
      <trkpt lat="44.15604" lon="3.12416">
        <ele>815.9</ele>
        <time>2019-04-19T13:14:03Z</time>
      </trkpt>
      <trkpt lat="44.15607" lon="3.12419">
        <ele>816</ele>
        <time>2019-04-19T13:14:04Z</time>
      </trkpt>
      <trkpt lat="44.1561" lon="3.1242">
        <ele>816</ele>
        <time>2019-04-19T13:14:05Z</time>
      </trkpt>
      <trkpt lat="44.15614" lon="3.12422">
        <ele>816.1</ele>
        <time>2019-04-19T13:14:06Z</time>
      </trkpt>
      <trkpt lat="44.15618" lon="3.12423">
        <ele>816.1</ele>
        <time>2019-04-19T13:14:07Z</time>
      </trkpt>
      <trkpt lat="44.15621" lon="3.12425">
        <ele>816.2</ele>
        <time>2019-04-19T13:14:08Z</time>
      </trkpt>
      <trkpt lat="44.15625" lon="3.12426">
        <ele>816.2</ele>
        <time>2019-04-19T13:14:09Z</time>
      </trkpt>
      <trkpt lat="44.15629" lon="3.12428">
        <ele>816.2</ele>
        <time>2019-04-19T13:14:10Z</time>
      </trkpt>
      <trkpt lat="44.15633" lon="3.12431">
        <ele>816.2</ele>
        <time>2019-04-19T13:14:11Z</time>
      </trkpt>
      <trkpt lat="44.15637" lon="3.12435">
        <ele>816.2</ele>
        <time>2019-04-19T13:14:12Z</time>
      </trkpt>
      <trkpt lat="44.1564" lon="3.12438">
        <ele>816.3</ele>
        <time>2019-04-19T13:14:13Z</time>
      </trkpt>
      <trkpt lat="44.15643" lon="3.12441">
        <ele>816.3</ele>
        <time>2019-04-19T13:14:14Z</time>
      </trkpt>
      <trkpt lat="44.15646" lon="3.12443">
        <ele>816.3</ele>
        <time>2019-04-19T13:14:15Z</time>
      </trkpt>
      <trkpt lat="44.1565" lon="3.12447">
        <ele>816.3</ele>
        <time>2019-04-19T13:14:16Z</time>
      </trkpt>
      <trkpt lat="44.15654" lon="3.12451">
        <ele>816.3</ele>
        <time>2019-04-19T13:14:17Z</time>
      </trkpt>
      <trkpt lat="44.15657" lon="3.12455">
        <ele>816.4</ele>
        <time>2019-04-19T13:14:18Z</time>
      </trkpt>
      <trkpt lat="44.15661" lon="3.12457">
        <ele>816.4</ele>
        <time>2019-04-19T13:14:19Z</time>
      </trkpt>
      <trkpt lat="44.15665" lon="3.12459">
        <ele>816.4</ele>
        <time>2019-04-19T13:14:20Z</time>
      </trkpt>
      <trkpt lat="44.15669" lon="3.12459">
        <ele>816.5</ele>
        <time>2019-04-19T13:14:21Z</time>
      </trkpt>
      <trkpt lat="44.15673" lon="3.1246">
        <ele>816.5</ele>
        <time>2019-04-19T13:14:22Z</time>
      </trkpt>
      <trkpt lat="44.15678" lon="3.12463">
        <ele>816.5</ele>
        <time>2019-04-19T13:14:23Z</time>
      </trkpt>
      <trkpt lat="44.15682" lon="3.12465">
        <ele>816.5</ele>
        <time>2019-04-19T13:14:24Z</time>
      </trkpt>
      <trkpt lat="44.15686" lon="3.12469">
        <ele>816.4</ele>
        <time>2019-04-19T13:14:25Z</time>
      </trkpt>
      <trkpt lat="44.15699" lon="3.12471">
        <ele>816</ele>
        <time>2019-04-19T13:14:26Z</time>
      </trkpt>
      <trkpt lat="44.15705" lon="3.12476">
        <ele>815.7</ele>
        <time>2019-04-19T13:14:27Z</time>
      </trkpt>
      <trkpt lat="44.15708" lon="3.12481">
        <ele>815.5</ele>
        <time>2019-04-19T13:14:28Z</time>
      </trkpt>
      <trkpt lat="44.15712" lon="3.12486">
        <ele>815.3</ele>
        <time>2019-04-19T13:14:29Z</time>
      </trkpt>
      <trkpt lat="44.15714" lon="3.12493">
        <ele>815</ele>
        <time>2019-04-19T13:14:30Z</time>
      </trkpt>
      <trkpt lat="44.15717" lon="3.125">
        <ele>814.8</ele>
        <time>2019-04-19T13:14:31Z</time>
      </trkpt>
      <trkpt lat="44.15719" lon="3.12506">
        <ele>814.6</ele>
        <time>2019-04-19T13:14:32Z</time>
      </trkpt>
      <trkpt lat="44.15723" lon="3.12512">
        <ele>814.2</ele>
        <time>2019-04-19T13:14:33Z</time>
      </trkpt>
      <trkpt lat="44.15727" lon="3.12519">
        <ele>813.9</ele>
        <time>2019-04-19T13:14:34Z</time>
      </trkpt>
      <trkpt lat="44.15732" lon="3.12527">
        <ele>813.4</ele>
        <time>2019-04-19T13:14:35Z</time>
      </trkpt>
      <trkpt lat="44.15734" lon="3.12537">
        <ele>813</ele>
        <time>2019-04-19T13:14:36Z</time>
      </trkpt>
      <trkpt lat="44.15736" lon="3.12546">
        <ele>812.7</ele>
        <time>2019-04-19T13:14:37Z</time>
      </trkpt>
      <trkpt lat="44.15737" lon="3.12556">
        <ele>812.3</ele>
        <time>2019-04-19T13:14:38Z</time>
      </trkpt>
      <trkpt lat="44.1574" lon="3.12565">
        <ele>812.1</ele>
        <time>2019-04-19T13:14:39Z</time>
      </trkpt>
      <trkpt lat="44.15742" lon="3.12579">
        <ele>812</ele>
        <time>2019-04-19T13:14:40Z</time>
      </trkpt>
      <trkpt lat="44.15745" lon="3.12588">
        <ele>812.1</ele>
        <time>2019-04-19T13:14:41Z</time>
      </trkpt>
      <trkpt lat="44.15747" lon="3.12597">
        <ele>812.2</ele>
        <time>2019-04-19T13:14:42Z</time>
      </trkpt>
      <trkpt lat="44.15747" lon="3.12603">
        <ele>812.2</ele>
        <time>2019-04-19T13:14:43Z</time>
      </trkpt>
      <trkpt lat="44.15749" lon="3.12607">
        <ele>812.3</ele>
        <time>2019-04-19T13:14:44Z</time>
      </trkpt>
      <trkpt lat="44.15753" lon="3.12607">
        <ele>812.4</ele>
        <time>2019-04-19T13:14:46Z</time>
      </trkpt>
      <trkpt lat="44.15758" lon="3.1261">
        <ele>812.4</ele>
        <time>2019-04-19T13:14:48Z</time>
      </trkpt>
      <trkpt lat="44.15763" lon="3.12614">
        <ele>812.4</ele>
        <time>2019-04-19T13:14:49Z</time>
      </trkpt>
      <trkpt lat="44.15769" lon="3.12618">
        <ele>812.2</ele>
        <time>2019-04-19T13:14:50Z</time>
      </trkpt>
      <trkpt lat="44.15772" lon="3.12622">
        <ele>812.1</ele>
        <time>2019-04-19T13:14:51Z</time>
      </trkpt>
      <trkpt lat="44.15774" lon="3.12626">
        <ele>812</ele>
        <time>2019-04-19T13:14:52Z</time>
      </trkpt>
      <trkpt lat="44.15779" lon="3.12627">
        <ele>811.8</ele>
        <time>2019-04-19T13:14:54Z</time>
      </trkpt>
      <trkpt lat="44.15781" lon="3.12629">
        <ele>811.7</ele>
        <time>2019-04-19T13:14:55Z</time>
      </trkpt>
      <trkpt lat="44.15784" lon="3.12633">
        <ele>811.4</ele>
        <time>2019-04-19T13:14:56Z</time>
      </trkpt>
      <trkpt lat="44.15787" lon="3.12638">
        <ele>811.2</ele>
        <time>2019-04-19T13:14:57Z</time>
      </trkpt>
      <trkpt lat="44.15789" lon="3.12644">
        <ele>810.9</ele>
        <time>2019-04-19T13:14:58Z</time>
      </trkpt>
      <trkpt lat="44.1579" lon="3.12649">
        <ele>810.7</ele>
        <time>2019-04-19T13:14:59Z</time>
      </trkpt>
      <trkpt lat="44.15792" lon="3.12653">
        <ele>810.4</ele>
        <time>2019-04-19T13:15:00Z</time>
      </trkpt>
      <trkpt lat="44.15795" lon="3.12657">
        <ele>810.1</ele>
        <time>2019-04-19T13:15:01Z</time>
      </trkpt>
      <trkpt lat="44.15797" lon="3.1266">
        <ele>809.7</ele>
        <time>2019-04-19T13:15:02Z</time>
      </trkpt>
      <trkpt lat="44.15798" lon="3.12667">
        <ele>809.3</ele>
        <time>2019-04-19T13:15:04Z</time>
      </trkpt>
      <trkpt lat="44.15801" lon="3.12675">
        <ele>808.5</ele>
        <time>2019-04-19T13:15:06Z</time>
      </trkpt>
      <trkpt lat="44.15803" lon="3.1268">
        <ele>808.1</ele>
        <time>2019-04-19T13:15:07Z</time>
      </trkpt>
      <trkpt lat="44.15806" lon="3.12686">
        <ele>807.7</ele>
        <time>2019-04-19T13:15:08Z</time>
      </trkpt>
      <trkpt lat="44.15808" lon="3.12693">
        <ele>807.2</ele>
        <time>2019-04-19T13:15:09Z</time>
      </trkpt>
      <trkpt lat="44.15808" lon="3.127">
        <ele>806.7</ele>
        <time>2019-04-19T13:15:10Z</time>
      </trkpt>
      <trkpt lat="44.15806" lon="3.12706">
        <ele>806.2</ele>
        <time>2019-04-19T13:15:11Z</time>
      </trkpt>
      <trkpt lat="44.15804" lon="3.12712">
        <ele>805.8</ele>
        <time>2019-04-19T13:15:12Z</time>
      </trkpt>
      <trkpt lat="44.15801" lon="3.12717">
        <ele>805.4</ele>
        <time>2019-04-19T13:15:13Z</time>
      </trkpt>
      <trkpt lat="44.15799" lon="3.12722">
        <ele>805.2</ele>
        <time>2019-04-19T13:15:14Z</time>
      </trkpt>
      <trkpt lat="44.15797" lon="3.12727">
        <ele>804.9</ele>
        <time>2019-04-19T13:15:15Z</time>
      </trkpt>
      <trkpt lat="44.15796" lon="3.12732">
        <ele>804.7</ele>
        <time>2019-04-19T13:15:16Z</time>
      </trkpt>
      <trkpt lat="44.15795" lon="3.1274">
        <ele>804.4</ele>
        <time>2019-04-19T13:15:18Z</time>
      </trkpt>
      <trkpt lat="44.15795" lon="3.12744">
        <ele>804.2</ele>
        <time>2019-04-19T13:15:19Z</time>
      </trkpt>
      <trkpt lat="44.15794" lon="3.12748">
        <ele>804</ele>
        <time>2019-04-19T13:15:20Z</time>
      </trkpt>
      <trkpt lat="44.15797" lon="3.12754">
        <ele>803.7</ele>
        <time>2019-04-19T13:15:22Z</time>
      </trkpt>
      <trkpt lat="44.15799" lon="3.12758">
        <ele>803.6</ele>
        <time>2019-04-19T13:15:23Z</time>
      </trkpt>
      <trkpt lat="44.15802" lon="3.12761">
        <ele>803.4</ele>
        <time>2019-04-19T13:15:24Z</time>
      </trkpt>
      <trkpt lat="44.15802" lon="3.12767">
        <ele>803.3</ele>
        <time>2019-04-19T13:15:25Z</time>
      </trkpt>
      <trkpt lat="44.15802" lon="3.12773">
        <ele>803.1</ele>
        <time>2019-04-19T13:15:26Z</time>
      </trkpt>
      <trkpt lat="44.15802" lon="3.1278">
        <ele>802.9</ele>
        <time>2019-04-19T13:15:27Z</time>
      </trkpt>
      <trkpt lat="44.15803" lon="3.12786">
        <ele>802.6</ele>
        <time>2019-04-19T13:15:28Z</time>
      </trkpt>
      <trkpt lat="44.15805" lon="3.12791">
        <ele>802.4</ele>
        <time>2019-04-19T13:15:29Z</time>
      </trkpt>
      <trkpt lat="44.15807" lon="3.12794">
        <ele>802.3</ele>
        <time>2019-04-19T13:15:30Z</time>
      </trkpt>
      <trkpt lat="44.15809" lon="3.12798">
        <ele>802.1</ele>
        <time>2019-04-19T13:15:31Z</time>
      </trkpt>
      <trkpt lat="44.15811" lon="3.12801">
        <ele>801.9</ele>
        <time>2019-04-19T13:15:32Z</time>
      </trkpt>
      <trkpt lat="44.15814" lon="3.12806">
        <ele>801.7</ele>
        <time>2019-04-19T13:15:34Z</time>
      </trkpt>
      <trkpt lat="44.15816" lon="3.12808">
        <ele>801.6</ele>
        <time>2019-04-19T13:15:35Z</time>
      </trkpt>
      <trkpt lat="44.15819" lon="3.12811">
        <ele>801.3</ele>
        <time>2019-04-19T13:15:36Z</time>
      </trkpt>
      <trkpt lat="44.15822" lon="3.12814">
        <ele>801.1</ele>
        <time>2019-04-19T13:15:37Z</time>
      </trkpt>
      <trkpt lat="44.15824" lon="3.12816">
        <ele>800.8</ele>
        <time>2019-04-19T13:15:38Z</time>
      </trkpt>
      <trkpt lat="44.15827" lon="3.12819">
        <ele>800.6</ele>
        <time>2019-04-19T13:15:39Z</time>
      </trkpt>
      <trkpt lat="44.1583" lon="3.12821">
        <ele>800.3</ele>
        <time>2019-04-19T13:15:40Z</time>
      </trkpt>
      <trkpt lat="44.15832" lon="3.12823">
        <ele>800.1</ele>
        <time>2019-04-19T13:15:41Z</time>
      </trkpt>
      <trkpt lat="44.15834" lon="3.12826">
        <ele>800.2</ele>
        <time>2019-04-19T13:15:42Z</time>
      </trkpt>
      <trkpt lat="44.15837" lon="3.12829">
        <ele>800.5</ele>
        <time>2019-04-19T13:15:43Z</time>
      </trkpt>
      <trkpt lat="44.1584" lon="3.12832">
        <ele>800.9</ele>
        <time>2019-04-19T13:15:44Z</time>
      </trkpt>
      <trkpt lat="44.15843" lon="3.12835">
        <ele>801.4</ele>
        <time>2019-04-19T13:15:45Z</time>
      </trkpt>
      <trkpt lat="44.15846" lon="3.12838">
        <ele>801.8</ele>
        <time>2019-04-19T13:15:46Z</time>
      </trkpt>
      <trkpt lat="44.15849" lon="3.12841">
        <ele>802.1</ele>
        <time>2019-04-19T13:15:47Z</time>
      </trkpt>
      <trkpt lat="44.15851" lon="3.12844">
        <ele>802.2</ele>
        <time>2019-04-19T13:15:48Z</time>
      </trkpt>
      <trkpt lat="44.15854" lon="3.12847">
        <ele>802.4</ele>
        <time>2019-04-19T13:15:50Z</time>
      </trkpt>
      <trkpt lat="44.15857" lon="3.12849">
        <ele>802.5</ele>
        <time>2019-04-19T13:15:51Z</time>
      </trkpt>
      <trkpt lat="44.15859" lon="3.12852">
        <ele>802.7</ele>
        <time>2019-04-19T13:15:52Z</time>
      </trkpt>
      <trkpt lat="44.15862" lon="3.12855">
        <ele>802.8</ele>
        <time>2019-04-19T13:15:53Z</time>
      </trkpt>
      <trkpt lat="44.15864" lon="3.12857">
        <ele>802.9</ele>
        <time>2019-04-19T13:15:54Z</time>
      </trkpt>
      <trkpt lat="44.15868" lon="3.12862">
        <ele>803.2</ele>
        <time>2019-04-19T13:15:56Z</time>
      </trkpt>
      <trkpt lat="44.15871" lon="3.12864">
        <ele>803.4</ele>
        <time>2019-04-19T13:15:57Z</time>
      </trkpt>
      <trkpt lat="44.15874" lon="3.12866">
        <ele>803.6</ele>
        <time>2019-04-19T13:15:58Z</time>
      </trkpt>
      <trkpt lat="44.15877" lon="3.12867">
        <ele>803.8</ele>
        <time>2019-04-19T13:15:59Z</time>
      </trkpt>
      <trkpt lat="44.15881" lon="3.12868">
        <ele>803.9</ele>
        <time>2019-04-19T13:16:00Z</time>
      </trkpt>
      <trkpt lat="44.15884" lon="3.1287">
        <ele>804.1</ele>
        <time>2019-04-19T13:16:01Z</time>
      </trkpt>
      <trkpt lat="44.15887" lon="3.12873">
        <ele>804.2</ele>
        <time>2019-04-19T13:16:02Z</time>
      </trkpt>
      <trkpt lat="44.1589" lon="3.12877">
        <ele>804.4</ele>
        <time>2019-04-19T13:16:04Z</time>
      </trkpt>
      <trkpt lat="44.15893" lon="3.12879">
        <ele>804.5</ele>
        <time>2019-04-19T13:16:06Z</time>
      </trkpt>
      <trkpt lat="44.15895" lon="3.12883">
        <ele>804.7</ele>
        <time>2019-04-19T13:16:08Z</time>
      </trkpt>
      <trkpt lat="44.15899" lon="3.12889">
        <ele>804.9</ele>
        <time>2019-04-19T13:16:10Z</time>
      </trkpt>
      <trkpt lat="44.15903" lon="3.12891">
        <ele>805.1</ele>
        <time>2019-04-19T13:16:11Z</time>
      </trkpt>
      <trkpt lat="44.15906" lon="3.12894">
        <ele>805.3</ele>
        <time>2019-04-19T13:16:12Z</time>
      </trkpt>
      <trkpt lat="44.15909" lon="3.12896">
        <ele>805.4</ele>
        <time>2019-04-19T13:16:13Z</time>
      </trkpt>
      <trkpt lat="44.15913" lon="3.12898">
        <ele>805.5</ele>
        <time>2019-04-19T13:16:14Z</time>
      </trkpt>
      <trkpt lat="44.15917" lon="3.129">
        <ele>805.6</ele>
        <time>2019-04-19T13:16:15Z</time>
      </trkpt>
      <trkpt lat="44.1592" lon="3.12902">
        <ele>805.7</ele>
        <time>2019-04-19T13:16:16Z</time>
      </trkpt>
      <trkpt lat="44.15923" lon="3.12904">
        <ele>805.7</ele>
        <time>2019-04-19T13:16:17Z</time>
      </trkpt>
      <trkpt lat="44.15926" lon="3.12906">
        <ele>805.7</ele>
        <time>2019-04-19T13:16:18Z</time>
      </trkpt>
      <trkpt lat="44.15928" lon="3.12909">
        <ele>805.7</ele>
        <time>2019-04-19T13:16:19Z</time>
      </trkpt>
      <trkpt lat="44.1593" lon="3.12914">
        <ele>805.7</ele>
        <time>2019-04-19T13:16:21Z</time>
      </trkpt>
      <trkpt lat="44.1593" lon="3.12922">
        <ele>805.7</ele>
        <time>2019-04-19T13:16:23Z</time>
      </trkpt>
      <trkpt lat="44.1593" lon="3.12927">
        <ele>805.6</ele>
        <time>2019-04-19T13:16:24Z</time>
      </trkpt>
      <trkpt lat="44.15931" lon="3.12931">
        <ele>805.6</ele>
        <time>2019-04-19T13:16:25Z</time>
      </trkpt>
      <trkpt lat="44.15934" lon="3.12935">
        <ele>805.5</ele>
        <time>2019-04-19T13:16:26Z</time>
      </trkpt>
      <trkpt lat="44.15937" lon="3.12938">
        <ele>805.4</ele>
        <time>2019-04-19T13:16:27Z</time>
      </trkpt>
      <trkpt lat="44.1594" lon="3.12942">
        <ele>805.3</ele>
        <time>2019-04-19T13:16:28Z</time>
      </trkpt>
      <trkpt lat="44.15943" lon="3.12945">
        <ele>805.2</ele>
        <time>2019-04-19T13:16:29Z</time>
      </trkpt>
      <trkpt lat="44.15945" lon="3.12947">
        <ele>805.1</ele>
        <time>2019-04-19T13:16:30Z</time>
      </trkpt>
      <trkpt lat="44.15948" lon="3.12949">
        <ele>805.1</ele>
        <time>2019-04-19T13:16:31Z</time>
      </trkpt>
      <trkpt lat="44.1595" lon="3.12952">
        <ele>805</ele>
        <time>2019-04-19T13:16:32Z</time>
      </trkpt>
      <trkpt lat="44.15952" lon="3.12955">
        <ele>804.8</ele>
        <time>2019-04-19T13:16:33Z</time>
      </trkpt>
      <trkpt lat="44.15953" lon="3.1296">
        <ele>804.6</ele>
        <time>2019-04-19T13:16:34Z</time>
      </trkpt>
      <trkpt lat="44.15954" lon="3.12964">
        <ele>804.5</ele>
        <time>2019-04-19T13:16:35Z</time>
      </trkpt>
      <trkpt lat="44.15954" lon="3.1297">
        <ele>804.3</ele>
        <time>2019-04-19T13:16:36Z</time>
      </trkpt>
      <trkpt lat="44.15954" lon="3.12977">
        <ele>804.1</ele>
        <time>2019-04-19T13:16:37Z</time>
      </trkpt>
      <trkpt lat="44.15953" lon="3.12983">
        <ele>804</ele>
        <time>2019-04-19T13:16:38Z</time>
      </trkpt>
      <trkpt lat="44.15952" lon="3.12988">
        <ele>803.8</ele>
        <time>2019-04-19T13:16:39Z</time>
      </trkpt>
      <trkpt lat="44.15952" lon="3.12996">
        <ele>803.5</ele>
        <time>2019-04-19T13:16:40Z</time>
      </trkpt>
      <trkpt lat="44.15955" lon="3.13004">
        <ele>803.1</ele>
        <time>2019-04-19T13:16:41Z</time>
      </trkpt>
      <trkpt lat="44.15958" lon="3.13011">
        <ele>802.8</ele>
        <time>2019-04-19T13:16:42Z</time>
      </trkpt>
      <trkpt lat="44.15961" lon="3.13014">
        <ele>802.7</ele>
        <time>2019-04-19T13:16:43Z</time>
      </trkpt>
      <trkpt lat="44.15964" lon="3.13017">
        <ele>802.5</ele>
        <time>2019-04-19T13:16:44Z</time>
      </trkpt>
      <trkpt lat="44.15968" lon="3.13019">
        <ele>802.4</ele>
        <time>2019-04-19T13:16:45Z</time>
      </trkpt>
      <trkpt lat="44.15971" lon="3.13021">
        <ele>802.3</ele>
        <time>2019-04-19T13:16:46Z</time>
      </trkpt>
      <trkpt lat="44.15974" lon="3.13023">
        <ele>802.2</ele>
        <time>2019-04-19T13:16:47Z</time>
      </trkpt>
      <trkpt lat="44.15976" lon="3.13025">
        <ele>802.1</ele>
        <time>2019-04-19T13:16:48Z</time>
      </trkpt>
      <trkpt lat="44.1598" lon="3.13028">
        <ele>801.9</ele>
        <time>2019-04-19T13:16:49Z</time>
      </trkpt>
      <trkpt lat="44.15982" lon="3.13031">
        <ele>801.7</ele>
        <time>2019-04-19T13:16:50Z</time>
      </trkpt>
      <trkpt lat="44.15987" lon="3.13038">
        <ele>801.6</ele>
        <time>2019-04-19T13:16:52Z</time>
      </trkpt>
      <trkpt lat="44.15989" lon="3.13043">
        <ele>801.6</ele>
        <time>2019-04-19T13:16:54Z</time>
      </trkpt>
      <trkpt lat="44.15993" lon="3.13048">
        <ele>801.8</ele>
        <time>2019-04-19T13:17:07Z</time>
      </trkpt>
      <trkpt lat="44.15996" lon="3.1305">
        <ele>801.9</ele>
        <time>2019-04-19T13:17:10Z</time>
      </trkpt>
      <trkpt lat="44.15998" lon="3.13054">
        <ele>802</ele>
        <time>2019-04-19T13:17:12Z</time>
      </trkpt>
      <trkpt lat="44.16001" lon="3.13054">
        <ele>802.2</ele>
        <time>2019-04-19T13:17:19Z</time>
      </trkpt>
      <trkpt lat="44.16012" lon="3.13051">
        <ele>802.9</ele>
        <time>2019-04-19T13:18:45Z</time>
      </trkpt>
      <trkpt lat="44.16016" lon="3.1305">
        <ele>803.1</ele>
        <time>2019-04-19T13:18:46Z</time>
      </trkpt>
      <trkpt lat="44.1602" lon="3.1305">
        <ele>803.4</ele>
        <time>2019-04-19T13:18:48Z</time>
      </trkpt>
      <trkpt lat="44.16024" lon="3.13051">
        <ele>803.6</ele>
        <time>2019-04-19T13:18:50Z</time>
      </trkpt>
      <trkpt lat="44.16028" lon="3.13052">
        <ele>803.9</ele>
        <time>2019-04-19T13:18:52Z</time>
      </trkpt>
      <trkpt lat="44.16032" lon="3.13053">
        <ele>804.2</ele>
        <time>2019-04-19T13:18:53Z</time>
      </trkpt>
      <trkpt lat="44.16035" lon="3.13054">
        <ele>804.3</ele>
        <time>2019-04-19T13:18:54Z</time>
      </trkpt>
      <trkpt lat="44.16039" lon="3.13055">
        <ele>804.5</ele>
        <time>2019-04-19T13:18:55Z</time>
      </trkpt>
      <trkpt lat="44.16042" lon="3.13056">
        <ele>804.6</ele>
        <time>2019-04-19T13:18:56Z</time>
      </trkpt>
      <trkpt lat="44.16048" lon="3.13057">
        <ele>804.8</ele>
        <time>2019-04-19T13:18:57Z</time>
      </trkpt>
      <trkpt lat="44.16053" lon="3.13058">
        <ele>804.9</ele>
        <time>2019-04-19T13:18:58Z</time>
      </trkpt>
      <trkpt lat="44.16057" lon="3.13057">
        <ele>805.1</ele>
        <time>2019-04-19T13:18:59Z</time>
      </trkpt>
      <trkpt lat="44.16059" lon="3.13053">
        <ele>805.2</ele>
        <time>2019-04-19T13:19:00Z</time>
      </trkpt>
      <trkpt lat="44.16062" lon="3.13048">
        <ele>805.4</ele>
        <time>2019-04-19T13:19:01Z</time>
      </trkpt>
      <trkpt lat="44.16064" lon="3.13043">
        <ele>805.6</ele>
        <time>2019-04-19T13:19:02Z</time>
      </trkpt>
      <trkpt lat="44.16066" lon="3.13038">
        <ele>805.8</ele>
        <time>2019-04-19T13:19:03Z</time>
      </trkpt>
      <trkpt lat="44.16067" lon="3.13033">
        <ele>805.9</ele>
        <time>2019-04-19T13:19:04Z</time>
      </trkpt>
      <trkpt lat="44.16068" lon="3.13027">
        <ele>806</ele>
        <time>2019-04-19T13:19:06Z</time>
      </trkpt>
      <trkpt lat="44.1607" lon="3.13025">
        <ele>806.1</ele>
        <time>2019-04-19T13:19:07Z</time>
      </trkpt>
      <trkpt lat="44.16073" lon="3.13023">
        <ele>806.3</ele>
        <time>2019-04-19T13:19:08Z</time>
      </trkpt>
      <trkpt lat="44.16076" lon="3.1302">
        <ele>806.5</ele>
        <time>2019-04-19T13:19:09Z</time>
      </trkpt>
      <trkpt lat="44.16079" lon="3.13018">
        <ele>806.6</ele>
        <time>2019-04-19T13:19:10Z</time>
      </trkpt>
      <trkpt lat="44.16081" lon="3.13015">
        <ele>806.7</ele>
        <time>2019-04-19T13:19:11Z</time>
      </trkpt>
      <trkpt lat="44.16084" lon="3.13011">
        <ele>806.9</ele>
        <time>2019-04-19T13:19:12Z</time>
      </trkpt>
      <trkpt lat="44.16086" lon="3.13009">
        <ele>807.1</ele>
        <time>2019-04-19T13:19:13Z</time>
      </trkpt>
      <trkpt lat="44.16088" lon="3.13006">
        <ele>807.2</ele>
        <time>2019-04-19T13:19:14Z</time>
      </trkpt>
      <trkpt lat="44.16091" lon="3.13003">
        <ele>807.5</ele>
        <time>2019-04-19T13:19:15Z</time>
      </trkpt>
      <trkpt lat="44.16094" lon="3.13">
        <ele>807.8</ele>
        <time>2019-04-19T13:19:16Z</time>
      </trkpt>
      <trkpt lat="44.16097" lon="3.12996">
        <ele>808.1</ele>
        <time>2019-04-19T13:19:17Z</time>
      </trkpt>
      <trkpt lat="44.16099" lon="3.12992">
        <ele>808.3</ele>
        <time>2019-04-19T13:19:18Z</time>
      </trkpt>
      <trkpt lat="44.16102" lon="3.12989">
        <ele>808.6</ele>
        <time>2019-04-19T13:19:20Z</time>
      </trkpt>
      <trkpt lat="44.16105" lon="3.12987">
        <ele>808.8</ele>
        <time>2019-04-19T13:19:23Z</time>
      </trkpt>
      <trkpt lat="44.16109" lon="3.12987">
        <ele>809.1</ele>
        <time>2019-04-19T13:19:30Z</time>
      </trkpt>
      <trkpt lat="44.16113" lon="3.12987">
        <ele>809.5</ele>
        <time>2019-04-19T13:19:38Z</time>
      </trkpt>
      <trkpt lat="44.16116" lon="3.12987">
        <ele>809.8</ele>
        <time>2019-04-19T13:19:40Z</time>
      </trkpt>
      <trkpt lat="44.16122" lon="3.12988">
        <ele>810.3</ele>
        <time>2019-04-19T13:19:42Z</time>
      </trkpt>
      <trkpt lat="44.16125" lon="3.12988">
        <ele>810.6</ele>
        <time>2019-04-19T13:19:43Z</time>
      </trkpt>
      <trkpt lat="44.16128" lon="3.12988">
        <ele>810.7</ele>
        <time>2019-04-19T13:19:44Z</time>
      </trkpt>
      <trkpt lat="44.16131" lon="3.12988">
        <ele>810.9</ele>
        <time>2019-04-19T13:19:45Z</time>
      </trkpt>
      <trkpt lat="44.16135" lon="3.12988">
        <ele>811.1</ele>
        <time>2019-04-19T13:19:46Z</time>
      </trkpt>
      <trkpt lat="44.16138" lon="3.12989">
        <ele>811.2</ele>
        <time>2019-04-19T13:19:47Z</time>
      </trkpt>
      <trkpt lat="44.16141" lon="3.12994">
        <ele>811.4</ele>
        <time>2019-04-19T13:19:49Z</time>
      </trkpt>
      <trkpt lat="44.16141" lon="3.12998">
        <ele>811.5</ele>
        <time>2019-04-19T13:19:50Z</time>
      </trkpt>
      <trkpt lat="44.1614" lon="3.13004">
        <ele>811.6</ele>
        <time>2019-04-19T13:19:51Z</time>
      </trkpt>
      <trkpt lat="44.16138" lon="3.13008">
        <ele>811.7</ele>
        <time>2019-04-19T13:19:52Z</time>
      </trkpt>
      <trkpt lat="44.16135" lon="3.13012">
        <ele>811.7</ele>
        <time>2019-04-19T13:19:53Z</time>
      </trkpt>
      <trkpt lat="44.16133" lon="3.13018">
        <ele>811.8</ele>
        <time>2019-04-19T13:19:54Z</time>
      </trkpt>
      <trkpt lat="44.16133" lon="3.13023">
        <ele>811.8</ele>
        <time>2019-04-19T13:19:55Z</time>
      </trkpt>
      <trkpt lat="44.16135" lon="3.13029">
        <ele>811.8</ele>
        <time>2019-04-19T13:19:56Z</time>
      </trkpt>
      <trkpt lat="44.16138" lon="3.13033">
        <ele>811.8</ele>
        <time>2019-04-19T13:19:57Z</time>
      </trkpt>
      <trkpt lat="44.1614" lon="3.13036">
        <ele>811.7</ele>
        <time>2019-04-19T13:19:58Z</time>
      </trkpt>
      <trkpt lat="44.16144" lon="3.1304">
        <ele>811.7</ele>
        <time>2019-04-19T13:20:00Z</time>
      </trkpt>
      <trkpt lat="44.16147" lon="3.13039">
        <ele>811.7</ele>
        <time>2019-04-19T13:20:02Z</time>
      </trkpt>
      <trkpt lat="44.16151" lon="3.13042">
        <ele>811.7</ele>
        <time>2019-04-19T13:20:04Z</time>
      </trkpt>
      <trkpt lat="44.16154" lon="3.13043">
        <ele>811.7</ele>
        <time>2019-04-19T13:20:05Z</time>
      </trkpt>
      <trkpt lat="44.16157" lon="3.13043">
        <ele>811.7</ele>
        <time>2019-04-19T13:20:06Z</time>
      </trkpt>
      <trkpt lat="44.1616" lon="3.13043">
        <ele>811.7</ele>
        <time>2019-04-19T13:20:07Z</time>
      </trkpt>
      <trkpt lat="44.16164" lon="3.13047">
        <ele>811.7</ele>
        <time>2019-04-19T13:20:09Z</time>
      </trkpt>
      <trkpt lat="44.16165" lon="3.1305">
        <ele>811.7</ele>
        <time>2019-04-19T13:20:10Z</time>
      </trkpt>
      <trkpt lat="44.16166" lon="3.13057">
        <ele>811.7</ele>
        <time>2019-04-19T13:20:12Z</time>
      </trkpt>
      <trkpt lat="44.16168" lon="3.13064">
        <ele>811.7</ele>
        <time>2019-04-19T13:20:13Z</time>
      </trkpt>
      <trkpt lat="44.16169" lon="3.13071">
        <ele>811.7</ele>
        <time>2019-04-19T13:20:14Z</time>
      </trkpt>
      <trkpt lat="44.16169" lon="3.13077">
        <ele>811.8</ele>
        <time>2019-04-19T13:20:15Z</time>
      </trkpt>
      <trkpt lat="44.16173" lon="3.13081">
        <ele>811.8</ele>
        <time>2019-04-19T13:20:16Z</time>
      </trkpt>
      <trkpt lat="44.16176" lon="3.13085">
        <ele>811.9</ele>
        <time>2019-04-19T13:20:17Z</time>
      </trkpt>
      <trkpt lat="44.16178" lon="3.13091">
        <ele>812</ele>
        <time>2019-04-19T13:20:18Z</time>
      </trkpt>
      <trkpt lat="44.16179" lon="3.13093">
        <ele>812</ele>
        <time>2019-04-19T13:20:19Z</time>
      </trkpt>
      <trkpt lat="44.1618" lon="3.13098">
        <ele>812.1</ele>
        <time>2019-04-19T13:20:20Z</time>
      </trkpt>
      <trkpt lat="44.16179" lon="3.13101">
        <ele>812.2</ele>
        <time>2019-04-19T13:20:21Z</time>
      </trkpt>
      <trkpt lat="44.16179" lon="3.13106">
        <ele>812.3</ele>
        <time>2019-04-19T13:20:22Z</time>
      </trkpt>
      <trkpt lat="44.16178" lon="3.13113">
        <ele>812.4</ele>
        <time>2019-04-19T13:20:23Z</time>
      </trkpt>
      <trkpt lat="44.16181" lon="3.13115">
        <ele>812.5</ele>
        <time>2019-04-19T13:20:24Z</time>
      </trkpt>
      <trkpt lat="44.16184" lon="3.13116">
        <ele>812.6</ele>
        <time>2019-04-19T13:20:25Z</time>
      </trkpt>
      <trkpt lat="44.16187" lon="3.13117">
        <ele>812.8</ele>
        <time>2019-04-19T13:20:27Z</time>
      </trkpt>
      <trkpt lat="44.1619" lon="3.13118">
        <ele>813</ele>
        <time>2019-04-19T13:20:28Z</time>
      </trkpt>
      <trkpt lat="44.16193" lon="3.13118">
        <ele>813.1</ele>
        <time>2019-04-19T13:20:29Z</time>
      </trkpt>
      <trkpt lat="44.16195" lon="3.13118">
        <ele>813.3</ele>
        <time>2019-04-19T13:20:30Z</time>
      </trkpt>
      <trkpt lat="44.16199" lon="3.13117">
        <ele>813.4</ele>
        <time>2019-04-19T13:20:32Z</time>
      </trkpt>
      <trkpt lat="44.16203" lon="3.13119">
        <ele>813.8</ele>
        <time>2019-04-19T13:20:34Z</time>
      </trkpt>
      <trkpt lat="44.16206" lon="3.13123">
        <ele>814</ele>
        <time>2019-04-19T13:20:36Z</time>
      </trkpt>
      <trkpt lat="44.16211" lon="3.13126">
        <ele>814.4</ele>
        <time>2019-04-19T13:20:38Z</time>
      </trkpt>
      <trkpt lat="44.16214" lon="3.13127">
        <ele>814.6</ele>
        <time>2019-04-19T13:20:39Z</time>
      </trkpt>
      <trkpt lat="44.16217" lon="3.13129">
        <ele>814.8</ele>
        <time>2019-04-19T13:20:40Z</time>
      </trkpt>
      <trkpt lat="44.16219" lon="3.1313">
        <ele>815</ele>
        <time>2019-04-19T13:20:41Z</time>
      </trkpt>
      <trkpt lat="44.16223" lon="3.13133">
        <ele>815.3</ele>
        <time>2019-04-19T13:20:42Z</time>
      </trkpt>
      <trkpt lat="44.16226" lon="3.13136">
        <ele>815.6</ele>
        <time>2019-04-19T13:20:43Z</time>
      </trkpt>
      <trkpt lat="44.16229" lon="3.13139">
        <ele>815.9</ele>
        <time>2019-04-19T13:20:44Z</time>
      </trkpt>
      <trkpt lat="44.16232" lon="3.13143">
        <ele>816.2</ele>
        <time>2019-04-19T13:20:45Z</time>
      </trkpt>
      <trkpt lat="44.16234" lon="3.13146">
        <ele>816.4</ele>
        <time>2019-04-19T13:20:46Z</time>
      </trkpt>
      <trkpt lat="44.16236" lon="3.13149">
        <ele>816.7</ele>
        <time>2019-04-19T13:20:47Z</time>
      </trkpt>
      <trkpt lat="44.16239" lon="3.13152">
        <ele>816.9</ele>
        <time>2019-04-19T13:20:48Z</time>
      </trkpt>
      <trkpt lat="44.16243" lon="3.13155">
        <ele>817.1</ele>
        <time>2019-04-19T13:20:49Z</time>
      </trkpt>
      <trkpt lat="44.16247" lon="3.13158">
        <ele>817.3</ele>
        <time>2019-04-19T13:20:50Z</time>
      </trkpt>
      <trkpt lat="44.16251" lon="3.13159">
        <ele>817.5</ele>
        <time>2019-04-19T13:20:51Z</time>
      </trkpt>
      <trkpt lat="44.16254" lon="3.13162">
        <ele>817.6</ele>
        <time>2019-04-19T13:20:52Z</time>
      </trkpt>
      <trkpt lat="44.16258" lon="3.13164">
        <ele>817.8</ele>
        <time>2019-04-19T13:20:53Z</time>
      </trkpt>
      <trkpt lat="44.16261" lon="3.13167">
        <ele>817.9</ele>
        <time>2019-04-19T13:20:54Z</time>
      </trkpt>
      <trkpt lat="44.16264" lon="3.13169">
        <ele>818</ele>
        <time>2019-04-19T13:20:55Z</time>
      </trkpt>
      <trkpt lat="44.16268" lon="3.13172">
        <ele>818.2</ele>
        <time>2019-04-19T13:20:56Z</time>
      </trkpt>
      <trkpt lat="44.1627" lon="3.13175">
        <ele>818.2</ele>
        <time>2019-04-19T13:20:57Z</time>
      </trkpt>
      <trkpt lat="44.16274" lon="3.13178">
        <ele>818.4</ele>
        <time>2019-04-19T13:20:59Z</time>
      </trkpt>
      <trkpt lat="44.16276" lon="3.1318">
        <ele>818.4</ele>
        <time>2019-04-19T13:21:00Z</time>
      </trkpt>
      <trkpt lat="44.16281" lon="3.13183">
        <ele>818.6</ele>
        <time>2019-04-19T13:21:02Z</time>
      </trkpt>
      <trkpt lat="44.16286" lon="3.13187">
        <ele>818.7</ele>
        <time>2019-04-19T13:21:04Z</time>
      </trkpt>
      <trkpt lat="44.16288" lon="3.13192">
        <ele>818.9</ele>
        <time>2019-04-19T13:21:06Z</time>
      </trkpt>
      <trkpt lat="44.1629" lon="3.13195">
        <ele>819.1</ele>
        <time>2019-04-19T13:21:09Z</time>
      </trkpt>
      <trkpt lat="44.16294" lon="3.13197">
        <ele>819.3</ele>
        <time>2019-04-19T13:21:11Z</time>
      </trkpt>
      <trkpt lat="44.16299" lon="3.13201">
        <ele>819.6</ele>
        <time>2019-04-19T13:21:13Z</time>
      </trkpt>
      <trkpt lat="44.16302" lon="3.13204">
        <ele>819.7</ele>
        <time>2019-04-19T13:21:14Z</time>
      </trkpt>
      <trkpt lat="44.16305" lon="3.13207">
        <ele>819.8</ele>
        <time>2019-04-19T13:21:15Z</time>
      </trkpt>
      <trkpt lat="44.16309" lon="3.1321">
        <ele>819.9</ele>
        <time>2019-04-19T13:21:16Z</time>
      </trkpt>
      <trkpt lat="44.16313" lon="3.13212">
        <ele>820</ele>
        <time>2019-04-19T13:21:17Z</time>
      </trkpt>
      <trkpt lat="44.16316" lon="3.13213">
        <ele>820</ele>
        <time>2019-04-19T13:21:18Z</time>
      </trkpt>
      <trkpt lat="44.1632" lon="3.13215">
        <ele>820.1</ele>
        <time>2019-04-19T13:21:19Z</time>
      </trkpt>
      <trkpt lat="44.16324" lon="3.1322">
        <ele>820.2</ele>
        <time>2019-04-19T13:21:21Z</time>
      </trkpt>
      <trkpt lat="44.16327" lon="3.13223">
        <ele>820.2</ele>
        <time>2019-04-19T13:21:22Z</time>
      </trkpt>
      <trkpt lat="44.16339" lon="3.13229">
        <ele>820.2</ele>
        <time>2019-04-19T13:21:23Z</time>
      </trkpt>
      <trkpt lat="44.16345" lon="3.13232">
        <ele>820.2</ele>
        <time>2019-04-19T13:21:24Z</time>
      </trkpt>
      <trkpt lat="44.16352" lon="3.13236">
        <ele>820.1</ele>
        <time>2019-04-19T13:21:25Z</time>
      </trkpt>
      <trkpt lat="44.16356" lon="3.1324">
        <ele>820</ele>
        <time>2019-04-19T13:21:26Z</time>
      </trkpt>
      <trkpt lat="44.16359" lon="3.13243">
        <ele>819.9</ele>
        <time>2019-04-19T13:21:27Z</time>
      </trkpt>
      <trkpt lat="44.16366" lon="3.13248">
        <ele>819.7</ele>
        <time>2019-04-19T13:21:28Z</time>
      </trkpt>
      <trkpt lat="44.16371" lon="3.13253">
        <ele>819.5</ele>
        <time>2019-04-19T13:21:29Z</time>
      </trkpt>
      <trkpt lat="44.16378" lon="3.13256">
        <ele>819.3</ele>
        <time>2019-04-19T13:21:30Z</time>
      </trkpt>
      <trkpt lat="44.16382" lon="3.13252">
        <ele>819</ele>
        <time>2019-04-19T13:21:31Z</time>
      </trkpt>
      <trkpt lat="44.16386" lon="3.13253">
        <ele>818.7</ele>
        <time>2019-04-19T13:21:32Z</time>
      </trkpt>
      <trkpt lat="44.16391" lon="3.13253">
        <ele>818.5</ele>
        <time>2019-04-19T13:21:33Z</time>
      </trkpt>
      <trkpt lat="44.16395" lon="3.13257">
        <ele>818.3</ele>
        <time>2019-04-19T13:21:34Z</time>
      </trkpt>
      <trkpt lat="44.16398" lon="3.1326">
        <ele>818.2</ele>
        <time>2019-04-19T13:21:35Z</time>
      </trkpt>
      <trkpt lat="44.16405" lon="3.13265">
        <ele>817.9</ele>
        <time>2019-04-19T13:21:36Z</time>
      </trkpt>
      <trkpt lat="44.16409" lon="3.13269">
        <ele>817.6</ele>
        <time>2019-04-19T13:21:37Z</time>
      </trkpt>
      <trkpt lat="44.16413" lon="3.13271">
        <ele>817.3</ele>
        <time>2019-04-19T13:21:38Z</time>
      </trkpt>
      <trkpt lat="44.16418" lon="3.13271">
        <ele>817.1</ele>
        <time>2019-04-19T13:21:39Z</time>
      </trkpt>
      <trkpt lat="44.16421" lon="3.13271">
        <ele>817</ele>
        <time>2019-04-19T13:21:40Z</time>
      </trkpt>
      <trkpt lat="44.16425" lon="3.13278">
        <ele>816.8</ele>
        <time>2019-04-19T13:21:41Z</time>
      </trkpt>
      <trkpt lat="44.1643" lon="3.13281">
        <ele>816.7</ele>
        <time>2019-04-19T13:21:42Z</time>
      </trkpt>
      <trkpt lat="44.16434" lon="3.13284">
        <ele>816.6</ele>
        <time>2019-04-19T13:21:43Z</time>
      </trkpt>
      <trkpt lat="44.1644" lon="3.13286">
        <ele>816.6</ele>
        <time>2019-04-19T13:21:44Z</time>
      </trkpt>
      <trkpt lat="44.16443" lon="3.13291">
        <ele>816.6</ele>
        <time>2019-04-19T13:21:45Z</time>
      </trkpt>
      <trkpt lat="44.16449" lon="3.13293">
        <ele>816.6</ele>
        <time>2019-04-19T13:21:46Z</time>
      </trkpt>
      <trkpt lat="44.16456" lon="3.13294">
        <ele>816.6</ele>
        <time>2019-04-19T13:21:47Z</time>
      </trkpt>
      <trkpt lat="44.16463" lon="3.13296">
        <ele>816.5</ele>
        <time>2019-04-19T13:21:48Z</time>
      </trkpt>
      <trkpt lat="44.16473" lon="3.13296">
        <ele>816.3</ele>
        <time>2019-04-19T13:21:49Z</time>
      </trkpt>
      <trkpt lat="44.16478" lon="3.133">
        <ele>816.2</ele>
        <time>2019-04-19T13:21:50Z</time>
      </trkpt>
      <trkpt lat="44.16485" lon="3.13304">
        <ele>816.1</ele>
        <time>2019-04-19T13:21:51Z</time>
      </trkpt>
      <trkpt lat="44.16495" lon="3.13305">
        <ele>815.9</ele>
        <time>2019-04-19T13:21:52Z</time>
      </trkpt>
      <trkpt lat="44.16503" lon="3.13305">
        <ele>815.7</ele>
        <time>2019-04-19T13:21:53Z</time>
      </trkpt>
      <trkpt lat="44.16509" lon="3.13304">
        <ele>815.5</ele>
        <time>2019-04-19T13:21:54Z</time>
      </trkpt>
      <trkpt lat="44.16517" lon="3.13304">
        <ele>815.4</ele>
        <time>2019-04-19T13:21:55Z</time>
      </trkpt>
      <trkpt lat="44.1652" lon="3.13308">
        <ele>815.3</ele>
        <time>2019-04-19T13:21:56Z</time>
      </trkpt>
      <trkpt lat="44.16525" lon="3.13312">
        <ele>815.2</ele>
        <time>2019-04-19T13:21:57Z</time>
      </trkpt>
      <trkpt lat="44.16528" lon="3.13316">
        <ele>815.1</ele>
        <time>2019-04-19T13:21:58Z</time>
      </trkpt>
      <trkpt lat="44.1653" lon="3.13324">
        <ele>815.1</ele>
        <time>2019-04-19T13:21:59Z</time>
      </trkpt>
      <trkpt lat="44.16532" lon="3.13331">
        <ele>815.2</ele>
        <time>2019-04-19T13:22:00Z</time>
      </trkpt>
      <trkpt lat="44.16537" lon="3.13334">
        <ele>815.2</ele>
        <time>2019-04-19T13:22:02Z</time>
      </trkpt>
      <trkpt lat="44.16543" lon="3.13335">
        <ele>815.3</ele>
        <time>2019-04-19T13:22:03Z</time>
      </trkpt>
      <trkpt lat="44.16549" lon="3.13338">
        <ele>815.3</ele>
        <time>2019-04-19T13:22:05Z</time>
      </trkpt>
      <trkpt lat="44.16551" lon="3.13343">
        <ele>815.4</ele>
        <time>2019-04-19T13:22:06Z</time>
      </trkpt>
      <trkpt lat="44.16554" lon="3.13346">
        <ele>815.5</ele>
        <time>2019-04-19T13:22:07Z</time>
      </trkpt>
      <trkpt lat="44.16557" lon="3.13347">
        <ele>815.5</ele>
        <time>2019-04-19T13:22:08Z</time>
      </trkpt>
      <trkpt lat="44.1656" lon="3.13347">
        <ele>815.6</ele>
        <time>2019-04-19T13:22:09Z</time>
      </trkpt>
      <trkpt lat="44.16564" lon="3.1335">
        <ele>815.7</ele>
        <time>2019-04-19T13:22:10Z</time>
      </trkpt>
      <trkpt lat="44.16567" lon="3.13351">
        <ele>815.7</ele>
        <time>2019-04-19T13:22:11Z</time>
      </trkpt>
      <trkpt lat="44.16571" lon="3.13356">
        <ele>815.8</ele>
        <time>2019-04-19T13:22:13Z</time>
      </trkpt>
      <trkpt lat="44.16573" lon="3.1336">
        <ele>815.9</ele>
        <time>2019-04-19T13:22:14Z</time>
      </trkpt>
      <trkpt lat="44.16575" lon="3.13365">
        <ele>815.9</ele>
        <time>2019-04-19T13:22:15Z</time>
      </trkpt>
      <trkpt lat="44.16577" lon="3.13369">
        <ele>815.9</ele>
        <time>2019-04-19T13:22:16Z</time>
      </trkpt>
      <trkpt lat="44.1658" lon="3.13373">
        <ele>815.9</ele>
        <time>2019-04-19T13:22:17Z</time>
      </trkpt>
      <trkpt lat="44.16583" lon="3.13376">
        <ele>815.9</ele>
        <time>2019-04-19T13:22:18Z</time>
      </trkpt>
      <trkpt lat="44.16586" lon="3.13378">
        <ele>815.9</ele>
        <time>2019-04-19T13:22:19Z</time>
      </trkpt>
      <trkpt lat="44.16589" lon="3.1338">
        <ele>815.9</ele>
        <time>2019-04-19T13:22:20Z</time>
      </trkpt>
      <trkpt lat="44.16593" lon="3.13381">
        <ele>816</ele>
        <time>2019-04-19T13:22:21Z</time>
      </trkpt>
      <trkpt lat="44.16596" lon="3.13381">
        <ele>816</ele>
        <time>2019-04-19T13:22:22Z</time>
      </trkpt>
      <trkpt lat="44.16601" lon="3.13382">
        <ele>816</ele>
        <time>2019-04-19T13:22:24Z</time>
      </trkpt>
      <trkpt lat="44.16606" lon="3.13381">
        <ele>816</ele>
        <time>2019-04-19T13:22:26Z</time>
      </trkpt>
      <trkpt lat="44.16608" lon="3.13381">
        <ele>816.1</ele>
        <time>2019-04-19T13:22:27Z</time>
      </trkpt>
      <trkpt lat="44.16611" lon="3.13382">
        <ele>816.2</ele>
        <time>2019-04-19T13:22:28Z</time>
      </trkpt>
      <trkpt lat="44.16614" lon="3.13384">
        <ele>816.3</ele>
        <time>2019-04-19T13:22:29Z</time>
      </trkpt>
      <trkpt lat="44.16617" lon="3.13386">
        <ele>816.5</ele>
        <time>2019-04-19T13:22:30Z</time>
      </trkpt>
      <trkpt lat="44.1662" lon="3.13388">
        <ele>816.6</ele>
        <time>2019-04-19T13:22:31Z</time>
      </trkpt>
      <trkpt lat="44.16624" lon="3.13391">
        <ele>816.8</ele>
        <time>2019-04-19T13:22:33Z</time>
      </trkpt>
      <trkpt lat="44.16626" lon="3.13395">
        <ele>817</ele>
        <time>2019-04-19T13:22:35Z</time>
      </trkpt>
      <trkpt lat="44.16629" lon="3.13397">
        <ele>817.2</ele>
        <time>2019-04-19T13:22:38Z</time>
      </trkpt>
      <trkpt lat="44.16634" lon="3.13397">
        <ele>817.5</ele>
        <time>2019-04-19T13:22:41Z</time>
      </trkpt>
      <trkpt lat="44.16639" lon="3.13398">
        <ele>817.8</ele>
        <time>2019-04-19T13:22:43Z</time>
      </trkpt>
      <trkpt lat="44.16644" lon="3.13398">
        <ele>818</ele>
        <time>2019-04-19T13:22:45Z</time>
      </trkpt>
      <trkpt lat="44.16649" lon="3.13399">
        <ele>818.2</ele>
        <time>2019-04-19T13:22:47Z</time>
      </trkpt>
      <trkpt lat="44.16653" lon="3.13403">
        <ele>818.3</ele>
        <time>2019-04-19T13:22:49Z</time>
      </trkpt>
      <trkpt lat="44.16656" lon="3.13405">
        <ele>818.5</ele>
        <time>2019-04-19T13:22:51Z</time>
      </trkpt>
      <trkpt lat="44.16661" lon="3.13407">
        <ele>818.7</ele>
        <time>2019-04-19T13:22:53Z</time>
      </trkpt>
      <trkpt lat="44.16663" lon="3.13412">
        <ele>818.8</ele>
        <time>2019-04-19T13:22:55Z</time>
      </trkpt>
      <trkpt lat="44.16666" lon="3.13414">
        <ele>818.8</ele>
        <time>2019-04-19T13:22:58Z</time>
      </trkpt>
      <trkpt lat="44.1667" lon="3.13414">
        <ele>818.9</ele>
        <time>2019-04-19T13:23:00Z</time>
      </trkpt>
      <trkpt lat="44.16673" lon="3.13415">
        <ele>818.9</ele>
        <time>2019-04-19T13:23:01Z</time>
      </trkpt>
      <trkpt lat="44.16676" lon="3.13417">
        <ele>819</ele>
        <time>2019-04-19T13:23:02Z</time>
      </trkpt>
      <trkpt lat="44.16678" lon="3.1342">
        <ele>819</ele>
        <time>2019-04-19T13:23:03Z</time>
      </trkpt>
      <trkpt lat="44.16681" lon="3.13424">
        <ele>819.1</ele>
        <time>2019-04-19T13:23:04Z</time>
      </trkpt>
      <trkpt lat="44.16683" lon="3.13427">
        <ele>819.1</ele>
        <time>2019-04-19T13:23:05Z</time>
      </trkpt>
      <trkpt lat="44.16685" lon="3.1343">
        <ele>819.2</ele>
        <time>2019-04-19T13:23:06Z</time>
      </trkpt>
      <trkpt lat="44.16688" lon="3.13432">
        <ele>819.2</ele>
        <time>2019-04-19T13:23:07Z</time>
      </trkpt>
      <trkpt lat="44.16691" lon="3.13434">
        <ele>819.2</ele>
        <time>2019-04-19T13:23:08Z</time>
      </trkpt>
      <trkpt lat="44.16694" lon="3.13436">
        <ele>819.2</ele>
        <time>2019-04-19T13:23:09Z</time>
      </trkpt>
      <trkpt lat="44.16696" lon="3.13437">
        <ele>819.2</ele>
        <time>2019-04-19T13:23:10Z</time>
      </trkpt>
      <trkpt lat="44.167" lon="3.1344">
        <ele>819.2</ele>
        <time>2019-04-19T13:23:12Z</time>
      </trkpt>
      <trkpt lat="44.16703" lon="3.13445">
        <ele>819.2</ele>
        <time>2019-04-19T13:23:14Z</time>
      </trkpt>
      <trkpt lat="44.16704" lon="3.13449">
        <ele>819.2</ele>
        <time>2019-04-19T13:23:15Z</time>
      </trkpt>
      <trkpt lat="44.16707" lon="3.13456">
        <ele>819.2</ele>
        <time>2019-04-19T13:23:17Z</time>
      </trkpt>
      <trkpt lat="44.16709" lon="3.1346">
        <ele>819.1</ele>
        <time>2019-04-19T13:23:18Z</time>
      </trkpt>
      <trkpt lat="44.16711" lon="3.13465">
        <ele>819</ele>
        <time>2019-04-19T13:23:19Z</time>
      </trkpt>
      <trkpt lat="44.16713" lon="3.13471">
        <ele>819</ele>
        <time>2019-04-19T13:23:20Z</time>
      </trkpt>
      <trkpt lat="44.16716" lon="3.13475">
        <ele>818.8</ele>
        <time>2019-04-19T13:23:21Z</time>
      </trkpt>
      <trkpt lat="44.16719" lon="3.13479">
        <ele>818.7</ele>
        <time>2019-04-19T13:23:22Z</time>
      </trkpt>
      <trkpt lat="44.16726" lon="3.13486">
        <ele>818.5</ele>
        <time>2019-04-19T13:23:23Z</time>
      </trkpt>
      <trkpt lat="44.16729" lon="3.13493">
        <ele>818.3</ele>
        <time>2019-04-19T13:23:24Z</time>
      </trkpt>
      <trkpt lat="44.16732" lon="3.13501">
        <ele>817.8</ele>
        <time>2019-04-19T13:23:25Z</time>
      </trkpt>
      <trkpt lat="44.16735" lon="3.13508">
        <ele>817.4</ele>
        <time>2019-04-19T13:23:26Z</time>
      </trkpt>
      <trkpt lat="44.16737" lon="3.13514">
        <ele>817</ele>
        <time>2019-04-19T13:23:27Z</time>
      </trkpt>
      <trkpt lat="44.1674" lon="3.13518">
        <ele>816.7</ele>
        <time>2019-04-19T13:23:28Z</time>
      </trkpt>
      <trkpt lat="44.16742" lon="3.13523">
        <ele>816.4</ele>
        <time>2019-04-19T13:23:29Z</time>
      </trkpt>
      <trkpt lat="44.16744" lon="3.13523">
        <ele>816.2</ele>
        <time>2019-04-19T13:23:31Z</time>
      </trkpt>
      <trkpt lat="44.16749" lon="3.13523">
        <ele>815.8</ele>
        <time>2019-04-19T13:23:33Z</time>
      </trkpt>
      <trkpt lat="44.16752" lon="3.13525">
        <ele>815.6</ele>
        <time>2019-04-19T13:23:35Z</time>
      </trkpt>
      <trkpt lat="44.16755" lon="3.13524">
        <ele>815.4</ele>
        <time>2019-04-19T13:23:36Z</time>
      </trkpt>
      <trkpt lat="44.16758" lon="3.13523">
        <ele>815.2</ele>
        <time>2019-04-19T13:23:37Z</time>
      </trkpt>
      <trkpt lat="44.16762" lon="3.13524">
        <ele>814.8</ele>
        <time>2019-04-19T13:23:38Z</time>
      </trkpt>
      <trkpt lat="44.16767" lon="3.13525">
        <ele>814.7</ele>
        <time>2019-04-19T13:23:40Z</time>
      </trkpt>
      <trkpt lat="44.1677" lon="3.13526">
        <ele>814.7</ele>
        <time>2019-04-19T13:23:41Z</time>
      </trkpt>
      <trkpt lat="44.16774" lon="3.13528">
        <ele>814.6</ele>
        <time>2019-04-19T13:23:42Z</time>
      </trkpt>
      <trkpt lat="44.16778" lon="3.1353">
        <ele>814.5</ele>
        <time>2019-04-19T13:23:43Z</time>
      </trkpt>
      <trkpt lat="44.16782" lon="3.13533">
        <ele>814.4</ele>
        <time>2019-04-19T13:23:44Z</time>
      </trkpt>
      <trkpt lat="44.16786" lon="3.13535">
        <ele>814.2</ele>
        <time>2019-04-19T13:23:45Z</time>
      </trkpt>
      <trkpt lat="44.16791" lon="3.13539">
        <ele>814.1</ele>
        <time>2019-04-19T13:23:46Z</time>
      </trkpt>
      <trkpt lat="44.16795" lon="3.13542">
        <ele>814</ele>
        <time>2019-04-19T13:23:47Z</time>
      </trkpt>
      <trkpt lat="44.16801" lon="3.1355">
        <ele>813.7</ele>
        <time>2019-04-19T13:23:48Z</time>
      </trkpt>
      <trkpt lat="44.16804" lon="3.13556">
        <ele>813.5</ele>
        <time>2019-04-19T13:23:49Z</time>
      </trkpt>
      <trkpt lat="44.16805" lon="3.13563">
        <ele>813.4</ele>
        <time>2019-04-19T13:23:50Z</time>
      </trkpt>
      <trkpt lat="44.16807" lon="3.13567">
        <ele>813.2</ele>
        <time>2019-04-19T13:23:51Z</time>
      </trkpt>
      <trkpt lat="44.16809" lon="3.13574">
        <ele>813</ele>
        <time>2019-04-19T13:23:52Z</time>
      </trkpt>
      <trkpt lat="44.16811" lon="3.13578">
        <ele>812.9</ele>
        <time>2019-04-19T13:23:53Z</time>
      </trkpt>
      <trkpt lat="44.16811" lon="3.13582">
        <ele>812.8</ele>
        <time>2019-04-19T13:23:54Z</time>
      </trkpt>
      <trkpt lat="44.16812" lon="3.13586">
        <ele>812.7</ele>
        <time>2019-04-19T13:23:55Z</time>
      </trkpt>
      <trkpt lat="44.16812" lon="3.1359">
        <ele>812.6</ele>
        <time>2019-04-19T13:23:56Z</time>
      </trkpt>
      <trkpt lat="44.16815" lon="3.13594">
        <ele>812.5</ele>
        <time>2019-04-19T13:23:58Z</time>
      </trkpt>
      <trkpt lat="44.16813" lon="3.13598">
        <ele>812.4</ele>
        <time>2019-04-19T13:24:00Z</time>
      </trkpt>
      <trkpt lat="44.16813" lon="3.13602">
        <ele>812.3</ele>
        <time>2019-04-19T13:24:02Z</time>
      </trkpt>
      <trkpt lat="44.16815" lon="3.13604">
        <ele>812.2</ele>
        <time>2019-04-19T13:24:04Z</time>
      </trkpt>
      <trkpt lat="44.1682" lon="3.13606">
        <ele>812.1</ele>
        <time>2019-04-19T13:24:06Z</time>
      </trkpt>
      <trkpt lat="44.16825" lon="3.13609">
        <ele>811.9</ele>
        <time>2019-04-19T13:24:08Z</time>
      </trkpt>
      <trkpt lat="44.16827" lon="3.13612">
        <ele>811.9</ele>
        <time>2019-04-19T13:24:09Z</time>
      </trkpt>
      <trkpt lat="44.16828" lon="3.13616">
        <ele>811.8</ele>
        <time>2019-04-19T13:24:10Z</time>
      </trkpt>
      <trkpt lat="44.16831" lon="3.1362">
        <ele>811.6</ele>
        <time>2019-04-19T13:24:11Z</time>
      </trkpt>
      <trkpt lat="44.16834" lon="3.13624">
        <ele>811.5</ele>
        <time>2019-04-19T13:24:12Z</time>
      </trkpt>
      <trkpt lat="44.16837" lon="3.13627">
        <ele>811.4</ele>
        <time>2019-04-19T13:24:13Z</time>
      </trkpt>
      <trkpt lat="44.1684" lon="3.1363">
        <ele>811.3</ele>
        <time>2019-04-19T13:24:14Z</time>
      </trkpt>
      <trkpt lat="44.16844" lon="3.13632">
        <ele>811.2</ele>
        <time>2019-04-19T13:24:15Z</time>
      </trkpt>
      <trkpt lat="44.16847" lon="3.13635">
        <ele>811.1</ele>
        <time>2019-04-19T13:24:16Z</time>
      </trkpt>
      <trkpt lat="44.1685" lon="3.13638">
        <ele>811</ele>
        <time>2019-04-19T13:24:17Z</time>
      </trkpt>
      <trkpt lat="44.16853" lon="3.13642">
        <ele>810.9</ele>
        <time>2019-04-19T13:24:18Z</time>
      </trkpt>
      <trkpt lat="44.16855" lon="3.13645">
        <ele>810.8</ele>
        <time>2019-04-19T13:24:19Z</time>
      </trkpt>
      <trkpt lat="44.16858" lon="3.13647">
        <ele>810.8</ele>
        <time>2019-04-19T13:24:20Z</time>
      </trkpt>
      <trkpt lat="44.16862" lon="3.13648">
        <ele>810.7</ele>
        <time>2019-04-19T13:24:22Z</time>
      </trkpt>
      <trkpt lat="44.16865" lon="3.13648">
        <ele>810.6</ele>
        <time>2019-04-19T13:24:24Z</time>
      </trkpt>
      <trkpt lat="44.16869" lon="3.13652">
        <ele>810.5</ele>
        <time>2019-04-19T13:24:26Z</time>
      </trkpt>
      <trkpt lat="44.16874" lon="3.13655">
        <ele>810.4</ele>
        <time>2019-04-19T13:24:28Z</time>
      </trkpt>
      <trkpt lat="44.16877" lon="3.13655">
        <ele>810.3</ele>
        <time>2019-04-19T13:24:29Z</time>
      </trkpt>
      <trkpt lat="44.1688" lon="3.13656">
        <ele>810.2</ele>
        <time>2019-04-19T13:24:30Z</time>
      </trkpt>
      <trkpt lat="44.16883" lon="3.13657">
        <ele>810.1</ele>
        <time>2019-04-19T13:24:31Z</time>
      </trkpt>
      <trkpt lat="44.16886" lon="3.13658">
        <ele>810</ele>
        <time>2019-04-19T13:24:32Z</time>
      </trkpt>
      <trkpt lat="44.1689" lon="3.13659">
        <ele>809.9</ele>
        <time>2019-04-19T13:24:33Z</time>
      </trkpt>
      <trkpt lat="44.16894" lon="3.1366">
        <ele>809.8</ele>
        <time>2019-04-19T13:24:34Z</time>
      </trkpt>
      <trkpt lat="44.16897" lon="3.13663">
        <ele>809.7</ele>
        <time>2019-04-19T13:24:35Z</time>
      </trkpt>
      <trkpt lat="44.169" lon="3.13667">
        <ele>809.6</ele>
        <time>2019-04-19T13:24:36Z</time>
      </trkpt>
      <trkpt lat="44.16902" lon="3.1367">
        <ele>809.5</ele>
        <time>2019-04-19T13:24:37Z</time>
      </trkpt>
      <trkpt lat="44.16903" lon="3.13677">
        <ele>809.4</ele>
        <time>2019-04-19T13:24:39Z</time>
      </trkpt>
      <trkpt lat="44.16904" lon="3.13682">
        <ele>809.3</ele>
        <time>2019-04-19T13:24:40Z</time>
      </trkpt>
      <trkpt lat="44.16905" lon="3.13688">
        <ele>809.1</ele>
        <time>2019-04-19T13:24:41Z</time>
      </trkpt>
      <trkpt lat="44.16908" lon="3.13694">
        <ele>808.9</ele>
        <time>2019-04-19T13:24:42Z</time>
      </trkpt>
      <trkpt lat="44.1691" lon="3.137">
        <ele>808.7</ele>
        <time>2019-04-19T13:24:43Z</time>
      </trkpt>
      <trkpt lat="44.16914" lon="3.13704">
        <ele>808.6</ele>
        <time>2019-04-19T13:24:44Z</time>
      </trkpt>
      <trkpt lat="44.16919" lon="3.13709">
        <ele>808.4</ele>
        <time>2019-04-19T13:24:45Z</time>
      </trkpt>
      <trkpt lat="44.16923" lon="3.13714">
        <ele>808.2</ele>
        <time>2019-04-19T13:24:46Z</time>
      </trkpt>
      <trkpt lat="44.16926" lon="3.13718">
        <ele>808</ele>
        <time>2019-04-19T13:24:47Z</time>
      </trkpt>
      <trkpt lat="44.16929" lon="3.13721">
        <ele>807.9</ele>
        <time>2019-04-19T13:24:48Z</time>
      </trkpt>
      <trkpt lat="44.16932" lon="3.13727">
        <ele>807.7</ele>
        <time>2019-04-19T13:24:49Z</time>
      </trkpt>
      <trkpt lat="44.1694" lon="3.13752">
        <ele>807.2</ele>
        <time>2019-04-19T13:24:51Z</time>
      </trkpt>
      <trkpt lat="44.16939" lon="3.13757">
        <ele>807.1</ele>
        <time>2019-04-19T13:24:52Z</time>
      </trkpt>
      <trkpt lat="44.16937" lon="3.13763">
        <ele>807</ele>
        <time>2019-04-19T13:24:53Z</time>
      </trkpt>
      <trkpt lat="44.16938" lon="3.13769">
        <ele>806.9</ele>
        <time>2019-04-19T13:24:55Z</time>
      </trkpt>
      <trkpt lat="44.16943" lon="3.13771">
        <ele>806.8</ele>
        <time>2019-04-19T13:24:56Z</time>
      </trkpt>
      <trkpt lat="44.16943" lon="3.13798">
        <ele>806.3</ele>
        <time>2019-04-19T13:24:59Z</time>
      </trkpt>
      <trkpt lat="44.16944" lon="3.13807">
        <ele>806.1</ele>
        <time>2019-04-19T13:25:00Z</time>
      </trkpt>
      <trkpt lat="44.16941" lon="3.13809">
        <ele>806</ele>
        <time>2019-04-19T13:25:03Z</time>
      </trkpt>
      <trkpt lat="44.16938" lon="3.13809">
        <ele>805.8</ele>
        <time>2019-04-19T13:25:07Z</time>
      </trkpt>
      <trkpt lat="44.16934" lon="3.13807">
        <ele>805.6</ele>
        <time>2019-04-19T13:25:09Z</time>
      </trkpt>
      <trkpt lat="44.16924" lon="3.13816">
        <ele>806.9</ele>
        <time>2019-04-19T13:27:05Z</time>
      </trkpt>
      <trkpt lat="44.1692" lon="3.13818">
        <ele>807.3</ele>
        <time>2019-04-19T13:27:07Z</time>
      </trkpt>
      <trkpt lat="44.16916" lon="3.13818">
        <ele>807.8</ele>
        <time>2019-04-19T13:27:08Z</time>
      </trkpt>
      <trkpt lat="44.16911" lon="3.13818">
        <ele>808.2</ele>
        <time>2019-04-19T13:27:09Z</time>
      </trkpt>
      <trkpt lat="44.16907" lon="3.13817">
        <ele>808.4</ele>
        <time>2019-04-19T13:27:10Z</time>
      </trkpt>
      <trkpt lat="44.16903" lon="3.13816">
        <ele>808.5</ele>
        <time>2019-04-19T13:27:12Z</time>
      </trkpt>
      <trkpt lat="44.169" lon="3.13814">
        <ele>808.7</ele>
        <time>2019-04-19T13:27:13Z</time>
      </trkpt>
      <trkpt lat="44.16897" lon="3.13812">
        <ele>808.8</ele>
        <time>2019-04-19T13:27:14Z</time>
      </trkpt>
      <trkpt lat="44.16892" lon="3.13811">
        <ele>809</ele>
        <time>2019-04-19T13:27:16Z</time>
      </trkpt>
      <trkpt lat="44.16887" lon="3.13809">
        <ele>809.3</ele>
        <time>2019-04-19T13:27:18Z</time>
      </trkpt>
      <trkpt lat="44.16883" lon="3.13808">
        <ele>809.6</ele>
        <time>2019-04-19T13:27:19Z</time>
      </trkpt>
      <trkpt lat="44.16881" lon="3.13806">
        <ele>809.9</ele>
        <time>2019-04-19T13:27:20Z</time>
      </trkpt>
      <trkpt lat="44.16878" lon="3.13805">
        <ele>810.2</ele>
        <time>2019-04-19T13:27:21Z</time>
      </trkpt>
      <trkpt lat="44.16875" lon="3.13804">
        <ele>810.3</ele>
        <time>2019-04-19T13:27:22Z</time>
      </trkpt>
      <trkpt lat="44.1687" lon="3.13802">
        <ele>810.3</ele>
        <time>2019-04-19T13:27:24Z</time>
      </trkpt>
      <trkpt lat="44.16866" lon="3.13801">
        <ele>810.4</ele>
        <time>2019-04-19T13:27:26Z</time>
      </trkpt>
      <trkpt lat="44.16862" lon="3.138">
        <ele>810.4</ele>
        <time>2019-04-19T13:27:28Z</time>
      </trkpt>
      <trkpt lat="44.16857" lon="3.13798">
        <ele>810.5</ele>
        <time>2019-04-19T13:27:30Z</time>
      </trkpt>
      <trkpt lat="44.16853" lon="3.13799">
        <ele>810.5</ele>
        <time>2019-04-19T13:27:32Z</time>
      </trkpt>
      <trkpt lat="44.16849" lon="3.13798">
        <ele>810.6</ele>
        <time>2019-04-19T13:27:34Z</time>
      </trkpt>
      <trkpt lat="44.16845" lon="3.13796">
        <ele>810.9</ele>
        <time>2019-04-19T13:27:35Z</time>
      </trkpt>
      <trkpt lat="44.16842" lon="3.13795">
        <ele>811.3</ele>
        <time>2019-04-19T13:27:36Z</time>
      </trkpt>
      <trkpt lat="44.16839" lon="3.13794">
        <ele>811.5</ele>
        <time>2019-04-19T13:27:37Z</time>
      </trkpt>
      <trkpt lat="44.16835" lon="3.13792">
        <ele>811.7</ele>
        <time>2019-04-19T13:27:39Z</time>
      </trkpt>
      <trkpt lat="44.16831" lon="3.1379">
        <ele>811.9</ele>
        <time>2019-04-19T13:27:41Z</time>
      </trkpt>
      <trkpt lat="44.16828" lon="3.13791">
        <ele>812.1</ele>
        <time>2019-04-19T13:27:43Z</time>
      </trkpt>
      <trkpt lat="44.16824" lon="3.13793">
        <ele>812.3</ele>
        <time>2019-04-19T13:27:45Z</time>
      </trkpt>
      <trkpt lat="44.1682" lon="3.13795">
        <ele>812.5</ele>
        <time>2019-04-19T13:27:47Z</time>
      </trkpt>
      <trkpt lat="44.16817" lon="3.13795">
        <ele>812.6</ele>
        <time>2019-04-19T13:27:48Z</time>
      </trkpt>
      <trkpt lat="44.16814" lon="3.13794">
        <ele>812.8</ele>
        <time>2019-04-19T13:27:52Z</time>
      </trkpt>
      <trkpt lat="44.1681" lon="3.13796">
        <ele>813</ele>
        <time>2019-04-19T13:28:22Z</time>
      </trkpt>
      <trkpt lat="44.16806" lon="3.13794">
        <ele>813.2</ele>
        <time>2019-04-19T13:28:25Z</time>
      </trkpt>
      <trkpt lat="44.16803" lon="3.13794">
        <ele>813.4</ele>
        <time>2019-04-19T13:28:26Z</time>
      </trkpt>
      <trkpt lat="44.16799" lon="3.13795">
        <ele>813.6</ele>
        <time>2019-04-19T13:28:27Z</time>
      </trkpt>
      <trkpt lat="44.16796" lon="3.13795">
        <ele>813.8</ele>
        <time>2019-04-19T13:28:28Z</time>
      </trkpt>
      <trkpt lat="44.16792" lon="3.13794">
        <ele>813.9</ele>
        <time>2019-04-19T13:28:29Z</time>
      </trkpt>
      <trkpt lat="44.16788" lon="3.13795">
        <ele>814.1</ele>
        <time>2019-04-19T13:28:30Z</time>
      </trkpt>
      <trkpt lat="44.16785" lon="3.13796">
        <ele>813.9</ele>
        <time>2019-04-19T13:28:31Z</time>
      </trkpt>
      <trkpt lat="44.16782" lon="3.13798">
        <ele>813.7</ele>
        <time>2019-04-19T13:28:32Z</time>
      </trkpt>
      <trkpt lat="44.16779" lon="3.13798">
        <ele>813.6</ele>
        <time>2019-04-19T13:28:33Z</time>
      </trkpt>
      <trkpt lat="44.16775" lon="3.13797">
        <ele>814</ele>
        <time>2019-04-19T13:28:35Z</time>
      </trkpt>
      <trkpt lat="44.16771" lon="3.13795">
        <ele>814.4</ele>
        <time>2019-04-19T13:28:37Z</time>
      </trkpt>
      <trkpt lat="44.16766" lon="3.13797">
        <ele>814.7</ele>
        <time>2019-04-19T13:28:39Z</time>
      </trkpt>
      <trkpt lat="44.16765" lon="3.138">
        <ele>814.8</ele>
        <time>2019-04-19T13:28:40Z</time>
      </trkpt>
      <trkpt lat="44.16763" lon="3.13804">
        <ele>815.2</ele>
        <time>2019-04-19T13:28:42Z</time>
      </trkpt>
      <trkpt lat="44.16759" lon="3.13809">
        <ele>815.7</ele>
        <time>2019-04-19T13:28:44Z</time>
      </trkpt>
      <trkpt lat="44.16757" lon="3.13812">
        <ele>815.4</ele>
        <time>2019-04-19T13:28:45Z</time>
      </trkpt>
      <trkpt lat="44.16755" lon="3.13815">
        <ele>815.1</ele>
        <time>2019-04-19T13:28:46Z</time>
      </trkpt>
      <trkpt lat="44.16752" lon="3.1382">
        <ele>814.5</ele>
        <time>2019-04-19T13:28:47Z</time>
      </trkpt>
      <trkpt lat="44.1675" lon="3.13826">
        <ele>813.2</ele>
        <time>2019-04-19T13:28:48Z</time>
      </trkpt>
      <trkpt lat="44.16743" lon="3.13838">
        <ele>811.8</ele>
        <time>2019-04-19T13:28:49Z</time>
      </trkpt>
      <trkpt lat="44.1674" lon="3.13851">
        <ele>810.6</ele>
        <time>2019-04-19T13:28:50Z</time>
      </trkpt>
      <trkpt lat="44.16735" lon="3.13861">
        <ele>810.1</ele>
        <time>2019-04-19T13:28:51Z</time>
      </trkpt>
      <trkpt lat="44.1673" lon="3.13871">
        <ele>808.9</ele>
        <time>2019-04-19T13:28:52Z</time>
      </trkpt>
      <trkpt lat="44.16727" lon="3.13876">
        <ele>808.2</ele>
        <time>2019-04-19T13:28:53Z</time>
      </trkpt>
      <trkpt lat="44.16723" lon="3.13885">
        <ele>807.5</ele>
        <time>2019-04-19T13:28:54Z</time>
      </trkpt>
      <trkpt lat="44.1672" lon="3.13889">
        <ele>807.4</ele>
        <time>2019-04-19T13:28:55Z</time>
      </trkpt>
      <trkpt lat="44.16718" lon="3.13893">
        <ele>807.4</ele>
        <time>2019-04-19T13:28:56Z</time>
      </trkpt>
      <trkpt lat="44.16716" lon="3.13897">
        <ele>807.4</ele>
        <time>2019-04-19T13:28:57Z</time>
      </trkpt>
      <trkpt lat="44.16715" lon="3.13901">
        <ele>807.4</ele>
        <time>2019-04-19T13:28:58Z</time>
      </trkpt>
      <trkpt lat="44.16714" lon="3.13909">
        <ele>807.7</ele>
        <time>2019-04-19T13:28:59Z</time>
      </trkpt>
      <trkpt lat="44.16714" lon="3.13917">
        <ele>808.1</ele>
        <time>2019-04-19T13:29:00Z</time>
      </trkpt>
      <trkpt lat="44.16713" lon="3.13925">
        <ele>808</ele>
        <time>2019-04-19T13:29:02Z</time>
      </trkpt>
      <trkpt lat="44.16711" lon="3.13928">
        <ele>808</ele>
        <time>2019-04-19T13:29:03Z</time>
      </trkpt>
      <trkpt lat="44.16708" lon="3.1393">
        <ele>808.1</ele>
        <time>2019-04-19T13:29:04Z</time>
      </trkpt>
      <trkpt lat="44.16704" lon="3.13934">
        <ele>808.2</ele>
        <time>2019-04-19T13:29:06Z</time>
      </trkpt>
      <trkpt lat="44.16701" lon="3.13935">
        <ele>808.4</ele>
        <time>2019-04-19T13:29:07Z</time>
      </trkpt>
      <trkpt lat="44.16696" lon="3.13937">
        <ele>808.8</ele>
        <time>2019-04-19T13:29:08Z</time>
      </trkpt>
      <trkpt lat="44.16691" lon="3.1394">
        <ele>809.5</ele>
        <time>2019-04-19T13:29:09Z</time>
      </trkpt>
      <trkpt lat="44.16687" lon="3.13943">
        <ele>809.8</ele>
        <time>2019-04-19T13:29:10Z</time>
      </trkpt>
      <trkpt lat="44.16664" lon="3.13955">
        <ele>810.6</ele>
        <time>2019-04-19T13:29:12Z</time>
      </trkpt>
      <trkpt lat="44.16659" lon="3.13956">
        <ele>811.2</ele>
        <time>2019-04-19T13:29:13Z</time>
      </trkpt>
      <trkpt lat="44.16658" lon="3.13961">
        <ele>811.7</ele>
        <time>2019-04-19T13:29:14Z</time>
      </trkpt>
      <trkpt lat="44.16654" lon="3.13963">
        <ele>811.8</ele>
        <time>2019-04-19T13:29:15Z</time>
      </trkpt>
      <trkpt lat="44.16649" lon="3.13965">
        <ele>811.7</ele>
        <time>2019-04-19T13:29:16Z</time>
      </trkpt>
      <trkpt lat="44.16643" lon="3.13967">
        <ele>811.8</ele>
        <time>2019-04-19T13:29:17Z</time>
      </trkpt>
      <trkpt lat="44.16638" lon="3.13968">
        <ele>812</ele>
        <time>2019-04-19T13:29:18Z</time>
      </trkpt>
      <trkpt lat="44.16633" lon="3.13972">
        <ele>812.4</ele>
        <time>2019-04-19T13:29:19Z</time>
      </trkpt>
      <trkpt lat="44.16632" lon="3.13977">
        <ele>812.4</ele>
        <time>2019-04-19T13:29:20Z</time>
      </trkpt>
      <trkpt lat="44.16632" lon="3.13983">
        <ele>811.9</ele>
        <time>2019-04-19T13:29:21Z</time>
      </trkpt>
      <trkpt lat="44.16632" lon="3.13988">
        <ele>811.4</ele>
        <time>2019-04-19T13:29:22Z</time>
      </trkpt>
      <trkpt lat="44.16631" lon="3.13993">
        <ele>811.2</ele>
        <time>2019-04-19T13:29:23Z</time>
      </trkpt>
      <trkpt lat="44.16629" lon="3.13997">
        <ele>811</ele>
        <time>2019-04-19T13:29:24Z</time>
      </trkpt>
      <trkpt lat="44.16623" lon="3.14003">
        <ele>810.6</ele>
        <time>2019-04-19T13:29:25Z</time>
      </trkpt>
      <trkpt lat="44.16617" lon="3.14009">
        <ele>810.2</ele>
        <time>2019-04-19T13:29:26Z</time>
      </trkpt>
      <trkpt lat="44.16611" lon="3.14017">
        <ele>809.9</ele>
        <time>2019-04-19T13:29:27Z</time>
      </trkpt>
      <trkpt lat="44.16607" lon="3.14021">
        <ele>809.7</ele>
        <time>2019-04-19T13:29:28Z</time>
      </trkpt>
      <trkpt lat="44.16603" lon="3.14025">
        <ele>809.3</ele>
        <time>2019-04-19T13:29:29Z</time>
      </trkpt>
      <trkpt lat="44.16597" lon="3.14029">
        <ele>808.6</ele>
        <time>2019-04-19T13:29:30Z</time>
      </trkpt>
      <trkpt lat="44.16593" lon="3.14035">
        <ele>808.3</ele>
        <time>2019-04-19T13:29:31Z</time>
      </trkpt>
      <trkpt lat="44.1659" lon="3.14042">
        <ele>808</ele>
        <time>2019-04-19T13:29:32Z</time>
      </trkpt>
      <trkpt lat="44.16587" lon="3.14048">
        <ele>807.5</ele>
        <time>2019-04-19T13:29:33Z</time>
      </trkpt>
      <trkpt lat="44.16585" lon="3.14059">
        <ele>807.3</ele>
        <time>2019-04-19T13:29:34Z</time>
      </trkpt>
      <trkpt lat="44.16583" lon="3.14072">
        <ele>807.3</ele>
        <time>2019-04-19T13:29:35Z</time>
      </trkpt>
      <trkpt lat="44.1658" lon="3.14085">
        <ele>806.8</ele>
        <time>2019-04-19T13:29:36Z</time>
      </trkpt>
      <trkpt lat="44.16576" lon="3.14094">
        <ele>806.4</ele>
        <time>2019-04-19T13:29:37Z</time>
      </trkpt>
      <trkpt lat="44.16573" lon="3.14104">
        <ele>806.2</ele>
        <time>2019-04-19T13:29:38Z</time>
      </trkpt>
      <trkpt lat="44.16569" lon="3.14111">
        <ele>805.6</ele>
        <time>2019-04-19T13:29:39Z</time>
      </trkpt>
      <trkpt lat="44.16565" lon="3.14121">
        <ele>805.3</ele>
        <time>2019-04-19T13:29:40Z</time>
      </trkpt>
      <trkpt lat="44.16562" lon="3.14128">
        <ele>805</ele>
        <time>2019-04-19T13:29:41Z</time>
      </trkpt>
      <trkpt lat="44.1656" lon="3.14135">
        <ele>804.9</ele>
        <time>2019-04-19T13:29:42Z</time>
      </trkpt>
      <trkpt lat="44.16561" lon="3.1415">
        <ele>804.6</ele>
        <time>2019-04-19T13:29:43Z</time>
      </trkpt>
      <trkpt lat="44.16559" lon="3.14162">
        <ele>803.7</ele>
        <time>2019-04-19T13:29:44Z</time>
      </trkpt>
      <trkpt lat="44.16559" lon="3.14171">
        <ele>803.2</ele>
        <time>2019-04-19T13:29:45Z</time>
      </trkpt>
      <trkpt lat="44.16555" lon="3.1418">
        <ele>802.7</ele>
        <time>2019-04-19T13:29:46Z</time>
      </trkpt>
      <trkpt lat="44.1656" lon="3.14188">
        <ele>801.3</ele>
        <time>2019-04-19T13:29:47Z</time>
      </trkpt>
      <trkpt lat="44.16563" lon="3.14185">
        <ele>800.8</ele>
        <time>2019-04-19T13:29:49Z</time>
      </trkpt>
      <trkpt lat="44.16565" lon="3.14189">
        <ele>800.4</ele>
        <time>2019-04-19T13:29:50Z</time>
      </trkpt>
      <trkpt lat="44.16568" lon="3.14191">
        <ele>799.9</ele>
        <time>2019-04-19T13:29:53Z</time>
      </trkpt>
      <trkpt lat="44.16571" lon="3.14193">
        <ele>799.4</ele>
        <time>2019-04-19T13:29:54Z</time>
      </trkpt>
      <trkpt lat="44.16575" lon="3.14193">
        <ele>798.8</ele>
        <time>2019-04-19T13:29:56Z</time>
      </trkpt>
      <trkpt lat="44.16578" lon="3.14194">
        <ele>798.1</ele>
        <time>2019-04-19T13:29:59Z</time>
      </trkpt>
      <trkpt lat="44.16583" lon="3.14195">
        <ele>796.9</ele>
        <time>2019-04-19T13:30:01Z</time>
      </trkpt>
      <trkpt lat="44.16588" lon="3.14196">
        <ele>796.2</ele>
        <time>2019-04-19T13:30:03Z</time>
      </trkpt>
      <trkpt lat="44.16592" lon="3.14199">
        <ele>795.4</ele>
        <time>2019-04-19T13:30:05Z</time>
      </trkpt>
      <trkpt lat="44.16594" lon="3.14202">
        <ele>795</ele>
        <time>2019-04-19T13:30:06Z</time>
      </trkpt>
      <trkpt lat="44.16597" lon="3.14208">
        <ele>794.6</ele>
        <time>2019-04-19T13:30:08Z</time>
      </trkpt>
      <trkpt lat="44.16599" lon="3.14212">
        <ele>794.6</ele>
        <time>2019-04-19T13:30:11Z</time>
      </trkpt>
      <trkpt lat="44.166" lon="3.14215">
        <ele>794.7</ele>
        <time>2019-04-19T13:30:13Z</time>
      </trkpt>
      <trkpt lat="44.16599" lon="3.14219">
        <ele>794.9</ele>
        <time>2019-04-19T13:30:15Z</time>
      </trkpt>
      <trkpt lat="44.16596" lon="3.14224">
        <ele>795.3</ele>
        <time>2019-04-19T13:30:17Z</time>
      </trkpt>
      <trkpt lat="44.16594" lon="3.14227">
        <ele>795.5</ele>
        <time>2019-04-19T13:30:18Z</time>
      </trkpt>
      <trkpt lat="44.16591" lon="3.14234">
        <ele>796</ele>
        <time>2019-04-19T13:30:20Z</time>
      </trkpt>
      <trkpt lat="44.16589" lon="3.14238">
        <ele>796.2</ele>
        <time>2019-04-19T13:30:21Z</time>
      </trkpt>
      <trkpt lat="44.16588" lon="3.14241">
        <ele>796.6</ele>
        <time>2019-04-19T13:30:22Z</time>
      </trkpt>
      <trkpt lat="44.16586" lon="3.14244">
        <ele>797.1</ele>
        <time>2019-04-19T13:30:23Z</time>
      </trkpt>
      <trkpt lat="44.16584" lon="3.14247">
        <ele>797.5</ele>
        <time>2019-04-19T13:30:24Z</time>
      </trkpt>
      <trkpt lat="44.16583" lon="3.14251">
        <ele>797.8</ele>
        <time>2019-04-19T13:30:25Z</time>
      </trkpt>
      <trkpt lat="44.16582" lon="3.14256">
        <ele>798.1</ele>
        <time>2019-04-19T13:30:26Z</time>
      </trkpt>
      <trkpt lat="44.16583" lon="3.14265">
        <ele>798.9</ele>
        <time>2019-04-19T13:30:27Z</time>
      </trkpt>
      <trkpt lat="44.16579" lon="3.14268">
        <ele>799.4</ele>
        <time>2019-04-19T13:30:28Z</time>
      </trkpt>
      <trkpt lat="44.16578" lon="3.14274">
        <ele>799.8</ele>
        <time>2019-04-19T13:30:29Z</time>
      </trkpt>
      <trkpt lat="44.16577" lon="3.14282">
        <ele>800.1</ele>
        <time>2019-04-19T13:30:30Z</time>
      </trkpt>
      <trkpt lat="44.16575" lon="3.14287">
        <ele>800.3</ele>
        <time>2019-04-19T13:30:31Z</time>
      </trkpt>
      <trkpt lat="44.16573" lon="3.1429">
        <ele>800.5</ele>
        <time>2019-04-19T13:30:36Z</time>
      </trkpt>
      <trkpt lat="44.16571" lon="3.14297">
        <ele>800.7</ele>
        <time>2019-04-19T13:30:38Z</time>
      </trkpt>
      <trkpt lat="44.16567" lon="3.14301">
        <ele>800.8</ele>
        <time>2019-04-19T13:30:41Z</time>
      </trkpt>
      <trkpt lat="44.16565" lon="3.14305">
        <ele>800.9</ele>
        <time>2019-04-19T13:30:42Z</time>
      </trkpt>
      <trkpt lat="44.16562" lon="3.14307">
        <ele>800.9</ele>
        <time>2019-04-19T13:30:44Z</time>
      </trkpt>
      <trkpt lat="44.16559" lon="3.14308">
        <ele>801</ele>
        <time>2019-04-19T13:30:46Z</time>
      </trkpt>
      <trkpt lat="44.16556" lon="3.14308">
        <ele>801.1</ele>
        <time>2019-04-19T13:30:47Z</time>
      </trkpt>
      <trkpt lat="44.16553" lon="3.14306">
        <ele>801.3</ele>
        <time>2019-04-19T13:30:48Z</time>
      </trkpt>
      <trkpt lat="44.16551" lon="3.14301">
        <ele>801.6</ele>
        <time>2019-04-19T13:30:50Z</time>
      </trkpt>
      <trkpt lat="44.1655" lon="3.14294">
        <ele>801.8</ele>
        <time>2019-04-19T13:30:52Z</time>
      </trkpt>
      <trkpt lat="44.16549" lon="3.14291">
        <ele>801.9</ele>
        <time>2019-04-19T13:30:53Z</time>
      </trkpt>
      <trkpt lat="44.16548" lon="3.14287">
        <ele>802.1</ele>
        <time>2019-04-19T13:30:54Z</time>
      </trkpt>
      <trkpt lat="44.16544" lon="3.14287">
        <ele>802.4</ele>
        <time>2019-04-19T13:30:57Z</time>
      </trkpt>
      <trkpt lat="44.16541" lon="3.14289">
        <ele>802.6</ele>
        <time>2019-04-19T13:30:58Z</time>
      </trkpt>
      <trkpt lat="44.16538" lon="3.14292">
        <ele>802.8</ele>
        <time>2019-04-19T13:31:00Z</time>
      </trkpt>
      <trkpt lat="44.16536" lon="3.14296">
        <ele>803</ele>
        <time>2019-04-19T13:31:02Z</time>
      </trkpt>
      <trkpt lat="44.16534" lon="3.14299">
        <ele>803.2</ele>
        <time>2019-04-19T13:31:03Z</time>
      </trkpt>
      <trkpt lat="44.16532" lon="3.14302">
        <ele>803.5</ele>
        <time>2019-04-19T13:31:04Z</time>
      </trkpt>
      <trkpt lat="44.1653" lon="3.14305">
        <ele>803.6</ele>
        <time>2019-04-19T13:31:05Z</time>
      </trkpt>
      <trkpt lat="44.16527" lon="3.14308">
        <ele>803.8</ele>
        <time>2019-04-19T13:31:06Z</time>
      </trkpt>
      <trkpt lat="44.16524" lon="3.14311">
        <ele>803.9</ele>
        <time>2019-04-19T13:31:07Z</time>
      </trkpt>
      <trkpt lat="44.1652" lon="3.14315">
        <ele>804.1</ele>
        <time>2019-04-19T13:31:08Z</time>
      </trkpt>
      <trkpt lat="44.16517" lon="3.14318">
        <ele>804.2</ele>
        <time>2019-04-19T13:31:09Z</time>
      </trkpt>
      <trkpt lat="44.16513" lon="3.14322">
        <ele>804.2</ele>
        <time>2019-04-19T13:31:10Z</time>
      </trkpt>
      <trkpt lat="44.16509" lon="3.14326">
        <ele>804.2</ele>
        <time>2019-04-19T13:31:11Z</time>
      </trkpt>
      <trkpt lat="44.16506" lon="3.1433">
        <ele>804.2</ele>
        <time>2019-04-19T13:31:12Z</time>
      </trkpt>
      <trkpt lat="44.16502" lon="3.14334">
        <ele>804.2</ele>
        <time>2019-04-19T13:31:13Z</time>
      </trkpt>
      <trkpt lat="44.165" lon="3.14339">
        <ele>804.2</ele>
        <time>2019-04-19T13:31:14Z</time>
      </trkpt>
      <trkpt lat="44.16498" lon="3.14343">
        <ele>804.2</ele>
        <time>2019-04-19T13:31:15Z</time>
      </trkpt>
      <trkpt lat="44.16496" lon="3.14348">
        <ele>804.2</ele>
        <time>2019-04-19T13:31:16Z</time>
      </trkpt>
      <trkpt lat="44.16495" lon="3.14352">
        <ele>804.2</ele>
        <time>2019-04-19T13:31:17Z</time>
      </trkpt>
      <trkpt lat="44.16492" lon="3.14356">
        <ele>804.1</ele>
        <time>2019-04-19T13:31:18Z</time>
      </trkpt>
      <trkpt lat="44.16489" lon="3.1436">
        <ele>804</ele>
        <time>2019-04-19T13:31:19Z</time>
      </trkpt>
      <trkpt lat="44.16485" lon="3.14363">
        <ele>803.9</ele>
        <time>2019-04-19T13:31:20Z</time>
      </trkpt>
      <trkpt lat="44.16481" lon="3.14365">
        <ele>804</ele>
        <time>2019-04-19T13:31:21Z</time>
      </trkpt>
      <trkpt lat="44.16478" lon="3.14367">
        <ele>804.2</ele>
        <time>2019-04-19T13:31:22Z</time>
      </trkpt>
      <trkpt lat="44.16473" lon="3.14369">
        <ele>804.3</ele>
        <time>2019-04-19T13:31:23Z</time>
      </trkpt>
      <trkpt lat="44.16469" lon="3.1437">
        <ele>804.5</ele>
        <time>2019-04-19T13:31:24Z</time>
      </trkpt>
      <trkpt lat="44.16465" lon="3.1437">
        <ele>804.6</ele>
        <time>2019-04-19T13:31:25Z</time>
      </trkpt>
      <trkpt lat="44.16463" lon="3.14371">
        <ele>804.7</ele>
        <time>2019-04-19T13:31:26Z</time>
      </trkpt>
      <trkpt lat="44.16458" lon="3.14374">
        <ele>804.9</ele>
        <time>2019-04-19T13:31:28Z</time>
      </trkpt>
      <trkpt lat="44.16453" lon="3.14376">
        <ele>805.2</ele>
        <time>2019-04-19T13:31:30Z</time>
      </trkpt>
      <trkpt lat="44.16448" lon="3.14377">
        <ele>805.4</ele>
        <time>2019-04-19T13:31:32Z</time>
      </trkpt>
      <trkpt lat="44.16443" lon="3.14379">
        <ele>805.5</ele>
        <time>2019-04-19T13:31:34Z</time>
      </trkpt>
      <trkpt lat="44.16439" lon="3.1438">
        <ele>805.7</ele>
        <time>2019-04-19T13:31:36Z</time>
      </trkpt>
      <trkpt lat="44.16435" lon="3.14378">
        <ele>805.9</ele>
        <time>2019-04-19T13:31:38Z</time>
      </trkpt>
      <trkpt lat="44.16431" lon="3.14376">
        <ele>806</ele>
        <time>2019-04-19T13:31:40Z</time>
      </trkpt>
      <trkpt lat="44.16427" lon="3.14377">
        <ele>806.1</ele>
        <time>2019-04-19T13:31:42Z</time>
      </trkpt>
      <trkpt lat="44.16424" lon="3.14378">
        <ele>806.2</ele>
        <time>2019-04-19T13:31:44Z</time>
      </trkpt>
      <trkpt lat="44.16419" lon="3.14378">
        <ele>806.3</ele>
        <time>2019-04-19T13:31:46Z</time>
      </trkpt>
      <trkpt lat="44.16414" lon="3.14379">
        <ele>806.3</ele>
        <time>2019-04-19T13:31:48Z</time>
      </trkpt>
      <trkpt lat="44.16411" lon="3.1438">
        <ele>806.4</ele>
        <time>2019-04-19T13:31:49Z</time>
      </trkpt>
      <trkpt lat="44.16408" lon="3.14381">
        <ele>806.4</ele>
        <time>2019-04-19T13:31:50Z</time>
      </trkpt>
      <trkpt lat="44.16403" lon="3.14384">
        <ele>806.4</ele>
        <time>2019-04-19T13:31:52Z</time>
      </trkpt>
      <trkpt lat="44.164" lon="3.14385">
        <ele>806.5</ele>
        <time>2019-04-19T13:31:53Z</time>
      </trkpt>
      <trkpt lat="44.16397" lon="3.14388">
        <ele>806.5</ele>
        <time>2019-04-19T13:31:54Z</time>
      </trkpt>
      <trkpt lat="44.16394" lon="3.1439">
        <ele>806.6</ele>
        <time>2019-04-19T13:31:55Z</time>
      </trkpt>
      <trkpt lat="44.16391" lon="3.14392">
        <ele>806.7</ele>
        <time>2019-04-19T13:31:56Z</time>
      </trkpt>
      <trkpt lat="44.16387" lon="3.14393">
        <ele>806.7</ele>
        <time>2019-04-19T13:31:57Z</time>
      </trkpt>
      <trkpt lat="44.16384" lon="3.14395">
        <ele>806.8</ele>
        <time>2019-04-19T13:31:58Z</time>
      </trkpt>
      <trkpt lat="44.1638" lon="3.14397">
        <ele>806.8</ele>
        <time>2019-04-19T13:31:59Z</time>
      </trkpt>
      <trkpt lat="44.16377" lon="3.14399">
        <ele>806.9</ele>
        <time>2019-04-19T13:32:00Z</time>
      </trkpt>
      <trkpt lat="44.16374" lon="3.14401">
        <ele>807</ele>
        <time>2019-04-19T13:32:01Z</time>
      </trkpt>
      <trkpt lat="44.1637" lon="3.14405">
        <ele>807.1</ele>
        <time>2019-04-19T13:32:03Z</time>
      </trkpt>
      <trkpt lat="44.16366" lon="3.1441">
        <ele>807.3</ele>
        <time>2019-04-19T13:32:05Z</time>
      </trkpt>
      <trkpt lat="44.16362" lon="3.14412">
        <ele>807.4</ele>
        <time>2019-04-19T13:32:07Z</time>
      </trkpt>
      <trkpt lat="44.1636" lon="3.14413">
        <ele>807.5</ele>
        <time>2019-04-19T13:32:08Z</time>
      </trkpt>
      <trkpt lat="44.16356" lon="3.14414">
        <ele>807.7</ele>
        <time>2019-04-19T13:32:09Z</time>
      </trkpt>
      <trkpt lat="44.16352" lon="3.14414">
        <ele>807.8</ele>
        <time>2019-04-19T13:32:10Z</time>
      </trkpt>
      <trkpt lat="44.16349" lon="3.14415">
        <ele>808</ele>
        <time>2019-04-19T13:32:11Z</time>
      </trkpt>
      <trkpt lat="44.16344" lon="3.14414">
        <ele>808.1</ele>
        <time>2019-04-19T13:32:12Z</time>
      </trkpt>
      <trkpt lat="44.16341" lon="3.14412">
        <ele>808.3</ele>
        <time>2019-04-19T13:32:13Z</time>
      </trkpt>
      <trkpt lat="44.16338" lon="3.1441">
        <ele>808.4</ele>
        <time>2019-04-19T13:32:14Z</time>
      </trkpt>
      <trkpt lat="44.16335" lon="3.14408">
        <ele>808.4</ele>
        <time>2019-04-19T13:32:15Z</time>
      </trkpt>
      <trkpt lat="44.16331" lon="3.14406">
        <ele>808.4</ele>
        <time>2019-04-19T13:32:16Z</time>
      </trkpt>
      <trkpt lat="44.16328" lon="3.14405">
        <ele>808.4</ele>
        <time>2019-04-19T13:32:17Z</time>
      </trkpt>
      <trkpt lat="44.16325" lon="3.14403">
        <ele>808.4</ele>
        <time>2019-04-19T13:32:18Z</time>
      </trkpt>
      <trkpt lat="44.16322" lon="3.14401">
        <ele>808.3</ele>
        <time>2019-04-19T13:32:19Z</time>
      </trkpt>
      <trkpt lat="44.16318" lon="3.14399">
        <ele>808.2</ele>
        <time>2019-04-19T13:32:20Z</time>
      </trkpt>
      <trkpt lat="44.16314" lon="3.14397">
        <ele>808.1</ele>
        <time>2019-04-19T13:32:21Z</time>
      </trkpt>
      <trkpt lat="44.1631" lon="3.14395">
        <ele>807.9</ele>
        <time>2019-04-19T13:32:22Z</time>
      </trkpt>
      <trkpt lat="44.16306" lon="3.14393">
        <ele>807.8</ele>
        <time>2019-04-19T13:32:23Z</time>
      </trkpt>
      <trkpt lat="44.16302" lon="3.14391">
        <ele>807.6</ele>
        <time>2019-04-19T13:32:24Z</time>
      </trkpt>
      <trkpt lat="44.16299" lon="3.1439">
        <ele>807.5</ele>
        <time>2019-04-19T13:32:25Z</time>
      </trkpt>
      <trkpt lat="44.16296" lon="3.1439">
        <ele>807.5</ele>
        <time>2019-04-19T13:32:26Z</time>
      </trkpt>
      <trkpt lat="44.16293" lon="3.14389">
        <ele>807.4</ele>
        <time>2019-04-19T13:32:27Z</time>
      </trkpt>
      <trkpt lat="44.16289" lon="3.1439">
        <ele>807.2</ele>
        <time>2019-04-19T13:32:28Z</time>
      </trkpt>
      <trkpt lat="44.16285" lon="3.14392">
        <ele>807.1</ele>
        <time>2019-04-19T13:32:29Z</time>
      </trkpt>
      <trkpt lat="44.16282" lon="3.14394">
        <ele>807</ele>
        <time>2019-04-19T13:32:30Z</time>
      </trkpt>
      <trkpt lat="44.16278" lon="3.14395">
        <ele>806.8</ele>
        <time>2019-04-19T13:32:31Z</time>
      </trkpt>
      <trkpt lat="44.16273" lon="3.14395">
        <ele>806.7</ele>
        <time>2019-04-19T13:32:32Z</time>
      </trkpt>
      <trkpt lat="44.16269" lon="3.14395">
        <ele>806.6</ele>
        <time>2019-04-19T13:32:33Z</time>
      </trkpt>
      <trkpt lat="44.16265" lon="3.14394">
        <ele>806.5</ele>
        <time>2019-04-19T13:32:34Z</time>
      </trkpt>
      <trkpt lat="44.1626" lon="3.14394">
        <ele>806.4</ele>
        <time>2019-04-19T13:32:35Z</time>
      </trkpt>
      <trkpt lat="44.16256" lon="3.14395">
        <ele>806.4</ele>
        <time>2019-04-19T13:32:36Z</time>
      </trkpt>
      <trkpt lat="44.16252" lon="3.14396">
        <ele>806.3</ele>
        <time>2019-04-19T13:32:37Z</time>
      </trkpt>
      <trkpt lat="44.16249" lon="3.14398">
        <ele>806.2</ele>
        <time>2019-04-19T13:32:38Z</time>
      </trkpt>
      <trkpt lat="44.16246" lon="3.14401">
        <ele>806.2</ele>
        <time>2019-04-19T13:32:39Z</time>
      </trkpt>
      <trkpt lat="44.16244" lon="3.14405">
        <ele>806.2</ele>
        <time>2019-04-19T13:32:40Z</time>
      </trkpt>
      <trkpt lat="44.16242" lon="3.14408">
        <ele>806.1</ele>
        <time>2019-04-19T13:32:41Z</time>
      </trkpt>
      <trkpt lat="44.16238" lon="3.14412">
        <ele>806.1</ele>
        <time>2019-04-19T13:32:43Z</time>
      </trkpt>
      <trkpt lat="44.16235" lon="3.14413">
        <ele>806.1</ele>
        <time>2019-04-19T13:32:44Z</time>
      </trkpt>
      <trkpt lat="44.16232" lon="3.14415">
        <ele>806.1</ele>
        <time>2019-04-19T13:32:45Z</time>
      </trkpt>
      <trkpt lat="44.16228" lon="3.14417">
        <ele>806.1</ele>
        <time>2019-04-19T13:32:46Z</time>
      </trkpt>
      <trkpt lat="44.16225" lon="3.14419">
        <ele>806.1</ele>
        <time>2019-04-19T13:32:47Z</time>
      </trkpt>
      <trkpt lat="44.16222" lon="3.1442">
        <ele>806.2</ele>
        <time>2019-04-19T13:32:48Z</time>
      </trkpt>
      <trkpt lat="44.16219" lon="3.14421">
        <ele>806.3</ele>
        <time>2019-04-19T13:32:49Z</time>
      </trkpt>
      <trkpt lat="44.16216" lon="3.14422">
        <ele>806.4</ele>
        <time>2019-04-19T13:32:50Z</time>
      </trkpt>
      <trkpt lat="44.16213" lon="3.14422">
        <ele>806.5</ele>
        <time>2019-04-19T13:32:51Z</time>
      </trkpt>
      <trkpt lat="44.16209" lon="3.14424">
        <ele>806.7</ele>
        <time>2019-04-19T13:32:52Z</time>
      </trkpt>
      <trkpt lat="44.16206" lon="3.14426">
        <ele>806.8</ele>
        <time>2019-04-19T13:32:53Z</time>
      </trkpt>
      <trkpt lat="44.16202" lon="3.14427">
        <ele>807</ele>
        <time>2019-04-19T13:32:54Z</time>
      </trkpt>
      <trkpt lat="44.16199" lon="3.1443">
        <ele>807.1</ele>
        <time>2019-04-19T13:32:55Z</time>
      </trkpt>
      <trkpt lat="44.16196" lon="3.14433">
        <ele>807.3</ele>
        <time>2019-04-19T13:32:56Z</time>
      </trkpt>
      <trkpt lat="44.16193" lon="3.14435">
        <ele>807.5</ele>
        <time>2019-04-19T13:32:57Z</time>
      </trkpt>
      <trkpt lat="44.16191" lon="3.14436">
        <ele>807.6</ele>
        <time>2019-04-19T13:32:58Z</time>
      </trkpt>
      <trkpt lat="44.16187" lon="3.14437">
        <ele>807.7</ele>
        <time>2019-04-19T13:33:00Z</time>
      </trkpt>
      <trkpt lat="44.16183" lon="3.1444">
        <ele>807.9</ele>
        <time>2019-04-19T13:33:02Z</time>
      </trkpt>
      <trkpt lat="44.16179" lon="3.14444">
        <ele>808.1</ele>
        <time>2019-04-19T13:33:04Z</time>
      </trkpt>
      <trkpt lat="44.16176" lon="3.14446">
        <ele>808.2</ele>
        <time>2019-04-19T13:33:05Z</time>
      </trkpt>
      <trkpt lat="44.16173" lon="3.14448">
        <ele>808.3</ele>
        <time>2019-04-19T13:33:06Z</time>
      </trkpt>
      <trkpt lat="44.1617" lon="3.1445">
        <ele>808.5</ele>
        <time>2019-04-19T13:33:08Z</time>
      </trkpt>
      <trkpt lat="44.16166" lon="3.14451">
        <ele>808.6</ele>
        <time>2019-04-19T13:33:09Z</time>
      </trkpt>
      <trkpt lat="44.16162" lon="3.14452">
        <ele>808.7</ele>
        <time>2019-04-19T13:33:10Z</time>
      </trkpt>
      <trkpt lat="44.16157" lon="3.14452">
        <ele>808.8</ele>
        <time>2019-04-19T13:33:11Z</time>
      </trkpt>
      <trkpt lat="44.16154" lon="3.14451">
        <ele>809</ele>
        <time>2019-04-19T13:33:12Z</time>
      </trkpt>
      <trkpt lat="44.1615" lon="3.14451">
        <ele>809.1</ele>
        <time>2019-04-19T13:33:13Z</time>
      </trkpt>
      <trkpt lat="44.16147" lon="3.14452">
        <ele>809.2</ele>
        <time>2019-04-19T13:33:14Z</time>
      </trkpt>
      <trkpt lat="44.16142" lon="3.14454">
        <ele>809.4</ele>
        <time>2019-04-19T13:33:16Z</time>
      </trkpt>
      <trkpt lat="44.16139" lon="3.14456">
        <ele>809.5</ele>
        <time>2019-04-19T13:33:17Z</time>
      </trkpt>
      <trkpt lat="44.16135" lon="3.14458">
        <ele>809.7</ele>
        <time>2019-04-19T13:33:18Z</time>
      </trkpt>
      <trkpt lat="44.16131" lon="3.14459">
        <ele>809.8</ele>
        <time>2019-04-19T13:33:19Z</time>
      </trkpt>
      <trkpt lat="44.16127" lon="3.1446">
        <ele>810.1</ele>
        <time>2019-04-19T13:33:20Z</time>
      </trkpt>
      <trkpt lat="44.16124" lon="3.1446">
        <ele>810.3</ele>
        <time>2019-04-19T13:33:21Z</time>
      </trkpt>
      <trkpt lat="44.1612" lon="3.1446">
        <ele>810.5</ele>
        <time>2019-04-19T13:33:22Z</time>
      </trkpt>
      <trkpt lat="44.16117" lon="3.1446">
        <ele>810.7</ele>
        <time>2019-04-19T13:33:23Z</time>
      </trkpt>
      <trkpt lat="44.16111" lon="3.1446">
        <ele>811</ele>
        <time>2019-04-19T13:33:25Z</time>
      </trkpt>
      <trkpt lat="44.16107" lon="3.14462">
        <ele>811.3</ele>
        <time>2019-04-19T13:33:27Z</time>
      </trkpt>
      <trkpt lat="44.16104" lon="3.14463">
        <ele>811.5</ele>
        <time>2019-04-19T13:33:29Z</time>
      </trkpt>
      <trkpt lat="44.16099" lon="3.14465">
        <ele>811.8</ele>
        <time>2019-04-19T13:33:31Z</time>
      </trkpt>
      <trkpt lat="44.16094" lon="3.14466">
        <ele>812.2</ele>
        <time>2019-04-19T13:33:33Z</time>
      </trkpt>
      <trkpt lat="44.16091" lon="3.14467">
        <ele>812.5</ele>
        <time>2019-04-19T13:33:34Z</time>
      </trkpt>
      <trkpt lat="44.16088" lon="3.1447">
        <ele>812.8</ele>
        <time>2019-04-19T13:33:36Z</time>
      </trkpt>
      <trkpt lat="44.16086" lon="3.14473">
        <ele>813</ele>
        <time>2019-04-19T13:33:39Z</time>
      </trkpt>
      <trkpt lat="44.16085" lon="3.14477">
        <ele>813.3</ele>
        <time>2019-04-19T13:33:43Z</time>
      </trkpt>
      <trkpt lat="44.16069" lon="3.14487">
        <ele>814.7</ele>
        <time>2019-04-19T13:36:44Z</time>
      </trkpt>
      <trkpt lat="44.16067" lon="3.14488">
        <ele>814.9</ele>
        <time>2019-04-19T13:36:45Z</time>
      </trkpt>
      <trkpt lat="44.16063" lon="3.14489">
        <ele>815.2</ele>
        <time>2019-04-19T13:36:47Z</time>
      </trkpt>
      <trkpt lat="44.16057" lon="3.1449">
        <ele>815.6</ele>
        <time>2019-04-19T13:36:49Z</time>
      </trkpt>
      <trkpt lat="44.16055" lon="3.14491">
        <ele>815.9</ele>
        <time>2019-04-19T13:36:50Z</time>
      </trkpt>
      <trkpt lat="44.16051" lon="3.14493">
        <ele>816.2</ele>
        <time>2019-04-19T13:36:53Z</time>
      </trkpt>
      <trkpt lat="44.16049" lon="3.14496">
        <ele>816.5</ele>
        <time>2019-04-19T13:36:56Z</time>
      </trkpt>
      <trkpt lat="44.16045" lon="3.14498">
        <ele>816.7</ele>
        <time>2019-04-19T13:36:58Z</time>
      </trkpt>
      <trkpt lat="44.16042" lon="3.145">
        <ele>817.1</ele>
        <time>2019-04-19T13:36:59Z</time>
      </trkpt>
      <trkpt lat="44.16039" lon="3.14502">
        <ele>817.4</ele>
        <time>2019-04-19T13:37:00Z</time>
      </trkpt>
      <trkpt lat="44.16036" lon="3.14503">
        <ele>817.6</ele>
        <time>2019-04-19T13:37:01Z</time>
      </trkpt>
      <trkpt lat="44.16033" lon="3.14503">
        <ele>817.8</ele>
        <time>2019-04-19T13:37:02Z</time>
      </trkpt>
      <trkpt lat="44.16028" lon="3.14503">
        <ele>818.2</ele>
        <time>2019-04-19T13:37:04Z</time>
      </trkpt>
      <trkpt lat="44.16023" lon="3.14503">
        <ele>818.7</ele>
        <time>2019-04-19T13:37:06Z</time>
      </trkpt>
      <trkpt lat="44.16019" lon="3.14503">
        <ele>819.1</ele>
        <time>2019-04-19T13:37:07Z</time>
      </trkpt>
      <trkpt lat="44.16014" lon="3.14502">
        <ele>819.5</ele>
        <time>2019-04-19T13:37:08Z</time>
      </trkpt>
      <trkpt lat="44.1601" lon="3.14502">
        <ele>820</ele>
        <time>2019-04-19T13:37:09Z</time>
      </trkpt>
      <trkpt lat="44.16006" lon="3.14501">
        <ele>820.3</ele>
        <time>2019-04-19T13:37:10Z</time>
      </trkpt>
      <trkpt lat="44.16002" lon="3.145">
        <ele>820.7</ele>
        <time>2019-04-19T13:37:11Z</time>
      </trkpt>
      <trkpt lat="44.15999" lon="3.14499">
        <ele>820.9</ele>
        <time>2019-04-19T13:37:12Z</time>
      </trkpt>
      <trkpt lat="44.15996" lon="3.14498">
        <ele>821.1</ele>
        <time>2019-04-19T13:37:13Z</time>
      </trkpt>
      <trkpt lat="44.15993" lon="3.14496">
        <ele>821.3</ele>
        <time>2019-04-19T13:37:14Z</time>
      </trkpt>
      <trkpt lat="44.1599" lon="3.14494">
        <ele>821.4</ele>
        <time>2019-04-19T13:37:15Z</time>
      </trkpt>
      <trkpt lat="44.15986" lon="3.14493">
        <ele>821.5</ele>
        <time>2019-04-19T13:37:17Z</time>
      </trkpt>
      <trkpt lat="44.15982" lon="3.14494">
        <ele>821.6</ele>
        <time>2019-04-19T13:37:19Z</time>
      </trkpt>
      <trkpt lat="44.15977" lon="3.14495">
        <ele>821.8</ele>
        <time>2019-04-19T13:37:21Z</time>
      </trkpt>
      <trkpt lat="44.15974" lon="3.14495">
        <ele>821.9</ele>
        <time>2019-04-19T13:37:22Z</time>
      </trkpt>
      <trkpt lat="44.15972" lon="3.14496">
        <ele>822</ele>
        <time>2019-04-19T13:37:23Z</time>
      </trkpt>
      <trkpt lat="44.15968" lon="3.14497">
        <ele>822</ele>
        <time>2019-04-19T13:37:24Z</time>
      </trkpt>
      <trkpt lat="44.15964" lon="3.14498">
        <ele>822.1</ele>
        <time>2019-04-19T13:37:25Z</time>
      </trkpt>
      <trkpt lat="44.15961" lon="3.14498">
        <ele>822.2</ele>
        <time>2019-04-19T13:37:26Z</time>
      </trkpt>
      <trkpt lat="44.15957" lon="3.14498">
        <ele>822.2</ele>
        <time>2019-04-19T13:37:27Z</time>
      </trkpt>
      <trkpt lat="44.15953" lon="3.14498">
        <ele>822.1</ele>
        <time>2019-04-19T13:37:28Z</time>
      </trkpt>
      <trkpt lat="44.15949" lon="3.14499">
        <ele>822.1</ele>
        <time>2019-04-19T13:37:29Z</time>
      </trkpt>
      <trkpt lat="44.15945" lon="3.145">
        <ele>822.1</ele>
        <time>2019-04-19T13:37:30Z</time>
      </trkpt>
      <trkpt lat="44.15943" lon="3.14501">
        <ele>822</ele>
        <time>2019-04-19T13:37:31Z</time>
      </trkpt>
      <trkpt lat="44.1594" lon="3.14503">
        <ele>822</ele>
        <time>2019-04-19T13:37:32Z</time>
      </trkpt>
      <trkpt lat="44.15936" lon="3.14505">
        <ele>821.9</ele>
        <time>2019-04-19T13:37:33Z</time>
      </trkpt>
      <trkpt lat="44.15931" lon="3.14506">
        <ele>821.9</ele>
        <time>2019-04-19T13:37:34Z</time>
      </trkpt>
      <trkpt lat="44.15927" lon="3.14508">
        <ele>821.9</ele>
        <time>2019-04-19T13:37:35Z</time>
      </trkpt>
      <trkpt lat="44.15923" lon="3.14509">
        <ele>821.8</ele>
        <time>2019-04-19T13:37:36Z</time>
      </trkpt>
      <trkpt lat="44.15919" lon="3.14509">
        <ele>821.8</ele>
        <time>2019-04-19T13:37:37Z</time>
      </trkpt>
      <trkpt lat="44.15914" lon="3.14511">
        <ele>821.8</ele>
        <time>2019-04-19T13:37:38Z</time>
      </trkpt>
      <trkpt lat="44.1591" lon="3.14512">
        <ele>821.9</ele>
        <time>2019-04-19T13:37:39Z</time>
      </trkpt>
      <trkpt lat="44.15905" lon="3.14513">
        <ele>822</ele>
        <time>2019-04-19T13:37:40Z</time>
      </trkpt>
      <trkpt lat="44.15901" lon="3.14513">
        <ele>822</ele>
        <time>2019-04-19T13:37:41Z</time>
      </trkpt>
      <trkpt lat="44.15896" lon="3.14513">
        <ele>822.1</ele>
        <time>2019-04-19T13:37:42Z</time>
      </trkpt>
      <trkpt lat="44.15891" lon="3.14512">
        <ele>822.2</ele>
        <time>2019-04-19T13:37:43Z</time>
      </trkpt>
      <trkpt lat="44.15888" lon="3.14511">
        <ele>822.4</ele>
        <time>2019-04-19T13:37:44Z</time>
      </trkpt>
      <trkpt lat="44.15885" lon="3.14509">
        <ele>822.6</ele>
        <time>2019-04-19T13:37:45Z</time>
      </trkpt>
      <trkpt lat="44.15881" lon="3.14509">
        <ele>822.8</ele>
        <time>2019-04-19T13:37:46Z</time>
      </trkpt>
      <trkpt lat="44.15877" lon="3.14508">
        <ele>823.1</ele>
        <time>2019-04-19T13:37:47Z</time>
      </trkpt>
      <trkpt lat="44.15871" lon="3.14509">
        <ele>823.4</ele>
        <time>2019-04-19T13:37:49Z</time>
      </trkpt>
      <trkpt lat="44.15868" lon="3.14508">
        <ele>823.6</ele>
        <time>2019-04-19T13:37:50Z</time>
      </trkpt>
      <trkpt lat="44.15865" lon="3.14508">
        <ele>823.8</ele>
        <time>2019-04-19T13:37:51Z</time>
      </trkpt>
      <trkpt lat="44.15861" lon="3.14508">
        <ele>824.1</ele>
        <time>2019-04-19T13:37:52Z</time>
      </trkpt>
      <trkpt lat="44.15858" lon="3.14507">
        <ele>824.4</ele>
        <time>2019-04-19T13:37:53Z</time>
      </trkpt>
      <trkpt lat="44.15854" lon="3.14508">
        <ele>824.7</ele>
        <time>2019-04-19T13:37:54Z</time>
      </trkpt>
      <trkpt lat="44.1585" lon="3.14508">
        <ele>824.9</ele>
        <time>2019-04-19T13:37:55Z</time>
      </trkpt>
      <trkpt lat="44.15846" lon="3.14508">
        <ele>825.1</ele>
        <time>2019-04-19T13:37:57Z</time>
      </trkpt>
      <trkpt lat="44.15844" lon="3.14508">
        <ele>825.2</ele>
        <time>2019-04-19T13:37:58Z</time>
      </trkpt>
      <trkpt lat="44.15841" lon="3.14509">
        <ele>825.3</ele>
        <time>2019-04-19T13:37:59Z</time>
      </trkpt>
      <trkpt lat="44.15836" lon="3.1451">
        <ele>825.4</ele>
        <time>2019-04-19T13:38:01Z</time>
      </trkpt>
      <trkpt lat="44.15833" lon="3.14511">
        <ele>825.5</ele>
        <time>2019-04-19T13:38:02Z</time>
      </trkpt>
      <trkpt lat="44.1583" lon="3.14512">
        <ele>825.6</ele>
        <time>2019-04-19T13:38:03Z</time>
      </trkpt>
      <trkpt lat="44.15827" lon="3.14514">
        <ele>825.6</ele>
        <time>2019-04-19T13:38:04Z</time>
      </trkpt>
      <trkpt lat="44.15823" lon="3.14517">
        <ele>825.7</ele>
        <time>2019-04-19T13:38:05Z</time>
      </trkpt>
      <trkpt lat="44.1582" lon="3.1452">
        <ele>825.8</ele>
        <time>2019-04-19T13:38:06Z</time>
      </trkpt>
      <trkpt lat="44.15817" lon="3.14522">
        <ele>825.8</ele>
        <time>2019-04-19T13:38:07Z</time>
      </trkpt>
      <trkpt lat="44.15814" lon="3.14523">
        <ele>825.9</ele>
        <time>2019-04-19T13:38:08Z</time>
      </trkpt>
      <trkpt lat="44.15811" lon="3.14525">
        <ele>826</ele>
        <time>2019-04-19T13:38:09Z</time>
      </trkpt>
      <trkpt lat="44.15807" lon="3.14526">
        <ele>826.1</ele>
        <time>2019-04-19T13:38:10Z</time>
      </trkpt>
      <trkpt lat="44.15802" lon="3.14527">
        <ele>826.2</ele>
        <time>2019-04-19T13:38:11Z</time>
      </trkpt>
      <trkpt lat="44.15798" lon="3.14528">
        <ele>826.3</ele>
        <time>2019-04-19T13:38:12Z</time>
      </trkpt>
      <trkpt lat="44.15794" lon="3.14529">
        <ele>826.4</ele>
        <time>2019-04-19T13:38:13Z</time>
      </trkpt>
      <trkpt lat="44.15789" lon="3.1453">
        <ele>826.5</ele>
        <time>2019-04-19T13:38:14Z</time>
      </trkpt>
      <trkpt lat="44.15786" lon="3.14531">
        <ele>826.6</ele>
        <time>2019-04-19T13:38:15Z</time>
      </trkpt>
      <trkpt lat="44.15782" lon="3.14534">
        <ele>826.7</ele>
        <time>2019-04-19T13:38:16Z</time>
      </trkpt>
      <trkpt lat="44.15779" lon="3.14536">
        <ele>826.8</ele>
        <time>2019-04-19T13:38:17Z</time>
      </trkpt>
      <trkpt lat="44.15776" lon="3.14539">
        <ele>826.9</ele>
        <time>2019-04-19T13:38:18Z</time>
      </trkpt>
      <trkpt lat="44.15774" lon="3.14543">
        <ele>827</ele>
        <time>2019-04-19T13:38:19Z</time>
      </trkpt>
      <trkpt lat="44.15772" lon="3.14547">
        <ele>827.1</ele>
        <time>2019-04-19T13:38:20Z</time>
      </trkpt>
      <trkpt lat="44.1577" lon="3.14551">
        <ele>827.2</ele>
        <time>2019-04-19T13:38:21Z</time>
      </trkpt>
      <trkpt lat="44.15768" lon="3.14554">
        <ele>827.3</ele>
        <time>2019-04-19T13:38:22Z</time>
      </trkpt>
      <trkpt lat="44.15765" lon="3.14558">
        <ele>827.5</ele>
        <time>2019-04-19T13:38:23Z</time>
      </trkpt>
      <trkpt lat="44.15762" lon="3.14561">
        <ele>827.7</ele>
        <time>2019-04-19T13:38:24Z</time>
      </trkpt>
      <trkpt lat="44.15759" lon="3.14564">
        <ele>827.9</ele>
        <time>2019-04-19T13:38:25Z</time>
      </trkpt>
      <trkpt lat="44.15756" lon="3.14567">
        <ele>828.2</ele>
        <time>2019-04-19T13:38:26Z</time>
      </trkpt>
      <trkpt lat="44.15753" lon="3.14571">
        <ele>828.4</ele>
        <time>2019-04-19T13:38:28Z</time>
      </trkpt>
      <trkpt lat="44.15751" lon="3.14574">
        <ele>828.6</ele>
        <time>2019-04-19T13:38:31Z</time>
      </trkpt>
      <trkpt lat="44.15748" lon="3.14576">
        <ele>828.8</ele>
        <time>2019-04-19T13:38:33Z</time>
      </trkpt>
      <trkpt lat="44.15745" lon="3.14577">
        <ele>828.9</ele>
        <time>2019-04-19T13:38:34Z</time>
      </trkpt>
      <trkpt lat="44.15741" lon="3.14578">
        <ele>829</ele>
        <time>2019-04-19T13:38:35Z</time>
      </trkpt>
      <trkpt lat="44.15739" lon="3.14578">
        <ele>829.1</ele>
        <time>2019-04-19T13:38:36Z</time>
      </trkpt>
      <trkpt lat="44.15735" lon="3.14581">
        <ele>829.3</ele>
        <time>2019-04-19T13:38:38Z</time>
      </trkpt>
      <trkpt lat="44.15731" lon="3.14585">
        <ele>829.5</ele>
        <time>2019-04-19T13:38:40Z</time>
      </trkpt>
      <trkpt lat="44.15729" lon="3.14587">
        <ele>829.5</ele>
        <time>2019-04-19T13:38:41Z</time>
      </trkpt>
      <trkpt lat="44.15726" lon="3.1459">
        <ele>829.6</ele>
        <time>2019-04-19T13:38:42Z</time>
      </trkpt>
      <trkpt lat="44.15723" lon="3.14593">
        <ele>829.7</ele>
        <time>2019-04-19T13:38:43Z</time>
      </trkpt>
      <trkpt lat="44.15719" lon="3.14597">
        <ele>829.8</ele>
        <time>2019-04-19T13:38:44Z</time>
      </trkpt>
      <trkpt lat="44.15716" lon="3.146">
        <ele>829.8</ele>
        <time>2019-04-19T13:38:45Z</time>
      </trkpt>
      <trkpt lat="44.15712" lon="3.14602">
        <ele>829.8</ele>
        <time>2019-04-19T13:38:46Z</time>
      </trkpt>
      <trkpt lat="44.15708" lon="3.14604">
        <ele>829.7</ele>
        <time>2019-04-19T13:38:47Z</time>
      </trkpt>
      <trkpt lat="44.15705" lon="3.14605">
        <ele>829.6</ele>
        <time>2019-04-19T13:38:48Z</time>
      </trkpt>
      <trkpt lat="44.15702" lon="3.14607">
        <ele>829.5</ele>
        <time>2019-04-19T13:38:49Z</time>
      </trkpt>
      <trkpt lat="44.15697" lon="3.1461">
        <ele>829.4</ele>
        <time>2019-04-19T13:38:51Z</time>
      </trkpt>
      <trkpt lat="44.15694" lon="3.14612">
        <ele>829.3</ele>
        <time>2019-04-19T13:38:53Z</time>
      </trkpt>
      <trkpt lat="44.15691" lon="3.14612">
        <ele>829.2</ele>
        <time>2019-04-19T13:38:54Z</time>
      </trkpt>
      <trkpt lat="44.15686" lon="3.14612">
        <ele>829.1</ele>
        <time>2019-04-19T13:38:55Z</time>
      </trkpt>
      <trkpt lat="44.15681" lon="3.14612">
        <ele>829</ele>
        <time>2019-04-19T13:38:56Z</time>
      </trkpt>
      <trkpt lat="44.15677" lon="3.14613">
        <ele>829</ele>
        <time>2019-04-19T13:38:57Z</time>
      </trkpt>
      <trkpt lat="44.15672" lon="3.14615">
        <ele>829</ele>
        <time>2019-04-19T13:38:58Z</time>
      </trkpt>
      <trkpt lat="44.15668" lon="3.14618">
        <ele>829</ele>
        <time>2019-04-19T13:38:59Z</time>
      </trkpt>
      <trkpt lat="44.15664" lon="3.14622">
        <ele>829</ele>
        <time>2019-04-19T13:39:00Z</time>
      </trkpt>
      <trkpt lat="44.1566" lon="3.14627">
        <ele>829.1</ele>
        <time>2019-04-19T13:39:01Z</time>
      </trkpt>
      <trkpt lat="44.15656" lon="3.14631">
        <ele>829.2</ele>
        <time>2019-04-19T13:39:02Z</time>
      </trkpt>
      <trkpt lat="44.15653" lon="3.14635">
        <ele>829.3</ele>
        <time>2019-04-19T13:39:03Z</time>
      </trkpt>
      <trkpt lat="44.1565" lon="3.14639">
        <ele>829.5</ele>
        <time>2019-04-19T13:39:04Z</time>
      </trkpt>
      <trkpt lat="44.15648" lon="3.14643">
        <ele>829.9</ele>
        <time>2019-04-19T13:39:05Z</time>
      </trkpt>
      <trkpt lat="44.15646" lon="3.14646">
        <ele>830.1</ele>
        <time>2019-04-19T13:39:06Z</time>
      </trkpt>
      <trkpt lat="44.15643" lon="3.14652">
        <ele>830.4</ele>
        <time>2019-04-19T13:39:08Z</time>
      </trkpt>
      <trkpt lat="44.1564" lon="3.14657">
        <ele>830.8</ele>
        <time>2019-04-19T13:39:10Z</time>
      </trkpt>
      <trkpt lat="44.15638" lon="3.14661">
        <ele>831</ele>
        <time>2019-04-19T13:39:11Z</time>
      </trkpt>
      <trkpt lat="44.15637" lon="3.14667">
        <ele>831.4</ele>
        <time>2019-04-19T13:39:13Z</time>
      </trkpt>
      <trkpt lat="44.15637" lon="3.14671">
        <ele>831.6</ele>
        <time>2019-04-19T13:39:14Z</time>
      </trkpt>
      <trkpt lat="44.15636" lon="3.14679">
        <ele>832.2</ele>
        <time>2019-04-19T13:39:16Z</time>
      </trkpt>
      <trkpt lat="44.15635" lon="3.14683">
        <ele>832.5</ele>
        <time>2019-04-19T13:39:17Z</time>
      </trkpt>
      <trkpt lat="44.15634" lon="3.14686">
        <ele>832.8</ele>
        <time>2019-04-19T13:39:18Z</time>
      </trkpt>
      <trkpt lat="44.15633" lon="3.14691">
        <ele>833.1</ele>
        <time>2019-04-19T13:39:19Z</time>
      </trkpt>
      <trkpt lat="44.15632" lon="3.14696">
        <ele>833.4</ele>
        <time>2019-04-19T13:39:20Z</time>
      </trkpt>
      <trkpt lat="44.15632" lon="3.14701">
        <ele>833.7</ele>
        <time>2019-04-19T13:39:21Z</time>
      </trkpt>
      <trkpt lat="44.15631" lon="3.14705">
        <ele>833.9</ele>
        <time>2019-04-19T13:39:22Z</time>
      </trkpt>
      <trkpt lat="44.15631" lon="3.1471">
        <ele>834.1</ele>
        <time>2019-04-19T13:39:23Z</time>
      </trkpt>
      <trkpt lat="44.15629" lon="3.14717">
        <ele>834.6</ele>
        <time>2019-04-19T13:39:25Z</time>
      </trkpt>
      <trkpt lat="44.15628" lon="3.1472">
        <ele>834.8</ele>
        <time>2019-04-19T13:39:26Z</time>
      </trkpt>
      <trkpt lat="44.15626" lon="3.14724">
        <ele>835.1</ele>
        <time>2019-04-19T13:39:27Z</time>
      </trkpt>
      <trkpt lat="44.15624" lon="3.14729">
        <ele>835.5</ele>
        <time>2019-04-19T13:39:29Z</time>
      </trkpt>
      <trkpt lat="44.15622" lon="3.14733">
        <ele>835.9</ele>
        <time>2019-04-19T13:39:31Z</time>
      </trkpt>
      <trkpt lat="44.1562" lon="3.1474">
        <ele>836.2</ele>
        <time>2019-04-19T13:39:33Z</time>
      </trkpt>
      <trkpt lat="44.15619" lon="3.14744">
        <ele>836.4</ele>
        <time>2019-04-19T13:39:34Z</time>
      </trkpt>
      <trkpt lat="44.15618" lon="3.14749">
        <ele>836.6</ele>
        <time>2019-04-19T13:39:35Z</time>
      </trkpt>
      <trkpt lat="44.15618" lon="3.14754">
        <ele>836.5</ele>
        <time>2019-04-19T13:39:36Z</time>
      </trkpt>
      <trkpt lat="44.15616" lon="3.14759">
        <ele>836.5</ele>
        <time>2019-04-19T13:39:37Z</time>
      </trkpt>
      <trkpt lat="44.15615" lon="3.14762">
        <ele>836.7</ele>
        <time>2019-04-19T13:39:38Z</time>
      </trkpt>
      <trkpt lat="44.15612" lon="3.14768">
        <ele>837</ele>
        <time>2019-04-19T13:39:40Z</time>
      </trkpt>
      <trkpt lat="44.15612" lon="3.14773">
        <ele>836.9</ele>
        <time>2019-04-19T13:39:42Z</time>
      </trkpt>
      <trkpt lat="44.15613" lon="3.14779">
        <ele>836.6</ele>
        <time>2019-04-19T13:39:44Z</time>
      </trkpt>
      <trkpt lat="44.15611" lon="3.14785">
        <ele>836.8</ele>
        <time>2019-04-19T13:39:46Z</time>
      </trkpt>
      <trkpt lat="44.15607" lon="3.14788">
        <ele>837.1</ele>
        <time>2019-04-19T13:39:48Z</time>
      </trkpt>
      <trkpt lat="44.15604" lon="3.14791">
        <ele>837.3</ele>
        <time>2019-04-19T13:39:50Z</time>
      </trkpt>
      <trkpt lat="44.15601" lon="3.14796">
        <ele>837.6</ele>
        <time>2019-04-19T13:39:52Z</time>
      </trkpt>
      <trkpt lat="44.15599" lon="3.14798">
        <ele>837.9</ele>
        <time>2019-04-19T13:39:53Z</time>
      </trkpt>
      <trkpt lat="44.15596" lon="3.14803">
        <ele>838.3</ele>
        <time>2019-04-19T13:39:55Z</time>
      </trkpt>
      <trkpt lat="44.15593" lon="3.14805">
        <ele>838.6</ele>
        <time>2019-04-19T13:39:57Z</time>
      </trkpt>
      <trkpt lat="44.1559" lon="3.14807">
        <ele>839.1</ele>
        <time>2019-04-19T13:39:59Z</time>
      </trkpt>
      <trkpt lat="44.15587" lon="3.14809">
        <ele>839.5</ele>
        <time>2019-04-19T13:40:00Z</time>
      </trkpt>
      <trkpt lat="44.15584" lon="3.14812">
        <ele>840</ele>
        <time>2019-04-19T13:40:01Z</time>
      </trkpt>
      <trkpt lat="44.15582" lon="3.14814">
        <ele>840.4</ele>
        <time>2019-04-19T13:40:02Z</time>
      </trkpt>
      <trkpt lat="44.15578" lon="3.14817">
        <ele>840.8</ele>
        <time>2019-04-19T13:40:04Z</time>
      </trkpt>
      <trkpt lat="44.15575" lon="3.14822">
        <ele>841.3</ele>
        <time>2019-04-19T13:40:06Z</time>
      </trkpt>
      <trkpt lat="44.15573" lon="3.14825">
        <ele>841.7</ele>
        <time>2019-04-19T13:40:10Z</time>
      </trkpt>
      <trkpt lat="44.1557" lon="3.1483">
        <ele>841.8</ele>
        <time>2019-04-19T13:40:14Z</time>
      </trkpt>
      <trkpt lat="44.15569" lon="3.14836">
        <ele>842.4</ele>
        <time>2019-04-19T13:40:16Z</time>
      </trkpt>
      <trkpt lat="44.15567" lon="3.14841">
        <ele>842.9</ele>
        <time>2019-04-19T13:40:18Z</time>
      </trkpt>
      <trkpt lat="44.15564" lon="3.14846">
        <ele>843</ele>
        <time>2019-04-19T13:40:20Z</time>
      </trkpt>
      <trkpt lat="44.15561" lon="3.14848">
        <ele>843.3</ele>
        <time>2019-04-19T13:40:22Z</time>
      </trkpt>
      <trkpt lat="44.15557" lon="3.1485">
        <ele>844</ele>
        <time>2019-04-19T13:40:24Z</time>
      </trkpt>
      <trkpt lat="44.15553" lon="3.14852">
        <ele>844.3</ele>
        <time>2019-04-19T13:40:26Z</time>
      </trkpt>
      <trkpt lat="44.15549" lon="3.14852">
        <ele>844.5</ele>
        <time>2019-04-19T13:40:28Z</time>
      </trkpt>
      <trkpt lat="44.15545" lon="3.14852">
        <ele>844.9</ele>
        <time>2019-04-19T13:40:30Z</time>
      </trkpt>
      <trkpt lat="44.1554" lon="3.14851">
        <ele>845</ele>
        <time>2019-04-19T13:40:32Z</time>
      </trkpt>
      <trkpt lat="44.15536" lon="3.14854">
        <ele>845.4</ele>
        <time>2019-04-19T13:40:34Z</time>
      </trkpt>
      <trkpt lat="44.15534" lon="3.14862">
        <ele>845.4</ele>
        <time>2019-04-19T13:40:36Z</time>
      </trkpt>
      <trkpt lat="44.15533" lon="3.14868">
        <ele>845.4</ele>
        <time>2019-04-19T13:40:37Z</time>
      </trkpt>
      <trkpt lat="44.15535" lon="3.14886">
        <ele>845</ele>
        <time>2019-04-19T13:40:38Z</time>
      </trkpt>
      <trkpt lat="44.15536" lon="3.14893">
        <ele>844.9</ele>
        <time>2019-04-19T13:40:39Z</time>
      </trkpt>
      <trkpt lat="44.15537" lon="3.14901">
        <ele>844.7</ele>
        <time>2019-04-19T13:40:40Z</time>
      </trkpt>
      <trkpt lat="44.15537" lon="3.14911">
        <ele>844.4</ele>
        <time>2019-04-19T13:40:41Z</time>
      </trkpt>
      <trkpt lat="44.15537" lon="3.14922">
        <ele>844.1</ele>
        <time>2019-04-19T13:40:42Z</time>
      </trkpt>
      <trkpt lat="44.15538" lon="3.14933">
        <ele>843.9</ele>
        <time>2019-04-19T13:40:43Z</time>
      </trkpt>
      <trkpt lat="44.15539" lon="3.14944">
        <ele>843.7</ele>
        <time>2019-04-19T13:40:44Z</time>
      </trkpt>
      <trkpt lat="44.15539" lon="3.14953">
        <ele>843.5</ele>
        <time>2019-04-19T13:40:45Z</time>
      </trkpt>
      <trkpt lat="44.15538" lon="3.14964">
        <ele>843.3</ele>
        <time>2019-04-19T13:40:46Z</time>
      </trkpt>
      <trkpt lat="44.15539" lon="3.14973">
        <ele>843.2</ele>
        <time>2019-04-19T13:40:47Z</time>
      </trkpt>
      <trkpt lat="44.15539" lon="3.14981">
        <ele>843.1</ele>
        <time>2019-04-19T13:40:48Z</time>
      </trkpt>
      <trkpt lat="44.15539" lon="3.14991">
        <ele>843</ele>
        <time>2019-04-19T13:40:49Z</time>
      </trkpt>
      <trkpt lat="44.1554" lon="3.14999">
        <ele>842.8</ele>
        <time>2019-04-19T13:40:50Z</time>
      </trkpt>
      <trkpt lat="44.1554" lon="3.15004">
        <ele>842.8</ele>
        <time>2019-04-19T13:40:51Z</time>
      </trkpt>
      <trkpt lat="44.1554" lon="3.15011">
        <ele>842.7</ele>
        <time>2019-04-19T13:40:52Z</time>
      </trkpt>
      <trkpt lat="44.1554" lon="3.15018">
        <ele>842.6</ele>
        <time>2019-04-19T13:40:53Z</time>
      </trkpt>
      <trkpt lat="44.15539" lon="3.15024">
        <ele>842.4</ele>
        <time>2019-04-19T13:40:54Z</time>
      </trkpt>
      <trkpt lat="44.1554" lon="3.1503">
        <ele>842.3</ele>
        <time>2019-04-19T13:40:55Z</time>
      </trkpt>
      <trkpt lat="44.15541" lon="3.15036">
        <ele>842.2</ele>
        <time>2019-04-19T13:40:56Z</time>
      </trkpt>
      <trkpt lat="44.15542" lon="3.15042">
        <ele>842.1</ele>
        <time>2019-04-19T13:40:57Z</time>
      </trkpt>
      <trkpt lat="44.15541" lon="3.15047">
        <ele>842</ele>
        <time>2019-04-19T13:40:58Z</time>
      </trkpt>
      <trkpt lat="44.15539" lon="3.15053">
        <ele>841.8</ele>
        <time>2019-04-19T13:40:59Z</time>
      </trkpt>
      <trkpt lat="44.15537" lon="3.15058">
        <ele>841.7</ele>
        <time>2019-04-19T13:41:00Z</time>
      </trkpt>
      <trkpt lat="44.15535" lon="3.15063">
        <ele>841.5</ele>
        <time>2019-04-19T13:41:01Z</time>
      </trkpt>
      <trkpt lat="44.15536" lon="3.15071">
        <ele>841.4</ele>
        <time>2019-04-19T13:41:02Z</time>
      </trkpt>
      <trkpt lat="44.15531" lon="3.15087">
        <ele>840.9</ele>
        <time>2019-04-19T13:41:04Z</time>
      </trkpt>
      <trkpt lat="44.1553" lon="3.15093">
        <ele>840.7</ele>
        <time>2019-04-19T13:41:05Z</time>
      </trkpt>
      <trkpt lat="44.15528" lon="3.15097">
        <ele>840.7</ele>
        <time>2019-04-19T13:41:06Z</time>
      </trkpt>
      <trkpt lat="44.15527" lon="3.15101">
        <ele>840.7</ele>
        <time>2019-04-19T13:41:07Z</time>
      </trkpt>
      <trkpt lat="44.15525" lon="3.15105">
        <ele>840.5</ele>
        <time>2019-04-19T13:41:08Z</time>
      </trkpt>
      <trkpt lat="44.15524" lon="3.15112">
        <ele>840.2</ele>
        <time>2019-04-19T13:41:09Z</time>
      </trkpt>
      <trkpt lat="44.15522" lon="3.15117">
        <ele>840.2</ele>
        <time>2019-04-19T13:41:10Z</time>
      </trkpt>
      <trkpt lat="44.15521" lon="3.15125">
        <ele>839.9</ele>
        <time>2019-04-19T13:41:11Z</time>
      </trkpt>
      <trkpt lat="44.15519" lon="3.15132">
        <ele>839.8</ele>
        <time>2019-04-19T13:41:12Z</time>
      </trkpt>
      <trkpt lat="44.15518" lon="3.15138">
        <ele>839.6</ele>
        <time>2019-04-19T13:41:13Z</time>
      </trkpt>
      <trkpt lat="44.15517" lon="3.15143">
        <ele>839.6</ele>
        <time>2019-04-19T13:41:15Z</time>
      </trkpt>
      <trkpt lat="44.15509" lon="3.15179">
        <ele>838.9</ele>
        <time>2019-04-19T13:41:17Z</time>
      </trkpt>
      <trkpt lat="44.15511" lon="3.15188">
        <ele>838.6</ele>
        <time>2019-04-19T13:41:18Z</time>
      </trkpt>
      <trkpt lat="44.15515" lon="3.15202">
        <ele>837.6</ele>
        <time>2019-04-19T13:41:19Z</time>
      </trkpt>
      <trkpt lat="44.15514" lon="3.15213">
        <ele>837.6</ele>
        <time>2019-04-19T13:41:20Z</time>
      </trkpt>
      <trkpt lat="44.15515" lon="3.15224">
        <ele>837</ele>
        <time>2019-04-19T13:41:21Z</time>
      </trkpt>
      <trkpt lat="44.15517" lon="3.15232">
        <ele>836.8</ele>
        <time>2019-04-19T13:41:22Z</time>
      </trkpt>
      <trkpt lat="44.15517" lon="3.15237">
        <ele>836.6</ele>
        <time>2019-04-19T13:41:24Z</time>
      </trkpt>
      <trkpt lat="44.15523" lon="3.15241">
        <ele>835.9</ele>
        <time>2019-04-19T13:41:27Z</time>
      </trkpt>
      <trkpt lat="44.15525" lon="3.15244">
        <ele>835.5</ele>
        <time>2019-04-19T13:41:28Z</time>
      </trkpt>
      <trkpt lat="44.15523" lon="3.15247">
        <ele>835.7</ele>
        <time>2019-04-19T13:41:29Z</time>
      </trkpt>
      <trkpt lat="44.15524" lon="3.15252">
        <ele>835.6</ele>
        <time>2019-04-19T13:41:31Z</time>
      </trkpt>
      <trkpt lat="44.15522" lon="3.15259">
        <ele>835.4</ele>
        <time>2019-04-19T13:41:33Z</time>
      </trkpt>
      <trkpt lat="44.15521" lon="3.15264">
        <ele>835.3</ele>
        <time>2019-04-19T13:41:35Z</time>
      </trkpt>
      <trkpt lat="44.15524" lon="3.15267">
        <ele>835.1</ele>
        <time>2019-04-19T13:41:37Z</time>
      </trkpt>
      <trkpt lat="44.15527" lon="3.15269">
        <ele>834.6</ele>
        <time>2019-04-19T13:41:39Z</time>
      </trkpt>
      <trkpt lat="44.15531" lon="3.15271">
        <ele>834.3</ele>
        <time>2019-04-19T13:41:41Z</time>
      </trkpt>
      <trkpt lat="44.15535" lon="3.15272">
        <ele>834</ele>
        <time>2019-04-19T13:41:43Z</time>
      </trkpt>
      <trkpt lat="44.15537" lon="3.15275">
        <ele>833.7</ele>
        <time>2019-04-19T13:41:45Z</time>
      </trkpt>
      <trkpt lat="44.1554" lon="3.15278">
        <ele>833.5</ele>
        <time>2019-04-19T13:41:46Z</time>
      </trkpt>
      <trkpt lat="44.15543" lon="3.15282">
        <ele>833.2</ele>
        <time>2019-04-19T13:41:47Z</time>
      </trkpt>
      <trkpt lat="44.15546" lon="3.15284">
        <ele>832.9</ele>
        <time>2019-04-19T13:41:48Z</time>
      </trkpt>
      <trkpt lat="44.15551" lon="3.15286">
        <ele>832.7</ele>
        <time>2019-04-19T13:41:49Z</time>
      </trkpt>
      <trkpt lat="44.15554" lon="3.15287">
        <ele>832.4</ele>
        <time>2019-04-19T13:41:50Z</time>
      </trkpt>
      <trkpt lat="44.15557" lon="3.15288">
        <ele>832.1</ele>
        <time>2019-04-19T13:41:51Z</time>
      </trkpt>
      <trkpt lat="44.15561" lon="3.15289">
        <ele>831.6</ele>
        <time>2019-04-19T13:41:52Z</time>
      </trkpt>
      <trkpt lat="44.15566" lon="3.15291">
        <ele>831.3</ele>
        <time>2019-04-19T13:41:53Z</time>
      </trkpt>
      <trkpt lat="44.15571" lon="3.15293">
        <ele>830.9</ele>
        <time>2019-04-19T13:41:54Z</time>
      </trkpt>
      <trkpt lat="44.15595" lon="3.15295">
        <ele>829.4</ele>
        <time>2019-04-19T13:41:56Z</time>
      </trkpt>
      <trkpt lat="44.15601" lon="3.15296">
        <ele>828.7</ele>
        <time>2019-04-19T13:41:57Z</time>
      </trkpt>
      <trkpt lat="44.15605" lon="3.15295">
        <ele>828.5</ele>
        <time>2019-04-19T13:41:58Z</time>
      </trkpt>
      <trkpt lat="44.15614" lon="3.15293">
        <ele>827.7</ele>
        <time>2019-04-19T13:41:59Z</time>
      </trkpt>
      <trkpt lat="44.15619" lon="3.15294">
        <ele>827.5</ele>
        <time>2019-04-19T13:42:00Z</time>
      </trkpt>
      <trkpt lat="44.15626" lon="3.15296">
        <ele>827.3</ele>
        <time>2019-04-19T13:42:01Z</time>
      </trkpt>
      <trkpt lat="44.15629" lon="3.15299">
        <ele>827.2</ele>
        <time>2019-04-19T13:42:03Z</time>
      </trkpt>
      <trkpt lat="44.15632" lon="3.153">
        <ele>827.1</ele>
        <time>2019-04-19T13:42:04Z</time>
      </trkpt>
      <trkpt lat="44.15637" lon="3.15303">
        <ele>827</ele>
        <time>2019-04-19T13:42:05Z</time>
      </trkpt>
      <trkpt lat="44.15643" lon="3.15304">
        <ele>826.9</ele>
        <time>2019-04-19T13:42:06Z</time>
      </trkpt>
      <trkpt lat="44.15648" lon="3.15305">
        <ele>826.8</ele>
        <time>2019-04-19T13:42:07Z</time>
      </trkpt>
      <trkpt lat="44.15652" lon="3.15306">
        <ele>826.7</ele>
        <time>2019-04-19T13:42:08Z</time>
      </trkpt>
      <trkpt lat="44.15656" lon="3.15306">
        <ele>826.7</ele>
        <time>2019-04-19T13:42:09Z</time>
      </trkpt>
      <trkpt lat="44.1566" lon="3.15305">
        <ele>826.7</ele>
        <time>2019-04-19T13:42:10Z</time>
      </trkpt>
      <trkpt lat="44.15664" lon="3.15302">
        <ele>826.5</ele>
        <time>2019-04-19T13:42:11Z</time>
      </trkpt>
      <trkpt lat="44.1567" lon="3.153">
        <ele>826.5</ele>
        <time>2019-04-19T13:42:12Z</time>
      </trkpt>
      <trkpt lat="44.15675" lon="3.15299">
        <ele>826.4</ele>
        <time>2019-04-19T13:42:13Z</time>
      </trkpt>
      <trkpt lat="44.15679" lon="3.15299">
        <ele>826.4</ele>
        <time>2019-04-19T13:42:14Z</time>
      </trkpt>
      <trkpt lat="44.15682" lon="3.15301">
        <ele>826.4</ele>
        <time>2019-04-19T13:42:15Z</time>
      </trkpt>
      <trkpt lat="44.15684" lon="3.15304">
        <ele>826.4</ele>
        <time>2019-04-19T13:42:16Z</time>
      </trkpt>
      <trkpt lat="44.15687" lon="3.15306">
        <ele>826.4</ele>
        <time>2019-04-19T13:42:17Z</time>
      </trkpt>
      <trkpt lat="44.1569" lon="3.15308">
        <ele>826.5</ele>
        <time>2019-04-19T13:42:18Z</time>
      </trkpt>
      <trkpt lat="44.15692" lon="3.15311">
        <ele>826.4</ele>
        <time>2019-04-19T13:42:19Z</time>
      </trkpt>
      <trkpt lat="44.15694" lon="3.15313">
        <ele>826.5</ele>
        <time>2019-04-19T13:42:20Z</time>
      </trkpt>
      <trkpt lat="44.15697" lon="3.15316">
        <ele>826.5</ele>
        <time>2019-04-19T13:42:21Z</time>
      </trkpt>
      <trkpt lat="44.157" lon="3.15319">
        <ele>826.5</ele>
        <time>2019-04-19T13:42:22Z</time>
      </trkpt>
      <trkpt lat="44.15704" lon="3.15321">
        <ele>826.6</ele>
        <time>2019-04-19T13:42:23Z</time>
      </trkpt>
      <trkpt lat="44.15707" lon="3.15324">
        <ele>826.6</ele>
        <time>2019-04-19T13:42:24Z</time>
      </trkpt>
      <trkpt lat="44.15709" lon="3.15326">
        <ele>826.6</ele>
        <time>2019-04-19T13:42:25Z</time>
      </trkpt>
      <trkpt lat="44.15712" lon="3.15329">
        <ele>826.7</ele>
        <time>2019-04-19T13:42:26Z</time>
      </trkpt>
      <trkpt lat="44.15715" lon="3.15332">
        <ele>826.7</ele>
        <time>2019-04-19T13:42:27Z</time>
      </trkpt>
      <trkpt lat="44.15718" lon="3.15335">
        <ele>826.8</ele>
        <time>2019-04-19T13:42:28Z</time>
      </trkpt>
      <trkpt lat="44.15721" lon="3.15339">
        <ele>826.9</ele>
        <time>2019-04-19T13:42:29Z</time>
      </trkpt>
      <trkpt lat="44.15723" lon="3.15342">
        <ele>827</ele>
        <time>2019-04-19T13:42:30Z</time>
      </trkpt>
      <trkpt lat="44.15725" lon="3.15346">
        <ele>827.1</ele>
        <time>2019-04-19T13:42:31Z</time>
      </trkpt>
      <trkpt lat="44.15727" lon="3.15349">
        <ele>827.2</ele>
        <time>2019-04-19T13:42:32Z</time>
      </trkpt>
      <trkpt lat="44.15728" lon="3.15353">
        <ele>827.3</ele>
        <time>2019-04-19T13:42:33Z</time>
      </trkpt>
      <trkpt lat="44.1573" lon="3.15357">
        <ele>827.4</ele>
        <time>2019-04-19T13:42:34Z</time>
      </trkpt>
      <trkpt lat="44.15732" lon="3.1536">
        <ele>827.5</ele>
        <time>2019-04-19T13:42:35Z</time>
      </trkpt>
      <trkpt lat="44.15735" lon="3.15363">
        <ele>827.6</ele>
        <time>2019-04-19T13:42:36Z</time>
      </trkpt>
      <trkpt lat="44.15738" lon="3.15367">
        <ele>827.8</ele>
        <time>2019-04-19T13:42:38Z</time>
      </trkpt>
      <trkpt lat="44.15742" lon="3.15373">
        <ele>828</ele>
        <time>2019-04-19T13:42:40Z</time>
      </trkpt>
      <trkpt lat="44.15744" lon="3.15377">
        <ele>828.2</ele>
        <time>2019-04-19T13:42:41Z</time>
      </trkpt>
      <trkpt lat="44.15746" lon="3.1538">
        <ele>828.3</ele>
        <time>2019-04-19T13:42:42Z</time>
      </trkpt>
      <trkpt lat="44.15749" lon="3.15382">
        <ele>828.5</ele>
        <time>2019-04-19T13:42:43Z</time>
      </trkpt>
      <trkpt lat="44.15752" lon="3.15386">
        <ele>828.7</ele>
        <time>2019-04-19T13:42:44Z</time>
      </trkpt>
      <trkpt lat="44.15755" lon="3.1539">
        <ele>828.9</ele>
        <time>2019-04-19T13:42:45Z</time>
      </trkpt>
      <trkpt lat="44.15756" lon="3.15393">
        <ele>829</ele>
        <time>2019-04-19T13:42:46Z</time>
      </trkpt>
      <trkpt lat="44.15759" lon="3.15397">
        <ele>829.2</ele>
        <time>2019-04-19T13:42:48Z</time>
      </trkpt>
      <trkpt lat="44.15763" lon="3.15399">
        <ele>829.6</ele>
        <time>2019-04-19T13:42:50Z</time>
      </trkpt>
      <trkpt lat="44.15767" lon="3.154">
        <ele>829.9</ele>
        <time>2019-04-19T13:42:52Z</time>
      </trkpt>
      <trkpt lat="44.15771" lon="3.15397">
        <ele>830.4</ele>
        <time>2019-04-19T13:42:54Z</time>
      </trkpt>
      <trkpt lat="44.15775" lon="3.15395">
        <ele>830.8</ele>
        <time>2019-04-19T13:42:56Z</time>
      </trkpt>
      <trkpt lat="44.1578" lon="3.15394">
        <ele>831.3</ele>
        <time>2019-04-19T13:42:58Z</time>
      </trkpt>
      <trkpt lat="44.15785" lon="3.15393">
        <ele>831.7</ele>
        <time>2019-04-19T13:43:00Z</time>
      </trkpt>
      <trkpt lat="44.15788" lon="3.15392">
        <ele>832</ele>
        <time>2019-04-19T13:43:02Z</time>
      </trkpt>
      <trkpt lat="44.15791" lon="3.15393">
        <ele>832.4</ele>
        <time>2019-04-19T13:43:06Z</time>
      </trkpt>
      <trkpt lat="44.15795" lon="3.15395">
        <ele>833</ele>
        <time>2019-04-19T13:43:08Z</time>
      </trkpt>
      <trkpt lat="44.15799" lon="3.15398">
        <ele>833.6</ele>
        <time>2019-04-19T13:43:10Z</time>
      </trkpt>
      <trkpt lat="44.15802" lon="3.15403">
        <ele>834.3</ele>
        <time>2019-04-19T13:43:12Z</time>
      </trkpt>
      <trkpt lat="44.15804" lon="3.15407">
        <ele>834.9</ele>
        <time>2019-04-19T13:43:14Z</time>
      </trkpt>
      <trkpt lat="44.15805" lon="3.15412">
        <ele>835.3</ele>
        <time>2019-04-19T13:43:16Z</time>
      </trkpt>
      <trkpt lat="44.15806" lon="3.15417">
        <ele>835.8</ele>
        <time>2019-04-19T13:43:18Z</time>
      </trkpt>
      <trkpt lat="44.15808" lon="3.15421">
        <ele>836.2</ele>
        <time>2019-04-19T13:43:21Z</time>
      </trkpt>
      <trkpt lat="44.15811" lon="3.15426">
        <ele>836.7</ele>
        <time>2019-04-19T13:43:23Z</time>
      </trkpt>
      <trkpt lat="44.15813" lon="3.15432">
        <ele>837.3</ele>
        <time>2019-04-19T13:43:25Z</time>
      </trkpt>
      <trkpt lat="44.15815" lon="3.15437">
        <ele>837.6</ele>
        <time>2019-04-19T13:43:27Z</time>
      </trkpt>
      <trkpt lat="44.15817" lon="3.15442">
        <ele>838.1</ele>
        <time>2019-04-19T13:43:29Z</time>
      </trkpt>
      <trkpt lat="44.15819" lon="3.15448">
        <ele>838.5</ele>
        <time>2019-04-19T13:43:31Z</time>
      </trkpt>
      <trkpt lat="44.15822" lon="3.15453">
        <ele>838.9</ele>
        <time>2019-04-19T13:43:33Z</time>
      </trkpt>
      <trkpt lat="44.15824" lon="3.15458">
        <ele>839.2</ele>
        <time>2019-04-19T13:43:35Z</time>
      </trkpt>
      <trkpt lat="44.15827" lon="3.15464">
        <ele>839.6</ele>
        <time>2019-04-19T13:43:37Z</time>
      </trkpt>
      <trkpt lat="44.15829" lon="3.15468">
        <ele>839.8</ele>
        <time>2019-04-19T13:43:39Z</time>
      </trkpt>
      <trkpt lat="44.15832" lon="3.15473">
        <ele>840.1</ele>
        <time>2019-04-19T13:43:41Z</time>
      </trkpt>
      <trkpt lat="44.15835" lon="3.15477">
        <ele>840.3</ele>
        <time>2019-04-19T13:43:43Z</time>
      </trkpt>
      <trkpt lat="44.15839" lon="3.15482">
        <ele>840.5</ele>
        <time>2019-04-19T13:43:45Z</time>
      </trkpt>
      <trkpt lat="44.15841" lon="3.15486">
        <ele>840.6</ele>
        <time>2019-04-19T13:43:46Z</time>
      </trkpt>
      <trkpt lat="44.15842" lon="3.1549">
        <ele>840.7</ele>
        <time>2019-04-19T13:43:47Z</time>
      </trkpt>
      <trkpt lat="44.15842" lon="3.15494">
        <ele>840.8</ele>
        <time>2019-04-19T13:43:48Z</time>
      </trkpt>
      <trkpt lat="44.15844" lon="3.15501">
        <ele>841.1</ele>
        <time>2019-04-19T13:43:50Z</time>
      </trkpt>
      <trkpt lat="44.15846" lon="3.15504">
        <ele>841.3</ele>
        <time>2019-04-19T13:43:51Z</time>
      </trkpt>
      <trkpt lat="44.15849" lon="3.15509">
        <ele>841.5</ele>
        <time>2019-04-19T13:43:53Z</time>
      </trkpt>
      <trkpt lat="44.15851" lon="3.15513">
        <ele>841.7</ele>
        <time>2019-04-19T13:43:55Z</time>
      </trkpt>
      <trkpt lat="44.15853" lon="3.15518">
        <ele>842</ele>
        <time>2019-04-19T13:43:57Z</time>
      </trkpt>
      <trkpt lat="44.15856" lon="3.15523">
        <ele>842.3</ele>
        <time>2019-04-19T13:43:59Z</time>
      </trkpt>
      <trkpt lat="44.15858" lon="3.15526">
        <ele>842.5</ele>
        <time>2019-04-19T13:44:00Z</time>
      </trkpt>
      <trkpt lat="44.15859" lon="3.1553">
        <ele>842.8</ele>
        <time>2019-04-19T13:44:01Z</time>
      </trkpt>
      <trkpt lat="44.1586" lon="3.15534">
        <ele>843.1</ele>
        <time>2019-04-19T13:44:02Z</time>
      </trkpt>
      <trkpt lat="44.15861" lon="3.1554">
        <ele>843.5</ele>
        <time>2019-04-19T13:44:04Z</time>
      </trkpt>
      <trkpt lat="44.15863" lon="3.15545">
        <ele>843.8</ele>
        <time>2019-04-19T13:44:06Z</time>
      </trkpt>
      <trkpt lat="44.15864" lon="3.1555">
        <ele>844.1</ele>
        <time>2019-04-19T13:44:08Z</time>
      </trkpt>
      <trkpt lat="44.15865" lon="3.15555">
        <ele>844.3</ele>
        <time>2019-04-19T13:44:10Z</time>
      </trkpt>
      <trkpt lat="44.15865" lon="3.15559">
        <ele>844.6</ele>
        <time>2019-04-19T13:44:12Z</time>
      </trkpt>
      <trkpt lat="44.15865" lon="3.15567">
        <ele>845</ele>
        <time>2019-04-19T13:44:14Z</time>
      </trkpt>
      <trkpt lat="44.15866" lon="3.15573">
        <ele>845.3</ele>
        <time>2019-04-19T13:44:16Z</time>
      </trkpt>
      <trkpt lat="44.15867" lon="3.15578">
        <ele>845.6</ele>
        <time>2019-04-19T13:44:18Z</time>
      </trkpt>
      <trkpt lat="44.15867" lon="3.15583">
        <ele>845.8</ele>
        <time>2019-04-19T13:44:20Z</time>
      </trkpt>
      <trkpt lat="44.15866" lon="3.15587">
        <ele>846</ele>
        <time>2019-04-19T13:44:25Z</time>
      </trkpt>
      <trkpt lat="44.1587" lon="3.15597">
        <ele>846.4</ele>
        <time>2019-04-19T13:44:57Z</time>
      </trkpt>
      <trkpt lat="44.15871" lon="3.15601">
        <ele>846.4</ele>
        <time>2019-04-19T13:45:04Z</time>
      </trkpt>
      <trkpt lat="44.15874" lon="3.15603">
        <ele>846.6</ele>
        <time>2019-04-19T13:45:07Z</time>
      </trkpt>
      <trkpt lat="44.15877" lon="3.15606">
        <ele>846.8</ele>
        <time>2019-04-19T13:45:09Z</time>
      </trkpt>
      <trkpt lat="44.1588" lon="3.1561">
        <ele>847</ele>
        <time>2019-04-19T13:45:11Z</time>
      </trkpt>
      <trkpt lat="44.15882" lon="3.15614">
        <ele>847.2</ele>
        <time>2019-04-19T13:45:13Z</time>
      </trkpt>
      <trkpt lat="44.15885" lon="3.15617">
        <ele>847.5</ele>
        <time>2019-04-19T13:45:15Z</time>
      </trkpt>
      <trkpt lat="44.15888" lon="3.15617">
        <ele>847.8</ele>
        <time>2019-04-19T13:45:28Z</time>
      </trkpt>
      <trkpt lat="44.15891" lon="3.15619">
        <ele>848.1</ele>
        <time>2019-04-19T13:45:33Z</time>
      </trkpt>
      <trkpt lat="44.15895" lon="3.15621">
        <ele>848.3</ele>
        <time>2019-04-19T13:45:35Z</time>
      </trkpt>
      <trkpt lat="44.15898" lon="3.15624">
        <ele>848.6</ele>
        <time>2019-04-19T13:45:37Z</time>
      </trkpt>
      <trkpt lat="44.15901" lon="3.1563">
        <ele>848.7</ele>
        <time>2019-04-19T13:45:39Z</time>
      </trkpt>
      <trkpt lat="44.15903" lon="3.15634">
        <ele>848.8</ele>
        <time>2019-04-19T13:45:41Z</time>
      </trkpt>
      <trkpt lat="44.15907" lon="3.15638">
        <ele>849.1</ele>
        <time>2019-04-19T13:45:43Z</time>
      </trkpt>
      <trkpt lat="44.1591" lon="3.1564">
        <ele>849.2</ele>
        <time>2019-04-19T13:45:45Z</time>
      </trkpt>
      <trkpt lat="44.15913" lon="3.15641">
        <ele>849.5</ele>
        <time>2019-04-19T13:45:49Z</time>
      </trkpt>
      <trkpt lat="44.15915" lon="3.15642">
        <ele>849.8</ele>
        <time>2019-04-19T13:45:52Z</time>
      </trkpt>
      <trkpt lat="44.15916" lon="3.15646">
        <ele>849.7</ele>
        <time>2019-04-19T13:46:01Z</time>
      </trkpt>
      <trkpt lat="44.1592" lon="3.15648">
        <ele>849.8</ele>
        <time>2019-04-19T13:46:04Z</time>
      </trkpt>
      <trkpt lat="44.15924" lon="3.15651">
        <ele>850.1</ele>
        <time>2019-04-19T13:46:06Z</time>
      </trkpt>
      <trkpt lat="44.15927" lon="3.15653">
        <ele>850.5</ele>
        <time>2019-04-19T13:46:08Z</time>
      </trkpt>
      <trkpt lat="44.15931" lon="3.15655">
        <ele>850.6</ele>
        <time>2019-04-19T13:46:10Z</time>
      </trkpt>
      <trkpt lat="44.15935" lon="3.15658">
        <ele>850.8</ele>
        <time>2019-04-19T13:46:12Z</time>
      </trkpt>
      <trkpt lat="44.15938" lon="3.1566">
        <ele>850.8</ele>
        <time>2019-04-19T13:46:14Z</time>
      </trkpt>
      <trkpt lat="44.15941" lon="3.15661">
        <ele>851</ele>
        <time>2019-04-19T13:46:16Z</time>
      </trkpt>
      <trkpt lat="44.15946" lon="3.15663">
        <ele>851.4</ele>
        <time>2019-04-19T13:46:18Z</time>
      </trkpt>
      <trkpt lat="44.15949" lon="3.15665">
        <ele>851.3</ele>
        <time>2019-04-19T13:46:19Z</time>
      </trkpt>
      <trkpt lat="44.15952" lon="3.15667">
        <ele>851.4</ele>
        <time>2019-04-19T13:46:20Z</time>
      </trkpt>
      <trkpt lat="44.15955" lon="3.15669">
        <ele>851.2</ele>
        <time>2019-04-19T13:46:21Z</time>
      </trkpt>
      <trkpt lat="44.15961" lon="3.15672">
        <ele>851.3</ele>
        <time>2019-04-19T13:46:23Z</time>
      </trkpt>
      <trkpt lat="44.15965" lon="3.15673">
        <ele>851.3</ele>
        <time>2019-04-19T13:46:24Z</time>
      </trkpt>
      <trkpt lat="44.15969" lon="3.15674">
        <ele>851.4</ele>
        <time>2019-04-19T13:46:25Z</time>
      </trkpt>
      <trkpt lat="44.15973" lon="3.15675">
        <ele>851.5</ele>
        <time>2019-04-19T13:46:26Z</time>
      </trkpt>
      <trkpt lat="44.15977" lon="3.15675">
        <ele>851.7</ele>
        <time>2019-04-19T13:46:27Z</time>
      </trkpt>
      <trkpt lat="44.1598" lon="3.15675">
        <ele>851.8</ele>
        <time>2019-04-19T13:46:28Z</time>
      </trkpt>
      <trkpt lat="44.15984" lon="3.15676">
        <ele>851.8</ele>
        <time>2019-04-19T13:46:29Z</time>
      </trkpt>
      <trkpt lat="44.15987" lon="3.15677">
        <ele>851.5</ele>
        <time>2019-04-19T13:46:30Z</time>
      </trkpt>
      <trkpt lat="44.15991" lon="3.15679">
        <ele>851.5</ele>
        <time>2019-04-19T13:46:31Z</time>
      </trkpt>
      <trkpt lat="44.15994" lon="3.15681">
        <ele>851.1</ele>
        <time>2019-04-19T13:46:32Z</time>
      </trkpt>
      <trkpt lat="44.15998" lon="3.15683">
        <ele>851.1</ele>
        <time>2019-04-19T13:46:33Z</time>
      </trkpt>
      <trkpt lat="44.16003" lon="3.15685">
        <ele>850.7</ele>
        <time>2019-04-19T13:46:34Z</time>
      </trkpt>
      <trkpt lat="44.16007" lon="3.15688">
        <ele>850.7</ele>
        <time>2019-04-19T13:46:35Z</time>
      </trkpt>
      <trkpt lat="44.16011" lon="3.15689">
        <ele>850.6</ele>
        <time>2019-04-19T13:46:36Z</time>
      </trkpt>
      <trkpt lat="44.16015" lon="3.15691">
        <ele>850.3</ele>
        <time>2019-04-19T13:46:37Z</time>
      </trkpt>
      <trkpt lat="44.1602" lon="3.15693">
        <ele>850.3</ele>
        <time>2019-04-19T13:46:38Z</time>
      </trkpt>
      <trkpt lat="44.16024" lon="3.15695">
        <ele>850</ele>
        <time>2019-04-19T13:46:39Z</time>
      </trkpt>
      <trkpt lat="44.16029" lon="3.15696">
        <ele>850.2</ele>
        <time>2019-04-19T13:46:40Z</time>
      </trkpt>
      <trkpt lat="44.16034" lon="3.15697">
        <ele>850.3</ele>
        <time>2019-04-19T13:46:41Z</time>
      </trkpt>
      <trkpt lat="44.16038" lon="3.15696">
        <ele>850.4</ele>
        <time>2019-04-19T13:46:42Z</time>
      </trkpt>
      <trkpt lat="44.16042" lon="3.15695">
        <ele>850.6</ele>
        <time>2019-04-19T13:46:43Z</time>
      </trkpt>
      <trkpt lat="44.16046" lon="3.15693">
        <ele>851.1</ele>
        <time>2019-04-19T13:46:44Z</time>
      </trkpt>
      <trkpt lat="44.1605" lon="3.15692">
        <ele>851.2</ele>
        <time>2019-04-19T13:46:45Z</time>
      </trkpt>
      <trkpt lat="44.16052" lon="3.15691">
        <ele>851.3</ele>
        <time>2019-04-19T13:46:46Z</time>
      </trkpt>
      <trkpt lat="44.16058" lon="3.15689">
        <ele>851.8</ele>
        <time>2019-04-19T13:46:48Z</time>
      </trkpt>
      <trkpt lat="44.16061" lon="3.15689">
        <ele>851.8</ele>
        <time>2019-04-19T13:46:49Z</time>
      </trkpt>
      <trkpt lat="44.16064" lon="3.1569">
        <ele>851.5</ele>
        <time>2019-04-19T13:46:50Z</time>
      </trkpt>
      <trkpt lat="44.16068" lon="3.1569">
        <ele>851.6</ele>
        <time>2019-04-19T13:46:51Z</time>
      </trkpt>
      <trkpt lat="44.16072" lon="3.1569">
        <ele>851.6</ele>
        <time>2019-04-19T13:46:52Z</time>
      </trkpt>
      <trkpt lat="44.16076" lon="3.15689">
        <ele>851.9</ele>
        <time>2019-04-19T13:46:53Z</time>
      </trkpt>
      <trkpt lat="44.1608" lon="3.15687">
        <ele>851.9</ele>
        <time>2019-04-19T13:46:54Z</time>
      </trkpt>
      <trkpt lat="44.16083" lon="3.15686">
        <ele>851.8</ele>
        <time>2019-04-19T13:46:55Z</time>
      </trkpt>
      <trkpt lat="44.16087" lon="3.15684">
        <ele>852.1</ele>
        <time>2019-04-19T13:46:56Z</time>
      </trkpt>
      <trkpt lat="44.1609" lon="3.15683">
        <ele>852.1</ele>
        <time>2019-04-19T13:46:57Z</time>
      </trkpt>
      <trkpt lat="44.16093" lon="3.15683">
        <ele>852.1</ele>
        <time>2019-04-19T13:46:58Z</time>
      </trkpt>
      <trkpt lat="44.16099" lon="3.15682">
        <ele>852</ele>
        <time>2019-04-19T13:47:00Z</time>
      </trkpt>
      <trkpt lat="44.16103" lon="3.15682">
        <ele>852</ele>
        <time>2019-04-19T13:47:01Z</time>
      </trkpt>
      <trkpt lat="44.16107" lon="3.15682">
        <ele>852</ele>
        <time>2019-04-19T13:47:02Z</time>
      </trkpt>
      <trkpt lat="44.16111" lon="3.15681">
        <ele>852</ele>
        <time>2019-04-19T13:47:03Z</time>
      </trkpt>
      <trkpt lat="44.16114" lon="3.15681">
        <ele>852</ele>
        <time>2019-04-19T13:47:04Z</time>
      </trkpt>
      <trkpt lat="44.16117" lon="3.15681">
        <ele>852.3</ele>
        <time>2019-04-19T13:47:05Z</time>
      </trkpt>
      <trkpt lat="44.16121" lon="3.1568">
        <ele>852.3</ele>
        <time>2019-04-19T13:47:06Z</time>
      </trkpt>
      <trkpt lat="44.16124" lon="3.15678">
        <ele>852.2</ele>
        <time>2019-04-19T13:47:07Z</time>
      </trkpt>
      <trkpt lat="44.16127" lon="3.15676">
        <ele>852.5</ele>
        <time>2019-04-19T13:47:08Z</time>
      </trkpt>
      <trkpt lat="44.1613" lon="3.15674">
        <ele>852.5</ele>
        <time>2019-04-19T13:47:09Z</time>
      </trkpt>
      <trkpt lat="44.16134" lon="3.15672">
        <ele>852.8</ele>
        <time>2019-04-19T13:47:10Z</time>
      </trkpt>
      <trkpt lat="44.16138" lon="3.15669">
        <ele>852.7</ele>
        <time>2019-04-19T13:47:11Z</time>
      </trkpt>
      <trkpt lat="44.16142" lon="3.15667">
        <ele>853</ele>
        <time>2019-04-19T13:47:12Z</time>
      </trkpt>
      <trkpt lat="44.16146" lon="3.15665">
        <ele>852.9</ele>
        <time>2019-04-19T13:47:13Z</time>
      </trkpt>
      <trkpt lat="44.16149" lon="3.15662">
        <ele>853</ele>
        <time>2019-04-19T13:47:14Z</time>
      </trkpt>
      <trkpt lat="44.16153" lon="3.15661">
        <ele>852.9</ele>
        <time>2019-04-19T13:47:15Z</time>
      </trkpt>
      <trkpt lat="44.16156" lon="3.1566">
        <ele>853.1</ele>
        <time>2019-04-19T13:47:16Z</time>
      </trkpt>
      <trkpt lat="44.1616" lon="3.15659">
        <ele>853</ele>
        <time>2019-04-19T13:47:17Z</time>
      </trkpt>
      <trkpt lat="44.16166" lon="3.15658">
        <ele>852.7</ele>
        <time>2019-04-19T13:47:18Z</time>
      </trkpt>
      <trkpt lat="44.16171" lon="3.15657">
        <ele>852.3</ele>
        <time>2019-04-19T13:47:19Z</time>
      </trkpt>
      <trkpt lat="44.16175" lon="3.15657">
        <ele>852.1</ele>
        <time>2019-04-19T13:47:20Z</time>
      </trkpt>
      <trkpt lat="44.1618" lon="3.15654">
        <ele>852.2</ele>
        <time>2019-04-19T13:47:22Z</time>
      </trkpt>
      <trkpt lat="44.16185" lon="3.15652">
        <ele>852</ele>
        <time>2019-04-19T13:47:24Z</time>
      </trkpt>
      <trkpt lat="44.16188" lon="3.15652">
        <ele>851.8</ele>
        <time>2019-04-19T13:47:25Z</time>
      </trkpt>
      <trkpt lat="44.16191" lon="3.15653">
        <ele>851.5</ele>
        <time>2019-04-19T13:47:26Z</time>
      </trkpt>
      <trkpt lat="44.16194" lon="3.15653">
        <ele>851.3</ele>
        <time>2019-04-19T13:47:27Z</time>
      </trkpt>
      <trkpt lat="44.16198" lon="3.15653">
        <ele>851.1</ele>
        <time>2019-04-19T13:47:28Z</time>
      </trkpt>
      <trkpt lat="44.16202" lon="3.15653">
        <ele>850.6</ele>
        <time>2019-04-19T13:47:29Z</time>
      </trkpt>
      <trkpt lat="44.16207" lon="3.15653">
        <ele>850.3</ele>
        <time>2019-04-19T13:47:30Z</time>
      </trkpt>
      <trkpt lat="44.16212" lon="3.15653">
        <ele>849.9</ele>
        <time>2019-04-19T13:47:31Z</time>
      </trkpt>
      <trkpt lat="44.16217" lon="3.15654">
        <ele>849.5</ele>
        <time>2019-04-19T13:47:32Z</time>
      </trkpt>
      <trkpt lat="44.16222" lon="3.15654">
        <ele>849.2</ele>
        <time>2019-04-19T13:47:33Z</time>
      </trkpt>
      <trkpt lat="44.16229" lon="3.15653">
        <ele>848.8</ele>
        <time>2019-04-19T13:47:34Z</time>
      </trkpt>
      <trkpt lat="44.16242" lon="3.15644">
        <ele>848.7</ele>
        <time>2019-04-19T13:47:35Z</time>
      </trkpt>
      <trkpt lat="44.16247" lon="3.15643">
        <ele>848.5</ele>
        <time>2019-04-19T13:47:36Z</time>
      </trkpt>
      <trkpt lat="44.16253" lon="3.15642">
        <ele>848</ele>
        <time>2019-04-19T13:47:37Z</time>
      </trkpt>
      <trkpt lat="44.16258" lon="3.15644">
        <ele>847.5</ele>
        <time>2019-04-19T13:47:38Z</time>
      </trkpt>
      <trkpt lat="44.16264" lon="3.15644">
        <ele>847.2</ele>
        <time>2019-04-19T13:47:39Z</time>
      </trkpt>
      <trkpt lat="44.1627" lon="3.15642">
        <ele>847.3</ele>
        <time>2019-04-19T13:47:40Z</time>
      </trkpt>
      <trkpt lat="44.16276" lon="3.15639">
        <ele>846.8</ele>
        <time>2019-04-19T13:47:41Z</time>
      </trkpt>
      <trkpt lat="44.16279" lon="3.15637">
        <ele>847.1</ele>
        <time>2019-04-19T13:47:42Z</time>
      </trkpt>
      <trkpt lat="44.16283" lon="3.15636">
        <ele>846.9</ele>
        <time>2019-04-19T13:47:43Z</time>
      </trkpt>
      <trkpt lat="44.16286" lon="3.15639">
        <ele>846.2</ele>
        <time>2019-04-19T13:47:44Z</time>
      </trkpt>
      <trkpt lat="44.16295" lon="3.15638">
        <ele>845.9</ele>
        <time>2019-04-19T13:47:45Z</time>
      </trkpt>
      <trkpt lat="44.163" lon="3.15637">
        <ele>845.4</ele>
        <time>2019-04-19T13:47:46Z</time>
      </trkpt>
      <trkpt lat="44.16307" lon="3.15633">
        <ele>845.2</ele>
        <time>2019-04-19T13:47:47Z</time>
      </trkpt>
      <trkpt lat="44.16311" lon="3.15636">
        <ele>844.4</ele>
        <time>2019-04-19T13:47:48Z</time>
      </trkpt>
      <trkpt lat="44.16314" lon="3.15635">
        <ele>844.1</ele>
        <time>2019-04-19T13:47:49Z</time>
      </trkpt>
      <trkpt lat="44.1632" lon="3.1563">
        <ele>843.9</ele>
        <time>2019-04-19T13:47:50Z</time>
      </trkpt>
      <trkpt lat="44.16323" lon="3.1563">
        <ele>843.6</ele>
        <time>2019-04-19T13:47:51Z</time>
      </trkpt>
      <trkpt lat="44.16321" lon="3.15627">
        <ele>844.3</ele>
        <time>2019-04-19T13:47:52Z</time>
      </trkpt>
      <trkpt lat="44.16326" lon="3.15628">
        <ele>843.7</ele>
        <time>2019-04-19T13:47:53Z</time>
      </trkpt>
      <trkpt lat="44.16332" lon="3.15627">
        <ele>843</ele>
        <time>2019-04-19T13:47:54Z</time>
      </trkpt>
      <trkpt lat="44.16337" lon="3.15625">
        <ele>842.7</ele>
        <time>2019-04-19T13:47:55Z</time>
      </trkpt>
      <trkpt lat="44.16343" lon="3.15621">
        <ele>842</ele>
        <time>2019-04-19T13:47:56Z</time>
      </trkpt>
      <trkpt lat="44.16349" lon="3.1562">
        <ele>841.9</ele>
        <time>2019-04-19T13:47:57Z</time>
      </trkpt>
      <trkpt lat="44.1636" lon="3.15617">
        <ele>840.7</ele>
        <time>2019-04-19T13:47:58Z</time>
      </trkpt>
      <trkpt lat="44.16367" lon="3.15616">
        <ele>840.2</ele>
        <time>2019-04-19T13:47:59Z</time>
      </trkpt>
      <trkpt lat="44.16374" lon="3.15611">
        <ele>839.4</ele>
        <time>2019-04-19T13:48:00Z</time>
      </trkpt>
      <trkpt lat="44.1638" lon="3.15612">
        <ele>839.1</ele>
        <time>2019-04-19T13:48:01Z</time>
      </trkpt>
      <trkpt lat="44.16384" lon="3.15611">
        <ele>838.6</ele>
        <time>2019-04-19T13:48:02Z</time>
      </trkpt>
      <trkpt lat="44.16388" lon="3.1561">
        <ele>838.3</ele>
        <time>2019-04-19T13:48:03Z</time>
      </trkpt>
      <trkpt lat="44.16393" lon="3.15609">
        <ele>837.8</ele>
        <time>2019-04-19T13:48:04Z</time>
      </trkpt>
      <trkpt lat="44.16401" lon="3.15606">
        <ele>837.2</ele>
        <time>2019-04-19T13:48:05Z</time>
      </trkpt>
      <trkpt lat="44.16406" lon="3.15605">
        <ele>836.8</ele>
        <time>2019-04-19T13:48:06Z</time>
      </trkpt>
      <trkpt lat="44.16412" lon="3.15604">
        <ele>836.4</ele>
        <time>2019-04-19T13:48:07Z</time>
      </trkpt>
      <trkpt lat="44.16417" lon="3.15603">
        <ele>835.9</ele>
        <time>2019-04-19T13:48:08Z</time>
      </trkpt>
      <trkpt lat="44.16424" lon="3.15597">
        <ele>834.9</ele>
        <time>2019-04-19T13:48:09Z</time>
      </trkpt>
      <trkpt lat="44.16429" lon="3.15594">
        <ele>834.1</ele>
        <time>2019-04-19T13:48:10Z</time>
      </trkpt>
      <trkpt lat="44.1644" lon="3.15592">
        <ele>833.7</ele>
        <time>2019-04-19T13:48:11Z</time>
      </trkpt>
      <trkpt lat="44.16447" lon="3.15592">
        <ele>833.5</ele>
        <time>2019-04-19T13:48:12Z</time>
      </trkpt>
      <trkpt lat="44.16451" lon="3.15592">
        <ele>833.3</ele>
        <time>2019-04-19T13:48:13Z</time>
      </trkpt>
      <trkpt lat="44.16456" lon="3.15593">
        <ele>833.2</ele>
        <time>2019-04-19T13:48:14Z</time>
      </trkpt>
      <trkpt lat="44.1646" lon="3.15595">
        <ele>833.1</ele>
        <time>2019-04-19T13:48:15Z</time>
      </trkpt>
      <trkpt lat="44.16464" lon="3.15597">
        <ele>833.6</ele>
        <time>2019-04-19T13:48:16Z</time>
      </trkpt>
      <trkpt lat="44.16467" lon="3.156">
        <ele>834</ele>
        <time>2019-04-19T13:48:17Z</time>
      </trkpt>
      <trkpt lat="44.16473" lon="3.15603">
        <ele>834</ele>
        <time>2019-04-19T13:48:18Z</time>
      </trkpt>
      <trkpt lat="44.16475" lon="3.15604">
        <ele>834.4</ele>
        <time>2019-04-19T13:48:19Z</time>
      </trkpt>
      <trkpt lat="44.16481" lon="3.15608">
        <ele>834.3</ele>
        <time>2019-04-19T13:48:21Z</time>
      </trkpt>
      <trkpt lat="44.16486" lon="3.15608">
        <ele>834.3</ele>
        <time>2019-04-19T13:48:22Z</time>
      </trkpt>
      <trkpt lat="44.1649" lon="3.1561">
        <ele>834.7</ele>
        <time>2019-04-19T13:48:23Z</time>
      </trkpt>
      <trkpt lat="44.16495" lon="3.15612">
        <ele>834.7</ele>
        <time>2019-04-19T13:48:25Z</time>
      </trkpt>
      <trkpt lat="44.16498" lon="3.15613">
        <ele>835.2</ele>
        <time>2019-04-19T13:48:26Z</time>
      </trkpt>
      <trkpt lat="44.165" lon="3.15615">
        <ele>835.2</ele>
        <time>2019-04-19T13:48:27Z</time>
      </trkpt>
      <trkpt lat="44.16507" lon="3.15615">
        <ele>835.5</ele>
        <time>2019-04-19T13:48:29Z</time>
      </trkpt>
      <trkpt lat="44.16511" lon="3.15614">
        <ele>835.7</ele>
        <time>2019-04-19T13:48:30Z</time>
      </trkpt>
      <trkpt lat="44.16515" lon="3.15612">
        <ele>835.4</ele>
        <time>2019-04-19T13:48:31Z</time>
      </trkpt>
      <trkpt lat="44.16519" lon="3.15611">
        <ele>836</ele>
        <time>2019-04-19T13:48:32Z</time>
      </trkpt>
      <trkpt lat="44.16523" lon="3.1561">
        <ele>836.3</ele>
        <time>2019-04-19T13:48:33Z</time>
      </trkpt>
      <trkpt lat="44.16526" lon="3.1561">
        <ele>836.7</ele>
        <time>2019-04-19T13:48:34Z</time>
      </trkpt>
      <trkpt lat="44.1653" lon="3.15609">
        <ele>837.1</ele>
        <time>2019-04-19T13:48:35Z</time>
      </trkpt>
      <trkpt lat="44.16533" lon="3.15609">
        <ele>837.6</ele>
        <time>2019-04-19T13:48:36Z</time>
      </trkpt>
      <trkpt lat="44.16537" lon="3.1561">
        <ele>838</ele>
        <time>2019-04-19T13:48:37Z</time>
      </trkpt>
      <trkpt lat="44.16541" lon="3.15611">
        <ele>839</ele>
        <time>2019-04-19T13:48:39Z</time>
      </trkpt>
      <trkpt lat="44.16546" lon="3.15611">
        <ele>840</ele>
        <time>2019-04-19T13:48:41Z</time>
      </trkpt>
      <trkpt lat="44.16549" lon="3.15609">
        <ele>840.5</ele>
        <time>2019-04-19T13:48:42Z</time>
      </trkpt>
      <trkpt lat="44.16552" lon="3.15608">
        <ele>841</ele>
        <time>2019-04-19T13:48:43Z</time>
      </trkpt>
      <trkpt lat="44.16555" lon="3.15607">
        <ele>840.7</ele>
        <time>2019-04-19T13:48:44Z</time>
      </trkpt>
      <trkpt lat="44.16558" lon="3.15606">
        <ele>841.2</ele>
        <time>2019-04-19T13:48:46Z</time>
      </trkpt>
      <trkpt lat="44.16561" lon="3.15601">
        <ele>841.4</ele>
        <time>2019-04-19T13:48:48Z</time>
      </trkpt>
      <trkpt lat="44.16564" lon="3.15599">
        <ele>841.6</ele>
        <time>2019-04-19T13:48:50Z</time>
      </trkpt>
      <trkpt lat="44.16567" lon="3.15599">
        <ele>842.1</ele>
        <time>2019-04-19T13:48:52Z</time>
      </trkpt>
      <trkpt lat="44.16571" lon="3.15599">
        <ele>843</ele>
        <time>2019-04-19T13:48:54Z</time>
      </trkpt>
      <trkpt lat="44.16574" lon="3.15599">
        <ele>843.4</ele>
        <time>2019-04-19T13:48:56Z</time>
      </trkpt>
      <trkpt lat="44.16577" lon="3.15599">
        <ele>843.9</ele>
        <time>2019-04-19T13:48:58Z</time>
      </trkpt>
      <trkpt lat="44.16581" lon="3.15597">
        <ele>844.4</ele>
        <time>2019-04-19T13:49:00Z</time>
      </trkpt>
      <trkpt lat="44.16584" lon="3.15593">
        <ele>844.6</ele>
        <time>2019-04-19T13:49:02Z</time>
      </trkpt>
      <trkpt lat="44.16588" lon="3.15587">
        <ele>844.8</ele>
        <time>2019-04-19T13:49:04Z</time>
      </trkpt>
      <trkpt lat="44.1659" lon="3.15585">
        <ele>845</ele>
        <time>2019-04-19T13:49:05Z</time>
      </trkpt>
      <trkpt lat="44.16593" lon="3.15579">
        <ele>845</ele>
        <time>2019-04-19T13:49:07Z</time>
      </trkpt>
      <trkpt lat="44.16595" lon="3.15573">
        <ele>844.3</ele>
        <time>2019-04-19T13:49:09Z</time>
      </trkpt>
      <trkpt lat="44.16597" lon="3.15569">
        <ele>844.3</ele>
        <time>2019-04-19T13:49:10Z</time>
      </trkpt>
      <trkpt lat="44.16598" lon="3.15565">
        <ele>844.6</ele>
        <time>2019-04-19T13:49:11Z</time>
      </trkpt>
      <trkpt lat="44.166" lon="3.15562">
        <ele>844.3</ele>
        <time>2019-04-19T13:49:12Z</time>
      </trkpt>
      <trkpt lat="44.16601" lon="3.15558">
        <ele>844</ele>
        <time>2019-04-19T13:49:13Z</time>
      </trkpt>
      <trkpt lat="44.16602" lon="3.15553">
        <ele>844</ele>
        <time>2019-04-19T13:49:15Z</time>
      </trkpt>
      <trkpt lat="44.16604" lon="3.15547">
        <ele>844.2</ele>
        <time>2019-04-19T13:49:17Z</time>
      </trkpt>
      <trkpt lat="44.16607" lon="3.15542">
        <ele>844.4</ele>
        <time>2019-04-19T13:49:19Z</time>
      </trkpt>
      <trkpt lat="44.16609" lon="3.15537">
        <ele>844.6</ele>
        <time>2019-04-19T13:49:21Z</time>
      </trkpt>
      <trkpt lat="44.16612" lon="3.15533">
        <ele>844.8</ele>
        <time>2019-04-19T13:49:23Z</time>
      </trkpt>
      <trkpt lat="44.16615" lon="3.15532">
        <ele>844.9</ele>
        <time>2019-04-19T13:49:24Z</time>
      </trkpt>
      <trkpt lat="44.16618" lon="3.15529">
        <ele>845.1</ele>
        <time>2019-04-19T13:49:25Z</time>
      </trkpt>
      <trkpt lat="44.16621" lon="3.15526">
        <ele>845.3</ele>
        <time>2019-04-19T13:49:26Z</time>
      </trkpt>
      <trkpt lat="44.16624" lon="3.15523">
        <ele>845.4</ele>
        <time>2019-04-19T13:49:27Z</time>
      </trkpt>
      <trkpt lat="44.16627" lon="3.15521">
        <ele>845.4</ele>
        <time>2019-04-19T13:49:28Z</time>
      </trkpt>
      <trkpt lat="44.1663" lon="3.15518">
        <ele>845.5</ele>
        <time>2019-04-19T13:49:30Z</time>
      </trkpt>
      <trkpt lat="44.16634" lon="3.15514">
        <ele>845.6</ele>
        <time>2019-04-19T13:49:32Z</time>
      </trkpt>
      <trkpt lat="44.16638" lon="3.15511">
        <ele>845.8</ele>
        <time>2019-04-19T13:49:34Z</time>
      </trkpt>
      <trkpt lat="44.1664" lon="3.15509">
        <ele>845.9</ele>
        <time>2019-04-19T13:49:35Z</time>
      </trkpt>
      <trkpt lat="44.16643" lon="3.15506">
        <ele>846</ele>
        <time>2019-04-19T13:49:36Z</time>
      </trkpt>
      <trkpt lat="44.16646" lon="3.15504">
        <ele>846.2</ele>
        <time>2019-04-19T13:49:37Z</time>
      </trkpt>
      <trkpt lat="44.1665" lon="3.155">
        <ele>846.3</ele>
        <time>2019-04-19T13:49:39Z</time>
      </trkpt>
      <trkpt lat="44.16652" lon="3.15498">
        <ele>846.4</ele>
        <time>2019-04-19T13:49:40Z</time>
      </trkpt>
      <trkpt lat="44.16655" lon="3.15495">
        <ele>846.4</ele>
        <time>2019-04-19T13:49:41Z</time>
      </trkpt>
      <trkpt lat="44.16658" lon="3.15492">
        <ele>846.4</ele>
        <time>2019-04-19T13:49:42Z</time>
      </trkpt>
      <trkpt lat="44.1666" lon="3.15491">
        <ele>846.4</ele>
        <time>2019-04-19T13:49:43Z</time>
      </trkpt>
      <trkpt lat="44.16664" lon="3.15487">
        <ele>846.4</ele>
        <time>2019-04-19T13:49:45Z</time>
      </trkpt>
      <trkpt lat="44.16668" lon="3.15483">
        <ele>846.5</ele>
        <time>2019-04-19T13:49:47Z</time>
      </trkpt>
      <trkpt lat="44.16671" lon="3.15481">
        <ele>846.6</ele>
        <time>2019-04-19T13:49:48Z</time>
      </trkpt>
      <trkpt lat="44.16674" lon="3.1548">
        <ele>846.6</ele>
        <time>2019-04-19T13:49:49Z</time>
      </trkpt>
      <trkpt lat="44.16677" lon="3.15478">
        <ele>846.6</ele>
        <time>2019-04-19T13:49:50Z</time>
      </trkpt>
      <trkpt lat="44.1668" lon="3.15477">
        <ele>846.6</ele>
        <time>2019-04-19T13:49:52Z</time>
      </trkpt>
      <trkpt lat="44.16683" lon="3.15476">
        <ele>846.7</ele>
        <time>2019-04-19T13:49:54Z</time>
      </trkpt>
      <trkpt lat="44.16687" lon="3.15477">
        <ele>846.7</ele>
        <time>2019-04-19T13:49:57Z</time>
      </trkpt>
      <trkpt lat="44.1669" lon="3.15475">
        <ele>846.9</ele>
        <time>2019-04-19T13:50:00Z</time>
      </trkpt>
      <trkpt lat="44.16693" lon="3.1547">
        <ele>847.2</ele>
        <time>2019-04-19T13:50:02Z</time>
      </trkpt>
      <trkpt lat="44.16694" lon="3.15466">
        <ele>847.4</ele>
        <time>2019-04-19T13:50:03Z</time>
      </trkpt>
      <trkpt lat="44.16696" lon="3.15459">
        <ele>847.7</ele>
        <time>2019-04-19T13:50:05Z</time>
      </trkpt>
      <trkpt lat="44.16697" lon="3.15452">
        <ele>847.2</ele>
        <time>2019-04-19T13:50:07Z</time>
      </trkpt>
      <trkpt lat="44.16698" lon="3.15448">
        <ele>847</ele>
        <time>2019-04-19T13:50:08Z</time>
      </trkpt>
      <trkpt lat="44.16699" lon="3.15444">
        <ele>846.9</ele>
        <time>2019-04-19T13:50:09Z</time>
      </trkpt>
      <trkpt lat="44.16699" lon="3.15439">
        <ele>846.8</ele>
        <time>2019-04-19T13:50:10Z</time>
      </trkpt>
      <trkpt lat="44.16699" lon="3.15434">
        <ele>846.7</ele>
        <time>2019-04-19T13:50:11Z</time>
      </trkpt>
      <trkpt lat="44.16698" lon="3.15429">
        <ele>846.4</ele>
        <time>2019-04-19T13:50:12Z</time>
      </trkpt>
      <trkpt lat="44.16698" lon="3.15425">
        <ele>846.2</ele>
        <time>2019-04-19T13:50:13Z</time>
      </trkpt>
      <trkpt lat="44.16696" lon="3.1542">
        <ele>845.8</ele>
        <time>2019-04-19T13:50:15Z</time>
      </trkpt>
      <trkpt lat="44.16696" lon="3.15414">
        <ele>845.6</ele>
        <time>2019-04-19T13:50:17Z</time>
      </trkpt>
      <trkpt lat="44.16698" lon="3.1541">
        <ele>845.4</ele>
        <time>2019-04-19T13:50:19Z</time>
      </trkpt>
      <trkpt lat="44.16702" lon="3.15408">
        <ele>845.3</ele>
        <time>2019-04-19T13:50:21Z</time>
      </trkpt>
      <trkpt lat="44.16707" lon="3.15406">
        <ele>845.2</ele>
        <time>2019-04-19T13:50:23Z</time>
      </trkpt>
      <trkpt lat="44.16709" lon="3.15403">
        <ele>845.2</ele>
        <time>2019-04-19T13:50:24Z</time>
      </trkpt>
      <trkpt lat="44.16713" lon="3.154">
        <ele>845.2</ele>
        <time>2019-04-19T13:50:25Z</time>
      </trkpt>
      <trkpt lat="44.16715" lon="3.15398">
        <ele>845.4</ele>
        <time>2019-04-19T13:50:26Z</time>
      </trkpt>
      <trkpt lat="44.16719" lon="3.15393">
        <ele>845.7</ele>
        <time>2019-04-19T13:50:28Z</time>
      </trkpt>
      <trkpt lat="44.16723" lon="3.15387">
        <ele>845.8</ele>
        <time>2019-04-19T13:50:30Z</time>
      </trkpt>
      <trkpt lat="44.16725" lon="3.15383">
        <ele>845.9</ele>
        <time>2019-04-19T13:50:31Z</time>
      </trkpt>
      <trkpt lat="44.16727" lon="3.15379">
        <ele>845.8</ele>
        <time>2019-04-19T13:50:32Z</time>
      </trkpt>
      <trkpt lat="44.16729" lon="3.15375">
        <ele>845.7</ele>
        <time>2019-04-19T13:50:33Z</time>
      </trkpt>
      <trkpt lat="44.1673" lon="3.15371">
        <ele>845.5</ele>
        <time>2019-04-19T13:50:34Z</time>
      </trkpt>
      <trkpt lat="44.16731" lon="3.15367">
        <ele>845.5</ele>
        <time>2019-04-19T13:50:35Z</time>
      </trkpt>
      <trkpt lat="44.16734" lon="3.15363">
        <ele>845.4</ele>
        <time>2019-04-19T13:50:37Z</time>
      </trkpt>
      <trkpt lat="44.16736" lon="3.1536">
        <ele>845.3</ele>
        <time>2019-04-19T13:50:42Z</time>
      </trkpt>
      <trkpt lat="44.16742" lon="3.1535">
        <ele>844.6</ele>
        <time>2019-04-19T13:50:57Z</time>
      </trkpt>
      <trkpt lat="44.16744" lon="3.15347">
        <ele>844.6</ele>
        <time>2019-04-19T13:51:05Z</time>
      </trkpt>
      <trkpt lat="44.16747" lon="3.1534">
        <ele>844.9</ele>
        <time>2019-04-19T13:51:07Z</time>
      </trkpt>
      <trkpt lat="44.16749" lon="3.15335">
        <ele>845.2</ele>
        <time>2019-04-19T13:51:08Z</time>
      </trkpt>
      <trkpt lat="44.16751" lon="3.1533">
        <ele>845.5</ele>
        <time>2019-04-19T13:51:09Z</time>
      </trkpt>
      <trkpt lat="44.16753" lon="3.15324">
        <ele>845.4</ele>
        <time>2019-04-19T13:51:10Z</time>
      </trkpt>
      <trkpt lat="44.16754" lon="3.15318">
        <ele>845.4</ele>
        <time>2019-04-19T13:51:11Z</time>
      </trkpt>
      <trkpt lat="44.16755" lon="3.15313">
        <ele>845.7</ele>
        <time>2019-04-19T13:51:12Z</time>
      </trkpt>
      <trkpt lat="44.16755" lon="3.15309">
        <ele>846</ele>
        <time>2019-04-19T13:51:13Z</time>
      </trkpt>
      <trkpt lat="44.16756" lon="3.15304">
        <ele>845.6</ele>
        <time>2019-04-19T13:51:14Z</time>
      </trkpt>
      <trkpt lat="44.16757" lon="3.15299">
        <ele>844.9</ele>
        <time>2019-04-19T13:51:15Z</time>
      </trkpt>
      <trkpt lat="44.16759" lon="3.15294">
        <ele>844.3</ele>
        <time>2019-04-19T13:51:16Z</time>
      </trkpt>
      <trkpt lat="44.16767" lon="3.15288">
        <ele>843.9</ele>
        <time>2019-04-19T13:51:17Z</time>
      </trkpt>
      <trkpt lat="44.16774" lon="3.15278">
        <ele>843.3</ele>
        <time>2019-04-19T13:51:18Z</time>
      </trkpt>
      <trkpt lat="44.16771" lon="3.15268">
        <ele>843</ele>
        <time>2019-04-19T13:51:19Z</time>
      </trkpt>
      <trkpt lat="44.16775" lon="3.15257">
        <ele>842.9</ele>
        <time>2019-04-19T13:51:20Z</time>
      </trkpt>
      <trkpt lat="44.16779" lon="3.15243">
        <ele>842.9</ele>
        <time>2019-04-19T13:51:21Z</time>
      </trkpt>
      <trkpt lat="44.16779" lon="3.15233">
        <ele>842.9</ele>
        <time>2019-04-19T13:51:22Z</time>
      </trkpt>
      <trkpt lat="44.16779" lon="3.15226">
        <ele>842.8</ele>
        <time>2019-04-19T13:51:23Z</time>
      </trkpt>
      <trkpt lat="44.16779" lon="3.15218">
        <ele>842.8</ele>
        <time>2019-04-19T13:51:24Z</time>
      </trkpt>
      <trkpt lat="44.16779" lon="3.15208">
        <ele>842.7</ele>
        <time>2019-04-19T13:51:25Z</time>
      </trkpt>
      <trkpt lat="44.16789" lon="3.152">
        <ele>842.2</ele>
        <time>2019-04-19T13:51:26Z</time>
      </trkpt>
      <trkpt lat="44.16793" lon="3.15195">
        <ele>842.2</ele>
        <time>2019-04-19T13:51:27Z</time>
      </trkpt>
      <trkpt lat="44.16797" lon="3.15191">
        <ele>842.1</ele>
        <time>2019-04-19T13:51:28Z</time>
      </trkpt>
      <trkpt lat="44.16796" lon="3.15182">
        <ele>842</ele>
        <time>2019-04-19T13:51:29Z</time>
      </trkpt>
      <trkpt lat="44.16797" lon="3.15173">
        <ele>841.8</ele>
        <time>2019-04-19T13:51:30Z</time>
      </trkpt>
      <trkpt lat="44.16798" lon="3.15164">
        <ele>841.7</ele>
        <time>2019-04-19T13:51:31Z</time>
      </trkpt>
      <trkpt lat="44.168" lon="3.15156">
        <ele>841.7</ele>
        <time>2019-04-19T13:51:32Z</time>
      </trkpt>
      <trkpt lat="44.16803" lon="3.15147">
        <ele>841.7</ele>
        <time>2019-04-19T13:51:33Z</time>
      </trkpt>
      <trkpt lat="44.16806" lon="3.15141">
        <ele>841.8</ele>
        <time>2019-04-19T13:51:34Z</time>
      </trkpt>
      <trkpt lat="44.16809" lon="3.15134">
        <ele>841.7</ele>
        <time>2019-04-19T13:51:35Z</time>
      </trkpt>
      <trkpt lat="44.16811" lon="3.15128">
        <ele>841.7</ele>
        <time>2019-04-19T13:51:36Z</time>
      </trkpt>
      <trkpt lat="44.16813" lon="3.15121">
        <ele>841.6</ele>
        <time>2019-04-19T13:51:37Z</time>
      </trkpt>
      <trkpt lat="44.16815" lon="3.15106">
        <ele>841.5</ele>
        <time>2019-04-19T13:51:38Z</time>
      </trkpt>
      <trkpt lat="44.16816" lon="3.151">
        <ele>841.5</ele>
        <time>2019-04-19T13:51:39Z</time>
      </trkpt>
      <trkpt lat="44.16818" lon="3.15095">
        <ele>841.5</ele>
        <time>2019-04-19T13:51:40Z</time>
      </trkpt>
      <trkpt lat="44.16818" lon="3.15089">
        <ele>841.5</ele>
        <time>2019-04-19T13:51:41Z</time>
      </trkpt>
      <trkpt lat="44.16817" lon="3.15084">
        <ele>841.3</ele>
        <time>2019-04-19T13:51:46Z</time>
      </trkpt>
      <trkpt lat="44.16817" lon="3.1508">
        <ele>841.2</ele>
        <time>2019-04-19T13:51:48Z</time>
      </trkpt>
      <trkpt lat="44.16814" lon="3.15076">
        <ele>841.1</ele>
        <time>2019-04-19T13:51:51Z</time>
      </trkpt>
      <trkpt lat="44.16813" lon="3.15072">
        <ele>840.9</ele>
        <time>2019-04-19T13:51:53Z</time>
      </trkpt>
      <trkpt lat="44.16812" lon="3.15068">
        <ele>840.8</ele>
        <time>2019-04-19T13:51:54Z</time>
      </trkpt>
      <trkpt lat="44.1681" lon="3.15065">
        <ele>840.6</ele>
        <time>2019-04-19T13:51:55Z</time>
      </trkpt>
      <trkpt lat="44.16808" lon="3.1506">
        <ele>840.5</ele>
        <time>2019-04-19T13:51:57Z</time>
      </trkpt>
      <trkpt lat="44.16806" lon="3.15056">
        <ele>840.2</ele>
        <time>2019-04-19T13:51:59Z</time>
      </trkpt>
      <trkpt lat="44.16806" lon="3.15052">
        <ele>840</ele>
        <time>2019-04-19T13:52:14Z</time>
      </trkpt>
      <trkpt lat="44.16803" lon="3.1505">
        <ele>839.8</ele>
        <time>2019-04-19T13:52:16Z</time>
      </trkpt>
      <trkpt lat="44.16801" lon="3.15045">
        <ele>839.3</ele>
        <time>2019-04-19T13:52:18Z</time>
      </trkpt>
      <trkpt lat="44.16801" lon="3.15041">
        <ele>839.1</ele>
        <time>2019-04-19T13:52:19Z</time>
      </trkpt>
      <trkpt lat="44.16802" lon="3.15036">
        <ele>839.1</ele>
        <time>2019-04-19T13:52:21Z</time>
      </trkpt>
      <trkpt lat="44.16805" lon="3.15033">
        <ele>839</ele>
        <time>2019-04-19T13:52:23Z</time>
      </trkpt>
      <trkpt lat="44.16807" lon="3.15028">
        <ele>838.8</ele>
        <time>2019-04-19T13:52:25Z</time>
      </trkpt>
      <trkpt lat="44.1681" lon="3.15023">
        <ele>838.8</ele>
        <time>2019-04-19T13:52:27Z</time>
      </trkpt>
      <trkpt lat="44.16812" lon="3.15017">
        <ele>838.7</ele>
        <time>2019-04-19T13:52:29Z</time>
      </trkpt>
      <trkpt lat="44.16813" lon="3.15011">
        <ele>838.1</ele>
        <time>2019-04-19T13:52:31Z</time>
      </trkpt>
      <trkpt lat="44.16813" lon="3.15005">
        <ele>837.8</ele>
        <time>2019-04-19T13:52:33Z</time>
      </trkpt>
      <trkpt lat="44.16814" lon="3.14999">
        <ele>837.6</ele>
        <time>2019-04-19T13:52:35Z</time>
      </trkpt>
      <trkpt lat="44.16815" lon="3.14995">
        <ele>837.2</ele>
        <time>2019-04-19T13:52:36Z</time>
      </trkpt>
      <trkpt lat="44.16816" lon="3.14991">
        <ele>836.8</ele>
        <time>2019-04-19T13:52:37Z</time>
      </trkpt>
      <trkpt lat="44.1682" lon="3.14985">
        <ele>836.1</ele>
        <time>2019-04-19T13:52:39Z</time>
      </trkpt>
      <trkpt lat="44.16822" lon="3.14982">
        <ele>836.3</ele>
        <time>2019-04-19T13:52:42Z</time>
      </trkpt>
      <trkpt lat="44.16825" lon="3.14982">
        <ele>836.5</ele>
        <time>2019-04-19T13:52:50Z</time>
      </trkpt>
      <trkpt lat="44.16828" lon="3.14982">
        <ele>836.7</ele>
        <time>2019-04-19T13:52:57Z</time>
      </trkpt>
      <trkpt lat="44.16831" lon="3.1498">
        <ele>836.5</ele>
        <time>2019-04-19T13:53:00Z</time>
      </trkpt>
      <trkpt lat="44.16834" lon="3.14978">
        <ele>836.7</ele>
        <time>2019-04-19T13:53:02Z</time>
      </trkpt>
      <trkpt lat="44.16836" lon="3.14976">
        <ele>836.6</ele>
        <time>2019-04-19T13:53:03Z</time>
      </trkpt>
      <trkpt lat="44.16839" lon="3.14971">
        <ele>836.4</ele>
        <time>2019-04-19T13:53:05Z</time>
      </trkpt>
      <trkpt lat="44.16841" lon="3.14967">
        <ele>836</ele>
        <time>2019-04-19T13:53:07Z</time>
      </trkpt>
      <trkpt lat="44.16846" lon="3.14966">
        <ele>836.6</ele>
        <time>2019-04-19T13:53:09Z</time>
      </trkpt>
      <trkpt lat="44.1685" lon="3.14965">
        <ele>836.9</ele>
        <time>2019-04-19T13:53:11Z</time>
      </trkpt>
      <trkpt lat="44.16854" lon="3.14963">
        <ele>837.1</ele>
        <time>2019-04-19T13:53:13Z</time>
      </trkpt>
      <trkpt lat="44.16857" lon="3.14962">
        <ele>837.4</ele>
        <time>2019-04-19T13:53:14Z</time>
      </trkpt>
      <trkpt lat="44.1686" lon="3.14961">
        <ele>837.4</ele>
        <time>2019-04-19T13:53:15Z</time>
      </trkpt>
      <trkpt lat="44.16862" lon="3.1496">
        <ele>837.2</ele>
        <time>2019-04-19T13:53:16Z</time>
      </trkpt>
      <trkpt lat="44.16865" lon="3.14958">
        <ele>837.6</ele>
        <time>2019-04-19T13:53:17Z</time>
      </trkpt>
      <trkpt lat="44.1687" lon="3.14955">
        <ele>837.5</ele>
        <time>2019-04-19T13:53:19Z</time>
      </trkpt>
      <trkpt lat="44.16872" lon="3.14953">
        <ele>837.5</ele>
        <time>2019-04-19T13:53:20Z</time>
      </trkpt>
      <trkpt lat="44.16874" lon="3.1495">
        <ele>837</ele>
        <time>2019-04-19T13:53:21Z</time>
      </trkpt>
      <trkpt lat="44.16876" lon="3.14946">
        <ele>836.4</ele>
        <time>2019-04-19T13:53:23Z</time>
      </trkpt>
      <trkpt lat="44.16879" lon="3.14942">
        <ele>835.8</ele>
        <time>2019-04-19T13:53:25Z</time>
      </trkpt>
      <trkpt lat="44.16883" lon="3.14939">
        <ele>835.9</ele>
        <time>2019-04-19T13:53:27Z</time>
      </trkpt>
      <trkpt lat="44.16886" lon="3.14938">
        <ele>835.2</ele>
        <time>2019-04-19T13:53:28Z</time>
      </trkpt>
      <trkpt lat="44.16888" lon="3.14937">
        <ele>835.3</ele>
        <time>2019-04-19T13:53:29Z</time>
      </trkpt>
      <trkpt lat="44.16892" lon="3.14935">
        <ele>835.5</ele>
        <time>2019-04-19T13:53:31Z</time>
      </trkpt>
      <trkpt lat="44.16897" lon="3.14929">
        <ele>834</ele>
        <time>2019-04-19T13:53:33Z</time>
      </trkpt>
      <trkpt lat="44.16915" lon="3.14905">
        <ele>828.6</ele>
        <time>2019-04-19T13:53:35Z</time>
      </trkpt>
      <trkpt lat="44.16923" lon="3.14901">
        <ele>827.5</ele>
        <time>2019-04-19T13:53:38Z</time>
      </trkpt>
      <trkpt lat="44.16925" lon="3.149">
        <ele>826.2</ele>
        <time>2019-04-19T13:53:39Z</time>
      </trkpt>
      <trkpt lat="44.16927" lon="3.14895">
        <ele>824.9</ele>
        <time>2019-04-19T13:53:41Z</time>
      </trkpt>
      <trkpt lat="44.1693" lon="3.1489">
        <ele>823.6</ele>
        <time>2019-04-19T13:53:43Z</time>
      </trkpt>
      <trkpt lat="44.16939" lon="3.14884">
        <ele>822.3</ele>
        <time>2019-04-19T13:53:45Z</time>
      </trkpt>
      <trkpt lat="44.16942" lon="3.14883">
        <ele>822.4</ele>
        <time>2019-04-19T13:53:46Z</time>
      </trkpt>
      <trkpt lat="44.16945" lon="3.14882">
        <ele>821</ele>
        <time>2019-04-19T13:53:47Z</time>
      </trkpt>
      <trkpt lat="44.16948" lon="3.1488">
        <ele>821.1</ele>
        <time>2019-04-19T13:53:48Z</time>
      </trkpt>
      <trkpt lat="44.16951" lon="3.14878">
        <ele>819.7</ele>
        <time>2019-04-19T13:53:49Z</time>
      </trkpt>
      <trkpt lat="44.16954" lon="3.14876">
        <ele>819.7</ele>
        <time>2019-04-19T13:53:50Z</time>
      </trkpt>
      <trkpt lat="44.16956" lon="3.14874">
        <ele>818.2</ele>
        <time>2019-04-19T13:53:51Z</time>
      </trkpt>
      <trkpt lat="44.16961" lon="3.14871">
        <ele>818.3</ele>
        <time>2019-04-19T13:53:53Z</time>
      </trkpt>
      <trkpt lat="44.16966" lon="3.14869">
        <ele>816.9</ele>
        <time>2019-04-19T13:53:55Z</time>
      </trkpt>
      <trkpt lat="44.16971" lon="3.14865">
        <ele>815.6</ele>
        <time>2019-04-19T13:55:44Z</time>
      </trkpt>
      <trkpt lat="44.16976" lon="3.14866">
        <ele>817.5</ele>
        <time>2019-04-19T13:55:46Z</time>
      </trkpt>
      <trkpt lat="44.16979" lon="3.14866">
        <ele>817.8</ele>
        <time>2019-04-19T13:55:47Z</time>
      </trkpt>
      <trkpt lat="44.16982" lon="3.14866">
        <ele>818.1</ele>
        <time>2019-04-19T13:55:48Z</time>
      </trkpt>
      <trkpt lat="44.16986" lon="3.14866">
        <ele>818.4</ele>
        <time>2019-04-19T13:55:49Z</time>
      </trkpt>
      <trkpt lat="44.16989" lon="3.14866">
        <ele>818.7</ele>
        <time>2019-04-19T13:55:50Z</time>
      </trkpt>
      <trkpt lat="44.16992" lon="3.14865">
        <ele>817.5</ele>
        <time>2019-04-19T13:55:51Z</time>
      </trkpt>
      <trkpt lat="44.16995" lon="3.14865">
        <ele>817.9</ele>
        <time>2019-04-19T13:55:52Z</time>
      </trkpt>
      <trkpt lat="44.16999" lon="3.14865">
        <ele>818.9</ele>
        <time>2019-04-19T13:55:53Z</time>
      </trkpt>
      <trkpt lat="44.17003" lon="3.14865">
        <ele>819.4</ele>
        <time>2019-04-19T13:55:54Z</time>
      </trkpt>
      <trkpt lat="44.17006" lon="3.14865">
        <ele>820</ele>
        <time>2019-04-19T13:55:55Z</time>
      </trkpt>
      <trkpt lat="44.17009" lon="3.14864">
        <ele>820.6</ele>
        <time>2019-04-19T13:55:56Z</time>
      </trkpt>
      <trkpt lat="44.17012" lon="3.14864">
        <ele>821.1</ele>
        <time>2019-04-19T13:55:57Z</time>
      </trkpt>
      <trkpt lat="44.17016" lon="3.14864">
        <ele>821.7</ele>
        <time>2019-04-19T13:55:58Z</time>
      </trkpt>
      <trkpt lat="44.17019" lon="3.14862">
        <ele>822.3</ele>
        <time>2019-04-19T13:55:59Z</time>
      </trkpt>
      <trkpt lat="44.17022" lon="3.1486">
        <ele>821.4</ele>
        <time>2019-04-19T13:56:00Z</time>
      </trkpt>
      <trkpt lat="44.17025" lon="3.14856">
        <ele>820.5</ele>
        <time>2019-04-19T13:56:01Z</time>
      </trkpt>
      <trkpt lat="44.17028" lon="3.14853">
        <ele>821.3</ele>
        <time>2019-04-19T13:56:02Z</time>
      </trkpt>
      <trkpt lat="44.17031" lon="3.14851">
        <ele>820.7</ele>
        <time>2019-04-19T13:56:03Z</time>
      </trkpt>
      <trkpt lat="44.17034" lon="3.14848">
        <ele>820</ele>
        <time>2019-04-19T13:56:04Z</time>
      </trkpt>
      <trkpt lat="44.17037" lon="3.14846">
        <ele>820.8</ele>
        <time>2019-04-19T13:56:05Z</time>
      </trkpt>
      <trkpt lat="44.1704" lon="3.14844">
        <ele>820.2</ele>
        <time>2019-04-19T13:56:06Z</time>
      </trkpt>
      <trkpt lat="44.17043" lon="3.14842">
        <ele>820.9</ele>
        <time>2019-04-19T13:56:07Z</time>
      </trkpt>
      <trkpt lat="44.17046" lon="3.14841">
        <ele>821.7</ele>
        <time>2019-04-19T13:56:08Z</time>
      </trkpt>
      <trkpt lat="44.1705" lon="3.1484">
        <ele>822.5</ele>
        <time>2019-04-19T13:56:09Z</time>
      </trkpt>
      <trkpt lat="44.17052" lon="3.1484">
        <ele>823.3</ele>
        <time>2019-04-19T13:56:10Z</time>
      </trkpt>
      <trkpt lat="44.17056" lon="3.1484">
        <ele>824</ele>
        <time>2019-04-19T13:56:11Z</time>
      </trkpt>
      <trkpt lat="44.17059" lon="3.14841">
        <ele>824.8</ele>
        <time>2019-04-19T13:56:12Z</time>
      </trkpt>
      <trkpt lat="44.17061" lon="3.14842">
        <ele>825.6</ele>
        <time>2019-04-19T13:56:13Z</time>
      </trkpt>
      <trkpt lat="44.17064" lon="3.14843">
        <ele>826.3</ele>
        <time>2019-04-19T13:56:14Z</time>
      </trkpt>
      <trkpt lat="44.17069" lon="3.14845">
        <ele>828.3</ele>
        <time>2019-04-19T13:56:16Z</time>
      </trkpt>
      <trkpt lat="44.17074" lon="3.14846">
        <ele>829.8</ele>
        <time>2019-04-19T13:56:18Z</time>
      </trkpt>
      <trkpt lat="44.17077" lon="3.14846">
        <ele>830.6</ele>
        <time>2019-04-19T13:56:19Z</time>
      </trkpt>
      <trkpt lat="44.1708" lon="3.14846">
        <ele>831.4</ele>
        <time>2019-04-19T13:56:20Z</time>
      </trkpt>
      <trkpt lat="44.17083" lon="3.14846">
        <ele>832.2</ele>
        <time>2019-04-19T13:56:21Z</time>
      </trkpt>
      <trkpt lat="44.17087" lon="3.14845">
        <ele>832.9</ele>
        <time>2019-04-19T13:56:23Z</time>
      </trkpt>
      <trkpt lat="44.17091" lon="3.14843">
        <ele>833.4</ele>
        <time>2019-04-19T13:56:25Z</time>
      </trkpt>
      <trkpt lat="44.17094" lon="3.14841">
        <ele>833.4</ele>
        <time>2019-04-19T13:56:26Z</time>
      </trkpt>
      <trkpt lat="44.17096" lon="3.14839">
        <ele>833</ele>
        <time>2019-04-19T13:56:27Z</time>
      </trkpt>
      <trkpt lat="44.17101" lon="3.14836">
        <ele>834.1</ele>
        <time>2019-04-19T13:56:29Z</time>
      </trkpt>
      <trkpt lat="44.17103" lon="3.14834">
        <ele>833.5</ele>
        <time>2019-04-19T13:56:30Z</time>
      </trkpt>
      <trkpt lat="44.17106" lon="3.14831">
        <ele>832.4</ele>
        <time>2019-04-19T13:56:31Z</time>
      </trkpt>
      <trkpt lat="44.17108" lon="3.14828">
        <ele>832.9</ele>
        <time>2019-04-19T13:56:32Z</time>
      </trkpt>
      <trkpt lat="44.17111" lon="3.14827">
        <ele>833.4</ele>
        <time>2019-04-19T13:56:33Z</time>
      </trkpt>
      <trkpt lat="44.17116" lon="3.14828">
        <ele>834.4</ele>
        <time>2019-04-19T13:56:35Z</time>
      </trkpt>
      <trkpt lat="44.17121" lon="3.14831">
        <ele>834.8</ele>
        <time>2019-04-19T13:56:37Z</time>
      </trkpt>
      <trkpt lat="44.17123" lon="3.14832">
        <ele>836.1</ele>
        <time>2019-04-19T13:56:38Z</time>
      </trkpt>
      <trkpt lat="44.17127" lon="3.14836">
        <ele>837.4</ele>
        <time>2019-04-19T13:56:40Z</time>
      </trkpt>
      <trkpt lat="44.17132" lon="3.1484">
        <ele>837.9</ele>
        <time>2019-04-19T13:56:42Z</time>
      </trkpt>
      <trkpt lat="44.17137" lon="3.14842">
        <ele>839.1</ele>
        <time>2019-04-19T13:56:44Z</time>
      </trkpt>
      <trkpt lat="44.17139" lon="3.14843">
        <ele>839.4</ele>
        <time>2019-04-19T13:56:45Z</time>
      </trkpt>
      <trkpt lat="44.17142" lon="3.14845">
        <ele>840.5</ele>
        <time>2019-04-19T13:56:46Z</time>
      </trkpt>
      <trkpt lat="44.17145" lon="3.14846">
        <ele>840.8</ele>
        <time>2019-04-19T13:56:47Z</time>
      </trkpt>
      <trkpt lat="44.17148" lon="3.14848">
        <ele>841</ele>
        <time>2019-04-19T13:56:48Z</time>
      </trkpt>
      <trkpt lat="44.17151" lon="3.14849">
        <ele>841.9</ele>
        <time>2019-04-19T13:56:49Z</time>
      </trkpt>
      <trkpt lat="44.17154" lon="3.14851">
        <ele>842.1</ele>
        <time>2019-04-19T13:56:50Z</time>
      </trkpt>
      <trkpt lat="44.17157" lon="3.14854">
        <ele>843</ele>
        <time>2019-04-19T13:56:51Z</time>
      </trkpt>
      <trkpt lat="44.1716" lon="3.14858">
        <ele>843.8</ele>
        <time>2019-04-19T13:56:52Z</time>
      </trkpt>
      <trkpt lat="44.17163" lon="3.14862">
        <ele>844.7</ele>
        <time>2019-04-19T13:56:53Z</time>
      </trkpt>
      <trkpt lat="44.17167" lon="3.14867">
        <ele>845.5</ele>
        <time>2019-04-19T13:56:54Z</time>
      </trkpt>
      <trkpt lat="44.1717" lon="3.1487">
        <ele>846.2</ele>
        <time>2019-04-19T13:56:55Z</time>
      </trkpt>
      <trkpt lat="44.17173" lon="3.14873">
        <ele>846.3</ele>
        <time>2019-04-19T13:56:56Z</time>
      </trkpt>
      <trkpt lat="44.17176" lon="3.14876">
        <ele>847</ele>
        <time>2019-04-19T13:56:57Z</time>
      </trkpt>
      <trkpt lat="44.17179" lon="3.14879">
        <ele>847.6</ele>
        <time>2019-04-19T13:56:58Z</time>
      </trkpt>
      <trkpt lat="44.17182" lon="3.14882">
        <ele>847.6</ele>
        <time>2019-04-19T13:56:59Z</time>
      </trkpt>
      <trkpt lat="44.17184" lon="3.14884">
        <ele>848.2</ele>
        <time>2019-04-19T13:57:00Z</time>
      </trkpt>
      <trkpt lat="44.17187" lon="3.14887">
        <ele>848.2</ele>
        <time>2019-04-19T13:57:01Z</time>
      </trkpt>
      <trkpt lat="44.17189" lon="3.14891">
        <ele>848.8</ele>
        <time>2019-04-19T13:57:02Z</time>
      </trkpt>
      <trkpt lat="44.17191" lon="3.14895">
        <ele>849.3</ele>
        <time>2019-04-19T13:57:03Z</time>
      </trkpt>
      <trkpt lat="44.17193" lon="3.14899">
        <ele>849.7</ele>
        <time>2019-04-19T13:57:04Z</time>
      </trkpt>
      <trkpt lat="44.17196" lon="3.14902">
        <ele>850.1</ele>
        <time>2019-04-19T13:57:05Z</time>
      </trkpt>
      <trkpt lat="44.17198" lon="3.14906">
        <ele>850.4</ele>
        <time>2019-04-19T13:57:06Z</time>
      </trkpt>
      <trkpt lat="44.17201" lon="3.14909">
        <ele>850.7</ele>
        <time>2019-04-19T13:57:07Z</time>
      </trkpt>
      <trkpt lat="44.17204" lon="3.14913">
        <ele>850.9</ele>
        <time>2019-04-19T13:57:08Z</time>
      </trkpt>
      <trkpt lat="44.17206" lon="3.14917">
        <ele>850.8</ele>
        <time>2019-04-19T13:57:09Z</time>
      </trkpt>
      <trkpt lat="44.17209" lon="3.1492">
        <ele>851</ele>
        <time>2019-04-19T13:57:10Z</time>
      </trkpt>
      <trkpt lat="44.17211" lon="3.14924">
        <ele>851.1</ele>
        <time>2019-04-19T13:57:11Z</time>
      </trkpt>
      <trkpt lat="44.17213" lon="3.14927">
        <ele>851.3</ele>
        <time>2019-04-19T13:57:12Z</time>
      </trkpt>
      <trkpt lat="44.17215" lon="3.14931">
        <ele>851.3</ele>
        <time>2019-04-19T13:57:13Z</time>
      </trkpt>
      <trkpt lat="44.17218" lon="3.14935">
        <ele>851.4</ele>
        <time>2019-04-19T13:57:14Z</time>
      </trkpt>
      <trkpt lat="44.1722" lon="3.14939">
        <ele>851.4</ele>
        <time>2019-04-19T13:57:15Z</time>
      </trkpt>
      <trkpt lat="44.17222" lon="3.14942">
        <ele>851.4</ele>
        <time>2019-04-19T13:57:16Z</time>
      </trkpt>
      <trkpt lat="44.17224" lon="3.14946">
        <ele>851.5</ele>
        <time>2019-04-19T13:57:17Z</time>
      </trkpt>
      <trkpt lat="44.17226" lon="3.14949">
        <ele>851.4</ele>
        <time>2019-04-19T13:57:18Z</time>
      </trkpt>
      <trkpt lat="44.17228" lon="3.14952">
        <ele>851.4</ele>
        <time>2019-04-19T13:57:19Z</time>
      </trkpt>
      <trkpt lat="44.1723" lon="3.14956">
        <ele>851.4</ele>
        <time>2019-04-19T13:57:20Z</time>
      </trkpt>
      <trkpt lat="44.17233" lon="3.1496">
        <ele>851.4</ele>
        <time>2019-04-19T13:57:21Z</time>
      </trkpt>
      <trkpt lat="44.17236" lon="3.14963">
        <ele>851.3</ele>
        <time>2019-04-19T13:57:22Z</time>
      </trkpt>
      <trkpt lat="44.17239" lon="3.14967">
        <ele>851.3</ele>
        <time>2019-04-19T13:57:23Z</time>
      </trkpt>
      <trkpt lat="44.17243" lon="3.1497">
        <ele>851.3</ele>
        <time>2019-04-19T13:57:24Z</time>
      </trkpt>
      <trkpt lat="44.17246" lon="3.14973">
        <ele>851.3</ele>
        <time>2019-04-19T13:57:25Z</time>
      </trkpt>
      <trkpt lat="44.17249" lon="3.14976">
        <ele>851.2</ele>
        <time>2019-04-19T13:57:26Z</time>
      </trkpt>
      <trkpt lat="44.17251" lon="3.14979">
        <ele>851.2</ele>
        <time>2019-04-19T13:57:27Z</time>
      </trkpt>
      <trkpt lat="44.17254" lon="3.14981">
        <ele>851.3</ele>
        <time>2019-04-19T13:57:28Z</time>
      </trkpt>
      <trkpt lat="44.17255" lon="3.14984">
        <ele>851.3</ele>
        <time>2019-04-19T13:57:29Z</time>
      </trkpt>
      <trkpt lat="44.17257" lon="3.14988">
        <ele>851.3</ele>
        <time>2019-04-19T13:57:30Z</time>
      </trkpt>
      <trkpt lat="44.17259" lon="3.1499">
        <ele>851.3</ele>
        <time>2019-04-19T13:57:31Z</time>
      </trkpt>
      <trkpt lat="44.17263" lon="3.14992">
        <ele>851.3</ele>
        <time>2019-04-19T13:57:33Z</time>
      </trkpt>
      <trkpt lat="44.17266" lon="3.14991">
        <ele>851.2</ele>
        <time>2019-04-19T13:57:34Z</time>
      </trkpt>
      <trkpt lat="44.17269" lon="3.14988">
        <ele>851.1</ele>
        <time>2019-04-19T13:57:35Z</time>
      </trkpt>
      <trkpt lat="44.17272" lon="3.14986">
        <ele>851.1</ele>
        <time>2019-04-19T13:57:36Z</time>
      </trkpt>
      <trkpt lat="44.17275" lon="3.14984">
        <ele>850.9</ele>
        <time>2019-04-19T13:57:37Z</time>
      </trkpt>
      <trkpt lat="44.17279" lon="3.14982">
        <ele>850.8</ele>
        <time>2019-04-19T13:57:38Z</time>
      </trkpt>
      <trkpt lat="44.17283" lon="3.1498">
        <ele>850.7</ele>
        <time>2019-04-19T13:57:39Z</time>
      </trkpt>
      <trkpt lat="44.17289" lon="3.1498">
        <ele>850.5</ele>
        <time>2019-04-19T13:57:40Z</time>
      </trkpt>
      <trkpt lat="44.17294" lon="3.14981">
        <ele>850.5</ele>
        <time>2019-04-19T13:57:41Z</time>
      </trkpt>
      <trkpt lat="44.17297" lon="3.14983">
        <ele>850.5</ele>
        <time>2019-04-19T13:57:42Z</time>
      </trkpt>
      <trkpt lat="44.17303" lon="3.14983">
        <ele>850.4</ele>
        <time>2019-04-19T13:57:43Z</time>
      </trkpt>
      <trkpt lat="44.17308" lon="3.14986">
        <ele>850.5</ele>
        <time>2019-04-19T13:57:44Z</time>
      </trkpt>
      <trkpt lat="44.17313" lon="3.14989">
        <ele>850.4</ele>
        <time>2019-04-19T13:57:45Z</time>
      </trkpt>
      <trkpt lat="44.17318" lon="3.14991">
        <ele>850.5</ele>
        <time>2019-04-19T13:57:46Z</time>
      </trkpt>
      <trkpt lat="44.17322" lon="3.14994">
        <ele>850.5</ele>
        <time>2019-04-19T13:57:47Z</time>
      </trkpt>
      <trkpt lat="44.17325" lon="3.14996">
        <ele>850.6</ele>
        <time>2019-04-19T13:57:48Z</time>
      </trkpt>
      <trkpt lat="44.1733" lon="3.14994">
        <ele>850.5</ele>
        <time>2019-04-19T13:57:49Z</time>
      </trkpt>
      <trkpt lat="44.17335" lon="3.14996">
        <ele>850.5</ele>
        <time>2019-04-19T13:57:50Z</time>
      </trkpt>
      <trkpt lat="44.17339" lon="3.14997">
        <ele>850.5</ele>
        <time>2019-04-19T13:57:51Z</time>
      </trkpt>
      <trkpt lat="44.17342" lon="3.14997">
        <ele>850.5</ele>
        <time>2019-04-19T13:57:52Z</time>
      </trkpt>
      <trkpt lat="44.17345" lon="3.14995">
        <ele>850.6</ele>
        <time>2019-04-19T13:57:53Z</time>
      </trkpt>
      <trkpt lat="44.17348" lon="3.14992">
        <ele>850.5</ele>
        <time>2019-04-19T13:57:54Z</time>
      </trkpt>
      <trkpt lat="44.1735" lon="3.14986">
        <ele>850.4</ele>
        <time>2019-04-19T13:57:56Z</time>
      </trkpt>
      <trkpt lat="44.17353" lon="3.14982">
        <ele>850.5</ele>
        <time>2019-04-19T13:57:57Z</time>
      </trkpt>
      <trkpt lat="44.17355" lon="3.14979">
        <ele>850.5</ele>
        <time>2019-04-19T13:57:58Z</time>
      </trkpt>
      <trkpt lat="44.1736" lon="3.14977">
        <ele>850.5</ele>
        <time>2019-04-19T13:58:00Z</time>
      </trkpt>
      <trkpt lat="44.17364" lon="3.14977">
        <ele>850.6</ele>
        <time>2019-04-19T13:58:01Z</time>
      </trkpt>
      <trkpt lat="44.17368" lon="3.14978">
        <ele>850.7</ele>
        <time>2019-04-19T13:58:02Z</time>
      </trkpt>
      <trkpt lat="44.17372" lon="3.14978">
        <ele>850.8</ele>
        <time>2019-04-19T13:58:03Z</time>
      </trkpt>
      <trkpt lat="44.17376" lon="3.14979">
        <ele>850.8</ele>
        <time>2019-04-19T13:58:04Z</time>
      </trkpt>
      <trkpt lat="44.1738" lon="3.14978">
        <ele>850.8</ele>
        <time>2019-04-19T13:58:05Z</time>
      </trkpt>
      <trkpt lat="44.17383" lon="3.14979">
        <ele>850.8</ele>
        <time>2019-04-19T13:58:06Z</time>
      </trkpt>
      <trkpt lat="44.17388" lon="3.14979">
        <ele>850.8</ele>
        <time>2019-04-19T13:58:08Z</time>
      </trkpt>
      <trkpt lat="44.17392" lon="3.14978">
        <ele>850.7</ele>
        <time>2019-04-19T13:58:09Z</time>
      </trkpt>
      <trkpt lat="44.17397" lon="3.14977">
        <ele>850.6</ele>
        <time>2019-04-19T13:58:10Z</time>
      </trkpt>
      <trkpt lat="44.17402" lon="3.14976">
        <ele>850.4</ele>
        <time>2019-04-19T13:58:11Z</time>
      </trkpt>
      <trkpt lat="44.17407" lon="3.14969">
        <ele>850.1</ele>
        <time>2019-04-19T13:58:12Z</time>
      </trkpt>
      <trkpt lat="44.17409" lon="3.14965">
        <ele>849.9</ele>
        <time>2019-04-19T13:58:13Z</time>
      </trkpt>
      <trkpt lat="44.17411" lon="3.14961">
        <ele>849.7</ele>
        <time>2019-04-19T13:58:14Z</time>
      </trkpt>
      <trkpt lat="44.17415" lon="3.14959">
        <ele>849.2</ele>
        <time>2019-04-19T13:58:15Z</time>
      </trkpt>
      <trkpt lat="44.17418" lon="3.14957">
        <ele>849.1</ele>
        <time>2019-04-19T13:58:16Z</time>
      </trkpt>
      <trkpt lat="44.17421" lon="3.14958">
        <ele>849</ele>
        <time>2019-04-19T13:58:17Z</time>
      </trkpt>
      <trkpt lat="44.17426" lon="3.14958">
        <ele>848.9</ele>
        <time>2019-04-19T13:58:18Z</time>
      </trkpt>
      <trkpt lat="44.17429" lon="3.14956">
        <ele>848.5</ele>
        <time>2019-04-19T13:58:19Z</time>
      </trkpt>
      <trkpt lat="44.17432" lon="3.14954">
        <ele>848.4</ele>
        <time>2019-04-19T13:58:20Z</time>
      </trkpt>
      <trkpt lat="44.17438" lon="3.14945">
        <ele>847.4</ele>
        <time>2019-04-19T13:58:22Z</time>
      </trkpt>
      <trkpt lat="44.17444" lon="3.14942">
        <ele>846.8</ele>
        <time>2019-04-19T13:58:23Z</time>
      </trkpt>
      <trkpt lat="44.17447" lon="3.14943">
        <ele>846.6</ele>
        <time>2019-04-19T13:58:24Z</time>
      </trkpt>
      <trkpt lat="44.17452" lon="3.14946">
        <ele>846.8</ele>
        <time>2019-04-19T13:58:26Z</time>
      </trkpt>
      <trkpt lat="44.17454" lon="3.14947">
        <ele>846.7</ele>
        <time>2019-04-19T13:58:27Z</time>
      </trkpt>
      <trkpt lat="44.17458" lon="3.14947">
        <ele>846.9</ele>
        <time>2019-04-19T13:58:28Z</time>
      </trkpt>
      <trkpt lat="44.17461" lon="3.14948">
        <ele>846.7</ele>
        <time>2019-04-19T13:58:29Z</time>
      </trkpt>
      <trkpt lat="44.17464" lon="3.14949">
        <ele>846.5</ele>
        <time>2019-04-19T13:58:30Z</time>
      </trkpt>
      <trkpt lat="44.17467" lon="3.14949">
        <ele>846.3</ele>
        <time>2019-04-19T13:58:31Z</time>
      </trkpt>
      <trkpt lat="44.17469" lon="3.1495">
        <ele>846.3</ele>
        <time>2019-04-19T13:58:32Z</time>
      </trkpt>
      <trkpt lat="44.17473" lon="3.14949">
        <ele>845.8</ele>
        <time>2019-04-19T13:58:33Z</time>
      </trkpt>
      <trkpt lat="44.17477" lon="3.14949">
        <ele>845.6</ele>
        <time>2019-04-19T13:58:34Z</time>
      </trkpt>
      <trkpt lat="44.17482" lon="3.14949">
        <ele>845.1</ele>
        <time>2019-04-19T13:58:35Z</time>
      </trkpt>
      <trkpt lat="44.17487" lon="3.14949">
        <ele>844.9</ele>
        <time>2019-04-19T13:58:36Z</time>
      </trkpt>
      <trkpt lat="44.17492" lon="3.14949">
        <ele>844.3</ele>
        <time>2019-04-19T13:58:37Z</time>
      </trkpt>
      <trkpt lat="44.17497" lon="3.14949">
        <ele>844.1</ele>
        <time>2019-04-19T13:58:38Z</time>
      </trkpt>
      <trkpt lat="44.17502" lon="3.14947">
        <ele>843.2</ele>
        <time>2019-04-19T13:58:39Z</time>
      </trkpt>
      <trkpt lat="44.17507" lon="3.14945">
        <ele>842.7</ele>
        <time>2019-04-19T13:58:40Z</time>
      </trkpt>
      <trkpt lat="44.17511" lon="3.14943">
        <ele>842.1</ele>
        <time>2019-04-19T13:58:41Z</time>
      </trkpt>
      <trkpt lat="44.17515" lon="3.14941">
        <ele>842</ele>
        <time>2019-04-19T13:58:42Z</time>
      </trkpt>
      <trkpt lat="44.17519" lon="3.14938">
        <ele>841.3</ele>
        <time>2019-04-19T13:58:43Z</time>
      </trkpt>
      <trkpt lat="44.17523" lon="3.14935">
        <ele>841.2</ele>
        <time>2019-04-19T13:58:44Z</time>
      </trkpt>
      <trkpt lat="44.17526" lon="3.14931">
        <ele>840.7</ele>
        <time>2019-04-19T13:58:45Z</time>
      </trkpt>
      <trkpt lat="44.17531" lon="3.14924">
        <ele>839.6</ele>
        <time>2019-04-19T13:58:46Z</time>
      </trkpt>
      <trkpt lat="44.17533" lon="3.14916">
        <ele>838.4</ele>
        <time>2019-04-19T13:58:47Z</time>
      </trkpt>
      <trkpt lat="44.17537" lon="3.14914">
        <ele>838.3</ele>
        <time>2019-04-19T13:58:48Z</time>
      </trkpt>
      <trkpt lat="44.1754" lon="3.14912">
        <ele>837.5</ele>
        <time>2019-04-19T13:58:49Z</time>
      </trkpt>
      <trkpt lat="44.17537" lon="3.14915">
        <ele>838.3</ele>
        <time>2019-04-19T13:58:50Z</time>
      </trkpt>
      <trkpt lat="44.1754" lon="3.14916">
        <ele>838.2</ele>
        <time>2019-04-19T13:58:55Z</time>
      </trkpt>
      <trkpt lat="44.17546" lon="3.14915">
        <ele>838</ele>
        <time>2019-04-19T13:59:01Z</time>
      </trkpt>
      <trkpt lat="44.17553" lon="3.14917">
        <ele>838.2</ele>
        <time>2019-04-19T13:59:03Z</time>
      </trkpt>
      <trkpt lat="44.17554" lon="3.14921">
        <ele>838.2</ele>
        <time>2019-04-19T13:59:04Z</time>
      </trkpt>
      <trkpt lat="44.17558" lon="3.14923">
        <ele>838.5</ele>
        <time>2019-04-19T13:59:05Z</time>
      </trkpt>
      <trkpt lat="44.17562" lon="3.14925">
        <ele>838.4</ele>
        <time>2019-04-19T13:59:07Z</time>
      </trkpt>
      <trkpt lat="44.17565" lon="3.14928">
        <ele>838.8</ele>
        <time>2019-04-19T13:59:08Z</time>
      </trkpt>
      <trkpt lat="44.17568" lon="3.1493">
        <ele>839.1</ele>
        <time>2019-04-19T13:59:09Z</time>
      </trkpt>
      <trkpt lat="44.17571" lon="3.14931">
        <ele>839.1</ele>
        <time>2019-04-19T13:59:10Z</time>
      </trkpt>
      <trkpt lat="44.17574" lon="3.1493">
        <ele>839.1</ele>
        <time>2019-04-19T13:59:11Z</time>
      </trkpt>
      <trkpt lat="44.17578" lon="3.14928">
        <ele>838.8</ele>
        <time>2019-04-19T13:59:12Z</time>
      </trkpt>
      <trkpt lat="44.17586" lon="3.14921">
        <ele>838</ele>
        <time>2019-04-19T13:59:13Z</time>
      </trkpt>
      <trkpt lat="44.17591" lon="3.14918">
        <ele>838.2</ele>
        <time>2019-04-19T13:59:14Z</time>
      </trkpt>
      <trkpt lat="44.17595" lon="3.14915">
        <ele>837.8</ele>
        <time>2019-04-19T13:59:15Z</time>
      </trkpt>
      <trkpt lat="44.17599" lon="3.14913">
        <ele>837.9</ele>
        <time>2019-04-19T13:59:16Z</time>
      </trkpt>
      <trkpt lat="44.17602" lon="3.14909">
        <ele>837.5</ele>
        <time>2019-04-19T13:59:17Z</time>
      </trkpt>
      <trkpt lat="44.17607" lon="3.1491">
        <ele>837.6</ele>
        <time>2019-04-19T13:59:18Z</time>
      </trkpt>
      <trkpt lat="44.17603" lon="3.14915">
        <ele>838</ele>
        <time>2019-04-19T13:59:19Z</time>
      </trkpt>
      <trkpt lat="44.17609" lon="3.14913">
        <ele>838.1</ele>
        <time>2019-04-19T13:59:24Z</time>
      </trkpt>
      <trkpt lat="44.17612" lon="3.14913">
        <ele>838</ele>
        <time>2019-04-19T13:59:25Z</time>
      </trkpt>
      <trkpt lat="44.17615" lon="3.14912">
        <ele>837.6</ele>
        <time>2019-04-19T13:59:26Z</time>
      </trkpt>
      <trkpt lat="44.17617" lon="3.14915">
        <ele>838</ele>
        <time>2019-04-19T13:59:27Z</time>
      </trkpt>
      <trkpt lat="44.17623" lon="3.14914">
        <ele>838</ele>
        <time>2019-04-19T13:59:28Z</time>
      </trkpt>
      <trkpt lat="44.17628" lon="3.14915">
        <ele>837.9</ele>
        <time>2019-04-19T13:59:29Z</time>
      </trkpt>
      <trkpt lat="44.17633" lon="3.14915">
        <ele>837.8</ele>
        <time>2019-04-19T13:59:30Z</time>
      </trkpt>
      <trkpt lat="44.17638" lon="3.14916">
        <ele>837.8</ele>
        <time>2019-04-19T13:59:31Z</time>
      </trkpt>
      <trkpt lat="44.17642" lon="3.14916">
        <ele>837.6</ele>
        <time>2019-04-19T13:59:32Z</time>
      </trkpt>
      <trkpt lat="44.17648" lon="3.14914">
        <ele>837.5</ele>
        <time>2019-04-19T13:59:33Z</time>
      </trkpt>
      <trkpt lat="44.17653" lon="3.14912">
        <ele>837.1</ele>
        <time>2019-04-19T13:59:34Z</time>
      </trkpt>
      <trkpt lat="44.17658" lon="3.1491">
        <ele>836.9</ele>
        <time>2019-04-19T13:59:35Z</time>
      </trkpt>
      <trkpt lat="44.17666" lon="3.14903">
        <ele>836.2</ele>
        <time>2019-04-19T13:59:36Z</time>
      </trkpt>
      <trkpt lat="44.17672" lon="3.14901">
        <ele>835.9</ele>
        <time>2019-04-19T13:59:37Z</time>
      </trkpt>
      <trkpt lat="44.17678" lon="3.14896">
        <ele>835.4</ele>
        <time>2019-04-19T13:59:38Z</time>
      </trkpt>
      <trkpt lat="44.17685" lon="3.14892">
        <ele>835</ele>
        <time>2019-04-19T13:59:39Z</time>
      </trkpt>
      <trkpt lat="44.1769" lon="3.14889">
        <ele>834.6</ele>
        <time>2019-04-19T13:59:40Z</time>
      </trkpt>
      <trkpt lat="44.17696" lon="3.14886">
        <ele>834.3</ele>
        <time>2019-04-19T13:59:41Z</time>
      </trkpt>
      <trkpt lat="44.17702" lon="3.1488">
        <ele>834.1</ele>
        <time>2019-04-19T13:59:42Z</time>
      </trkpt>
      <trkpt lat="44.1771" lon="3.14873">
        <ele>833.6</ele>
        <time>2019-04-19T13:59:43Z</time>
      </trkpt>
      <trkpt lat="44.17715" lon="3.14869">
        <ele>833.4</ele>
        <time>2019-04-19T13:59:44Z</time>
      </trkpt>
      <trkpt lat="44.17725" lon="3.1486">
        <ele>832.9</ele>
        <time>2019-04-19T13:59:45Z</time>
      </trkpt>
      <trkpt lat="44.17733" lon="3.14856">
        <ele>832.6</ele>
        <time>2019-04-19T13:59:46Z</time>
      </trkpt>
      <trkpt lat="44.17739" lon="3.14853">
        <ele>832.5</ele>
        <time>2019-04-19T13:59:47Z</time>
      </trkpt>
      <trkpt lat="44.17745" lon="3.14848">
        <ele>832.3</ele>
        <time>2019-04-19T13:59:48Z</time>
      </trkpt>
      <trkpt lat="44.1775" lon="3.14842">
        <ele>832.2</ele>
        <time>2019-04-19T13:59:49Z</time>
      </trkpt>
      <trkpt lat="44.17753" lon="3.14837">
        <ele>832.2</ele>
        <time>2019-04-19T13:59:50Z</time>
      </trkpt>
      <trkpt lat="44.17756" lon="3.14833">
        <ele>832</ele>
        <time>2019-04-19T13:59:51Z</time>
      </trkpt>
      <trkpt lat="44.17763" lon="3.14827">
        <ele>831.8</ele>
        <time>2019-04-19T13:59:52Z</time>
      </trkpt>
      <trkpt lat="44.17767" lon="3.14825">
        <ele>831.8</ele>
        <time>2019-04-19T13:59:53Z</time>
      </trkpt>
      <trkpt lat="44.17772" lon="3.14822">
        <ele>831.6</ele>
        <time>2019-04-19T13:59:54Z</time>
      </trkpt>
      <trkpt lat="44.17775" lon="3.14822">
        <ele>831.6</ele>
        <time>2019-04-19T13:59:55Z</time>
      </trkpt>
      <trkpt lat="44.1778" lon="3.14824">
        <ele>831.5</ele>
        <time>2019-04-19T13:59:56Z</time>
      </trkpt>
      <trkpt lat="44.17783" lon="3.14823">
        <ele>831.5</ele>
        <time>2019-04-19T13:59:57Z</time>
      </trkpt>
      <trkpt lat="44.17786" lon="3.14823">
        <ele>831.5</ele>
        <time>2019-04-19T13:59:58Z</time>
      </trkpt>
      <trkpt lat="44.1779" lon="3.14822">
        <ele>831.5</ele>
        <time>2019-04-19T13:59:59Z</time>
      </trkpt>
      <trkpt lat="44.17796" lon="3.14819">
        <ele>831.5</ele>
        <time>2019-04-19T14:00:00Z</time>
      </trkpt>
      <trkpt lat="44.17802" lon="3.14816">
        <ele>831.6</ele>
        <time>2019-04-19T14:00:01Z</time>
      </trkpt>
      <trkpt lat="44.17805" lon="3.14818">
        <ele>831.6</ele>
        <time>2019-04-19T14:00:02Z</time>
      </trkpt>
      <trkpt lat="44.17809" lon="3.14818">
        <ele>831.8</ele>
        <time>2019-04-19T14:00:03Z</time>
      </trkpt>
      <trkpt lat="44.17813" lon="3.14818">
        <ele>831.9</ele>
        <time>2019-04-19T14:00:04Z</time>
      </trkpt>
      <trkpt lat="44.17816" lon="3.14819">
        <ele>831.9</ele>
        <time>2019-04-19T14:00:05Z</time>
      </trkpt>
      <trkpt lat="44.17819" lon="3.14819">
        <ele>832</ele>
        <time>2019-04-19T14:00:06Z</time>
      </trkpt>
      <trkpt lat="44.17823" lon="3.14821">
        <ele>832</ele>
        <time>2019-04-19T14:00:08Z</time>
      </trkpt>
      <trkpt lat="44.17827" lon="3.14821">
        <ele>831.9</ele>
        <time>2019-04-19T14:00:10Z</time>
      </trkpt>
      <trkpt lat="44.17832" lon="3.14822">
        <ele>831.9</ele>
        <time>2019-04-19T14:00:12Z</time>
      </trkpt>
      <trkpt lat="44.17836" lon="3.14822">
        <ele>832</ele>
        <time>2019-04-19T14:00:13Z</time>
      </trkpt>
      <trkpt lat="44.1784" lon="3.14821">
        <ele>832.1</ele>
        <time>2019-04-19T14:00:14Z</time>
      </trkpt>
      <trkpt lat="44.17844" lon="3.1482">
        <ele>832.2</ele>
        <time>2019-04-19T14:00:16Z</time>
      </trkpt>
      <trkpt lat="44.17847" lon="3.14819">
        <ele>832.5</ele>
        <time>2019-04-19T14:00:17Z</time>
      </trkpt>
      <trkpt lat="44.1785" lon="3.14819">
        <ele>832.8</ele>
        <time>2019-04-19T14:00:18Z</time>
      </trkpt>
      <trkpt lat="44.17853" lon="3.14819">
        <ele>833.1</ele>
        <time>2019-04-19T14:00:19Z</time>
      </trkpt>
      <trkpt lat="44.17856" lon="3.1482">
        <ele>833.5</ele>
        <time>2019-04-19T14:00:20Z</time>
      </trkpt>
      <trkpt lat="44.17859" lon="3.14822">
        <ele>833.9</ele>
        <time>2019-04-19T14:00:21Z</time>
      </trkpt>
      <trkpt lat="44.17862" lon="3.14823">
        <ele>834.4</ele>
        <time>2019-04-19T14:00:22Z</time>
      </trkpt>
      <trkpt lat="44.17866" lon="3.14827">
        <ele>834.8</ele>
        <time>2019-04-19T14:00:24Z</time>
      </trkpt>
      <trkpt lat="44.17871" lon="3.14829">
        <ele>835.7</ele>
        <time>2019-04-19T14:00:26Z</time>
      </trkpt>
      <trkpt lat="44.17875" lon="3.14831">
        <ele>836.2</ele>
        <time>2019-04-19T14:00:28Z</time>
      </trkpt>
      <trkpt lat="44.17877" lon="3.14833">
        <ele>836.5</ele>
        <time>2019-04-19T14:00:30Z</time>
      </trkpt>
      <trkpt lat="44.17876" lon="3.14828">
        <ele>836.6</ele>
        <time>2019-04-19T14:00:35Z</time>
      </trkpt>
      <trkpt lat="44.17876" lon="3.14823">
        <ele>836.2</ele>
        <time>2019-04-19T14:00:37Z</time>
      </trkpt>
      <trkpt lat="44.17874" lon="3.1482">
        <ele>836.2</ele>
        <time>2019-04-19T14:00:39Z</time>
      </trkpt>
      <trkpt lat="44.17871" lon="3.14816">
        <ele>835.8</ele>
        <time>2019-04-19T14:00:41Z</time>
      </trkpt>
      <trkpt lat="44.17867" lon="3.14814">
        <ele>835.4</ele>
        <time>2019-04-19T14:00:43Z</time>
      </trkpt>
      <trkpt lat="44.17862" lon="3.14812">
        <ele>834.5</ele>
        <time>2019-04-19T14:00:45Z</time>
      </trkpt>
      <trkpt lat="44.17859" lon="3.1481">
        <ele>834</ele>
        <time>2019-04-19T14:00:46Z</time>
      </trkpt>
      <trkpt lat="44.17857" lon="3.14804">
        <ele>833.6</ele>
        <time>2019-04-19T14:00:48Z</time>
      </trkpt>
      <trkpt lat="44.17858" lon="3.148">
        <ele>833.9</ele>
        <time>2019-04-19T14:00:49Z</time>
      </trkpt>
      <trkpt lat="44.1786" lon="3.14795">
        <ele>833.8</ele>
        <time>2019-04-19T14:00:50Z</time>
      </trkpt>
      <trkpt lat="44.17862" lon="3.1479">
        <ele>834</ele>
        <time>2019-04-19T14:00:51Z</time>
      </trkpt>
      <trkpt lat="44.17863" lon="3.14785">
        <ele>833.8</ele>
        <time>2019-04-19T14:00:52Z</time>
      </trkpt>
      <trkpt lat="44.17865" lon="3.1478">
        <ele>833.4</ele>
        <time>2019-04-19T14:00:53Z</time>
      </trkpt>
      <trkpt lat="44.17866" lon="3.14776">
        <ele>833.4</ele>
        <time>2019-04-19T14:00:54Z</time>
      </trkpt>
      <trkpt lat="44.1787" lon="3.14771">
        <ele>832.7</ele>
        <time>2019-04-19T14:00:56Z</time>
      </trkpt>
      <trkpt lat="44.17873" lon="3.1477">
        <ele>832.7</ele>
        <time>2019-04-19T14:00:58Z</time>
      </trkpt>
      <trkpt lat="44.17877" lon="3.14771">
        <ele>832.7</ele>
        <time>2019-04-19T14:01:00Z</time>
      </trkpt>
      <trkpt lat="44.1788" lon="3.1477">
        <ele>832.6</ele>
        <time>2019-04-19T14:01:03Z</time>
      </trkpt>
      <trkpt lat="44.17883" lon="3.14768">
        <ele>832.5</ele>
        <time>2019-04-19T14:01:05Z</time>
      </trkpt>
      <trkpt lat="44.17887" lon="3.14767">
        <ele>832.2</ele>
        <time>2019-04-19T14:01:07Z</time>
      </trkpt>
      <trkpt lat="44.1789" lon="3.14766">
        <ele>831.2</ele>
        <time>2019-04-19T14:01:09Z</time>
      </trkpt>
      <trkpt lat="44.17893" lon="3.14764">
        <ele>830.8</ele>
        <time>2019-04-19T14:01:11Z</time>
      </trkpt>
      <trkpt lat="44.17898" lon="3.14763">
        <ele>830</ele>
        <time>2019-04-19T14:01:13Z</time>
      </trkpt>
      <trkpt lat="44.17902" lon="3.14761">
        <ele>828.7</ele>
        <time>2019-04-19T14:01:15Z</time>
      </trkpt>
      <trkpt lat="44.17906" lon="3.14759">
        <ele>828.1</ele>
        <time>2019-04-19T14:01:17Z</time>
      </trkpt>
      <trkpt lat="44.17909" lon="3.14759">
        <ele>827.4</ele>
        <time>2019-04-19T14:01:18Z</time>
      </trkpt>
      <trkpt lat="44.17912" lon="3.14758">
        <ele>825.6</ele>
        <time>2019-04-19T14:01:19Z</time>
      </trkpt>
      <trkpt lat="44.17915" lon="3.14755">
        <ele>824.6</ele>
        <time>2019-04-19T14:01:21Z</time>
      </trkpt>
      <trkpt lat="44.17919" lon="3.14753">
        <ele>822.4</ele>
        <time>2019-04-19T14:01:23Z</time>
      </trkpt>
      <trkpt lat="44.17922" lon="3.14751">
        <ele>821.3</ele>
        <time>2019-04-19T14:01:24Z</time>
      </trkpt>
      <trkpt lat="44.17926" lon="3.14747">
        <ele>817.6</ele>
        <time>2019-04-19T14:01:25Z</time>
      </trkpt>
      <trkpt lat="44.17929" lon="3.14744">
        <ele>815</ele>
        <time>2019-04-19T14:01:26Z</time>
      </trkpt>
      <trkpt lat="44.17931" lon="3.14742">
        <ele>813.5</ele>
        <time>2019-04-19T14:01:27Z</time>
      </trkpt>
      <trkpt lat="44.17935" lon="3.14738">
        <ele>810.6</ele>
        <time>2019-04-19T14:01:29Z</time>
      </trkpt>
      <trkpt lat="44.17938" lon="3.14734">
        <ele>807.5</ele>
        <time>2019-04-19T14:01:31Z</time>
      </trkpt>
      <trkpt lat="44.1794" lon="3.1473">
        <ele>806</ele>
        <time>2019-04-19T14:01:35Z</time>
      </trkpt>
      <trkpt lat="44.17942" lon="3.14727">
        <ele>802.5</ele>
        <time>2019-04-19T14:01:40Z</time>
      </trkpt>
      <trkpt lat="44.17942" lon="3.14735">
        <ele>805.7</ele>
        <time>2019-04-19T14:02:44Z</time>
      </trkpt>
      <trkpt lat="44.17943" lon="3.14739">
        <ele>807.2</ele>
        <time>2019-04-19T14:02:46Z</time>
      </trkpt>
      <trkpt lat="44.17943" lon="3.14744">
        <ele>808.7</ele>
        <time>2019-04-19T14:02:48Z</time>
      </trkpt>
      <trkpt lat="44.17942" lon="3.14749">
        <ele>810</ele>
        <time>2019-04-19T14:02:50Z</time>
      </trkpt>
      <trkpt lat="44.17945" lon="3.14751">
        <ele>809.6</ele>
        <time>2019-04-19T14:02:57Z</time>
      </trkpt>
      <trkpt lat="44.17946" lon="3.14754">
        <ele>809.6</ele>
        <time>2019-04-19T14:03:00Z</time>
      </trkpt>
      <trkpt lat="44.17948" lon="3.14758">
        <ele>809.1</ele>
        <time>2019-04-19T14:03:02Z</time>
      </trkpt>
      <trkpt lat="44.1795" lon="3.14762">
        <ele>808.5</ele>
        <time>2019-04-19T14:03:04Z</time>
      </trkpt>
      <trkpt lat="44.17951" lon="3.14766">
        <ele>809.9</ele>
        <time>2019-04-19T14:03:06Z</time>
      </trkpt>
      <trkpt lat="44.17951" lon="3.1477">
        <ele>811.3</ele>
        <time>2019-04-19T14:03:08Z</time>
      </trkpt>
      <trkpt lat="44.17948" lon="3.14774">
        <ele>814.5</ele>
        <time>2019-04-19T14:03:10Z</time>
      </trkpt>
      <trkpt lat="44.17944" lon="3.14779">
        <ele>817.5</ele>
        <time>2019-04-19T14:03:12Z</time>
      </trkpt>
      <trkpt lat="44.17943" lon="3.14784">
        <ele>821.3</ele>
        <time>2019-04-19T14:03:14Z</time>
      </trkpt>
      <trkpt lat="44.17942" lon="3.14788">
        <ele>821.3</ele>
        <time>2019-04-19T14:03:16Z</time>
      </trkpt>
      <trkpt lat="44.17941" lon="3.14793">
        <ele>823.1</ele>
        <time>2019-04-19T14:03:19Z</time>
      </trkpt>
      <trkpt lat="44.17941" lon="3.14797">
        <ele>823.1</ele>
        <time>2019-04-19T14:03:21Z</time>
      </trkpt>
      <trkpt lat="44.17943" lon="3.14803">
        <ele>824.8</ele>
        <time>2019-04-19T14:03:23Z</time>
      </trkpt>
      <trkpt lat="44.17945" lon="3.14807">
        <ele>824.2</ele>
        <time>2019-04-19T14:03:25Z</time>
      </trkpt>
      <trkpt lat="44.17948" lon="3.14811">
        <ele>823.5</ele>
        <time>2019-04-19T14:03:27Z</time>
      </trkpt>
      <trkpt lat="44.1795" lon="3.14814">
        <ele>822.7</ele>
        <time>2019-04-19T14:03:29Z</time>
      </trkpt>
      <trkpt lat="44.17953" lon="3.1482">
        <ele>821.9</ele>
        <time>2019-04-19T14:03:31Z</time>
      </trkpt>
      <trkpt lat="44.17954" lon="3.14826">
        <ele>822.6</ele>
        <time>2019-04-19T14:03:33Z</time>
      </trkpt>
      <trkpt lat="44.17953" lon="3.14832">
        <ele>823.7</ele>
        <time>2019-04-19T14:03:35Z</time>
      </trkpt>
      <trkpt lat="44.17952" lon="3.14836">
        <ele>825.7</ele>
        <time>2019-04-19T14:03:37Z</time>
      </trkpt>
      <trkpt lat="44.17949" lon="3.14839">
        <ele>827.1</ele>
        <time>2019-04-19T14:03:40Z</time>
      </trkpt>
      <trkpt lat="44.17945" lon="3.14842">
        <ele>828.9</ele>
        <time>2019-04-19T14:03:42Z</time>
      </trkpt>
      <trkpt lat="44.17944" lon="3.14846">
        <ele>829.2</ele>
        <time>2019-04-19T14:03:44Z</time>
      </trkpt>
      <trkpt lat="44.17944" lon="3.14851">
        <ele>829.5</ele>
        <time>2019-04-19T14:03:46Z</time>
      </trkpt>
      <trkpt lat="44.17945" lon="3.14858">
        <ele>829.9</ele>
        <time>2019-04-19T14:03:48Z</time>
      </trkpt>
      <trkpt lat="44.17946" lon="3.14863">
        <ele>830</ele>
        <time>2019-04-19T14:03:50Z</time>
      </trkpt>
      <trkpt lat="44.17948" lon="3.14866">
        <ele>828.9</ele>
        <time>2019-04-19T14:03:52Z</time>
      </trkpt>
      <trkpt lat="44.17952" lon="3.14867">
        <ele>827.6</ele>
        <time>2019-04-19T14:03:54Z</time>
      </trkpt>
      <trkpt lat="44.17955" lon="3.14871">
        <ele>826.5</ele>
        <time>2019-04-19T14:03:56Z</time>
      </trkpt>
      <trkpt lat="44.17958" lon="3.14878">
        <ele>825.3</ele>
        <time>2019-04-19T14:03:58Z</time>
      </trkpt>
      <trkpt lat="44.17959" lon="3.14882">
        <ele>825.3</ele>
        <time>2019-04-19T14:03:59Z</time>
      </trkpt>
      <trkpt lat="44.1796" lon="3.14886">
        <ele>824.2</ele>
        <time>2019-04-19T14:04:00Z</time>
      </trkpt>
      <trkpt lat="44.17961" lon="3.14891">
        <ele>824.1</ele>
        <time>2019-04-19T14:04:01Z</time>
      </trkpt>
      <trkpt lat="44.17963" lon="3.14894">
        <ele>822.9</ele>
        <time>2019-04-19T14:04:02Z</time>
      </trkpt>
      <trkpt lat="44.17963" lon="3.14899">
        <ele>822.8</ele>
        <time>2019-04-19T14:04:04Z</time>
      </trkpt>
      <trkpt lat="44.17964" lon="3.14903">
        <ele>822.7</ele>
        <time>2019-04-19T14:04:07Z</time>
      </trkpt>
      <trkpt lat="44.17967" lon="3.14905">
        <ele>821.3</ele>
        <time>2019-04-19T14:04:11Z</time>
      </trkpt>
      <trkpt lat="44.17968" lon="3.14909">
        <ele>821.3</ele>
        <time>2019-04-19T14:04:18Z</time>
      </trkpt>
      <trkpt lat="44.17969" lon="3.14905">
        <ele>819.8</ele>
        <time>2019-04-19T14:04:25Z</time>
      </trkpt>
      <trkpt lat="44.17973" lon="3.14907">
        <ele>818.2</ele>
        <time>2019-04-19T14:04:29Z</time>
      </trkpt>
      <trkpt lat="44.17975" lon="3.14909">
        <ele>816.4</ele>
        <time>2019-04-19T14:04:31Z</time>
      </trkpt>
      <trkpt lat="44.17978" lon="3.14911">
        <ele>814.7</ele>
        <time>2019-04-19T14:04:33Z</time>
      </trkpt>
      <trkpt lat="44.17983" lon="3.14916">
        <ele>813.1</ele>
        <time>2019-04-19T14:05:36Z</time>
      </trkpt>
      <trkpt lat="44.17988" lon="3.14915">
        <ele>810.2</ele>
        <time>2019-04-19T14:05:39Z</time>
      </trkpt>
      <trkpt lat="44.17992" lon="3.14914">
        <ele>808.6</ele>
        <time>2019-04-19T14:05:41Z</time>
      </trkpt>
      <trkpt lat="44.17996" lon="3.14916">
        <ele>806.9</ele>
        <time>2019-04-19T14:05:43Z</time>
      </trkpt>
      <trkpt lat="44.17995" lon="3.14921">
        <ele>807</ele>
        <time>2019-04-19T14:05:46Z</time>
      </trkpt>
      <trkpt lat="44.17993" lon="3.14928">
        <ele>807.1</ele>
        <time>2019-04-19T14:05:48Z</time>
      </trkpt>
      <trkpt lat="44.17992" lon="3.14934">
        <ele>808.7</ele>
        <time>2019-04-19T14:05:49Z</time>
      </trkpt>
      <trkpt lat="44.17991" lon="3.14937">
        <ele>808.6</ele>
        <time>2019-04-19T14:05:50Z</time>
      </trkpt>
      <trkpt lat="44.17988" lon="3.14943">
        <ele>809.7</ele>
        <time>2019-04-19T14:05:52Z</time>
      </trkpt>
      <trkpt lat="44.17986" lon="3.14948">
        <ele>810.8</ele>
        <time>2019-04-19T14:05:54Z</time>
      </trkpt>
      <trkpt lat="44.17985" lon="3.14955">
        <ele>810.6</ele>
        <time>2019-04-19T14:05:56Z</time>
      </trkpt>
      <trkpt lat="44.17983" lon="3.1496">
        <ele>811.6</ele>
        <time>2019-04-19T14:05:58Z</time>
      </trkpt>
      <trkpt lat="44.17981" lon="3.14963">
        <ele>811.3</ele>
        <time>2019-04-19T14:06:00Z</time>
      </trkpt>
      <trkpt lat="44.17979" lon="3.14966">
        <ele>812.3</ele>
        <time>2019-04-19T14:06:01Z</time>
      </trkpt>
      <trkpt lat="44.17976" lon="3.14971">
        <ele>813.4</ele>
        <time>2019-04-19T14:06:02Z</time>
      </trkpt>
      <trkpt lat="44.17974" lon="3.14976">
        <ele>814.5</ele>
        <time>2019-04-19T14:06:03Z</time>
      </trkpt>
      <trkpt lat="44.17971" lon="3.14982">
        <ele>815.3</ele>
        <time>2019-04-19T14:06:04Z</time>
      </trkpt>
      <trkpt lat="44.17969" lon="3.14988">
        <ele>815</ele>
        <time>2019-04-19T14:06:05Z</time>
      </trkpt>
      <trkpt lat="44.17968" lon="3.14995">
        <ele>815.7</ele>
        <time>2019-04-19T14:06:06Z</time>
      </trkpt>
      <trkpt lat="44.17968" lon="3.15002">
        <ele>815.4</ele>
        <time>2019-04-19T14:06:07Z</time>
      </trkpt>
      <trkpt lat="44.17969" lon="3.15009">
        <ele>813.6</ele>
        <time>2019-04-19T14:06:08Z</time>
      </trkpt>
      <trkpt lat="44.1797" lon="3.15016">
        <ele>813</ele>
        <time>2019-04-19T14:06:09Z</time>
      </trkpt>
      <trkpt lat="44.17971" lon="3.15024">
        <ele>812.6</ele>
        <time>2019-04-19T14:06:10Z</time>
      </trkpt>
      <trkpt lat="44.17971" lon="3.15029">
        <ele>810.5</ele>
        <time>2019-04-19T14:06:11Z</time>
      </trkpt>
      <trkpt lat="44.17972" lon="3.15035">
        <ele>810</ele>
        <time>2019-04-19T14:06:13Z</time>
      </trkpt>
      <trkpt lat="44.1797" lon="3.15038">
        <ele>811</ele>
        <time>2019-04-19T14:06:14Z</time>
      </trkpt>
      <trkpt lat="44.17967" lon="3.15041">
        <ele>812.2</ele>
        <time>2019-04-19T14:06:16Z</time>
      </trkpt>
      <trkpt lat="44.17962" lon="3.15047">
        <ele>812.6</ele>
        <time>2019-04-19T14:06:18Z</time>
      </trkpt>
      <trkpt lat="44.17958" lon="3.15052">
        <ele>814.3</ele>
        <time>2019-04-19T14:06:19Z</time>
      </trkpt>
      <trkpt lat="44.17954" lon="3.15058">
        <ele>815.1</ele>
        <time>2019-04-19T14:06:20Z</time>
      </trkpt>
      <trkpt lat="44.1795" lon="3.15064">
        <ele>815.8</ele>
        <time>2019-04-19T14:06:21Z</time>
      </trkpt>
      <trkpt lat="44.17947" lon="3.1507">
        <ele>816.7</ele>
        <time>2019-04-19T14:06:22Z</time>
      </trkpt>
      <trkpt lat="44.17944" lon="3.15076">
        <ele>817.6</ele>
        <time>2019-04-19T14:06:23Z</time>
      </trkpt>
      <trkpt lat="44.17941" lon="3.15083">
        <ele>818.3</ele>
        <time>2019-04-19T14:06:24Z</time>
      </trkpt>
      <trkpt lat="44.17941" lon="3.15116">
        <ele>817.4</ele>
        <time>2019-04-19T14:06:26Z</time>
      </trkpt>
      <trkpt lat="44.17945" lon="3.15124">
        <ele>816.3</ele>
        <time>2019-04-19T14:06:27Z</time>
      </trkpt>
      <trkpt lat="44.17948" lon="3.15128">
        <ele>815.3</ele>
        <time>2019-04-19T14:06:28Z</time>
      </trkpt>
      <trkpt lat="44.17956" lon="3.15134">
        <ele>813.2</ele>
        <time>2019-04-19T14:06:30Z</time>
      </trkpt>
      <trkpt lat="44.17958" lon="3.15137">
        <ele>812.1</ele>
        <time>2019-04-19T14:06:31Z</time>
      </trkpt>
      <trkpt lat="44.17962" lon="3.15143">
        <ele>810</ele>
        <time>2019-04-19T14:06:33Z</time>
      </trkpt>
      <trkpt lat="44.17959" lon="3.15145">
        <ele>810.9</ele>
        <time>2019-04-19T14:06:34Z</time>
      </trkpt>
      <trkpt lat="44.17959" lon="3.15153">
        <ele>810.9</ele>
        <time>2019-04-19T14:06:36Z</time>
      </trkpt>
      <trkpt lat="44.17959" lon="3.15158">
        <ele>810.7</ele>
        <time>2019-04-19T14:06:37Z</time>
      </trkpt>
      <trkpt lat="44.17961" lon="3.15163">
        <ele>810.7</ele>
        <time>2019-04-19T14:06:38Z</time>
      </trkpt>
      <trkpt lat="44.17963" lon="3.15169">
        <ele>809.6</ele>
        <time>2019-04-19T14:06:39Z</time>
      </trkpt>
      <trkpt lat="44.17965" lon="3.15174">
        <ele>809.6</ele>
        <time>2019-04-19T14:06:40Z</time>
      </trkpt>
      <trkpt lat="44.17966" lon="3.15179">
        <ele>808.6</ele>
        <time>2019-04-19T14:06:41Z</time>
      </trkpt>
      <trkpt lat="44.17966" lon="3.15184">
        <ele>808.7</ele>
        <time>2019-04-19T14:06:42Z</time>
      </trkpt>
      <trkpt lat="44.17966" lon="3.15191">
        <ele>808.7</ele>
        <time>2019-04-19T14:06:43Z</time>
      </trkpt>
      <trkpt lat="44.17966" lon="3.15197">
        <ele>808.8</ele>
        <time>2019-04-19T14:06:44Z</time>
      </trkpt>
      <trkpt lat="44.17966" lon="3.15202">
        <ele>808.8</ele>
        <time>2019-04-19T14:06:45Z</time>
      </trkpt>
      <trkpt lat="44.17967" lon="3.15209">
        <ele>808.9</ele>
        <time>2019-04-19T14:06:46Z</time>
      </trkpt>
      <trkpt lat="44.17967" lon="3.15214">
        <ele>808.9</ele>
        <time>2019-04-19T14:06:47Z</time>
      </trkpt>
      <trkpt lat="44.17968" lon="3.15219">
        <ele>807.9</ele>
        <time>2019-04-19T14:06:48Z</time>
      </trkpt>
      <trkpt lat="44.1797" lon="3.15224">
        <ele>807.9</ele>
        <time>2019-04-19T14:06:49Z</time>
      </trkpt>
      <trkpt lat="44.17972" lon="3.15229">
        <ele>806.9</ele>
        <time>2019-04-19T14:06:50Z</time>
      </trkpt>
      <trkpt lat="44.17973" lon="3.15234">
        <ele>806.9</ele>
        <time>2019-04-19T14:06:51Z</time>
      </trkpt>
      <trkpt lat="44.17974" lon="3.15239">
        <ele>806.9</ele>
        <time>2019-04-19T14:06:52Z</time>
      </trkpt>
      <trkpt lat="44.17975" lon="3.15243">
        <ele>805.8</ele>
        <time>2019-04-19T14:06:53Z</time>
      </trkpt>
      <trkpt lat="44.17978" lon="3.15249">
        <ele>804.8</ele>
        <time>2019-04-19T14:06:55Z</time>
      </trkpt>
      <trkpt lat="44.17979" lon="3.15252">
        <ele>804.8</ele>
        <time>2019-04-19T14:06:56Z</time>
      </trkpt>
      <trkpt lat="44.17981" lon="3.15258">
        <ele>804</ele>
        <time>2019-04-19T14:06:58Z</time>
      </trkpt>
      <trkpt lat="44.17983" lon="3.15262">
        <ele>804</ele>
        <time>2019-04-19T14:06:59Z</time>
      </trkpt>
      <trkpt lat="44.17984" lon="3.15266">
        <ele>803.4</ele>
        <time>2019-04-19T14:07:00Z</time>
      </trkpt>
      <trkpt lat="44.17986" lon="3.1527">
        <ele>802.7</ele>
        <time>2019-04-19T14:07:01Z</time>
      </trkpt>
      <trkpt lat="44.17988" lon="3.15273">
        <ele>802.1</ele>
        <time>2019-04-19T14:07:02Z</time>
      </trkpt>
      <trkpt lat="44.1799" lon="3.15276">
        <ele>801.6</ele>
        <time>2019-04-19T14:07:03Z</time>
      </trkpt>
      <trkpt lat="44.17992" lon="3.1528">
        <ele>801.1</ele>
        <time>2019-04-19T14:07:04Z</time>
      </trkpt>
      <trkpt lat="44.17995" lon="3.15284">
        <ele>800.5</ele>
        <time>2019-04-19T14:07:05Z</time>
      </trkpt>
      <trkpt lat="44.17998" lon="3.15289">
        <ele>799.9</ele>
        <time>2019-04-19T14:07:06Z</time>
      </trkpt>
      <trkpt lat="44.18001" lon="3.15294">
        <ele>799.3</ele>
        <time>2019-04-19T14:07:07Z</time>
      </trkpt>
      <trkpt lat="44.18004" lon="3.15299">
        <ele>798.7</ele>
        <time>2019-04-19T14:07:08Z</time>
      </trkpt>
      <trkpt lat="44.18007" lon="3.15303">
        <ele>798.1</ele>
        <time>2019-04-19T14:07:09Z</time>
      </trkpt>
      <trkpt lat="44.18011" lon="3.15306">
        <ele>797.6</ele>
        <time>2019-04-19T14:07:11Z</time>
      </trkpt>
      <trkpt lat="44.18014" lon="3.15307">
        <ele>797.3</ele>
        <time>2019-04-19T14:07:14Z</time>
      </trkpt>
      <trkpt lat="44.18011" lon="3.15309">
        <ele>797.1</ele>
        <time>2019-04-19T14:07:22Z</time>
      </trkpt>
      <trkpt lat="44.1801" lon="3.15313">
        <ele>796.8</ele>
        <time>2019-04-19T14:07:26Z</time>
      </trkpt>
      <trkpt lat="44.18011" lon="3.15316">
        <ele>796.6</ele>
        <time>2019-04-19T14:07:29Z</time>
      </trkpt>
      <trkpt lat="44.18015" lon="3.15322">
        <ele>796</ele>
        <time>2019-04-19T14:07:36Z</time>
      </trkpt>
      <trkpt lat="44.18018" lon="3.15326">
        <ele>795.6</ele>
        <time>2019-04-19T14:07:37Z</time>
      </trkpt>
      <trkpt lat="44.18022" lon="3.1533">
        <ele>795.1</ele>
        <time>2019-04-19T14:07:38Z</time>
      </trkpt>
      <trkpt lat="44.18028" lon="3.15341">
        <ele>794.7</ele>
        <time>2019-04-19T14:07:39Z</time>
      </trkpt>
      <trkpt lat="44.18033" lon="3.15347">
        <ele>795</ele>
        <time>2019-04-19T14:07:40Z</time>
      </trkpt>
      <trkpt lat="44.18038" lon="3.15354">
        <ele>795.5</ele>
        <time>2019-04-19T14:07:41Z</time>
      </trkpt>
      <trkpt lat="44.18042" lon="3.15358">
        <ele>796</ele>
        <time>2019-04-19T14:07:42Z</time>
      </trkpt>
      <trkpt lat="44.18044" lon="3.15356">
        <ele>794.9</ele>
        <time>2021-09-30T14:12:43Z</time>
      </trkpt>
      <trkpt lat="44.18049" lon="3.15363">
        <ele>793.8</ele>
        <time>2021-09-30T14:12:44Z</time>
      </trkpt>
      <trkpt lat="44.18055" lon="3.15379">
        <ele>792.3</ele>
        <time>2021-09-30T14:12:46Z</time>
      </trkpt>
      <trkpt lat="44.18057" lon="3.15388">
        <ele>791.9</ele>
        <time>2021-09-30T14:12:47Z</time>
      </trkpt>
      <trkpt lat="44.18062" lon="3.15396">
        <ele>791.6</ele>
        <time>2021-09-30T14:12:49Z</time>
      </trkpt>
      <trkpt lat="44.18066" lon="3.15394">
        <ele>791.5</ele>
        <time>2021-09-30T14:12:50Z</time>
      </trkpt>
      <trkpt lat="44.18075" lon="3.15388">
        <ele>791.5</ele>
        <time>2021-09-30T14:12:52Z</time>
      </trkpt>
      <trkpt lat="44.18078" lon="3.15381">
        <ele>791.6</ele>
        <time>2021-09-30T14:12:54Z</time>
      </trkpt>
      <trkpt lat="44.1808" lon="3.15378">
        <ele>791.7</ele>
        <time>2021-09-30T14:12:55Z</time>
      </trkpt>
      <trkpt lat="44.18083" lon="3.15375">
        <ele>791.7</ele>
        <time>2021-09-30T14:12:56Z</time>
      </trkpt>
      <trkpt lat="44.18088" lon="3.15368">
        <ele>791.8</ele>
        <time>2021-09-30T14:12:58Z</time>
      </trkpt>
      <trkpt lat="44.18092" lon="3.15365">
        <ele>791.7</ele>
        <time>2021-09-30T14:13:00Z</time>
      </trkpt>
      <trkpt lat="44.18094" lon="3.15364">
        <ele>791.7</ele>
        <time>2021-09-30T14:13:01Z</time>
      </trkpt>
      <trkpt lat="44.18095" lon="3.15365">
        <ele>792.1</ele>
        <time>2021-09-30T14:13:02Z</time>
      </trkpt>
      <trkpt lat="44.18096" lon="3.15372">
        <ele>792.5</ele>
        <time>2021-09-30T14:13:04Z</time>
      </trkpt>
      <trkpt lat="44.18095" lon="3.15375">
        <ele>792.9</ele>
        <time>2021-09-30T14:13:05Z</time>
      </trkpt>
      <trkpt lat="44.18093" lon="3.15382">
        <ele>793.1</ele>
        <time>2021-09-30T14:13:07Z</time>
      </trkpt>
      <trkpt lat="44.18093" lon="3.15386">
        <ele>793.4</ele>
        <time>2021-09-30T14:13:08Z</time>
      </trkpt>
      <trkpt lat="44.18093" lon="3.15387">
        <ele>793.4</ele>
        <time>2021-09-30T14:13:09Z</time>
      </trkpt>
      <trkpt lat="44.18091" lon="3.15393">
        <ele>793.8</ele>
        <time>2021-09-30T14:13:11Z</time>
      </trkpt>
      <trkpt lat="44.18091" lon="3.15395">
        <ele>793.6</ele>
        <time>2021-09-30T14:13:12Z</time>
      </trkpt>
      <trkpt lat="44.18088" lon="3.15401">
        <ele>793.9</ele>
        <time>2021-09-30T14:13:14Z</time>
      </trkpt>
      <trkpt lat="44.18087" lon="3.15404">
        <ele>793.8</ele>
        <time>2021-09-30T14:13:15Z</time>
      </trkpt>
      <trkpt lat="44.18085" lon="3.1541">
        <ele>793.6</ele>
        <time>2021-09-30T14:13:17Z</time>
      </trkpt>
      <trkpt lat="44.18083" lon="3.15413">
        <ele>793.9</ele>
        <time>2021-09-30T14:13:18Z</time>
      </trkpt>
      <trkpt lat="44.18081" lon="3.15419">
        <ele>793.7</ele>
        <time>2021-09-30T14:13:20Z</time>
      </trkpt>
      <trkpt lat="44.18079" lon="3.1542">
        <ele>794</ele>
        <time>2021-09-30T14:13:21Z</time>
      </trkpt>
      <trkpt lat="44.18076" lon="3.15426">
        <ele>793.6</ele>
        <time>2021-09-30T14:13:23Z</time>
      </trkpt>
      <trkpt lat="44.18072" lon="3.15431">
        <ele>793.7</ele>
        <time>2021-09-30T14:13:25Z</time>
      </trkpt>
      <trkpt lat="44.18069" lon="3.15434">
        <ele>793.8</ele>
        <time>2021-09-30T14:13:27Z</time>
      </trkpt>
      <trkpt lat="44.18066" lon="3.15436">
        <ele>793.6</ele>
        <time>2021-09-30T14:13:28Z</time>
      </trkpt>
      <trkpt lat="44.18063" lon="3.15439">
        <ele>793.9</ele>
        <time>2021-09-30T14:13:30Z</time>
      </trkpt>
      <trkpt lat="44.18061" lon="3.15443">
        <ele>794.3</ele>
        <time>2021-09-30T14:13:31Z</time>
      </trkpt>
      <trkpt lat="44.18061" lon="3.15445">
        <ele>794.3</ele>
        <time>2021-09-30T14:13:32Z</time>
      </trkpt>
      <trkpt lat="44.18064" lon="3.15448">
        <ele>794.8</ele>
        <time>2021-09-30T14:13:34Z</time>
      </trkpt>
      <trkpt lat="44.18067" lon="3.15448">
        <ele>795</ele>
        <time>2021-09-30T14:13:35Z</time>
      </trkpt>
      <trkpt lat="44.18072" lon="3.15446">
        <ele>795.3</ele>
        <time>2021-09-30T14:13:37Z</time>
      </trkpt>
      <trkpt lat="44.18074" lon="3.15444">
        <ele>795.1</ele>
        <time>2021-09-30T14:13:38Z</time>
      </trkpt>
      <trkpt lat="44.18078" lon="3.15442">
        <ele>795.4</ele>
        <time>2021-09-30T14:13:40Z</time>
      </trkpt>
      <trkpt lat="44.18082" lon="3.15439">
        <ele>795.4</ele>
        <time>2021-09-30T14:13:42Z</time>
      </trkpt>
      <trkpt lat="44.18085" lon="3.15438">
        <ele>796.2</ele>
        <time>2021-09-30T14:13:43Z</time>
      </trkpt>
      <trkpt lat="44.18088" lon="3.15439">
        <ele>796.6</ele>
        <time>2021-09-30T14:13:45Z</time>
      </trkpt>
      <trkpt lat="44.18092" lon="3.1544">
        <ele>797</ele>
        <time>2021-09-30T14:13:46Z</time>
      </trkpt>
      <trkpt lat="44.18094" lon="3.1544">
        <ele>797.1</ele>
        <time>2021-09-30T14:13:47Z</time>
      </trkpt>
      <trkpt lat="44.18095" lon="3.1544">
        <ele>797.5</ele>
        <time>2021-09-30T14:13:49Z</time>
      </trkpt>
      <trkpt lat="44.18099" lon="3.1544">
        <ele>797.9</ele>
        <time>2021-09-30T14:13:51Z</time>
      </trkpt>
      <trkpt lat="44.18099" lon="3.1544">
        <ele>798</ele>
        <time>2021-09-30T14:13:52Z</time>
      </trkpt>
      <trkpt lat="44.18101" lon="3.15441">
        <ele>798.6</ele>
        <time>2021-09-30T14:13:53Z</time>
      </trkpt>
      <trkpt lat="44.18102" lon="3.15441">
        <ele>798.6</ele>
        <time>2021-09-30T14:13:54Z</time>
      </trkpt>
      <trkpt lat="44.18103" lon="3.15442">
        <ele>798.7</ele>
        <time>2021-09-30T14:13:55Z</time>
      </trkpt>
      <trkpt lat="44.18106" lon="3.15444">
        <ele>799.1</ele>
        <time>2021-09-30T14:13:57Z</time>
      </trkpt>
      <trkpt lat="44.18107" lon="3.15444">
        <ele>799.6</ele>
        <time>2021-09-30T14:13:58Z</time>
      </trkpt>
      <trkpt lat="44.1811" lon="3.15445">
        <ele>799.6</ele>
        <time>2021-09-30T14:13:59Z</time>
      </trkpt>
      <trkpt lat="44.18113" lon="3.15445">
        <ele>800.5</ele>
        <time>2021-09-30T14:14:01Z</time>
      </trkpt>
      <trkpt lat="44.18117" lon="3.15444">
        <ele>801</ele>
        <time>2021-09-30T14:14:02Z</time>
      </trkpt>
      <trkpt lat="44.18118" lon="3.15443">
        <ele>801</ele>
        <time>2021-09-30T14:14:03Z</time>
      </trkpt>
      <trkpt lat="44.18122" lon="3.15442">
        <ele>801.5</ele>
        <time>2021-09-30T14:14:05Z</time>
      </trkpt>
      <trkpt lat="44.18125" lon="3.15441">
        <ele>801.9</ele>
        <time>2021-09-30T14:14:06Z</time>
      </trkpt>
      <trkpt lat="44.18127" lon="3.15439">
        <ele>802.4</ele>
        <time>2021-09-30T14:14:08Z</time>
      </trkpt>
      <trkpt lat="44.18128" lon="3.15438">
        <ele>802.4</ele>
        <time>2021-09-30T14:14:09Z</time>
      </trkpt>
      <trkpt lat="44.18129" lon="3.15437">
        <ele>802.9</ele>
        <time>2021-09-30T14:14:10Z</time>
      </trkpt>
      <trkpt lat="44.1813" lon="3.15436">
        <ele>802.8</ele>
        <time>2021-09-30T14:14:11Z</time>
      </trkpt>
      <trkpt lat="44.18134" lon="3.15434">
        <ele>803.2</ele>
        <time>2021-09-30T14:14:12Z</time>
      </trkpt>
      <trkpt lat="44.18135" lon="3.15433">
        <ele>803.6</ele>
        <time>2021-09-30T14:14:13Z</time>
      </trkpt>
      <trkpt lat="44.18141" lon="3.15429">
        <ele>804.2</ele>
        <time>2021-09-30T14:14:15Z</time>
      </trkpt>
      <trkpt lat="44.18145" lon="3.15426">
        <ele>804.3</ele>
        <time>2021-09-30T14:14:16Z</time>
      </trkpt>
      <trkpt lat="44.18149" lon="3.15423">
        <ele>804.4</ele>
        <time>2021-09-30T14:14:17Z</time>
      </trkpt>
      <trkpt lat="44.18153" lon="3.1542">
        <ele>804.8</ele>
        <time>2021-09-30T14:14:19Z</time>
      </trkpt>
      <trkpt lat="44.18156" lon="3.15417">
        <ele>804.7</ele>
        <time>2021-09-30T14:14:20Z</time>
      </trkpt>
      <trkpt lat="44.18161" lon="3.15416">
        <ele>804.8</ele>
        <time>2021-09-30T14:14:22Z</time>
      </trkpt>
      <trkpt lat="44.18167" lon="3.15414">
        <ele>804.6</ele>
        <time>2021-09-30T14:14:24Z</time>
      </trkpt>
      <trkpt lat="44.18174" lon="3.15413">
        <ele>804.5</ele>
        <time>2021-09-30T14:14:26Z</time>
      </trkpt>
      <trkpt lat="44.1818" lon="3.15414">
        <ele>804.2</ele>
        <time>2021-09-30T14:14:28Z</time>
      </trkpt>
      <trkpt lat="44.18183" lon="3.15412">
        <ele>804</ele>
        <time>2021-09-30T14:14:29Z</time>
      </trkpt>
      <trkpt lat="44.18188" lon="3.15409">
        <ele>803.2</ele>
        <time>2021-09-30T14:14:31Z</time>
      </trkpt>
      <trkpt lat="44.1819" lon="3.15406">
        <ele>802.4</ele>
        <time>2021-09-30T14:14:32Z</time>
      </trkpt>
      <trkpt lat="44.18193" lon="3.15402">
        <ele>801.8</ele>
        <time>2021-09-30T14:14:34Z</time>
      </trkpt>
      <trkpt lat="44.18196" lon="3.15402">
        <ele>801.4</ele>
        <time>2021-09-30T14:14:35Z</time>
      </trkpt>
      <trkpt lat="44.18199" lon="3.15405">
        <ele>801.1</ele>
        <time>2021-09-30T14:14:37Z</time>
      </trkpt>
      <trkpt lat="44.18201" lon="3.15407">
        <ele>800.7</ele>
        <time>2021-09-30T14:14:38Z</time>
      </trkpt>
      <trkpt lat="44.18201" lon="3.15406">
        <ele>800.4</ele>
        <time>2021-09-30T14:14:40Z</time>
      </trkpt>
      <trkpt lat="44.18202" lon="3.15407">
        <ele>800.8</ele>
        <time>2021-09-30T14:14:42Z</time>
      </trkpt>
      <trkpt lat="44.18202" lon="3.15407">
        <ele>800.8</ele>
        <time>2021-09-30T14:14:43Z</time>
      </trkpt>
      <trkpt lat="44.18202" lon="3.15407">
        <ele>800</ele>
        <time>2021-09-30T14:14:45Z</time>
      </trkpt>
      <trkpt lat="44.18202" lon="3.15407">
        <ele>800.1</ele>
        <time>2021-09-30T14:14:46Z</time>
      </trkpt>
      <trkpt lat="44.18203" lon="3.15407">
        <ele>800.1</ele>
        <time>2021-09-30T14:14:47Z</time>
      </trkpt>
      <trkpt lat="44.18207" lon="3.15409">
        <ele>799.3</ele>
        <time>2021-09-30T14:15:45Z</time>
      </trkpt>
      <trkpt lat="44.18209" lon="3.15415">
        <ele>798.9</ele>
        <time>2021-09-30T14:15:47Z</time>
      </trkpt>
      <trkpt lat="44.1821" lon="3.15419">
        <ele>799.3</ele>
        <time>2021-09-30T14:15:48Z</time>
      </trkpt>
      <trkpt lat="44.18211" lon="3.15427">
        <ele>799.9</ele>
        <time>2021-09-30T14:15:50Z</time>
      </trkpt>
      <trkpt lat="44.18212" lon="3.15429">
        <ele>799.3</ele>
        <time>2021-09-30T14:15:51Z</time>
      </trkpt>
      <trkpt lat="44.18214" lon="3.15432">
        <ele>799.6</ele>
        <time>2021-09-30T14:15:53Z</time>
      </trkpt>
      <trkpt lat="44.18215" lon="3.15438">
        <ele>798.9</ele>
        <time>2021-09-30T14:15:54Z</time>
      </trkpt>
      <trkpt lat="44.18216" lon="3.15443">
        <ele>799.2</ele>
        <time>2021-09-30T14:15:55Z</time>
      </trkpt>
      <trkpt lat="44.18217" lon="3.15448">
        <ele>799.5</ele>
        <time>2021-09-30T14:15:56Z</time>
      </trkpt>
      <trkpt lat="44.18218" lon="3.15456">
        <ele>798.9</ele>
        <time>2021-09-30T14:15:57Z</time>
      </trkpt>
      <trkpt lat="44.1822" lon="3.1546">
        <ele>799.1</ele>
        <time>2021-09-30T14:15:59Z</time>
      </trkpt>
      <trkpt lat="44.18222" lon="3.15465">
        <ele>797.4</ele>
        <time>2021-09-30T14:16:00Z</time>
      </trkpt>
      <trkpt lat="44.18226" lon="3.15468">
        <ele>796.3</ele>
        <time>2021-09-30T14:16:02Z</time>
      </trkpt>
      <trkpt lat="44.1823" lon="3.15471">
        <ele>794.1</ele>
        <time>2021-09-30T14:16:03Z</time>
      </trkpt>
      <trkpt lat="44.18232" lon="3.15474">
        <ele>794.2</ele>
        <time>2021-09-30T14:16:05Z</time>
      </trkpt>
      <trkpt lat="44.18238" lon="3.15478">
        <ele>791.8</ele>
        <time>2021-09-30T14:16:07Z</time>
      </trkpt>
      <trkpt lat="44.1824" lon="3.15482">
        <ele>790.5</ele>
        <time>2021-09-30T14:16:08Z</time>
      </trkpt>
      <trkpt lat="44.18241" lon="3.15486">
        <ele>790.7</ele>
        <time>2021-09-30T14:16:09Z</time>
      </trkpt>
      <trkpt lat="44.18241" lon="3.15487">
        <ele>790.7</ele>
        <time>2021-09-30T14:16:10Z</time>
      </trkpt>
      <trkpt lat="44.18241" lon="3.15494">
        <ele>791.1</ele>
        <time>2021-09-30T14:16:12Z</time>
      </trkpt>
      <trkpt lat="44.1824" lon="3.15498">
        <ele>791.3</ele>
        <time>2021-09-30T14:16:14Z</time>
      </trkpt>
      <trkpt lat="44.18238" lon="3.15502">
        <ele>792.9</ele>
        <time>2021-09-30T14:16:15Z</time>
      </trkpt>
      <trkpt lat="44.18238" lon="3.15504">
        <ele>793</ele>
        <time>2021-09-30T14:16:17Z</time>
      </trkpt>
      <trkpt lat="44.18238" lon="3.15505">
        <ele>793.1</ele>
        <time>2021-09-30T14:16:18Z</time>
      </trkpt>
      <trkpt lat="44.18238" lon="3.15507">
        <ele>793.1</ele>
        <time>2021-09-30T14:16:19Z</time>
      </trkpt>
      <trkpt lat="44.18238" lon="3.15508">
        <ele>793.1</ele>
        <time>2021-09-30T14:16:21Z</time>
      </trkpt>
      <trkpt lat="44.18239" lon="3.15509">
        <ele>793.2</ele>
        <time>2021-09-30T14:16:22Z</time>
      </trkpt>
      <trkpt lat="44.18239" lon="3.1551">
        <ele>791.9</ele>
        <time>2021-09-30T14:16:24Z</time>
      </trkpt>
      <trkpt lat="44.18239" lon="3.15512">
        <ele>791.9</ele>
        <time>2021-09-30T14:16:26Z</time>
      </trkpt>
      <trkpt lat="44.18239" lon="3.15513">
        <ele>791.9</ele>
        <time>2021-09-30T14:16:43Z</time>
      </trkpt>
      <trkpt lat="44.1824" lon="3.15514">
        <ele>792</ele>
        <time>2021-09-30T14:16:44Z</time>
      </trkpt>
      <trkpt lat="44.1824" lon="3.15515">
        <ele>792</ele>
        <time>2021-09-30T14:16:46Z</time>
      </trkpt>
      <trkpt lat="44.1824" lon="3.15517">
        <ele>792.1</ele>
        <time>2021-09-30T14:16:47Z</time>
      </trkpt>
      <trkpt lat="44.1824" lon="3.15518">
        <ele>792.1</ele>
        <time>2021-09-30T14:16:48Z</time>
      </trkpt>
      <trkpt lat="44.18242" lon="3.15521">
        <ele>790.7</ele>
        <time>2021-09-30T14:16:50Z</time>
      </trkpt>
      <trkpt lat="44.18244" lon="3.15525">
        <ele>790.8</ele>
        <time>2021-09-30T14:16:51Z</time>
      </trkpt>
      <trkpt lat="44.18247" lon="3.15532">
        <ele>789.5</ele>
        <time>2021-09-30T14:16:52Z</time>
      </trkpt>
      <trkpt lat="44.18252" lon="3.15541">
        <ele>786.6</ele>
        <time>2021-09-30T14:16:54Z</time>
      </trkpt>
      <trkpt lat="44.18256" lon="3.15548">
        <ele>785.2</ele>
        <time>2021-09-30T14:16:55Z</time>
      </trkpt>
      <trkpt lat="44.18258" lon="3.15554">
        <ele>784.2</ele>
        <time>2021-09-30T14:16:57Z</time>
      </trkpt>
      <trkpt lat="44.1826" lon="3.15565">
        <ele>784.8</ele>
        <time>2021-09-30T14:16:58Z</time>
      </trkpt>
      <trkpt lat="44.18262" lon="3.15574">
        <ele>784.5</ele>
        <time>2021-09-30T14:17:00Z</time>
      </trkpt>
      <trkpt lat="44.18262" lon="3.15584">
        <ele>785.4</ele>
        <time>2021-09-30T14:17:01Z</time>
      </trkpt>
      <trkpt lat="44.18264" lon="3.15593">
        <ele>784.9</ele>
        <time>2021-09-30T14:17:03Z</time>
      </trkpt>
      <trkpt lat="44.18266" lon="3.15599">
        <ele>785.4</ele>
        <time>2021-09-30T14:17:04Z</time>
      </trkpt>
      <trkpt lat="44.18268" lon="3.15604">
        <ele>785</ele>
        <time>2021-09-30T14:17:05Z</time>
      </trkpt>
      <trkpt lat="44.18278" lon="3.15615">
        <ele>781.5</ele>
        <time>2021-09-30T14:17:07Z</time>
      </trkpt>
      <trkpt lat="44.18281" lon="3.15618">
        <ele>780.5</ele>
        <time>2021-09-30T14:17:08Z</time>
      </trkpt>
      <trkpt lat="44.18288" lon="3.15626">
        <ele>778.7</ele>
        <time>2021-09-30T14:17:10Z</time>
      </trkpt>
      <trkpt lat="44.18294" lon="3.15644">
        <ele>779</ele>
        <time>2021-09-30T14:17:12Z</time>
      </trkpt>
      <trkpt lat="44.18294" lon="3.1565">
        <ele>778.5</ele>
        <time>2021-09-30T14:17:13Z</time>
      </trkpt>
      <trkpt lat="44.18297" lon="3.15665">
        <ele>781.3</ele>
        <time>2021-09-30T14:17:15Z</time>
      </trkpt>
      <trkpt lat="44.18303" lon="3.15685">
        <ele>781.3</ele>
        <time>2021-09-30T14:17:17Z</time>
      </trkpt>
      <trkpt lat="44.18305" lon="3.15694">
        <ele>781.4</ele>
        <time>2021-09-30T14:17:18Z</time>
      </trkpt>
      <trkpt lat="44.18302" lon="3.15702">
        <ele>783.2</ele>
        <time>2021-09-30T14:17:19Z</time>
      </trkpt>
      <trkpt lat="44.18299" lon="3.1571">
        <ele>785</ele>
        <time>2021-09-30T14:17:21Z</time>
      </trkpt>
      <trkpt lat="44.1829" lon="3.15716">
        <ele>787.6</ele>
        <time>2021-09-30T14:17:22Z</time>
      </trkpt>
      <trkpt lat="44.18285" lon="3.15722">
        <ele>788.4</ele>
        <time>2021-09-30T14:17:23Z</time>
      </trkpt>
      <trkpt lat="44.1828" lon="3.15728">
        <ele>789.8</ele>
        <time>2021-09-30T14:17:24Z</time>
      </trkpt>
      <trkpt lat="44.18274" lon="3.15734">
        <ele>791</ele>
        <time>2021-09-30T14:17:25Z</time>
      </trkpt>
      <trkpt lat="44.18261" lon="3.15745">
        <ele>792.9</ele>
        <time>2021-09-30T14:17:27Z</time>
      </trkpt>
      <trkpt lat="44.1825" lon="3.15755">
        <ele>794.2</ele>
        <time>2021-09-30T14:17:29Z</time>
      </trkpt>
      <trkpt lat="44.18236" lon="3.15763">
        <ele>796.2</ele>
        <time>2021-09-30T14:17:31Z</time>
      </trkpt>
      <trkpt lat="44.18229" lon="3.15773">
        <ele>796.3</ele>
        <time>2021-09-30T14:17:33Z</time>
      </trkpt>
      <trkpt lat="44.18225" lon="3.15779">
        <ele>796.5</ele>
        <time>2021-09-30T14:17:34Z</time>
      </trkpt>
      <trkpt lat="44.18223" lon="3.15785">
        <ele>796.4</ele>
        <time>2021-09-30T14:17:35Z</time>
      </trkpt>
      <trkpt lat="44.18222" lon="3.15798">
        <ele>795.2</ele>
        <time>2021-09-30T14:17:37Z</time>
      </trkpt>
      <trkpt lat="44.18229" lon="3.15805">
        <ele>793.4</ele>
        <time>2021-09-30T14:17:39Z</time>
      </trkpt>
      <trkpt lat="44.18237" lon="3.15808">
        <ele>791</ele>
        <time>2021-09-30T14:17:41Z</time>
      </trkpt>
      <trkpt lat="44.1824" lon="3.15813">
        <ele>789.9</ele>
        <time>2021-09-30T14:17:42Z</time>
      </trkpt>
      <trkpt lat="44.18241" lon="3.15819">
        <ele>788.9</ele>
        <time>2021-09-30T14:17:43Z</time>
      </trkpt>
      <trkpt lat="44.18242" lon="3.15824">
        <ele>787.7</ele>
        <time>2021-09-30T14:17:44Z</time>
      </trkpt>
      <trkpt lat="44.18245" lon="3.15829">
        <ele>786.6</ele>
        <time>2021-09-30T14:17:46Z</time>
      </trkpt>
      <trkpt lat="44.18248" lon="3.15833">
        <ele>786</ele>
        <time>2021-09-30T14:17:47Z</time>
      </trkpt>
      <trkpt lat="44.18248" lon="3.15835">
        <ele>785.4</ele>
        <time>2021-09-30T14:17:48Z</time>
      </trkpt>
      <trkpt lat="44.1825" lon="3.15839">
        <ele>784.8</ele>
        <time>2021-09-30T14:17:49Z</time>
      </trkpt>
      <trkpt lat="44.18251" lon="3.15842">
        <ele>784.1</ele>
        <time>2021-09-30T14:17:50Z</time>
      </trkpt>
      <trkpt lat="44.18252" lon="3.15846">
        <ele>782.8</ele>
        <time>2021-09-30T14:17:52Z</time>
      </trkpt>
      <trkpt lat="44.18253" lon="3.15848">
        <ele>782.9</ele>
        <time>2021-09-30T14:17:53Z</time>
      </trkpt>
      <trkpt lat="44.18253" lon="3.15852">
        <ele>782.2</ele>
        <time>2021-09-30T14:17:54Z</time>
      </trkpt>
      <trkpt lat="44.18254" lon="3.15853">
        <ele>781.5</ele>
        <time>2021-09-30T14:17:55Z</time>
      </trkpt>
      <trkpt lat="44.18254" lon="3.15856">
        <ele>781.6</ele>
        <time>2021-09-30T14:17:57Z</time>
      </trkpt>
      <trkpt lat="44.18255" lon="3.15859">
        <ele>780.2</ele>
        <time>2021-09-30T14:17:59Z</time>
      </trkpt>
      <trkpt lat="44.18256" lon="3.15861">
        <ele>780.3</ele>
        <time>2021-09-30T14:18:00Z</time>
      </trkpt>
      <trkpt lat="44.18257" lon="3.15863">
        <ele>779.6</ele>
        <time>2021-09-30T14:18:01Z</time>
      </trkpt>
      <trkpt lat="44.18257" lon="3.15865">
        <ele>779.6</ele>
        <time>2021-09-30T14:18:02Z</time>
      </trkpt>
      <trkpt lat="44.18257" lon="3.15865">
        <ele>779.7</ele>
        <time>2021-09-30T14:18:04Z</time>
      </trkpt>
      <trkpt lat="44.18256" lon="3.15866">
        <ele>779.7</ele>
        <time>2021-09-30T14:18:05Z</time>
      </trkpt>
      <trkpt lat="44.18256" lon="3.15866">
        <ele>779.1</ele>
        <time>2021-09-30T14:18:06Z</time>
      </trkpt>
      <trkpt lat="44.18256" lon="3.15866">
        <ele>779.1</ele>
        <time>2021-09-30T14:18:08Z</time>
      </trkpt>
      <trkpt lat="44.18256" lon="3.15866">
        <ele>779.1</ele>
        <time>2021-09-30T14:18:10Z</time>
      </trkpt>
      <trkpt lat="44.18256" lon="3.15866">
        <ele>779.1</ele>
        <time>2021-09-30T14:18:11Z</time>
      </trkpt>
      <trkpt lat="44.18256" lon="3.15872">
        <ele>778.5</ele>
        <time>2021-09-30T14:18:28Z</time>
      </trkpt>
      <trkpt lat="44.18257" lon="3.15874">
        <ele>777.9</ele>
        <time>2021-09-30T14:18:30Z</time>
      </trkpt>
      <trkpt lat="44.18257" lon="3.15875">
        <ele>778</ele>
        <time>2021-09-30T14:18:31Z</time>
      </trkpt>
      <trkpt lat="44.18257" lon="3.15876">
        <ele>778</ele>
        <time>2021-09-30T14:18:33Z</time>
      </trkpt>
      <trkpt lat="44.18257" lon="3.15877">
        <ele>778</ele>
        <time>2021-09-30T14:18:34Z</time>
      </trkpt>
      <trkpt lat="44.18258" lon="3.15878">
        <ele>777.3</ele>
        <time>2021-09-30T14:18:36Z</time>
      </trkpt>
      <trkpt lat="44.18259" lon="3.1588">
        <ele>776.8</ele>
        <time>2021-09-30T14:18:37Z</time>
      </trkpt>
      <trkpt lat="44.18261" lon="3.15885">
        <ele>775.5</ele>
        <time>2021-09-30T14:18:38Z</time>
      </trkpt>
      <trkpt lat="44.18262" lon="3.15891">
        <ele>774.2</ele>
        <time>2021-09-30T14:18:40Z</time>
      </trkpt>
      <trkpt lat="44.18262" lon="3.15898">
        <ele>773.5</ele>
        <time>2021-09-30T14:18:41Z</time>
      </trkpt>
      <trkpt lat="44.18261" lon="3.15903">
        <ele>772.8</ele>
        <time>2021-09-30T14:18:42Z</time>
      </trkpt>
      <trkpt lat="44.18259" lon="3.15908">
        <ele>772.9</ele>
        <time>2021-09-30T14:18:44Z</time>
      </trkpt>
      <trkpt lat="44.18257" lon="3.15912">
        <ele>773</ele>
        <time>2021-09-30T14:18:45Z</time>
      </trkpt>
      <trkpt lat="44.1825" lon="3.15922">
        <ele>772.9</ele>
        <time>2021-09-30T14:18:46Z</time>
      </trkpt>
      <trkpt lat="44.18248" lon="3.1593">
        <ele>773.3</ele>
        <time>2021-09-30T14:18:47Z</time>
      </trkpt>
      <trkpt lat="44.18242" lon="3.15944">
        <ele>773.3</ele>
        <time>2021-09-30T14:18:49Z</time>
      </trkpt>
      <trkpt lat="44.18238" lon="3.1595">
        <ele>773.9</ele>
        <time>2021-09-30T14:18:50Z</time>
      </trkpt>
      <trkpt lat="44.18234" lon="3.15956">
        <ele>774.1</ele>
        <time>2021-09-30T14:18:51Z</time>
      </trkpt>
      <trkpt lat="44.18229" lon="3.15969">
        <ele>775.2</ele>
        <time>2021-09-30T14:18:53Z</time>
      </trkpt>
      <trkpt lat="44.18224" lon="3.15983">
        <ele>775.3</ele>
        <time>2021-09-30T14:18:55Z</time>
      </trkpt>
      <trkpt lat="44.18223" lon="3.15991">
        <ele>775.8</ele>
        <time>2021-09-30T14:18:56Z</time>
      </trkpt>
      <trkpt lat="44.18222" lon="3.16">
        <ele>775.3</ele>
        <time>2021-09-30T14:18:57Z</time>
      </trkpt>
      <trkpt lat="44.18216" lon="3.1602">
        <ele>777.1</ele>
        <time>2021-09-30T14:18:59Z</time>
      </trkpt>
      <trkpt lat="44.18215" lon="3.16032">
        <ele>776.7</ele>
        <time>2021-09-30T14:19:00Z</time>
      </trkpt>
      <trkpt lat="44.18213" lon="3.16056">
        <ele>777.4</ele>
        <time>2021-09-30T14:19:02Z</time>
      </trkpt>
      <trkpt lat="44.18211" lon="3.1608">
        <ele>778.3</ele>
        <time>2021-09-30T14:19:04Z</time>
      </trkpt>
      <trkpt lat="44.18203" lon="3.16097">
        <ele>779.8</ele>
        <time>2021-09-30T14:19:06Z</time>
      </trkpt>
      <trkpt lat="44.18202" lon="3.16106">
        <ele>780.6</ele>
        <time>2021-09-30T14:19:07Z</time>
      </trkpt>
      <trkpt lat="44.18198" lon="3.16123">
        <ele>781.1</ele>
        <time>2021-09-30T14:19:09Z</time>
      </trkpt>
      <trkpt lat="44.18196" lon="3.16138">
        <ele>781.1</ele>
        <time>2021-09-30T14:19:11Z</time>
      </trkpt>
      <trkpt lat="44.18195" lon="3.16148">
        <ele>780.9</ele>
        <time>2021-09-30T14:19:13Z</time>
      </trkpt>
      <trkpt lat="44.18197" lon="3.16152">
        <ele>780.7</ele>
        <time>2021-09-30T14:19:15Z</time>
      </trkpt>
      <trkpt lat="44.18198" lon="3.16151">
        <ele>780.7</ele>
        <time>2021-09-30T14:19:17Z</time>
      </trkpt>
      <trkpt lat="44.182" lon="3.16156">
        <ele>780.5</ele>
        <time>2021-09-30T14:19:19Z</time>
      </trkpt>
      <trkpt lat="44.18201" lon="3.1616">
        <ele>780.4</ele>
        <time>2021-09-30T14:19:21Z</time>
      </trkpt>
      <trkpt lat="44.182" lon="3.16164">
        <ele>780.3</ele>
        <time>2021-09-30T14:19:23Z</time>
      </trkpt>
      <trkpt lat="44.182" lon="3.16168">
        <ele>780.2</ele>
        <time>2021-09-30T14:19:24Z</time>
      </trkpt>
      <trkpt lat="44.182" lon="3.16172">
        <ele>780.1</ele>
        <time>2021-09-30T14:19:25Z</time>
      </trkpt>
      <trkpt lat="44.18201" lon="3.16178">
        <ele>780</ele>
        <time>2021-09-30T14:19:27Z</time>
      </trkpt>
      <trkpt lat="44.18202" lon="3.16183">
        <ele>779.9</ele>
        <time>2021-09-30T14:19:28Z</time>
      </trkpt>
      <trkpt lat="44.18203" lon="3.16186">
        <ele>779.8</ele>
        <time>2021-09-30T14:19:29Z</time>
      </trkpt>
      <trkpt lat="44.18205" lon="3.16189">
        <ele>779.7</ele>
        <time>2021-09-30T14:19:30Z</time>
      </trkpt>
      <trkpt lat="44.18207" lon="3.16192">
        <ele>779.6</ele>
        <time>2021-09-30T14:19:31Z</time>
      </trkpt>
      <trkpt lat="44.18208" lon="3.16199">
        <ele>779.6</ele>
        <time>2021-09-30T14:19:33Z</time>
      </trkpt>
      <trkpt lat="44.18209" lon="3.16203">
        <ele>779.6</ele>
        <time>2021-09-30T14:19:34Z</time>
      </trkpt>
      <trkpt lat="44.18211" lon="3.16206">
        <ele>779.7</ele>
        <time>2021-09-30T14:19:36Z</time>
      </trkpt>
      <trkpt lat="44.18211" lon="3.16213">
        <ele>779.7</ele>
        <time>2021-09-30T14:19:38Z</time>
      </trkpt>
      <trkpt lat="44.1821" lon="3.16217">
        <ele>779.7</ele>
        <time>2021-09-30T14:19:39Z</time>
      </trkpt>
      <trkpt lat="44.18209" lon="3.16221">
        <ele>779.8</ele>
        <time>2021-09-30T14:19:40Z</time>
      </trkpt>
      <trkpt lat="44.18208" lon="3.16224">
        <ele>779.8</ele>
        <time>2021-09-30T14:19:41Z</time>
      </trkpt>
      <trkpt lat="44.18208" lon="3.16228">
        <ele>779.9</ele>
        <time>2021-09-30T14:19:43Z</time>
      </trkpt>
      <trkpt lat="44.18207" lon="3.16232">
        <ele>780</ele>
        <time>2021-09-30T14:19:44Z</time>
      </trkpt>
      <trkpt lat="44.18204" lon="3.16238">
        <ele>780.2</ele>
        <time>2021-09-30T14:19:45Z</time>
      </trkpt>
      <trkpt lat="44.18201" lon="3.16242">
        <ele>780.4</ele>
        <time>2021-09-30T14:19:47Z</time>
      </trkpt>
      <trkpt lat="44.18196" lon="3.16246">
        <ele>780.6</ele>
        <time>2021-09-30T14:19:49Z</time>
      </trkpt>
      <trkpt lat="44.18193" lon="3.16248">
        <ele>781.1</ele>
        <time>2021-09-30T14:19:50Z</time>
      </trkpt>
      <trkpt lat="44.18188" lon="3.16251">
        <ele>781.2</ele>
        <time>2021-09-30T14:19:51Z</time>
      </trkpt>
      <trkpt lat="44.18186" lon="3.16253">
        <ele>781.4</ele>
        <time>2021-09-30T14:19:53Z</time>
      </trkpt>
      <trkpt lat="44.18181" lon="3.16256">
        <ele>781.6</ele>
        <time>2021-09-30T14:19:54Z</time>
      </trkpt>
      <trkpt lat="44.18178" lon="3.16258">
        <ele>781.8</ele>
        <time>2021-09-30T14:19:56Z</time>
      </trkpt>
      <trkpt lat="44.18175" lon="3.16261">
        <ele>782.1</ele>
        <time>2021-09-30T14:19:57Z</time>
      </trkpt>
      <trkpt lat="44.18174" lon="3.16267">
        <ele>782.2</ele>
        <time>2021-09-30T14:19:58Z</time>
      </trkpt>
      <trkpt lat="44.18174" lon="3.16271">
        <ele>782.5</ele>
        <time>2021-09-30T14:19:59Z</time>
      </trkpt>
      <trkpt lat="44.18174" lon="3.16274">
        <ele>782.6</ele>
        <time>2021-09-30T14:20:01Z</time>
      </trkpt>
      <trkpt lat="44.18176" lon="3.16279">
        <ele>782.6</ele>
        <time>2021-09-30T14:20:03Z</time>
      </trkpt>
      <trkpt lat="44.18176" lon="3.16281">
        <ele>782.6</ele>
        <time>2021-09-30T14:20:04Z</time>
      </trkpt>
      <trkpt lat="44.18176" lon="3.16283">
        <ele>782.7</ele>
        <time>2021-09-30T14:20:05Z</time>
      </trkpt>
      <trkpt lat="44.18177" lon="3.16285">
        <ele>782.7</ele>
        <time>2021-09-30T14:20:06Z</time>
      </trkpt>
      <trkpt lat="44.18177" lon="3.16287">
        <ele>782.9</ele>
        <time>2021-09-30T14:20:08Z</time>
      </trkpt>
      <trkpt lat="44.18177" lon="3.16288">
        <ele>782.9</ele>
        <time>2021-09-30T14:20:09Z</time>
      </trkpt>
      <trkpt lat="44.18177" lon="3.1629">
        <ele>783</ele>
        <time>2021-09-30T14:20:10Z</time>
      </trkpt>
      <trkpt lat="44.18177" lon="3.16293">
        <ele>783</ele>
        <time>2021-09-30T14:20:12Z</time>
      </trkpt>
      <trkpt lat="44.18177" lon="3.16294">
        <ele>782.9</ele>
        <time>2021-09-30T14:20:13Z</time>
      </trkpt>
      <trkpt lat="44.18177" lon="3.16297">
        <ele>783.2</ele>
        <time>2021-09-30T14:20:14Z</time>
      </trkpt>
      <trkpt lat="44.18176" lon="3.163">
        <ele>783.3</ele>
        <time>2021-09-30T14:20:15Z</time>
      </trkpt>
      <trkpt lat="44.18176" lon="3.16302">
        <ele>783.3</ele>
        <time>2021-09-30T14:20:16Z</time>
      </trkpt>
      <trkpt lat="44.18176" lon="3.16308">
        <ele>783.5</ele>
        <time>2021-09-30T14:20:18Z</time>
      </trkpt>
      <trkpt lat="44.18176" lon="3.16311">
        <ele>783.5</ele>
        <time>2021-09-30T14:20:19Z</time>
      </trkpt>
      <trkpt lat="44.18175" lon="3.16314">
        <ele>783.6</ele>
        <time>2021-09-30T14:20:20Z</time>
      </trkpt>
      <trkpt lat="44.18175" lon="3.16318">
        <ele>783.6</ele>
        <time>2021-09-30T14:20:22Z</time>
      </trkpt>
      <trkpt lat="44.18174" lon="3.16323">
        <ele>783.7</ele>
        <time>2021-09-30T14:20:23Z</time>
      </trkpt>
      <trkpt lat="44.18174" lon="3.16325">
        <ele>783.9</ele>
        <time>2021-09-30T14:20:24Z</time>
      </trkpt>
      <trkpt lat="44.18172" lon="3.1633">
        <ele>783.9</ele>
        <time>2021-09-30T14:20:26Z</time>
      </trkpt>
      <trkpt lat="44.18171" lon="3.16334">
        <ele>784.2</ele>
        <time>2021-09-30T14:20:27Z</time>
      </trkpt>
      <trkpt lat="44.18169" lon="3.16338">
        <ele>784.2</ele>
        <time>2021-09-30T14:20:28Z</time>
      </trkpt>
      <trkpt lat="44.18168" lon="3.16341">
        <ele>784.2</ele>
        <time>2021-09-30T14:20:29Z</time>
      </trkpt>
      <trkpt lat="44.18167" lon="3.16344">
        <ele>784.4</ele>
        <time>2021-09-30T14:20:31Z</time>
      </trkpt>
      <trkpt lat="44.18165" lon="3.16349">
        <ele>784.4</ele>
        <time>2021-09-30T14:20:32Z</time>
      </trkpt>
      <trkpt lat="44.18163" lon="3.16352">
        <ele>784.6</ele>
        <time>2021-09-30T14:20:34Z</time>
      </trkpt>
      <trkpt lat="44.18162" lon="3.16353">
        <ele>784.8</ele>
        <time>2021-09-30T14:20:35Z</time>
      </trkpt>
      <trkpt lat="44.18159" lon="3.16356">
        <ele>784.8</ele>
        <time>2021-09-30T14:20:36Z</time>
      </trkpt>
      <trkpt lat="44.18159" lon="3.16359">
        <ele>785</ele>
        <time>2021-09-30T14:20:37Z</time>
      </trkpt>
      <trkpt lat="44.18158" lon="3.16363">
        <ele>784.9</ele>
        <time>2021-09-30T14:20:39Z</time>
      </trkpt>
      <trkpt lat="44.18157" lon="3.16367">
        <ele>784.9</ele>
        <time>2021-09-30T14:20:41Z</time>
      </trkpt>
      <trkpt lat="44.18157" lon="3.1637">
        <ele>785</ele>
        <time>2021-09-30T14:20:42Z</time>
      </trkpt>
      <trkpt lat="44.18157" lon="3.16372">
        <ele>785</ele>
        <time>2021-09-30T14:20:43Z</time>
      </trkpt>
      <trkpt lat="44.18158" lon="3.16376">
        <ele>785</ele>
        <time>2021-09-30T14:20:45Z</time>
      </trkpt>
      <trkpt lat="44.18158" lon="3.16377">
        <ele>785.1</ele>
        <time>2021-09-30T14:20:46Z</time>
      </trkpt>
      <trkpt lat="44.18159" lon="3.16379">
        <ele>784.9</ele>
        <time>2021-09-30T14:20:47Z</time>
      </trkpt>
      <trkpt lat="44.18159" lon="3.1638">
        <ele>784.9</ele>
        <time>2021-09-30T14:20:48Z</time>
      </trkpt>
      <trkpt lat="44.1816" lon="3.16384">
        <ele>785</ele>
        <time>2021-09-30T14:20:50Z</time>
      </trkpt>
      <trkpt lat="44.18161" lon="3.16385">
        <ele>785</ele>
        <time>2021-09-30T14:20:51Z</time>
      </trkpt>
      <trkpt lat="44.18162" lon="3.16387">
        <ele>785</ele>
        <time>2021-09-30T14:20:52Z</time>
      </trkpt>
      <trkpt lat="44.18163" lon="3.16389">
        <ele>784.8</ele>
        <time>2021-09-30T14:20:53Z</time>
      </trkpt>
      <trkpt lat="44.18165" lon="3.16392">
        <ele>784.8</ele>
        <time>2021-09-30T14:20:54Z</time>
      </trkpt>
      <trkpt lat="44.18168" lon="3.16394">
        <ele>784.5</ele>
        <time>2021-09-30T14:20:56Z</time>
      </trkpt>
      <trkpt lat="44.18171" lon="3.16395">
        <ele>784.5</ele>
        <time>2021-09-30T14:20:57Z</time>
      </trkpt>
      <trkpt lat="44.18173" lon="3.16395">
        <ele>784.4</ele>
        <time>2021-09-30T14:20:58Z</time>
      </trkpt>
      <trkpt lat="44.18177" lon="3.16395">
        <ele>784.3</ele>
        <time>2021-09-30T14:21:00Z</time>
      </trkpt>
      <trkpt lat="44.18181" lon="3.16395">
        <ele>784.1</ele>
        <time>2021-09-30T14:21:01Z</time>
      </trkpt>
      <trkpt lat="44.18183" lon="3.16395">
        <ele>784.1</ele>
        <time>2021-09-30T14:21:02Z</time>
      </trkpt>
      <trkpt lat="44.1819" lon="3.16396">
        <ele>783.8</ele>
        <time>2021-09-30T14:21:04Z</time>
      </trkpt>
      <trkpt lat="44.18194" lon="3.16396">
        <ele>783.6</ele>
        <time>2021-09-30T14:21:05Z</time>
      </trkpt>
      <trkpt lat="44.18201" lon="3.16394">
        <ele>783.4</ele>
        <time>2021-09-30T14:21:06Z</time>
      </trkpt>
      <trkpt lat="44.18208" lon="3.16393">
        <ele>783</ele>
        <time>2021-09-30T14:21:08Z</time>
      </trkpt>
      <trkpt lat="44.18215" lon="3.16393">
        <ele>782.8</ele>
        <time>2021-09-30T14:21:09Z</time>
      </trkpt>
      <trkpt lat="44.18221" lon="3.16392">
        <ele>782.4</ele>
        <time>2021-09-30T14:21:10Z</time>
      </trkpt>
      <trkpt lat="44.18229" lon="3.16393">
        <ele>782.1</ele>
        <time>2021-09-30T14:21:12Z</time>
      </trkpt>
      <trkpt lat="44.18234" lon="3.16393">
        <ele>782</ele>
        <time>2021-09-30T14:21:13Z</time>
      </trkpt>
      <trkpt lat="44.18239" lon="3.16394">
        <ele>781.7</ele>
        <time>2021-09-30T14:21:14Z</time>
      </trkpt>
      <trkpt lat="44.18243" lon="3.16394">
        <ele>781.6</ele>
        <time>2021-09-30T14:21:16Z</time>
      </trkpt>
      <trkpt lat="44.18249" lon="3.16394">
        <ele>781.3</ele>
        <time>2021-09-30T14:21:17Z</time>
      </trkpt>
      <trkpt lat="44.18256" lon="3.16397">
        <ele>781</ele>
        <time>2021-09-30T14:21:19Z</time>
      </trkpt>
      <trkpt lat="44.18263" lon="3.16401">
        <ele>780.8</ele>
        <time>2021-09-30T14:21:20Z</time>
      </trkpt>
      <trkpt lat="44.18269" lon="3.16405">
        <ele>780.6</ele>
        <time>2021-09-30T14:21:22Z</time>
      </trkpt>
      <trkpt lat="44.18276" lon="3.16405">
        <ele>780.3</ele>
        <time>2021-09-30T14:21:23Z</time>
      </trkpt>
      <trkpt lat="44.18284" lon="3.16402">
        <ele>779.6</ele>
        <time>2021-09-30T14:21:25Z</time>
      </trkpt>
      <trkpt lat="44.18291" lon="3.16395">
        <ele>778.8</ele>
        <time>2021-09-30T14:21:27Z</time>
      </trkpt>
      <trkpt lat="44.18295" lon="3.16392">
        <ele>778.4</ele>
        <time>2021-09-30T14:21:28Z</time>
      </trkpt>
      <trkpt lat="44.18299" lon="3.16386">
        <ele>777.9</ele>
        <time>2021-09-30T14:21:29Z</time>
      </trkpt>
      <trkpt lat="44.18305" lon="3.16383">
        <ele>777.2</ele>
        <time>2021-09-30T14:21:31Z</time>
      </trkpt>
      <trkpt lat="44.18308" lon="3.16382">
        <ele>777.1</ele>
        <time>2021-09-30T14:21:32Z</time>
      </trkpt>
      <trkpt lat="44.18312" lon="3.16386">
        <ele>777.1</ele>
        <time>2021-09-30T14:21:33Z</time>
      </trkpt>
      <trkpt lat="44.18315" lon="3.16391">
        <ele>777.2</ele>
        <time>2021-09-30T14:21:34Z</time>
      </trkpt>
      <trkpt lat="44.18317" lon="3.16396">
        <ele>777.3</ele>
        <time>2021-09-30T14:21:35Z</time>
      </trkpt>
      <trkpt lat="44.1832" lon="3.16404">
        <ele>777.5</ele>
        <time>2021-09-30T14:21:37Z</time>
      </trkpt>
      <trkpt lat="44.18327" lon="3.16416">
        <ele>777.5</ele>
        <time>2021-09-30T14:21:38Z</time>
      </trkpt>
      <trkpt lat="44.18336" lon="3.16423">
        <ele>776.8</ele>
        <time>2021-09-30T14:21:40Z</time>
      </trkpt>
      <trkpt lat="44.1834" lon="3.16426">
        <ele>776.5</ele>
        <time>2021-09-30T14:21:41Z</time>
      </trkpt>
      <trkpt lat="44.18346" lon="3.16427">
        <ele>776.1</ele>
        <time>2021-09-30T14:21:42Z</time>
      </trkpt>
      <trkpt lat="44.18349" lon="3.1643">
        <ele>775.8</ele>
        <time>2021-09-30T14:21:43Z</time>
      </trkpt>
      <trkpt lat="44.18351" lon="3.16435">
        <ele>775.4</ele>
        <time>2021-09-30T14:21:45Z</time>
      </trkpt>
      <trkpt lat="44.18352" lon="3.16437">
        <ele>775.2</ele>
        <time>2021-09-30T14:21:46Z</time>
      </trkpt>
      <trkpt lat="44.1836" lon="3.16443">
        <ele>774.2</ele>
        <time>2021-09-30T14:21:47Z</time>
      </trkpt>
      <trkpt lat="44.18366" lon="3.16445">
        <ele>773.5</ele>
        <time>2021-09-30T14:21:49Z</time>
      </trkpt>
      <trkpt lat="44.1837" lon="3.16441">
        <ele>773.5</ele>
        <time>2021-09-30T14:21:50Z</time>
      </trkpt>
      <trkpt lat="44.18375" lon="3.16438">
        <ele>773.1</ele>
        <time>2021-09-30T14:21:52Z</time>
      </trkpt>
      <trkpt lat="44.18379" lon="3.16439">
        <ele>772.9</ele>
        <time>2021-09-30T14:21:53Z</time>
      </trkpt>
      <trkpt lat="44.18385" lon="3.1644">
        <ele>772.4</ele>
        <time>2021-09-30T14:21:54Z</time>
      </trkpt>
      <trkpt lat="44.18388" lon="3.16438">
        <ele>772.2</ele>
        <time>2021-09-30T14:21:56Z</time>
      </trkpt>
      <trkpt lat="44.18391" lon="3.16436">
        <ele>772</ele>
        <time>2021-09-30T14:21:57Z</time>
      </trkpt>
      <trkpt lat="44.18395" lon="3.16433">
        <ele>771.7</ele>
        <time>2021-09-30T14:21:58Z</time>
      </trkpt>
      <trkpt lat="44.18399" lon="3.16429">
        <ele>771.4</ele>
        <time>2021-09-30T14:21:59Z</time>
      </trkpt>
      <trkpt lat="44.18402" lon="3.16424">
        <ele>770.8</ele>
        <time>2021-09-30T14:22:00Z</time>
      </trkpt>
      <trkpt lat="44.18408" lon="3.16418">
        <ele>770.3</ele>
        <time>2021-09-30T14:22:02Z</time>
      </trkpt>
      <trkpt lat="44.18412" lon="3.16414">
        <ele>769.6</ele>
        <time>2021-09-30T14:22:03Z</time>
      </trkpt>
      <trkpt lat="44.18421" lon="3.16407">
        <ele>768.8</ele>
        <time>2021-09-30T14:22:04Z</time>
      </trkpt>
      <trkpt lat="44.18427" lon="3.16403">
        <ele>768.2</ele>
        <time>2021-09-30T14:22:05Z</time>
      </trkpt>
      <trkpt lat="44.18435" lon="3.16398">
        <ele>767.6</ele>
        <time>2021-09-30T14:22:07Z</time>
      </trkpt>
      <trkpt lat="44.18439" lon="3.16397">
        <ele>766.9</ele>
        <time>2021-09-30T14:22:08Z</time>
      </trkpt>
      <trkpt lat="44.18445" lon="3.16402">
        <ele>766.9</ele>
        <time>2021-09-30T14:22:10Z</time>
      </trkpt>
      <trkpt lat="44.18448" lon="3.16403">
        <ele>766.9</ele>
        <time>2021-09-30T14:22:11Z</time>
      </trkpt>
      <trkpt lat="44.18451" lon="3.16402">
        <ele>766.4</ele>
        <time>2021-09-30T14:22:12Z</time>
      </trkpt>
      <trkpt lat="44.18454" lon="3.16401">
        <ele>766.2</ele>
        <time>2021-09-30T14:22:13Z</time>
      </trkpt>
      <trkpt lat="44.18458" lon="3.16401">
        <ele>765.7</ele>
        <time>2021-09-30T14:22:15Z</time>
      </trkpt>
      <trkpt lat="44.18462" lon="3.164">
        <ele>765.5</ele>
        <time>2021-09-30T14:22:16Z</time>
      </trkpt>
      <trkpt lat="44.18465" lon="3.164">
        <ele>765.3</ele>
        <time>2021-09-30T14:22:17Z</time>
      </trkpt>
      <trkpt lat="44.18471" lon="3.16401">
        <ele>764.8</ele>
        <time>2021-09-30T14:22:19Z</time>
      </trkpt>
      <trkpt lat="44.18474" lon="3.16402">
        <ele>764.9</ele>
        <time>2021-09-30T14:22:20Z</time>
      </trkpt>
      <trkpt lat="44.18478" lon="3.16404">
        <ele>764.7</ele>
        <time>2021-09-30T14:22:21Z</time>
      </trkpt>
      <trkpt lat="44.18481" lon="3.16405">
        <ele>764.6</ele>
        <time>2021-09-30T14:22:22Z</time>
      </trkpt>
      <trkpt lat="44.18486" lon="3.16404">
        <ele>764.3</ele>
        <time>2021-09-30T14:22:24Z</time>
      </trkpt>
      <trkpt lat="44.18488" lon="3.16403">
        <ele>764.2</ele>
        <time>2021-09-30T14:22:25Z</time>
      </trkpt>
      <trkpt lat="44.18492" lon="3.16396">
        <ele>763.4</ele>
        <time>2021-09-30T14:22:27Z</time>
      </trkpt>
      <trkpt lat="44.18492" lon="3.16389">
        <ele>763</ele>
        <time>2021-09-30T14:22:29Z</time>
      </trkpt>
      <trkpt lat="44.18494" lon="3.16386">
        <ele>762.6</ele>
        <time>2021-09-30T14:22:30Z</time>
      </trkpt>
      <trkpt lat="44.18496" lon="3.16382">
        <ele>762</ele>
        <time>2021-09-30T14:22:31Z</time>
      </trkpt>
      <trkpt lat="44.185" lon="3.16379">
        <ele>761.4</ele>
        <time>2021-09-30T14:22:32Z</time>
      </trkpt>
      <trkpt lat="44.18506" lon="3.16378">
        <ele>761.1</ele>
        <time>2021-09-30T14:22:34Z</time>
      </trkpt>
      <trkpt lat="44.18514" lon="3.16381">
        <ele>761.4</ele>
        <time>2021-09-30T14:22:35Z</time>
      </trkpt>
      <trkpt lat="44.18523" lon="3.1639">
        <ele>762.1</ele>
        <time>2021-09-30T14:22:37Z</time>
      </trkpt>
      <trkpt lat="44.18534" lon="3.16396">
        <ele>762.1</ele>
        <time>2021-09-30T14:22:39Z</time>
      </trkpt>
      <trkpt lat="44.18542" lon="3.16406">
        <ele>762.6</ele>
        <time>2021-09-30T14:22:41Z</time>
      </trkpt>
      <trkpt lat="44.18543" lon="3.16412">
        <ele>763.4</ele>
        <time>2021-09-30T14:22:42Z</time>
      </trkpt>
      <trkpt lat="44.18544" lon="3.16418">
        <ele>763.6</ele>
        <time>2021-09-30T14:22:43Z</time>
      </trkpt>
      <trkpt lat="44.18547" lon="3.16429">
        <ele>764.1</ele>
        <time>2021-09-30T14:22:45Z</time>
      </trkpt>
      <trkpt lat="44.18545" lon="3.16433">
        <ele>764.3</ele>
        <time>2021-09-30T14:22:46Z</time>
      </trkpt>
      <trkpt lat="44.18545" lon="3.16434">
        <ele>764.3</ele>
        <time>2021-09-30T14:22:47Z</time>
      </trkpt>
      <trkpt lat="44.18541" lon="3.16433">
        <ele>764.3</ele>
        <time>2021-09-30T14:22:48Z</time>
      </trkpt>
      <trkpt lat="44.18539" lon="3.16433">
        <ele>764.3</ele>
        <time>2021-09-30T14:22:49Z</time>
      </trkpt>
      <trkpt lat="44.18535" lon="3.16431">
        <ele>764.3</ele>
        <time>2021-09-30T14:22:51Z</time>
      </trkpt>
      <trkpt lat="44.18532" lon="3.1643">
        <ele>764.4</ele>
        <time>2021-09-30T14:22:52Z</time>
      </trkpt>
      <trkpt lat="44.1853" lon="3.1643">
        <ele>764.4</ele>
        <time>2021-09-30T14:22:53Z</time>
      </trkpt>
      <trkpt lat="44.18526" lon="3.1643">
        <ele>764.4</ele>
        <time>2021-09-30T14:22:54Z</time>
      </trkpt>
      <trkpt lat="44.18521" lon="3.16431">
        <ele>764.4</ele>
        <time>2021-09-30T14:22:56Z</time>
      </trkpt>
      <trkpt lat="44.18519" lon="3.16432">
        <ele>764.4</ele>
        <time>2021-09-30T14:22:57Z</time>
      </trkpt>
      <trkpt lat="44.18515" lon="3.16434">
        <ele>764.4</ele>
        <time>2021-09-30T14:22:58Z</time>
      </trkpt>
      <trkpt lat="44.18512" lon="3.16436">
        <ele>764.4</ele>
        <time>2021-09-30T14:22:59Z</time>
      </trkpt>
      <trkpt lat="44.18509" lon="3.16439">
        <ele>764.3</ele>
        <time>2021-09-30T14:23:00Z</time>
      </trkpt>
      <trkpt lat="44.18506" lon="3.16444">
        <ele>764.3</ele>
        <time>2021-09-30T14:23:02Z</time>
      </trkpt>
      <trkpt lat="44.18505" lon="3.16449">
        <ele>764.2</ele>
        <time>2021-09-30T14:23:03Z</time>
      </trkpt>
      <trkpt lat="44.18502" lon="3.1646">
        <ele>763.9</ele>
        <time>2021-09-30T14:23:05Z</time>
      </trkpt>
      <trkpt lat="44.18499" lon="3.16468">
        <ele>763.7</ele>
        <time>2021-09-30T14:23:06Z</time>
      </trkpt>
      <trkpt lat="44.18496" lon="3.16473">
        <ele>763.5</ele>
        <time>2021-09-30T14:23:07Z</time>
      </trkpt>
      <trkpt lat="44.18493" lon="3.16478">
        <ele>763.2</ele>
        <time>2021-09-30T14:23:08Z</time>
      </trkpt>
      <trkpt lat="44.18486" lon="3.16488">
        <ele>762.7</ele>
        <time>2021-09-30T14:23:10Z</time>
      </trkpt>
      <trkpt lat="44.18483" lon="3.16492">
        <ele>762.5</ele>
        <time>2021-09-30T14:23:11Z</time>
      </trkpt>
      <trkpt lat="44.18478" lon="3.165">
        <ele>762.2</ele>
        <time>2021-09-30T14:23:13Z</time>
      </trkpt>
      <trkpt lat="44.18474" lon="3.16509">
        <ele>761.9</ele>
        <time>2021-09-30T14:23:14Z</time>
      </trkpt>
      <trkpt lat="44.18465" lon="3.16524">
        <ele>761.3</ele>
        <time>2021-09-30T14:23:16Z</time>
      </trkpt>
      <trkpt lat="44.18455" lon="3.16536">
        <ele>760.8</ele>
        <time>2021-09-30T14:23:18Z</time>
      </trkpt>
      <trkpt lat="44.18445" lon="3.16541">
        <ele>760.5</ele>
        <time>2021-09-30T14:23:20Z</time>
      </trkpt>
      <trkpt lat="44.1844" lon="3.16543">
        <ele>760.3</ele>
        <time>2021-09-30T14:23:21Z</time>
      </trkpt>
      <trkpt lat="44.18432" lon="3.16548">
        <ele>760.2</ele>
        <time>2021-09-30T14:23:23Z</time>
      </trkpt>
      <trkpt lat="44.18433" lon="3.1655">
        <ele>760.2</ele>
        <time>2021-09-30T14:23:24Z</time>
      </trkpt>
      <trkpt lat="44.18434" lon="3.16559">
        <ele>760.2</ele>
        <time>2021-09-30T14:23:26Z</time>
      </trkpt>
      <trkpt lat="44.1844" lon="3.16568">
        <ele>760.3</ele>
        <time>2021-09-30T14:23:27Z</time>
      </trkpt>
      <trkpt lat="44.18446" lon="3.1657">
        <ele>760.4</ele>
        <time>2021-09-30T14:23:29Z</time>
      </trkpt>
      <trkpt lat="44.18449" lon="3.1657">
        <ele>760.4</ele>
        <time>2021-09-30T14:23:30Z</time>
      </trkpt>
      <trkpt lat="44.18459" lon="3.16567">
        <ele>760.5</ele>
        <time>2021-09-30T14:23:32Z</time>
      </trkpt>
      <trkpt lat="44.18464" lon="3.16567">
        <ele>760.5</ele>
        <time>2021-09-30T14:23:33Z</time>
      </trkpt>
      <trkpt lat="44.18473" lon="3.16566">
        <ele>760.6</ele>
        <time>2021-09-30T14:23:35Z</time>
      </trkpt>
      <trkpt lat="44.18482" lon="3.16566">
        <ele>760.6</ele>
        <time>2021-09-30T14:23:37Z</time>
      </trkpt>
      <trkpt lat="44.18492" lon="3.1657">
        <ele>760.8</ele>
        <time>2021-09-30T14:23:39Z</time>
      </trkpt>
      <trkpt lat="44.185" lon="3.16574">
        <ele>760.9</ele>
        <time>2021-09-30T14:23:41Z</time>
      </trkpt>
      <trkpt lat="44.18504" lon="3.16577">
        <ele>761</ele>
        <time>2021-09-30T14:23:42Z</time>
      </trkpt>
      <trkpt lat="44.18508" lon="3.16581">
        <ele>761.1</ele>
        <time>2021-09-30T14:23:43Z</time>
      </trkpt>
      <trkpt lat="44.18516" lon="3.1659">
        <ele>761.2</ele>
        <time>2021-09-30T14:23:45Z</time>
      </trkpt>
      <trkpt lat="44.18521" lon="3.16595">
        <ele>761.3</ele>
        <time>2021-09-30T14:23:46Z</time>
      </trkpt>
      <trkpt lat="44.18529" lon="3.16597">
        <ele>761.4</ele>
        <time>2021-09-30T14:23:48Z</time>
      </trkpt>
      <trkpt lat="44.18533" lon="3.16593">
        <ele>761.4</ele>
        <time>2021-09-30T14:23:49Z</time>
      </trkpt>
      <trkpt lat="44.18537" lon="3.16593">
        <ele>761.4</ele>
        <time>2021-09-30T14:23:50Z</time>
      </trkpt>
      <trkpt lat="44.18544" lon="3.16591">
        <ele>761.5</ele>
        <time>2021-09-30T14:23:51Z</time>
      </trkpt>
      <trkpt lat="44.18548" lon="3.16591">
        <ele>761.5</ele>
        <time>2021-09-30T14:23:53Z</time>
      </trkpt>
      <trkpt lat="44.18552" lon="3.16592">
        <ele>761.6</ele>
        <time>2021-09-30T14:23:54Z</time>
      </trkpt>
      <trkpt lat="44.18558" lon="3.16596">
        <ele>761.7</ele>
        <time>2021-09-30T14:23:55Z</time>
      </trkpt>
      <trkpt lat="44.18564" lon="3.16598">
        <ele>761.8</ele>
        <time>2021-09-30T14:23:56Z</time>
      </trkpt>
      <trkpt lat="44.18572" lon="3.16604">
        <ele>761.9</ele>
        <time>2021-09-30T14:23:58Z</time>
      </trkpt>
      <trkpt lat="44.18576" lon="3.16607">
        <ele>762</ele>
        <time>2021-09-30T14:23:59Z</time>
      </trkpt>
      <trkpt lat="44.18581" lon="3.16611">
        <ele>762.1</ele>
        <time>2021-09-30T14:24:00Z</time>
      </trkpt>
      <trkpt lat="44.18591" lon="3.16618">
        <ele>762.2</ele>
        <time>2021-09-30T14:24:02Z</time>
      </trkpt>
      <trkpt lat="44.18595" lon="3.16621">
        <ele>762.3</ele>
        <time>2021-09-30T14:24:03Z</time>
      </trkpt>
      <trkpt lat="44.18602" lon="3.16627">
        <ele>762.4</ele>
        <time>2021-09-30T14:24:05Z</time>
      </trkpt>
      <trkpt lat="44.18606" lon="3.16633">
        <ele>762.4</ele>
        <time>2021-09-30T14:24:06Z</time>
      </trkpt>
      <trkpt lat="44.18609" lon="3.16638">
        <ele>762.4</ele>
        <time>2021-09-30T14:24:07Z</time>
      </trkpt>
      <trkpt lat="44.18616" lon="3.16648">
        <ele>762.4</ele>
        <time>2021-09-30T14:24:09Z</time>
      </trkpt>
      <trkpt lat="44.18618" lon="3.1665">
        <ele>762.4</ele>
        <time>2021-09-30T14:24:10Z</time>
      </trkpt>
      <trkpt lat="44.1862" lon="3.16665">
        <ele>762.4</ele>
        <time>2021-09-30T14:24:12Z</time>
      </trkpt>
      <trkpt lat="44.1862" lon="3.16675">
        <ele>762.3</ele>
        <time>2021-09-30T14:24:13Z</time>
      </trkpt>
      <trkpt lat="44.18623" lon="3.1669">
        <ele>762.3</ele>
        <time>2021-09-30T14:24:15Z</time>
      </trkpt>
      <trkpt lat="44.18624" lon="3.16695">
        <ele>762.3</ele>
        <time>2021-09-30T14:24:16Z</time>
      </trkpt>
      <trkpt lat="44.18627" lon="3.16702">
        <ele>762.4</ele>
        <time>2021-09-30T14:24:17Z</time>
      </trkpt>
      <trkpt lat="44.18629" lon="3.1671">
        <ele>762.5</ele>
        <time>2021-09-30T14:24:18Z</time>
      </trkpt>
      <trkpt lat="44.18634" lon="3.16725">
        <ele>763</ele>
        <time>2021-09-30T14:24:20Z</time>
      </trkpt>
      <trkpt lat="44.18639" lon="3.16734">
        <ele>763.5</ele>
        <time>2021-09-30T14:24:22Z</time>
      </trkpt>
      <trkpt lat="44.18642" lon="3.16737">
        <ele>763.8</ele>
        <time>2021-09-30T14:24:23Z</time>
      </trkpt>
      <trkpt lat="44.18643" lon="3.16742">
        <ele>764.2</ele>
        <time>2021-09-30T14:24:24Z</time>
      </trkpt>
      <trkpt lat="44.18645" lon="3.16747">
        <ele>764.6</ele>
        <time>2021-09-30T14:24:26Z</time>
      </trkpt>
      <trkpt lat="44.18645" lon="3.16748">
        <ele>764.7</ele>
        <time>2021-09-30T14:24:27Z</time>
      </trkpt>
      <trkpt lat="44.18646" lon="3.16753">
        <ele>765.1</ele>
        <time>2021-09-30T14:24:29Z</time>
      </trkpt>
      <trkpt lat="44.18647" lon="3.16758">
        <ele>765.5</ele>
        <time>2021-09-30T14:24:30Z</time>
      </trkpt>
      <trkpt lat="44.18648" lon="3.16759">
        <ele>765.6</ele>
        <time>2021-09-30T14:24:31Z</time>
      </trkpt>
      <trkpt lat="44.18649" lon="3.16762">
        <ele>765.9</ele>
        <time>2021-09-30T14:24:32Z</time>
      </trkpt>
      <trkpt lat="44.1865" lon="3.16766">
        <ele>766.2</ele>
        <time>2021-09-30T14:24:34Z</time>
      </trkpt>
      <trkpt lat="44.18651" lon="3.1677">
        <ele>766.5</ele>
        <time>2021-09-30T14:24:35Z</time>
      </trkpt>
      <trkpt lat="44.18652" lon="3.16772">
        <ele>766.7</ele>
        <time>2021-09-30T14:24:36Z</time>
      </trkpt>
      <trkpt lat="44.18653" lon="3.16775">
        <ele>767</ele>
        <time>2021-09-30T14:24:38Z</time>
      </trkpt>
      <trkpt lat="44.18654" lon="3.16776">
        <ele>767.1</ele>
        <time>2021-09-30T14:24:39Z</time>
      </trkpt>
      <trkpt lat="44.18656" lon="3.1678">
        <ele>767.6</ele>
        <time>2021-09-30T14:24:41Z</time>
      </trkpt>
      <trkpt lat="44.18658" lon="3.16784">
        <ele>767.9</ele>
        <time>2021-09-30T14:24:42Z</time>
      </trkpt>
      <trkpt lat="44.18659" lon="3.16786">
        <ele>768.2</ele>
        <time>2021-09-30T14:24:43Z</time>
      </trkpt>
      <trkpt lat="44.18661" lon="3.16789">
        <ele>768.5</ele>
        <time>2021-09-30T14:24:45Z</time>
      </trkpt>
      <trkpt lat="44.18663" lon="3.16794">
        <ele>769</ele>
        <time>2021-09-30T14:24:46Z</time>
      </trkpt>
      <trkpt lat="44.18665" lon="3.16797">
        <ele>769.3</ele>
        <time>2021-09-30T14:24:48Z</time>
      </trkpt>
      <trkpt lat="44.18666" lon="3.16801">
        <ele>769.7</ele>
        <time>2021-09-30T14:24:49Z</time>
      </trkpt>
      <trkpt lat="44.18666" lon="3.16808">
        <ele>770.2</ele>
        <time>2021-09-30T14:24:51Z</time>
      </trkpt>
      <trkpt lat="44.18666" lon="3.16813">
        <ele>770.5</ele>
        <time>2021-09-30T14:24:52Z</time>
      </trkpt>
      <trkpt lat="44.18667" lon="3.16818">
        <ele>770.8</ele>
        <time>2021-09-30T14:24:54Z</time>
      </trkpt>
      <trkpt lat="44.18667" lon="3.16822">
        <ele>771</ele>
        <time>2021-09-30T14:24:55Z</time>
      </trkpt>
      <trkpt lat="44.18666" lon="3.16827">
        <ele>771.2</ele>
        <time>2021-09-30T14:24:56Z</time>
      </trkpt>
      <trkpt lat="44.18666" lon="3.16828">
        <ele>771.3</ele>
        <time>2021-09-30T14:24:57Z</time>
      </trkpt>
      <trkpt lat="44.18666" lon="3.1683">
        <ele>771.4</ele>
        <time>2021-09-30T14:24:59Z</time>
      </trkpt>
      <trkpt lat="44.18666" lon="3.1683">
        <ele>771.4</ele>
        <time>2021-09-30T14:25:00Z</time>
      </trkpt>
      <trkpt lat="44.18665" lon="3.16831">
        <ele>771.4</ele>
        <time>2021-09-30T14:25:02Z</time>
      </trkpt>
      <trkpt lat="44.18665" lon="3.1683">
        <ele>771.5</ele>
        <time>2021-09-30T14:25:03Z</time>
      </trkpt>
      <trkpt lat="44.18665" lon="3.16829">
        <ele>771.5</ele>
        <time>2021-09-30T14:25:05Z</time>
      </trkpt>
      <trkpt lat="44.18665" lon="3.16828">
        <ele>771.5</ele>
        <time>2021-09-30T14:25:06Z</time>
      </trkpt>
      <trkpt lat="44.18665" lon="3.16828">
        <ele>771.5</ele>
        <time>2021-09-30T14:25:07Z</time>
      </trkpt>
      <trkpt lat="44.18665" lon="3.16827">
        <ele>771.6</ele>
        <time>2021-09-30T14:25:08Z</time>
      </trkpt>
      <trkpt lat="44.18665" lon="3.16827">
        <ele>771.6</ele>
        <time>2021-09-30T14:25:10Z</time>
      </trkpt>
      <trkpt lat="44.18668" lon="3.16831">
        <ele>771.9</ele>
        <time>2021-09-30T14:25:39Z</time>
      </trkpt>
      <trkpt lat="44.18668" lon="3.16833">
        <ele>771.9</ele>
        <time>2021-09-30T14:25:40Z</time>
      </trkpt>
      <trkpt lat="44.18669" lon="3.16834">
        <ele>772</ele>
        <time>2021-09-30T14:25:41Z</time>
      </trkpt>
      <trkpt lat="44.1867" lon="3.16836">
        <ele>772.2</ele>
        <time>2021-09-30T14:25:43Z</time>
      </trkpt>
      <trkpt lat="44.18673" lon="3.16839">
        <ele>772.4</ele>
        <time>2021-09-30T14:25:44Z</time>
      </trkpt>
      <trkpt lat="44.18676" lon="3.16843">
        <ele>772.7</ele>
        <time>2021-09-30T14:25:46Z</time>
      </trkpt>
      <trkpt lat="44.18679" lon="3.16849">
        <ele>773</ele>
        <time>2021-09-30T14:25:47Z</time>
      </trkpt>
      <trkpt lat="44.1868" lon="3.16854">
        <ele>773.3</ele>
        <time>2021-09-30T14:25:48Z</time>
      </trkpt>
      <trkpt lat="44.18681" lon="3.16859">
        <ele>773.5</ele>
        <time>2021-09-30T14:25:49Z</time>
      </trkpt>
      <trkpt lat="44.18682" lon="3.16864">
        <ele>773.7</ele>
        <time>2021-09-30T14:25:51Z</time>
      </trkpt>
      <trkpt lat="44.18683" lon="3.16868">
        <ele>773.9</ele>
        <time>2021-09-30T14:25:52Z</time>
      </trkpt>
      <trkpt lat="44.18683" lon="3.16877">
        <ele>774.3</ele>
        <time>2021-09-30T14:25:54Z</time>
      </trkpt>
      <trkpt lat="44.18683" lon="3.16882">
        <ele>774.5</ele>
        <time>2021-09-30T14:25:55Z</time>
      </trkpt>
      <trkpt lat="44.18683" lon="3.16888">
        <ele>774.3</ele>
        <time>2021-09-30T14:25:57Z</time>
      </trkpt>
      <trkpt lat="44.18683" lon="3.16892">
        <ele>774.2</ele>
        <time>2021-09-30T14:25:58Z</time>
      </trkpt>
      <trkpt lat="44.18682" lon="3.16893">
        <ele>774.1</ele>
        <time>2021-09-30T14:25:59Z</time>
      </trkpt>
      <trkpt lat="44.18682" lon="3.16897">
        <ele>773.9</ele>
        <time>2021-09-30T14:26:00Z</time>
      </trkpt>
      <trkpt lat="44.18682" lon="3.16898">
        <ele>773.8</ele>
        <time>2021-09-30T14:26:02Z</time>
      </trkpt>
      <trkpt lat="44.18683" lon="3.16899">
        <ele>773.8</ele>
        <time>2021-09-30T14:26:04Z</time>
      </trkpt>
      <trkpt lat="44.18683" lon="3.16899">
        <ele>773.7</ele>
        <time>2021-09-30T14:26:05Z</time>
      </trkpt>
      <trkpt lat="44.18683" lon="3.16899">
        <ele>773.7</ele>
        <time>2021-09-30T14:26:06Z</time>
      </trkpt>
      <trkpt lat="44.18683" lon="3.169">
        <ele>773.7</ele>
        <time>2021-09-30T14:26:07Z</time>
      </trkpt>
      <trkpt lat="44.18683" lon="3.169">
        <ele>773.7</ele>
        <time>2021-09-30T14:26:09Z</time>
      </trkpt>
      <trkpt lat="44.18683" lon="3.169">
        <ele>773.6</ele>
        <time>2021-09-30T14:26:10Z</time>
      </trkpt>
      <trkpt lat="44.18682" lon="3.169">
        <ele>773.6</ele>
        <time>2021-09-30T14:26:12Z</time>
      </trkpt>
      <trkpt lat="44.18685" lon="3.16904">
        <ele>773.2</ele>
        <time>2021-09-30T14:26:56Z</time>
      </trkpt>
      <trkpt lat="44.18692" lon="3.16902">
        <ele>772.4</ele>
        <time>2021-09-30T14:26:58Z</time>
      </trkpt>
      <trkpt lat="44.18709" lon="3.16896">
        <ele>769.4</ele>
        <time>2021-09-30T14:27:00Z</time>
      </trkpt>
      <trkpt lat="44.18716" lon="3.16896">
        <ele>768.2</ele>
        <time>2021-09-30T14:27:01Z</time>
      </trkpt>
      <trkpt lat="44.18729" lon="3.16895">
        <ele>765.9</ele>
        <time>2021-09-30T14:27:03Z</time>
      </trkpt>
      <trkpt lat="44.18736" lon="3.16884">
        <ele>764.4</ele>
        <time>2021-09-30T14:27:05Z</time>
      </trkpt>
      <trkpt lat="44.18743" lon="3.16878">
        <ele>763.5</ele>
        <time>2021-09-30T14:27:06Z</time>
      </trkpt>
      <trkpt lat="44.1875" lon="3.16873">
        <ele>762.5</ele>
        <time>2021-09-30T14:27:07Z</time>
      </trkpt>
      <trkpt lat="44.18767" lon="3.16865">
        <ele>760.7</ele>
        <time>2021-09-30T14:27:09Z</time>
      </trkpt>
      <trkpt lat="44.18774" lon="3.16864">
        <ele>760.4</ele>
        <time>2021-09-30T14:27:10Z</time>
      </trkpt>
      <trkpt lat="44.18782" lon="3.16865">
        <ele>760.3</ele>
        <time>2021-09-30T14:27:11Z</time>
      </trkpt>
      <trkpt lat="44.1879" lon="3.16868">
        <ele>760.4</ele>
        <time>2021-09-30T14:27:13Z</time>
      </trkpt>
      <trkpt lat="44.18792" lon="3.16871">
        <ele>760.5</ele>
        <time>2021-09-30T14:27:14Z</time>
      </trkpt>
      <trkpt lat="44.18793" lon="3.16873">
        <ele>760.5</ele>
        <time>2021-09-30T14:27:15Z</time>
      </trkpt>
      <trkpt lat="44.18798" lon="3.16877">
        <ele>760.7</ele>
        <time>2021-09-30T14:27:17Z</time>
      </trkpt>
      <trkpt lat="44.18801" lon="3.16879">
        <ele>760.8</ele>
        <time>2021-09-30T14:27:18Z</time>
      </trkpt>
      <trkpt lat="44.18806" lon="3.16881">
        <ele>761</ele>
        <time>2021-09-30T14:27:19Z</time>
      </trkpt>
      <trkpt lat="44.1881" lon="3.16883">
        <ele>761.2</ele>
        <time>2021-09-30T14:27:20Z</time>
      </trkpt>
      <trkpt lat="44.18815" lon="3.16885">
        <ele>761.5</ele>
        <time>2021-09-30T14:27:22Z</time>
      </trkpt>
      <trkpt lat="44.18819" lon="3.16887">
        <ele>761.7</ele>
        <time>2021-09-30T14:27:23Z</time>
      </trkpt>
      <trkpt lat="44.18822" lon="3.1689">
        <ele>762</ele>
        <time>2021-09-30T14:27:24Z</time>
      </trkpt>
      <trkpt lat="44.18827" lon="3.16895">
        <ele>762.5</ele>
        <time>2021-09-30T14:27:25Z</time>
      </trkpt>
      <trkpt lat="44.18829" lon="3.16898">
        <ele>762.8</ele>
        <time>2021-09-30T14:27:26Z</time>
      </trkpt>
      <trkpt lat="44.18832" lon="3.16903">
        <ele>763.2</ele>
        <time>2021-09-30T14:27:28Z</time>
      </trkpt>
      <trkpt lat="44.18834" lon="3.16906">
        <ele>763.5</ele>
        <time>2021-09-30T14:27:29Z</time>
      </trkpt>
      <trkpt lat="44.18837" lon="3.16911">
        <ele>763.8</ele>
        <time>2021-09-30T14:27:30Z</time>
      </trkpt>
      <trkpt lat="44.1884" lon="3.16914">
        <ele>764.2</ele>
        <time>2021-09-30T14:27:31Z</time>
      </trkpt>
      <trkpt lat="44.18842" lon="3.16918">
        <ele>764.5</ele>
        <time>2021-09-30T14:27:32Z</time>
      </trkpt>
      <trkpt lat="44.18844" lon="3.16921">
        <ele>764.8</ele>
        <time>2021-09-30T14:27:34Z</time>
      </trkpt>
      <trkpt lat="44.18845" lon="3.16924">
        <ele>765</ele>
        <time>2021-09-30T14:27:35Z</time>
      </trkpt>
      <trkpt lat="44.18848" lon="3.1693">
        <ele>765.4</ele>
        <time>2021-09-30T14:27:37Z</time>
      </trkpt>
      <trkpt lat="44.18849" lon="3.16936">
        <ele>765.6</ele>
        <time>2021-09-30T14:27:38Z</time>
      </trkpt>
      <trkpt lat="44.1885" lon="3.16941">
        <ele>765.8</ele>
        <time>2021-09-30T14:27:39Z</time>
      </trkpt>
      <trkpt lat="44.18851" lon="3.16945">
        <ele>765.9</ele>
        <time>2021-09-30T14:27:40Z</time>
      </trkpt>
      <trkpt lat="44.18852" lon="3.16949">
        <ele>765.9</ele>
        <time>2021-09-30T14:27:42Z</time>
      </trkpt>
      <trkpt lat="44.18853" lon="3.16953">
        <ele>765.9</ele>
        <time>2021-09-30T14:27:43Z</time>
      </trkpt>
      <trkpt lat="44.18855" lon="3.16956">
        <ele>765.8</ele>
        <time>2021-09-30T14:27:44Z</time>
      </trkpt>
      <trkpt lat="44.18859" lon="3.16959">
        <ele>765.6</ele>
        <time>2021-09-30T14:27:46Z</time>
      </trkpt>
      <trkpt lat="44.18863" lon="3.1696">
        <ele>765.4</ele>
        <time>2021-09-30T14:27:47Z</time>
      </trkpt>
      <trkpt lat="44.18867" lon="3.16963">
        <ele>765.1</ele>
        <time>2021-09-30T14:27:49Z</time>
      </trkpt>
      <trkpt lat="44.1887" lon="3.16967">
        <ele>764.8</ele>
        <time>2021-09-30T14:27:51Z</time>
      </trkpt>
      <trkpt lat="44.18871" lon="3.1697">
        <ele>764.6</ele>
        <time>2021-09-30T14:27:52Z</time>
      </trkpt>
      <trkpt lat="44.18871" lon="3.16975">
        <ele>764.3</ele>
        <time>2021-09-30T14:27:54Z</time>
      </trkpt>
      <trkpt lat="44.18873" lon="3.1698">
        <ele>763.9</ele>
        <time>2021-09-30T14:27:55Z</time>
      </trkpt>
      <trkpt lat="44.1888" lon="3.16987">
        <ele>763</ele>
        <time>2021-09-30T14:27:56Z</time>
      </trkpt>
      <trkpt lat="44.18886" lon="3.16991">
        <ele>762.5</ele>
        <time>2021-09-30T14:27:57Z</time>
      </trkpt>
      <trkpt lat="44.18892" lon="3.16996">
        <ele>762.3</ele>
        <time>2021-09-30T14:27:58Z</time>
      </trkpt>
      <trkpt lat="44.189" lon="3.17004">
        <ele>762.4</ele>
        <time>2021-09-30T14:28:00Z</time>
      </trkpt>
      <trkpt lat="44.18902" lon="3.17008">
        <ele>762.4</ele>
        <time>2021-09-30T14:28:01Z</time>
      </trkpt>
      <trkpt lat="44.18905" lon="3.1701">
        <ele>762.4</ele>
        <time>2021-09-30T14:28:02Z</time>
      </trkpt>
      <trkpt lat="44.18909" lon="3.17012">
        <ele>762.3</ele>
        <time>2021-09-30T14:28:03Z</time>
      </trkpt>
      <trkpt lat="44.18914" lon="3.17014">
        <ele>762</ele>
        <time>2021-09-30T14:28:05Z</time>
      </trkpt>
      <trkpt lat="44.18918" lon="3.17017">
        <ele>761.6</ele>
        <time>2021-09-30T14:28:06Z</time>
      </trkpt>
      <trkpt lat="44.18922" lon="3.17017">
        <ele>761.1</ele>
        <time>2021-09-30T14:28:08Z</time>
      </trkpt>
      <trkpt lat="44.18927" lon="3.17019">
        <ele>760.6</ele>
        <time>2021-09-30T14:28:09Z</time>
      </trkpt>
      <trkpt lat="44.1893" lon="3.17022">
        <ele>760.3</ele>
        <time>2021-09-30T14:28:11Z</time>
      </trkpt>
      <trkpt lat="44.18932" lon="3.17025">
        <ele>760.1</ele>
        <time>2021-09-30T14:28:12Z</time>
      </trkpt>
      <trkpt lat="44.18934" lon="3.17026">
        <ele>760.1</ele>
        <time>2021-09-30T14:28:13Z</time>
      </trkpt>
      <trkpt lat="44.18938" lon="3.17029">
        <ele>760.1</ele>
        <time>2021-09-30T14:28:15Z</time>
      </trkpt>
      <trkpt lat="44.18941" lon="3.17031">
        <ele>760.2</ele>
        <time>2021-09-30T14:28:16Z</time>
      </trkpt>
      <trkpt lat="44.18943" lon="3.17032">
        <ele>760.3</ele>
        <time>2021-09-30T14:28:17Z</time>
      </trkpt>
      <trkpt lat="44.18945" lon="3.17036">
        <ele>760.5</ele>
        <time>2021-09-30T14:28:18Z</time>
      </trkpt>
      <trkpt lat="44.18945" lon="3.17038">
        <ele>760.6</ele>
        <time>2021-09-30T14:28:19Z</time>
      </trkpt>
      <trkpt lat="44.18947" lon="3.17041">
        <ele>760.8</ele>
        <time>2021-09-30T14:28:21Z</time>
      </trkpt>
      <trkpt lat="44.18948" lon="3.17041">
        <ele>760.9</ele>
        <time>2021-09-30T14:28:22Z</time>
      </trkpt>
      <trkpt lat="44.18949" lon="3.17042">
        <ele>761</ele>
        <time>2021-09-30T14:28:23Z</time>
      </trkpt>
      <trkpt lat="44.1895" lon="3.17043">
        <ele>761.1</ele>
        <time>2021-09-30T14:28:24Z</time>
      </trkpt>
      <trkpt lat="44.18953" lon="3.17044">
        <ele>761.3</ele>
        <time>2021-09-30T14:28:25Z</time>
      </trkpt>
      <trkpt lat="44.18954" lon="3.17044">
        <ele>761.4</ele>
        <time>2021-09-30T14:28:26Z</time>
      </trkpt>
      <trkpt lat="44.18957" lon="3.17047">
        <ele>761.7</ele>
        <time>2021-09-30T14:28:28Z</time>
      </trkpt>
      <trkpt lat="44.1896" lon="3.1705">
        <ele>761.9</ele>
        <time>2021-09-30T14:28:29Z</time>
      </trkpt>
      <trkpt lat="44.1896" lon="3.17052">
        <ele>762</ele>
        <time>2021-09-30T14:28:31Z</time>
      </trkpt>
      <trkpt lat="44.18962" lon="3.17054">
        <ele>762.1</ele>
        <time>2021-09-30T14:28:32Z</time>
      </trkpt>
      <trkpt lat="44.18965" lon="3.17058">
        <ele>762.3</ele>
        <time>2021-09-30T14:28:34Z</time>
      </trkpt>
      <trkpt lat="44.18967" lon="3.17061">
        <ele>762.4</ele>
        <time>2021-09-30T14:28:35Z</time>
      </trkpt>
      <trkpt lat="44.18969" lon="3.17065">
        <ele>762.5</ele>
        <time>2021-09-30T14:28:36Z</time>
      </trkpt>
      <trkpt lat="44.1897" lon="3.1707">
        <ele>762.7</ele>
        <time>2021-09-30T14:28:38Z</time>
      </trkpt>
      <trkpt lat="44.18971" lon="3.17073">
        <ele>762.8</ele>
        <time>2021-09-30T14:28:39Z</time>
      </trkpt>
      <trkpt lat="44.18972" lon="3.17079">
        <ele>763</ele>
        <time>2021-09-30T14:28:41Z</time>
      </trkpt>
      <trkpt lat="44.18971" lon="3.17081">
        <ele>763.1</ele>
        <time>2021-09-30T14:28:42Z</time>
      </trkpt>
      <trkpt lat="44.18971" lon="3.17082">
        <ele>763.1</ele>
        <time>2021-09-30T14:28:43Z</time>
      </trkpt>
      <trkpt lat="44.18972" lon="3.17086">
        <ele>763.3</ele>
        <time>2021-09-30T14:28:44Z</time>
      </trkpt>
      <trkpt lat="44.18973" lon="3.17091">
        <ele>763.4</ele>
        <time>2021-09-30T14:28:46Z</time>
      </trkpt>
      <trkpt lat="44.18973" lon="3.17093">
        <ele>763.5</ele>
        <time>2021-09-30T14:28:47Z</time>
      </trkpt>
      <trkpt lat="44.18974" lon="3.17098">
        <ele>763.5</ele>
        <time>2021-09-30T14:28:48Z</time>
      </trkpt>
      <trkpt lat="44.18974" lon="3.17104">
        <ele>763.5</ele>
        <time>2021-09-30T14:28:50Z</time>
      </trkpt>
      <trkpt lat="44.18974" lon="3.1711">
        <ele>763.4</ele>
        <time>2021-09-30T14:28:51Z</time>
      </trkpt>
      <trkpt lat="44.18975" lon="3.1712">
        <ele>762</ele>
        <time>2021-09-30T14:28:53Z</time>
      </trkpt>
      <trkpt lat="44.18976" lon="3.1714">
        <ele>760.9</ele>
        <time>2021-09-30T14:28:54Z</time>
      </trkpt>
      <trkpt lat="44.18973" lon="3.17148">
        <ele>760.5</ele>
        <time>2021-09-30T14:28:55Z</time>
      </trkpt>
      <trkpt lat="44.1897" lon="3.17158">
        <ele>760.1</ele>
        <time>2021-09-30T14:28:57Z</time>
      </trkpt>
      <trkpt lat="44.18974" lon="3.17165">
        <ele>759.8</ele>
        <time>2021-09-30T14:28:58Z</time>
      </trkpt>
      <trkpt lat="44.18974" lon="3.1717">
        <ele>759.5</ele>
        <time>2021-09-30T14:28:59Z</time>
      </trkpt>
      <trkpt lat="44.18979" lon="3.17186">
        <ele>758.1</ele>
        <time>2021-09-30T14:29:01Z</time>
      </trkpt>
      <trkpt lat="44.18979" lon="3.17194">
        <ele>757.4</ele>
        <time>2021-09-30T14:29:02Z</time>
      </trkpt>
      <trkpt lat="44.18981" lon="3.17206">
        <ele>756.2</ele>
        <time>2021-09-30T14:29:04Z</time>
      </trkpt>
      <trkpt lat="44.18984" lon="3.1721">
        <ele>755.5</ele>
        <time>2021-09-30T14:29:05Z</time>
      </trkpt>
      <trkpt lat="44.18984" lon="3.17218">
        <ele>754.7</ele>
        <time>2021-09-30T14:29:06Z</time>
      </trkpt>
      <trkpt lat="44.18984" lon="3.17223">
        <ele>754.1</ele>
        <time>2021-09-30T14:29:08Z</time>
      </trkpt>
      <trkpt lat="44.18984" lon="3.1724">
        <ele>752.8</ele>
        <time>2021-09-30T14:29:10Z</time>
      </trkpt>
      <trkpt lat="44.18983" lon="3.1725">
        <ele>752.5</ele>
        <time>2021-09-30T14:29:11Z</time>
      </trkpt>
      <trkpt lat="44.18981" lon="3.17255">
        <ele>752.4</ele>
        <time>2021-09-30T14:29:13Z</time>
      </trkpt>
      <trkpt lat="44.18981" lon="3.17262">
        <ele>752.4</ele>
        <time>2021-09-30T14:29:14Z</time>
      </trkpt>
      <trkpt lat="44.18981" lon="3.17267">
        <ele>752.4</ele>
        <time>2021-09-30T14:29:16Z</time>
      </trkpt>
      <trkpt lat="44.18977" lon="3.17271">
        <ele>752.5</ele>
        <time>2021-09-30T14:29:17Z</time>
      </trkpt>
      <trkpt lat="44.18973" lon="3.17271">
        <ele>752.6</ele>
        <time>2021-09-30T14:29:19Z</time>
      </trkpt>
      <trkpt lat="44.1897" lon="3.17272">
        <ele>752.7</ele>
        <time>2021-09-30T14:29:20Z</time>
      </trkpt>
      <trkpt lat="44.18965" lon="3.17275">
        <ele>752.8</ele>
        <time>2021-09-30T14:29:21Z</time>
      </trkpt>
      <trkpt lat="44.18961" lon="3.17281">
        <ele>752.8</ele>
        <time>2021-09-30T14:29:23Z</time>
      </trkpt>
      <trkpt lat="44.18958" lon="3.17289">
        <ele>752.8</ele>
        <time>2021-09-30T14:29:24Z</time>
      </trkpt>
      <trkpt lat="44.18959" lon="3.17304">
        <ele>752.4</ele>
        <time>2021-09-30T14:29:26Z</time>
      </trkpt>
      <trkpt lat="44.18959" lon="3.17311">
        <ele>752.2</ele>
        <time>2021-09-30T14:29:27Z</time>
      </trkpt>
      <trkpt lat="44.1896" lon="3.17315">
        <ele>752</ele>
        <time>2021-09-30T14:29:28Z</time>
      </trkpt>
      <trkpt lat="44.18971" lon="3.17328">
        <ele>750.7</ele>
        <time>2021-09-30T14:29:30Z</time>
      </trkpt>
      <trkpt lat="44.18974" lon="3.17333">
        <ele>750.3</ele>
        <time>2021-09-30T14:29:31Z</time>
      </trkpt>
      <trkpt lat="44.18974" lon="3.17338">
        <ele>750</ele>
        <time>2021-09-30T14:29:32Z</time>
      </trkpt>
      <trkpt lat="44.18975" lon="3.17345">
        <ele>749.7</ele>
        <time>2021-09-30T14:29:34Z</time>
      </trkpt>
      <trkpt lat="44.18977" lon="3.1735">
        <ele>749.7</ele>
        <time>2021-09-30T14:29:35Z</time>
      </trkpt>
      <trkpt lat="44.18979" lon="3.17355">
        <ele>749.7</ele>
        <time>2021-09-30T14:29:36Z</time>
      </trkpt>
      <trkpt lat="44.1898" lon="3.17357">
        <ele>749.8</ele>
        <time>2021-09-30T14:29:37Z</time>
      </trkpt>
      <trkpt lat="44.1898" lon="3.17361">
        <ele>749.9</ele>
        <time>2021-09-30T14:29:39Z</time>
      </trkpt>
      <trkpt lat="44.18982" lon="3.17365">
        <ele>750.1</ele>
        <time>2021-09-30T14:29:40Z</time>
      </trkpt>
      <trkpt lat="44.18984" lon="3.17369">
        <ele>750.2</ele>
        <time>2021-09-30T14:29:41Z</time>
      </trkpt>
      <trkpt lat="44.18987" lon="3.17372">
        <ele>750.3</ele>
        <time>2021-09-30T14:29:43Z</time>
      </trkpt>
      <trkpt lat="44.18991" lon="3.17374">
        <ele>750.4</ele>
        <time>2021-09-30T14:29:44Z</time>
      </trkpt>
      <trkpt lat="44.18995" lon="3.17375">
        <ele>750.4</ele>
        <time>2021-09-30T14:29:46Z</time>
      </trkpt>
      <trkpt lat="44.18999" lon="3.17374">
        <ele>750.2</ele>
        <time>2021-09-30T14:29:48Z</time>
      </trkpt>
      <trkpt lat="44.19004" lon="3.17373">
        <ele>750</ele>
        <time>2021-09-30T14:29:49Z</time>
      </trkpt>
      <trkpt lat="44.19007" lon="3.17369">
        <ele>749.6</ele>
        <time>2021-09-30T14:29:50Z</time>
      </trkpt>
      <trkpt lat="44.19014" lon="3.17358">
        <ele>748.2</ele>
        <time>2021-09-30T14:29:52Z</time>
      </trkpt>
      <trkpt lat="44.19023" lon="3.17348">
        <ele>746</ele>
        <time>2021-09-30T14:29:54Z</time>
      </trkpt>
      <trkpt lat="44.1903" lon="3.17344">
        <ele>744.7</ele>
        <time>2021-09-30T14:29:55Z</time>
      </trkpt>
      <trkpt lat="44.19041" lon="3.17342">
        <ele>743.6</ele>
        <time>2021-09-30T14:29:57Z</time>
      </trkpt>
      <trkpt lat="44.19047" lon="3.1734">
        <ele>743.5</ele>
        <time>2021-09-30T14:29:58Z</time>
      </trkpt>
      <trkpt lat="44.19051" lon="3.17341">
        <ele>743.7</ele>
        <time>2021-09-30T14:29:59Z</time>
      </trkpt>
      <trkpt lat="44.19054" lon="3.17344">
        <ele>744</ele>
        <time>2021-09-30T14:30:01Z</time>
      </trkpt>
      <trkpt lat="44.19056" lon="3.17347">
        <ele>744.3</ele>
        <time>2021-09-30T14:30:03Z</time>
      </trkpt>
      <trkpt lat="44.19059" lon="3.1735">
        <ele>744.7</ele>
        <time>2021-09-30T14:30:04Z</time>
      </trkpt>
      <trkpt lat="44.19061" lon="3.17354">
        <ele>745.2</ele>
        <time>2021-09-30T14:30:06Z</time>
      </trkpt>
      <trkpt lat="44.19062" lon="3.17355">
        <ele>745.3</ele>
        <time>2021-09-30T14:30:07Z</time>
      </trkpt>
      <trkpt lat="44.19065" lon="3.17357">
        <ele>745.8</ele>
        <time>2021-09-30T14:30:09Z</time>
      </trkpt>
      <trkpt lat="44.19066" lon="3.17358">
        <ele>745.9</ele>
        <time>2021-09-30T14:30:10Z</time>
      </trkpt>
      <trkpt lat="44.19068" lon="3.17359">
        <ele>746.2</ele>
        <time>2021-09-30T14:30:11Z</time>
      </trkpt>
      <trkpt lat="44.19069" lon="3.1736">
        <ele>746.4</ele>
        <time>2021-09-30T14:30:12Z</time>
      </trkpt>
      <trkpt lat="44.19071" lon="3.17361">
        <ele>746.7</ele>
        <time>2021-09-30T14:30:13Z</time>
      </trkpt>
      <trkpt lat="44.19074" lon="3.17363">
        <ele>747.2</ele>
        <time>2021-09-30T14:30:15Z</time>
      </trkpt>
      <trkpt lat="44.19077" lon="3.17364">
        <ele>747.6</ele>
        <time>2021-09-30T14:30:16Z</time>
      </trkpt>
      <trkpt lat="44.19078" lon="3.17364">
        <ele>747.7</ele>
        <time>2021-09-30T14:30:17Z</time>
      </trkpt>
      <trkpt lat="44.19081" lon="3.17365">
        <ele>748.1</ele>
        <time>2021-09-30T14:30:19Z</time>
      </trkpt>
      <trkpt lat="44.19082" lon="3.17365">
        <ele>748.3</ele>
        <time>2021-09-30T14:30:20Z</time>
      </trkpt>
      <trkpt lat="44.19084" lon="3.17365">
        <ele>748.5</ele>
        <time>2021-09-30T14:30:21Z</time>
      </trkpt>
      <trkpt lat="44.19087" lon="3.17365">
        <ele>748.9</ele>
        <time>2021-09-30T14:30:23Z</time>
      </trkpt>
      <trkpt lat="44.1909" lon="3.17365">
        <ele>749.3</ele>
        <time>2021-09-30T14:30:24Z</time>
      </trkpt>
      <trkpt lat="44.1909" lon="3.17366">
        <ele>749.4</ele>
        <time>2021-09-30T14:30:25Z</time>
      </trkpt>
      <trkpt lat="44.19092" lon="3.17367">
        <ele>749.6</ele>
        <time>2021-09-30T14:30:26Z</time>
      </trkpt>
      <trkpt lat="44.19093" lon="3.17368">
        <ele>749.8</ele>
        <time>2021-09-30T14:30:27Z</time>
      </trkpt>
      <trkpt lat="44.19094" lon="3.1737">
        <ele>750.1</ele>
        <time>2021-09-30T14:30:28Z</time>
      </trkpt>
      <trkpt lat="44.19095" lon="3.17372">
        <ele>750.3</ele>
        <time>2021-09-30T14:30:29Z</time>
      </trkpt>
      <trkpt lat="44.19097" lon="3.17374">
        <ele>750.6</ele>
        <time>2021-09-30T14:30:30Z</time>
      </trkpt>
      <trkpt lat="44.19099" lon="3.17377">
        <ele>750.9</ele>
        <time>2021-09-30T14:30:32Z</time>
      </trkpt>
      <trkpt lat="44.19102" lon="3.1738">
        <ele>751.4</ele>
        <time>2021-09-30T14:30:33Z</time>
      </trkpt>
      <trkpt lat="44.19105" lon="3.17384">
        <ele>751.9</ele>
        <time>2021-09-30T14:30:35Z</time>
      </trkpt>
      <trkpt lat="44.19106" lon="3.17386">
        <ele>752.1</ele>
        <time>2021-09-30T14:30:36Z</time>
      </trkpt>
      <trkpt lat="44.19107" lon="3.1739">
        <ele>752.5</ele>
        <time>2021-09-30T14:30:38Z</time>
      </trkpt>
      <trkpt lat="44.19108" lon="3.17391">
        <ele>752.6</ele>
        <time>2021-09-30T14:30:39Z</time>
      </trkpt>
      <trkpt lat="44.19109" lon="3.17394">
        <ele>752.9</ele>
        <time>2021-09-30T14:30:40Z</time>
      </trkpt>
      <trkpt lat="44.1911" lon="3.17396">
        <ele>753.2</ele>
        <time>2021-09-30T14:30:42Z</time>
      </trkpt>
      <trkpt lat="44.19112" lon="3.17399">
        <ele>753.5</ele>
        <time>2021-09-30T14:30:44Z</time>
      </trkpt>
      <trkpt lat="44.19114" lon="3.17402">
        <ele>753.9</ele>
        <time>2021-09-30T14:30:45Z</time>
      </trkpt>
      <trkpt lat="44.19116" lon="3.17404">
        <ele>754.1</ele>
        <time>2021-09-30T14:30:47Z</time>
      </trkpt>
      <trkpt lat="44.19116" lon="3.17406">
        <ele>754.2</ele>
        <time>2021-09-30T14:30:48Z</time>
      </trkpt>
      <trkpt lat="44.19116" lon="3.17408">
        <ele>754.4</ele>
        <time>2021-09-30T14:30:50Z</time>
      </trkpt>
      <trkpt lat="44.19116" lon="3.17411">
        <ele>754.6</ele>
        <time>2021-09-30T14:30:51Z</time>
      </trkpt>
      <trkpt lat="44.19115" lon="3.17414">
        <ele>754.8</ele>
        <time>2021-09-30T14:30:52Z</time>
      </trkpt>
      <trkpt lat="44.19115" lon="3.17417">
        <ele>755.1</ele>
        <time>2021-09-30T14:30:54Z</time>
      </trkpt>
      <trkpt lat="44.19115" lon="3.1742">
        <ele>755.3</ele>
        <time>2021-09-30T14:30:55Z</time>
      </trkpt>
      <trkpt lat="44.19115" lon="3.17425">
        <ele>755.6</ele>
        <time>2021-09-30T14:30:57Z</time>
      </trkpt>
      <trkpt lat="44.19115" lon="3.17428">
        <ele>755.9</ele>
        <time>2021-09-30T14:30:58Z</time>
      </trkpt>
      <trkpt lat="44.19115" lon="3.17431">
        <ele>756.1</ele>
        <time>2021-09-30T14:31:00Z</time>
      </trkpt>
      <trkpt lat="44.19116" lon="3.17436">
        <ele>756.4</ele>
        <time>2021-09-30T14:31:01Z</time>
      </trkpt>
      <trkpt lat="44.19116" lon="3.17437">
        <ele>756.5</ele>
        <time>2021-09-30T14:31:02Z</time>
      </trkpt>
      <trkpt lat="44.19119" lon="3.17441">
        <ele>756.8</ele>
        <time>2021-09-30T14:31:04Z</time>
      </trkpt>
      <trkpt lat="44.19121" lon="3.17445">
        <ele>757.1</ele>
        <time>2021-09-30T14:31:05Z</time>
      </trkpt>
      <trkpt lat="44.19123" lon="3.17448">
        <ele>757.3</ele>
        <time>2021-09-30T14:31:06Z</time>
      </trkpt>
      <trkpt lat="44.19125" lon="3.17451">
        <ele>757.5</ele>
        <time>2021-09-30T14:31:08Z</time>
      </trkpt>
      <trkpt lat="44.19129" lon="3.17455">
        <ele>757.8</ele>
        <time>2021-09-30T14:31:10Z</time>
      </trkpt>
      <trkpt lat="44.19131" lon="3.17458">
        <ele>758</ele>
        <time>2021-09-30T14:31:11Z</time>
      </trkpt>
      <trkpt lat="44.19132" lon="3.17459">
        <ele>758.1</ele>
        <time>2021-09-30T14:31:12Z</time>
      </trkpt>
      <trkpt lat="44.19134" lon="3.17463">
        <ele>758.3</ele>
        <time>2021-09-30T14:31:13Z</time>
      </trkpt>
      <trkpt lat="44.19135" lon="3.17465">
        <ele>758.4</ele>
        <time>2021-09-30T14:31:14Z</time>
      </trkpt>
      <trkpt lat="44.19135" lon="3.17468">
        <ele>758.6</ele>
        <time>2021-09-30T14:31:16Z</time>
      </trkpt>
      <trkpt lat="44.19136" lon="3.1747">
        <ele>758.7</ele>
        <time>2021-09-30T14:31:17Z</time>
      </trkpt>
      <trkpt lat="44.19138" lon="3.17476">
        <ele>759</ele>
        <time>2021-09-30T14:31:19Z</time>
      </trkpt>
      <trkpt lat="44.19138" lon="3.17483">
        <ele>759.3</ele>
        <time>2021-09-30T14:31:21Z</time>
      </trkpt>
      <trkpt lat="44.19138" lon="3.17488">
        <ele>759.5</ele>
        <time>2021-09-30T14:31:22Z</time>
      </trkpt>
      <trkpt lat="44.19137" lon="3.17492">
        <ele>759.7</ele>
        <time>2021-09-30T14:31:24Z</time>
      </trkpt>
      <trkpt lat="44.19137" lon="3.17496">
        <ele>759.9</ele>
        <time>2021-09-30T14:31:25Z</time>
      </trkpt>
      <trkpt lat="44.19136" lon="3.17502">
        <ele>760.1</ele>
        <time>2021-09-30T14:31:27Z</time>
      </trkpt>
      <trkpt lat="44.19135" lon="3.17504">
        <ele>760.2</ele>
        <time>2021-09-30T14:31:28Z</time>
      </trkpt>
      <trkpt lat="44.19134" lon="3.17507">
        <ele>760.4</ele>
        <time>2021-09-30T14:31:29Z</time>
      </trkpt>
      <trkpt lat="44.19132" lon="3.17512">
        <ele>760.5</ele>
        <time>2021-09-30T14:31:31Z</time>
      </trkpt>
      <trkpt lat="44.19132" lon="3.17516">
        <ele>760.7</ele>
        <time>2021-09-30T14:31:32Z</time>
      </trkpt>
      <trkpt lat="44.19131" lon="3.17521">
        <ele>760.8</ele>
        <time>2021-09-30T14:31:33Z</time>
      </trkpt>
      <trkpt lat="44.19131" lon="3.17524">
        <ele>760.9</ele>
        <time>2021-09-30T14:31:34Z</time>
      </trkpt>
      <trkpt lat="44.19131" lon="3.17527">
        <ele>760.9</ele>
        <time>2021-09-30T14:31:36Z</time>
      </trkpt>
      <trkpt lat="44.19131" lon="3.17532">
        <ele>761</ele>
        <time>2021-09-30T14:31:37Z</time>
      </trkpt>
      <trkpt lat="44.19129" lon="3.17537">
        <ele>761.1</ele>
        <time>2021-09-30T14:31:38Z</time>
      </trkpt>
      <trkpt lat="44.19126" lon="3.17542">
        <ele>761.2</ele>
        <time>2021-09-30T14:31:40Z</time>
      </trkpt>
      <trkpt lat="44.19122" lon="3.17548">
        <ele>761.2</ele>
        <time>2021-09-30T14:31:41Z</time>
      </trkpt>
      <trkpt lat="44.1912" lon="3.17553">
        <ele>761.2</ele>
        <time>2021-09-30T14:31:42Z</time>
      </trkpt>
      <trkpt lat="44.1912" lon="3.1756">
        <ele>761.1</ele>
        <time>2021-09-30T14:31:44Z</time>
      </trkpt>
      <trkpt lat="44.19119" lon="3.17566">
        <ele>761.1</ele>
        <time>2021-09-30T14:31:45Z</time>
      </trkpt>
      <trkpt lat="44.19117" lon="3.17571">
        <ele>760.9</ele>
        <time>2021-09-30T14:31:46Z</time>
      </trkpt>
      <trkpt lat="44.19115" lon="3.17579">
        <ele>760.7</ele>
        <time>2021-09-30T14:31:47Z</time>
      </trkpt>
      <trkpt lat="44.1911" lon="3.1759">
        <ele>760.2</ele>
        <time>2021-09-30T14:31:49Z</time>
      </trkpt>
      <trkpt lat="44.19107" lon="3.17597">
        <ele>759.9</ele>
        <time>2021-09-30T14:31:50Z</time>
      </trkpt>
      <trkpt lat="44.191" lon="3.17608">
        <ele>759.3</ele>
        <time>2021-09-30T14:31:52Z</time>
      </trkpt>
      <trkpt lat="44.19095" lon="3.1762">
        <ele>758.8</ele>
        <time>2021-09-30T14:31:54Z</time>
      </trkpt>
      <trkpt lat="44.19092" lon="3.17626">
        <ele>758.5</ele>
        <time>2021-09-30T14:31:55Z</time>
      </trkpt>
      <trkpt lat="44.1909" lon="3.17633">
        <ele>758.2</ele>
        <time>2021-09-30T14:31:56Z</time>
      </trkpt>
      <trkpt lat="44.19083" lon="3.17649">
        <ele>757.2</ele>
        <time>2021-09-30T14:31:58Z</time>
      </trkpt>
      <trkpt lat="44.19079" lon="3.17664">
        <ele>756.1</ele>
        <time>2021-09-30T14:32:00Z</time>
      </trkpt>
      <trkpt lat="44.19077" lon="3.17672">
        <ele>755.5</ele>
        <time>2021-09-30T14:32:01Z</time>
      </trkpt>
      <trkpt lat="44.19073" lon="3.17691">
        <ele>754.2</ele>
        <time>2021-09-30T14:32:03Z</time>
      </trkpt>
      <trkpt lat="44.1907" lon="3.177">
        <ele>753.6</ele>
        <time>2021-09-30T14:32:04Z</time>
      </trkpt>
      <trkpt lat="44.19065" lon="3.17708">
        <ele>752.9</ele>
        <time>2021-09-30T14:32:05Z</time>
      </trkpt>
      <trkpt lat="44.19057" lon="3.17729">
        <ele>751.3</ele>
        <time>2021-09-30T14:32:07Z</time>
      </trkpt>
      <trkpt lat="44.19048" lon="3.17749">
        <ele>749.3</ele>
        <time>2021-09-30T14:32:09Z</time>
      </trkpt>
      <trkpt lat="44.19043" lon="3.1777">
        <ele>746.6</ele>
        <time>2021-09-30T14:32:11Z</time>
      </trkpt>
      <trkpt lat="44.19042" lon="3.17776">
        <ele>745.8</ele>
        <time>2021-09-30T14:32:13Z</time>
      </trkpt>
      <trkpt lat="44.19045" lon="3.17781">
        <ele>744.8</ele>
        <time>2021-09-30T14:32:14Z</time>
      </trkpt>
      <trkpt lat="44.19046" lon="3.17783">
        <ele>744.4</ele>
        <time>2021-09-30T14:32:15Z</time>
      </trkpt>
      <trkpt lat="44.19046" lon="3.17789">
        <ele>743.4</ele>
        <time>2021-09-30T14:32:16Z</time>
      </trkpt>
      <trkpt lat="44.19044" lon="3.17794">
        <ele>742.3</ele>
        <time>2021-09-30T14:32:17Z</time>
      </trkpt>
      <trkpt lat="44.19041" lon="3.17803">
        <ele>740.8</ele>
        <time>2021-09-30T14:32:19Z</time>
      </trkpt>
      <trkpt lat="44.1904" lon="3.17808">
        <ele>740.1</ele>
        <time>2021-09-30T14:32:20Z</time>
      </trkpt>
      <trkpt lat="44.19045" lon="3.17815">
        <ele>739.2</ele>
        <time>2021-09-30T14:32:22Z</time>
      </trkpt>
      <trkpt lat="44.19048" lon="3.17814">
        <ele>739</ele>
        <time>2021-09-30T14:32:23Z</time>
      </trkpt>
      <trkpt lat="44.19052" lon="3.17813">
        <ele>738.7</ele>
        <time>2021-09-30T14:32:24Z</time>
      </trkpt>
      <trkpt lat="44.19055" lon="3.17813">
        <ele>738.6</ele>
        <time>2021-09-30T14:32:25Z</time>
      </trkpt>
      <trkpt lat="44.19058" lon="3.17812">
        <ele>738.4</ele>
        <time>2021-09-30T14:32:27Z</time>
      </trkpt>
      <trkpt lat="44.19062" lon="3.17811">
        <ele>738.3</ele>
        <time>2021-09-30T14:32:28Z</time>
      </trkpt>
      <trkpt lat="44.19066" lon="3.1781">
        <ele>738.3</ele>
        <time>2021-09-30T14:32:29Z</time>
      </trkpt>
      <trkpt lat="44.1907" lon="3.1781">
        <ele>738.2</ele>
        <time>2021-09-30T14:32:30Z</time>
      </trkpt>
      <trkpt lat="44.19074" lon="3.1781">
        <ele>738.2</ele>
        <time>2021-09-30T14:32:31Z</time>
      </trkpt>
      <trkpt lat="44.19078" lon="3.1781">
        <ele>738.2</ele>
        <time>2021-09-30T14:32:32Z</time>
      </trkpt>
      <trkpt lat="44.19082" lon="3.17811">
        <ele>738.1</ele>
        <time>2021-09-30T14:32:34Z</time>
      </trkpt>
      <trkpt lat="44.19088" lon="3.17814">
        <ele>737.7</ele>
        <time>2021-09-30T14:32:36Z</time>
      </trkpt>
      <trkpt lat="44.19094" lon="3.17816">
        <ele>737</ele>
        <time>2021-09-30T14:32:38Z</time>
      </trkpt>
      <trkpt lat="44.19097" lon="3.17817">
        <ele>736.4</ele>
        <time>2021-09-30T14:32:39Z</time>
      </trkpt>
      <trkpt lat="44.19099" lon="3.17816">
        <ele>735.8</ele>
        <time>2021-09-30T14:32:40Z</time>
      </trkpt>
      <trkpt lat="44.19103" lon="3.17815">
        <ele>734.7</ele>
        <time>2021-09-30T14:32:41Z</time>
      </trkpt>
      <trkpt lat="44.19106" lon="3.17813">
        <ele>733.6</ele>
        <time>2021-09-30T14:32:43Z</time>
      </trkpt>
      <trkpt lat="44.19111" lon="3.1781">
        <ele>732</ele>
        <time>2021-09-30T14:32:44Z</time>
      </trkpt>
      <trkpt lat="44.19116" lon="3.17808">
        <ele>730.4</ele>
        <time>2021-09-30T14:32:46Z</time>
      </trkpt>
      <trkpt lat="44.19117" lon="3.17807">
        <ele>729.8</ele>
        <time>2021-09-30T14:32:47Z</time>
      </trkpt>
      <trkpt lat="44.19119" lon="3.17806">
        <ele>729.3</ele>
        <time>2021-09-30T14:32:48Z</time>
      </trkpt>
      <trkpt lat="44.19121" lon="3.17803">
        <ele>728.4</ele>
        <time>2021-09-30T14:32:49Z</time>
      </trkpt>
      <trkpt lat="44.19125" lon="3.178">
        <ele>726.8</ele>
        <time>2021-09-30T14:32:51Z</time>
      </trkpt>
      <trkpt lat="44.19129" lon="3.17798">
        <ele>725.5</ele>
        <time>2021-09-30T14:32:52Z</time>
      </trkpt>
      <trkpt lat="44.19134" lon="3.17795">
        <ele>723.9</ele>
        <time>2021-09-30T14:32:54Z</time>
      </trkpt>
      <trkpt lat="44.19137" lon="3.17793">
        <ele>722.8</ele>
        <time>2021-09-30T14:32:55Z</time>
      </trkpt>
      <trkpt lat="44.19142" lon="3.17791">
        <ele>721.6</ele>
        <time>2021-09-30T14:32:56Z</time>
      </trkpt>
      <trkpt lat="44.19146" lon="3.17791">
        <ele>720.7</ele>
        <time>2021-09-30T14:32:58Z</time>
      </trkpt>
      <trkpt lat="44.19149" lon="3.17793">
        <ele>720</ele>
        <time>2021-09-30T14:32:59Z</time>
      </trkpt>
      <trkpt lat="44.19152" lon="3.17795">
        <ele>719.6</ele>
        <time>2021-09-30T14:33:01Z</time>
      </trkpt>
      <trkpt lat="44.19155" lon="3.17796">
        <ele>719.3</ele>
        <time>2021-09-30T14:33:02Z</time>
      </trkpt>
      <trkpt lat="44.1916" lon="3.17798">
        <ele>719.2</ele>
        <time>2021-09-30T14:33:03Z</time>
      </trkpt>
      <trkpt lat="44.19161" lon="3.17799">
        <ele>719.2</ele>
        <time>2021-09-30T14:33:04Z</time>
      </trkpt>
      <trkpt lat="44.19165" lon="3.17801">
        <ele>719.3</ele>
        <time>2021-09-30T14:33:06Z</time>
      </trkpt>
      <trkpt lat="44.19166" lon="3.17801">
        <ele>719.4</ele>
        <time>2021-09-30T14:33:07Z</time>
      </trkpt>
      <trkpt lat="44.19168" lon="3.17803">
        <ele>719.6</ele>
        <time>2021-09-30T14:33:09Z</time>
      </trkpt>
      <trkpt lat="44.19172" lon="3.17805">
        <ele>719.9</ele>
        <time>2021-09-30T14:33:10Z</time>
      </trkpt>
      <trkpt lat="44.19174" lon="3.17809">
        <ele>720.3</ele>
        <time>2021-09-30T14:33:12Z</time>
      </trkpt>
      <trkpt lat="44.19175" lon="3.1781">
        <ele>720.4</ele>
        <time>2021-09-30T14:33:13Z</time>
      </trkpt>
      <trkpt lat="44.19177" lon="3.17813">
        <ele>720.9</ele>
        <time>2021-09-30T14:33:14Z</time>
      </trkpt>
      <trkpt lat="44.19178" lon="3.17814">
        <ele>721</ele>
        <time>2021-09-30T14:33:15Z</time>
      </trkpt>
      <trkpt lat="44.1918" lon="3.17816">
        <ele>721.4</ele>
        <time>2021-09-30T14:33:16Z</time>
      </trkpt>
      <trkpt lat="44.19182" lon="3.17818">
        <ele>721.9</ele>
        <time>2021-09-30T14:33:18Z</time>
      </trkpt>
      <trkpt lat="44.19184" lon="3.17819">
        <ele>722.1</ele>
        <time>2021-09-30T14:33:19Z</time>
      </trkpt>
      <trkpt lat="44.19187" lon="3.1782">
        <ele>722.6</ele>
        <time>2021-09-30T14:33:21Z</time>
      </trkpt>
      <trkpt lat="44.19188" lon="3.17821">
        <ele>722.8</ele>
        <time>2021-09-30T14:33:22Z</time>
      </trkpt>
      <trkpt lat="44.1919" lon="3.17822">
        <ele>723.2</ele>
        <time>2021-09-30T14:33:23Z</time>
      </trkpt>
      <trkpt lat="44.19192" lon="3.17826">
        <ele>723.8</ele>
        <time>2021-09-30T14:33:24Z</time>
      </trkpt>
      <trkpt lat="44.19193" lon="3.17828">
        <ele>724.1</ele>
        <time>2021-09-30T14:33:25Z</time>
      </trkpt>
      <trkpt lat="44.19194" lon="3.17832">
        <ele>724.7</ele>
        <time>2021-09-30T14:33:27Z</time>
      </trkpt>
      <trkpt lat="44.19195" lon="3.17833">
        <ele>724.8</ele>
        <time>2021-09-30T14:33:28Z</time>
      </trkpt>
      <trkpt lat="44.19195" lon="3.17835">
        <ele>725.1</ele>
        <time>2021-09-30T14:33:29Z</time>
      </trkpt>
      <trkpt lat="44.19196" lon="3.17836">
        <ele>725.3</ele>
        <time>2021-09-30T14:33:30Z</time>
      </trkpt>
      <trkpt lat="44.19198" lon="3.17837">
        <ele>725.7</ele>
        <time>2021-09-30T14:33:32Z</time>
      </trkpt>
      <trkpt lat="44.19201" lon="3.1784">
        <ele>726.3</ele>
        <time>2021-09-30T14:33:33Z</time>
      </trkpt>
      <trkpt lat="44.19204" lon="3.17845">
        <ele>727.1</ele>
        <time>2021-09-30T14:33:35Z</time>
      </trkpt>
      <trkpt lat="44.19205" lon="3.17846">
        <ele>727.4</ele>
        <time>2021-09-30T14:33:36Z</time>
      </trkpt>
      <trkpt lat="44.19206" lon="3.17848">
        <ele>727.6</ele>
        <time>2021-09-30T14:33:37Z</time>
      </trkpt>
      <trkpt lat="44.19208" lon="3.17851">
        <ele>728.1</ele>
        <time>2021-09-30T14:33:39Z</time>
      </trkpt>
      <trkpt lat="44.1921" lon="3.17855">
        <ele>728.6</ele>
        <time>2021-09-30T14:33:40Z</time>
      </trkpt>
      <trkpt lat="44.19211" lon="3.17857">
        <ele>728.8</ele>
        <time>2021-09-30T14:33:41Z</time>
      </trkpt>
      <trkpt lat="44.19212" lon="3.17859">
        <ele>729.2</ele>
        <time>2021-09-30T14:33:43Z</time>
      </trkpt>
      <trkpt lat="44.19214" lon="3.17862">
        <ele>729.6</ele>
        <time>2021-09-30T14:33:45Z</time>
      </trkpt>
      <trkpt lat="44.19216" lon="3.17864">
        <ele>730</ele>
        <time>2021-09-30T14:33:47Z</time>
      </trkpt>
      <trkpt lat="44.19218" lon="3.17867">
        <ele>730.3</ele>
        <time>2021-09-30T14:33:48Z</time>
      </trkpt>
      <trkpt lat="44.19219" lon="3.17868">
        <ele>730.4</ele>
        <time>2021-09-30T14:33:49Z</time>
      </trkpt>
      <trkpt lat="44.1922" lon="3.17869">
        <ele>730.7</ele>
        <time>2021-09-30T14:33:50Z</time>
      </trkpt>
      <trkpt lat="44.19222" lon="3.17872">
        <ele>731</ele>
        <time>2021-09-30T14:33:52Z</time>
      </trkpt>
      <trkpt lat="44.19223" lon="3.17875">
        <ele>731.3</ele>
        <time>2021-09-30T14:33:53Z</time>
      </trkpt>
      <trkpt lat="44.19225" lon="3.17877">
        <ele>731.5</ele>
        <time>2021-09-30T14:33:55Z</time>
      </trkpt>
      <trkpt lat="44.19227" lon="3.1788">
        <ele>731.9</ele>
        <time>2021-09-30T14:33:56Z</time>
      </trkpt>
      <trkpt lat="44.19227" lon="3.17881">
        <ele>732</ele>
        <time>2021-09-30T14:33:57Z</time>
      </trkpt>
      <trkpt lat="44.19229" lon="3.17886">
        <ele>732.4</ele>
        <time>2021-09-30T14:34:00Z</time>
      </trkpt>
      <trkpt lat="44.1923" lon="3.17887">
        <ele>732.5</ele>
        <time>2021-09-30T14:34:01Z</time>
      </trkpt>
      <trkpt lat="44.1923" lon="3.17888">
        <ele>732.6</ele>
        <time>2021-09-30T14:34:02Z</time>
      </trkpt>
      <trkpt lat="44.19231" lon="3.17889">
        <ele>732.8</ele>
        <time>2021-09-30T14:34:03Z</time>
      </trkpt>
      <trkpt lat="44.19231" lon="3.17892">
        <ele>733</ele>
        <time>2021-09-30T14:34:05Z</time>
      </trkpt>
      <trkpt lat="44.19231" lon="3.17894">
        <ele>733.1</ele>
        <time>2021-09-30T14:34:07Z</time>
      </trkpt>
      <trkpt lat="44.19231" lon="3.17895">
        <ele>733.3</ele>
        <time>2021-09-30T14:34:08Z</time>
      </trkpt>
      <trkpt lat="44.19231" lon="3.17897">
        <ele>733.3</ele>
        <time>2021-09-30T14:34:10Z</time>
      </trkpt>
      <trkpt lat="44.19231" lon="3.17898">
        <ele>733.2</ele>
        <time>2021-09-30T14:34:12Z</time>
      </trkpt>
      <trkpt lat="44.19231" lon="3.179">
        <ele>733.2</ele>
        <time>2021-09-30T14:34:13Z</time>
      </trkpt>
      <trkpt lat="44.19231" lon="3.17902">
        <ele>733.1</ele>
        <time>2021-09-30T14:34:15Z</time>
      </trkpt>
      <trkpt lat="44.19231" lon="3.17903">
        <ele>733.1</ele>
        <time>2021-09-30T14:34:17Z</time>
      </trkpt>
      <trkpt lat="44.19231" lon="3.17905">
        <ele>733</ele>
        <time>2021-09-30T14:34:48Z</time>
      </trkpt>
      <trkpt lat="44.19232" lon="3.17907">
        <ele>732.9</ele>
        <time>2021-09-30T14:34:49Z</time>
      </trkpt>
      <trkpt lat="44.19231" lon="3.17912">
        <ele>732.7</ele>
        <time>2021-09-30T14:34:51Z</time>
      </trkpt>
      <trkpt lat="44.19232" lon="3.17917">
        <ele>732.4</ele>
        <time>2021-09-30T14:34:52Z</time>
      </trkpt>
      <trkpt lat="44.19232" lon="3.17924">
        <ele>731.9</ele>
        <time>2021-09-30T14:34:54Z</time>
      </trkpt>
      <trkpt lat="44.19234" lon="3.17931">
        <ele>731.4</ele>
        <time>2021-09-30T14:34:55Z</time>
      </trkpt>
      <trkpt lat="44.19234" lon="3.17935">
        <ele>731.1</ele>
        <time>2021-09-30T14:34:56Z</time>
      </trkpt>
      <trkpt lat="44.19232" lon="3.17943">
        <ele>730.4</ele>
        <time>2021-09-30T14:34:58Z</time>
      </trkpt>
      <trkpt lat="44.19228" lon="3.17956">
        <ele>729.4</ele>
        <time>2021-09-30T14:35:00Z</time>
      </trkpt>
      <trkpt lat="44.19226" lon="3.17962">
        <ele>728.9</ele>
        <time>2021-09-30T14:35:01Z</time>
      </trkpt>
      <trkpt lat="44.19224" lon="3.17973">
        <ele>727.6</ele>
        <time>2021-09-30T14:35:03Z</time>
      </trkpt>
      <trkpt lat="44.19222" lon="3.17978">
        <ele>726.9</ele>
        <time>2021-09-30T14:35:04Z</time>
      </trkpt>
      <trkpt lat="44.19221" lon="3.17983">
        <ele>726</ele>
        <time>2021-09-30T14:35:06Z</time>
      </trkpt>
      <trkpt lat="44.19221" lon="3.17988">
        <ele>725.3</ele>
        <time>2021-09-30T14:35:07Z</time>
      </trkpt>
      <trkpt lat="44.19219" lon="3.17993">
        <ele>724.1</ele>
        <time>2021-09-30T14:35:08Z</time>
      </trkpt>
      <trkpt lat="44.19217" lon="3.17997">
        <ele>723.2</ele>
        <time>2021-09-30T14:35:10Z</time>
      </trkpt>
      <trkpt lat="44.19213" lon="3.18002">
        <ele>721.5</ele>
        <time>2021-09-30T14:35:12Z</time>
      </trkpt>
      <trkpt lat="44.19209" lon="3.18006">
        <ele>719.8</ele>
        <time>2021-09-30T14:35:13Z</time>
      </trkpt>
      <trkpt lat="44.19205" lon="3.18011">
        <ele>718.3</ele>
        <time>2021-09-30T14:35:15Z</time>
      </trkpt>
      <trkpt lat="44.19203" lon="3.18015">
        <ele>717</ele>
        <time>2021-09-30T14:35:16Z</time>
      </trkpt>
      <trkpt lat="44.19199" lon="3.18023">
        <ele>714.8</ele>
        <time>2021-09-30T14:35:17Z</time>
      </trkpt>
      <trkpt lat="44.19195" lon="3.18029">
        <ele>713.3</ele>
        <time>2021-09-30T14:35:19Z</time>
      </trkpt>
      <trkpt lat="44.19192" lon="3.18036">
        <ele>712.1</ele>
        <time>2021-09-30T14:35:20Z</time>
      </trkpt>
      <trkpt lat="44.1919" lon="3.18039">
        <ele>711.4</ele>
        <time>2021-09-30T14:35:21Z</time>
      </trkpt>
      <trkpt lat="44.19188" lon="3.18041">
        <ele>711.1</ele>
        <time>2021-09-30T14:35:22Z</time>
      </trkpt>
      <trkpt lat="44.19186" lon="3.18044">
        <ele>710.9</ele>
        <time>2021-09-30T14:35:24Z</time>
      </trkpt>
      <trkpt lat="44.19183" lon="3.18047">
        <ele>710.6</ele>
        <time>2021-09-30T14:35:25Z</time>
      </trkpt>
      <trkpt lat="44.19182" lon="3.18049">
        <ele>710.5</ele>
        <time>2021-09-30T14:35:26Z</time>
      </trkpt>
      <trkpt lat="44.19177" lon="3.18064">
        <ele>710.2</ele>
        <time>2021-09-30T14:35:28Z</time>
      </trkpt>
      <trkpt lat="44.19173" lon="3.1807">
        <ele>709.9</ele>
        <time>2021-09-30T14:35:29Z</time>
      </trkpt>
      <trkpt lat="44.19172" lon="3.18078">
        <ele>709.5</ele>
        <time>2021-09-30T14:35:31Z</time>
      </trkpt>
      <trkpt lat="44.19172" lon="3.18084">
        <ele>709.2</ele>
        <time>2021-09-30T14:35:32Z</time>
      </trkpt>
      <trkpt lat="44.19172" lon="3.18093">
        <ele>708.8</ele>
        <time>2021-09-30T14:35:33Z</time>
      </trkpt>
      <trkpt lat="44.19173" lon="3.181">
        <ele>708.6</ele>
        <time>2021-09-30T14:35:35Z</time>
      </trkpt>
      <trkpt lat="44.19175" lon="3.18108">
        <ele>708.6</ele>
        <time>2021-09-30T14:35:37Z</time>
      </trkpt>
      <trkpt lat="44.19177" lon="3.18112">
        <ele>708.6</ele>
        <time>2021-09-30T14:35:38Z</time>
      </trkpt>
      <trkpt lat="44.1918" lon="3.18119">
        <ele>708.8</ele>
        <time>2021-09-30T14:35:40Z</time>
      </trkpt>
      <trkpt lat="44.19182" lon="3.18127">
        <ele>709</ele>
        <time>2021-09-30T14:35:42Z</time>
      </trkpt>
      <trkpt lat="44.19182" lon="3.18131">
        <ele>709.1</ele>
        <time>2021-09-30T14:35:43Z</time>
      </trkpt>
      <trkpt lat="44.19182" lon="3.18138">
        <ele>709.3</ele>
        <time>2021-09-30T14:35:45Z</time>
      </trkpt>
      <trkpt lat="44.19181" lon="3.18142">
        <ele>709.3</ele>
        <time>2021-09-30T14:35:46Z</time>
      </trkpt>
      <trkpt lat="44.19179" lon="3.18148">
        <ele>709.4</ele>
        <time>2021-09-30T14:35:47Z</time>
      </trkpt>
      <trkpt lat="44.19179" lon="3.18155">
        <ele>709.3</ele>
        <time>2021-09-30T14:35:49Z</time>
      </trkpt>
      <trkpt lat="44.19178" lon="3.18162">
        <ele>709.2</ele>
        <time>2021-09-30T14:35:50Z</time>
      </trkpt>
      <trkpt lat="44.19178" lon="3.18168">
        <ele>709</ele>
        <time>2021-09-30T14:35:51Z</time>
      </trkpt>
      <trkpt lat="44.19175" lon="3.18182">
        <ele>708.4</ele>
        <time>2021-09-30T14:35:53Z</time>
      </trkpt>
      <trkpt lat="44.19173" lon="3.1819">
        <ele>707.9</ele>
        <time>2021-09-30T14:35:54Z</time>
      </trkpt>
      <trkpt lat="44.19172" lon="3.18201">
        <ele>707.3</ele>
        <time>2021-09-30T14:35:56Z</time>
      </trkpt>
      <trkpt lat="44.1917" lon="3.18202">
        <ele>707.2</ele>
        <time>2021-09-30T14:35:58Z</time>
      </trkpt>
      <trkpt lat="44.19169" lon="3.18212">
        <ele>706.9</ele>
        <time>2021-09-30T14:36:00Z</time>
      </trkpt>
      <trkpt lat="44.19165" lon="3.18217">
        <ele>706.6</ele>
        <time>2021-09-30T14:36:01Z</time>
      </trkpt>
      <trkpt lat="44.19162" lon="3.1822">
        <ele>706.4</ele>
        <time>2021-09-30T14:36:02Z</time>
      </trkpt>
      <trkpt lat="44.19159" lon="3.18221">
        <ele>706.3</ele>
        <time>2021-09-30T14:36:03Z</time>
      </trkpt>
      <trkpt lat="44.19158" lon="3.18222">
        <ele>706.3</ele>
        <time>2021-09-30T14:36:04Z</time>
      </trkpt>
      <trkpt lat="44.19157" lon="3.18221">
        <ele>706.2</ele>
        <time>2021-09-30T14:36:06Z</time>
      </trkpt>
      <trkpt lat="44.19155" lon="3.18221">
        <ele>706.2</ele>
        <time>2021-09-30T14:36:07Z</time>
      </trkpt>
      <trkpt lat="44.19154" lon="3.18221">
        <ele>706.1</ele>
        <time>2021-09-30T14:36:08Z</time>
      </trkpt>
      <trkpt lat="44.19149" lon="3.18226">
        <ele>705.7</ele>
        <time>2021-09-30T14:36:09Z</time>
      </trkpt>
      <trkpt lat="44.19144" lon="3.1823">
        <ele>705.1</ele>
        <time>2021-09-30T14:36:11Z</time>
      </trkpt>
      <trkpt lat="44.19137" lon="3.18239">
        <ele>703.6</ele>
        <time>2021-09-30T14:36:12Z</time>
      </trkpt>
      <trkpt lat="44.19128" lon="3.1825">
        <ele>701</ele>
        <time>2021-09-30T14:36:14Z</time>
      </trkpt>
      <trkpt lat="44.19124" lon="3.18256">
        <ele>699.9</ele>
        <time>2021-09-30T14:36:15Z</time>
      </trkpt>
      <trkpt lat="44.1912" lon="3.1826">
        <ele>699</ele>
        <time>2021-09-30T14:36:16Z</time>
      </trkpt>
      <trkpt lat="44.19115" lon="3.18264">
        <ele>698.3</ele>
        <time>2021-09-30T14:36:18Z</time>
      </trkpt>
      <trkpt lat="44.19109" lon="3.18269">
        <ele>697.7</ele>
        <time>2021-09-30T14:36:19Z</time>
      </trkpt>
      <trkpt lat="44.19105" lon="3.1827">
        <ele>697.4</ele>
        <time>2021-09-30T14:36:21Z</time>
      </trkpt>
      <trkpt lat="44.19102" lon="3.18271">
        <ele>697.2</ele>
        <time>2021-09-30T14:36:22Z</time>
      </trkpt>
      <trkpt lat="44.19099" lon="3.18275">
        <ele>697</ele>
        <time>2021-09-30T14:36:24Z</time>
      </trkpt>
      <trkpt lat="44.19098" lon="3.18279">
        <ele>696.8</ele>
        <time>2021-09-30T14:36:25Z</time>
      </trkpt>
      <trkpt lat="44.19096" lon="3.18284">
        <ele>696.6</ele>
        <time>2021-09-30T14:36:26Z</time>
      </trkpt>
      <trkpt lat="44.19094" lon="3.18295">
        <ele>695.8</ele>
        <time>2021-09-30T14:36:27Z</time>
      </trkpt>
      <trkpt lat="44.19091" lon="3.18303">
        <ele>694.8</ele>
        <time>2021-09-30T14:36:29Z</time>
      </trkpt>
      <trkpt lat="44.19089" lon="3.18307">
        <ele>694.1</ele>
        <time>2021-09-30T14:36:30Z</time>
      </trkpt>
      <trkpt lat="44.19089" lon="3.18309">
        <ele>693.9</ele>
        <time>2021-09-30T14:36:31Z</time>
      </trkpt>
      <trkpt lat="44.1909" lon="3.1831">
        <ele>693.6</ele>
        <time>2021-09-30T14:36:33Z</time>
      </trkpt>
      <trkpt lat="44.19091" lon="3.18311">
        <ele>693.5</ele>
        <time>2021-09-30T14:36:34Z</time>
      </trkpt>
      <trkpt lat="44.19091" lon="3.18311">
        <ele>693.4</ele>
        <time>2021-09-30T14:36:35Z</time>
      </trkpt>
      <trkpt lat="44.19091" lon="3.18311">
        <ele>693.4</ele>
        <time>2021-09-30T14:36:36Z</time>
      </trkpt>
      <trkpt lat="44.19091" lon="3.18311">
        <ele>693.4</ele>
        <time>2021-09-30T14:36:38Z</time>
      </trkpt>
      <trkpt lat="44.19091" lon="3.18311">
        <ele>693.3</ele>
        <time>2021-09-30T14:36:40Z</time>
      </trkpt>
      <trkpt lat="44.19091" lon="3.1831">
        <ele>693.2</ele>
        <time>2021-09-30T14:36:41Z</time>
      </trkpt>
      <trkpt lat="44.19092" lon="3.1831">
        <ele>693.2</ele>
        <time>2021-09-30T14:36:43Z</time>
      </trkpt>
      <trkpt lat="44.19092" lon="3.1831">
        <ele>693.1</ele>
        <time>2021-09-30T14:36:45Z</time>
      </trkpt>
      <trkpt lat="44.19092" lon="3.18314">
        <ele>692.5</ele>
        <time>2021-09-30T14:37:14Z</time>
      </trkpt>
      <trkpt lat="44.19094" lon="3.18322">
        <ele>691.4</ele>
        <time>2021-09-30T14:37:16Z</time>
      </trkpt>
      <trkpt lat="44.19097" lon="3.18328">
        <ele>690.5</ele>
        <time>2021-09-30T14:37:18Z</time>
      </trkpt>
      <trkpt lat="44.19101" lon="3.18331">
        <ele>690</ele>
        <time>2021-09-30T14:37:19Z</time>
      </trkpt>
      <trkpt lat="44.19104" lon="3.18334">
        <ele>689.7</ele>
        <time>2021-09-30T14:37:20Z</time>
      </trkpt>
      <trkpt lat="44.19108" lon="3.18337">
        <ele>689.5</ele>
        <time>2021-09-30T14:37:22Z</time>
      </trkpt>
      <trkpt lat="44.1911" lon="3.18339">
        <ele>689.5</ele>
        <time>2021-09-30T14:37:23Z</time>
      </trkpt>
      <trkpt lat="44.1911" lon="3.1834">
        <ele>689.5</ele>
        <time>2021-09-30T14:37:25Z</time>
      </trkpt>
      <trkpt lat="44.19111" lon="3.18341">
        <ele>689.5</ele>
        <time>2021-09-30T14:37:26Z</time>
      </trkpt>
      <trkpt lat="44.19113" lon="3.18343">
        <ele>689.6</ele>
        <time>2021-09-30T14:37:28Z</time>
      </trkpt>
      <trkpt lat="44.19114" lon="3.18344">
        <ele>689.6</ele>
        <time>2021-09-30T14:37:29Z</time>
      </trkpt>
      <trkpt lat="44.19116" lon="3.18345">
        <ele>689.8</ele>
        <time>2021-09-30T14:37:30Z</time>
      </trkpt>
      <trkpt lat="44.19118" lon="3.18346">
        <ele>689.8</ele>
        <time>2021-09-30T14:37:31Z</time>
      </trkpt>
      <trkpt lat="44.19121" lon="3.18349">
        <ele>690.1</ele>
        <time>2021-09-30T14:37:32Z</time>
      </trkpt>
      <trkpt lat="44.19123" lon="3.1835">
        <ele>690.3</ele>
        <time>2021-09-30T14:37:33Z</time>
      </trkpt>
      <trkpt lat="44.19125" lon="3.18353">
        <ele>690.6</ele>
        <time>2021-09-30T14:37:35Z</time>
      </trkpt>
      <trkpt lat="44.19129" lon="3.18355">
        <ele>690.9</ele>
        <time>2021-09-30T14:37:37Z</time>
      </trkpt>
      <trkpt lat="44.1913" lon="3.18356">
        <ele>691</ele>
        <time>2021-09-30T14:37:38Z</time>
      </trkpt>
      <trkpt lat="44.19132" lon="3.1836">
        <ele>691.3</ele>
        <time>2021-09-30T14:37:40Z</time>
      </trkpt>
      <trkpt lat="44.19133" lon="3.18361">
        <ele>691.4</ele>
        <time>2021-09-30T14:37:41Z</time>
      </trkpt>
      <trkpt lat="44.19133" lon="3.18366">
        <ele>691.8</ele>
        <time>2021-09-30T14:37:43Z</time>
      </trkpt>
      <trkpt lat="44.19133" lon="3.18371">
        <ele>692.2</ele>
        <time>2021-09-30T14:37:44Z</time>
      </trkpt>
      <trkpt lat="44.19133" lon="3.18372">
        <ele>692.3</ele>
        <time>2021-09-30T14:37:45Z</time>
      </trkpt>
      <trkpt lat="44.19133" lon="3.1838">
        <ele>692.8</ele>
        <time>2021-09-30T14:37:47Z</time>
      </trkpt>
      <trkpt lat="44.19133" lon="3.18386">
        <ele>693.2</ele>
        <time>2021-09-30T14:37:48Z</time>
      </trkpt>
      <trkpt lat="44.19133" lon="3.18388">
        <ele>693.3</ele>
        <time>2021-09-30T14:37:49Z</time>
      </trkpt>
      <trkpt lat="44.19134" lon="3.18391">
        <ele>693.5</ele>
        <time>2021-09-30T14:37:50Z</time>
      </trkpt>
      <trkpt lat="44.19137" lon="3.18395">
        <ele>693.8</ele>
        <time>2021-09-30T14:37:52Z</time>
      </trkpt>
      <trkpt lat="44.19137" lon="3.18399">
        <ele>693.9</ele>
        <time>2021-09-30T14:37:53Z</time>
      </trkpt>
      <trkpt lat="44.19135" lon="3.18402">
        <ele>694</ele>
        <time>2021-09-30T14:37:54Z</time>
      </trkpt>
      <trkpt lat="44.19132" lon="3.18407">
        <ele>694.1</ele>
        <time>2021-09-30T14:37:56Z</time>
      </trkpt>
      <trkpt lat="44.19129" lon="3.18409">
        <ele>694.1</ele>
        <time>2021-09-30T14:37:57Z</time>
      </trkpt>
      <trkpt lat="44.19126" lon="3.18413">
        <ele>694.1</ele>
        <time>2021-09-30T14:37:59Z</time>
      </trkpt>
      <trkpt lat="44.19126" lon="3.18418">
        <ele>693.9</ele>
        <time>2021-09-30T14:38:00Z</time>
      </trkpt>
      <trkpt lat="44.19126" lon="3.1842">
        <ele>693.9</ele>
        <time>2021-09-30T14:38:01Z</time>
      </trkpt>
      <trkpt lat="44.19122" lon="3.18423">
        <ele>693.7</ele>
        <time>2021-09-30T14:38:03Z</time>
      </trkpt>
      <trkpt lat="44.1912" lon="3.18425">
        <ele>693.5</ele>
        <time>2021-09-30T14:38:04Z</time>
      </trkpt>
      <trkpt lat="44.19115" lon="3.18431">
        <ele>693.1</ele>
        <time>2021-09-30T14:38:05Z</time>
      </trkpt>
      <trkpt lat="44.19112" lon="3.18437">
        <ele>692.8</ele>
        <time>2021-09-30T14:38:07Z</time>
      </trkpt>
      <trkpt lat="44.19109" lon="3.1844">
        <ele>692.6</ele>
        <time>2021-09-30T14:38:08Z</time>
      </trkpt>
      <trkpt lat="44.19108" lon="3.18444">
        <ele>692.5</ele>
        <time>2021-09-30T14:38:09Z</time>
      </trkpt>
      <trkpt lat="44.1911" lon="3.1845">
        <ele>692.4</ele>
        <time>2021-09-30T14:38:11Z</time>
      </trkpt>
      <trkpt lat="44.19111" lon="3.18456">
        <ele>692.3</ele>
        <time>2021-09-30T14:38:12Z</time>
      </trkpt>
      <trkpt lat="44.19112" lon="3.18459">
        <ele>692.3</ele>
        <time>2021-09-30T14:38:14Z</time>
      </trkpt>
      <trkpt lat="44.19113" lon="3.18464">
        <ele>692.3</ele>
        <time>2021-09-30T14:38:16Z</time>
      </trkpt>
      <trkpt lat="44.19114" lon="3.18468">
        <ele>692.3</ele>
        <time>2021-09-30T14:38:17Z</time>
      </trkpt>
      <trkpt lat="44.19116" lon="3.18471">
        <ele>692.3</ele>
        <time>2021-09-30T14:38:19Z</time>
      </trkpt>
      <trkpt lat="44.19118" lon="3.18475">
        <ele>692.2</ele>
        <time>2021-09-30T14:38:20Z</time>
      </trkpt>
      <trkpt lat="44.1912" lon="3.18479">
        <ele>692.2</ele>
        <time>2021-09-30T14:38:22Z</time>
      </trkpt>
      <trkpt lat="44.19122" lon="3.18487">
        <ele>692</ele>
        <time>2021-09-30T14:38:24Z</time>
      </trkpt>
      <trkpt lat="44.19123" lon="3.18494">
        <ele>691.7</ele>
        <time>2021-09-30T14:38:25Z</time>
      </trkpt>
      <trkpt lat="44.19123" lon="3.18506">
        <ele>691.1</ele>
        <time>2021-09-30T14:38:27Z</time>
      </trkpt>
      <trkpt lat="44.19123" lon="3.18517">
        <ele>690.4</ele>
        <time>2021-09-30T14:38:29Z</time>
      </trkpt>
      <trkpt lat="44.19122" lon="3.18523">
        <ele>689.9</ele>
        <time>2021-09-30T14:38:30Z</time>
      </trkpt>
      <trkpt lat="44.19122" lon="3.18531">
        <ele>689.3</ele>
        <time>2021-09-30T14:38:32Z</time>
      </trkpt>
      <trkpt lat="44.19122" lon="3.18535">
        <ele>688.9</ele>
        <time>2021-09-30T14:38:33Z</time>
      </trkpt>
      <trkpt lat="44.19122" lon="3.1854">
        <ele>688.5</ele>
        <time>2021-09-30T14:38:34Z</time>
      </trkpt>
      <trkpt lat="44.19117" lon="3.18543">
        <ele>687.6</ele>
        <time>2021-09-30T14:38:36Z</time>
      </trkpt>
      <trkpt lat="44.19111" lon="3.18543">
        <ele>686.6</ele>
        <time>2021-09-30T14:38:38Z</time>
      </trkpt>
      <trkpt lat="44.19104" lon="3.18544">
        <ele>685.5</ele>
        <time>2021-09-30T14:38:40Z</time>
      </trkpt>
      <trkpt lat="44.19101" lon="3.18549">
        <ele>684.8</ele>
        <time>2021-09-30T14:38:41Z</time>
      </trkpt>
      <trkpt lat="44.19099" lon="3.18555">
        <ele>684.2</ele>
        <time>2021-09-30T14:38:43Z</time>
      </trkpt>
      <trkpt lat="44.19098" lon="3.18562">
        <ele>683.5</ele>
        <time>2021-09-30T14:38:44Z</time>
      </trkpt>
      <trkpt lat="44.19097" lon="3.18565">
        <ele>683.3</ele>
        <time>2021-09-30T14:38:45Z</time>
      </trkpt>
      <trkpt lat="44.19095" lon="3.1857">
        <ele>682.8</ele>
        <time>2021-09-30T14:38:46Z</time>
      </trkpt>
      <trkpt lat="44.19094" lon="3.18574">
        <ele>682.6</ele>
        <time>2021-09-30T14:38:48Z</time>
      </trkpt>
      <trkpt lat="44.19093" lon="3.18577">
        <ele>682.5</ele>
        <time>2021-09-30T14:38:49Z</time>
      </trkpt>
      <trkpt lat="44.19093" lon="3.1858">
        <ele>682.4</ele>
        <time>2021-09-30T14:38:51Z</time>
      </trkpt>
      <trkpt lat="44.19093" lon="3.18584">
        <ele>682.3</ele>
        <time>2021-09-30T14:38:52Z</time>
      </trkpt>
      <trkpt lat="44.19093" lon="3.18588">
        <ele>682.3</ele>
        <time>2021-09-30T14:38:53Z</time>
      </trkpt>
      <trkpt lat="44.19092" lon="3.18596">
        <ele>682.3</ele>
        <time>2021-09-30T14:38:54Z</time>
      </trkpt>
      <trkpt lat="44.19091" lon="3.18602">
        <ele>682.4</ele>
        <time>2021-09-30T14:38:56Z</time>
      </trkpt>
      <trkpt lat="44.19092" lon="3.18608">
        <ele>682.5</ele>
        <time>2021-09-30T14:38:57Z</time>
      </trkpt>
      <trkpt lat="44.19095" lon="3.18613">
        <ele>682.6</ele>
        <time>2021-09-30T14:38:59Z</time>
      </trkpt>
      <trkpt lat="44.19098" lon="3.18617">
        <ele>682.5</ele>
        <time>2021-09-30T14:39:00Z</time>
      </trkpt>
      <trkpt lat="44.19101" lon="3.18619">
        <ele>682.5</ele>
        <time>2021-09-30T14:39:01Z</time>
      </trkpt>
      <trkpt lat="44.19105" lon="3.1862">
        <ele>682.4</ele>
        <time>2021-09-30T14:39:02Z</time>
      </trkpt>
      <trkpt lat="44.19108" lon="3.18621">
        <ele>682.2</ele>
        <time>2021-09-30T14:39:03Z</time>
      </trkpt>
      <trkpt lat="44.19111" lon="3.18623">
        <ele>682.1</ele>
        <time>2021-09-30T14:39:04Z</time>
      </trkpt>
      <trkpt lat="44.19113" lon="3.18624">
        <ele>682</ele>
        <time>2021-09-30T14:39:05Z</time>
      </trkpt>
      <trkpt lat="44.19115" lon="3.18627">
        <ele>681.9</ele>
        <time>2021-09-30T14:39:07Z</time>
      </trkpt>
      <trkpt lat="44.19118" lon="3.18634">
        <ele>681.6</ele>
        <time>2021-09-30T14:39:09Z</time>
      </trkpt>
      <trkpt lat="44.19119" lon="3.18639">
        <ele>681.5</ele>
        <time>2021-09-30T14:39:10Z</time>
      </trkpt>
      <trkpt lat="44.1912" lon="3.18643">
        <ele>681.4</ele>
        <time>2021-09-30T14:39:11Z</time>
      </trkpt>
      <trkpt lat="44.19121" lon="3.18648">
        <ele>681.4</ele>
        <time>2021-09-30T14:39:13Z</time>
      </trkpt>
      <trkpt lat="44.19121" lon="3.18652">
        <ele>681.4</ele>
        <time>2021-09-30T14:39:14Z</time>
      </trkpt>
      <trkpt lat="44.19118" lon="3.18655">
        <ele>681.3</ele>
        <time>2021-09-30T14:39:15Z</time>
      </trkpt>
      <trkpt lat="44.19115" lon="3.1866">
        <ele>681.3</ele>
        <time>2021-09-30T14:39:17Z</time>
      </trkpt>
      <trkpt lat="44.19112" lon="3.18663">
        <ele>681.3</ele>
        <time>2021-09-30T14:39:18Z</time>
      </trkpt>
      <trkpt lat="44.19108" lon="3.18666">
        <ele>681.2</ele>
        <time>2021-09-30T14:39:19Z</time>
      </trkpt>
      <trkpt lat="44.19105" lon="3.1867">
        <ele>681.1</ele>
        <time>2021-09-30T14:39:20Z</time>
      </trkpt>
      <trkpt lat="44.19101" lon="3.18673">
        <ele>680.9</ele>
        <time>2021-09-30T14:39:22Z</time>
      </trkpt>
      <trkpt lat="44.19098" lon="3.18675">
        <ele>680.8</ele>
        <time>2021-09-30T14:39:23Z</time>
      </trkpt>
      <trkpt lat="44.19096" lon="3.18677">
        <ele>680.8</ele>
        <time>2021-09-30T14:39:24Z</time>
      </trkpt>
      <trkpt lat="44.19093" lon="3.18683">
        <ele>680.7</ele>
        <time>2021-09-30T14:39:26Z</time>
      </trkpt>
      <trkpt lat="44.19091" lon="3.1869">
        <ele>680.6</ele>
        <time>2021-09-30T14:39:27Z</time>
      </trkpt>
      <trkpt lat="44.19095" lon="3.18695">
        <ele>680.6</ele>
        <time>2021-09-30T14:39:29Z</time>
      </trkpt>
      <trkpt lat="44.19098" lon="3.187">
        <ele>680.6</ele>
        <time>2021-09-30T14:39:30Z</time>
      </trkpt>
      <trkpt lat="44.19102" lon="3.18703">
        <ele>680.7</ele>
        <time>2021-09-30T14:39:31Z</time>
      </trkpt>
      <trkpt lat="44.19105" lon="3.18707">
        <ele>680.8</ele>
        <time>2021-09-30T14:39:32Z</time>
      </trkpt>
      <trkpt lat="44.19107" lon="3.1871">
        <ele>680.9</ele>
        <time>2021-09-30T14:39:33Z</time>
      </trkpt>
      <trkpt lat="44.19109" lon="3.18712">
        <ele>681.1</ele>
        <time>2021-09-30T14:39:34Z</time>
      </trkpt>
      <trkpt lat="44.19111" lon="3.18714">
        <ele>681.2</ele>
        <time>2021-09-30T14:39:36Z</time>
      </trkpt>
      <trkpt lat="44.19112" lon="3.18715">
        <ele>681.3</ele>
        <time>2021-09-30T14:39:37Z</time>
      </trkpt>
      <trkpt lat="44.19115" lon="3.18718">
        <ele>681.6</ele>
        <time>2021-09-30T14:39:39Z</time>
      </trkpt>
      <trkpt lat="44.19117" lon="3.1872">
        <ele>681.8</ele>
        <time>2021-09-30T14:39:40Z</time>
      </trkpt>
      <trkpt lat="44.1912" lon="3.18724">
        <ele>682.3</ele>
        <time>2021-09-30T14:39:42Z</time>
      </trkpt>
      <trkpt lat="44.19123" lon="3.18727">
        <ele>682.6</ele>
        <time>2021-09-30T14:39:43Z</time>
      </trkpt>
      <trkpt lat="44.19124" lon="3.18728">
        <ele>682.7</ele>
        <time>2021-09-30T14:39:44Z</time>
      </trkpt>
      <trkpt lat="44.19126" lon="3.18732">
        <ele>683.1</ele>
        <time>2021-09-30T14:39:46Z</time>
      </trkpt>
      <trkpt lat="44.19129" lon="3.18736">
        <ele>683.4</ele>
        <time>2021-09-30T14:39:47Z</time>
      </trkpt>
      <trkpt lat="44.19131" lon="3.18738">
        <ele>683.6</ele>
        <time>2021-09-30T14:39:49Z</time>
      </trkpt>
      <trkpt lat="44.19134" lon="3.18741">
        <ele>683.8</ele>
        <time>2021-09-30T14:39:50Z</time>
      </trkpt>
      <trkpt lat="44.19136" lon="3.18747">
        <ele>683.9</ele>
        <time>2021-09-30T14:39:52Z</time>
      </trkpt>
      <trkpt lat="44.19134" lon="3.18753">
        <ele>684</ele>
        <time>2021-09-30T14:39:53Z</time>
      </trkpt>
      <trkpt lat="44.19134" lon="3.18755">
        <ele>684</ele>
        <time>2021-09-30T14:39:54Z</time>
      </trkpt>
      <trkpt lat="44.19131" lon="3.1876">
        <ele>683.8</ele>
        <time>2021-09-30T14:39:56Z</time>
      </trkpt>
      <trkpt lat="44.19127" lon="3.18764">
        <ele>683.6</ele>
        <time>2021-09-30T14:39:57Z</time>
      </trkpt>
      <trkpt lat="44.19123" lon="3.1877">
        <ele>683.2</ele>
        <time>2021-09-30T14:39:58Z</time>
      </trkpt>
      <trkpt lat="44.19118" lon="3.18775">
        <ele>682.8</ele>
        <time>2021-09-30T14:40:00Z</time>
      </trkpt>
      <trkpt lat="44.19116" lon="3.18778">
        <ele>682.6</ele>
        <time>2021-09-30T14:40:01Z</time>
      </trkpt>
      <trkpt lat="44.19114" lon="3.18782">
        <ele>682.4</ele>
        <time>2021-09-30T14:40:02Z</time>
      </trkpt>
      <trkpt lat="44.19111" lon="3.18786">
        <ele>682.1</ele>
        <time>2021-09-30T14:40:04Z</time>
      </trkpt>
      <trkpt lat="44.19109" lon="3.1879">
        <ele>681.9</ele>
        <time>2021-09-30T14:40:05Z</time>
      </trkpt>
      <trkpt lat="44.19108" lon="3.18793">
        <ele>681.8</ele>
        <time>2021-09-30T14:40:06Z</time>
      </trkpt>
      <trkpt lat="44.19105" lon="3.18797">
        <ele>681.5</ele>
        <time>2021-09-30T14:40:07Z</time>
      </trkpt>
      <trkpt lat="44.19101" lon="3.18803">
        <ele>681.3</ele>
        <time>2021-09-30T14:40:09Z</time>
      </trkpt>
      <trkpt lat="44.19099" lon="3.18806">
        <ele>681.1</ele>
        <time>2021-09-30T14:40:10Z</time>
      </trkpt>
      <trkpt lat="44.19097" lon="3.18811">
        <ele>681</ele>
        <time>2021-09-30T14:40:11Z</time>
      </trkpt>
      <trkpt lat="44.19097" lon="3.1882">
        <ele>680.7</ele>
        <time>2021-09-30T14:40:13Z</time>
      </trkpt>
      <trkpt lat="44.19097" lon="3.18827">
        <ele>680.5</ele>
        <time>2021-09-30T14:40:15Z</time>
      </trkpt>
      <trkpt lat="44.19099" lon="3.18831">
        <ele>680.3</ele>
        <time>2021-09-30T14:40:16Z</time>
      </trkpt>
      <trkpt lat="44.191" lon="3.18833">
        <ele>680.3</ele>
        <time>2021-09-30T14:40:17Z</time>
      </trkpt>
      <trkpt lat="44.19103" lon="3.18836">
        <ele>680.1</ele>
        <time>2021-09-30T14:40:18Z</time>
      </trkpt>
      <trkpt lat="44.19105" lon="3.18839">
        <ele>679.9</ele>
        <time>2021-09-30T14:40:19Z</time>
      </trkpt>
      <trkpt lat="44.19109" lon="3.18844">
        <ele>679.7</ele>
        <time>2021-09-30T14:40:21Z</time>
      </trkpt>
      <trkpt lat="44.19113" lon="3.18847">
        <ele>679.5</ele>
        <time>2021-09-30T14:40:22Z</time>
      </trkpt>
      <trkpt lat="44.19117" lon="3.18849">
        <ele>679.4</ele>
        <time>2021-09-30T14:40:23Z</time>
      </trkpt>
      <trkpt lat="44.19119" lon="3.18853">
        <ele>679.3</ele>
        <time>2021-09-30T14:40:25Z</time>
      </trkpt>
      <trkpt lat="44.19121" lon="3.18856">
        <ele>679.3</ele>
        <time>2021-09-30T14:40:26Z</time>
      </trkpt>
      <trkpt lat="44.19124" lon="3.18858">
        <ele>679.3</ele>
        <time>2021-09-30T14:40:27Z</time>
      </trkpt>
      <trkpt lat="44.19126" lon="3.18862">
        <ele>679.3</ele>
        <time>2021-09-30T14:40:29Z</time>
      </trkpt>
      <trkpt lat="44.19126" lon="3.18864">
        <ele>679.3</ele>
        <time>2021-09-30T14:40:30Z</time>
      </trkpt>
      <trkpt lat="44.19126" lon="3.18869">
        <ele>679.4</ele>
        <time>2021-09-30T14:40:31Z</time>
      </trkpt>
      <trkpt lat="44.19125" lon="3.18871">
        <ele>679.4</ele>
        <time>2021-09-30T14:40:32Z</time>
      </trkpt>
      <trkpt lat="44.19124" lon="3.18877">
        <ele>679.5</ele>
        <time>2021-09-30T14:40:34Z</time>
      </trkpt>
      <trkpt lat="44.19123" lon="3.18882">
        <ele>679.4</ele>
        <time>2021-09-30T14:40:35Z</time>
      </trkpt>
      <trkpt lat="44.19122" lon="3.18886">
        <ele>679.3</ele>
        <time>2021-09-30T14:40:36Z</time>
      </trkpt>
      <trkpt lat="44.19118" lon="3.1889">
        <ele>679</ele>
        <time>2021-09-30T14:40:37Z</time>
      </trkpt>
      <trkpt lat="44.1911" lon="3.18896">
        <ele>678</ele>
        <time>2021-09-30T14:40:39Z</time>
      </trkpt>
      <trkpt lat="44.19106" lon="3.18902">
        <ele>677.2</ele>
        <time>2021-09-30T14:40:40Z</time>
      </trkpt>
      <trkpt lat="44.19102" lon="3.18907">
        <ele>676.5</ele>
        <time>2021-09-30T14:40:41Z</time>
      </trkpt>
      <trkpt lat="44.19102" lon="3.18912">
        <ele>676.1</ele>
        <time>2021-09-30T14:40:43Z</time>
      </trkpt>
      <trkpt lat="44.19097" lon="3.18914">
        <ele>675.6</ele>
        <time>2021-09-30T14:40:44Z</time>
      </trkpt>
      <trkpt lat="44.1909" lon="3.18914">
        <ele>674.8</ele>
        <time>2021-09-30T14:40:46Z</time>
      </trkpt>
      <trkpt lat="44.19085" lon="3.18916">
        <ele>674.3</ele>
        <time>2021-09-30T14:40:47Z</time>
      </trkpt>
      <trkpt lat="44.19074" lon="3.18927">
        <ele>673.1</ele>
        <time>2021-09-30T14:40:49Z</time>
      </trkpt>
      <trkpt lat="44.1907" lon="3.18931">
        <ele>673</ele>
        <time>2021-09-30T14:40:51Z</time>
      </trkpt>
      <trkpt lat="44.19068" lon="3.18936">
        <ele>672.8</ele>
        <time>2021-09-30T14:40:52Z</time>
      </trkpt>
      <trkpt lat="44.19068" lon="3.18941">
        <ele>672.6</ele>
        <time>2021-09-30T14:40:53Z</time>
      </trkpt>
      <trkpt lat="44.19068" lon="3.18949">
        <ele>672.2</ele>
        <time>2021-09-30T14:40:54Z</time>
      </trkpt>
      <trkpt lat="44.19068" lon="3.18955">
        <ele>671.7</ele>
        <time>2021-09-30T14:40:56Z</time>
      </trkpt>
      <trkpt lat="44.19069" lon="3.18961">
        <ele>671.3</ele>
        <time>2021-09-30T14:40:57Z</time>
      </trkpt>
      <trkpt lat="44.1907" lon="3.18965">
        <ele>670.9</ele>
        <time>2021-09-30T14:40:58Z</time>
      </trkpt>
      <trkpt lat="44.19074" lon="3.18973">
        <ele>670.1</ele>
        <time>2021-09-30T14:41:00Z</time>
      </trkpt>
      <trkpt lat="44.19077" lon="3.18977">
        <ele>669.5</ele>
        <time>2021-09-30T14:41:01Z</time>
      </trkpt>
      <trkpt lat="44.19081" lon="3.18983">
        <ele>668.9</ele>
        <time>2021-09-30T14:41:02Z</time>
      </trkpt>
      <trkpt lat="44.19084" lon="3.18988">
        <ele>668.4</ele>
        <time>2021-09-30T14:41:03Z</time>
      </trkpt>
      <trkpt lat="44.19088" lon="3.18993">
        <ele>667.7</ele>
        <time>2021-09-30T14:41:04Z</time>
      </trkpt>
      <trkpt lat="44.19091" lon="3.19">
        <ele>667.1</ele>
        <time>2021-09-30T14:41:05Z</time>
      </trkpt>
      <trkpt lat="44.19092" lon="3.19007">
        <ele>666.5</ele>
        <time>2021-09-30T14:41:06Z</time>
      </trkpt>
      <trkpt lat="44.1909" lon="3.19012">
        <ele>665.9</ele>
        <time>2021-09-30T14:41:08Z</time>
      </trkpt>
      <trkpt lat="44.19088" lon="3.19017">
        <ele>665.2</ele>
        <time>2021-09-30T14:41:09Z</time>
      </trkpt>
      <trkpt lat="44.19076" lon="3.19025">
        <ele>662.8</ele>
        <time>2021-09-30T14:41:10Z</time>
      </trkpt>
      <trkpt lat="44.19073" lon="3.19032">
        <ele>661.8</ele>
        <time>2021-09-30T14:41:11Z</time>
      </trkpt>
      <trkpt lat="44.19071" lon="3.19047">
        <ele>660</ele>
        <time>2021-09-30T14:41:13Z</time>
      </trkpt>
      <trkpt lat="44.19068" lon="3.19053">
        <ele>659.2</ele>
        <time>2021-09-30T14:41:14Z</time>
      </trkpt>
      <trkpt lat="44.19063" lon="3.19063">
        <ele>657.8</ele>
        <time>2021-09-30T14:41:16Z</time>
      </trkpt>
      <trkpt lat="44.19052" lon="3.1907">
        <ele>656.1</ele>
        <time>2021-09-30T14:41:18Z</time>
      </trkpt>
      <trkpt lat="44.19043" lon="3.19081">
        <ele>654.4</ele>
        <time>2021-09-30T14:41:20Z</time>
      </trkpt>
      <trkpt lat="44.19039" lon="3.19086">
        <ele>653.8</ele>
        <time>2021-09-30T14:41:21Z</time>
      </trkpt>
      <trkpt lat="44.19032" lon="3.19096">
        <ele>652.6</ele>
        <time>2021-09-30T14:41:23Z</time>
      </trkpt>
      <trkpt lat="44.19028" lon="3.19109">
        <ele>651.4</ele>
        <time>2021-09-30T14:41:25Z</time>
      </trkpt>
      <trkpt lat="44.19026" lon="3.19115">
        <ele>650.7</ele>
        <time>2021-09-30T14:41:26Z</time>
      </trkpt>
      <trkpt lat="44.19023" lon="3.19119">
        <ele>650.2</ele>
        <time>2021-09-30T14:41:27Z</time>
      </trkpt>
      <trkpt lat="44.1902" lon="3.19129">
        <ele>649.2</ele>
        <time>2021-09-30T14:41:29Z</time>
      </trkpt>
      <trkpt lat="44.19018" lon="3.19137">
        <ele>648.5</ele>
        <time>2021-09-30T14:41:30Z</time>
      </trkpt>
      <trkpt lat="44.19017" lon="3.19152">
        <ele>647.8</ele>
        <time>2021-09-30T14:41:32Z</time>
      </trkpt>
      <trkpt lat="44.19014" lon="3.1916">
        <ele>647.6</ele>
        <time>2021-09-30T14:41:34Z</time>
      </trkpt>
      <trkpt lat="44.19012" lon="3.19163">
        <ele>647.5</ele>
        <time>2021-09-30T14:41:35Z</time>
      </trkpt>
      <trkpt lat="44.19012" lon="3.1917">
        <ele>647.3</ele>
        <time>2021-09-30T14:41:37Z</time>
      </trkpt>
      <trkpt lat="44.19012" lon="3.19173">
        <ele>647.1</ele>
        <time>2021-09-30T14:41:38Z</time>
      </trkpt>
      <trkpt lat="44.19014" lon="3.1918">
        <ele>646.8</ele>
        <time>2021-09-30T14:41:40Z</time>
      </trkpt>
      <trkpt lat="44.19015" lon="3.19184">
        <ele>646.7</ele>
        <time>2021-09-30T14:41:41Z</time>
      </trkpt>
      <trkpt lat="44.19018" lon="3.19187">
        <ele>646.4</ele>
        <time>2021-09-30T14:41:42Z</time>
      </trkpt>
      <trkpt lat="44.19029" lon="3.192">
        <ele>645.7</ele>
        <time>2021-09-30T14:41:44Z</time>
      </trkpt>
      <trkpt lat="44.19036" lon="3.19211">
        <ele>645.3</ele>
        <time>2021-09-30T14:41:46Z</time>
      </trkpt>
      <trkpt lat="44.19037" lon="3.19214">
        <ele>645.1</ele>
        <time>2021-09-30T14:41:47Z</time>
      </trkpt>
      <trkpt lat="44.19038" lon="3.19222">
        <ele>644.8</ele>
        <time>2021-09-30T14:41:49Z</time>
      </trkpt>
      <trkpt lat="44.19037" lon="3.19229">
        <ele>644.4</ele>
        <time>2021-09-30T14:41:50Z</time>
      </trkpt>
      <trkpt lat="44.19035" lon="3.19236">
        <ele>643.8</ele>
        <time>2021-09-30T14:41:51Z</time>
      </trkpt>
      <trkpt lat="44.19026" lon="3.19247">
        <ele>642.2</ele>
        <time>2021-09-30T14:41:53Z</time>
      </trkpt>
      <trkpt lat="44.19023" lon="3.19251">
        <ele>641.6</ele>
        <time>2021-09-30T14:41:54Z</time>
      </trkpt>
      <trkpt lat="44.19015" lon="3.19258">
        <ele>640.5</ele>
        <time>2021-09-30T14:41:56Z</time>
      </trkpt>
      <trkpt lat="44.19008" lon="3.19268">
        <ele>639</ele>
        <time>2021-09-30T14:41:58Z</time>
      </trkpt>
      <trkpt lat="44.19004" lon="3.19274">
        <ele>638.2</ele>
        <time>2021-09-30T14:41:59Z</time>
      </trkpt>
      <trkpt lat="44.19003" lon="3.19277">
        <ele>637.8</ele>
        <time>2021-09-30T14:42:00Z</time>
      </trkpt>
      <trkpt lat="44.19001" lon="3.19279">
        <ele>637.5</ele>
        <time>2021-09-30T14:42:01Z</time>
      </trkpt>
      <trkpt lat="44.18999" lon="3.19282">
        <ele>637</ele>
        <time>2021-09-30T14:42:02Z</time>
      </trkpt>
      <trkpt lat="44.1899" lon="3.19294">
        <ele>635.3</ele>
        <time>2021-09-30T14:42:04Z</time>
      </trkpt>
      <trkpt lat="44.1898" lon="3.19306">
        <ele>633.4</ele>
        <time>2021-09-30T14:42:06Z</time>
      </trkpt>
      <trkpt lat="44.18977" lon="3.19313">
        <ele>632.4</ele>
        <time>2021-09-30T14:42:07Z</time>
      </trkpt>
      <trkpt lat="44.18975" lon="3.1932">
        <ele>631.2</ele>
        <time>2021-09-30T14:42:08Z</time>
      </trkpt>
      <trkpt lat="44.18968" lon="3.19336">
        <ele>628</ele>
        <time>2021-09-30T14:42:10Z</time>
      </trkpt>
      <trkpt lat="44.18966" lon="3.19345">
        <ele>626.3</ele>
        <time>2021-09-30T14:42:11Z</time>
      </trkpt>
      <trkpt lat="44.18964" lon="3.19355">
        <ele>624.5</ele>
        <time>2021-09-30T14:42:13Z</time>
      </trkpt>
      <trkpt lat="44.18964" lon="3.19359">
        <ele>623.8</ele>
        <time>2021-09-30T14:42:15Z</time>
      </trkpt>
      <trkpt lat="44.18963" lon="3.19365">
        <ele>623</ele>
        <time>2021-09-30T14:42:16Z</time>
      </trkpt>
      <trkpt lat="44.18961" lon="3.1937">
        <ele>622.2</ele>
        <time>2021-09-30T14:42:18Z</time>
      </trkpt>
      <trkpt lat="44.18959" lon="3.19374">
        <ele>621.8</ele>
        <time>2021-09-30T14:42:19Z</time>
      </trkpt>
      <trkpt lat="44.18956" lon="3.19381">
        <ele>620.9</ele>
        <time>2021-09-30T14:42:20Z</time>
      </trkpt>
      <trkpt lat="44.18955" lon="3.19386">
        <ele>620.2</ele>
        <time>2021-09-30T14:42:21Z</time>
      </trkpt>
      <trkpt lat="44.18957" lon="3.19393">
        <ele>619.2</ele>
        <time>2021-09-30T14:42:23Z</time>
      </trkpt>
      <trkpt lat="44.18961" lon="3.19401">
        <ele>617.6</ele>
        <time>2021-09-30T14:42:25Z</time>
      </trkpt>
      <trkpt lat="44.18963" lon="3.19406">
        <ele>616.7</ele>
        <time>2021-09-30T14:42:26Z</time>
      </trkpt>
      <trkpt lat="44.18964" lon="3.19411">
        <ele>615.7</ele>
        <time>2021-09-30T14:42:27Z</time>
      </trkpt>
      <trkpt lat="44.18966" lon="3.19419">
        <ele>614.4</ele>
        <time>2021-09-30T14:42:28Z</time>
      </trkpt>
      <trkpt lat="44.18964" lon="3.19425">
        <ele>613.3</ele>
        <time>2021-09-30T14:42:29Z</time>
      </trkpt>
      <trkpt lat="44.18961" lon="3.19432">
        <ele>611.9</ele>
        <time>2021-09-30T14:42:31Z</time>
      </trkpt>
      <trkpt lat="44.18959" lon="3.19442">
        <ele>610.4</ele>
        <time>2021-09-30T14:42:32Z</time>
      </trkpt>
      <trkpt lat="44.18959" lon="3.19463">
        <ele>607.4</ele>
        <time>2021-09-30T14:42:34Z</time>
      </trkpt>
      <trkpt lat="44.18959" lon="3.19482">
        <ele>605</ele>
        <time>2021-09-30T14:42:36Z</time>
      </trkpt>
      <trkpt lat="44.18959" lon="3.19491">
        <ele>604.1</ele>
        <time>2021-09-30T14:42:37Z</time>
      </trkpt>
      <trkpt lat="44.18959" lon="3.19508">
        <ele>602.3</ele>
        <time>2021-09-30T14:42:39Z</time>
      </trkpt>
      <trkpt lat="44.18959" lon="3.19517">
        <ele>601.5</ele>
        <time>2021-09-30T14:42:40Z</time>
      </trkpt>
      <trkpt lat="44.1896" lon="3.19533">
        <ele>599.9</ele>
        <time>2021-09-30T14:42:42Z</time>
      </trkpt>
      <trkpt lat="44.1896" lon="3.19542">
        <ele>599.1</ele>
        <time>2021-09-30T14:42:43Z</time>
      </trkpt>
      <trkpt lat="44.18962" lon="3.19558">
        <ele>597.4</ele>
        <time>2021-09-30T14:42:45Z</time>
      </trkpt>
      <trkpt lat="44.18963" lon="3.19566">
        <ele>596.5</ele>
        <time>2021-09-30T14:42:46Z</time>
      </trkpt>
      <trkpt lat="44.18966" lon="3.1958">
        <ele>594.7</ele>
        <time>2021-09-30T14:42:48Z</time>
      </trkpt>
      <trkpt lat="44.18967" lon="3.19588">
        <ele>593.7</ele>
        <time>2021-09-30T14:42:49Z</time>
      </trkpt>
      <trkpt lat="44.18966" lon="3.19597">
        <ele>592.7</ele>
        <time>2021-09-30T14:42:51Z</time>
      </trkpt>
      <trkpt lat="44.18967" lon="3.1961">
        <ele>591.3</ele>
        <time>2021-09-30T14:42:53Z</time>
      </trkpt>
      <trkpt lat="44.18969" lon="3.19625">
        <ele>589.9</ele>
        <time>2021-09-30T14:42:55Z</time>
      </trkpt>
      <trkpt lat="44.18971" lon="3.19641">
        <ele>588.7</ele>
        <time>2021-09-30T14:42:57Z</time>
      </trkpt>
      <trkpt lat="44.18973" lon="3.19653">
        <ele>587.9</ele>
        <time>2021-09-30T14:42:59Z</time>
      </trkpt>
      <trkpt lat="44.18971" lon="3.19657">
        <ele>587.5</ele>
        <time>2021-09-30T14:43:00Z</time>
      </trkpt>
      <trkpt lat="44.18971" lon="3.1966">
        <ele>587.4</ele>
        <time>2021-09-30T14:43:01Z</time>
      </trkpt>
      <trkpt lat="44.18973" lon="3.19671">
        <ele>586.7</ele>
        <time>2021-09-30T14:43:03Z</time>
      </trkpt>
      <trkpt lat="44.18971" lon="3.19677">
        <ele>586.4</ele>
        <time>2021-09-30T14:43:04Z</time>
      </trkpt>
      <trkpt lat="44.18971" lon="3.19683">
        <ele>586.2</ele>
        <time>2021-09-30T14:43:05Z</time>
      </trkpt>
      <trkpt lat="44.18971" lon="3.19686">
        <ele>586.2</ele>
        <time>2021-09-30T14:43:06Z</time>
      </trkpt>
      <trkpt lat="44.18971" lon="3.19692">
        <ele>586.1</ele>
        <time>2021-09-30T14:43:08Z</time>
      </trkpt>
      <trkpt lat="44.1897" lon="3.19698">
        <ele>586</ele>
        <time>2021-09-30T14:43:09Z</time>
      </trkpt>
      <trkpt lat="44.1897" lon="3.197">
        <ele>586</ele>
        <time>2021-09-30T14:43:10Z</time>
      </trkpt>
      <trkpt lat="44.18969" lon="3.19704">
        <ele>585.9</ele>
        <time>2021-09-30T14:43:11Z</time>
      </trkpt>
      <trkpt lat="44.18968" lon="3.19709">
        <ele>585.8</ele>
        <time>2021-09-30T14:43:13Z</time>
      </trkpt>
      <trkpt lat="44.18965" lon="3.19714">
        <ele>585.5</ele>
        <time>2021-09-30T14:43:15Z</time>
      </trkpt>
      <trkpt lat="44.18964" lon="3.19719">
        <ele>585.3</ele>
        <time>2021-09-30T14:43:16Z</time>
      </trkpt>
      <trkpt lat="44.18961" lon="3.19732">
        <ele>584.1</ele>
        <time>2021-09-30T14:43:18Z</time>
      </trkpt>
      <trkpt lat="44.1896" lon="3.19739">
        <ele>583.4</ele>
        <time>2021-09-30T14:43:19Z</time>
      </trkpt>
      <trkpt lat="44.18959" lon="3.19747">
        <ele>582.5</ele>
        <time>2021-09-30T14:43:20Z</time>
      </trkpt>
      <trkpt lat="44.18955" lon="3.19758">
        <ele>581.2</ele>
        <time>2021-09-30T14:43:22Z</time>
      </trkpt>
      <trkpt lat="44.18954" lon="3.19765">
        <ele>580.5</ele>
        <time>2021-09-30T14:43:23Z</time>
      </trkpt>
      <trkpt lat="44.18952" lon="3.19779">
        <ele>579.2</ele>
        <time>2021-09-30T14:43:25Z</time>
      </trkpt>
      <trkpt lat="44.18952" lon="3.19784">
        <ele>578.7</ele>
        <time>2021-09-30T14:43:26Z</time>
      </trkpt>
      <trkpt lat="44.18952" lon="3.19786">
        <ele>578.5</ele>
        <time>2021-09-30T14:43:27Z</time>
      </trkpt>
      <trkpt lat="44.18954" lon="3.19792">
        <ele>577.9</ele>
        <time>2021-09-30T14:43:29Z</time>
      </trkpt>
      <trkpt lat="44.18957" lon="3.198">
        <ele>577.2</ele>
        <time>2021-09-30T14:43:30Z</time>
      </trkpt>
      <trkpt lat="44.18959" lon="3.19805">
        <ele>576.8</ele>
        <time>2021-09-30T14:43:32Z</time>
      </trkpt>
      <trkpt lat="44.18961" lon="3.19811">
        <ele>576.4</ele>
        <time>2021-09-30T14:43:33Z</time>
      </trkpt>
      <trkpt lat="44.18964" lon="3.19817">
        <ele>576.1</ele>
        <time>2021-09-30T14:43:35Z</time>
      </trkpt>
      <trkpt lat="44.18966" lon="3.19822">
        <ele>575.9</ele>
        <time>2021-09-30T14:43:36Z</time>
      </trkpt>
      <trkpt lat="44.18967" lon="3.19826">
        <ele>575.8</ele>
        <time>2021-09-30T14:43:37Z</time>
      </trkpt>
      <trkpt lat="44.18968" lon="3.19831">
        <ele>575.7</ele>
        <time>2021-09-30T14:43:38Z</time>
      </trkpt>
      <trkpt lat="44.18969" lon="3.19837">
        <ele>575.6</ele>
        <time>2021-09-30T14:43:39Z</time>
      </trkpt>
      <trkpt lat="44.18971" lon="3.19846">
        <ele>575.4</ele>
        <time>2021-09-30T14:43:41Z</time>
      </trkpt>
      <trkpt lat="44.18972" lon="3.19855">
        <ele>575.2</ele>
        <time>2021-09-30T14:43:42Z</time>
      </trkpt>
      <trkpt lat="44.18972" lon="3.19863">
        <ele>575.1</ele>
        <time>2021-09-30T14:43:43Z</time>
      </trkpt>
      <trkpt lat="44.18972" lon="3.1987">
        <ele>575</ele>
        <time>2021-09-30T14:43:45Z</time>
      </trkpt>
      <trkpt lat="44.18973" lon="3.19879">
        <ele>575</ele>
        <time>2021-09-30T14:43:46Z</time>
      </trkpt>
      <trkpt lat="44.18973" lon="3.19887">
        <ele>575</ele>
        <time>2021-09-30T14:43:48Z</time>
      </trkpt>
      <trkpt lat="44.18975" lon="3.19894">
        <ele>575.1</ele>
        <time>2021-09-30T14:43:49Z</time>
      </trkpt>
      <trkpt lat="44.18975" lon="3.19902">
        <ele>575.1</ele>
        <time>2021-09-30T14:43:50Z</time>
      </trkpt>
      <trkpt lat="44.18976" lon="3.19916">
        <ele>575</ele>
        <time>2021-09-30T14:43:52Z</time>
      </trkpt>
      <trkpt lat="44.18977" lon="3.19932">
        <ele>574.5</ele>
        <time>2021-09-30T14:43:53Z</time>
      </trkpt>
      <trkpt lat="44.18979" lon="3.19939">
        <ele>574.3</ele>
        <time>2021-09-30T14:43:54Z</time>
      </trkpt>
      <trkpt lat="44.1898" lon="3.19957">
        <ele>573.5</ele>
        <time>2021-09-30T14:43:56Z</time>
      </trkpt>
      <trkpt lat="44.18978" lon="3.19962">
        <ele>573.2</ele>
        <time>2021-09-30T14:43:57Z</time>
      </trkpt>
      <trkpt lat="44.18977" lon="3.19975">
        <ele>572.2</ele>
        <time>2021-09-30T14:43:59Z</time>
      </trkpt>
      <trkpt lat="44.18978" lon="3.19981">
        <ele>571.7</ele>
        <time>2021-09-30T14:44:00Z</time>
      </trkpt>
      <trkpt lat="44.18971" lon="3.19995">
        <ele>569.6</ele>
        <time>2021-09-30T14:44:02Z</time>
      </trkpt>
      <trkpt lat="44.18957" lon="3.20005">
        <ele>566.6</ele>
        <time>2021-09-30T14:44:04Z</time>
      </trkpt>
      <trkpt lat="44.18946" lon="3.20013">
        <ele>564.2</ele>
        <time>2021-09-30T14:44:06Z</time>
      </trkpt>
      <trkpt lat="44.18943" lon="3.2002">
        <ele>563</ele>
        <time>2021-09-30T14:44:07Z</time>
      </trkpt>
      <trkpt lat="44.18942" lon="3.20037">
        <ele>560.5</ele>
        <time>2021-09-30T14:44:09Z</time>
      </trkpt>
      <trkpt lat="44.18939" lon="3.20044">
        <ele>559.3</ele>
        <time>2021-09-30T14:44:11Z</time>
      </trkpt>
      <trkpt lat="44.1894" lon="3.2005">
        <ele>558.4</ele>
        <time>2021-09-30T14:44:12Z</time>
      </trkpt>
      <trkpt lat="44.18941" lon="3.20059">
        <ele>556.9</ele>
        <time>2021-09-30T14:44:14Z</time>
      </trkpt>
      <trkpt lat="44.1894" lon="3.20066">
        <ele>555.7</ele>
        <time>2021-09-30T14:44:15Z</time>
      </trkpt>
      <trkpt lat="44.1894" lon="3.20074">
        <ele>552.4</ele>
        <time>2021-09-30T14:44:16Z</time>
      </trkpt>
      <trkpt lat="44.18942" lon="3.20077">
        <ele>551</ele>
        <time>2021-09-30T14:44:18Z</time>
      </trkpt>
      <trkpt lat="44.18945" lon="3.20078">
        <ele>549.7</ele>
        <time>2021-09-30T14:44:19Z</time>
      </trkpt>
      <trkpt lat="44.18951" lon="3.20077">
        <ele>547.4</ele>
        <time>2021-09-30T14:44:20Z</time>
      </trkpt>
      <trkpt lat="44.18954" lon="3.20076">
        <ele>545.9</ele>
        <time>2021-09-30T14:44:22Z</time>
      </trkpt>
      <trkpt lat="44.18958" lon="3.20077">
        <ele>544.5</ele>
        <time>2021-09-30T14:44:24Z</time>
      </trkpt>
      <trkpt lat="44.18959" lon="3.20079">
        <ele>543.8</ele>
        <time>2021-09-30T14:44:25Z</time>
      </trkpt>
      <trkpt lat="44.18959" lon="3.20082">
        <ele>543.1</ele>
        <time>2021-09-30T14:44:26Z</time>
      </trkpt>
      <trkpt lat="44.18957" lon="3.20085">
        <ele>542.1</ele>
        <time>2021-09-30T14:44:28Z</time>
      </trkpt>
      <trkpt lat="44.18952" lon="3.20092">
        <ele>540</ele>
        <time>2021-09-30T14:44:30Z</time>
      </trkpt>
      <trkpt lat="44.18948" lon="3.20096">
        <ele>538.3</ele>
        <time>2021-09-30T14:44:31Z</time>
      </trkpt>
      <trkpt lat="44.18944" lon="3.20103">
        <ele>536.4</ele>
        <time>2021-09-30T14:44:32Z</time>
      </trkpt>
      <trkpt lat="44.18941" lon="3.20108">
        <ele>534.9</ele>
        <time>2021-09-30T14:44:33Z</time>
      </trkpt>
      <trkpt lat="44.18934" lon="3.20116">
        <ele>532.4</ele>
        <time>2021-09-30T14:44:35Z</time>
      </trkpt>
      <trkpt lat="44.18929" lon="3.20121">
        <ele>530.8</ele>
        <time>2021-09-30T14:44:37Z</time>
      </trkpt>
      <trkpt lat="44.18926" lon="3.20127">
        <ele>529.2</ele>
        <time>2021-09-30T14:44:38Z</time>
      </trkpt>
      <trkpt lat="44.18924" lon="3.20137">
        <ele>527.2</ele>
        <time>2021-09-30T14:44:40Z</time>
      </trkpt>
      <trkpt lat="44.18923" lon="3.20145">
        <ele>525.6</ele>
        <time>2021-09-30T14:44:41Z</time>
      </trkpt>
      <trkpt lat="44.18919" lon="3.20163">
        <ele>522</ele>
        <time>2021-09-30T14:44:43Z</time>
      </trkpt>
      <trkpt lat="44.18918" lon="3.20172">
        <ele>520.3</ele>
        <time>2021-09-30T14:44:44Z</time>
      </trkpt>
      <trkpt lat="44.18918" lon="3.20179">
        <ele>519</ele>
        <time>2021-09-30T14:44:45Z</time>
      </trkpt>
      <trkpt lat="44.18912" lon="3.20188">
        <ele>516.4</ele>
        <time>2021-09-30T14:44:47Z</time>
      </trkpt>
      <trkpt lat="44.18907" lon="3.20205">
        <ele>512.5</ele>
        <time>2021-09-30T14:44:49Z</time>
      </trkpt>
      <trkpt lat="44.18904" lon="3.20221">
        <ele>508.8</ele>
        <time>2021-09-30T14:44:51Z</time>
      </trkpt>
      <trkpt lat="44.18904" lon="3.2023">
        <ele>506.8</ele>
        <time>2021-09-30T14:44:52Z</time>
      </trkpt>
      <trkpt lat="44.18903" lon="3.20243">
        <ele>504.3</ele>
        <time>2021-09-30T14:44:54Z</time>
      </trkpt>
      <trkpt lat="44.189" lon="3.20247">
        <ele>503.4</ele>
        <time>2021-09-30T14:44:55Z</time>
      </trkpt>
      <trkpt lat="44.18898" lon="3.20251">
        <ele>502.4</ele>
        <time>2021-09-30T14:44:56Z</time>
      </trkpt>
      <trkpt lat="44.18895" lon="3.20256">
        <ele>501.5</ele>
        <time>2021-09-30T14:44:57Z</time>
      </trkpt>
      <trkpt lat="44.18892" lon="3.20261">
        <ele>500.3</ele>
        <time>2021-09-30T14:44:58Z</time>
      </trkpt>
      <trkpt lat="44.18887" lon="3.20267">
        <ele>498.9</ele>
        <time>2021-09-30T14:45:00Z</time>
      </trkpt>
      <trkpt lat="44.18884" lon="3.20273">
        <ele>497.7</ele>
        <time>2021-09-30T14:45:01Z</time>
      </trkpt>
      <trkpt lat="44.18881" lon="3.20279">
        <ele>496.6</ele>
        <time>2021-09-30T14:45:02Z</time>
      </trkpt>
      <trkpt lat="44.18878" lon="3.20284">
        <ele>495.7</ele>
        <time>2021-09-30T14:45:04Z</time>
      </trkpt>
      <trkpt lat="44.18876" lon="3.20289">
        <ele>494.8</ele>
        <time>2021-09-30T14:45:05Z</time>
      </trkpt>
      <trkpt lat="44.18876" lon="3.20301">
        <ele>493.1</ele>
        <time>2021-09-30T14:45:06Z</time>
      </trkpt>
      <trkpt lat="44.18879" lon="3.20318">
        <ele>490.5</ele>
        <time>2021-09-30T14:45:08Z</time>
      </trkpt>
      <trkpt lat="44.18879" lon="3.20331">
        <ele>488.5</ele>
        <time>2021-09-30T14:45:10Z</time>
      </trkpt>
      <trkpt lat="44.18878" lon="3.20335">
        <ele>488</ele>
        <time>2021-09-30T14:45:11Z</time>
      </trkpt>
      <trkpt lat="44.18876" lon="3.20342">
        <ele>487.2</ele>
        <time>2021-09-30T14:45:12Z</time>
      </trkpt>
      <trkpt lat="44.18875" lon="3.20358">
        <ele>485.1</ele>
        <time>2021-09-30T14:45:14Z</time>
      </trkpt>
      <trkpt lat="44.18875" lon="3.20365">
        <ele>484.3</ele>
        <time>2021-09-30T14:45:15Z</time>
      </trkpt>
      <trkpt lat="44.18875" lon="3.20369">
        <ele>483.7</ele>
        <time>2021-09-30T14:45:16Z</time>
      </trkpt>
      <trkpt lat="44.18875" lon="3.20372">
        <ele>483.5</ele>
        <time>2021-09-30T14:45:17Z</time>
      </trkpt>
      <trkpt lat="44.18876" lon="3.20382">
        <ele>482.2</ele>
        <time>2021-09-30T14:45:18Z</time>
      </trkpt>
      <trkpt lat="44.18881" lon="3.20401">
        <ele>480.3</ele>
        <time>2021-09-30T14:45:20Z</time>
      </trkpt>
      <trkpt lat="44.18883" lon="3.20413">
        <ele>479.2</ele>
        <time>2021-09-30T14:45:22Z</time>
      </trkpt>
      <trkpt lat="44.18885" lon="3.20418">
        <ele>478.7</ele>
        <time>2021-09-30T14:45:23Z</time>
      </trkpt>
      <trkpt lat="44.18886" lon="3.20424">
        <ele>478</ele>
        <time>2021-09-30T14:45:24Z</time>
      </trkpt>
      <trkpt lat="44.18887" lon="3.2043">
        <ele>477.1</ele>
        <time>2021-09-30T14:45:26Z</time>
      </trkpt>
      <trkpt lat="44.18888" lon="3.20436">
        <ele>476.2</ele>
        <time>2021-09-30T14:45:27Z</time>
      </trkpt>
      <trkpt lat="44.1889" lon="3.20449">
        <ele>474.2</ele>
        <time>2021-09-30T14:45:29Z</time>
      </trkpt>
      <trkpt lat="44.18891" lon="3.20459">
        <ele>472.5</ele>
        <time>2021-09-30T14:45:31Z</time>
      </trkpt>
      <trkpt lat="44.1889" lon="3.20465">
        <ele>471.4</ele>
        <time>2021-09-30T14:45:32Z</time>
      </trkpt>
      <trkpt lat="44.18889" lon="3.2047">
        <ele>470.4</ele>
        <time>2021-09-30T14:45:33Z</time>
      </trkpt>
      <trkpt lat="44.18889" lon="3.20476">
        <ele>469.3</ele>
        <time>2021-09-30T14:45:34Z</time>
      </trkpt>
      <trkpt lat="44.18889" lon="3.20481">
        <ele>468.4</ele>
        <time>2021-09-30T14:45:35Z</time>
      </trkpt>
      <trkpt lat="44.18889" lon="3.20486">
        <ele>467.3</ele>
        <time>2021-09-30T14:45:36Z</time>
      </trkpt>
      <trkpt lat="44.18891" lon="3.20493">
        <ele>465.8</ele>
        <time>2021-09-30T14:45:38Z</time>
      </trkpt>
      <trkpt lat="44.18892" lon="3.20499">
        <ele>464.7</ele>
        <time>2021-09-30T14:45:40Z</time>
      </trkpt>
      <trkpt lat="44.18892" lon="3.20503">
        <ele>463.9</ele>
        <time>2021-09-30T14:45:41Z</time>
      </trkpt>
      <trkpt lat="44.18891" lon="3.20508">
        <ele>463</ele>
        <time>2021-09-30T14:45:42Z</time>
      </trkpt>
      <trkpt lat="44.18892" lon="3.20514">
        <ele>461.9</ele>
        <time>2021-09-30T14:45:44Z</time>
      </trkpt>
      <trkpt lat="44.18894" lon="3.2052">
        <ele>460.9</ele>
        <time>2021-09-30T14:45:45Z</time>
      </trkpt>
      <trkpt lat="44.18893" lon="3.20522">
        <ele>460.4</ele>
        <time>2021-09-30T14:45:46Z</time>
      </trkpt>
      <trkpt lat="44.18893" lon="3.20527">
        <ele>459.4</ele>
        <time>2021-09-30T14:45:47Z</time>
      </trkpt>
      <trkpt lat="44.18893" lon="3.20533">
        <ele>458.3</ele>
        <time>2021-09-30T14:45:49Z</time>
      </trkpt>
      <trkpt lat="44.18894" lon="3.20537">
        <ele>457.5</ele>
        <time>2021-09-30T14:45:51Z</time>
      </trkpt>
      <trkpt lat="44.18897" lon="3.20537">
        <ele>456.7</ele>
        <time>2021-09-30T14:45:52Z</time>
      </trkpt>
      <trkpt lat="44.18899" lon="3.2054">
        <ele>455.8</ele>
        <time>2021-09-30T14:45:53Z</time>
      </trkpt>
      <trkpt lat="44.18902" lon="3.20544">
        <ele>454.6</ele>
        <time>2021-09-30T14:45:54Z</time>
      </trkpt>
      <trkpt lat="44.18904" lon="3.20549">
        <ele>453.5</ele>
        <time>2021-09-30T14:45:56Z</time>
      </trkpt>
      <trkpt lat="44.18906" lon="3.20556">
        <ele>451.9</ele>
        <time>2021-09-30T14:45:57Z</time>
      </trkpt>
      <trkpt lat="44.18908" lon="3.2056">
        <ele>450.7</ele>
        <time>2021-09-30T14:45:58Z</time>
      </trkpt>
      <trkpt lat="44.1891" lon="3.20563">
        <ele>449.9</ele>
        <time>2021-09-30T14:45:59Z</time>
      </trkpt>
      <trkpt lat="44.18912" lon="3.20568">
        <ele>448.8</ele>
        <time>2021-09-30T14:46:01Z</time>
      </trkpt>
      <trkpt lat="44.18913" lon="3.20574">
        <ele>447.8</ele>
        <time>2021-09-30T14:46:02Z</time>
      </trkpt>
      <trkpt lat="44.18914" lon="3.20584">
        <ele>446.3</ele>
        <time>2021-09-30T14:46:03Z</time>
      </trkpt>
      <trkpt lat="44.18913" lon="3.20593">
        <ele>445.2</ele>
        <time>2021-09-30T14:46:04Z</time>
      </trkpt>
      <trkpt lat="44.18913" lon="3.20604">
        <ele>444.1</ele>
        <time>2021-09-30T14:46:05Z</time>
      </trkpt>
      <trkpt lat="44.18912" lon="3.20622">
        <ele>441.7</ele>
        <time>2021-09-30T14:46:07Z</time>
      </trkpt>
      <trkpt lat="44.18912" lon="3.2063">
        <ele>440.5</ele>
        <time>2021-09-30T14:46:08Z</time>
      </trkpt>
      <trkpt lat="44.18912" lon="3.20638">
        <ele>439.2</ele>
        <time>2021-09-30T14:46:10Z</time>
      </trkpt>
      <trkpt lat="44.18913" lon="3.20642">
        <ele>438.2</ele>
        <time>2021-09-30T14:46:11Z</time>
      </trkpt>
      <trkpt lat="44.18913" lon="3.20647">
        <ele>437.2</ele>
        <time>2021-09-30T14:46:12Z</time>
      </trkpt>
      <trkpt lat="44.18914" lon="3.20653">
        <ele>436</ele>
        <time>2021-09-30T14:46:14Z</time>
      </trkpt>
      <trkpt lat="44.18914" lon="3.20655">
        <ele>435.6</ele>
        <time>2021-09-30T14:46:15Z</time>
      </trkpt>
      <trkpt lat="44.18915" lon="3.20657">
        <ele>435.1</ele>
        <time>2021-09-30T14:46:16Z</time>
      </trkpt>
      <trkpt lat="44.18918" lon="3.20659">
        <ele>426</ele>
        <time>2021-09-30T14:46:17Z</time>
      </trkpt>
      <trkpt lat="44.18921" lon="3.20658">
        <ele>424.7</ele>
        <time>2021-09-30T14:46:18Z</time>
      </trkpt>
      <trkpt lat="44.18924" lon="3.20657">
        <ele>423.8</ele>
        <time>2021-09-30T14:46:20Z</time>
      </trkpt>
      <trkpt lat="44.18926" lon="3.20656">
        <ele>423</ele>
        <time>2021-09-30T14:46:21Z</time>
      </trkpt>
      <trkpt lat="44.18928" lon="3.20655">
        <ele>422.1</ele>
        <time>2021-09-30T14:46:23Z</time>
      </trkpt>
      <trkpt lat="44.18927" lon="3.20658">
        <ele>421.1</ele>
        <time>2021-09-30T14:46:24Z</time>
      </trkpt>
      <trkpt lat="44.18926" lon="3.20661">
        <ele>420.5</ele>
        <time>2021-09-30T14:46:25Z</time>
      </trkpt>
      <trkpt lat="44.18926" lon="3.20663">
        <ele>419.9</ele>
        <time>2021-09-30T14:46:26Z</time>
      </trkpt>
      <trkpt lat="44.18926" lon="3.20666">
        <ele>419.3</ele>
        <time>2021-09-30T14:46:28Z</time>
      </trkpt>
      <trkpt lat="44.18926" lon="3.20668">
        <ele>418.7</ele>
        <time>2021-09-30T14:46:29Z</time>
      </trkpt>
      <trkpt lat="44.18926" lon="3.20671">
        <ele>418.2</ele>
        <time>2021-09-30T14:46:31Z</time>
      </trkpt>
      <trkpt lat="44.18926" lon="3.20673">
        <ele>417.6</ele>
        <time>2021-09-30T14:46:33Z</time>
      </trkpt>
      <trkpt lat="44.18926" lon="3.20676">
        <ele>417</ele>
        <time>2021-09-30T14:48:23Z</time>
      </trkpt>
      <trkpt lat="44.18926" lon="3.20678">
        <ele>416.5</ele>
        <time>2021-09-30T14:48:24Z</time>
      </trkpt>
      <trkpt lat="44.18924" lon="3.20683">
        <ele>415.3</ele>
        <time>2021-09-30T14:48:26Z</time>
      </trkpt>
      <trkpt lat="44.18923" lon="3.20686">
        <ele>414.4</ele>
        <time>2021-09-30T14:48:27Z</time>
      </trkpt>
      <trkpt lat="44.1892" lon="3.2069">
        <ele>414.7</ele>
        <time>2021-09-30T14:48:29Z</time>
      </trkpt>
      <trkpt lat="44.18919" lon="3.20692">
        <ele>414.8</ele>
        <time>2021-09-30T14:48:30Z</time>
      </trkpt>
      <trkpt lat="44.18916" lon="3.20697">
        <ele>415.1</ele>
        <time>2021-09-30T14:48:32Z</time>
      </trkpt>
      <trkpt lat="44.18914" lon="3.20702">
        <ele>415.2</ele>
        <time>2021-09-30T14:48:33Z</time>
      </trkpt>
      <trkpt lat="44.18912" lon="3.20708">
        <ele>415.3</ele>
        <time>2021-09-30T14:48:35Z</time>
      </trkpt>
      <trkpt lat="44.18912" lon="3.20715">
        <ele>415.5</ele>
        <time>2021-09-30T14:48:37Z</time>
      </trkpt>
      <trkpt lat="44.18911" lon="3.20721">
        <ele>415.8</ele>
        <time>2021-09-30T14:48:38Z</time>
      </trkpt>
      <trkpt lat="44.1891" lon="3.20727">
        <ele>416.2</ele>
        <time>2021-09-30T14:48:39Z</time>
      </trkpt>
      <trkpt lat="44.18909" lon="3.2073">
        <ele>416.5</ele>
        <time>2021-09-30T14:48:40Z</time>
      </trkpt>
      <trkpt lat="44.18907" lon="3.20733">
        <ele>417</ele>
        <time>2021-09-30T14:48:42Z</time>
      </trkpt>
      <trkpt lat="44.18905" lon="3.20737">
        <ele>417.5</ele>
        <time>2021-09-30T14:48:43Z</time>
      </trkpt>
      <trkpt lat="44.18904" lon="3.2074">
        <ele>417.8</ele>
        <time>2021-09-30T14:48:45Z</time>
      </trkpt>
      <trkpt lat="44.18901" lon="3.20745">
        <ele>417.8</ele>
        <time>2021-09-30T14:48:47Z</time>
      </trkpt>
      <trkpt lat="44.189" lon="3.20749">
        <ele>417.8</ele>
        <time>2021-09-30T14:48:48Z</time>
      </trkpt>
      <trkpt lat="44.18897" lon="3.20754">
        <ele>417.6</ele>
        <time>2021-09-30T14:48:50Z</time>
      </trkpt>
      <trkpt lat="44.18896" lon="3.20757">
        <ele>417.6</ele>
        <time>2021-09-30T14:48:51Z</time>
      </trkpt>
      <trkpt lat="44.18893" lon="3.20762">
        <ele>417.5</ele>
        <time>2021-09-30T14:48:53Z</time>
      </trkpt>
      <trkpt lat="44.18892" lon="3.20766">
        <ele>417.4</ele>
        <time>2021-09-30T14:48:54Z</time>
      </trkpt>
      <trkpt lat="44.18891" lon="3.20768">
        <ele>417.4</ele>
        <time>2021-09-30T14:48:55Z</time>
      </trkpt>
      <trkpt lat="44.18891" lon="3.2077">
        <ele>417.3</ele>
        <time>2021-09-30T14:48:56Z</time>
      </trkpt>
      <trkpt lat="44.18891" lon="3.20776">
        <ele>417.9</ele>
        <time>2021-09-30T14:48:58Z</time>
      </trkpt>
      <trkpt lat="44.1889" lon="3.20779">
        <ele>418.2</ele>
        <time>2021-09-30T14:48:59Z</time>
      </trkpt>
      <trkpt lat="44.1889" lon="3.20781">
        <ele>418.5</ele>
        <time>2021-09-30T14:49:00Z</time>
      </trkpt>
      <trkpt lat="44.1889" lon="3.20785">
        <ele>418.8</ele>
        <time>2021-09-30T14:49:02Z</time>
      </trkpt>
      <trkpt lat="44.18891" lon="3.20784">
        <ele>418.9</ele>
        <time>2021-09-30T14:49:04Z</time>
      </trkpt>
      <trkpt lat="44.18891" lon="3.20783">
        <ele>419.1</ele>
        <time>2021-09-30T14:49:06Z</time>
      </trkpt>
      <trkpt lat="44.18892" lon="3.20783">
        <ele>419.2</ele>
        <time>2021-09-30T14:49:07Z</time>
      </trkpt>
      <trkpt lat="44.1889" lon="3.20789">
        <ele>420</ele>
        <time>2021-09-30T14:49:09Z</time>
      </trkpt>
      <trkpt lat="44.18885" lon="3.20795">
        <ele>420.9</ele>
        <time>2021-09-30T14:49:11Z</time>
      </trkpt>
      <trkpt lat="44.18883" lon="3.20798">
        <ele>421.4</ele>
        <time>2021-09-30T14:49:12Z</time>
      </trkpt>
      <trkpt lat="44.18881" lon="3.20802">
        <ele>421.9</ele>
        <time>2021-09-30T14:49:13Z</time>
      </trkpt>
      <trkpt lat="44.18877" lon="3.20807">
        <ele>422.7</ele>
        <time>2021-09-30T14:49:15Z</time>
      </trkpt>
      <trkpt lat="44.18875" lon="3.20811">
        <ele>423.3</ele>
        <time>2021-09-30T14:49:16Z</time>
      </trkpt>
      <trkpt lat="44.18872" lon="3.20818">
        <ele>424.3</ele>
        <time>2021-09-30T14:49:18Z</time>
      </trkpt>
      <trkpt lat="44.18871" lon="3.20824">
        <ele>425</ele>
        <time>2021-09-30T14:49:19Z</time>
      </trkpt>
      <trkpt lat="44.18871" lon="3.20831">
        <ele>425.8</ele>
        <time>2021-09-30T14:49:20Z</time>
      </trkpt>
      <trkpt lat="44.18872" lon="3.2084">
        <ele>427</ele>
        <time>2021-09-30T14:49:21Z</time>
      </trkpt>
      <trkpt lat="44.18877" lon="3.20849">
        <ele>428.4</ele>
        <time>2021-09-30T14:49:23Z</time>
      </trkpt>
      <trkpt lat="44.1888" lon="3.20855">
        <ele>430.4</ele>
        <time>2021-09-30T14:49:24Z</time>
      </trkpt>
      <trkpt lat="44.18885" lon="3.20865">
        <ele>430.6</ele>
        <time>2021-09-30T14:49:26Z</time>
      </trkpt>
      <trkpt lat="44.18889" lon="3.20872">
        <ele>430.8</ele>
        <time>2021-09-30T14:49:28Z</time>
      </trkpt>
      <trkpt lat="44.18891" lon="3.20876">
        <ele>430.9</ele>
        <time>2021-09-30T14:49:29Z</time>
      </trkpt>
      <trkpt lat="44.18892" lon="3.2088">
        <ele>431</ele>
        <time>2021-09-30T14:49:30Z</time>
      </trkpt>
      <trkpt lat="44.18893" lon="3.20884">
        <ele>431.1</ele>
        <time>2021-09-30T14:49:31Z</time>
      </trkpt>
      <trkpt lat="44.18895" lon="3.20889">
        <ele>431.2</ele>
        <time>2021-09-30T14:49:32Z</time>
      </trkpt>
      <trkpt lat="44.18896" lon="3.20898">
        <ele>431.3</ele>
        <time>2021-09-30T14:49:34Z</time>
      </trkpt>
      <trkpt lat="44.18896" lon="3.20903">
        <ele>431.3</ele>
        <time>2021-09-30T14:49:35Z</time>
      </trkpt>
      <trkpt lat="44.18895" lon="3.20908">
        <ele>431.2</ele>
        <time>2021-09-30T14:49:36Z</time>
      </trkpt>
      <trkpt lat="44.18893" lon="3.20917">
        <ele>431.1</ele>
        <time>2021-09-30T14:49:38Z</time>
      </trkpt>
      <trkpt lat="44.1889" lon="3.20922">
        <ele>431.3</ele>
        <time>2021-09-30T14:49:39Z</time>
      </trkpt>
      <trkpt lat="44.18887" lon="3.20927">
        <ele>431.5</ele>
        <time>2021-09-30T14:49:40Z</time>
      </trkpt>
      <trkpt lat="44.18884" lon="3.2093">
        <ele>431.6</ele>
        <time>2021-09-30T14:49:41Z</time>
      </trkpt>
      <trkpt lat="44.18881" lon="3.20932">
        <ele>431.7</ele>
        <time>2021-09-30T14:49:43Z</time>
      </trkpt>
      <trkpt lat="44.18876" lon="3.20931">
        <ele>431.9</ele>
        <time>2021-09-30T14:49:44Z</time>
      </trkpt>
      <trkpt lat="44.18872" lon="3.20928">
        <ele>432.1</ele>
        <time>2021-09-30T14:49:45Z</time>
      </trkpt>
      <trkpt lat="44.18868" lon="3.20925">
        <ele>432.3</ele>
        <time>2021-09-30T14:49:46Z</time>
      </trkpt>
      <trkpt lat="44.18861" lon="3.20915">
        <ele>432.8</ele>
        <time>2021-09-30T14:49:48Z</time>
      </trkpt>
      <trkpt lat="44.18856" lon="3.20906">
        <ele>433.3</ele>
        <time>2021-09-30T14:49:50Z</time>
      </trkpt>
      <trkpt lat="44.18853" lon="3.20901">
        <ele>433.6</ele>
        <time>2021-09-30T14:49:51Z</time>
      </trkpt>
      <trkpt lat="44.18851" lon="3.20896">
        <ele>433.9</ele>
        <time>2021-09-30T14:49:52Z</time>
      </trkpt>
      <trkpt lat="44.18849" lon="3.2089">
        <ele>434.2</ele>
        <time>2021-09-30T14:49:53Z</time>
      </trkpt>
      <trkpt lat="44.18847" lon="3.20884">
        <ele>434.3</ele>
        <time>2021-09-30T14:49:54Z</time>
      </trkpt>
      <trkpt lat="44.18846" lon="3.20875">
        <ele>434.3</ele>
        <time>2021-09-30T14:49:55Z</time>
      </trkpt>
      <trkpt lat="44.18845" lon="3.20869">
        <ele>434.3</ele>
        <time>2021-09-30T14:49:56Z</time>
      </trkpt>
      <trkpt lat="44.18843" lon="3.20861">
        <ele>434.3</ele>
        <time>2021-09-30T14:49:58Z</time>
      </trkpt>
      <trkpt lat="44.18842" lon="3.20851">
        <ele>434.4</ele>
        <time>2021-09-30T14:50:00Z</time>
      </trkpt>
      <trkpt lat="44.18842" lon="3.20845">
        <ele>434.4</ele>
        <time>2021-09-30T14:50:01Z</time>
      </trkpt>
      <trkpt lat="44.18841" lon="3.20839">
        <ele>434.5</ele>
        <time>2021-09-30T14:50:02Z</time>
      </trkpt>
      <trkpt lat="44.18841" lon="3.20831">
        <ele>434.7</ele>
        <time>2021-09-30T14:50:03Z</time>
      </trkpt>
      <trkpt lat="44.18841" lon="3.20824">
        <ele>434.8</ele>
        <time>2021-09-30T14:50:05Z</time>
      </trkpt>
      <trkpt lat="44.18841" lon="3.20815">
        <ele>435.1</ele>
        <time>2021-09-30T14:50:07Z</time>
      </trkpt>
      <trkpt lat="44.18842" lon="3.20811">
        <ele>435.2</ele>
        <time>2021-09-30T14:50:08Z</time>
      </trkpt>
      <trkpt lat="44.18843" lon="3.20806">
        <ele>434.6</ele>
        <time>2021-09-30T14:50:10Z</time>
      </trkpt>
      <trkpt lat="44.18843" lon="3.20805">
        <ele>434.1</ele>
        <time>2021-09-30T14:50:11Z</time>
      </trkpt>
      <trkpt lat="44.18844" lon="3.20801">
        <ele>432.8</ele>
        <time>2021-09-30T14:50:12Z</time>
      </trkpt>
      <trkpt lat="44.18844" lon="3.20796">
        <ele>431.4</ele>
        <time>2021-09-30T14:50:13Z</time>
      </trkpt>
      <trkpt lat="44.18845" lon="3.20791">
        <ele>429.6</ele>
        <time>2021-09-30T14:50:15Z</time>
      </trkpt>
      <trkpt lat="44.18846" lon="3.20785">
        <ele>427.7</ele>
        <time>2021-09-30T14:50:17Z</time>
      </trkpt>
      <trkpt lat="44.18848" lon="3.2078">
        <ele>428.2</ele>
        <time>2021-09-30T14:50:18Z</time>
      </trkpt>
      <trkpt lat="44.18848" lon="3.20779">
        <ele>428.6</ele>
        <time>2021-09-30T14:50:19Z</time>
      </trkpt>
      <trkpt lat="44.1885" lon="3.20775">
        <ele>429.5</ele>
        <time>2021-09-30T14:50:20Z</time>
      </trkpt>
      <trkpt lat="44.18854" lon="3.2077">
        <ele>431.1</ele>
        <time>2021-09-30T14:50:21Z</time>
      </trkpt>
      <trkpt lat="44.18857" lon="3.20765">
        <ele>432.7</ele>
        <time>2021-09-30T14:50:23Z</time>
      </trkpt>
      <trkpt lat="44.1886" lon="3.20762">
        <ele>433.8</ele>
        <time>2021-09-30T14:50:24Z</time>
      </trkpt>
      <trkpt lat="44.18863" lon="3.20759">
        <ele>435.1</ele>
        <time>2021-09-30T14:50:25Z</time>
      </trkpt>
      <trkpt lat="44.18869" lon="3.20751">
        <ele>437.7</ele>
        <time>2021-09-30T14:50:28Z</time>
      </trkpt>
      <trkpt lat="44.18872" lon="3.20747">
        <ele>438.1</ele>
        <time>2021-09-30T14:50:29Z</time>
      </trkpt>
      <trkpt lat="44.18875" lon="3.20743">
        <ele>438.2</ele>
        <time>2021-09-30T14:50:31Z</time>
      </trkpt>
      <trkpt lat="44.18876" lon="3.20741">
        <ele>438.2</ele>
        <time>2021-09-30T14:50:32Z</time>
      </trkpt>
      <trkpt lat="44.18879" lon="3.20736">
        <ele>438.6</ele>
        <time>2021-09-30T14:50:34Z</time>
      </trkpt>
      <trkpt lat="44.18881" lon="3.20733">
        <ele>439.4</ele>
        <time>2021-09-30T14:50:35Z</time>
      </trkpt>
      <trkpt lat="44.18884" lon="3.2073">
        <ele>439.2</ele>
        <time>2021-09-30T14:50:36Z</time>
      </trkpt>
      <trkpt lat="44.18886" lon="3.20724">
        <ele>436.4</ele>
        <time>2021-09-30T14:50:37Z</time>
      </trkpt>
      <trkpt lat="44.18886" lon="3.20722">
        <ele>435.2</ele>
        <time>2021-09-30T14:50:38Z</time>
      </trkpt>
      <trkpt lat="44.18888" lon="3.20716">
        <ele>432.5</ele>
        <time>2021-09-30T14:50:40Z</time>
      </trkpt>
      <trkpt lat="44.18889" lon="3.20712">
        <ele>430.6</ele>
        <time>2021-09-30T14:50:41Z</time>
      </trkpt>
      <trkpt lat="44.18889" lon="3.20711">
        <ele>430</ele>
        <time>2021-09-30T14:50:42Z</time>
      </trkpt>
      <trkpt lat="44.18888" lon="3.20708">
        <ele>428.4</ele>
        <time>2021-09-30T14:50:43Z</time>
      </trkpt>
      <trkpt lat="44.18888" lon="3.20702">
        <ele>425.7</ele>
        <time>2021-09-30T14:50:45Z</time>
      </trkpt>
      <trkpt lat="44.18889" lon="3.20695">
        <ele>422.5</ele>
        <time>2021-09-30T14:50:47Z</time>
      </trkpt>
      <trkpt lat="44.18889" lon="3.2069">
        <ele>425.6</ele>
        <time>2021-09-30T14:50:48Z</time>
      </trkpt>
      <trkpt lat="44.18889" lon="3.20686">
        <ele>427.9</ele>
        <time>2021-09-30T14:50:49Z</time>
      </trkpt>
      <trkpt lat="44.18889" lon="3.20677">
        <ele>432.4</ele>
        <time>2021-09-30T14:50:51Z</time>
      </trkpt>
      <trkpt lat="44.18888" lon="3.20673">
        <ele>435</ele>
        <time>2021-09-30T14:50:52Z</time>
      </trkpt>
      <trkpt lat="44.18887" lon="3.20668">
        <ele>437.5</ele>
        <time>2021-09-30T14:50:53Z</time>
      </trkpt>
      <trkpt lat="44.18886" lon="3.20659">
        <ele>442.4</ele>
        <time>2021-09-30T14:50:55Z</time>
      </trkpt>
      <trkpt lat="44.18884" lon="3.20654">
        <ele>444.2</ele>
        <time>2021-09-30T14:50:56Z</time>
      </trkpt>
      <trkpt lat="44.1888" lon="3.20646">
        <ele>443.6</ele>
        <time>2021-09-30T14:50:57Z</time>
      </trkpt>
      <trkpt lat="44.18878" lon="3.20643">
        <ele>443.4</ele>
        <time>2021-09-30T14:50:58Z</time>
      </trkpt>
      <trkpt lat="44.18875" lon="3.2064">
        <ele>443</ele>
        <time>2021-09-30T14:51:00Z</time>
      </trkpt>
      <trkpt lat="44.18874" lon="3.20641">
        <ele>443</ele>
        <time>2021-09-30T14:51:01Z</time>
      </trkpt>
      <trkpt lat="44.18874" lon="3.20641">
        <ele>442.9</ele>
        <time>2021-09-30T14:51:02Z</time>
      </trkpt>
      <trkpt lat="44.18874" lon="3.2064">
        <ele>442.9</ele>
        <time>2021-09-30T14:51:04Z</time>
      </trkpt>
      <trkpt lat="44.18873" lon="3.2064">
        <ele>442.8</ele>
        <time>2021-09-30T14:51:05Z</time>
      </trkpt>
      <trkpt lat="44.18873" lon="3.2064">
        <ele>442.8</ele>
        <time>2021-09-30T14:51:07Z</time>
      </trkpt>
      <trkpt lat="44.18873" lon="3.2064">
        <ele>442.7</ele>
        <time>2021-09-30T14:51:08Z</time>
      </trkpt>
      <trkpt lat="44.18874" lon="3.2064">
        <ele>442.7</ele>
        <time>2021-09-30T14:51:10Z</time>
      </trkpt>
      <trkpt lat="44.18874" lon="3.2064">
        <ele>442.7</ele>
        <time>2021-09-30T14:51:13Z</time>
      </trkpt>
      <trkpt lat="44.18872" lon="3.20637">
        <ele>442.4</ele>
        <time>2021-09-30T14:51:15Z</time>
      </trkpt>
      <trkpt lat="44.18871" lon="3.20632">
        <ele>442.1</ele>
        <time>2021-09-30T14:51:16Z</time>
      </trkpt>
      <trkpt lat="44.18861" lon="3.20619">
        <ele>440.7</ele>
        <time>2021-09-30T14:51:18Z</time>
      </trkpt>
      <trkpt lat="44.1885" lon="3.20608">
        <ele>439.5</ele>
        <time>2021-09-30T14:51:20Z</time>
      </trkpt>
      <trkpt lat="44.1884" lon="3.20597">
        <ele>438.6</ele>
        <time>2021-09-30T14:51:22Z</time>
      </trkpt>
      <trkpt lat="44.18828" lon="3.20586">
        <ele>437.9</ele>
        <time>2021-09-30T14:51:24Z</time>
      </trkpt>
      <trkpt lat="44.18818" lon="3.20577">
        <ele>438.6</ele>
        <time>2021-09-30T14:51:26Z</time>
      </trkpt>
      <trkpt lat="44.18814" lon="3.20573">
        <ele>438.9</ele>
        <time>2021-09-30T14:51:27Z</time>
      </trkpt>
      <trkpt lat="44.18813" lon="3.20569">
        <ele>439.2</ele>
        <time>2021-09-30T14:51:28Z</time>
      </trkpt>
      <trkpt lat="44.18811" lon="3.20565">
        <ele>439.4</ele>
        <time>2021-09-30T14:51:30Z</time>
      </trkpt>
      <trkpt lat="44.18808" lon="3.20562">
        <ele>439.7</ele>
        <time>2021-09-30T14:51:31Z</time>
      </trkpt>
      <trkpt lat="44.18804" lon="3.20555">
        <ele>440.3</ele>
        <time>2021-09-30T14:51:33Z</time>
      </trkpt>
      <trkpt lat="44.18799" lon="3.20551">
        <ele>440.7</ele>
        <time>2021-09-30T14:51:35Z</time>
      </trkpt>
      <trkpt lat="44.18797" lon="3.20548">
        <ele>440.9</ele>
        <time>2021-09-30T14:51:36Z</time>
      </trkpt>
      <trkpt lat="44.18793" lon="3.20544">
        <ele>441.4</ele>
        <time>2021-09-30T14:51:38Z</time>
      </trkpt>
      <trkpt lat="44.1879" lon="3.20542">
        <ele>441.6</ele>
        <time>2021-09-30T14:51:39Z</time>
      </trkpt>
      <trkpt lat="44.18788" lon="3.2054">
        <ele>441.8</ele>
        <time>2021-09-30T14:51:40Z</time>
      </trkpt>
      <trkpt lat="44.18785" lon="3.20537">
        <ele>442.1</ele>
        <time>2021-09-30T14:51:41Z</time>
      </trkpt>
      <trkpt lat="44.18781" lon="3.20534">
        <ele>442.5</ele>
        <time>2021-09-30T14:51:43Z</time>
      </trkpt>
      <trkpt lat="44.18776" lon="3.20531">
        <ele>442.9</ele>
        <time>2021-09-30T14:51:45Z</time>
      </trkpt>
      <trkpt lat="44.18771" lon="3.20528">
        <ele>443.3</ele>
        <time>2021-09-30T14:51:47Z</time>
      </trkpt>
      <trkpt lat="44.18765" lon="3.20526">
        <ele>443.7</ele>
        <time>2021-09-30T14:51:49Z</time>
      </trkpt>
      <trkpt lat="44.18763" lon="3.20525">
        <ele>443.9</ele>
        <time>2021-09-30T14:51:50Z</time>
      </trkpt>
      <trkpt lat="44.18757" lon="3.20522">
        <ele>444.3</ele>
        <time>2021-09-30T14:51:52Z</time>
      </trkpt>
      <trkpt lat="44.18752" lon="3.20521">
        <ele>444.7</ele>
        <time>2021-09-30T14:51:54Z</time>
      </trkpt>
      <trkpt lat="44.18748" lon="3.2052">
        <ele>444.9</ele>
        <time>2021-09-30T14:51:55Z</time>
      </trkpt>
      <trkpt lat="44.18747" lon="3.2052">
        <ele>445</ele>
        <time>2021-09-30T14:51:56Z</time>
      </trkpt>
      <trkpt lat="44.18742" lon="3.20518">
        <ele>445.3</ele>
        <time>2021-09-30T14:51:58Z</time>
      </trkpt>
      <trkpt lat="44.18737" lon="3.20517">
        <ele>445.7</ele>
        <time>2021-09-30T14:52:00Z</time>
      </trkpt>
      <trkpt lat="44.18731" lon="3.20516">
        <ele>446.1</ele>
        <time>2021-09-30T14:52:02Z</time>
      </trkpt>
      <trkpt lat="44.18727" lon="3.20515">
        <ele>446.4</ele>
        <time>2021-09-30T14:52:04Z</time>
      </trkpt>
      <trkpt lat="44.18724" lon="3.20514">
        <ele>446.7</ele>
        <time>2021-09-30T14:52:05Z</time>
      </trkpt>
      <trkpt lat="44.18719" lon="3.20512">
        <ele>447</ele>
        <time>2021-09-30T14:52:07Z</time>
      </trkpt>
      <trkpt lat="44.18716" lon="3.20511">
        <ele>447.3</ele>
        <time>2021-09-30T14:52:08Z</time>
      </trkpt>
      <trkpt lat="44.18712" lon="3.20509">
        <ele>447.6</ele>
        <time>2021-09-30T14:52:10Z</time>
      </trkpt>
      <trkpt lat="44.18707" lon="3.20507">
        <ele>448</ele>
        <time>2021-09-30T14:52:12Z</time>
      </trkpt>
      <trkpt lat="44.18702" lon="3.20504">
        <ele>448.5</ele>
        <time>2021-09-30T14:52:14Z</time>
      </trkpt>
      <trkpt lat="44.18698" lon="3.20501">
        <ele>448.9</ele>
        <time>2021-09-30T14:52:16Z</time>
      </trkpt>
      <trkpt lat="44.18694" lon="3.20499">
        <ele>449.1</ele>
        <time>2021-09-30T14:52:17Z</time>
      </trkpt>
      <trkpt lat="44.18693" lon="3.20498">
        <ele>449.2</ele>
        <time>2021-09-30T14:52:18Z</time>
      </trkpt>
      <trkpt lat="44.1869" lon="3.20495">
        <ele>449.6</ele>
        <time>2021-09-30T14:52:19Z</time>
      </trkpt>
      <trkpt lat="44.18688" lon="3.20494">
        <ele>449.7</ele>
        <time>2021-09-30T14:52:20Z</time>
      </trkpt>
      <trkpt lat="44.18684" lon="3.20492">
        <ele>450</ele>
        <time>2021-09-30T14:52:22Z</time>
      </trkpt>
      <trkpt lat="44.18681" lon="3.2049">
        <ele>450.2</ele>
        <time>2021-09-30T14:52:23Z</time>
      </trkpt>
      <trkpt lat="44.18678" lon="3.20487">
        <ele>450.5</ele>
        <time>2021-09-30T14:52:25Z</time>
      </trkpt>
      <trkpt lat="44.18674" lon="3.20484">
        <ele>450.8</ele>
        <time>2021-09-30T14:52:26Z</time>
      </trkpt>
      <trkpt lat="44.18672" lon="3.20482">
        <ele>451</ele>
        <time>2021-09-30T14:52:27Z</time>
      </trkpt>
      <trkpt lat="44.18668" lon="3.2048">
        <ele>451.3</ele>
        <time>2021-09-30T14:52:29Z</time>
      </trkpt>
      <trkpt lat="44.18666" lon="3.20476">
        <ele>451.5</ele>
        <time>2021-09-30T14:52:30Z</time>
      </trkpt>
      <trkpt lat="44.18663" lon="3.20473">
        <ele>451.8</ele>
        <time>2021-09-30T14:52:31Z</time>
      </trkpt>
      <trkpt lat="44.1866" lon="3.2047">
        <ele>452.1</ele>
        <time>2021-09-30T14:52:33Z</time>
      </trkpt>
      <trkpt lat="44.18657" lon="3.20466">
        <ele>452.4</ele>
        <time>2021-09-30T14:52:34Z</time>
      </trkpt>
      <trkpt lat="44.18654" lon="3.20461">
        <ele>452.7</ele>
        <time>2021-09-30T14:52:36Z</time>
      </trkpt>
      <trkpt lat="44.18652" lon="3.20458">
        <ele>453</ele>
        <time>2021-09-30T14:52:37Z</time>
      </trkpt>
      <trkpt lat="44.1865" lon="3.20454">
        <ele>453.2</ele>
        <time>2021-09-30T14:52:38Z</time>
      </trkpt>
      <trkpt lat="44.18647" lon="3.2045">
        <ele>453.6</ele>
        <time>2021-09-30T14:52:40Z</time>
      </trkpt>
      <trkpt lat="44.18645" lon="3.20447">
        <ele>453.8</ele>
        <time>2021-09-30T14:52:41Z</time>
      </trkpt>
      <trkpt lat="44.18644" lon="3.20443">
        <ele>454.1</ele>
        <time>2021-09-30T14:52:42Z</time>
      </trkpt>
      <trkpt lat="44.18641" lon="3.20437">
        <ele>454.5</ele>
        <time>2021-09-30T14:52:44Z</time>
      </trkpt>
      <trkpt lat="44.18639" lon="3.20432">
        <ele>454.9</ele>
        <time>2021-09-30T14:52:45Z</time>
      </trkpt>
      <trkpt lat="44.18639" lon="3.2043">
        <ele>455</ele>
        <time>2021-09-30T14:52:46Z</time>
      </trkpt>
      <trkpt lat="44.18636" lon="3.20425">
        <ele>455.4</ele>
        <time>2021-09-30T14:52:48Z</time>
      </trkpt>
      <trkpt lat="44.18635" lon="3.20423">
        <ele>455.6</ele>
        <time>2021-09-30T14:52:49Z</time>
      </trkpt>
      <trkpt lat="44.18633" lon="3.20418">
        <ele>455.9</ele>
        <time>2021-09-30T14:52:51Z</time>
      </trkpt>
      <trkpt lat="44.1863" lon="3.20415">
        <ele>456.2</ele>
        <time>2021-09-30T14:52:52Z</time>
      </trkpt>
      <trkpt lat="44.18629" lon="3.20414">
        <ele>456.3</ele>
        <time>2021-09-30T14:52:53Z</time>
      </trkpt>
      <trkpt lat="44.18627" lon="3.20412">
        <ele>456.5</ele>
        <time>2021-09-30T14:52:55Z</time>
      </trkpt>
      <trkpt lat="44.18624" lon="3.20408">
        <ele>456.9</ele>
        <time>2021-09-30T14:52:57Z</time>
      </trkpt>
      <trkpt lat="44.18621" lon="3.20405">
        <ele>457.2</ele>
        <time>2021-09-30T14:52:58Z</time>
      </trkpt>
      <trkpt lat="44.18619" lon="3.20402">
        <ele>457.4</ele>
        <time>2021-09-30T14:53:00Z</time>
      </trkpt>
      <trkpt lat="44.18617" lon="3.20399">
        <ele>457.6</ele>
        <time>2021-09-30T14:53:01Z</time>
      </trkpt>
      <trkpt lat="44.18614" lon="3.20395">
        <ele>458</ele>
        <time>2021-09-30T14:53:03Z</time>
      </trkpt>
      <trkpt lat="44.1861" lon="3.20392">
        <ele>458.4</ele>
        <time>2021-09-30T14:53:05Z</time>
      </trkpt>
      <trkpt lat="44.18607" lon="3.20388">
        <ele>458.7</ele>
        <time>2021-09-30T14:53:07Z</time>
      </trkpt>
      <trkpt lat="44.18604" lon="3.20384">
        <ele>459.1</ele>
        <time>2021-09-30T14:53:09Z</time>
      </trkpt>
      <trkpt lat="44.18601" lon="3.2038">
        <ele>459.4</ele>
        <time>2021-09-30T14:53:11Z</time>
      </trkpt>
      <trkpt lat="44.18599" lon="3.20377">
        <ele>459.7</ele>
        <time>2021-09-30T14:53:12Z</time>
      </trkpt>
      <trkpt lat="44.18598" lon="3.20375">
        <ele>459.8</ele>
        <time>2021-09-30T14:53:13Z</time>
      </trkpt>
      <trkpt lat="44.18595" lon="3.20371">
        <ele>460.1</ele>
        <time>2021-09-30T14:53:15Z</time>
      </trkpt>
      <trkpt lat="44.18592" lon="3.20368">
        <ele>460.5</ele>
        <time>2021-09-30T14:53:17Z</time>
      </trkpt>
      <trkpt lat="44.18588" lon="3.20364">
        <ele>460.9</ele>
        <time>2021-09-30T14:53:19Z</time>
      </trkpt>
      <trkpt lat="44.18586" lon="3.20363">
        <ele>461.1</ele>
        <time>2021-09-30T14:53:20Z</time>
      </trkpt>
      <trkpt lat="44.18585" lon="3.20361">
        <ele>461.2</ele>
        <time>2021-09-30T14:53:21Z</time>
      </trkpt>
      <trkpt lat="44.18582" lon="3.20359">
        <ele>461.5</ele>
        <time>2021-09-30T14:53:23Z</time>
      </trkpt>
      <trkpt lat="44.18579" lon="3.20356">
        <ele>461.8</ele>
        <time>2021-09-30T14:53:25Z</time>
      </trkpt>
      <trkpt lat="44.18576" lon="3.20354">
        <ele>462.1</ele>
        <time>2021-09-30T14:53:26Z</time>
      </trkpt>
      <trkpt lat="44.18575" lon="3.20354">
        <ele>462.4</ele>
        <time>2021-09-30T14:53:27Z</time>
      </trkpt>
      <trkpt lat="44.18573" lon="3.20353">
        <ele>462.5</ele>
        <time>2021-09-30T14:53:28Z</time>
      </trkpt>
      <trkpt lat="44.18569" lon="3.20353">
        <ele>462.7</ele>
        <time>2021-09-30T14:53:30Z</time>
      </trkpt>
      <trkpt lat="44.18568" lon="3.20354">
        <ele>462.9</ele>
        <time>2021-09-30T14:53:31Z</time>
      </trkpt>
      <trkpt lat="44.18565" lon="3.20358">
        <ele>463.1</ele>
        <time>2021-09-30T14:53:33Z</time>
      </trkpt>
      <trkpt lat="44.18563" lon="3.20362">
        <ele>463.4</ele>
        <time>2021-09-30T14:53:35Z</time>
      </trkpt>
      <trkpt lat="44.18562" lon="3.20368">
        <ele>463.6</ele>
        <time>2021-09-30T14:53:37Z</time>
      </trkpt>
      <trkpt lat="44.18562" lon="3.2037">
        <ele>463.7</ele>
        <time>2021-09-30T14:53:38Z</time>
      </trkpt>
      <trkpt lat="44.18562" lon="3.20371">
        <ele>463.8</ele>
        <time>2021-09-30T14:53:39Z</time>
      </trkpt>
      <trkpt lat="44.18562" lon="3.20374">
        <ele>463.9</ele>
        <time>2021-09-30T14:53:40Z</time>
      </trkpt>
      <trkpt lat="44.18568" lon="3.2038">
        <ele>464.3</ele>
        <time>2021-09-30T14:53:42Z</time>
      </trkpt>
      <trkpt lat="44.18569" lon="3.20382">
        <ele>464.4</ele>
        <time>2021-09-30T14:53:43Z</time>
      </trkpt>
      <trkpt lat="44.18573" lon="3.20387">
        <ele>464.7</ele>
        <time>2021-09-30T14:53:45Z</time>
      </trkpt>
      <trkpt lat="44.18575" lon="3.2039">
        <ele>464.9</ele>
        <time>2021-09-30T14:53:46Z</time>
      </trkpt>
      <trkpt lat="44.18578" lon="3.20394">
        <ele>465.1</ele>
        <time>2021-09-30T14:53:48Z</time>
      </trkpt>
      <trkpt lat="44.18581" lon="3.20398">
        <ele>465.4</ele>
        <time>2021-09-30T14:53:49Z</time>
      </trkpt>
      <trkpt lat="44.18582" lon="3.204">
        <ele>465.4</ele>
        <time>2021-09-30T14:53:50Z</time>
      </trkpt>
      <trkpt lat="44.18583" lon="3.20404">
        <ele>465.6</ele>
        <time>2021-09-30T14:53:52Z</time>
      </trkpt>
      <trkpt lat="44.18586" lon="3.2041">
        <ele>465.9</ele>
        <time>2021-09-30T14:53:54Z</time>
      </trkpt>
      <trkpt lat="44.18586" lon="3.20412">
        <ele>466</ele>
        <time>2021-09-30T14:53:55Z</time>
      </trkpt>
      <trkpt lat="44.18588" lon="3.20418">
        <ele>466.2</ele>
        <time>2021-09-30T14:53:57Z</time>
      </trkpt>
      <trkpt lat="44.18589" lon="3.20424">
        <ele>466.5</ele>
        <time>2021-09-30T14:53:59Z</time>
      </trkpt>
      <trkpt lat="44.18589" lon="3.20429">
        <ele>466.7</ele>
        <time>2021-09-30T14:54:01Z</time>
      </trkpt>
      <trkpt lat="44.18589" lon="3.20432">
        <ele>466.8</ele>
        <time>2021-09-30T14:54:02Z</time>
      </trkpt>
      <trkpt lat="44.18589" lon="3.20436">
        <ele>467</ele>
        <time>2021-09-30T14:54:04Z</time>
      </trkpt>
      <trkpt lat="44.18589" lon="3.2044">
        <ele>467.2</ele>
        <time>2021-09-30T14:54:05Z</time>
      </trkpt>
      <trkpt lat="44.1859" lon="3.20445">
        <ele>467.4</ele>
        <time>2021-09-30T14:54:07Z</time>
      </trkpt>
      <trkpt lat="44.18591" lon="3.20451">
        <ele>467.7</ele>
        <time>2021-09-30T14:54:09Z</time>
      </trkpt>
      <trkpt lat="44.18592" lon="3.20454">
        <ele>467.8</ele>
        <time>2021-09-30T14:54:10Z</time>
      </trkpt>
      <trkpt lat="44.18594" lon="3.20459">
        <ele>468.2</ele>
        <time>2021-09-30T14:54:12Z</time>
      </trkpt>
      <trkpt lat="44.18596" lon="3.20463">
        <ele>468.4</ele>
        <time>2021-09-30T14:54:13Z</time>
      </trkpt>
      <trkpt lat="44.18596" lon="3.20465">
        <ele>468.5</ele>
        <time>2021-09-30T14:54:14Z</time>
      </trkpt>
      <trkpt lat="44.18598" lon="3.2047">
        <ele>468.8</ele>
        <time>2021-09-30T14:54:16Z</time>
      </trkpt>
      <trkpt lat="44.186" lon="3.20475">
        <ele>469.1</ele>
        <time>2021-09-30T14:54:18Z</time>
      </trkpt>
      <trkpt lat="44.18601" lon="3.20479">
        <ele>469.3</ele>
        <time>2021-09-30T14:54:20Z</time>
      </trkpt>
      <trkpt lat="44.18602" lon="3.20481">
        <ele>469.4</ele>
        <time>2021-09-30T14:54:21Z</time>
      </trkpt>
      <trkpt lat="44.18604" lon="3.20486">
        <ele>469.7</ele>
        <time>2021-09-30T14:54:23Z</time>
      </trkpt>
      <trkpt lat="44.18605" lon="3.2049">
        <ele>470</ele>
        <time>2021-09-30T14:54:24Z</time>
      </trkpt>
      <trkpt lat="44.18606" lon="3.20492">
        <ele>470.1</ele>
        <time>2021-09-30T14:54:25Z</time>
      </trkpt>
      <trkpt lat="44.18607" lon="3.20494">
        <ele>470.3</ele>
        <time>2021-09-30T14:54:26Z</time>
      </trkpt>
      <trkpt lat="44.18609" lon="3.20499">
        <ele>470.6</ele>
        <time>2021-09-30T14:54:28Z</time>
      </trkpt>
      <trkpt lat="44.1861" lon="3.20504">
        <ele>470.8</ele>
        <time>2021-09-30T14:54:30Z</time>
      </trkpt>
      <trkpt lat="44.18611" lon="3.20507">
        <ele>471.1</ele>
        <time>2021-09-30T14:54:31Z</time>
      </trkpt>
      <trkpt lat="44.18612" lon="3.20508">
        <ele>471.1</ele>
        <time>2021-09-30T14:54:32Z</time>
      </trkpt>
      <trkpt lat="44.18614" lon="3.20512">
        <ele>471.4</ele>
        <time>2021-09-30T14:54:34Z</time>
      </trkpt>
      <trkpt lat="44.18616" lon="3.20516">
        <ele>471.7</ele>
        <time>2021-09-30T14:54:35Z</time>
      </trkpt>
      <trkpt lat="44.18616" lon="3.20517">
        <ele>471.8</ele>
        <time>2021-09-30T14:54:36Z</time>
      </trkpt>
      <trkpt lat="44.18618" lon="3.2052">
        <ele>472</ele>
        <time>2021-09-30T14:54:37Z</time>
      </trkpt>
      <trkpt lat="44.1862" lon="3.20523">
        <ele>472.2</ele>
        <time>2021-09-30T14:54:39Z</time>
      </trkpt>
      <trkpt lat="44.18621" lon="3.20525">
        <ele>472.3</ele>
        <time>2021-09-30T14:54:40Z</time>
      </trkpt>
      <trkpt lat="44.18625" lon="3.20529">
        <ele>472.7</ele>
        <time>2021-09-30T14:54:42Z</time>
      </trkpt>
      <trkpt lat="44.18626" lon="3.20531">
        <ele>472.8</ele>
        <time>2021-09-30T14:54:43Z</time>
      </trkpt>
      <trkpt lat="44.18628" lon="3.20532">
        <ele>472.9</ele>
        <time>2021-09-30T14:54:44Z</time>
      </trkpt>
      <trkpt lat="44.18631" lon="3.20535">
        <ele>473.2</ele>
        <time>2021-09-30T14:54:46Z</time>
      </trkpt>
      <trkpt lat="44.18633" lon="3.20537">
        <ele>473.3</ele>
        <time>2021-09-30T14:54:47Z</time>
      </trkpt>
      <trkpt lat="44.18637" lon="3.20541">
        <ele>473.7</ele>
        <time>2021-09-30T14:54:49Z</time>
      </trkpt>
      <trkpt lat="44.18639" lon="3.20542">
        <ele>473.8</ele>
        <time>2021-09-30T14:54:50Z</time>
      </trkpt>
      <trkpt lat="44.18642" lon="3.20545">
        <ele>474.1</ele>
        <time>2021-09-30T14:54:52Z</time>
      </trkpt>
      <trkpt lat="44.18646" lon="3.2055">
        <ele>474.5</ele>
        <time>2021-09-30T14:54:54Z</time>
      </trkpt>
      <trkpt lat="44.18647" lon="3.20551">
        <ele>474.5</ele>
        <time>2021-09-30T14:54:55Z</time>
      </trkpt>
      <trkpt lat="44.18649" lon="3.20553">
        <ele>474.7</ele>
        <time>2021-09-30T14:54:56Z</time>
      </trkpt>
      <trkpt lat="44.18652" lon="3.20556">
        <ele>475</ele>
        <time>2021-09-30T14:54:58Z</time>
      </trkpt>
      <trkpt lat="44.18655" lon="3.20559">
        <ele>475.2</ele>
        <time>2021-09-30T14:54:59Z</time>
      </trkpt>
      <trkpt lat="44.18659" lon="3.20563">
        <ele>475.6</ele>
        <time>2021-09-30T14:55:01Z</time>
      </trkpt>
      <trkpt lat="44.18664" lon="3.20567">
        <ele>475.9</ele>
        <time>2021-09-30T14:55:03Z</time>
      </trkpt>
      <trkpt lat="44.18667" lon="3.20571">
        <ele>476.3</ele>
        <time>2021-09-30T14:55:05Z</time>
      </trkpt>
      <trkpt lat="44.18671" lon="3.20576">
        <ele>476.7</ele>
        <time>2021-09-30T14:55:07Z</time>
      </trkpt>
      <trkpt lat="44.18674" lon="3.20579">
        <ele>476.9</ele>
        <time>2021-09-30T14:55:08Z</time>
      </trkpt>
      <trkpt lat="44.18677" lon="3.20584">
        <ele>477.2</ele>
        <time>2021-09-30T14:55:10Z</time>
      </trkpt>
      <trkpt lat="44.18679" lon="3.20587">
        <ele>477.4</ele>
        <time>2021-09-30T14:55:11Z</time>
      </trkpt>
      <trkpt lat="44.18681" lon="3.20592">
        <ele>477.8</ele>
        <time>2021-09-30T14:55:13Z</time>
      </trkpt>
      <trkpt lat="44.18684" lon="3.20598">
        <ele>478.2</ele>
        <time>2021-09-30T14:55:15Z</time>
      </trkpt>
      <trkpt lat="44.18685" lon="3.20603">
        <ele>478.5</ele>
        <time>2021-09-30T14:55:16Z</time>
      </trkpt>
      <trkpt lat="44.18686" lon="3.20607">
        <ele>478.8</ele>
        <time>2021-09-30T14:55:18Z</time>
      </trkpt>
      <trkpt lat="44.18687" lon="3.20613">
        <ele>479.1</ele>
        <time>2021-09-30T14:55:20Z</time>
      </trkpt>
      <trkpt lat="44.18688" lon="3.20619">
        <ele>479.5</ele>
        <time>2021-09-30T14:55:22Z</time>
      </trkpt>
      <trkpt lat="44.18688" lon="3.20622">
        <ele>479.7</ele>
        <time>2021-09-30T14:55:23Z</time>
      </trkpt>
      <trkpt lat="44.18687" lon="3.20627">
        <ele>480</ele>
        <time>2021-09-30T14:55:25Z</time>
      </trkpt>
      <trkpt lat="44.18686" lon="3.20632">
        <ele>480.3</ele>
        <time>2021-09-30T14:55:26Z</time>
      </trkpt>
      <trkpt lat="44.18685" lon="3.20634">
        <ele>480.4</ele>
        <time>2021-09-30T14:55:27Z</time>
      </trkpt>
      <trkpt lat="44.18684" lon="3.20638">
        <ele>480.6</ele>
        <time>2021-09-30T14:55:29Z</time>
      </trkpt>
      <trkpt lat="44.18683" lon="3.2064">
        <ele>480.7</ele>
        <time>2021-09-30T14:55:30Z</time>
      </trkpt>
      <trkpt lat="44.18681" lon="3.20644">
        <ele>481</ele>
        <time>2021-09-30T14:55:31Z</time>
      </trkpt>
      <trkpt lat="44.1868" lon="3.20648">
        <ele>481.2</ele>
        <time>2021-09-30T14:55:33Z</time>
      </trkpt>
      <trkpt lat="44.18679" lon="3.20649">
        <ele>481.2</ele>
        <time>2021-09-30T14:55:34Z</time>
      </trkpt>
      <trkpt lat="44.18678" lon="3.20651">
        <ele>481.4</ele>
        <time>2021-09-30T14:55:35Z</time>
      </trkpt>
      <trkpt lat="44.18677" lon="3.20655">
        <ele>481.6</ele>
        <time>2021-09-30T14:55:37Z</time>
      </trkpt>
      <trkpt lat="44.18676" lon="3.20658">
        <ele>481.7</ele>
        <time>2021-09-30T14:55:38Z</time>
      </trkpt>
      <trkpt lat="44.18675" lon="3.2066">
        <ele>481.8</ele>
        <time>2021-09-30T14:55:39Z</time>
      </trkpt>
      <trkpt lat="44.18674" lon="3.20664">
        <ele>482</ele>
        <time>2021-09-30T14:55:41Z</time>
      </trkpt>
      <trkpt lat="44.18671" lon="3.20668">
        <ele>482.2</ele>
        <time>2021-09-30T14:55:43Z</time>
      </trkpt>
      <trkpt lat="44.1867" lon="3.20673">
        <ele>482.4</ele>
        <time>2021-09-30T14:55:45Z</time>
      </trkpt>
      <trkpt lat="44.18668" lon="3.20676">
        <ele>482.6</ele>
        <time>2021-09-30T14:55:46Z</time>
      </trkpt>
      <trkpt lat="44.18668" lon="3.20677">
        <ele>482.6</ele>
        <time>2021-09-30T14:55:47Z</time>
      </trkpt>
      <trkpt lat="44.18666" lon="3.2068">
        <ele>482.8</ele>
        <time>2021-09-30T14:55:48Z</time>
      </trkpt>
      <trkpt lat="44.18664" lon="3.20684">
        <ele>483</ele>
        <time>2021-09-30T14:55:50Z</time>
      </trkpt>
      <trkpt lat="44.18663" lon="3.20689">
        <ele>483.3</ele>
        <time>2021-09-30T14:55:52Z</time>
      </trkpt>
      <trkpt lat="44.18661" lon="3.20695">
        <ele>483.6</ele>
        <time>2021-09-30T14:55:54Z</time>
      </trkpt>
      <trkpt lat="44.1866" lon="3.20698">
        <ele>483.8</ele>
        <time>2021-09-30T14:55:55Z</time>
      </trkpt>
      <trkpt lat="44.18659" lon="3.207">
        <ele>483.9</ele>
        <time>2021-09-30T14:55:56Z</time>
      </trkpt>
      <trkpt lat="44.18658" lon="3.20704">
        <ele>484.2</ele>
        <time>2021-09-30T14:55:58Z</time>
      </trkpt>
      <trkpt lat="44.18656" lon="3.20708">
        <ele>484.4</ele>
        <time>2021-09-30T14:55:59Z</time>
      </trkpt>
      <trkpt lat="44.18655" lon="3.20711">
        <ele>484.6</ele>
        <time>2021-09-30T14:56:01Z</time>
      </trkpt>
      <trkpt lat="44.18653" lon="3.20715">
        <ele>484.9</ele>
        <time>2021-09-30T14:56:03Z</time>
      </trkpt>
      <trkpt lat="44.18651" lon="3.2072">
        <ele>485.1</ele>
        <time>2021-09-30T14:56:04Z</time>
      </trkpt>
      <trkpt lat="44.18651" lon="3.20721">
        <ele>485.2</ele>
        <time>2021-09-30T14:56:05Z</time>
      </trkpt>
      <trkpt lat="44.18649" lon="3.20725">
        <ele>485.5</ele>
        <time>2021-09-30T14:56:07Z</time>
      </trkpt>
      <trkpt lat="44.18649" lon="3.2073">
        <ele>485.7</ele>
        <time>2021-09-30T14:56:08Z</time>
      </trkpt>
      <trkpt lat="44.18649" lon="3.20734">
        <ele>486</ele>
        <time>2021-09-30T14:56:10Z</time>
      </trkpt>
      <trkpt lat="44.18649" lon="3.20739">
        <ele>486.3</ele>
        <time>2021-09-30T14:56:12Z</time>
      </trkpt>
      <trkpt lat="44.18648" lon="3.20744">
        <ele>486.5</ele>
        <time>2021-09-30T14:56:13Z</time>
      </trkpt>
      <trkpt lat="44.18648" lon="3.20746">
        <ele>486.6</ele>
        <time>2021-09-30T14:56:14Z</time>
      </trkpt>
      <trkpt lat="44.18647" lon="3.2075">
        <ele>486.9</ele>
        <time>2021-09-30T14:56:16Z</time>
      </trkpt>
      <trkpt lat="44.18647" lon="3.20752">
        <ele>487</ele>
        <time>2021-09-30T14:56:17Z</time>
      </trkpt>
      <trkpt lat="44.18647" lon="3.20757">
        <ele>487.3</ele>
        <time>2021-09-30T14:56:19Z</time>
      </trkpt>
      <trkpt lat="44.18646" lon="3.2076">
        <ele>487.4</ele>
        <time>2021-09-30T14:56:20Z</time>
      </trkpt>
      <trkpt lat="44.18646" lon="3.20766">
        <ele>487.8</ele>
        <time>2021-09-30T14:56:22Z</time>
      </trkpt>
      <trkpt lat="44.18645" lon="3.20771">
        <ele>488.1</ele>
        <time>2021-09-30T14:56:24Z</time>
      </trkpt>
      <trkpt lat="44.18643" lon="3.20776">
        <ele>488.4</ele>
        <time>2021-09-30T14:56:26Z</time>
      </trkpt>
      <trkpt lat="44.18642" lon="3.2078">
        <ele>488.6</ele>
        <time>2021-09-30T14:56:27Z</time>
      </trkpt>
      <trkpt lat="44.18641" lon="3.20781">
        <ele>488.7</ele>
        <time>2021-09-30T14:56:28Z</time>
      </trkpt>
      <trkpt lat="44.1864" lon="3.20786">
        <ele>488.9</ele>
        <time>2021-09-30T14:56:30Z</time>
      </trkpt>
      <trkpt lat="44.1864" lon="3.20788">
        <ele>489.1</ele>
        <time>2021-09-30T14:56:31Z</time>
      </trkpt>
      <trkpt lat="44.1864" lon="3.20791">
        <ele>489.2</ele>
        <time>2021-09-30T14:56:32Z</time>
      </trkpt>
      <trkpt lat="44.1864" lon="3.20793">
        <ele>489.3</ele>
        <time>2021-09-30T14:56:33Z</time>
      </trkpt>
      <trkpt lat="44.1864" lon="3.20798">
        <ele>489.6</ele>
        <time>2021-09-30T14:56:35Z</time>
      </trkpt>
      <trkpt lat="44.18639" lon="3.20801">
        <ele>489.8</ele>
        <time>2021-09-30T14:56:36Z</time>
      </trkpt>
      <trkpt lat="44.18639" lon="3.20802">
        <ele>489.9</ele>
        <time>2021-09-30T14:56:37Z</time>
      </trkpt>
      <trkpt lat="44.18638" lon="3.20807">
        <ele>490.1</ele>
        <time>2021-09-30T14:56:39Z</time>
      </trkpt>
      <trkpt lat="44.18638" lon="3.20811">
        <ele>490.4</ele>
        <time>2021-09-30T14:56:41Z</time>
      </trkpt>
      <trkpt lat="44.18637" lon="3.20815">
        <ele>490.6</ele>
        <time>2021-09-30T14:56:42Z</time>
      </trkpt>
      <trkpt lat="44.18636" lon="3.2082">
        <ele>490.9</ele>
        <time>2021-09-30T14:56:43Z</time>
      </trkpt>
      <trkpt lat="44.18635" lon="3.20821">
        <ele>491</ele>
        <time>2021-09-30T14:56:44Z</time>
      </trkpt>
      <trkpt lat="44.18634" lon="3.20827">
        <ele>491.3</ele>
        <time>2021-09-30T14:56:46Z</time>
      </trkpt>
      <trkpt lat="44.18633" lon="3.2083">
        <ele>491.5</ele>
        <time>2021-09-30T14:56:47Z</time>
      </trkpt>
      <trkpt lat="44.18631" lon="3.20835">
        <ele>491.9</ele>
        <time>2021-09-30T14:56:49Z</time>
      </trkpt>
      <trkpt lat="44.18629" lon="3.20838">
        <ele>492.1</ele>
        <time>2021-09-30T14:56:50Z</time>
      </trkpt>
      <trkpt lat="44.18627" lon="3.20841">
        <ele>492.3</ele>
        <time>2021-09-30T14:56:51Z</time>
      </trkpt>
      <trkpt lat="44.18624" lon="3.20847">
        <ele>492.7</ele>
        <time>2021-09-30T14:56:53Z</time>
      </trkpt>
      <trkpt lat="44.18622" lon="3.20848">
        <ele>492.9</ele>
        <time>2021-09-30T14:56:54Z</time>
      </trkpt>
      <trkpt lat="44.18621" lon="3.2085">
        <ele>493</ele>
        <time>2021-09-30T14:56:55Z</time>
      </trkpt>
      <trkpt lat="44.1862" lon="3.20853">
        <ele>493.2</ele>
        <time>2021-09-30T14:56:57Z</time>
      </trkpt>
      <trkpt lat="44.18618" lon="3.20856">
        <ele>493.4</ele>
        <time>2021-09-30T14:56:58Z</time>
      </trkpt>
      <trkpt lat="44.18615" lon="3.2086">
        <ele>493.8</ele>
        <time>2021-09-30T14:57:00Z</time>
      </trkpt>
      <trkpt lat="44.18613" lon="3.20864">
        <ele>494.1</ele>
        <time>2021-09-30T14:57:02Z</time>
      </trkpt>
      <trkpt lat="44.1861" lon="3.20869">
        <ele>494.5</ele>
        <time>2021-09-30T14:57:04Z</time>
      </trkpt>
      <trkpt lat="44.18608" lon="3.20873">
        <ele>494.8</ele>
        <time>2021-09-30T14:57:05Z</time>
      </trkpt>
      <trkpt lat="44.18607" lon="3.20874">
        <ele>494.8</ele>
        <time>2021-09-30T14:57:06Z</time>
      </trkpt>
      <trkpt lat="44.18605" lon="3.20878">
        <ele>495.1</ele>
        <time>2021-09-30T14:57:07Z</time>
      </trkpt>
      <trkpt lat="44.18603" lon="3.20882">
        <ele>495.4</ele>
        <time>2021-09-30T14:57:09Z</time>
      </trkpt>
      <trkpt lat="44.18603" lon="3.20883">
        <ele>495.5</ele>
        <time>2021-09-30T14:57:10Z</time>
      </trkpt>
      <trkpt lat="44.18602" lon="3.20885">
        <ele>495.6</ele>
        <time>2021-09-30T14:57:11Z</time>
      </trkpt>
      <trkpt lat="44.186" lon="3.20889">
        <ele>495.9</ele>
        <time>2021-09-30T14:57:13Z</time>
      </trkpt>
      <trkpt lat="44.18599" lon="3.20894">
        <ele>496.2</ele>
        <time>2021-09-30T14:57:15Z</time>
      </trkpt>
      <trkpt lat="44.18598" lon="3.20899">
        <ele>496.5</ele>
        <time>2021-09-30T14:57:16Z</time>
      </trkpt>
      <trkpt lat="44.18598" lon="3.20901">
        <ele>496.5</ele>
        <time>2021-09-30T14:57:17Z</time>
      </trkpt>
      <trkpt lat="44.18597" lon="3.20906">
        <ele>496.9</ele>
        <time>2021-09-30T14:57:18Z</time>
      </trkpt>
      <trkpt lat="44.18596" lon="3.20908">
        <ele>497</ele>
        <time>2021-09-30T14:57:19Z</time>
      </trkpt>
      <trkpt lat="44.18596" lon="3.20911">
        <ele>497.2</ele>
        <time>2021-09-30T14:57:20Z</time>
      </trkpt>
      <trkpt lat="44.18594" lon="3.20916">
        <ele>497.5</ele>
        <time>2021-09-30T14:57:22Z</time>
      </trkpt>
      <trkpt lat="44.18593" lon="3.20921">
        <ele>497.8</ele>
        <time>2021-09-30T14:57:24Z</time>
      </trkpt>
      <trkpt lat="44.18593" lon="3.20925">
        <ele>498</ele>
        <time>2021-09-30T14:57:25Z</time>
      </trkpt>
      <trkpt lat="44.18592" lon="3.2093">
        <ele>498.4</ele>
        <time>2021-09-30T14:57:27Z</time>
      </trkpt>
      <trkpt lat="44.18592" lon="3.20934">
        <ele>498.6</ele>
        <time>2021-09-30T14:57:28Z</time>
      </trkpt>
      <trkpt lat="44.18591" lon="3.20939">
        <ele>498.9</ele>
        <time>2021-09-30T14:57:29Z</time>
      </trkpt>
      <trkpt lat="44.18591" lon="3.2094">
        <ele>499</ele>
        <time>2021-09-30T14:57:30Z</time>
      </trkpt>
      <trkpt lat="44.18591" lon="3.20945">
        <ele>499.3</ele>
        <time>2021-09-30T14:57:32Z</time>
      </trkpt>
      <trkpt lat="44.18591" lon="3.20946">
        <ele>499.3</ele>
        <time>2021-09-30T14:57:33Z</time>
      </trkpt>
      <trkpt lat="44.18591" lon="3.20951">
        <ele>499.7</ele>
        <time>2021-09-30T14:57:34Z</time>
      </trkpt>
      <trkpt lat="44.18591" lon="3.20953">
        <ele>499.8</ele>
        <time>2021-09-30T14:57:35Z</time>
      </trkpt>
      <trkpt lat="44.18589" lon="3.20959">
        <ele>500.1</ele>
        <time>2021-09-30T14:57:37Z</time>
      </trkpt>
      <trkpt lat="44.18588" lon="3.2096">
        <ele>500.3</ele>
        <time>2021-09-30T14:57:38Z</time>
      </trkpt>
      <trkpt lat="44.18587" lon="3.20962">
        <ele>500.4</ele>
        <time>2021-09-30T14:57:39Z</time>
      </trkpt>
      <trkpt lat="44.18585" lon="3.20966">
        <ele>500.7</ele>
        <time>2021-09-30T14:57:40Z</time>
      </trkpt>
      <trkpt lat="44.18584" lon="3.20968">
        <ele>500.9</ele>
        <time>2021-09-30T14:57:41Z</time>
      </trkpt>
      <trkpt lat="44.18582" lon="3.20973">
        <ele>501.2</ele>
        <time>2021-09-30T14:57:43Z</time>
      </trkpt>
      <trkpt lat="44.18581" lon="3.20974">
        <ele>501.3</ele>
        <time>2021-09-30T14:57:44Z</time>
      </trkpt>
      <trkpt lat="44.18579" lon="3.20977">
        <ele>501.5</ele>
        <time>2021-09-30T14:57:45Z</time>
      </trkpt>
      <trkpt lat="44.18577" lon="3.20982">
        <ele>501.9</ele>
        <time>2021-09-30T14:57:47Z</time>
      </trkpt>
      <trkpt lat="44.18575" lon="3.20984">
        <ele>502</ele>
        <time>2021-09-30T14:57:48Z</time>
      </trkpt>
      <trkpt lat="44.18572" lon="3.20988">
        <ele>502.4</ele>
        <time>2021-09-30T14:57:50Z</time>
      </trkpt>
      <trkpt lat="44.1857" lon="3.20993">
        <ele>502.7</ele>
        <time>2021-09-30T14:57:51Z</time>
      </trkpt>
      <trkpt lat="44.18569" lon="3.20994">
        <ele>502.8</ele>
        <time>2021-09-30T14:57:52Z</time>
      </trkpt>
      <trkpt lat="44.18566" lon="3.20999">
        <ele>503.1</ele>
        <time>2021-09-30T14:57:54Z</time>
      </trkpt>
      <trkpt lat="44.18563" lon="3.21004">
        <ele>503.4</ele>
        <time>2021-09-30T14:57:56Z</time>
      </trkpt>
      <trkpt lat="44.18561" lon="3.21007">
        <ele>503.6</ele>
        <time>2021-09-30T14:57:57Z</time>
      </trkpt>
      <trkpt lat="44.18558" lon="3.21012">
        <ele>503.9</ele>
        <time>2021-09-30T14:57:58Z</time>
      </trkpt>
      <trkpt lat="44.18556" lon="3.21015">
        <ele>504.2</ele>
        <time>2021-09-30T14:58:00Z</time>
      </trkpt>
      <trkpt lat="44.18553" lon="3.21017">
        <ele>504.4</ele>
        <time>2021-09-30T14:58:01Z</time>
      </trkpt>
      <trkpt lat="44.18551" lon="3.2102">
        <ele>504.6</ele>
        <time>2021-09-30T14:58:02Z</time>
      </trkpt>
      <trkpt lat="44.1855" lon="3.21021">
        <ele>504.7</ele>
        <time>2021-09-30T14:58:03Z</time>
      </trkpt>
      <trkpt lat="44.18548" lon="3.21024">
        <ele>504.9</ele>
        <time>2021-09-30T14:58:05Z</time>
      </trkpt>
      <trkpt lat="44.18544" lon="3.21027">
        <ele>505.2</ele>
        <time>2021-09-30T14:58:07Z</time>
      </trkpt>
      <trkpt lat="44.18541" lon="3.2103">
        <ele>505.5</ele>
        <time>2021-09-30T14:58:08Z</time>
      </trkpt>
      <trkpt lat="44.1854" lon="3.21031">
        <ele>505.6</ele>
        <time>2021-09-30T14:58:09Z</time>
      </trkpt>
      <trkpt lat="44.18537" lon="3.21035">
        <ele>505.9</ele>
        <time>2021-09-30T14:58:11Z</time>
      </trkpt>
      <trkpt lat="44.18536" lon="3.21036">
        <ele>506</ele>
        <time>2021-09-30T14:58:12Z</time>
      </trkpt>
      <trkpt lat="44.18535" lon="3.21038">
        <ele>506.1</ele>
        <time>2021-09-30T14:58:13Z</time>
      </trkpt>
      <trkpt lat="44.18532" lon="3.21041">
        <ele>506.4</ele>
        <time>2021-09-30T14:58:15Z</time>
      </trkpt>
      <trkpt lat="44.18531" lon="3.21042">
        <ele>506.5</ele>
        <time>2021-09-30T14:58:16Z</time>
      </trkpt>
      <trkpt lat="44.18529" lon="3.21045">
        <ele>506.7</ele>
        <time>2021-09-30T14:58:17Z</time>
      </trkpt>
      <trkpt lat="44.18528" lon="3.21047">
        <ele>506.8</ele>
        <time>2021-09-30T14:58:18Z</time>
      </trkpt>
      <trkpt lat="44.18525" lon="3.2105">
        <ele>507.1</ele>
        <time>2021-09-30T14:58:20Z</time>
      </trkpt>
      <trkpt lat="44.18522" lon="3.21053">
        <ele>507.4</ele>
        <time>2021-09-30T14:58:21Z</time>
      </trkpt>
      <trkpt lat="44.1852" lon="3.21055">
        <ele>507.5</ele>
        <time>2021-09-30T14:58:22Z</time>
      </trkpt>
      <trkpt lat="44.18518" lon="3.21057">
        <ele>507.8</ele>
        <time>2021-09-30T14:58:24Z</time>
      </trkpt>
      <trkpt lat="44.18515" lon="3.2106">
        <ele>508.1</ele>
        <time>2021-09-30T14:58:26Z</time>
      </trkpt>
      <trkpt lat="44.18511" lon="3.21063">
        <ele>508.4</ele>
        <time>2021-09-30T14:58:28Z</time>
      </trkpt>
      <trkpt lat="44.18507" lon="3.21066">
        <ele>508.7</ele>
        <time>2021-09-30T14:58:30Z</time>
      </trkpt>
      <trkpt lat="44.18505" lon="3.21066">
        <ele>508.8</ele>
        <time>2021-09-30T14:58:31Z</time>
      </trkpt>
      <trkpt lat="44.18503" lon="3.21067">
        <ele>508.9</ele>
        <time>2021-09-30T14:58:33Z</time>
      </trkpt>
      <trkpt lat="44.185" lon="3.21068">
        <ele>509.2</ele>
        <time>2021-09-30T14:58:34Z</time>
      </trkpt>
      <trkpt lat="44.18497" lon="3.21069">
        <ele>509.4</ele>
        <time>2021-09-30T14:58:36Z</time>
      </trkpt>
      <trkpt lat="44.18492" lon="3.21071">
        <ele>509.8</ele>
        <time>2021-09-30T14:58:38Z</time>
      </trkpt>
      <trkpt lat="44.18488" lon="3.21072">
        <ele>510.1</ele>
        <time>2021-09-30T14:58:40Z</time>
      </trkpt>
      <trkpt lat="44.18487" lon="3.21073">
        <ele>510.2</ele>
        <time>2021-09-30T14:58:41Z</time>
      </trkpt>
      <trkpt lat="44.18485" lon="3.21074">
        <ele>510.3</ele>
        <time>2021-09-30T14:58:42Z</time>
      </trkpt>
      <trkpt lat="44.18482" lon="3.21074">
        <ele>510.6</ele>
        <time>2021-09-30T14:58:44Z</time>
      </trkpt>
      <trkpt lat="44.18478" lon="3.21073">
        <ele>510.9</ele>
        <time>2021-09-30T14:58:46Z</time>
      </trkpt>
      <trkpt lat="44.18476" lon="3.21073">
        <ele>511</ele>
        <time>2021-09-30T14:58:47Z</time>
      </trkpt>
      <trkpt lat="44.18471" lon="3.21073">
        <ele>511.3</ele>
        <time>2021-09-30T14:58:49Z</time>
      </trkpt>
      <trkpt lat="44.18469" lon="3.21073">
        <ele>511.5</ele>
        <time>2021-09-30T14:58:50Z</time>
      </trkpt>
      <trkpt lat="44.18464" lon="3.21074">
        <ele>511.8</ele>
        <time>2021-09-30T14:58:52Z</time>
      </trkpt>
      <trkpt lat="44.18459" lon="3.21074">
        <ele>512.2</ele>
        <time>2021-09-30T14:58:54Z</time>
      </trkpt>
      <trkpt lat="44.18455" lon="3.21074">
        <ele>512.4</ele>
        <time>2021-09-30T14:58:55Z</time>
      </trkpt>
      <trkpt lat="44.18453" lon="3.21074">
        <ele>512.6</ele>
        <time>2021-09-30T14:58:56Z</time>
      </trkpt>
      <trkpt lat="44.18449" lon="3.21074">
        <ele>512.8</ele>
        <time>2021-09-30T14:58:58Z</time>
      </trkpt>
      <trkpt lat="44.18445" lon="3.21074">
        <ele>513.1</ele>
        <time>2021-09-30T14:59:00Z</time>
      </trkpt>
      <trkpt lat="44.1844" lon="3.21075">
        <ele>513.4</ele>
        <time>2021-09-30T14:59:01Z</time>
      </trkpt>
      <trkpt lat="44.18439" lon="3.21076">
        <ele>513.5</ele>
        <time>2021-09-30T14:59:02Z</time>
      </trkpt>
      <trkpt lat="44.18437" lon="3.21076">
        <ele>513.7</ele>
        <time>2021-09-30T14:59:03Z</time>
      </trkpt>
      <trkpt lat="44.18433" lon="3.21077">
        <ele>513.9</ele>
        <time>2021-09-30T14:59:05Z</time>
      </trkpt>
      <trkpt lat="44.18431" lon="3.21078">
        <ele>514.1</ele>
        <time>2021-09-30T14:59:06Z</time>
      </trkpt>
      <trkpt lat="44.18426" lon="3.21079">
        <ele>514.4</ele>
        <time>2021-09-30T14:59:08Z</time>
      </trkpt>
      <trkpt lat="44.18422" lon="3.21078">
        <ele>514.7</ele>
        <time>2021-09-30T14:59:10Z</time>
      </trkpt>
      <trkpt lat="44.1842" lon="3.21078">
        <ele>514.9</ele>
        <time>2021-09-30T14:59:11Z</time>
      </trkpt>
      <trkpt lat="44.18416" lon="3.21079">
        <ele>515.1</ele>
        <time>2021-09-30T14:59:13Z</time>
      </trkpt>
      <trkpt lat="44.18413" lon="3.21081">
        <ele>515.3</ele>
        <time>2021-09-30T14:59:14Z</time>
      </trkpt>
      <trkpt lat="44.1841" lon="3.21082">
        <ele>515.6</ele>
        <time>2021-09-30T14:59:16Z</time>
      </trkpt>
      <trkpt lat="44.18406" lon="3.21084">
        <ele>515.8</ele>
        <time>2021-09-30T14:59:17Z</time>
      </trkpt>
      <trkpt lat="44.18405" lon="3.21085">
        <ele>515.9</ele>
        <time>2021-09-30T14:59:18Z</time>
      </trkpt>
      <trkpt lat="44.184" lon="3.21085">
        <ele>516.2</ele>
        <time>2021-09-30T14:59:20Z</time>
      </trkpt>
      <trkpt lat="44.18398" lon="3.21086">
        <ele>516.3</ele>
        <time>2021-09-30T14:59:21Z</time>
      </trkpt>
      <trkpt lat="44.18397" lon="3.21086">
        <ele>516.5</ele>
        <time>2021-09-30T14:59:22Z</time>
      </trkpt>
      <trkpt lat="44.18393" lon="3.21087">
        <ele>516.7</ele>
        <time>2021-09-30T14:59:23Z</time>
      </trkpt>
      <trkpt lat="44.18389" lon="3.21088">
        <ele>517</ele>
        <time>2021-09-30T14:59:25Z</time>
      </trkpt>
      <trkpt lat="44.18385" lon="3.2109">
        <ele>517.2</ele>
        <time>2021-09-30T14:59:26Z</time>
      </trkpt>
      <trkpt lat="44.18381" lon="3.21094">
        <ele>517.5</ele>
        <time>2021-09-30T14:59:28Z</time>
      </trkpt>
      <trkpt lat="44.1838" lon="3.21095">
        <ele>517.6</ele>
        <time>2021-09-30T14:59:29Z</time>
      </trkpt>
      <trkpt lat="44.18379" lon="3.21097">
        <ele>517.7</ele>
        <time>2021-09-30T14:59:30Z</time>
      </trkpt>
      <trkpt lat="44.18376" lon="3.211">
        <ele>517.9</ele>
        <time>2021-09-30T14:59:32Z</time>
      </trkpt>
      <trkpt lat="44.18375" lon="3.21102">
        <ele>518.1</ele>
        <time>2021-09-30T14:59:33Z</time>
      </trkpt>
      <trkpt lat="44.18372" lon="3.21106">
        <ele>518.3</ele>
        <time>2021-09-30T14:59:35Z</time>
      </trkpt>
      <trkpt lat="44.1837" lon="3.2111">
        <ele>518.5</ele>
        <time>2021-09-30T14:59:37Z</time>
      </trkpt>
      <trkpt lat="44.18369" lon="3.21112">
        <ele>518.6</ele>
        <time>2021-09-30T14:59:38Z</time>
      </trkpt>
      <trkpt lat="44.18367" lon="3.21117">
        <ele>518.9</ele>
        <time>2021-09-30T14:59:40Z</time>
      </trkpt>
      <trkpt lat="44.18365" lon="3.21122">
        <ele>519.1</ele>
        <time>2021-09-30T14:59:42Z</time>
      </trkpt>
      <trkpt lat="44.18363" lon="3.21127">
        <ele>519.3</ele>
        <time>2021-09-30T14:59:44Z</time>
      </trkpt>
      <trkpt lat="44.18363" lon="3.21129">
        <ele>519.4</ele>
        <time>2021-09-30T14:59:45Z</time>
      </trkpt>
      <trkpt lat="44.1836" lon="3.21134">
        <ele>519.7</ele>
        <time>2021-09-30T14:59:47Z</time>
      </trkpt>
      <trkpt lat="44.18359" lon="3.21137">
        <ele>519.8</ele>
        <time>2021-09-30T14:59:48Z</time>
      </trkpt>
      <trkpt lat="44.18357" lon="3.21142">
        <ele>520.1</ele>
        <time>2021-09-30T14:59:50Z</time>
      </trkpt>
      <trkpt lat="44.18355" lon="3.21145">
        <ele>520.3</ele>
        <time>2021-09-30T14:59:52Z</time>
      </trkpt>
      <trkpt lat="44.18353" lon="3.21146">
        <ele>520.4</ele>
        <time>2021-09-30T14:59:53Z</time>
      </trkpt>
      <trkpt lat="44.18349" lon="3.21147">
        <ele>520.7</ele>
        <time>2021-09-30T14:59:55Z</time>
      </trkpt>
      <trkpt lat="44.18342" lon="3.21143">
        <ele>518.3</ele>
      </trkpt>
      <trkpt lat="44.18342" lon="3.21137">
        <ele>521.1</ele>
      </trkpt>
      <trkpt lat="44.18349" lon="3.21128">
        <ele>521.9</ele>
      </trkpt>
      <trkpt lat="44.18373" lon="3.21097">
        <ele>523.6</ele>
      </trkpt>
      <trkpt lat="44.18386" lon="3.21085">
        <ele>520.4</ele>
      </trkpt>
      <trkpt lat="44.18418" lon="3.21073">
        <ele>522.4</ele>
      </trkpt>
      <trkpt lat="44.18453" lon="3.21057">
        <ele>525.4</ele>
      </trkpt>
      <trkpt lat="44.18474" lon="3.2104">
        <ele>529</ele>
      </trkpt>
      <trkpt lat="44.18493" lon="3.21011">
        <ele>530.4</ele>
      </trkpt>
      <trkpt lat="44.18519" lon="3.20959">
        <ele>531.1</ele>
      </trkpt>
      <trkpt lat="44.18549" lon="3.20826">
        <ele>538.8</ele>
      </trkpt>
      <trkpt lat="44.18551" lon="3.20791">
        <ele>541.9</ele>
      </trkpt>
      <trkpt lat="44.18545" lon="3.2072">
        <ele>547</ele>
      </trkpt>
      <trkpt lat="44.18547" lon="3.20681">
        <ele>550.1</ele>
      </trkpt>
      <trkpt lat="44.18542" lon="3.20656">
        <ele>550.3</ele>
      </trkpt>
      <trkpt lat="44.18523" lon="3.20642">
        <ele>554.2</ele>
      </trkpt>
      <trkpt lat="44.18502" lon="3.20629">
        <ele>556.5</ele>
      </trkpt>
      <trkpt lat="44.18487" lon="3.20615">
        <ele>558.5</ele>
      </trkpt>
      <trkpt lat="44.18445" lon="3.20545">
        <ele>560.9</ele>
      </trkpt>
      <trkpt lat="44.18417" lon="3.20512">
        <ele>565.3</ele>
      </trkpt>
      <trkpt lat="44.18395" lon="3.20492">
        <ele>565.8</ele>
      </trkpt>
      <trkpt lat="44.18368" lon="3.20478">
        <ele>567.1</ele>
      </trkpt>
      <trkpt lat="44.18332" lon="3.20471">
        <ele>568.7</ele>
      </trkpt>
      <trkpt lat="44.18295" lon="3.20467">
        <ele>573.2</ele>
      </trkpt>
      <trkpt lat="44.18267" lon="3.20458">
        <ele>574.9</ele>
      </trkpt>
      <trkpt lat="44.18243" lon="3.20454">
        <ele>576.8</ele>
      </trkpt>
      <trkpt lat="44.18213" lon="3.20461">
        <ele>581.1</ele>
      </trkpt>
      <trkpt lat="44.18177" lon="3.20459">
        <ele>586.4</ele>
      </trkpt>
      <trkpt lat="44.18144" lon="3.20445">
        <ele>588.5</ele>
      </trkpt>
      <trkpt lat="44.18123" lon="3.20414">
        <ele>587.6</ele>
      </trkpt>
      <trkpt lat="44.18103" lon="3.20375">
        <ele>586.9</ele>
      </trkpt>
      <trkpt lat="44.1809" lon="3.2036">
        <ele>587.8</ele>
      </trkpt>
      <trkpt lat="44.18081" lon="3.20364">
        <ele>593.4</ele>
      </trkpt>
      <trkpt lat="44.18083" lon="3.20379">
        <ele>599.6</ele>
      </trkpt>
      <trkpt lat="44.18096" lon="3.20387">
        <ele>595.3</ele>
      </trkpt>
      <trkpt lat="44.18109" lon="3.20406">
        <ele>593.8</ele>
      </trkpt>
      <trkpt lat="44.18126" lon="3.20447">
        <ele>597</ele>
      </trkpt>
      <trkpt lat="44.18148" lon="3.20476">
        <ele>602.4</ele>
      </trkpt>
      <trkpt lat="44.1819" lon="3.20498">
        <ele>602.7</ele>
      </trkpt>
      <trkpt lat="44.18233" lon="3.20508">
        <ele>606.4</ele>
      </trkpt>
      <trkpt lat="44.18328" lon="3.20554">
        <ele>615.1</ele>
      </trkpt>
      <trkpt lat="44.18348" lon="3.2057">
        <ele>616.9</ele>
      </trkpt>
      <trkpt lat="44.18368" lon="3.20596">
        <ele>619.8</ele>
      </trkpt>
      <trkpt lat="44.18422" lon="3.20685">
        <ele>625.7</ele>
      </trkpt>
      <trkpt lat="44.18433" lon="3.20698">
        <ele>624.9</ele>
      </trkpt>
      <trkpt lat="44.18449" lon="3.20738">
        <ele>625.9</ele>
      </trkpt>
      <trkpt lat="44.1845" lon="3.20759">
        <ele>626.6</ele>
      </trkpt>
      <trkpt lat="44.18442" lon="3.2079">
        <ele>630</ele>
      </trkpt>
      <trkpt lat="44.18432" lon="3.20806">
        <ele>632.5</ele>
      </trkpt>
      <trkpt lat="44.18427" lon="3.20804">
        <ele>635.6</ele>
      </trkpt>
      <trkpt lat="44.18427" lon="3.20793">
        <ele>638.2</ele>
      </trkpt>
      <trkpt lat="44.18436" lon="3.20764">
        <ele>636.4</ele>
      </trkpt>
      <trkpt lat="44.18436" lon="3.20746">
        <ele>636.3</ele>
      </trkpt>
      <trkpt lat="44.18395" lon="3.20694">
        <ele>642.8</ele>
      </trkpt>
      <trkpt lat="44.18332" lon="3.2063">
        <ele>649.8</ele>
      </trkpt>
      <trkpt lat="44.18302" lon="3.20611">
        <ele>649.4</ele>
      </trkpt>
      <trkpt lat="44.18223" lon="3.20603">
        <ele>659.4</ele>
      </trkpt>
      <trkpt lat="44.18196" lon="3.20599">
        <ele>659.9</ele>
      </trkpt>
      <trkpt lat="44.18168" lon="3.20588">
        <ele>663.7</ele>
      </trkpt>
      <trkpt lat="44.18141" lon="3.20573">
        <ele>664.7</ele>
      </trkpt>
      <trkpt lat="44.18107" lon="3.20566">
        <ele>672.6</ele>
      </trkpt>
      <trkpt lat="44.18065" lon="3.2054">
        <ele>676</ele>
      </trkpt>
      <trkpt lat="44.18034" lon="3.20518">
        <ele>678</ele>
      </trkpt>
      <trkpt lat="44.18018" lon="3.20484">
        <ele>673.1</ele>
      </trkpt>
      <trkpt lat="44.18011" lon="3.20485">
        <ele>674.3</ele>
      </trkpt>
      <trkpt lat="44.18003" lon="3.20496">
        <ele>677.7</ele>
      </trkpt>
      <trkpt lat="44.17988" lon="3.20515">
        <ele>682</ele>
      </trkpt>
      <trkpt lat="44.17963" lon="3.20529">
        <ele>682.6</ele>
      </trkpt>
      <trkpt lat="44.17937" lon="3.20547">
        <ele>683.7</ele>
      </trkpt>
      <trkpt lat="44.17891" lon="3.20598">
        <ele>688.3</ele>
      </trkpt>
      <trkpt lat="44.17858" lon="3.20647">
        <ele>692.2</ele>
      </trkpt>
      <trkpt lat="44.17845" lon="3.20666">
        <ele>690</ele>
      </trkpt>
      <trkpt lat="44.17843" lon="3.20686">
        <ele>691.9</ele>
      </trkpt>
      <trkpt lat="44.17851" lon="3.20714">
        <ele>694.7</ele>
      </trkpt>
      <trkpt lat="44.17858" lon="3.20731">
        <ele>696.9</ele>
      </trkpt>
      <trkpt lat="44.17852" lon="3.20749">
        <ele>698.2</ele>
      </trkpt>
      <trkpt lat="44.17834" lon="3.20762">
        <ele>699.7</ele>
      </trkpt>
      <trkpt lat="44.17811" lon="3.20774">
        <ele>701.1</ele>
      </trkpt>
      <trkpt lat="44.17787" lon="3.20802">
        <ele>701.3</ele>
      </trkpt>
      <trkpt lat="44.17762" lon="3.20841">
        <ele>705.6</ele>
      </trkpt>
      <trkpt lat="44.17699" lon="3.20896">
        <ele>709.5</ele>
      </trkpt>
      <trkpt lat="44.17674" lon="3.20923">
        <ele>712.9</ele>
      </trkpt>
      <trkpt lat="44.17657" lon="3.20916">
        <ele>712.3</ele>
      </trkpt>
      <trkpt lat="44.17604" lon="3.20867">
        <ele>717.1</ele>
      </trkpt>
      <trkpt lat="44.17568" lon="3.20861">
        <ele>719</ele>
      </trkpt>
      <trkpt lat="44.17534" lon="3.20844">
        <ele>721.5</ele>
      </trkpt>
      <trkpt lat="44.17508" lon="3.2083">
        <ele>721.8</ele>
      </trkpt>
      <trkpt lat="44.17475" lon="3.20817">
        <ele>723.2</ele>
      </trkpt>
      <trkpt lat="44.1743" lon="3.20813">
        <ele>725.2</ele>
      </trkpt>
      <trkpt lat="44.17391" lon="3.2081">
        <ele>727.1</ele>
      </trkpt>
      <trkpt lat="44.17367" lon="3.20807">
        <ele>728.7</ele>
      </trkpt>
      <trkpt lat="44.17343" lon="3.20785">
        <ele>728.8</ele>
      </trkpt>
      <trkpt lat="44.1733" lon="3.2078">
        <ele>729.2</ele>
      </trkpt>
      <trkpt lat="44.17319" lon="3.20707">
        <ele>724.7</ele>
      </trkpt>
      <trkpt lat="44.17321" lon="3.20643">
        <ele>725.3</ele>
      </trkpt>
      <trkpt lat="44.17333" lon="3.20578">
        <ele>728.4</ele>
      </trkpt>
      <trkpt lat="44.17348" lon="3.20487">
        <ele>736.2</ele>
      </trkpt>
      <trkpt lat="44.1735" lon="3.20454">
        <ele>737.3</ele>
      </trkpt>
      <trkpt lat="44.17347" lon="3.2042">
        <ele>737.9</ele>
      </trkpt>
      <trkpt lat="44.1734" lon="3.20377">
        <ele>738</ele>
      </trkpt>
      <trkpt lat="44.17331" lon="3.20342">
        <ele>738</ele>
      </trkpt>
      <trkpt lat="44.17321" lon="3.20316">
        <ele>737.2</ele>
      </trkpt>
      <trkpt lat="44.17302" lon="3.2029">
        <ele>737.1</ele>
      </trkpt>
      <trkpt lat="44.17283" lon="3.20287">
        <ele>737.8</ele>
      </trkpt>
      <trkpt lat="44.17267" lon="3.20295">
        <ele>738.5</ele>
      </trkpt>
      <trkpt lat="44.17257" lon="3.20302">
        <ele>738.8</ele>
      </trkpt>
      <trkpt lat="44.1724" lon="3.20301">
        <ele>739.5</ele>
      </trkpt>
      <trkpt lat="44.17231" lon="3.20293">
        <ele>740.2</ele>
      </trkpt>
      <trkpt lat="44.17223" lon="3.20278">
        <ele>741</ele>
      </trkpt>
      <trkpt lat="44.17225" lon="3.20218">
        <ele>743</ele>
      </trkpt>
      <trkpt lat="44.17212" lon="3.20228">
        <ele>743.9</ele>
      </trkpt>
      <trkpt lat="44.17182" lon="3.20226">
        <ele>747.2</ele>
      </trkpt>
      <trkpt lat="44.17158" lon="3.20231">
        <ele>750</ele>
      </trkpt>
      <trkpt lat="44.17144" lon="3.20225">
        <ele>751.5</ele>
      </trkpt>
      <trkpt lat="44.17139" lon="3.20213">
        <ele>751.7</ele>
      </trkpt>
      <trkpt lat="44.17121" lon="3.20197">
        <ele>752.3</ele>
      </trkpt>
      <trkpt lat="44.17105" lon="3.20195">
        <ele>753.3</ele>
      </trkpt>
      <trkpt lat="44.17092" lon="3.20201">
        <ele>753.9</ele>
      </trkpt>
      <trkpt lat="44.17048" lon="3.202">
        <ele>755.2</ele>
      </trkpt>
      <trkpt lat="44.17027" lon="3.20209">
        <ele>755.5</ele>
      </trkpt>
      <trkpt lat="44.16966" lon="3.20255">
        <ele>753.7</ele>
      </trkpt>
      <trkpt lat="44.16947" lon="3.20264">
        <ele>753.8</ele>
      </trkpt>
      <trkpt lat="44.16896" lon="3.20312">
        <ele>753.7</ele>
      </trkpt>
      <trkpt lat="44.16881" lon="3.2033">
        <ele>754.1</ele>
      </trkpt>
      <trkpt lat="44.1687" lon="3.20366">
        <ele>753.4</ele>
      </trkpt>
      <trkpt lat="44.16856" lon="3.20377">
        <ele>754.4</ele>
      </trkpt>
      <trkpt lat="44.16847" lon="3.20387">
        <ele>754.6</ele>
      </trkpt>
      <trkpt lat="44.16812" lon="3.20425">
        <ele>756.7</ele>
      </trkpt>
      <trkpt lat="44.16787" lon="3.20441">
        <ele>758.2</ele>
      </trkpt>
      <trkpt lat="44.16771" lon="3.20449">
        <ele>759.5</ele>
      </trkpt>
      <trkpt lat="44.16756" lon="3.20444">
        <ele>761.4</ele>
      </trkpt>
      <trkpt lat="44.16739" lon="3.20438">
        <ele>762.2</ele>
      </trkpt>
      <trkpt lat="44.16724" lon="3.20414">
        <ele>763</ele>
      </trkpt>
      <trkpt lat="44.16723" lon="3.20397">
        <ele>763</ele>
      </trkpt>
      <trkpt lat="44.16724" lon="3.20375">
        <ele>762.6</ele>
      </trkpt>
      <trkpt lat="44.16728" lon="3.20356">
        <ele>762.6</ele>
      </trkpt>
      <trkpt lat="44.16723" lon="3.20335">
        <ele>763</ele>
      </trkpt>
      <trkpt lat="44.16715" lon="3.20313">
        <ele>763.1</ele>
      </trkpt>
      <trkpt lat="44.16705" lon="3.20289">
        <ele>762</ele>
      </trkpt>
      <trkpt lat="44.16691" lon="3.20285">
        <ele>761.4</ele>
      </trkpt>
      <trkpt lat="44.16678" lon="3.20283">
        <ele>760.9</ele>
      </trkpt>
      <trkpt lat="44.16664" lon="3.20292">
        <ele>761.5</ele>
      </trkpt>
      <trkpt lat="44.16645" lon="3.20304">
        <ele>762.1</ele>
      </trkpt>
      <trkpt lat="44.16625" lon="3.20313">
        <ele>761.9</ele>
      </trkpt>
      <trkpt lat="44.16594" lon="3.20312">
        <ele>761.4</ele>
      </trkpt>
      <trkpt lat="44.16591" lon="3.20303">
        <ele>761</ele>
      </trkpt>
      <trkpt lat="44.16583" lon="3.20292">
        <ele>761</ele>
      </trkpt>
      <trkpt lat="44.16558" lon="3.20306">
        <ele>761</ele>
      </trkpt>
      <trkpt lat="44.16524" lon="3.20322">
        <ele>759.7</ele>
      </trkpt>
      <trkpt lat="44.16512" lon="3.20323">
        <ele>758.7</ele>
      </trkpt>
      <trkpt lat="44.16494" lon="3.20329">
        <ele>757.4</ele>
      </trkpt>
      <trkpt lat="44.16486" lon="3.2032">
        <ele>756.5</ele>
      </trkpt>
      <trkpt lat="44.16475" lon="3.20312">
        <ele>755.4</ele>
      </trkpt>
      <trkpt lat="44.16453" lon="3.20314">
        <ele>753.9</ele>
      </trkpt>
      <trkpt lat="44.16438" lon="3.20319">
        <ele>753.2</ele>
      </trkpt>
      <trkpt lat="44.1642" lon="3.20321">
        <ele>752.2</ele>
      </trkpt>
      <trkpt lat="44.16407" lon="3.20309">
        <ele>751.4</ele>
      </trkpt>
      <trkpt lat="44.16395" lon="3.20305">
        <ele>750.5</ele>
      </trkpt>
      <trkpt lat="44.16383" lon="3.20303">
        <ele>750</ele>
      </trkpt>
      <trkpt lat="44.1636" lon="3.20322">
        <ele>749.4</ele>
      </trkpt>
      <trkpt lat="44.16326" lon="3.2035">
        <ele>749.1</ele>
      </trkpt>
      <trkpt lat="44.16316" lon="3.20361">
        <ele>749</ele>
      </trkpt>
      <trkpt lat="44.16303" lon="3.20388">
        <ele>749</ele>
      </trkpt>
      <trkpt lat="44.16293" lon="3.20396">
        <ele>748.9</ele>
      </trkpt>
      <trkpt lat="44.16245" lon="3.20433">
        <ele>747.7</ele>
      </trkpt>
      <trkpt lat="44.16225" lon="3.20438">
        <ele>748.4</ele>
      </trkpt>
      <trkpt lat="44.16202" lon="3.20458">
        <ele>749.1</ele>
      </trkpt>
      <trkpt lat="44.16186" lon="3.20464">
        <ele>749.4</ele>
      </trkpt>
      <trkpt lat="44.1617" lon="3.20458">
        <ele>750</ele>
      </trkpt>
      <trkpt lat="44.16152" lon="3.20446">
        <ele>751.4</ele>
      </trkpt>
      <trkpt lat="44.16126" lon="3.2042">
        <ele>755.2</ele>
      </trkpt>
      <trkpt lat="44.16091" lon="3.20399">
        <ele>757.1</ele>
      </trkpt>
      <trkpt lat="44.16086" lon="3.20386">
        <ele>757.2</ele>
      </trkpt>
      <trkpt lat="44.16086" lon="3.20344">
        <ele>757.5</ele>
      </trkpt>
      <trkpt lat="44.16097" lon="3.20278">
        <ele>757.4</ele>
      </trkpt>
      <trkpt lat="44.16102" lon="3.20218">
        <ele>755.3</ele>
      </trkpt>
      <trkpt lat="44.16109" lon="3.2015">
        <ele>755</ele>
      </trkpt>
      <trkpt lat="44.16114" lon="3.20122">
        <ele>755.2</ele>
      </trkpt>
      <trkpt lat="44.16127" lon="3.20107">
        <ele>756.1</ele>
      </trkpt>
      <trkpt lat="44.16152" lon="3.201">
        <ele>760.4</ele>
        <time>2022-02-10T10:23:11Z</time>
        <extensions>
          <gpxtpx:TrackPointExtension xmlns:gpxtpx="http://www.garmin.com/xmlschemas/TrackPointExtension/v1">
            <gpxtpx:hr>153</gpxtpx:hr>
          </gpxtpx:TrackPointExtension>
        </extensions>
      </trkpt>
      <trkpt lat="44.16157" lon="3.20099">
        <ele>760.8</ele>
        <time>2022-02-10T10:23:13Z</time>
        <extensions>
          <gpxtpx:TrackPointExtension xmlns:gpxtpx="http://www.garmin.com/xmlschemas/TrackPointExtension/v1">
            <gpxtpx:hr>153</gpxtpx:hr>
          </gpxtpx:TrackPointExtension>
        </extensions>
      </trkpt>
      <trkpt lat="44.16161" lon="3.20097">
        <ele>761</ele>
        <time>2022-02-10T10:23:15Z</time>
        <extensions>
          <gpxtpx:TrackPointExtension xmlns:gpxtpx="http://www.garmin.com/xmlschemas/TrackPointExtension/v1">
            <gpxtpx:hr>154</gpxtpx:hr>
          </gpxtpx:TrackPointExtension>
        </extensions>
      </trkpt>
      <trkpt lat="44.16165" lon="3.20093">
        <ele>761.2</ele>
        <time>2022-02-10T10:23:17Z</time>
        <extensions>
          <gpxtpx:TrackPointExtension xmlns:gpxtpx="http://www.garmin.com/xmlschemas/TrackPointExtension/v1">
            <gpxtpx:hr>156</gpxtpx:hr>
          </gpxtpx:TrackPointExtension>
        </extensions>
      </trkpt>
      <trkpt lat="44.16169" lon="3.20089">
        <ele>761.6</ele>
        <time>2022-02-10T10:23:19Z</time>
        <extensions>
          <gpxtpx:TrackPointExtension xmlns:gpxtpx="http://www.garmin.com/xmlschemas/TrackPointExtension/v1">
            <gpxtpx:hr>155</gpxtpx:hr>
          </gpxtpx:TrackPointExtension>
        </extensions>
      </trkpt>
      <trkpt lat="44.16171" lon="3.20085">
        <ele>761.6</ele>
        <time>2022-02-10T10:23:21Z</time>
        <extensions>
          <gpxtpx:TrackPointExtension xmlns:gpxtpx="http://www.garmin.com/xmlschemas/TrackPointExtension/v1">
            <gpxtpx:hr>156</gpxtpx:hr>
          </gpxtpx:TrackPointExtension>
        </extensions>
      </trkpt>
      <trkpt lat="44.16173" lon="3.20083">
        <ele>761.8</ele>
        <time>2022-02-10T10:23:22Z</time>
        <extensions>
          <gpxtpx:TrackPointExtension xmlns:gpxtpx="http://www.garmin.com/xmlschemas/TrackPointExtension/v1">
            <gpxtpx:hr>155</gpxtpx:hr>
          </gpxtpx:TrackPointExtension>
        </extensions>
      </trkpt>
      <trkpt lat="44.16174" lon="3.20078">
        <ele>761.8</ele>
        <time>2022-02-10T10:23:24Z</time>
        <extensions>
          <gpxtpx:TrackPointExtension xmlns:gpxtpx="http://www.garmin.com/xmlschemas/TrackPointExtension/v1">
            <gpxtpx:hr>156</gpxtpx:hr>
          </gpxtpx:TrackPointExtension>
        </extensions>
      </trkpt>
      <trkpt lat="44.16175" lon="3.20075">
        <ele>761.8</ele>
        <time>2022-02-10T10:23:25Z</time>
        <extensions>
          <gpxtpx:TrackPointExtension xmlns:gpxtpx="http://www.garmin.com/xmlschemas/TrackPointExtension/v1">
            <gpxtpx:hr>156</gpxtpx:hr>
          </gpxtpx:TrackPointExtension>
        </extensions>
      </trkpt>
      <trkpt lat="44.16176" lon="3.20069">
        <ele>762</ele>
        <time>2022-02-10T10:23:27Z</time>
        <extensions>
          <gpxtpx:TrackPointExtension xmlns:gpxtpx="http://www.garmin.com/xmlschemas/TrackPointExtension/v1">
            <gpxtpx:hr>155</gpxtpx:hr>
          </gpxtpx:TrackPointExtension>
        </extensions>
      </trkpt>
      <trkpt lat="44.16177" lon="3.20066">
        <ele>762</ele>
        <time>2022-02-10T10:23:28Z</time>
        <extensions>
          <gpxtpx:TrackPointExtension xmlns:gpxtpx="http://www.garmin.com/xmlschemas/TrackPointExtension/v1">
            <gpxtpx:hr>156</gpxtpx:hr>
          </gpxtpx:TrackPointExtension>
        </extensions>
      </trkpt>
      <trkpt lat="44.16178" lon="3.20063">
        <ele>762.2</ele>
        <time>2022-02-10T10:23:29Z</time>
        <extensions>
          <gpxtpx:TrackPointExtension xmlns:gpxtpx="http://www.garmin.com/xmlschemas/TrackPointExtension/v1">
            <gpxtpx:hr>156</gpxtpx:hr>
          </gpxtpx:TrackPointExtension>
        </extensions>
      </trkpt>
      <trkpt lat="44.1618" lon="3.20056">
        <ele>762.2</ele>
        <time>2022-02-10T10:23:31Z</time>
        <extensions>
          <gpxtpx:TrackPointExtension xmlns:gpxtpx="http://www.garmin.com/xmlschemas/TrackPointExtension/v1">
            <gpxtpx:hr>158</gpxtpx:hr>
          </gpxtpx:TrackPointExtension>
        </extensions>
      </trkpt>
      <trkpt lat="44.16181" lon="3.20053">
        <ele>762.4</ele>
        <time>2022-02-10T10:23:32Z</time>
        <extensions>
          <gpxtpx:TrackPointExtension xmlns:gpxtpx="http://www.garmin.com/xmlschemas/TrackPointExtension/v1">
            <gpxtpx:hr>159</gpxtpx:hr>
          </gpxtpx:TrackPointExtension>
        </extensions>
      </trkpt>
      <trkpt lat="44.16182" lon="3.20047">
        <ele>762.4</ele>
        <time>2022-02-10T10:23:34Z</time>
        <extensions>
          <gpxtpx:TrackPointExtension xmlns:gpxtpx="http://www.garmin.com/xmlschemas/TrackPointExtension/v1">
            <gpxtpx:hr>162</gpxtpx:hr>
          </gpxtpx:TrackPointExtension>
        </extensions>
      </trkpt>
      <trkpt lat="44.16183" lon="3.20045">
        <ele>762.8</ele>
        <time>2022-02-10T10:23:35Z</time>
        <extensions>
          <gpxtpx:TrackPointExtension xmlns:gpxtpx="http://www.garmin.com/xmlschemas/TrackPointExtension/v1">
            <gpxtpx:hr>161</gpxtpx:hr>
          </gpxtpx:TrackPointExtension>
        </extensions>
      </trkpt>
      <trkpt lat="44.16183" lon="3.20042">
        <ele>762.8</ele>
        <time>2022-02-10T10:23:36Z</time>
        <extensions>
          <gpxtpx:TrackPointExtension xmlns:gpxtpx="http://www.garmin.com/xmlschemas/TrackPointExtension/v1">
            <gpxtpx:hr>159</gpxtpx:hr>
          </gpxtpx:TrackPointExtension>
        </extensions>
      </trkpt>
      <trkpt lat="44.16184" lon="3.20039">
        <ele>762.8</ele>
        <time>2022-02-10T10:23:37Z</time>
        <extensions>
          <gpxtpx:TrackPointExtension xmlns:gpxtpx="http://www.garmin.com/xmlschemas/TrackPointExtension/v1">
            <gpxtpx:hr>159</gpxtpx:hr>
          </gpxtpx:TrackPointExtension>
        </extensions>
      </trkpt>
      <trkpt lat="44.16185" lon="3.20036">
        <ele>763</ele>
        <time>2022-02-10T10:23:38Z</time>
        <extensions>
          <gpxtpx:TrackPointExtension xmlns:gpxtpx="http://www.garmin.com/xmlschemas/TrackPointExtension/v1">
            <gpxtpx:hr>161</gpxtpx:hr>
          </gpxtpx:TrackPointExtension>
        </extensions>
      </trkpt>
      <trkpt lat="44.16185" lon="3.2003">
        <ele>763</ele>
        <time>2022-02-10T10:23:40Z</time>
        <extensions>
          <gpxtpx:TrackPointExtension xmlns:gpxtpx="http://www.garmin.com/xmlschemas/TrackPointExtension/v1">
            <gpxtpx:hr>161</gpxtpx:hr>
          </gpxtpx:TrackPointExtension>
        </extensions>
      </trkpt>
      <trkpt lat="44.16186" lon="3.20027">
        <ele>763</ele>
        <time>2022-02-10T10:23:41Z</time>
        <extensions>
          <gpxtpx:TrackPointExtension xmlns:gpxtpx="http://www.garmin.com/xmlschemas/TrackPointExtension/v1">
            <gpxtpx:hr>161</gpxtpx:hr>
          </gpxtpx:TrackPointExtension>
        </extensions>
      </trkpt>
      <trkpt lat="44.16187" lon="3.20025">
        <ele>763</ele>
        <time>2022-02-10T10:23:42Z</time>
        <extensions>
          <gpxtpx:TrackPointExtension xmlns:gpxtpx="http://www.garmin.com/xmlschemas/TrackPointExtension/v1">
            <gpxtpx:hr>162</gpxtpx:hr>
          </gpxtpx:TrackPointExtension>
        </extensions>
      </trkpt>
      <trkpt lat="44.16187" lon="3.20022">
        <ele>763</ele>
        <time>2022-02-10T10:23:43Z</time>
        <extensions>
          <gpxtpx:TrackPointExtension xmlns:gpxtpx="http://www.garmin.com/xmlschemas/TrackPointExtension/v1">
            <gpxtpx:hr>161</gpxtpx:hr>
          </gpxtpx:TrackPointExtension>
        </extensions>
      </trkpt>
      <trkpt lat="44.16187" lon="3.20019">
        <ele>763</ele>
        <time>2022-02-10T10:23:44Z</time>
        <extensions>
          <gpxtpx:TrackPointExtension xmlns:gpxtpx="http://www.garmin.com/xmlschemas/TrackPointExtension/v1">
            <gpxtpx:hr>161</gpxtpx:hr>
          </gpxtpx:TrackPointExtension>
        </extensions>
      </trkpt>
      <trkpt lat="44.16188" lon="3.20016">
        <ele>763</ele>
        <time>2022-02-10T10:23:45Z</time>
        <extensions>
          <gpxtpx:TrackPointExtension xmlns:gpxtpx="http://www.garmin.com/xmlschemas/TrackPointExtension/v1">
            <gpxtpx:hr>161</gpxtpx:hr>
          </gpxtpx:TrackPointExtension>
        </extensions>
      </trkpt>
      <trkpt lat="44.16188" lon="3.20013">
        <ele>763</ele>
        <time>2022-02-10T10:23:46Z</time>
        <extensions>
          <gpxtpx:TrackPointExtension xmlns:gpxtpx="http://www.garmin.com/xmlschemas/TrackPointExtension/v1">
            <gpxtpx:hr>160</gpxtpx:hr>
          </gpxtpx:TrackPointExtension>
        </extensions>
      </trkpt>
      <trkpt lat="44.16188" lon="3.2001">
        <ele>763</ele>
        <time>2022-02-10T10:23:47Z</time>
        <extensions>
          <gpxtpx:TrackPointExtension xmlns:gpxtpx="http://www.garmin.com/xmlschemas/TrackPointExtension/v1">
            <gpxtpx:hr>161</gpxtpx:hr>
          </gpxtpx:TrackPointExtension>
        </extensions>
      </trkpt>
      <trkpt lat="44.16188" lon="3.20005">
        <ele>763.2</ele>
        <time>2022-02-10T10:23:49Z</time>
        <extensions>
          <gpxtpx:TrackPointExtension xmlns:gpxtpx="http://www.garmin.com/xmlschemas/TrackPointExtension/v1">
            <gpxtpx:hr>159</gpxtpx:hr>
          </gpxtpx:TrackPointExtension>
        </extensions>
      </trkpt>
      <trkpt lat="44.16187" lon="3.20002">
        <ele>763.2</ele>
        <time>2022-02-10T10:23:50Z</time>
        <extensions>
          <gpxtpx:TrackPointExtension xmlns:gpxtpx="http://www.garmin.com/xmlschemas/TrackPointExtension/v1">
            <gpxtpx:hr>159</gpxtpx:hr>
          </gpxtpx:TrackPointExtension>
        </extensions>
      </trkpt>
      <trkpt lat="44.16187" lon="3.19999">
        <ele>763.4</ele>
        <time>2022-02-10T10:23:51Z</time>
        <extensions>
          <gpxtpx:TrackPointExtension xmlns:gpxtpx="http://www.garmin.com/xmlschemas/TrackPointExtension/v1">
            <gpxtpx:hr>160</gpxtpx:hr>
          </gpxtpx:TrackPointExtension>
        </extensions>
      </trkpt>
      <trkpt lat="44.16187" lon="3.19997">
        <ele>763.4</ele>
        <time>2022-02-10T10:23:52Z</time>
        <extensions>
          <gpxtpx:TrackPointExtension xmlns:gpxtpx="http://www.garmin.com/xmlschemas/TrackPointExtension/v1">
            <gpxtpx:hr>159</gpxtpx:hr>
          </gpxtpx:TrackPointExtension>
        </extensions>
      </trkpt>
      <trkpt lat="44.16187" lon="3.19994">
        <ele>763.4</ele>
        <time>2022-02-10T10:23:53Z</time>
        <extensions>
          <gpxtpx:TrackPointExtension xmlns:gpxtpx="http://www.garmin.com/xmlschemas/TrackPointExtension/v1">
            <gpxtpx:hr>160</gpxtpx:hr>
          </gpxtpx:TrackPointExtension>
        </extensions>
      </trkpt>
      <trkpt lat="44.16187" lon="3.19991">
        <ele>763.4</ele>
        <time>2022-02-10T10:23:54Z</time>
        <extensions>
          <gpxtpx:TrackPointExtension xmlns:gpxtpx="http://www.garmin.com/xmlschemas/TrackPointExtension/v1">
            <gpxtpx:hr>162</gpxtpx:hr>
          </gpxtpx:TrackPointExtension>
        </extensions>
      </trkpt>
      <trkpt lat="44.16188" lon="3.19985">
        <ele>763.6</ele>
        <time>2022-02-10T10:23:56Z</time>
        <extensions>
          <gpxtpx:TrackPointExtension xmlns:gpxtpx="http://www.garmin.com/xmlschemas/TrackPointExtension/v1">
            <gpxtpx:hr>161</gpxtpx:hr>
          </gpxtpx:TrackPointExtension>
        </extensions>
      </trkpt>
      <trkpt lat="44.16189" lon="3.19982">
        <ele>763.6</ele>
        <time>2022-02-10T10:23:57Z</time>
        <extensions>
          <gpxtpx:TrackPointExtension xmlns:gpxtpx="http://www.garmin.com/xmlschemas/TrackPointExtension/v1">
            <gpxtpx:hr>162</gpxtpx:hr>
          </gpxtpx:TrackPointExtension>
        </extensions>
      </trkpt>
      <trkpt lat="44.1619" lon="3.19979">
        <ele>763.6</ele>
        <time>2022-02-10T10:23:58Z</time>
        <extensions>
          <gpxtpx:TrackPointExtension xmlns:gpxtpx="http://www.garmin.com/xmlschemas/TrackPointExtension/v1">
            <gpxtpx:hr>162</gpxtpx:hr>
          </gpxtpx:TrackPointExtension>
        </extensions>
      </trkpt>
      <trkpt lat="44.16193" lon="3.19973">
        <ele>764</ele>
        <time>2022-02-10T10:24:00Z</time>
        <extensions>
          <gpxtpx:TrackPointExtension xmlns:gpxtpx="http://www.garmin.com/xmlschemas/TrackPointExtension/v1">
            <gpxtpx:hr>161</gpxtpx:hr>
          </gpxtpx:TrackPointExtension>
        </extensions>
      </trkpt>
      <trkpt lat="44.16194" lon="3.19971">
        <ele>764</ele>
        <time>2022-02-10T10:24:01Z</time>
        <extensions>
          <gpxtpx:TrackPointExtension xmlns:gpxtpx="http://www.garmin.com/xmlschemas/TrackPointExtension/v1">
            <gpxtpx:hr>161</gpxtpx:hr>
          </gpxtpx:TrackPointExtension>
        </extensions>
      </trkpt>
      <trkpt lat="44.16196" lon="3.19969">
        <ele>764</ele>
        <time>2022-02-10T10:24:02Z</time>
        <extensions>
          <gpxtpx:TrackPointExtension xmlns:gpxtpx="http://www.garmin.com/xmlschemas/TrackPointExtension/v1">
            <gpxtpx:hr>162</gpxtpx:hr>
          </gpxtpx:TrackPointExtension>
        </extensions>
      </trkpt>
      <trkpt lat="44.16197" lon="3.19967">
        <ele>764</ele>
        <time>2022-02-10T10:24:03Z</time>
        <extensions>
          <gpxtpx:TrackPointExtension xmlns:gpxtpx="http://www.garmin.com/xmlschemas/TrackPointExtension/v1">
            <gpxtpx:hr>162</gpxtpx:hr>
          </gpxtpx:TrackPointExtension>
        </extensions>
      </trkpt>
      <trkpt lat="44.16201" lon="3.19963">
        <ele>764.2</ele>
        <time>2022-02-10T10:24:05Z</time>
        <extensions>
          <gpxtpx:TrackPointExtension xmlns:gpxtpx="http://www.garmin.com/xmlschemas/TrackPointExtension/v1">
            <gpxtpx:hr>161</gpxtpx:hr>
          </gpxtpx:TrackPointExtension>
        </extensions>
      </trkpt>
      <trkpt lat="44.16203" lon="3.19961">
        <ele>764.4</ele>
        <time>2022-02-10T10:24:06Z</time>
        <extensions>
          <gpxtpx:TrackPointExtension xmlns:gpxtpx="http://www.garmin.com/xmlschemas/TrackPointExtension/v1">
            <gpxtpx:hr>161</gpxtpx:hr>
          </gpxtpx:TrackPointExtension>
        </extensions>
      </trkpt>
      <trkpt lat="44.16205" lon="3.19958">
        <ele>764.4</ele>
        <time>2022-02-10T10:24:07Z</time>
        <extensions>
          <gpxtpx:TrackPointExtension xmlns:gpxtpx="http://www.garmin.com/xmlschemas/TrackPointExtension/v1">
            <gpxtpx:hr>160</gpxtpx:hr>
          </gpxtpx:TrackPointExtension>
        </extensions>
      </trkpt>
      <trkpt lat="44.16206" lon="3.19956">
        <ele>764.6</ele>
        <time>2022-02-10T10:24:08Z</time>
        <extensions>
          <gpxtpx:TrackPointExtension xmlns:gpxtpx="http://www.garmin.com/xmlschemas/TrackPointExtension/v1">
            <gpxtpx:hr>160</gpxtpx:hr>
          </gpxtpx:TrackPointExtension>
        </extensions>
      </trkpt>
      <trkpt lat="44.16207" lon="3.19953">
        <ele>764.6</ele>
        <time>2022-02-10T10:24:09Z</time>
        <extensions>
          <gpxtpx:TrackPointExtension xmlns:gpxtpx="http://www.garmin.com/xmlschemas/TrackPointExtension/v1">
            <gpxtpx:hr>160</gpxtpx:hr>
          </gpxtpx:TrackPointExtension>
        </extensions>
      </trkpt>
      <trkpt lat="44.16208" lon="3.1995">
        <ele>764.8</ele>
        <time>2022-02-10T10:24:10Z</time>
        <extensions>
          <gpxtpx:TrackPointExtension xmlns:gpxtpx="http://www.garmin.com/xmlschemas/TrackPointExtension/v1">
            <gpxtpx:hr>161</gpxtpx:hr>
          </gpxtpx:TrackPointExtension>
        </extensions>
      </trkpt>
      <trkpt lat="44.16209" lon="3.19947">
        <ele>764.8</ele>
        <time>2022-02-10T10:24:11Z</time>
        <extensions>
          <gpxtpx:TrackPointExtension xmlns:gpxtpx="http://www.garmin.com/xmlschemas/TrackPointExtension/v1">
            <gpxtpx:hr>161</gpxtpx:hr>
          </gpxtpx:TrackPointExtension>
        </extensions>
      </trkpt>
      <trkpt lat="44.1621" lon="3.19944">
        <ele>764.8</ele>
        <time>2022-02-10T10:24:12Z</time>
        <extensions>
          <gpxtpx:TrackPointExtension xmlns:gpxtpx="http://www.garmin.com/xmlschemas/TrackPointExtension/v1">
            <gpxtpx:hr>162</gpxtpx:hr>
          </gpxtpx:TrackPointExtension>
        </extensions>
      </trkpt>
      <trkpt lat="44.1621" lon="3.19941">
        <ele>765</ele>
        <time>2022-02-10T10:24:13Z</time>
        <extensions>
          <gpxtpx:TrackPointExtension xmlns:gpxtpx="http://www.garmin.com/xmlschemas/TrackPointExtension/v1">
            <gpxtpx:hr>161</gpxtpx:hr>
          </gpxtpx:TrackPointExtension>
        </extensions>
      </trkpt>
      <trkpt lat="44.16212" lon="3.19935">
        <ele>765</ele>
        <time>2022-02-10T10:24:15Z</time>
        <extensions>
          <gpxtpx:TrackPointExtension xmlns:gpxtpx="http://www.garmin.com/xmlschemas/TrackPointExtension/v1">
            <gpxtpx:hr>162</gpxtpx:hr>
          </gpxtpx:TrackPointExtension>
        </extensions>
      </trkpt>
      <trkpt lat="44.16213" lon="3.19929">
        <ele>765</ele>
        <time>2022-02-10T10:24:17Z</time>
        <extensions>
          <gpxtpx:TrackPointExtension xmlns:gpxtpx="http://www.garmin.com/xmlschemas/TrackPointExtension/v1">
            <gpxtpx:hr>162</gpxtpx:hr>
          </gpxtpx:TrackPointExtension>
        </extensions>
      </trkpt>
      <trkpt lat="44.16214" lon="3.19927">
        <ele>765.2</ele>
        <time>2022-02-10T10:24:18Z</time>
        <extensions>
          <gpxtpx:TrackPointExtension xmlns:gpxtpx="http://www.garmin.com/xmlschemas/TrackPointExtension/v1">
            <gpxtpx:hr>161</gpxtpx:hr>
          </gpxtpx:TrackPointExtension>
        </extensions>
      </trkpt>
      <trkpt lat="44.16215" lon="3.19924">
        <ele>765.2</ele>
        <time>2022-02-10T10:24:19Z</time>
        <extensions>
          <gpxtpx:TrackPointExtension xmlns:gpxtpx="http://www.garmin.com/xmlschemas/TrackPointExtension/v1">
            <gpxtpx:hr>161</gpxtpx:hr>
          </gpxtpx:TrackPointExtension>
        </extensions>
      </trkpt>
      <trkpt lat="44.16217" lon="3.19921">
        <ele>765.2</ele>
        <time>2022-02-10T10:24:20Z</time>
        <extensions>
          <gpxtpx:TrackPointExtension xmlns:gpxtpx="http://www.garmin.com/xmlschemas/TrackPointExtension/v1">
            <gpxtpx:hr>161</gpxtpx:hr>
          </gpxtpx:TrackPointExtension>
        </extensions>
      </trkpt>
      <trkpt lat="44.16218" lon="3.19919">
        <ele>765.2</ele>
        <time>2022-02-10T10:24:21Z</time>
        <extensions>
          <gpxtpx:TrackPointExtension xmlns:gpxtpx="http://www.garmin.com/xmlschemas/TrackPointExtension/v1">
            <gpxtpx:hr>161</gpxtpx:hr>
          </gpxtpx:TrackPointExtension>
        </extensions>
      </trkpt>
      <trkpt lat="44.16221" lon="3.19914">
        <ele>765.2</ele>
        <time>2022-02-10T10:24:23Z</time>
        <extensions>
          <gpxtpx:TrackPointExtension xmlns:gpxtpx="http://www.garmin.com/xmlschemas/TrackPointExtension/v1">
            <gpxtpx:hr>161</gpxtpx:hr>
          </gpxtpx:TrackPointExtension>
        </extensions>
      </trkpt>
      <trkpt lat="44.16223" lon="3.19909">
        <ele>765.4</ele>
        <time>2022-02-10T10:24:25Z</time>
        <extensions>
          <gpxtpx:TrackPointExtension xmlns:gpxtpx="http://www.garmin.com/xmlschemas/TrackPointExtension/v1">
            <gpxtpx:hr>161</gpxtpx:hr>
          </gpxtpx:TrackPointExtension>
        </extensions>
      </trkpt>
      <trkpt lat="44.16225" lon="3.19907">
        <ele>765.4</ele>
        <time>2022-02-10T10:24:26Z</time>
        <extensions>
          <gpxtpx:TrackPointExtension xmlns:gpxtpx="http://www.garmin.com/xmlschemas/TrackPointExtension/v1">
            <gpxtpx:hr>162</gpxtpx:hr>
          </gpxtpx:TrackPointExtension>
        </extensions>
      </trkpt>
      <trkpt lat="44.16226" lon="3.19904">
        <ele>765.4</ele>
        <time>2022-02-10T10:24:27Z</time>
        <extensions>
          <gpxtpx:TrackPointExtension xmlns:gpxtpx="http://www.garmin.com/xmlschemas/TrackPointExtension/v1">
            <gpxtpx:hr>162</gpxtpx:hr>
          </gpxtpx:TrackPointExtension>
        </extensions>
      </trkpt>
      <trkpt lat="44.16228" lon="3.199">
        <ele>765.6</ele>
        <time>2022-02-10T10:24:29Z</time>
        <extensions>
          <gpxtpx:TrackPointExtension xmlns:gpxtpx="http://www.garmin.com/xmlschemas/TrackPointExtension/v1">
            <gpxtpx:hr>161</gpxtpx:hr>
          </gpxtpx:TrackPointExtension>
        </extensions>
      </trkpt>
      <trkpt lat="44.16229" lon="3.19898">
        <ele>765.6</ele>
        <time>2022-02-10T10:24:30Z</time>
        <extensions>
          <gpxtpx:TrackPointExtension xmlns:gpxtpx="http://www.garmin.com/xmlschemas/TrackPointExtension/v1">
            <gpxtpx:hr>161</gpxtpx:hr>
          </gpxtpx:TrackPointExtension>
        </extensions>
      </trkpt>
      <trkpt lat="44.1623" lon="3.19895">
        <ele>765.6</ele>
        <time>2022-02-10T10:24:31Z</time>
        <extensions>
          <gpxtpx:TrackPointExtension xmlns:gpxtpx="http://www.garmin.com/xmlschemas/TrackPointExtension/v1">
            <gpxtpx:hr>161</gpxtpx:hr>
          </gpxtpx:TrackPointExtension>
        </extensions>
      </trkpt>
      <trkpt lat="44.16234" lon="3.1989">
        <ele>765.6</ele>
        <time>2022-02-10T10:24:34Z</time>
        <extensions>
          <gpxtpx:TrackPointExtension xmlns:gpxtpx="http://www.garmin.com/xmlschemas/TrackPointExtension/v1">
            <gpxtpx:hr>161</gpxtpx:hr>
          </gpxtpx:TrackPointExtension>
        </extensions>
      </trkpt>
      <trkpt lat="44.16235" lon="3.19887">
        <ele>766</ele>
        <time>2022-02-10T10:24:35Z</time>
        <extensions>
          <gpxtpx:TrackPointExtension xmlns:gpxtpx="http://www.garmin.com/xmlschemas/TrackPointExtension/v1">
            <gpxtpx:hr>160</gpxtpx:hr>
          </gpxtpx:TrackPointExtension>
        </extensions>
      </trkpt>
      <trkpt lat="44.16239" lon="3.1988">
        <ele>766</ele>
        <time>2022-02-10T10:24:38Z</time>
        <extensions>
          <gpxtpx:TrackPointExtension xmlns:gpxtpx="http://www.garmin.com/xmlschemas/TrackPointExtension/v1">
            <gpxtpx:hr>161</gpxtpx:hr>
          </gpxtpx:TrackPointExtension>
        </extensions>
      </trkpt>
      <trkpt lat="44.16239" lon="3.19878">
        <ele>766.2</ele>
        <time>2022-02-10T10:24:39Z</time>
        <extensions>
          <gpxtpx:TrackPointExtension xmlns:gpxtpx="http://www.garmin.com/xmlschemas/TrackPointExtension/v1">
            <gpxtpx:hr>161</gpxtpx:hr>
          </gpxtpx:TrackPointExtension>
        </extensions>
      </trkpt>
      <trkpt lat="44.16241" lon="3.19873">
        <ele>766.4</ele>
        <time>2022-02-10T10:24:41Z</time>
        <extensions>
          <gpxtpx:TrackPointExtension xmlns:gpxtpx="http://www.garmin.com/xmlschemas/TrackPointExtension/v1">
            <gpxtpx:hr>161</gpxtpx:hr>
          </gpxtpx:TrackPointExtension>
        </extensions>
      </trkpt>
      <trkpt lat="44.16241" lon="3.1987">
        <ele>766.4</ele>
        <time>2022-02-10T10:24:42Z</time>
        <extensions>
          <gpxtpx:TrackPointExtension xmlns:gpxtpx="http://www.garmin.com/xmlschemas/TrackPointExtension/v1">
            <gpxtpx:hr>160</gpxtpx:hr>
          </gpxtpx:TrackPointExtension>
        </extensions>
      </trkpt>
      <trkpt lat="44.16242" lon="3.19868">
        <ele>766.4</ele>
        <time>2022-02-10T10:24:43Z</time>
        <extensions>
          <gpxtpx:TrackPointExtension xmlns:gpxtpx="http://www.garmin.com/xmlschemas/TrackPointExtension/v1">
            <gpxtpx:hr>160</gpxtpx:hr>
          </gpxtpx:TrackPointExtension>
        </extensions>
      </trkpt>
      <trkpt lat="44.16244" lon="3.19863">
        <ele>766.6</ele>
        <time>2022-02-10T10:24:45Z</time>
        <extensions>
          <gpxtpx:TrackPointExtension xmlns:gpxtpx="http://www.garmin.com/xmlschemas/TrackPointExtension/v1">
            <gpxtpx:hr>161</gpxtpx:hr>
          </gpxtpx:TrackPointExtension>
        </extensions>
      </trkpt>
      <trkpt lat="44.16246" lon="3.19857">
        <ele>766.6</ele>
        <time>2022-02-10T10:24:47Z</time>
        <extensions>
          <gpxtpx:TrackPointExtension xmlns:gpxtpx="http://www.garmin.com/xmlschemas/TrackPointExtension/v1">
            <gpxtpx:hr>161</gpxtpx:hr>
          </gpxtpx:TrackPointExtension>
        </extensions>
      </trkpt>
      <trkpt lat="44.16248" lon="3.19852">
        <ele>766.8</ele>
        <time>2022-02-10T10:24:49Z</time>
        <extensions>
          <gpxtpx:TrackPointExtension xmlns:gpxtpx="http://www.garmin.com/xmlschemas/TrackPointExtension/v1">
            <gpxtpx:hr>162</gpxtpx:hr>
          </gpxtpx:TrackPointExtension>
        </extensions>
      </trkpt>
      <trkpt lat="44.16249" lon="3.1985">
        <ele>766.8</ele>
        <time>2022-02-10T10:24:50Z</time>
        <extensions>
          <gpxtpx:TrackPointExtension xmlns:gpxtpx="http://www.garmin.com/xmlschemas/TrackPointExtension/v1">
            <gpxtpx:hr>162</gpxtpx:hr>
          </gpxtpx:TrackPointExtension>
        </extensions>
      </trkpt>
      <trkpt lat="44.1625" lon="3.19847">
        <ele>766.8</ele>
        <time>2022-02-10T10:24:51Z</time>
        <extensions>
          <gpxtpx:TrackPointExtension xmlns:gpxtpx="http://www.garmin.com/xmlschemas/TrackPointExtension/v1">
            <gpxtpx:hr>162</gpxtpx:hr>
          </gpxtpx:TrackPointExtension>
        </extensions>
      </trkpt>
      <trkpt lat="44.16251" lon="3.19842">
        <ele>767</ele>
        <time>2022-02-10T10:24:53Z</time>
        <extensions>
          <gpxtpx:TrackPointExtension xmlns:gpxtpx="http://www.garmin.com/xmlschemas/TrackPointExtension/v1">
            <gpxtpx:hr>161</gpxtpx:hr>
          </gpxtpx:TrackPointExtension>
        </extensions>
      </trkpt>
      <trkpt lat="44.16252" lon="3.19839">
        <ele>767.2</ele>
        <time>2022-02-10T10:24:54Z</time>
        <extensions>
          <gpxtpx:TrackPointExtension xmlns:gpxtpx="http://www.garmin.com/xmlschemas/TrackPointExtension/v1">
            <gpxtpx:hr>161</gpxtpx:hr>
          </gpxtpx:TrackPointExtension>
        </extensions>
      </trkpt>
      <trkpt lat="44.16252" lon="3.19836">
        <ele>767.2</ele>
        <time>2022-02-10T10:24:55Z</time>
        <extensions>
          <gpxtpx:TrackPointExtension xmlns:gpxtpx="http://www.garmin.com/xmlschemas/TrackPointExtension/v1">
            <gpxtpx:hr>161</gpxtpx:hr>
          </gpxtpx:TrackPointExtension>
        </extensions>
      </trkpt>
      <trkpt lat="44.16252" lon="3.19833">
        <ele>767.6</ele>
        <time>2022-02-10T10:24:56Z</time>
        <extensions>
          <gpxtpx:TrackPointExtension xmlns:gpxtpx="http://www.garmin.com/xmlschemas/TrackPointExtension/v1">
            <gpxtpx:hr>163</gpxtpx:hr>
          </gpxtpx:TrackPointExtension>
        </extensions>
      </trkpt>
      <trkpt lat="44.16252" lon="3.19828">
        <ele>767.6</ele>
        <time>2022-02-10T10:24:58Z</time>
        <extensions>
          <gpxtpx:TrackPointExtension xmlns:gpxtpx="http://www.garmin.com/xmlschemas/TrackPointExtension/v1">
            <gpxtpx:hr>163</gpxtpx:hr>
          </gpxtpx:TrackPointExtension>
        </extensions>
      </trkpt>
      <trkpt lat="44.16252" lon="3.19822">
        <ele>767.8</ele>
        <time>2022-02-10T10:25:00Z</time>
        <extensions>
          <gpxtpx:TrackPointExtension xmlns:gpxtpx="http://www.garmin.com/xmlschemas/TrackPointExtension/v1">
            <gpxtpx:hr>160</gpxtpx:hr>
          </gpxtpx:TrackPointExtension>
        </extensions>
      </trkpt>
      <trkpt lat="44.16253" lon="3.19817">
        <ele>767.8</ele>
        <time>2022-02-10T10:25:02Z</time>
        <extensions>
          <gpxtpx:TrackPointExtension xmlns:gpxtpx="http://www.garmin.com/xmlschemas/TrackPointExtension/v1">
            <gpxtpx:hr>161</gpxtpx:hr>
          </gpxtpx:TrackPointExtension>
        </extensions>
      </trkpt>
      <trkpt lat="44.16254" lon="3.19811">
        <ele>768</ele>
        <time>2022-02-10T10:25:04Z</time>
        <extensions>
          <gpxtpx:TrackPointExtension xmlns:gpxtpx="http://www.garmin.com/xmlschemas/TrackPointExtension/v1">
            <gpxtpx:hr>161</gpxtpx:hr>
          </gpxtpx:TrackPointExtension>
        </extensions>
      </trkpt>
      <trkpt lat="44.16255" lon="3.19808">
        <ele>768</ele>
        <time>2022-02-10T10:25:05Z</time>
        <extensions>
          <gpxtpx:TrackPointExtension xmlns:gpxtpx="http://www.garmin.com/xmlschemas/TrackPointExtension/v1">
            <gpxtpx:hr>161</gpxtpx:hr>
          </gpxtpx:TrackPointExtension>
        </extensions>
      </trkpt>
      <trkpt lat="44.16256" lon="3.19805">
        <ele>768.4</ele>
        <time>2022-02-10T10:25:06Z</time>
        <extensions>
          <gpxtpx:TrackPointExtension xmlns:gpxtpx="http://www.garmin.com/xmlschemas/TrackPointExtension/v1">
            <gpxtpx:hr>161</gpxtpx:hr>
          </gpxtpx:TrackPointExtension>
        </extensions>
      </trkpt>
      <trkpt lat="44.16258" lon="3.19799">
        <ele>768.4</ele>
        <time>2022-02-10T10:25:08Z</time>
        <extensions>
          <gpxtpx:TrackPointExtension xmlns:gpxtpx="http://www.garmin.com/xmlschemas/TrackPointExtension/v1">
            <gpxtpx:hr>161</gpxtpx:hr>
          </gpxtpx:TrackPointExtension>
        </extensions>
      </trkpt>
      <trkpt lat="44.16259" lon="3.19797">
        <ele>768.6</ele>
        <time>2022-02-10T10:25:09Z</time>
        <extensions>
          <gpxtpx:TrackPointExtension xmlns:gpxtpx="http://www.garmin.com/xmlschemas/TrackPointExtension/v1">
            <gpxtpx:hr>160</gpxtpx:hr>
          </gpxtpx:TrackPointExtension>
        </extensions>
      </trkpt>
      <trkpt lat="44.1626" lon="3.19794">
        <ele>768.6</ele>
        <time>2022-02-10T10:25:10Z</time>
        <extensions>
          <gpxtpx:TrackPointExtension xmlns:gpxtpx="http://www.garmin.com/xmlschemas/TrackPointExtension/v1">
            <gpxtpx:hr>160</gpxtpx:hr>
          </gpxtpx:TrackPointExtension>
        </extensions>
      </trkpt>
      <trkpt lat="44.16261" lon="3.19789">
        <ele>768.6</ele>
        <time>2022-02-10T10:25:12Z</time>
        <extensions>
          <gpxtpx:TrackPointExtension xmlns:gpxtpx="http://www.garmin.com/xmlschemas/TrackPointExtension/v1">
            <gpxtpx:hr>160</gpxtpx:hr>
          </gpxtpx:TrackPointExtension>
        </extensions>
      </trkpt>
      <trkpt lat="44.16263" lon="3.19784">
        <ele>768.8</ele>
        <time>2022-02-10T10:25:14Z</time>
        <extensions>
          <gpxtpx:TrackPointExtension xmlns:gpxtpx="http://www.garmin.com/xmlschemas/TrackPointExtension/v1">
            <gpxtpx:hr>160</gpxtpx:hr>
          </gpxtpx:TrackPointExtension>
        </extensions>
      </trkpt>
      <trkpt lat="44.16264" lon="3.19779">
        <ele>768.8</ele>
        <time>2022-02-10T10:25:16Z</time>
        <extensions>
          <gpxtpx:TrackPointExtension xmlns:gpxtpx="http://www.garmin.com/xmlschemas/TrackPointExtension/v1">
            <gpxtpx:hr>160</gpxtpx:hr>
          </gpxtpx:TrackPointExtension>
        </extensions>
      </trkpt>
      <trkpt lat="44.16265" lon="3.19773">
        <ele>768.8</ele>
        <time>2022-02-10T10:25:18Z</time>
        <extensions>
          <gpxtpx:TrackPointExtension xmlns:gpxtpx="http://www.garmin.com/xmlschemas/TrackPointExtension/v1">
            <gpxtpx:hr>160</gpxtpx:hr>
          </gpxtpx:TrackPointExtension>
        </extensions>
      </trkpt>
      <trkpt lat="44.16266" lon="3.19768">
        <ele>768.8</ele>
        <time>2022-02-10T10:25:20Z</time>
        <extensions>
          <gpxtpx:TrackPointExtension xmlns:gpxtpx="http://www.garmin.com/xmlschemas/TrackPointExtension/v1">
            <gpxtpx:hr>159</gpxtpx:hr>
          </gpxtpx:TrackPointExtension>
        </extensions>
      </trkpt>
      <trkpt lat="44.16267" lon="3.19766">
        <ele>769</ele>
        <time>2022-02-10T10:25:21Z</time>
        <extensions>
          <gpxtpx:TrackPointExtension xmlns:gpxtpx="http://www.garmin.com/xmlschemas/TrackPointExtension/v1">
            <gpxtpx:hr>158</gpxtpx:hr>
          </gpxtpx:TrackPointExtension>
        </extensions>
      </trkpt>
      <trkpt lat="44.16268" lon="3.19763">
        <ele>769</ele>
        <time>2022-02-10T10:25:22Z</time>
        <extensions>
          <gpxtpx:TrackPointExtension xmlns:gpxtpx="http://www.garmin.com/xmlschemas/TrackPointExtension/v1">
            <gpxtpx:hr>158</gpxtpx:hr>
          </gpxtpx:TrackPointExtension>
        </extensions>
      </trkpt>
      <trkpt lat="44.1627" lon="3.19759">
        <ele>769</ele>
        <time>2022-02-10T10:25:24Z</time>
        <extensions>
          <gpxtpx:TrackPointExtension xmlns:gpxtpx="http://www.garmin.com/xmlschemas/TrackPointExtension/v1">
            <gpxtpx:hr>157</gpxtpx:hr>
          </gpxtpx:TrackPointExtension>
        </extensions>
      </trkpt>
      <trkpt lat="44.16272" lon="3.19754">
        <ele>769.2</ele>
        <time>2022-02-10T10:25:26Z</time>
        <extensions>
          <gpxtpx:TrackPointExtension xmlns:gpxtpx="http://www.garmin.com/xmlschemas/TrackPointExtension/v1">
            <gpxtpx:hr>157</gpxtpx:hr>
          </gpxtpx:TrackPointExtension>
        </extensions>
      </trkpt>
      <trkpt lat="44.16277" lon="3.19749">
        <ele>769.2</ele>
        <time>2022-02-10T10:25:29Z</time>
        <extensions>
          <gpxtpx:TrackPointExtension xmlns:gpxtpx="http://www.garmin.com/xmlschemas/TrackPointExtension/v1">
            <gpxtpx:hr>159</gpxtpx:hr>
          </gpxtpx:TrackPointExtension>
        </extensions>
      </trkpt>
      <trkpt lat="44.16281" lon="3.19744">
        <ele>769.2</ele>
        <time>2022-02-10T10:25:31Z</time>
        <extensions>
          <gpxtpx:TrackPointExtension xmlns:gpxtpx="http://www.garmin.com/xmlschemas/TrackPointExtension/v1">
            <gpxtpx:hr>158</gpxtpx:hr>
          </gpxtpx:TrackPointExtension>
        </extensions>
      </trkpt>
      <trkpt lat="44.16282" lon="3.19743">
        <ele>769</ele>
        <time>2022-02-10T10:25:32Z</time>
        <extensions>
          <gpxtpx:TrackPointExtension xmlns:gpxtpx="http://www.garmin.com/xmlschemas/TrackPointExtension/v1">
            <gpxtpx:hr>158</gpxtpx:hr>
          </gpxtpx:TrackPointExtension>
        </extensions>
      </trkpt>
      <trkpt lat="44.16286" lon="3.19737">
        <ele>769</ele>
        <time>2022-02-10T10:25:35Z</time>
        <extensions>
          <gpxtpx:TrackPointExtension xmlns:gpxtpx="http://www.garmin.com/xmlschemas/TrackPointExtension/v1">
            <gpxtpx:hr>159</gpxtpx:hr>
          </gpxtpx:TrackPointExtension>
        </extensions>
      </trkpt>
      <trkpt lat="44.16288" lon="3.19732">
        <ele>769</ele>
        <time>2022-02-10T10:25:37Z</time>
        <extensions>
          <gpxtpx:TrackPointExtension xmlns:gpxtpx="http://www.garmin.com/xmlschemas/TrackPointExtension/v1">
            <gpxtpx:hr>158</gpxtpx:hr>
          </gpxtpx:TrackPointExtension>
        </extensions>
      </trkpt>
      <trkpt lat="44.16291" lon="3.19728">
        <ele>769</ele>
        <time>2022-02-10T10:25:39Z</time>
        <extensions>
          <gpxtpx:TrackPointExtension xmlns:gpxtpx="http://www.garmin.com/xmlschemas/TrackPointExtension/v1">
            <gpxtpx:hr>158</gpxtpx:hr>
          </gpxtpx:TrackPointExtension>
        </extensions>
      </trkpt>
      <trkpt lat="44.16292" lon="3.19725">
        <ele>769</ele>
        <time>2022-02-10T10:25:40Z</time>
        <extensions>
          <gpxtpx:TrackPointExtension xmlns:gpxtpx="http://www.garmin.com/xmlschemas/TrackPointExtension/v1">
            <gpxtpx:hr>159</gpxtpx:hr>
          </gpxtpx:TrackPointExtension>
        </extensions>
      </trkpt>
      <trkpt lat="44.16293" lon="3.19723">
        <ele>769</ele>
        <time>2022-02-10T10:25:41Z</time>
        <extensions>
          <gpxtpx:TrackPointExtension xmlns:gpxtpx="http://www.garmin.com/xmlschemas/TrackPointExtension/v1">
            <gpxtpx:hr>159</gpxtpx:hr>
          </gpxtpx:TrackPointExtension>
        </extensions>
      </trkpt>
      <trkpt lat="44.16295" lon="3.19721">
        <ele>769</ele>
        <time>2022-02-10T10:25:42Z</time>
        <extensions>
          <gpxtpx:TrackPointExtension xmlns:gpxtpx="http://www.garmin.com/xmlschemas/TrackPointExtension/v1">
            <gpxtpx:hr>159</gpxtpx:hr>
          </gpxtpx:TrackPointExtension>
        </extensions>
      </trkpt>
      <trkpt lat="44.16298" lon="3.19716">
        <ele>769</ele>
        <time>2022-02-10T10:25:44Z</time>
        <extensions>
          <gpxtpx:TrackPointExtension xmlns:gpxtpx="http://www.garmin.com/xmlschemas/TrackPointExtension/v1">
            <gpxtpx:hr>158</gpxtpx:hr>
          </gpxtpx:TrackPointExtension>
        </extensions>
      </trkpt>
      <trkpt lat="44.16301" lon="3.19712">
        <ele>769</ele>
        <time>2022-02-10T10:25:46Z</time>
        <extensions>
          <gpxtpx:TrackPointExtension xmlns:gpxtpx="http://www.garmin.com/xmlschemas/TrackPointExtension/v1">
            <gpxtpx:hr>159</gpxtpx:hr>
          </gpxtpx:TrackPointExtension>
        </extensions>
      </trkpt>
      <trkpt lat="44.16305" lon="3.19709">
        <ele>769</ele>
        <time>2022-02-10T10:25:48Z</time>
        <extensions>
          <gpxtpx:TrackPointExtension xmlns:gpxtpx="http://www.garmin.com/xmlschemas/TrackPointExtension/v1">
            <gpxtpx:hr>159</gpxtpx:hr>
          </gpxtpx:TrackPointExtension>
        </extensions>
      </trkpt>
      <trkpt lat="44.16309" lon="3.19705">
        <ele>769</ele>
        <time>2022-02-10T10:25:50Z</time>
        <extensions>
          <gpxtpx:TrackPointExtension xmlns:gpxtpx="http://www.garmin.com/xmlschemas/TrackPointExtension/v1">
            <gpxtpx:hr>158</gpxtpx:hr>
          </gpxtpx:TrackPointExtension>
        </extensions>
      </trkpt>
      <trkpt lat="44.16312" lon="3.19701">
        <ele>769</ele>
        <time>2022-02-10T10:25:52Z</time>
        <extensions>
          <gpxtpx:TrackPointExtension xmlns:gpxtpx="http://www.garmin.com/xmlschemas/TrackPointExtension/v1">
            <gpxtpx:hr>157</gpxtpx:hr>
          </gpxtpx:TrackPointExtension>
        </extensions>
      </trkpt>
      <trkpt lat="44.16315" lon="3.19696">
        <ele>769</ele>
        <time>2022-02-10T10:25:54Z</time>
        <extensions>
          <gpxtpx:TrackPointExtension xmlns:gpxtpx="http://www.garmin.com/xmlschemas/TrackPointExtension/v1">
            <gpxtpx:hr>158</gpxtpx:hr>
          </gpxtpx:TrackPointExtension>
        </extensions>
      </trkpt>
      <trkpt lat="44.16317" lon="3.19691">
        <ele>769.2</ele>
        <time>2022-02-10T10:25:56Z</time>
        <extensions>
          <gpxtpx:TrackPointExtension xmlns:gpxtpx="http://www.garmin.com/xmlschemas/TrackPointExtension/v1">
            <gpxtpx:hr>158</gpxtpx:hr>
          </gpxtpx:TrackPointExtension>
        </extensions>
      </trkpt>
      <trkpt lat="44.16319" lon="3.19689">
        <ele>769.2</ele>
        <time>2022-02-10T10:25:57Z</time>
        <extensions>
          <gpxtpx:TrackPointExtension xmlns:gpxtpx="http://www.garmin.com/xmlschemas/TrackPointExtension/v1">
            <gpxtpx:hr>158</gpxtpx:hr>
          </gpxtpx:TrackPointExtension>
        </extensions>
      </trkpt>
      <trkpt lat="44.16322" lon="3.19685">
        <ele>769.2</ele>
        <time>2022-02-10T10:25:59Z</time>
        <extensions>
          <gpxtpx:TrackPointExtension xmlns:gpxtpx="http://www.garmin.com/xmlschemas/TrackPointExtension/v1">
            <gpxtpx:hr>159</gpxtpx:hr>
          </gpxtpx:TrackPointExtension>
        </extensions>
      </trkpt>
      <trkpt lat="44.16325" lon="3.19681">
        <ele>769.2</ele>
        <time>2022-02-10T10:26:01Z</time>
        <extensions>
          <gpxtpx:TrackPointExtension xmlns:gpxtpx="http://www.garmin.com/xmlschemas/TrackPointExtension/v1">
            <gpxtpx:hr>161</gpxtpx:hr>
          </gpxtpx:TrackPointExtension>
        </extensions>
      </trkpt>
      <trkpt lat="44.16328" lon="3.19677">
        <ele>769.2</ele>
        <time>2022-02-10T10:26:03Z</time>
        <extensions>
          <gpxtpx:TrackPointExtension xmlns:gpxtpx="http://www.garmin.com/xmlschemas/TrackPointExtension/v1">
            <gpxtpx:hr>160</gpxtpx:hr>
          </gpxtpx:TrackPointExtension>
        </extensions>
      </trkpt>
      <trkpt lat="44.16331" lon="3.19673">
        <ele>769.2</ele>
        <time>2022-02-10T10:26:05Z</time>
        <extensions>
          <gpxtpx:TrackPointExtension xmlns:gpxtpx="http://www.garmin.com/xmlschemas/TrackPointExtension/v1">
            <gpxtpx:hr>161</gpxtpx:hr>
          </gpxtpx:TrackPointExtension>
        </extensions>
      </trkpt>
      <trkpt lat="44.16333" lon="3.19668">
        <ele>769.2</ele>
        <time>2022-02-10T10:26:07Z</time>
        <extensions>
          <gpxtpx:TrackPointExtension xmlns:gpxtpx="http://www.garmin.com/xmlschemas/TrackPointExtension/v1">
            <gpxtpx:hr>160</gpxtpx:hr>
          </gpxtpx:TrackPointExtension>
        </extensions>
      </trkpt>
      <trkpt lat="44.16335" lon="3.19664">
        <ele>769.6</ele>
        <time>2022-02-10T10:26:09Z</time>
        <extensions>
          <gpxtpx:TrackPointExtension xmlns:gpxtpx="http://www.garmin.com/xmlschemas/TrackPointExtension/v1">
            <gpxtpx:hr>158</gpxtpx:hr>
          </gpxtpx:TrackPointExtension>
        </extensions>
      </trkpt>
      <trkpt lat="44.16338" lon="3.1966">
        <ele>769.8</ele>
        <time>2022-02-10T10:26:11Z</time>
        <extensions>
          <gpxtpx:TrackPointExtension xmlns:gpxtpx="http://www.garmin.com/xmlschemas/TrackPointExtension/v1">
            <gpxtpx:hr>158</gpxtpx:hr>
          </gpxtpx:TrackPointExtension>
        </extensions>
      </trkpt>
      <trkpt lat="44.1634" lon="3.19657">
        <ele>769.8</ele>
        <time>2022-02-10T10:26:13Z</time>
        <extensions>
          <gpxtpx:TrackPointExtension xmlns:gpxtpx="http://www.garmin.com/xmlschemas/TrackPointExtension/v1">
            <gpxtpx:hr>161</gpxtpx:hr>
          </gpxtpx:TrackPointExtension>
        </extensions>
      </trkpt>
      <trkpt lat="44.16343" lon="3.19654">
        <ele>770</ele>
        <time>2022-02-10T10:26:15Z</time>
        <extensions>
          <gpxtpx:TrackPointExtension xmlns:gpxtpx="http://www.garmin.com/xmlschemas/TrackPointExtension/v1">
            <gpxtpx:hr>161</gpxtpx:hr>
          </gpxtpx:TrackPointExtension>
        </extensions>
      </trkpt>
      <trkpt lat="44.16345" lon="3.19651">
        <ele>770</ele>
        <time>2022-02-10T10:26:17Z</time>
        <extensions>
          <gpxtpx:TrackPointExtension xmlns:gpxtpx="http://www.garmin.com/xmlschemas/TrackPointExtension/v1">
            <gpxtpx:hr>162</gpxtpx:hr>
          </gpxtpx:TrackPointExtension>
        </extensions>
      </trkpt>
      <trkpt lat="44.16347" lon="3.19647">
        <ele>770.4</ele>
        <time>2022-02-10T10:26:19Z</time>
        <extensions>
          <gpxtpx:TrackPointExtension xmlns:gpxtpx="http://www.garmin.com/xmlschemas/TrackPointExtension/v1">
            <gpxtpx:hr>163</gpxtpx:hr>
          </gpxtpx:TrackPointExtension>
        </extensions>
      </trkpt>
      <trkpt lat="44.16349" lon="3.19642">
        <ele>770.6</ele>
        <time>2022-02-10T10:26:21Z</time>
        <extensions>
          <gpxtpx:TrackPointExtension xmlns:gpxtpx="http://www.garmin.com/xmlschemas/TrackPointExtension/v1">
            <gpxtpx:hr>165</gpxtpx:hr>
          </gpxtpx:TrackPointExtension>
        </extensions>
      </trkpt>
      <trkpt lat="44.1635" lon="3.1964">
        <ele>770.6</ele>
        <time>2022-02-10T10:26:22Z</time>
        <extensions>
          <gpxtpx:TrackPointExtension xmlns:gpxtpx="http://www.garmin.com/xmlschemas/TrackPointExtension/v1">
            <gpxtpx:hr>163</gpxtpx:hr>
          </gpxtpx:TrackPointExtension>
        </extensions>
      </trkpt>
      <trkpt lat="44.16351" lon="3.19637">
        <ele>770.6</ele>
        <time>2022-02-10T10:26:23Z</time>
        <extensions>
          <gpxtpx:TrackPointExtension xmlns:gpxtpx="http://www.garmin.com/xmlschemas/TrackPointExtension/v1">
            <gpxtpx:hr>163</gpxtpx:hr>
          </gpxtpx:TrackPointExtension>
        </extensions>
      </trkpt>
      <trkpt lat="44.16353" lon="3.19632">
        <ele>770.8</ele>
        <time>2022-02-10T10:26:25Z</time>
        <extensions>
          <gpxtpx:TrackPointExtension xmlns:gpxtpx="http://www.garmin.com/xmlschemas/TrackPointExtension/v1">
            <gpxtpx:hr>164</gpxtpx:hr>
          </gpxtpx:TrackPointExtension>
        </extensions>
      </trkpt>
      <trkpt lat="44.16355" lon="3.19627">
        <ele>771</ele>
        <time>2022-02-10T10:26:27Z</time>
        <extensions>
          <gpxtpx:TrackPointExtension xmlns:gpxtpx="http://www.garmin.com/xmlschemas/TrackPointExtension/v1">
            <gpxtpx:hr>164</gpxtpx:hr>
          </gpxtpx:TrackPointExtension>
        </extensions>
      </trkpt>
      <trkpt lat="44.16357" lon="3.19622">
        <ele>771.4</ele>
        <time>2022-02-10T10:26:29Z</time>
        <extensions>
          <gpxtpx:TrackPointExtension xmlns:gpxtpx="http://www.garmin.com/xmlschemas/TrackPointExtension/v1">
            <gpxtpx:hr>165</gpxtpx:hr>
          </gpxtpx:TrackPointExtension>
        </extensions>
      </trkpt>
      <trkpt lat="44.16357" lon="3.1962">
        <ele>771.4</ele>
        <time>2022-02-10T10:26:30Z</time>
        <extensions>
          <gpxtpx:TrackPointExtension xmlns:gpxtpx="http://www.garmin.com/xmlschemas/TrackPointExtension/v1">
            <gpxtpx:hr>165</gpxtpx:hr>
          </gpxtpx:TrackPointExtension>
        </extensions>
      </trkpt>
      <trkpt lat="44.16359" lon="3.19615">
        <ele>771.6</ele>
        <time>2022-02-10T10:26:32Z</time>
        <extensions>
          <gpxtpx:TrackPointExtension xmlns:gpxtpx="http://www.garmin.com/xmlschemas/TrackPointExtension/v1">
            <gpxtpx:hr>165</gpxtpx:hr>
          </gpxtpx:TrackPointExtension>
        </extensions>
      </trkpt>
      <trkpt lat="44.1636" lon="3.19609">
        <ele>771.8</ele>
        <time>2022-02-10T10:26:34Z</time>
        <extensions>
          <gpxtpx:TrackPointExtension xmlns:gpxtpx="http://www.garmin.com/xmlschemas/TrackPointExtension/v1">
            <gpxtpx:hr>165</gpxtpx:hr>
          </gpxtpx:TrackPointExtension>
        </extensions>
      </trkpt>
      <trkpt lat="44.16361" lon="3.19604">
        <ele>772</ele>
        <time>2022-02-10T10:26:36Z</time>
        <extensions>
          <gpxtpx:TrackPointExtension xmlns:gpxtpx="http://www.garmin.com/xmlschemas/TrackPointExtension/v1">
            <gpxtpx:hr>166</gpxtpx:hr>
          </gpxtpx:TrackPointExtension>
        </extensions>
      </trkpt>
      <trkpt lat="44.16362" lon="3.19599">
        <ele>772.2</ele>
        <time>2022-02-10T10:26:38Z</time>
        <extensions>
          <gpxtpx:TrackPointExtension xmlns:gpxtpx="http://www.garmin.com/xmlschemas/TrackPointExtension/v1">
            <gpxtpx:hr>166</gpxtpx:hr>
          </gpxtpx:TrackPointExtension>
        </extensions>
      </trkpt>
      <trkpt lat="44.16365" lon="3.19594">
        <ele>772.6</ele>
        <time>2022-02-10T10:26:40Z</time>
        <extensions>
          <gpxtpx:TrackPointExtension xmlns:gpxtpx="http://www.garmin.com/xmlschemas/TrackPointExtension/v1">
            <gpxtpx:hr>167</gpxtpx:hr>
          </gpxtpx:TrackPointExtension>
        </extensions>
      </trkpt>
      <trkpt lat="44.16366" lon="3.19592">
        <ele>772.6</ele>
        <time>2022-02-10T10:26:41Z</time>
        <extensions>
          <gpxtpx:TrackPointExtension xmlns:gpxtpx="http://www.garmin.com/xmlschemas/TrackPointExtension/v1">
            <gpxtpx:hr>167</gpxtpx:hr>
          </gpxtpx:TrackPointExtension>
        </extensions>
      </trkpt>
      <trkpt lat="44.16367" lon="3.1959">
        <ele>772.8</ele>
        <time>2022-02-10T10:26:42Z</time>
        <extensions>
          <gpxtpx:TrackPointExtension xmlns:gpxtpx="http://www.garmin.com/xmlschemas/TrackPointExtension/v1">
            <gpxtpx:hr>166</gpxtpx:hr>
          </gpxtpx:TrackPointExtension>
        </extensions>
      </trkpt>
      <trkpt lat="44.16371" lon="3.19586">
        <ele>773</ele>
        <time>2022-02-10T10:26:44Z</time>
        <extensions>
          <gpxtpx:TrackPointExtension xmlns:gpxtpx="http://www.garmin.com/xmlschemas/TrackPointExtension/v1">
            <gpxtpx:hr>166</gpxtpx:hr>
          </gpxtpx:TrackPointExtension>
        </extensions>
      </trkpt>
      <trkpt lat="44.16372" lon="3.19584">
        <ele>773</ele>
        <time>2022-02-10T10:26:45Z</time>
        <extensions>
          <gpxtpx:TrackPointExtension xmlns:gpxtpx="http://www.garmin.com/xmlschemas/TrackPointExtension/v1">
            <gpxtpx:hr>166</gpxtpx:hr>
          </gpxtpx:TrackPointExtension>
        </extensions>
      </trkpt>
      <trkpt lat="44.16374" lon="3.19582">
        <ele>773</ele>
        <time>2022-02-10T10:26:46Z</time>
        <extensions>
          <gpxtpx:TrackPointExtension xmlns:gpxtpx="http://www.garmin.com/xmlschemas/TrackPointExtension/v1">
            <gpxtpx:hr>166</gpxtpx:hr>
          </gpxtpx:TrackPointExtension>
        </extensions>
      </trkpt>
      <trkpt lat="44.16377" lon="3.19578">
        <ele>773.2</ele>
        <time>2022-02-10T10:26:48Z</time>
        <extensions>
          <gpxtpx:TrackPointExtension xmlns:gpxtpx="http://www.garmin.com/xmlschemas/TrackPointExtension/v1">
            <gpxtpx:hr>165</gpxtpx:hr>
          </gpxtpx:TrackPointExtension>
        </extensions>
      </trkpt>
      <trkpt lat="44.16379" lon="3.19574">
        <ele>773.6</ele>
        <time>2022-02-10T10:26:50Z</time>
        <extensions>
          <gpxtpx:TrackPointExtension xmlns:gpxtpx="http://www.garmin.com/xmlschemas/TrackPointExtension/v1">
            <gpxtpx:hr>165</gpxtpx:hr>
          </gpxtpx:TrackPointExtension>
        </extensions>
      </trkpt>
      <trkpt lat="44.16381" lon="3.1957">
        <ele>773.8</ele>
        <time>2022-02-10T10:26:52Z</time>
        <extensions>
          <gpxtpx:TrackPointExtension xmlns:gpxtpx="http://www.garmin.com/xmlschemas/TrackPointExtension/v1">
            <gpxtpx:hr>166</gpxtpx:hr>
          </gpxtpx:TrackPointExtension>
        </extensions>
      </trkpt>
      <trkpt lat="44.16383" lon="3.19565">
        <ele>774</ele>
        <time>2022-02-10T10:26:54Z</time>
        <extensions>
          <gpxtpx:TrackPointExtension xmlns:gpxtpx="http://www.garmin.com/xmlschemas/TrackPointExtension/v1">
            <gpxtpx:hr>166</gpxtpx:hr>
          </gpxtpx:TrackPointExtension>
        </extensions>
      </trkpt>
      <trkpt lat="44.16387" lon="3.19558">
        <ele>774</ele>
        <time>2022-02-10T10:26:57Z</time>
        <extensions>
          <gpxtpx:TrackPointExtension xmlns:gpxtpx="http://www.garmin.com/xmlschemas/TrackPointExtension/v1">
            <gpxtpx:hr>165</gpxtpx:hr>
          </gpxtpx:TrackPointExtension>
        </extensions>
      </trkpt>
      <trkpt lat="44.16389" lon="3.19554">
        <ele>774</ele>
        <time>2022-02-10T10:26:59Z</time>
        <extensions>
          <gpxtpx:TrackPointExtension xmlns:gpxtpx="http://www.garmin.com/xmlschemas/TrackPointExtension/v1">
            <gpxtpx:hr>166</gpxtpx:hr>
          </gpxtpx:TrackPointExtension>
        </extensions>
      </trkpt>
      <trkpt lat="44.16389" lon="3.19551">
        <ele>774.2</ele>
        <time>2022-02-10T10:27:00Z</time>
        <extensions>
          <gpxtpx:TrackPointExtension xmlns:gpxtpx="http://www.garmin.com/xmlschemas/TrackPointExtension/v1">
            <gpxtpx:hr>166</gpxtpx:hr>
          </gpxtpx:TrackPointExtension>
        </extensions>
      </trkpt>
      <trkpt lat="44.1639" lon="3.19546">
        <ele>774.6</ele>
        <time>2022-02-10T10:27:02Z</time>
        <extensions>
          <gpxtpx:TrackPointExtension xmlns:gpxtpx="http://www.garmin.com/xmlschemas/TrackPointExtension/v1">
            <gpxtpx:hr>165</gpxtpx:hr>
          </gpxtpx:TrackPointExtension>
        </extensions>
      </trkpt>
      <trkpt lat="44.16391" lon="3.19541">
        <ele>774.6</ele>
        <time>2022-02-10T10:27:04Z</time>
        <extensions>
          <gpxtpx:TrackPointExtension xmlns:gpxtpx="http://www.garmin.com/xmlschemas/TrackPointExtension/v1">
            <gpxtpx:hr>164</gpxtpx:hr>
          </gpxtpx:TrackPointExtension>
        </extensions>
      </trkpt>
      <trkpt lat="44.16391" lon="3.19536">
        <ele>774.8</ele>
        <time>2022-02-10T10:27:06Z</time>
        <extensions>
          <gpxtpx:TrackPointExtension xmlns:gpxtpx="http://www.garmin.com/xmlschemas/TrackPointExtension/v1">
            <gpxtpx:hr>165</gpxtpx:hr>
          </gpxtpx:TrackPointExtension>
        </extensions>
      </trkpt>
      <trkpt lat="44.16392" lon="3.1953">
        <ele>774.8</ele>
        <time>2022-02-10T10:27:08Z</time>
        <extensions>
          <gpxtpx:TrackPointExtension xmlns:gpxtpx="http://www.garmin.com/xmlschemas/TrackPointExtension/v1">
            <gpxtpx:hr>167</gpxtpx:hr>
          </gpxtpx:TrackPointExtension>
        </extensions>
      </trkpt>
      <trkpt lat="44.16393" lon="3.19525">
        <ele>774.8</ele>
        <time>2022-02-10T10:27:10Z</time>
        <extensions>
          <gpxtpx:TrackPointExtension xmlns:gpxtpx="http://www.garmin.com/xmlschemas/TrackPointExtension/v1">
            <gpxtpx:hr>165</gpxtpx:hr>
          </gpxtpx:TrackPointExtension>
        </extensions>
      </trkpt>
      <trkpt lat="44.16393" lon="3.19523">
        <ele>774.8</ele>
        <time>2022-02-10T10:27:11Z</time>
        <extensions>
          <gpxtpx:TrackPointExtension xmlns:gpxtpx="http://www.garmin.com/xmlschemas/TrackPointExtension/v1">
            <gpxtpx:hr>166</gpxtpx:hr>
          </gpxtpx:TrackPointExtension>
        </extensions>
      </trkpt>
      <trkpt lat="44.16394" lon="3.1952">
        <ele>774.8</ele>
        <time>2022-02-10T10:27:12Z</time>
        <extensions>
          <gpxtpx:TrackPointExtension xmlns:gpxtpx="http://www.garmin.com/xmlschemas/TrackPointExtension/v1">
            <gpxtpx:hr>166</gpxtpx:hr>
          </gpxtpx:TrackPointExtension>
        </extensions>
      </trkpt>
      <trkpt lat="44.16396" lon="3.19515">
        <ele>774.6</ele>
        <time>2022-02-10T10:27:14Z</time>
        <extensions>
          <gpxtpx:TrackPointExtension xmlns:gpxtpx="http://www.garmin.com/xmlschemas/TrackPointExtension/v1">
            <gpxtpx:hr>166</gpxtpx:hr>
          </gpxtpx:TrackPointExtension>
        </extensions>
      </trkpt>
      <trkpt lat="44.16397" lon="3.19512">
        <ele>774.6</ele>
        <time>2022-02-10T10:27:15Z</time>
        <extensions>
          <gpxtpx:TrackPointExtension xmlns:gpxtpx="http://www.garmin.com/xmlschemas/TrackPointExtension/v1">
            <gpxtpx:hr>166</gpxtpx:hr>
          </gpxtpx:TrackPointExtension>
        </extensions>
      </trkpt>
      <trkpt lat="44.16397" lon="3.1951">
        <ele>774.2</ele>
        <time>2022-02-10T10:27:16Z</time>
        <extensions>
          <gpxtpx:TrackPointExtension xmlns:gpxtpx="http://www.garmin.com/xmlschemas/TrackPointExtension/v1">
            <gpxtpx:hr>165</gpxtpx:hr>
          </gpxtpx:TrackPointExtension>
        </extensions>
      </trkpt>
      <trkpt lat="44.16398" lon="3.19507">
        <ele>774.2</ele>
        <time>2022-02-10T10:27:17Z</time>
        <extensions>
          <gpxtpx:TrackPointExtension xmlns:gpxtpx="http://www.garmin.com/xmlschemas/TrackPointExtension/v1">
            <gpxtpx:hr>165</gpxtpx:hr>
          </gpxtpx:TrackPointExtension>
        </extensions>
      </trkpt>
      <trkpt lat="44.16399" lon="3.19504">
        <ele>774</ele>
        <time>2022-02-10T10:27:18Z</time>
        <extensions>
          <gpxtpx:TrackPointExtension xmlns:gpxtpx="http://www.garmin.com/xmlschemas/TrackPointExtension/v1">
            <gpxtpx:hr>164</gpxtpx:hr>
          </gpxtpx:TrackPointExtension>
        </extensions>
      </trkpt>
      <trkpt lat="44.164" lon="3.19501">
        <ele>774</ele>
        <time>2022-02-10T10:27:19Z</time>
        <extensions>
          <gpxtpx:TrackPointExtension xmlns:gpxtpx="http://www.garmin.com/xmlschemas/TrackPointExtension/v1">
            <gpxtpx:hr>163</gpxtpx:hr>
          </gpxtpx:TrackPointExtension>
        </extensions>
      </trkpt>
      <trkpt lat="44.16401" lon="3.19497">
        <ele>773.6</ele>
        <time>2022-02-10T10:27:20Z</time>
        <extensions>
          <gpxtpx:TrackPointExtension xmlns:gpxtpx="http://www.garmin.com/xmlschemas/TrackPointExtension/v1">
            <gpxtpx:hr>163</gpxtpx:hr>
          </gpxtpx:TrackPointExtension>
        </extensions>
      </trkpt>
      <trkpt lat="44.16403" lon="3.19491">
        <ele>773.4</ele>
        <time>2022-02-10T10:27:22Z</time>
        <extensions>
          <gpxtpx:TrackPointExtension xmlns:gpxtpx="http://www.garmin.com/xmlschemas/TrackPointExtension/v1">
            <gpxtpx:hr>163</gpxtpx:hr>
          </gpxtpx:TrackPointExtension>
        </extensions>
      </trkpt>
      <trkpt lat="44.16404" lon="3.19487">
        <ele>773</ele>
        <time>2022-02-10T10:27:23Z</time>
        <extensions>
          <gpxtpx:TrackPointExtension xmlns:gpxtpx="http://www.garmin.com/xmlschemas/TrackPointExtension/v1">
            <gpxtpx:hr>163</gpxtpx:hr>
          </gpxtpx:TrackPointExtension>
        </extensions>
      </trkpt>
      <trkpt lat="44.16405" lon="3.19485">
        <ele>772.8</ele>
        <time>2022-02-10T10:27:24Z</time>
        <extensions>
          <gpxtpx:TrackPointExtension xmlns:gpxtpx="http://www.garmin.com/xmlschemas/TrackPointExtension/v1">
            <gpxtpx:hr>162</gpxtpx:hr>
          </gpxtpx:TrackPointExtension>
        </extensions>
      </trkpt>
      <trkpt lat="44.16407" lon="3.19482">
        <ele>772.4</ele>
        <time>2022-02-10T10:27:25Z</time>
        <extensions>
          <gpxtpx:TrackPointExtension xmlns:gpxtpx="http://www.garmin.com/xmlschemas/TrackPointExtension/v1">
            <gpxtpx:hr>161</gpxtpx:hr>
          </gpxtpx:TrackPointExtension>
        </extensions>
      </trkpt>
      <trkpt lat="44.16408" lon="3.1948">
        <ele>772.2</ele>
        <time>2022-02-10T10:27:26Z</time>
        <extensions>
          <gpxtpx:TrackPointExtension xmlns:gpxtpx="http://www.garmin.com/xmlschemas/TrackPointExtension/v1">
            <gpxtpx:hr>161</gpxtpx:hr>
          </gpxtpx:TrackPointExtension>
        </extensions>
      </trkpt>
      <trkpt lat="44.16412" lon="3.19477">
        <ele>772</ele>
        <time>2022-02-10T10:27:28Z</time>
        <extensions>
          <gpxtpx:TrackPointExtension xmlns:gpxtpx="http://www.garmin.com/xmlschemas/TrackPointExtension/v1">
            <gpxtpx:hr>162</gpxtpx:hr>
          </gpxtpx:TrackPointExtension>
        </extensions>
      </trkpt>
      <trkpt lat="44.16414" lon="3.19475">
        <ele>771.4</ele>
        <time>2022-02-10T10:27:30Z</time>
        <extensions>
          <gpxtpx:TrackPointExtension xmlns:gpxtpx="http://www.garmin.com/xmlschemas/TrackPointExtension/v1">
            <gpxtpx:hr>162</gpxtpx:hr>
          </gpxtpx:TrackPointExtension>
        </extensions>
      </trkpt>
      <trkpt lat="44.16416" lon="3.19474">
        <ele>771.2</ele>
        <time>2022-02-10T10:27:31Z</time>
        <extensions>
          <gpxtpx:TrackPointExtension xmlns:gpxtpx="http://www.garmin.com/xmlschemas/TrackPointExtension/v1">
            <gpxtpx:hr>162</gpxtpx:hr>
          </gpxtpx:TrackPointExtension>
        </extensions>
      </trkpt>
      <trkpt lat="44.16419" lon="3.19472">
        <ele>770.8</ele>
        <time>2022-02-10T10:27:32Z</time>
        <extensions>
          <gpxtpx:TrackPointExtension xmlns:gpxtpx="http://www.garmin.com/xmlschemas/TrackPointExtension/v1">
            <gpxtpx:hr>162</gpxtpx:hr>
          </gpxtpx:TrackPointExtension>
        </extensions>
      </trkpt>
      <trkpt lat="44.16421" lon="3.19471">
        <ele>770.6</ele>
        <time>2022-02-10T10:27:33Z</time>
        <extensions>
          <gpxtpx:TrackPointExtension xmlns:gpxtpx="http://www.garmin.com/xmlschemas/TrackPointExtension/v1">
            <gpxtpx:hr>162</gpxtpx:hr>
          </gpxtpx:TrackPointExtension>
        </extensions>
      </trkpt>
      <trkpt lat="44.16423" lon="3.1947">
        <ele>770.6</ele>
        <time>2022-02-10T10:27:34Z</time>
        <extensions>
          <gpxtpx:TrackPointExtension xmlns:gpxtpx="http://www.garmin.com/xmlschemas/TrackPointExtension/v1">
            <gpxtpx:hr>161</gpxtpx:hr>
          </gpxtpx:TrackPointExtension>
        </extensions>
      </trkpt>
      <trkpt lat="44.16425" lon="3.19468">
        <ele>770.2</ele>
        <time>2022-02-10T10:27:35Z</time>
        <extensions>
          <gpxtpx:TrackPointExtension xmlns:gpxtpx="http://www.garmin.com/xmlschemas/TrackPointExtension/v1">
            <gpxtpx:hr>161</gpxtpx:hr>
          </gpxtpx:TrackPointExtension>
        </extensions>
      </trkpt>
      <trkpt lat="44.16427" lon="3.19467">
        <ele>770</ele>
        <time>2022-02-10T10:27:36Z</time>
        <extensions>
          <gpxtpx:TrackPointExtension xmlns:gpxtpx="http://www.garmin.com/xmlschemas/TrackPointExtension/v1">
            <gpxtpx:hr>161</gpxtpx:hr>
          </gpxtpx:TrackPointExtension>
        </extensions>
      </trkpt>
      <trkpt lat="44.16428" lon="3.19465">
        <ele>769.8</ele>
        <time>2022-02-10T10:27:37Z</time>
        <extensions>
          <gpxtpx:TrackPointExtension xmlns:gpxtpx="http://www.garmin.com/xmlschemas/TrackPointExtension/v1">
            <gpxtpx:hr>161</gpxtpx:hr>
          </gpxtpx:TrackPointExtension>
        </extensions>
      </trkpt>
      <trkpt lat="44.16431" lon="3.1946">
        <ele>769.4</ele>
        <time>2022-02-10T10:27:39Z</time>
        <extensions>
          <gpxtpx:TrackPointExtension xmlns:gpxtpx="http://www.garmin.com/xmlschemas/TrackPointExtension/v1">
            <gpxtpx:hr>159</gpxtpx:hr>
          </gpxtpx:TrackPointExtension>
        </extensions>
      </trkpt>
      <trkpt lat="44.16435" lon="3.19456">
        <ele>769</ele>
        <time>2022-02-10T10:27:41Z</time>
        <extensions>
          <gpxtpx:TrackPointExtension xmlns:gpxtpx="http://www.garmin.com/xmlschemas/TrackPointExtension/v1">
            <gpxtpx:hr>158</gpxtpx:hr>
          </gpxtpx:TrackPointExtension>
        </extensions>
      </trkpt>
      <trkpt lat="44.16438" lon="3.19451">
        <ele>768.8</ele>
        <time>2022-02-10T10:27:43Z</time>
        <extensions>
          <gpxtpx:TrackPointExtension xmlns:gpxtpx="http://www.garmin.com/xmlschemas/TrackPointExtension/v1">
            <gpxtpx:hr>158</gpxtpx:hr>
          </gpxtpx:TrackPointExtension>
        </extensions>
      </trkpt>
      <trkpt lat="44.16442" lon="3.19447">
        <ele>768.8</ele>
        <time>2022-02-10T10:27:45Z</time>
        <extensions>
          <gpxtpx:TrackPointExtension xmlns:gpxtpx="http://www.garmin.com/xmlschemas/TrackPointExtension/v1">
            <gpxtpx:hr>157</gpxtpx:hr>
          </gpxtpx:TrackPointExtension>
        </extensions>
      </trkpt>
      <trkpt lat="44.16445" lon="3.19442">
        <ele>768.6</ele>
        <time>2022-02-10T10:27:47Z</time>
        <extensions>
          <gpxtpx:TrackPointExtension xmlns:gpxtpx="http://www.garmin.com/xmlschemas/TrackPointExtension/v1">
            <gpxtpx:hr>155</gpxtpx:hr>
          </gpxtpx:TrackPointExtension>
        </extensions>
      </trkpt>
      <trkpt lat="44.16446" lon="3.1944">
        <ele>768.6</ele>
        <time>2022-02-10T10:27:48Z</time>
        <extensions>
          <gpxtpx:TrackPointExtension xmlns:gpxtpx="http://www.garmin.com/xmlschemas/TrackPointExtension/v1">
            <gpxtpx:hr>154</gpxtpx:hr>
          </gpxtpx:TrackPointExtension>
        </extensions>
      </trkpt>
      <trkpt lat="44.16447" lon="3.19438">
        <ele>768.4</ele>
        <time>2022-02-10T10:27:49Z</time>
        <extensions>
          <gpxtpx:TrackPointExtension xmlns:gpxtpx="http://www.garmin.com/xmlschemas/TrackPointExtension/v1">
            <gpxtpx:hr>153</gpxtpx:hr>
          </gpxtpx:TrackPointExtension>
        </extensions>
      </trkpt>
      <trkpt lat="44.16451" lon="3.19433">
        <ele>768.2</ele>
        <time>2022-02-10T10:27:51Z</time>
        <extensions>
          <gpxtpx:TrackPointExtension xmlns:gpxtpx="http://www.garmin.com/xmlschemas/TrackPointExtension/v1">
            <gpxtpx:hr>151</gpxtpx:hr>
          </gpxtpx:TrackPointExtension>
        </extensions>
      </trkpt>
      <trkpt lat="44.16452" lon="3.1943">
        <ele>768.2</ele>
        <time>2022-02-10T10:27:52Z</time>
        <extensions>
          <gpxtpx:TrackPointExtension xmlns:gpxtpx="http://www.garmin.com/xmlschemas/TrackPointExtension/v1">
            <gpxtpx:hr>150</gpxtpx:hr>
          </gpxtpx:TrackPointExtension>
        </extensions>
      </trkpt>
      <trkpt lat="44.16453" lon="3.19428">
        <ele>768.2</ele>
        <time>2022-02-10T10:27:53Z</time>
        <extensions>
          <gpxtpx:TrackPointExtension xmlns:gpxtpx="http://www.garmin.com/xmlschemas/TrackPointExtension/v1">
            <gpxtpx:hr>151</gpxtpx:hr>
          </gpxtpx:TrackPointExtension>
        </extensions>
      </trkpt>
      <trkpt lat="44.16456" lon="3.19421">
        <ele>767.6</ele>
        <time>2022-02-10T10:27:55Z</time>
        <extensions>
          <gpxtpx:TrackPointExtension xmlns:gpxtpx="http://www.garmin.com/xmlschemas/TrackPointExtension/v1">
            <gpxtpx:hr>154</gpxtpx:hr>
          </gpxtpx:TrackPointExtension>
        </extensions>
      </trkpt>
      <trkpt lat="44.16458" lon="3.19419">
        <ele>767.6</ele>
        <time>2022-02-10T10:27:56Z</time>
        <extensions>
          <gpxtpx:TrackPointExtension xmlns:gpxtpx="http://www.garmin.com/xmlschemas/TrackPointExtension/v1">
            <gpxtpx:hr>155</gpxtpx:hr>
          </gpxtpx:TrackPointExtension>
        </extensions>
      </trkpt>
      <trkpt lat="44.16459" lon="3.19416">
        <ele>767.4</ele>
        <time>2022-02-10T10:27:57Z</time>
        <extensions>
          <gpxtpx:TrackPointExtension xmlns:gpxtpx="http://www.garmin.com/xmlschemas/TrackPointExtension/v1">
            <gpxtpx:hr>156</gpxtpx:hr>
          </gpxtpx:TrackPointExtension>
        </extensions>
      </trkpt>
      <trkpt lat="44.16463" lon="3.19411">
        <ele>767</ele>
        <time>2022-02-10T10:27:59Z</time>
        <extensions>
          <gpxtpx:TrackPointExtension xmlns:gpxtpx="http://www.garmin.com/xmlschemas/TrackPointExtension/v1">
            <gpxtpx:hr>156</gpxtpx:hr>
          </gpxtpx:TrackPointExtension>
        </extensions>
      </trkpt>
      <trkpt lat="44.16465" lon="3.19409">
        <ele>767</ele>
        <time>2022-02-10T10:28:00Z</time>
        <extensions>
          <gpxtpx:TrackPointExtension xmlns:gpxtpx="http://www.garmin.com/xmlschemas/TrackPointExtension/v1">
            <gpxtpx:hr>155</gpxtpx:hr>
          </gpxtpx:TrackPointExtension>
        </extensions>
      </trkpt>
      <trkpt lat="44.16467" lon="3.19407">
        <ele>767</ele>
        <time>2022-02-10T10:28:01Z</time>
        <extensions>
          <gpxtpx:TrackPointExtension xmlns:gpxtpx="http://www.garmin.com/xmlschemas/TrackPointExtension/v1">
            <gpxtpx:hr>155</gpxtpx:hr>
          </gpxtpx:TrackPointExtension>
        </extensions>
      </trkpt>
      <trkpt lat="44.1647" lon="3.19403">
        <ele>766.6</ele>
        <time>2022-02-10T10:28:03Z</time>
        <extensions>
          <gpxtpx:TrackPointExtension xmlns:gpxtpx="http://www.garmin.com/xmlschemas/TrackPointExtension/v1">
            <gpxtpx:hr>157</gpxtpx:hr>
          </gpxtpx:TrackPointExtension>
        </extensions>
      </trkpt>
      <trkpt lat="44.16473" lon="3.19399">
        <ele>766.6</ele>
        <time>2022-02-10T10:28:05Z</time>
        <extensions>
          <gpxtpx:TrackPointExtension xmlns:gpxtpx="http://www.garmin.com/xmlschemas/TrackPointExtension/v1">
            <gpxtpx:hr>157</gpxtpx:hr>
          </gpxtpx:TrackPointExtension>
        </extensions>
      </trkpt>
      <trkpt lat="44.16477" lon="3.19396">
        <ele>766.2</ele>
        <time>2022-02-10T10:28:07Z</time>
        <extensions>
          <gpxtpx:TrackPointExtension xmlns:gpxtpx="http://www.garmin.com/xmlschemas/TrackPointExtension/v1">
            <gpxtpx:hr>157</gpxtpx:hr>
          </gpxtpx:TrackPointExtension>
        </extensions>
      </trkpt>
      <trkpt lat="44.16478" lon="3.19394">
        <ele>766.2</ele>
        <time>2022-02-10T10:28:08Z</time>
        <extensions>
          <gpxtpx:TrackPointExtension xmlns:gpxtpx="http://www.garmin.com/xmlschemas/TrackPointExtension/v1">
            <gpxtpx:hr>156</gpxtpx:hr>
          </gpxtpx:TrackPointExtension>
        </extensions>
      </trkpt>
      <trkpt lat="44.1648" lon="3.19392">
        <ele>766.2</ele>
        <time>2022-02-10T10:28:09Z</time>
        <extensions>
          <gpxtpx:TrackPointExtension xmlns:gpxtpx="http://www.garmin.com/xmlschemas/TrackPointExtension/v1">
            <gpxtpx:hr>156</gpxtpx:hr>
          </gpxtpx:TrackPointExtension>
        </extensions>
      </trkpt>
      <trkpt lat="44.16486" lon="3.19386">
        <ele>766</ele>
        <time>2022-02-10T10:28:12Z</time>
        <extensions>
          <gpxtpx:TrackPointExtension xmlns:gpxtpx="http://www.garmin.com/xmlschemas/TrackPointExtension/v1">
            <gpxtpx:hr>156</gpxtpx:hr>
          </gpxtpx:TrackPointExtension>
        </extensions>
      </trkpt>
      <trkpt lat="44.16487" lon="3.19385">
        <ele>766</ele>
        <time>2022-02-10T10:28:13Z</time>
        <extensions>
          <gpxtpx:TrackPointExtension xmlns:gpxtpx="http://www.garmin.com/xmlschemas/TrackPointExtension/v1">
            <gpxtpx:hr>157</gpxtpx:hr>
          </gpxtpx:TrackPointExtension>
        </extensions>
      </trkpt>
      <trkpt lat="44.16489" lon="3.19384">
        <ele>766</ele>
        <time>2022-02-10T10:28:14Z</time>
        <extensions>
          <gpxtpx:TrackPointExtension xmlns:gpxtpx="http://www.garmin.com/xmlschemas/TrackPointExtension/v1">
            <gpxtpx:hr>157</gpxtpx:hr>
          </gpxtpx:TrackPointExtension>
        </extensions>
      </trkpt>
      <trkpt lat="44.16491" lon="3.19383">
        <ele>765.8</ele>
        <time>2022-02-10T10:28:15Z</time>
        <extensions>
          <gpxtpx:TrackPointExtension xmlns:gpxtpx="http://www.garmin.com/xmlschemas/TrackPointExtension/v1">
            <gpxtpx:hr>158</gpxtpx:hr>
          </gpxtpx:TrackPointExtension>
        </extensions>
      </trkpt>
      <trkpt lat="44.16493" lon="3.19382">
        <ele>765.8</ele>
        <time>2022-02-10T10:28:16Z</time>
        <extensions>
          <gpxtpx:TrackPointExtension xmlns:gpxtpx="http://www.garmin.com/xmlschemas/TrackPointExtension/v1">
            <gpxtpx:hr>158</gpxtpx:hr>
          </gpxtpx:TrackPointExtension>
        </extensions>
      </trkpt>
      <trkpt lat="44.16495" lon="3.1938">
        <ele>765.8</ele>
        <time>2022-02-10T10:28:17Z</time>
        <extensions>
          <gpxtpx:TrackPointExtension xmlns:gpxtpx="http://www.garmin.com/xmlschemas/TrackPointExtension/v1">
            <gpxtpx:hr>158</gpxtpx:hr>
          </gpxtpx:TrackPointExtension>
        </extensions>
      </trkpt>
      <trkpt lat="44.16497" lon="3.19379">
        <ele>765.6</ele>
        <time>2022-02-10T10:28:18Z</time>
        <extensions>
          <gpxtpx:TrackPointExtension xmlns:gpxtpx="http://www.garmin.com/xmlschemas/TrackPointExtension/v1">
            <gpxtpx:hr>158</gpxtpx:hr>
          </gpxtpx:TrackPointExtension>
        </extensions>
      </trkpt>
      <trkpt lat="44.16499" lon="3.19378">
        <ele>765.6</ele>
        <time>2022-02-10T10:28:19Z</time>
        <extensions>
          <gpxtpx:TrackPointExtension xmlns:gpxtpx="http://www.garmin.com/xmlschemas/TrackPointExtension/v1">
            <gpxtpx:hr>158</gpxtpx:hr>
          </gpxtpx:TrackPointExtension>
        </extensions>
      </trkpt>
      <trkpt lat="44.16501" lon="3.19377">
        <ele>765.6</ele>
        <time>2022-02-10T10:28:20Z</time>
        <extensions>
          <gpxtpx:TrackPointExtension xmlns:gpxtpx="http://www.garmin.com/xmlschemas/TrackPointExtension/v1">
            <gpxtpx:hr>156</gpxtpx:hr>
          </gpxtpx:TrackPointExtension>
        </extensions>
      </trkpt>
      <trkpt lat="44.16503" lon="3.19375">
        <ele>765.4</ele>
        <time>2022-02-10T10:28:21Z</time>
        <extensions>
          <gpxtpx:TrackPointExtension xmlns:gpxtpx="http://www.garmin.com/xmlschemas/TrackPointExtension/v1">
            <gpxtpx:hr>155</gpxtpx:hr>
          </gpxtpx:TrackPointExtension>
        </extensions>
      </trkpt>
      <trkpt lat="44.16505" lon="3.19374">
        <ele>765.4</ele>
        <time>2022-02-10T10:28:22Z</time>
        <extensions>
          <gpxtpx:TrackPointExtension xmlns:gpxtpx="http://www.garmin.com/xmlschemas/TrackPointExtension/v1">
            <gpxtpx:hr>156</gpxtpx:hr>
          </gpxtpx:TrackPointExtension>
        </extensions>
      </trkpt>
      <trkpt lat="44.16507" lon="3.19373">
        <ele>765.4</ele>
        <time>2022-02-10T10:28:23Z</time>
        <extensions>
          <gpxtpx:TrackPointExtension xmlns:gpxtpx="http://www.garmin.com/xmlschemas/TrackPointExtension/v1">
            <gpxtpx:hr>154</gpxtpx:hr>
          </gpxtpx:TrackPointExtension>
        </extensions>
      </trkpt>
      <trkpt lat="44.16509" lon="3.19372">
        <ele>765.4</ele>
        <time>2022-02-10T10:28:24Z</time>
        <extensions>
          <gpxtpx:TrackPointExtension xmlns:gpxtpx="http://www.garmin.com/xmlschemas/TrackPointExtension/v1">
            <gpxtpx:hr>154</gpxtpx:hr>
          </gpxtpx:TrackPointExtension>
        </extensions>
      </trkpt>
      <trkpt lat="44.16512" lon="3.19372">
        <ele>765.4</ele>
        <time>2022-02-10T10:28:25Z</time>
        <extensions>
          <gpxtpx:TrackPointExtension xmlns:gpxtpx="http://www.garmin.com/xmlschemas/TrackPointExtension/v1">
            <gpxtpx:hr>154</gpxtpx:hr>
          </gpxtpx:TrackPointExtension>
        </extensions>
      </trkpt>
      <trkpt lat="44.16514" lon="3.19371">
        <ele>765.2</ele>
        <time>2022-02-10T10:28:26Z</time>
        <extensions>
          <gpxtpx:TrackPointExtension xmlns:gpxtpx="http://www.garmin.com/xmlschemas/TrackPointExtension/v1">
            <gpxtpx:hr>153</gpxtpx:hr>
          </gpxtpx:TrackPointExtension>
        </extensions>
      </trkpt>
      <trkpt lat="44.16516" lon="3.19371">
        <ele>765.2</ele>
        <time>2022-02-10T10:28:27Z</time>
        <extensions>
          <gpxtpx:TrackPointExtension xmlns:gpxtpx="http://www.garmin.com/xmlschemas/TrackPointExtension/v1">
            <gpxtpx:hr>152</gpxtpx:hr>
          </gpxtpx:TrackPointExtension>
        </extensions>
      </trkpt>
      <trkpt lat="44.16518" lon="3.19372">
        <ele>765.2</ele>
        <time>2022-02-10T10:28:28Z</time>
        <extensions>
          <gpxtpx:TrackPointExtension xmlns:gpxtpx="http://www.garmin.com/xmlschemas/TrackPointExtension/v1">
            <gpxtpx:hr>152</gpxtpx:hr>
          </gpxtpx:TrackPointExtension>
        </extensions>
      </trkpt>
      <trkpt lat="44.1652" lon="3.19372">
        <ele>765.2</ele>
        <time>2022-02-10T10:28:29Z</time>
        <extensions>
          <gpxtpx:TrackPointExtension xmlns:gpxtpx="http://www.garmin.com/xmlschemas/TrackPointExtension/v1">
            <gpxtpx:hr>150</gpxtpx:hr>
          </gpxtpx:TrackPointExtension>
        </extensions>
      </trkpt>
      <trkpt lat="44.16522" lon="3.19372">
        <ele>765.2</ele>
        <time>2022-02-10T10:28:30Z</time>
        <extensions>
          <gpxtpx:TrackPointExtension xmlns:gpxtpx="http://www.garmin.com/xmlschemas/TrackPointExtension/v1">
            <gpxtpx:hr>150</gpxtpx:hr>
          </gpxtpx:TrackPointExtension>
        </extensions>
      </trkpt>
      <trkpt lat="44.16524" lon="3.19372">
        <ele>765.2</ele>
        <time>2022-02-10T10:28:31Z</time>
        <extensions>
          <gpxtpx:TrackPointExtension xmlns:gpxtpx="http://www.garmin.com/xmlschemas/TrackPointExtension/v1">
            <gpxtpx:hr>152</gpxtpx:hr>
          </gpxtpx:TrackPointExtension>
        </extensions>
      </trkpt>
      <trkpt lat="44.16526" lon="3.19372">
        <ele>765.2</ele>
        <time>2022-02-10T10:28:32Z</time>
        <extensions>
          <gpxtpx:TrackPointExtension xmlns:gpxtpx="http://www.garmin.com/xmlschemas/TrackPointExtension/v1">
            <gpxtpx:hr>152</gpxtpx:hr>
          </gpxtpx:TrackPointExtension>
        </extensions>
      </trkpt>
      <trkpt lat="44.16529" lon="3.1937">
        <ele>765.2</ele>
        <time>2022-02-10T10:28:34Z</time>
        <extensions>
          <gpxtpx:TrackPointExtension xmlns:gpxtpx="http://www.garmin.com/xmlschemas/TrackPointExtension/v1">
            <gpxtpx:hr>151</gpxtpx:hr>
          </gpxtpx:TrackPointExtension>
        </extensions>
      </trkpt>
      <trkpt lat="44.16532" lon="3.19368">
        <ele>765.4</ele>
        <time>2022-02-10T10:28:36Z</time>
        <extensions>
          <gpxtpx:TrackPointExtension xmlns:gpxtpx="http://www.garmin.com/xmlschemas/TrackPointExtension/v1">
            <gpxtpx:hr>151</gpxtpx:hr>
          </gpxtpx:TrackPointExtension>
        </extensions>
      </trkpt>
      <trkpt lat="44.16535" lon="3.19366">
        <ele>765.4</ele>
        <time>2022-02-10T10:28:38Z</time>
        <extensions>
          <gpxtpx:TrackPointExtension xmlns:gpxtpx="http://www.garmin.com/xmlschemas/TrackPointExtension/v1">
            <gpxtpx:hr>151</gpxtpx:hr>
          </gpxtpx:TrackPointExtension>
        </extensions>
      </trkpt>
      <trkpt lat="44.16537" lon="3.19364">
        <ele>765.6</ele>
        <time>2022-02-10T10:28:40Z</time>
        <extensions>
          <gpxtpx:TrackPointExtension xmlns:gpxtpx="http://www.garmin.com/xmlschemas/TrackPointExtension/v1">
            <gpxtpx:hr>152</gpxtpx:hr>
          </gpxtpx:TrackPointExtension>
        </extensions>
      </trkpt>
      <trkpt lat="44.16539" lon="3.19363">
        <ele>765.6</ele>
        <time>2022-02-10T10:28:41Z</time>
        <extensions>
          <gpxtpx:TrackPointExtension xmlns:gpxtpx="http://www.garmin.com/xmlschemas/TrackPointExtension/v1">
            <gpxtpx:hr>152</gpxtpx:hr>
          </gpxtpx:TrackPointExtension>
        </extensions>
      </trkpt>
      <trkpt lat="44.16541" lon="3.1936">
        <ele>765.6</ele>
        <time>2022-02-10T10:28:43Z</time>
        <extensions>
          <gpxtpx:TrackPointExtension xmlns:gpxtpx="http://www.garmin.com/xmlschemas/TrackPointExtension/v1">
            <gpxtpx:hr>153</gpxtpx:hr>
          </gpxtpx:TrackPointExtension>
        </extensions>
      </trkpt>
      <trkpt lat="44.16542" lon="3.19356">
        <ele>766.2</ele>
        <time>2022-02-10T10:28:45Z</time>
        <extensions>
          <gpxtpx:TrackPointExtension xmlns:gpxtpx="http://www.garmin.com/xmlschemas/TrackPointExtension/v1">
            <gpxtpx:hr>154</gpxtpx:hr>
          </gpxtpx:TrackPointExtension>
        </extensions>
      </trkpt>
      <trkpt lat="44.16541" lon="3.19352">
        <ele>766.2</ele>
        <time>2022-02-10T10:28:47Z</time>
        <extensions>
          <gpxtpx:TrackPointExtension xmlns:gpxtpx="http://www.garmin.com/xmlschemas/TrackPointExtension/v1">
            <gpxtpx:hr>156</gpxtpx:hr>
          </gpxtpx:TrackPointExtension>
        </extensions>
      </trkpt>
      <trkpt lat="44.1654" lon="3.19348">
        <ele>766.4</ele>
        <time>2022-02-10T10:28:49Z</time>
        <extensions>
          <gpxtpx:TrackPointExtension xmlns:gpxtpx="http://www.garmin.com/xmlschemas/TrackPointExtension/v1">
            <gpxtpx:hr>158</gpxtpx:hr>
          </gpxtpx:TrackPointExtension>
        </extensions>
      </trkpt>
      <trkpt lat="44.16538" lon="3.19346">
        <ele>766.6</ele>
        <time>2022-02-10T10:28:51Z</time>
        <extensions>
          <gpxtpx:TrackPointExtension xmlns:gpxtpx="http://www.garmin.com/xmlschemas/TrackPointExtension/v1">
            <gpxtpx:hr>159</gpxtpx:hr>
          </gpxtpx:TrackPointExtension>
        </extensions>
      </trkpt>
      <trkpt lat="44.16536" lon="3.19344">
        <ele>767.4</ele>
        <time>2022-02-10T10:28:53Z</time>
        <extensions>
          <gpxtpx:TrackPointExtension xmlns:gpxtpx="http://www.garmin.com/xmlschemas/TrackPointExtension/v1">
            <gpxtpx:hr>162</gpxtpx:hr>
          </gpxtpx:TrackPointExtension>
        </extensions>
      </trkpt>
      <trkpt lat="44.16534" lon="3.19343">
        <ele>767.8</ele>
        <time>2022-02-10T10:28:55Z</time>
        <extensions>
          <gpxtpx:TrackPointExtension xmlns:gpxtpx="http://www.garmin.com/xmlschemas/TrackPointExtension/v1">
            <gpxtpx:hr>163</gpxtpx:hr>
          </gpxtpx:TrackPointExtension>
        </extensions>
      </trkpt>
      <trkpt lat="44.16532" lon="3.19342">
        <ele>768</ele>
        <time>2022-02-10T10:28:57Z</time>
        <extensions>
          <gpxtpx:TrackPointExtension xmlns:gpxtpx="http://www.garmin.com/xmlschemas/TrackPointExtension/v1">
            <gpxtpx:hr>163</gpxtpx:hr>
          </gpxtpx:TrackPointExtension>
        </extensions>
      </trkpt>
      <trkpt lat="44.1653" lon="3.1934">
        <ele>768.4</ele>
        <time>2022-02-10T10:28:59Z</time>
        <extensions>
          <gpxtpx:TrackPointExtension xmlns:gpxtpx="http://www.garmin.com/xmlschemas/TrackPointExtension/v1">
            <gpxtpx:hr>162</gpxtpx:hr>
          </gpxtpx:TrackPointExtension>
        </extensions>
      </trkpt>
      <trkpt lat="44.16527" lon="3.19336">
        <ele>768.6</ele>
        <time>2022-02-10T10:29:01Z</time>
        <extensions>
          <gpxtpx:TrackPointExtension xmlns:gpxtpx="http://www.garmin.com/xmlschemas/TrackPointExtension/v1">
            <gpxtpx:hr>162</gpxtpx:hr>
          </gpxtpx:TrackPointExtension>
        </extensions>
      </trkpt>
      <trkpt lat="44.16525" lon="3.1933">
        <ele>768.8</ele>
        <time>2022-02-10T10:29:03Z</time>
        <extensions>
          <gpxtpx:TrackPointExtension xmlns:gpxtpx="http://www.garmin.com/xmlschemas/TrackPointExtension/v1">
            <gpxtpx:hr>162</gpxtpx:hr>
          </gpxtpx:TrackPointExtension>
        </extensions>
      </trkpt>
      <trkpt lat="44.16525" lon="3.19328">
        <ele>769</ele>
        <time>2022-02-10T10:29:04Z</time>
        <extensions>
          <gpxtpx:TrackPointExtension xmlns:gpxtpx="http://www.garmin.com/xmlschemas/TrackPointExtension/v1">
            <gpxtpx:hr>162</gpxtpx:hr>
          </gpxtpx:TrackPointExtension>
        </extensions>
      </trkpt>
      <trkpt lat="44.16526" lon="3.19322">
        <ele>769</ele>
        <time>2022-02-10T10:29:06Z</time>
        <extensions>
          <gpxtpx:TrackPointExtension xmlns:gpxtpx="http://www.garmin.com/xmlschemas/TrackPointExtension/v1">
            <gpxtpx:hr>163</gpxtpx:hr>
          </gpxtpx:TrackPointExtension>
        </extensions>
      </trkpt>
      <trkpt lat="44.16528" lon="3.19316">
        <ele>769.4</ele>
        <time>2022-02-10T10:29:08Z</time>
        <extensions>
          <gpxtpx:TrackPointExtension xmlns:gpxtpx="http://www.garmin.com/xmlschemas/TrackPointExtension/v1">
            <gpxtpx:hr>164</gpxtpx:hr>
          </gpxtpx:TrackPointExtension>
        </extensions>
      </trkpt>
      <trkpt lat="44.16529" lon="3.19314">
        <ele>769.4</ele>
        <time>2022-02-10T10:29:09Z</time>
        <extensions>
          <gpxtpx:TrackPointExtension xmlns:gpxtpx="http://www.garmin.com/xmlschemas/TrackPointExtension/v1">
            <gpxtpx:hr>165</gpxtpx:hr>
          </gpxtpx:TrackPointExtension>
        </extensions>
      </trkpt>
      <trkpt lat="44.1653" lon="3.19311">
        <ele>769.4</ele>
        <time>2022-02-10T10:29:10Z</time>
        <extensions>
          <gpxtpx:TrackPointExtension xmlns:gpxtpx="http://www.garmin.com/xmlschemas/TrackPointExtension/v1">
            <gpxtpx:hr>166</gpxtpx:hr>
          </gpxtpx:TrackPointExtension>
        </extensions>
      </trkpt>
      <trkpt lat="44.16533" lon="3.19307">
        <ele>769</ele>
        <time>2022-02-10T10:29:12Z</time>
        <extensions>
          <gpxtpx:TrackPointExtension xmlns:gpxtpx="http://www.garmin.com/xmlschemas/TrackPointExtension/v1">
            <gpxtpx:hr>164</gpxtpx:hr>
          </gpxtpx:TrackPointExtension>
        </extensions>
      </trkpt>
      <trkpt lat="44.16536" lon="3.19303">
        <ele>768.8</ele>
        <time>2022-02-10T10:29:14Z</time>
        <extensions>
          <gpxtpx:TrackPointExtension xmlns:gpxtpx="http://www.garmin.com/xmlschemas/TrackPointExtension/v1">
            <gpxtpx:hr>165</gpxtpx:hr>
          </gpxtpx:TrackPointExtension>
        </extensions>
      </trkpt>
      <trkpt lat="44.16538" lon="3.19301">
        <ele>768.8</ele>
        <time>2022-02-10T10:29:15Z</time>
        <extensions>
          <gpxtpx:TrackPointExtension xmlns:gpxtpx="http://www.garmin.com/xmlschemas/TrackPointExtension/v1">
            <gpxtpx:hr>164</gpxtpx:hr>
          </gpxtpx:TrackPointExtension>
        </extensions>
      </trkpt>
      <trkpt lat="44.1654" lon="3.193">
        <ele>768.8</ele>
        <time>2022-02-10T10:29:16Z</time>
        <extensions>
          <gpxtpx:TrackPointExtension xmlns:gpxtpx="http://www.garmin.com/xmlschemas/TrackPointExtension/v1">
            <gpxtpx:hr>163</gpxtpx:hr>
          </gpxtpx:TrackPointExtension>
        </extensions>
      </trkpt>
      <trkpt lat="44.16542" lon="3.19298">
        <ele>768.8</ele>
        <time>2022-02-10T10:29:17Z</time>
        <extensions>
          <gpxtpx:TrackPointExtension xmlns:gpxtpx="http://www.garmin.com/xmlschemas/TrackPointExtension/v1">
            <gpxtpx:hr>163</gpxtpx:hr>
          </gpxtpx:TrackPointExtension>
        </extensions>
      </trkpt>
      <trkpt lat="44.16544" lon="3.19297">
        <ele>768.8</ele>
        <time>2022-02-10T10:29:18Z</time>
        <extensions>
          <gpxtpx:TrackPointExtension xmlns:gpxtpx="http://www.garmin.com/xmlschemas/TrackPointExtension/v1">
            <gpxtpx:hr>163</gpxtpx:hr>
          </gpxtpx:TrackPointExtension>
        </extensions>
      </trkpt>
      <trkpt lat="44.16549" lon="3.19295">
        <ele>768.8</ele>
        <time>2022-02-10T10:29:20Z</time>
        <extensions>
          <gpxtpx:TrackPointExtension xmlns:gpxtpx="http://www.garmin.com/xmlschemas/TrackPointExtension/v1">
            <gpxtpx:hr>163</gpxtpx:hr>
          </gpxtpx:TrackPointExtension>
        </extensions>
      </trkpt>
      <trkpt lat="44.1655" lon="3.19293">
        <ele>768.8</ele>
        <time>2022-02-10T10:29:21Z</time>
        <extensions>
          <gpxtpx:TrackPointExtension xmlns:gpxtpx="http://www.garmin.com/xmlschemas/TrackPointExtension/v1">
            <gpxtpx:hr>164</gpxtpx:hr>
          </gpxtpx:TrackPointExtension>
        </extensions>
      </trkpt>
      <trkpt lat="44.16554" lon="3.1929">
        <ele>768.8</ele>
        <time>2022-02-10T10:29:23Z</time>
        <extensions>
          <gpxtpx:TrackPointExtension xmlns:gpxtpx="http://www.garmin.com/xmlschemas/TrackPointExtension/v1">
            <gpxtpx:hr>163</gpxtpx:hr>
          </gpxtpx:TrackPointExtension>
        </extensions>
      </trkpt>
      <trkpt lat="44.16556" lon="3.19287">
        <ele>768.8</ele>
        <time>2022-02-10T10:29:24Z</time>
        <extensions>
          <gpxtpx:TrackPointExtension xmlns:gpxtpx="http://www.garmin.com/xmlschemas/TrackPointExtension/v1">
            <gpxtpx:hr>163</gpxtpx:hr>
          </gpxtpx:TrackPointExtension>
        </extensions>
      </trkpt>
      <trkpt lat="44.16557" lon="3.19285">
        <ele>768.8</ele>
        <time>2022-02-10T10:29:25Z</time>
        <extensions>
          <gpxtpx:TrackPointExtension xmlns:gpxtpx="http://www.garmin.com/xmlschemas/TrackPointExtension/v1">
            <gpxtpx:hr>163</gpxtpx:hr>
          </gpxtpx:TrackPointExtension>
        </extensions>
      </trkpt>
      <trkpt lat="44.1656" lon="3.1928">
        <ele>768.8</ele>
        <time>2022-02-10T10:29:27Z</time>
        <extensions>
          <gpxtpx:TrackPointExtension xmlns:gpxtpx="http://www.garmin.com/xmlschemas/TrackPointExtension/v1">
            <gpxtpx:hr>164</gpxtpx:hr>
          </gpxtpx:TrackPointExtension>
        </extensions>
      </trkpt>
      <trkpt lat="44.16561" lon="3.19276">
        <ele>768.8</ele>
        <time>2022-02-10T10:29:28Z</time>
        <extensions>
          <gpxtpx:TrackPointExtension xmlns:gpxtpx="http://www.garmin.com/xmlschemas/TrackPointExtension/v1">
            <gpxtpx:hr>164</gpxtpx:hr>
          </gpxtpx:TrackPointExtension>
        </extensions>
      </trkpt>
      <trkpt lat="44.16562" lon="3.19273">
        <ele>768.8</ele>
        <time>2022-02-10T10:29:29Z</time>
        <extensions>
          <gpxtpx:TrackPointExtension xmlns:gpxtpx="http://www.garmin.com/xmlschemas/TrackPointExtension/v1">
            <gpxtpx:hr>163</gpxtpx:hr>
          </gpxtpx:TrackPointExtension>
        </extensions>
      </trkpt>
      <trkpt lat="44.16564" lon="3.19267">
        <ele>768.8</ele>
        <time>2022-02-10T10:29:31Z</time>
        <extensions>
          <gpxtpx:TrackPointExtension xmlns:gpxtpx="http://www.garmin.com/xmlschemas/TrackPointExtension/v1">
            <gpxtpx:hr>164</gpxtpx:hr>
          </gpxtpx:TrackPointExtension>
        </extensions>
      </trkpt>
      <trkpt lat="44.16565" lon="3.19264">
        <ele>768.8</ele>
        <time>2022-02-10T10:29:32Z</time>
        <extensions>
          <gpxtpx:TrackPointExtension xmlns:gpxtpx="http://www.garmin.com/xmlschemas/TrackPointExtension/v1">
            <gpxtpx:hr>163</gpxtpx:hr>
          </gpxtpx:TrackPointExtension>
        </extensions>
      </trkpt>
      <trkpt lat="44.16566" lon="3.19261">
        <ele>769</ele>
        <time>2022-02-10T10:29:33Z</time>
        <extensions>
          <gpxtpx:TrackPointExtension xmlns:gpxtpx="http://www.garmin.com/xmlschemas/TrackPointExtension/v1">
            <gpxtpx:hr>162</gpxtpx:hr>
          </gpxtpx:TrackPointExtension>
        </extensions>
      </trkpt>
      <trkpt lat="44.16568" lon="3.19256">
        <ele>769</ele>
        <time>2022-02-10T10:29:35Z</time>
        <extensions>
          <gpxtpx:TrackPointExtension xmlns:gpxtpx="http://www.garmin.com/xmlschemas/TrackPointExtension/v1">
            <gpxtpx:hr>162</gpxtpx:hr>
          </gpxtpx:TrackPointExtension>
        </extensions>
      </trkpt>
      <trkpt lat="44.16569" lon="3.19253">
        <ele>769</ele>
        <time>2022-02-10T10:29:36Z</time>
        <extensions>
          <gpxtpx:TrackPointExtension xmlns:gpxtpx="http://www.garmin.com/xmlschemas/TrackPointExtension/v1">
            <gpxtpx:hr>163</gpxtpx:hr>
          </gpxtpx:TrackPointExtension>
        </extensions>
      </trkpt>
      <trkpt lat="44.16571" lon="3.19251">
        <ele>769.2</ele>
        <time>2022-02-10T10:29:37Z</time>
        <extensions>
          <gpxtpx:TrackPointExtension xmlns:gpxtpx="http://www.garmin.com/xmlschemas/TrackPointExtension/v1">
            <gpxtpx:hr>164</gpxtpx:hr>
          </gpxtpx:TrackPointExtension>
        </extensions>
      </trkpt>
      <trkpt lat="44.16573" lon="3.19246">
        <ele>769.4</ele>
        <time>2022-02-10T10:29:39Z</time>
        <extensions>
          <gpxtpx:TrackPointExtension xmlns:gpxtpx="http://www.garmin.com/xmlschemas/TrackPointExtension/v1">
            <gpxtpx:hr>164</gpxtpx:hr>
          </gpxtpx:TrackPointExtension>
        </extensions>
      </trkpt>
      <trkpt lat="44.16576" lon="3.19242">
        <ele>769.8</ele>
        <time>2022-02-10T10:29:41Z</time>
        <extensions>
          <gpxtpx:TrackPointExtension xmlns:gpxtpx="http://www.garmin.com/xmlschemas/TrackPointExtension/v1">
            <gpxtpx:hr>164</gpxtpx:hr>
          </gpxtpx:TrackPointExtension>
        </extensions>
      </trkpt>
      <trkpt lat="44.1658" lon="3.19238">
        <ele>770</ele>
        <time>2022-02-10T10:29:43Z</time>
        <extensions>
          <gpxtpx:TrackPointExtension xmlns:gpxtpx="http://www.garmin.com/xmlschemas/TrackPointExtension/v1">
            <gpxtpx:hr>164</gpxtpx:hr>
          </gpxtpx:TrackPointExtension>
        </extensions>
      </trkpt>
      <trkpt lat="44.16584" lon="3.19232">
        <ele>770.4</ele>
        <time>2022-02-10T10:29:46Z</time>
        <extensions>
          <gpxtpx:TrackPointExtension xmlns:gpxtpx="http://www.garmin.com/xmlschemas/TrackPointExtension/v1">
            <gpxtpx:hr>164</gpxtpx:hr>
          </gpxtpx:TrackPointExtension>
        </extensions>
      </trkpt>
      <trkpt lat="44.16587" lon="3.19226">
        <ele>770.4</ele>
        <time>2022-02-10T10:29:48Z</time>
        <extensions>
          <gpxtpx:TrackPointExtension xmlns:gpxtpx="http://www.garmin.com/xmlschemas/TrackPointExtension/v1">
            <gpxtpx:hr>164</gpxtpx:hr>
          </gpxtpx:TrackPointExtension>
        </extensions>
      </trkpt>
      <trkpt lat="44.16587" lon="3.19225">
        <ele>770.6</ele>
        <time>2022-02-10T10:29:49Z</time>
        <extensions>
          <gpxtpx:TrackPointExtension xmlns:gpxtpx="http://www.garmin.com/xmlschemas/TrackPointExtension/v1">
            <gpxtpx:hr>165</gpxtpx:hr>
          </gpxtpx:TrackPointExtension>
        </extensions>
      </trkpt>
      <trkpt lat="44.16589" lon="3.1922">
        <ele>770.8</ele>
        <time>2022-02-10T10:29:51Z</time>
        <extensions>
          <gpxtpx:TrackPointExtension xmlns:gpxtpx="http://www.garmin.com/xmlschemas/TrackPointExtension/v1">
            <gpxtpx:hr>165</gpxtpx:hr>
          </gpxtpx:TrackPointExtension>
        </extensions>
      </trkpt>
      <trkpt lat="44.1659" lon="3.19218">
        <ele>770.8</ele>
        <time>2022-02-10T10:29:52Z</time>
        <extensions>
          <gpxtpx:TrackPointExtension xmlns:gpxtpx="http://www.garmin.com/xmlschemas/TrackPointExtension/v1">
            <gpxtpx:hr>165</gpxtpx:hr>
          </gpxtpx:TrackPointExtension>
        </extensions>
      </trkpt>
      <trkpt lat="44.16591" lon="3.19215">
        <ele>770.8</ele>
        <time>2022-02-10T10:29:53Z</time>
        <extensions>
          <gpxtpx:TrackPointExtension xmlns:gpxtpx="http://www.garmin.com/xmlschemas/TrackPointExtension/v1">
            <gpxtpx:hr>165</gpxtpx:hr>
          </gpxtpx:TrackPointExtension>
        </extensions>
      </trkpt>
      <trkpt lat="44.16592" lon="3.1921">
        <ele>771</ele>
        <time>2022-02-10T10:29:55Z</time>
        <extensions>
          <gpxtpx:TrackPointExtension xmlns:gpxtpx="http://www.garmin.com/xmlschemas/TrackPointExtension/v1">
            <gpxtpx:hr>165</gpxtpx:hr>
          </gpxtpx:TrackPointExtension>
        </extensions>
      </trkpt>
      <trkpt lat="44.16593" lon="3.19208">
        <ele>771</ele>
        <time>2022-02-10T10:29:56Z</time>
        <extensions>
          <gpxtpx:TrackPointExtension xmlns:gpxtpx="http://www.garmin.com/xmlschemas/TrackPointExtension/v1">
            <gpxtpx:hr>165</gpxtpx:hr>
          </gpxtpx:TrackPointExtension>
        </extensions>
      </trkpt>
      <trkpt lat="44.16594" lon="3.19205">
        <ele>771.4</ele>
        <time>2022-02-10T10:29:57Z</time>
        <extensions>
          <gpxtpx:TrackPointExtension xmlns:gpxtpx="http://www.garmin.com/xmlschemas/TrackPointExtension/v1">
            <gpxtpx:hr>165</gpxtpx:hr>
          </gpxtpx:TrackPointExtension>
        </extensions>
      </trkpt>
      <trkpt lat="44.16594" lon="3.19198">
        <ele>771.4</ele>
        <time>2022-02-10T10:30:00Z</time>
        <extensions>
          <gpxtpx:TrackPointExtension xmlns:gpxtpx="http://www.garmin.com/xmlschemas/TrackPointExtension/v1">
            <gpxtpx:hr>165</gpxtpx:hr>
          </gpxtpx:TrackPointExtension>
        </extensions>
      </trkpt>
      <trkpt lat="44.16593" lon="3.19195">
        <ele>771.6</ele>
        <time>2022-02-10T10:30:02Z</time>
        <extensions>
          <gpxtpx:TrackPointExtension xmlns:gpxtpx="http://www.garmin.com/xmlschemas/TrackPointExtension/v1">
            <gpxtpx:hr>166</gpxtpx:hr>
          </gpxtpx:TrackPointExtension>
        </extensions>
      </trkpt>
      <trkpt lat="44.16593" lon="3.19193">
        <ele>771.6</ele>
        <time>2022-02-10T10:30:03Z</time>
        <extensions>
          <gpxtpx:TrackPointExtension xmlns:gpxtpx="http://www.garmin.com/xmlschemas/TrackPointExtension/v1">
            <gpxtpx:hr>167</gpxtpx:hr>
          </gpxtpx:TrackPointExtension>
        </extensions>
      </trkpt>
      <trkpt lat="44.16592" lon="3.19191">
        <ele>771.8</ele>
        <time>2022-02-10T10:30:04Z</time>
        <extensions>
          <gpxtpx:TrackPointExtension xmlns:gpxtpx="http://www.garmin.com/xmlschemas/TrackPointExtension/v1">
            <gpxtpx:hr>167</gpxtpx:hr>
          </gpxtpx:TrackPointExtension>
        </extensions>
      </trkpt>
      <trkpt lat="44.16591" lon="3.19189">
        <ele>772.2</ele>
        <time>2022-02-10T10:30:05Z</time>
        <extensions>
          <gpxtpx:TrackPointExtension xmlns:gpxtpx="http://www.garmin.com/xmlschemas/TrackPointExtension/v1">
            <gpxtpx:hr>167</gpxtpx:hr>
          </gpxtpx:TrackPointExtension>
        </extensions>
      </trkpt>
      <trkpt lat="44.16591" lon="3.19187">
        <ele>772.2</ele>
        <time>2022-02-10T10:30:06Z</time>
        <extensions>
          <gpxtpx:TrackPointExtension xmlns:gpxtpx="http://www.garmin.com/xmlschemas/TrackPointExtension/v1">
            <gpxtpx:hr>166</gpxtpx:hr>
          </gpxtpx:TrackPointExtension>
        </extensions>
      </trkpt>
      <trkpt lat="44.1659" lon="3.19184">
        <ele>772.2</ele>
        <time>2022-02-10T10:30:07Z</time>
        <extensions>
          <gpxtpx:TrackPointExtension xmlns:gpxtpx="http://www.garmin.com/xmlschemas/TrackPointExtension/v1">
            <gpxtpx:hr>166</gpxtpx:hr>
          </gpxtpx:TrackPointExtension>
        </extensions>
      </trkpt>
      <trkpt lat="44.1659" lon="3.19182">
        <ele>772.6</ele>
        <time>2022-02-10T10:30:08Z</time>
        <extensions>
          <gpxtpx:TrackPointExtension xmlns:gpxtpx="http://www.garmin.com/xmlschemas/TrackPointExtension/v1">
            <gpxtpx:hr>166</gpxtpx:hr>
          </gpxtpx:TrackPointExtension>
        </extensions>
      </trkpt>
      <trkpt lat="44.16589" lon="3.1918">
        <ele>773</ele>
        <time>2022-02-10T10:30:09Z</time>
        <extensions>
          <gpxtpx:TrackPointExtension xmlns:gpxtpx="http://www.garmin.com/xmlschemas/TrackPointExtension/v1">
            <gpxtpx:hr>166</gpxtpx:hr>
          </gpxtpx:TrackPointExtension>
        </extensions>
      </trkpt>
      <trkpt lat="44.16588" lon="3.19179">
        <ele>773</ele>
        <time>2022-02-10T10:30:10Z</time>
        <extensions>
          <gpxtpx:TrackPointExtension xmlns:gpxtpx="http://www.garmin.com/xmlschemas/TrackPointExtension/v1">
            <gpxtpx:hr>166</gpxtpx:hr>
          </gpxtpx:TrackPointExtension>
        </extensions>
      </trkpt>
      <trkpt lat="44.16588" lon="3.19177">
        <ele>773</ele>
        <time>2022-02-10T10:30:11Z</time>
        <extensions>
          <gpxtpx:TrackPointExtension xmlns:gpxtpx="http://www.garmin.com/xmlschemas/TrackPointExtension/v1">
            <gpxtpx:hr>166</gpxtpx:hr>
          </gpxtpx:TrackPointExtension>
        </extensions>
      </trkpt>
      <trkpt lat="44.16587" lon="3.19175">
        <ele>773.2</ele>
        <time>2022-02-10T10:30:12Z</time>
        <extensions>
          <gpxtpx:TrackPointExtension xmlns:gpxtpx="http://www.garmin.com/xmlschemas/TrackPointExtension/v1">
            <gpxtpx:hr>167</gpxtpx:hr>
          </gpxtpx:TrackPointExtension>
        </extensions>
      </trkpt>
      <trkpt lat="44.16587" lon="3.19173">
        <ele>773.6</ele>
        <time>2022-02-10T10:30:13Z</time>
        <extensions>
          <gpxtpx:TrackPointExtension xmlns:gpxtpx="http://www.garmin.com/xmlschemas/TrackPointExtension/v1">
            <gpxtpx:hr>168</gpxtpx:hr>
          </gpxtpx:TrackPointExtension>
        </extensions>
      </trkpt>
      <trkpt lat="44.16586" lon="3.19171">
        <ele>773.8</ele>
        <time>2022-02-10T10:30:14Z</time>
        <extensions>
          <gpxtpx:TrackPointExtension xmlns:gpxtpx="http://www.garmin.com/xmlschemas/TrackPointExtension/v1">
            <gpxtpx:hr>167</gpxtpx:hr>
          </gpxtpx:TrackPointExtension>
        </extensions>
      </trkpt>
      <trkpt lat="44.16586" lon="3.19169">
        <ele>773.8</ele>
        <time>2022-02-10T10:30:15Z</time>
        <extensions>
          <gpxtpx:TrackPointExtension xmlns:gpxtpx="http://www.garmin.com/xmlschemas/TrackPointExtension/v1">
            <gpxtpx:hr>167</gpxtpx:hr>
          </gpxtpx:TrackPointExtension>
        </extensions>
      </trkpt>
      <trkpt lat="44.16585" lon="3.19167">
        <ele>774.2</ele>
        <time>2022-02-10T10:30:16Z</time>
        <extensions>
          <gpxtpx:TrackPointExtension xmlns:gpxtpx="http://www.garmin.com/xmlschemas/TrackPointExtension/v1">
            <gpxtpx:hr>167</gpxtpx:hr>
          </gpxtpx:TrackPointExtension>
        </extensions>
      </trkpt>
      <trkpt lat="44.16584" lon="3.19165">
        <ele>774.2</ele>
        <time>2022-02-10T10:30:17Z</time>
        <extensions>
          <gpxtpx:TrackPointExtension xmlns:gpxtpx="http://www.garmin.com/xmlschemas/TrackPointExtension/v1">
            <gpxtpx:hr>167</gpxtpx:hr>
          </gpxtpx:TrackPointExtension>
        </extensions>
      </trkpt>
      <trkpt lat="44.16584" lon="3.19162">
        <ele>774.2</ele>
        <time>2022-02-10T10:30:18Z</time>
        <extensions>
          <gpxtpx:TrackPointExtension xmlns:gpxtpx="http://www.garmin.com/xmlschemas/TrackPointExtension/v1">
            <gpxtpx:hr>167</gpxtpx:hr>
          </gpxtpx:TrackPointExtension>
        </extensions>
      </trkpt>
      <trkpt lat="44.16583" lon="3.1916">
        <ele>774.2</ele>
        <time>2022-02-10T10:30:19Z</time>
        <extensions>
          <gpxtpx:TrackPointExtension xmlns:gpxtpx="http://www.garmin.com/xmlschemas/TrackPointExtension/v1">
            <gpxtpx:hr>167</gpxtpx:hr>
          </gpxtpx:TrackPointExtension>
        </extensions>
      </trkpt>
      <trkpt lat="44.16583" lon="3.19158">
        <ele>774.4</ele>
        <time>2022-02-10T10:30:20Z</time>
        <extensions>
          <gpxtpx:TrackPointExtension xmlns:gpxtpx="http://www.garmin.com/xmlschemas/TrackPointExtension/v1">
            <gpxtpx:hr>167</gpxtpx:hr>
          </gpxtpx:TrackPointExtension>
        </extensions>
      </trkpt>
      <trkpt lat="44.16583" lon="3.19156">
        <ele>774.6</ele>
        <time>2022-02-10T10:30:21Z</time>
        <extensions>
          <gpxtpx:TrackPointExtension xmlns:gpxtpx="http://www.garmin.com/xmlschemas/TrackPointExtension/v1">
            <gpxtpx:hr>167</gpxtpx:hr>
          </gpxtpx:TrackPointExtension>
        </extensions>
      </trkpt>
      <trkpt lat="44.16582" lon="3.19154">
        <ele>774.6</ele>
        <time>2022-02-10T10:30:22Z</time>
        <extensions>
          <gpxtpx:TrackPointExtension xmlns:gpxtpx="http://www.garmin.com/xmlschemas/TrackPointExtension/v1">
            <gpxtpx:hr>167</gpxtpx:hr>
          </gpxtpx:TrackPointExtension>
        </extensions>
      </trkpt>
      <trkpt lat="44.16582" lon="3.19152">
        <ele>774.8</ele>
        <time>2022-02-10T10:30:23Z</time>
        <extensions>
          <gpxtpx:TrackPointExtension xmlns:gpxtpx="http://www.garmin.com/xmlschemas/TrackPointExtension/v1">
            <gpxtpx:hr>167</gpxtpx:hr>
          </gpxtpx:TrackPointExtension>
        </extensions>
      </trkpt>
      <trkpt lat="44.16582" lon="3.1915">
        <ele>774.8</ele>
        <time>2022-02-10T10:30:24Z</time>
        <extensions>
          <gpxtpx:TrackPointExtension xmlns:gpxtpx="http://www.garmin.com/xmlschemas/TrackPointExtension/v1">
            <gpxtpx:hr>167</gpxtpx:hr>
          </gpxtpx:TrackPointExtension>
        </extensions>
      </trkpt>
      <trkpt lat="44.16581" lon="3.19147">
        <ele>775.2</ele>
        <time>2022-02-10T10:30:25Z</time>
        <extensions>
          <gpxtpx:TrackPointExtension xmlns:gpxtpx="http://www.garmin.com/xmlschemas/TrackPointExtension/v1">
            <gpxtpx:hr>167</gpxtpx:hr>
          </gpxtpx:TrackPointExtension>
        </extensions>
      </trkpt>
      <trkpt lat="44.16582" lon="3.19145">
        <ele>775.2</ele>
        <time>2022-02-10T10:30:26Z</time>
        <extensions>
          <gpxtpx:TrackPointExtension xmlns:gpxtpx="http://www.garmin.com/xmlschemas/TrackPointExtension/v1">
            <gpxtpx:hr>167</gpxtpx:hr>
          </gpxtpx:TrackPointExtension>
        </extensions>
      </trkpt>
      <trkpt lat="44.16582" lon="3.19143">
        <ele>775.6</ele>
        <time>2022-02-10T10:30:27Z</time>
        <extensions>
          <gpxtpx:TrackPointExtension xmlns:gpxtpx="http://www.garmin.com/xmlschemas/TrackPointExtension/v1">
            <gpxtpx:hr>168</gpxtpx:hr>
          </gpxtpx:TrackPointExtension>
        </extensions>
      </trkpt>
      <trkpt lat="44.16582" lon="3.19141">
        <ele>775.6</ele>
        <time>2022-02-10T10:30:28Z</time>
        <extensions>
          <gpxtpx:TrackPointExtension xmlns:gpxtpx="http://www.garmin.com/xmlschemas/TrackPointExtension/v1">
            <gpxtpx:hr>168</gpxtpx:hr>
          </gpxtpx:TrackPointExtension>
        </extensions>
      </trkpt>
      <trkpt lat="44.16583" lon="3.19138">
        <ele>775.8</ele>
        <time>2022-02-10T10:30:29Z</time>
        <extensions>
          <gpxtpx:TrackPointExtension xmlns:gpxtpx="http://www.garmin.com/xmlschemas/TrackPointExtension/v1">
            <gpxtpx:hr>169</gpxtpx:hr>
          </gpxtpx:TrackPointExtension>
        </extensions>
      </trkpt>
      <trkpt lat="44.16583" lon="3.19136">
        <ele>776.2</ele>
        <time>2022-02-10T10:30:30Z</time>
        <extensions>
          <gpxtpx:TrackPointExtension xmlns:gpxtpx="http://www.garmin.com/xmlschemas/TrackPointExtension/v1">
            <gpxtpx:hr>169</gpxtpx:hr>
          </gpxtpx:TrackPointExtension>
        </extensions>
      </trkpt>
      <trkpt lat="44.16583" lon="3.19134">
        <ele>776.4</ele>
        <time>2022-02-10T10:30:31Z</time>
        <extensions>
          <gpxtpx:TrackPointExtension xmlns:gpxtpx="http://www.garmin.com/xmlschemas/TrackPointExtension/v1">
            <gpxtpx:hr>169</gpxtpx:hr>
          </gpxtpx:TrackPointExtension>
        </extensions>
      </trkpt>
      <trkpt lat="44.16584" lon="3.19131">
        <ele>776.4</ele>
        <time>2022-02-10T10:30:32Z</time>
        <extensions>
          <gpxtpx:TrackPointExtension xmlns:gpxtpx="http://www.garmin.com/xmlschemas/TrackPointExtension/v1">
            <gpxtpx:hr>169</gpxtpx:hr>
          </gpxtpx:TrackPointExtension>
        </extensions>
      </trkpt>
      <trkpt lat="44.16585" lon="3.19129">
        <ele>776.6</ele>
        <time>2022-02-10T10:30:33Z</time>
        <extensions>
          <gpxtpx:TrackPointExtension xmlns:gpxtpx="http://www.garmin.com/xmlschemas/TrackPointExtension/v1">
            <gpxtpx:hr>169</gpxtpx:hr>
          </gpxtpx:TrackPointExtension>
        </extensions>
      </trkpt>
      <trkpt lat="44.16585" lon="3.19126">
        <ele>776.6</ele>
        <time>2022-02-10T10:30:34Z</time>
        <extensions>
          <gpxtpx:TrackPointExtension xmlns:gpxtpx="http://www.garmin.com/xmlschemas/TrackPointExtension/v1">
            <gpxtpx:hr>169</gpxtpx:hr>
          </gpxtpx:TrackPointExtension>
        </extensions>
      </trkpt>
      <trkpt lat="44.16586" lon="3.19123">
        <ele>776.6</ele>
        <time>2022-02-10T10:30:35Z</time>
        <extensions>
          <gpxtpx:TrackPointExtension xmlns:gpxtpx="http://www.garmin.com/xmlschemas/TrackPointExtension/v1">
            <gpxtpx:hr>170</gpxtpx:hr>
          </gpxtpx:TrackPointExtension>
        </extensions>
      </trkpt>
      <trkpt lat="44.16586" lon="3.19121">
        <ele>777</ele>
        <time>2022-02-10T10:30:36Z</time>
        <extensions>
          <gpxtpx:TrackPointExtension xmlns:gpxtpx="http://www.garmin.com/xmlschemas/TrackPointExtension/v1">
            <gpxtpx:hr>171</gpxtpx:hr>
          </gpxtpx:TrackPointExtension>
        </extensions>
      </trkpt>
      <trkpt lat="44.16587" lon="3.19118">
        <ele>777.4</ele>
        <time>2022-02-10T10:30:37Z</time>
        <extensions>
          <gpxtpx:TrackPointExtension xmlns:gpxtpx="http://www.garmin.com/xmlschemas/TrackPointExtension/v1">
            <gpxtpx:hr>172</gpxtpx:hr>
          </gpxtpx:TrackPointExtension>
        </extensions>
      </trkpt>
      <trkpt lat="44.16587" lon="3.19116">
        <ele>777.4</ele>
        <time>2022-02-10T10:30:38Z</time>
        <extensions>
          <gpxtpx:TrackPointExtension xmlns:gpxtpx="http://www.garmin.com/xmlschemas/TrackPointExtension/v1">
            <gpxtpx:hr>172</gpxtpx:hr>
          </gpxtpx:TrackPointExtension>
        </extensions>
      </trkpt>
      <trkpt lat="44.16587" lon="3.19113">
        <ele>777.4</ele>
        <time>2022-02-10T10:30:39Z</time>
        <extensions>
          <gpxtpx:TrackPointExtension xmlns:gpxtpx="http://www.garmin.com/xmlschemas/TrackPointExtension/v1">
            <gpxtpx:hr>172</gpxtpx:hr>
          </gpxtpx:TrackPointExtension>
        </extensions>
      </trkpt>
      <trkpt lat="44.16588" lon="3.19111">
        <ele>777.8</ele>
        <time>2022-02-10T10:30:40Z</time>
        <extensions>
          <gpxtpx:TrackPointExtension xmlns:gpxtpx="http://www.garmin.com/xmlschemas/TrackPointExtension/v1">
            <gpxtpx:hr>172</gpxtpx:hr>
          </gpxtpx:TrackPointExtension>
        </extensions>
      </trkpt>
      <trkpt lat="44.16588" lon="3.19108">
        <ele>778</ele>
        <time>2022-02-10T10:30:41Z</time>
        <extensions>
          <gpxtpx:TrackPointExtension xmlns:gpxtpx="http://www.garmin.com/xmlschemas/TrackPointExtension/v1">
            <gpxtpx:hr>171</gpxtpx:hr>
          </gpxtpx:TrackPointExtension>
        </extensions>
      </trkpt>
      <trkpt lat="44.16588" lon="3.19106">
        <ele>778</ele>
        <time>2022-02-10T10:30:42Z</time>
        <extensions>
          <gpxtpx:TrackPointExtension xmlns:gpxtpx="http://www.garmin.com/xmlschemas/TrackPointExtension/v1">
            <gpxtpx:hr>170</gpxtpx:hr>
          </gpxtpx:TrackPointExtension>
        </extensions>
      </trkpt>
      <trkpt lat="44.16588" lon="3.19103">
        <ele>778</ele>
        <time>2022-02-10T10:30:43Z</time>
        <extensions>
          <gpxtpx:TrackPointExtension xmlns:gpxtpx="http://www.garmin.com/xmlschemas/TrackPointExtension/v1">
            <gpxtpx:hr>171</gpxtpx:hr>
          </gpxtpx:TrackPointExtension>
        </extensions>
      </trkpt>
      <trkpt lat="44.16588" lon="3.19101">
        <ele>778.6</ele>
        <time>2022-02-10T10:30:44Z</time>
        <extensions>
          <gpxtpx:TrackPointExtension xmlns:gpxtpx="http://www.garmin.com/xmlschemas/TrackPointExtension/v1">
            <gpxtpx:hr>172</gpxtpx:hr>
          </gpxtpx:TrackPointExtension>
        </extensions>
      </trkpt>
      <trkpt lat="44.16588" lon="3.19099">
        <ele>778.8</ele>
        <time>2022-02-10T10:30:45Z</time>
        <extensions>
          <gpxtpx:TrackPointExtension xmlns:gpxtpx="http://www.garmin.com/xmlschemas/TrackPointExtension/v1">
            <gpxtpx:hr>172</gpxtpx:hr>
          </gpxtpx:TrackPointExtension>
        </extensions>
      </trkpt>
      <trkpt lat="44.16588" lon="3.19096">
        <ele>779</ele>
        <time>2022-02-10T10:30:46Z</time>
        <extensions>
          <gpxtpx:TrackPointExtension xmlns:gpxtpx="http://www.garmin.com/xmlschemas/TrackPointExtension/v1">
            <gpxtpx:hr>171</gpxtpx:hr>
          </gpxtpx:TrackPointExtension>
        </extensions>
      </trkpt>
      <trkpt lat="44.16588" lon="3.19094">
        <ele>779.4</ele>
        <time>2022-02-10T10:30:47Z</time>
        <extensions>
          <gpxtpx:TrackPointExtension xmlns:gpxtpx="http://www.garmin.com/xmlschemas/TrackPointExtension/v1">
            <gpxtpx:hr>171</gpxtpx:hr>
          </gpxtpx:TrackPointExtension>
        </extensions>
      </trkpt>
      <trkpt lat="44.16588" lon="3.19092">
        <ele>779.6</ele>
        <time>2022-02-10T10:30:48Z</time>
        <extensions>
          <gpxtpx:TrackPointExtension xmlns:gpxtpx="http://www.garmin.com/xmlschemas/TrackPointExtension/v1">
            <gpxtpx:hr>171</gpxtpx:hr>
          </gpxtpx:TrackPointExtension>
        </extensions>
      </trkpt>
      <trkpt lat="44.16588" lon="3.1909">
        <ele>779.6</ele>
        <time>2022-02-10T10:30:49Z</time>
        <extensions>
          <gpxtpx:TrackPointExtension xmlns:gpxtpx="http://www.garmin.com/xmlschemas/TrackPointExtension/v1">
            <gpxtpx:hr>172</gpxtpx:hr>
          </gpxtpx:TrackPointExtension>
        </extensions>
      </trkpt>
      <trkpt lat="44.16588" lon="3.19087">
        <ele>780</ele>
        <time>2022-02-10T10:30:50Z</time>
        <extensions>
          <gpxtpx:TrackPointExtension xmlns:gpxtpx="http://www.garmin.com/xmlschemas/TrackPointExtension/v1">
            <gpxtpx:hr>173</gpxtpx:hr>
          </gpxtpx:TrackPointExtension>
        </extensions>
      </trkpt>
      <trkpt lat="44.16588" lon="3.19085">
        <ele>780.2</ele>
        <time>2022-02-10T10:30:51Z</time>
        <extensions>
          <gpxtpx:TrackPointExtension xmlns:gpxtpx="http://www.garmin.com/xmlschemas/TrackPointExtension/v1">
            <gpxtpx:hr>174</gpxtpx:hr>
          </gpxtpx:TrackPointExtension>
        </extensions>
      </trkpt>
      <trkpt lat="44.16588" lon="3.19083">
        <ele>780.6</ele>
        <time>2022-02-10T10:30:52Z</time>
        <extensions>
          <gpxtpx:TrackPointExtension xmlns:gpxtpx="http://www.garmin.com/xmlschemas/TrackPointExtension/v1">
            <gpxtpx:hr>174</gpxtpx:hr>
          </gpxtpx:TrackPointExtension>
        </extensions>
      </trkpt>
      <trkpt lat="44.16588" lon="3.19081">
        <ele>780.6</ele>
        <time>2022-02-10T10:30:53Z</time>
        <extensions>
          <gpxtpx:TrackPointExtension xmlns:gpxtpx="http://www.garmin.com/xmlschemas/TrackPointExtension/v1">
            <gpxtpx:hr>175</gpxtpx:hr>
          </gpxtpx:TrackPointExtension>
        </extensions>
      </trkpt>
      <trkpt lat="44.16589" lon="3.19079">
        <ele>780.8</ele>
        <time>2022-02-10T10:30:54Z</time>
        <extensions>
          <gpxtpx:TrackPointExtension xmlns:gpxtpx="http://www.garmin.com/xmlschemas/TrackPointExtension/v1">
            <gpxtpx:hr>174</gpxtpx:hr>
          </gpxtpx:TrackPointExtension>
        </extensions>
      </trkpt>
      <trkpt lat="44.16589" lon="3.19076">
        <ele>781.2</ele>
        <time>2022-02-10T10:30:55Z</time>
        <extensions>
          <gpxtpx:TrackPointExtension xmlns:gpxtpx="http://www.garmin.com/xmlschemas/TrackPointExtension/v1">
            <gpxtpx:hr>174</gpxtpx:hr>
          </gpxtpx:TrackPointExtension>
        </extensions>
      </trkpt>
      <trkpt lat="44.1659" lon="3.19073">
        <ele>781.6</ele>
        <time>2022-02-10T10:30:56Z</time>
        <extensions>
          <gpxtpx:TrackPointExtension xmlns:gpxtpx="http://www.garmin.com/xmlschemas/TrackPointExtension/v1">
            <gpxtpx:hr>174</gpxtpx:hr>
          </gpxtpx:TrackPointExtension>
        </extensions>
      </trkpt>
      <trkpt lat="44.1659" lon="3.19071">
        <ele>781.8</ele>
        <time>2022-02-10T10:30:57Z</time>
        <extensions>
          <gpxtpx:TrackPointExtension xmlns:gpxtpx="http://www.garmin.com/xmlschemas/TrackPointExtension/v1">
            <gpxtpx:hr>174</gpxtpx:hr>
          </gpxtpx:TrackPointExtension>
        </extensions>
      </trkpt>
      <trkpt lat="44.16591" lon="3.19068">
        <ele>782</ele>
        <time>2022-02-10T10:30:58Z</time>
        <extensions>
          <gpxtpx:TrackPointExtension xmlns:gpxtpx="http://www.garmin.com/xmlschemas/TrackPointExtension/v1">
            <gpxtpx:hr>174</gpxtpx:hr>
          </gpxtpx:TrackPointExtension>
        </extensions>
      </trkpt>
      <trkpt lat="44.16591" lon="3.19065">
        <ele>782.2</ele>
        <time>2022-02-10T10:30:59Z</time>
        <extensions>
          <gpxtpx:TrackPointExtension xmlns:gpxtpx="http://www.garmin.com/xmlschemas/TrackPointExtension/v1">
            <gpxtpx:hr>174</gpxtpx:hr>
          </gpxtpx:TrackPointExtension>
        </extensions>
      </trkpt>
      <trkpt lat="44.16593" lon="3.19064">
        <ele>782.6</ele>
        <time>2022-02-10T10:31:00Z</time>
        <extensions>
          <gpxtpx:TrackPointExtension xmlns:gpxtpx="http://www.garmin.com/xmlschemas/TrackPointExtension/v1">
            <gpxtpx:hr>175</gpxtpx:hr>
          </gpxtpx:TrackPointExtension>
        </extensions>
      </trkpt>
      <trkpt lat="44.16594" lon="3.19062">
        <ele>782.8</ele>
        <time>2022-02-10T10:31:01Z</time>
        <extensions>
          <gpxtpx:TrackPointExtension xmlns:gpxtpx="http://www.garmin.com/xmlschemas/TrackPointExtension/v1">
            <gpxtpx:hr>174</gpxtpx:hr>
          </gpxtpx:TrackPointExtension>
        </extensions>
      </trkpt>
      <trkpt lat="44.16595" lon="3.19061">
        <ele>782.8</ele>
        <time>2022-02-10T10:31:02Z</time>
        <extensions>
          <gpxtpx:TrackPointExtension xmlns:gpxtpx="http://www.garmin.com/xmlschemas/TrackPointExtension/v1">
            <gpxtpx:hr>174</gpxtpx:hr>
          </gpxtpx:TrackPointExtension>
        </extensions>
      </trkpt>
      <trkpt lat="44.16596" lon="3.1906">
        <ele>783.2</ele>
        <time>2022-02-10T10:31:03Z</time>
        <extensions>
          <gpxtpx:TrackPointExtension xmlns:gpxtpx="http://www.garmin.com/xmlschemas/TrackPointExtension/v1">
            <gpxtpx:hr>175</gpxtpx:hr>
          </gpxtpx:TrackPointExtension>
        </extensions>
      </trkpt>
      <trkpt lat="44.16598" lon="3.19059">
        <ele>783.2</ele>
        <time>2022-02-10T10:31:04Z</time>
        <extensions>
          <gpxtpx:TrackPointExtension xmlns:gpxtpx="http://www.garmin.com/xmlschemas/TrackPointExtension/v1">
            <gpxtpx:hr>175</gpxtpx:hr>
          </gpxtpx:TrackPointExtension>
        </extensions>
      </trkpt>
      <trkpt lat="44.16599" lon="3.19057">
        <ele>783.6</ele>
        <time>2022-02-10T10:31:05Z</time>
        <extensions>
          <gpxtpx:TrackPointExtension xmlns:gpxtpx="http://www.garmin.com/xmlschemas/TrackPointExtension/v1">
            <gpxtpx:hr>175</gpxtpx:hr>
          </gpxtpx:TrackPointExtension>
        </extensions>
      </trkpt>
      <trkpt lat="44.166" lon="3.19056">
        <ele>783.6</ele>
        <time>2022-02-10T10:31:06Z</time>
        <extensions>
          <gpxtpx:TrackPointExtension xmlns:gpxtpx="http://www.garmin.com/xmlschemas/TrackPointExtension/v1">
            <gpxtpx:hr>176</gpxtpx:hr>
          </gpxtpx:TrackPointExtension>
        </extensions>
      </trkpt>
      <trkpt lat="44.16602" lon="3.19055">
        <ele>783.6</ele>
        <time>2022-02-10T10:31:07Z</time>
        <extensions>
          <gpxtpx:TrackPointExtension xmlns:gpxtpx="http://www.garmin.com/xmlschemas/TrackPointExtension/v1">
            <gpxtpx:hr>176</gpxtpx:hr>
          </gpxtpx:TrackPointExtension>
        </extensions>
      </trkpt>
      <trkpt lat="44.16603" lon="3.19053">
        <ele>783.6</ele>
        <time>2022-02-10T10:31:08Z</time>
        <extensions>
          <gpxtpx:TrackPointExtension xmlns:gpxtpx="http://www.garmin.com/xmlschemas/TrackPointExtension/v1">
            <gpxtpx:hr>176</gpxtpx:hr>
          </gpxtpx:TrackPointExtension>
        </extensions>
      </trkpt>
      <trkpt lat="44.16605" lon="3.19052">
        <ele>783.8</ele>
        <time>2022-02-10T10:31:09Z</time>
        <extensions>
          <gpxtpx:TrackPointExtension xmlns:gpxtpx="http://www.garmin.com/xmlschemas/TrackPointExtension/v1">
            <gpxtpx:hr>176</gpxtpx:hr>
          </gpxtpx:TrackPointExtension>
        </extensions>
      </trkpt>
      <trkpt lat="44.16607" lon="3.19051">
        <ele>783.8</ele>
        <time>2022-02-10T10:31:10Z</time>
        <extensions>
          <gpxtpx:TrackPointExtension xmlns:gpxtpx="http://www.garmin.com/xmlschemas/TrackPointExtension/v1">
            <gpxtpx:hr>176</gpxtpx:hr>
          </gpxtpx:TrackPointExtension>
        </extensions>
      </trkpt>
      <trkpt lat="44.16608" lon="3.19049">
        <ele>783.8</ele>
        <time>2022-02-10T10:31:11Z</time>
        <extensions>
          <gpxtpx:TrackPointExtension xmlns:gpxtpx="http://www.garmin.com/xmlschemas/TrackPointExtension/v1">
            <gpxtpx:hr>175</gpxtpx:hr>
          </gpxtpx:TrackPointExtension>
        </extensions>
      </trkpt>
      <trkpt lat="44.1661" lon="3.19048">
        <ele>783.8</ele>
        <time>2022-02-10T10:31:12Z</time>
        <extensions>
          <gpxtpx:TrackPointExtension xmlns:gpxtpx="http://www.garmin.com/xmlschemas/TrackPointExtension/v1">
            <gpxtpx:hr>175</gpxtpx:hr>
          </gpxtpx:TrackPointExtension>
        </extensions>
      </trkpt>
      <trkpt lat="44.16611" lon="3.19046">
        <ele>783.8</ele>
        <time>2022-02-10T10:31:13Z</time>
        <extensions>
          <gpxtpx:TrackPointExtension xmlns:gpxtpx="http://www.garmin.com/xmlschemas/TrackPointExtension/v1">
            <gpxtpx:hr>175</gpxtpx:hr>
          </gpxtpx:TrackPointExtension>
        </extensions>
      </trkpt>
      <trkpt lat="44.16612" lon="3.19044">
        <ele>783.8</ele>
        <time>2022-02-10T10:31:14Z</time>
        <extensions>
          <gpxtpx:TrackPointExtension xmlns:gpxtpx="http://www.garmin.com/xmlschemas/TrackPointExtension/v1">
            <gpxtpx:hr>174</gpxtpx:hr>
          </gpxtpx:TrackPointExtension>
        </extensions>
      </trkpt>
      <trkpt lat="44.16614" lon="3.19041">
        <ele>783.8</ele>
        <time>2022-02-10T10:31:15Z</time>
        <extensions>
          <gpxtpx:TrackPointExtension xmlns:gpxtpx="http://www.garmin.com/xmlschemas/TrackPointExtension/v1">
            <gpxtpx:hr>174</gpxtpx:hr>
          </gpxtpx:TrackPointExtension>
        </extensions>
      </trkpt>
      <trkpt lat="44.16616" lon="3.19037">
        <ele>783.8</ele>
        <time>2022-02-10T10:31:17Z</time>
        <extensions>
          <gpxtpx:TrackPointExtension xmlns:gpxtpx="http://www.garmin.com/xmlschemas/TrackPointExtension/v1">
            <gpxtpx:hr>173</gpxtpx:hr>
          </gpxtpx:TrackPointExtension>
        </extensions>
      </trkpt>
      <trkpt lat="44.16617" lon="3.19035">
        <ele>784</ele>
        <time>2022-02-10T10:31:19Z</time>
        <extensions>
          <gpxtpx:TrackPointExtension xmlns:gpxtpx="http://www.garmin.com/xmlschemas/TrackPointExtension/v1">
            <gpxtpx:hr>173</gpxtpx:hr>
          </gpxtpx:TrackPointExtension>
        </extensions>
      </trkpt>
      <trkpt lat="44.16618" lon="3.19033">
        <ele>784</ele>
        <time>2022-02-10T10:31:20Z</time>
        <extensions>
          <gpxtpx:TrackPointExtension xmlns:gpxtpx="http://www.garmin.com/xmlschemas/TrackPointExtension/v1">
            <gpxtpx:hr>173</gpxtpx:hr>
          </gpxtpx:TrackPointExtension>
        </extensions>
      </trkpt>
      <trkpt lat="44.16619" lon="3.19031">
        <ele>784</ele>
        <time>2022-02-10T10:31:21Z</time>
        <extensions>
          <gpxtpx:TrackPointExtension xmlns:gpxtpx="http://www.garmin.com/xmlschemas/TrackPointExtension/v1">
            <gpxtpx:hr>173</gpxtpx:hr>
          </gpxtpx:TrackPointExtension>
        </extensions>
      </trkpt>
      <trkpt lat="44.1662" lon="3.19029">
        <ele>784</ele>
        <time>2022-02-10T10:31:22Z</time>
        <extensions>
          <gpxtpx:TrackPointExtension xmlns:gpxtpx="http://www.garmin.com/xmlschemas/TrackPointExtension/v1">
            <gpxtpx:hr>172</gpxtpx:hr>
          </gpxtpx:TrackPointExtension>
        </extensions>
      </trkpt>
      <trkpt lat="44.16621" lon="3.19027">
        <ele>784.2</ele>
        <time>2022-02-10T10:31:23Z</time>
        <extensions>
          <gpxtpx:TrackPointExtension xmlns:gpxtpx="http://www.garmin.com/xmlschemas/TrackPointExtension/v1">
            <gpxtpx:hr>172</gpxtpx:hr>
          </gpxtpx:TrackPointExtension>
        </extensions>
      </trkpt>
      <trkpt lat="44.16622" lon="3.19026">
        <ele>784.2</ele>
        <time>2022-02-10T10:31:24Z</time>
        <extensions>
          <gpxtpx:TrackPointExtension xmlns:gpxtpx="http://www.garmin.com/xmlschemas/TrackPointExtension/v1">
            <gpxtpx:hr>173</gpxtpx:hr>
          </gpxtpx:TrackPointExtension>
        </extensions>
      </trkpt>
      <trkpt lat="44.16624" lon="3.19025">
        <ele>784.4</ele>
        <time>2022-02-10T10:31:25Z</time>
        <extensions>
          <gpxtpx:TrackPointExtension xmlns:gpxtpx="http://www.garmin.com/xmlschemas/TrackPointExtension/v1">
            <gpxtpx:hr>172</gpxtpx:hr>
          </gpxtpx:TrackPointExtension>
        </extensions>
      </trkpt>
      <trkpt lat="44.16626" lon="3.19023">
        <ele>784.4</ele>
        <time>2022-02-10T10:31:26Z</time>
        <extensions>
          <gpxtpx:TrackPointExtension xmlns:gpxtpx="http://www.garmin.com/xmlschemas/TrackPointExtension/v1">
            <gpxtpx:hr>171</gpxtpx:hr>
          </gpxtpx:TrackPointExtension>
        </extensions>
      </trkpt>
      <trkpt lat="44.16628" lon="3.19022">
        <ele>784.4</ele>
        <time>2022-02-10T10:31:27Z</time>
        <extensions>
          <gpxtpx:TrackPointExtension xmlns:gpxtpx="http://www.garmin.com/xmlschemas/TrackPointExtension/v1">
            <gpxtpx:hr>170</gpxtpx:hr>
          </gpxtpx:TrackPointExtension>
        </extensions>
      </trkpt>
      <trkpt lat="44.16629" lon="3.19021">
        <ele>784.8</ele>
        <time>2022-02-10T10:31:28Z</time>
        <extensions>
          <gpxtpx:TrackPointExtension xmlns:gpxtpx="http://www.garmin.com/xmlschemas/TrackPointExtension/v1">
            <gpxtpx:hr>170</gpxtpx:hr>
          </gpxtpx:TrackPointExtension>
        </extensions>
      </trkpt>
      <trkpt lat="44.16631" lon="3.1902">
        <ele>785</ele>
        <time>2022-02-10T10:31:29Z</time>
        <extensions>
          <gpxtpx:TrackPointExtension xmlns:gpxtpx="http://www.garmin.com/xmlschemas/TrackPointExtension/v1">
            <gpxtpx:hr>171</gpxtpx:hr>
          </gpxtpx:TrackPointExtension>
        </extensions>
      </trkpt>
      <trkpt lat="44.16633" lon="3.1902">
        <ele>785.2</ele>
        <time>2022-02-10T10:31:30Z</time>
        <extensions>
          <gpxtpx:TrackPointExtension xmlns:gpxtpx="http://www.garmin.com/xmlschemas/TrackPointExtension/v1">
            <gpxtpx:hr>171</gpxtpx:hr>
          </gpxtpx:TrackPointExtension>
        </extensions>
      </trkpt>
      <trkpt lat="44.16635" lon="3.1902">
        <ele>785.2</ele>
        <time>2022-02-10T10:31:31Z</time>
        <extensions>
          <gpxtpx:TrackPointExtension xmlns:gpxtpx="http://www.garmin.com/xmlschemas/TrackPointExtension/v1">
            <gpxtpx:hr>171</gpxtpx:hr>
          </gpxtpx:TrackPointExtension>
        </extensions>
      </trkpt>
      <trkpt lat="44.16636" lon="3.19019">
        <ele>785.2</ele>
        <time>2022-02-10T10:31:32Z</time>
        <extensions>
          <gpxtpx:TrackPointExtension xmlns:gpxtpx="http://www.garmin.com/xmlschemas/TrackPointExtension/v1">
            <gpxtpx:hr>171</gpxtpx:hr>
          </gpxtpx:TrackPointExtension>
        </extensions>
      </trkpt>
      <trkpt lat="44.16638" lon="3.19019">
        <ele>785.6</ele>
        <time>2022-02-10T10:31:33Z</time>
        <extensions>
          <gpxtpx:TrackPointExtension xmlns:gpxtpx="http://www.garmin.com/xmlschemas/TrackPointExtension/v1">
            <gpxtpx:hr>171</gpxtpx:hr>
          </gpxtpx:TrackPointExtension>
        </extensions>
      </trkpt>
      <trkpt lat="44.1664" lon="3.19018">
        <ele>785.6</ele>
        <time>2022-02-10T10:31:34Z</time>
        <extensions>
          <gpxtpx:TrackPointExtension xmlns:gpxtpx="http://www.garmin.com/xmlschemas/TrackPointExtension/v1">
            <gpxtpx:hr>171</gpxtpx:hr>
          </gpxtpx:TrackPointExtension>
        </extensions>
      </trkpt>
      <trkpt lat="44.16642" lon="3.19018">
        <ele>786</ele>
        <time>2022-02-10T10:31:35Z</time>
        <extensions>
          <gpxtpx:TrackPointExtension xmlns:gpxtpx="http://www.garmin.com/xmlschemas/TrackPointExtension/v1">
            <gpxtpx:hr>171</gpxtpx:hr>
          </gpxtpx:TrackPointExtension>
        </extensions>
      </trkpt>
      <trkpt lat="44.16644" lon="3.19018">
        <ele>786.4</ele>
        <time>2022-02-10T10:31:36Z</time>
        <extensions>
          <gpxtpx:TrackPointExtension xmlns:gpxtpx="http://www.garmin.com/xmlschemas/TrackPointExtension/v1">
            <gpxtpx:hr>172</gpxtpx:hr>
          </gpxtpx:TrackPointExtension>
        </extensions>
      </trkpt>
      <trkpt lat="44.16647" lon="3.19017">
        <ele>786.4</ele>
        <time>2022-02-10T10:31:37Z</time>
        <extensions>
          <gpxtpx:TrackPointExtension xmlns:gpxtpx="http://www.garmin.com/xmlschemas/TrackPointExtension/v1">
            <gpxtpx:hr>172</gpxtpx:hr>
          </gpxtpx:TrackPointExtension>
        </extensions>
      </trkpt>
      <trkpt lat="44.16649" lon="3.19017">
        <ele>786.6</ele>
        <time>2022-02-10T10:31:38Z</time>
        <extensions>
          <gpxtpx:TrackPointExtension xmlns:gpxtpx="http://www.garmin.com/xmlschemas/TrackPointExtension/v1">
            <gpxtpx:hr>172</gpxtpx:hr>
          </gpxtpx:TrackPointExtension>
        </extensions>
      </trkpt>
      <trkpt lat="44.16651" lon="3.19017">
        <ele>786.6</ele>
        <time>2022-02-10T10:31:39Z</time>
        <extensions>
          <gpxtpx:TrackPointExtension xmlns:gpxtpx="http://www.garmin.com/xmlschemas/TrackPointExtension/v1">
            <gpxtpx:hr>172</gpxtpx:hr>
          </gpxtpx:TrackPointExtension>
        </extensions>
      </trkpt>
      <trkpt lat="44.16653" lon="3.19016">
        <ele>786.6</ele>
        <time>2022-02-10T10:31:40Z</time>
        <extensions>
          <gpxtpx:TrackPointExtension xmlns:gpxtpx="http://www.garmin.com/xmlschemas/TrackPointExtension/v1">
            <gpxtpx:hr>172</gpxtpx:hr>
          </gpxtpx:TrackPointExtension>
        </extensions>
      </trkpt>
      <trkpt lat="44.16655" lon="3.19016">
        <ele>786.8</ele>
        <time>2022-02-10T10:31:41Z</time>
        <extensions>
          <gpxtpx:TrackPointExtension xmlns:gpxtpx="http://www.garmin.com/xmlschemas/TrackPointExtension/v1">
            <gpxtpx:hr>173</gpxtpx:hr>
          </gpxtpx:TrackPointExtension>
        </extensions>
      </trkpt>
      <trkpt lat="44.16658" lon="3.19016">
        <ele>787.2</ele>
        <time>2022-02-10T10:31:42Z</time>
        <extensions>
          <gpxtpx:TrackPointExtension xmlns:gpxtpx="http://www.garmin.com/xmlschemas/TrackPointExtension/v1">
            <gpxtpx:hr>173</gpxtpx:hr>
          </gpxtpx:TrackPointExtension>
        </extensions>
      </trkpt>
      <trkpt lat="44.1666" lon="3.19015">
        <ele>787.2</ele>
        <time>2022-02-10T10:31:43Z</time>
        <extensions>
          <gpxtpx:TrackPointExtension xmlns:gpxtpx="http://www.garmin.com/xmlschemas/TrackPointExtension/v1">
            <gpxtpx:hr>173</gpxtpx:hr>
          </gpxtpx:TrackPointExtension>
        </extensions>
      </trkpt>
      <trkpt lat="44.16662" lon="3.19015">
        <ele>787.6</ele>
        <time>2022-02-10T10:31:44Z</time>
        <extensions>
          <gpxtpx:TrackPointExtension xmlns:gpxtpx="http://www.garmin.com/xmlschemas/TrackPointExtension/v1">
            <gpxtpx:hr>172</gpxtpx:hr>
          </gpxtpx:TrackPointExtension>
        </extensions>
      </trkpt>
      <trkpt lat="44.16663" lon="3.19015">
        <ele>788</ele>
        <time>2022-02-10T10:31:45Z</time>
        <extensions>
          <gpxtpx:TrackPointExtension xmlns:gpxtpx="http://www.garmin.com/xmlschemas/TrackPointExtension/v1">
            <gpxtpx:hr>173</gpxtpx:hr>
          </gpxtpx:TrackPointExtension>
        </extensions>
      </trkpt>
      <trkpt lat="44.16665" lon="3.19015">
        <ele>788.2</ele>
        <time>2022-02-10T10:31:46Z</time>
        <extensions>
          <gpxtpx:TrackPointExtension xmlns:gpxtpx="http://www.garmin.com/xmlschemas/TrackPointExtension/v1">
            <gpxtpx:hr>173</gpxtpx:hr>
          </gpxtpx:TrackPointExtension>
        </extensions>
      </trkpt>
      <trkpt lat="44.16668" lon="3.19014">
        <ele>788.4</ele>
        <time>2022-02-10T10:31:47Z</time>
        <extensions>
          <gpxtpx:TrackPointExtension xmlns:gpxtpx="http://www.garmin.com/xmlschemas/TrackPointExtension/v1">
            <gpxtpx:hr>172</gpxtpx:hr>
          </gpxtpx:TrackPointExtension>
        </extensions>
      </trkpt>
      <trkpt lat="44.1667" lon="3.19013">
        <ele>789</ele>
        <time>2022-02-10T10:31:49Z</time>
        <extensions>
          <gpxtpx:TrackPointExtension xmlns:gpxtpx="http://www.garmin.com/xmlschemas/TrackPointExtension/v1">
            <gpxtpx:hr>172</gpxtpx:hr>
          </gpxtpx:TrackPointExtension>
        </extensions>
      </trkpt>
      <trkpt lat="44.16672" lon="3.19012">
        <ele>789.6</ele>
        <time>2022-02-10T10:31:51Z</time>
        <extensions>
          <gpxtpx:TrackPointExtension xmlns:gpxtpx="http://www.garmin.com/xmlschemas/TrackPointExtension/v1">
            <gpxtpx:hr>173</gpxtpx:hr>
          </gpxtpx:TrackPointExtension>
        </extensions>
      </trkpt>
      <trkpt lat="44.16675" lon="3.19012">
        <ele>789.8</ele>
        <time>2022-02-10T10:31:53Z</time>
        <extensions>
          <gpxtpx:TrackPointExtension xmlns:gpxtpx="http://www.garmin.com/xmlschemas/TrackPointExtension/v1">
            <gpxtpx:hr>173</gpxtpx:hr>
          </gpxtpx:TrackPointExtension>
        </extensions>
      </trkpt>
      <trkpt lat="44.16677" lon="3.19013">
        <ele>790</ele>
        <time>2022-02-10T10:31:55Z</time>
        <extensions>
          <gpxtpx:TrackPointExtension xmlns:gpxtpx="http://www.garmin.com/xmlschemas/TrackPointExtension/v1">
            <gpxtpx:hr>173</gpxtpx:hr>
          </gpxtpx:TrackPointExtension>
        </extensions>
      </trkpt>
      <trkpt lat="44.16681" lon="3.19015">
        <ele>790.4</ele>
        <time>2022-02-10T10:31:57Z</time>
        <extensions>
          <gpxtpx:TrackPointExtension xmlns:gpxtpx="http://www.garmin.com/xmlschemas/TrackPointExtension/v1">
            <gpxtpx:hr>173</gpxtpx:hr>
          </gpxtpx:TrackPointExtension>
        </extensions>
      </trkpt>
      <trkpt lat="44.16684" lon="3.19016">
        <ele>790.4</ele>
        <time>2022-02-10T10:31:59Z</time>
        <extensions>
          <gpxtpx:TrackPointExtension xmlns:gpxtpx="http://www.garmin.com/xmlschemas/TrackPointExtension/v1">
            <gpxtpx:hr>174</gpxtpx:hr>
          </gpxtpx:TrackPointExtension>
        </extensions>
      </trkpt>
      <trkpt lat="44.16687" lon="3.19016">
        <ele>790.6</ele>
        <time>2022-02-10T10:32:01Z</time>
        <extensions>
          <gpxtpx:TrackPointExtension xmlns:gpxtpx="http://www.garmin.com/xmlschemas/TrackPointExtension/v1">
            <gpxtpx:hr>174</gpxtpx:hr>
          </gpxtpx:TrackPointExtension>
        </extensions>
      </trkpt>
      <trkpt lat="44.16691" lon="3.19016">
        <ele>791.2</ele>
        <time>2022-02-10T10:32:03Z</time>
        <extensions>
          <gpxtpx:TrackPointExtension xmlns:gpxtpx="http://www.garmin.com/xmlschemas/TrackPointExtension/v1">
            <gpxtpx:hr>174</gpxtpx:hr>
          </gpxtpx:TrackPointExtension>
        </extensions>
      </trkpt>
      <trkpt lat="44.16695" lon="3.19013">
        <ele>791.6</ele>
        <time>2022-02-10T10:32:06Z</time>
        <extensions>
          <gpxtpx:TrackPointExtension xmlns:gpxtpx="http://www.garmin.com/xmlschemas/TrackPointExtension/v1">
            <gpxtpx:hr>174</gpxtpx:hr>
          </gpxtpx:TrackPointExtension>
        </extensions>
      </trkpt>
      <trkpt lat="44.16697" lon="3.19011">
        <ele>791.8</ele>
        <time>2022-02-10T10:32:07Z</time>
        <extensions>
          <gpxtpx:TrackPointExtension xmlns:gpxtpx="http://www.garmin.com/xmlschemas/TrackPointExtension/v1">
            <gpxtpx:hr>174</gpxtpx:hr>
          </gpxtpx:TrackPointExtension>
        </extensions>
      </trkpt>
      <trkpt lat="44.167" lon="3.19008">
        <ele>791.8</ele>
        <time>2022-02-10T10:32:09Z</time>
        <extensions>
          <gpxtpx:TrackPointExtension xmlns:gpxtpx="http://www.garmin.com/xmlschemas/TrackPointExtension/v1">
            <gpxtpx:hr>174</gpxtpx:hr>
          </gpxtpx:TrackPointExtension>
        </extensions>
      </trkpt>
      <trkpt lat="44.16703" lon="3.19005">
        <ele>792</ele>
        <time>2022-02-10T10:32:11Z</time>
        <extensions>
          <gpxtpx:TrackPointExtension xmlns:gpxtpx="http://www.garmin.com/xmlschemas/TrackPointExtension/v1">
            <gpxtpx:hr>175</gpxtpx:hr>
          </gpxtpx:TrackPointExtension>
        </extensions>
      </trkpt>
      <trkpt lat="44.16705" lon="3.19002">
        <ele>792.4</ele>
        <time>2022-02-10T10:32:13Z</time>
        <extensions>
          <gpxtpx:TrackPointExtension xmlns:gpxtpx="http://www.garmin.com/xmlschemas/TrackPointExtension/v1">
            <gpxtpx:hr>175</gpxtpx:hr>
          </gpxtpx:TrackPointExtension>
        </extensions>
      </trkpt>
      <trkpt lat="44.16707" lon="3.18999">
        <ele>792.8</ele>
        <time>2022-02-10T10:32:15Z</time>
        <extensions>
          <gpxtpx:TrackPointExtension xmlns:gpxtpx="http://www.garmin.com/xmlschemas/TrackPointExtension/v1">
            <gpxtpx:hr>174</gpxtpx:hr>
          </gpxtpx:TrackPointExtension>
        </extensions>
      </trkpt>
      <trkpt lat="44.16709" lon="3.18996">
        <ele>792.8</ele>
        <time>2022-02-10T10:32:17Z</time>
        <extensions>
          <gpxtpx:TrackPointExtension xmlns:gpxtpx="http://www.garmin.com/xmlschemas/TrackPointExtension/v1">
            <gpxtpx:hr>176</gpxtpx:hr>
          </gpxtpx:TrackPointExtension>
        </extensions>
      </trkpt>
      <trkpt lat="44.16713" lon="3.18993">
        <ele>793.2</ele>
        <time>2022-02-10T10:32:19Z</time>
        <extensions>
          <gpxtpx:TrackPointExtension xmlns:gpxtpx="http://www.garmin.com/xmlschemas/TrackPointExtension/v1">
            <gpxtpx:hr>175</gpxtpx:hr>
          </gpxtpx:TrackPointExtension>
        </extensions>
      </trkpt>
      <trkpt lat="44.16714" lon="3.18991">
        <ele>793.2</ele>
        <time>2022-02-10T10:32:20Z</time>
        <extensions>
          <gpxtpx:TrackPointExtension xmlns:gpxtpx="http://www.garmin.com/xmlschemas/TrackPointExtension/v1">
            <gpxtpx:hr>174</gpxtpx:hr>
          </gpxtpx:TrackPointExtension>
        </extensions>
      </trkpt>
      <trkpt lat="44.16716" lon="3.18989">
        <ele>793.4</ele>
        <time>2022-02-10T10:32:21Z</time>
        <extensions>
          <gpxtpx:TrackPointExtension xmlns:gpxtpx="http://www.garmin.com/xmlschemas/TrackPointExtension/v1">
            <gpxtpx:hr>174</gpxtpx:hr>
          </gpxtpx:TrackPointExtension>
        </extensions>
      </trkpt>
      <trkpt lat="44.16718" lon="3.18988">
        <ele>793.4</ele>
        <time>2022-02-10T10:32:22Z</time>
        <extensions>
          <gpxtpx:TrackPointExtension xmlns:gpxtpx="http://www.garmin.com/xmlschemas/TrackPointExtension/v1">
            <gpxtpx:hr>174</gpxtpx:hr>
          </gpxtpx:TrackPointExtension>
        </extensions>
      </trkpt>
      <trkpt lat="44.16719" lon="3.18986">
        <ele>793.4</ele>
        <time>2022-02-10T10:32:23Z</time>
        <extensions>
          <gpxtpx:TrackPointExtension xmlns:gpxtpx="http://www.garmin.com/xmlschemas/TrackPointExtension/v1">
            <gpxtpx:hr>175</gpxtpx:hr>
          </gpxtpx:TrackPointExtension>
        </extensions>
      </trkpt>
      <trkpt lat="44.16721" lon="3.18984">
        <ele>793.6</ele>
        <time>2022-02-10T10:32:24Z</time>
        <extensions>
          <gpxtpx:TrackPointExtension xmlns:gpxtpx="http://www.garmin.com/xmlschemas/TrackPointExtension/v1">
            <gpxtpx:hr>174</gpxtpx:hr>
          </gpxtpx:TrackPointExtension>
        </extensions>
      </trkpt>
      <trkpt lat="44.16723" lon="3.18983">
        <ele>793.6</ele>
        <time>2022-02-10T10:32:25Z</time>
        <extensions>
          <gpxtpx:TrackPointExtension xmlns:gpxtpx="http://www.garmin.com/xmlschemas/TrackPointExtension/v1">
            <gpxtpx:hr>174</gpxtpx:hr>
          </gpxtpx:TrackPointExtension>
        </extensions>
      </trkpt>
      <trkpt lat="44.16725" lon="3.18981">
        <ele>793.8</ele>
        <time>2022-02-10T10:32:26Z</time>
        <extensions>
          <gpxtpx:TrackPointExtension xmlns:gpxtpx="http://www.garmin.com/xmlschemas/TrackPointExtension/v1">
            <gpxtpx:hr>174</gpxtpx:hr>
          </gpxtpx:TrackPointExtension>
        </extensions>
      </trkpt>
      <trkpt lat="44.16726" lon="3.18979">
        <ele>793.8</ele>
        <time>2022-02-10T10:32:27Z</time>
        <extensions>
          <gpxtpx:TrackPointExtension xmlns:gpxtpx="http://www.garmin.com/xmlschemas/TrackPointExtension/v1">
            <gpxtpx:hr>174</gpxtpx:hr>
          </gpxtpx:TrackPointExtension>
        </extensions>
      </trkpt>
      <trkpt lat="44.16728" lon="3.18977">
        <ele>794</ele>
        <time>2022-02-10T10:32:28Z</time>
        <extensions>
          <gpxtpx:TrackPointExtension xmlns:gpxtpx="http://www.garmin.com/xmlschemas/TrackPointExtension/v1">
            <gpxtpx:hr>174</gpxtpx:hr>
          </gpxtpx:TrackPointExtension>
        </extensions>
      </trkpt>
      <trkpt lat="44.16729" lon="3.18975">
        <ele>794</ele>
        <time>2022-02-10T10:32:29Z</time>
        <extensions>
          <gpxtpx:TrackPointExtension xmlns:gpxtpx="http://www.garmin.com/xmlschemas/TrackPointExtension/v1">
            <gpxtpx:hr>174</gpxtpx:hr>
          </gpxtpx:TrackPointExtension>
        </extensions>
      </trkpt>
      <trkpt lat="44.16731" lon="3.18973">
        <ele>794</ele>
        <time>2022-02-10T10:32:30Z</time>
        <extensions>
          <gpxtpx:TrackPointExtension xmlns:gpxtpx="http://www.garmin.com/xmlschemas/TrackPointExtension/v1">
            <gpxtpx:hr>174</gpxtpx:hr>
          </gpxtpx:TrackPointExtension>
        </extensions>
      </trkpt>
      <trkpt lat="44.16732" lon="3.18971">
        <ele>794</ele>
        <time>2022-02-10T10:32:31Z</time>
        <extensions>
          <gpxtpx:TrackPointExtension xmlns:gpxtpx="http://www.garmin.com/xmlschemas/TrackPointExtension/v1">
            <gpxtpx:hr>174</gpxtpx:hr>
          </gpxtpx:TrackPointExtension>
        </extensions>
      </trkpt>
      <trkpt lat="44.16733" lon="3.18969">
        <ele>794.2</ele>
        <time>2022-02-10T10:32:32Z</time>
        <extensions>
          <gpxtpx:TrackPointExtension xmlns:gpxtpx="http://www.garmin.com/xmlschemas/TrackPointExtension/v1">
            <gpxtpx:hr>175</gpxtpx:hr>
          </gpxtpx:TrackPointExtension>
        </extensions>
      </trkpt>
      <trkpt lat="44.16735" lon="3.18966">
        <ele>794.2</ele>
        <time>2022-02-10T10:32:33Z</time>
        <extensions>
          <gpxtpx:TrackPointExtension xmlns:gpxtpx="http://www.garmin.com/xmlschemas/TrackPointExtension/v1">
            <gpxtpx:hr>174</gpxtpx:hr>
          </gpxtpx:TrackPointExtension>
        </extensions>
      </trkpt>
      <trkpt lat="44.16736" lon="3.18964">
        <ele>794.2</ele>
        <time>2022-02-10T10:32:34Z</time>
        <extensions>
          <gpxtpx:TrackPointExtension xmlns:gpxtpx="http://www.garmin.com/xmlschemas/TrackPointExtension/v1">
            <gpxtpx:hr>174</gpxtpx:hr>
          </gpxtpx:TrackPointExtension>
        </extensions>
      </trkpt>
      <trkpt lat="44.16739" lon="3.1896">
        <ele>794.2</ele>
        <time>2022-02-10T10:32:36Z</time>
        <extensions>
          <gpxtpx:TrackPointExtension xmlns:gpxtpx="http://www.garmin.com/xmlschemas/TrackPointExtension/v1">
            <gpxtpx:hr>173</gpxtpx:hr>
          </gpxtpx:TrackPointExtension>
        </extensions>
      </trkpt>
      <trkpt lat="44.16741" lon="3.18957">
        <ele>794.2</ele>
        <time>2022-02-10T10:32:38Z</time>
        <extensions>
          <gpxtpx:TrackPointExtension xmlns:gpxtpx="http://www.garmin.com/xmlschemas/TrackPointExtension/v1">
            <gpxtpx:hr>172</gpxtpx:hr>
          </gpxtpx:TrackPointExtension>
        </extensions>
      </trkpt>
      <trkpt lat="44.16742" lon="3.18955">
        <ele>794.2</ele>
        <time>2022-02-10T10:32:40Z</time>
        <extensions>
          <gpxtpx:TrackPointExtension xmlns:gpxtpx="http://www.garmin.com/xmlschemas/TrackPointExtension/v1">
            <gpxtpx:hr>171</gpxtpx:hr>
          </gpxtpx:TrackPointExtension>
        </extensions>
      </trkpt>
      <trkpt lat="44.16743" lon="3.18952">
        <ele>794.2</ele>
        <time>2022-02-10T10:32:43Z</time>
        <extensions>
          <gpxtpx:TrackPointExtension xmlns:gpxtpx="http://www.garmin.com/xmlschemas/TrackPointExtension/v1">
            <gpxtpx:hr>170</gpxtpx:hr>
          </gpxtpx:TrackPointExtension>
        </extensions>
      </trkpt>
      <trkpt lat="44.16745" lon="3.18949">
        <ele>794.2</ele>
        <time>2022-02-10T10:32:45Z</time>
        <extensions>
          <gpxtpx:TrackPointExtension xmlns:gpxtpx="http://www.garmin.com/xmlschemas/TrackPointExtension/v1">
            <gpxtpx:hr>169</gpxtpx:hr>
          </gpxtpx:TrackPointExtension>
        </extensions>
      </trkpt>
      <trkpt lat="44.16746" lon="3.18946">
        <ele>794</ele>
        <time>2022-02-10T10:32:47Z</time>
        <extensions>
          <gpxtpx:TrackPointExtension xmlns:gpxtpx="http://www.garmin.com/xmlschemas/TrackPointExtension/v1">
            <gpxtpx:hr>168</gpxtpx:hr>
          </gpxtpx:TrackPointExtension>
        </extensions>
      </trkpt>
      <trkpt lat="44.16748" lon="3.18942">
        <ele>794</ele>
        <time>2022-02-10T10:32:49Z</time>
        <extensions>
          <gpxtpx:TrackPointExtension xmlns:gpxtpx="http://www.garmin.com/xmlschemas/TrackPointExtension/v1">
            <gpxtpx:hr>168</gpxtpx:hr>
          </gpxtpx:TrackPointExtension>
        </extensions>
      </trkpt>
      <trkpt lat="44.1675" lon="3.18938">
        <ele>793.6</ele>
        <time>2022-02-10T10:32:51Z</time>
        <extensions>
          <gpxtpx:TrackPointExtension xmlns:gpxtpx="http://www.garmin.com/xmlschemas/TrackPointExtension/v1">
            <gpxtpx:hr>167</gpxtpx:hr>
          </gpxtpx:TrackPointExtension>
        </extensions>
      </trkpt>
      <trkpt lat="44.16752" lon="3.18933">
        <ele>793</ele>
        <time>2022-02-10T10:32:53Z</time>
        <extensions>
          <gpxtpx:TrackPointExtension xmlns:gpxtpx="http://www.garmin.com/xmlschemas/TrackPointExtension/v1">
            <gpxtpx:hr>166</gpxtpx:hr>
          </gpxtpx:TrackPointExtension>
        </extensions>
      </trkpt>
      <trkpt lat="44.16756" lon="3.18928">
        <ele>792.8</ele>
        <time>2022-02-10T10:32:55Z</time>
        <extensions>
          <gpxtpx:TrackPointExtension xmlns:gpxtpx="http://www.garmin.com/xmlschemas/TrackPointExtension/v1">
            <gpxtpx:hr>166</gpxtpx:hr>
          </gpxtpx:TrackPointExtension>
        </extensions>
      </trkpt>
      <trkpt lat="44.16759" lon="3.18923">
        <ele>792.4</ele>
        <time>2022-02-10T10:32:57Z</time>
        <extensions>
          <gpxtpx:TrackPointExtension xmlns:gpxtpx="http://www.garmin.com/xmlschemas/TrackPointExtension/v1">
            <gpxtpx:hr>165</gpxtpx:hr>
          </gpxtpx:TrackPointExtension>
        </extensions>
      </trkpt>
      <trkpt lat="44.16764" lon="3.18919">
        <ele>792</ele>
        <time>2022-02-10T10:32:59Z</time>
        <extensions>
          <gpxtpx:TrackPointExtension xmlns:gpxtpx="http://www.garmin.com/xmlschemas/TrackPointExtension/v1">
            <gpxtpx:hr>164</gpxtpx:hr>
          </gpxtpx:TrackPointExtension>
        </extensions>
      </trkpt>
      <trkpt lat="44.16768" lon="3.18915">
        <ele>791.8</ele>
        <time>2022-02-10T10:33:01Z</time>
        <extensions>
          <gpxtpx:TrackPointExtension xmlns:gpxtpx="http://www.garmin.com/xmlschemas/TrackPointExtension/v1">
            <gpxtpx:hr>163</gpxtpx:hr>
          </gpxtpx:TrackPointExtension>
        </extensions>
      </trkpt>
      <trkpt lat="44.16773" lon="3.18911">
        <ele>791.6</ele>
        <time>2022-02-10T10:33:03Z</time>
        <extensions>
          <gpxtpx:TrackPointExtension xmlns:gpxtpx="http://www.garmin.com/xmlschemas/TrackPointExtension/v1">
            <gpxtpx:hr>162</gpxtpx:hr>
          </gpxtpx:TrackPointExtension>
        </extensions>
      </trkpt>
      <trkpt lat="44.16777" lon="3.18908">
        <ele>791.2</ele>
        <time>2022-02-10T10:33:05Z</time>
        <extensions>
          <gpxtpx:TrackPointExtension xmlns:gpxtpx="http://www.garmin.com/xmlschemas/TrackPointExtension/v1">
            <gpxtpx:hr>160</gpxtpx:hr>
          </gpxtpx:TrackPointExtension>
        </extensions>
      </trkpt>
      <trkpt lat="44.1678" lon="3.18904">
        <ele>791.2</ele>
        <time>2022-02-10T10:33:07Z</time>
        <extensions>
          <gpxtpx:TrackPointExtension xmlns:gpxtpx="http://www.garmin.com/xmlschemas/TrackPointExtension/v1">
            <gpxtpx:hr>159</gpxtpx:hr>
          </gpxtpx:TrackPointExtension>
        </extensions>
      </trkpt>
      <trkpt lat="44.16782" lon="3.18903">
        <ele>791.2</ele>
        <time>2022-02-10T10:33:08Z</time>
        <extensions>
          <gpxtpx:TrackPointExtension xmlns:gpxtpx="http://www.garmin.com/xmlschemas/TrackPointExtension/v1">
            <gpxtpx:hr>159</gpxtpx:hr>
          </gpxtpx:TrackPointExtension>
        </extensions>
      </trkpt>
      <trkpt lat="44.16785" lon="3.18901">
        <ele>791.2</ele>
        <time>2022-02-10T10:33:10Z</time>
        <extensions>
          <gpxtpx:TrackPointExtension xmlns:gpxtpx="http://www.garmin.com/xmlschemas/TrackPointExtension/v1">
            <gpxtpx:hr>158</gpxtpx:hr>
          </gpxtpx:TrackPointExtension>
        </extensions>
      </trkpt>
      <trkpt lat="44.16787" lon="3.189">
        <ele>791.2</ele>
        <time>2022-02-10T10:33:12Z</time>
        <extensions>
          <gpxtpx:TrackPointExtension xmlns:gpxtpx="http://www.garmin.com/xmlschemas/TrackPointExtension/v1">
            <gpxtpx:hr>158</gpxtpx:hr>
          </gpxtpx:TrackPointExtension>
        </extensions>
      </trkpt>
      <trkpt lat="44.1679" lon="3.18898">
        <ele>791</ele>
        <time>2022-02-10T10:33:14Z</time>
        <extensions>
          <gpxtpx:TrackPointExtension xmlns:gpxtpx="http://www.garmin.com/xmlschemas/TrackPointExtension/v1">
            <gpxtpx:hr>157</gpxtpx:hr>
          </gpxtpx:TrackPointExtension>
        </extensions>
      </trkpt>
      <trkpt lat="44.16792" lon="3.18896">
        <ele>791</ele>
        <time>2022-02-10T10:33:16Z</time>
        <extensions>
          <gpxtpx:TrackPointExtension xmlns:gpxtpx="http://www.garmin.com/xmlschemas/TrackPointExtension/v1">
            <gpxtpx:hr>159</gpxtpx:hr>
          </gpxtpx:TrackPointExtension>
        </extensions>
      </trkpt>
      <trkpt lat="44.16794" lon="3.18894">
        <ele>790.8</ele>
        <time>2022-02-10T10:33:18Z</time>
        <extensions>
          <gpxtpx:TrackPointExtension xmlns:gpxtpx="http://www.garmin.com/xmlschemas/TrackPointExtension/v1">
            <gpxtpx:hr>158</gpxtpx:hr>
          </gpxtpx:TrackPointExtension>
        </extensions>
      </trkpt>
      <trkpt lat="44.16797" lon="3.18893">
        <ele>790.8</ele>
        <time>2022-02-10T10:33:20Z</time>
        <extensions>
          <gpxtpx:TrackPointExtension xmlns:gpxtpx="http://www.garmin.com/xmlschemas/TrackPointExtension/v1">
            <gpxtpx:hr>157</gpxtpx:hr>
          </gpxtpx:TrackPointExtension>
        </extensions>
      </trkpt>
      <trkpt lat="44.16799" lon="3.18894">
        <ele>790.8</ele>
        <time>2022-02-10T10:33:22Z</time>
        <extensions>
          <gpxtpx:TrackPointExtension xmlns:gpxtpx="http://www.garmin.com/xmlschemas/TrackPointExtension/v1">
            <gpxtpx:hr>156</gpxtpx:hr>
          </gpxtpx:TrackPointExtension>
        </extensions>
      </trkpt>
      <trkpt lat="44.16801" lon="3.18894">
        <ele>790.6</ele>
        <time>2022-02-10T10:33:24Z</time>
        <extensions>
          <gpxtpx:TrackPointExtension xmlns:gpxtpx="http://www.garmin.com/xmlschemas/TrackPointExtension/v1">
            <gpxtpx:hr>158</gpxtpx:hr>
          </gpxtpx:TrackPointExtension>
        </extensions>
      </trkpt>
      <trkpt lat="44.16802" lon="3.18895">
        <ele>790.6</ele>
        <time>2022-02-10T10:33:25Z</time>
        <extensions>
          <gpxtpx:TrackPointExtension xmlns:gpxtpx="http://www.garmin.com/xmlschemas/TrackPointExtension/v1">
            <gpxtpx:hr>159</gpxtpx:hr>
          </gpxtpx:TrackPointExtension>
        </extensions>
      </trkpt>
      <trkpt lat="44.16804" lon="3.18895">
        <ele>790.6</ele>
        <time>2022-02-10T10:33:26Z</time>
        <extensions>
          <gpxtpx:TrackPointExtension xmlns:gpxtpx="http://www.garmin.com/xmlschemas/TrackPointExtension/v1">
            <gpxtpx:hr>157</gpxtpx:hr>
          </gpxtpx:TrackPointExtension>
        </extensions>
      </trkpt>
      <trkpt lat="44.16805" lon="3.18895">
        <ele>790.6</ele>
        <time>2022-02-10T10:33:27Z</time>
        <extensions>
          <gpxtpx:TrackPointExtension xmlns:gpxtpx="http://www.garmin.com/xmlschemas/TrackPointExtension/v1">
            <gpxtpx:hr>156</gpxtpx:hr>
          </gpxtpx:TrackPointExtension>
        </extensions>
      </trkpt>
      <trkpt lat="44.16807" lon="3.18896">
        <ele>790.6</ele>
        <time>2022-02-10T10:33:28Z</time>
        <extensions>
          <gpxtpx:TrackPointExtension xmlns:gpxtpx="http://www.garmin.com/xmlschemas/TrackPointExtension/v1">
            <gpxtpx:hr>154</gpxtpx:hr>
          </gpxtpx:TrackPointExtension>
        </extensions>
      </trkpt>
      <trkpt lat="44.16808" lon="3.18896">
        <ele>790.6</ele>
        <time>2022-02-10T10:33:29Z</time>
        <extensions>
          <gpxtpx:TrackPointExtension xmlns:gpxtpx="http://www.garmin.com/xmlschemas/TrackPointExtension/v1">
            <gpxtpx:hr>154</gpxtpx:hr>
          </gpxtpx:TrackPointExtension>
        </extensions>
      </trkpt>
      <trkpt lat="44.16809" lon="3.18896">
        <ele>790.6</ele>
        <time>2022-02-10T10:33:30Z</time>
        <extensions>
          <gpxtpx:TrackPointExtension xmlns:gpxtpx="http://www.garmin.com/xmlschemas/TrackPointExtension/v1">
            <gpxtpx:hr>154</gpxtpx:hr>
          </gpxtpx:TrackPointExtension>
        </extensions>
      </trkpt>
      <trkpt lat="44.16809" lon="3.18897">
        <ele>790.6</ele>
        <time>2022-02-10T10:33:31Z</time>
        <extensions>
          <gpxtpx:TrackPointExtension xmlns:gpxtpx="http://www.garmin.com/xmlschemas/TrackPointExtension/v1">
            <gpxtpx:hr>154</gpxtpx:hr>
          </gpxtpx:TrackPointExtension>
        </extensions>
      </trkpt>
      <trkpt lat="44.1681" lon="3.18897">
        <ele>790.6</ele>
        <time>2022-02-10T10:33:32Z</time>
        <extensions>
          <gpxtpx:TrackPointExtension xmlns:gpxtpx="http://www.garmin.com/xmlschemas/TrackPointExtension/v1">
            <gpxtpx:hr>155</gpxtpx:hr>
          </gpxtpx:TrackPointExtension>
        </extensions>
      </trkpt>
      <trkpt lat="44.1681" lon="3.18897">
        <ele>790.6</ele>
        <time>2022-02-10T10:33:33Z</time>
        <extensions>
          <gpxtpx:TrackPointExtension xmlns:gpxtpx="http://www.garmin.com/xmlschemas/TrackPointExtension/v1">
            <gpxtpx:hr>155</gpxtpx:hr>
          </gpxtpx:TrackPointExtension>
        </extensions>
      </trkpt>
      <trkpt lat="44.16811" lon="3.18898">
        <ele>790.6</ele>
        <time>2022-02-10T10:33:34Z</time>
        <extensions>
          <gpxtpx:TrackPointExtension xmlns:gpxtpx="http://www.garmin.com/xmlschemas/TrackPointExtension/v1">
            <gpxtpx:hr>156</gpxtpx:hr>
          </gpxtpx:TrackPointExtension>
        </extensions>
      </trkpt>
      <trkpt lat="44.16811" lon="3.18898">
        <ele>790.6</ele>
        <time>2022-02-10T10:33:35Z</time>
        <extensions>
          <gpxtpx:TrackPointExtension xmlns:gpxtpx="http://www.garmin.com/xmlschemas/TrackPointExtension/v1">
            <gpxtpx:hr>155</gpxtpx:hr>
          </gpxtpx:TrackPointExtension>
        </extensions>
      </trkpt>
      <trkpt lat="44.16812" lon="3.18898">
        <ele>790.6</ele>
        <time>2022-02-10T10:33:36Z</time>
        <extensions>
          <gpxtpx:TrackPointExtension xmlns:gpxtpx="http://www.garmin.com/xmlschemas/TrackPointExtension/v1">
            <gpxtpx:hr>155</gpxtpx:hr>
          </gpxtpx:TrackPointExtension>
        </extensions>
      </trkpt>
      <trkpt lat="44.16812" lon="3.18898">
        <ele>790.6</ele>
        <time>2022-02-10T10:33:37Z</time>
        <extensions>
          <gpxtpx:TrackPointExtension xmlns:gpxtpx="http://www.garmin.com/xmlschemas/TrackPointExtension/v1">
            <gpxtpx:hr>156</gpxtpx:hr>
          </gpxtpx:TrackPointExtension>
        </extensions>
      </trkpt>
      <trkpt lat="44.16813" lon="3.18899">
        <ele>790.6</ele>
        <time>2022-02-10T10:33:38Z</time>
        <extensions>
          <gpxtpx:TrackPointExtension xmlns:gpxtpx="http://www.garmin.com/xmlschemas/TrackPointExtension/v1">
            <gpxtpx:hr>157</gpxtpx:hr>
          </gpxtpx:TrackPointExtension>
        </extensions>
      </trkpt>
      <trkpt lat="44.1681" lon="3.18899">
        <ele>790</ele>
        <time>2022-02-10T10:33:41Z</time>
        <extensions>
          <gpxtpx:TrackPointExtension xmlns:gpxtpx="http://www.garmin.com/xmlschemas/TrackPointExtension/v1">
            <gpxtpx:hr>157</gpxtpx:hr>
          </gpxtpx:TrackPointExtension>
        </extensions>
      </trkpt>
      <trkpt lat="44.16807" lon="3.18898">
        <ele>790</ele>
        <time>2022-02-10T10:33:44Z</time>
        <extensions>
          <gpxtpx:TrackPointExtension xmlns:gpxtpx="http://www.garmin.com/xmlschemas/TrackPointExtension/v1">
            <gpxtpx:hr>156</gpxtpx:hr>
          </gpxtpx:TrackPointExtension>
        </extensions>
      </trkpt>
      <trkpt lat="44.16805" lon="3.18898">
        <ele>789.8</ele>
        <time>2022-02-10T10:33:46Z</time>
        <extensions>
          <gpxtpx:TrackPointExtension xmlns:gpxtpx="http://www.garmin.com/xmlschemas/TrackPointExtension/v1">
            <gpxtpx:hr>154</gpxtpx:hr>
          </gpxtpx:TrackPointExtension>
        </extensions>
      </trkpt>
      <trkpt lat="44.16803" lon="3.18896">
        <ele>789.6</ele>
        <time>2022-02-10T10:33:49Z</time>
        <extensions>
          <gpxtpx:TrackPointExtension xmlns:gpxtpx="http://www.garmin.com/xmlschemas/TrackPointExtension/v1">
            <gpxtpx:hr>152</gpxtpx:hr>
          </gpxtpx:TrackPointExtension>
        </extensions>
      </trkpt>
      <trkpt lat="44.16805" lon="3.18895">
        <ele>789.2</ele>
        <time>2022-02-10T10:33:51Z</time>
        <extensions>
          <gpxtpx:TrackPointExtension xmlns:gpxtpx="http://www.garmin.com/xmlschemas/TrackPointExtension/v1">
            <gpxtpx:hr>151</gpxtpx:hr>
          </gpxtpx:TrackPointExtension>
        </extensions>
      </trkpt>
      <trkpt lat="44.16807" lon="3.18894">
        <ele>789.2</ele>
        <time>2022-02-10T10:33:52Z</time>
        <extensions>
          <gpxtpx:TrackPointExtension xmlns:gpxtpx="http://www.garmin.com/xmlschemas/TrackPointExtension/v1">
            <gpxtpx:hr>150</gpxtpx:hr>
          </gpxtpx:TrackPointExtension>
        </extensions>
      </trkpt>
      <trkpt lat="44.16812" lon="3.18892">
        <ele>789</ele>
        <time>2022-02-10T10:33:54Z</time>
        <extensions>
          <gpxtpx:TrackPointExtension xmlns:gpxtpx="http://www.garmin.com/xmlschemas/TrackPointExtension/v1">
            <gpxtpx:hr>150</gpxtpx:hr>
          </gpxtpx:TrackPointExtension>
        </extensions>
      </trkpt>
      <trkpt lat="44.16815" lon="3.18892">
        <ele>789</ele>
        <time>2022-02-10T10:33:55Z</time>
        <extensions>
          <gpxtpx:TrackPointExtension xmlns:gpxtpx="http://www.garmin.com/xmlschemas/TrackPointExtension/v1">
            <gpxtpx:hr>150</gpxtpx:hr>
          </gpxtpx:TrackPointExtension>
        </extensions>
      </trkpt>
      <trkpt lat="44.16821" lon="3.18893">
        <ele>788.8</ele>
        <time>2022-02-10T10:33:57Z</time>
        <extensions>
          <gpxtpx:TrackPointExtension xmlns:gpxtpx="http://www.garmin.com/xmlschemas/TrackPointExtension/v1">
            <gpxtpx:hr>146</gpxtpx:hr>
          </gpxtpx:TrackPointExtension>
        </extensions>
      </trkpt>
      <trkpt lat="44.16827" lon="3.18894">
        <ele>788.8</ele>
        <time>2022-02-10T10:33:59Z</time>
        <extensions>
          <gpxtpx:TrackPointExtension xmlns:gpxtpx="http://www.garmin.com/xmlschemas/TrackPointExtension/v1">
            <gpxtpx:hr>145</gpxtpx:hr>
          </gpxtpx:TrackPointExtension>
        </extensions>
      </trkpt>
      <trkpt lat="44.16832" lon="3.18895">
        <ele>788.8</ele>
        <time>2022-02-10T10:34:01Z</time>
        <extensions>
          <gpxtpx:TrackPointExtension xmlns:gpxtpx="http://www.garmin.com/xmlschemas/TrackPointExtension/v1">
            <gpxtpx:hr>145</gpxtpx:hr>
          </gpxtpx:TrackPointExtension>
        </extensions>
      </trkpt>
      <trkpt lat="44.16837" lon="3.18895">
        <ele>789</ele>
        <time>2022-02-10T10:34:03Z</time>
        <extensions>
          <gpxtpx:TrackPointExtension xmlns:gpxtpx="http://www.garmin.com/xmlschemas/TrackPointExtension/v1">
            <gpxtpx:hr>144</gpxtpx:hr>
          </gpxtpx:TrackPointExtension>
        </extensions>
      </trkpt>
      <trkpt lat="44.16838" lon="3.18895">
        <ele>789</ele>
        <time>2022-02-10T10:34:04Z</time>
        <extensions>
          <gpxtpx:TrackPointExtension xmlns:gpxtpx="http://www.garmin.com/xmlschemas/TrackPointExtension/v1">
            <gpxtpx:hr>144</gpxtpx:hr>
          </gpxtpx:TrackPointExtension>
        </extensions>
      </trkpt>
      <trkpt lat="44.16841" lon="3.18894">
        <ele>789</ele>
        <time>2022-02-10T10:34:05Z</time>
        <extensions>
          <gpxtpx:TrackPointExtension xmlns:gpxtpx="http://www.garmin.com/xmlschemas/TrackPointExtension/v1">
            <gpxtpx:hr>144</gpxtpx:hr>
          </gpxtpx:TrackPointExtension>
        </extensions>
      </trkpt>
      <trkpt lat="44.16843" lon="3.18893">
        <ele>789</ele>
        <time>2022-02-10T10:34:06Z</time>
        <extensions>
          <gpxtpx:TrackPointExtension xmlns:gpxtpx="http://www.garmin.com/xmlschemas/TrackPointExtension/v1">
            <gpxtpx:hr>144</gpxtpx:hr>
          </gpxtpx:TrackPointExtension>
        </extensions>
      </trkpt>
      <trkpt lat="44.16845" lon="3.18892">
        <ele>789</ele>
        <time>2022-02-10T10:34:07Z</time>
        <extensions>
          <gpxtpx:TrackPointExtension xmlns:gpxtpx="http://www.garmin.com/xmlschemas/TrackPointExtension/v1">
            <gpxtpx:hr>143</gpxtpx:hr>
          </gpxtpx:TrackPointExtension>
        </extensions>
      </trkpt>
      <trkpt lat="44.16846" lon="3.18891">
        <ele>788.8</ele>
        <time>2022-02-10T10:34:08Z</time>
        <extensions>
          <gpxtpx:TrackPointExtension xmlns:gpxtpx="http://www.garmin.com/xmlschemas/TrackPointExtension/v1">
            <gpxtpx:hr>142</gpxtpx:hr>
          </gpxtpx:TrackPointExtension>
        </extensions>
      </trkpt>
      <trkpt lat="44.16848" lon="3.18889">
        <ele>788.6</ele>
        <time>2022-02-10T10:34:10Z</time>
        <extensions>
          <gpxtpx:TrackPointExtension xmlns:gpxtpx="http://www.garmin.com/xmlschemas/TrackPointExtension/v1">
            <gpxtpx:hr>144</gpxtpx:hr>
          </gpxtpx:TrackPointExtension>
        </extensions>
      </trkpt>
      <trkpt lat="44.1685" lon="3.18887">
        <ele>788.6</ele>
        <time>2022-02-10T10:34:11Z</time>
        <extensions>
          <gpxtpx:TrackPointExtension xmlns:gpxtpx="http://www.garmin.com/xmlschemas/TrackPointExtension/v1">
            <gpxtpx:hr>144</gpxtpx:hr>
          </gpxtpx:TrackPointExtension>
        </extensions>
      </trkpt>
      <trkpt lat="44.16852" lon="3.18886">
        <ele>788.6</ele>
        <time>2022-02-10T10:34:12Z</time>
        <extensions>
          <gpxtpx:TrackPointExtension xmlns:gpxtpx="http://www.garmin.com/xmlschemas/TrackPointExtension/v1">
            <gpxtpx:hr>145</gpxtpx:hr>
          </gpxtpx:TrackPointExtension>
        </extensions>
      </trkpt>
      <trkpt lat="44.16855" lon="3.18883">
        <ele>788.2</ele>
        <time>2022-02-10T10:34:13Z</time>
        <extensions>
          <gpxtpx:TrackPointExtension xmlns:gpxtpx="http://www.garmin.com/xmlschemas/TrackPointExtension/v1">
            <gpxtpx:hr>145</gpxtpx:hr>
          </gpxtpx:TrackPointExtension>
        </extensions>
      </trkpt>
      <trkpt lat="44.16859" lon="3.18882">
        <ele>788.2</ele>
        <time>2022-02-10T10:34:15Z</time>
        <extensions>
          <gpxtpx:TrackPointExtension xmlns:gpxtpx="http://www.garmin.com/xmlschemas/TrackPointExtension/v1">
            <gpxtpx:hr>144</gpxtpx:hr>
          </gpxtpx:TrackPointExtension>
        </extensions>
      </trkpt>
      <trkpt lat="44.16872" lon="3.18865">
        <ele>784.1</ele>
      </trkpt>
      <trkpt lat="44.16876" lon="3.18854">
        <ele>783.9</ele>
      </trkpt>
      <trkpt lat="44.16871" lon="3.18834">
        <ele>783.6</ele>
      </trkpt>
      <trkpt lat="44.16867" lon="3.18824">
        <ele>783.8</ele>
      </trkpt>
      <trkpt lat="44.16865" lon="3.18808">
        <ele>783.9</ele>
      </trkpt>
      <trkpt lat="44.16874" lon="3.18794">
        <ele>783.5</ele>
      </trkpt>
      <trkpt lat="44.16891" lon="3.18791">
        <ele>782.9</ele>
      </trkpt>
      <trkpt lat="44.16903" lon="3.18782">
        <ele>782</ele>
      </trkpt>
      <trkpt lat="44.16911" lon="3.1877">
        <ele>781.4</ele>
      </trkpt>
      <trkpt lat="44.16933" lon="3.18768">
        <ele>780.2</ele>
      </trkpt>
      <trkpt lat="44.16979" lon="3.18768">
        <ele>780.3</ele>
      </trkpt>
      <trkpt lat="44.16985" lon="3.18761">
        <ele>780.3</ele>
      </trkpt>
      <trkpt lat="44.16989" lon="3.1874">
        <ele>779.4</ele>
      </trkpt>
      <trkpt lat="44.16994" lon="3.18704">
        <ele>777.6</ele>
      </trkpt>
      <trkpt lat="44.16995" lon="3.18658">
        <ele>776.4</ele>
      </trkpt>
      <trkpt lat="44.16995" lon="3.18646">
        <ele>777.8</ele>
        <time>2022-02-10T10:49:11Z</time>
        <extensions>
          <gpxtpx:TrackPointExtension xmlns:gpxtpx="http://www.garmin.com/xmlschemas/TrackPointExtension/v1">
            <gpxtpx:hr>131</gpxtpx:hr>
          </gpxtpx:TrackPointExtension>
        </extensions>
      </trkpt>
      <trkpt lat="44.16998" lon="3.18642">
        <ele>777.6</ele>
        <time>2022-02-10T10:49:13Z</time>
        <extensions>
          <gpxtpx:TrackPointExtension xmlns:gpxtpx="http://www.garmin.com/xmlschemas/TrackPointExtension/v1">
            <gpxtpx:hr>132</gpxtpx:hr>
          </gpxtpx:TrackPointExtension>
        </extensions>
      </trkpt>
      <trkpt lat="44.17002" lon="3.18639">
        <ele>777.6</ele>
        <time>2022-02-10T10:49:15Z</time>
        <extensions>
          <gpxtpx:TrackPointExtension xmlns:gpxtpx="http://www.garmin.com/xmlschemas/TrackPointExtension/v1">
            <gpxtpx:hr>135</gpxtpx:hr>
          </gpxtpx:TrackPointExtension>
        </extensions>
      </trkpt>
      <trkpt lat="44.17005" lon="3.18637">
        <ele>777.2</ele>
        <time>2022-02-10T10:49:16Z</time>
        <extensions>
          <gpxtpx:TrackPointExtension xmlns:gpxtpx="http://www.garmin.com/xmlschemas/TrackPointExtension/v1">
            <gpxtpx:hr>136</gpxtpx:hr>
          </gpxtpx:TrackPointExtension>
        </extensions>
      </trkpt>
      <trkpt lat="44.17007" lon="3.18636">
        <ele>777.2</ele>
        <time>2022-02-10T10:49:17Z</time>
        <extensions>
          <gpxtpx:TrackPointExtension xmlns:gpxtpx="http://www.garmin.com/xmlschemas/TrackPointExtension/v1">
            <gpxtpx:hr>136</gpxtpx:hr>
          </gpxtpx:TrackPointExtension>
        </extensions>
      </trkpt>
      <trkpt lat="44.17011" lon="3.18635">
        <ele>777.2</ele>
        <time>2022-02-10T10:49:18Z</time>
        <extensions>
          <gpxtpx:TrackPointExtension xmlns:gpxtpx="http://www.garmin.com/xmlschemas/TrackPointExtension/v1">
            <gpxtpx:hr>136</gpxtpx:hr>
          </gpxtpx:TrackPointExtension>
        </extensions>
      </trkpt>
      <trkpt lat="44.17012" lon="3.18634">
        <ele>777.2</ele>
        <time>2022-02-10T10:49:19Z</time>
        <extensions>
          <gpxtpx:TrackPointExtension xmlns:gpxtpx="http://www.garmin.com/xmlschemas/TrackPointExtension/v1">
            <gpxtpx:hr>138</gpxtpx:hr>
          </gpxtpx:TrackPointExtension>
        </extensions>
      </trkpt>
      <trkpt lat="44.17014" lon="3.18633">
        <ele>777</ele>
        <time>2022-02-10T10:49:20Z</time>
        <extensions>
          <gpxtpx:TrackPointExtension xmlns:gpxtpx="http://www.garmin.com/xmlschemas/TrackPointExtension/v1">
            <gpxtpx:hr>138</gpxtpx:hr>
          </gpxtpx:TrackPointExtension>
        </extensions>
      </trkpt>
      <trkpt lat="44.17019" lon="3.1863">
        <ele>777</ele>
        <time>2022-02-10T10:49:22Z</time>
        <extensions>
          <gpxtpx:TrackPointExtension xmlns:gpxtpx="http://www.garmin.com/xmlschemas/TrackPointExtension/v1">
            <gpxtpx:hr>138</gpxtpx:hr>
          </gpxtpx:TrackPointExtension>
        </extensions>
      </trkpt>
      <trkpt lat="44.17021" lon="3.18629">
        <ele>776.8</ele>
        <time>2022-02-10T10:49:23Z</time>
        <extensions>
          <gpxtpx:TrackPointExtension xmlns:gpxtpx="http://www.garmin.com/xmlschemas/TrackPointExtension/v1">
            <gpxtpx:hr>139</gpxtpx:hr>
          </gpxtpx:TrackPointExtension>
        </extensions>
      </trkpt>
      <trkpt lat="44.17024" lon="3.18628">
        <ele>776.8</ele>
        <time>2022-02-10T10:49:24Z</time>
        <extensions>
          <gpxtpx:TrackPointExtension xmlns:gpxtpx="http://www.garmin.com/xmlschemas/TrackPointExtension/v1">
            <gpxtpx:hr>138</gpxtpx:hr>
          </gpxtpx:TrackPointExtension>
        </extensions>
      </trkpt>
      <trkpt lat="44.17027" lon="3.18627">
        <ele>776.6</ele>
        <time>2022-02-10T10:49:25Z</time>
        <extensions>
          <gpxtpx:TrackPointExtension xmlns:gpxtpx="http://www.garmin.com/xmlschemas/TrackPointExtension/v1">
            <gpxtpx:hr>140</gpxtpx:hr>
          </gpxtpx:TrackPointExtension>
        </extensions>
      </trkpt>
      <trkpt lat="44.17031" lon="3.18627">
        <ele>776.6</ele>
        <time>2022-02-10T10:49:27Z</time>
        <extensions>
          <gpxtpx:TrackPointExtension xmlns:gpxtpx="http://www.garmin.com/xmlschemas/TrackPointExtension/v1">
            <gpxtpx:hr>139</gpxtpx:hr>
          </gpxtpx:TrackPointExtension>
        </extensions>
      </trkpt>
      <trkpt lat="44.17034" lon="3.18628">
        <ele>776.6</ele>
        <time>2022-02-10T10:49:28Z</time>
        <extensions>
          <gpxtpx:TrackPointExtension xmlns:gpxtpx="http://www.garmin.com/xmlschemas/TrackPointExtension/v1">
            <gpxtpx:hr>139</gpxtpx:hr>
          </gpxtpx:TrackPointExtension>
        </extensions>
      </trkpt>
      <trkpt lat="44.17037" lon="3.18628">
        <ele>776.6</ele>
        <time>2022-02-10T10:49:29Z</time>
        <extensions>
          <gpxtpx:TrackPointExtension xmlns:gpxtpx="http://www.garmin.com/xmlschemas/TrackPointExtension/v1">
            <gpxtpx:hr>141</gpxtpx:hr>
          </gpxtpx:TrackPointExtension>
        </extensions>
      </trkpt>
      <trkpt lat="44.17042" lon="3.1863">
        <ele>776.6</ele>
        <time>2022-02-10T10:49:31Z</time>
        <extensions>
          <gpxtpx:TrackPointExtension xmlns:gpxtpx="http://www.garmin.com/xmlschemas/TrackPointExtension/v1">
            <gpxtpx:hr>142</gpxtpx:hr>
          </gpxtpx:TrackPointExtension>
        </extensions>
      </trkpt>
      <trkpt lat="44.17045" lon="3.1863">
        <ele>776.6</ele>
        <time>2022-02-10T10:49:32Z</time>
        <extensions>
          <gpxtpx:TrackPointExtension xmlns:gpxtpx="http://www.garmin.com/xmlschemas/TrackPointExtension/v1">
            <gpxtpx:hr>143</gpxtpx:hr>
          </gpxtpx:TrackPointExtension>
        </extensions>
      </trkpt>
      <trkpt lat="44.17047" lon="3.1863">
        <ele>776.6</ele>
        <time>2022-02-10T10:49:33Z</time>
        <extensions>
          <gpxtpx:TrackPointExtension xmlns:gpxtpx="http://www.garmin.com/xmlschemas/TrackPointExtension/v1">
            <gpxtpx:hr>142</gpxtpx:hr>
          </gpxtpx:TrackPointExtension>
        </extensions>
      </trkpt>
      <trkpt lat="44.1705" lon="3.1863">
        <ele>776.6</ele>
        <time>2022-02-10T10:49:34Z</time>
        <extensions>
          <gpxtpx:TrackPointExtension xmlns:gpxtpx="http://www.garmin.com/xmlschemas/TrackPointExtension/v1">
            <gpxtpx:hr>142</gpxtpx:hr>
          </gpxtpx:TrackPointExtension>
        </extensions>
      </trkpt>
      <trkpt lat="44.17052" lon="3.1863">
        <ele>776.6</ele>
        <time>2022-02-10T10:49:35Z</time>
        <extensions>
          <gpxtpx:TrackPointExtension xmlns:gpxtpx="http://www.garmin.com/xmlschemas/TrackPointExtension/v1">
            <gpxtpx:hr>142</gpxtpx:hr>
          </gpxtpx:TrackPointExtension>
        </extensions>
      </trkpt>
      <trkpt lat="44.17057" lon="3.18629">
        <ele>776.6</ele>
        <time>2022-02-10T10:49:37Z</time>
        <extensions>
          <gpxtpx:TrackPointExtension xmlns:gpxtpx="http://www.garmin.com/xmlschemas/TrackPointExtension/v1">
            <gpxtpx:hr>143</gpxtpx:hr>
          </gpxtpx:TrackPointExtension>
        </extensions>
      </trkpt>
      <trkpt lat="44.1706" lon="3.18628">
        <ele>776.6</ele>
        <time>2022-02-10T10:49:38Z</time>
        <extensions>
          <gpxtpx:TrackPointExtension xmlns:gpxtpx="http://www.garmin.com/xmlschemas/TrackPointExtension/v1">
            <gpxtpx:hr>144</gpxtpx:hr>
          </gpxtpx:TrackPointExtension>
        </extensions>
      </trkpt>
      <trkpt lat="44.17062" lon="3.18627">
        <ele>776.6</ele>
        <time>2022-02-10T10:49:39Z</time>
        <extensions>
          <gpxtpx:TrackPointExtension xmlns:gpxtpx="http://www.garmin.com/xmlschemas/TrackPointExtension/v1">
            <gpxtpx:hr>142</gpxtpx:hr>
          </gpxtpx:TrackPointExtension>
        </extensions>
      </trkpt>
      <trkpt lat="44.17064" lon="3.18626">
        <ele>776.6</ele>
        <time>2022-02-10T10:49:40Z</time>
        <extensions>
          <gpxtpx:TrackPointExtension xmlns:gpxtpx="http://www.garmin.com/xmlschemas/TrackPointExtension/v1">
            <gpxtpx:hr>143</gpxtpx:hr>
          </gpxtpx:TrackPointExtension>
        </extensions>
      </trkpt>
      <trkpt lat="44.17067" lon="3.18624">
        <ele>776.6</ele>
        <time>2022-02-10T10:49:41Z</time>
        <extensions>
          <gpxtpx:TrackPointExtension xmlns:gpxtpx="http://www.garmin.com/xmlschemas/TrackPointExtension/v1">
            <gpxtpx:hr>144</gpxtpx:hr>
          </gpxtpx:TrackPointExtension>
        </extensions>
      </trkpt>
      <trkpt lat="44.17068" lon="3.18622">
        <ele>776.6</ele>
        <time>2022-02-10T10:49:42Z</time>
        <extensions>
          <gpxtpx:TrackPointExtension xmlns:gpxtpx="http://www.garmin.com/xmlschemas/TrackPointExtension/v1">
            <gpxtpx:hr>144</gpxtpx:hr>
          </gpxtpx:TrackPointExtension>
        </extensions>
      </trkpt>
      <trkpt lat="44.1707" lon="3.18619">
        <ele>776.6</ele>
        <time>2022-02-10T10:49:43Z</time>
        <extensions>
          <gpxtpx:TrackPointExtension xmlns:gpxtpx="http://www.garmin.com/xmlschemas/TrackPointExtension/v1">
            <gpxtpx:hr>145</gpxtpx:hr>
          </gpxtpx:TrackPointExtension>
        </extensions>
      </trkpt>
      <trkpt lat="44.1707" lon="3.18616">
        <ele>776.6</ele>
        <time>2022-02-10T10:49:44Z</time>
        <extensions>
          <gpxtpx:TrackPointExtension xmlns:gpxtpx="http://www.garmin.com/xmlschemas/TrackPointExtension/v1">
            <gpxtpx:hr>143</gpxtpx:hr>
          </gpxtpx:TrackPointExtension>
        </extensions>
      </trkpt>
      <trkpt lat="44.17071" lon="3.18613">
        <ele>776.6</ele>
        <time>2022-02-10T10:49:45Z</time>
        <extensions>
          <gpxtpx:TrackPointExtension xmlns:gpxtpx="http://www.garmin.com/xmlschemas/TrackPointExtension/v1">
            <gpxtpx:hr>143</gpxtpx:hr>
          </gpxtpx:TrackPointExtension>
        </extensions>
      </trkpt>
      <trkpt lat="44.1707" lon="3.18609">
        <ele>776.6</ele>
        <time>2022-02-10T10:49:46Z</time>
        <extensions>
          <gpxtpx:TrackPointExtension xmlns:gpxtpx="http://www.garmin.com/xmlschemas/TrackPointExtension/v1">
            <gpxtpx:hr>143</gpxtpx:hr>
          </gpxtpx:TrackPointExtension>
        </extensions>
      </trkpt>
      <trkpt lat="44.17069" lon="3.18606">
        <ele>776.6</ele>
        <time>2022-02-10T10:49:47Z</time>
        <extensions>
          <gpxtpx:TrackPointExtension xmlns:gpxtpx="http://www.garmin.com/xmlschemas/TrackPointExtension/v1">
            <gpxtpx:hr>145</gpxtpx:hr>
          </gpxtpx:TrackPointExtension>
        </extensions>
      </trkpt>
      <trkpt lat="44.17067" lon="3.186">
        <ele>776.8</ele>
        <time>2022-02-10T10:49:49Z</time>
        <extensions>
          <gpxtpx:TrackPointExtension xmlns:gpxtpx="http://www.garmin.com/xmlschemas/TrackPointExtension/v1">
            <gpxtpx:hr>145</gpxtpx:hr>
          </gpxtpx:TrackPointExtension>
        </extensions>
      </trkpt>
      <trkpt lat="44.17063" lon="3.18594">
        <ele>777.6</ele>
        <time>2022-02-10T10:49:51Z</time>
        <extensions>
          <gpxtpx:TrackPointExtension xmlns:gpxtpx="http://www.garmin.com/xmlschemas/TrackPointExtension/v1">
            <gpxtpx:hr>147</gpxtpx:hr>
          </gpxtpx:TrackPointExtension>
        </extensions>
      </trkpt>
      <trkpt lat="44.17062" lon="3.18592">
        <ele>777.8</ele>
        <time>2022-02-10T10:49:52Z</time>
        <extensions>
          <gpxtpx:TrackPointExtension xmlns:gpxtpx="http://www.garmin.com/xmlschemas/TrackPointExtension/v1">
            <gpxtpx:hr>148</gpxtpx:hr>
          </gpxtpx:TrackPointExtension>
        </extensions>
      </trkpt>
      <trkpt lat="44.17058" lon="3.18587">
        <ele>778.2</ele>
        <time>2022-02-10T10:49:54Z</time>
        <extensions>
          <gpxtpx:TrackPointExtension xmlns:gpxtpx="http://www.garmin.com/xmlschemas/TrackPointExtension/v1">
            <gpxtpx:hr>146</gpxtpx:hr>
          </gpxtpx:TrackPointExtension>
        </extensions>
      </trkpt>
      <trkpt lat="44.17057" lon="3.18585">
        <ele>778.2</ele>
        <time>2022-02-10T10:49:55Z</time>
        <extensions>
          <gpxtpx:TrackPointExtension xmlns:gpxtpx="http://www.garmin.com/xmlschemas/TrackPointExtension/v1">
            <gpxtpx:hr>146</gpxtpx:hr>
          </gpxtpx:TrackPointExtension>
        </extensions>
      </trkpt>
      <trkpt lat="44.17055" lon="3.18583">
        <ele>778.6</ele>
        <time>2022-02-10T10:49:56Z</time>
        <extensions>
          <gpxtpx:TrackPointExtension xmlns:gpxtpx="http://www.garmin.com/xmlschemas/TrackPointExtension/v1">
            <gpxtpx:hr>146</gpxtpx:hr>
          </gpxtpx:TrackPointExtension>
        </extensions>
      </trkpt>
      <trkpt lat="44.17052" lon="3.18577">
        <ele>778.6</ele>
        <time>2022-02-10T10:49:58Z</time>
        <extensions>
          <gpxtpx:TrackPointExtension xmlns:gpxtpx="http://www.garmin.com/xmlschemas/TrackPointExtension/v1">
            <gpxtpx:hr>148</gpxtpx:hr>
          </gpxtpx:TrackPointExtension>
        </extensions>
      </trkpt>
      <trkpt lat="44.17051" lon="3.18576">
        <ele>778.6</ele>
        <time>2022-02-10T10:49:59Z</time>
        <extensions>
          <gpxtpx:TrackPointExtension xmlns:gpxtpx="http://www.garmin.com/xmlschemas/TrackPointExtension/v1">
            <gpxtpx:hr>148</gpxtpx:hr>
          </gpxtpx:TrackPointExtension>
        </extensions>
      </trkpt>
      <trkpt lat="44.1705" lon="3.18574">
        <ele>778.6</ele>
        <time>2022-02-10T10:50:00Z</time>
        <extensions>
          <gpxtpx:TrackPointExtension xmlns:gpxtpx="http://www.garmin.com/xmlschemas/TrackPointExtension/v1">
            <gpxtpx:hr>149</gpxtpx:hr>
          </gpxtpx:TrackPointExtension>
        </extensions>
      </trkpt>
      <trkpt lat="44.17047" lon="3.18567">
        <ele>778.2</ele>
        <time>2022-02-10T10:50:03Z</time>
        <extensions>
          <gpxtpx:TrackPointExtension xmlns:gpxtpx="http://www.garmin.com/xmlschemas/TrackPointExtension/v1">
            <gpxtpx:hr>150</gpxtpx:hr>
          </gpxtpx:TrackPointExtension>
        </extensions>
      </trkpt>
      <trkpt lat="44.17046" lon="3.18563">
        <ele>777.8</ele>
        <time>2022-02-10T10:50:05Z</time>
        <extensions>
          <gpxtpx:TrackPointExtension xmlns:gpxtpx="http://www.garmin.com/xmlschemas/TrackPointExtension/v1">
            <gpxtpx:hr>150</gpxtpx:hr>
          </gpxtpx:TrackPointExtension>
        </extensions>
      </trkpt>
      <trkpt lat="44.17045" lon="3.18559">
        <ele>777.6</ele>
        <time>2022-02-10T10:50:06Z</time>
        <extensions>
          <gpxtpx:TrackPointExtension xmlns:gpxtpx="http://www.garmin.com/xmlschemas/TrackPointExtension/v1">
            <gpxtpx:hr>151</gpxtpx:hr>
          </gpxtpx:TrackPointExtension>
        </extensions>
      </trkpt>
      <trkpt lat="44.17043" lon="3.18556">
        <ele>777.2</ele>
        <time>2022-02-10T10:50:07Z</time>
        <extensions>
          <gpxtpx:TrackPointExtension xmlns:gpxtpx="http://www.garmin.com/xmlschemas/TrackPointExtension/v1">
            <gpxtpx:hr>152</gpxtpx:hr>
          </gpxtpx:TrackPointExtension>
        </extensions>
      </trkpt>
      <trkpt lat="44.17042" lon="3.18552">
        <ele>777</ele>
        <time>2022-02-10T10:50:08Z</time>
        <extensions>
          <gpxtpx:TrackPointExtension xmlns:gpxtpx="http://www.garmin.com/xmlschemas/TrackPointExtension/v1">
            <gpxtpx:hr>152</gpxtpx:hr>
          </gpxtpx:TrackPointExtension>
        </extensions>
      </trkpt>
      <trkpt lat="44.17041" lon="3.18548">
        <ele>776.6</ele>
        <time>2022-02-10T10:50:09Z</time>
        <extensions>
          <gpxtpx:TrackPointExtension xmlns:gpxtpx="http://www.garmin.com/xmlschemas/TrackPointExtension/v1">
            <gpxtpx:hr>153</gpxtpx:hr>
          </gpxtpx:TrackPointExtension>
        </extensions>
      </trkpt>
      <trkpt lat="44.17039" lon="3.18545">
        <ele>776.2</ele>
        <time>2022-02-10T10:50:10Z</time>
        <extensions>
          <gpxtpx:TrackPointExtension xmlns:gpxtpx="http://www.garmin.com/xmlschemas/TrackPointExtension/v1">
            <gpxtpx:hr>153</gpxtpx:hr>
          </gpxtpx:TrackPointExtension>
        </extensions>
      </trkpt>
      <trkpt lat="44.17037" lon="3.18541">
        <ele>775.8</ele>
        <time>2022-02-10T10:50:11Z</time>
        <extensions>
          <gpxtpx:TrackPointExtension xmlns:gpxtpx="http://www.garmin.com/xmlschemas/TrackPointExtension/v1">
            <gpxtpx:hr>154</gpxtpx:hr>
          </gpxtpx:TrackPointExtension>
        </extensions>
      </trkpt>
      <trkpt lat="44.17036" lon="3.18538">
        <ele>775.4</ele>
        <time>2022-02-10T10:50:12Z</time>
        <extensions>
          <gpxtpx:TrackPointExtension xmlns:gpxtpx="http://www.garmin.com/xmlschemas/TrackPointExtension/v1">
            <gpxtpx:hr>154</gpxtpx:hr>
          </gpxtpx:TrackPointExtension>
        </extensions>
      </trkpt>
      <trkpt lat="44.17034" lon="3.18535">
        <ele>774.6</ele>
        <time>2022-02-10T10:50:14Z</time>
        <extensions>
          <gpxtpx:TrackPointExtension xmlns:gpxtpx="http://www.garmin.com/xmlschemas/TrackPointExtension/v1">
            <gpxtpx:hr>154</gpxtpx:hr>
          </gpxtpx:TrackPointExtension>
        </extensions>
      </trkpt>
      <trkpt lat="44.17032" lon="3.18532">
        <ele>774.4</ele>
        <time>2022-02-10T10:50:15Z</time>
        <extensions>
          <gpxtpx:TrackPointExtension xmlns:gpxtpx="http://www.garmin.com/xmlschemas/TrackPointExtension/v1">
            <gpxtpx:hr>155</gpxtpx:hr>
          </gpxtpx:TrackPointExtension>
        </extensions>
      </trkpt>
      <trkpt lat="44.17031" lon="3.18529">
        <ele>774</ele>
        <time>2022-02-10T10:50:16Z</time>
        <extensions>
          <gpxtpx:TrackPointExtension xmlns:gpxtpx="http://www.garmin.com/xmlschemas/TrackPointExtension/v1">
            <gpxtpx:hr>154</gpxtpx:hr>
          </gpxtpx:TrackPointExtension>
        </extensions>
      </trkpt>
      <trkpt lat="44.17029" lon="3.18525">
        <ele>773.8</ele>
        <time>2022-02-10T10:50:17Z</time>
        <extensions>
          <gpxtpx:TrackPointExtension xmlns:gpxtpx="http://www.garmin.com/xmlschemas/TrackPointExtension/v1">
            <gpxtpx:hr>154</gpxtpx:hr>
          </gpxtpx:TrackPointExtension>
        </extensions>
      </trkpt>
      <trkpt lat="44.17028" lon="3.18523">
        <ele>773.4</ele>
        <time>2022-02-10T10:50:18Z</time>
        <extensions>
          <gpxtpx:TrackPointExtension xmlns:gpxtpx="http://www.garmin.com/xmlschemas/TrackPointExtension/v1">
            <gpxtpx:hr>154</gpxtpx:hr>
          </gpxtpx:TrackPointExtension>
        </extensions>
      </trkpt>
      <trkpt lat="44.17028" lon="3.1852">
        <ele>773</ele>
        <time>2022-02-10T10:50:19Z</time>
        <extensions>
          <gpxtpx:TrackPointExtension xmlns:gpxtpx="http://www.garmin.com/xmlschemas/TrackPointExtension/v1">
            <gpxtpx:hr>154</gpxtpx:hr>
          </gpxtpx:TrackPointExtension>
        </extensions>
      </trkpt>
      <trkpt lat="44.17027" lon="3.18517">
        <ele>772.8</ele>
        <time>2022-02-10T10:50:20Z</time>
        <extensions>
          <gpxtpx:TrackPointExtension xmlns:gpxtpx="http://www.garmin.com/xmlschemas/TrackPointExtension/v1">
            <gpxtpx:hr>153</gpxtpx:hr>
          </gpxtpx:TrackPointExtension>
        </extensions>
      </trkpt>
      <trkpt lat="44.17026" lon="3.18515">
        <ele>772.4</ele>
        <time>2022-02-10T10:50:21Z</time>
        <extensions>
          <gpxtpx:TrackPointExtension xmlns:gpxtpx="http://www.garmin.com/xmlschemas/TrackPointExtension/v1">
            <gpxtpx:hr>153</gpxtpx:hr>
          </gpxtpx:TrackPointExtension>
        </extensions>
      </trkpt>
      <trkpt lat="44.17025" lon="3.18512">
        <ele>772</ele>
        <time>2022-02-10T10:50:22Z</time>
        <extensions>
          <gpxtpx:TrackPointExtension xmlns:gpxtpx="http://www.garmin.com/xmlschemas/TrackPointExtension/v1">
            <gpxtpx:hr>153</gpxtpx:hr>
          </gpxtpx:TrackPointExtension>
        </extensions>
      </trkpt>
      <trkpt lat="44.17025" lon="3.18509">
        <ele>771.8</ele>
        <time>2022-02-10T10:50:23Z</time>
        <extensions>
          <gpxtpx:TrackPointExtension xmlns:gpxtpx="http://www.garmin.com/xmlschemas/TrackPointExtension/v1">
            <gpxtpx:hr>152</gpxtpx:hr>
          </gpxtpx:TrackPointExtension>
        </extensions>
      </trkpt>
      <trkpt lat="44.17026" lon="3.18506">
        <ele>771.4</ele>
        <time>2022-02-10T10:50:24Z</time>
        <extensions>
          <gpxtpx:TrackPointExtension xmlns:gpxtpx="http://www.garmin.com/xmlschemas/TrackPointExtension/v1">
            <gpxtpx:hr>149</gpxtpx:hr>
          </gpxtpx:TrackPointExtension>
        </extensions>
      </trkpt>
      <trkpt lat="44.17026" lon="3.18502">
        <ele>771.2</ele>
        <time>2022-02-10T10:50:25Z</time>
        <extensions>
          <gpxtpx:TrackPointExtension xmlns:gpxtpx="http://www.garmin.com/xmlschemas/TrackPointExtension/v1">
            <gpxtpx:hr>151</gpxtpx:hr>
          </gpxtpx:TrackPointExtension>
        </extensions>
      </trkpt>
      <trkpt lat="44.17026" lon="3.18499">
        <ele>771</ele>
        <time>2022-02-10T10:50:26Z</time>
        <extensions>
          <gpxtpx:TrackPointExtension xmlns:gpxtpx="http://www.garmin.com/xmlschemas/TrackPointExtension/v1">
            <gpxtpx:hr>151</gpxtpx:hr>
          </gpxtpx:TrackPointExtension>
        </extensions>
      </trkpt>
      <trkpt lat="44.17026" lon="3.18496">
        <ele>771</ele>
        <time>2022-02-10T10:50:27Z</time>
        <extensions>
          <gpxtpx:TrackPointExtension xmlns:gpxtpx="http://www.garmin.com/xmlschemas/TrackPointExtension/v1">
            <gpxtpx:hr>151</gpxtpx:hr>
          </gpxtpx:TrackPointExtension>
        </extensions>
      </trkpt>
      <trkpt lat="44.17029" lon="3.18493">
        <ele>770.6</ele>
        <time>2022-02-10T10:50:28Z</time>
        <extensions>
          <gpxtpx:TrackPointExtension xmlns:gpxtpx="http://www.garmin.com/xmlschemas/TrackPointExtension/v1">
            <gpxtpx:hr>151</gpxtpx:hr>
          </gpxtpx:TrackPointExtension>
        </extensions>
      </trkpt>
      <trkpt lat="44.17031" lon="3.1849">
        <ele>770.6</ele>
        <time>2022-02-10T10:50:29Z</time>
        <extensions>
          <gpxtpx:TrackPointExtension xmlns:gpxtpx="http://www.garmin.com/xmlschemas/TrackPointExtension/v1">
            <gpxtpx:hr>152</gpxtpx:hr>
          </gpxtpx:TrackPointExtension>
        </extensions>
      </trkpt>
      <trkpt lat="44.17034" lon="3.18487">
        <ele>770.4</ele>
        <time>2022-02-10T10:50:30Z</time>
        <extensions>
          <gpxtpx:TrackPointExtension xmlns:gpxtpx="http://www.garmin.com/xmlschemas/TrackPointExtension/v1">
            <gpxtpx:hr>152</gpxtpx:hr>
          </gpxtpx:TrackPointExtension>
        </extensions>
      </trkpt>
      <trkpt lat="44.17036" lon="3.18484">
        <ele>770.4</ele>
        <time>2022-02-10T10:50:31Z</time>
        <extensions>
          <gpxtpx:TrackPointExtension xmlns:gpxtpx="http://www.garmin.com/xmlschemas/TrackPointExtension/v1">
            <gpxtpx:hr>152</gpxtpx:hr>
          </gpxtpx:TrackPointExtension>
        </extensions>
      </trkpt>
      <trkpt lat="44.17039" lon="3.18483">
        <ele>770</ele>
        <time>2022-02-10T10:50:32Z</time>
        <extensions>
          <gpxtpx:TrackPointExtension xmlns:gpxtpx="http://www.garmin.com/xmlschemas/TrackPointExtension/v1">
            <gpxtpx:hr>151</gpxtpx:hr>
          </gpxtpx:TrackPointExtension>
        </extensions>
      </trkpt>
      <trkpt lat="44.17042" lon="3.18482">
        <ele>769.8</ele>
        <time>2022-02-10T10:50:34Z</time>
        <extensions>
          <gpxtpx:TrackPointExtension xmlns:gpxtpx="http://www.garmin.com/xmlschemas/TrackPointExtension/v1">
            <gpxtpx:hr>152</gpxtpx:hr>
          </gpxtpx:TrackPointExtension>
        </extensions>
      </trkpt>
      <trkpt lat="44.17044" lon="3.18482">
        <ele>769.8</ele>
        <time>2022-02-10T10:50:35Z</time>
        <extensions>
          <gpxtpx:TrackPointExtension xmlns:gpxtpx="http://www.garmin.com/xmlschemas/TrackPointExtension/v1">
            <gpxtpx:hr>153</gpxtpx:hr>
          </gpxtpx:TrackPointExtension>
        </extensions>
      </trkpt>
      <trkpt lat="44.17047" lon="3.18481">
        <ele>769.6</ele>
        <time>2022-02-10T10:50:36Z</time>
        <extensions>
          <gpxtpx:TrackPointExtension xmlns:gpxtpx="http://www.garmin.com/xmlschemas/TrackPointExtension/v1">
            <gpxtpx:hr>152</gpxtpx:hr>
          </gpxtpx:TrackPointExtension>
        </extensions>
      </trkpt>
      <trkpt lat="44.1705" lon="3.18481">
        <ele>769.6</ele>
        <time>2022-02-10T10:50:37Z</time>
        <extensions>
          <gpxtpx:TrackPointExtension xmlns:gpxtpx="http://www.garmin.com/xmlschemas/TrackPointExtension/v1">
            <gpxtpx:hr>151</gpxtpx:hr>
          </gpxtpx:TrackPointExtension>
        </extensions>
      </trkpt>
      <trkpt lat="44.17053" lon="3.1848">
        <ele>769.6</ele>
        <time>2022-02-10T10:50:38Z</time>
        <extensions>
          <gpxtpx:TrackPointExtension xmlns:gpxtpx="http://www.garmin.com/xmlschemas/TrackPointExtension/v1">
            <gpxtpx:hr>150</gpxtpx:hr>
          </gpxtpx:TrackPointExtension>
        </extensions>
      </trkpt>
      <trkpt lat="44.17056" lon="3.18479">
        <ele>769.2</ele>
        <time>2022-02-10T10:50:39Z</time>
        <extensions>
          <gpxtpx:TrackPointExtension xmlns:gpxtpx="http://www.garmin.com/xmlschemas/TrackPointExtension/v1">
            <gpxtpx:hr>149</gpxtpx:hr>
          </gpxtpx:TrackPointExtension>
        </extensions>
      </trkpt>
      <trkpt lat="44.17059" lon="3.18478">
        <ele>769.2</ele>
        <time>2022-02-10T10:50:40Z</time>
        <extensions>
          <gpxtpx:TrackPointExtension xmlns:gpxtpx="http://www.garmin.com/xmlschemas/TrackPointExtension/v1">
            <gpxtpx:hr>149</gpxtpx:hr>
          </gpxtpx:TrackPointExtension>
        </extensions>
      </trkpt>
      <trkpt lat="44.17062" lon="3.18477">
        <ele>769</ele>
        <time>2022-02-10T10:50:41Z</time>
        <extensions>
          <gpxtpx:TrackPointExtension xmlns:gpxtpx="http://www.garmin.com/xmlschemas/TrackPointExtension/v1">
            <gpxtpx:hr>149</gpxtpx:hr>
          </gpxtpx:TrackPointExtension>
        </extensions>
      </trkpt>
      <trkpt lat="44.17063" lon="3.18476">
        <ele>769</ele>
        <time>2022-02-10T10:50:42Z</time>
        <extensions>
          <gpxtpx:TrackPointExtension xmlns:gpxtpx="http://www.garmin.com/xmlschemas/TrackPointExtension/v1">
            <gpxtpx:hr>150</gpxtpx:hr>
          </gpxtpx:TrackPointExtension>
        </extensions>
      </trkpt>
      <trkpt lat="44.17069" lon="3.18474">
        <ele>769</ele>
        <time>2022-02-10T10:50:43Z</time>
        <extensions>
          <gpxtpx:TrackPointExtension xmlns:gpxtpx="http://www.garmin.com/xmlschemas/TrackPointExtension/v1">
            <gpxtpx:hr>149</gpxtpx:hr>
          </gpxtpx:TrackPointExtension>
        </extensions>
      </trkpt>
      <trkpt lat="44.17071" lon="3.18472">
        <ele>768.8</ele>
        <time>2022-02-10T10:50:44Z</time>
        <extensions>
          <gpxtpx:TrackPointExtension xmlns:gpxtpx="http://www.garmin.com/xmlschemas/TrackPointExtension/v1">
            <gpxtpx:hr>149</gpxtpx:hr>
          </gpxtpx:TrackPointExtension>
        </extensions>
      </trkpt>
      <trkpt lat="44.17074" lon="3.18471">
        <ele>768.8</ele>
        <time>2022-02-10T10:50:45Z</time>
        <extensions>
          <gpxtpx:TrackPointExtension xmlns:gpxtpx="http://www.garmin.com/xmlschemas/TrackPointExtension/v1">
            <gpxtpx:hr>146</gpxtpx:hr>
          </gpxtpx:TrackPointExtension>
        </extensions>
      </trkpt>
      <trkpt lat="44.17079" lon="3.18468">
        <ele>768.8</ele>
        <time>2022-02-10T10:50:47Z</time>
        <extensions>
          <gpxtpx:TrackPointExtension xmlns:gpxtpx="http://www.garmin.com/xmlschemas/TrackPointExtension/v1">
            <gpxtpx:hr>144</gpxtpx:hr>
          </gpxtpx:TrackPointExtension>
        </extensions>
      </trkpt>
      <trkpt lat="44.17081" lon="3.18467">
        <ele>768.4</ele>
        <time>2022-02-10T10:50:48Z</time>
        <extensions>
          <gpxtpx:TrackPointExtension xmlns:gpxtpx="http://www.garmin.com/xmlschemas/TrackPointExtension/v1">
            <gpxtpx:hr>146</gpxtpx:hr>
          </gpxtpx:TrackPointExtension>
        </extensions>
      </trkpt>
      <trkpt lat="44.17083" lon="3.18466">
        <ele>768.4</ele>
        <time>2022-02-10T10:50:49Z</time>
        <extensions>
          <gpxtpx:TrackPointExtension xmlns:gpxtpx="http://www.garmin.com/xmlschemas/TrackPointExtension/v1">
            <gpxtpx:hr>145</gpxtpx:hr>
          </gpxtpx:TrackPointExtension>
        </extensions>
      </trkpt>
      <trkpt lat="44.17086" lon="3.18465">
        <ele>768.4</ele>
        <time>2022-02-10T10:50:50Z</time>
        <extensions>
          <gpxtpx:TrackPointExtension xmlns:gpxtpx="http://www.garmin.com/xmlschemas/TrackPointExtension/v1">
            <gpxtpx:hr>147</gpxtpx:hr>
          </gpxtpx:TrackPointExtension>
        </extensions>
      </trkpt>
      <trkpt lat="44.17088" lon="3.18465">
        <ele>768.2</ele>
        <time>2022-02-10T10:50:51Z</time>
        <extensions>
          <gpxtpx:TrackPointExtension xmlns:gpxtpx="http://www.garmin.com/xmlschemas/TrackPointExtension/v1">
            <gpxtpx:hr>145</gpxtpx:hr>
          </gpxtpx:TrackPointExtension>
        </extensions>
      </trkpt>
      <trkpt lat="44.17091" lon="3.18465">
        <ele>768</ele>
        <time>2022-02-10T10:50:54Z</time>
        <extensions>
          <gpxtpx:TrackPointExtension xmlns:gpxtpx="http://www.garmin.com/xmlschemas/TrackPointExtension/v1">
            <gpxtpx:hr>144</gpxtpx:hr>
          </gpxtpx:TrackPointExtension>
        </extensions>
      </trkpt>
      <trkpt lat="44.17094" lon="3.18465">
        <ele>768</ele>
        <time>2022-02-10T10:50:55Z</time>
        <extensions>
          <gpxtpx:TrackPointExtension xmlns:gpxtpx="http://www.garmin.com/xmlschemas/TrackPointExtension/v1">
            <gpxtpx:hr>143</gpxtpx:hr>
          </gpxtpx:TrackPointExtension>
        </extensions>
      </trkpt>
      <trkpt lat="44.17097" lon="3.18465">
        <ele>768</ele>
        <time>2022-02-10T10:50:56Z</time>
        <extensions>
          <gpxtpx:TrackPointExtension xmlns:gpxtpx="http://www.garmin.com/xmlschemas/TrackPointExtension/v1">
            <gpxtpx:hr>143</gpxtpx:hr>
          </gpxtpx:TrackPointExtension>
        </extensions>
      </trkpt>
      <trkpt lat="44.171" lon="3.18465">
        <ele>767.6</ele>
        <time>2022-02-10T10:50:57Z</time>
        <extensions>
          <gpxtpx:TrackPointExtension xmlns:gpxtpx="http://www.garmin.com/xmlschemas/TrackPointExtension/v1">
            <gpxtpx:hr>143</gpxtpx:hr>
          </gpxtpx:TrackPointExtension>
        </extensions>
      </trkpt>
      <trkpt lat="44.17103" lon="3.18467">
        <ele>767.6</ele>
        <time>2022-02-10T10:50:58Z</time>
        <extensions>
          <gpxtpx:TrackPointExtension xmlns:gpxtpx="http://www.garmin.com/xmlschemas/TrackPointExtension/v1">
            <gpxtpx:hr>142</gpxtpx:hr>
          </gpxtpx:TrackPointExtension>
        </extensions>
      </trkpt>
      <trkpt lat="44.17106" lon="3.18468">
        <ele>767.6</ele>
        <time>2022-02-10T10:50:59Z</time>
        <extensions>
          <gpxtpx:TrackPointExtension xmlns:gpxtpx="http://www.garmin.com/xmlschemas/TrackPointExtension/v1">
            <gpxtpx:hr>144</gpxtpx:hr>
          </gpxtpx:TrackPointExtension>
        </extensions>
      </trkpt>
      <trkpt lat="44.17109" lon="3.18469">
        <ele>767.6</ele>
        <time>2022-02-10T10:51:00Z</time>
        <extensions>
          <gpxtpx:TrackPointExtension xmlns:gpxtpx="http://www.garmin.com/xmlschemas/TrackPointExtension/v1">
            <gpxtpx:hr>145</gpxtpx:hr>
          </gpxtpx:TrackPointExtension>
        </extensions>
      </trkpt>
      <trkpt lat="44.17113" lon="3.1847">
        <ele>767.6</ele>
        <time>2022-02-10T10:51:01Z</time>
        <extensions>
          <gpxtpx:TrackPointExtension xmlns:gpxtpx="http://www.garmin.com/xmlschemas/TrackPointExtension/v1">
            <gpxtpx:hr>144</gpxtpx:hr>
          </gpxtpx:TrackPointExtension>
        </extensions>
      </trkpt>
      <trkpt lat="44.17115" lon="3.18471">
        <ele>767.6</ele>
        <time>2022-02-10T10:51:02Z</time>
        <extensions>
          <gpxtpx:TrackPointExtension xmlns:gpxtpx="http://www.garmin.com/xmlschemas/TrackPointExtension/v1">
            <gpxtpx:hr>144</gpxtpx:hr>
          </gpxtpx:TrackPointExtension>
        </extensions>
      </trkpt>
      <trkpt lat="44.17117" lon="3.18472">
        <ele>767.6</ele>
        <time>2022-02-10T10:51:03Z</time>
        <extensions>
          <gpxtpx:TrackPointExtension xmlns:gpxtpx="http://www.garmin.com/xmlschemas/TrackPointExtension/v1">
            <gpxtpx:hr>143</gpxtpx:hr>
          </gpxtpx:TrackPointExtension>
        </extensions>
      </trkpt>
      <trkpt lat="44.17122" lon="3.18473">
        <ele>767.4</ele>
        <time>2022-02-10T10:51:05Z</time>
        <extensions>
          <gpxtpx:TrackPointExtension xmlns:gpxtpx="http://www.garmin.com/xmlschemas/TrackPointExtension/v1">
            <gpxtpx:hr>142</gpxtpx:hr>
          </gpxtpx:TrackPointExtension>
        </extensions>
      </trkpt>
      <trkpt lat="44.17124" lon="3.18472">
        <ele>767.2</ele>
        <time>2022-02-10T10:51:06Z</time>
        <extensions>
          <gpxtpx:TrackPointExtension xmlns:gpxtpx="http://www.garmin.com/xmlschemas/TrackPointExtension/v1">
            <gpxtpx:hr>141</gpxtpx:hr>
          </gpxtpx:TrackPointExtension>
        </extensions>
      </trkpt>
      <trkpt lat="44.17127" lon="3.18471">
        <ele>766.8</ele>
        <time>2022-02-10T10:51:08Z</time>
        <extensions>
          <gpxtpx:TrackPointExtension xmlns:gpxtpx="http://www.garmin.com/xmlschemas/TrackPointExtension/v1">
            <gpxtpx:hr>141</gpxtpx:hr>
          </gpxtpx:TrackPointExtension>
        </extensions>
      </trkpt>
      <trkpt lat="44.17128" lon="3.1847">
        <ele>766.8</ele>
        <time>2022-02-10T10:51:09Z</time>
        <extensions>
          <gpxtpx:TrackPointExtension xmlns:gpxtpx="http://www.garmin.com/xmlschemas/TrackPointExtension/v1">
            <gpxtpx:hr>143</gpxtpx:hr>
          </gpxtpx:TrackPointExtension>
        </extensions>
      </trkpt>
      <trkpt lat="44.17131" lon="3.18466">
        <ele>766.4</ele>
        <time>2022-02-10T10:51:11Z</time>
        <extensions>
          <gpxtpx:TrackPointExtension xmlns:gpxtpx="http://www.garmin.com/xmlschemas/TrackPointExtension/v1">
            <gpxtpx:hr>144</gpxtpx:hr>
          </gpxtpx:TrackPointExtension>
        </extensions>
      </trkpt>
      <trkpt lat="44.17134" lon="3.18463">
        <ele>766.2</ele>
        <time>2022-02-10T10:51:13Z</time>
        <extensions>
          <gpxtpx:TrackPointExtension xmlns:gpxtpx="http://www.garmin.com/xmlschemas/TrackPointExtension/v1">
            <gpxtpx:hr>145</gpxtpx:hr>
          </gpxtpx:TrackPointExtension>
        </extensions>
      </trkpt>
      <trkpt lat="44.17135" lon="3.18461">
        <ele>765.8</ele>
        <time>2022-02-10T10:51:14Z</time>
        <extensions>
          <gpxtpx:TrackPointExtension xmlns:gpxtpx="http://www.garmin.com/xmlschemas/TrackPointExtension/v1">
            <gpxtpx:hr>147</gpxtpx:hr>
          </gpxtpx:TrackPointExtension>
        </extensions>
      </trkpt>
      <trkpt lat="44.17137" lon="3.18459">
        <ele>765.8</ele>
        <time>2022-02-10T10:51:15Z</time>
        <extensions>
          <gpxtpx:TrackPointExtension xmlns:gpxtpx="http://www.garmin.com/xmlschemas/TrackPointExtension/v1">
            <gpxtpx:hr>146</gpxtpx:hr>
          </gpxtpx:TrackPointExtension>
        </extensions>
      </trkpt>
      <trkpt lat="44.17139" lon="3.18458">
        <ele>765.8</ele>
        <time>2022-02-10T10:51:16Z</time>
        <extensions>
          <gpxtpx:TrackPointExtension xmlns:gpxtpx="http://www.garmin.com/xmlschemas/TrackPointExtension/v1">
            <gpxtpx:hr>146</gpxtpx:hr>
          </gpxtpx:TrackPointExtension>
        </extensions>
      </trkpt>
      <trkpt lat="44.17141" lon="3.18456">
        <ele>765.6</ele>
        <time>2022-02-10T10:51:17Z</time>
        <extensions>
          <gpxtpx:TrackPointExtension xmlns:gpxtpx="http://www.garmin.com/xmlschemas/TrackPointExtension/v1">
            <gpxtpx:hr>147</gpxtpx:hr>
          </gpxtpx:TrackPointExtension>
        </extensions>
      </trkpt>
      <trkpt lat="44.17143" lon="3.18455">
        <ele>765.6</ele>
        <time>2022-02-10T10:51:18Z</time>
        <extensions>
          <gpxtpx:TrackPointExtension xmlns:gpxtpx="http://www.garmin.com/xmlschemas/TrackPointExtension/v1">
            <gpxtpx:hr>147</gpxtpx:hr>
          </gpxtpx:TrackPointExtension>
        </extensions>
      </trkpt>
      <trkpt lat="44.17145" lon="3.18453">
        <ele>765.6</ele>
        <time>2022-02-10T10:51:19Z</time>
        <extensions>
          <gpxtpx:TrackPointExtension xmlns:gpxtpx="http://www.garmin.com/xmlschemas/TrackPointExtension/v1">
            <gpxtpx:hr>145</gpxtpx:hr>
          </gpxtpx:TrackPointExtension>
        </extensions>
      </trkpt>
      <trkpt lat="44.17147" lon="3.18452">
        <ele>765.4</ele>
        <time>2022-02-10T10:51:20Z</time>
        <extensions>
          <gpxtpx:TrackPointExtension xmlns:gpxtpx="http://www.garmin.com/xmlschemas/TrackPointExtension/v1">
            <gpxtpx:hr>146</gpxtpx:hr>
          </gpxtpx:TrackPointExtension>
        </extensions>
      </trkpt>
      <trkpt lat="44.17149" lon="3.18451">
        <ele>765.4</ele>
        <time>2022-02-10T10:51:21Z</time>
        <extensions>
          <gpxtpx:TrackPointExtension xmlns:gpxtpx="http://www.garmin.com/xmlschemas/TrackPointExtension/v1">
            <gpxtpx:hr>145</gpxtpx:hr>
          </gpxtpx:TrackPointExtension>
        </extensions>
      </trkpt>
      <trkpt lat="44.17151" lon="3.1845">
        <ele>765.4</ele>
        <time>2022-02-10T10:51:22Z</time>
        <extensions>
          <gpxtpx:TrackPointExtension xmlns:gpxtpx="http://www.garmin.com/xmlschemas/TrackPointExtension/v1">
            <gpxtpx:hr>145</gpxtpx:hr>
          </gpxtpx:TrackPointExtension>
        </extensions>
      </trkpt>
      <trkpt lat="44.17154" lon="3.1845">
        <ele>765.2</ele>
        <time>2022-02-10T10:51:23Z</time>
        <extensions>
          <gpxtpx:TrackPointExtension xmlns:gpxtpx="http://www.garmin.com/xmlschemas/TrackPointExtension/v1">
            <gpxtpx:hr>145</gpxtpx:hr>
          </gpxtpx:TrackPointExtension>
        </extensions>
      </trkpt>
      <trkpt lat="44.17156" lon="3.18449">
        <ele>765.2</ele>
        <time>2022-02-10T10:51:24Z</time>
        <extensions>
          <gpxtpx:TrackPointExtension xmlns:gpxtpx="http://www.garmin.com/xmlschemas/TrackPointExtension/v1">
            <gpxtpx:hr>144</gpxtpx:hr>
          </gpxtpx:TrackPointExtension>
        </extensions>
      </trkpt>
      <trkpt lat="44.17158" lon="3.1845">
        <ele>765.2</ele>
        <time>2022-02-10T10:51:25Z</time>
        <extensions>
          <gpxtpx:TrackPointExtension xmlns:gpxtpx="http://www.garmin.com/xmlschemas/TrackPointExtension/v1">
            <gpxtpx:hr>143</gpxtpx:hr>
          </gpxtpx:TrackPointExtension>
        </extensions>
      </trkpt>
      <trkpt lat="44.17161" lon="3.1845">
        <ele>765.2</ele>
        <time>2022-02-10T10:51:26Z</time>
        <extensions>
          <gpxtpx:TrackPointExtension xmlns:gpxtpx="http://www.garmin.com/xmlschemas/TrackPointExtension/v1">
            <gpxtpx:hr>142</gpxtpx:hr>
          </gpxtpx:TrackPointExtension>
        </extensions>
      </trkpt>
      <trkpt lat="44.17163" lon="3.18451">
        <ele>764.8</ele>
        <time>2022-02-10T10:51:27Z</time>
        <extensions>
          <gpxtpx:TrackPointExtension xmlns:gpxtpx="http://www.garmin.com/xmlschemas/TrackPointExtension/v1">
            <gpxtpx:hr>141</gpxtpx:hr>
          </gpxtpx:TrackPointExtension>
        </extensions>
      </trkpt>
      <trkpt lat="44.17165" lon="3.18451">
        <ele>764.8</ele>
        <time>2022-02-10T10:51:28Z</time>
        <extensions>
          <gpxtpx:TrackPointExtension xmlns:gpxtpx="http://www.garmin.com/xmlschemas/TrackPointExtension/v1">
            <gpxtpx:hr>141</gpxtpx:hr>
          </gpxtpx:TrackPointExtension>
        </extensions>
      </trkpt>
      <trkpt lat="44.17168" lon="3.18452">
        <ele>764.6</ele>
        <time>2022-02-10T10:51:29Z</time>
        <extensions>
          <gpxtpx:TrackPointExtension xmlns:gpxtpx="http://www.garmin.com/xmlschemas/TrackPointExtension/v1">
            <gpxtpx:hr>139</gpxtpx:hr>
          </gpxtpx:TrackPointExtension>
        </extensions>
      </trkpt>
      <trkpt lat="44.17173" lon="3.18453">
        <ele>764.6</ele>
        <time>2022-02-10T10:51:31Z</time>
        <extensions>
          <gpxtpx:TrackPointExtension xmlns:gpxtpx="http://www.garmin.com/xmlschemas/TrackPointExtension/v1">
            <gpxtpx:hr>141</gpxtpx:hr>
          </gpxtpx:TrackPointExtension>
        </extensions>
      </trkpt>
      <trkpt lat="44.17175" lon="3.18454">
        <ele>764.2</ele>
        <time>2022-02-10T10:51:32Z</time>
        <extensions>
          <gpxtpx:TrackPointExtension xmlns:gpxtpx="http://www.garmin.com/xmlschemas/TrackPointExtension/v1">
            <gpxtpx:hr>142</gpxtpx:hr>
          </gpxtpx:TrackPointExtension>
        </extensions>
      </trkpt>
      <trkpt lat="44.17178" lon="3.18454">
        <ele>764.2</ele>
        <time>2022-02-10T10:51:33Z</time>
        <extensions>
          <gpxtpx:TrackPointExtension xmlns:gpxtpx="http://www.garmin.com/xmlschemas/TrackPointExtension/v1">
            <gpxtpx:hr>143</gpxtpx:hr>
          </gpxtpx:TrackPointExtension>
        </extensions>
      </trkpt>
      <trkpt lat="44.1718" lon="3.18455">
        <ele>764.2</ele>
        <time>2022-02-10T10:51:34Z</time>
        <extensions>
          <gpxtpx:TrackPointExtension xmlns:gpxtpx="http://www.garmin.com/xmlschemas/TrackPointExtension/v1">
            <gpxtpx:hr>143</gpxtpx:hr>
          </gpxtpx:TrackPointExtension>
        </extensions>
      </trkpt>
      <trkpt lat="44.17182" lon="3.18455">
        <ele>764</ele>
        <time>2022-02-10T10:51:35Z</time>
        <extensions>
          <gpxtpx:TrackPointExtension xmlns:gpxtpx="http://www.garmin.com/xmlschemas/TrackPointExtension/v1">
            <gpxtpx:hr>143</gpxtpx:hr>
          </gpxtpx:TrackPointExtension>
        </extensions>
      </trkpt>
      <trkpt lat="44.17184" lon="3.18456">
        <ele>764</ele>
        <time>2022-02-10T10:51:36Z</time>
        <extensions>
          <gpxtpx:TrackPointExtension xmlns:gpxtpx="http://www.garmin.com/xmlschemas/TrackPointExtension/v1">
            <gpxtpx:hr>142</gpxtpx:hr>
          </gpxtpx:TrackPointExtension>
        </extensions>
      </trkpt>
      <trkpt lat="44.17186" lon="3.18456">
        <ele>764</ele>
        <time>2022-02-10T10:51:37Z</time>
        <extensions>
          <gpxtpx:TrackPointExtension xmlns:gpxtpx="http://www.garmin.com/xmlschemas/TrackPointExtension/v1">
            <gpxtpx:hr>142</gpxtpx:hr>
          </gpxtpx:TrackPointExtension>
        </extensions>
      </trkpt>
      <trkpt lat="44.17188" lon="3.18456">
        <ele>764</ele>
        <time>2022-02-10T10:51:38Z</time>
        <extensions>
          <gpxtpx:TrackPointExtension xmlns:gpxtpx="http://www.garmin.com/xmlschemas/TrackPointExtension/v1">
            <gpxtpx:hr>142</gpxtpx:hr>
          </gpxtpx:TrackPointExtension>
        </extensions>
      </trkpt>
      <trkpt lat="44.1719" lon="3.18456">
        <ele>764</ele>
        <time>2022-02-10T10:51:39Z</time>
        <extensions>
          <gpxtpx:TrackPointExtension xmlns:gpxtpx="http://www.garmin.com/xmlschemas/TrackPointExtension/v1">
            <gpxtpx:hr>141</gpxtpx:hr>
          </gpxtpx:TrackPointExtension>
        </extensions>
      </trkpt>
      <trkpt lat="44.17195" lon="3.18456">
        <ele>763.8</ele>
        <time>2022-02-10T10:51:41Z</time>
        <extensions>
          <gpxtpx:TrackPointExtension xmlns:gpxtpx="http://www.garmin.com/xmlschemas/TrackPointExtension/v1">
            <gpxtpx:hr>139</gpxtpx:hr>
          </gpxtpx:TrackPointExtension>
        </extensions>
      </trkpt>
      <trkpt lat="44.17197" lon="3.18456">
        <ele>763.8</ele>
        <time>2022-02-10T10:51:42Z</time>
        <extensions>
          <gpxtpx:TrackPointExtension xmlns:gpxtpx="http://www.garmin.com/xmlschemas/TrackPointExtension/v1">
            <gpxtpx:hr>138</gpxtpx:hr>
          </gpxtpx:TrackPointExtension>
        </extensions>
      </trkpt>
      <trkpt lat="44.172" lon="3.18455">
        <ele>763.8</ele>
        <time>2022-02-10T10:51:43Z</time>
        <extensions>
          <gpxtpx:TrackPointExtension xmlns:gpxtpx="http://www.garmin.com/xmlschemas/TrackPointExtension/v1">
            <gpxtpx:hr>138</gpxtpx:hr>
          </gpxtpx:TrackPointExtension>
        </extensions>
      </trkpt>
      <trkpt lat="44.17204" lon="3.18454">
        <ele>763.6</ele>
        <time>2022-02-10T10:51:45Z</time>
        <extensions>
          <gpxtpx:TrackPointExtension xmlns:gpxtpx="http://www.garmin.com/xmlschemas/TrackPointExtension/v1">
            <gpxtpx:hr>138</gpxtpx:hr>
          </gpxtpx:TrackPointExtension>
        </extensions>
      </trkpt>
      <trkpt lat="44.17211" lon="3.18453">
        <ele>763.6</ele>
        <time>2022-02-10T10:51:48Z</time>
        <extensions>
          <gpxtpx:TrackPointExtension xmlns:gpxtpx="http://www.garmin.com/xmlschemas/TrackPointExtension/v1">
            <gpxtpx:hr>139</gpxtpx:hr>
          </gpxtpx:TrackPointExtension>
        </extensions>
      </trkpt>
      <trkpt lat="44.17213" lon="3.18453">
        <ele>763.4</ele>
        <time>2022-02-10T10:51:49Z</time>
        <extensions>
          <gpxtpx:TrackPointExtension xmlns:gpxtpx="http://www.garmin.com/xmlschemas/TrackPointExtension/v1">
            <gpxtpx:hr>141</gpxtpx:hr>
          </gpxtpx:TrackPointExtension>
        </extensions>
      </trkpt>
      <trkpt lat="44.17215" lon="3.18453">
        <ele>763.4</ele>
        <time>2022-02-10T10:51:50Z</time>
        <extensions>
          <gpxtpx:TrackPointExtension xmlns:gpxtpx="http://www.garmin.com/xmlschemas/TrackPointExtension/v1">
            <gpxtpx:hr>141</gpxtpx:hr>
          </gpxtpx:TrackPointExtension>
        </extensions>
      </trkpt>
      <trkpt lat="44.17217" lon="3.18453">
        <ele>763.4</ele>
        <time>2022-02-10T10:51:51Z</time>
        <extensions>
          <gpxtpx:TrackPointExtension xmlns:gpxtpx="http://www.garmin.com/xmlschemas/TrackPointExtension/v1">
            <gpxtpx:hr>140</gpxtpx:hr>
          </gpxtpx:TrackPointExtension>
        </extensions>
      </trkpt>
      <trkpt lat="44.17219" lon="3.18453">
        <ele>763.2</ele>
        <time>2022-02-10T10:51:53Z</time>
        <extensions>
          <gpxtpx:TrackPointExtension xmlns:gpxtpx="http://www.garmin.com/xmlschemas/TrackPointExtension/v1">
            <gpxtpx:hr>140</gpxtpx:hr>
          </gpxtpx:TrackPointExtension>
        </extensions>
      </trkpt>
      <trkpt lat="44.17221" lon="3.18453">
        <ele>763.2</ele>
        <time>2022-02-10T10:51:54Z</time>
        <extensions>
          <gpxtpx:TrackPointExtension xmlns:gpxtpx="http://www.garmin.com/xmlschemas/TrackPointExtension/v1">
            <gpxtpx:hr>141</gpxtpx:hr>
          </gpxtpx:TrackPointExtension>
        </extensions>
      </trkpt>
      <trkpt lat="44.17223" lon="3.18453">
        <ele>763</ele>
        <time>2022-02-10T10:51:55Z</time>
        <extensions>
          <gpxtpx:TrackPointExtension xmlns:gpxtpx="http://www.garmin.com/xmlschemas/TrackPointExtension/v1">
            <gpxtpx:hr>143</gpxtpx:hr>
          </gpxtpx:TrackPointExtension>
        </extensions>
      </trkpt>
      <trkpt lat="44.17226" lon="3.18453">
        <ele>763</ele>
        <time>2022-02-10T10:51:56Z</time>
        <extensions>
          <gpxtpx:TrackPointExtension xmlns:gpxtpx="http://www.garmin.com/xmlschemas/TrackPointExtension/v1">
            <gpxtpx:hr>143</gpxtpx:hr>
          </gpxtpx:TrackPointExtension>
        </extensions>
      </trkpt>
      <trkpt lat="44.17228" lon="3.18453">
        <ele>763</ele>
        <time>2022-02-10T10:51:57Z</time>
        <extensions>
          <gpxtpx:TrackPointExtension xmlns:gpxtpx="http://www.garmin.com/xmlschemas/TrackPointExtension/v1">
            <gpxtpx:hr>142</gpxtpx:hr>
          </gpxtpx:TrackPointExtension>
        </extensions>
      </trkpt>
      <trkpt lat="44.1723" lon="3.18453">
        <ele>763</ele>
        <time>2022-02-10T10:51:58Z</time>
        <extensions>
          <gpxtpx:TrackPointExtension xmlns:gpxtpx="http://www.garmin.com/xmlschemas/TrackPointExtension/v1">
            <gpxtpx:hr>141</gpxtpx:hr>
          </gpxtpx:TrackPointExtension>
        </extensions>
      </trkpt>
      <trkpt lat="44.17232" lon="3.18454">
        <ele>762.6</ele>
        <time>2022-02-10T10:51:59Z</time>
        <extensions>
          <gpxtpx:TrackPointExtension xmlns:gpxtpx="http://www.garmin.com/xmlschemas/TrackPointExtension/v1">
            <gpxtpx:hr>141</gpxtpx:hr>
          </gpxtpx:TrackPointExtension>
        </extensions>
      </trkpt>
      <trkpt lat="44.17234" lon="3.18454">
        <ele>762.6</ele>
        <time>2022-02-10T10:52:00Z</time>
        <extensions>
          <gpxtpx:TrackPointExtension xmlns:gpxtpx="http://www.garmin.com/xmlschemas/TrackPointExtension/v1">
            <gpxtpx:hr>140</gpxtpx:hr>
          </gpxtpx:TrackPointExtension>
        </extensions>
      </trkpt>
      <trkpt lat="44.17237" lon="3.18455">
        <ele>762.4</ele>
        <time>2022-02-10T10:52:01Z</time>
        <extensions>
          <gpxtpx:TrackPointExtension xmlns:gpxtpx="http://www.garmin.com/xmlschemas/TrackPointExtension/v1">
            <gpxtpx:hr>137</gpxtpx:hr>
          </gpxtpx:TrackPointExtension>
        </extensions>
      </trkpt>
      <trkpt lat="44.17239" lon="3.18456">
        <ele>762.4</ele>
        <time>2022-02-10T10:52:02Z</time>
        <extensions>
          <gpxtpx:TrackPointExtension xmlns:gpxtpx="http://www.garmin.com/xmlschemas/TrackPointExtension/v1">
            <gpxtpx:hr>137</gpxtpx:hr>
          </gpxtpx:TrackPointExtension>
        </extensions>
      </trkpt>
      <trkpt lat="44.17241" lon="3.18457">
        <ele>762</ele>
        <time>2022-02-10T10:52:03Z</time>
        <extensions>
          <gpxtpx:TrackPointExtension xmlns:gpxtpx="http://www.garmin.com/xmlschemas/TrackPointExtension/v1">
            <gpxtpx:hr>138</gpxtpx:hr>
          </gpxtpx:TrackPointExtension>
        </extensions>
      </trkpt>
      <trkpt lat="44.17243" lon="3.18458">
        <ele>762</ele>
        <time>2022-02-10T10:52:04Z</time>
        <extensions>
          <gpxtpx:TrackPointExtension xmlns:gpxtpx="http://www.garmin.com/xmlschemas/TrackPointExtension/v1">
            <gpxtpx:hr>136</gpxtpx:hr>
          </gpxtpx:TrackPointExtension>
        </extensions>
      </trkpt>
      <trkpt lat="44.17246" lon="3.18459">
        <ele>761.8</ele>
        <time>2022-02-10T10:52:05Z</time>
        <extensions>
          <gpxtpx:TrackPointExtension xmlns:gpxtpx="http://www.garmin.com/xmlschemas/TrackPointExtension/v1">
            <gpxtpx:hr>135</gpxtpx:hr>
          </gpxtpx:TrackPointExtension>
        </extensions>
      </trkpt>
      <trkpt lat="44.17249" lon="3.18461">
        <ele>761.8</ele>
        <time>2022-02-10T10:52:06Z</time>
        <extensions>
          <gpxtpx:TrackPointExtension xmlns:gpxtpx="http://www.garmin.com/xmlschemas/TrackPointExtension/v1">
            <gpxtpx:hr>136</gpxtpx:hr>
          </gpxtpx:TrackPointExtension>
        </extensions>
      </trkpt>
      <trkpt lat="44.17252" lon="3.18464">
        <ele>761.4</ele>
        <time>2022-02-10T10:52:07Z</time>
        <extensions>
          <gpxtpx:TrackPointExtension xmlns:gpxtpx="http://www.garmin.com/xmlschemas/TrackPointExtension/v1">
            <gpxtpx:hr>136</gpxtpx:hr>
          </gpxtpx:TrackPointExtension>
        </extensions>
      </trkpt>
      <trkpt lat="44.17254" lon="3.18466">
        <ele>761</ele>
        <time>2022-02-10T10:52:08Z</time>
        <extensions>
          <gpxtpx:TrackPointExtension xmlns:gpxtpx="http://www.garmin.com/xmlschemas/TrackPointExtension/v1">
            <gpxtpx:hr>138</gpxtpx:hr>
          </gpxtpx:TrackPointExtension>
        </extensions>
      </trkpt>
      <trkpt lat="44.17257" lon="3.18467">
        <ele>761</ele>
        <time>2022-02-10T10:52:09Z</time>
        <extensions>
          <gpxtpx:TrackPointExtension xmlns:gpxtpx="http://www.garmin.com/xmlschemas/TrackPointExtension/v1">
            <gpxtpx:hr>138</gpxtpx:hr>
          </gpxtpx:TrackPointExtension>
        </extensions>
      </trkpt>
      <trkpt lat="44.17259" lon="3.18469">
        <ele>760.8</ele>
        <time>2022-02-10T10:52:10Z</time>
        <extensions>
          <gpxtpx:TrackPointExtension xmlns:gpxtpx="http://www.garmin.com/xmlschemas/TrackPointExtension/v1">
            <gpxtpx:hr>139</gpxtpx:hr>
          </gpxtpx:TrackPointExtension>
        </extensions>
      </trkpt>
      <trkpt lat="44.17261" lon="3.1847">
        <ele>760.6</ele>
        <time>2022-02-10T10:52:11Z</time>
        <extensions>
          <gpxtpx:TrackPointExtension xmlns:gpxtpx="http://www.garmin.com/xmlschemas/TrackPointExtension/v1">
            <gpxtpx:hr>139</gpxtpx:hr>
          </gpxtpx:TrackPointExtension>
        </extensions>
      </trkpt>
      <trkpt lat="44.17263" lon="3.18471">
        <ele>760.6</ele>
        <time>2022-02-10T10:52:12Z</time>
        <extensions>
          <gpxtpx:TrackPointExtension xmlns:gpxtpx="http://www.garmin.com/xmlschemas/TrackPointExtension/v1">
            <gpxtpx:hr>140</gpxtpx:hr>
          </gpxtpx:TrackPointExtension>
        </extensions>
      </trkpt>
      <trkpt lat="44.17265" lon="3.18472">
        <ele>760.4</ele>
        <time>2022-02-10T10:52:13Z</time>
        <extensions>
          <gpxtpx:TrackPointExtension xmlns:gpxtpx="http://www.garmin.com/xmlschemas/TrackPointExtension/v1">
            <gpxtpx:hr>140</gpxtpx:hr>
          </gpxtpx:TrackPointExtension>
        </extensions>
      </trkpt>
      <trkpt lat="44.17268" lon="3.18472">
        <ele>760</ele>
        <time>2022-02-10T10:52:14Z</time>
        <extensions>
          <gpxtpx:TrackPointExtension xmlns:gpxtpx="http://www.garmin.com/xmlschemas/TrackPointExtension/v1">
            <gpxtpx:hr>140</gpxtpx:hr>
          </gpxtpx:TrackPointExtension>
        </extensions>
      </trkpt>
      <trkpt lat="44.17271" lon="3.18473">
        <ele>759.6</ele>
        <time>2022-02-10T10:52:15Z</time>
        <extensions>
          <gpxtpx:TrackPointExtension xmlns:gpxtpx="http://www.garmin.com/xmlschemas/TrackPointExtension/v1">
            <gpxtpx:hr>141</gpxtpx:hr>
          </gpxtpx:TrackPointExtension>
        </extensions>
      </trkpt>
      <trkpt lat="44.17274" lon="3.18473">
        <ele>759.2</ele>
        <time>2022-02-10T10:52:16Z</time>
        <extensions>
          <gpxtpx:TrackPointExtension xmlns:gpxtpx="http://www.garmin.com/xmlschemas/TrackPointExtension/v1">
            <gpxtpx:hr>141</gpxtpx:hr>
          </gpxtpx:TrackPointExtension>
        </extensions>
      </trkpt>
      <trkpt lat="44.17276" lon="3.18473">
        <ele>759</ele>
        <time>2022-02-10T10:52:17Z</time>
        <extensions>
          <gpxtpx:TrackPointExtension xmlns:gpxtpx="http://www.garmin.com/xmlschemas/TrackPointExtension/v1">
            <gpxtpx:hr>141</gpxtpx:hr>
          </gpxtpx:TrackPointExtension>
        </extensions>
      </trkpt>
      <trkpt lat="44.17278" lon="3.18474">
        <ele>758.6</ele>
        <time>2022-02-10T10:52:18Z</time>
        <extensions>
          <gpxtpx:TrackPointExtension xmlns:gpxtpx="http://www.garmin.com/xmlschemas/TrackPointExtension/v1">
            <gpxtpx:hr>142</gpxtpx:hr>
          </gpxtpx:TrackPointExtension>
        </extensions>
      </trkpt>
      <trkpt lat="44.1728" lon="3.18474">
        <ele>758.4</ele>
        <time>2022-02-10T10:52:19Z</time>
        <extensions>
          <gpxtpx:TrackPointExtension xmlns:gpxtpx="http://www.garmin.com/xmlschemas/TrackPointExtension/v1">
            <gpxtpx:hr>143</gpxtpx:hr>
          </gpxtpx:TrackPointExtension>
        </extensions>
      </trkpt>
      <trkpt lat="44.17282" lon="3.18475">
        <ele>758</ele>
        <time>2022-02-10T10:52:20Z</time>
        <extensions>
          <gpxtpx:TrackPointExtension xmlns:gpxtpx="http://www.garmin.com/xmlschemas/TrackPointExtension/v1">
            <gpxtpx:hr>144</gpxtpx:hr>
          </gpxtpx:TrackPointExtension>
        </extensions>
      </trkpt>
      <trkpt lat="44.17285" lon="3.18475">
        <ele>757.6</ele>
        <time>2022-02-10T10:52:21Z</time>
        <extensions>
          <gpxtpx:TrackPointExtension xmlns:gpxtpx="http://www.garmin.com/xmlschemas/TrackPointExtension/v1">
            <gpxtpx:hr>143</gpxtpx:hr>
          </gpxtpx:TrackPointExtension>
        </extensions>
      </trkpt>
      <trkpt lat="44.17286" lon="3.18478">
        <ele>757.2</ele>
        <time>2022-02-10T10:52:22Z</time>
        <extensions>
          <gpxtpx:TrackPointExtension xmlns:gpxtpx="http://www.garmin.com/xmlschemas/TrackPointExtension/v1">
            <gpxtpx:hr>143</gpxtpx:hr>
          </gpxtpx:TrackPointExtension>
        </extensions>
      </trkpt>
      <trkpt lat="44.17288" lon="3.1848">
        <ele>756.6</ele>
        <time>2022-02-10T10:52:23Z</time>
        <extensions>
          <gpxtpx:TrackPointExtension xmlns:gpxtpx="http://www.garmin.com/xmlschemas/TrackPointExtension/v1">
            <gpxtpx:hr>143</gpxtpx:hr>
          </gpxtpx:TrackPointExtension>
        </extensions>
      </trkpt>
      <trkpt lat="44.1729" lon="3.18483">
        <ele>756.2</ele>
        <time>2022-02-10T10:52:24Z</time>
        <extensions>
          <gpxtpx:TrackPointExtension xmlns:gpxtpx="http://www.garmin.com/xmlschemas/TrackPointExtension/v1">
            <gpxtpx:hr>143</gpxtpx:hr>
          </gpxtpx:TrackPointExtension>
        </extensions>
      </trkpt>
      <trkpt lat="44.17291" lon="3.18485">
        <ele>755.8</ele>
        <time>2022-02-10T10:52:25Z</time>
        <extensions>
          <gpxtpx:TrackPointExtension xmlns:gpxtpx="http://www.garmin.com/xmlschemas/TrackPointExtension/v1">
            <gpxtpx:hr>144</gpxtpx:hr>
          </gpxtpx:TrackPointExtension>
        </extensions>
      </trkpt>
      <trkpt lat="44.17292" lon="3.18488">
        <ele>755.2</ele>
        <time>2022-02-10T10:52:26Z</time>
        <extensions>
          <gpxtpx:TrackPointExtension xmlns:gpxtpx="http://www.garmin.com/xmlschemas/TrackPointExtension/v1">
            <gpxtpx:hr>144</gpxtpx:hr>
          </gpxtpx:TrackPointExtension>
        </extensions>
      </trkpt>
      <trkpt lat="44.17293" lon="3.18491">
        <ele>755.2</ele>
        <time>2022-02-10T10:52:27Z</time>
        <extensions>
          <gpxtpx:TrackPointExtension xmlns:gpxtpx="http://www.garmin.com/xmlschemas/TrackPointExtension/v1">
            <gpxtpx:hr>144</gpxtpx:hr>
          </gpxtpx:TrackPointExtension>
        </extensions>
      </trkpt>
      <trkpt lat="44.17294" lon="3.18493">
        <ele>754.6</ele>
        <time>2022-02-10T10:52:28Z</time>
        <extensions>
          <gpxtpx:TrackPointExtension xmlns:gpxtpx="http://www.garmin.com/xmlschemas/TrackPointExtension/v1">
            <gpxtpx:hr>145</gpxtpx:hr>
          </gpxtpx:TrackPointExtension>
        </extensions>
      </trkpt>
      <trkpt lat="44.17295" lon="3.18496">
        <ele>754</ele>
        <time>2022-02-10T10:52:29Z</time>
        <extensions>
          <gpxtpx:TrackPointExtension xmlns:gpxtpx="http://www.garmin.com/xmlschemas/TrackPointExtension/v1">
            <gpxtpx:hr>144</gpxtpx:hr>
          </gpxtpx:TrackPointExtension>
        </extensions>
      </trkpt>
      <trkpt lat="44.17296" lon="3.18498">
        <ele>753.4</ele>
        <time>2022-02-10T10:52:30Z</time>
        <extensions>
          <gpxtpx:TrackPointExtension xmlns:gpxtpx="http://www.garmin.com/xmlschemas/TrackPointExtension/v1">
            <gpxtpx:hr>145</gpxtpx:hr>
          </gpxtpx:TrackPointExtension>
        </extensions>
      </trkpt>
      <trkpt lat="44.17297" lon="3.18503">
        <ele>752.8</ele>
        <time>2022-02-10T10:52:31Z</time>
        <extensions>
          <gpxtpx:TrackPointExtension xmlns:gpxtpx="http://www.garmin.com/xmlschemas/TrackPointExtension/v1">
            <gpxtpx:hr>146</gpxtpx:hr>
          </gpxtpx:TrackPointExtension>
        </extensions>
      </trkpt>
      <trkpt lat="44.17299" lon="3.18508">
        <ele>752.2</ele>
        <time>2022-02-10T10:52:32Z</time>
        <extensions>
          <gpxtpx:TrackPointExtension xmlns:gpxtpx="http://www.garmin.com/xmlschemas/TrackPointExtension/v1">
            <gpxtpx:hr>146</gpxtpx:hr>
          </gpxtpx:TrackPointExtension>
        </extensions>
      </trkpt>
      <trkpt lat="44.173" lon="3.18513">
        <ele>751.6</ele>
        <time>2022-02-10T10:52:33Z</time>
        <extensions>
          <gpxtpx:TrackPointExtension xmlns:gpxtpx="http://www.garmin.com/xmlschemas/TrackPointExtension/v1">
            <gpxtpx:hr>148</gpxtpx:hr>
          </gpxtpx:TrackPointExtension>
        </extensions>
      </trkpt>
      <trkpt lat="44.17302" lon="3.18516">
        <ele>751.2</ele>
        <time>2022-02-10T10:52:34Z</time>
        <extensions>
          <gpxtpx:TrackPointExtension xmlns:gpxtpx="http://www.garmin.com/xmlschemas/TrackPointExtension/v1">
            <gpxtpx:hr>147</gpxtpx:hr>
          </gpxtpx:TrackPointExtension>
        </extensions>
      </trkpt>
      <trkpt lat="44.17303" lon="3.18519">
        <ele>750.6</ele>
        <time>2022-02-10T10:52:35Z</time>
        <extensions>
          <gpxtpx:TrackPointExtension xmlns:gpxtpx="http://www.garmin.com/xmlschemas/TrackPointExtension/v1">
            <gpxtpx:hr>147</gpxtpx:hr>
          </gpxtpx:TrackPointExtension>
        </extensions>
      </trkpt>
      <trkpt lat="44.17304" lon="3.18522">
        <ele>750.2</ele>
        <time>2022-02-10T10:52:36Z</time>
        <extensions>
          <gpxtpx:TrackPointExtension xmlns:gpxtpx="http://www.garmin.com/xmlschemas/TrackPointExtension/v1">
            <gpxtpx:hr>147</gpxtpx:hr>
          </gpxtpx:TrackPointExtension>
        </extensions>
      </trkpt>
      <trkpt lat="44.17306" lon="3.18524">
        <ele>749.8</ele>
        <time>2022-02-10T10:52:37Z</time>
        <extensions>
          <gpxtpx:TrackPointExtension xmlns:gpxtpx="http://www.garmin.com/xmlschemas/TrackPointExtension/v1">
            <gpxtpx:hr>147</gpxtpx:hr>
          </gpxtpx:TrackPointExtension>
        </extensions>
      </trkpt>
      <trkpt lat="44.17308" lon="3.18527">
        <ele>749.6</ele>
        <time>2022-02-10T10:52:38Z</time>
        <extensions>
          <gpxtpx:TrackPointExtension xmlns:gpxtpx="http://www.garmin.com/xmlschemas/TrackPointExtension/v1">
            <gpxtpx:hr>147</gpxtpx:hr>
          </gpxtpx:TrackPointExtension>
        </extensions>
      </trkpt>
      <trkpt lat="44.17309" lon="3.1853">
        <ele>749.2</ele>
        <time>2022-02-10T10:52:39Z</time>
        <extensions>
          <gpxtpx:TrackPointExtension xmlns:gpxtpx="http://www.garmin.com/xmlschemas/TrackPointExtension/v1">
            <gpxtpx:hr>146</gpxtpx:hr>
          </gpxtpx:TrackPointExtension>
        </extensions>
      </trkpt>
      <trkpt lat="44.17311" lon="3.18533">
        <ele>749</ele>
        <time>2022-02-10T10:52:40Z</time>
        <extensions>
          <gpxtpx:TrackPointExtension xmlns:gpxtpx="http://www.garmin.com/xmlschemas/TrackPointExtension/v1">
            <gpxtpx:hr>146</gpxtpx:hr>
          </gpxtpx:TrackPointExtension>
        </extensions>
      </trkpt>
      <trkpt lat="44.17313" lon="3.18536">
        <ele>748.8</ele>
        <time>2022-02-10T10:52:41Z</time>
        <extensions>
          <gpxtpx:TrackPointExtension xmlns:gpxtpx="http://www.garmin.com/xmlschemas/TrackPointExtension/v1">
            <gpxtpx:hr>146</gpxtpx:hr>
          </gpxtpx:TrackPointExtension>
        </extensions>
      </trkpt>
      <trkpt lat="44.17315" lon="3.18539">
        <ele>748.6</ele>
        <time>2022-02-10T10:52:42Z</time>
        <extensions>
          <gpxtpx:TrackPointExtension xmlns:gpxtpx="http://www.garmin.com/xmlschemas/TrackPointExtension/v1">
            <gpxtpx:hr>144</gpxtpx:hr>
          </gpxtpx:TrackPointExtension>
        </extensions>
      </trkpt>
      <trkpt lat="44.17317" lon="3.18542">
        <ele>748.6</ele>
        <time>2022-02-10T10:52:43Z</time>
        <extensions>
          <gpxtpx:TrackPointExtension xmlns:gpxtpx="http://www.garmin.com/xmlschemas/TrackPointExtension/v1">
            <gpxtpx:hr>144</gpxtpx:hr>
          </gpxtpx:TrackPointExtension>
        </extensions>
      </trkpt>
      <trkpt lat="44.17319" lon="3.18546">
        <ele>748.2</ele>
        <time>2022-02-10T10:52:44Z</time>
        <extensions>
          <gpxtpx:TrackPointExtension xmlns:gpxtpx="http://www.garmin.com/xmlschemas/TrackPointExtension/v1">
            <gpxtpx:hr>143</gpxtpx:hr>
          </gpxtpx:TrackPointExtension>
        </extensions>
      </trkpt>
      <trkpt lat="44.17321" lon="3.18549">
        <ele>748.2</ele>
        <time>2022-02-10T10:52:45Z</time>
        <extensions>
          <gpxtpx:TrackPointExtension xmlns:gpxtpx="http://www.garmin.com/xmlschemas/TrackPointExtension/v1">
            <gpxtpx:hr>144</gpxtpx:hr>
          </gpxtpx:TrackPointExtension>
        </extensions>
      </trkpt>
      <trkpt lat="44.17323" lon="3.18552">
        <ele>748</ele>
        <time>2022-02-10T10:52:46Z</time>
        <extensions>
          <gpxtpx:TrackPointExtension xmlns:gpxtpx="http://www.garmin.com/xmlschemas/TrackPointExtension/v1">
            <gpxtpx:hr>144</gpxtpx:hr>
          </gpxtpx:TrackPointExtension>
        </extensions>
      </trkpt>
      <trkpt lat="44.17325" lon="3.18555">
        <ele>748</ele>
        <time>2022-02-10T10:52:47Z</time>
        <extensions>
          <gpxtpx:TrackPointExtension xmlns:gpxtpx="http://www.garmin.com/xmlschemas/TrackPointExtension/v1">
            <gpxtpx:hr>145</gpxtpx:hr>
          </gpxtpx:TrackPointExtension>
        </extensions>
      </trkpt>
      <trkpt lat="44.17326" lon="3.18557">
        <ele>748</ele>
        <time>2022-02-10T10:52:48Z</time>
        <extensions>
          <gpxtpx:TrackPointExtension xmlns:gpxtpx="http://www.garmin.com/xmlschemas/TrackPointExtension/v1">
            <gpxtpx:hr>145</gpxtpx:hr>
          </gpxtpx:TrackPointExtension>
        </extensions>
      </trkpt>
      <trkpt lat="44.17328" lon="3.18559">
        <ele>747.6</ele>
        <time>2022-02-10T10:52:49Z</time>
        <extensions>
          <gpxtpx:TrackPointExtension xmlns:gpxtpx="http://www.garmin.com/xmlschemas/TrackPointExtension/v1">
            <gpxtpx:hr>144</gpxtpx:hr>
          </gpxtpx:TrackPointExtension>
        </extensions>
      </trkpt>
      <trkpt lat="44.17329" lon="3.18561">
        <ele>747.6</ele>
        <time>2022-02-10T10:52:50Z</time>
        <extensions>
          <gpxtpx:TrackPointExtension xmlns:gpxtpx="http://www.garmin.com/xmlschemas/TrackPointExtension/v1">
            <gpxtpx:hr>144</gpxtpx:hr>
          </gpxtpx:TrackPointExtension>
        </extensions>
      </trkpt>
      <trkpt lat="44.17334" lon="3.18569">
        <ele>747.6</ele>
        <time>2022-02-10T10:52:51Z</time>
        <extensions>
          <gpxtpx:TrackPointExtension xmlns:gpxtpx="http://www.garmin.com/xmlschemas/TrackPointExtension/v1">
            <gpxtpx:hr>144</gpxtpx:hr>
          </gpxtpx:TrackPointExtension>
        </extensions>
      </trkpt>
      <trkpt lat="44.17336" lon="3.18572">
        <ele>747.4</ele>
        <time>2022-02-10T10:52:52Z</time>
        <extensions>
          <gpxtpx:TrackPointExtension xmlns:gpxtpx="http://www.garmin.com/xmlschemas/TrackPointExtension/v1">
            <gpxtpx:hr>143</gpxtpx:hr>
          </gpxtpx:TrackPointExtension>
        </extensions>
      </trkpt>
      <trkpt lat="44.17338" lon="3.18574">
        <ele>747.4</ele>
        <time>2022-02-10T10:52:53Z</time>
        <extensions>
          <gpxtpx:TrackPointExtension xmlns:gpxtpx="http://www.garmin.com/xmlschemas/TrackPointExtension/v1">
            <gpxtpx:hr>142</gpxtpx:hr>
          </gpxtpx:TrackPointExtension>
        </extensions>
      </trkpt>
      <trkpt lat="44.17339" lon="3.18577">
        <ele>747</ele>
        <time>2022-02-10T10:52:54Z</time>
        <extensions>
          <gpxtpx:TrackPointExtension xmlns:gpxtpx="http://www.garmin.com/xmlschemas/TrackPointExtension/v1">
            <gpxtpx:hr>142</gpxtpx:hr>
          </gpxtpx:TrackPointExtension>
        </extensions>
      </trkpt>
      <trkpt lat="44.1734" lon="3.18579">
        <ele>747</ele>
        <time>2022-02-10T10:52:55Z</time>
        <extensions>
          <gpxtpx:TrackPointExtension xmlns:gpxtpx="http://www.garmin.com/xmlschemas/TrackPointExtension/v1">
            <gpxtpx:hr>142</gpxtpx:hr>
          </gpxtpx:TrackPointExtension>
        </extensions>
      </trkpt>
      <trkpt lat="44.17341" lon="3.18582">
        <ele>746.6</ele>
        <time>2022-02-10T10:52:56Z</time>
        <extensions>
          <gpxtpx:TrackPointExtension xmlns:gpxtpx="http://www.garmin.com/xmlschemas/TrackPointExtension/v1">
            <gpxtpx:hr>142</gpxtpx:hr>
          </gpxtpx:TrackPointExtension>
        </extensions>
      </trkpt>
      <trkpt lat="44.17343" lon="3.18584">
        <ele>746.2</ele>
        <time>2022-02-10T10:52:57Z</time>
        <extensions>
          <gpxtpx:TrackPointExtension xmlns:gpxtpx="http://www.garmin.com/xmlschemas/TrackPointExtension/v1">
            <gpxtpx:hr>142</gpxtpx:hr>
          </gpxtpx:TrackPointExtension>
        </extensions>
      </trkpt>
      <trkpt lat="44.17344" lon="3.18587">
        <ele>745.8</ele>
        <time>2022-02-10T10:52:58Z</time>
        <extensions>
          <gpxtpx:TrackPointExtension xmlns:gpxtpx="http://www.garmin.com/xmlschemas/TrackPointExtension/v1">
            <gpxtpx:hr>141</gpxtpx:hr>
          </gpxtpx:TrackPointExtension>
        </extensions>
      </trkpt>
      <trkpt lat="44.17345" lon="3.18589">
        <ele>745.6</ele>
        <time>2022-02-10T10:52:59Z</time>
        <extensions>
          <gpxtpx:TrackPointExtension xmlns:gpxtpx="http://www.garmin.com/xmlschemas/TrackPointExtension/v1">
            <gpxtpx:hr>143</gpxtpx:hr>
          </gpxtpx:TrackPointExtension>
        </extensions>
      </trkpt>
      <trkpt lat="44.17347" lon="3.18595">
        <ele>745.4</ele>
        <time>2022-02-10T10:53:00Z</time>
        <extensions>
          <gpxtpx:TrackPointExtension xmlns:gpxtpx="http://www.garmin.com/xmlschemas/TrackPointExtension/v1">
            <gpxtpx:hr>143</gpxtpx:hr>
          </gpxtpx:TrackPointExtension>
        </extensions>
      </trkpt>
      <trkpt lat="44.17349" lon="3.18601">
        <ele>745.2</ele>
        <time>2022-02-10T10:53:01Z</time>
        <extensions>
          <gpxtpx:TrackPointExtension xmlns:gpxtpx="http://www.garmin.com/xmlschemas/TrackPointExtension/v1">
            <gpxtpx:hr>142</gpxtpx:hr>
          </gpxtpx:TrackPointExtension>
        </extensions>
      </trkpt>
      <trkpt lat="44.1735" lon="3.18605">
        <ele>744.8</ele>
        <time>2022-02-10T10:53:02Z</time>
        <extensions>
          <gpxtpx:TrackPointExtension xmlns:gpxtpx="http://www.garmin.com/xmlschemas/TrackPointExtension/v1">
            <gpxtpx:hr>142</gpxtpx:hr>
          </gpxtpx:TrackPointExtension>
        </extensions>
      </trkpt>
      <trkpt lat="44.17351" lon="3.18609">
        <ele>744.8</ele>
        <time>2022-02-10T10:53:03Z</time>
        <extensions>
          <gpxtpx:TrackPointExtension xmlns:gpxtpx="http://www.garmin.com/xmlschemas/TrackPointExtension/v1">
            <gpxtpx:hr>141</gpxtpx:hr>
          </gpxtpx:TrackPointExtension>
        </extensions>
      </trkpt>
      <trkpt lat="44.17352" lon="3.18613">
        <ele>744.4</ele>
        <time>2022-02-10T10:53:04Z</time>
        <extensions>
          <gpxtpx:TrackPointExtension xmlns:gpxtpx="http://www.garmin.com/xmlschemas/TrackPointExtension/v1">
            <gpxtpx:hr>142</gpxtpx:hr>
          </gpxtpx:TrackPointExtension>
        </extensions>
      </trkpt>
      <trkpt lat="44.17352" lon="3.18616">
        <ele>744.2</ele>
        <time>2022-02-10T10:53:05Z</time>
        <extensions>
          <gpxtpx:TrackPointExtension xmlns:gpxtpx="http://www.garmin.com/xmlschemas/TrackPointExtension/v1">
            <gpxtpx:hr>142</gpxtpx:hr>
          </gpxtpx:TrackPointExtension>
        </extensions>
      </trkpt>
      <trkpt lat="44.17352" lon="3.1862">
        <ele>744</ele>
        <time>2022-02-10T10:53:06Z</time>
        <extensions>
          <gpxtpx:TrackPointExtension xmlns:gpxtpx="http://www.garmin.com/xmlschemas/TrackPointExtension/v1">
            <gpxtpx:hr>142</gpxtpx:hr>
          </gpxtpx:TrackPointExtension>
        </extensions>
      </trkpt>
      <trkpt lat="44.17353" lon="3.18623">
        <ele>743.8</ele>
        <time>2022-02-10T10:53:07Z</time>
        <extensions>
          <gpxtpx:TrackPointExtension xmlns:gpxtpx="http://www.garmin.com/xmlschemas/TrackPointExtension/v1">
            <gpxtpx:hr>142</gpxtpx:hr>
          </gpxtpx:TrackPointExtension>
        </extensions>
      </trkpt>
      <trkpt lat="44.17353" lon="3.18627">
        <ele>743.4</ele>
        <time>2022-02-10T10:53:08Z</time>
        <extensions>
          <gpxtpx:TrackPointExtension xmlns:gpxtpx="http://www.garmin.com/xmlschemas/TrackPointExtension/v1">
            <gpxtpx:hr>142</gpxtpx:hr>
          </gpxtpx:TrackPointExtension>
        </extensions>
      </trkpt>
      <trkpt lat="44.17353" lon="3.1863">
        <ele>743</ele>
        <time>2022-02-10T10:53:09Z</time>
        <extensions>
          <gpxtpx:TrackPointExtension xmlns:gpxtpx="http://www.garmin.com/xmlschemas/TrackPointExtension/v1">
            <gpxtpx:hr>142</gpxtpx:hr>
          </gpxtpx:TrackPointExtension>
        </extensions>
      </trkpt>
      <trkpt lat="44.17353" lon="3.18634">
        <ele>742.8</ele>
        <time>2022-02-10T10:53:10Z</time>
        <extensions>
          <gpxtpx:TrackPointExtension xmlns:gpxtpx="http://www.garmin.com/xmlschemas/TrackPointExtension/v1">
            <gpxtpx:hr>141</gpxtpx:hr>
          </gpxtpx:TrackPointExtension>
        </extensions>
      </trkpt>
      <trkpt lat="44.17353" lon="3.18637">
        <ele>742.4</ele>
        <time>2022-02-10T10:53:11Z</time>
        <extensions>
          <gpxtpx:TrackPointExtension xmlns:gpxtpx="http://www.garmin.com/xmlschemas/TrackPointExtension/v1">
            <gpxtpx:hr>141</gpxtpx:hr>
          </gpxtpx:TrackPointExtension>
        </extensions>
      </trkpt>
      <trkpt lat="44.17352" lon="3.18641">
        <ele>742</ele>
        <time>2022-02-10T10:53:12Z</time>
        <extensions>
          <gpxtpx:TrackPointExtension xmlns:gpxtpx="http://www.garmin.com/xmlschemas/TrackPointExtension/v1">
            <gpxtpx:hr>141</gpxtpx:hr>
          </gpxtpx:TrackPointExtension>
        </extensions>
      </trkpt>
      <trkpt lat="44.17352" lon="3.18644">
        <ele>741.6</ele>
        <time>2022-02-10T10:53:13Z</time>
        <extensions>
          <gpxtpx:TrackPointExtension xmlns:gpxtpx="http://www.garmin.com/xmlschemas/TrackPointExtension/v1">
            <gpxtpx:hr>141</gpxtpx:hr>
          </gpxtpx:TrackPointExtension>
        </extensions>
      </trkpt>
      <trkpt lat="44.17352" lon="3.18647">
        <ele>741.4</ele>
        <time>2022-02-10T10:53:14Z</time>
        <extensions>
          <gpxtpx:TrackPointExtension xmlns:gpxtpx="http://www.garmin.com/xmlschemas/TrackPointExtension/v1">
            <gpxtpx:hr>142</gpxtpx:hr>
          </gpxtpx:TrackPointExtension>
        </extensions>
      </trkpt>
      <trkpt lat="44.17352" lon="3.18651">
        <ele>741.2</ele>
        <time>2022-02-10T10:53:15Z</time>
        <extensions>
          <gpxtpx:TrackPointExtension xmlns:gpxtpx="http://www.garmin.com/xmlschemas/TrackPointExtension/v1">
            <gpxtpx:hr>142</gpxtpx:hr>
          </gpxtpx:TrackPointExtension>
        </extensions>
      </trkpt>
      <trkpt lat="44.17352" lon="3.18654">
        <ele>741</ele>
        <time>2022-02-10T10:53:16Z</time>
        <extensions>
          <gpxtpx:TrackPointExtension xmlns:gpxtpx="http://www.garmin.com/xmlschemas/TrackPointExtension/v1">
            <gpxtpx:hr>142</gpxtpx:hr>
          </gpxtpx:TrackPointExtension>
        </extensions>
      </trkpt>
      <trkpt lat="44.17351" lon="3.18657">
        <ele>741</ele>
        <time>2022-02-10T10:53:17Z</time>
        <extensions>
          <gpxtpx:TrackPointExtension xmlns:gpxtpx="http://www.garmin.com/xmlschemas/TrackPointExtension/v1">
            <gpxtpx:hr>141</gpxtpx:hr>
          </gpxtpx:TrackPointExtension>
        </extensions>
      </trkpt>
      <trkpt lat="44.17351" lon="3.18659">
        <ele>741</ele>
        <time>2022-02-10T10:53:18Z</time>
        <extensions>
          <gpxtpx:TrackPointExtension xmlns:gpxtpx="http://www.garmin.com/xmlschemas/TrackPointExtension/v1">
            <gpxtpx:hr>139</gpxtpx:hr>
          </gpxtpx:TrackPointExtension>
        </extensions>
      </trkpt>
      <trkpt lat="44.17351" lon="3.18662">
        <ele>740.8</ele>
        <time>2022-02-10T10:53:19Z</time>
        <extensions>
          <gpxtpx:TrackPointExtension xmlns:gpxtpx="http://www.garmin.com/xmlschemas/TrackPointExtension/v1">
            <gpxtpx:hr>140</gpxtpx:hr>
          </gpxtpx:TrackPointExtension>
        </extensions>
      </trkpt>
      <trkpt lat="44.1735" lon="3.18664">
        <ele>740.4</ele>
        <time>2022-02-10T10:53:20Z</time>
        <extensions>
          <gpxtpx:TrackPointExtension xmlns:gpxtpx="http://www.garmin.com/xmlschemas/TrackPointExtension/v1">
            <gpxtpx:hr>140</gpxtpx:hr>
          </gpxtpx:TrackPointExtension>
        </extensions>
      </trkpt>
      <trkpt lat="44.1735" lon="3.18667">
        <ele>740.4</ele>
        <time>2022-02-10T10:53:21Z</time>
        <extensions>
          <gpxtpx:TrackPointExtension xmlns:gpxtpx="http://www.garmin.com/xmlschemas/TrackPointExtension/v1">
            <gpxtpx:hr>142</gpxtpx:hr>
          </gpxtpx:TrackPointExtension>
        </extensions>
      </trkpt>
      <trkpt lat="44.17349" lon="3.1867">
        <ele>740.2</ele>
        <time>2022-02-10T10:53:22Z</time>
        <extensions>
          <gpxtpx:TrackPointExtension xmlns:gpxtpx="http://www.garmin.com/xmlschemas/TrackPointExtension/v1">
            <gpxtpx:hr>142</gpxtpx:hr>
          </gpxtpx:TrackPointExtension>
        </extensions>
      </trkpt>
      <trkpt lat="44.17349" lon="3.18672">
        <ele>740.2</ele>
        <time>2022-02-10T10:53:23Z</time>
        <extensions>
          <gpxtpx:TrackPointExtension xmlns:gpxtpx="http://www.garmin.com/xmlschemas/TrackPointExtension/v1">
            <gpxtpx:hr>139</gpxtpx:hr>
          </gpxtpx:TrackPointExtension>
        </extensions>
      </trkpt>
      <trkpt lat="44.17348" lon="3.18675">
        <ele>740.2</ele>
        <time>2022-02-10T10:53:24Z</time>
        <extensions>
          <gpxtpx:TrackPointExtension xmlns:gpxtpx="http://www.garmin.com/xmlschemas/TrackPointExtension/v1">
            <gpxtpx:hr>140</gpxtpx:hr>
          </gpxtpx:TrackPointExtension>
        </extensions>
      </trkpt>
      <trkpt lat="44.17347" lon="3.18678">
        <ele>740</ele>
        <time>2022-02-10T10:53:25Z</time>
        <extensions>
          <gpxtpx:TrackPointExtension xmlns:gpxtpx="http://www.garmin.com/xmlschemas/TrackPointExtension/v1">
            <gpxtpx:hr>140</gpxtpx:hr>
          </gpxtpx:TrackPointExtension>
        </extensions>
      </trkpt>
      <trkpt lat="44.17347" lon="3.18681">
        <ele>740</ele>
        <time>2022-02-10T10:53:26Z</time>
        <extensions>
          <gpxtpx:TrackPointExtension xmlns:gpxtpx="http://www.garmin.com/xmlschemas/TrackPointExtension/v1">
            <gpxtpx:hr>141</gpxtpx:hr>
          </gpxtpx:TrackPointExtension>
        </extensions>
      </trkpt>
      <trkpt lat="44.17347" lon="3.18684">
        <ele>740</ele>
        <time>2022-02-10T10:53:27Z</time>
        <extensions>
          <gpxtpx:TrackPointExtension xmlns:gpxtpx="http://www.garmin.com/xmlschemas/TrackPointExtension/v1">
            <gpxtpx:hr>141</gpxtpx:hr>
          </gpxtpx:TrackPointExtension>
        </extensions>
      </trkpt>
      <trkpt lat="44.17347" lon="3.18686">
        <ele>739.6</ele>
        <time>2022-02-10T10:53:28Z</time>
        <extensions>
          <gpxtpx:TrackPointExtension xmlns:gpxtpx="http://www.garmin.com/xmlschemas/TrackPointExtension/v1">
            <gpxtpx:hr>141</gpxtpx:hr>
          </gpxtpx:TrackPointExtension>
        </extensions>
      </trkpt>
      <trkpt lat="44.17347" lon="3.18689">
        <ele>739.6</ele>
        <time>2022-02-10T10:53:29Z</time>
        <extensions>
          <gpxtpx:TrackPointExtension xmlns:gpxtpx="http://www.garmin.com/xmlschemas/TrackPointExtension/v1">
            <gpxtpx:hr>141</gpxtpx:hr>
          </gpxtpx:TrackPointExtension>
        </extensions>
      </trkpt>
      <trkpt lat="44.17348" lon="3.18692">
        <ele>739.6</ele>
        <time>2022-02-10T10:53:30Z</time>
        <extensions>
          <gpxtpx:TrackPointExtension xmlns:gpxtpx="http://www.garmin.com/xmlschemas/TrackPointExtension/v1">
            <gpxtpx:hr>140</gpxtpx:hr>
          </gpxtpx:TrackPointExtension>
        </extensions>
      </trkpt>
      <trkpt lat="44.17348" lon="3.18695">
        <ele>739.4</ele>
        <time>2022-02-10T10:53:31Z</time>
        <extensions>
          <gpxtpx:TrackPointExtension xmlns:gpxtpx="http://www.garmin.com/xmlschemas/TrackPointExtension/v1">
            <gpxtpx:hr>140</gpxtpx:hr>
          </gpxtpx:TrackPointExtension>
        </extensions>
      </trkpt>
      <trkpt lat="44.17348" lon="3.18698">
        <ele>739.4</ele>
        <time>2022-02-10T10:53:32Z</time>
        <extensions>
          <gpxtpx:TrackPointExtension xmlns:gpxtpx="http://www.garmin.com/xmlschemas/TrackPointExtension/v1">
            <gpxtpx:hr>140</gpxtpx:hr>
          </gpxtpx:TrackPointExtension>
        </extensions>
      </trkpt>
      <trkpt lat="44.17348" lon="3.18701">
        <ele>739.4</ele>
        <time>2022-02-10T10:53:33Z</time>
        <extensions>
          <gpxtpx:TrackPointExtension xmlns:gpxtpx="http://www.garmin.com/xmlschemas/TrackPointExtension/v1">
            <gpxtpx:hr>142</gpxtpx:hr>
          </gpxtpx:TrackPointExtension>
        </extensions>
      </trkpt>
      <trkpt lat="44.17348" lon="3.18704">
        <ele>739</ele>
        <time>2022-02-10T10:53:34Z</time>
        <extensions>
          <gpxtpx:TrackPointExtension xmlns:gpxtpx="http://www.garmin.com/xmlschemas/TrackPointExtension/v1">
            <gpxtpx:hr>141</gpxtpx:hr>
          </gpxtpx:TrackPointExtension>
        </extensions>
      </trkpt>
      <trkpt lat="44.17349" lon="3.18707">
        <ele>739</ele>
        <time>2022-02-10T10:53:35Z</time>
        <extensions>
          <gpxtpx:TrackPointExtension xmlns:gpxtpx="http://www.garmin.com/xmlschemas/TrackPointExtension/v1">
            <gpxtpx:hr>142</gpxtpx:hr>
          </gpxtpx:TrackPointExtension>
        </extensions>
      </trkpt>
      <trkpt lat="44.17349" lon="3.1871">
        <ele>738.8</ele>
        <time>2022-02-10T10:53:36Z</time>
        <extensions>
          <gpxtpx:TrackPointExtension xmlns:gpxtpx="http://www.garmin.com/xmlschemas/TrackPointExtension/v1">
            <gpxtpx:hr>141</gpxtpx:hr>
          </gpxtpx:TrackPointExtension>
        </extensions>
      </trkpt>
      <trkpt lat="44.17349" lon="3.18712">
        <ele>738.8</ele>
        <time>2022-02-10T10:53:37Z</time>
        <extensions>
          <gpxtpx:TrackPointExtension xmlns:gpxtpx="http://www.garmin.com/xmlschemas/TrackPointExtension/v1">
            <gpxtpx:hr>141</gpxtpx:hr>
          </gpxtpx:TrackPointExtension>
        </extensions>
      </trkpt>
      <trkpt lat="44.1735" lon="3.18714">
        <ele>738.4</ele>
        <time>2022-02-10T10:53:38Z</time>
        <extensions>
          <gpxtpx:TrackPointExtension xmlns:gpxtpx="http://www.garmin.com/xmlschemas/TrackPointExtension/v1">
            <gpxtpx:hr>142</gpxtpx:hr>
          </gpxtpx:TrackPointExtension>
        </extensions>
      </trkpt>
      <trkpt lat="44.1735" lon="3.18717">
        <ele>738.4</ele>
        <time>2022-02-10T10:53:39Z</time>
        <extensions>
          <gpxtpx:TrackPointExtension xmlns:gpxtpx="http://www.garmin.com/xmlschemas/TrackPointExtension/v1">
            <gpxtpx:hr>142</gpxtpx:hr>
          </gpxtpx:TrackPointExtension>
        </extensions>
      </trkpt>
      <trkpt lat="44.17351" lon="3.18719">
        <ele>738.2</ele>
        <time>2022-02-10T10:53:40Z</time>
        <extensions>
          <gpxtpx:TrackPointExtension xmlns:gpxtpx="http://www.garmin.com/xmlschemas/TrackPointExtension/v1">
            <gpxtpx:hr>142</gpxtpx:hr>
          </gpxtpx:TrackPointExtension>
        </extensions>
      </trkpt>
      <trkpt lat="44.17351" lon="3.18721">
        <ele>738</ele>
        <time>2022-02-10T10:53:41Z</time>
        <extensions>
          <gpxtpx:TrackPointExtension xmlns:gpxtpx="http://www.garmin.com/xmlschemas/TrackPointExtension/v1">
            <gpxtpx:hr>143</gpxtpx:hr>
          </gpxtpx:TrackPointExtension>
        </extensions>
      </trkpt>
      <trkpt lat="44.17353" lon="3.18724">
        <ele>738</ele>
        <time>2022-02-10T10:53:42Z</time>
        <extensions>
          <gpxtpx:TrackPointExtension xmlns:gpxtpx="http://www.garmin.com/xmlschemas/TrackPointExtension/v1">
            <gpxtpx:hr>143</gpxtpx:hr>
          </gpxtpx:TrackPointExtension>
        </extensions>
      </trkpt>
      <trkpt lat="44.17354" lon="3.18726">
        <ele>737.6</ele>
        <time>2022-02-10T10:53:43Z</time>
        <extensions>
          <gpxtpx:TrackPointExtension xmlns:gpxtpx="http://www.garmin.com/xmlschemas/TrackPointExtension/v1">
            <gpxtpx:hr>143</gpxtpx:hr>
          </gpxtpx:TrackPointExtension>
        </extensions>
      </trkpt>
      <trkpt lat="44.17356" lon="3.18728">
        <ele>737.6</ele>
        <time>2022-02-10T10:53:44Z</time>
        <extensions>
          <gpxtpx:TrackPointExtension xmlns:gpxtpx="http://www.garmin.com/xmlschemas/TrackPointExtension/v1">
            <gpxtpx:hr>143</gpxtpx:hr>
          </gpxtpx:TrackPointExtension>
        </extensions>
      </trkpt>
      <trkpt lat="44.17357" lon="3.1873">
        <ele>737.6</ele>
        <time>2022-02-10T10:53:45Z</time>
        <extensions>
          <gpxtpx:TrackPointExtension xmlns:gpxtpx="http://www.garmin.com/xmlschemas/TrackPointExtension/v1">
            <gpxtpx:hr>142</gpxtpx:hr>
          </gpxtpx:TrackPointExtension>
        </extensions>
      </trkpt>
      <trkpt lat="44.17359" lon="3.18732">
        <ele>737.4</ele>
        <time>2022-02-10T10:53:46Z</time>
        <extensions>
          <gpxtpx:TrackPointExtension xmlns:gpxtpx="http://www.garmin.com/xmlschemas/TrackPointExtension/v1">
            <gpxtpx:hr>143</gpxtpx:hr>
          </gpxtpx:TrackPointExtension>
        </extensions>
      </trkpt>
      <trkpt lat="44.1736" lon="3.18735">
        <ele>737.4</ele>
        <time>2022-02-10T10:53:47Z</time>
        <extensions>
          <gpxtpx:TrackPointExtension xmlns:gpxtpx="http://www.garmin.com/xmlschemas/TrackPointExtension/v1">
            <gpxtpx:hr>145</gpxtpx:hr>
          </gpxtpx:TrackPointExtension>
        </extensions>
      </trkpt>
      <trkpt lat="44.17362" lon="3.18738">
        <ele>737.4</ele>
        <time>2022-02-10T10:53:48Z</time>
        <extensions>
          <gpxtpx:TrackPointExtension xmlns:gpxtpx="http://www.garmin.com/xmlschemas/TrackPointExtension/v1">
            <gpxtpx:hr>144</gpxtpx:hr>
          </gpxtpx:TrackPointExtension>
        </extensions>
      </trkpt>
      <trkpt lat="44.17364" lon="3.1874">
        <ele>737.2</ele>
        <time>2022-02-10T10:53:49Z</time>
        <extensions>
          <gpxtpx:TrackPointExtension xmlns:gpxtpx="http://www.garmin.com/xmlschemas/TrackPointExtension/v1">
            <gpxtpx:hr>143</gpxtpx:hr>
          </gpxtpx:TrackPointExtension>
        </extensions>
      </trkpt>
      <trkpt lat="44.17365" lon="3.18743">
        <ele>737.2</ele>
        <time>2022-02-10T10:53:50Z</time>
        <extensions>
          <gpxtpx:TrackPointExtension xmlns:gpxtpx="http://www.garmin.com/xmlschemas/TrackPointExtension/v1">
            <gpxtpx:hr>144</gpxtpx:hr>
          </gpxtpx:TrackPointExtension>
        </extensions>
      </trkpt>
      <trkpt lat="44.17366" lon="3.18744">
        <ele>737.2</ele>
        <time>2022-02-10T10:53:51Z</time>
        <extensions>
          <gpxtpx:TrackPointExtension xmlns:gpxtpx="http://www.garmin.com/xmlschemas/TrackPointExtension/v1">
            <gpxtpx:hr>143</gpxtpx:hr>
          </gpxtpx:TrackPointExtension>
        </extensions>
      </trkpt>
      <trkpt lat="44.17368" lon="3.18746">
        <ele>737.2</ele>
        <time>2022-02-10T10:53:52Z</time>
        <extensions>
          <gpxtpx:TrackPointExtension xmlns:gpxtpx="http://www.garmin.com/xmlschemas/TrackPointExtension/v1">
            <gpxtpx:hr>144</gpxtpx:hr>
          </gpxtpx:TrackPointExtension>
        </extensions>
      </trkpt>
      <trkpt lat="44.17369" lon="3.18748">
        <ele>736.8</ele>
        <time>2022-02-10T10:53:53Z</time>
        <extensions>
          <gpxtpx:TrackPointExtension xmlns:gpxtpx="http://www.garmin.com/xmlschemas/TrackPointExtension/v1">
            <gpxtpx:hr>145</gpxtpx:hr>
          </gpxtpx:TrackPointExtension>
        </extensions>
      </trkpt>
      <trkpt lat="44.17375" lon="3.18754">
        <ele>736.8</ele>
        <time>2022-02-10T10:53:54Z</time>
        <extensions>
          <gpxtpx:TrackPointExtension xmlns:gpxtpx="http://www.garmin.com/xmlschemas/TrackPointExtension/v1">
            <gpxtpx:hr>143</gpxtpx:hr>
          </gpxtpx:TrackPointExtension>
        </extensions>
      </trkpt>
      <trkpt lat="44.17377" lon="3.18756">
        <ele>736.8</ele>
        <time>2022-02-10T10:53:55Z</time>
        <extensions>
          <gpxtpx:TrackPointExtension xmlns:gpxtpx="http://www.garmin.com/xmlschemas/TrackPointExtension/v1">
            <gpxtpx:hr>143</gpxtpx:hr>
          </gpxtpx:TrackPointExtension>
        </extensions>
      </trkpt>
      <trkpt lat="44.1738" lon="3.18758">
        <ele>736.6</ele>
        <time>2022-02-10T10:53:56Z</time>
        <extensions>
          <gpxtpx:TrackPointExtension xmlns:gpxtpx="http://www.garmin.com/xmlschemas/TrackPointExtension/v1">
            <gpxtpx:hr>142</gpxtpx:hr>
          </gpxtpx:TrackPointExtension>
        </extensions>
      </trkpt>
      <trkpt lat="44.17382" lon="3.1876">
        <ele>736.6</ele>
        <time>2022-02-10T10:53:57Z</time>
        <extensions>
          <gpxtpx:TrackPointExtension xmlns:gpxtpx="http://www.garmin.com/xmlschemas/TrackPointExtension/v1">
            <gpxtpx:hr>142</gpxtpx:hr>
          </gpxtpx:TrackPointExtension>
        </extensions>
      </trkpt>
      <trkpt lat="44.17384" lon="3.1876">
        <ele>736.4</ele>
        <time>2022-02-10T10:53:58Z</time>
        <extensions>
          <gpxtpx:TrackPointExtension xmlns:gpxtpx="http://www.garmin.com/xmlschemas/TrackPointExtension/v1">
            <gpxtpx:hr>141</gpxtpx:hr>
          </gpxtpx:TrackPointExtension>
        </extensions>
      </trkpt>
      <trkpt lat="44.17385" lon="3.18761">
        <ele>736.4</ele>
        <time>2022-02-10T10:53:59Z</time>
        <extensions>
          <gpxtpx:TrackPointExtension xmlns:gpxtpx="http://www.garmin.com/xmlschemas/TrackPointExtension/v1">
            <gpxtpx:hr>141</gpxtpx:hr>
          </gpxtpx:TrackPointExtension>
        </extensions>
      </trkpt>
      <trkpt lat="44.17387" lon="3.18762">
        <ele>736</ele>
        <time>2022-02-10T10:54:00Z</time>
        <extensions>
          <gpxtpx:TrackPointExtension xmlns:gpxtpx="http://www.garmin.com/xmlschemas/TrackPointExtension/v1">
            <gpxtpx:hr>141</gpxtpx:hr>
          </gpxtpx:TrackPointExtension>
        </extensions>
      </trkpt>
      <trkpt lat="44.17389" lon="3.18762">
        <ele>736</ele>
        <time>2022-02-10T10:54:01Z</time>
        <extensions>
          <gpxtpx:TrackPointExtension xmlns:gpxtpx="http://www.garmin.com/xmlschemas/TrackPointExtension/v1">
            <gpxtpx:hr>141</gpxtpx:hr>
          </gpxtpx:TrackPointExtension>
        </extensions>
      </trkpt>
      <trkpt lat="44.17391" lon="3.18763">
        <ele>736</ele>
        <time>2022-02-10T10:54:02Z</time>
        <extensions>
          <gpxtpx:TrackPointExtension xmlns:gpxtpx="http://www.garmin.com/xmlschemas/TrackPointExtension/v1">
            <gpxtpx:hr>142</gpxtpx:hr>
          </gpxtpx:TrackPointExtension>
        </extensions>
      </trkpt>
      <trkpt lat="44.17393" lon="3.18762">
        <ele>736</ele>
        <time>2022-02-10T10:54:03Z</time>
        <extensions>
          <gpxtpx:TrackPointExtension xmlns:gpxtpx="http://www.garmin.com/xmlschemas/TrackPointExtension/v1">
            <gpxtpx:hr>140</gpxtpx:hr>
          </gpxtpx:TrackPointExtension>
        </extensions>
      </trkpt>
      <trkpt lat="44.17394" lon="3.18761">
        <ele>735.8</ele>
        <time>2022-02-10T10:54:04Z</time>
        <extensions>
          <gpxtpx:TrackPointExtension xmlns:gpxtpx="http://www.garmin.com/xmlschemas/TrackPointExtension/v1">
            <gpxtpx:hr>141</gpxtpx:hr>
          </gpxtpx:TrackPointExtension>
        </extensions>
      </trkpt>
      <trkpt lat="44.17396" lon="3.1876">
        <ele>735.8</ele>
        <time>2022-02-10T10:54:05Z</time>
        <extensions>
          <gpxtpx:TrackPointExtension xmlns:gpxtpx="http://www.garmin.com/xmlschemas/TrackPointExtension/v1">
            <gpxtpx:hr>140</gpxtpx:hr>
          </gpxtpx:TrackPointExtension>
        </extensions>
      </trkpt>
      <trkpt lat="44.17398" lon="3.18759">
        <ele>735.6</ele>
        <time>2022-02-10T10:54:06Z</time>
        <extensions>
          <gpxtpx:TrackPointExtension xmlns:gpxtpx="http://www.garmin.com/xmlschemas/TrackPointExtension/v1">
            <gpxtpx:hr>140</gpxtpx:hr>
          </gpxtpx:TrackPointExtension>
        </extensions>
      </trkpt>
      <trkpt lat="44.174" lon="3.18758">
        <ele>735.6</ele>
        <time>2022-02-10T10:54:07Z</time>
        <extensions>
          <gpxtpx:TrackPointExtension xmlns:gpxtpx="http://www.garmin.com/xmlschemas/TrackPointExtension/v1">
            <gpxtpx:hr>140</gpxtpx:hr>
          </gpxtpx:TrackPointExtension>
        </extensions>
      </trkpt>
      <trkpt lat="44.17401" lon="3.18757">
        <ele>735.6</ele>
        <time>2022-02-10T10:54:08Z</time>
        <extensions>
          <gpxtpx:TrackPointExtension xmlns:gpxtpx="http://www.garmin.com/xmlschemas/TrackPointExtension/v1">
            <gpxtpx:hr>138</gpxtpx:hr>
          </gpxtpx:TrackPointExtension>
        </extensions>
      </trkpt>
      <trkpt lat="44.17403" lon="3.18755">
        <ele>735.4</ele>
        <time>2022-02-10T10:54:09Z</time>
        <extensions>
          <gpxtpx:TrackPointExtension xmlns:gpxtpx="http://www.garmin.com/xmlschemas/TrackPointExtension/v1">
            <gpxtpx:hr>138</gpxtpx:hr>
          </gpxtpx:TrackPointExtension>
        </extensions>
      </trkpt>
      <trkpt lat="44.17405" lon="3.18754">
        <ele>735.4</ele>
        <time>2022-02-10T10:54:10Z</time>
        <extensions>
          <gpxtpx:TrackPointExtension xmlns:gpxtpx="http://www.garmin.com/xmlschemas/TrackPointExtension/v1">
            <gpxtpx:hr>138</gpxtpx:hr>
          </gpxtpx:TrackPointExtension>
        </extensions>
      </trkpt>
      <trkpt lat="44.17406" lon="3.18753">
        <ele>735.4</ele>
        <time>2022-02-10T10:54:11Z</time>
        <extensions>
          <gpxtpx:TrackPointExtension xmlns:gpxtpx="http://www.garmin.com/xmlschemas/TrackPointExtension/v1">
            <gpxtpx:hr>137</gpxtpx:hr>
          </gpxtpx:TrackPointExtension>
        </extensions>
      </trkpt>
      <trkpt lat="44.17408" lon="3.18751">
        <ele>735.2</ele>
        <time>2022-02-10T10:54:12Z</time>
        <extensions>
          <gpxtpx:TrackPointExtension xmlns:gpxtpx="http://www.garmin.com/xmlschemas/TrackPointExtension/v1">
            <gpxtpx:hr>136</gpxtpx:hr>
          </gpxtpx:TrackPointExtension>
        </extensions>
      </trkpt>
      <trkpt lat="44.1741" lon="3.1875">
        <ele>735.2</ele>
        <time>2022-02-10T10:54:13Z</time>
        <extensions>
          <gpxtpx:TrackPointExtension xmlns:gpxtpx="http://www.garmin.com/xmlschemas/TrackPointExtension/v1">
            <gpxtpx:hr>136</gpxtpx:hr>
          </gpxtpx:TrackPointExtension>
        </extensions>
      </trkpt>
      <trkpt lat="44.17412" lon="3.18749">
        <ele>735.2</ele>
        <time>2022-02-10T10:54:14Z</time>
        <extensions>
          <gpxtpx:TrackPointExtension xmlns:gpxtpx="http://www.garmin.com/xmlschemas/TrackPointExtension/v1">
            <gpxtpx:hr>136</gpxtpx:hr>
          </gpxtpx:TrackPointExtension>
        </extensions>
      </trkpt>
      <trkpt lat="44.17414" lon="3.18747">
        <ele>735.2</ele>
        <time>2022-02-10T10:54:15Z</time>
        <extensions>
          <gpxtpx:TrackPointExtension xmlns:gpxtpx="http://www.garmin.com/xmlschemas/TrackPointExtension/v1">
            <gpxtpx:hr>135</gpxtpx:hr>
          </gpxtpx:TrackPointExtension>
        </extensions>
      </trkpt>
      <trkpt lat="44.17416" lon="3.18746">
        <ele>735</ele>
        <time>2022-02-10T10:54:16Z</time>
        <extensions>
          <gpxtpx:TrackPointExtension xmlns:gpxtpx="http://www.garmin.com/xmlschemas/TrackPointExtension/v1">
            <gpxtpx:hr>134</gpxtpx:hr>
          </gpxtpx:TrackPointExtension>
        </extensions>
      </trkpt>
      <trkpt lat="44.17418" lon="3.18745">
        <ele>735</ele>
        <time>2022-02-10T10:54:17Z</time>
        <extensions>
          <gpxtpx:TrackPointExtension xmlns:gpxtpx="http://www.garmin.com/xmlschemas/TrackPointExtension/v1">
            <gpxtpx:hr>135</gpxtpx:hr>
          </gpxtpx:TrackPointExtension>
        </extensions>
      </trkpt>
      <trkpt lat="44.1742" lon="3.18744">
        <ele>734.8</ele>
        <time>2022-02-10T10:54:18Z</time>
        <extensions>
          <gpxtpx:TrackPointExtension xmlns:gpxtpx="http://www.garmin.com/xmlschemas/TrackPointExtension/v1">
            <gpxtpx:hr>136</gpxtpx:hr>
          </gpxtpx:TrackPointExtension>
        </extensions>
      </trkpt>
      <trkpt lat="44.17422" lon="3.18744">
        <ele>734.8</ele>
        <time>2022-02-10T10:54:19Z</time>
        <extensions>
          <gpxtpx:TrackPointExtension xmlns:gpxtpx="http://www.garmin.com/xmlschemas/TrackPointExtension/v1">
            <gpxtpx:hr>137</gpxtpx:hr>
          </gpxtpx:TrackPointExtension>
        </extensions>
      </trkpt>
      <trkpt lat="44.17424" lon="3.18743">
        <ele>734.8</ele>
        <time>2022-02-10T10:54:20Z</time>
        <extensions>
          <gpxtpx:TrackPointExtension xmlns:gpxtpx="http://www.garmin.com/xmlschemas/TrackPointExtension/v1">
            <gpxtpx:hr>136</gpxtpx:hr>
          </gpxtpx:TrackPointExtension>
        </extensions>
      </trkpt>
      <trkpt lat="44.17426" lon="3.18742">
        <ele>734.4</ele>
        <time>2022-02-10T10:54:21Z</time>
        <extensions>
          <gpxtpx:TrackPointExtension xmlns:gpxtpx="http://www.garmin.com/xmlschemas/TrackPointExtension/v1">
            <gpxtpx:hr>134</gpxtpx:hr>
          </gpxtpx:TrackPointExtension>
        </extensions>
      </trkpt>
      <trkpt lat="44.17429" lon="3.18742">
        <ele>734.4</ele>
        <time>2022-02-10T10:54:22Z</time>
        <extensions>
          <gpxtpx:TrackPointExtension xmlns:gpxtpx="http://www.garmin.com/xmlschemas/TrackPointExtension/v1">
            <gpxtpx:hr>135</gpxtpx:hr>
          </gpxtpx:TrackPointExtension>
        </extensions>
      </trkpt>
      <trkpt lat="44.17431" lon="3.18741">
        <ele>734.2</ele>
        <time>2022-02-10T10:54:23Z</time>
        <extensions>
          <gpxtpx:TrackPointExtension xmlns:gpxtpx="http://www.garmin.com/xmlschemas/TrackPointExtension/v1">
            <gpxtpx:hr>137</gpxtpx:hr>
          </gpxtpx:TrackPointExtension>
        </extensions>
      </trkpt>
      <trkpt lat="44.17434" lon="3.1874">
        <ele>734.2</ele>
        <time>2022-02-10T10:54:24Z</time>
        <extensions>
          <gpxtpx:TrackPointExtension xmlns:gpxtpx="http://www.garmin.com/xmlschemas/TrackPointExtension/v1">
            <gpxtpx:hr>138</gpxtpx:hr>
          </gpxtpx:TrackPointExtension>
        </extensions>
      </trkpt>
      <trkpt lat="44.17437" lon="3.18739">
        <ele>734</ele>
        <time>2022-02-10T10:54:25Z</time>
        <extensions>
          <gpxtpx:TrackPointExtension xmlns:gpxtpx="http://www.garmin.com/xmlschemas/TrackPointExtension/v1">
            <gpxtpx:hr>140</gpxtpx:hr>
          </gpxtpx:TrackPointExtension>
        </extensions>
      </trkpt>
      <trkpt lat="44.17439" lon="3.18739">
        <ele>733.8</ele>
        <time>2022-02-10T10:54:26Z</time>
        <extensions>
          <gpxtpx:TrackPointExtension xmlns:gpxtpx="http://www.garmin.com/xmlschemas/TrackPointExtension/v1">
            <gpxtpx:hr>141</gpxtpx:hr>
          </gpxtpx:TrackPointExtension>
        </extensions>
      </trkpt>
      <trkpt lat="44.1744" lon="3.1874">
        <ele>733.6</ele>
        <time>2022-02-10T10:54:27Z</time>
        <extensions>
          <gpxtpx:TrackPointExtension xmlns:gpxtpx="http://www.garmin.com/xmlschemas/TrackPointExtension/v1">
            <gpxtpx:hr>141</gpxtpx:hr>
          </gpxtpx:TrackPointExtension>
        </extensions>
      </trkpt>
      <trkpt lat="44.17442" lon="3.18741">
        <ele>733.2</ele>
        <time>2022-02-10T10:54:28Z</time>
        <extensions>
          <gpxtpx:TrackPointExtension xmlns:gpxtpx="http://www.garmin.com/xmlschemas/TrackPointExtension/v1">
            <gpxtpx:hr>137</gpxtpx:hr>
          </gpxtpx:TrackPointExtension>
        </extensions>
      </trkpt>
      <trkpt lat="44.17444" lon="3.18741">
        <ele>732.8</ele>
        <time>2022-02-10T10:54:29Z</time>
        <extensions>
          <gpxtpx:TrackPointExtension xmlns:gpxtpx="http://www.garmin.com/xmlschemas/TrackPointExtension/v1">
            <gpxtpx:hr>137</gpxtpx:hr>
          </gpxtpx:TrackPointExtension>
        </extensions>
      </trkpt>
      <trkpt lat="44.17446" lon="3.18742">
        <ele>732.6</ele>
        <time>2022-02-10T10:54:30Z</time>
        <extensions>
          <gpxtpx:TrackPointExtension xmlns:gpxtpx="http://www.garmin.com/xmlschemas/TrackPointExtension/v1">
            <gpxtpx:hr>137</gpxtpx:hr>
          </gpxtpx:TrackPointExtension>
        </extensions>
      </trkpt>
      <trkpt lat="44.17448" lon="3.18743">
        <ele>732.2</ele>
        <time>2022-02-10T10:54:31Z</time>
        <extensions>
          <gpxtpx:TrackPointExtension xmlns:gpxtpx="http://www.garmin.com/xmlschemas/TrackPointExtension/v1">
            <gpxtpx:hr>139</gpxtpx:hr>
          </gpxtpx:TrackPointExtension>
        </extensions>
      </trkpt>
      <trkpt lat="44.1745" lon="3.18743">
        <ele>731.8</ele>
        <time>2022-02-10T10:54:32Z</time>
        <extensions>
          <gpxtpx:TrackPointExtension xmlns:gpxtpx="http://www.garmin.com/xmlschemas/TrackPointExtension/v1">
            <gpxtpx:hr>139</gpxtpx:hr>
          </gpxtpx:TrackPointExtension>
        </extensions>
      </trkpt>
      <trkpt lat="44.17452" lon="3.18743">
        <ele>731.4</ele>
        <time>2022-02-10T10:54:33Z</time>
        <extensions>
          <gpxtpx:TrackPointExtension xmlns:gpxtpx="http://www.garmin.com/xmlschemas/TrackPointExtension/v1">
            <gpxtpx:hr>141</gpxtpx:hr>
          </gpxtpx:TrackPointExtension>
        </extensions>
      </trkpt>
      <trkpt lat="44.17454" lon="3.18744">
        <ele>731.2</ele>
        <time>2022-02-10T10:54:34Z</time>
        <extensions>
          <gpxtpx:TrackPointExtension xmlns:gpxtpx="http://www.garmin.com/xmlschemas/TrackPointExtension/v1">
            <gpxtpx:hr>141</gpxtpx:hr>
          </gpxtpx:TrackPointExtension>
        </extensions>
      </trkpt>
      <trkpt lat="44.17456" lon="3.18744">
        <ele>731</ele>
        <time>2022-02-10T10:54:35Z</time>
        <extensions>
          <gpxtpx:TrackPointExtension xmlns:gpxtpx="http://www.garmin.com/xmlschemas/TrackPointExtension/v1">
            <gpxtpx:hr>141</gpxtpx:hr>
          </gpxtpx:TrackPointExtension>
        </extensions>
      </trkpt>
      <trkpt lat="44.1746" lon="3.18744">
        <ele>731</ele>
        <time>2022-02-10T10:54:36Z</time>
        <extensions>
          <gpxtpx:TrackPointExtension xmlns:gpxtpx="http://www.garmin.com/xmlschemas/TrackPointExtension/v1">
            <gpxtpx:hr>141</gpxtpx:hr>
          </gpxtpx:TrackPointExtension>
        </extensions>
      </trkpt>
      <trkpt lat="44.17463" lon="3.18745">
        <ele>730.6</ele>
        <time>2022-02-10T10:54:37Z</time>
        <extensions>
          <gpxtpx:TrackPointExtension xmlns:gpxtpx="http://www.garmin.com/xmlschemas/TrackPointExtension/v1">
            <gpxtpx:hr>141</gpxtpx:hr>
          </gpxtpx:TrackPointExtension>
        </extensions>
      </trkpt>
      <trkpt lat="44.17466" lon="3.18745">
        <ele>730.6</ele>
        <time>2022-02-10T10:54:38Z</time>
        <extensions>
          <gpxtpx:TrackPointExtension xmlns:gpxtpx="http://www.garmin.com/xmlschemas/TrackPointExtension/v1">
            <gpxtpx:hr>141</gpxtpx:hr>
          </gpxtpx:TrackPointExtension>
        </extensions>
      </trkpt>
      <trkpt lat="44.17468" lon="3.18745">
        <ele>730.2</ele>
        <time>2022-02-10T10:54:39Z</time>
        <extensions>
          <gpxtpx:TrackPointExtension xmlns:gpxtpx="http://www.garmin.com/xmlschemas/TrackPointExtension/v1">
            <gpxtpx:hr>141</gpxtpx:hr>
          </gpxtpx:TrackPointExtension>
        </extensions>
      </trkpt>
      <trkpt lat="44.17469" lon="3.18745">
        <ele>730</ele>
        <time>2022-02-10T10:54:40Z</time>
        <extensions>
          <gpxtpx:TrackPointExtension xmlns:gpxtpx="http://www.garmin.com/xmlschemas/TrackPointExtension/v1">
            <gpxtpx:hr>143</gpxtpx:hr>
          </gpxtpx:TrackPointExtension>
        </extensions>
      </trkpt>
      <trkpt lat="44.1747" lon="3.18745">
        <ele>730</ele>
        <time>2022-02-10T10:54:41Z</time>
        <extensions>
          <gpxtpx:TrackPointExtension xmlns:gpxtpx="http://www.garmin.com/xmlschemas/TrackPointExtension/v1">
            <gpxtpx:hr>141</gpxtpx:hr>
          </gpxtpx:TrackPointExtension>
        </extensions>
      </trkpt>
      <trkpt lat="44.17472" lon="3.18746">
        <ele>729.8</ele>
        <time>2022-02-10T10:54:42Z</time>
        <extensions>
          <gpxtpx:TrackPointExtension xmlns:gpxtpx="http://www.garmin.com/xmlschemas/TrackPointExtension/v1">
            <gpxtpx:hr>141</gpxtpx:hr>
          </gpxtpx:TrackPointExtension>
        </extensions>
      </trkpt>
      <trkpt lat="44.17479" lon="3.18746">
        <ele>729.8</ele>
        <time>2022-02-10T10:54:43Z</time>
        <extensions>
          <gpxtpx:TrackPointExtension xmlns:gpxtpx="http://www.garmin.com/xmlschemas/TrackPointExtension/v1">
            <gpxtpx:hr>140</gpxtpx:hr>
          </gpxtpx:TrackPointExtension>
        </extensions>
      </trkpt>
      <trkpt lat="44.1748" lon="3.18745">
        <ele>729.4</ele>
        <time>2022-02-10T10:54:44Z</time>
        <extensions>
          <gpxtpx:TrackPointExtension xmlns:gpxtpx="http://www.garmin.com/xmlschemas/TrackPointExtension/v1">
            <gpxtpx:hr>141</gpxtpx:hr>
          </gpxtpx:TrackPointExtension>
        </extensions>
      </trkpt>
      <trkpt lat="44.17481" lon="3.18745">
        <ele>729.4</ele>
        <time>2022-02-10T10:54:45Z</time>
        <extensions>
          <gpxtpx:TrackPointExtension xmlns:gpxtpx="http://www.garmin.com/xmlschemas/TrackPointExtension/v1">
            <gpxtpx:hr>140</gpxtpx:hr>
          </gpxtpx:TrackPointExtension>
        </extensions>
      </trkpt>
      <trkpt lat="44.17483" lon="3.18745">
        <ele>729</ele>
        <time>2022-02-10T10:54:46Z</time>
        <extensions>
          <gpxtpx:TrackPointExtension xmlns:gpxtpx="http://www.garmin.com/xmlschemas/TrackPointExtension/v1">
            <gpxtpx:hr>140</gpxtpx:hr>
          </gpxtpx:TrackPointExtension>
        </extensions>
      </trkpt>
      <trkpt lat="44.17489" lon="3.18743">
        <ele>728.8</ele>
        <time>2022-02-10T10:54:47Z</time>
        <extensions>
          <gpxtpx:TrackPointExtension xmlns:gpxtpx="http://www.garmin.com/xmlschemas/TrackPointExtension/v1">
            <gpxtpx:hr>139</gpxtpx:hr>
          </gpxtpx:TrackPointExtension>
        </extensions>
      </trkpt>
      <trkpt lat="44.17491" lon="3.18743">
        <ele>728.6</ele>
        <time>2022-02-10T10:54:48Z</time>
        <extensions>
          <gpxtpx:TrackPointExtension xmlns:gpxtpx="http://www.garmin.com/xmlschemas/TrackPointExtension/v1">
            <gpxtpx:hr>139</gpxtpx:hr>
          </gpxtpx:TrackPointExtension>
        </extensions>
      </trkpt>
      <trkpt lat="44.17492" lon="3.18743">
        <ele>728.6</ele>
        <time>2022-02-10T10:54:49Z</time>
        <extensions>
          <gpxtpx:TrackPointExtension xmlns:gpxtpx="http://www.garmin.com/xmlschemas/TrackPointExtension/v1">
            <gpxtpx:hr>140</gpxtpx:hr>
          </gpxtpx:TrackPointExtension>
        </extensions>
      </trkpt>
      <trkpt lat="44.17493" lon="3.18742">
        <ele>728.2</ele>
        <time>2022-02-10T10:54:50Z</time>
        <extensions>
          <gpxtpx:TrackPointExtension xmlns:gpxtpx="http://www.garmin.com/xmlschemas/TrackPointExtension/v1">
            <gpxtpx:hr>140</gpxtpx:hr>
          </gpxtpx:TrackPointExtension>
        </extensions>
      </trkpt>
      <trkpt lat="44.17501" lon="3.18741">
        <ele>728.2</ele>
        <time>2022-02-10T10:54:51Z</time>
        <extensions>
          <gpxtpx:TrackPointExtension xmlns:gpxtpx="http://www.garmin.com/xmlschemas/TrackPointExtension/v1">
            <gpxtpx:hr>141</gpxtpx:hr>
          </gpxtpx:TrackPointExtension>
        </extensions>
      </trkpt>
      <trkpt lat="44.17504" lon="3.18741">
        <ele>728</ele>
        <time>2022-02-10T10:54:52Z</time>
        <extensions>
          <gpxtpx:TrackPointExtension xmlns:gpxtpx="http://www.garmin.com/xmlschemas/TrackPointExtension/v1">
            <gpxtpx:hr>141</gpxtpx:hr>
          </gpxtpx:TrackPointExtension>
        </extensions>
      </trkpt>
      <trkpt lat="44.17506" lon="3.1874">
        <ele>728</ele>
        <time>2022-02-10T10:54:53Z</time>
        <extensions>
          <gpxtpx:TrackPointExtension xmlns:gpxtpx="http://www.garmin.com/xmlschemas/TrackPointExtension/v1">
            <gpxtpx:hr>143</gpxtpx:hr>
          </gpxtpx:TrackPointExtension>
        </extensions>
      </trkpt>
      <trkpt lat="44.17508" lon="3.1874">
        <ele>727.6</ele>
        <time>2022-02-10T10:54:54Z</time>
        <extensions>
          <gpxtpx:TrackPointExtension xmlns:gpxtpx="http://www.garmin.com/xmlschemas/TrackPointExtension/v1">
            <gpxtpx:hr>145</gpxtpx:hr>
          </gpxtpx:TrackPointExtension>
        </extensions>
      </trkpt>
      <trkpt lat="44.1751" lon="3.1874">
        <ele>727.6</ele>
        <time>2022-02-10T10:54:55Z</time>
        <extensions>
          <gpxtpx:TrackPointExtension xmlns:gpxtpx="http://www.garmin.com/xmlschemas/TrackPointExtension/v1">
            <gpxtpx:hr>145</gpxtpx:hr>
          </gpxtpx:TrackPointExtension>
        </extensions>
      </trkpt>
      <trkpt lat="44.17512" lon="3.18741">
        <ele>727.2</ele>
        <time>2022-02-10T10:54:56Z</time>
        <extensions>
          <gpxtpx:TrackPointExtension xmlns:gpxtpx="http://www.garmin.com/xmlschemas/TrackPointExtension/v1">
            <gpxtpx:hr>147</gpxtpx:hr>
          </gpxtpx:TrackPointExtension>
        </extensions>
      </trkpt>
      <trkpt lat="44.17514" lon="3.18741">
        <ele>727.2</ele>
        <time>2022-02-10T10:54:57Z</time>
        <extensions>
          <gpxtpx:TrackPointExtension xmlns:gpxtpx="http://www.garmin.com/xmlschemas/TrackPointExtension/v1">
            <gpxtpx:hr>149</gpxtpx:hr>
          </gpxtpx:TrackPointExtension>
        </extensions>
      </trkpt>
      <trkpt lat="44.17516" lon="3.18741">
        <ele>727</ele>
        <time>2022-02-10T10:54:58Z</time>
        <extensions>
          <gpxtpx:TrackPointExtension xmlns:gpxtpx="http://www.garmin.com/xmlschemas/TrackPointExtension/v1">
            <gpxtpx:hr>151</gpxtpx:hr>
          </gpxtpx:TrackPointExtension>
        </extensions>
      </trkpt>
      <trkpt lat="44.17518" lon="3.18741">
        <ele>727</ele>
        <time>2022-02-10T10:54:59Z</time>
        <extensions>
          <gpxtpx:TrackPointExtension xmlns:gpxtpx="http://www.garmin.com/xmlschemas/TrackPointExtension/v1">
            <gpxtpx:hr>151</gpxtpx:hr>
          </gpxtpx:TrackPointExtension>
        </extensions>
      </trkpt>
      <trkpt lat="44.17519" lon="3.18742">
        <ele>727</ele>
        <time>2022-02-10T10:55:00Z</time>
        <extensions>
          <gpxtpx:TrackPointExtension xmlns:gpxtpx="http://www.garmin.com/xmlschemas/TrackPointExtension/v1">
            <gpxtpx:hr>150</gpxtpx:hr>
          </gpxtpx:TrackPointExtension>
        </extensions>
      </trkpt>
      <trkpt lat="44.1752" lon="3.18743">
        <ele>726.6</ele>
        <time>2022-02-10T10:55:01Z</time>
        <extensions>
          <gpxtpx:TrackPointExtension xmlns:gpxtpx="http://www.garmin.com/xmlschemas/TrackPointExtension/v1">
            <gpxtpx:hr>150</gpxtpx:hr>
          </gpxtpx:TrackPointExtension>
        </extensions>
      </trkpt>
      <trkpt lat="44.17521" lon="3.18745">
        <ele>726.6</ele>
        <time>2022-02-10T10:55:02Z</time>
        <extensions>
          <gpxtpx:TrackPointExtension xmlns:gpxtpx="http://www.garmin.com/xmlschemas/TrackPointExtension/v1">
            <gpxtpx:hr>149</gpxtpx:hr>
          </gpxtpx:TrackPointExtension>
        </extensions>
      </trkpt>
      <trkpt lat="44.17522" lon="3.18746">
        <ele>726.4</ele>
        <time>2022-02-10T10:55:03Z</time>
        <extensions>
          <gpxtpx:TrackPointExtension xmlns:gpxtpx="http://www.garmin.com/xmlschemas/TrackPointExtension/v1">
            <gpxtpx:hr>150</gpxtpx:hr>
          </gpxtpx:TrackPointExtension>
        </extensions>
      </trkpt>
      <trkpt lat="44.17529" lon="3.18753">
        <ele>726.4</ele>
        <time>2022-02-10T10:55:04Z</time>
        <extensions>
          <gpxtpx:TrackPointExtension xmlns:gpxtpx="http://www.garmin.com/xmlschemas/TrackPointExtension/v1">
            <gpxtpx:hr>150</gpxtpx:hr>
          </gpxtpx:TrackPointExtension>
        </extensions>
      </trkpt>
      <trkpt lat="44.1753" lon="3.18755">
        <ele>726.4</ele>
        <time>2022-02-10T10:55:05Z</time>
        <extensions>
          <gpxtpx:TrackPointExtension xmlns:gpxtpx="http://www.garmin.com/xmlschemas/TrackPointExtension/v1">
            <gpxtpx:hr>147</gpxtpx:hr>
          </gpxtpx:TrackPointExtension>
        </extensions>
      </trkpt>
      <trkpt lat="44.17532" lon="3.18757">
        <ele>726.2</ele>
        <time>2022-02-10T10:55:06Z</time>
        <extensions>
          <gpxtpx:TrackPointExtension xmlns:gpxtpx="http://www.garmin.com/xmlschemas/TrackPointExtension/v1">
            <gpxtpx:hr>147</gpxtpx:hr>
          </gpxtpx:TrackPointExtension>
        </extensions>
      </trkpt>
      <trkpt lat="44.17533" lon="3.1876">
        <ele>726.2</ele>
        <time>2022-02-10T10:55:07Z</time>
        <extensions>
          <gpxtpx:TrackPointExtension xmlns:gpxtpx="http://www.garmin.com/xmlschemas/TrackPointExtension/v1">
            <gpxtpx:hr>147</gpxtpx:hr>
          </gpxtpx:TrackPointExtension>
        </extensions>
      </trkpt>
      <trkpt lat="44.17535" lon="3.18762">
        <ele>726.2</ele>
        <time>2022-02-10T10:55:08Z</time>
        <extensions>
          <gpxtpx:TrackPointExtension xmlns:gpxtpx="http://www.garmin.com/xmlschemas/TrackPointExtension/v1">
            <gpxtpx:hr>147</gpxtpx:hr>
          </gpxtpx:TrackPointExtension>
        </extensions>
      </trkpt>
      <trkpt lat="44.17537" lon="3.18765">
        <ele>726</ele>
        <time>2022-02-10T10:55:09Z</time>
        <extensions>
          <gpxtpx:TrackPointExtension xmlns:gpxtpx="http://www.garmin.com/xmlschemas/TrackPointExtension/v1">
            <gpxtpx:hr>147</gpxtpx:hr>
          </gpxtpx:TrackPointExtension>
        </extensions>
      </trkpt>
      <trkpt lat="44.17539" lon="3.18769">
        <ele>726</ele>
        <time>2022-02-10T10:55:10Z</time>
        <extensions>
          <gpxtpx:TrackPointExtension xmlns:gpxtpx="http://www.garmin.com/xmlschemas/TrackPointExtension/v1">
            <gpxtpx:hr>147</gpxtpx:hr>
          </gpxtpx:TrackPointExtension>
        </extensions>
      </trkpt>
      <trkpt lat="44.17541" lon="3.18772">
        <ele>726</ele>
        <time>2022-02-10T10:55:11Z</time>
        <extensions>
          <gpxtpx:TrackPointExtension xmlns:gpxtpx="http://www.garmin.com/xmlschemas/TrackPointExtension/v1">
            <gpxtpx:hr>147</gpxtpx:hr>
          </gpxtpx:TrackPointExtension>
        </extensions>
      </trkpt>
      <trkpt lat="44.17544" lon="3.18776">
        <ele>725.8</ele>
        <time>2022-02-10T10:55:12Z</time>
        <extensions>
          <gpxtpx:TrackPointExtension xmlns:gpxtpx="http://www.garmin.com/xmlschemas/TrackPointExtension/v1">
            <gpxtpx:hr>147</gpxtpx:hr>
          </gpxtpx:TrackPointExtension>
        </extensions>
      </trkpt>
      <trkpt lat="44.17546" lon="3.18779">
        <ele>725.8</ele>
        <time>2022-02-10T10:55:13Z</time>
        <extensions>
          <gpxtpx:TrackPointExtension xmlns:gpxtpx="http://www.garmin.com/xmlschemas/TrackPointExtension/v1">
            <gpxtpx:hr>146</gpxtpx:hr>
          </gpxtpx:TrackPointExtension>
        </extensions>
      </trkpt>
      <trkpt lat="44.17548" lon="3.18782">
        <ele>725.6</ele>
        <time>2022-02-10T10:55:14Z</time>
        <extensions>
          <gpxtpx:TrackPointExtension xmlns:gpxtpx="http://www.garmin.com/xmlschemas/TrackPointExtension/v1">
            <gpxtpx:hr>147</gpxtpx:hr>
          </gpxtpx:TrackPointExtension>
        </extensions>
      </trkpt>
      <trkpt lat="44.1755" lon="3.18784">
        <ele>725.4</ele>
        <time>2022-02-10T10:55:15Z</time>
        <extensions>
          <gpxtpx:TrackPointExtension xmlns:gpxtpx="http://www.garmin.com/xmlschemas/TrackPointExtension/v1">
            <gpxtpx:hr>148</gpxtpx:hr>
          </gpxtpx:TrackPointExtension>
        </extensions>
      </trkpt>
      <trkpt lat="44.17552" lon="3.18787">
        <ele>725.2</ele>
        <time>2022-02-10T10:55:16Z</time>
        <extensions>
          <gpxtpx:TrackPointExtension xmlns:gpxtpx="http://www.garmin.com/xmlschemas/TrackPointExtension/v1">
            <gpxtpx:hr>151</gpxtpx:hr>
          </gpxtpx:TrackPointExtension>
        </extensions>
      </trkpt>
      <trkpt lat="44.17554" lon="3.18789">
        <ele>725</ele>
        <time>2022-02-10T10:55:17Z</time>
        <extensions>
          <gpxtpx:TrackPointExtension xmlns:gpxtpx="http://www.garmin.com/xmlschemas/TrackPointExtension/v1">
            <gpxtpx:hr>151</gpxtpx:hr>
          </gpxtpx:TrackPointExtension>
        </extensions>
      </trkpt>
      <trkpt lat="44.17556" lon="3.18791">
        <ele>725</ele>
        <time>2022-02-10T10:55:18Z</time>
        <extensions>
          <gpxtpx:TrackPointExtension xmlns:gpxtpx="http://www.garmin.com/xmlschemas/TrackPointExtension/v1">
            <gpxtpx:hr>151</gpxtpx:hr>
          </gpxtpx:TrackPointExtension>
        </extensions>
      </trkpt>
      <trkpt lat="44.17558" lon="3.18791">
        <ele>724.6</ele>
        <time>2022-02-10T10:55:19Z</time>
        <extensions>
          <gpxtpx:TrackPointExtension xmlns:gpxtpx="http://www.garmin.com/xmlschemas/TrackPointExtension/v1">
            <gpxtpx:hr>151</gpxtpx:hr>
          </gpxtpx:TrackPointExtension>
        </extensions>
      </trkpt>
      <trkpt lat="44.1756" lon="3.18791">
        <ele>724.6</ele>
        <time>2022-02-10T10:55:20Z</time>
        <extensions>
          <gpxtpx:TrackPointExtension xmlns:gpxtpx="http://www.garmin.com/xmlschemas/TrackPointExtension/v1">
            <gpxtpx:hr>151</gpxtpx:hr>
          </gpxtpx:TrackPointExtension>
        </extensions>
      </trkpt>
      <trkpt lat="44.17563" lon="3.18792">
        <ele>724.2</ele>
        <time>2022-02-10T10:55:21Z</time>
        <extensions>
          <gpxtpx:TrackPointExtension xmlns:gpxtpx="http://www.garmin.com/xmlschemas/TrackPointExtension/v1">
            <gpxtpx:hr>151</gpxtpx:hr>
          </gpxtpx:TrackPointExtension>
        </extensions>
      </trkpt>
      <trkpt lat="44.17565" lon="3.18792">
        <ele>724.2</ele>
        <time>2022-02-10T10:55:22Z</time>
        <extensions>
          <gpxtpx:TrackPointExtension xmlns:gpxtpx="http://www.garmin.com/xmlschemas/TrackPointExtension/v1">
            <gpxtpx:hr>151</gpxtpx:hr>
          </gpxtpx:TrackPointExtension>
        </extensions>
      </trkpt>
      <trkpt lat="44.17568" lon="3.18791">
        <ele>724.2</ele>
        <time>2022-02-10T10:55:23Z</time>
        <extensions>
          <gpxtpx:TrackPointExtension xmlns:gpxtpx="http://www.garmin.com/xmlschemas/TrackPointExtension/v1">
            <gpxtpx:hr>152</gpxtpx:hr>
          </gpxtpx:TrackPointExtension>
        </extensions>
      </trkpt>
      <trkpt lat="44.17571" lon="3.18789">
        <ele>724</ele>
        <time>2022-02-10T10:55:24Z</time>
        <extensions>
          <gpxtpx:TrackPointExtension xmlns:gpxtpx="http://www.garmin.com/xmlschemas/TrackPointExtension/v1">
            <gpxtpx:hr>151</gpxtpx:hr>
          </gpxtpx:TrackPointExtension>
        </extensions>
      </trkpt>
      <trkpt lat="44.17574" lon="3.18788">
        <ele>724</ele>
        <time>2022-02-10T10:55:25Z</time>
        <extensions>
          <gpxtpx:TrackPointExtension xmlns:gpxtpx="http://www.garmin.com/xmlschemas/TrackPointExtension/v1">
            <gpxtpx:hr>151</gpxtpx:hr>
          </gpxtpx:TrackPointExtension>
        </extensions>
      </trkpt>
      <trkpt lat="44.17576" lon="3.18787">
        <ele>724</ele>
        <time>2022-02-10T10:55:26Z</time>
        <extensions>
          <gpxtpx:TrackPointExtension xmlns:gpxtpx="http://www.garmin.com/xmlschemas/TrackPointExtension/v1">
            <gpxtpx:hr>150</gpxtpx:hr>
          </gpxtpx:TrackPointExtension>
        </extensions>
      </trkpt>
      <trkpt lat="44.17578" lon="3.18786">
        <ele>723.8</ele>
        <time>2022-02-10T10:55:27Z</time>
        <extensions>
          <gpxtpx:TrackPointExtension xmlns:gpxtpx="http://www.garmin.com/xmlschemas/TrackPointExtension/v1">
            <gpxtpx:hr>150</gpxtpx:hr>
          </gpxtpx:TrackPointExtension>
        </extensions>
      </trkpt>
      <trkpt lat="44.17579" lon="3.18785">
        <ele>723.4</ele>
        <time>2022-02-10T10:55:28Z</time>
        <extensions>
          <gpxtpx:TrackPointExtension xmlns:gpxtpx="http://www.garmin.com/xmlschemas/TrackPointExtension/v1">
            <gpxtpx:hr>150</gpxtpx:hr>
          </gpxtpx:TrackPointExtension>
        </extensions>
      </trkpt>
      <trkpt lat="44.17581" lon="3.18784">
        <ele>723.4</ele>
        <time>2022-02-10T10:55:29Z</time>
        <extensions>
          <gpxtpx:TrackPointExtension xmlns:gpxtpx="http://www.garmin.com/xmlschemas/TrackPointExtension/v1">
            <gpxtpx:hr>149</gpxtpx:hr>
          </gpxtpx:TrackPointExtension>
        </extensions>
      </trkpt>
      <trkpt lat="44.17583" lon="3.18783">
        <ele>723.2</ele>
        <time>2022-02-10T10:55:30Z</time>
        <extensions>
          <gpxtpx:TrackPointExtension xmlns:gpxtpx="http://www.garmin.com/xmlschemas/TrackPointExtension/v1">
            <gpxtpx:hr>150</gpxtpx:hr>
          </gpxtpx:TrackPointExtension>
        </extensions>
      </trkpt>
      <trkpt lat="44.17585" lon="3.18782">
        <ele>723.2</ele>
        <time>2022-02-10T10:55:31Z</time>
        <extensions>
          <gpxtpx:TrackPointExtension xmlns:gpxtpx="http://www.garmin.com/xmlschemas/TrackPointExtension/v1">
            <gpxtpx:hr>150</gpxtpx:hr>
          </gpxtpx:TrackPointExtension>
        </extensions>
      </trkpt>
      <trkpt lat="44.17587" lon="3.18781">
        <ele>723.2</ele>
        <time>2022-02-10T10:55:32Z</time>
        <extensions>
          <gpxtpx:TrackPointExtension xmlns:gpxtpx="http://www.garmin.com/xmlschemas/TrackPointExtension/v1">
            <gpxtpx:hr>150</gpxtpx:hr>
          </gpxtpx:TrackPointExtension>
        </extensions>
      </trkpt>
      <trkpt lat="44.17589" lon="3.18781">
        <ele>722.8</ele>
        <time>2022-02-10T10:55:33Z</time>
        <extensions>
          <gpxtpx:TrackPointExtension xmlns:gpxtpx="http://www.garmin.com/xmlschemas/TrackPointExtension/v1">
            <gpxtpx:hr>150</gpxtpx:hr>
          </gpxtpx:TrackPointExtension>
        </extensions>
      </trkpt>
      <trkpt lat="44.17591" lon="3.1878">
        <ele>722.6</ele>
        <time>2022-02-10T10:55:34Z</time>
        <extensions>
          <gpxtpx:TrackPointExtension xmlns:gpxtpx="http://www.garmin.com/xmlschemas/TrackPointExtension/v1">
            <gpxtpx:hr>151</gpxtpx:hr>
          </gpxtpx:TrackPointExtension>
        </extensions>
      </trkpt>
      <trkpt lat="44.17593" lon="3.18779">
        <ele>722.6</ele>
        <time>2022-02-10T10:55:35Z</time>
        <extensions>
          <gpxtpx:TrackPointExtension xmlns:gpxtpx="http://www.garmin.com/xmlschemas/TrackPointExtension/v1">
            <gpxtpx:hr>150</gpxtpx:hr>
          </gpxtpx:TrackPointExtension>
        </extensions>
      </trkpt>
      <trkpt lat="44.17594" lon="3.18779">
        <ele>722.4</ele>
        <time>2022-02-10T10:55:36Z</time>
        <extensions>
          <gpxtpx:TrackPointExtension xmlns:gpxtpx="http://www.garmin.com/xmlschemas/TrackPointExtension/v1">
            <gpxtpx:hr>151</gpxtpx:hr>
          </gpxtpx:TrackPointExtension>
        </extensions>
      </trkpt>
      <trkpt lat="44.17596" lon="3.18779">
        <ele>722.4</ele>
        <time>2022-02-10T10:55:37Z</time>
        <extensions>
          <gpxtpx:TrackPointExtension xmlns:gpxtpx="http://www.garmin.com/xmlschemas/TrackPointExtension/v1">
            <gpxtpx:hr>150</gpxtpx:hr>
          </gpxtpx:TrackPointExtension>
        </extensions>
      </trkpt>
      <trkpt lat="44.17597" lon="3.18779">
        <ele>722.4</ele>
        <time>2022-02-10T10:55:38Z</time>
        <extensions>
          <gpxtpx:TrackPointExtension xmlns:gpxtpx="http://www.garmin.com/xmlschemas/TrackPointExtension/v1">
            <gpxtpx:hr>150</gpxtpx:hr>
          </gpxtpx:TrackPointExtension>
        </extensions>
      </trkpt>
      <trkpt lat="44.17598" lon="3.18779">
        <ele>722.4</ele>
        <time>2022-02-10T10:55:39Z</time>
        <extensions>
          <gpxtpx:TrackPointExtension xmlns:gpxtpx="http://www.garmin.com/xmlschemas/TrackPointExtension/v1">
            <gpxtpx:hr>149</gpxtpx:hr>
          </gpxtpx:TrackPointExtension>
        </extensions>
      </trkpt>
      <trkpt lat="44.17605" lon="3.18781">
        <ele>722.4</ele>
        <time>2022-02-10T10:55:40Z</time>
        <extensions>
          <gpxtpx:TrackPointExtension xmlns:gpxtpx="http://www.garmin.com/xmlschemas/TrackPointExtension/v1">
            <gpxtpx:hr>150</gpxtpx:hr>
          </gpxtpx:TrackPointExtension>
        </extensions>
      </trkpt>
      <trkpt lat="44.17606" lon="3.18782">
        <ele>722.2</ele>
        <time>2022-02-10T10:55:41Z</time>
        <extensions>
          <gpxtpx:TrackPointExtension xmlns:gpxtpx="http://www.garmin.com/xmlschemas/TrackPointExtension/v1">
            <gpxtpx:hr>150</gpxtpx:hr>
          </gpxtpx:TrackPointExtension>
        </extensions>
      </trkpt>
      <trkpt lat="44.17608" lon="3.18783">
        <ele>722.2</ele>
        <time>2022-02-10T10:55:42Z</time>
        <extensions>
          <gpxtpx:TrackPointExtension xmlns:gpxtpx="http://www.garmin.com/xmlschemas/TrackPointExtension/v1">
            <gpxtpx:hr>150</gpxtpx:hr>
          </gpxtpx:TrackPointExtension>
        </extensions>
      </trkpt>
      <trkpt lat="44.17609" lon="3.18784">
        <ele>722.2</ele>
        <time>2022-02-10T10:55:43Z</time>
        <extensions>
          <gpxtpx:TrackPointExtension xmlns:gpxtpx="http://www.garmin.com/xmlschemas/TrackPointExtension/v1">
            <gpxtpx:hr>149</gpxtpx:hr>
          </gpxtpx:TrackPointExtension>
        </extensions>
      </trkpt>
      <trkpt lat="44.17611" lon="3.18786">
        <ele>722.2</ele>
        <time>2022-02-10T10:55:44Z</time>
        <extensions>
          <gpxtpx:TrackPointExtension xmlns:gpxtpx="http://www.garmin.com/xmlschemas/TrackPointExtension/v1">
            <gpxtpx:hr>150</gpxtpx:hr>
          </gpxtpx:TrackPointExtension>
        </extensions>
      </trkpt>
      <trkpt lat="44.17613" lon="3.18787">
        <ele>722.2</ele>
        <time>2022-02-10T10:55:45Z</time>
        <extensions>
          <gpxtpx:TrackPointExtension xmlns:gpxtpx="http://www.garmin.com/xmlschemas/TrackPointExtension/v1">
            <gpxtpx:hr>149</gpxtpx:hr>
          </gpxtpx:TrackPointExtension>
        </extensions>
      </trkpt>
      <trkpt lat="44.17615" lon="3.18789">
        <ele>722.2</ele>
        <time>2022-02-10T10:55:46Z</time>
        <extensions>
          <gpxtpx:TrackPointExtension xmlns:gpxtpx="http://www.garmin.com/xmlschemas/TrackPointExtension/v1">
            <gpxtpx:hr>148</gpxtpx:hr>
          </gpxtpx:TrackPointExtension>
        </extensions>
      </trkpt>
      <trkpt lat="44.17618" lon="3.1879">
        <ele>722.2</ele>
        <time>2022-02-10T10:55:47Z</time>
        <extensions>
          <gpxtpx:TrackPointExtension xmlns:gpxtpx="http://www.garmin.com/xmlschemas/TrackPointExtension/v1">
            <gpxtpx:hr>147</gpxtpx:hr>
          </gpxtpx:TrackPointExtension>
        </extensions>
      </trkpt>
      <trkpt lat="44.17621" lon="3.18792">
        <ele>722.2</ele>
        <time>2022-02-10T10:55:48Z</time>
        <extensions>
          <gpxtpx:TrackPointExtension xmlns:gpxtpx="http://www.garmin.com/xmlschemas/TrackPointExtension/v1">
            <gpxtpx:hr>147</gpxtpx:hr>
          </gpxtpx:TrackPointExtension>
        </extensions>
      </trkpt>
      <trkpt lat="44.17628" lon="3.18796">
        <ele>722</ele>
        <time>2022-02-10T10:55:51Z</time>
        <extensions>
          <gpxtpx:TrackPointExtension xmlns:gpxtpx="http://www.garmin.com/xmlschemas/TrackPointExtension/v1">
            <gpxtpx:hr>146</gpxtpx:hr>
          </gpxtpx:TrackPointExtension>
        </extensions>
      </trkpt>
      <trkpt lat="44.1763" lon="3.18797">
        <ele>722</ele>
        <time>2022-02-10T10:55:52Z</time>
        <extensions>
          <gpxtpx:TrackPointExtension xmlns:gpxtpx="http://www.garmin.com/xmlschemas/TrackPointExtension/v1">
            <gpxtpx:hr>146</gpxtpx:hr>
          </gpxtpx:TrackPointExtension>
        </extensions>
      </trkpt>
      <trkpt lat="44.17636" lon="3.18799">
        <ele>722</ele>
        <time>2022-02-10T10:55:54Z</time>
        <extensions>
          <gpxtpx:TrackPointExtension xmlns:gpxtpx="http://www.garmin.com/xmlschemas/TrackPointExtension/v1">
            <gpxtpx:hr>148</gpxtpx:hr>
          </gpxtpx:TrackPointExtension>
        </extensions>
      </trkpt>
      <trkpt lat="44.17641" lon="3.18801">
        <ele>722</ele>
        <time>2022-02-10T10:55:56Z</time>
        <extensions>
          <gpxtpx:TrackPointExtension xmlns:gpxtpx="http://www.garmin.com/xmlschemas/TrackPointExtension/v1">
            <gpxtpx:hr>148</gpxtpx:hr>
          </gpxtpx:TrackPointExtension>
        </extensions>
      </trkpt>
      <trkpt lat="44.17644" lon="3.18802">
        <ele>722</ele>
        <time>2022-02-10T10:55:57Z</time>
        <extensions>
          <gpxtpx:TrackPointExtension xmlns:gpxtpx="http://www.garmin.com/xmlschemas/TrackPointExtension/v1">
            <gpxtpx:hr>148</gpxtpx:hr>
          </gpxtpx:TrackPointExtension>
        </extensions>
      </trkpt>
      <trkpt lat="44.17646" lon="3.18802">
        <ele>721.8</ele>
        <time>2022-02-10T10:55:58Z</time>
        <extensions>
          <gpxtpx:TrackPointExtension xmlns:gpxtpx="http://www.garmin.com/xmlschemas/TrackPointExtension/v1">
            <gpxtpx:hr>150</gpxtpx:hr>
          </gpxtpx:TrackPointExtension>
        </extensions>
      </trkpt>
      <trkpt lat="44.17651" lon="3.18802">
        <ele>721.4</ele>
        <time>2022-02-10T10:56:00Z</time>
        <extensions>
          <gpxtpx:TrackPointExtension xmlns:gpxtpx="http://www.garmin.com/xmlschemas/TrackPointExtension/v1">
            <gpxtpx:hr>150</gpxtpx:hr>
          </gpxtpx:TrackPointExtension>
        </extensions>
      </trkpt>
      <trkpt lat="44.17653" lon="3.18802">
        <ele>721.4</ele>
        <time>2022-02-10T10:56:01Z</time>
        <extensions>
          <gpxtpx:TrackPointExtension xmlns:gpxtpx="http://www.garmin.com/xmlschemas/TrackPointExtension/v1">
            <gpxtpx:hr>151</gpxtpx:hr>
          </gpxtpx:TrackPointExtension>
        </extensions>
      </trkpt>
      <trkpt lat="44.17656" lon="3.18802">
        <ele>721.2</ele>
        <time>2022-02-10T10:56:02Z</time>
        <extensions>
          <gpxtpx:TrackPointExtension xmlns:gpxtpx="http://www.garmin.com/xmlschemas/TrackPointExtension/v1">
            <gpxtpx:hr>150</gpxtpx:hr>
          </gpxtpx:TrackPointExtension>
        </extensions>
      </trkpt>
      <trkpt lat="44.17658" lon="3.18802">
        <ele>721.2</ele>
        <time>2022-02-10T10:56:03Z</time>
        <extensions>
          <gpxtpx:TrackPointExtension xmlns:gpxtpx="http://www.garmin.com/xmlschemas/TrackPointExtension/v1">
            <gpxtpx:hr>150</gpxtpx:hr>
          </gpxtpx:TrackPointExtension>
        </extensions>
      </trkpt>
      <trkpt lat="44.1766" lon="3.18803">
        <ele>721</ele>
        <time>2022-02-10T10:56:04Z</time>
        <extensions>
          <gpxtpx:TrackPointExtension xmlns:gpxtpx="http://www.garmin.com/xmlschemas/TrackPointExtension/v1">
            <gpxtpx:hr>151</gpxtpx:hr>
          </gpxtpx:TrackPointExtension>
        </extensions>
      </trkpt>
      <trkpt lat="44.17662" lon="3.18803">
        <ele>721</ele>
        <time>2022-02-10T10:56:05Z</time>
        <extensions>
          <gpxtpx:TrackPointExtension xmlns:gpxtpx="http://www.garmin.com/xmlschemas/TrackPointExtension/v1">
            <gpxtpx:hr>149</gpxtpx:hr>
          </gpxtpx:TrackPointExtension>
        </extensions>
      </trkpt>
      <trkpt lat="44.17665" lon="3.18804">
        <ele>720.8</ele>
        <time>2022-02-10T10:56:06Z</time>
        <extensions>
          <gpxtpx:TrackPointExtension xmlns:gpxtpx="http://www.garmin.com/xmlschemas/TrackPointExtension/v1">
            <gpxtpx:hr>150</gpxtpx:hr>
          </gpxtpx:TrackPointExtension>
        </extensions>
      </trkpt>
      <trkpt lat="44.17668" lon="3.18805">
        <ele>720.8</ele>
        <time>2022-02-10T10:56:07Z</time>
        <extensions>
          <gpxtpx:TrackPointExtension xmlns:gpxtpx="http://www.garmin.com/xmlschemas/TrackPointExtension/v1">
            <gpxtpx:hr>148</gpxtpx:hr>
          </gpxtpx:TrackPointExtension>
        </extensions>
      </trkpt>
      <trkpt lat="44.1767" lon="3.18806">
        <ele>720.8</ele>
        <time>2022-02-10T10:56:08Z</time>
        <extensions>
          <gpxtpx:TrackPointExtension xmlns:gpxtpx="http://www.garmin.com/xmlschemas/TrackPointExtension/v1">
            <gpxtpx:hr>148</gpxtpx:hr>
          </gpxtpx:TrackPointExtension>
        </extensions>
      </trkpt>
      <trkpt lat="44.17672" lon="3.18807">
        <ele>720.4</ele>
        <time>2022-02-10T10:56:09Z</time>
        <extensions>
          <gpxtpx:TrackPointExtension xmlns:gpxtpx="http://www.garmin.com/xmlschemas/TrackPointExtension/v1">
            <gpxtpx:hr>149</gpxtpx:hr>
          </gpxtpx:TrackPointExtension>
        </extensions>
      </trkpt>
      <trkpt lat="44.17674" lon="3.18809">
        <ele>720.4</ele>
        <time>2022-02-10T10:56:10Z</time>
        <extensions>
          <gpxtpx:TrackPointExtension xmlns:gpxtpx="http://www.garmin.com/xmlschemas/TrackPointExtension/v1">
            <gpxtpx:hr>148</gpxtpx:hr>
          </gpxtpx:TrackPointExtension>
        </extensions>
      </trkpt>
      <trkpt lat="44.17678" lon="3.18813">
        <ele>719.6</ele>
        <time>2022-02-10T10:56:12Z</time>
        <extensions>
          <gpxtpx:TrackPointExtension xmlns:gpxtpx="http://www.garmin.com/xmlschemas/TrackPointExtension/v1">
            <gpxtpx:hr>148</gpxtpx:hr>
          </gpxtpx:TrackPointExtension>
        </extensions>
      </trkpt>
      <trkpt lat="44.1768" lon="3.18816">
        <ele>719.6</ele>
        <time>2022-02-10T10:56:13Z</time>
        <extensions>
          <gpxtpx:TrackPointExtension xmlns:gpxtpx="http://www.garmin.com/xmlschemas/TrackPointExtension/v1">
            <gpxtpx:hr>149</gpxtpx:hr>
          </gpxtpx:TrackPointExtension>
        </extensions>
      </trkpt>
      <trkpt lat="44.17682" lon="3.18818">
        <ele>719.2</ele>
        <time>2022-02-10T10:56:14Z</time>
        <extensions>
          <gpxtpx:TrackPointExtension xmlns:gpxtpx="http://www.garmin.com/xmlschemas/TrackPointExtension/v1">
            <gpxtpx:hr>150</gpxtpx:hr>
          </gpxtpx:TrackPointExtension>
        </extensions>
      </trkpt>
      <trkpt lat="44.17685" lon="3.1882">
        <ele>719</ele>
        <time>2022-02-10T10:56:15Z</time>
        <extensions>
          <gpxtpx:TrackPointExtension xmlns:gpxtpx="http://www.garmin.com/xmlschemas/TrackPointExtension/v1">
            <gpxtpx:hr>152</gpxtpx:hr>
          </gpxtpx:TrackPointExtension>
        </extensions>
      </trkpt>
      <trkpt lat="44.17689" lon="3.18823">
        <ele>718.6</ele>
        <time>2022-02-10T10:56:17Z</time>
        <extensions>
          <gpxtpx:TrackPointExtension xmlns:gpxtpx="http://www.garmin.com/xmlschemas/TrackPointExtension/v1">
            <gpxtpx:hr>152</gpxtpx:hr>
          </gpxtpx:TrackPointExtension>
        </extensions>
      </trkpt>
      <trkpt lat="44.17694" lon="3.18825">
        <ele>718.4</ele>
        <time>2022-02-10T10:56:19Z</time>
        <extensions>
          <gpxtpx:TrackPointExtension xmlns:gpxtpx="http://www.garmin.com/xmlschemas/TrackPointExtension/v1">
            <gpxtpx:hr>151</gpxtpx:hr>
          </gpxtpx:TrackPointExtension>
        </extensions>
      </trkpt>
      <trkpt lat="44.17696" lon="3.18825">
        <ele>718</ele>
        <time>2022-02-10T10:56:20Z</time>
        <extensions>
          <gpxtpx:TrackPointExtension xmlns:gpxtpx="http://www.garmin.com/xmlschemas/TrackPointExtension/v1">
            <gpxtpx:hr>150</gpxtpx:hr>
          </gpxtpx:TrackPointExtension>
        </extensions>
      </trkpt>
      <trkpt lat="44.17699" lon="3.18826">
        <ele>718</ele>
        <time>2022-02-10T10:56:21Z</time>
        <extensions>
          <gpxtpx:TrackPointExtension xmlns:gpxtpx="http://www.garmin.com/xmlschemas/TrackPointExtension/v1">
            <gpxtpx:hr>151</gpxtpx:hr>
          </gpxtpx:TrackPointExtension>
        </extensions>
      </trkpt>
      <trkpt lat="44.17701" lon="3.18826">
        <ele>717.8</ele>
        <time>2022-02-10T10:56:22Z</time>
        <extensions>
          <gpxtpx:TrackPointExtension xmlns:gpxtpx="http://www.garmin.com/xmlschemas/TrackPointExtension/v1">
            <gpxtpx:hr>152</gpxtpx:hr>
          </gpxtpx:TrackPointExtension>
        </extensions>
      </trkpt>
      <trkpt lat="44.17704" lon="3.18826">
        <ele>717.8</ele>
        <time>2022-02-10T10:56:23Z</time>
        <extensions>
          <gpxtpx:TrackPointExtension xmlns:gpxtpx="http://www.garmin.com/xmlschemas/TrackPointExtension/v1">
            <gpxtpx:hr>153</gpxtpx:hr>
          </gpxtpx:TrackPointExtension>
        </extensions>
      </trkpt>
      <trkpt lat="44.17706" lon="3.18826">
        <ele>717.6</ele>
        <time>2022-02-10T10:56:24Z</time>
        <extensions>
          <gpxtpx:TrackPointExtension xmlns:gpxtpx="http://www.garmin.com/xmlschemas/TrackPointExtension/v1">
            <gpxtpx:hr>153</gpxtpx:hr>
          </gpxtpx:TrackPointExtension>
        </extensions>
      </trkpt>
      <trkpt lat="44.17708" lon="3.18826">
        <ele>717.2</ele>
        <time>2022-02-10T10:56:25Z</time>
        <extensions>
          <gpxtpx:TrackPointExtension xmlns:gpxtpx="http://www.garmin.com/xmlschemas/TrackPointExtension/v1">
            <gpxtpx:hr>152</gpxtpx:hr>
          </gpxtpx:TrackPointExtension>
        </extensions>
      </trkpt>
      <trkpt lat="44.17713" lon="3.18826">
        <ele>717</ele>
        <time>2022-02-10T10:56:27Z</time>
        <extensions>
          <gpxtpx:TrackPointExtension xmlns:gpxtpx="http://www.garmin.com/xmlschemas/TrackPointExtension/v1">
            <gpxtpx:hr>150</gpxtpx:hr>
          </gpxtpx:TrackPointExtension>
        </extensions>
      </trkpt>
      <trkpt lat="44.17714" lon="3.18826">
        <ele>716.8</ele>
        <time>2022-02-10T10:56:29Z</time>
        <extensions>
          <gpxtpx:TrackPointExtension xmlns:gpxtpx="http://www.garmin.com/xmlschemas/TrackPointExtension/v1">
            <gpxtpx:hr>150</gpxtpx:hr>
          </gpxtpx:TrackPointExtension>
        </extensions>
      </trkpt>
      <trkpt lat="44.17716" lon="3.18826">
        <ele>716.4</ele>
        <time>2022-02-10T10:56:30Z</time>
        <extensions>
          <gpxtpx:TrackPointExtension xmlns:gpxtpx="http://www.garmin.com/xmlschemas/TrackPointExtension/v1">
            <gpxtpx:hr>149</gpxtpx:hr>
          </gpxtpx:TrackPointExtension>
        </extensions>
      </trkpt>
      <trkpt lat="44.17717" lon="3.18826">
        <ele>716.4</ele>
        <time>2022-02-10T10:56:31Z</time>
        <extensions>
          <gpxtpx:TrackPointExtension xmlns:gpxtpx="http://www.garmin.com/xmlschemas/TrackPointExtension/v1">
            <gpxtpx:hr>148</gpxtpx:hr>
          </gpxtpx:TrackPointExtension>
        </extensions>
      </trkpt>
      <trkpt lat="44.17719" lon="3.18827">
        <ele>716.2</ele>
        <time>2022-02-10T10:56:32Z</time>
        <extensions>
          <gpxtpx:TrackPointExtension xmlns:gpxtpx="http://www.garmin.com/xmlschemas/TrackPointExtension/v1">
            <gpxtpx:hr>148</gpxtpx:hr>
          </gpxtpx:TrackPointExtension>
        </extensions>
      </trkpt>
      <trkpt lat="44.17725" lon="3.18827">
        <ele>716.2</ele>
        <time>2022-02-10T10:56:33Z</time>
        <extensions>
          <gpxtpx:TrackPointExtension xmlns:gpxtpx="http://www.garmin.com/xmlschemas/TrackPointExtension/v1">
            <gpxtpx:hr>148</gpxtpx:hr>
          </gpxtpx:TrackPointExtension>
        </extensions>
      </trkpt>
      <trkpt lat="44.17728" lon="3.18827">
        <ele>716</ele>
        <time>2022-02-10T10:56:34Z</time>
        <extensions>
          <gpxtpx:TrackPointExtension xmlns:gpxtpx="http://www.garmin.com/xmlschemas/TrackPointExtension/v1">
            <gpxtpx:hr>150</gpxtpx:hr>
          </gpxtpx:TrackPointExtension>
        </extensions>
      </trkpt>
      <trkpt lat="44.1773" lon="3.18828">
        <ele>716</ele>
        <time>2022-02-10T10:56:35Z</time>
        <extensions>
          <gpxtpx:TrackPointExtension xmlns:gpxtpx="http://www.garmin.com/xmlschemas/TrackPointExtension/v1">
            <gpxtpx:hr>150</gpxtpx:hr>
          </gpxtpx:TrackPointExtension>
        </extensions>
      </trkpt>
      <trkpt lat="44.17732" lon="3.18828">
        <ele>715.8</ele>
        <time>2022-02-10T10:56:36Z</time>
        <extensions>
          <gpxtpx:TrackPointExtension xmlns:gpxtpx="http://www.garmin.com/xmlschemas/TrackPointExtension/v1">
            <gpxtpx:hr>152</gpxtpx:hr>
          </gpxtpx:TrackPointExtension>
        </extensions>
      </trkpt>
      <trkpt lat="44.17734" lon="3.18829">
        <ele>715.8</ele>
        <time>2022-02-10T10:56:37Z</time>
        <extensions>
          <gpxtpx:TrackPointExtension xmlns:gpxtpx="http://www.garmin.com/xmlschemas/TrackPointExtension/v1">
            <gpxtpx:hr>150</gpxtpx:hr>
          </gpxtpx:TrackPointExtension>
        </extensions>
      </trkpt>
      <trkpt lat="44.17736" lon="3.18829">
        <ele>715.4</ele>
        <time>2022-02-10T10:56:38Z</time>
        <extensions>
          <gpxtpx:TrackPointExtension xmlns:gpxtpx="http://www.garmin.com/xmlschemas/TrackPointExtension/v1">
            <gpxtpx:hr>149</gpxtpx:hr>
          </gpxtpx:TrackPointExtension>
        </extensions>
      </trkpt>
      <trkpt lat="44.17739" lon="3.18828">
        <ele>715.4</ele>
        <time>2022-02-10T10:56:39Z</time>
        <extensions>
          <gpxtpx:TrackPointExtension xmlns:gpxtpx="http://www.garmin.com/xmlschemas/TrackPointExtension/v1">
            <gpxtpx:hr>149</gpxtpx:hr>
          </gpxtpx:TrackPointExtension>
        </extensions>
      </trkpt>
      <trkpt lat="44.17741" lon="3.18828">
        <ele>715.2</ele>
        <time>2022-02-10T10:56:40Z</time>
        <extensions>
          <gpxtpx:TrackPointExtension xmlns:gpxtpx="http://www.garmin.com/xmlschemas/TrackPointExtension/v1">
            <gpxtpx:hr>149</gpxtpx:hr>
          </gpxtpx:TrackPointExtension>
        </extensions>
      </trkpt>
      <trkpt lat="44.17744" lon="3.18827">
        <ele>715.2</ele>
        <time>2022-02-10T10:56:41Z</time>
        <extensions>
          <gpxtpx:TrackPointExtension xmlns:gpxtpx="http://www.garmin.com/xmlschemas/TrackPointExtension/v1">
            <gpxtpx:hr>148</gpxtpx:hr>
          </gpxtpx:TrackPointExtension>
        </extensions>
      </trkpt>
      <trkpt lat="44.17776" lon="3.18817">
        <ele>705.8</ele>
      </trkpt>
      <trkpt lat="44.1779" lon="3.18813">
        <ele>703.5</ele>
      </trkpt>
      <trkpt lat="44.17807" lon="3.18801">
        <ele>701.1</ele>
      </trkpt>
      <trkpt lat="44.17823" lon="3.18785">
        <ele>699.5</ele>
      </trkpt>
      <trkpt lat="44.17837" lon="3.18776">
        <ele>697.7</ele>
      </trkpt>
      <trkpt lat="44.17852" lon="3.18766">
        <ele>696.3</ele>
      </trkpt>
      <trkpt lat="44.17861" lon="3.18759">
        <ele>695.4</ele>
      </trkpt>
      <trkpt lat="44.17868" lon="3.18741">
        <ele>696.7</ele>
      </trkpt>
      <trkpt lat="44.17869" lon="3.18734">
        <ele>697.3</ele>
      </trkpt>
      <trkpt lat="44.1787" lon="3.18728">
        <ele>708.6</ele>
        <time>2022-02-10T11:00:21Z</time>
        <extensions>
          <gpxtpx:TrackPointExtension xmlns:gpxtpx="http://www.garmin.com/xmlschemas/TrackPointExtension/v1">
            <gpxtpx:hr>130</gpxtpx:hr>
          </gpxtpx:TrackPointExtension>
        </extensions>
      </trkpt>
      <trkpt lat="44.17871" lon="3.18724">
        <ele>708.2</ele>
        <time>2022-02-10T11:00:23Z</time>
        <extensions>
          <gpxtpx:TrackPointExtension xmlns:gpxtpx="http://www.garmin.com/xmlschemas/TrackPointExtension/v1">
            <gpxtpx:hr>134</gpxtpx:hr>
          </gpxtpx:TrackPointExtension>
        </extensions>
      </trkpt>
      <trkpt lat="44.17871" lon="3.1872">
        <ele>708</ele>
        <time>2022-02-10T11:00:25Z</time>
        <extensions>
          <gpxtpx:TrackPointExtension xmlns:gpxtpx="http://www.garmin.com/xmlschemas/TrackPointExtension/v1">
            <gpxtpx:hr>135</gpxtpx:hr>
          </gpxtpx:TrackPointExtension>
        </extensions>
      </trkpt>
      <trkpt lat="44.1787" lon="3.18713">
        <ele>708</ele>
        <time>2022-02-10T11:00:27Z</time>
        <extensions>
          <gpxtpx:TrackPointExtension xmlns:gpxtpx="http://www.garmin.com/xmlschemas/TrackPointExtension/v1">
            <gpxtpx:hr>134</gpxtpx:hr>
          </gpxtpx:TrackPointExtension>
        </extensions>
      </trkpt>
      <trkpt lat="44.17869" lon="3.18705">
        <ele>708</ele>
        <time>2022-02-10T11:00:29Z</time>
        <extensions>
          <gpxtpx:TrackPointExtension xmlns:gpxtpx="http://www.garmin.com/xmlschemas/TrackPointExtension/v1">
            <gpxtpx:hr>137</gpxtpx:hr>
          </gpxtpx:TrackPointExtension>
        </extensions>
      </trkpt>
      <trkpt lat="44.17869" lon="3.18701">
        <ele>708</ele>
        <time>2022-02-10T11:00:30Z</time>
        <extensions>
          <gpxtpx:TrackPointExtension xmlns:gpxtpx="http://www.garmin.com/xmlschemas/TrackPointExtension/v1">
            <gpxtpx:hr>137</gpxtpx:hr>
          </gpxtpx:TrackPointExtension>
        </extensions>
      </trkpt>
      <trkpt lat="44.17869" lon="3.18696">
        <ele>708</ele>
        <time>2022-02-10T11:00:31Z</time>
        <extensions>
          <gpxtpx:TrackPointExtension xmlns:gpxtpx="http://www.garmin.com/xmlschemas/TrackPointExtension/v1">
            <gpxtpx:hr>137</gpxtpx:hr>
          </gpxtpx:TrackPointExtension>
        </extensions>
      </trkpt>
      <trkpt lat="44.17868" lon="3.18689">
        <ele>708</ele>
        <time>2022-02-10T11:00:33Z</time>
        <extensions>
          <gpxtpx:TrackPointExtension xmlns:gpxtpx="http://www.garmin.com/xmlschemas/TrackPointExtension/v1">
            <gpxtpx:hr>137</gpxtpx:hr>
          </gpxtpx:TrackPointExtension>
        </extensions>
      </trkpt>
      <trkpt lat="44.17867" lon="3.18685">
        <ele>708</ele>
        <time>2022-02-10T11:00:34Z</time>
        <extensions>
          <gpxtpx:TrackPointExtension xmlns:gpxtpx="http://www.garmin.com/xmlschemas/TrackPointExtension/v1">
            <gpxtpx:hr>137</gpxtpx:hr>
          </gpxtpx:TrackPointExtension>
        </extensions>
      </trkpt>
      <trkpt lat="44.17867" lon="3.18682">
        <ele>708</ele>
        <time>2022-02-10T11:00:35Z</time>
        <extensions>
          <gpxtpx:TrackPointExtension xmlns:gpxtpx="http://www.garmin.com/xmlschemas/TrackPointExtension/v1">
            <gpxtpx:hr>138</gpxtpx:hr>
          </gpxtpx:TrackPointExtension>
        </extensions>
      </trkpt>
      <trkpt lat="44.17865" lon="3.18679">
        <ele>708</ele>
        <time>2022-02-10T11:00:36Z</time>
        <extensions>
          <gpxtpx:TrackPointExtension xmlns:gpxtpx="http://www.garmin.com/xmlschemas/TrackPointExtension/v1">
            <gpxtpx:hr>138</gpxtpx:hr>
          </gpxtpx:TrackPointExtension>
        </extensions>
      </trkpt>
      <trkpt lat="44.17865" lon="3.18676">
        <ele>708</ele>
        <time>2022-02-10T11:00:37Z</time>
        <extensions>
          <gpxtpx:TrackPointExtension xmlns:gpxtpx="http://www.garmin.com/xmlschemas/TrackPointExtension/v1">
            <gpxtpx:hr>139</gpxtpx:hr>
          </gpxtpx:TrackPointExtension>
        </extensions>
      </trkpt>
      <trkpt lat="44.17862" lon="3.1867">
        <ele>708.2</ele>
        <time>2022-02-10T11:00:39Z</time>
        <extensions>
          <gpxtpx:TrackPointExtension xmlns:gpxtpx="http://www.garmin.com/xmlschemas/TrackPointExtension/v1">
            <gpxtpx:hr>138</gpxtpx:hr>
          </gpxtpx:TrackPointExtension>
        </extensions>
      </trkpt>
      <trkpt lat="44.17861" lon="3.18668">
        <ele>708.2</ele>
        <time>2022-02-10T11:00:40Z</time>
        <extensions>
          <gpxtpx:TrackPointExtension xmlns:gpxtpx="http://www.garmin.com/xmlschemas/TrackPointExtension/v1">
            <gpxtpx:hr>138</gpxtpx:hr>
          </gpxtpx:TrackPointExtension>
        </extensions>
      </trkpt>
      <trkpt lat="44.17861" lon="3.18665">
        <ele>708.2</ele>
        <time>2022-02-10T11:00:41Z</time>
        <extensions>
          <gpxtpx:TrackPointExtension xmlns:gpxtpx="http://www.garmin.com/xmlschemas/TrackPointExtension/v1">
            <gpxtpx:hr>139</gpxtpx:hr>
          </gpxtpx:TrackPointExtension>
        </extensions>
      </trkpt>
      <trkpt lat="44.1786" lon="3.18663">
        <ele>708.2</ele>
        <time>2022-02-10T11:00:42Z</time>
        <extensions>
          <gpxtpx:TrackPointExtension xmlns:gpxtpx="http://www.garmin.com/xmlschemas/TrackPointExtension/v1">
            <gpxtpx:hr>140</gpxtpx:hr>
          </gpxtpx:TrackPointExtension>
        </extensions>
      </trkpt>
      <trkpt lat="44.17859" lon="3.18661">
        <ele>708.2</ele>
        <time>2022-02-10T11:00:43Z</time>
        <extensions>
          <gpxtpx:TrackPointExtension xmlns:gpxtpx="http://www.garmin.com/xmlschemas/TrackPointExtension/v1">
            <gpxtpx:hr>140</gpxtpx:hr>
          </gpxtpx:TrackPointExtension>
        </extensions>
      </trkpt>
      <trkpt lat="44.17858" lon="3.18658">
        <ele>708.2</ele>
        <time>2022-02-10T11:00:44Z</time>
        <extensions>
          <gpxtpx:TrackPointExtension xmlns:gpxtpx="http://www.garmin.com/xmlschemas/TrackPointExtension/v1">
            <gpxtpx:hr>140</gpxtpx:hr>
          </gpxtpx:TrackPointExtension>
        </extensions>
      </trkpt>
      <trkpt lat="44.17857" lon="3.18655">
        <ele>708.2</ele>
        <time>2022-02-10T11:00:45Z</time>
        <extensions>
          <gpxtpx:TrackPointExtension xmlns:gpxtpx="http://www.garmin.com/xmlschemas/TrackPointExtension/v1">
            <gpxtpx:hr>141</gpxtpx:hr>
          </gpxtpx:TrackPointExtension>
        </extensions>
      </trkpt>
      <trkpt lat="44.17856" lon="3.1865">
        <ele>708.2</ele>
        <time>2022-02-10T11:00:47Z</time>
        <extensions>
          <gpxtpx:TrackPointExtension xmlns:gpxtpx="http://www.garmin.com/xmlschemas/TrackPointExtension/v1">
            <gpxtpx:hr>140</gpxtpx:hr>
          </gpxtpx:TrackPointExtension>
        </extensions>
      </trkpt>
      <trkpt lat="44.17856" lon="3.18644">
        <ele>708.2</ele>
        <time>2022-02-10T11:00:49Z</time>
        <extensions>
          <gpxtpx:TrackPointExtension xmlns:gpxtpx="http://www.garmin.com/xmlschemas/TrackPointExtension/v1">
            <gpxtpx:hr>141</gpxtpx:hr>
          </gpxtpx:TrackPointExtension>
        </extensions>
      </trkpt>
      <trkpt lat="44.17857" lon="3.18638">
        <ele>708.2</ele>
        <time>2022-02-10T11:00:51Z</time>
        <extensions>
          <gpxtpx:TrackPointExtension xmlns:gpxtpx="http://www.garmin.com/xmlschemas/TrackPointExtension/v1">
            <gpxtpx:hr>142</gpxtpx:hr>
          </gpxtpx:TrackPointExtension>
        </extensions>
      </trkpt>
      <trkpt lat="44.17859" lon="3.18632">
        <ele>708.2</ele>
        <time>2022-02-10T11:00:53Z</time>
        <extensions>
          <gpxtpx:TrackPointExtension xmlns:gpxtpx="http://www.garmin.com/xmlschemas/TrackPointExtension/v1">
            <gpxtpx:hr>144</gpxtpx:hr>
          </gpxtpx:TrackPointExtension>
        </extensions>
      </trkpt>
      <trkpt lat="44.17859" lon="3.18629">
        <ele>708.2</ele>
        <time>2022-02-10T11:00:54Z</time>
        <extensions>
          <gpxtpx:TrackPointExtension xmlns:gpxtpx="http://www.garmin.com/xmlschemas/TrackPointExtension/v1">
            <gpxtpx:hr>144</gpxtpx:hr>
          </gpxtpx:TrackPointExtension>
        </extensions>
      </trkpt>
      <trkpt lat="44.1786" lon="3.18627">
        <ele>708.2</ele>
        <time>2022-02-10T11:00:55Z</time>
        <extensions>
          <gpxtpx:TrackPointExtension xmlns:gpxtpx="http://www.garmin.com/xmlschemas/TrackPointExtension/v1">
            <gpxtpx:hr>145</gpxtpx:hr>
          </gpxtpx:TrackPointExtension>
        </extensions>
      </trkpt>
      <trkpt lat="44.17861" lon="3.18624">
        <ele>708.2</ele>
        <time>2022-02-10T11:00:56Z</time>
        <extensions>
          <gpxtpx:TrackPointExtension xmlns:gpxtpx="http://www.garmin.com/xmlschemas/TrackPointExtension/v1">
            <gpxtpx:hr>145</gpxtpx:hr>
          </gpxtpx:TrackPointExtension>
        </extensions>
      </trkpt>
      <trkpt lat="44.17863" lon="3.18621">
        <ele>708.2</ele>
        <time>2022-02-10T11:00:58Z</time>
        <extensions>
          <gpxtpx:TrackPointExtension xmlns:gpxtpx="http://www.garmin.com/xmlschemas/TrackPointExtension/v1">
            <gpxtpx:hr>148</gpxtpx:hr>
          </gpxtpx:TrackPointExtension>
        </extensions>
      </trkpt>
      <trkpt lat="44.17865" lon="3.1862">
        <ele>708.2</ele>
        <time>2022-02-10T11:00:59Z</time>
        <extensions>
          <gpxtpx:TrackPointExtension xmlns:gpxtpx="http://www.garmin.com/xmlschemas/TrackPointExtension/v1">
            <gpxtpx:hr>149</gpxtpx:hr>
          </gpxtpx:TrackPointExtension>
        </extensions>
      </trkpt>
      <trkpt lat="44.17867" lon="3.1862">
        <ele>708.2</ele>
        <time>2022-02-10T11:01:00Z</time>
        <extensions>
          <gpxtpx:TrackPointExtension xmlns:gpxtpx="http://www.garmin.com/xmlschemas/TrackPointExtension/v1">
            <gpxtpx:hr>149</gpxtpx:hr>
          </gpxtpx:TrackPointExtension>
        </extensions>
      </trkpt>
      <trkpt lat="44.17869" lon="3.1862">
        <ele>708.2</ele>
        <time>2022-02-10T11:01:01Z</time>
        <extensions>
          <gpxtpx:TrackPointExtension xmlns:gpxtpx="http://www.garmin.com/xmlschemas/TrackPointExtension/v1">
            <gpxtpx:hr>149</gpxtpx:hr>
          </gpxtpx:TrackPointExtension>
        </extensions>
      </trkpt>
      <trkpt lat="44.17872" lon="3.1862">
        <ele>708.2</ele>
        <time>2022-02-10T11:01:02Z</time>
        <extensions>
          <gpxtpx:TrackPointExtension xmlns:gpxtpx="http://www.garmin.com/xmlschemas/TrackPointExtension/v1">
            <gpxtpx:hr>149</gpxtpx:hr>
          </gpxtpx:TrackPointExtension>
        </extensions>
      </trkpt>
      <trkpt lat="44.17875" lon="3.18621">
        <ele>708.4</ele>
        <time>2022-02-10T11:01:03Z</time>
        <extensions>
          <gpxtpx:TrackPointExtension xmlns:gpxtpx="http://www.garmin.com/xmlschemas/TrackPointExtension/v1">
            <gpxtpx:hr>150</gpxtpx:hr>
          </gpxtpx:TrackPointExtension>
        </extensions>
      </trkpt>
      <trkpt lat="44.17879" lon="3.18623">
        <ele>708.8</ele>
        <time>2022-02-10T11:01:05Z</time>
        <extensions>
          <gpxtpx:TrackPointExtension xmlns:gpxtpx="http://www.garmin.com/xmlschemas/TrackPointExtension/v1">
            <gpxtpx:hr>148</gpxtpx:hr>
          </gpxtpx:TrackPointExtension>
        </extensions>
      </trkpt>
      <trkpt lat="44.17883" lon="3.18626">
        <ele>709</ele>
        <time>2022-02-10T11:01:07Z</time>
        <extensions>
          <gpxtpx:TrackPointExtension xmlns:gpxtpx="http://www.garmin.com/xmlschemas/TrackPointExtension/v1">
            <gpxtpx:hr>146</gpxtpx:hr>
          </gpxtpx:TrackPointExtension>
        </extensions>
      </trkpt>
      <trkpt lat="44.17887" lon="3.18628">
        <ele>709.4</ele>
        <time>2022-02-10T11:01:09Z</time>
        <extensions>
          <gpxtpx:TrackPointExtension xmlns:gpxtpx="http://www.garmin.com/xmlschemas/TrackPointExtension/v1">
            <gpxtpx:hr>148</gpxtpx:hr>
          </gpxtpx:TrackPointExtension>
        </extensions>
      </trkpt>
      <trkpt lat="44.17889" lon="3.1863">
        <ele>709.4</ele>
        <time>2022-02-10T11:01:10Z</time>
        <extensions>
          <gpxtpx:TrackPointExtension xmlns:gpxtpx="http://www.garmin.com/xmlschemas/TrackPointExtension/v1">
            <gpxtpx:hr>147</gpxtpx:hr>
          </gpxtpx:TrackPointExtension>
        </extensions>
      </trkpt>
      <trkpt lat="44.17891" lon="3.18632">
        <ele>709.8</ele>
        <time>2022-02-10T11:01:11Z</time>
        <extensions>
          <gpxtpx:TrackPointExtension xmlns:gpxtpx="http://www.garmin.com/xmlschemas/TrackPointExtension/v1">
            <gpxtpx:hr>147</gpxtpx:hr>
          </gpxtpx:TrackPointExtension>
        </extensions>
      </trkpt>
      <trkpt lat="44.17892" lon="3.18634">
        <ele>710</ele>
        <time>2022-02-10T11:01:12Z</time>
        <extensions>
          <gpxtpx:TrackPointExtension xmlns:gpxtpx="http://www.garmin.com/xmlschemas/TrackPointExtension/v1">
            <gpxtpx:hr>148</gpxtpx:hr>
          </gpxtpx:TrackPointExtension>
        </extensions>
      </trkpt>
      <trkpt lat="44.17894" lon="3.18636">
        <ele>710.2</ele>
        <time>2022-02-10T11:01:13Z</time>
        <extensions>
          <gpxtpx:TrackPointExtension xmlns:gpxtpx="http://www.garmin.com/xmlschemas/TrackPointExtension/v1">
            <gpxtpx:hr>149</gpxtpx:hr>
          </gpxtpx:TrackPointExtension>
        </extensions>
      </trkpt>
      <trkpt lat="44.17895" lon="3.18638">
        <ele>710.2</ele>
        <time>2022-02-10T11:01:14Z</time>
        <extensions>
          <gpxtpx:TrackPointExtension xmlns:gpxtpx="http://www.garmin.com/xmlschemas/TrackPointExtension/v1">
            <gpxtpx:hr>150</gpxtpx:hr>
          </gpxtpx:TrackPointExtension>
        </extensions>
      </trkpt>
      <trkpt lat="44.17898" lon="3.18643">
        <ele>710.8</ele>
        <time>2022-02-10T11:01:16Z</time>
        <extensions>
          <gpxtpx:TrackPointExtension xmlns:gpxtpx="http://www.garmin.com/xmlschemas/TrackPointExtension/v1">
            <gpxtpx:hr>149</gpxtpx:hr>
          </gpxtpx:TrackPointExtension>
        </extensions>
      </trkpt>
      <trkpt lat="44.17902" lon="3.18648">
        <ele>711.4</ele>
        <time>2022-02-10T11:01:19Z</time>
        <extensions>
          <gpxtpx:TrackPointExtension xmlns:gpxtpx="http://www.garmin.com/xmlschemas/TrackPointExtension/v1">
            <gpxtpx:hr>149</gpxtpx:hr>
          </gpxtpx:TrackPointExtension>
        </extensions>
      </trkpt>
      <trkpt lat="44.17904" lon="3.1865">
        <ele>711.8</ele>
        <time>2022-02-10T11:01:20Z</time>
        <extensions>
          <gpxtpx:TrackPointExtension xmlns:gpxtpx="http://www.garmin.com/xmlschemas/TrackPointExtension/v1">
            <gpxtpx:hr>152</gpxtpx:hr>
          </gpxtpx:TrackPointExtension>
        </extensions>
      </trkpt>
      <trkpt lat="44.17909" lon="3.18652">
        <ele>712.4</ele>
        <time>2022-02-10T11:01:23Z</time>
        <extensions>
          <gpxtpx:TrackPointExtension xmlns:gpxtpx="http://www.garmin.com/xmlschemas/TrackPointExtension/v1">
            <gpxtpx:hr>155</gpxtpx:hr>
          </gpxtpx:TrackPointExtension>
        </extensions>
      </trkpt>
      <trkpt lat="44.17911" lon="3.18652">
        <ele>712.8</ele>
        <time>2022-02-10T11:01:24Z</time>
        <extensions>
          <gpxtpx:TrackPointExtension xmlns:gpxtpx="http://www.garmin.com/xmlschemas/TrackPointExtension/v1">
            <gpxtpx:hr>156</gpxtpx:hr>
          </gpxtpx:TrackPointExtension>
        </extensions>
      </trkpt>
      <trkpt lat="44.17915" lon="3.18653">
        <ele>713.4</ele>
        <time>2022-02-10T11:01:26Z</time>
        <extensions>
          <gpxtpx:TrackPointExtension xmlns:gpxtpx="http://www.garmin.com/xmlschemas/TrackPointExtension/v1">
            <gpxtpx:hr>158</gpxtpx:hr>
          </gpxtpx:TrackPointExtension>
        </extensions>
      </trkpt>
      <trkpt lat="44.17919" lon="3.18652">
        <ele>713.6</ele>
        <time>2022-02-10T11:01:28Z</time>
        <extensions>
          <gpxtpx:TrackPointExtension xmlns:gpxtpx="http://www.garmin.com/xmlschemas/TrackPointExtension/v1">
            <gpxtpx:hr>158</gpxtpx:hr>
          </gpxtpx:TrackPointExtension>
        </extensions>
      </trkpt>
      <trkpt lat="44.17923" lon="3.18652">
        <ele>714</ele>
        <time>2022-02-10T11:01:30Z</time>
        <extensions>
          <gpxtpx:TrackPointExtension xmlns:gpxtpx="http://www.garmin.com/xmlschemas/TrackPointExtension/v1">
            <gpxtpx:hr>158</gpxtpx:hr>
          </gpxtpx:TrackPointExtension>
        </extensions>
      </trkpt>
      <trkpt lat="44.17927" lon="3.18651">
        <ele>714.4</ele>
        <time>2022-02-10T11:01:32Z</time>
        <extensions>
          <gpxtpx:TrackPointExtension xmlns:gpxtpx="http://www.garmin.com/xmlschemas/TrackPointExtension/v1">
            <gpxtpx:hr>160</gpxtpx:hr>
          </gpxtpx:TrackPointExtension>
        </extensions>
      </trkpt>
      <trkpt lat="44.17931" lon="3.1865">
        <ele>714.6</ele>
        <time>2022-02-10T11:01:34Z</time>
        <extensions>
          <gpxtpx:TrackPointExtension xmlns:gpxtpx="http://www.garmin.com/xmlschemas/TrackPointExtension/v1">
            <gpxtpx:hr>160</gpxtpx:hr>
          </gpxtpx:TrackPointExtension>
        </extensions>
      </trkpt>
      <trkpt lat="44.17933" lon="3.1865">
        <ele>714.6</ele>
        <time>2022-02-10T11:01:35Z</time>
        <extensions>
          <gpxtpx:TrackPointExtension xmlns:gpxtpx="http://www.garmin.com/xmlschemas/TrackPointExtension/v1">
            <gpxtpx:hr>161</gpxtpx:hr>
          </gpxtpx:TrackPointExtension>
        </extensions>
      </trkpt>
      <trkpt lat="44.17934" lon="3.1865">
        <ele>715</ele>
        <time>2022-02-10T11:01:36Z</time>
        <extensions>
          <gpxtpx:TrackPointExtension xmlns:gpxtpx="http://www.garmin.com/xmlschemas/TrackPointExtension/v1">
            <gpxtpx:hr>160</gpxtpx:hr>
          </gpxtpx:TrackPointExtension>
        </extensions>
      </trkpt>
      <trkpt lat="44.17938" lon="3.18649">
        <ele>715.4</ele>
        <time>2022-02-10T11:01:38Z</time>
        <extensions>
          <gpxtpx:TrackPointExtension xmlns:gpxtpx="http://www.garmin.com/xmlschemas/TrackPointExtension/v1">
            <gpxtpx:hr>160</gpxtpx:hr>
          </gpxtpx:TrackPointExtension>
        </extensions>
      </trkpt>
      <trkpt lat="44.1794" lon="3.18649">
        <ele>715.4</ele>
        <time>2022-02-10T11:01:39Z</time>
        <extensions>
          <gpxtpx:TrackPointExtension xmlns:gpxtpx="http://www.garmin.com/xmlschemas/TrackPointExtension/v1">
            <gpxtpx:hr>161</gpxtpx:hr>
          </gpxtpx:TrackPointExtension>
        </extensions>
      </trkpt>
      <trkpt lat="44.17942" lon="3.18648">
        <ele>715.4</ele>
        <time>2022-02-10T11:01:40Z</time>
        <extensions>
          <gpxtpx:TrackPointExtension xmlns:gpxtpx="http://www.garmin.com/xmlschemas/TrackPointExtension/v1">
            <gpxtpx:hr>161</gpxtpx:hr>
          </gpxtpx:TrackPointExtension>
        </extensions>
      </trkpt>
      <trkpt lat="44.17948" lon="3.18647">
        <ele>716.2</ele>
        <time>2022-02-10T11:01:43Z</time>
        <extensions>
          <gpxtpx:TrackPointExtension xmlns:gpxtpx="http://www.garmin.com/xmlschemas/TrackPointExtension/v1">
            <gpxtpx:hr>162</gpxtpx:hr>
          </gpxtpx:TrackPointExtension>
        </extensions>
      </trkpt>
      <trkpt lat="44.17951" lon="3.18646">
        <ele>716.6</ele>
        <time>2022-02-10T11:01:45Z</time>
        <extensions>
          <gpxtpx:TrackPointExtension xmlns:gpxtpx="http://www.garmin.com/xmlschemas/TrackPointExtension/v1">
            <gpxtpx:hr>162</gpxtpx:hr>
          </gpxtpx:TrackPointExtension>
        </extensions>
      </trkpt>
      <trkpt lat="44.17954" lon="3.18646">
        <ele>717</ele>
        <time>2022-02-10T11:01:47Z</time>
        <extensions>
          <gpxtpx:TrackPointExtension xmlns:gpxtpx="http://www.garmin.com/xmlschemas/TrackPointExtension/v1">
            <gpxtpx:hr>161</gpxtpx:hr>
          </gpxtpx:TrackPointExtension>
        </extensions>
      </trkpt>
      <trkpt lat="44.17957" lon="3.18645">
        <ele>717.4</ele>
        <time>2022-02-10T11:01:49Z</time>
        <extensions>
          <gpxtpx:TrackPointExtension xmlns:gpxtpx="http://www.garmin.com/xmlschemas/TrackPointExtension/v1">
            <gpxtpx:hr>162</gpxtpx:hr>
          </gpxtpx:TrackPointExtension>
        </extensions>
      </trkpt>
      <trkpt lat="44.17963" lon="3.18644">
        <ele>718</ele>
        <time>2022-02-10T11:01:52Z</time>
        <extensions>
          <gpxtpx:TrackPointExtension xmlns:gpxtpx="http://www.garmin.com/xmlschemas/TrackPointExtension/v1">
            <gpxtpx:hr>163</gpxtpx:hr>
          </gpxtpx:TrackPointExtension>
        </extensions>
      </trkpt>
      <trkpt lat="44.17966" lon="3.18644">
        <ele>718.6</ele>
        <time>2022-02-10T11:01:54Z</time>
        <extensions>
          <gpxtpx:TrackPointExtension xmlns:gpxtpx="http://www.garmin.com/xmlschemas/TrackPointExtension/v1">
            <gpxtpx:hr>164</gpxtpx:hr>
          </gpxtpx:TrackPointExtension>
        </extensions>
      </trkpt>
      <trkpt lat="44.17968" lon="3.18644">
        <ele>718.6</ele>
        <time>2022-02-10T11:01:55Z</time>
        <extensions>
          <gpxtpx:TrackPointExtension xmlns:gpxtpx="http://www.garmin.com/xmlschemas/TrackPointExtension/v1">
            <gpxtpx:hr>163</gpxtpx:hr>
          </gpxtpx:TrackPointExtension>
        </extensions>
      </trkpt>
      <trkpt lat="44.17972" lon="3.18644">
        <ele>719</ele>
        <time>2022-02-10T11:01:57Z</time>
        <extensions>
          <gpxtpx:TrackPointExtension xmlns:gpxtpx="http://www.garmin.com/xmlschemas/TrackPointExtension/v1">
            <gpxtpx:hr>162</gpxtpx:hr>
          </gpxtpx:TrackPointExtension>
        </extensions>
      </trkpt>
      <trkpt lat="44.17975" lon="3.18644">
        <ele>719.4</ele>
        <time>2022-02-10T11:01:59Z</time>
        <extensions>
          <gpxtpx:TrackPointExtension xmlns:gpxtpx="http://www.garmin.com/xmlschemas/TrackPointExtension/v1">
            <gpxtpx:hr>163</gpxtpx:hr>
          </gpxtpx:TrackPointExtension>
        </extensions>
      </trkpt>
      <trkpt lat="44.17977" lon="3.18643">
        <ele>719.6</ele>
        <time>2022-02-10T11:02:00Z</time>
        <extensions>
          <gpxtpx:TrackPointExtension xmlns:gpxtpx="http://www.garmin.com/xmlschemas/TrackPointExtension/v1">
            <gpxtpx:hr>163</gpxtpx:hr>
          </gpxtpx:TrackPointExtension>
        </extensions>
      </trkpt>
      <trkpt lat="44.17981" lon="3.18643">
        <ele>720</ele>
        <time>2022-02-10T11:02:02Z</time>
        <extensions>
          <gpxtpx:TrackPointExtension xmlns:gpxtpx="http://www.garmin.com/xmlschemas/TrackPointExtension/v1">
            <gpxtpx:hr>164</gpxtpx:hr>
          </gpxtpx:TrackPointExtension>
        </extensions>
      </trkpt>
      <trkpt lat="44.17982" lon="3.18643">
        <ele>720</ele>
        <time>2022-02-10T11:02:03Z</time>
        <extensions>
          <gpxtpx:TrackPointExtension xmlns:gpxtpx="http://www.garmin.com/xmlschemas/TrackPointExtension/v1">
            <gpxtpx:hr>164</gpxtpx:hr>
          </gpxtpx:TrackPointExtension>
        </extensions>
      </trkpt>
      <trkpt lat="44.17988" lon="3.18642">
        <ele>720.2</ele>
        <time>2022-02-10T11:02:06Z</time>
        <extensions>
          <gpxtpx:TrackPointExtension xmlns:gpxtpx="http://www.garmin.com/xmlschemas/TrackPointExtension/v1">
            <gpxtpx:hr>164</gpxtpx:hr>
          </gpxtpx:TrackPointExtension>
        </extensions>
      </trkpt>
      <trkpt lat="44.1799" lon="3.18642">
        <ele>720.6</ele>
        <time>2022-02-10T11:02:07Z</time>
        <extensions>
          <gpxtpx:TrackPointExtension xmlns:gpxtpx="http://www.garmin.com/xmlschemas/TrackPointExtension/v1">
            <gpxtpx:hr>163</gpxtpx:hr>
          </gpxtpx:TrackPointExtension>
        </extensions>
      </trkpt>
      <trkpt lat="44.17993" lon="3.18641">
        <ele>720.8</ele>
        <time>2022-02-10T11:02:09Z</time>
        <extensions>
          <gpxtpx:TrackPointExtension xmlns:gpxtpx="http://www.garmin.com/xmlschemas/TrackPointExtension/v1">
            <gpxtpx:hr>163</gpxtpx:hr>
          </gpxtpx:TrackPointExtension>
        </extensions>
      </trkpt>
      <trkpt lat="44.17997" lon="3.18641">
        <ele>721.2</ele>
        <time>2022-02-10T11:02:11Z</time>
        <extensions>
          <gpxtpx:TrackPointExtension xmlns:gpxtpx="http://www.garmin.com/xmlschemas/TrackPointExtension/v1">
            <gpxtpx:hr>164</gpxtpx:hr>
          </gpxtpx:TrackPointExtension>
        </extensions>
      </trkpt>
      <trkpt lat="44.18" lon="3.1864">
        <ele>721.4</ele>
        <time>2022-02-10T11:02:13Z</time>
        <extensions>
          <gpxtpx:TrackPointExtension xmlns:gpxtpx="http://www.garmin.com/xmlschemas/TrackPointExtension/v1">
            <gpxtpx:hr>165</gpxtpx:hr>
          </gpxtpx:TrackPointExtension>
        </extensions>
      </trkpt>
      <trkpt lat="44.18004" lon="3.1864">
        <ele>721.8</ele>
        <time>2022-02-10T11:02:15Z</time>
        <extensions>
          <gpxtpx:TrackPointExtension xmlns:gpxtpx="http://www.garmin.com/xmlschemas/TrackPointExtension/v1">
            <gpxtpx:hr>166</gpxtpx:hr>
          </gpxtpx:TrackPointExtension>
        </extensions>
      </trkpt>
      <trkpt lat="44.18006" lon="3.1864">
        <ele>722.2</ele>
        <time>2022-02-10T11:02:17Z</time>
        <extensions>
          <gpxtpx:TrackPointExtension xmlns:gpxtpx="http://www.garmin.com/xmlschemas/TrackPointExtension/v1">
            <gpxtpx:hr>165</gpxtpx:hr>
          </gpxtpx:TrackPointExtension>
        </extensions>
      </trkpt>
      <trkpt lat="44.18012" lon="3.1864">
        <ele>722.8</ele>
        <time>2022-02-10T11:02:20Z</time>
        <extensions>
          <gpxtpx:TrackPointExtension xmlns:gpxtpx="http://www.garmin.com/xmlschemas/TrackPointExtension/v1">
            <gpxtpx:hr>165</gpxtpx:hr>
          </gpxtpx:TrackPointExtension>
        </extensions>
      </trkpt>
      <trkpt lat="44.18013" lon="3.1864">
        <ele>722.8</ele>
        <time>2022-02-10T11:02:21Z</time>
        <extensions>
          <gpxtpx:TrackPointExtension xmlns:gpxtpx="http://www.garmin.com/xmlschemas/TrackPointExtension/v1">
            <gpxtpx:hr>164</gpxtpx:hr>
          </gpxtpx:TrackPointExtension>
        </extensions>
      </trkpt>
      <trkpt lat="44.18016" lon="3.18639">
        <ele>723</ele>
        <time>2022-02-10T11:02:23Z</time>
        <extensions>
          <gpxtpx:TrackPointExtension xmlns:gpxtpx="http://www.garmin.com/xmlschemas/TrackPointExtension/v1">
            <gpxtpx:hr>164</gpxtpx:hr>
          </gpxtpx:TrackPointExtension>
        </extensions>
      </trkpt>
      <trkpt lat="44.18022" lon="3.18639">
        <ele>723.4</ele>
        <time>2022-02-10T11:02:26Z</time>
        <extensions>
          <gpxtpx:TrackPointExtension xmlns:gpxtpx="http://www.garmin.com/xmlschemas/TrackPointExtension/v1">
            <gpxtpx:hr>164</gpxtpx:hr>
          </gpxtpx:TrackPointExtension>
        </extensions>
      </trkpt>
      <trkpt lat="44.18024" lon="3.18639">
        <ele>723.8</ele>
        <time>2022-02-10T11:02:27Z</time>
        <extensions>
          <gpxtpx:TrackPointExtension xmlns:gpxtpx="http://www.garmin.com/xmlschemas/TrackPointExtension/v1">
            <gpxtpx:hr>165</gpxtpx:hr>
          </gpxtpx:TrackPointExtension>
        </extensions>
      </trkpt>
      <trkpt lat="44.18027" lon="3.18639">
        <ele>724</ele>
        <time>2022-02-10T11:02:29Z</time>
        <extensions>
          <gpxtpx:TrackPointExtension xmlns:gpxtpx="http://www.garmin.com/xmlschemas/TrackPointExtension/v1">
            <gpxtpx:hr>166</gpxtpx:hr>
          </gpxtpx:TrackPointExtension>
        </extensions>
      </trkpt>
      <trkpt lat="44.1803" lon="3.18638">
        <ele>724.4</ele>
        <time>2022-02-10T11:02:31Z</time>
        <extensions>
          <gpxtpx:TrackPointExtension xmlns:gpxtpx="http://www.garmin.com/xmlschemas/TrackPointExtension/v1">
            <gpxtpx:hr>166</gpxtpx:hr>
          </gpxtpx:TrackPointExtension>
        </extensions>
      </trkpt>
      <trkpt lat="44.18036" lon="3.18637">
        <ele>725</ele>
        <time>2022-02-10T11:02:34Z</time>
        <extensions>
          <gpxtpx:TrackPointExtension xmlns:gpxtpx="http://www.garmin.com/xmlschemas/TrackPointExtension/v1">
            <gpxtpx:hr>165</gpxtpx:hr>
          </gpxtpx:TrackPointExtension>
        </extensions>
      </trkpt>
      <trkpt lat="44.18039" lon="3.18636">
        <ele>725.4</ele>
        <time>2022-02-10T11:02:36Z</time>
        <extensions>
          <gpxtpx:TrackPointExtension xmlns:gpxtpx="http://www.garmin.com/xmlschemas/TrackPointExtension/v1">
            <gpxtpx:hr>166</gpxtpx:hr>
          </gpxtpx:TrackPointExtension>
        </extensions>
      </trkpt>
      <trkpt lat="44.18043" lon="3.18636">
        <ele>725.8</ele>
        <time>2022-02-10T11:02:38Z</time>
        <extensions>
          <gpxtpx:TrackPointExtension xmlns:gpxtpx="http://www.garmin.com/xmlschemas/TrackPointExtension/v1">
            <gpxtpx:hr>165</gpxtpx:hr>
          </gpxtpx:TrackPointExtension>
        </extensions>
      </trkpt>
      <trkpt lat="44.18046" lon="3.18635">
        <ele>726</ele>
        <time>2022-02-10T11:02:40Z</time>
        <extensions>
          <gpxtpx:TrackPointExtension xmlns:gpxtpx="http://www.garmin.com/xmlschemas/TrackPointExtension/v1">
            <gpxtpx:hr>165</gpxtpx:hr>
          </gpxtpx:TrackPointExtension>
        </extensions>
      </trkpt>
      <trkpt lat="44.1805" lon="3.18636">
        <ele>726.2</ele>
        <time>2022-02-10T11:02:42Z</time>
        <extensions>
          <gpxtpx:TrackPointExtension xmlns:gpxtpx="http://www.garmin.com/xmlschemas/TrackPointExtension/v1">
            <gpxtpx:hr>165</gpxtpx:hr>
          </gpxtpx:TrackPointExtension>
        </extensions>
      </trkpt>
      <trkpt lat="44.18053" lon="3.18636">
        <ele>726.2</ele>
        <time>2022-02-10T11:02:44Z</time>
        <extensions>
          <gpxtpx:TrackPointExtension xmlns:gpxtpx="http://www.garmin.com/xmlschemas/TrackPointExtension/v1">
            <gpxtpx:hr>166</gpxtpx:hr>
          </gpxtpx:TrackPointExtension>
        </extensions>
      </trkpt>
      <trkpt lat="44.18058" lon="3.18635">
        <ele>726.4</ele>
        <time>2022-02-10T11:02:47Z</time>
        <extensions>
          <gpxtpx:TrackPointExtension xmlns:gpxtpx="http://www.garmin.com/xmlschemas/TrackPointExtension/v1">
            <gpxtpx:hr>166</gpxtpx:hr>
          </gpxtpx:TrackPointExtension>
        </extensions>
      </trkpt>
      <trkpt lat="44.18064" lon="3.18633">
        <ele>726.6</ele>
        <time>2022-02-10T11:02:50Z</time>
        <extensions>
          <gpxtpx:TrackPointExtension xmlns:gpxtpx="http://www.garmin.com/xmlschemas/TrackPointExtension/v1">
            <gpxtpx:hr>167</gpxtpx:hr>
          </gpxtpx:TrackPointExtension>
        </extensions>
      </trkpt>
      <trkpt lat="44.18065" lon="3.18633">
        <ele>726.6</ele>
        <time>2022-02-10T11:02:51Z</time>
        <extensions>
          <gpxtpx:TrackPointExtension xmlns:gpxtpx="http://www.garmin.com/xmlschemas/TrackPointExtension/v1">
            <gpxtpx:hr>167</gpxtpx:hr>
          </gpxtpx:TrackPointExtension>
        </extensions>
      </trkpt>
      <trkpt lat="44.18068" lon="3.18631">
        <ele>727</ele>
        <time>2022-02-10T11:02:53Z</time>
        <extensions>
          <gpxtpx:TrackPointExtension xmlns:gpxtpx="http://www.garmin.com/xmlschemas/TrackPointExtension/v1">
            <gpxtpx:hr>167</gpxtpx:hr>
          </gpxtpx:TrackPointExtension>
        </extensions>
      </trkpt>
      <trkpt lat="44.18073" lon="3.18629">
        <ele>727.6</ele>
        <time>2022-02-10T11:02:56Z</time>
        <extensions>
          <gpxtpx:TrackPointExtension xmlns:gpxtpx="http://www.garmin.com/xmlschemas/TrackPointExtension/v1">
            <gpxtpx:hr>166</gpxtpx:hr>
          </gpxtpx:TrackPointExtension>
        </extensions>
      </trkpt>
      <trkpt lat="44.18076" lon="3.18626">
        <ele>727.8</ele>
        <time>2022-02-10T11:02:58Z</time>
        <extensions>
          <gpxtpx:TrackPointExtension xmlns:gpxtpx="http://www.garmin.com/xmlschemas/TrackPointExtension/v1">
            <gpxtpx:hr>166</gpxtpx:hr>
          </gpxtpx:TrackPointExtension>
        </extensions>
      </trkpt>
      <trkpt lat="44.18078" lon="3.18624">
        <ele>728.2</ele>
        <time>2022-02-10T11:03:00Z</time>
        <extensions>
          <gpxtpx:TrackPointExtension xmlns:gpxtpx="http://www.garmin.com/xmlschemas/TrackPointExtension/v1">
            <gpxtpx:hr>164</gpxtpx:hr>
          </gpxtpx:TrackPointExtension>
        </extensions>
      </trkpt>
      <trkpt lat="44.1808" lon="3.18623">
        <ele>728.2</ele>
        <time>2022-02-10T11:03:01Z</time>
        <extensions>
          <gpxtpx:TrackPointExtension xmlns:gpxtpx="http://www.garmin.com/xmlschemas/TrackPointExtension/v1">
            <gpxtpx:hr>164</gpxtpx:hr>
          </gpxtpx:TrackPointExtension>
        </extensions>
      </trkpt>
      <trkpt lat="44.18083" lon="3.1862">
        <ele>728.6</ele>
        <time>2022-02-10T11:03:03Z</time>
        <extensions>
          <gpxtpx:TrackPointExtension xmlns:gpxtpx="http://www.garmin.com/xmlschemas/TrackPointExtension/v1">
            <gpxtpx:hr>165</gpxtpx:hr>
          </gpxtpx:TrackPointExtension>
        </extensions>
      </trkpt>
      <trkpt lat="44.18085" lon="3.18618">
        <ele>729.4</ele>
        <time>2022-02-10T11:03:05Z</time>
        <extensions>
          <gpxtpx:TrackPointExtension xmlns:gpxtpx="http://www.garmin.com/xmlschemas/TrackPointExtension/v1">
            <gpxtpx:hr>165</gpxtpx:hr>
          </gpxtpx:TrackPointExtension>
        </extensions>
      </trkpt>
      <trkpt lat="44.18087" lon="3.18616">
        <ele>729.4</ele>
        <time>2022-02-10T11:03:06Z</time>
        <extensions>
          <gpxtpx:TrackPointExtension xmlns:gpxtpx="http://www.garmin.com/xmlschemas/TrackPointExtension/v1">
            <gpxtpx:hr>166</gpxtpx:hr>
          </gpxtpx:TrackPointExtension>
        </extensions>
      </trkpt>
      <trkpt lat="44.18089" lon="3.18615">
        <ele>729.4</ele>
        <time>2022-02-10T11:03:07Z</time>
        <extensions>
          <gpxtpx:TrackPointExtension xmlns:gpxtpx="http://www.garmin.com/xmlschemas/TrackPointExtension/v1">
            <gpxtpx:hr>166</gpxtpx:hr>
          </gpxtpx:TrackPointExtension>
        </extensions>
      </trkpt>
      <trkpt lat="44.18092" lon="3.18611">
        <ele>729.6</ele>
        <time>2022-02-10T11:03:09Z</time>
        <extensions>
          <gpxtpx:TrackPointExtension xmlns:gpxtpx="http://www.garmin.com/xmlschemas/TrackPointExtension/v1">
            <gpxtpx:hr>166</gpxtpx:hr>
          </gpxtpx:TrackPointExtension>
        </extensions>
      </trkpt>
      <trkpt lat="44.18095" lon="3.18607">
        <ele>730.2</ele>
        <time>2022-02-10T11:03:11Z</time>
        <extensions>
          <gpxtpx:TrackPointExtension xmlns:gpxtpx="http://www.garmin.com/xmlschemas/TrackPointExtension/v1">
            <gpxtpx:hr>166</gpxtpx:hr>
          </gpxtpx:TrackPointExtension>
        </extensions>
      </trkpt>
      <trkpt lat="44.18099" lon="3.18603">
        <ele>730.4</ele>
        <time>2022-02-10T11:03:13Z</time>
        <extensions>
          <gpxtpx:TrackPointExtension xmlns:gpxtpx="http://www.garmin.com/xmlschemas/TrackPointExtension/v1">
            <gpxtpx:hr>166</gpxtpx:hr>
          </gpxtpx:TrackPointExtension>
        </extensions>
      </trkpt>
      <trkpt lat="44.18103" lon="3.18597">
        <ele>730.8</ele>
        <time>2022-02-10T11:03:16Z</time>
        <extensions>
          <gpxtpx:TrackPointExtension xmlns:gpxtpx="http://www.garmin.com/xmlschemas/TrackPointExtension/v1">
            <gpxtpx:hr>167</gpxtpx:hr>
          </gpxtpx:TrackPointExtension>
        </extensions>
      </trkpt>
      <trkpt lat="44.18104" lon="3.18595">
        <ele>731.2</ele>
        <time>2022-02-10T11:03:17Z</time>
        <extensions>
          <gpxtpx:TrackPointExtension xmlns:gpxtpx="http://www.garmin.com/xmlschemas/TrackPointExtension/v1">
            <gpxtpx:hr>167</gpxtpx:hr>
          </gpxtpx:TrackPointExtension>
        </extensions>
      </trkpt>
      <trkpt lat="44.18107" lon="3.18591">
        <ele>731.4</ele>
        <time>2022-02-10T11:03:19Z</time>
        <extensions>
          <gpxtpx:TrackPointExtension xmlns:gpxtpx="http://www.garmin.com/xmlschemas/TrackPointExtension/v1">
            <gpxtpx:hr>167</gpxtpx:hr>
          </gpxtpx:TrackPointExtension>
        </extensions>
      </trkpt>
      <trkpt lat="44.18109" lon="3.18588">
        <ele>731.6</ele>
        <time>2022-02-10T11:03:21Z</time>
        <extensions>
          <gpxtpx:TrackPointExtension xmlns:gpxtpx="http://www.garmin.com/xmlschemas/TrackPointExtension/v1">
            <gpxtpx:hr>167</gpxtpx:hr>
          </gpxtpx:TrackPointExtension>
        </extensions>
      </trkpt>
      <trkpt lat="44.1811" lon="3.18585">
        <ele>732.2</ele>
        <time>2022-02-10T11:03:23Z</time>
        <extensions>
          <gpxtpx:TrackPointExtension xmlns:gpxtpx="http://www.garmin.com/xmlschemas/TrackPointExtension/v1">
            <gpxtpx:hr>167</gpxtpx:hr>
          </gpxtpx:TrackPointExtension>
        </extensions>
      </trkpt>
      <trkpt lat="44.18112" lon="3.18583">
        <ele>732.6</ele>
        <time>2022-02-10T11:03:25Z</time>
        <extensions>
          <gpxtpx:TrackPointExtension xmlns:gpxtpx="http://www.garmin.com/xmlschemas/TrackPointExtension/v1">
            <gpxtpx:hr>167</gpxtpx:hr>
          </gpxtpx:TrackPointExtension>
        </extensions>
      </trkpt>
      <trkpt lat="44.18115" lon="3.1858">
        <ele>732.8</ele>
        <time>2022-02-10T11:03:27Z</time>
        <extensions>
          <gpxtpx:TrackPointExtension xmlns:gpxtpx="http://www.garmin.com/xmlschemas/TrackPointExtension/v1">
            <gpxtpx:hr>168</gpxtpx:hr>
          </gpxtpx:TrackPointExtension>
        </extensions>
      </trkpt>
      <trkpt lat="44.18117" lon="3.18577">
        <ele>733.2</ele>
        <time>2022-02-10T11:03:29Z</time>
        <extensions>
          <gpxtpx:TrackPointExtension xmlns:gpxtpx="http://www.garmin.com/xmlschemas/TrackPointExtension/v1">
            <gpxtpx:hr>167</gpxtpx:hr>
          </gpxtpx:TrackPointExtension>
        </extensions>
      </trkpt>
      <trkpt lat="44.18119" lon="3.18574">
        <ele>734</ele>
        <time>2022-02-10T11:03:31Z</time>
        <extensions>
          <gpxtpx:TrackPointExtension xmlns:gpxtpx="http://www.garmin.com/xmlschemas/TrackPointExtension/v1">
            <gpxtpx:hr>167</gpxtpx:hr>
          </gpxtpx:TrackPointExtension>
        </extensions>
      </trkpt>
      <trkpt lat="44.18121" lon="3.18571">
        <ele>734.2</ele>
        <time>2022-02-10T11:03:33Z</time>
        <extensions>
          <gpxtpx:TrackPointExtension xmlns:gpxtpx="http://www.garmin.com/xmlschemas/TrackPointExtension/v1">
            <gpxtpx:hr>167</gpxtpx:hr>
          </gpxtpx:TrackPointExtension>
        </extensions>
      </trkpt>
      <trkpt lat="44.18124" lon="3.18567">
        <ele>734.8</ele>
        <time>2022-02-10T11:03:35Z</time>
        <extensions>
          <gpxtpx:TrackPointExtension xmlns:gpxtpx="http://www.garmin.com/xmlschemas/TrackPointExtension/v1">
            <gpxtpx:hr>168</gpxtpx:hr>
          </gpxtpx:TrackPointExtension>
        </extensions>
      </trkpt>
      <trkpt lat="44.18125" lon="3.18564">
        <ele>735</ele>
        <time>2022-02-10T11:03:37Z</time>
        <extensions>
          <gpxtpx:TrackPointExtension xmlns:gpxtpx="http://www.garmin.com/xmlschemas/TrackPointExtension/v1">
            <gpxtpx:hr>168</gpxtpx:hr>
          </gpxtpx:TrackPointExtension>
        </extensions>
      </trkpt>
      <trkpt lat="44.18127" lon="3.18561">
        <ele>735.4</ele>
        <time>2022-02-10T11:03:39Z</time>
        <extensions>
          <gpxtpx:TrackPointExtension xmlns:gpxtpx="http://www.garmin.com/xmlschemas/TrackPointExtension/v1">
            <gpxtpx:hr>169</gpxtpx:hr>
          </gpxtpx:TrackPointExtension>
        </extensions>
      </trkpt>
      <trkpt lat="44.18129" lon="3.18558">
        <ele>736</ele>
        <time>2022-02-10T11:03:41Z</time>
        <extensions>
          <gpxtpx:TrackPointExtension xmlns:gpxtpx="http://www.garmin.com/xmlschemas/TrackPointExtension/v1">
            <gpxtpx:hr>169</gpxtpx:hr>
          </gpxtpx:TrackPointExtension>
        </extensions>
      </trkpt>
      <trkpt lat="44.18131" lon="3.18555">
        <ele>736</ele>
        <time>2022-02-10T11:03:43Z</time>
        <extensions>
          <gpxtpx:TrackPointExtension xmlns:gpxtpx="http://www.garmin.com/xmlschemas/TrackPointExtension/v1">
            <gpxtpx:hr>169</gpxtpx:hr>
          </gpxtpx:TrackPointExtension>
        </extensions>
      </trkpt>
      <trkpt lat="44.18133" lon="3.18552">
        <ele>736.6</ele>
        <time>2022-02-10T11:03:45Z</time>
        <extensions>
          <gpxtpx:TrackPointExtension xmlns:gpxtpx="http://www.garmin.com/xmlschemas/TrackPointExtension/v1">
            <gpxtpx:hr>169</gpxtpx:hr>
          </gpxtpx:TrackPointExtension>
        </extensions>
      </trkpt>
      <trkpt lat="44.18138" lon="3.18548">
        <ele>737</ele>
        <time>2022-02-10T11:03:48Z</time>
        <extensions>
          <gpxtpx:TrackPointExtension xmlns:gpxtpx="http://www.garmin.com/xmlschemas/TrackPointExtension/v1">
            <gpxtpx:hr>168</gpxtpx:hr>
          </gpxtpx:TrackPointExtension>
        </extensions>
      </trkpt>
      <trkpt lat="44.18139" lon="3.18547">
        <ele>737.6</ele>
        <time>2022-02-10T11:03:49Z</time>
        <extensions>
          <gpxtpx:TrackPointExtension xmlns:gpxtpx="http://www.garmin.com/xmlschemas/TrackPointExtension/v1">
            <gpxtpx:hr>167</gpxtpx:hr>
          </gpxtpx:TrackPointExtension>
        </extensions>
      </trkpt>
      <trkpt lat="44.18142" lon="3.18544">
        <ele>737.6</ele>
        <time>2022-02-10T11:03:51Z</time>
        <extensions>
          <gpxtpx:TrackPointExtension xmlns:gpxtpx="http://www.garmin.com/xmlschemas/TrackPointExtension/v1">
            <gpxtpx:hr>167</gpxtpx:hr>
          </gpxtpx:TrackPointExtension>
        </extensions>
      </trkpt>
      <trkpt lat="44.18144" lon="3.18542">
        <ele>737.8</ele>
        <time>2022-02-10T11:03:52Z</time>
        <extensions>
          <gpxtpx:TrackPointExtension xmlns:gpxtpx="http://www.garmin.com/xmlschemas/TrackPointExtension/v1">
            <gpxtpx:hr>167</gpxtpx:hr>
          </gpxtpx:TrackPointExtension>
        </extensions>
      </trkpt>
      <trkpt lat="44.18147" lon="3.1854">
        <ele>738</ele>
        <time>2022-02-10T11:03:54Z</time>
        <extensions>
          <gpxtpx:TrackPointExtension xmlns:gpxtpx="http://www.garmin.com/xmlschemas/TrackPointExtension/v1">
            <gpxtpx:hr>167</gpxtpx:hr>
          </gpxtpx:TrackPointExtension>
        </extensions>
      </trkpt>
      <trkpt lat="44.18149" lon="3.18538">
        <ele>738</ele>
        <time>2022-02-10T11:03:55Z</time>
        <extensions>
          <gpxtpx:TrackPointExtension xmlns:gpxtpx="http://www.garmin.com/xmlschemas/TrackPointExtension/v1">
            <gpxtpx:hr>167</gpxtpx:hr>
          </gpxtpx:TrackPointExtension>
        </extensions>
      </trkpt>
      <trkpt lat="44.1815" lon="3.18537">
        <ele>738</ele>
        <time>2022-02-10T11:03:56Z</time>
        <extensions>
          <gpxtpx:TrackPointExtension xmlns:gpxtpx="http://www.garmin.com/xmlschemas/TrackPointExtension/v1">
            <gpxtpx:hr>167</gpxtpx:hr>
          </gpxtpx:TrackPointExtension>
        </extensions>
      </trkpt>
      <trkpt lat="44.18153" lon="3.18535">
        <ele>738.4</ele>
        <time>2022-02-10T11:03:58Z</time>
        <extensions>
          <gpxtpx:TrackPointExtension xmlns:gpxtpx="http://www.garmin.com/xmlschemas/TrackPointExtension/v1">
            <gpxtpx:hr>167</gpxtpx:hr>
          </gpxtpx:TrackPointExtension>
        </extensions>
      </trkpt>
      <trkpt lat="44.18156" lon="3.18533">
        <ele>738.6</ele>
        <time>2022-02-10T11:04:00Z</time>
        <extensions>
          <gpxtpx:TrackPointExtension xmlns:gpxtpx="http://www.garmin.com/xmlschemas/TrackPointExtension/v1">
            <gpxtpx:hr>168</gpxtpx:hr>
          </gpxtpx:TrackPointExtension>
        </extensions>
      </trkpt>
      <trkpt lat="44.18159" lon="3.18532">
        <ele>738.6</ele>
        <time>2022-02-10T11:04:02Z</time>
        <extensions>
          <gpxtpx:TrackPointExtension xmlns:gpxtpx="http://www.garmin.com/xmlschemas/TrackPointExtension/v1">
            <gpxtpx:hr>168</gpxtpx:hr>
          </gpxtpx:TrackPointExtension>
        </extensions>
      </trkpt>
      <trkpt lat="44.18162" lon="3.1853">
        <ele>739</ele>
        <time>2022-02-10T11:04:04Z</time>
        <extensions>
          <gpxtpx:TrackPointExtension xmlns:gpxtpx="http://www.garmin.com/xmlschemas/TrackPointExtension/v1">
            <gpxtpx:hr>167</gpxtpx:hr>
          </gpxtpx:TrackPointExtension>
        </extensions>
      </trkpt>
      <trkpt lat="44.18165" lon="3.18529">
        <ele>739</ele>
        <time>2022-02-10T11:04:06Z</time>
        <extensions>
          <gpxtpx:TrackPointExtension xmlns:gpxtpx="http://www.garmin.com/xmlschemas/TrackPointExtension/v1">
            <gpxtpx:hr>168</gpxtpx:hr>
          </gpxtpx:TrackPointExtension>
        </extensions>
      </trkpt>
      <trkpt lat="44.18166" lon="3.18528">
        <ele>738.6</ele>
        <time>2022-02-10T11:04:09Z</time>
        <extensions>
          <gpxtpx:TrackPointExtension xmlns:gpxtpx="http://www.garmin.com/xmlschemas/TrackPointExtension/v1">
            <gpxtpx:hr>168</gpxtpx:hr>
          </gpxtpx:TrackPointExtension>
        </extensions>
      </trkpt>
      <trkpt lat="44.18225" lon="3.18503">
        <ele>734.4</ele>
      </trkpt>
      <trkpt lat="44.18281" lon="3.18481">
        <ele>732.4</ele>
      </trkpt>
      <trkpt lat="44.18305" lon="3.18464">
        <ele>732.5</ele>
      </trkpt>
      <trkpt lat="44.18348" lon="3.18428">
        <ele>731.3</ele>
      </trkpt>
      <trkpt lat="44.18354" lon="3.18427">
        <ele>730.6</ele>
      </trkpt>
      <trkpt lat="44.18358" lon="3.18431">
        <ele>729.9</ele>
      </trkpt>
      <trkpt lat="44.18359" lon="3.18444">
        <ele>729.2</ele>
      </trkpt>
      <trkpt lat="44.18362" lon="3.18456">
        <ele>727.7</ele>
      </trkpt>
      <trkpt lat="44.18364" lon="3.18472">
        <ele>726</ele>
      </trkpt>
      <trkpt lat="44.18369" lon="3.1848">
        <ele>725.6</ele>
      </trkpt>
      <trkpt lat="44.18381" lon="3.18481">
        <ele>725.3</ele>
      </trkpt>
      <trkpt lat="44.1839" lon="3.18475">
        <ele>728.9</ele>
        <time>2019-04-19T15:17:05Z</time>
      </trkpt>
      <trkpt lat="44.18393" lon="3.18474">
        <ele>728.9</ele>
        <time>2019-04-19T15:17:01Z</time>
      </trkpt>
      <trkpt lat="44.18396" lon="3.18474">
        <ele>729.1</ele>
        <time>2019-04-19T15:16:59Z</time>
      </trkpt>
      <trkpt lat="44.18399" lon="3.18469">
        <ele>729.3</ele>
        <time>2019-04-19T15:16:58Z</time>
      </trkpt>
      <trkpt lat="44.18401" lon="3.18466">
        <ele>729.5</ele>
        <time>2019-04-19T15:16:57Z</time>
      </trkpt>
      <trkpt lat="44.18404" lon="3.18463">
        <ele>729.7</ele>
        <time>2019-04-19T15:16:56Z</time>
      </trkpt>
      <trkpt lat="44.18406" lon="3.18457">
        <ele>730</ele>
        <time>2019-04-19T15:16:55Z</time>
      </trkpt>
      <trkpt lat="44.1841" lon="3.18448">
        <ele>730.5</ele>
        <time>2019-04-19T15:16:54Z</time>
      </trkpt>
      <trkpt lat="44.18413" lon="3.18445">
        <ele>730.7</ele>
        <time>2019-04-19T15:16:53Z</time>
      </trkpt>
      <trkpt lat="44.18416" lon="3.18441">
        <ele>730.9</ele>
        <time>2019-04-19T15:16:52Z</time>
      </trkpt>
      <trkpt lat="44.1842" lon="3.18438">
        <ele>731.2</ele>
        <time>2019-04-19T15:16:51Z</time>
      </trkpt>
      <trkpt lat="44.18425" lon="3.18434">
        <ele>731.5</ele>
        <time>2019-04-19T15:16:50Z</time>
      </trkpt>
      <trkpt lat="44.18428" lon="3.18427">
        <ele>731.8</ele>
        <time>2019-04-19T15:16:49Z</time>
      </trkpt>
      <trkpt lat="44.18433" lon="3.18423">
        <ele>732.2</ele>
        <time>2019-04-19T15:16:48Z</time>
      </trkpt>
      <trkpt lat="44.18435" lon="3.18414">
        <ele>732.5</ele>
        <time>2019-04-19T15:16:47Z</time>
      </trkpt>
      <trkpt lat="44.18437" lon="3.18405">
        <ele>733</ele>
        <time>2019-04-19T15:16:46Z</time>
      </trkpt>
      <trkpt lat="44.1844" lon="3.18394">
        <ele>733.3</ele>
        <time>2019-04-19T15:16:45Z</time>
      </trkpt>
      <trkpt lat="44.18442" lon="3.18384">
        <ele>733.8</ele>
        <time>2019-04-19T15:16:44Z</time>
      </trkpt>
      <trkpt lat="44.18445" lon="3.18378">
        <ele>734.1</ele>
        <time>2019-04-19T15:16:43Z</time>
      </trkpt>
      <trkpt lat="44.1845" lon="3.18374">
        <ele>734.4</ele>
        <time>2019-04-19T15:16:42Z</time>
      </trkpt>
      <trkpt lat="44.18457" lon="3.18366">
        <ele>734.6</ele>
        <time>2019-04-19T15:16:41Z</time>
      </trkpt>
      <trkpt lat="44.18463" lon="3.18356">
        <ele>734.8</ele>
        <time>2019-04-19T15:16:40Z</time>
      </trkpt>
      <trkpt lat="44.1847" lon="3.1835">
        <ele>735.1</ele>
        <time>2019-04-19T15:16:39Z</time>
      </trkpt>
      <trkpt lat="44.18476" lon="3.18343">
        <ele>735.4</ele>
        <time>2019-04-19T15:16:38Z</time>
      </trkpt>
      <trkpt lat="44.18483" lon="3.18341">
        <ele>735.5</ele>
        <time>2019-04-19T15:16:37Z</time>
      </trkpt>
      <trkpt lat="44.1849" lon="3.18337">
        <ele>735.8</ele>
        <time>2019-04-19T15:16:36Z</time>
      </trkpt>
      <trkpt lat="44.18503" lon="3.18336">
        <ele>736.3</ele>
        <time>2019-04-19T15:16:35Z</time>
      </trkpt>
      <trkpt lat="44.18505" lon="3.18327">
        <ele>736.7</ele>
        <time>2019-04-19T15:16:34Z</time>
      </trkpt>
      <trkpt lat="44.18509" lon="3.18316">
        <ele>737.3</ele>
        <time>2019-04-19T15:16:33Z</time>
      </trkpt>
      <trkpt lat="44.18516" lon="3.18306">
        <ele>738.1</ele>
        <time>2019-04-19T15:16:32Z</time>
      </trkpt>
      <trkpt lat="44.18518" lon="3.18297">
        <ele>738.7</ele>
        <time>2019-04-19T15:16:31Z</time>
      </trkpt>
      <trkpt lat="44.18521" lon="3.18294">
        <ele>739</ele>
        <time>2019-04-19T15:16:30Z</time>
      </trkpt>
      <trkpt lat="44.18528" lon="3.18294">
        <ele>739.6</ele>
        <time>2019-04-19T15:16:29Z</time>
      </trkpt>
      <trkpt lat="44.18535" lon="3.18293">
        <ele>740.3</ele>
        <time>2019-04-19T15:16:28Z</time>
      </trkpt>
      <trkpt lat="44.18544" lon="3.18288">
        <ele>741.1</ele>
        <time>2019-04-19T15:16:27Z</time>
      </trkpt>
      <trkpt lat="44.1855" lon="3.18279">
        <ele>742</ele>
        <time>2019-04-19T15:16:26Z</time>
      </trkpt>
      <trkpt lat="44.18559" lon="3.18279">
        <ele>742.8</ele>
        <time>2019-04-19T15:16:25Z</time>
      </trkpt>
      <trkpt lat="44.18564" lon="3.18275">
        <ele>743.3</ele>
        <time>2019-04-19T15:16:24Z</time>
      </trkpt>
      <trkpt lat="44.1857" lon="3.18267">
        <ele>744.1</ele>
        <time>2019-04-19T15:16:23Z</time>
      </trkpt>
      <trkpt lat="44.18577" lon="3.18262">
        <ele>745</ele>
        <time>2019-04-19T15:16:22Z</time>
      </trkpt>
      <trkpt lat="44.18584" lon="3.18261">
        <ele>745.7</ele>
        <time>2019-04-19T15:16:21Z</time>
      </trkpt>
      <trkpt lat="44.18589" lon="3.18255">
        <ele>746.5</ele>
        <time>2019-04-19T15:16:20Z</time>
      </trkpt>
      <trkpt lat="44.18594" lon="3.1825">
        <ele>747.4</ele>
        <time>2019-04-19T15:16:19Z</time>
      </trkpt>
      <trkpt lat="44.18598" lon="3.18243">
        <ele>748.4</ele>
        <time>2019-04-19T15:16:18Z</time>
      </trkpt>
      <trkpt lat="44.18602" lon="3.18239">
        <ele>749</ele>
        <time>2019-04-19T15:16:17Z</time>
      </trkpt>
      <trkpt lat="44.18606" lon="3.18233">
        <ele>749.5</ele>
        <time>2019-04-19T15:16:16Z</time>
      </trkpt>
      <trkpt lat="44.1861" lon="3.18228">
        <ele>750</ele>
        <time>2019-04-19T15:16:15Z</time>
      </trkpt>
      <trkpt lat="44.18614" lon="3.18221">
        <ele>750.5</ele>
        <time>2019-04-19T15:16:14Z</time>
      </trkpt>
      <trkpt lat="44.18618" lon="3.18213">
        <ele>750.9</ele>
        <time>2019-04-19T15:16:13Z</time>
      </trkpt>
      <trkpt lat="44.18623" lon="3.18211">
        <ele>751.2</ele>
        <time>2019-04-19T15:16:12Z</time>
      </trkpt>
      <trkpt lat="44.18629" lon="3.18207">
        <ele>751.6</ele>
        <time>2019-04-19T15:16:11Z</time>
      </trkpt>
      <trkpt lat="44.18633" lon="3.18199">
        <ele>751.9</ele>
        <time>2019-04-19T15:16:10Z</time>
      </trkpt>
      <trkpt lat="44.18636" lon="3.18196">
        <ele>752</ele>
        <time>2019-04-19T15:16:09Z</time>
      </trkpt>
      <trkpt lat="44.18639" lon="3.1819">
        <ele>752.2</ele>
        <time>2019-04-19T15:16:08Z</time>
      </trkpt>
      <trkpt lat="44.1864" lon="3.18176">
        <ele>752.8</ele>
        <time>2019-04-19T15:16:07Z</time>
      </trkpt>
      <trkpt lat="44.18643" lon="3.18171">
        <ele>753</ele>
        <time>2019-04-19T15:16:06Z</time>
      </trkpt>
      <trkpt lat="44.18645" lon="3.18167">
        <ele>753</ele>
        <time>2019-04-19T15:16:05Z</time>
      </trkpt>
      <trkpt lat="44.18648" lon="3.18164">
        <ele>753.1</ele>
        <time>2019-04-19T15:16:04Z</time>
      </trkpt>
      <trkpt lat="44.1865" lon="3.1816">
        <ele>753.3</ele>
        <time>2019-04-19T15:16:03Z</time>
      </trkpt>
      <trkpt lat="44.18653" lon="3.18156">
        <ele>753.4</ele>
        <time>2019-04-19T15:16:02Z</time>
      </trkpt>
      <trkpt lat="44.18655" lon="3.18152">
        <ele>753.5</ele>
        <time>2019-04-19T15:16:01Z</time>
      </trkpt>
      <trkpt lat="44.18657" lon="3.18148">
        <ele>753.5</ele>
        <time>2019-04-19T15:16:00Z</time>
      </trkpt>
      <trkpt lat="44.1866" lon="3.18143">
        <ele>753.6</ele>
        <time>2019-04-19T15:15:59Z</time>
      </trkpt>
      <trkpt lat="44.18662" lon="3.18139">
        <ele>753.6</ele>
        <time>2019-04-19T15:15:58Z</time>
      </trkpt>
      <trkpt lat="44.18663" lon="3.18135">
        <ele>753.5</ele>
        <time>2019-04-19T15:15:57Z</time>
      </trkpt>
      <trkpt lat="44.18665" lon="3.1813">
        <ele>753.5</ele>
        <time>2019-04-19T15:15:56Z</time>
      </trkpt>
      <trkpt lat="44.18666" lon="3.18124">
        <ele>753.5</ele>
        <time>2019-04-19T15:15:55Z</time>
      </trkpt>
      <trkpt lat="44.18667" lon="3.18118">
        <ele>753.5</ele>
        <time>2019-04-19T15:15:54Z</time>
      </trkpt>
      <trkpt lat="44.18668" lon="3.18112">
        <ele>753.5</ele>
        <time>2019-04-19T15:15:53Z</time>
      </trkpt>
      <trkpt lat="44.18668" lon="3.18106">
        <ele>753.5</ele>
        <time>2019-04-19T15:15:52Z</time>
      </trkpt>
      <trkpt lat="44.18668" lon="3.18101">
        <ele>753.6</ele>
        <time>2019-04-19T15:15:51Z</time>
      </trkpt>
      <trkpt lat="44.18668" lon="3.18097">
        <ele>753.6</ele>
        <time>2019-04-19T15:15:50Z</time>
      </trkpt>
      <trkpt lat="44.18669" lon="3.18091">
        <ele>753.6</ele>
        <time>2019-04-19T15:15:49Z</time>
      </trkpt>
      <trkpt lat="44.18671" lon="3.18086">
        <ele>753.6</ele>
        <time>2019-04-19T15:15:47Z</time>
      </trkpt>
      <trkpt lat="44.18672" lon="3.1808">
        <ele>753.6</ele>
        <time>2019-04-19T15:15:29Z</time>
      </trkpt>
      <trkpt lat="44.1867" lon="3.18077">
        <ele>753.5</ele>
        <time>2019-04-19T15:15:25Z</time>
      </trkpt>
      <trkpt lat="44.18667" lon="3.18074">
        <ele>753.4</ele>
        <time>2019-04-19T15:15:23Z</time>
      </trkpt>
      <trkpt lat="44.18663" lon="3.18073">
        <ele>753.4</ele>
        <time>2019-04-19T15:15:21Z</time>
      </trkpt>
      <trkpt lat="44.1866" lon="3.1807">
        <ele>753.3</ele>
        <time>2019-04-19T15:15:19Z</time>
      </trkpt>
      <trkpt lat="44.18658" lon="3.18068">
        <ele>753.2</ele>
        <time>2019-04-19T15:15:18Z</time>
      </trkpt>
      <trkpt lat="44.18656" lon="3.18065">
        <ele>753.1</ele>
        <time>2019-04-19T15:15:17Z</time>
      </trkpt>
      <trkpt lat="44.18655" lon="3.18059">
        <ele>753</ele>
        <time>2019-04-19T15:15:15Z</time>
      </trkpt>
      <trkpt lat="44.18654" lon="3.18052">
        <ele>752.9</ele>
        <time>2019-04-19T15:15:13Z</time>
      </trkpt>
      <trkpt lat="44.18651" lon="3.18049">
        <ele>752.9</ele>
        <time>2019-04-19T15:15:11Z</time>
      </trkpt>
      <trkpt lat="44.18647" lon="3.18047">
        <ele>752.8</ele>
        <time>2019-04-19T15:15:09Z</time>
      </trkpt>
      <trkpt lat="44.18643" lon="3.18046">
        <ele>752.7</ele>
        <time>2019-04-19T15:15:07Z</time>
      </trkpt>
      <trkpt lat="44.18639" lon="3.18044">
        <ele>752.5</ele>
        <time>2019-04-19T15:15:05Z</time>
      </trkpt>
      <trkpt lat="44.18635" lon="3.18045">
        <ele>752.4</ele>
        <time>2019-04-19T15:15:03Z</time>
      </trkpt>
      <trkpt lat="44.18633" lon="3.18048">
        <ele>752.3</ele>
        <time>2019-04-19T15:15:01Z</time>
      </trkpt>
      <trkpt lat="44.18629" lon="3.18053">
        <ele>752.1</ele>
        <time>2019-04-19T15:14:59Z</time>
      </trkpt>
      <trkpt lat="44.18627" lon="3.18055">
        <ele>752</ele>
        <time>2019-04-19T15:14:58Z</time>
      </trkpt>
      <trkpt lat="44.18623" lon="3.18059">
        <ele>751.8</ele>
        <time>2019-04-19T15:14:56Z</time>
      </trkpt>
      <trkpt lat="44.18619" lon="3.18061">
        <ele>751.7</ele>
        <time>2019-04-19T15:14:54Z</time>
      </trkpt>
      <trkpt lat="44.18616" lon="3.18062">
        <ele>751.6</ele>
        <time>2019-04-19T15:14:53Z</time>
      </trkpt>
      <trkpt lat="44.18613" lon="3.18064">
        <ele>751.5</ele>
        <time>2019-04-19T15:14:52Z</time>
      </trkpt>
      <trkpt lat="44.18611" lon="3.18065">
        <ele>751.4</ele>
        <time>2019-04-19T15:14:51Z</time>
      </trkpt>
      <trkpt lat="44.18606" lon="3.18068">
        <ele>751.3</ele>
        <time>2019-04-19T15:14:49Z</time>
      </trkpt>
      <trkpt lat="44.18603" lon="3.18068">
        <ele>751.1</ele>
        <time>2019-04-19T15:14:47Z</time>
      </trkpt>
      <trkpt lat="44.186" lon="3.18067">
        <ele>751</ele>
        <time>2019-04-19T15:14:45Z</time>
      </trkpt>
      <trkpt lat="44.18597" lon="3.18065">
        <ele>750.9</ele>
        <time>2019-04-19T15:14:44Z</time>
      </trkpt>
      <trkpt lat="44.18594" lon="3.18062">
        <ele>750.9</ele>
        <time>2019-04-19T15:14:43Z</time>
      </trkpt>
      <trkpt lat="44.18591" lon="3.18058">
        <ele>750.8</ele>
        <time>2019-04-19T15:14:42Z</time>
      </trkpt>
      <trkpt lat="44.18588" lon="3.18054">
        <ele>750.7</ele>
        <time>2019-04-19T15:14:41Z</time>
      </trkpt>
      <trkpt lat="44.18585" lon="3.18049">
        <ele>750.5</ele>
        <time>2019-04-19T15:14:40Z</time>
      </trkpt>
      <trkpt lat="44.18584" lon="3.18045">
        <ele>750.4</ele>
        <time>2019-04-19T15:14:39Z</time>
      </trkpt>
      <trkpt lat="44.18584" lon="3.18039">
        <ele>750.2</ele>
        <time>2019-04-19T15:14:36Z</time>
      </trkpt>
      <trkpt lat="44.18585" lon="3.18035">
        <ele>750.1</ele>
        <time>2019-04-19T15:14:33Z</time>
      </trkpt>
      <trkpt lat="44.18587" lon="3.1803">
        <ele>750</ele>
        <time>2019-04-19T15:14:31Z</time>
      </trkpt>
      <trkpt lat="44.18584" lon="3.18026">
        <ele>749.9</ele>
        <time>2019-04-19T15:14:30Z</time>
      </trkpt>
      <trkpt lat="44.18582" lon="3.18019">
        <ele>750</ele>
        <time>2019-04-19T15:14:28Z</time>
      </trkpt>
      <trkpt lat="44.18578" lon="3.18013">
        <ele>750.3</ele>
        <time>2019-04-19T15:14:25Z</time>
      </trkpt>
      <trkpt lat="44.18581" lon="3.18011">
        <ele>750.5</ele>
        <time>2019-04-19T15:14:23Z</time>
      </trkpt>
      <trkpt lat="44.18581" lon="3.18007">
        <ele>750.7</ele>
        <time>2019-04-19T15:14:22Z</time>
      </trkpt>
      <trkpt lat="44.18581" lon="3.17994">
        <ele>751.2</ele>
        <time>2019-04-19T15:14:21Z</time>
      </trkpt>
      <trkpt lat="44.18582" lon="3.17981">
        <ele>751.6</ele>
        <time>2019-04-19T15:14:20Z</time>
      </trkpt>
      <trkpt lat="44.18583" lon="3.17976">
        <ele>751.8</ele>
        <time>2019-04-19T15:14:19Z</time>
      </trkpt>
      <trkpt lat="44.18584" lon="3.17969">
        <ele>751.9</ele>
        <time>2019-04-19T15:14:18Z</time>
      </trkpt>
      <trkpt lat="44.18585" lon="3.17957">
        <ele>752.2</ele>
        <time>2019-04-19T15:14:17Z</time>
      </trkpt>
      <trkpt lat="44.1859" lon="3.17946">
        <ele>752.7</ele>
        <time>2019-04-19T15:14:16Z</time>
      </trkpt>
      <trkpt lat="44.18595" lon="3.17935">
        <ele>753.2</ele>
        <time>2019-04-19T15:14:15Z</time>
      </trkpt>
      <trkpt lat="44.18601" lon="3.17929">
        <ele>753.7</ele>
        <time>2019-04-19T15:14:14Z</time>
      </trkpt>
      <trkpt lat="44.18604" lon="3.17928">
        <ele>753.9</ele>
        <time>2019-04-19T15:14:13Z</time>
      </trkpt>
      <trkpt lat="44.18607" lon="3.17922">
        <ele>754.3</ele>
        <time>2019-04-19T15:14:12Z</time>
      </trkpt>
      <trkpt lat="44.18608" lon="3.17916">
        <ele>754.5</ele>
        <time>2019-04-19T15:14:11Z</time>
      </trkpt>
      <trkpt lat="44.1861" lon="3.179">
        <ele>755.3</ele>
        <time>2019-04-19T15:14:10Z</time>
      </trkpt>
      <trkpt lat="44.18612" lon="3.17893">
        <ele>755.7</ele>
        <time>2019-04-19T15:14:09Z</time>
      </trkpt>
      <trkpt lat="44.18614" lon="3.17887">
        <ele>756</ele>
        <time>2019-04-19T15:14:08Z</time>
      </trkpt>
      <trkpt lat="44.18615" lon="3.17884">
        <ele>756.3</ele>
        <time>2019-04-19T15:14:07Z</time>
      </trkpt>
      <trkpt lat="44.18619" lon="3.17878">
        <ele>756.6</ele>
        <time>2019-04-19T15:14:05Z</time>
      </trkpt>
      <trkpt lat="44.18622" lon="3.17875">
        <ele>757.2</ele>
        <time>2019-04-19T15:14:03Z</time>
      </trkpt>
      <trkpt lat="44.18625" lon="3.1787">
        <ele>757.6</ele>
        <time>2019-04-19T15:13:57Z</time>
      </trkpt>
      <trkpt lat="44.18623" lon="3.17867">
        <ele>757.9</ele>
        <time>2019-04-19T15:13:54Z</time>
      </trkpt>
      <trkpt lat="44.18624" lon="3.17862">
        <ele>758.3</ele>
        <time>2019-04-19T15:13:43Z</time>
      </trkpt>
      <trkpt lat="44.18626" lon="3.17861">
        <ele>758.6</ele>
        <time>2019-04-19T15:13:42Z</time>
      </trkpt>
      <trkpt lat="44.18628" lon="3.17856">
        <ele>758.8</ele>
        <time>2019-04-19T15:13:40Z</time>
      </trkpt>
      <trkpt lat="44.18629" lon="3.17851">
        <ele>759</ele>
        <time>2019-04-19T15:12:17Z</time>
      </trkpt>
      <trkpt lat="44.18626" lon="3.1785">
        <ele>759.3</ele>
        <time>2019-04-19T15:12:08Z</time>
      </trkpt>
      <trkpt lat="44.18625" lon="3.17846">
        <ele>759.6</ele>
        <time>2019-04-19T15:12:07Z</time>
      </trkpt>
      <trkpt lat="44.18624" lon="3.17839">
        <ele>760.1</ele>
        <time>2019-04-19T15:12:06Z</time>
      </trkpt>
      <trkpt lat="44.18621" lon="3.17833">
        <ele>760.3</ele>
        <time>2019-04-19T15:12:05Z</time>
      </trkpt>
      <trkpt lat="44.18619" lon="3.17827">
        <ele>760.6</ele>
        <time>2019-04-19T15:12:04Z</time>
      </trkpt>
      <trkpt lat="44.18615" lon="3.17819">
        <ele>760.9</ele>
        <time>2019-04-19T15:12:03Z</time>
      </trkpt>
      <trkpt lat="44.18613" lon="3.17813">
        <ele>761.1</ele>
        <time>2019-04-19T15:12:02Z</time>
      </trkpt>
      <trkpt lat="44.18611" lon="3.17807">
        <ele>761.3</ele>
        <time>2019-04-19T15:12:01Z</time>
      </trkpt>
      <trkpt lat="44.18608" lon="3.17799">
        <ele>762</ele>
        <time>2019-04-19T15:12:00Z</time>
      </trkpt>
      <trkpt lat="44.18608" lon="3.17792">
        <ele>762.3</ele>
        <time>2019-04-19T15:11:59Z</time>
      </trkpt>
      <trkpt lat="44.18607" lon="3.17779">
        <ele>762.9</ele>
        <time>2019-04-19T15:11:58Z</time>
      </trkpt>
      <trkpt lat="44.18606" lon="3.17773">
        <ele>763.2</ele>
        <time>2019-04-19T15:11:57Z</time>
      </trkpt>
      <trkpt lat="44.18604" lon="3.17767">
        <ele>763.3</ele>
        <time>2019-04-19T15:11:56Z</time>
      </trkpt>
      <trkpt lat="44.18603" lon="3.17762">
        <ele>763.5</ele>
        <time>2019-04-19T15:11:55Z</time>
      </trkpt>
      <trkpt lat="44.18602" lon="3.17757">
        <ele>763.6</ele>
        <time>2019-04-19T15:11:54Z</time>
      </trkpt>
      <trkpt lat="44.18602" lon="3.17753">
        <ele>763.7</ele>
        <time>2019-04-19T15:11:53Z</time>
      </trkpt>
      <trkpt lat="44.18603" lon="3.17747">
        <ele>763.8</ele>
        <time>2019-04-19T15:11:51Z</time>
      </trkpt>
      <trkpt lat="44.18605" lon="3.17741">
        <ele>763.9</ele>
        <time>2019-04-19T15:11:49Z</time>
      </trkpt>
      <trkpt lat="44.18606" lon="3.17734">
        <ele>764</ele>
        <time>2019-04-19T15:11:47Z</time>
      </trkpt>
      <trkpt lat="44.18607" lon="3.1773">
        <ele>764.1</ele>
        <time>2019-04-19T15:11:46Z</time>
      </trkpt>
      <trkpt lat="44.18607" lon="3.17726">
        <ele>764.1</ele>
        <time>2019-04-19T15:11:45Z</time>
      </trkpt>
      <trkpt lat="44.18607" lon="3.17721">
        <ele>764.2</ele>
        <time>2019-04-19T15:11:44Z</time>
      </trkpt>
      <trkpt lat="44.18606" lon="3.17717">
        <ele>764.3</ele>
        <time>2019-04-19T15:11:43Z</time>
      </trkpt>
      <trkpt lat="44.18603" lon="3.17712">
        <ele>764.3</ele>
        <time>2019-04-19T15:11:41Z</time>
      </trkpt>
      <trkpt lat="44.18601" lon="3.17708">
        <ele>764.4</ele>
        <time>2019-04-19T15:11:40Z</time>
      </trkpt>
      <trkpt lat="44.18599" lon="3.17705">
        <ele>764.4</ele>
        <time>2019-04-19T15:11:39Z</time>
      </trkpt>
      <trkpt lat="44.18596" lon="3.17701">
        <ele>764.5</ele>
        <time>2019-04-19T15:11:38Z</time>
      </trkpt>
      <trkpt lat="44.18594" lon="3.17697">
        <ele>764.6</ele>
        <time>2019-04-19T15:11:37Z</time>
      </trkpt>
      <trkpt lat="44.18591" lon="3.17693">
        <ele>764.6</ele>
        <time>2019-04-19T15:11:36Z</time>
      </trkpt>
      <trkpt lat="44.18586" lon="3.17688">
        <ele>764.7</ele>
        <time>2019-04-19T15:11:34Z</time>
      </trkpt>
      <trkpt lat="44.18582" lon="3.17685">
        <ele>764.8</ele>
        <time>2019-04-19T15:11:33Z</time>
      </trkpt>
      <trkpt lat="44.1858" lon="3.17681">
        <ele>764.9</ele>
        <time>2019-04-19T15:11:32Z</time>
      </trkpt>
      <trkpt lat="44.18577" lon="3.17675">
        <ele>765.1</ele>
        <time>2019-04-19T15:11:31Z</time>
      </trkpt>
      <trkpt lat="44.18575" lon="3.1767">
        <ele>765.3</ele>
        <time>2019-04-19T15:11:30Z</time>
      </trkpt>
      <trkpt lat="44.18574" lon="3.17664">
        <ele>765.4</ele>
        <time>2019-04-19T15:11:29Z</time>
      </trkpt>
      <trkpt lat="44.18573" lon="3.17657">
        <ele>765.6</ele>
        <time>2019-04-19T15:11:28Z</time>
      </trkpt>
      <trkpt lat="44.18571" lon="3.17647">
        <ele>765.8</ele>
        <time>2019-04-19T15:11:27Z</time>
      </trkpt>
      <trkpt lat="44.18571" lon="3.17641">
        <ele>766</ele>
        <time>2019-04-19T15:11:26Z</time>
      </trkpt>
      <trkpt lat="44.18571" lon="3.17634">
        <ele>766.1</ele>
        <time>2019-04-19T15:11:25Z</time>
      </trkpt>
      <trkpt lat="44.18573" lon="3.17627">
        <ele>766.3</ele>
        <time>2019-04-19T15:11:24Z</time>
      </trkpt>
      <trkpt lat="44.18575" lon="3.17622">
        <ele>766.4</ele>
        <time>2019-04-19T15:11:23Z</time>
      </trkpt>
      <trkpt lat="44.18577" lon="3.17617">
        <ele>766.5</ele>
        <time>2019-04-19T15:11:22Z</time>
      </trkpt>
      <trkpt lat="44.18577" lon="3.1761">
        <ele>766.6</ele>
        <time>2019-04-19T15:11:21Z</time>
      </trkpt>
      <trkpt lat="44.18575" lon="3.17604">
        <ele>766.8</ele>
        <time>2019-04-19T15:11:20Z</time>
      </trkpt>
      <trkpt lat="44.18575" lon="3.17596">
        <ele>766.9</ele>
        <time>2019-04-19T15:11:19Z</time>
      </trkpt>
      <trkpt lat="44.18573" lon="3.17592">
        <ele>766.9</ele>
        <time>2019-04-19T15:11:18Z</time>
      </trkpt>
      <trkpt lat="44.18568" lon="3.17589">
        <ele>766.9</ele>
        <time>2019-04-19T15:11:17Z</time>
      </trkpt>
      <trkpt lat="44.18562" lon="3.17586">
        <ele>766.9</ele>
        <time>2019-04-19T15:11:15Z</time>
      </trkpt>
      <trkpt lat="44.18559" lon="3.17586">
        <ele>766.9</ele>
        <time>2019-04-19T15:11:14Z</time>
      </trkpt>
      <trkpt lat="44.18552" lon="3.17586">
        <ele>766.8</ele>
        <time>2019-04-19T15:11:12Z</time>
      </trkpt>
      <trkpt lat="44.18548" lon="3.17588">
        <ele>766.8</ele>
        <time>2019-04-19T15:11:10Z</time>
      </trkpt>
      <trkpt lat="44.18545" lon="3.17581">
        <ele>766.7</ele>
        <time>2019-04-19T15:11:09Z</time>
      </trkpt>
      <trkpt lat="44.18542" lon="3.17574">
        <ele>766.7</ele>
        <time>2019-04-19T15:11:08Z</time>
      </trkpt>
      <trkpt lat="44.18542" lon="3.17569">
        <ele>766.6</ele>
        <time>2019-04-19T15:11:07Z</time>
      </trkpt>
      <trkpt lat="44.18541" lon="3.17559">
        <ele>766.6</ele>
        <time>2019-04-19T15:11:06Z</time>
      </trkpt>
      <trkpt lat="44.18538" lon="3.1755">
        <ele>766.7</ele>
        <time>2019-04-19T15:11:05Z</time>
      </trkpt>
      <trkpt lat="44.18534" lon="3.17538">
        <ele>766.9</ele>
        <time>2019-04-19T15:11:04Z</time>
      </trkpt>
      <trkpt lat="44.18527" lon="3.17533">
        <ele>767.3</ele>
        <time>2019-04-19T15:11:03Z</time>
      </trkpt>
      <trkpt lat="44.1852" lon="3.17528">
        <ele>767.6</ele>
        <time>2019-04-19T15:11:02Z</time>
      </trkpt>
      <trkpt lat="44.18512" lon="3.17524">
        <ele>767.9</ele>
        <time>2019-04-19T15:11:01Z</time>
      </trkpt>
      <trkpt lat="44.18506" lon="3.1752">
        <ele>767.9</ele>
        <time>2019-04-19T15:11:00Z</time>
      </trkpt>
      <trkpt lat="44.18499" lon="3.17518">
        <ele>767.6</ele>
        <time>2019-04-19T15:10:59Z</time>
      </trkpt>
      <trkpt lat="44.18493" lon="3.17517">
        <ele>767.4</ele>
        <time>2019-04-19T15:10:58Z</time>
      </trkpt>
      <trkpt lat="44.18488" lon="3.17516">
        <ele>767.3</ele>
        <time>2019-04-19T15:10:57Z</time>
      </trkpt>
      <trkpt lat="44.18482" lon="3.17515">
        <ele>767.5</ele>
        <time>2019-04-19T15:10:56Z</time>
      </trkpt>
      <trkpt lat="44.18476" lon="3.17512">
        <ele>768</ele>
        <time>2019-04-19T15:10:55Z</time>
      </trkpt>
      <trkpt lat="44.18471" lon="3.17508">
        <ele>768.4</ele>
        <time>2019-04-19T15:10:54Z</time>
      </trkpt>
      <trkpt lat="44.18464" lon="3.17503">
        <ele>769</ele>
        <time>2019-04-19T15:10:53Z</time>
      </trkpt>
      <trkpt lat="44.18462" lon="3.17497">
        <ele>769.4</ele>
        <time>2019-04-19T15:10:52Z</time>
      </trkpt>
      <trkpt lat="44.1846" lon="3.17493">
        <ele>769.7</ele>
        <time>2019-04-19T15:10:51Z</time>
      </trkpt>
      <trkpt lat="44.18459" lon="3.17488">
        <ele>770.1</ele>
        <time>2019-04-19T15:10:50Z</time>
      </trkpt>
      <trkpt lat="44.18458" lon="3.17482">
        <ele>770.4</ele>
        <time>2019-04-19T15:10:49Z</time>
      </trkpt>
      <trkpt lat="44.18458" lon="3.17476">
        <ele>770.7</ele>
        <time>2019-04-19T15:10:48Z</time>
      </trkpt>
      <trkpt lat="44.18457" lon="3.1747">
        <ele>771</ele>
        <time>2019-04-19T15:10:47Z</time>
      </trkpt>
      <trkpt lat="44.18457" lon="3.17465">
        <ele>771.3</ele>
        <time>2019-04-19T15:10:46Z</time>
      </trkpt>
      <trkpt lat="44.18457" lon="3.1746">
        <ele>771.7</ele>
        <time>2019-04-19T15:10:45Z</time>
      </trkpt>
      <trkpt lat="44.18456" lon="3.17454">
        <ele>772.1</ele>
        <time>2019-04-19T15:10:44Z</time>
      </trkpt>
      <trkpt lat="44.18457" lon="3.17449">
        <ele>772.5</ele>
        <time>2019-04-19T15:10:43Z</time>
      </trkpt>
      <trkpt lat="44.18457" lon="3.17443">
        <ele>772.9</ele>
        <time>2019-04-19T15:10:42Z</time>
      </trkpt>
      <trkpt lat="44.18457" lon="3.17439">
        <ele>773.2</ele>
        <time>2019-04-19T15:10:41Z</time>
      </trkpt>
      <trkpt lat="44.18457" lon="3.17434">
        <ele>773.5</ele>
        <time>2019-04-19T15:10:40Z</time>
      </trkpt>
      <trkpt lat="44.18457" lon="3.17429">
        <ele>773.7</ele>
        <time>2019-04-19T15:10:39Z</time>
      </trkpt>
      <trkpt lat="44.18456" lon="3.17424">
        <ele>774</ele>
        <time>2019-04-19T15:10:38Z</time>
      </trkpt>
      <trkpt lat="44.18455" lon="3.17419">
        <ele>774.3</ele>
        <time>2019-04-19T15:10:37Z</time>
      </trkpt>
      <trkpt lat="44.18453" lon="3.17414">
        <ele>774.7</ele>
        <time>2019-04-19T15:10:36Z</time>
      </trkpt>
      <trkpt lat="44.18452" lon="3.17408">
        <ele>775</ele>
        <time>2019-04-19T15:10:35Z</time>
      </trkpt>
      <trkpt lat="44.18451" lon="3.17404">
        <ele>775.1</ele>
        <time>2019-04-19T15:10:34Z</time>
      </trkpt>
      <trkpt lat="44.18451" lon="3.174">
        <ele>775.2</ele>
        <time>2019-04-19T15:10:33Z</time>
      </trkpt>
      <trkpt lat="44.18451" lon="3.17396">
        <ele>775.3</ele>
        <time>2019-04-19T15:10:32Z</time>
      </trkpt>
      <trkpt lat="44.18452" lon="3.17393">
        <ele>775.4</ele>
        <time>2019-04-19T15:10:31Z</time>
      </trkpt>
      <trkpt lat="44.18451" lon="3.17388">
        <ele>775.4</ele>
        <time>2019-04-19T15:10:27Z</time>
      </trkpt>
      <trkpt lat="44.18451" lon="3.17392">
        <ele>775.5</ele>
        <time>2019-04-19T15:10:25Z</time>
      </trkpt>
      <trkpt lat="44.18451" lon="3.17396">
        <ele>775.5</ele>
        <time>2019-04-19T15:10:23Z</time>
      </trkpt>
      <trkpt lat="44.1845" lon="3.17401">
        <ele>775.6</ele>
        <time>2019-04-19T15:10:21Z</time>
      </trkpt>
      <trkpt lat="44.18452" lon="3.17407">
        <ele>775.7</ele>
        <time>2019-04-19T15:10:19Z</time>
      </trkpt>
      <trkpt lat="44.18455" lon="3.17412">
        <ele>775.7</ele>
        <time>2019-04-19T15:10:17Z</time>
      </trkpt>
      <trkpt lat="44.18456" lon="3.17416">
        <ele>775.7</ele>
        <time>2019-04-19T15:10:16Z</time>
      </trkpt>
      <trkpt lat="44.18456" lon="3.1742">
        <ele>775.7</ele>
        <time>2019-04-19T15:10:15Z</time>
      </trkpt>
      <trkpt lat="44.18457" lon="3.17424">
        <ele>775.7</ele>
        <time>2019-04-19T15:10:14Z</time>
      </trkpt>
      <trkpt lat="44.18458" lon="3.17432">
        <ele>775.8</ele>
        <time>2019-04-19T15:10:12Z</time>
      </trkpt>
      <trkpt lat="44.18457" lon="3.17438">
        <ele>775.8</ele>
        <time>2019-04-19T15:10:10Z</time>
      </trkpt>
      <trkpt lat="44.18454" lon="3.17439">
        <ele>775.8</ele>
        <time>2019-04-19T15:10:08Z</time>
      </trkpt>
      <trkpt lat="44.1845" lon="3.17438">
        <ele>775.9</ele>
        <time>2019-04-19T15:10:03Z</time>
      </trkpt>
      <trkpt lat="44.18447" lon="3.17437">
        <ele>775.9</ele>
        <time>2019-04-19T15:10:01Z</time>
      </trkpt>
      <trkpt lat="44.18445" lon="3.1744">
        <ele>775.9</ele>
        <time>2019-04-19T15:09:57Z</time>
      </trkpt>
      <trkpt lat="44.18443" lon="3.17442">
        <ele>776</ele>
        <time>2019-04-19T15:09:50Z</time>
      </trkpt>
      <trkpt lat="44.18445" lon="3.17439">
        <ele>776.1</ele>
        <time>2019-04-19T15:09:40Z</time>
      </trkpt>
      <trkpt lat="44.18442" lon="3.17439">
        <ele>776.3</ele>
        <time>2019-04-19T15:09:37Z</time>
      </trkpt>
      <trkpt lat="44.1844" lon="3.17435">
        <ele>776.5</ele>
        <time>2019-04-19T15:09:35Z</time>
      </trkpt>
      <trkpt lat="44.18437" lon="3.17432">
        <ele>776.7</ele>
        <time>2019-04-19T15:09:33Z</time>
      </trkpt>
      <trkpt lat="44.18434" lon="3.17432">
        <ele>776.9</ele>
        <time>2019-04-19T15:09:32Z</time>
      </trkpt>
      <trkpt lat="44.18431" lon="3.17433">
        <ele>777.1</ele>
        <time>2019-04-19T15:09:31Z</time>
      </trkpt>
      <trkpt lat="44.18428" lon="3.17435">
        <ele>777.2</ele>
        <time>2019-04-19T15:09:30Z</time>
      </trkpt>
      <trkpt lat="44.18425" lon="3.17437">
        <ele>777.3</ele>
        <time>2019-04-19T15:09:29Z</time>
      </trkpt>
      <trkpt lat="44.18423" lon="3.17438">
        <ele>777.5</ele>
        <time>2019-04-19T15:09:28Z</time>
      </trkpt>
      <trkpt lat="44.1842" lon="3.17439">
        <ele>777.7</ele>
        <time>2019-04-19T15:09:27Z</time>
      </trkpt>
      <trkpt lat="44.18415" lon="3.17437">
        <ele>778.2</ele>
        <time>2019-04-19T15:09:25Z</time>
      </trkpt>
      <trkpt lat="44.18413" lon="3.17432">
        <ele>778.6</ele>
        <time>2019-04-19T15:09:22Z</time>
      </trkpt>
      <trkpt lat="44.18411" lon="3.17424">
        <ele>779</ele>
        <time>2019-04-19T15:08:52Z</time>
      </trkpt>
      <trkpt lat="44.18409" lon="3.17421">
        <ele>779.2</ele>
        <time>2019-04-19T15:08:50Z</time>
      </trkpt>
      <trkpt lat="44.18406" lon="3.17417">
        <ele>779.5</ele>
        <time>2019-04-19T15:08:48Z</time>
      </trkpt>
      <trkpt lat="44.18403" lon="3.17414">
        <ele>779.8</ele>
        <time>2019-04-19T15:08:46Z</time>
      </trkpt>
      <trkpt lat="44.18399" lon="3.17412">
        <ele>780.1</ele>
        <time>2019-04-19T15:08:44Z</time>
      </trkpt>
      <trkpt lat="44.18396" lon="3.17408">
        <ele>780.5</ele>
        <time>2019-04-19T15:08:42Z</time>
      </trkpt>
      <trkpt lat="44.18395" lon="3.17403">
        <ele>780.8</ele>
        <time>2019-04-19T15:08:40Z</time>
      </trkpt>
      <trkpt lat="44.18394" lon="3.17397">
        <ele>781.1</ele>
        <time>2019-04-19T15:08:38Z</time>
      </trkpt>
      <trkpt lat="44.18392" lon="3.17391">
        <ele>781.2</ele>
        <time>2019-04-19T15:08:36Z</time>
      </trkpt>
      <trkpt lat="44.1839" lon="3.17386">
        <ele>781.2</ele>
        <time>2019-04-19T15:08:34Z</time>
      </trkpt>
      <trkpt lat="44.18389" lon="3.17382">
        <ele>781.3</ele>
        <time>2019-04-19T15:08:32Z</time>
      </trkpt>
      <trkpt lat="44.1839" lon="3.17378">
        <ele>781.3</ele>
        <time>2019-04-19T15:08:14Z</time>
      </trkpt>
      <trkpt lat="44.18387" lon="3.17376">
        <ele>781.3</ele>
        <time>2019-04-19T15:08:12Z</time>
      </trkpt>
      <trkpt lat="44.18385" lon="3.17379">
        <ele>781.2</ele>
        <time>2019-04-19T15:07:41Z</time>
      </trkpt>
      <trkpt lat="44.18383" lon="3.17375">
        <ele>781.1</ele>
        <time>2019-04-19T15:07:37Z</time>
      </trkpt>
      <trkpt lat="44.18383" lon="3.17371">
        <ele>780.9</ele>
        <time>2019-04-19T15:05:44Z</time>
      </trkpt>
      <trkpt lat="44.18382" lon="3.17367">
        <ele>780.8</ele>
        <time>2019-04-19T15:05:42Z</time>
      </trkpt>
      <trkpt lat="44.18382" lon="3.17362">
        <ele>780.6</ele>
        <time>2019-04-19T15:05:41Z</time>
      </trkpt>
      <trkpt lat="44.18383" lon="3.17357">
        <ele>780.4</ele>
        <time>2019-04-19T15:05:40Z</time>
      </trkpt>
      <trkpt lat="44.18383" lon="3.17352">
        <ele>780.2</ele>
        <time>2019-04-19T15:05:39Z</time>
      </trkpt>
      <trkpt lat="44.18384" lon="3.17346">
        <ele>780</ele>
        <time>2019-04-19T15:05:38Z</time>
      </trkpt>
      <trkpt lat="44.18384" lon="3.1734">
        <ele>779.7</ele>
        <time>2019-04-19T15:05:37Z</time>
      </trkpt>
      <trkpt lat="44.18385" lon="3.17335">
        <ele>779.5</ele>
        <time>2019-04-19T15:05:36Z</time>
      </trkpt>
      <trkpt lat="44.18386" lon="3.17329">
        <ele>779.3</ele>
        <time>2019-04-19T15:05:35Z</time>
      </trkpt>
      <trkpt lat="44.18387" lon="3.17324">
        <ele>779.1</ele>
        <time>2019-04-19T15:05:34Z</time>
      </trkpt>
      <trkpt lat="44.18388" lon="3.17319">
        <ele>779</ele>
        <time>2019-04-19T15:05:33Z</time>
      </trkpt>
      <trkpt lat="44.18389" lon="3.17312">
        <ele>778.7</ele>
        <time>2019-04-19T15:05:32Z</time>
      </trkpt>
      <trkpt lat="44.1839" lon="3.17306">
        <ele>778.5</ele>
        <time>2019-04-19T15:05:31Z</time>
      </trkpt>
      <trkpt lat="44.1839" lon="3.17302">
        <ele>778.4</ele>
        <time>2019-04-19T15:05:30Z</time>
      </trkpt>
      <trkpt lat="44.18391" lon="3.17296">
        <ele>778.2</ele>
        <time>2019-04-19T15:05:29Z</time>
      </trkpt>
      <trkpt lat="44.18392" lon="3.17291">
        <ele>778</ele>
        <time>2019-04-19T15:05:28Z</time>
      </trkpt>
      <trkpt lat="44.18393" lon="3.17287">
        <ele>777.9</ele>
        <time>2019-04-19T15:05:27Z</time>
      </trkpt>
      <trkpt lat="44.18395" lon="3.17282">
        <ele>777.7</ele>
        <time>2019-04-19T15:05:26Z</time>
      </trkpt>
      <trkpt lat="44.18395" lon="3.17274">
        <ele>777.6</ele>
        <time>2019-04-19T15:05:25Z</time>
      </trkpt>
      <trkpt lat="44.18395" lon="3.17267">
        <ele>777.5</ele>
        <time>2019-04-19T15:05:24Z</time>
      </trkpt>
      <trkpt lat="44.18397" lon="3.17263">
        <ele>777.4</ele>
        <time>2019-04-19T15:05:23Z</time>
      </trkpt>
      <trkpt lat="44.18397" lon="3.17256">
        <ele>777.4</ele>
        <time>2019-04-19T15:05:22Z</time>
      </trkpt>
      <trkpt lat="44.18398" lon="3.17249">
        <ele>777.4</ele>
        <time>2019-04-19T15:05:21Z</time>
      </trkpt>
      <trkpt lat="44.184" lon="3.17243">
        <ele>777.5</ele>
        <time>2019-04-19T15:05:20Z</time>
      </trkpt>
      <trkpt lat="44.18402" lon="3.17235">
        <ele>777.5</ele>
        <time>2019-04-19T15:05:19Z</time>
      </trkpt>
      <trkpt lat="44.18404" lon="3.17228">
        <ele>777.5</ele>
        <time>2019-04-19T15:05:18Z</time>
      </trkpt>
      <trkpt lat="44.18406" lon="3.17221">
        <ele>777.5</ele>
        <time>2019-04-19T15:05:17Z</time>
      </trkpt>
      <trkpt lat="44.18407" lon="3.17214">
        <ele>777.6</ele>
        <time>2019-04-19T15:05:16Z</time>
      </trkpt>
      <trkpt lat="44.18408" lon="3.17207">
        <ele>777.6</ele>
        <time>2019-04-19T15:05:15Z</time>
      </trkpt>
      <trkpt lat="44.18411" lon="3.172">
        <ele>777.6</ele>
        <time>2019-04-19T15:05:14Z</time>
      </trkpt>
      <trkpt lat="44.18413" lon="3.17195">
        <ele>777.7</ele>
        <time>2019-04-19T15:05:13Z</time>
      </trkpt>
      <trkpt lat="44.18412" lon="3.1719">
        <ele>777.7</ele>
        <time>2019-04-19T15:05:12Z</time>
      </trkpt>
      <trkpt lat="44.18412" lon="3.17181">
        <ele>777.7</ele>
        <time>2019-04-19T15:05:11Z</time>
      </trkpt>
      <trkpt lat="44.18413" lon="3.17175">
        <ele>777.8</ele>
        <time>2019-04-19T15:05:10Z</time>
      </trkpt>
      <trkpt lat="44.18414" lon="3.17169">
        <ele>777.8</ele>
        <time>2019-04-19T15:05:09Z</time>
      </trkpt>
      <trkpt lat="44.18415" lon="3.17162">
        <ele>777.8</ele>
        <time>2019-04-19T15:05:08Z</time>
      </trkpt>
      <trkpt lat="44.18418" lon="3.17158">
        <ele>777.8</ele>
        <time>2019-04-19T15:05:07Z</time>
      </trkpt>
      <trkpt lat="44.18421" lon="3.17154">
        <ele>777.8</ele>
        <time>2019-04-19T15:05:06Z</time>
      </trkpt>
      <trkpt lat="44.18423" lon="3.17149">
        <ele>777.8</ele>
        <time>2019-04-19T15:05:05Z</time>
      </trkpt>
      <trkpt lat="44.18425" lon="3.17146">
        <ele>777.8</ele>
        <time>2019-04-19T15:05:04Z</time>
      </trkpt>
      <trkpt lat="44.18413" lon="3.17143">
        <ele>775.5</ele>
      </trkpt>
      <trkpt lat="44.18386" lon="3.17151">
        <ele>776.9</ele>
      </trkpt>
      <trkpt lat="44.18365" lon="3.17154">
        <ele>777.1</ele>
      </trkpt>
      <trkpt lat="44.1834" lon="3.17149">
        <ele>777.5</ele>
      </trkpt>
      <trkpt lat="44.18321" lon="3.17144">
        <ele>778.3</ele>
      </trkpt>
      <trkpt lat="44.18294" lon="3.17125">
        <ele>779.5</ele>
      </trkpt>
      <trkpt lat="44.18278" lon="3.17115">
        <ele>780.5</ele>
      </trkpt>
      <trkpt lat="44.18257" lon="3.1709">
        <ele>781.5</ele>
      </trkpt>
      <trkpt lat="44.18251" lon="3.17082">
        <ele>781.9</ele>
      </trkpt>
      <trkpt lat="44.18252" lon="3.17063">
        <ele>781</ele>
      </trkpt>
      <trkpt lat="44.18225" lon="3.17049">
        <ele>784.4</ele>
      </trkpt>
      <trkpt lat="44.18207" lon="3.1704">
        <ele>786.6</ele>
      </trkpt>
      <trkpt lat="44.18186" lon="3.17023">
        <ele>787.6</ele>
      </trkpt>
      <trkpt lat="44.18152" lon="3.1701">
        <ele>789.3</ele>
      </trkpt>
      <trkpt lat="44.18131" lon="3.17002">
        <ele>789.7</ele>
      </trkpt>
      <trkpt lat="44.18102" lon="3.16979">
        <ele>789.1</ele>
      </trkpt>
      <trkpt lat="44.18079" lon="3.16974">
        <ele>788.1</ele>
      </trkpt>
      <trkpt lat="44.18062" lon="3.16971">
        <ele>787.9</ele>
      </trkpt>
      <trkpt lat="44.18028" lon="3.16947">
        <ele>788.2</ele>
      </trkpt>
      <trkpt lat="44.18001" lon="3.16934">
        <ele>789.3</ele>
      </trkpt>
      <trkpt lat="44.17973" lon="3.16888">
        <ele>790</ele>
      </trkpt>
      <trkpt lat="44.17962" lon="3.16864">
        <ele>790.2</ele>
      </trkpt>
      <trkpt lat="44.17941" lon="3.16848">
        <ele>791.8</ele>
      </trkpt>
      <trkpt lat="44.1792" lon="3.16805">
        <ele>791</ele>
      </trkpt>
      <trkpt lat="44.17878" lon="3.16714">
        <ele>790.3</ele>
      </trkpt>
      <trkpt lat="44.17873" lon="3.16646">
        <ele>794.5</ele>
      </trkpt>
      <trkpt lat="44.17864" lon="3.16622">
        <ele>796.2</ele>
      </trkpt>
      <trkpt lat="44.17862" lon="3.16598">
        <ele>797.5</ele>
      </trkpt>
      <trkpt lat="44.17825" lon="3.16501">
        <ele>802.5</ele>
      </trkpt>
      <trkpt lat="44.17811" lon="3.16489">
        <ele>803.9</ele>
      </trkpt>
      <trkpt lat="44.17794" lon="3.16503">
        <ele>804.7</ele>
      </trkpt>
      <trkpt lat="44.17772" lon="3.16529">
        <ele>805.5</ele>
      </trkpt>
      <trkpt lat="44.17754" lon="3.16547">
        <ele>805.6</ele>
      </trkpt>
      <trkpt lat="44.17746" lon="3.16554">
        <ele>805.5</ele>
      </trkpt>
      <trkpt lat="44.17735" lon="3.16552">
        <ele>806.9</ele>
      </trkpt>
      <trkpt lat="44.17716" lon="3.1656">
        <ele>807.6</ele>
      </trkpt>
      <trkpt lat="44.17677" lon="3.16561">
        <ele>809.4</ele>
      </trkpt>
      <trkpt lat="44.17652" lon="3.16553">
        <ele>810.6</ele>
      </trkpt>
      <trkpt lat="44.17605" lon="3.16544">
        <ele>811.7</ele>
      </trkpt>
      <trkpt lat="44.17579" lon="3.16529">
        <ele>811.9</ele>
      </trkpt>
      <trkpt lat="44.17501" lon="3.16434">
        <ele>820.2</ele>
      </trkpt>
      <trkpt lat="44.17463" lon="3.16376">
        <ele>824.8</ele>
      </trkpt>
      <trkpt lat="44.17432" lon="3.16312">
        <ele>826.3</ele>
      </trkpt>
      <trkpt lat="44.17423" lon="3.16269">
        <ele>826.3</ele>
      </trkpt>
      <trkpt lat="44.17417" lon="3.16215">
        <ele>826.3</ele>
      </trkpt>
      <trkpt lat="44.17413" lon="3.16198">
        <ele>826.7</ele>
      </trkpt>
      <trkpt lat="44.17423" lon="3.16136">
        <ele>830.4</ele>
      </trkpt>
      <trkpt lat="44.17427" lon="3.16074">
        <ele>833.3</ele>
      </trkpt>
      <trkpt lat="44.17419" lon="3.15945">
        <ele>838.9</ele>
      </trkpt>
      <trkpt lat="44.1742" lon="3.15846">
        <ele>843.4</ele>
      </trkpt>
      <trkpt lat="44.17424" lon="3.15814">
        <ele>845.1</ele>
      </trkpt>
      <trkpt lat="44.1742" lon="3.15711">
        <ele>850.4</ele>
      </trkpt>
      <trkpt lat="44.17362" lon="3.15696">
        <ele>851.9</ele>
      </trkpt>
      <trkpt lat="44.17313" lon="3.15702">
        <ele>852.7</ele>
      </trkpt>
      <trkpt lat="44.17296" lon="3.15705">
        <ele>852.4</ele>
      </trkpt>
      <trkpt lat="44.17273" lon="3.15694">
        <ele>851.7</ele>
      </trkpt>
      <trkpt lat="44.17247" lon="3.1575">
        <ele>849.5</ele>
      </trkpt>
      <trkpt lat="44.1719" lon="3.1584">
        <ele>842.6</ele>
      </trkpt>
      <trkpt lat="44.17144" lon="3.15863">
        <ele>839.2</ele>
      </trkpt>
      <trkpt lat="44.17059" lon="3.15855">
        <ele>836.3</ele>
      </trkpt>
      <trkpt lat="44.16964" lon="3.15889">
        <ele>832.7</ele>
      </trkpt>
      <trkpt lat="44.16917" lon="3.15893">
        <ele>829.2</ele>
      </trkpt>
      <trkpt lat="44.16896" lon="3.15921">
        <ele>827.7</ele>
      </trkpt>
      <trkpt lat="44.16834" lon="3.15928">
        <ele>823.1</ele>
      </trkpt>
      <trkpt lat="44.16773" lon="3.15915">
        <ele>822.1</ele>
      </trkpt>
      <trkpt lat="44.1672" lon="3.159">
        <ele>823.7</ele>
      </trkpt>
      <trkpt lat="44.16691" lon="3.15891">
        <ele>825.2</ele>
      </trkpt>
      <trkpt lat="44.1667" lon="3.15896">
        <ele>826.8</ele>
      </trkpt>
      <trkpt lat="44.16656" lon="3.1593">
        <ele>828</ele>
      </trkpt>
      <trkpt lat="44.16628" lon="3.16018">
        <ele>830.7</ele>
      </trkpt>
      <trkpt lat="44.16634" lon="3.16052">
        <ele>829.7</ele>
      </trkpt>
      <trkpt lat="44.16624" lon="3.16069">
        <ele>830.9</ele>
      </trkpt>
      <trkpt lat="44.1661" lon="3.16093">
        <ele>831.8</ele>
      </trkpt>
      <trkpt lat="44.16591" lon="3.16106">
        <ele>832.6</ele>
      </trkpt>
      <trkpt lat="44.16543" lon="3.16114">
        <ele>834.3</ele>
      </trkpt>
      <trkpt lat="44.16513" lon="3.16104">
        <ele>834.5</ele>
      </trkpt>
      <trkpt lat="44.16494" lon="3.16102">
        <ele>833.8</ele>
      </trkpt>
      <trkpt lat="44.16474" lon="3.16099">
        <ele>833.1</ele>
      </trkpt>
      <trkpt lat="44.16434" lon="3.16095">
        <ele>831.6</ele>
      </trkpt>
      <trkpt lat="44.16416" lon="3.16095">
        <ele>831</ele>
      </trkpt>
      <trkpt lat="44.16393" lon="3.16091">
        <ele>831</ele>
      </trkpt>
      <trkpt lat="44.16269" lon="3.16016">
        <ele>828.2</ele>
      </trkpt>
      <trkpt lat="44.16171" lon="3.15908">
        <ele>828</ele>
      </trkpt>
      <trkpt lat="44.16091" lon="3.15842">
        <ele>830.1</ele>
      </trkpt>
      <trkpt lat="44.16054" lon="3.15842">
        <ele>831.4</ele>
      </trkpt>
      <trkpt lat="44.16012" lon="3.15857">
        <ele>830.8</ele>
      </trkpt>
      <trkpt lat="44.15968" lon="3.15883">
        <ele>829.4</ele>
      </trkpt>
      <trkpt lat="44.15922" lon="3.15908">
        <ele>827.5</ele>
      </trkpt>
      <trkpt lat="44.15903" lon="3.15908">
        <ele>827.3</ele>
      </trkpt>
      <trkpt lat="44.15872" lon="3.15881">
        <ele>828.3</ele>
      </trkpt>
      <trkpt lat="44.15826" lon="3.15827">
        <ele>829.4</ele>
      </trkpt>
      <trkpt lat="44.15815" lon="3.15793">
        <ele>831.3</ele>
      </trkpt>
      <trkpt lat="44.15812" lon="3.15758">
        <ele>833.6</ele>
      </trkpt>
      <trkpt lat="44.15855" lon="3.15649">
        <ele>838.9</ele>
      </trkpt>
      <trkpt lat="44.15863" lon="3.15619">
        <ele>839.7</ele>
      </trkpt>
      <trkpt lat="44.15863" lon="3.15609">
        <ele>844.5</ele>
        <time>2021-04-23T16:01:35Z</time>
      </trkpt>
      <trkpt lat="44.15863" lon="3.15605">
        <ele>844.5</ele>
        <time>2021-04-23T16:01:37Z</time>
      </trkpt>
      <trkpt lat="44.15863" lon="3.15602">
        <ele>844.6</ele>
        <time>2021-04-23T16:01:38Z</time>
      </trkpt>
      <trkpt lat="44.15863" lon="3.15595">
        <ele>844.6</ele>
        <time>2021-04-23T16:01:40Z</time>
      </trkpt>
      <trkpt lat="44.15863" lon="3.15588">
        <ele>844.6</ele>
        <time>2021-04-23T16:01:41Z</time>
      </trkpt>
      <trkpt lat="44.15863" lon="3.15581">
        <ele>844.5</ele>
        <time>2021-04-23T16:01:43Z</time>
      </trkpt>
      <trkpt lat="44.15863" lon="3.15576">
        <ele>844.4</ele>
        <time>2021-04-23T16:01:44Z</time>
      </trkpt>
      <trkpt lat="44.15864" lon="3.15569">
        <ele>844.2</ele>
        <time>2021-04-23T16:01:46Z</time>
      </trkpt>
      <trkpt lat="44.15864" lon="3.15566">
        <ele>844.1</ele>
        <time>2021-04-23T16:01:47Z</time>
      </trkpt>
      <trkpt lat="44.15864" lon="3.15566">
        <ele>844.1</ele>
        <time>2021-04-23T16:01:49Z</time>
      </trkpt>
      <trkpt lat="44.15864" lon="3.15568">
        <ele>844</ele>
        <time>2021-04-23T16:01:50Z</time>
      </trkpt>
      <trkpt lat="44.15864" lon="3.15568">
        <ele>844</ele>
        <time>2021-04-23T16:01:52Z</time>
      </trkpt>
      <trkpt lat="44.15864" lon="3.15568">
        <ele>844</ele>
        <time>2021-04-23T16:01:54Z</time>
      </trkpt>
      <trkpt lat="44.15864" lon="3.15567">
        <ele>844</ele>
        <time>2021-04-23T16:01:56Z</time>
      </trkpt>
      <trkpt lat="44.15864" lon="3.15567">
        <ele>844</ele>
        <time>2021-04-23T16:01:57Z</time>
      </trkpt>
      <trkpt lat="44.15866" lon="3.15566">
        <ele>843.8</ele>
        <time>2021-04-23T16:02:46Z</time>
      </trkpt>
      <trkpt lat="44.15865" lon="3.1556">
        <ele>843.5</ele>
        <time>2021-04-23T16:02:48Z</time>
      </trkpt>
      <trkpt lat="44.15863" lon="3.15551">
        <ele>843.1</ele>
        <time>2021-04-23T16:02:49Z</time>
      </trkpt>
      <trkpt lat="44.15862" lon="3.15543">
        <ele>842.6</ele>
        <time>2021-04-23T16:02:50Z</time>
      </trkpt>
      <trkpt lat="44.15863" lon="3.15539">
        <ele>842.3</ele>
        <time>2021-04-23T16:02:52Z</time>
      </trkpt>
      <trkpt lat="44.15864" lon="3.15538">
        <ele>842.2</ele>
        <time>2021-04-23T16:02:53Z</time>
      </trkpt>
      <trkpt lat="44.15866" lon="3.15538">
        <ele>842</ele>
        <time>2021-04-23T16:02:54Z</time>
      </trkpt>
      <trkpt lat="44.15869" lon="3.15536">
        <ele>841.7</ele>
        <time>2021-04-23T16:02:56Z</time>
      </trkpt>
      <trkpt lat="44.15872" lon="3.15533">
        <ele>841.4</ele>
        <time>2021-04-23T16:02:57Z</time>
      </trkpt>
      <trkpt lat="44.15876" lon="3.15527">
        <ele>840.9</ele>
        <time>2021-04-23T16:02:58Z</time>
      </trkpt>
      <trkpt lat="44.15878" lon="3.1552">
        <ele>840.4</ele>
        <time>2021-04-23T16:03:00Z</time>
      </trkpt>
      <trkpt lat="44.15882" lon="3.15511">
        <ele>839.8</ele>
        <time>2021-04-23T16:03:02Z</time>
      </trkpt>
      <trkpt lat="44.15884" lon="3.15506">
        <ele>839.5</ele>
        <time>2021-04-23T16:03:03Z</time>
      </trkpt>
      <trkpt lat="44.15887" lon="3.15501">
        <ele>839.2</ele>
        <time>2021-04-23T16:03:04Z</time>
      </trkpt>
      <trkpt lat="44.15889" lon="3.15495">
        <ele>838.9</ele>
        <time>2021-04-23T16:03:05Z</time>
      </trkpt>
      <trkpt lat="44.15889" lon="3.15487">
        <ele>838.7</ele>
        <time>2021-04-23T16:03:06Z</time>
      </trkpt>
      <trkpt lat="44.15888" lon="3.15481">
        <ele>838.5</ele>
        <time>2021-04-23T16:03:07Z</time>
      </trkpt>
      <trkpt lat="44.15885" lon="3.15475">
        <ele>838.4</ele>
        <time>2021-04-23T16:03:09Z</time>
      </trkpt>
      <trkpt lat="44.15883" lon="3.1547">
        <ele>838.3</ele>
        <time>2021-04-23T16:03:10Z</time>
      </trkpt>
      <trkpt lat="44.15879" lon="3.15462">
        <ele>838.2</ele>
        <time>2021-04-23T16:03:11Z</time>
      </trkpt>
      <trkpt lat="44.15877" lon="3.15455">
        <ele>838.1</ele>
        <time>2021-04-23T16:03:13Z</time>
      </trkpt>
      <trkpt lat="44.15875" lon="3.15449">
        <ele>838</ele>
        <time>2021-04-23T16:03:14Z</time>
      </trkpt>
      <trkpt lat="44.15873" lon="3.15441">
        <ele>837.2</ele>
        <time>2021-04-23T16:03:16Z</time>
      </trkpt>
      <trkpt lat="44.15872" lon="3.15436">
        <ele>836.7</ele>
        <time>2021-04-23T16:03:17Z</time>
      </trkpt>
      <trkpt lat="44.1587" lon="3.15432">
        <ele>836.5</ele>
        <time>2021-04-23T16:03:18Z</time>
      </trkpt>
      <trkpt lat="44.15869" lon="3.15426">
        <ele>836.1</ele>
        <time>2021-04-23T16:03:19Z</time>
      </trkpt>
      <trkpt lat="44.15868" lon="3.15422">
        <ele>835.6</ele>
        <time>2021-04-23T16:03:20Z</time>
      </trkpt>
      <trkpt lat="44.15868" lon="3.15417">
        <ele>835.4</ele>
        <time>2021-04-23T16:03:21Z</time>
      </trkpt>
      <trkpt lat="44.15868" lon="3.15411">
        <ele>835.1</ele>
        <time>2021-04-23T16:03:23Z</time>
      </trkpt>
      <trkpt lat="44.15868" lon="3.15406">
        <ele>834.7</ele>
        <time>2021-04-23T16:03:24Z</time>
      </trkpt>
      <trkpt lat="44.15867" lon="3.15398">
        <ele>834.4</ele>
        <time>2021-04-23T16:03:25Z</time>
      </trkpt>
      <trkpt lat="44.15866" lon="3.15392">
        <ele>834</ele>
        <time>2021-04-23T16:03:27Z</time>
      </trkpt>
      <trkpt lat="44.15864" lon="3.15385">
        <ele>833.4</ele>
        <time>2021-04-23T16:03:28Z</time>
      </trkpt>
      <trkpt lat="44.15863" lon="3.15379">
        <ele>832.9</ele>
        <time>2021-04-23T16:03:30Z</time>
      </trkpt>
      <trkpt lat="44.15863" lon="3.15375">
        <ele>832.6</ele>
        <time>2021-04-23T16:03:31Z</time>
      </trkpt>
      <trkpt lat="44.15863" lon="3.1537">
        <ele>832.4</ele>
        <time>2021-04-23T16:03:32Z</time>
      </trkpt>
      <trkpt lat="44.15865" lon="3.15364">
        <ele>832.1</ele>
        <time>2021-04-23T16:03:34Z</time>
      </trkpt>
      <trkpt lat="44.15867" lon="3.15362">
        <ele>832.3</ele>
        <time>2021-04-23T16:03:35Z</time>
      </trkpt>
      <trkpt lat="44.15868" lon="3.15361">
        <ele>832.2</ele>
        <time>2021-04-23T16:03:36Z</time>
      </trkpt>
      <trkpt lat="44.15871" lon="3.15359">
        <ele>832.4</ele>
        <time>2021-04-23T16:03:37Z</time>
      </trkpt>
      <trkpt lat="44.15875" lon="3.15356">
        <ele>832.8</ele>
        <time>2021-04-23T16:03:39Z</time>
      </trkpt>
      <trkpt lat="44.15876" lon="3.15355">
        <ele>833.1</ele>
        <time>2021-04-23T16:03:40Z</time>
      </trkpt>
      <trkpt lat="44.15878" lon="3.15353">
        <ele>833.3</ele>
        <time>2021-04-23T16:03:41Z</time>
      </trkpt>
      <trkpt lat="44.15881" lon="3.1535">
        <ele>833.4</ele>
        <time>2021-04-23T16:03:43Z</time>
      </trkpt>
      <trkpt lat="44.15883" lon="3.15347">
        <ele>833.4</ele>
        <time>2021-04-23T16:03:44Z</time>
      </trkpt>
      <trkpt lat="44.15887" lon="3.15343">
        <ele>833.5</ele>
        <time>2021-04-23T16:03:45Z</time>
      </trkpt>
      <trkpt lat="44.15889" lon="3.15341">
        <ele>833.7</ele>
        <time>2021-04-23T16:03:46Z</time>
      </trkpt>
      <trkpt lat="44.15892" lon="3.15337">
        <ele>833.8</ele>
        <time>2021-04-23T16:03:48Z</time>
      </trkpt>
      <trkpt lat="44.15893" lon="3.15336">
        <ele>834.1</ele>
        <time>2021-04-23T16:03:49Z</time>
      </trkpt>
      <trkpt lat="44.15895" lon="3.15335">
        <ele>834.1</ele>
        <time>2021-04-23T16:03:50Z</time>
      </trkpt>
      <trkpt lat="44.15898" lon="3.15333">
        <ele>834.1</ele>
        <time>2021-04-23T16:03:51Z</time>
      </trkpt>
      <trkpt lat="44.15902" lon="3.15332">
        <ele>834.4</ele>
        <time>2021-04-23T16:03:52Z</time>
      </trkpt>
      <trkpt lat="44.15905" lon="3.15331">
        <ele>834.7</ele>
        <time>2021-04-23T16:03:54Z</time>
      </trkpt>
      <trkpt lat="44.15908" lon="3.15331">
        <ele>835</ele>
        <time>2021-04-23T16:03:55Z</time>
      </trkpt>
      <trkpt lat="44.15912" lon="3.1533">
        <ele>835.2</ele>
        <time>2021-04-23T16:03:56Z</time>
      </trkpt>
      <trkpt lat="44.15919" lon="3.15329">
        <ele>835.7</ele>
        <time>2021-04-23T16:03:57Z</time>
      </trkpt>
      <trkpt lat="44.15923" lon="3.15328">
        <ele>835.8</ele>
        <time>2021-04-23T16:03:59Z</time>
      </trkpt>
      <trkpt lat="44.15928" lon="3.15328">
        <ele>836</ele>
        <time>2021-04-23T16:04:00Z</time>
      </trkpt>
      <trkpt lat="44.15936" lon="3.15329">
        <ele>836.3</ele>
        <time>2021-04-23T16:04:02Z</time>
      </trkpt>
      <trkpt lat="44.15942" lon="3.15332">
        <ele>836.2</ele>
        <time>2021-04-23T16:04:03Z</time>
      </trkpt>
      <trkpt lat="44.15952" lon="3.15336">
        <ele>836.4</ele>
        <time>2021-04-23T16:04:05Z</time>
      </trkpt>
      <trkpt lat="44.15957" lon="3.15337">
        <ele>836.2</ele>
        <time>2021-04-23T16:04:06Z</time>
      </trkpt>
      <trkpt lat="44.15963" lon="3.15335">
        <ele>836</ele>
        <time>2021-04-23T16:04:07Z</time>
      </trkpt>
      <trkpt lat="44.15974" lon="3.15331">
        <ele>835.6</ele>
        <time>2021-04-23T16:04:09Z</time>
      </trkpt>
      <trkpt lat="44.1598" lon="3.15329">
        <ele>835.2</ele>
        <time>2021-04-23T16:04:10Z</time>
      </trkpt>
      <trkpt lat="44.15986" lon="3.15325">
        <ele>835</ele>
        <time>2021-04-23T16:04:11Z</time>
      </trkpt>
      <trkpt lat="44.15998" lon="3.1532">
        <ele>833.9</ele>
        <time>2021-04-23T16:04:14Z</time>
      </trkpt>
      <trkpt lat="44.16013" lon="3.15318">
        <ele>833.2</ele>
        <time>2021-04-23T16:04:16Z</time>
      </trkpt>
      <trkpt lat="44.1602" lon="3.15315">
        <ele>832.7</ele>
        <time>2021-04-23T16:04:17Z</time>
      </trkpt>
      <trkpt lat="44.1603" lon="3.15307">
        <ele>831.8</ele>
        <time>2021-04-23T16:04:19Z</time>
      </trkpt>
      <trkpt lat="44.16033" lon="3.15302">
        <ele>831.4</ele>
        <time>2021-04-23T16:04:20Z</time>
      </trkpt>
      <trkpt lat="44.16039" lon="3.15296">
        <ele>830.9</ele>
        <time>2021-04-23T16:04:22Z</time>
      </trkpt>
      <trkpt lat="44.16042" lon="3.15293">
        <ele>830.6</ele>
        <time>2021-04-23T16:04:23Z</time>
      </trkpt>
      <trkpt lat="44.16049" lon="3.15287">
        <ele>830.1</ele>
        <time>2021-04-23T16:04:25Z</time>
      </trkpt>
      <trkpt lat="44.16051" lon="3.15284">
        <ele>829.8</ele>
        <time>2021-04-23T16:04:26Z</time>
      </trkpt>
      <trkpt lat="44.16055" lon="3.1528">
        <ele>829.5</ele>
        <time>2021-04-23T16:04:27Z</time>
      </trkpt>
      <trkpt lat="44.1606" lon="3.15282">
        <ele>829.3</ele>
        <time>2021-04-23T16:04:28Z</time>
      </trkpt>
      <trkpt lat="44.16065" lon="3.15286">
        <ele>829.6</ele>
        <time>2021-04-23T16:04:30Z</time>
      </trkpt>
      <trkpt lat="44.16066" lon="3.15291">
        <ele>829.6</ele>
        <time>2021-04-23T16:04:31Z</time>
      </trkpt>
      <trkpt lat="44.16065" lon="3.15297">
        <ele>829.8</ele>
        <time>2021-04-23T16:04:32Z</time>
      </trkpt>
      <trkpt lat="44.16063" lon="3.15306">
        <ele>830.1</ele>
        <time>2021-04-23T16:04:33Z</time>
      </trkpt>
      <trkpt lat="44.16063" lon="3.15314">
        <ele>830.6</ele>
        <time>2021-04-23T16:04:35Z</time>
      </trkpt>
      <trkpt lat="44.16061" lon="3.15322">
        <ele>831.2</ele>
        <time>2021-04-23T16:04:36Z</time>
      </trkpt>
      <trkpt lat="44.16062" lon="3.1533">
        <ele>831.7</ele>
        <time>2021-04-23T16:04:38Z</time>
      </trkpt>
      <trkpt lat="44.1606" lon="3.15342">
        <ele>832.2</ele>
        <time>2021-04-23T16:04:39Z</time>
      </trkpt>
      <trkpt lat="44.1606" lon="3.15352">
        <ele>833.2</ele>
        <time>2021-04-23T16:04:40Z</time>
      </trkpt>
      <trkpt lat="44.16061" lon="3.15368">
        <ele>834.6</ele>
        <time>2021-04-23T16:04:42Z</time>
      </trkpt>
      <trkpt lat="44.16069" lon="3.1538">
        <ele>835.1</ele>
        <time>2021-04-23T16:04:44Z</time>
      </trkpt>
      <trkpt lat="44.16077" lon="3.15383">
        <ele>835.4</ele>
        <time>2021-04-23T16:04:46Z</time>
      </trkpt>
      <trkpt lat="44.1608" lon="3.15377">
        <ele>835</ele>
        <time>2021-04-23T16:04:48Z</time>
      </trkpt>
      <trkpt lat="44.16078" lon="3.15362">
        <ele>833.5</ele>
        <time>2021-04-23T16:04:49Z</time>
      </trkpt>
      <trkpt lat="44.16077" lon="3.15352">
        <ele>832.7</ele>
        <time>2021-04-23T16:04:50Z</time>
      </trkpt>
      <trkpt lat="44.16078" lon="3.1534">
        <ele>831.5</ele>
        <time>2021-04-23T16:04:52Z</time>
      </trkpt>
      <trkpt lat="44.16087" lon="3.15323">
        <ele>830.2</ele>
        <time>2021-04-23T16:04:54Z</time>
      </trkpt>
      <trkpt lat="44.16096" lon="3.15306">
        <ele>828.8</ele>
        <time>2021-04-23T16:04:56Z</time>
      </trkpt>
      <trkpt lat="44.16102" lon="3.15301">
        <ele>828.4</ele>
        <time>2021-04-23T16:04:57Z</time>
      </trkpt>
      <trkpt lat="44.16108" lon="3.153">
        <ele>828.1</ele>
        <time>2021-04-23T16:04:58Z</time>
      </trkpt>
      <trkpt lat="44.16115" lon="3.153">
        <ele>827.8</ele>
        <time>2021-04-23T16:04:59Z</time>
      </trkpt>
      <trkpt lat="44.16126" lon="3.15292">
        <ele>826.7</ele>
        <time>2021-04-23T16:05:01Z</time>
      </trkpt>
      <trkpt lat="44.16129" lon="3.15284">
        <ele>825.9</ele>
        <time>2021-04-23T16:05:02Z</time>
      </trkpt>
      <trkpt lat="44.16136" lon="3.15268">
        <ele>824.6</ele>
        <time>2021-04-23T16:05:04Z</time>
      </trkpt>
      <trkpt lat="44.16143" lon="3.15252">
        <ele>823.7</ele>
        <time>2021-04-23T16:05:06Z</time>
      </trkpt>
      <trkpt lat="44.16147" lon="3.15245">
        <ele>823.6</ele>
        <time>2021-04-23T16:05:07Z</time>
      </trkpt>
      <trkpt lat="44.16158" lon="3.15236">
        <ele>823.3</ele>
        <time>2021-04-23T16:05:09Z</time>
      </trkpt>
      <trkpt lat="44.16163" lon="3.15231">
        <ele>823.3</ele>
        <time>2021-04-23T16:05:10Z</time>
      </trkpt>
      <trkpt lat="44.16172" lon="3.15224">
        <ele>823.2</ele>
        <time>2021-04-23T16:05:12Z</time>
      </trkpt>
      <trkpt lat="44.16175" lon="3.15225">
        <ele>822.9</ele>
        <time>2021-04-23T16:05:13Z</time>
      </trkpt>
      <trkpt lat="44.16182" lon="3.15225">
        <ele>822.4</ele>
        <time>2021-04-23T16:05:14Z</time>
      </trkpt>
      <trkpt lat="44.16189" lon="3.15224">
        <ele>822</ele>
        <time>2021-04-23T16:05:15Z</time>
      </trkpt>
      <trkpt lat="44.16202" lon="3.15219">
        <ele>820.7</ele>
        <time>2021-04-23T16:05:17Z</time>
      </trkpt>
      <trkpt lat="44.16214" lon="3.15213">
        <ele>819.1</ele>
        <time>2021-04-23T16:05:19Z</time>
      </trkpt>
      <trkpt lat="44.1622" lon="3.15208">
        <ele>818</ele>
        <time>2021-04-23T16:05:20Z</time>
      </trkpt>
      <trkpt lat="44.16231" lon="3.15197">
        <ele>816.4</ele>
        <time>2021-04-23T16:05:22Z</time>
      </trkpt>
      <trkpt lat="44.16237" lon="3.15193">
        <ele>815.4</ele>
        <time>2021-04-23T16:05:23Z</time>
      </trkpt>
      <trkpt lat="44.16253" lon="3.15188">
        <ele>813.3</ele>
        <time>2021-04-23T16:05:25Z</time>
      </trkpt>
      <trkpt lat="44.16267" lon="3.15187">
        <ele>812.1</ele>
        <time>2021-04-23T16:05:27Z</time>
      </trkpt>
      <trkpt lat="44.16281" lon="3.15184">
        <ele>811.3</ele>
        <time>2021-04-23T16:05:29Z</time>
      </trkpt>
      <trkpt lat="44.16287" lon="3.15184">
        <ele>811</ele>
        <time>2021-04-23T16:05:30Z</time>
      </trkpt>
      <trkpt lat="44.16294" lon="3.15186">
        <ele>810.8</ele>
        <time>2021-04-23T16:05:31Z</time>
      </trkpt>
      <trkpt lat="44.16308" lon="3.15182">
        <ele>810.7</ele>
        <time>2021-04-23T16:05:33Z</time>
      </trkpt>
      <trkpt lat="44.16316" lon="3.15181">
        <ele>810.2</ele>
        <time>2021-04-23T16:05:34Z</time>
      </trkpt>
      <trkpt lat="44.16331" lon="3.15178">
        <ele>809.5</ele>
        <time>2021-04-23T16:05:36Z</time>
      </trkpt>
      <trkpt lat="44.1634" lon="3.15172">
        <ele>808.9</ele>
        <time>2021-04-23T16:05:38Z</time>
      </trkpt>
      <trkpt lat="44.1635" lon="3.15168">
        <ele>808.5</ele>
        <time>2021-04-23T16:05:40Z</time>
      </trkpt>
      <trkpt lat="44.16363" lon="3.15163">
        <ele>807.9</ele>
        <time>2021-04-23T16:05:42Z</time>
      </trkpt>
      <trkpt lat="44.16369" lon="3.1516">
        <ele>807.6</ele>
        <time>2021-04-23T16:05:43Z</time>
      </trkpt>
      <trkpt lat="44.16374" lon="3.15157">
        <ele>807.4</ele>
        <time>2021-04-23T16:05:44Z</time>
      </trkpt>
      <trkpt lat="44.16384" lon="3.15153">
        <ele>806.7</ele>
        <time>2021-04-23T16:05:46Z</time>
      </trkpt>
      <trkpt lat="44.1639" lon="3.15151">
        <ele>805.9</ele>
        <time>2021-04-23T16:05:47Z</time>
      </trkpt>
      <trkpt lat="44.164" lon="3.15148">
        <ele>804.9</ele>
        <time>2021-04-23T16:05:49Z</time>
      </trkpt>
      <trkpt lat="44.16411" lon="3.15143">
        <ele>803.5</ele>
        <time>2021-04-23T16:05:51Z</time>
      </trkpt>
      <trkpt lat="44.1642" lon="3.15136">
        <ele>802.9</ele>
        <time>2021-04-23T16:05:53Z</time>
      </trkpt>
      <trkpt lat="44.16426" lon="3.15132">
        <ele>802.5</ele>
        <time>2021-04-23T16:05:54Z</time>
      </trkpt>
      <trkpt lat="44.16438" lon="3.15125">
        <ele>801.9</ele>
        <time>2021-04-23T16:05:56Z</time>
      </trkpt>
      <trkpt lat="44.16443" lon="3.15123">
        <ele>801.5</ele>
        <time>2021-04-23T16:05:57Z</time>
      </trkpt>
      <trkpt lat="44.16452" lon="3.15121">
        <ele>800.4</ele>
        <time>2021-04-23T16:05:59Z</time>
      </trkpt>
      <trkpt lat="44.16458" lon="3.15119">
        <ele>799.8</ele>
        <time>2021-04-23T16:06:00Z</time>
      </trkpt>
      <trkpt lat="44.16472" lon="3.15118">
        <ele>799.1</ele>
        <time>2021-04-23T16:06:02Z</time>
      </trkpt>
      <trkpt lat="44.16485" lon="3.15114">
        <ele>798</ele>
        <time>2021-04-23T16:06:04Z</time>
      </trkpt>
      <trkpt lat="44.16496" lon="3.15103">
        <ele>797</ele>
        <time>2021-04-23T16:06:06Z</time>
      </trkpt>
      <trkpt lat="44.165" lon="3.15097">
        <ele>796</ele>
        <time>2021-04-23T16:06:07Z</time>
      </trkpt>
      <trkpt lat="44.16505" lon="3.15096">
        <ele>795.6</ele>
        <time>2021-04-23T16:06:09Z</time>
      </trkpt>
      <trkpt lat="44.16508" lon="3.151">
        <ele>795.8</ele>
        <time>2021-04-23T16:06:10Z</time>
      </trkpt>
      <trkpt lat="44.16514" lon="3.15112">
        <ele>796.2</ele>
        <time>2021-04-23T16:06:12Z</time>
      </trkpt>
      <trkpt lat="44.16517" lon="3.15118">
        <ele>796.5</ele>
        <time>2021-04-23T16:06:13Z</time>
      </trkpt>
      <trkpt lat="44.1652" lon="3.15121">
        <ele>796.6</ele>
        <time>2021-04-23T16:06:14Z</time>
      </trkpt>
      <trkpt lat="44.16525" lon="3.15125">
        <ele>796.8</ele>
        <time>2021-04-23T16:06:15Z</time>
      </trkpt>
      <trkpt lat="44.16532" lon="3.15128">
        <ele>797.1</ele>
        <time>2021-04-23T16:06:17Z</time>
      </trkpt>
      <trkpt lat="44.16536" lon="3.1513">
        <ele>797.3</ele>
        <time>2021-04-23T16:06:18Z</time>
      </trkpt>
      <trkpt lat="44.1654" lon="3.15131">
        <ele>797.5</ele>
        <time>2021-04-23T16:06:19Z</time>
      </trkpt>
      <trkpt lat="44.16543" lon="3.15133">
        <ele>797.6</ele>
        <time>2021-04-23T16:06:21Z</time>
      </trkpt>
      <trkpt lat="44.16539" lon="3.15132">
        <ele>797.8</ele>
        <time>2021-04-23T16:06:22Z</time>
      </trkpt>
      <trkpt lat="44.16538" lon="3.15132">
        <ele>797.8</ele>
        <time>2021-04-23T16:06:23Z</time>
      </trkpt>
      <trkpt lat="44.16538" lon="3.15132">
        <ele>797.9</ele>
        <time>2021-04-23T16:06:25Z</time>
      </trkpt>
      <trkpt lat="44.16538" lon="3.15132">
        <ele>797.9</ele>
        <time>2021-04-23T16:06:26Z</time>
      </trkpt>
      <trkpt lat="44.16536" lon="3.15131">
        <ele>797.9</ele>
        <time>2021-04-23T16:06:27Z</time>
      </trkpt>
      <trkpt lat="44.16533" lon="3.15129">
        <ele>798.1</ele>
        <time>2021-04-23T16:06:29Z</time>
      </trkpt>
      <trkpt lat="44.16529" lon="3.15126">
        <ele>798.3</ele>
        <time>2021-04-23T16:06:30Z</time>
      </trkpt>
      <trkpt lat="44.16526" lon="3.15122">
        <ele>797.7</ele>
        <time>2021-04-23T16:06:31Z</time>
      </trkpt>
      <trkpt lat="44.16521" lon="3.15116">
        <ele>797</ele>
        <time>2021-04-23T16:06:33Z</time>
      </trkpt>
      <trkpt lat="44.16517" lon="3.15095">
        <ele>795.6</ele>
        <time>2021-04-23T16:06:35Z</time>
      </trkpt>
      <trkpt lat="44.16519" lon="3.15086">
        <ele>795</ele>
        <time>2021-04-23T16:06:36Z</time>
      </trkpt>
      <trkpt lat="44.16524" lon="3.15072">
        <ele>794</ele>
        <time>2021-04-23T16:06:38Z</time>
      </trkpt>
      <trkpt lat="44.16528" lon="3.15057">
        <ele>793.1</ele>
        <time>2021-04-23T16:06:40Z</time>
      </trkpt>
      <trkpt lat="44.1653" lon="3.1504">
        <ele>792.2</ele>
        <time>2021-04-23T16:06:42Z</time>
      </trkpt>
      <trkpt lat="44.16529" lon="3.15031">
        <ele>791.7</ele>
        <time>2021-04-23T16:06:43Z</time>
      </trkpt>
      <trkpt lat="44.16527" lon="3.15023">
        <ele>791.2</ele>
        <time>2021-04-23T16:06:44Z</time>
      </trkpt>
      <trkpt lat="44.16525" lon="3.15014">
        <ele>790.8</ele>
        <time>2021-04-23T16:06:45Z</time>
      </trkpt>
      <trkpt lat="44.16521" lon="3.14997">
        <ele>790</ele>
        <time>2021-04-23T16:06:47Z</time>
      </trkpt>
      <trkpt lat="44.16524" lon="3.14981">
        <ele>789.3</ele>
        <time>2021-04-23T16:06:49Z</time>
      </trkpt>
      <trkpt lat="44.16526" lon="3.14973">
        <ele>789</ele>
        <time>2021-04-23T16:06:50Z</time>
      </trkpt>
      <trkpt lat="44.16527" lon="3.14965">
        <ele>788.5</ele>
        <time>2021-04-23T16:06:51Z</time>
      </trkpt>
      <trkpt lat="44.1653" lon="3.14951">
        <ele>787.5</ele>
        <time>2021-04-23T16:06:53Z</time>
      </trkpt>
      <trkpt lat="44.16529" lon="3.14937">
        <ele>786.3</ele>
        <time>2021-04-23T16:06:55Z</time>
      </trkpt>
      <trkpt lat="44.16527" lon="3.1493">
        <ele>785.5</ele>
        <time>2021-04-23T16:06:56Z</time>
      </trkpt>
      <trkpt lat="44.1652" lon="3.14921">
        <ele>784.3</ele>
        <time>2021-04-23T16:06:58Z</time>
      </trkpt>
      <trkpt lat="44.16515" lon="3.14904">
        <ele>782.6</ele>
        <time>2021-04-23T16:07:00Z</time>
      </trkpt>
      <trkpt lat="44.16513" lon="3.14899">
        <ele>782</ele>
        <time>2021-04-23T16:07:02Z</time>
      </trkpt>
      <trkpt lat="44.16513" lon="3.14894">
        <ele>781.7</ele>
        <time>2021-04-23T16:07:03Z</time>
      </trkpt>
      <trkpt lat="44.16513" lon="3.14886">
        <ele>781</ele>
        <time>2021-04-23T16:07:05Z</time>
      </trkpt>
      <trkpt lat="44.16514" lon="3.1488">
        <ele>780.5</ele>
        <time>2021-04-23T16:07:06Z</time>
      </trkpt>
      <trkpt lat="44.16512" lon="3.14864">
        <ele>779.5</ele>
        <time>2021-04-23T16:07:07Z</time>
      </trkpt>
      <trkpt lat="44.16512" lon="3.14858">
        <ele>779.1</ele>
        <time>2021-04-23T16:07:08Z</time>
      </trkpt>
      <trkpt lat="44.16512" lon="3.14852">
        <ele>778.8</ele>
        <time>2021-04-23T16:07:10Z</time>
      </trkpt>
      <trkpt lat="44.16512" lon="3.14849">
        <ele>778.6</ele>
        <time>2021-04-23T16:07:11Z</time>
      </trkpt>
      <trkpt lat="44.16515" lon="3.14837">
        <ele>777.9</ele>
        <time>2021-04-23T16:07:13Z</time>
      </trkpt>
      <trkpt lat="44.16518" lon="3.1483">
        <ele>777.3</ele>
        <time>2021-04-23T16:07:14Z</time>
      </trkpt>
      <trkpt lat="44.16519" lon="3.14824">
        <ele>776.9</ele>
        <time>2021-04-23T16:07:15Z</time>
      </trkpt>
      <trkpt lat="44.1652" lon="3.14808">
        <ele>775.7</ele>
        <time>2021-04-23T16:07:17Z</time>
      </trkpt>
      <trkpt lat="44.16521" lon="3.14801">
        <ele>775.1</ele>
        <time>2021-04-23T16:07:18Z</time>
      </trkpt>
      <trkpt lat="44.16524" lon="3.14794">
        <ele>774.3</ele>
        <time>2021-04-23T16:07:20Z</time>
      </trkpt>
      <trkpt lat="44.16526" lon="3.14791">
        <ele>773.8</ele>
        <time>2021-04-23T16:07:21Z</time>
      </trkpt>
      <trkpt lat="44.16528" lon="3.1478">
        <ele>772.6</ele>
        <time>2021-04-23T16:07:23Z</time>
      </trkpt>
      <trkpt lat="44.16529" lon="3.14772">
        <ele>771.7</ele>
        <time>2021-04-23T16:07:24Z</time>
      </trkpt>
      <trkpt lat="44.16533" lon="3.14754">
        <ele>769.7</ele>
        <time>2021-04-23T16:07:25Z</time>
      </trkpt>
      <trkpt lat="44.16536" lon="3.14748">
        <ele>768.9</ele>
        <time>2021-04-23T16:07:26Z</time>
      </trkpt>
      <trkpt lat="44.16539" lon="3.14736">
        <ele>767.4</ele>
        <time>2021-04-23T16:07:28Z</time>
      </trkpt>
      <trkpt lat="44.16541" lon="3.14734">
        <ele>766.9</ele>
        <time>2021-04-23T16:07:29Z</time>
      </trkpt>
      <trkpt lat="44.1655" lon="3.14726">
        <ele>765</ele>
        <time>2021-04-23T16:07:31Z</time>
      </trkpt>
      <trkpt lat="44.16563" lon="3.14718">
        <ele>762.5</ele>
        <time>2021-04-23T16:07:33Z</time>
      </trkpt>
      <trkpt lat="44.16576" lon="3.1471">
        <ele>759.9</ele>
        <time>2021-04-23T16:07:35Z</time>
      </trkpt>
      <trkpt lat="44.16581" lon="3.14707">
        <ele>759</ele>
        <time>2021-04-23T16:07:36Z</time>
      </trkpt>
      <trkpt lat="44.16584" lon="3.14708">
        <ele>758.4</ele>
        <time>2021-04-23T16:07:38Z</time>
      </trkpt>
      <trkpt lat="44.16588" lon="3.14706">
        <ele>757.5</ele>
        <time>2021-04-23T16:07:39Z</time>
      </trkpt>
      <trkpt lat="44.16596" lon="3.14704">
        <ele>755.8</ele>
        <time>2021-04-23T16:07:40Z</time>
      </trkpt>
      <trkpt lat="44.16607" lon="3.14699">
        <ele>753.6</ele>
        <time>2021-04-23T16:07:42Z</time>
      </trkpt>
      <trkpt lat="44.16614" lon="3.14693">
        <ele>752</ele>
        <time>2021-04-23T16:07:44Z</time>
      </trkpt>
      <trkpt lat="44.1662" lon="3.14691">
        <ele>750.9</ele>
        <time>2021-04-23T16:07:46Z</time>
      </trkpt>
      <trkpt lat="44.16626" lon="3.14689">
        <ele>749.6</ele>
        <time>2021-04-23T16:07:47Z</time>
      </trkpt>
      <trkpt lat="44.16632" lon="3.14689">
        <ele>748.3</ele>
        <time>2021-04-23T16:07:48Z</time>
      </trkpt>
      <trkpt lat="44.16638" lon="3.14689">
        <ele>746.9</ele>
        <time>2021-04-23T16:07:50Z</time>
      </trkpt>
      <trkpt lat="44.16642" lon="3.14687">
        <ele>745.9</ele>
        <time>2021-04-23T16:07:51Z</time>
      </trkpt>
      <trkpt lat="44.16647" lon="3.14686">
        <ele>744.7</ele>
        <time>2021-04-23T16:07:52Z</time>
      </trkpt>
      <trkpt lat="44.16653" lon="3.14686">
        <ele>743.2</ele>
        <time>2021-04-23T16:07:54Z</time>
      </trkpt>
      <trkpt lat="44.16659" lon="3.14687">
        <ele>742.1</ele>
        <time>2021-04-23T16:07:56Z</time>
      </trkpt>
      <trkpt lat="44.16665" lon="3.14688">
        <ele>740.8</ele>
        <time>2021-04-23T16:07:57Z</time>
      </trkpt>
      <trkpt lat="44.1667" lon="3.1469">
        <ele>739.6</ele>
        <time>2021-04-23T16:07:59Z</time>
      </trkpt>
      <trkpt lat="44.16675" lon="3.14693">
        <ele>738.6</ele>
        <time>2021-04-23T16:08:00Z</time>
      </trkpt>
      <trkpt lat="44.16681" lon="3.14693">
        <ele>737.4</ele>
        <time>2021-04-23T16:08:01Z</time>
      </trkpt>
      <trkpt lat="44.16684" lon="3.14692">
        <ele>736.7</ele>
        <time>2021-04-23T16:08:02Z</time>
      </trkpt>
      <trkpt lat="44.16686" lon="3.1469">
        <ele>736</ele>
        <time>2021-04-23T16:08:03Z</time>
      </trkpt>
      <trkpt lat="44.16686" lon="3.14688">
        <ele>735.8</ele>
        <time>2021-04-23T16:08:04Z</time>
      </trkpt>
      <trkpt lat="44.16687" lon="3.14686">
        <ele>735.4</ele>
        <time>2021-04-23T16:08:05Z</time>
      </trkpt>
      <trkpt lat="44.16686" lon="3.14682">
        <ele>734.6</ele>
        <time>2021-04-23T16:08:07Z</time>
      </trkpt>
      <trkpt lat="44.16684" lon="3.14677">
        <ele>733.5</ele>
        <time>2021-04-23T16:08:08Z</time>
      </trkpt>
      <trkpt lat="44.1668" lon="3.14672">
        <ele>731.9</ele>
        <time>2021-04-23T16:08:09Z</time>
      </trkpt>
      <trkpt lat="44.16676" lon="3.14666">
        <ele>730.3</ele>
        <time>2021-04-23T16:08:10Z</time>
      </trkpt>
      <trkpt lat="44.16672" lon="3.14661">
        <ele>728.7</ele>
        <time>2021-04-23T16:08:11Z</time>
      </trkpt>
      <trkpt lat="44.16667" lon="3.14656">
        <ele>726.7</ele>
        <time>2021-04-23T16:08:13Z</time>
      </trkpt>
      <trkpt lat="44.16664" lon="3.14652">
        <ele>725.6</ele>
        <time>2021-04-23T16:08:14Z</time>
      </trkpt>
      <trkpt lat="44.16662" lon="3.14649">
        <ele>724.6</ele>
        <time>2021-04-23T16:08:15Z</time>
      </trkpt>
      <trkpt lat="44.1666" lon="3.14644">
        <ele>722.8</ele>
        <time>2021-04-23T16:08:17Z</time>
      </trkpt>
      <trkpt lat="44.16658" lon="3.14641">
        <ele>721.6</ele>
        <time>2021-04-23T16:08:18Z</time>
      </trkpt>
      <trkpt lat="44.16658" lon="3.14637">
        <ele>720.4</ele>
        <time>2021-04-23T16:08:20Z</time>
      </trkpt>
      <trkpt lat="44.16657" lon="3.14636">
        <ele>719.9</ele>
        <time>2021-04-23T16:08:21Z</time>
      </trkpt>
      <trkpt lat="44.16657" lon="3.14634">
        <ele>719.4</ele>
        <time>2021-04-23T16:08:22Z</time>
      </trkpt>
      <trkpt lat="44.16656" lon="3.14633">
        <ele>718.9</ele>
        <time>2021-04-23T16:08:24Z</time>
      </trkpt>
      <trkpt lat="44.16655" lon="3.14632">
        <ele>718.4</ele>
        <time>2021-04-23T16:08:26Z</time>
      </trkpt>
      <trkpt lat="44.16655" lon="3.1463">
        <ele>717.9</ele>
        <time>2021-04-23T16:08:27Z</time>
      </trkpt>
      <trkpt lat="44.16654" lon="3.14629">
        <ele>717.5</ele>
        <time>2021-04-23T16:08:29Z</time>
      </trkpt>
      <trkpt lat="44.16653" lon="3.14628">
        <ele>717</ele>
        <time>2021-04-23T16:08:30Z</time>
      </trkpt>
      <trkpt lat="44.16653" lon="3.14626">
        <ele>716.6</ele>
        <time>2021-04-23T16:09:25Z</time>
      </trkpt>
      <trkpt lat="44.16652" lon="3.14625">
        <ele>716.1</ele>
        <time>2021-04-23T16:09:26Z</time>
      </trkpt>
      <trkpt lat="44.16655" lon="3.14621">
        <ele>714.7</ele>
        <time>2021-04-23T16:09:28Z</time>
      </trkpt>
      <trkpt lat="44.16669" lon="3.14619">
        <ele>710.1</ele>
        <time>2021-04-23T16:09:29Z</time>
      </trkpt>
      <trkpt lat="44.1668" lon="3.14624">
        <ele>706.2</ele>
        <time>2021-04-23T16:09:31Z</time>
      </trkpt>
      <trkpt lat="44.16685" lon="3.14626">
        <ele>704.8</ele>
        <time>2021-04-23T16:09:32Z</time>
      </trkpt>
      <trkpt lat="44.16687" lon="3.14626">
        <ele>704</ele>
        <time>2021-04-23T16:09:33Z</time>
      </trkpt>
      <trkpt lat="44.16691" lon="3.14625">
        <ele>702.9</ele>
        <time>2021-04-23T16:09:35Z</time>
      </trkpt>
      <trkpt lat="44.16694" lon="3.14622">
        <ele>701.9</ele>
        <time>2021-04-23T16:09:36Z</time>
      </trkpt>
      <trkpt lat="44.16694" lon="3.14621">
        <ele>701.6</ele>
        <time>2021-04-23T16:09:37Z</time>
      </trkpt>
      <trkpt lat="44.16689" lon="3.14611">
        <ele>699.2</ele>
        <time>2021-04-23T16:09:39Z</time>
      </trkpt>
      <trkpt lat="44.16685" lon="3.14606">
        <ele>697.6</ele>
        <time>2021-04-23T16:09:40Z</time>
      </trkpt>
      <trkpt lat="44.16685" lon="3.14601">
        <ele>696.6</ele>
        <time>2021-04-23T16:09:41Z</time>
      </trkpt>
      <trkpt lat="44.16685" lon="3.146">
        <ele>696.3</ele>
        <time>2021-04-23T16:09:42Z</time>
      </trkpt>
      <trkpt lat="44.16687" lon="3.14598">
        <ele>695.8</ele>
        <time>2021-04-23T16:09:43Z</time>
      </trkpt>
      <trkpt lat="44.16692" lon="3.14599">
        <ele>694.1</ele>
        <time>2021-04-23T16:09:45Z</time>
      </trkpt>
      <trkpt lat="44.16694" lon="3.14599">
        <ele>693.2</ele>
        <time>2021-04-23T16:09:46Z</time>
      </trkpt>
      <trkpt lat="44.16695" lon="3.14595">
        <ele>692.2</ele>
        <time>2021-04-23T16:09:48Z</time>
      </trkpt>
      <trkpt lat="44.16693" lon="3.14586">
        <ele>689.7</ele>
        <time>2021-04-23T16:09:50Z</time>
      </trkpt>
      <trkpt lat="44.16692" lon="3.14582">
        <ele>688.6</ele>
        <time>2021-04-23T16:09:51Z</time>
      </trkpt>
      <trkpt lat="44.16697" lon="3.1458">
        <ele>686.8</ele>
        <time>2021-04-23T16:09:53Z</time>
      </trkpt>
      <trkpt lat="44.167" lon="3.14582">
        <ele>685.7</ele>
        <time>2021-04-23T16:09:54Z</time>
      </trkpt>
      <trkpt lat="44.16707" lon="3.14583">
        <ele>683.3</ele>
        <time>2021-04-23T16:09:56Z</time>
      </trkpt>
      <trkpt lat="44.1671" lon="3.14581">
        <ele>682.1</ele>
        <time>2021-04-23T16:09:57Z</time>
      </trkpt>
      <trkpt lat="44.16712" lon="3.14576">
        <ele>680.9</ele>
        <time>2021-04-23T16:09:59Z</time>
      </trkpt>
      <trkpt lat="44.16711" lon="3.1457">
        <ele>679.5</ele>
        <time>2021-04-23T16:10:00Z</time>
      </trkpt>
      <trkpt lat="44.16701" lon="3.14564">
        <ele>676.9</ele>
        <time>2021-04-23T16:10:01Z</time>
      </trkpt>
      <trkpt lat="44.16696" lon="3.14562">
        <ele>676.1</ele>
        <time>2021-04-23T16:10:02Z</time>
      </trkpt>
      <trkpt lat="44.16692" lon="3.14559">
        <ele>675.5</ele>
        <time>2021-04-23T16:10:03Z</time>
      </trkpt>
      <trkpt lat="44.16689" lon="3.14556">
        <ele>675.1</ele>
        <time>2021-04-23T16:10:04Z</time>
      </trkpt>
      <trkpt lat="44.1669" lon="3.14553">
        <ele>674.9</ele>
        <time>2021-04-23T16:10:06Z</time>
      </trkpt>
      <trkpt lat="44.16693" lon="3.1455">
        <ele>674.6</ele>
        <time>2021-04-23T16:10:07Z</time>
      </trkpt>
      <trkpt lat="44.16698" lon="3.14546">
        <ele>674.3</ele>
        <time>2021-04-23T16:10:09Z</time>
      </trkpt>
      <trkpt lat="44.16701" lon="3.14547">
        <ele>674.2</ele>
        <time>2021-04-23T16:10:10Z</time>
      </trkpt>
      <trkpt lat="44.16708" lon="3.14546">
        <ele>674</ele>
        <time>2021-04-23T16:10:12Z</time>
      </trkpt>
      <trkpt lat="44.16711" lon="3.14545">
        <ele>673.9</ele>
        <time>2021-04-23T16:10:13Z</time>
      </trkpt>
      <trkpt lat="44.16717" lon="3.14543">
        <ele>673.7</ele>
        <time>2021-04-23T16:10:15Z</time>
      </trkpt>
      <trkpt lat="44.16723" lon="3.14543">
        <ele>673.4</ele>
        <time>2021-04-23T16:10:16Z</time>
      </trkpt>
      <trkpt lat="44.16729" lon="3.14541">
        <ele>673.1</ele>
        <time>2021-04-23T16:10:18Z</time>
      </trkpt>
      <trkpt lat="44.16733" lon="3.1454">
        <ele>672.7</ele>
        <time>2021-04-23T16:10:19Z</time>
      </trkpt>
      <trkpt lat="44.16737" lon="3.1454">
        <ele>672.2</ele>
        <time>2021-04-23T16:10:21Z</time>
      </trkpt>
      <trkpt lat="44.16747" lon="3.1454">
        <ele>670.9</ele>
        <time>2021-04-23T16:10:22Z</time>
      </trkpt>
      <trkpt lat="44.16756" lon="3.14527">
        <ele>669.1</ele>
        <time>2021-04-23T16:10:24Z</time>
      </trkpt>
      <trkpt lat="44.16764" lon="3.14516">
        <ele>666.7</ele>
        <time>2021-04-23T16:10:26Z</time>
      </trkpt>
      <trkpt lat="44.16773" lon="3.14508">
        <ele>664.8</ele>
        <time>2021-04-23T16:10:28Z</time>
      </trkpt>
      <trkpt lat="44.16782" lon="3.14499">
        <ele>663</ele>
        <time>2021-04-23T16:10:30Z</time>
      </trkpt>
      <trkpt lat="44.16785" lon="3.14493">
        <ele>662.1</ele>
        <time>2021-04-23T16:10:31Z</time>
      </trkpt>
      <trkpt lat="44.16795" lon="3.14484">
        <ele>660.3</ele>
        <time>2021-04-23T16:10:33Z</time>
      </trkpt>
      <trkpt lat="44.16801" lon="3.14483">
        <ele>659.2</ele>
        <time>2021-04-23T16:10:34Z</time>
      </trkpt>
      <trkpt lat="44.16814" lon="3.14479">
        <ele>656.6</ele>
        <time>2021-04-23T16:10:36Z</time>
      </trkpt>
      <trkpt lat="44.16827" lon="3.1448">
        <ele>654.4</ele>
        <time>2021-04-23T16:10:38Z</time>
      </trkpt>
      <trkpt lat="44.16834" lon="3.14479">
        <ele>653.3</ele>
        <time>2021-04-23T16:10:39Z</time>
      </trkpt>
      <trkpt lat="44.16841" lon="3.14477">
        <ele>652.3</ele>
        <time>2021-04-23T16:10:40Z</time>
      </trkpt>
      <trkpt lat="44.16854" lon="3.14475">
        <ele>650.4</ele>
        <time>2021-04-23T16:10:42Z</time>
      </trkpt>
      <trkpt lat="44.16863" lon="3.14471">
        <ele>647</ele>
        <time>2021-04-23T16:10:44Z</time>
      </trkpt>
      <trkpt lat="44.16872" lon="3.14465">
        <ele>640.9</ele>
        <time>2021-04-23T16:10:46Z</time>
      </trkpt>
      <trkpt lat="44.16876" lon="3.14461">
        <ele>636.9</ele>
        <time>2021-04-23T16:10:47Z</time>
      </trkpt>
      <trkpt lat="44.16881" lon="3.14456">
        <ele>634.5</ele>
        <time>2021-04-23T16:10:49Z</time>
      </trkpt>
      <trkpt lat="44.16884" lon="3.14454">
        <ele>632.5</ele>
        <time>2021-04-23T16:10:50Z</time>
      </trkpt>
      <trkpt lat="44.16885" lon="3.14454">
        <ele>630.5</ele>
        <time>2021-04-23T16:10:51Z</time>
      </trkpt>
      <trkpt lat="44.16886" lon="3.14454">
        <ele>630.1</ele>
        <time>2021-04-23T16:10:53Z</time>
      </trkpt>
      <trkpt lat="44.16886" lon="3.14454">
        <ele>629.3</ele>
        <time>2021-04-23T16:10:55Z</time>
      </trkpt>
      <trkpt lat="44.16886" lon="3.14453">
        <ele>628.9</ele>
        <time>2021-04-23T16:10:57Z</time>
      </trkpt>
      <trkpt lat="44.16886" lon="3.14453">
        <ele>628.5</ele>
        <time>2021-04-23T16:10:58Z</time>
      </trkpt>
      <trkpt lat="44.16885" lon="3.14453">
        <ele>628.1</ele>
        <time>2021-04-23T16:10:59Z</time>
      </trkpt>
      <trkpt lat="44.16885" lon="3.14452">
        <ele>629.3</ele>
        <time>2021-04-23T16:11:00Z</time>
      </trkpt>
      <trkpt lat="44.16884" lon="3.14451">
        <ele>628.9</ele>
        <time>2021-04-23T16:11:01Z</time>
      </trkpt>
      <trkpt lat="44.16884" lon="3.1445">
        <ele>628.5</ele>
        <time>2021-04-23T16:11:04Z</time>
      </trkpt>
      <trkpt lat="44.1688" lon="3.14458">
        <ele>630.5</ele>
        <time>2021-04-23T16:11:13Z</time>
      </trkpt>
      <trkpt lat="44.16876" lon="3.14465">
        <ele>632.2</ele>
        <time>2021-04-23T16:11:15Z</time>
      </trkpt>
      <trkpt lat="44.16875" lon="3.14469">
        <ele>633.9</ele>
        <time>2021-04-23T16:11:16Z</time>
      </trkpt>
      <trkpt lat="44.16874" lon="3.14474">
        <ele>634.2</ele>
        <time>2021-04-23T16:11:18Z</time>
      </trkpt>
      <trkpt lat="44.16875" lon="3.14479">
        <ele>633.3</ele>
        <time>2021-04-23T16:11:19Z</time>
      </trkpt>
      <trkpt lat="44.16882" lon="3.14479">
        <ele>630.4</ele>
        <time>2021-04-23T16:11:21Z</time>
      </trkpt>
      <trkpt lat="44.16887" lon="3.14477">
        <ele>629.3</ele>
        <time>2021-04-23T16:11:22Z</time>
      </trkpt>
      <trkpt lat="44.16893" lon="3.14475">
        <ele>628.1</ele>
        <time>2021-04-23T16:11:23Z</time>
      </trkpt>
      <trkpt lat="44.16899" lon="3.14472">
        <ele>627</ele>
        <time>2021-04-23T16:11:24Z</time>
      </trkpt>
      <trkpt lat="44.16908" lon="3.14467">
        <ele>625.1</ele>
        <time>2021-04-23T16:11:26Z</time>
      </trkpt>
      <trkpt lat="44.16912" lon="3.14463">
        <ele>623.9</ele>
        <time>2021-04-23T16:11:27Z</time>
      </trkpt>
      <trkpt lat="44.16921" lon="3.14446">
        <ele>621.1</ele>
        <time>2021-04-23T16:11:29Z</time>
      </trkpt>
      <trkpt lat="44.16926" lon="3.14437">
        <ele>619.6</ele>
        <time>2021-04-23T16:11:30Z</time>
      </trkpt>
      <trkpt lat="44.16934" lon="3.14417">
        <ele>616.6</ele>
        <time>2021-04-23T16:11:32Z</time>
      </trkpt>
      <trkpt lat="44.16947" lon="3.14395">
        <ele>613.1</ele>
        <time>2021-04-23T16:11:34Z</time>
      </trkpt>
      <trkpt lat="44.16954" lon="3.14384">
        <ele>611.3</ele>
        <time>2021-04-23T16:11:35Z</time>
      </trkpt>
      <trkpt lat="44.16962" lon="3.14373">
        <ele>609.6</ele>
        <time>2021-04-23T16:11:36Z</time>
      </trkpt>
      <trkpt lat="44.16973" lon="3.14352">
        <ele>607.6</ele>
        <time>2021-04-23T16:11:38Z</time>
      </trkpt>
      <trkpt lat="44.16977" lon="3.14344">
        <ele>606.7</ele>
        <time>2021-04-23T16:11:39Z</time>
      </trkpt>
      <trkpt lat="44.1698" lon="3.14336">
        <ele>605.7</ele>
        <time>2021-04-23T16:11:40Z</time>
      </trkpt>
      <trkpt lat="44.16981" lon="3.14322">
        <ele>603.8</ele>
        <time>2021-04-23T16:11:42Z</time>
      </trkpt>
      <trkpt lat="44.16977" lon="3.14314">
        <ele>602.5</ele>
        <time>2021-04-23T16:11:44Z</time>
      </trkpt>
      <trkpt lat="44.16975" lon="3.14307">
        <ele>601.7</ele>
        <time>2021-04-23T16:11:45Z</time>
      </trkpt>
      <trkpt lat="44.16974" lon="3.14301">
        <ele>601.2</ele>
        <time>2021-04-23T16:11:46Z</time>
      </trkpt>
      <trkpt lat="44.16977" lon="3.14296">
        <ele>601</ele>
        <time>2021-04-23T16:11:48Z</time>
      </trkpt>
      <trkpt lat="44.16981" lon="3.14291">
        <ele>600.9</ele>
        <time>2021-04-23T16:11:49Z</time>
      </trkpt>
      <trkpt lat="44.16983" lon="3.1429">
        <ele>600.8</ele>
        <time>2021-04-23T16:11:51Z</time>
      </trkpt>
      <trkpt lat="44.16988" lon="3.14288">
        <ele>600.8</ele>
        <time>2021-04-23T16:11:52Z</time>
      </trkpt>
      <trkpt lat="44.16991" lon="3.14288">
        <ele>600.8</ele>
        <time>2021-04-23T16:11:54Z</time>
      </trkpt>
      <trkpt lat="44.16994" lon="3.14289">
        <ele>600.7</ele>
        <time>2021-04-23T16:11:55Z</time>
      </trkpt>
      <trkpt lat="44.16999" lon="3.1429">
        <ele>600.6</ele>
        <time>2021-04-23T16:11:57Z</time>
      </trkpt>
      <trkpt lat="44.17001" lon="3.14291">
        <ele>600.5</ele>
        <time>2021-04-23T16:11:58Z</time>
      </trkpt>
      <trkpt lat="44.17006" lon="3.14295">
        <ele>600.3</ele>
        <time>2021-04-23T16:12:00Z</time>
      </trkpt>
      <trkpt lat="44.1701" lon="3.143">
        <ele>600.1</ele>
        <time>2021-04-23T16:12:01Z</time>
      </trkpt>
      <trkpt lat="44.17014" lon="3.14304">
        <ele>600.1</ele>
        <time>2021-04-23T16:12:02Z</time>
      </trkpt>
      <trkpt lat="44.17017" lon="3.14307">
        <ele>600.1</ele>
        <time>2021-04-23T16:12:03Z</time>
      </trkpt>
      <trkpt lat="44.17021" lon="3.1431">
        <ele>600.2</ele>
        <time>2021-04-23T16:12:04Z</time>
      </trkpt>
      <trkpt lat="44.17024" lon="3.14312">
        <ele>600.3</ele>
        <time>2021-04-23T16:12:05Z</time>
      </trkpt>
      <trkpt lat="44.17028" lon="3.14311">
        <ele>600.5</ele>
        <time>2021-04-23T16:12:07Z</time>
      </trkpt>
      <trkpt lat="44.1703" lon="3.1431">
        <ele>600.5</ele>
        <time>2021-04-23T16:12:08Z</time>
      </trkpt>
      <trkpt lat="44.17031" lon="3.14308">
        <ele>600.6</ele>
        <time>2021-04-23T16:12:09Z</time>
      </trkpt>
      <trkpt lat="44.17037" lon="3.14304">
        <ele>600.7</ele>
        <time>2021-04-23T16:12:11Z</time>
      </trkpt>
      <trkpt lat="44.1704" lon="3.14302">
        <ele>600.7</ele>
        <time>2021-04-23T16:12:12Z</time>
      </trkpt>
      <trkpt lat="44.17044" lon="3.143">
        <ele>600.6</ele>
        <time>2021-04-23T16:12:14Z</time>
      </trkpt>
      <trkpt lat="44.17048" lon="3.14298">
        <ele>600.5</ele>
        <time>2021-04-23T16:12:15Z</time>
      </trkpt>
      <trkpt lat="44.17053" lon="3.14295">
        <ele>600.2</ele>
        <time>2021-04-23T16:12:16Z</time>
      </trkpt>
      <trkpt lat="44.17058" lon="3.14293">
        <ele>599.5</ele>
        <time>2021-04-23T16:12:17Z</time>
      </trkpt>
      <trkpt lat="44.17073" lon="3.14286">
        <ele>596.1</ele>
        <time>2021-04-23T16:12:19Z</time>
      </trkpt>
      <trkpt lat="44.1708" lon="3.14283">
        <ele>594.5</ele>
        <time>2021-04-23T16:12:20Z</time>
      </trkpt>
      <trkpt lat="44.17087" lon="3.14279">
        <ele>592.9</ele>
        <time>2021-04-23T16:12:21Z</time>
      </trkpt>
      <trkpt lat="44.17095" lon="3.14276">
        <ele>591.1</ele>
        <time>2021-04-23T16:12:22Z</time>
      </trkpt>
      <trkpt lat="44.17113" lon="3.14267">
        <ele>587.2</ele>
        <time>2021-04-23T16:12:24Z</time>
      </trkpt>
      <trkpt lat="44.17128" lon="3.14252">
        <ele>583.2</ele>
        <time>2021-04-23T16:12:26Z</time>
      </trkpt>
      <trkpt lat="44.17132" lon="3.14243">
        <ele>581.6</ele>
        <time>2021-04-23T16:12:27Z</time>
      </trkpt>
      <trkpt lat="44.17137" lon="3.14236">
        <ele>580</ele>
        <time>2021-04-23T16:12:28Z</time>
      </trkpt>
      <trkpt lat="44.17149" lon="3.14224">
        <ele>576.8</ele>
        <time>2021-04-23T16:12:30Z</time>
      </trkpt>
      <trkpt lat="44.17163" lon="3.14214">
        <ele>573.6</ele>
        <time>2021-04-23T16:12:32Z</time>
      </trkpt>
      <trkpt lat="44.17169" lon="3.14211">
        <ele>572.2</ele>
        <time>2021-04-23T16:12:33Z</time>
      </trkpt>
      <trkpt lat="44.17174" lon="3.14207">
        <ele>570.8</ele>
        <time>2021-04-23T16:12:34Z</time>
      </trkpt>
      <trkpt lat="44.17185" lon="3.14196">
        <ele>567.9</ele>
        <time>2021-04-23T16:12:36Z</time>
      </trkpt>
      <trkpt lat="44.17196" lon="3.14185">
        <ele>565.1</ele>
        <time>2021-04-23T16:12:38Z</time>
      </trkpt>
      <trkpt lat="44.17203" lon="3.14173">
        <ele>562.8</ele>
        <time>2021-04-23T16:12:40Z</time>
      </trkpt>
      <trkpt lat="44.17205" lon="3.14168">
        <ele>561.8</ele>
        <time>2021-04-23T16:12:41Z</time>
      </trkpt>
      <trkpt lat="44.17209" lon="3.14163">
        <ele>560.7</ele>
        <time>2021-04-23T16:12:42Z</time>
      </trkpt>
      <trkpt lat="44.17219" lon="3.14153">
        <ele>558</ele>
        <time>2021-04-23T16:12:44Z</time>
      </trkpt>
      <trkpt lat="44.17231" lon="3.14145">
        <ele>555.3</ele>
        <time>2021-04-23T16:12:46Z</time>
      </trkpt>
      <trkpt lat="44.17237" lon="3.14141">
        <ele>553.9</ele>
        <time>2021-04-23T16:12:47Z</time>
      </trkpt>
      <trkpt lat="44.17247" lon="3.14136">
        <ele>551.6</ele>
        <time>2021-04-23T16:12:49Z</time>
      </trkpt>
      <trkpt lat="44.17251" lon="3.14134">
        <ele>550.6</ele>
        <time>2021-04-23T16:12:50Z</time>
      </trkpt>
      <trkpt lat="44.17253" lon="3.14132">
        <ele>550.1</ele>
        <time>2021-04-23T16:12:52Z</time>
      </trkpt>
      <trkpt lat="44.17252" lon="3.1413">
        <ele>549.7</ele>
        <time>2021-04-23T16:12:54Z</time>
      </trkpt>
      <trkpt lat="44.17252" lon="3.1413">
        <ele>549.7</ele>
        <time>2021-04-23T16:12:55Z</time>
      </trkpt>
      <trkpt lat="44.17251" lon="3.14129">
        <ele>549.5</ele>
        <time>2021-04-23T16:12:56Z</time>
      </trkpt>
      <trkpt lat="44.17251" lon="3.14128">
        <ele>549.3</ele>
        <time>2021-04-23T16:12:58Z</time>
      </trkpt>
      <trkpt lat="44.17251" lon="3.14128">
        <ele>549.3</ele>
        <time>2021-04-23T16:12:59Z</time>
      </trkpt>
      <trkpt lat="44.17251" lon="3.14128">
        <ele>549.3</ele>
        <time>2021-04-23T16:13:00Z</time>
      </trkpt>
      <trkpt lat="44.1725" lon="3.14128">
        <ele>549.1</ele>
        <time>2021-04-23T16:13:02Z</time>
      </trkpt>
      <trkpt lat="44.1725" lon="3.14128">
        <ele>549</ele>
        <time>2021-04-23T16:13:03Z</time>
      </trkpt>
      <trkpt lat="44.1725" lon="3.14129">
        <ele>549</ele>
        <time>2021-04-23T16:13:05Z</time>
      </trkpt>
      <trkpt lat="44.1725" lon="3.14129">
        <ele>548.9</ele>
        <time>2021-04-23T16:13:07Z</time>
      </trkpt>
      <trkpt lat="44.17255" lon="3.14124">
        <ele>547.7</ele>
        <time>2021-04-23T16:13:10Z</time>
      </trkpt>
      <trkpt lat="44.17261" lon="3.14122">
        <ele>546.3</ele>
        <time>2021-04-23T16:13:12Z</time>
      </trkpt>
      <trkpt lat="44.17266" lon="3.14121">
        <ele>545.3</ele>
        <time>2021-04-23T16:13:13Z</time>
      </trkpt>
      <trkpt lat="44.17275" lon="3.14118">
        <ele>543.3</ele>
        <time>2021-04-23T16:13:14Z</time>
      </trkpt>
      <trkpt lat="44.17286" lon="3.14113">
        <ele>540.8</ele>
        <time>2021-04-23T16:13:16Z</time>
      </trkpt>
      <trkpt lat="44.17291" lon="3.14108">
        <ele>539.5</ele>
        <time>2021-04-23T16:13:17Z</time>
      </trkpt>
      <trkpt lat="44.17302" lon="3.14098">
        <ele>536.6</ele>
        <time>2021-04-23T16:13:19Z</time>
      </trkpt>
      <trkpt lat="44.17318" lon="3.1409">
        <ele>533</ele>
        <time>2021-04-23T16:13:21Z</time>
      </trkpt>
      <trkpt lat="44.17332" lon="3.14082">
        <ele>529.7</ele>
        <time>2021-04-23T16:13:23Z</time>
      </trkpt>
      <trkpt lat="44.17349" lon="3.14075">
        <ele>526</ele>
        <time>2021-04-23T16:13:25Z</time>
      </trkpt>
      <trkpt lat="44.17357" lon="3.14073">
        <ele>524.2</ele>
        <time>2021-04-23T16:13:26Z</time>
      </trkpt>
      <trkpt lat="44.17372" lon="3.14068">
        <ele>520.9</ele>
        <time>2021-04-23T16:13:28Z</time>
      </trkpt>
      <trkpt lat="44.17378" lon="3.14067">
        <ele>519.6</ele>
        <time>2021-04-23T16:13:29Z</time>
      </trkpt>
      <trkpt lat="44.17384" lon="3.14066">
        <ele>518.3</ele>
        <time>2021-04-23T16:13:30Z</time>
      </trkpt>
      <trkpt lat="44.17393" lon="3.14062">
        <ele>516.4</ele>
        <time>2021-04-23T16:13:32Z</time>
      </trkpt>
      <trkpt lat="44.17396" lon="3.14063">
        <ele>515.8</ele>
        <time>2021-04-23T16:13:33Z</time>
      </trkpt>
      <trkpt lat="44.17409" lon="3.14059">
        <ele>512.9</ele>
        <time>2021-04-23T16:13:35Z</time>
      </trkpt>
      <trkpt lat="44.17414" lon="3.14055">
        <ele>511.6</ele>
        <time>2021-04-23T16:13:36Z</time>
      </trkpt>
      <trkpt lat="44.17417" lon="3.14055">
        <ele>510.9</ele>
        <time>2021-04-23T16:13:37Z</time>
      </trkpt>
      <trkpt lat="44.17429" lon="3.14056">
        <ele>508.4</ele>
        <time>2021-04-23T16:13:39Z</time>
      </trkpt>
      <trkpt lat="44.17441" lon="3.14051">
        <ele>505.8</ele>
        <time>2021-04-23T16:13:41Z</time>
      </trkpt>
      <trkpt lat="44.17446" lon="3.14047">
        <ele>504.5</ele>
        <time>2021-04-23T16:13:42Z</time>
      </trkpt>
      <trkpt lat="44.17455" lon="3.14039">
        <ele>502.3</ele>
        <time>2021-04-23T16:13:44Z</time>
      </trkpt>
      <trkpt lat="44.17458" lon="3.14041">
        <ele>501.6</ele>
        <time>2021-04-23T16:13:46Z</time>
      </trkpt>
      <trkpt lat="44.17461" lon="3.14041">
        <ele>500.9</ele>
        <time>2021-04-23T16:13:47Z</time>
      </trkpt>
      <trkpt lat="44.17466" lon="3.14044">
        <ele>499.8</ele>
        <time>2021-04-23T16:13:48Z</time>
      </trkpt>
      <trkpt lat="44.17477" lon="3.14038">
        <ele>497.2</ele>
        <time>2021-04-23T16:13:49Z</time>
      </trkpt>
      <trkpt lat="44.17489" lon="3.1404">
        <ele>494.6</ele>
        <time>2021-04-23T16:13:51Z</time>
      </trkpt>
      <trkpt lat="44.17496" lon="3.14044">
        <ele>493.1</ele>
        <time>2021-04-23T16:13:53Z</time>
      </trkpt>
      <trkpt lat="44.17503" lon="3.14041">
        <ele>491.6</ele>
        <time>2021-04-23T16:13:54Z</time>
      </trkpt>
      <trkpt lat="44.17506" lon="3.14035">
        <ele>490.8</ele>
        <time>2021-04-23T16:13:56Z</time>
      </trkpt>
      <trkpt lat="44.1751" lon="3.14031">
        <ele>490.7</ele>
        <time>2021-04-23T16:13:57Z</time>
      </trkpt>
      <trkpt lat="44.17514" lon="3.14026">
        <ele>490.7</ele>
        <time>2021-04-23T16:13:58Z</time>
      </trkpt>
      <trkpt lat="44.17518" lon="3.14021">
        <ele>490.6</ele>
        <time>2021-04-23T16:14:00Z</time>
      </trkpt>
      <trkpt lat="44.17521" lon="3.14018">
        <ele>490.5</ele>
        <time>2021-04-23T16:14:01Z</time>
      </trkpt>
      <trkpt lat="44.17523" lon="3.14014">
        <ele>490.2</ele>
        <time>2021-04-23T16:14:03Z</time>
      </trkpt>
      <trkpt lat="44.17526" lon="3.14009">
        <ele>489.8</ele>
        <time>2021-04-23T16:14:04Z</time>
      </trkpt>
      <trkpt lat="44.1753" lon="3.13994">
        <ele>488.4</ele>
        <time>2021-04-23T16:14:05Z</time>
      </trkpt>
      <trkpt lat="44.17532" lon="3.13984">
        <ele>487.1</ele>
        <time>2021-04-23T16:14:06Z</time>
      </trkpt>
      <trkpt lat="44.1754" lon="3.13967">
        <ele>484</ele>
        <time>2021-04-23T16:14:08Z</time>
      </trkpt>
      <trkpt lat="44.17547" lon="3.13958">
        <ele>481.9</ele>
        <time>2021-04-23T16:14:09Z</time>
      </trkpt>
      <trkpt lat="44.17562" lon="3.13941">
        <ele>478.2</ele>
        <time>2021-04-23T16:14:11Z</time>
      </trkpt>
      <trkpt lat="44.17568" lon="3.13934">
        <ele>477.1</ele>
        <time>2021-04-23T16:14:12Z</time>
      </trkpt>
      <trkpt lat="44.17573" lon="3.13927">
        <ele>476.2</ele>
        <time>2021-04-23T16:14:13Z</time>
      </trkpt>
      <trkpt lat="44.17576" lon="3.13919">
        <ele>475.3</ele>
        <time>2021-04-23T16:14:14Z</time>
      </trkpt>
      <trkpt lat="44.17583" lon="3.13904">
        <ele>473.7</ele>
        <time>2021-04-23T16:14:16Z</time>
      </trkpt>
      <trkpt lat="44.17591" lon="3.13895">
        <ele>472.5</ele>
        <time>2021-04-23T16:14:18Z</time>
      </trkpt>
      <trkpt lat="44.17593" lon="3.13894">
        <ele>472.1</ele>
        <time>2021-04-23T16:14:19Z</time>
      </trkpt>
      <trkpt lat="44.176" lon="3.1389">
        <ele>471.3</ele>
        <time>2021-04-23T16:14:21Z</time>
      </trkpt>
      <trkpt lat="44.17602" lon="3.13886">
        <ele>470.8</ele>
        <time>2021-04-23T16:14:22Z</time>
      </trkpt>
      <trkpt lat="44.17603" lon="3.13884">
        <ele>470.6</ele>
        <time>2021-04-23T16:14:23Z</time>
      </trkpt>
      <trkpt lat="44.17605" lon="3.13879">
        <ele>470</ele>
        <time>2021-04-23T16:14:25Z</time>
      </trkpt>
      <trkpt lat="44.17608" lon="3.13874">
        <ele>469.5</ele>
        <time>2021-04-23T16:14:26Z</time>
      </trkpt>
      <trkpt lat="44.1761" lon="3.13868">
        <ele>468.8</ele>
        <time>2021-04-23T16:14:27Z</time>
      </trkpt>
      <trkpt lat="44.17613" lon="3.13862">
        <ele>468.3</ele>
        <time>2021-04-23T16:14:28Z</time>
      </trkpt>
      <trkpt lat="44.17617" lon="3.13854">
        <ele>467.6</ele>
        <time>2021-04-23T16:14:30Z</time>
      </trkpt>
      <trkpt lat="44.17625" lon="3.13844">
        <ele>466.5</ele>
        <time>2021-04-23T16:14:31Z</time>
      </trkpt>
      <trkpt lat="44.17633" lon="3.13833">
        <ele>465.4</ele>
        <time>2021-04-23T16:14:33Z</time>
      </trkpt>
      <trkpt lat="44.17643" lon="3.13821">
        <ele>463.9</ele>
        <time>2021-04-23T16:14:35Z</time>
      </trkpt>
      <trkpt lat="44.17647" lon="3.13813">
        <ele>463.2</ele>
        <time>2021-04-23T16:14:36Z</time>
      </trkpt>
      <trkpt lat="44.17656" lon="3.13795">
        <ele>461.5</ele>
        <time>2021-04-23T16:14:38Z</time>
      </trkpt>
      <trkpt lat="44.17661" lon="3.13785">
        <ele>460.7</ele>
        <time>2021-04-23T16:14:39Z</time>
      </trkpt>
      <trkpt lat="44.17671" lon="3.13766">
        <ele>459.2</ele>
        <time>2021-04-23T16:14:41Z</time>
      </trkpt>
      <trkpt lat="44.17679" lon="3.13749">
        <ele>457.8</ele>
        <time>2021-04-23T16:14:43Z</time>
      </trkpt>
      <trkpt lat="44.17681" lon="3.13741">
        <ele>457.2</ele>
        <time>2021-04-23T16:14:44Z</time>
      </trkpt>
      <trkpt lat="44.17682" lon="3.13734">
        <ele>456.7</ele>
        <time>2021-04-23T16:14:45Z</time>
      </trkpt>
      <trkpt lat="44.17686" lon="3.1372">
        <ele>455.7</ele>
        <time>2021-04-23T16:14:47Z</time>
      </trkpt>
      <trkpt lat="44.17692" lon="3.13703">
        <ele>454.6</ele>
        <time>2021-04-23T16:14:49Z</time>
      </trkpt>
      <trkpt lat="44.17695" lon="3.13695">
        <ele>453.8</ele>
        <time>2021-04-23T16:14:50Z</time>
      </trkpt>
      <trkpt lat="44.17698" lon="3.13686">
        <ele>452.9</ele>
        <time>2021-04-23T16:14:51Z</time>
      </trkpt>
      <trkpt lat="44.17704" lon="3.13668">
        <ele>451.5</ele>
        <time>2021-04-23T16:14:53Z</time>
      </trkpt>
      <trkpt lat="44.17713" lon="3.13652">
        <ele>450.5</ele>
        <time>2021-04-23T16:14:55Z</time>
      </trkpt>
      <trkpt lat="44.17717" lon="3.13644">
        <ele>450.1</ele>
        <time>2021-04-23T16:14:56Z</time>
      </trkpt>
      <trkpt lat="44.17721" lon="3.13637">
        <ele>449.6</ele>
        <time>2021-04-23T16:14:57Z</time>
      </trkpt>
      <trkpt lat="44.17726" lon="3.13629">
        <ele>449</ele>
        <time>2021-04-23T16:14:58Z</time>
      </trkpt>
      <trkpt lat="44.17735" lon="3.13612">
        <ele>447.5</ele>
        <time>2021-04-23T16:15:00Z</time>
      </trkpt>
      <trkpt lat="44.17739" lon="3.13604">
        <ele>446.9</ele>
        <time>2021-04-23T16:15:01Z</time>
      </trkpt>
      <trkpt lat="44.17743" lon="3.13595">
        <ele>446.4</ele>
        <time>2021-04-23T16:15:02Z</time>
      </trkpt>
      <trkpt lat="44.17746" lon="3.13586">
        <ele>445.9</ele>
        <time>2021-04-23T16:15:03Z</time>
      </trkpt>
      <trkpt lat="44.17751" lon="3.13566">
        <ele>444.6</ele>
        <time>2021-04-23T16:15:05Z</time>
      </trkpt>
      <trkpt lat="44.17758" lon="3.13545">
        <ele>442.5</ele>
        <time>2021-04-23T16:15:07Z</time>
      </trkpt>
      <trkpt lat="44.17764" lon="3.1352">
        <ele>440.3</ele>
        <time>2021-04-23T16:15:09Z</time>
      </trkpt>
      <trkpt lat="44.17771" lon="3.13496">
        <ele>438.5</ele>
        <time>2021-04-23T16:15:11Z</time>
      </trkpt>
      <trkpt lat="44.17775" lon="3.13484">
        <ele>437.7</ele>
        <time>2021-04-23T16:15:12Z</time>
      </trkpt>
      <trkpt lat="44.17782" lon="3.13468">
        <ele>436.6</ele>
        <time>2021-04-23T16:15:14Z</time>
      </trkpt>
      <trkpt lat="44.17785" lon="3.13463">
        <ele>436.2</ele>
        <time>2021-04-23T16:15:15Z</time>
      </trkpt>
      <trkpt lat="44.17789" lon="3.13454">
        <ele>435.5</ele>
        <time>2021-04-23T16:15:17Z</time>
      </trkpt>
      <trkpt lat="44.17791" lon="3.1345">
        <ele>435.3</ele>
        <time>2021-04-23T16:15:18Z</time>
      </trkpt>
      <trkpt lat="44.1779" lon="3.13446">
        <ele>435</ele>
        <time>2021-04-23T16:15:19Z</time>
      </trkpt>
      <trkpt lat="44.17785" lon="3.13438">
        <ele>434.2</ele>
        <time>2021-04-23T16:15:21Z</time>
      </trkpt>
      <trkpt lat="44.17783" lon="3.13435">
        <ele>433.9</ele>
        <time>2021-04-23T16:15:22Z</time>
      </trkpt>
      <trkpt lat="44.1778" lon="3.13426">
        <ele>433.2</ele>
        <time>2021-04-23T16:15:23Z</time>
      </trkpt>
      <trkpt lat="44.17779" lon="3.1342">
        <ele>432.7</ele>
        <time>2021-04-23T16:15:25Z</time>
      </trkpt>
      <trkpt lat="44.17778" lon="3.13414">
        <ele>432.1</ele>
        <time>2021-04-23T16:15:27Z</time>
      </trkpt>
      <trkpt lat="44.17778" lon="3.13401">
        <ele>430.8</ele>
        <time>2021-04-23T16:15:29Z</time>
      </trkpt>
      <trkpt lat="44.17782" lon="3.1339">
        <ele>429.7</ele>
        <time>2021-04-23T16:15:30Z</time>
      </trkpt>
      <trkpt lat="44.17786" lon="3.1338">
        <ele>428.5</ele>
        <time>2021-04-23T16:15:31Z</time>
      </trkpt>
      <trkpt lat="44.17789" lon="3.1337">
        <ele>427.3</ele>
        <time>2021-04-23T16:15:32Z</time>
      </trkpt>
      <trkpt lat="44.17793" lon="3.1336">
        <ele>426.1</ele>
        <time>2021-04-23T16:15:33Z</time>
      </trkpt>
      <trkpt lat="44.17797" lon="3.1335">
        <ele>425.3</ele>
        <time>2021-04-23T16:15:34Z</time>
      </trkpt>
      <trkpt lat="44.178" lon="3.13338">
        <ele>424.4</ele>
        <time>2021-04-23T16:15:35Z</time>
      </trkpt>
      <trkpt lat="44.17808" lon="3.13314">
        <ele>422.4</ele>
        <time>2021-04-23T16:15:37Z</time>
      </trkpt>
      <trkpt lat="44.17812" lon="3.13301">
        <ele>421.6</ele>
        <time>2021-04-23T16:15:38Z</time>
      </trkpt>
      <trkpt lat="44.17815" lon="3.13288">
        <ele>420.8</ele>
        <time>2021-04-23T16:15:39Z</time>
      </trkpt>
      <trkpt lat="44.17815" lon="3.13261">
        <ele>419.7</ele>
        <time>2021-04-23T16:15:41Z</time>
      </trkpt>
      <trkpt lat="44.17811" lon="3.13234">
        <ele>418.9</ele>
        <time>2021-04-23T16:15:43Z</time>
      </trkpt>
      <trkpt lat="44.17807" lon="3.13223">
        <ele>418.6</ele>
        <time>2021-04-23T16:15:44Z</time>
      </trkpt>
      <trkpt lat="44.17804" lon="3.13211">
        <ele>418.4</ele>
        <time>2021-04-23T16:15:45Z</time>
      </trkpt>
      <trkpt lat="44.17801" lon="3.13199">
        <ele>418.1</ele>
        <time>2021-04-23T16:15:46Z</time>
      </trkpt>
      <trkpt lat="44.17795" lon="3.13175">
        <ele>417.6</ele>
        <time>2021-04-23T16:15:48Z</time>
      </trkpt>
      <trkpt lat="44.17792" lon="3.13162">
        <ele>417.3</ele>
        <time>2021-04-23T16:15:49Z</time>
      </trkpt>
      <trkpt lat="44.17789" lon="3.13151">
        <ele>417</ele>
        <time>2021-04-23T16:15:50Z</time>
      </trkpt>
      <trkpt lat="44.17786" lon="3.13141">
        <ele>416.6</ele>
        <time>2021-04-23T16:15:51Z</time>
      </trkpt>
      <trkpt lat="44.17783" lon="3.13118">
        <ele>415.6</ele>
        <time>2021-04-23T16:15:53Z</time>
      </trkpt>
      <trkpt lat="44.1778" lon="3.13106">
        <ele>415</ele>
        <time>2021-04-23T16:15:54Z</time>
      </trkpt>
      <trkpt lat="44.17775" lon="3.1308">
        <ele>413.5</ele>
        <time>2021-04-23T16:15:56Z</time>
      </trkpt>
      <trkpt lat="44.17775" lon="3.13052">
        <ele>412.2</ele>
        <time>2021-04-23T16:15:58Z</time>
      </trkpt>
      <trkpt lat="44.17776" lon="3.13024">
        <ele>410.5</ele>
        <time>2021-04-23T16:16:00Z</time>
      </trkpt>
      <trkpt lat="44.17776" lon="3.1301">
        <ele>409.7</ele>
        <time>2021-04-23T16:16:01Z</time>
      </trkpt>
      <trkpt lat="44.17775" lon="3.12997">
        <ele>408.7</ele>
        <time>2021-04-23T16:16:02Z</time>
      </trkpt>
      <trkpt lat="44.17774" lon="3.12969">
        <ele>407</ele>
        <time>2021-04-23T16:16:04Z</time>
      </trkpt>
      <trkpt lat="44.17774" lon="3.12942">
        <ele>405.3</ele>
        <time>2021-04-23T16:16:06Z</time>
      </trkpt>
      <trkpt lat="44.17773" lon="3.12928">
        <ele>404.5</ele>
        <time>2021-04-23T16:16:07Z</time>
      </trkpt>
      <trkpt lat="44.17772" lon="3.129">
        <ele>402.8</ele>
        <time>2021-04-23T16:16:09Z</time>
      </trkpt>
      <trkpt lat="44.17773" lon="3.12886">
        <ele>401.9</ele>
        <time>2021-04-23T16:16:10Z</time>
      </trkpt>
      <trkpt lat="44.17774" lon="3.12873">
        <ele>401.1</ele>
        <time>2021-04-23T16:16:11Z</time>
      </trkpt>
      <trkpt lat="44.17778" lon="3.12845">
        <ele>399.7</ele>
        <time>2021-04-23T16:16:13Z</time>
      </trkpt>
      <trkpt lat="44.17781" lon="3.12821">
        <ele>398.8</ele>
        <time>2021-04-23T16:16:15Z</time>
      </trkpt>
      <trkpt lat="44.17786" lon="3.12813">
        <ele>398.4</ele>
        <time>2021-04-23T16:16:16Z</time>
      </trkpt>
      <trkpt lat="44.17802" lon="3.12812">
        <ele>396.9</ele>
        <time>2021-04-23T16:16:18Z</time>
      </trkpt>
      <trkpt lat="44.17819" lon="3.12815">
        <ele>395.5</ele>
        <time>2021-04-23T16:16:20Z</time>
      </trkpt>
      <trkpt lat="44.17836" lon="3.12814">
        <ele>394.2</ele>
        <time>2021-04-23T16:16:22Z</time>
      </trkpt>
      <trkpt lat="44.17845" lon="3.12813">
        <ele>393.6</ele>
        <time>2021-04-23T16:16:23Z</time>
      </trkpt>
      <trkpt lat="44.17861" lon="3.1281">
        <ele>392.6</ele>
        <time>2021-04-23T16:16:25Z</time>
      </trkpt>
      <trkpt lat="44.17869" lon="3.12791">
        <ele>391.7</ele>
        <time>2021-04-23T16:16:27Z</time>
      </trkpt>
      <trkpt lat="44.1787" lon="3.12767">
        <ele>390.9</ele>
        <time>2021-04-23T16:16:29Z</time>
      </trkpt>
      <trkpt lat="44.17872" lon="3.12747">
        <ele>390.1</ele>
        <time>2021-04-23T16:16:31Z</time>
      </trkpt>
      <trkpt lat="44.17873" lon="3.12736">
        <ele>389.7</ele>
        <time>2021-04-23T16:16:32Z</time>
      </trkpt>
      <trkpt lat="44.17872" lon="3.12715">
        <ele>388.9</ele>
        <time>2021-04-23T16:16:34Z</time>
      </trkpt>
      <trkpt lat="44.17868" lon="3.12705">
        <ele>388.5</ele>
        <time>2021-04-23T16:16:35Z</time>
      </trkpt>
      <trkpt lat="44.17862" lon="3.12697">
        <ele>388.1</ele>
        <time>2021-04-23T16:16:36Z</time>
      </trkpt>
      <trkpt lat="44.17856" lon="3.12691">
        <ele>387.7</ele>
        <time>2021-04-23T16:16:37Z</time>
      </trkpt>
      <trkpt lat="44.17841" lon="3.12683">
        <ele>386.9</ele>
        <time>2021-04-23T16:16:39Z</time>
      </trkpt>
      <trkpt lat="44.17833" lon="3.12681">
        <ele>386.5</ele>
        <time>2021-04-23T16:16:40Z</time>
      </trkpt>
      <trkpt lat="44.17818" lon="3.12673">
        <ele>385.6</ele>
        <time>2021-04-23T16:16:42Z</time>
      </trkpt>
      <trkpt lat="44.17811" lon="3.12669">
        <ele>385.2</ele>
        <time>2021-04-23T16:16:43Z</time>
      </trkpt>
      <trkpt lat="44.17798" lon="3.12658">
        <ele>384.5</ele>
        <time>2021-04-23T16:16:45Z</time>
      </trkpt>
      <trkpt lat="44.17793" lon="3.12651">
        <ele>384.3</ele>
        <time>2021-04-23T16:16:46Z</time>
      </trkpt>
      <trkpt lat="44.17789" lon="3.12644">
        <ele>384.1</ele>
        <time>2021-04-23T16:16:47Z</time>
      </trkpt>
      <trkpt lat="44.17787" lon="3.12637">
        <ele>384</ele>
        <time>2021-04-23T16:16:48Z</time>
      </trkpt>
      <trkpt lat="44.17785" lon="3.12631">
        <ele>383.9</ele>
        <time>2021-04-23T16:16:49Z</time>
      </trkpt>
      <trkpt lat="44.17784" lon="3.12623">
        <ele>383.8</ele>
        <time>2021-04-23T16:16:51Z</time>
      </trkpt>
      <trkpt lat="44.1778" lon="3.1261">
        <ele>383.8</ele>
        <time>2021-04-23T16:16:53Z</time>
      </trkpt>
      <trkpt lat="44.17777" lon="3.12604">
        <ele>383.7</ele>
        <time>2021-04-23T16:16:54Z</time>
      </trkpt>
      <trkpt lat="44.17775" lon="3.12598">
        <ele>383.7</ele>
        <time>2021-04-23T16:16:56Z</time>
      </trkpt>
      <trkpt lat="44.17776" lon="3.12592">
        <ele>383.8</ele>
        <time>2021-04-23T16:16:57Z</time>
      </trkpt>
      <trkpt lat="44.17777" lon="3.12585">
        <ele>383.8</ele>
        <time>2021-04-23T16:16:59Z</time>
      </trkpt>
      <trkpt lat="44.17775" lon="3.12579">
        <ele>383.8</ele>
        <time>2021-04-23T16:17:00Z</time>
      </trkpt>
      <trkpt lat="44.17773" lon="3.1257">
        <ele>383.8</ele>
        <time>2021-04-23T16:17:02Z</time>
      </trkpt>
      <trkpt lat="44.17769" lon="3.12558">
        <ele>383.8</ele>
        <time>2021-04-23T16:17:03Z</time>
      </trkpt>
      <trkpt lat="44.17766" lon="3.12551">
        <ele>383.8</ele>
        <time>2021-04-23T16:17:04Z</time>
      </trkpt>
      <trkpt lat="44.17763" lon="3.12545">
        <ele>383.9</ele>
        <time>2021-04-23T16:17:05Z</time>
      </trkpt>
      <trkpt lat="44.17761" lon="3.12538">
        <ele>383.9</ele>
        <time>2021-04-23T16:17:06Z</time>
      </trkpt>
      <trkpt lat="44.17753" lon="3.12526">
        <ele>384</ele>
        <time>2021-04-23T16:17:08Z</time>
      </trkpt>
      <trkpt lat="44.17743" lon="3.12519">
        <ele>384.2</ele>
        <time>2021-04-23T16:17:10Z</time>
      </trkpt>
      <trkpt lat="44.17738" lon="3.12517">
        <ele>384.3</ele>
        <time>2021-04-23T16:17:11Z</time>
      </trkpt>
      <trkpt lat="44.17731" lon="3.12515">
        <ele>384.4</ele>
        <time>2021-04-23T16:17:13Z</time>
      </trkpt>
      <trkpt lat="44.17727" lon="3.12514">
        <ele>384.5</ele>
        <time>2021-04-23T16:17:14Z</time>
      </trkpt>
      <trkpt lat="44.17719" lon="3.12515">
        <ele>384.7</ele>
        <time>2021-04-23T16:17:16Z</time>
      </trkpt>
      <trkpt lat="44.17716" lon="3.12515">
        <ele>384.8</ele>
        <time>2021-04-23T16:17:17Z</time>
      </trkpt>
      <trkpt lat="44.17713" lon="3.12515">
        <ele>384.9</ele>
        <time>2021-04-23T16:17:18Z</time>
      </trkpt>
      <trkpt lat="44.17707" lon="3.12515">
        <ele>385.1</ele>
        <time>2021-04-23T16:17:20Z</time>
      </trkpt>
      <trkpt lat="44.17703" lon="3.12515">
        <ele>385.3</ele>
        <time>2021-04-23T16:17:21Z</time>
      </trkpt>
      <trkpt lat="44.177" lon="3.12515">
        <ele>385.5</ele>
        <time>2021-04-23T16:17:22Z</time>
      </trkpt>
      <trkpt lat="44.17696" lon="3.12514">
        <ele>385.7</ele>
        <time>2021-04-23T16:17:23Z</time>
      </trkpt>
      <trkpt lat="44.17691" lon="3.12513">
        <ele>386</ele>
        <time>2021-04-23T16:17:25Z</time>
      </trkpt>
      <trkpt lat="44.17688" lon="3.12513">
        <ele>386.2</ele>
        <time>2021-04-23T16:17:26Z</time>
      </trkpt>
      <trkpt lat="44.17683" lon="3.12511">
        <ele>386.6</ele>
        <time>2021-04-23T16:17:28Z</time>
      </trkpt>
      <trkpt lat="44.17677" lon="3.12508">
        <ele>387</ele>
        <time>2021-04-23T16:17:30Z</time>
      </trkpt>
      <trkpt lat="44.17673" lon="3.12504">
        <ele>387.4</ele>
        <time>2021-04-23T16:17:32Z</time>
      </trkpt>
      <trkpt lat="44.17671" lon="3.12502">
        <ele>387.6</ele>
        <time>2021-04-23T16:17:33Z</time>
      </trkpt>
      <trkpt lat="44.17667" lon="3.12499">
        <ele>387.9</ele>
        <time>2021-04-23T16:17:35Z</time>
      </trkpt>
      <trkpt lat="44.17665" lon="3.12496">
        <ele>388.1</ele>
        <time>2021-04-23T16:17:36Z</time>
      </trkpt>
      <trkpt lat="44.17662" lon="3.12494">
        <ele>388.4</ele>
        <time>2021-04-23T16:17:38Z</time>
      </trkpt>
      <trkpt lat="44.17658" lon="3.12491">
        <ele>388.7</ele>
        <time>2021-04-23T16:17:40Z</time>
      </trkpt>
      <trkpt lat="44.17654" lon="3.12488">
        <ele>389.1</ele>
        <time>2021-04-23T16:17:42Z</time>
      </trkpt>
      <trkpt lat="44.1765" lon="3.12486">
        <ele>389.4</ele>
        <time>2021-04-23T16:17:43Z</time>
      </trkpt>
      <trkpt lat="44.17649" lon="3.12486">
        <ele>389.5</ele>
        <time>2021-04-23T16:17:44Z</time>
      </trkpt>
      <trkpt lat="44.17645" lon="3.12484">
        <ele>389.8</ele>
        <time>2021-04-23T16:17:46Z</time>
      </trkpt>
      <trkpt lat="44.17644" lon="3.12484">
        <ele>390</ele>
        <time>2021-04-23T16:17:47Z</time>
      </trkpt>
      <trkpt lat="44.17639" lon="3.12482">
        <ele>390.4</ele>
        <time>2021-04-23T16:17:49Z</time>
      </trkpt>
      <trkpt lat="44.17634" lon="3.12481">
        <ele>390.7</ele>
        <time>2021-04-23T16:17:51Z</time>
      </trkpt>
      <trkpt lat="44.17629" lon="3.1248">
        <ele>391.1</ele>
        <time>2021-04-23T16:17:53Z</time>
      </trkpt>
      <trkpt lat="44.17625" lon="3.12479">
        <ele>391.4</ele>
        <time>2021-04-23T16:17:55Z</time>
      </trkpt>
      <trkpt lat="44.17623" lon="3.12478">
        <ele>391.5</ele>
        <time>2021-04-23T16:17:56Z</time>
      </trkpt>
      <trkpt lat="44.17619" lon="3.12477">
        <ele>391.8</ele>
        <time>2021-04-23T16:17:58Z</time>
      </trkpt>
      <trkpt lat="44.17614" lon="3.12476">
        <ele>392.5</ele>
        <time>2021-04-23T16:18:00Z</time>
      </trkpt>
      <trkpt lat="44.17611" lon="3.12473">
        <ele>392.8</ele>
        <time>2021-04-23T16:18:02Z</time>
      </trkpt>
      <trkpt lat="44.17609" lon="3.12468">
        <ele>393.1</ele>
        <time>2021-04-23T16:18:04Z</time>
      </trkpt>
      <trkpt lat="44.17609" lon="3.12465">
        <ele>393.3</ele>
        <time>2021-04-23T16:18:05Z</time>
      </trkpt>
      <trkpt lat="44.17609" lon="3.12463">
        <ele>393.4</ele>
        <time>2021-04-23T16:18:06Z</time>
      </trkpt>
      <trkpt lat="44.17611" lon="3.12458">
        <ele>393.7</ele>
        <time>2021-04-23T16:18:08Z</time>
      </trkpt>
      <trkpt lat="44.17617" lon="3.12452">
        <ele>394.3</ele>
        <time>2021-04-23T16:18:10Z</time>
      </trkpt>
      <trkpt lat="44.17624" lon="3.12451">
        <ele>394.7</ele>
        <time>2021-04-23T16:18:12Z</time>
      </trkpt>
      <trkpt lat="44.17628" lon="3.12452">
        <ele>394.8</ele>
        <time>2021-04-23T16:18:13Z</time>
      </trkpt>
      <trkpt lat="44.17635" lon="3.12452">
        <ele>395</ele>
        <time>2021-04-23T16:18:15Z</time>
      </trkpt>
      <trkpt lat="44.17639" lon="3.12453">
        <ele>395.1</ele>
        <time>2021-04-23T16:18:16Z</time>
      </trkpt>
      <trkpt lat="44.17646" lon="3.12453">
        <ele>395.2</ele>
        <time>2021-04-23T16:18:18Z</time>
      </trkpt>
      <trkpt lat="44.17651" lon="3.12454">
        <ele>395.3</ele>
        <time>2021-04-23T16:18:19Z</time>
      </trkpt>
      <trkpt lat="44.17656" lon="3.12454">
        <ele>395.4</ele>
        <time>2021-04-23T16:18:21Z</time>
      </trkpt>
      <trkpt lat="44.17662" lon="3.12453">
        <ele>395.5</ele>
        <time>2021-04-23T16:18:22Z</time>
      </trkpt>
      <trkpt lat="44.17666" lon="3.12453">
        <ele>395.6</ele>
        <time>2021-04-23T16:18:23Z</time>
      </trkpt>
      <trkpt lat="44.17674" lon="3.12453">
        <ele>395.9</ele>
        <time>2021-04-23T16:18:25Z</time>
      </trkpt>
      <trkpt lat="44.1768" lon="3.12452">
        <ele>396.1</ele>
        <time>2021-04-23T16:18:27Z</time>
      </trkpt>
      <trkpt lat="44.17686" lon="3.12452">
        <ele>396.2</ele>
        <time>2021-04-23T16:18:28Z</time>
      </trkpt>
      <trkpt lat="44.1769" lon="3.12452">
        <ele>396.4</ele>
        <time>2021-04-23T16:18:29Z</time>
      </trkpt>
      <trkpt lat="44.17697" lon="3.12451">
        <ele>396.6</ele>
        <time>2021-04-23T16:18:31Z</time>
      </trkpt>
      <trkpt lat="44.17701" lon="3.1245">
        <ele>396.8</ele>
        <time>2021-04-23T16:18:32Z</time>
      </trkpt>
      <trkpt lat="44.17705" lon="3.12449">
        <ele>396.9</ele>
        <time>2021-04-23T16:18:33Z</time>
      </trkpt>
      <trkpt lat="44.17709" lon="3.12448">
        <ele>397.1</ele>
        <time>2021-04-23T16:18:34Z</time>
      </trkpt>
      <trkpt lat="44.17714" lon="3.12448">
        <ele>397.2</ele>
        <time>2021-04-23T16:18:35Z</time>
      </trkpt>
      <trkpt lat="44.17719" lon="3.12448">
        <ele>397.4</ele>
        <time>2021-04-23T16:18:37Z</time>
      </trkpt>
      <trkpt lat="44.17723" lon="3.12447">
        <ele>397.5</ele>
        <time>2021-04-23T16:18:38Z</time>
      </trkpt>
      <trkpt lat="44.17729" lon="3.12447">
        <ele>397.6</ele>
        <time>2021-04-23T16:18:39Z</time>
      </trkpt>
      <trkpt lat="44.17737" lon="3.12446">
        <ele>397.8</ele>
        <time>2021-04-23T16:18:41Z</time>
      </trkpt>
      <trkpt lat="44.17742" lon="3.12445">
        <ele>397.9</ele>
        <time>2021-04-23T16:18:42Z</time>
      </trkpt>
      <trkpt lat="44.17746" lon="3.12445">
        <ele>397.9</ele>
        <time>2021-04-23T16:18:43Z</time>
      </trkpt>
      <trkpt lat="44.17755" lon="3.12444">
        <ele>398</ele>
        <time>2021-04-23T16:18:45Z</time>
      </trkpt>
      <trkpt lat="44.1776" lon="3.12445">
        <ele>398.1</ele>
        <time>2021-04-23T16:18:46Z</time>
      </trkpt>
      <trkpt lat="44.17765" lon="3.12445">
        <ele>398.1</ele>
        <time>2021-04-23T16:18:47Z</time>
      </trkpt>
      <trkpt lat="44.1777" lon="3.12445">
        <ele>398.1</ele>
        <time>2021-04-23T16:18:48Z</time>
      </trkpt>
      <trkpt lat="44.17775" lon="3.12444">
        <ele>398.1</ele>
        <time>2021-04-23T16:18:49Z</time>
      </trkpt>
      <trkpt lat="44.17785" lon="3.12443">
        <ele>398.1</ele>
        <time>2021-04-23T16:18:51Z</time>
      </trkpt>
      <trkpt lat="44.1779" lon="3.12442">
        <ele>398</ele>
        <time>2021-04-23T16:18:52Z</time>
      </trkpt>
      <trkpt lat="44.17795" lon="3.12441">
        <ele>398</ele>
        <time>2021-04-23T16:18:53Z</time>
      </trkpt>
      <trkpt lat="44.17806" lon="3.12438">
        <ele>397.8</ele>
        <time>2021-04-23T16:18:55Z</time>
      </trkpt>
      <trkpt lat="44.17812" lon="3.12437">
        <ele>397.7</ele>
        <time>2021-04-23T16:18:56Z</time>
      </trkpt>
      <trkpt lat="44.17818" lon="3.12437">
        <ele>397.5</ele>
        <time>2021-04-23T16:18:57Z</time>
      </trkpt>
      <trkpt lat="44.17829" lon="3.12434">
        <ele>397.3</ele>
        <time>2021-04-23T16:18:59Z</time>
      </trkpt>
      <trkpt lat="44.17836" lon="3.12432">
        <ele>397.1</ele>
        <time>2021-04-23T16:19:00Z</time>
      </trkpt>
      <trkpt lat="44.17848" lon="3.1243">
        <ele>396.9</ele>
        <time>2021-04-23T16:19:02Z</time>
      </trkpt>
      <trkpt lat="44.17855" lon="3.12429">
        <ele>396.8</ele>
        <time>2021-04-23T16:19:03Z</time>
      </trkpt>
      <trkpt lat="44.17862" lon="3.12428">
        <ele>396.7</ele>
        <time>2021-04-23T16:19:04Z</time>
      </trkpt>
      <trkpt lat="44.17876" lon="3.12429">
        <ele>396.6</ele>
        <time>2021-04-23T16:19:06Z</time>
      </trkpt>
      <trkpt lat="44.17883" lon="3.12429">
        <ele>396.5</ele>
        <time>2021-04-23T16:19:07Z</time>
      </trkpt>
      <trkpt lat="44.17896" lon="3.12433">
        <ele>396.2</ele>
        <time>2021-04-23T16:19:09Z</time>
      </trkpt>
      <trkpt lat="44.17903" lon="3.12435">
        <ele>396.1</ele>
        <time>2021-04-23T16:19:10Z</time>
      </trkpt>
      <trkpt lat="44.17917" lon="3.12441">
        <ele>395.7</ele>
        <time>2021-04-23T16:19:12Z</time>
      </trkpt>
      <trkpt lat="44.1793" lon="3.12448">
        <ele>395.4</ele>
        <time>2021-04-23T16:19:14Z</time>
      </trkpt>
      <trkpt lat="44.17936" lon="3.12451">
        <ele>395.2</ele>
        <time>2021-04-23T16:19:15Z</time>
      </trkpt>
      <trkpt lat="44.17949" lon="3.12457">
        <ele>394.8</ele>
        <time>2021-04-23T16:19:17Z</time>
      </trkpt>
      <trkpt lat="44.17956" lon="3.1246">
        <ele>394.6</ele>
        <time>2021-04-23T16:19:18Z</time>
      </trkpt>
      <trkpt lat="44.17963" lon="3.12463">
        <ele>394.4</ele>
        <time>2021-04-23T16:19:19Z</time>
      </trkpt>
      <trkpt lat="44.17977" lon="3.1247">
        <ele>394.1</ele>
        <time>2021-04-23T16:19:21Z</time>
      </trkpt>
      <trkpt lat="44.17984" lon="3.12473">
        <ele>394</ele>
        <time>2021-04-23T16:19:22Z</time>
      </trkpt>
      <trkpt lat="44.17991" lon="3.12476">
        <ele>393.8</ele>
        <time>2021-04-23T16:19:23Z</time>
      </trkpt>
      <trkpt lat="44.18005" lon="3.12484">
        <ele>393.5</ele>
        <time>2021-04-23T16:19:25Z</time>
      </trkpt>
      <trkpt lat="44.1802" lon="3.12491">
        <ele>393.1</ele>
        <time>2021-04-23T16:19:27Z</time>
      </trkpt>
      <trkpt lat="44.18034" lon="3.12498">
        <ele>392.8</ele>
        <time>2021-04-23T16:19:29Z</time>
      </trkpt>
      <trkpt lat="44.18049" lon="3.12505">
        <ele>392.4</ele>
        <time>2021-04-23T16:19:31Z</time>
      </trkpt>
      <trkpt lat="44.18064" lon="3.12512">
        <ele>392</ele>
        <time>2021-04-23T16:19:33Z</time>
      </trkpt>
      <trkpt lat="44.18071" lon="3.12515">
        <ele>391.8</ele>
        <time>2021-04-23T16:19:34Z</time>
      </trkpt>
      <trkpt lat="44.18079" lon="3.12518">
        <ele>391.7</ele>
        <time>2021-04-23T16:19:35Z</time>
      </trkpt>
      <trkpt lat="44.18087" lon="3.12521">
        <ele>391.5</ele>
        <time>2021-04-23T16:19:36Z</time>
      </trkpt>
      <trkpt lat="44.18103" lon="3.12528">
        <ele>391.1</ele>
        <time>2021-04-23T16:19:38Z</time>
      </trkpt>
      <trkpt lat="44.18118" lon="3.12535">
        <ele>390.8</ele>
        <time>2021-04-23T16:19:40Z</time>
      </trkpt>
      <trkpt lat="44.18133" lon="3.12544">
        <ele>390.5</ele>
        <time>2021-04-23T16:19:42Z</time>
      </trkpt>
      <trkpt lat="44.1814" lon="3.12548">
        <ele>390.4</ele>
        <time>2021-04-23T16:19:43Z</time>
      </trkpt>
      <trkpt lat="44.18154" lon="3.12557">
        <ele>390.1</ele>
        <time>2021-04-23T16:19:45Z</time>
      </trkpt>
      <trkpt lat="44.18162" lon="3.12561">
        <ele>389.9</ele>
        <time>2021-04-23T16:19:46Z</time>
      </trkpt>
      <trkpt lat="44.18169" lon="3.12566">
        <ele>389.7</ele>
        <time>2021-04-23T16:19:47Z</time>
      </trkpt>
      <trkpt lat="44.18184" lon="3.12577">
        <ele>389.2</ele>
        <time>2021-04-23T16:19:49Z</time>
      </trkpt>
      <trkpt lat="44.18191" lon="3.12582">
        <ele>389</ele>
        <time>2021-04-23T16:19:50Z</time>
      </trkpt>
      <trkpt lat="44.18206" lon="3.12591">
        <ele>388.6</ele>
        <time>2021-04-23T16:19:52Z</time>
      </trkpt>
      <trkpt lat="44.18221" lon="3.12602">
        <ele>388.3</ele>
        <time>2021-04-23T16:19:54Z</time>
      </trkpt>
      <trkpt lat="44.18236" lon="3.12615">
        <ele>388</ele>
        <time>2021-04-23T16:19:56Z</time>
      </trkpt>
      <trkpt lat="44.18243" lon="3.12623">
        <ele>387.8</ele>
        <time>2021-04-23T16:19:57Z</time>
      </trkpt>
      <trkpt lat="44.18256" lon="3.12638">
        <ele>387.5</ele>
        <time>2021-04-23T16:19:59Z</time>
      </trkpt>
      <trkpt lat="44.1827" lon="3.12651">
        <ele>387.2</ele>
        <time>2021-04-23T16:20:01Z</time>
      </trkpt>
      <trkpt lat="44.18285" lon="3.12661">
        <ele>386.9</ele>
        <time>2021-04-23T16:20:03Z</time>
      </trkpt>
      <trkpt lat="44.18302" lon="3.12668">
        <ele>386.6</ele>
        <time>2021-04-23T16:20:05Z</time>
      </trkpt>
      <trkpt lat="44.18318" lon="3.12674">
        <ele>386.2</ele>
        <time>2021-04-23T16:20:07Z</time>
      </trkpt>
      <trkpt lat="44.18327" lon="3.12677">
        <ele>386</ele>
        <time>2021-04-23T16:20:08Z</time>
      </trkpt>
      <trkpt lat="44.18335" lon="3.1268">
        <ele>385.8</ele>
        <time>2021-04-23T16:20:09Z</time>
      </trkpt>
      <trkpt lat="44.18352" lon="3.12686">
        <ele>385.5</ele>
        <time>2021-04-23T16:20:11Z</time>
      </trkpt>
      <trkpt lat="44.18369" lon="3.1269">
        <ele>385.1</ele>
        <time>2021-04-23T16:20:13Z</time>
      </trkpt>
      <trkpt lat="44.18386" lon="3.12695">
        <ele>384.7</ele>
        <time>2021-04-23T16:20:15Z</time>
      </trkpt>
      <trkpt lat="44.18394" lon="3.12698">
        <ele>384.5</ele>
        <time>2021-04-23T16:20:16Z</time>
      </trkpt>
      <trkpt lat="44.18411" lon="3.12704">
        <ele>384.1</ele>
        <time>2021-04-23T16:20:18Z</time>
      </trkpt>
      <trkpt lat="44.18419" lon="3.12707">
        <ele>384</ele>
        <time>2021-04-23T16:20:19Z</time>
      </trkpt>
      <trkpt lat="44.18435" lon="3.12715">
        <ele>383.7</ele>
        <time>2021-04-23T16:20:21Z</time>
      </trkpt>
      <trkpt lat="44.1845" lon="3.12727">
        <ele>383.5</ele>
        <time>2021-04-23T16:20:23Z</time>
      </trkpt>
      <trkpt lat="44.18465" lon="3.1274">
        <ele>383.5</ele>
        <time>2021-04-23T16:20:25Z</time>
      </trkpt>
      <trkpt lat="44.18478" lon="3.12752">
        <ele>383.5</ele>
        <time>2021-04-23T16:20:27Z</time>
      </trkpt>
      <trkpt lat="44.18491" lon="3.12763">
        <ele>383.7</ele>
        <time>2021-04-23T16:20:29Z</time>
      </trkpt>
      <trkpt lat="44.18497" lon="3.12768">
        <ele>383.7</ele>
        <time>2021-04-23T16:20:30Z</time>
      </trkpt>
      <trkpt lat="44.18503" lon="3.12774">
        <ele>383.8</ele>
        <time>2021-04-23T16:20:31Z</time>
      </trkpt>
      <trkpt lat="44.18509" lon="3.12779">
        <ele>383.9</ele>
        <time>2021-04-23T16:20:32Z</time>
      </trkpt>
      <trkpt lat="44.18515" lon="3.12784">
        <ele>384</ele>
        <time>2021-04-23T16:20:33Z</time>
      </trkpt>
      <trkpt lat="44.18526" lon="3.12794">
        <ele>384.1</ele>
        <time>2021-04-23T16:20:35Z</time>
      </trkpt>
      <trkpt lat="44.18536" lon="3.12802">
        <ele>384.2</ele>
        <time>2021-04-23T16:20:37Z</time>
      </trkpt>
      <trkpt lat="44.18541" lon="3.12807">
        <ele>384.3</ele>
        <time>2021-04-23T16:20:38Z</time>
      </trkpt>
      <trkpt lat="44.18552" lon="3.12815">
        <ele>384.5</ele>
        <time>2021-04-23T16:20:40Z</time>
      </trkpt>
      <trkpt lat="44.18558" lon="3.12818">
        <ele>384.6</ele>
        <time>2021-04-23T16:20:41Z</time>
      </trkpt>
      <trkpt lat="44.18568" lon="3.12826">
        <ele>384.7</ele>
        <time>2021-04-23T16:20:43Z</time>
      </trkpt>
      <trkpt lat="44.18573" lon="3.12828">
        <ele>384.8</ele>
        <time>2021-04-23T16:20:44Z</time>
      </trkpt>
      <trkpt lat="44.18584" lon="3.12824">
        <ele>385.5</ele>
        <time>2021-04-23T16:20:46Z</time>
      </trkpt>
      <trkpt lat="44.18593" lon="3.12816">
        <ele>386.2</ele>
        <time>2021-04-23T16:20:48Z</time>
      </trkpt>
      <trkpt lat="44.18597" lon="3.12812">
        <ele>386.5</ele>
        <time>2021-04-23T16:20:49Z</time>
      </trkpt>
      <trkpt lat="44.18605" lon="3.12811">
        <ele>387.1</ele>
        <time>2021-04-23T16:20:51Z</time>
      </trkpt>
      <trkpt lat="44.18612" lon="3.12813">
        <ele>387.6</ele>
        <time>2021-04-23T16:20:53Z</time>
      </trkpt>
      <trkpt lat="44.18616" lon="3.12813">
        <ele>387.9</ele>
        <time>2021-04-23T16:20:54Z</time>
      </trkpt>
      <trkpt lat="44.18622" lon="3.12808">
        <ele>388.5</ele>
        <time>2021-04-23T16:20:56Z</time>
      </trkpt>
      <trkpt lat="44.18624" lon="3.12805">
        <ele>388.7</ele>
        <time>2021-04-23T16:20:57Z</time>
      </trkpt>
      <trkpt lat="44.18628" lon="3.12801">
        <ele>389.1</ele>
        <time>2021-04-23T16:20:59Z</time>
      </trkpt>
      <trkpt lat="44.18631" lon="3.12797">
        <ele>389.4</ele>
        <time>2021-04-23T16:21:00Z</time>
      </trkpt>
      <trkpt lat="44.18635" lon="3.12792">
        <ele>389.9</ele>
        <time>2021-04-23T16:21:02Z</time>
      </trkpt>
      <trkpt lat="44.18637" lon="3.12789">
        <ele>390.2</ele>
        <time>2021-04-23T16:21:03Z</time>
      </trkpt>
      <trkpt lat="44.18639" lon="3.12784">
        <ele>390.6</ele>
        <time>2021-04-23T16:21:05Z</time>
      </trkpt>
      <trkpt lat="44.18642" lon="3.12779">
        <ele>391.1</ele>
        <time>2021-04-23T16:21:06Z</time>
      </trkpt>
      <trkpt lat="44.18643" lon="3.12775">
        <ele>391.4</ele>
        <time>2021-04-23T16:21:08Z</time>
      </trkpt>
      <trkpt lat="44.18644" lon="3.1277">
        <ele>391.8</ele>
        <time>2021-04-23T16:21:09Z</time>
      </trkpt>
      <trkpt lat="44.18643" lon="3.12765">
        <ele>392</ele>
        <time>2021-04-23T16:21:10Z</time>
      </trkpt>
      <trkpt lat="44.18642" lon="3.12759">
        <ele>392.2</ele>
        <time>2021-04-23T16:21:12Z</time>
      </trkpt>
      <trkpt lat="44.18641" lon="3.12751">
        <ele>392.4</ele>
        <time>2021-04-23T16:21:14Z</time>
      </trkpt>
      <trkpt lat="44.1864" lon="3.12747">
        <ele>392.5</ele>
        <time>2021-04-23T16:21:15Z</time>
      </trkpt>
      <trkpt lat="44.18639" lon="3.12743">
        <ele>392.6</ele>
        <time>2021-04-23T16:21:16Z</time>
      </trkpt>
      <trkpt lat="44.18639" lon="3.12742">
        <ele>392.7</ele>
        <time>2021-04-23T16:21:17Z</time>
      </trkpt>
      <trkpt lat="44.18638" lon="3.1274">
        <ele>392.7</ele>
        <time>2021-04-23T16:21:19Z</time>
      </trkpt>
      <trkpt lat="44.18636" lon="3.1274">
        <ele>392.8</ele>
        <time>2021-04-23T16:21:20Z</time>
      </trkpt>
      <trkpt lat="44.18635" lon="3.12741">
        <ele>392.8</ele>
        <time>2021-04-23T16:21:21Z</time>
      </trkpt>
      <trkpt lat="44.18635" lon="3.1274">
        <ele>392.9</ele>
        <time>2021-04-23T16:21:22Z</time>
      </trkpt>
      <trkpt lat="44.18635" lon="3.1274">
        <ele>392.9</ele>
        <time>2021-04-23T16:21:24Z</time>
      </trkpt>
      <trkpt lat="44.18635" lon="3.1274">
        <ele>392.9</ele>
        <time>2021-04-23T16:21:25Z</time>
      </trkpt>
      <trkpt lat="44.18635" lon="3.1274">
        <ele>392.9</ele>
        <time>2021-04-23T16:21:26Z</time>
      </trkpt>
      <trkpt lat="44.18635" lon="3.12741">
        <ele>392.9</ele>
        <time>2021-04-23T16:21:28Z</time>
      </trkpt>
      <trkpt lat="44.18635" lon="3.12741">
        <ele>392.9</ele>
        <time>2021-04-23T16:21:30Z</time>
      </trkpt>
      <trkpt lat="44.18635" lon="3.12742">
        <ele>392.9</ele>
        <time>2021-04-23T16:21:31Z</time>
      </trkpt>
      <trkpt lat="44.18635" lon="3.12742">
        <ele>392.9</ele>
        <time>2021-04-23T16:21:33Z</time>
      </trkpt>
      <trkpt lat="44.18634" lon="3.12742">
        <ele>392.9</ele>
        <time>2021-04-23T16:21:35Z</time>
      </trkpt>
      <trkpt lat="44.18635" lon="3.12741">
        <ele>392.9</ele>
        <time>2021-04-23T16:21:37Z</time>
      </trkpt>
      <trkpt lat="44.18634" lon="3.12742">
        <ele>393</ele>
        <time>2021-04-23T16:21:38Z</time>
      </trkpt>
      <trkpt lat="44.18633" lon="3.12742">
        <ele>393</ele>
        <time>2021-04-23T16:21:40Z</time>
      </trkpt>
      <trkpt lat="44.18632" lon="3.12743">
        <ele>393</ele>
        <time>2021-04-23T16:21:41Z</time>
      </trkpt>
      <trkpt lat="44.18632" lon="3.12743">
        <ele>393</ele>
        <time>2021-04-23T16:21:42Z</time>
      </trkpt>
      <trkpt lat="44.18632" lon="3.12744">
        <ele>393</ele>
        <time>2021-04-23T16:21:44Z</time>
      </trkpt>
      <trkpt lat="44.18632" lon="3.12744">
        <ele>393.1</ele>
        <time>2021-04-23T16:21:45Z</time>
      </trkpt>
      <trkpt lat="44.18632" lon="3.12744">
        <ele>393.1</ele>
        <time>2021-04-23T16:21:47Z</time>
      </trkpt>
      <trkpt lat="44.18631" lon="3.12743">
        <ele>393.1</ele>
        <time>2021-04-23T16:21:49Z</time>
      </trkpt>
      <trkpt lat="44.18631" lon="3.12742">
        <ele>393.1</ele>
        <time>2021-04-23T16:21:50Z</time>
      </trkpt>
      <trkpt lat="44.18631" lon="3.12741">
        <ele>393.1</ele>
        <time>2021-04-23T16:21:52Z</time>
      </trkpt>
      <trkpt lat="44.18632" lon="3.1274">
        <ele>393.1</ele>
        <time>2021-04-23T16:21:53Z</time>
      </trkpt>
      <trkpt lat="44.18632" lon="3.12741">
        <ele>393.2</ele>
        <time>2021-04-23T16:21:54Z</time>
      </trkpt>
      <trkpt lat="44.18632" lon="3.12741">
        <ele>393.2</ele>
        <time>2021-04-23T16:21:55Z</time>
      </trkpt>
      <trkpt lat="44.18631" lon="3.1274">
        <ele>393.2</ele>
        <time>2021-04-23T16:21:57Z</time>
      </trkpt>
      <trkpt lat="44.18631" lon="3.1274">
        <ele>393.2</ele>
        <time>2021-04-23T16:21:58Z</time>
      </trkpt>
      <trkpt lat="44.18631" lon="3.12739">
        <ele>393.2</ele>
        <time>2021-04-23T16:22:00Z</time>
      </trkpt>
      <trkpt lat="44.1863" lon="3.12739">
        <ele>393.2</ele>
        <time>2021-04-23T16:22:01Z</time>
      </trkpt>
      <trkpt lat="44.1863" lon="3.1274">
        <ele>393.2</ele>
        <time>2021-04-23T16:22:02Z</time>
      </trkpt>
      <trkpt lat="44.1863" lon="3.1274">
        <ele>393.2</ele>
        <time>2021-04-23T16:22:04Z</time>
      </trkpt>
      <trkpt lat="44.1863" lon="3.1274">
        <ele>393.2</ele>
        <time>2021-04-23T16:22:05Z</time>
      </trkpt>
      <trkpt lat="44.18629" lon="3.1274">
        <ele>393.3</ele>
        <time>2021-04-23T16:22:07Z</time>
      </trkpt>
      <trkpt lat="44.18629" lon="3.1274">
        <ele>393.3</ele>
        <time>2021-04-23T16:22:08Z</time>
      </trkpt>
      <trkpt lat="44.18629" lon="3.1274">
        <ele>393.3</ele>
        <time>2021-04-23T16:22:10Z</time>
      </trkpt>
      <trkpt lat="44.18628" lon="3.1274">
        <ele>393.3</ele>
        <time>2021-04-23T16:22:11Z</time>
      </trkpt>
      <trkpt lat="44.18628" lon="3.1274">
        <ele>393.3</ele>
        <time>2021-04-23T16:22:13Z</time>
      </trkpt>
    </trkseg>
  </trk>
  <trk>
    <name><![CDATA[Trace 3]]></name>
    <desc><![CDATA[Arcs ST Pierre, Gorges du Tarn, hameaux troglodytes.]]></desc>
    <extensions>
      <line xmlns="http://www.topografix.com/GPX/gpx_style/0/2">
        <color>0000ff</color>
        <width>4</width>
          <extensions>
            <sens>1</sens>
          </extensions>
      </line>
    </extensions>
    <trkseg>
      <trkpt lat="44.21791" lon="3.27283">
        <ele>904.5</ele>
        <time>2020-07-19T13:26:43Z</time>
      </trkpt>
      <trkpt lat="44.21793" lon="3.27281">
        <ele>904.5</ele>
        <time>2020-07-19T13:26:44Z</time>
      </trkpt>
      <trkpt lat="44.21794" lon="3.27276">
        <ele>904.5</ele>
        <time>2020-07-19T13:26:46Z</time>
      </trkpt>
      <trkpt lat="44.21796" lon="3.27269">
        <ele>904.5</ele>
        <time>2020-07-19T13:26:47Z</time>
      </trkpt>
      <trkpt lat="44.21797" lon="3.27265">
        <ele>904.4</ele>
        <time>2020-07-19T13:26:48Z</time>
      </trkpt>
      <trkpt lat="44.21798" lon="3.27255">
        <ele>904.2</ele>
        <time>2020-07-19T13:26:50Z</time>
      </trkpt>
      <trkpt lat="44.21799" lon="3.27248">
        <ele>904.1</ele>
        <time>2020-07-19T13:26:51Z</time>
      </trkpt>
      <trkpt lat="44.218" lon="3.27242">
        <ele>904</ele>
        <time>2020-07-19T13:26:52Z</time>
      </trkpt>
      <trkpt lat="44.21803" lon="3.27225">
        <ele>903.9</ele>
        <time>2020-07-19T13:26:54Z</time>
      </trkpt>
      <trkpt lat="44.21804" lon="3.27217">
        <ele>903.8</ele>
        <time>2020-07-19T13:26:56Z</time>
      </trkpt>
      <trkpt lat="44.21809" lon="3.27207">
        <ele>903.7</ele>
        <time>2020-07-19T13:26:57Z</time>
      </trkpt>
      <trkpt lat="44.21812" lon="3.27201">
        <ele>903.6</ele>
        <time>2020-07-19T13:26:58Z</time>
      </trkpt>
      <trkpt lat="44.21816" lon="3.27186">
        <ele>903.7</ele>
        <time>2020-07-19T13:27:00Z</time>
      </trkpt>
      <trkpt lat="44.21816" lon="3.27172">
        <ele>903.9</ele>
        <time>2020-07-19T13:27:02Z</time>
      </trkpt>
      <trkpt lat="44.21816" lon="3.27162">
        <ele>904.1</ele>
        <time>2020-07-19T13:27:04Z</time>
      </trkpt>
      <trkpt lat="44.21817" lon="3.2716">
        <ele>904.2</ele>
        <time>2020-07-19T13:27:05Z</time>
      </trkpt>
      <trkpt lat="44.21818" lon="3.27156">
        <ele>904.3</ele>
        <time>2020-07-19T13:27:06Z</time>
      </trkpt>
      <trkpt lat="44.21818" lon="3.27155">
        <ele>904.4</ele>
        <time>2020-07-19T13:27:08Z</time>
      </trkpt>
      <trkpt lat="44.21818" lon="3.27154">
        <ele>904.4</ele>
        <time>2020-07-19T13:27:10Z</time>
      </trkpt>
      <trkpt lat="44.21818" lon="3.27153">
        <ele>904.4</ele>
        <time>2020-07-19T13:27:12Z</time>
      </trkpt>
      <trkpt lat="44.21818" lon="3.27152">
        <ele>904.5</ele>
        <time>2020-07-19T13:27:13Z</time>
      </trkpt>
      <trkpt lat="44.21818" lon="3.27151">
        <ele>904.5</ele>
        <time>2020-07-19T13:27:14Z</time>
      </trkpt>
      <trkpt lat="44.21818" lon="3.2715">
        <ele>904.5</ele>
        <time>2020-07-19T13:27:16Z</time>
      </trkpt>
      <trkpt lat="44.21818" lon="3.27149">
        <ele>904.5</ele>
        <time>2020-07-19T13:27:17Z</time>
      </trkpt>
      <trkpt lat="44.21818" lon="3.27148">
        <ele>904.6</ele>
        <time>2020-07-19T13:27:18Z</time>
      </trkpt>
      <trkpt lat="44.21818" lon="3.27147">
        <ele>904.6</ele>
        <time>2020-07-19T13:27:20Z</time>
      </trkpt>
      <trkpt lat="44.21818" lon="3.27146">
        <ele>904.6</ele>
        <time>2020-07-19T13:27:21Z</time>
      </trkpt>
      <trkpt lat="44.21819" lon="3.27145">
        <ele>904.6</ele>
        <time>2020-07-19T13:27:22Z</time>
      </trkpt>
      <trkpt lat="44.21819" lon="3.27146">
        <ele>904.7</ele>
        <time>2020-07-19T13:27:24Z</time>
      </trkpt>
      <trkpt lat="44.21818" lon="3.27147">
        <ele>904.7</ele>
        <time>2020-07-19T13:27:25Z</time>
      </trkpt>
      <trkpt lat="44.21818" lon="3.27147">
        <ele>904.7</ele>
        <time>2020-07-19T13:27:27Z</time>
      </trkpt>
      <trkpt lat="44.21818" lon="3.27148">
        <ele>904.7</ele>
        <time>2020-07-19T13:27:28Z</time>
      </trkpt>
      <trkpt lat="44.21818" lon="3.27147">
        <ele>904.7</ele>
        <time>2020-07-19T13:27:30Z</time>
      </trkpt>
      <trkpt lat="44.21818" lon="3.27146">
        <ele>904.8</ele>
        <time>2020-07-19T13:27:31Z</time>
      </trkpt>
      <trkpt lat="44.21817" lon="3.27143">
        <ele>904.9</ele>
        <time>2020-07-19T13:27:33Z</time>
      </trkpt>
      <trkpt lat="44.21817" lon="3.27142">
        <ele>904.9</ele>
        <time>2020-07-19T13:27:34Z</time>
      </trkpt>
      <trkpt lat="44.21817" lon="3.27139">
        <ele>905.1</ele>
        <time>2020-07-19T13:27:35Z</time>
      </trkpt>
      <trkpt lat="44.21817" lon="3.27135">
        <ele>905.2</ele>
        <time>2020-07-19T13:27:37Z</time>
      </trkpt>
      <trkpt lat="44.21816" lon="3.27133">
        <ele>905.3</ele>
        <time>2020-07-19T13:27:38Z</time>
      </trkpt>
      <trkpt lat="44.21817" lon="3.27126">
        <ele>905.6</ele>
        <time>2020-07-19T13:27:40Z</time>
      </trkpt>
      <trkpt lat="44.21816" lon="3.27119">
        <ele>905.9</ele>
        <time>2020-07-19T13:27:41Z</time>
      </trkpt>
      <trkpt lat="44.21816" lon="3.27112">
        <ele>906.1</ele>
        <time>2020-07-19T13:27:42Z</time>
      </trkpt>
      <trkpt lat="44.21817" lon="3.27104">
        <ele>906.4</ele>
        <time>2020-07-19T13:27:44Z</time>
      </trkpt>
      <trkpt lat="44.21817" lon="3.27099">
        <ele>906.5</ele>
        <time>2020-07-19T13:27:45Z</time>
      </trkpt>
      <trkpt lat="44.21818" lon="3.27094">
        <ele>906.6</ele>
        <time>2020-07-19T13:27:46Z</time>
      </trkpt>
      <trkpt lat="44.21818" lon="3.27089">
        <ele>906.8</ele>
        <time>2020-07-19T13:27:47Z</time>
      </trkpt>
      <trkpt lat="44.21818" lon="3.27083">
        <ele>907</ele>
        <time>2020-07-19T13:27:49Z</time>
      </trkpt>
      <trkpt lat="44.21819" lon="3.27076">
        <ele>907.3</ele>
        <time>2020-07-19T13:27:50Z</time>
      </trkpt>
      <trkpt lat="44.2182" lon="3.27071">
        <ele>907.5</ele>
        <time>2020-07-19T13:27:51Z</time>
      </trkpt>
      <trkpt lat="44.2182" lon="3.27066">
        <ele>907.7</ele>
        <time>2020-07-19T13:27:52Z</time>
      </trkpt>
      <trkpt lat="44.21821" lon="3.27061">
        <ele>907.9</ele>
        <time>2020-07-19T13:27:54Z</time>
      </trkpt>
      <trkpt lat="44.21822" lon="3.27055">
        <ele>908.1</ele>
        <time>2020-07-19T13:27:55Z</time>
      </trkpt>
      <trkpt lat="44.21823" lon="3.2705">
        <ele>908.3</ele>
        <time>2020-07-19T13:27:56Z</time>
      </trkpt>
      <trkpt lat="44.21824" lon="3.27045">
        <ele>908.6</ele>
        <time>2020-07-19T13:27:58Z</time>
      </trkpt>
      <trkpt lat="44.21826" lon="3.27041">
        <ele>908.7</ele>
        <time>2020-07-19T13:27:59Z</time>
      </trkpt>
      <trkpt lat="44.21827" lon="3.27038">
        <ele>908.9</ele>
        <time>2020-07-19T13:28:00Z</time>
      </trkpt>
      <trkpt lat="44.21829" lon="3.27034">
        <ele>909.1</ele>
        <time>2020-07-19T13:28:02Z</time>
      </trkpt>
      <trkpt lat="44.2183" lon="3.27029">
        <ele>909.3</ele>
        <time>2020-07-19T13:28:03Z</time>
      </trkpt>
      <trkpt lat="44.21832" lon="3.27024">
        <ele>909.6</ele>
        <time>2020-07-19T13:28:05Z</time>
      </trkpt>
      <trkpt lat="44.21834" lon="3.27019">
        <ele>909.9</ele>
        <time>2020-07-19T13:28:06Z</time>
      </trkpt>
      <trkpt lat="44.21836" lon="3.27013">
        <ele>910.2</ele>
        <time>2020-07-19T13:28:07Z</time>
      </trkpt>
      <trkpt lat="44.21839" lon="3.27008">
        <ele>910.6</ele>
        <time>2020-07-19T13:28:09Z</time>
      </trkpt>
      <trkpt lat="44.2184" lon="3.27006">
        <ele>910.7</ele>
        <time>2020-07-19T13:28:10Z</time>
      </trkpt>
      <trkpt lat="44.21841" lon="3.27004">
        <ele>910.8</ele>
        <time>2020-07-19T13:28:11Z</time>
      </trkpt>
      <trkpt lat="44.21844" lon="3.26998">
        <ele>911.1</ele>
        <time>2020-07-19T13:28:13Z</time>
      </trkpt>
      <trkpt lat="44.21845" lon="3.26993">
        <ele>911.3</ele>
        <time>2020-07-19T13:28:14Z</time>
      </trkpt>
      <trkpt lat="44.21847" lon="3.26989">
        <ele>911.5</ele>
        <time>2020-07-19T13:28:15Z</time>
      </trkpt>
      <trkpt lat="44.21848" lon="3.26986">
        <ele>911.7</ele>
        <time>2020-07-19T13:28:16Z</time>
      </trkpt>
      <trkpt lat="44.21849" lon="3.26979">
        <ele>912</ele>
        <time>2020-07-19T13:28:18Z</time>
      </trkpt>
      <trkpt lat="44.2185" lon="3.26976">
        <ele>912.2</ele>
        <time>2020-07-19T13:28:19Z</time>
      </trkpt>
      <trkpt lat="44.21851" lon="3.26969">
        <ele>912.5</ele>
        <time>2020-07-19T13:28:21Z</time>
      </trkpt>
      <trkpt lat="44.21852" lon="3.26963">
        <ele>912.8</ele>
        <time>2020-07-19T13:28:23Z</time>
      </trkpt>
      <trkpt lat="44.21853" lon="3.26958">
        <ele>913</ele>
        <time>2020-07-19T13:28:24Z</time>
      </trkpt>
      <trkpt lat="44.21854" lon="3.26951">
        <ele>913.4</ele>
        <time>2020-07-19T13:28:26Z</time>
      </trkpt>
      <trkpt lat="44.21854" lon="3.26946">
        <ele>913.7</ele>
        <time>2020-07-19T13:28:28Z</time>
      </trkpt>
      <trkpt lat="44.21854" lon="3.26941">
        <ele>913.9</ele>
        <time>2020-07-19T13:28:29Z</time>
      </trkpt>
      <trkpt lat="44.21854" lon="3.26933">
        <ele>914.3</ele>
        <time>2020-07-19T13:28:31Z</time>
      </trkpt>
      <trkpt lat="44.21854" lon="3.26925">
        <ele>914.5</ele>
        <time>2020-07-19T13:28:33Z</time>
      </trkpt>
      <trkpt lat="44.21854" lon="3.26919">
        <ele>914.7</ele>
        <time>2020-07-19T13:28:35Z</time>
      </trkpt>
      <trkpt lat="44.21854" lon="3.26914">
        <ele>914.9</ele>
        <time>2020-07-19T13:28:36Z</time>
      </trkpt>
      <trkpt lat="44.21853" lon="3.2691">
        <ele>914.9</ele>
        <time>2020-07-19T13:28:37Z</time>
      </trkpt>
      <trkpt lat="44.21852" lon="3.26904">
        <ele>915</ele>
        <time>2020-07-19T13:28:39Z</time>
      </trkpt>
      <trkpt lat="44.21851" lon="3.26897">
        <ele>915.1</ele>
        <time>2020-07-19T13:28:40Z</time>
      </trkpt>
      <trkpt lat="44.21851" lon="3.26889">
        <ele>915.2</ele>
        <time>2020-07-19T13:28:42Z</time>
      </trkpt>
      <trkpt lat="44.21851" lon="3.26883">
        <ele>915.3</ele>
        <time>2020-07-19T13:28:43Z</time>
      </trkpt>
      <trkpt lat="44.21851" lon="3.26873">
        <ele>915.5</ele>
        <time>2020-07-19T13:28:45Z</time>
      </trkpt>
      <trkpt lat="44.21852" lon="3.26866">
        <ele>915.6</ele>
        <time>2020-07-19T13:28:46Z</time>
      </trkpt>
      <trkpt lat="44.21853" lon="3.26856">
        <ele>915.9</ele>
        <time>2020-07-19T13:28:48Z</time>
      </trkpt>
      <trkpt lat="44.21854" lon="3.2685">
        <ele>916</ele>
        <time>2020-07-19T13:28:49Z</time>
      </trkpt>
      <trkpt lat="44.21855" lon="3.26842">
        <ele>916</ele>
        <time>2020-07-19T13:28:51Z</time>
      </trkpt>
      <trkpt lat="44.21857" lon="3.26835">
        <ele>916</ele>
        <time>2020-07-19T13:28:52Z</time>
      </trkpt>
      <trkpt lat="44.2186" lon="3.26824">
        <ele>915.8</ele>
        <time>2020-07-19T13:28:54Z</time>
      </trkpt>
      <trkpt lat="44.21863" lon="3.26816">
        <ele>915.5</ele>
        <time>2020-07-19T13:28:55Z</time>
      </trkpt>
      <trkpt lat="44.21866" lon="3.26807">
        <ele>915.2</ele>
        <time>2020-07-19T13:28:56Z</time>
      </trkpt>
      <trkpt lat="44.21867" lon="3.26799">
        <ele>914.9</ele>
        <time>2020-07-19T13:28:57Z</time>
      </trkpt>
      <trkpt lat="44.21872" lon="3.26782">
        <ele>914</ele>
        <time>2020-07-19T13:28:59Z</time>
      </trkpt>
      <trkpt lat="44.21875" lon="3.26767">
        <ele>913.1</ele>
        <time>2020-07-19T13:29:01Z</time>
      </trkpt>
      <trkpt lat="44.21876" lon="3.26763">
        <ele>913.3</ele>
        <time>2020-07-19T13:29:02Z</time>
      </trkpt>
      <trkpt lat="44.21876" lon="3.26756">
        <ele>913.5</ele>
        <time>2020-07-19T13:29:04Z</time>
      </trkpt>
      <trkpt lat="44.21877" lon="3.26753">
        <ele>913.6</ele>
        <time>2020-07-19T13:29:05Z</time>
      </trkpt>
      <trkpt lat="44.21878" lon="3.26745">
        <ele>913.8</ele>
        <time>2020-07-19T13:29:07Z</time>
      </trkpt>
      <trkpt lat="44.2188" lon="3.26741">
        <ele>914</ele>
        <time>2020-07-19T13:29:08Z</time>
      </trkpt>
      <trkpt lat="44.21882" lon="3.26736">
        <ele>914.1</ele>
        <time>2020-07-19T13:29:09Z</time>
      </trkpt>
      <trkpt lat="44.21885" lon="3.26732">
        <ele>914.3</ele>
        <time>2020-07-19T13:29:11Z</time>
      </trkpt>
      <trkpt lat="44.21886" lon="3.26727">
        <ele>914.5</ele>
        <time>2020-07-19T13:29:12Z</time>
      </trkpt>
      <trkpt lat="44.21887" lon="3.26723">
        <ele>914.8</ele>
        <time>2020-07-19T13:29:13Z</time>
      </trkpt>
      <trkpt lat="44.21888" lon="3.26719">
        <ele>914.9</ele>
        <time>2020-07-19T13:29:14Z</time>
      </trkpt>
      <trkpt lat="44.2189" lon="3.26714">
        <ele>915.3</ele>
        <time>2020-07-19T13:29:16Z</time>
      </trkpt>
      <trkpt lat="44.21892" lon="3.2671">
        <ele>915.6</ele>
        <time>2020-07-19T13:29:17Z</time>
      </trkpt>
      <trkpt lat="44.21894" lon="3.26705">
        <ele>915.9</ele>
        <time>2020-07-19T13:29:18Z</time>
      </trkpt>
      <trkpt lat="44.21895" lon="3.26702">
        <ele>916.2</ele>
        <time>2020-07-19T13:29:19Z</time>
      </trkpt>
      <trkpt lat="44.21895" lon="3.26697">
        <ele>916.5</ele>
        <time>2020-07-19T13:29:20Z</time>
      </trkpt>
      <trkpt lat="44.21896" lon="3.26695">
        <ele>916.7</ele>
        <time>2020-07-19T13:29:21Z</time>
      </trkpt>
      <trkpt lat="44.21897" lon="3.2669">
        <ele>917</ele>
        <time>2020-07-19T13:29:23Z</time>
      </trkpt>
      <trkpt lat="44.21897" lon="3.26688">
        <ele>917.1</ele>
        <time>2020-07-19T13:29:24Z</time>
      </trkpt>
      <trkpt lat="44.21899" lon="3.26684">
        <ele>917.4</ele>
        <time>2020-07-19T13:29:25Z</time>
      </trkpt>
      <trkpt lat="44.21902" lon="3.26681">
        <ele>917.5</ele>
        <time>2020-07-19T13:29:26Z</time>
      </trkpt>
      <trkpt lat="44.21904" lon="3.26677">
        <ele>917.5</ele>
        <time>2020-07-19T13:29:27Z</time>
      </trkpt>
      <trkpt lat="44.21906" lon="3.26674">
        <ele>917.5</ele>
        <time>2020-07-19T13:29:29Z</time>
      </trkpt>
      <trkpt lat="44.21909" lon="3.26668">
        <ele>917.5</ele>
        <time>2020-07-19T13:29:30Z</time>
      </trkpt>
      <trkpt lat="44.21911" lon="3.26664">
        <ele>917.4</ele>
        <time>2020-07-19T13:29:31Z</time>
      </trkpt>
      <trkpt lat="44.21912" lon="3.26657">
        <ele>917.3</ele>
        <time>2020-07-19T13:29:33Z</time>
      </trkpt>
      <trkpt lat="44.21913" lon="3.26649">
        <ele>917.1</ele>
        <time>2020-07-19T13:29:34Z</time>
      </trkpt>
      <trkpt lat="44.21915" lon="3.2664">
        <ele>916.8</ele>
        <time>2020-07-19T13:29:36Z</time>
      </trkpt>
      <trkpt lat="44.21919" lon="3.26631">
        <ele>916.6</ele>
        <time>2020-07-19T13:29:37Z</time>
      </trkpt>
      <trkpt lat="44.21921" lon="3.26625">
        <ele>916.4</ele>
        <time>2020-07-19T13:29:38Z</time>
      </trkpt>
      <trkpt lat="44.21926" lon="3.26611">
        <ele>916</ele>
        <time>2020-07-19T13:29:40Z</time>
      </trkpt>
      <trkpt lat="44.21929" lon="3.26604">
        <ele>915.8</ele>
        <time>2020-07-19T13:29:41Z</time>
      </trkpt>
      <trkpt lat="44.21931" lon="3.26597">
        <ele>915.5</ele>
        <time>2020-07-19T13:29:42Z</time>
      </trkpt>
      <trkpt lat="44.21935" lon="3.26582">
        <ele>914.7</ele>
        <time>2020-07-19T13:29:44Z</time>
      </trkpt>
      <trkpt lat="44.2194" lon="3.26567">
        <ele>914.2</ele>
        <time>2020-07-19T13:29:46Z</time>
      </trkpt>
      <trkpt lat="44.21942" lon="3.2656">
        <ele>914</ele>
        <time>2020-07-19T13:29:47Z</time>
      </trkpt>
      <trkpt lat="44.21947" lon="3.26546">
        <ele>913.6</ele>
        <time>2020-07-19T13:29:49Z</time>
      </trkpt>
      <trkpt lat="44.21949" lon="3.26539">
        <ele>913.4</ele>
        <time>2020-07-19T13:29:50Z</time>
      </trkpt>
      <trkpt lat="44.21951" lon="3.26533">
        <ele>913.2</ele>
        <time>2020-07-19T13:29:51Z</time>
      </trkpt>
      <trkpt lat="44.21957" lon="3.26521">
        <ele>913.1</ele>
        <time>2020-07-19T13:29:53Z</time>
      </trkpt>
      <trkpt lat="44.21961" lon="3.26514">
        <ele>913.2</ele>
        <time>2020-07-19T13:29:55Z</time>
      </trkpt>
      <trkpt lat="44.21962" lon="3.26507">
        <ele>913.4</ele>
        <time>2020-07-19T13:29:57Z</time>
      </trkpt>
      <trkpt lat="44.21966" lon="3.26499">
        <ele>913.5</ele>
        <time>2020-07-19T13:29:59Z</time>
      </trkpt>
      <trkpt lat="44.21968" lon="3.26496">
        <ele>913.6</ele>
        <time>2020-07-19T13:30:00Z</time>
      </trkpt>
      <trkpt lat="44.21968" lon="3.26494">
        <ele>913.6</ele>
        <time>2020-07-19T13:30:01Z</time>
      </trkpt>
      <trkpt lat="44.21971" lon="3.2649">
        <ele>913.7</ele>
        <time>2020-07-19T13:30:03Z</time>
      </trkpt>
      <trkpt lat="44.21978" lon="3.26483">
        <ele>913.9</ele>
        <time>2020-07-19T13:30:05Z</time>
      </trkpt>
      <trkpt lat="44.2198" lon="3.2648">
        <ele>914</ele>
        <time>2020-07-19T13:30:06Z</time>
      </trkpt>
      <trkpt lat="44.21983" lon="3.26477">
        <ele>914.1</ele>
        <time>2020-07-19T13:30:07Z</time>
      </trkpt>
      <trkpt lat="44.21987" lon="3.26473">
        <ele>914.2</ele>
        <time>2020-07-19T13:30:09Z</time>
      </trkpt>
      <trkpt lat="44.21989" lon="3.26469">
        <ele>914.4</ele>
        <time>2020-07-19T13:30:10Z</time>
      </trkpt>
      <trkpt lat="44.21991" lon="3.26465">
        <ele>914.5</ele>
        <time>2020-07-19T13:30:11Z</time>
      </trkpt>
      <trkpt lat="44.21993" lon="3.2646">
        <ele>914.7</ele>
        <time>2020-07-19T13:30:13Z</time>
      </trkpt>
      <trkpt lat="44.21996" lon="3.26456">
        <ele>914.9</ele>
        <time>2020-07-19T13:30:14Z</time>
      </trkpt>
      <trkpt lat="44.22001" lon="3.2645">
        <ele>915.2</ele>
        <time>2020-07-19T13:30:16Z</time>
      </trkpt>
      <trkpt lat="44.22007" lon="3.26444">
        <ele>915.4</ele>
        <time>2020-07-19T13:30:18Z</time>
      </trkpt>
      <trkpt lat="44.22011" lon="3.26441">
        <ele>915.4</ele>
        <time>2020-07-19T13:30:19Z</time>
      </trkpt>
      <trkpt lat="44.22014" lon="3.2644">
        <ele>915.3</ele>
        <time>2020-07-19T13:30:20Z</time>
      </trkpt>
      <trkpt lat="44.22021" lon="3.26437">
        <ele>914.9</ele>
        <time>2020-07-19T13:30:22Z</time>
      </trkpt>
      <trkpt lat="44.22024" lon="3.26434">
        <ele>914.7</ele>
        <time>2020-07-19T13:30:24Z</time>
      </trkpt>
      <trkpt lat="44.22025" lon="3.2643">
        <ele>914.3</ele>
        <time>2020-07-19T13:30:25Z</time>
      </trkpt>
      <trkpt lat="44.22022" lon="3.26423">
        <ele>913.7</ele>
        <time>2020-07-19T13:30:26Z</time>
      </trkpt>
      <trkpt lat="44.2202" lon="3.26416">
        <ele>913</ele>
        <time>2020-07-19T13:30:27Z</time>
      </trkpt>
      <trkpt lat="44.22021" lon="3.26406">
        <ele>911.9</ele>
        <time>2020-07-19T13:30:29Z</time>
      </trkpt>
      <trkpt lat="44.2202" lon="3.26403">
        <ele>911.6</ele>
        <time>2020-07-19T13:30:30Z</time>
      </trkpt>
      <trkpt lat="44.22021" lon="3.264">
        <ele>911.2</ele>
        <time>2020-07-19T13:30:32Z</time>
      </trkpt>
      <trkpt lat="44.22024" lon="3.26401">
        <ele>910.8</ele>
        <time>2020-07-19T13:30:33Z</time>
      </trkpt>
      <trkpt lat="44.22028" lon="3.26406">
        <ele>910.1</ele>
        <time>2020-07-19T13:30:34Z</time>
      </trkpt>
      <trkpt lat="44.22034" lon="3.26407">
        <ele>909.3</ele>
        <time>2020-07-19T13:30:36Z</time>
      </trkpt>
      <trkpt lat="44.22036" lon="3.26402">
        <ele>908.8</ele>
        <time>2020-07-19T13:30:37Z</time>
      </trkpt>
      <trkpt lat="44.22035" lon="3.26394">
        <ele>908.2</ele>
        <time>2020-07-19T13:30:39Z</time>
      </trkpt>
      <trkpt lat="44.22032" lon="3.26386">
        <ele>907.3</ele>
        <time>2020-07-19T13:30:41Z</time>
      </trkpt>
      <trkpt lat="44.2203" lon="3.26378">
        <ele>906.5</ele>
        <time>2020-07-19T13:30:43Z</time>
      </trkpt>
      <trkpt lat="44.22029" lon="3.26371">
        <ele>905.8</ele>
        <time>2020-07-19T13:30:44Z</time>
      </trkpt>
      <trkpt lat="44.22027" lon="3.26363">
        <ele>905.2</ele>
        <time>2020-07-19T13:30:45Z</time>
      </trkpt>
      <trkpt lat="44.22026" lon="3.26357">
        <ele>904.6</ele>
        <time>2020-07-19T13:30:46Z</time>
      </trkpt>
      <trkpt lat="44.22023" lon="3.26352">
        <ele>904.2</ele>
        <time>2020-07-19T13:30:48Z</time>
      </trkpt>
      <trkpt lat="44.22023" lon="3.26347">
        <ele>903.9</ele>
        <time>2020-07-19T13:30:49Z</time>
      </trkpt>
      <trkpt lat="44.22021" lon="3.26342">
        <ele>903.5</ele>
        <time>2020-07-19T13:30:50Z</time>
      </trkpt>
      <trkpt lat="44.2202" lon="3.26338">
        <ele>903.3</ele>
        <time>2020-07-19T13:30:51Z</time>
      </trkpt>
      <trkpt lat="44.22019" lon="3.2633">
        <ele>902.8</ele>
        <time>2020-07-19T13:30:53Z</time>
      </trkpt>
      <trkpt lat="44.2202" lon="3.26325">
        <ele>902.5</ele>
        <time>2020-07-19T13:30:54Z</time>
      </trkpt>
      <trkpt lat="44.22021" lon="3.26321">
        <ele>902.3</ele>
        <time>2020-07-19T13:30:55Z</time>
      </trkpt>
      <trkpt lat="44.2202" lon="3.26312">
        <ele>901.7</ele>
        <time>2020-07-19T13:30:57Z</time>
      </trkpt>
      <trkpt lat="44.22019" lon="3.26307">
        <ele>901.3</ele>
        <time>2020-07-19T13:30:59Z</time>
      </trkpt>
      <trkpt lat="44.22018" lon="3.26302">
        <ele>901</ele>
        <time>2020-07-19T13:31:00Z</time>
      </trkpt>
      <trkpt lat="44.22017" lon="3.26297">
        <ele>900.6</ele>
        <time>2020-07-19T13:31:01Z</time>
      </trkpt>
      <trkpt lat="44.22014" lon="3.26292">
        <ele>900.2</ele>
        <time>2020-07-19T13:31:03Z</time>
      </trkpt>
      <trkpt lat="44.22011" lon="3.26289">
        <ele>899.8</ele>
        <time>2020-07-19T13:31:05Z</time>
      </trkpt>
      <trkpt lat="44.22012" lon="3.2629">
        <ele>899.8</ele>
        <time>2020-07-19T13:31:06Z</time>
      </trkpt>
      <trkpt lat="44.22012" lon="3.2629">
        <ele>899.7</ele>
        <time>2020-07-19T13:31:08Z</time>
      </trkpt>
      <trkpt lat="44.22012" lon="3.26291">
        <ele>899.7</ele>
        <time>2020-07-19T13:31:09Z</time>
      </trkpt>
      <trkpt lat="44.22012" lon="3.26291">
        <ele>899.6</ele>
        <time>2020-07-19T13:31:11Z</time>
      </trkpt>
      <trkpt lat="44.2201" lon="3.26292">
        <ele>899.4</ele>
        <time>2020-07-19T13:31:12Z</time>
      </trkpt>
      <trkpt lat="44.22008" lon="3.26292">
        <ele>899</ele>
        <time>2020-07-19T13:31:14Z</time>
      </trkpt>
      <trkpt lat="44.22006" lon="3.26291">
        <ele>898.9</ele>
        <time>2020-07-19T13:31:15Z</time>
      </trkpt>
      <trkpt lat="44.22006" lon="3.26289">
        <ele>898.7</ele>
        <time>2020-07-19T13:31:16Z</time>
      </trkpt>
      <trkpt lat="44.22005" lon="3.26286">
        <ele>898.3</ele>
        <time>2020-07-19T13:31:18Z</time>
      </trkpt>
      <trkpt lat="44.22004" lon="3.26279">
        <ele>898.3</ele>
        <time>2020-07-19T13:31:19Z</time>
      </trkpt>
      <trkpt lat="44.22003" lon="3.26276">
        <ele>898.3</ele>
        <time>2020-07-19T13:31:20Z</time>
      </trkpt>
      <trkpt lat="44.22002" lon="3.26269">
        <ele>898.4</ele>
        <time>2020-07-19T13:31:22Z</time>
      </trkpt>
      <trkpt lat="44.22" lon="3.26263">
        <ele>898.4</ele>
        <time>2020-07-19T13:31:24Z</time>
      </trkpt>
      <trkpt lat="44.21999" lon="3.2626">
        <ele>898.4</ele>
        <time>2020-07-19T13:31:25Z</time>
      </trkpt>
      <trkpt lat="44.21998" lon="3.26254">
        <ele>898.3</ele>
        <time>2020-07-19T13:31:26Z</time>
      </trkpt>
      <trkpt lat="44.21997" lon="3.26249">
        <ele>898.2</ele>
        <time>2020-07-19T13:31:27Z</time>
      </trkpt>
      <trkpt lat="44.21997" lon="3.26245">
        <ele>898.2</ele>
        <time>2020-07-19T13:31:28Z</time>
      </trkpt>
      <trkpt lat="44.21997" lon="3.26239">
        <ele>898</ele>
        <time>2020-07-19T13:31:30Z</time>
      </trkpt>
      <trkpt lat="44.21996" lon="3.26237">
        <ele>898</ele>
        <time>2020-07-19T13:31:31Z</time>
      </trkpt>
      <trkpt lat="44.21994" lon="3.26234">
        <ele>897.9</ele>
        <time>2020-07-19T13:31:33Z</time>
      </trkpt>
      <trkpt lat="44.21994" lon="3.26228">
        <ele>889.5</ele>
      </trkpt>
      <trkpt lat="44.22008" lon="3.26223">
        <ele>889.6</ele>
      </trkpt>
      <trkpt lat="44.22024" lon="3.26216">
        <ele>891.9</ele>
      </trkpt>
      <trkpt lat="44.22029" lon="3.26216">
        <ele>892.3</ele>
      </trkpt>
      <trkpt lat="44.22034" lon="3.26235">
        <ele>893.5</ele>
      </trkpt>
      <trkpt lat="44.22057" lon="3.26272">
        <ele>897.9</ele>
      </trkpt>
      <trkpt lat="44.22065" lon="3.26275">
        <ele>898.9</ele>
      </trkpt>
      <trkpt lat="44.22071" lon="3.26277">
        <ele>899.7</ele>
      </trkpt>
      <trkpt lat="44.22074" lon="3.26291">
        <ele>901.8</ele>
      </trkpt>
      <trkpt lat="44.22073" lon="3.26299">
        <ele>903</ele>
      </trkpt>
      <trkpt lat="44.22067" lon="3.26302">
        <ele>902.7</ele>
      </trkpt>
      <trkpt lat="44.22062" lon="3.26294">
        <ele>901</ele>
      </trkpt>
      <trkpt lat="44.22057" lon="3.26276">
        <ele>898</ele>
      </trkpt>
      <trkpt lat="44.22035" lon="3.26233">
        <ele>893.4</ele>
      </trkpt>
      <trkpt lat="44.22031" lon="3.26217">
        <ele>892.4</ele>
      </trkpt>
      <trkpt lat="44.22025" lon="3.26217">
        <ele>891.8</ele>
      </trkpt>
      <trkpt lat="44.21992" lon="3.2623">
        <ele>889.7</ele>
      </trkpt>
      <trkpt lat="44.21981" lon="3.26226">
        <ele>897.6</ele>
        <time>2020-07-19T13:31:39Z</time>
      </trkpt>
      <trkpt lat="44.21977" lon="3.26222">
        <ele>897.9</ele>
        <time>2020-07-19T13:31:41Z</time>
      </trkpt>
      <trkpt lat="44.21977" lon="3.26221">
        <ele>898</ele>
        <time>2020-07-19T13:31:42Z</time>
      </trkpt>
      <trkpt lat="44.21976" lon="3.26219">
        <ele>898.1</ele>
        <time>2020-07-19T13:31:43Z</time>
      </trkpt>
      <trkpt lat="44.21974" lon="3.26216">
        <ele>898.4</ele>
        <time>2020-07-19T13:31:44Z</time>
      </trkpt>
      <trkpt lat="44.21974" lon="3.26215">
        <ele>898.4</ele>
        <time>2020-07-19T13:31:45Z</time>
      </trkpt>
      <trkpt lat="44.21974" lon="3.26212">
        <ele>898.6</ele>
        <time>2020-07-19T13:31:47Z</time>
      </trkpt>
      <trkpt lat="44.21974" lon="3.2621">
        <ele>898.7</ele>
        <time>2020-07-19T13:31:48Z</time>
      </trkpt>
      <trkpt lat="44.21973" lon="3.26208">
        <ele>898.8</ele>
        <time>2020-07-19T13:31:49Z</time>
      </trkpt>
      <trkpt lat="44.21973" lon="3.26206">
        <ele>898.9</ele>
        <time>2020-07-19T13:31:50Z</time>
      </trkpt>
      <trkpt lat="44.21974" lon="3.26202">
        <ele>899.1</ele>
        <time>2020-07-19T13:31:52Z</time>
      </trkpt>
      <trkpt lat="44.21974" lon="3.262">
        <ele>899.1</ele>
        <time>2020-07-19T13:31:53Z</time>
      </trkpt>
      <trkpt lat="44.21972" lon="3.26198">
        <ele>899.3</ele>
        <time>2020-07-19T13:31:55Z</time>
      </trkpt>
      <trkpt lat="44.21972" lon="3.26198">
        <ele>899.3</ele>
        <time>2020-07-19T13:31:56Z</time>
      </trkpt>
      <trkpt lat="44.21972" lon="3.26198">
        <ele>899.3</ele>
        <time>2020-07-19T13:31:58Z</time>
      </trkpt>
      <trkpt lat="44.2197" lon="3.26196">
        <ele>899.4</ele>
        <time>2020-07-19T13:31:59Z</time>
      </trkpt>
      <trkpt lat="44.21968" lon="3.2619">
        <ele>899.6</ele>
        <time>2020-07-19T13:32:01Z</time>
      </trkpt>
      <trkpt lat="44.21966" lon="3.26187">
        <ele>899.8</ele>
        <time>2020-07-19T13:32:02Z</time>
      </trkpt>
      <trkpt lat="44.21963" lon="3.26183">
        <ele>900</ele>
        <time>2020-07-19T13:32:04Z</time>
      </trkpt>
      <trkpt lat="44.2196" lon="3.26181">
        <ele>900.2</ele>
        <time>2020-07-19T13:32:05Z</time>
      </trkpt>
      <trkpt lat="44.21956" lon="3.2618">
        <ele>900.4</ele>
        <time>2020-07-19T13:32:07Z</time>
      </trkpt>
      <trkpt lat="44.21954" lon="3.2618">
        <ele>900.6</ele>
        <time>2020-07-19T13:32:08Z</time>
      </trkpt>
      <trkpt lat="44.21953" lon="3.2618">
        <ele>900.6</ele>
        <time>2020-07-19T13:32:09Z</time>
      </trkpt>
      <trkpt lat="44.21949" lon="3.2618">
        <ele>900.8</ele>
        <time>2020-07-19T13:32:11Z</time>
      </trkpt>
      <trkpt lat="44.21945" lon="3.26181">
        <ele>901</ele>
        <time>2020-07-19T13:32:13Z</time>
      </trkpt>
      <trkpt lat="44.21942" lon="3.2618">
        <ele>901.1</ele>
        <time>2020-07-19T13:32:15Z</time>
      </trkpt>
      <trkpt lat="44.21939" lon="3.26178">
        <ele>901.3</ele>
        <time>2020-07-19T13:32:16Z</time>
      </trkpt>
      <trkpt lat="44.21938" lon="3.26177">
        <ele>901.3</ele>
        <time>2020-07-19T13:32:17Z</time>
      </trkpt>
      <trkpt lat="44.21936" lon="3.26174">
        <ele>901.4</ele>
        <time>2020-07-19T13:32:18Z</time>
      </trkpt>
      <trkpt lat="44.21935" lon="3.26173">
        <ele>901.4</ele>
        <time>2020-07-19T13:32:19Z</time>
      </trkpt>
      <trkpt lat="44.21934" lon="3.2617">
        <ele>901.6</ele>
        <time>2020-07-19T13:32:20Z</time>
      </trkpt>
      <trkpt lat="44.21933" lon="3.26168">
        <ele>901.7</ele>
        <time>2020-07-19T13:32:22Z</time>
      </trkpt>
      <trkpt lat="44.21932" lon="3.26165">
        <ele>901.8</ele>
        <time>2020-07-19T13:32:23Z</time>
      </trkpt>
      <trkpt lat="44.21932" lon="3.26163">
        <ele>901.9</ele>
        <time>2020-07-19T13:32:24Z</time>
      </trkpt>
      <trkpt lat="44.21932" lon="3.26157">
        <ele>902.2</ele>
        <time>2020-07-19T13:32:26Z</time>
      </trkpt>
      <trkpt lat="44.2193" lon="3.26153">
        <ele>902.4</ele>
        <time>2020-07-19T13:32:28Z</time>
      </trkpt>
      <trkpt lat="44.21928" lon="3.26151">
        <ele>902.6</ele>
        <time>2020-07-19T13:32:29Z</time>
      </trkpt>
      <trkpt lat="44.21926" lon="3.26149">
        <ele>902.8</ele>
        <time>2020-07-19T13:32:31Z</time>
      </trkpt>
      <trkpt lat="44.21923" lon="3.26148">
        <ele>903</ele>
        <time>2020-07-19T13:32:33Z</time>
      </trkpt>
      <trkpt lat="44.21921" lon="3.26148">
        <ele>903.1</ele>
        <time>2020-07-19T13:32:34Z</time>
      </trkpt>
      <trkpt lat="44.21916" lon="3.26149">
        <ele>903.4</ele>
        <time>2020-07-19T13:32:36Z</time>
      </trkpt>
      <trkpt lat="44.21915" lon="3.26148">
        <ele>903.5</ele>
        <time>2020-07-19T13:32:37Z</time>
      </trkpt>
      <trkpt lat="44.21912" lon="3.26146">
        <ele>903.7</ele>
        <time>2020-07-19T13:32:39Z</time>
      </trkpt>
      <trkpt lat="44.21909" lon="3.26145">
        <ele>903.9</ele>
        <time>2020-07-19T13:32:41Z</time>
      </trkpt>
      <trkpt lat="44.21907" lon="3.26143">
        <ele>904.1</ele>
        <time>2020-07-19T13:32:42Z</time>
      </trkpt>
      <trkpt lat="44.21903" lon="3.26142">
        <ele>904.3</ele>
        <time>2020-07-19T13:32:44Z</time>
      </trkpt>
      <trkpt lat="44.21899" lon="3.26138">
        <ele>904.7</ele>
        <time>2020-07-19T13:32:46Z</time>
      </trkpt>
      <trkpt lat="44.21897" lon="3.26136">
        <ele>904.8</ele>
        <time>2020-07-19T13:32:48Z</time>
      </trkpt>
      <trkpt lat="44.21896" lon="3.26135">
        <ele>905</ele>
        <time>2020-07-19T13:32:49Z</time>
      </trkpt>
      <trkpt lat="44.21895" lon="3.26133">
        <ele>905.2</ele>
        <time>2020-07-19T13:32:50Z</time>
      </trkpt>
      <trkpt lat="44.21895" lon="3.26132">
        <ele>905.2</ele>
        <time>2020-07-19T13:32:51Z</time>
      </trkpt>
      <trkpt lat="44.21895" lon="3.26132">
        <ele>905.3</ele>
        <time>2020-07-19T13:32:52Z</time>
      </trkpt>
      <trkpt lat="44.21894" lon="3.2613">
        <ele>905.4</ele>
        <time>2020-07-19T13:32:54Z</time>
      </trkpt>
      <trkpt lat="44.21894" lon="3.2613">
        <ele>905.4</ele>
        <time>2020-07-19T13:32:55Z</time>
      </trkpt>
      <trkpt lat="44.21894" lon="3.2613">
        <ele>905.4</ele>
        <time>2020-07-19T13:32:56Z</time>
      </trkpt>
      <trkpt lat="44.21894" lon="3.2613">
        <ele>905.5</ele>
        <time>2020-07-19T13:32:58Z</time>
      </trkpt>
      <trkpt lat="44.21894" lon="3.2613">
        <ele>905.5</ele>
        <time>2020-07-19T13:32:59Z</time>
      </trkpt>
      <trkpt lat="44.21893" lon="3.26129">
        <ele>905.6</ele>
        <time>2020-07-19T13:33:00Z</time>
      </trkpt>
      <trkpt lat="44.21893" lon="3.26129">
        <ele>905.6</ele>
        <time>2020-07-19T13:33:02Z</time>
      </trkpt>
      <trkpt lat="44.21893" lon="3.26129">
        <ele>905.6</ele>
        <time>2020-07-19T13:33:04Z</time>
      </trkpt>
      <trkpt lat="44.21892" lon="3.26129">
        <ele>905.7</ele>
        <time>2020-07-19T13:33:05Z</time>
      </trkpt>
      <trkpt lat="44.21891" lon="3.26128">
        <ele>905.9</ele>
        <time>2020-07-19T13:33:07Z</time>
      </trkpt>
      <trkpt lat="44.2189" lon="3.26127">
        <ele>906</ele>
        <time>2020-07-19T13:33:08Z</time>
      </trkpt>
      <trkpt lat="44.21889" lon="3.26127">
        <ele>906.1</ele>
        <time>2020-07-19T13:33:10Z</time>
      </trkpt>
      <trkpt lat="44.21887" lon="3.26126">
        <ele>906.4</ele>
        <time>2020-07-19T13:33:12Z</time>
      </trkpt>
      <trkpt lat="44.21887" lon="3.26126">
        <ele>906.5</ele>
        <time>2020-07-19T13:33:13Z</time>
      </trkpt>
      <trkpt lat="44.21886" lon="3.26125">
        <ele>906.7</ele>
        <time>2020-07-19T13:33:15Z</time>
      </trkpt>
      <trkpt lat="44.21886" lon="3.26125">
        <ele>906.7</ele>
        <time>2020-07-19T13:33:16Z</time>
      </trkpt>
      <trkpt lat="44.21886" lon="3.26125">
        <ele>906.7</ele>
        <time>2020-07-19T13:33:18Z</time>
      </trkpt>
      <trkpt lat="44.21886" lon="3.26125">
        <ele>906.7</ele>
        <time>2020-07-19T13:33:19Z</time>
      </trkpt>
      <trkpt lat="44.21885" lon="3.26125">
        <ele>906.8</ele>
        <time>2020-07-19T13:33:21Z</time>
      </trkpt>
      <trkpt lat="44.21885" lon="3.26125">
        <ele>906.8</ele>
        <time>2020-07-19T13:33:22Z</time>
      </trkpt>
      <trkpt lat="44.21884" lon="3.26125">
        <ele>906.9</ele>
        <time>2020-07-19T13:33:24Z</time>
      </trkpt>
      <trkpt lat="44.21882" lon="3.26124">
        <ele>907.4</ele>
        <time>2020-07-19T13:33:42Z</time>
      </trkpt>
      <trkpt lat="44.21882" lon="3.26123">
        <ele>907.4</ele>
        <time>2020-07-19T13:33:43Z</time>
      </trkpt>
      <trkpt lat="44.21881" lon="3.26122">
        <ele>907.6</ele>
        <time>2020-07-19T13:33:44Z</time>
      </trkpt>
      <trkpt lat="44.21881" lon="3.26122">
        <ele>907.7</ele>
        <time>2020-07-19T13:33:46Z</time>
      </trkpt>
      <trkpt lat="44.21879" lon="3.26122">
        <ele>907.9</ele>
        <time>2020-07-19T13:33:47Z</time>
      </trkpt>
      <trkpt lat="44.21878" lon="3.26122">
        <ele>908.1</ele>
        <time>2020-07-19T13:33:48Z</time>
      </trkpt>
      <trkpt lat="44.21876" lon="3.26121">
        <ele>908.5</ele>
        <time>2020-07-19T13:33:50Z</time>
      </trkpt>
      <trkpt lat="44.21872" lon="3.26121">
        <ele>909.1</ele>
        <time>2020-07-19T13:33:52Z</time>
      </trkpt>
      <trkpt lat="44.2187" lon="3.26119">
        <ele>909.6</ele>
        <time>2020-07-19T13:33:54Z</time>
      </trkpt>
      <trkpt lat="44.21869" lon="3.26119">
        <ele>909.7</ele>
        <time>2020-07-19T13:33:55Z</time>
      </trkpt>
      <trkpt lat="44.21868" lon="3.26119">
        <ele>909.8</ele>
        <time>2020-07-19T13:33:56Z</time>
      </trkpt>
      <trkpt lat="44.21868" lon="3.26118">
        <ele>909.9</ele>
        <time>2020-07-19T13:33:57Z</time>
      </trkpt>
      <trkpt lat="44.21866" lon="3.26118">
        <ele>910.1</ele>
        <time>2020-07-19T13:33:58Z</time>
      </trkpt>
      <trkpt lat="44.21863" lon="3.26117">
        <ele>910.4</ele>
        <time>2020-07-19T13:34:00Z</time>
      </trkpt>
      <trkpt lat="44.2186" lon="3.26116">
        <ele>910.8</ele>
        <time>2020-07-19T13:34:02Z</time>
      </trkpt>
      <trkpt lat="44.21859" lon="3.26115">
        <ele>910.9</ele>
        <time>2020-07-19T13:34:03Z</time>
      </trkpt>
      <trkpt lat="44.21857" lon="3.26115">
        <ele>911.1</ele>
        <time>2020-07-19T13:34:04Z</time>
      </trkpt>
      <trkpt lat="44.21856" lon="3.26114">
        <ele>911.2</ele>
        <time>2020-07-19T13:34:06Z</time>
      </trkpt>
      <trkpt lat="44.21855" lon="3.26114">
        <ele>911.3</ele>
        <time>2020-07-19T13:34:07Z</time>
      </trkpt>
      <trkpt lat="44.21852" lon="3.26113">
        <ele>911.6</ele>
        <time>2020-07-19T13:34:09Z</time>
      </trkpt>
      <trkpt lat="44.21852" lon="3.26112">
        <ele>911.7</ele>
        <time>2020-07-19T13:34:10Z</time>
      </trkpt>
      <trkpt lat="44.2185" lon="3.26112">
        <ele>911.9</ele>
        <time>2020-07-19T13:34:11Z</time>
      </trkpt>
      <trkpt lat="44.21848" lon="3.26111">
        <ele>912.1</ele>
        <time>2020-07-19T13:34:13Z</time>
      </trkpt>
      <trkpt lat="44.21847" lon="3.2611">
        <ele>912.2</ele>
        <time>2020-07-19T13:34:14Z</time>
      </trkpt>
      <trkpt lat="44.21847" lon="3.2611">
        <ele>912.3</ele>
        <time>2020-07-19T13:34:15Z</time>
      </trkpt>
      <trkpt lat="44.21845" lon="3.26109">
        <ele>912.5</ele>
        <time>2020-07-19T13:34:16Z</time>
      </trkpt>
      <trkpt lat="44.21843" lon="3.26108">
        <ele>912.9</ele>
        <time>2020-07-19T13:34:17Z</time>
      </trkpt>
      <trkpt lat="44.21841" lon="3.26108">
        <ele>913</ele>
        <time>2020-07-19T13:34:19Z</time>
      </trkpt>
      <trkpt lat="44.2184" lon="3.26108">
        <ele>913.1</ele>
        <time>2020-07-19T13:34:20Z</time>
      </trkpt>
      <trkpt lat="44.21839" lon="3.26108">
        <ele>913.3</ele>
        <time>2020-07-19T13:34:22Z</time>
      </trkpt>
      <trkpt lat="44.21838" lon="3.26108">
        <ele>913.4</ele>
        <time>2020-07-19T13:34:23Z</time>
      </trkpt>
      <trkpt lat="44.21836" lon="3.26106">
        <ele>913.8</ele>
        <time>2020-07-19T13:34:24Z</time>
      </trkpt>
      <trkpt lat="44.21835" lon="3.26106">
        <ele>914</ele>
        <time>2020-07-19T13:34:25Z</time>
      </trkpt>
      <trkpt lat="44.21832" lon="3.26105">
        <ele>914.4</ele>
        <time>2020-07-19T13:34:27Z</time>
      </trkpt>
      <trkpt lat="44.21831" lon="3.26105">
        <ele>914.5</ele>
        <time>2020-07-19T13:34:28Z</time>
      </trkpt>
      <trkpt lat="44.21828" lon="3.26104">
        <ele>914.8</ele>
        <time>2020-07-19T13:34:29Z</time>
      </trkpt>
      <trkpt lat="44.21826" lon="3.26103">
        <ele>915.2</ele>
        <time>2020-07-19T13:34:31Z</time>
      </trkpt>
      <trkpt lat="44.21824" lon="3.26102">
        <ele>915.4</ele>
        <time>2020-07-19T13:34:32Z</time>
      </trkpt>
      <trkpt lat="44.21821" lon="3.26102">
        <ele>915.7</ele>
        <time>2020-07-19T13:34:34Z</time>
      </trkpt>
      <trkpt lat="44.21817" lon="3.26101">
        <ele>916</ele>
        <time>2020-07-19T13:34:36Z</time>
      </trkpt>
      <trkpt lat="44.21816" lon="3.26101">
        <ele>916</ele>
        <time>2020-07-19T13:34:37Z</time>
      </trkpt>
      <trkpt lat="44.21813" lon="3.26101">
        <ele>916.3</ele>
        <time>2020-07-19T13:34:39Z</time>
      </trkpt>
      <trkpt lat="44.21811" lon="3.26102">
        <ele>916.4</ele>
        <time>2020-07-19T13:34:40Z</time>
      </trkpt>
      <trkpt lat="44.21808" lon="3.26101">
        <ele>916.7</ele>
        <time>2020-07-19T13:34:42Z</time>
      </trkpt>
      <trkpt lat="44.21806" lon="3.26101">
        <ele>916.8</ele>
        <time>2020-07-19T13:34:43Z</time>
      </trkpt>
      <trkpt lat="44.21804" lon="3.26101">
        <ele>917</ele>
        <time>2020-07-19T13:34:45Z</time>
      </trkpt>
      <trkpt lat="44.21802" lon="3.26101">
        <ele>917.3</ele>
        <time>2020-07-19T13:34:46Z</time>
      </trkpt>
      <trkpt lat="44.218" lon="3.26101">
        <ele>917.4</ele>
        <time>2020-07-19T13:34:47Z</time>
      </trkpt>
      <trkpt lat="44.21798" lon="3.261">
        <ele>917.7</ele>
        <time>2020-07-19T13:34:49Z</time>
      </trkpt>
      <trkpt lat="44.21797" lon="3.26099">
        <ele>917.8</ele>
        <time>2020-07-19T13:34:50Z</time>
      </trkpt>
      <trkpt lat="44.21797" lon="3.26098">
        <ele>917.9</ele>
        <time>2020-07-19T13:34:52Z</time>
      </trkpt>
      <trkpt lat="44.21796" lon="3.26098">
        <ele>918</ele>
        <time>2020-07-19T13:34:53Z</time>
      </trkpt>
      <trkpt lat="44.21795" lon="3.26097">
        <ele>918.1</ele>
        <time>2020-07-19T13:34:55Z</time>
      </trkpt>
      <trkpt lat="44.21794" lon="3.26096">
        <ele>918.3</ele>
        <time>2020-07-19T13:34:57Z</time>
      </trkpt>
      <trkpt lat="44.21789" lon="3.26094">
        <ele>919</ele>
        <time>2020-07-19T13:35:02Z</time>
      </trkpt>
      <trkpt lat="44.21788" lon="3.26093">
        <ele>919.2</ele>
        <time>2020-07-19T13:35:04Z</time>
      </trkpt>
      <trkpt lat="44.21787" lon="3.26092">
        <ele>919.3</ele>
        <time>2020-07-19T13:35:05Z</time>
      </trkpt>
      <trkpt lat="44.21787" lon="3.26091">
        <ele>919.5</ele>
        <time>2020-07-19T13:35:07Z</time>
      </trkpt>
      <trkpt lat="44.21787" lon="3.26091">
        <ele>919.5</ele>
        <time>2020-07-19T13:35:09Z</time>
      </trkpt>
      <trkpt lat="44.21788" lon="3.26091">
        <ele>919.6</ele>
        <time>2020-07-19T13:35:10Z</time>
      </trkpt>
      <trkpt lat="44.21788" lon="3.26091">
        <ele>919.6</ele>
        <time>2020-07-19T13:35:12Z</time>
      </trkpt>
      <trkpt lat="44.21788" lon="3.26089">
        <ele>919.7</ele>
        <time>2020-07-19T13:35:13Z</time>
      </trkpt>
      <trkpt lat="44.21787" lon="3.26088">
        <ele>919.9</ele>
        <time>2020-07-19T13:35:15Z</time>
      </trkpt>
      <trkpt lat="44.21787" lon="3.26088">
        <ele>919.9</ele>
        <time>2020-07-19T13:35:16Z</time>
      </trkpt>
      <trkpt lat="44.21787" lon="3.26087">
        <ele>920</ele>
        <time>2020-07-19T13:35:17Z</time>
      </trkpt>
      <trkpt lat="44.21787" lon="3.26086">
        <ele>920.1</ele>
        <time>2020-07-19T13:35:18Z</time>
      </trkpt>
      <trkpt lat="44.21787" lon="3.26086">
        <ele>920.2</ele>
        <time>2020-07-19T13:35:20Z</time>
      </trkpt>
      <trkpt lat="44.21786" lon="3.26085">
        <ele>920.3</ele>
        <time>2020-07-19T13:35:21Z</time>
      </trkpt>
      <trkpt lat="44.21785" lon="3.26084">
        <ele>920.5</ele>
        <time>2020-07-19T13:35:22Z</time>
      </trkpt>
      <trkpt lat="44.21785" lon="3.26083">
        <ele>920.7</ele>
        <time>2020-07-19T13:35:23Z</time>
      </trkpt>
      <trkpt lat="44.21783" lon="3.26083">
        <ele>920.9</ele>
        <time>2020-07-19T13:35:25Z</time>
      </trkpt>
      <trkpt lat="44.21782" lon="3.26084">
        <ele>921.2</ele>
        <time>2020-07-19T13:35:26Z</time>
      </trkpt>
      <trkpt lat="44.21781" lon="3.26085">
        <ele>921.4</ele>
        <time>2020-07-19T13:35:27Z</time>
      </trkpt>
      <trkpt lat="44.2178" lon="3.26086">
        <ele>921.5</ele>
        <time>2020-07-19T13:35:28Z</time>
      </trkpt>
      <trkpt lat="44.21778" lon="3.26087">
        <ele>921.7</ele>
        <time>2020-07-19T13:35:30Z</time>
      </trkpt>
      <trkpt lat="44.21777" lon="3.26086">
        <ele>921.8</ele>
        <time>2020-07-19T13:35:31Z</time>
      </trkpt>
      <trkpt lat="44.21776" lon="3.26085">
        <ele>921.9</ele>
        <time>2020-07-19T13:35:33Z</time>
      </trkpt>
      <trkpt lat="44.21776" lon="3.26084">
        <ele>922</ele>
        <time>2020-07-19T13:35:35Z</time>
      </trkpt>
      <trkpt lat="44.21776" lon="3.26083">
        <ele>922</ele>
        <time>2020-07-19T13:35:37Z</time>
      </trkpt>
      <trkpt lat="44.21776" lon="3.26083">
        <ele>922</ele>
        <time>2020-07-19T13:35:38Z</time>
      </trkpt>
      <trkpt lat="44.21775" lon="3.26082">
        <ele>922.1</ele>
        <time>2020-07-19T13:35:40Z</time>
      </trkpt>
      <trkpt lat="44.21775" lon="3.2608">
        <ele>922.1</ele>
        <time>2020-07-19T13:35:41Z</time>
      </trkpt>
      <trkpt lat="44.21776" lon="3.26079">
        <ele>922.1</ele>
        <time>2020-07-19T13:35:43Z</time>
      </trkpt>
      <trkpt lat="44.21776" lon="3.26078">
        <ele>922.2</ele>
        <time>2020-07-19T13:35:45Z</time>
      </trkpt>
      <trkpt lat="44.21776" lon="3.26078">
        <ele>922.2</ele>
        <time>2020-07-19T13:35:46Z</time>
      </trkpt>
      <trkpt lat="44.21777" lon="3.26078">
        <ele>922.2</ele>
        <time>2020-07-19T13:35:48Z</time>
      </trkpt>
      <trkpt lat="44.21776" lon="3.26077">
        <ele>922.1</ele>
        <time>2020-07-19T13:35:49Z</time>
      </trkpt>
      <trkpt lat="44.21776" lon="3.26075">
        <ele>922.1</ele>
        <time>2020-07-19T13:35:50Z</time>
      </trkpt>
      <trkpt lat="44.21776" lon="3.26071">
        <ele>922</ele>
        <time>2020-07-19T13:35:52Z</time>
      </trkpt>
      <trkpt lat="44.21777" lon="3.26068">
        <ele>921.8</ele>
        <time>2020-07-19T13:35:54Z</time>
      </trkpt>
      <trkpt lat="44.21778" lon="3.26064">
        <ele>921.5</ele>
        <time>2020-07-19T13:35:56Z</time>
      </trkpt>
      <trkpt lat="44.21779" lon="3.26062">
        <ele>921.3</ele>
        <time>2020-07-19T13:35:57Z</time>
      </trkpt>
      <trkpt lat="44.21779" lon="3.2606">
        <ele>921.2</ele>
        <time>2020-07-19T13:35:58Z</time>
      </trkpt>
      <trkpt lat="44.2178" lon="3.26056">
        <ele>920.8</ele>
        <time>2020-07-19T13:35:59Z</time>
      </trkpt>
      <trkpt lat="44.21782" lon="3.26046">
        <ele>919.2</ele>
        <time>2020-07-19T13:36:01Z</time>
      </trkpt>
      <trkpt lat="44.21782" lon="3.26041">
        <ele>918.4</ele>
        <time>2020-07-19T13:36:02Z</time>
      </trkpt>
      <trkpt lat="44.21782" lon="3.26035">
        <ele>917.3</ele>
        <time>2020-07-19T13:36:03Z</time>
      </trkpt>
      <trkpt lat="44.2178" lon="3.26031">
        <ele>916.2</ele>
        <time>2020-07-19T13:36:05Z</time>
      </trkpt>
      <trkpt lat="44.21775" lon="3.26027">
        <ele>914.6</ele>
        <time>2020-07-19T13:36:06Z</time>
      </trkpt>
      <trkpt lat="44.21771" lon="3.26026">
        <ele>913.5</ele>
        <time>2020-07-19T13:36:07Z</time>
      </trkpt>
      <trkpt lat="44.21764" lon="3.26025">
        <ele>911.9</ele>
        <time>2020-07-19T13:36:09Z</time>
      </trkpt>
      <trkpt lat="44.21762" lon="3.26023">
        <ele>911.4</ele>
        <time>2020-07-19T13:36:10Z</time>
      </trkpt>
      <trkpt lat="44.21759" lon="3.26019">
        <ele>910.6</ele>
        <time>2020-07-19T13:36:12Z</time>
      </trkpt>
      <trkpt lat="44.21758" lon="3.26017">
        <ele>910.3</ele>
        <time>2020-07-19T13:36:13Z</time>
      </trkpt>
      <trkpt lat="44.21755" lon="3.26014">
        <ele>909.7</ele>
        <time>2020-07-19T13:36:14Z</time>
      </trkpt>
      <trkpt lat="44.21751" lon="3.26011">
        <ele>909.1</ele>
        <time>2020-07-19T13:36:15Z</time>
      </trkpt>
      <trkpt lat="44.21747" lon="3.26009">
        <ele>908.4</ele>
        <time>2020-07-19T13:36:16Z</time>
      </trkpt>
      <trkpt lat="44.2174" lon="3.26007">
        <ele>907.3</ele>
        <time>2020-07-19T13:36:18Z</time>
      </trkpt>
      <trkpt lat="44.21728" lon="3.26008">
        <ele>905</ele>
        <time>2020-07-19T13:36:19Z</time>
      </trkpt>
      <trkpt lat="44.21717" lon="3.26009">
        <ele>903.7</ele>
        <time>2020-07-19T13:36:21Z</time>
      </trkpt>
      <trkpt lat="44.21711" lon="3.26008">
        <ele>902.7</ele>
        <time>2020-07-19T13:36:22Z</time>
      </trkpt>
      <trkpt lat="44.21702" lon="3.26007">
        <ele>901.7</ele>
        <time>2020-07-19T13:36:24Z</time>
      </trkpt>
      <trkpt lat="44.21693" lon="3.26011">
        <ele>900.6</ele>
        <time>2020-07-19T13:36:26Z</time>
      </trkpt>
      <trkpt lat="44.21689" lon="3.26014">
        <ele>900</ele>
        <time>2020-07-19T13:36:27Z</time>
      </trkpt>
      <trkpt lat="44.21684" lon="3.26016">
        <ele>899.3</ele>
        <time>2020-07-19T13:36:29Z</time>
      </trkpt>
      <trkpt lat="44.21678" lon="3.2602">
        <ele>898.2</ele>
        <time>2020-07-19T13:36:30Z</time>
      </trkpt>
      <trkpt lat="44.21674" lon="3.26022">
        <ele>897.3</ele>
        <time>2020-07-19T13:36:31Z</time>
      </trkpt>
      <trkpt lat="44.21666" lon="3.26022">
        <ele>895.5</ele>
        <time>2020-07-19T13:36:32Z</time>
      </trkpt>
      <trkpt lat="44.21662" lon="3.26022">
        <ele>894.7</ele>
        <time>2020-07-19T13:36:33Z</time>
      </trkpt>
      <trkpt lat="44.21657" lon="3.26022">
        <ele>893.7</ele>
        <time>2020-07-19T13:36:35Z</time>
      </trkpt>
      <trkpt lat="44.21652" lon="3.26019">
        <ele>892.7</ele>
        <time>2020-07-19T13:36:37Z</time>
      </trkpt>
      <trkpt lat="44.21645" lon="3.26018">
        <ele>891.6</ele>
        <time>2020-07-19T13:36:38Z</time>
      </trkpt>
      <trkpt lat="44.21639" lon="3.26018">
        <ele>890.8</ele>
        <time>2020-07-19T13:36:39Z</time>
      </trkpt>
      <trkpt lat="44.21636" lon="3.26019">
        <ele>890.3</ele>
        <time>2020-07-19T13:36:40Z</time>
      </trkpt>
      <trkpt lat="44.2163" lon="3.26021">
        <ele>889.6</ele>
        <time>2020-07-19T13:36:42Z</time>
      </trkpt>
      <trkpt lat="44.21627" lon="3.26021">
        <ele>889.3</ele>
        <time>2020-07-19T13:36:43Z</time>
      </trkpt>
      <trkpt lat="44.21622" lon="3.26021">
        <ele>888.8</ele>
        <time>2020-07-19T13:36:44Z</time>
      </trkpt>
      <trkpt lat="44.21617" lon="3.26022">
        <ele>888.4</ele>
        <time>2020-07-19T13:36:46Z</time>
      </trkpt>
      <trkpt lat="44.21612" lon="3.26022">
        <ele>888</ele>
        <time>2020-07-19T13:36:47Z</time>
      </trkpt>
      <trkpt lat="44.21599" lon="3.26017">
        <ele>886.6</ele>
        <time>2020-07-19T13:36:49Z</time>
      </trkpt>
      <trkpt lat="44.2159" lon="3.26015">
        <ele>885.6</ele>
        <time>2020-07-19T13:36:51Z</time>
      </trkpt>
      <trkpt lat="44.21586" lon="3.26015">
        <ele>885</ele>
        <time>2020-07-19T13:36:52Z</time>
      </trkpt>
      <trkpt lat="44.21581" lon="3.26013">
        <ele>884.4</ele>
        <time>2020-07-19T13:36:53Z</time>
      </trkpt>
      <trkpt lat="44.21579" lon="3.26013">
        <ele>884.2</ele>
        <time>2020-07-19T13:36:54Z</time>
      </trkpt>
      <trkpt lat="44.21576" lon="3.26012">
        <ele>883.9</ele>
        <time>2020-07-19T13:36:56Z</time>
      </trkpt>
      <trkpt lat="44.21574" lon="3.26015">
        <ele>883.7</ele>
        <time>2020-07-19T13:36:57Z</time>
      </trkpt>
      <trkpt lat="44.21574" lon="3.26016">
        <ele>883.6</ele>
        <time>2020-07-19T13:36:58Z</time>
      </trkpt>
      <trkpt lat="44.21574" lon="3.26017">
        <ele>883.6</ele>
        <time>2020-07-19T13:36:59Z</time>
      </trkpt>
      <trkpt lat="44.21571" lon="3.26022">
        <ele>883.2</ele>
        <time>2020-07-19T13:37:01Z</time>
      </trkpt>
      <trkpt lat="44.2157" lon="3.26023">
        <ele>883</ele>
        <time>2020-07-19T13:37:02Z</time>
      </trkpt>
      <trkpt lat="44.21569" lon="3.26024">
        <ele>882.9</ele>
        <time>2020-07-19T13:37:03Z</time>
      </trkpt>
      <trkpt lat="44.21567" lon="3.26027">
        <ele>882.6</ele>
        <time>2020-07-19T13:37:04Z</time>
      </trkpt>
      <trkpt lat="44.21564" lon="3.26029">
        <ele>882.2</ele>
        <time>2020-07-19T13:37:06Z</time>
      </trkpt>
      <trkpt lat="44.2156" lon="3.2603">
        <ele>881.8</ele>
        <time>2020-07-19T13:37:07Z</time>
      </trkpt>
      <trkpt lat="44.21557" lon="3.2603">
        <ele>881.5</ele>
        <time>2020-07-19T13:37:08Z</time>
      </trkpt>
      <trkpt lat="44.21554" lon="3.26032">
        <ele>881.1</ele>
        <time>2020-07-19T13:37:09Z</time>
      </trkpt>
      <trkpt lat="44.21548" lon="3.26034">
        <ele>880.4</ele>
        <time>2020-07-19T13:37:11Z</time>
      </trkpt>
      <trkpt lat="44.21546" lon="3.26034">
        <ele>880.2</ele>
        <time>2020-07-19T13:37:12Z</time>
      </trkpt>
      <trkpt lat="44.21539" lon="3.26036">
        <ele>879.3</ele>
        <time>2020-07-19T13:37:14Z</time>
      </trkpt>
      <trkpt lat="44.21534" lon="3.26037">
        <ele>878.7</ele>
        <time>2020-07-19T13:37:15Z</time>
      </trkpt>
      <trkpt lat="44.2153" lon="3.26037">
        <ele>878.3</ele>
        <time>2020-07-19T13:37:16Z</time>
      </trkpt>
      <trkpt lat="44.21525" lon="3.26036">
        <ele>877.6</ele>
        <time>2020-07-19T13:37:18Z</time>
      </trkpt>
      <trkpt lat="44.21519" lon="3.26037">
        <ele>876.9</ele>
        <time>2020-07-19T13:37:19Z</time>
      </trkpt>
      <trkpt lat="44.21516" lon="3.26038">
        <ele>876.5</ele>
        <time>2020-07-19T13:37:20Z</time>
      </trkpt>
      <trkpt lat="44.21513" lon="3.26042">
        <ele>876</ele>
        <time>2020-07-19T13:37:22Z</time>
      </trkpt>
      <trkpt lat="44.21511" lon="3.26047">
        <ele>875.5</ele>
        <time>2020-07-19T13:37:23Z</time>
      </trkpt>
      <trkpt lat="44.21509" lon="3.26052">
        <ele>875</ele>
        <time>2020-07-19T13:37:25Z</time>
      </trkpt>
      <trkpt lat="44.21507" lon="3.26057">
        <ele>874.6</ele>
        <time>2020-07-19T13:37:26Z</time>
      </trkpt>
      <trkpt lat="44.21505" lon="3.26061">
        <ele>874.1</ele>
        <time>2020-07-19T13:37:27Z</time>
      </trkpt>
      <trkpt lat="44.21503" lon="3.26065">
        <ele>873.6</ele>
        <time>2020-07-19T13:37:28Z</time>
      </trkpt>
      <trkpt lat="44.21501" lon="3.26068">
        <ele>873.2</ele>
        <time>2020-07-19T13:37:29Z</time>
      </trkpt>
      <trkpt lat="44.21499" lon="3.26071">
        <ele>872.6</ele>
        <time>2020-07-19T13:37:30Z</time>
      </trkpt>
      <trkpt lat="44.21494" lon="3.26074">
        <ele>871.7</ele>
        <time>2020-07-19T13:37:32Z</time>
      </trkpt>
      <trkpt lat="44.2149" lon="3.26075">
        <ele>871</ele>
        <time>2020-07-19T13:37:33Z</time>
      </trkpt>
      <trkpt lat="44.21487" lon="3.26076">
        <ele>870.5</ele>
        <time>2020-07-19T13:37:34Z</time>
      </trkpt>
      <trkpt lat="44.21483" lon="3.26075">
        <ele>870</ele>
        <time>2020-07-19T13:37:35Z</time>
      </trkpt>
      <trkpt lat="44.21479" lon="3.26074">
        <ele>869.7</ele>
        <time>2020-07-19T13:37:37Z</time>
      </trkpt>
      <trkpt lat="44.21477" lon="3.26074">
        <ele>869.4</ele>
        <time>2020-07-19T13:37:38Z</time>
      </trkpt>
      <trkpt lat="44.21473" lon="3.26074">
        <ele>869.1</ele>
        <time>2020-07-19T13:37:40Z</time>
      </trkpt>
      <trkpt lat="44.21469" lon="3.26075">
        <ele>868.7</ele>
        <time>2020-07-19T13:37:41Z</time>
      </trkpt>
      <trkpt lat="44.21465" lon="3.26076">
        <ele>868.3</ele>
        <time>2020-07-19T13:37:42Z</time>
      </trkpt>
      <trkpt lat="44.21462" lon="3.26076">
        <ele>868</ele>
        <time>2020-07-19T13:37:43Z</time>
      </trkpt>
      <trkpt lat="44.21458" lon="3.26077">
        <ele>867.7</ele>
        <time>2020-07-19T13:37:44Z</time>
      </trkpt>
      <trkpt lat="44.21455" lon="3.26078">
        <ele>867.3</ele>
        <time>2020-07-19T13:37:45Z</time>
      </trkpt>
      <trkpt lat="44.2145" lon="3.26079">
        <ele>866.5</ele>
        <time>2020-07-19T13:37:47Z</time>
      </trkpt>
      <trkpt lat="44.21444" lon="3.26079">
        <ele>865.8</ele>
        <time>2020-07-19T13:37:48Z</time>
      </trkpt>
      <trkpt lat="44.21441" lon="3.2608">
        <ele>865.3</ele>
        <time>2020-07-19T13:37:49Z</time>
      </trkpt>
      <trkpt lat="44.21437" lon="3.2608">
        <ele>864.7</ele>
        <time>2020-07-19T13:37:50Z</time>
      </trkpt>
      <trkpt lat="44.21427" lon="3.2608">
        <ele>863.9</ele>
        <time>2020-07-19T13:37:52Z</time>
      </trkpt>
      <trkpt lat="44.21422" lon="3.26081">
        <ele>863.4</ele>
        <time>2020-07-19T13:37:53Z</time>
      </trkpt>
      <trkpt lat="44.21417" lon="3.26081">
        <ele>862.9</ele>
        <time>2020-07-19T13:37:54Z</time>
      </trkpt>
      <trkpt lat="44.21413" lon="3.26081">
        <ele>862.6</ele>
        <time>2020-07-19T13:37:55Z</time>
      </trkpt>
      <trkpt lat="44.21406" lon="3.26083">
        <ele>861.9</ele>
        <time>2020-07-19T13:37:57Z</time>
      </trkpt>
      <trkpt lat="44.21401" lon="3.26084">
        <ele>861.5</ele>
        <time>2020-07-19T13:37:58Z</time>
      </trkpt>
      <trkpt lat="44.21398" lon="3.26086">
        <ele>861.1</ele>
        <time>2020-07-19T13:37:59Z</time>
      </trkpt>
      <trkpt lat="44.21394" lon="3.26086">
        <ele>860.7</ele>
        <time>2020-07-19T13:38:01Z</time>
      </trkpt>
      <trkpt lat="44.21393" lon="3.26086">
        <ele>860.6</ele>
        <time>2020-07-19T13:38:02Z</time>
      </trkpt>
      <trkpt lat="44.21391" lon="3.26086">
        <ele>860.5</ele>
        <time>2020-07-19T13:38:03Z</time>
      </trkpt>
      <trkpt lat="44.21388" lon="3.26085">
        <ele>860.2</ele>
        <time>2020-07-19T13:38:04Z</time>
      </trkpt>
      <trkpt lat="44.21387" lon="3.26085">
        <ele>860.1</ele>
        <time>2020-07-19T13:38:05Z</time>
      </trkpt>
      <trkpt lat="44.21384" lon="3.2609">
        <ele>859.7</ele>
        <time>2020-07-19T13:38:07Z</time>
      </trkpt>
      <trkpt lat="44.21383" lon="3.26093">
        <ele>859.4</ele>
        <time>2020-07-19T13:38:08Z</time>
      </trkpt>
      <trkpt lat="44.21378" lon="3.26099">
        <ele>858.7</ele>
        <time>2020-07-19T13:38:10Z</time>
      </trkpt>
      <trkpt lat="44.21371" lon="3.261">
        <ele>858.1</ele>
        <time>2020-07-19T13:38:11Z</time>
      </trkpt>
      <trkpt lat="44.21367" lon="3.26103">
        <ele>857.7</ele>
        <time>2020-07-19T13:38:13Z</time>
      </trkpt>
      <trkpt lat="44.21362" lon="3.26107">
        <ele>857.3</ele>
        <time>2020-07-19T13:38:14Z</time>
      </trkpt>
      <trkpt lat="44.21356" lon="3.26109">
        <ele>856.9</ele>
        <time>2020-07-19T13:38:16Z</time>
      </trkpt>
      <trkpt lat="44.21351" lon="3.26115">
        <ele>856.5</ele>
        <time>2020-07-19T13:38:17Z</time>
      </trkpt>
      <trkpt lat="44.21344" lon="3.26122">
        <ele>855.9</ele>
        <time>2020-07-19T13:38:19Z</time>
      </trkpt>
      <trkpt lat="44.2134" lon="3.26126">
        <ele>855.6</ele>
        <time>2020-07-19T13:38:20Z</time>
      </trkpt>
      <trkpt lat="44.21337" lon="3.26132">
        <ele>855.3</ele>
        <time>2020-07-19T13:38:21Z</time>
      </trkpt>
      <trkpt lat="44.21334" lon="3.26138">
        <ele>855</ele>
        <time>2020-07-19T13:38:22Z</time>
      </trkpt>
      <trkpt lat="44.21332" lon="3.26144">
        <ele>854.8</ele>
        <time>2020-07-19T13:38:23Z</time>
      </trkpt>
      <trkpt lat="44.21332" lon="3.2615">
        <ele>854.5</ele>
        <time>2020-07-19T13:38:24Z</time>
      </trkpt>
      <trkpt lat="44.21332" lon="3.26157">
        <ele>854.3</ele>
        <time>2020-07-19T13:38:26Z</time>
      </trkpt>
      <trkpt lat="44.21333" lon="3.26163">
        <ele>854.1</ele>
        <time>2020-07-19T13:38:28Z</time>
      </trkpt>
      <trkpt lat="44.21334" lon="3.26166">
        <ele>853.9</ele>
        <time>2020-07-19T13:38:29Z</time>
      </trkpt>
      <trkpt lat="44.21333" lon="3.26167">
        <ele>853.9</ele>
        <time>2020-07-19T13:38:30Z</time>
      </trkpt>
      <trkpt lat="44.21333" lon="3.26168">
        <ele>853.8</ele>
        <time>2020-07-19T13:38:32Z</time>
      </trkpt>
      <trkpt lat="44.21332" lon="3.26169">
        <ele>853.8</ele>
        <time>2020-07-19T13:38:33Z</time>
      </trkpt>
      <trkpt lat="44.21332" lon="3.26168">
        <ele>853.8</ele>
        <time>2020-07-19T13:38:35Z</time>
      </trkpt>
      <trkpt lat="44.21332" lon="3.26168">
        <ele>853.8</ele>
        <time>2020-07-19T13:38:36Z</time>
      </trkpt>
      <trkpt lat="44.21332" lon="3.26169">
        <ele>853.7</ele>
        <time>2020-07-19T13:38:37Z</time>
      </trkpt>
      <trkpt lat="44.21331" lon="3.26172">
        <ele>853.6</ele>
        <time>2020-07-19T13:38:39Z</time>
      </trkpt>
      <trkpt lat="44.2133" lon="3.26174">
        <ele>853.5</ele>
        <time>2020-07-19T13:38:40Z</time>
      </trkpt>
      <trkpt lat="44.21328" lon="3.26175">
        <ele>853.3</ele>
        <time>2020-07-19T13:38:42Z</time>
      </trkpt>
      <trkpt lat="44.21327" lon="3.26176">
        <ele>853.3</ele>
        <time>2020-07-19T13:38:43Z</time>
      </trkpt>
      <trkpt lat="44.21327" lon="3.26178">
        <ele>853.1</ele>
        <time>2020-07-19T13:38:44Z</time>
      </trkpt>
      <trkpt lat="44.21327" lon="3.26182">
        <ele>852.9</ele>
        <time>2020-07-19T13:38:46Z</time>
      </trkpt>
      <trkpt lat="44.21326" lon="3.26184">
        <ele>852.8</ele>
        <time>2020-07-19T13:38:48Z</time>
      </trkpt>
      <trkpt lat="44.21327" lon="3.26187">
        <ele>852.5</ele>
        <time>2020-07-19T13:38:49Z</time>
      </trkpt>
      <trkpt lat="44.21328" lon="3.26189">
        <ele>852.4</ele>
        <time>2020-07-19T13:38:50Z</time>
      </trkpt>
      <trkpt lat="44.21328" lon="3.2619">
        <ele>852.2</ele>
        <time>2020-07-19T13:38:51Z</time>
      </trkpt>
      <trkpt lat="44.21327" lon="3.26192">
        <ele>852.1</ele>
        <time>2020-07-19T13:38:53Z</time>
      </trkpt>
      <trkpt lat="44.21327" lon="3.26193">
        <ele>852</ele>
        <time>2020-07-19T13:38:54Z</time>
      </trkpt>
      <trkpt lat="44.21327" lon="3.26194">
        <ele>851.9</ele>
        <time>2020-07-19T13:38:55Z</time>
      </trkpt>
      <trkpt lat="44.21326" lon="3.26195">
        <ele>851.8</ele>
        <time>2020-07-19T13:38:56Z</time>
      </trkpt>
      <trkpt lat="44.21326" lon="3.26195">
        <ele>851.8</ele>
        <time>2020-07-19T13:38:57Z</time>
      </trkpt>
      <trkpt lat="44.21326" lon="3.26195">
        <ele>851.8</ele>
        <time>2020-07-19T13:38:58Z</time>
      </trkpt>
      <trkpt lat="44.21326" lon="3.26196">
        <ele>851.7</ele>
        <time>2020-07-19T13:38:59Z</time>
      </trkpt>
      <trkpt lat="44.21325" lon="3.26196">
        <ele>851.7</ele>
        <time>2020-07-19T13:39:00Z</time>
      </trkpt>
      <trkpt lat="44.21324" lon="3.26197">
        <ele>851.5</ele>
        <time>2020-07-19T13:39:02Z</time>
      </trkpt>
      <trkpt lat="44.21324" lon="3.26197">
        <ele>851.5</ele>
        <time>2020-07-19T13:39:03Z</time>
      </trkpt>
      <trkpt lat="44.21323" lon="3.26198">
        <ele>851.4</ele>
        <time>2020-07-19T13:39:05Z</time>
      </trkpt>
      <trkpt lat="44.21316" lon="3.262">
        <ele>850.7</ele>
        <time>2020-07-19T13:39:34Z</time>
      </trkpt>
      <trkpt lat="44.21318" lon="3.26205">
        <ele>850.4</ele>
        <time>2020-07-19T13:39:36Z</time>
      </trkpt>
      <trkpt lat="44.21317" lon="3.26208">
        <ele>850.3</ele>
        <time>2020-07-19T13:39:38Z</time>
      </trkpt>
      <trkpt lat="44.21315" lon="3.26208">
        <ele>849.1</ele>
        <time>2020-07-19T13:39:40Z</time>
      </trkpt>
      <trkpt lat="44.21314" lon="3.26213">
        <ele>848.6</ele>
        <time>2020-07-19T13:39:42Z</time>
      </trkpt>
      <trkpt lat="44.21314" lon="3.26215">
        <ele>848.6</ele>
        <time>2020-07-19T13:39:43Z</time>
      </trkpt>
      <trkpt lat="44.21314" lon="3.26218">
        <ele>848</ele>
        <time>2020-07-19T13:39:45Z</time>
      </trkpt>
      <trkpt lat="44.21313" lon="3.26218">
        <ele>846.9</ele>
        <time>2020-07-19T13:39:47Z</time>
      </trkpt>
      <trkpt lat="44.21311" lon="3.26217">
        <ele>846.9</ele>
        <time>2020-07-19T13:39:48Z</time>
      </trkpt>
      <trkpt lat="44.21307" lon="3.26218">
        <ele>845.8</ele>
        <time>2020-07-19T13:39:49Z</time>
      </trkpt>
      <trkpt lat="44.21306" lon="3.26218">
        <ele>845.8</ele>
        <time>2020-07-19T13:39:50Z</time>
      </trkpt>
      <trkpt lat="44.21305" lon="3.2622">
        <ele>844.7</ele>
        <time>2020-07-19T13:39:52Z</time>
      </trkpt>
      <trkpt lat="44.21305" lon="3.2622">
        <ele>844.8</ele>
        <time>2020-07-19T13:39:53Z</time>
      </trkpt>
      <trkpt lat="44.21304" lon="3.26221">
        <ele>844.8</ele>
        <time>2020-07-19T13:39:54Z</time>
      </trkpt>
      <trkpt lat="44.21304" lon="3.26222">
        <ele>844.2</ele>
        <time>2020-07-19T13:39:56Z</time>
      </trkpt>
      <trkpt lat="44.21303" lon="3.26223">
        <ele>844.3</ele>
        <time>2020-07-19T13:39:57Z</time>
      </trkpt>
      <trkpt lat="44.21303" lon="3.26224">
        <ele>843.3</ele>
        <time>2020-07-19T13:39:59Z</time>
      </trkpt>
      <trkpt lat="44.21303" lon="3.26224">
        <ele>843.3</ele>
        <time>2020-07-19T13:40:00Z</time>
      </trkpt>
      <trkpt lat="44.21303" lon="3.26225">
        <ele>843.4</ele>
        <time>2020-07-19T13:40:01Z</time>
      </trkpt>
      <trkpt lat="44.21302" lon="3.26226">
        <ele>842.8</ele>
        <time>2020-07-19T13:40:02Z</time>
      </trkpt>
      <trkpt lat="44.21302" lon="3.26227">
        <ele>842.9</ele>
        <time>2020-07-19T13:40:04Z</time>
      </trkpt>
      <trkpt lat="44.21302" lon="3.26228">
        <ele>843</ele>
        <time>2020-07-19T13:40:05Z</time>
      </trkpt>
      <trkpt lat="44.21302" lon="3.26229">
        <ele>843</ele>
        <time>2020-07-19T13:40:06Z</time>
      </trkpt>
      <trkpt lat="44.21299" lon="3.26227">
        <ele>842.1</ele>
        <time>2020-07-19T13:40:18Z</time>
      </trkpt>
      <trkpt lat="44.21298" lon="3.26224">
        <ele>842.7</ele>
        <time>2020-07-19T13:40:19Z</time>
      </trkpt>
      <trkpt lat="44.21297" lon="3.26224">
        <ele>841.8</ele>
        <time>2020-07-19T13:40:21Z</time>
      </trkpt>
      <trkpt lat="44.21295" lon="3.26224">
        <ele>841.9</ele>
        <time>2020-07-19T13:40:22Z</time>
      </trkpt>
      <trkpt lat="44.21294" lon="3.26225">
        <ele>841.1</ele>
        <time>2020-07-19T13:40:23Z</time>
      </trkpt>
      <trkpt lat="44.21293" lon="3.26225">
        <ele>841.1</ele>
        <time>2020-07-19T13:40:25Z</time>
      </trkpt>
      <trkpt lat="44.21291" lon="3.26224">
        <ele>841.2</ele>
        <time>2020-07-19T13:40:26Z</time>
      </trkpt>
      <trkpt lat="44.2129" lon="3.26228">
        <ele>839.8</ele>
        <time>2020-07-19T13:40:28Z</time>
      </trkpt>
      <trkpt lat="44.21289" lon="3.2623">
        <ele>839.3</ele>
        <time>2020-07-19T13:40:29Z</time>
      </trkpt>
      <trkpt lat="44.21289" lon="3.26233">
        <ele>839.4</ele>
        <time>2020-07-19T13:40:30Z</time>
      </trkpt>
      <trkpt lat="44.21289" lon="3.26235">
        <ele>838.9</ele>
        <time>2020-07-19T13:40:31Z</time>
      </trkpt>
      <trkpt lat="44.21289" lon="3.26238">
        <ele>839</ele>
        <time>2020-07-19T13:40:33Z</time>
      </trkpt>
      <trkpt lat="44.21289" lon="3.26238">
        <ele>838.5</ele>
        <time>2020-07-19T13:40:34Z</time>
      </trkpt>
      <trkpt lat="44.21289" lon="3.26239">
        <ele>838.6</ele>
        <time>2020-07-19T13:40:36Z</time>
      </trkpt>
      <trkpt lat="44.21289" lon="3.26241">
        <ele>838.6</ele>
        <time>2020-07-19T13:40:38Z</time>
      </trkpt>
      <trkpt lat="44.21289" lon="3.26242">
        <ele>838.7</ele>
        <time>2020-07-19T13:40:39Z</time>
      </trkpt>
      <trkpt lat="44.2129" lon="3.26244">
        <ele>838.3</ele>
        <time>2020-07-19T13:40:41Z</time>
      </trkpt>
      <trkpt lat="44.2129" lon="3.26245">
        <ele>838.4</ele>
        <time>2020-07-19T13:40:43Z</time>
      </trkpt>
      <trkpt lat="44.2129" lon="3.26246">
        <ele>838.4</ele>
        <time>2020-07-19T13:40:44Z</time>
      </trkpt>
      <trkpt lat="44.21289" lon="3.26247">
        <ele>838.5</ele>
        <time>2020-07-19T13:40:45Z</time>
      </trkpt>
      <trkpt lat="44.21288" lon="3.26247">
        <ele>838.1</ele>
        <time>2020-07-19T13:40:47Z</time>
      </trkpt>
      <trkpt lat="44.21288" lon="3.26247">
        <ele>837.3</ele>
        <time>2020-07-19T13:40:49Z</time>
      </trkpt>
      <trkpt lat="44.21287" lon="3.26247">
        <ele>837.4</ele>
        <time>2020-07-19T13:40:50Z</time>
      </trkpt>
      <trkpt lat="44.21286" lon="3.26246">
        <ele>837.9</ele>
        <time>2020-07-19T13:40:52Z</time>
      </trkpt>
      <trkpt lat="44.21285" lon="3.26246">
        <ele>837.9</ele>
        <time>2020-07-19T13:40:53Z</time>
      </trkpt>
      <trkpt lat="44.21283" lon="3.26244">
        <ele>837.2</ele>
        <time>2020-07-19T13:40:55Z</time>
      </trkpt>
      <trkpt lat="44.21282" lon="3.26243">
        <ele>837.2</ele>
        <time>2020-07-19T13:40:56Z</time>
      </trkpt>
      <trkpt lat="44.2128" lon="3.26244">
        <ele>836.5</ele>
        <time>2020-07-19T13:40:58Z</time>
      </trkpt>
      <trkpt lat="44.2128" lon="3.26245">
        <ele>836.6</ele>
        <time>2020-07-19T13:41:00Z</time>
      </trkpt>
      <trkpt lat="44.21279" lon="3.26246">
        <ele>836.6</ele>
        <time>2020-07-19T13:41:02Z</time>
      </trkpt>
      <trkpt lat="44.21279" lon="3.26246">
        <ele>836.7</ele>
        <time>2020-07-19T13:41:03Z</time>
      </trkpt>
      <trkpt lat="44.21279" lon="3.26246">
        <ele>836</ele>
        <time>2020-07-19T13:41:05Z</time>
      </trkpt>
      <trkpt lat="44.21279" lon="3.26247">
        <ele>836.1</ele>
        <time>2020-07-19T13:41:07Z</time>
      </trkpt>
      <trkpt lat="44.21278" lon="3.26247">
        <ele>835.7</ele>
        <time>2020-07-19T13:41:08Z</time>
      </trkpt>
      <trkpt lat="44.21273" lon="3.26239">
        <ele>836</ele>
        <time>2020-07-19T13:43:03Z</time>
      </trkpt>
      <trkpt lat="44.21273" lon="3.26239">
        <ele>836.1</ele>
        <time>2020-07-19T13:43:04Z</time>
      </trkpt>
      <trkpt lat="44.21273" lon="3.26238">
        <ele>836.7</ele>
        <time>2020-07-19T13:43:06Z</time>
      </trkpt>
      <trkpt lat="44.21272" lon="3.26238">
        <ele>836.1</ele>
        <time>2020-07-19T13:43:07Z</time>
      </trkpt>
      <trkpt lat="44.21272" lon="3.26238">
        <ele>836.1</ele>
        <time>2020-07-19T13:43:09Z</time>
      </trkpt>
      <trkpt lat="44.21272" lon="3.26239">
        <ele>836.1</ele>
        <time>2020-07-19T13:43:10Z</time>
      </trkpt>
      <trkpt lat="44.21272" lon="3.26238">
        <ele>836.1</ele>
        <time>2020-07-19T13:43:12Z</time>
      </trkpt>
      <trkpt lat="44.21272" lon="3.26238">
        <ele>836.1</ele>
        <time>2020-07-19T13:43:13Z</time>
      </trkpt>
      <trkpt lat="44.21272" lon="3.26238">
        <ele>836.1</ele>
        <time>2020-07-19T13:43:16Z</time>
      </trkpt>
      <trkpt lat="44.21272" lon="3.26238">
        <ele>836.2</ele>
        <time>2020-07-19T13:43:18Z</time>
      </trkpt>
      <trkpt lat="44.21272" lon="3.26238">
        <ele>836.2</ele>
        <time>2020-07-19T13:43:19Z</time>
      </trkpt>
      <trkpt lat="44.21274" lon="3.26235">
        <ele>836.3</ele>
        <time>2020-07-19T13:44:19Z</time>
      </trkpt>
      <trkpt lat="44.21273" lon="3.26235">
        <ele>836.4</ele>
        <time>2020-07-19T13:44:21Z</time>
      </trkpt>
      <trkpt lat="44.21272" lon="3.26234">
        <ele>836.4</ele>
        <time>2020-07-19T13:44:22Z</time>
      </trkpt>
      <trkpt lat="44.21272" lon="3.2623">
        <ele>836.6</ele>
        <time>2020-07-19T13:44:24Z</time>
      </trkpt>
      <trkpt lat="44.21271" lon="3.26225">
        <ele>836.9</ele>
        <time>2020-07-19T13:44:26Z</time>
      </trkpt>
      <trkpt lat="44.21271" lon="3.26224">
        <ele>836.9</ele>
        <time>2020-07-19T13:44:27Z</time>
      </trkpt>
      <trkpt lat="44.2127" lon="3.2622">
        <ele>837.2</ele>
        <time>2020-07-19T13:44:28Z</time>
      </trkpt>
      <trkpt lat="44.2127" lon="3.26219">
        <ele>837.3</ele>
        <time>2020-07-19T13:44:29Z</time>
      </trkpt>
      <trkpt lat="44.21269" lon="3.26214">
        <ele>837.6</ele>
        <time>2020-07-19T13:44:30Z</time>
      </trkpt>
      <trkpt lat="44.21268" lon="3.26208">
        <ele>838.4</ele>
        <time>2020-07-19T13:44:32Z</time>
      </trkpt>
      <trkpt lat="44.21268" lon="3.26202">
        <ele>838.6</ele>
        <time>2020-07-19T13:44:33Z</time>
      </trkpt>
      <trkpt lat="44.21268" lon="3.26198">
        <ele>838.7</ele>
        <time>2020-07-19T13:44:34Z</time>
      </trkpt>
      <trkpt lat="44.21269" lon="3.26193">
        <ele>838.9</ele>
        <time>2020-07-19T13:44:35Z</time>
      </trkpt>
      <trkpt lat="44.2127" lon="3.26191">
        <ele>839</ele>
        <time>2020-07-19T13:44:36Z</time>
      </trkpt>
      <trkpt lat="44.2127" lon="3.26187">
        <ele>839.1</ele>
        <time>2020-07-19T13:44:37Z</time>
      </trkpt>
      <trkpt lat="44.21272" lon="3.26183">
        <ele>839.3</ele>
        <time>2020-07-19T13:44:39Z</time>
      </trkpt>
      <trkpt lat="44.21274" lon="3.26179">
        <ele>839.5</ele>
        <time>2020-07-19T13:44:40Z</time>
      </trkpt>
      <trkpt lat="44.21275" lon="3.26175">
        <ele>839.7</ele>
        <time>2020-07-19T13:44:41Z</time>
      </trkpt>
      <trkpt lat="44.21276" lon="3.26171">
        <ele>839.8</ele>
        <time>2020-07-19T13:44:43Z</time>
      </trkpt>
      <trkpt lat="44.21277" lon="3.26167">
        <ele>840</ele>
        <time>2020-07-19T13:44:44Z</time>
      </trkpt>
      <trkpt lat="44.21279" lon="3.26161">
        <ele>840.2</ele>
        <time>2020-07-19T13:44:46Z</time>
      </trkpt>
      <trkpt lat="44.21279" lon="3.26158">
        <ele>840.3</ele>
        <time>2020-07-19T13:44:47Z</time>
      </trkpt>
      <trkpt lat="44.2128" lon="3.26155">
        <ele>840.4</ele>
        <time>2020-07-19T13:44:48Z</time>
      </trkpt>
      <trkpt lat="44.2128" lon="3.26152">
        <ele>840.5</ele>
        <time>2020-07-19T13:44:49Z</time>
      </trkpt>
      <trkpt lat="44.21282" lon="3.26149">
        <ele>840.6</ele>
        <time>2020-07-19T13:44:51Z</time>
      </trkpt>
      <trkpt lat="44.21283" lon="3.26145">
        <ele>840.8</ele>
        <time>2020-07-19T13:44:52Z</time>
      </trkpt>
      <trkpt lat="44.21284" lon="3.26143">
        <ele>840.9</ele>
        <time>2020-07-19T13:44:53Z</time>
      </trkpt>
      <trkpt lat="44.21285" lon="3.26139">
        <ele>841</ele>
        <time>2020-07-19T13:44:54Z</time>
      </trkpt>
      <trkpt lat="44.21285" lon="3.26135">
        <ele>841.2</ele>
        <time>2020-07-19T13:44:56Z</time>
      </trkpt>
      <trkpt lat="44.21285" lon="3.26131">
        <ele>841.3</ele>
        <time>2020-07-19T13:44:58Z</time>
      </trkpt>
      <trkpt lat="44.21285" lon="3.26128">
        <ele>841.4</ele>
        <time>2020-07-19T13:44:59Z</time>
      </trkpt>
      <trkpt lat="44.21285" lon="3.26124">
        <ele>841.6</ele>
        <time>2020-07-19T13:45:01Z</time>
      </trkpt>
      <trkpt lat="44.21286" lon="3.26118">
        <ele>841.8</ele>
        <time>2020-07-19T13:45:02Z</time>
      </trkpt>
      <trkpt lat="44.21287" lon="3.26116">
        <ele>841.8</ele>
        <time>2020-07-19T13:45:03Z</time>
      </trkpt>
      <trkpt lat="44.21287" lon="3.26112">
        <ele>841.9</ele>
        <time>2020-07-19T13:45:04Z</time>
      </trkpt>
      <trkpt lat="44.21288" lon="3.26108">
        <ele>842</ele>
        <time>2020-07-19T13:45:06Z</time>
      </trkpt>
      <trkpt lat="44.21288" lon="3.26104">
        <ele>842.1</ele>
        <time>2020-07-19T13:45:07Z</time>
      </trkpt>
      <trkpt lat="44.21289" lon="3.26102">
        <ele>842.2</ele>
        <time>2020-07-19T13:45:08Z</time>
      </trkpt>
      <trkpt lat="44.21289" lon="3.26096">
        <ele>842.4</ele>
        <time>2020-07-19T13:45:10Z</time>
      </trkpt>
      <trkpt lat="44.21288" lon="3.26093">
        <ele>842.5</ele>
        <time>2020-07-19T13:45:11Z</time>
      </trkpt>
      <trkpt lat="44.21288" lon="3.26089">
        <ele>842.7</ele>
        <time>2020-07-19T13:45:13Z</time>
      </trkpt>
      <trkpt lat="44.21287" lon="3.26086">
        <ele>842.8</ele>
        <time>2020-07-19T13:45:15Z</time>
      </trkpt>
      <trkpt lat="44.21286" lon="3.26083">
        <ele>843</ele>
        <time>2020-07-19T13:45:17Z</time>
      </trkpt>
      <trkpt lat="44.21285" lon="3.26081">
        <ele>843.1</ele>
        <time>2020-07-19T13:45:18Z</time>
      </trkpt>
      <trkpt lat="44.21284" lon="3.26077">
        <ele>843.2</ele>
        <time>2020-07-19T13:45:20Z</time>
      </trkpt>
      <trkpt lat="44.21282" lon="3.26074">
        <ele>843.4</ele>
        <time>2020-07-19T13:45:21Z</time>
      </trkpt>
      <trkpt lat="44.21281" lon="3.26072">
        <ele>843.5</ele>
        <time>2020-07-19T13:45:22Z</time>
      </trkpt>
      <trkpt lat="44.21281" lon="3.2607">
        <ele>843.6</ele>
        <time>2020-07-19T13:45:23Z</time>
      </trkpt>
      <trkpt lat="44.2128" lon="3.26068">
        <ele>843.7</ele>
        <time>2020-07-19T13:45:24Z</time>
      </trkpt>
      <trkpt lat="44.2128" lon="3.26062">
        <ele>844</ele>
        <time>2020-07-19T13:45:26Z</time>
      </trkpt>
      <trkpt lat="44.2128" lon="3.26059">
        <ele>844.1</ele>
        <time>2020-07-19T13:45:28Z</time>
      </trkpt>
      <trkpt lat="44.21279" lon="3.26057">
        <ele>844.2</ele>
        <time>2020-07-19T13:45:29Z</time>
      </trkpt>
      <trkpt lat="44.21278" lon="3.26053">
        <ele>844.5</ele>
        <time>2020-07-19T13:45:31Z</time>
      </trkpt>
      <trkpt lat="44.21278" lon="3.2605">
        <ele>844.6</ele>
        <time>2020-07-19T13:45:32Z</time>
      </trkpt>
      <trkpt lat="44.21277" lon="3.26046">
        <ele>844.9</ele>
        <time>2020-07-19T13:45:34Z</time>
      </trkpt>
      <trkpt lat="44.21276" lon="3.26042">
        <ele>845.1</ele>
        <time>2020-07-19T13:45:35Z</time>
      </trkpt>
      <trkpt lat="44.21276" lon="3.26041">
        <ele>845.2</ele>
        <time>2020-07-19T13:45:36Z</time>
      </trkpt>
      <trkpt lat="44.21275" lon="3.26038">
        <ele>845.4</ele>
        <time>2020-07-19T13:45:37Z</time>
      </trkpt>
      <trkpt lat="44.21274" lon="3.26035">
        <ele>845.6</ele>
        <time>2020-07-19T13:45:39Z</time>
      </trkpt>
      <trkpt lat="44.21274" lon="3.26031">
        <ele>845.8</ele>
        <time>2020-07-19T13:45:40Z</time>
      </trkpt>
      <trkpt lat="44.21274" lon="3.2603">
        <ele>845.9</ele>
        <time>2020-07-19T13:45:41Z</time>
      </trkpt>
      <trkpt lat="44.21273" lon="3.26026">
        <ele>846.3</ele>
        <time>2020-07-19T13:45:43Z</time>
      </trkpt>
      <trkpt lat="44.21273" lon="3.26024">
        <ele>846.4</ele>
        <time>2020-07-19T13:45:44Z</time>
      </trkpt>
      <trkpt lat="44.21273" lon="3.26022">
        <ele>846.6</ele>
        <time>2020-07-19T13:45:45Z</time>
      </trkpt>
      <trkpt lat="44.21272" lon="3.26018">
        <ele>846.8</ele>
        <time>2020-07-19T13:45:47Z</time>
      </trkpt>
      <trkpt lat="44.21272" lon="3.26015">
        <ele>847.1</ele>
        <time>2020-07-19T13:45:49Z</time>
      </trkpt>
      <trkpt lat="44.21272" lon="3.26014">
        <ele>847.2</ele>
        <time>2020-07-19T13:45:50Z</time>
      </trkpt>
      <trkpt lat="44.21271" lon="3.26011">
        <ele>847.4</ele>
        <time>2020-07-19T13:45:52Z</time>
      </trkpt>
      <trkpt lat="44.21271" lon="3.26009">
        <ele>847.5</ele>
        <time>2020-07-19T13:45:53Z</time>
      </trkpt>
      <trkpt lat="44.21271" lon="3.26005">
        <ele>847.9</ele>
        <time>2020-07-19T13:45:55Z</time>
      </trkpt>
      <trkpt lat="44.21271" lon="3.26003">
        <ele>848</ele>
        <time>2020-07-19T13:45:56Z</time>
      </trkpt>
      <trkpt lat="44.21271" lon="3.26001">
        <ele>848.2</ele>
        <time>2020-07-19T13:45:57Z</time>
      </trkpt>
      <trkpt lat="44.21271" lon="3.25998">
        <ele>848.5</ele>
        <time>2020-07-19T13:45:59Z</time>
      </trkpt>
      <trkpt lat="44.21271" lon="3.25996">
        <ele>848.7</ele>
        <time>2020-07-19T13:46:00Z</time>
      </trkpt>
      <trkpt lat="44.21271" lon="3.25994">
        <ele>848.8</ele>
        <time>2020-07-19T13:46:01Z</time>
      </trkpt>
      <trkpt lat="44.2127" lon="3.25992">
        <ele>849.1</ele>
        <time>2020-07-19T13:46:02Z</time>
      </trkpt>
      <trkpt lat="44.2127" lon="3.25989">
        <ele>849.3</ele>
        <time>2020-07-19T13:46:04Z</time>
      </trkpt>
      <trkpt lat="44.2127" lon="3.25987">
        <ele>849.5</ele>
        <time>2020-07-19T13:46:05Z</time>
      </trkpt>
      <trkpt lat="44.2127" lon="3.25985">
        <ele>849.7</ele>
        <time>2020-07-19T13:46:06Z</time>
      </trkpt>
      <trkpt lat="44.2127" lon="3.25984">
        <ele>849.9</ele>
        <time>2020-07-19T13:46:07Z</time>
      </trkpt>
      <trkpt lat="44.2127" lon="3.25982">
        <ele>850</ele>
        <time>2020-07-19T13:46:08Z</time>
      </trkpt>
      <trkpt lat="44.2127" lon="3.25979">
        <ele>850.3</ele>
        <time>2020-07-19T13:46:10Z</time>
      </trkpt>
      <trkpt lat="44.2127" lon="3.25977">
        <ele>850.5</ele>
        <time>2020-07-19T13:46:11Z</time>
      </trkpt>
      <trkpt lat="44.21271" lon="3.25976">
        <ele>850.6</ele>
        <time>2020-07-19T13:46:12Z</time>
      </trkpt>
      <trkpt lat="44.21271" lon="3.25974">
        <ele>850.8</ele>
        <time>2020-07-19T13:46:14Z</time>
      </trkpt>
      <trkpt lat="44.21271" lon="3.25973">
        <ele>850.9</ele>
        <time>2020-07-19T13:46:15Z</time>
      </trkpt>
      <trkpt lat="44.21272" lon="3.2597">
        <ele>851.1</ele>
        <time>2020-07-19T13:46:17Z</time>
      </trkpt>
      <trkpt lat="44.21273" lon="3.25969">
        <ele>851.3</ele>
        <time>2020-07-19T13:46:18Z</time>
      </trkpt>
      <trkpt lat="44.21274" lon="3.25965">
        <ele>851.7</ele>
        <time>2020-07-19T13:46:20Z</time>
      </trkpt>
      <trkpt lat="44.21275" lon="3.25963">
        <ele>851.8</ele>
        <time>2020-07-19T13:46:21Z</time>
      </trkpt>
      <trkpt lat="44.21277" lon="3.25959">
        <ele>852.1</ele>
        <time>2020-07-19T13:46:23Z</time>
      </trkpt>
      <trkpt lat="44.21277" lon="3.25958">
        <ele>852.2</ele>
        <time>2020-07-19T13:46:24Z</time>
      </trkpt>
      <trkpt lat="44.21278" lon="3.25956">
        <ele>852.4</ele>
        <time>2020-07-19T13:46:25Z</time>
      </trkpt>
      <trkpt lat="44.21279" lon="3.25955">
        <ele>852.5</ele>
        <time>2020-07-19T13:46:26Z</time>
      </trkpt>
      <trkpt lat="44.2128" lon="3.25952">
        <ele>852.6</ele>
        <time>2020-07-19T13:46:28Z</time>
      </trkpt>
      <trkpt lat="44.21281" lon="3.25951">
        <ele>852.7</ele>
        <time>2020-07-19T13:46:29Z</time>
      </trkpt>
      <trkpt lat="44.21282" lon="3.25948">
        <ele>852.9</ele>
        <time>2020-07-19T13:46:30Z</time>
      </trkpt>
      <trkpt lat="44.21284" lon="3.25944">
        <ele>853.1</ele>
        <time>2020-07-19T13:46:32Z</time>
      </trkpt>
      <trkpt lat="44.21285" lon="3.2594">
        <ele>853.2</ele>
        <time>2020-07-19T13:46:33Z</time>
      </trkpt>
      <trkpt lat="44.21287" lon="3.25937">
        <ele>853.3</ele>
        <time>2020-07-19T13:46:34Z</time>
      </trkpt>
      <trkpt lat="44.21289" lon="3.25933">
        <ele>853.4</ele>
        <time>2020-07-19T13:46:36Z</time>
      </trkpt>
      <trkpt lat="44.2129" lon="3.25929">
        <ele>853.5</ele>
        <time>2020-07-19T13:46:37Z</time>
      </trkpt>
      <trkpt lat="44.21291" lon="3.25927">
        <ele>853.5</ele>
        <time>2020-07-19T13:46:38Z</time>
      </trkpt>
      <trkpt lat="44.21293" lon="3.25924">
        <ele>853.6</ele>
        <time>2020-07-19T13:46:40Z</time>
      </trkpt>
      <trkpt lat="44.21293" lon="3.25921">
        <ele>853.6</ele>
        <time>2020-07-19T13:46:41Z</time>
      </trkpt>
      <trkpt lat="44.21295" lon="3.25917">
        <ele>853.7</ele>
        <time>2020-07-19T13:46:43Z</time>
      </trkpt>
      <trkpt lat="44.21297" lon="3.25913">
        <ele>853.7</ele>
        <time>2020-07-19T13:46:45Z</time>
      </trkpt>
      <trkpt lat="44.21298" lon="3.25911">
        <ele>853.7</ele>
        <time>2020-07-19T13:46:46Z</time>
      </trkpt>
      <trkpt lat="44.21299" lon="3.25908">
        <ele>853.8</ele>
        <time>2020-07-19T13:46:47Z</time>
      </trkpt>
      <trkpt lat="44.21301" lon="3.25904">
        <ele>853.9</ele>
        <time>2020-07-19T13:46:49Z</time>
      </trkpt>
      <trkpt lat="44.21303" lon="3.25899">
        <ele>853.9</ele>
        <time>2020-07-19T13:46:51Z</time>
      </trkpt>
      <trkpt lat="44.21304" lon="3.25894">
        <ele>854</ele>
        <time>2020-07-19T13:46:52Z</time>
      </trkpt>
      <trkpt lat="44.21305" lon="3.25893">
        <ele>854</ele>
        <time>2020-07-19T13:46:53Z</time>
      </trkpt>
      <trkpt lat="44.21306" lon="3.25889">
        <ele>854.1</ele>
        <time>2020-07-19T13:46:54Z</time>
      </trkpt>
      <trkpt lat="44.21306" lon="3.25886">
        <ele>854.1</ele>
        <time>2020-07-19T13:46:55Z</time>
      </trkpt>
      <trkpt lat="44.21307" lon="3.25881">
        <ele>854.2</ele>
        <time>2020-07-19T13:46:57Z</time>
      </trkpt>
      <trkpt lat="44.21307" lon="3.25879">
        <ele>854.3</ele>
        <time>2020-07-19T13:46:58Z</time>
      </trkpt>
      <trkpt lat="44.21308" lon="3.25874">
        <ele>854.3</ele>
        <time>2020-07-19T13:47:00Z</time>
      </trkpt>
      <trkpt lat="44.21309" lon="3.2587">
        <ele>854.4</ele>
        <time>2020-07-19T13:47:01Z</time>
      </trkpt>
      <trkpt lat="44.21311" lon="3.25865">
        <ele>854.5</ele>
        <time>2020-07-19T13:47:03Z</time>
      </trkpt>
      <trkpt lat="44.21313" lon="3.2586">
        <ele>854.5</ele>
        <time>2020-07-19T13:47:05Z</time>
      </trkpt>
      <trkpt lat="44.21314" lon="3.25856">
        <ele>854.6</ele>
        <time>2020-07-19T13:47:06Z</time>
      </trkpt>
      <trkpt lat="44.21315" lon="3.25852">
        <ele>854.6</ele>
        <time>2020-07-19T13:47:07Z</time>
      </trkpt>
      <trkpt lat="44.21316" lon="3.25846">
        <ele>854.7</ele>
        <time>2020-07-19T13:47:08Z</time>
      </trkpt>
      <trkpt lat="44.21317" lon="3.25843">
        <ele>854.7</ele>
        <time>2020-07-19T13:47:09Z</time>
      </trkpt>
      <trkpt lat="44.21319" lon="3.25835">
        <ele>854.8</ele>
        <time>2020-07-19T13:47:11Z</time>
      </trkpt>
      <trkpt lat="44.21321" lon="3.25829">
        <ele>854.8</ele>
        <time>2020-07-19T13:47:13Z</time>
      </trkpt>
      <trkpt lat="44.21322" lon="3.25823">
        <ele>854.9</ele>
        <time>2020-07-19T13:47:14Z</time>
      </trkpt>
      <trkpt lat="44.21324" lon="3.25818">
        <ele>854.9</ele>
        <time>2020-07-19T13:47:15Z</time>
      </trkpt>
      <trkpt lat="44.21326" lon="3.25811">
        <ele>854.9</ele>
        <time>2020-07-19T13:47:17Z</time>
      </trkpt>
      <trkpt lat="44.21328" lon="3.25806">
        <ele>854.8</ele>
        <time>2020-07-19T13:47:18Z</time>
      </trkpt>
      <trkpt lat="44.21329" lon="3.25802">
        <ele>854.8</ele>
        <time>2020-07-19T13:47:19Z</time>
      </trkpt>
      <trkpt lat="44.21333" lon="3.25794">
        <ele>854.8</ele>
        <time>2020-07-19T13:47:21Z</time>
      </trkpt>
      <trkpt lat="44.21335" lon="3.25788">
        <ele>854.7</ele>
        <time>2020-07-19T13:47:23Z</time>
      </trkpt>
      <trkpt lat="44.21337" lon="3.25779">
        <ele>854.6</ele>
        <time>2020-07-19T13:47:24Z</time>
      </trkpt>
      <trkpt lat="44.21338" lon="3.25773">
        <ele>854.6</ele>
        <time>2020-07-19T13:47:25Z</time>
      </trkpt>
      <trkpt lat="44.21337" lon="3.25769">
        <ele>854.5</ele>
        <time>2020-07-19T13:47:27Z</time>
      </trkpt>
      <trkpt lat="44.21337" lon="3.25764">
        <ele>854.5</ele>
        <time>2020-07-19T13:47:28Z</time>
      </trkpt>
      <trkpt lat="44.21334" lon="3.25761">
        <ele>854.5</ele>
        <time>2020-07-19T13:47:29Z</time>
      </trkpt>
      <trkpt lat="44.21331" lon="3.25757">
        <ele>854.6</ele>
        <time>2020-07-19T13:47:31Z</time>
      </trkpt>
      <trkpt lat="44.21327" lon="3.25754">
        <ele>854.7</ele>
        <time>2020-07-19T13:47:32Z</time>
      </trkpt>
      <trkpt lat="44.21324" lon="3.25751">
        <ele>854.9</ele>
        <time>2020-07-19T13:47:34Z</time>
      </trkpt>
      <trkpt lat="44.21322" lon="3.25749">
        <ele>855</ele>
        <time>2020-07-19T13:47:35Z</time>
      </trkpt>
      <trkpt lat="44.21319" lon="3.25745">
        <ele>855.3</ele>
        <time>2020-07-19T13:47:37Z</time>
      </trkpt>
      <trkpt lat="44.21317" lon="3.25742">
        <ele>855.7</ele>
        <time>2020-07-19T13:47:39Z</time>
      </trkpt>
      <trkpt lat="44.21315" lon="3.25739">
        <ele>856.2</ele>
        <time>2020-07-19T13:47:40Z</time>
      </trkpt>
      <trkpt lat="44.21312" lon="3.25737">
        <ele>856.8</ele>
        <time>2020-07-19T13:47:41Z</time>
      </trkpt>
      <trkpt lat="44.21311" lon="3.25736">
        <ele>856.9</ele>
        <time>2020-07-19T13:47:42Z</time>
      </trkpt>
      <trkpt lat="44.21309" lon="3.25734">
        <ele>857.4</ele>
        <time>2020-07-19T13:47:43Z</time>
      </trkpt>
      <trkpt lat="44.21308" lon="3.25732">
        <ele>857.5</ele>
        <time>2020-07-19T13:47:44Z</time>
      </trkpt>
      <trkpt lat="44.21306" lon="3.25728">
        <ele>858.1</ele>
        <time>2020-07-19T13:47:46Z</time>
      </trkpt>
      <trkpt lat="44.21306" lon="3.25726">
        <ele>858.3</ele>
        <time>2020-07-19T13:47:47Z</time>
      </trkpt>
      <trkpt lat="44.21304" lon="3.25722">
        <ele>858.7</ele>
        <time>2020-07-19T13:47:49Z</time>
      </trkpt>
      <trkpt lat="44.21304" lon="3.25718">
        <ele>859.1</ele>
        <time>2020-07-19T13:47:50Z</time>
      </trkpt>
      <trkpt lat="44.21304" lon="3.25715">
        <ele>859.4</ele>
        <time>2020-07-19T13:47:52Z</time>
      </trkpt>
      <trkpt lat="44.21304" lon="3.25709">
        <ele>859.9</ele>
        <time>2020-07-19T13:47:53Z</time>
      </trkpt>
      <trkpt lat="44.21303" lon="3.25707">
        <ele>860.1</ele>
        <time>2020-07-19T13:47:54Z</time>
      </trkpt>
      <trkpt lat="44.21303" lon="3.25704">
        <ele>860.4</ele>
        <time>2020-07-19T13:47:56Z</time>
      </trkpt>
      <trkpt lat="44.21303" lon="3.25701">
        <ele>860.7</ele>
        <time>2020-07-19T13:47:58Z</time>
      </trkpt>
      <trkpt lat="44.21302" lon="3.257">
        <ele>860.8</ele>
        <time>2020-07-19T13:47:59Z</time>
      </trkpt>
      <trkpt lat="44.21301" lon="3.25696">
        <ele>861.2</ele>
        <time>2020-07-19T13:48:01Z</time>
      </trkpt>
      <trkpt lat="44.21301" lon="3.25692">
        <ele>861.6</ele>
        <time>2020-07-19T13:48:03Z</time>
      </trkpt>
      <trkpt lat="44.21301" lon="3.25689">
        <ele>861.8</ele>
        <time>2020-07-19T13:48:04Z</time>
      </trkpt>
      <trkpt lat="44.21302" lon="3.25685">
        <ele>862.2</ele>
        <time>2020-07-19T13:48:06Z</time>
      </trkpt>
      <trkpt lat="44.21302" lon="3.2568">
        <ele>862.6</ele>
        <time>2020-07-19T13:48:08Z</time>
      </trkpt>
      <trkpt lat="44.21302" lon="3.25677">
        <ele>862.9</ele>
        <time>2020-07-19T13:48:10Z</time>
      </trkpt>
      <trkpt lat="44.21302" lon="3.25672">
        <ele>863.4</ele>
        <time>2020-07-19T13:48:12Z</time>
      </trkpt>
      <trkpt lat="44.21301" lon="3.2567">
        <ele>863.6</ele>
        <time>2020-07-19T13:48:13Z</time>
      </trkpt>
      <trkpt lat="44.21301" lon="3.25668">
        <ele>863.7</ele>
        <time>2020-07-19T13:48:14Z</time>
      </trkpt>
      <trkpt lat="44.21301" lon="3.25664">
        <ele>864</ele>
        <time>2020-07-19T13:48:16Z</time>
      </trkpt>
      <trkpt lat="44.21301" lon="3.25661">
        <ele>864.4</ele>
        <time>2020-07-19T13:48:18Z</time>
      </trkpt>
      <trkpt lat="44.21301" lon="3.25659">
        <ele>864.5</ele>
        <time>2020-07-19T13:48:20Z</time>
      </trkpt>
      <trkpt lat="44.21301" lon="3.25658">
        <ele>864.7</ele>
        <time>2020-07-19T13:48:21Z</time>
      </trkpt>
      <trkpt lat="44.213" lon="3.25656">
        <ele>864.9</ele>
        <time>2020-07-19T13:48:22Z</time>
      </trkpt>
      <trkpt lat="44.213" lon="3.25651">
        <ele>865.3</ele>
        <time>2020-07-19T13:48:24Z</time>
      </trkpt>
      <trkpt lat="44.213" lon="3.2565">
        <ele>865.4</ele>
        <time>2020-07-19T13:48:25Z</time>
      </trkpt>
      <trkpt lat="44.21299" lon="3.25646">
        <ele>865.9</ele>
        <time>2020-07-19T13:48:26Z</time>
      </trkpt>
      <trkpt lat="44.21299" lon="3.25644">
        <ele>866.1</ele>
        <time>2020-07-19T13:48:28Z</time>
      </trkpt>
      <trkpt lat="44.21298" lon="3.25642">
        <ele>866.3</ele>
        <time>2020-07-19T13:48:29Z</time>
      </trkpt>
      <trkpt lat="44.21297" lon="3.2564">
        <ele>866.4</ele>
        <time>2020-07-19T13:48:30Z</time>
      </trkpt>
      <trkpt lat="44.21296" lon="3.25636">
        <ele>866.8</ele>
        <time>2020-07-19T13:48:32Z</time>
      </trkpt>
      <trkpt lat="44.21295" lon="3.25634">
        <ele>867</ele>
        <time>2020-07-19T13:48:33Z</time>
      </trkpt>
      <trkpt lat="44.21294" lon="3.25632">
        <ele>867.2</ele>
        <time>2020-07-19T13:48:34Z</time>
      </trkpt>
      <trkpt lat="44.21293" lon="3.25629">
        <ele>867.5</ele>
        <time>2020-07-19T13:48:36Z</time>
      </trkpt>
      <trkpt lat="44.21292" lon="3.25627">
        <ele>867.8</ele>
        <time>2020-07-19T13:48:37Z</time>
      </trkpt>
      <trkpt lat="44.21291" lon="3.25625">
        <ele>868</ele>
        <time>2020-07-19T13:48:38Z</time>
      </trkpt>
      <trkpt lat="44.2129" lon="3.25624">
        <ele>868.1</ele>
        <time>2020-07-19T13:48:39Z</time>
      </trkpt>
      <trkpt lat="44.21289" lon="3.2562">
        <ele>868.5</ele>
        <time>2020-07-19T13:48:41Z</time>
      </trkpt>
      <trkpt lat="44.21288" lon="3.25619">
        <ele>868.6</ele>
        <time>2020-07-19T13:48:42Z</time>
      </trkpt>
      <trkpt lat="44.21286" lon="3.25616">
        <ele>869.1</ele>
        <time>2020-07-19T13:48:44Z</time>
      </trkpt>
      <trkpt lat="44.21284" lon="3.25614">
        <ele>869.4</ele>
        <time>2020-07-19T13:48:45Z</time>
      </trkpt>
      <trkpt lat="44.21283" lon="3.25612">
        <ele>869.7</ele>
        <time>2020-07-19T13:48:47Z</time>
      </trkpt>
      <trkpt lat="44.2128" lon="3.2561">
        <ele>870.2</ele>
        <time>2020-07-19T13:48:48Z</time>
      </trkpt>
      <trkpt lat="44.2128" lon="3.25609">
        <ele>870.3</ele>
        <time>2020-07-19T13:48:49Z</time>
      </trkpt>
      <trkpt lat="44.21278" lon="3.25608">
        <ele>870.6</ele>
        <time>2020-07-19T13:48:50Z</time>
      </trkpt>
      <trkpt lat="44.21276" lon="3.25607">
        <ele>871</ele>
        <time>2020-07-19T13:48:52Z</time>
      </trkpt>
      <trkpt lat="44.21273" lon="3.25605">
        <ele>871.5</ele>
        <time>2020-07-19T13:48:53Z</time>
      </trkpt>
      <trkpt lat="44.21272" lon="3.25605">
        <ele>871.6</ele>
        <time>2020-07-19T13:48:54Z</time>
      </trkpt>
      <trkpt lat="44.2127" lon="3.25605">
        <ele>872</ele>
        <time>2020-07-19T13:48:55Z</time>
      </trkpt>
      <trkpt lat="44.21269" lon="3.25606">
        <ele>872.2</ele>
        <time>2020-07-19T13:48:57Z</time>
      </trkpt>
      <trkpt lat="44.21268" lon="3.25607">
        <ele>872.5</ele>
        <time>2020-07-19T13:48:58Z</time>
      </trkpt>
      <trkpt lat="44.21267" lon="3.25608">
        <ele>872.5</ele>
        <time>2020-07-19T13:48:59Z</time>
      </trkpt>
      <trkpt lat="44.21268" lon="3.25609">
        <ele>872.7</ele>
        <time>2020-07-19T13:49:01Z</time>
      </trkpt>
      <trkpt lat="44.21268" lon="3.2561">
        <ele>872.9</ele>
        <time>2020-07-19T13:49:02Z</time>
      </trkpt>
      <trkpt lat="44.21268" lon="3.25611">
        <ele>873</ele>
        <time>2020-07-19T13:49:03Z</time>
      </trkpt>
      <trkpt lat="44.21268" lon="3.25612">
        <ele>873.1</ele>
        <time>2020-07-19T13:49:05Z</time>
      </trkpt>
      <trkpt lat="44.21268" lon="3.25614">
        <ele>876.6</ele>
        <time>2020-07-19T13:49:06Z</time>
      </trkpt>
      <trkpt lat="44.21267" lon="3.25615">
        <ele>876.7</ele>
        <time>2020-07-19T13:49:07Z</time>
      </trkpt>
      <trkpt lat="44.21267" lon="3.25617">
        <ele>876.8</ele>
        <time>2020-07-19T13:49:09Z</time>
      </trkpt>
      <trkpt lat="44.21267" lon="3.25618">
        <ele>876.9</ele>
        <time>2020-07-19T13:49:10Z</time>
      </trkpt>
      <trkpt lat="44.21266" lon="3.2562">
        <ele>877</ele>
        <time>2020-07-19T13:49:12Z</time>
      </trkpt>
      <trkpt lat="44.21266" lon="3.2562">
        <ele>877.1</ele>
        <time>2020-07-19T13:49:13Z</time>
      </trkpt>
      <trkpt lat="44.21265" lon="3.25622">
        <ele>877.2</ele>
        <time>2020-07-19T13:49:14Z</time>
      </trkpt>
      <trkpt lat="44.21265" lon="3.25623">
        <ele>877.3</ele>
        <time>2020-07-19T13:49:15Z</time>
      </trkpt>
      <trkpt lat="44.21265" lon="3.25625">
        <ele>877.4</ele>
        <time>2020-07-19T13:49:16Z</time>
      </trkpt>
      <trkpt lat="44.21265" lon="3.25626">
        <ele>877.5</ele>
        <time>2020-07-19T13:49:17Z</time>
      </trkpt>
      <trkpt lat="44.21264" lon="3.25629">
        <ele>877.7</ele>
        <time>2020-07-19T13:49:19Z</time>
      </trkpt>
      <trkpt lat="44.21264" lon="3.2563">
        <ele>877.8</ele>
        <time>2020-07-19T13:49:20Z</time>
      </trkpt>
      <trkpt lat="44.21264" lon="3.25631">
        <ele>877.8</ele>
        <time>2020-07-19T13:49:21Z</time>
      </trkpt>
      <trkpt lat="44.21264" lon="3.25633">
        <ele>878</ele>
        <time>2020-07-19T13:49:23Z</time>
      </trkpt>
      <trkpt lat="44.21263" lon="3.25636">
        <ele>878.1</ele>
        <time>2020-07-19T13:49:24Z</time>
      </trkpt>
      <trkpt lat="44.21263" lon="3.2564">
        <ele>878.3</ele>
        <time>2020-07-19T13:49:26Z</time>
      </trkpt>
      <trkpt lat="44.21263" lon="3.25642">
        <ele>878.4</ele>
        <time>2020-07-19T13:49:27Z</time>
      </trkpt>
      <trkpt lat="44.21261" lon="3.25646">
        <ele>878.6</ele>
        <time>2020-07-19T13:49:29Z</time>
      </trkpt>
      <trkpt lat="44.2126" lon="3.25648">
        <ele>878.8</ele>
        <time>2020-07-19T13:49:30Z</time>
      </trkpt>
      <trkpt lat="44.2126" lon="3.2565">
        <ele>878.8</ele>
        <time>2020-07-19T13:49:31Z</time>
      </trkpt>
      <trkpt lat="44.21258" lon="3.25653">
        <ele>879</ele>
        <time>2020-07-19T13:49:33Z</time>
      </trkpt>
      <trkpt lat="44.21257" lon="3.25656">
        <ele>879.2</ele>
        <time>2020-07-19T13:49:35Z</time>
      </trkpt>
      <trkpt lat="44.21256" lon="3.2566">
        <ele>879.4</ele>
        <time>2020-07-19T13:49:36Z</time>
      </trkpt>
      <trkpt lat="44.21256" lon="3.25661">
        <ele>879.5</ele>
        <time>2020-07-19T13:49:37Z</time>
      </trkpt>
      <trkpt lat="44.21255" lon="3.25663">
        <ele>879.6</ele>
        <time>2020-07-19T13:49:38Z</time>
      </trkpt>
      <trkpt lat="44.21255" lon="3.25665">
        <ele>879.7</ele>
        <time>2020-07-19T13:49:40Z</time>
      </trkpt>
      <trkpt lat="44.21254" lon="3.25667">
        <ele>879.8</ele>
        <time>2020-07-19T13:49:41Z</time>
      </trkpt>
      <trkpt lat="44.21253" lon="3.2567">
        <ele>880</ele>
        <time>2020-07-19T13:49:43Z</time>
      </trkpt>
      <trkpt lat="44.21253" lon="3.25672">
        <ele>880.2</ele>
        <time>2020-07-19T13:49:44Z</time>
      </trkpt>
      <trkpt lat="44.21253" lon="3.25674">
        <ele>880.3</ele>
        <time>2020-07-19T13:49:45Z</time>
      </trkpt>
      <trkpt lat="44.21252" lon="3.25676">
        <ele>880.5</ele>
        <time>2020-07-19T13:49:47Z</time>
      </trkpt>
      <trkpt lat="44.21251" lon="3.2568">
        <ele>880.7</ele>
        <time>2020-07-19T13:49:49Z</time>
      </trkpt>
      <trkpt lat="44.2125" lon="3.25681">
        <ele>880.8</ele>
        <time>2020-07-19T13:49:50Z</time>
      </trkpt>
      <trkpt lat="44.2125" lon="3.25682">
        <ele>880.9</ele>
        <time>2020-07-19T13:49:52Z</time>
      </trkpt>
      <trkpt lat="44.21249" lon="3.25684">
        <ele>881</ele>
        <time>2020-07-19T13:49:54Z</time>
      </trkpt>
      <trkpt lat="44.21248" lon="3.25685">
        <ele>881.2</ele>
        <time>2020-07-19T13:49:55Z</time>
      </trkpt>
      <trkpt lat="44.21247" lon="3.25687">
        <ele>881.4</ele>
        <time>2020-07-19T13:49:56Z</time>
      </trkpt>
      <trkpt lat="44.21245" lon="3.25691">
        <ele>881.6</ele>
        <time>2020-07-19T13:49:57Z</time>
      </trkpt>
      <trkpt lat="44.21244" lon="3.25692">
        <ele>881.8</ele>
        <time>2020-07-19T13:49:59Z</time>
      </trkpt>
      <trkpt lat="44.21243" lon="3.25694">
        <ele>881.9</ele>
        <time>2020-07-19T13:50:00Z</time>
      </trkpt>
      <trkpt lat="44.21242" lon="3.25695">
        <ele>882</ele>
        <time>2020-07-19T13:50:01Z</time>
      </trkpt>
      <trkpt lat="44.2124" lon="3.25699">
        <ele>882.3</ele>
        <time>2020-07-19T13:50:03Z</time>
      </trkpt>
      <trkpt lat="44.21239" lon="3.257">
        <ele>882.4</ele>
        <time>2020-07-19T13:50:04Z</time>
      </trkpt>
      <trkpt lat="44.21239" lon="3.25701">
        <ele>882.6</ele>
        <time>2020-07-19T13:50:05Z</time>
      </trkpt>
      <trkpt lat="44.21238" lon="3.25702">
        <ele>882.6</ele>
        <time>2020-07-19T13:50:06Z</time>
      </trkpt>
      <trkpt lat="44.21239" lon="3.25702">
        <ele>882.7</ele>
        <time>2020-07-19T13:50:08Z</time>
      </trkpt>
      <trkpt lat="44.21239" lon="3.25702">
        <ele>882.7</ele>
        <time>2020-07-19T13:50:09Z</time>
      </trkpt>
      <trkpt lat="44.21239" lon="3.25702">
        <ele>882.7</ele>
        <time>2020-07-19T13:50:11Z</time>
      </trkpt>
      <trkpt lat="44.21239" lon="3.25703">
        <ele>882.8</ele>
        <time>2020-07-19T13:50:13Z</time>
      </trkpt>
      <trkpt lat="44.21238" lon="3.25704">
        <ele>882.8</ele>
        <time>2020-07-19T13:50:15Z</time>
      </trkpt>
      <trkpt lat="44.21236" lon="3.25706">
        <ele>883.1</ele>
        <time>2020-07-19T13:51:01Z</time>
      </trkpt>
      <trkpt lat="44.21235" lon="3.25708">
        <ele>883.3</ele>
        <time>2020-07-19T13:51:03Z</time>
      </trkpt>
      <trkpt lat="44.21235" lon="3.2571">
        <ele>883.4</ele>
        <time>2020-07-19T13:51:04Z</time>
      </trkpt>
      <trkpt lat="44.21234" lon="3.25712">
        <ele>883.5</ele>
        <time>2020-07-19T13:51:05Z</time>
      </trkpt>
      <trkpt lat="44.21235" lon="3.25713">
        <ele>883.6</ele>
        <time>2020-07-19T13:51:06Z</time>
      </trkpt>
      <trkpt lat="44.21235" lon="3.25714">
        <ele>883.6</ele>
        <time>2020-07-19T13:51:07Z</time>
      </trkpt>
      <trkpt lat="44.21235" lon="3.25715">
        <ele>883.7</ele>
        <time>2020-07-19T13:51:09Z</time>
      </trkpt>
      <trkpt lat="44.21235" lon="3.25715">
        <ele>883.7</ele>
        <time>2020-07-19T13:51:10Z</time>
      </trkpt>
      <trkpt lat="44.21235" lon="3.25719">
        <ele>883.9</ele>
        <time>2020-07-19T13:51:11Z</time>
      </trkpt>
      <trkpt lat="44.21234" lon="3.25722">
        <ele>884.1</ele>
        <time>2020-07-19T13:51:13Z</time>
      </trkpt>
      <trkpt lat="44.21232" lon="3.25726">
        <ele>884.2</ele>
        <time>2020-07-19T13:51:14Z</time>
      </trkpt>
      <trkpt lat="44.21231" lon="3.25728">
        <ele>884.3</ele>
        <time>2020-07-19T13:51:15Z</time>
      </trkpt>
      <trkpt lat="44.2123" lon="3.2573">
        <ele>884.4</ele>
        <time>2020-07-19T13:51:16Z</time>
      </trkpt>
      <trkpt lat="44.21227" lon="3.25736">
        <ele>884.6</ele>
        <time>2020-07-19T13:51:18Z</time>
      </trkpt>
      <trkpt lat="44.21226" lon="3.25737">
        <ele>884.7</ele>
        <time>2020-07-19T13:51:20Z</time>
      </trkpt>
      <trkpt lat="44.21224" lon="3.25739">
        <ele>884.8</ele>
        <time>2020-07-19T13:51:21Z</time>
      </trkpt>
      <trkpt lat="44.21223" lon="3.25741">
        <ele>884.8</ele>
        <time>2020-07-19T13:51:22Z</time>
      </trkpt>
      <trkpt lat="44.21221" lon="3.25743">
        <ele>884.9</ele>
        <time>2020-07-19T13:51:24Z</time>
      </trkpt>
      <trkpt lat="44.21219" lon="3.25745">
        <ele>884.9</ele>
        <time>2020-07-19T13:51:26Z</time>
      </trkpt>
      <trkpt lat="44.21217" lon="3.25746">
        <ele>885</ele>
        <time>2020-07-19T13:51:27Z</time>
      </trkpt>
      <trkpt lat="44.21216" lon="3.25747">
        <ele>885</ele>
        <time>2020-07-19T13:51:28Z</time>
      </trkpt>
      <trkpt lat="44.21214" lon="3.25747">
        <ele>885.1</ele>
        <time>2020-07-19T13:51:29Z</time>
      </trkpt>
      <trkpt lat="44.21213" lon="3.25747">
        <ele>885.1</ele>
        <time>2020-07-19T13:51:30Z</time>
      </trkpt>
      <trkpt lat="44.21211" lon="3.25746">
        <ele>885.1</ele>
        <time>2020-07-19T13:51:31Z</time>
      </trkpt>
      <trkpt lat="44.21209" lon="3.25746">
        <ele>885.2</ele>
        <time>2020-07-19T13:51:33Z</time>
      </trkpt>
      <trkpt lat="44.21206" lon="3.25747">
        <ele>885.3</ele>
        <time>2020-07-19T13:51:34Z</time>
      </trkpt>
      <trkpt lat="44.21205" lon="3.25747">
        <ele>885.3</ele>
        <time>2020-07-19T13:51:35Z</time>
      </trkpt>
      <trkpt lat="44.21202" lon="3.25745">
        <ele>885.4</ele>
        <time>2020-07-19T13:51:37Z</time>
      </trkpt>
      <trkpt lat="44.21199" lon="3.25745">
        <ele>885.5</ele>
        <time>2020-07-19T13:51:38Z</time>
      </trkpt>
      <trkpt lat="44.21194" lon="3.25744">
        <ele>885.7</ele>
        <time>2020-07-19T13:51:40Z</time>
      </trkpt>
      <trkpt lat="44.21192" lon="3.25744">
        <ele>885.8</ele>
        <time>2020-07-19T13:51:41Z</time>
      </trkpt>
      <trkpt lat="44.21189" lon="3.25744">
        <ele>885.9</ele>
        <time>2020-07-19T13:51:43Z</time>
      </trkpt>
      <trkpt lat="44.21186" lon="3.25743">
        <ele>886</ele>
        <time>2020-07-19T13:51:44Z</time>
      </trkpt>
      <trkpt lat="44.21183" lon="3.25742">
        <ele>886.1</ele>
        <time>2020-07-19T13:51:46Z</time>
      </trkpt>
      <trkpt lat="44.2118" lon="3.25742">
        <ele>886.2</ele>
        <time>2020-07-19T13:51:47Z</time>
      </trkpt>
      <trkpt lat="44.21179" lon="3.25742">
        <ele>886.2</ele>
        <time>2020-07-19T13:51:48Z</time>
      </trkpt>
      <trkpt lat="44.21177" lon="3.25742">
        <ele>886.2</ele>
        <time>2020-07-19T13:51:49Z</time>
      </trkpt>
      <trkpt lat="44.21174" lon="3.25742">
        <ele>886.3</ele>
        <time>2020-07-19T13:51:51Z</time>
      </trkpt>
      <trkpt lat="44.21173" lon="3.25742">
        <ele>886.3</ele>
        <time>2020-07-19T13:51:52Z</time>
      </trkpt>
      <trkpt lat="44.21171" lon="3.2574">
        <ele>886.3</ele>
        <time>2020-07-19T13:51:53Z</time>
      </trkpt>
      <trkpt lat="44.21169" lon="3.25738">
        <ele>886.3</ele>
        <time>2020-07-19T13:51:54Z</time>
      </trkpt>
      <trkpt lat="44.21167" lon="3.25735">
        <ele>886.3</ele>
        <time>2020-07-19T13:51:56Z</time>
      </trkpt>
      <trkpt lat="44.21164" lon="3.25734">
        <ele>886.2</ele>
        <time>2020-07-19T13:51:57Z</time>
      </trkpt>
      <trkpt lat="44.21163" lon="3.25733">
        <ele>886.2</ele>
        <time>2020-07-19T13:51:58Z</time>
      </trkpt>
      <trkpt lat="44.21161" lon="3.25729">
        <ele>886.2</ele>
        <time>2020-07-19T13:52:00Z</time>
      </trkpt>
      <trkpt lat="44.21157" lon="3.25725">
        <ele>886.2</ele>
        <time>2020-07-19T13:52:02Z</time>
      </trkpt>
      <trkpt lat="44.21156" lon="3.25722">
        <ele>886.1</ele>
        <time>2020-07-19T13:52:03Z</time>
      </trkpt>
      <trkpt lat="44.21152" lon="3.25715">
        <ele>886</ele>
        <time>2020-07-19T13:52:05Z</time>
      </trkpt>
      <trkpt lat="44.21151" lon="3.25711">
        <ele>885.9</ele>
        <time>2020-07-19T13:52:06Z</time>
      </trkpt>
      <trkpt lat="44.21151" lon="3.25707">
        <ele>885.8</ele>
        <time>2020-07-19T13:52:07Z</time>
      </trkpt>
      <trkpt lat="44.2115" lon="3.25702">
        <ele>885.7</ele>
        <time>2020-07-19T13:52:09Z</time>
      </trkpt>
      <trkpt lat="44.21148" lon="3.25698">
        <ele>885.5</ele>
        <time>2020-07-19T13:52:10Z</time>
      </trkpt>
      <trkpt lat="44.21145" lon="3.25691">
        <ele>885.2</ele>
        <time>2020-07-19T13:52:11Z</time>
      </trkpt>
      <trkpt lat="44.21144" lon="3.25685">
        <ele>885</ele>
        <time>2020-07-19T13:52:13Z</time>
      </trkpt>
      <trkpt lat="44.21143" lon="3.25677">
        <ele>884.8</ele>
        <time>2020-07-19T13:52:14Z</time>
      </trkpt>
      <trkpt lat="44.21142" lon="3.25668">
        <ele>884.7</ele>
        <time>2020-07-19T13:52:16Z</time>
      </trkpt>
      <trkpt lat="44.21142" lon="3.2566">
        <ele>884.6</ele>
        <time>2020-07-19T13:52:17Z</time>
      </trkpt>
      <trkpt lat="44.21142" lon="3.25652">
        <ele>884.6</ele>
        <time>2020-07-19T13:52:18Z</time>
      </trkpt>
      <trkpt lat="44.21142" lon="3.25646">
        <ele>884.6</ele>
        <time>2020-07-19T13:52:20Z</time>
      </trkpt>
      <trkpt lat="44.21142" lon="3.2564">
        <ele>884.6</ele>
        <time>2020-07-19T13:52:21Z</time>
      </trkpt>
      <trkpt lat="44.21143" lon="3.25635">
        <ele>884.7</ele>
        <time>2020-07-19T13:52:23Z</time>
      </trkpt>
      <trkpt lat="44.21144" lon="3.2563">
        <ele>884.6</ele>
        <time>2020-07-19T13:52:24Z</time>
      </trkpt>
      <trkpt lat="44.21145" lon="3.25625">
        <ele>884.6</ele>
        <time>2020-07-19T13:52:26Z</time>
      </trkpt>
      <trkpt lat="44.21147" lon="3.25619">
        <ele>884.5</ele>
        <time>2020-07-19T13:52:27Z</time>
      </trkpt>
      <trkpt lat="44.21149" lon="3.25614">
        <ele>884.4</ele>
        <time>2020-07-19T13:52:28Z</time>
      </trkpt>
      <trkpt lat="44.21151" lon="3.25608">
        <ele>884.3</ele>
        <time>2020-07-19T13:52:30Z</time>
      </trkpt>
      <trkpt lat="44.21152" lon="3.25602">
        <ele>884.1</ele>
        <time>2020-07-19T13:52:31Z</time>
      </trkpt>
      <trkpt lat="44.21153" lon="3.25598">
        <ele>883.9</ele>
        <time>2020-07-19T13:52:32Z</time>
      </trkpt>
      <trkpt lat="44.21155" lon="3.2559">
        <ele>883.6</ele>
        <time>2020-07-19T13:52:34Z</time>
      </trkpt>
      <trkpt lat="44.21157" lon="3.25581">
        <ele>883.1</ele>
        <time>2020-07-19T13:52:35Z</time>
      </trkpt>
      <trkpt lat="44.21158" lon="3.25574">
        <ele>882.8</ele>
        <time>2020-07-19T13:52:36Z</time>
      </trkpt>
      <trkpt lat="44.21161" lon="3.25562">
        <ele>882.5</ele>
        <time>2020-07-19T13:52:38Z</time>
      </trkpt>
      <trkpt lat="44.21161" lon="3.25557">
        <ele>882.4</ele>
        <time>2020-07-19T13:52:39Z</time>
      </trkpt>
      <trkpt lat="44.21163" lon="3.25546">
        <ele>882.4</ele>
        <time>2020-07-19T13:52:41Z</time>
      </trkpt>
      <trkpt lat="44.21165" lon="3.25537">
        <ele>882.4</ele>
        <time>2020-07-19T13:52:43Z</time>
      </trkpt>
      <trkpt lat="44.21165" lon="3.2553">
        <ele>882.4</ele>
        <time>2020-07-19T13:52:44Z</time>
      </trkpt>
      <trkpt lat="44.21165" lon="3.25522">
        <ele>882.6</ele>
        <time>2020-07-19T13:52:45Z</time>
      </trkpt>
      <trkpt lat="44.21163" lon="3.25515">
        <ele>882.7</ele>
        <time>2020-07-19T13:52:47Z</time>
      </trkpt>
      <trkpt lat="44.21162" lon="3.2551">
        <ele>882.9</ele>
        <time>2020-07-19T13:52:48Z</time>
      </trkpt>
      <trkpt lat="44.21161" lon="3.25506">
        <ele>883.1</ele>
        <time>2020-07-19T13:52:49Z</time>
      </trkpt>
      <trkpt lat="44.2116" lon="3.25505">
        <ele>883.1</ele>
        <time>2020-07-19T13:52:50Z</time>
      </trkpt>
      <trkpt lat="44.21159" lon="3.25503">
        <ele>883.3</ele>
        <time>2020-07-19T13:52:52Z</time>
      </trkpt>
      <trkpt lat="44.21157" lon="3.25502">
        <ele>883.4</ele>
        <time>2020-07-19T13:52:53Z</time>
      </trkpt>
      <trkpt lat="44.21154" lon="3.25503">
        <ele>883.7</ele>
        <time>2020-07-19T13:52:55Z</time>
      </trkpt>
      <trkpt lat="44.21152" lon="3.25503">
        <ele>883.8</ele>
        <time>2020-07-19T13:52:56Z</time>
      </trkpt>
      <trkpt lat="44.2115" lon="3.25503">
        <ele>884.1</ele>
        <time>2020-07-19T13:52:57Z</time>
      </trkpt>
      <trkpt lat="44.21149" lon="3.25503">
        <ele>884.2</ele>
        <time>2020-07-19T13:52:58Z</time>
      </trkpt>
      <trkpt lat="44.21145" lon="3.25502">
        <ele>884.6</ele>
        <time>2020-07-19T13:53:00Z</time>
      </trkpt>
      <trkpt lat="44.21144" lon="3.25502">
        <ele>884.7</ele>
        <time>2020-07-19T13:53:01Z</time>
      </trkpt>
      <trkpt lat="44.21142" lon="3.25502">
        <ele>884.9</ele>
        <time>2020-07-19T13:53:02Z</time>
      </trkpt>
      <trkpt lat="44.21141" lon="3.25502">
        <ele>885</ele>
        <time>2020-07-19T13:53:03Z</time>
      </trkpt>
      <trkpt lat="44.21138" lon="3.25502">
        <ele>885.3</ele>
        <time>2020-07-19T13:53:04Z</time>
      </trkpt>
      <trkpt lat="44.21137" lon="3.25502">
        <ele>885.4</ele>
        <time>2020-07-19T13:53:05Z</time>
      </trkpt>
      <trkpt lat="44.21133" lon="3.25501">
        <ele>885.7</ele>
        <time>2020-07-19T13:53:07Z</time>
      </trkpt>
      <trkpt lat="44.21133" lon="3.25501">
        <ele>885.8</ele>
        <time>2020-07-19T13:53:08Z</time>
      </trkpt>
      <trkpt lat="44.21131" lon="3.25501">
        <ele>885.9</ele>
        <time>2020-07-19T13:53:09Z</time>
      </trkpt>
      <trkpt lat="44.21129" lon="3.255">
        <ele>886.2</ele>
        <time>2020-07-19T13:53:11Z</time>
      </trkpt>
      <trkpt lat="44.21125" lon="3.25498">
        <ele>886.4</ele>
        <time>2020-07-19T13:53:12Z</time>
      </trkpt>
      <trkpt lat="44.21124" lon="3.25497">
        <ele>886.5</ele>
        <time>2020-07-19T13:53:13Z</time>
      </trkpt>
      <trkpt lat="44.21123" lon="3.25496">
        <ele>886.6</ele>
        <time>2020-07-19T13:53:14Z</time>
      </trkpt>
      <trkpt lat="44.21121" lon="3.25495">
        <ele>886.8</ele>
        <time>2020-07-19T13:53:16Z</time>
      </trkpt>
      <trkpt lat="44.2112" lon="3.25494">
        <ele>886.9</ele>
        <time>2020-07-19T13:53:17Z</time>
      </trkpt>
      <trkpt lat="44.21118" lon="3.25491">
        <ele>887.2</ele>
        <time>2020-07-19T13:53:19Z</time>
      </trkpt>
      <trkpt lat="44.21118" lon="3.25488">
        <ele>887.3</ele>
        <time>2020-07-19T13:53:20Z</time>
      </trkpt>
      <trkpt lat="44.21118" lon="3.25486">
        <ele>887.5</ele>
        <time>2020-07-19T13:53:22Z</time>
      </trkpt>
      <trkpt lat="44.21118" lon="3.25484">
        <ele>887.6</ele>
        <time>2020-07-19T13:53:23Z</time>
      </trkpt>
      <trkpt lat="44.21118" lon="3.25481">
        <ele>887.8</ele>
        <time>2020-07-19T13:53:25Z</time>
      </trkpt>
      <trkpt lat="44.21118" lon="3.25479">
        <ele>888</ele>
        <time>2020-07-19T13:53:27Z</time>
      </trkpt>
      <trkpt lat="44.21117" lon="3.25478">
        <ele>888</ele>
        <time>2020-07-19T13:53:28Z</time>
      </trkpt>
      <trkpt lat="44.21118" lon="3.25475">
        <ele>888.3</ele>
        <time>2020-07-19T13:53:30Z</time>
      </trkpt>
      <trkpt lat="44.21117" lon="3.25474">
        <ele>888.4</ele>
        <time>2020-07-19T13:53:31Z</time>
      </trkpt>
      <trkpt lat="44.21117" lon="3.25472">
        <ele>888.5</ele>
        <time>2020-07-19T13:53:32Z</time>
      </trkpt>
      <trkpt lat="44.21117" lon="3.25468">
        <ele>888.8</ele>
        <time>2020-07-19T13:53:34Z</time>
      </trkpt>
      <trkpt lat="44.21117" lon="3.25465">
        <ele>889</ele>
        <time>2020-07-19T13:53:35Z</time>
      </trkpt>
      <trkpt lat="44.21118" lon="3.25463">
        <ele>889.1</ele>
        <time>2020-07-19T13:53:36Z</time>
      </trkpt>
      <trkpt lat="44.21118" lon="3.25459">
        <ele>889.4</ele>
        <time>2020-07-19T13:53:38Z</time>
      </trkpt>
      <trkpt lat="44.21118" lon="3.25457">
        <ele>889.6</ele>
        <time>2020-07-19T13:53:39Z</time>
      </trkpt>
      <trkpt lat="44.21119" lon="3.25452">
        <ele>889.9</ele>
        <time>2020-07-19T13:53:40Z</time>
      </trkpt>
      <trkpt lat="44.21119" lon="3.2545">
        <ele>890</ele>
        <time>2020-07-19T13:53:41Z</time>
      </trkpt>
      <trkpt lat="44.21118" lon="3.25447">
        <ele>890.1</ele>
        <time>2020-07-19T13:53:42Z</time>
      </trkpt>
      <trkpt lat="44.21118" lon="3.25441">
        <ele>890.5</ele>
        <time>2020-07-19T13:53:44Z</time>
      </trkpt>
      <trkpt lat="44.21118" lon="3.25435">
        <ele>890.8</ele>
        <time>2020-07-19T13:53:45Z</time>
      </trkpt>
      <trkpt lat="44.21118" lon="3.25431">
        <ele>891</ele>
        <time>2020-07-19T13:53:46Z</time>
      </trkpt>
      <trkpt lat="44.21117" lon="3.25424">
        <ele>891.3</ele>
        <time>2020-07-19T13:53:48Z</time>
      </trkpt>
      <trkpt lat="44.21118" lon="3.25421">
        <ele>891.4</ele>
        <time>2020-07-19T13:53:49Z</time>
      </trkpt>
      <trkpt lat="44.21118" lon="3.25418">
        <ele>891.6</ele>
        <time>2020-07-19T13:53:51Z</time>
      </trkpt>
      <trkpt lat="44.21118" lon="3.25413">
        <ele>891.8</ele>
        <time>2020-07-19T13:53:52Z</time>
      </trkpt>
      <trkpt lat="44.21118" lon="3.25411">
        <ele>891.9</ele>
        <time>2020-07-19T13:53:53Z</time>
      </trkpt>
      <trkpt lat="44.21119" lon="3.25408">
        <ele>892.1</ele>
        <time>2020-07-19T13:53:54Z</time>
      </trkpt>
      <trkpt lat="44.21119" lon="3.25406">
        <ele>892.2</ele>
        <time>2020-07-19T13:53:55Z</time>
      </trkpt>
      <trkpt lat="44.2112" lon="3.25404">
        <ele>892.3</ele>
        <time>2020-07-19T13:53:56Z</time>
      </trkpt>
      <trkpt lat="44.2112" lon="3.25402">
        <ele>892.4</ele>
        <time>2020-07-19T13:53:57Z</time>
      </trkpt>
      <trkpt lat="44.21121" lon="3.254">
        <ele>892.6</ele>
        <time>2020-07-19T13:53:59Z</time>
      </trkpt>
      <trkpt lat="44.21121" lon="3.25398">
        <ele>892.7</ele>
        <time>2020-07-19T13:54:00Z</time>
      </trkpt>
      <trkpt lat="44.21122" lon="3.25396">
        <ele>892.9</ele>
        <time>2020-07-19T13:54:01Z</time>
      </trkpt>
      <trkpt lat="44.21123" lon="3.25393">
        <ele>893.1</ele>
        <time>2020-07-19T13:54:03Z</time>
      </trkpt>
      <trkpt lat="44.21124" lon="3.25388">
        <ele>893.5</ele>
        <time>2020-07-19T13:54:04Z</time>
      </trkpt>
      <trkpt lat="44.21124" lon="3.25386">
        <ele>893.6</ele>
        <time>2020-07-19T13:54:05Z</time>
      </trkpt>
      <trkpt lat="44.21124" lon="3.25381">
        <ele>894</ele>
        <time>2020-07-19T13:54:07Z</time>
      </trkpt>
      <trkpt lat="44.21124" lon="3.25378">
        <ele>894.3</ele>
        <time>2020-07-19T13:54:08Z</time>
      </trkpt>
      <trkpt lat="44.21124" lon="3.25374">
        <ele>894.5</ele>
        <time>2020-07-19T13:54:10Z</time>
      </trkpt>
      <trkpt lat="44.21125" lon="3.25371">
        <ele>894.7</ele>
        <time>2020-07-19T13:54:11Z</time>
      </trkpt>
      <trkpt lat="44.21126" lon="3.25365">
        <ele>895.1</ele>
        <time>2020-07-19T13:54:13Z</time>
      </trkpt>
      <trkpt lat="44.21126" lon="3.25362">
        <ele>895.2</ele>
        <time>2020-07-19T13:54:14Z</time>
      </trkpt>
      <trkpt lat="44.21126" lon="3.25356">
        <ele>895.4</ele>
        <time>2020-07-19T13:54:16Z</time>
      </trkpt>
      <trkpt lat="44.21127" lon="3.25353">
        <ele>895.6</ele>
        <time>2020-07-19T13:54:17Z</time>
      </trkpt>
      <trkpt lat="44.21127" lon="3.25351">
        <ele>895.7</ele>
        <time>2020-07-19T13:54:19Z</time>
      </trkpt>
      <trkpt lat="44.21128" lon="3.25345">
        <ele>895.9</ele>
        <time>2020-07-19T13:54:20Z</time>
      </trkpt>
      <trkpt lat="44.21128" lon="3.25343">
        <ele>896</ele>
        <time>2020-07-19T13:54:21Z</time>
      </trkpt>
      <trkpt lat="44.21129" lon="3.25338">
        <ele>896.2</ele>
        <time>2020-07-19T13:54:23Z</time>
      </trkpt>
      <trkpt lat="44.21129" lon="3.25334">
        <ele>896.4</ele>
        <time>2020-07-19T13:54:24Z</time>
      </trkpt>
      <trkpt lat="44.21129" lon="3.25332">
        <ele>896.5</ele>
        <time>2020-07-19T13:54:25Z</time>
      </trkpt>
      <trkpt lat="44.21129" lon="3.25329">
        <ele>896.6</ele>
        <time>2020-07-19T13:54:27Z</time>
      </trkpt>
      <trkpt lat="44.2113" lon="3.25323">
        <ele>896.8</ele>
        <time>2020-07-19T13:54:29Z</time>
      </trkpt>
      <trkpt lat="44.21131" lon="3.2532">
        <ele>896.9</ele>
        <time>2020-07-19T13:54:30Z</time>
      </trkpt>
      <trkpt lat="44.21131" lon="3.25317">
        <ele>897.1</ele>
        <time>2020-07-19T13:54:32Z</time>
      </trkpt>
      <trkpt lat="44.21132" lon="3.25313">
        <ele>897.2</ele>
        <time>2020-07-19T13:54:33Z</time>
      </trkpt>
      <trkpt lat="44.21132" lon="3.25311">
        <ele>897.3</ele>
        <time>2020-07-19T13:54:34Z</time>
      </trkpt>
      <trkpt lat="44.21134" lon="3.25306">
        <ele>897.5</ele>
        <time>2020-07-19T13:54:36Z</time>
      </trkpt>
      <trkpt lat="44.21134" lon="3.25304">
        <ele>897.5</ele>
        <time>2020-07-19T13:54:37Z</time>
      </trkpt>
      <trkpt lat="44.21135" lon="3.25302">
        <ele>897.6</ele>
        <time>2020-07-19T13:54:38Z</time>
      </trkpt>
      <trkpt lat="44.21135" lon="3.25298">
        <ele>897.8</ele>
        <time>2020-07-19T13:54:39Z</time>
      </trkpt>
      <trkpt lat="44.21135" lon="3.25296">
        <ele>897.9</ele>
        <time>2020-07-19T13:54:40Z</time>
      </trkpt>
      <trkpt lat="44.21136" lon="3.25293">
        <ele>898.1</ele>
        <time>2020-07-19T13:54:41Z</time>
      </trkpt>
      <trkpt lat="44.21136" lon="3.25288">
        <ele>898.3</ele>
        <time>2020-07-19T13:54:43Z</time>
      </trkpt>
      <trkpt lat="44.21137" lon="3.25281">
        <ele>898.7</ele>
        <time>2020-07-19T13:54:45Z</time>
      </trkpt>
      <trkpt lat="44.21138" lon="3.25278">
        <ele>898.8</ele>
        <time>2020-07-19T13:54:47Z</time>
      </trkpt>
      <trkpt lat="44.21138" lon="3.25276">
        <ele>898.9</ele>
        <time>2020-07-19T13:54:48Z</time>
      </trkpt>
      <trkpt lat="44.21138" lon="3.25273">
        <ele>899.1</ele>
        <time>2020-07-19T13:54:49Z</time>
      </trkpt>
      <trkpt lat="44.2114" lon="3.25269">
        <ele>899.3</ele>
        <time>2020-07-19T13:54:51Z</time>
      </trkpt>
      <trkpt lat="44.21141" lon="3.25264">
        <ele>899.5</ele>
        <time>2020-07-19T13:54:53Z</time>
      </trkpt>
      <trkpt lat="44.21141" lon="3.25259">
        <ele>899.7</ele>
        <time>2020-07-19T13:54:55Z</time>
      </trkpt>
      <trkpt lat="44.21141" lon="3.25257">
        <ele>899.8</ele>
        <time>2020-07-19T13:54:56Z</time>
      </trkpt>
      <trkpt lat="44.21142" lon="3.25252">
        <ele>900</ele>
        <time>2020-07-19T13:54:58Z</time>
      </trkpt>
      <trkpt lat="44.21143" lon="3.25246">
        <ele>900.3</ele>
        <time>2020-07-19T13:55:00Z</time>
      </trkpt>
      <trkpt lat="44.21143" lon="3.25244">
        <ele>900.4</ele>
        <time>2020-07-19T13:55:01Z</time>
      </trkpt>
      <trkpt lat="44.21144" lon="3.25242">
        <ele>900.5</ele>
        <time>2020-07-19T13:55:02Z</time>
      </trkpt>
      <trkpt lat="44.21145" lon="3.25237">
        <ele>900.8</ele>
        <time>2020-07-19T13:55:03Z</time>
      </trkpt>
      <trkpt lat="44.21145" lon="3.25235">
        <ele>900.9</ele>
        <time>2020-07-19T13:55:04Z</time>
      </trkpt>
      <trkpt lat="44.21145" lon="3.25229">
        <ele>901.3</ele>
        <time>2020-07-19T13:55:06Z</time>
      </trkpt>
      <trkpt lat="44.21146" lon="3.25227">
        <ele>901.4</ele>
        <time>2020-07-19T13:55:07Z</time>
      </trkpt>
      <trkpt lat="44.21146" lon="3.25225">
        <ele>901.5</ele>
        <time>2020-07-19T13:55:08Z</time>
      </trkpt>
      <trkpt lat="44.21147" lon="3.25221">
        <ele>901.7</ele>
        <time>2020-07-19T13:55:10Z</time>
      </trkpt>
      <trkpt lat="44.21147" lon="3.2522">
        <ele>901.8</ele>
        <time>2020-07-19T13:55:11Z</time>
      </trkpt>
      <trkpt lat="44.21147" lon="3.25215">
        <ele>902.1</ele>
        <time>2020-07-19T13:55:13Z</time>
      </trkpt>
      <trkpt lat="44.21147" lon="3.2521">
        <ele>902.4</ele>
        <time>2020-07-19T13:55:15Z</time>
      </trkpt>
      <trkpt lat="44.21147" lon="3.25209">
        <ele>902.4</ele>
        <time>2020-07-19T13:55:16Z</time>
      </trkpt>
      <trkpt lat="44.21147" lon="3.25207">
        <ele>902.6</ele>
        <time>2020-07-19T13:55:17Z</time>
      </trkpt>
      <trkpt lat="44.21147" lon="3.25205">
        <ele>902.7</ele>
        <time>2020-07-19T13:55:18Z</time>
      </trkpt>
      <trkpt lat="44.21147" lon="3.25201">
        <ele>902.9</ele>
        <time>2020-07-19T13:55:20Z</time>
      </trkpt>
      <trkpt lat="44.21147" lon="3.25199">
        <ele>903</ele>
        <time>2020-07-19T13:55:21Z</time>
      </trkpt>
      <trkpt lat="44.21147" lon="3.25196">
        <ele>903.2</ele>
        <time>2020-07-19T13:55:22Z</time>
      </trkpt>
      <trkpt lat="44.21147" lon="3.25192">
        <ele>903.4</ele>
        <time>2020-07-19T13:55:24Z</time>
      </trkpt>
      <trkpt lat="44.21148" lon="3.25188">
        <ele>903.6</ele>
        <time>2020-07-19T13:55:25Z</time>
      </trkpt>
      <trkpt lat="44.21148" lon="3.25186">
        <ele>903.7</ele>
        <time>2020-07-19T13:55:26Z</time>
      </trkpt>
      <trkpt lat="44.21148" lon="3.25182">
        <ele>904</ele>
        <time>2020-07-19T13:55:28Z</time>
      </trkpt>
      <trkpt lat="44.21148" lon="3.25179">
        <ele>904.2</ele>
        <time>2020-07-19T13:55:29Z</time>
      </trkpt>
      <trkpt lat="44.21148" lon="3.25175">
        <ele>904.4</ele>
        <time>2020-07-19T13:55:31Z</time>
      </trkpt>
      <trkpt lat="44.21148" lon="3.25171">
        <ele>904.6</ele>
        <time>2020-07-19T13:55:32Z</time>
      </trkpt>
      <trkpt lat="44.21148" lon="3.25169">
        <ele>904.8</ele>
        <time>2020-07-19T13:55:34Z</time>
      </trkpt>
      <trkpt lat="44.21148" lon="3.25166">
        <ele>905</ele>
        <time>2020-07-19T13:55:35Z</time>
      </trkpt>
      <trkpt lat="44.21148" lon="3.25162">
        <ele>905.2</ele>
        <time>2020-07-19T13:55:37Z</time>
      </trkpt>
      <trkpt lat="44.21147" lon="3.25159">
        <ele>905.4</ele>
        <time>2020-07-19T13:55:38Z</time>
      </trkpt>
      <trkpt lat="44.21147" lon="3.25154">
        <ele>905.6</ele>
        <time>2020-07-19T13:55:40Z</time>
      </trkpt>
      <trkpt lat="44.21147" lon="3.2515">
        <ele>905.7</ele>
        <time>2020-07-19T13:55:42Z</time>
      </trkpt>
      <trkpt lat="44.21146" lon="3.25146">
        <ele>905.9</ele>
        <time>2020-07-19T13:55:43Z</time>
      </trkpt>
      <trkpt lat="44.21145" lon="3.25139">
        <ele>906.1</ele>
        <time>2020-07-19T13:55:45Z</time>
      </trkpt>
      <trkpt lat="44.21145" lon="3.25136">
        <ele>906.1</ele>
        <time>2020-07-19T13:55:47Z</time>
      </trkpt>
      <trkpt lat="44.21145" lon="3.25135">
        <ele>906.1</ele>
        <time>2020-07-19T13:55:48Z</time>
      </trkpt>
      <trkpt lat="44.21144" lon="3.25135">
        <ele>906.2</ele>
        <time>2020-07-19T13:55:50Z</time>
      </trkpt>
      <trkpt lat="44.21144" lon="3.25134">
        <ele>906.2</ele>
        <time>2020-07-19T13:55:52Z</time>
      </trkpt>
      <trkpt lat="44.21143" lon="3.25134">
        <ele>906.2</ele>
        <time>2020-07-19T13:55:53Z</time>
      </trkpt>
      <trkpt lat="44.21143" lon="3.25134">
        <ele>906.2</ele>
        <time>2020-07-19T13:55:54Z</time>
      </trkpt>
      <trkpt lat="44.21143" lon="3.25134">
        <ele>906.2</ele>
        <time>2020-07-19T13:55:56Z</time>
      </trkpt>
      <trkpt lat="44.21143" lon="3.25133">
        <ele>906.2</ele>
        <time>2020-07-19T13:55:58Z</time>
      </trkpt>
      <trkpt lat="44.21143" lon="3.25133">
        <ele>906.2</ele>
        <time>2020-07-19T13:56:00Z</time>
      </trkpt>
      <trkpt lat="44.21143" lon="3.25133">
        <ele>906.2</ele>
        <time>2020-07-19T13:56:01Z</time>
      </trkpt>
      <trkpt lat="44.21143" lon="3.25133">
        <ele>906.2</ele>
        <time>2020-07-19T13:56:02Z</time>
      </trkpt>
      <trkpt lat="44.21144" lon="3.25135">
        <ele>906.2</ele>
        <time>2020-07-19T13:56:04Z</time>
      </trkpt>
      <trkpt lat="44.21145" lon="3.25136">
        <ele>906.3</ele>
        <time>2020-07-19T13:56:05Z</time>
      </trkpt>
      <trkpt lat="44.21145" lon="3.25136">
        <ele>906.3</ele>
        <time>2020-07-19T13:56:06Z</time>
      </trkpt>
      <trkpt lat="44.21145" lon="3.25135">
        <ele>906.3</ele>
        <time>2020-07-19T13:56:07Z</time>
      </trkpt>
      <trkpt lat="44.21145" lon="3.25134">
        <ele>906.3</ele>
        <time>2020-07-19T13:56:09Z</time>
      </trkpt>
      <trkpt lat="44.21145" lon="3.25133">
        <ele>906.3</ele>
        <time>2020-07-19T13:56:11Z</time>
      </trkpt>
      <trkpt lat="44.21145" lon="3.25132">
        <ele>906.3</ele>
        <time>2020-07-19T13:56:12Z</time>
      </trkpt>
      <trkpt lat="44.21145" lon="3.25131">
        <ele>906.3</ele>
        <time>2020-07-19T13:56:14Z</time>
      </trkpt>
      <trkpt lat="44.21145" lon="3.2513">
        <ele>906.4</ele>
        <time>2020-07-19T13:56:16Z</time>
      </trkpt>
      <trkpt lat="44.21145" lon="3.25128">
        <ele>906.4</ele>
        <time>2020-07-19T13:56:17Z</time>
      </trkpt>
      <trkpt lat="44.21145" lon="3.25127">
        <ele>906.4</ele>
        <time>2020-07-19T13:59:36Z</time>
      </trkpt>
      <trkpt lat="44.21146" lon="3.25126">
        <ele>906.5</ele>
        <time>2020-07-19T13:59:38Z</time>
      </trkpt>
      <trkpt lat="44.21146" lon="3.25125">
        <ele>906.6</ele>
        <time>2020-07-19T13:59:39Z</time>
      </trkpt>
      <trkpt lat="44.21146" lon="3.25122">
        <ele>906.9</ele>
        <time>2020-07-19T13:59:40Z</time>
      </trkpt>
      <trkpt lat="44.21145" lon="3.25119">
        <ele>907.2</ele>
        <time>2020-07-19T13:59:42Z</time>
      </trkpt>
      <trkpt lat="44.21145" lon="3.25116">
        <ele>907.4</ele>
        <time>2020-07-19T13:59:43Z</time>
      </trkpt>
      <trkpt lat="44.21144" lon="3.25111">
        <ele>907.9</ele>
        <time>2020-07-19T13:59:45Z</time>
      </trkpt>
      <trkpt lat="44.21144" lon="3.25106">
        <ele>908.3</ele>
        <time>2020-07-19T13:59:46Z</time>
      </trkpt>
      <trkpt lat="44.21144" lon="3.25104">
        <ele>908.5</ele>
        <time>2020-07-19T13:59:47Z</time>
      </trkpt>
      <trkpt lat="44.21143" lon="3.25096">
        <ele>909.3</ele>
        <time>2020-07-19T13:59:49Z</time>
      </trkpt>
      <trkpt lat="44.21143" lon="3.25086">
        <ele>910.2</ele>
        <time>2020-07-19T13:59:50Z</time>
      </trkpt>
      <trkpt lat="44.21143" lon="3.25081">
        <ele>910.8</ele>
        <time>2020-07-19T13:59:51Z</time>
      </trkpt>
      <trkpt lat="44.21143" lon="3.25074">
        <ele>911.6</ele>
        <time>2020-07-19T13:59:52Z</time>
      </trkpt>
      <trkpt lat="44.21142" lon="3.25068">
        <ele>912.4</ele>
        <time>2020-07-19T13:59:54Z</time>
      </trkpt>
      <trkpt lat="44.2114" lon="3.25061">
        <ele>913.3</ele>
        <time>2020-07-19T13:59:56Z</time>
      </trkpt>
      <trkpt lat="44.21139" lon="3.25056">
        <ele>914</ele>
        <time>2020-07-19T13:59:57Z</time>
      </trkpt>
      <trkpt lat="44.21139" lon="3.25055">
        <ele>914.3</ele>
        <time>2020-07-19T13:59:58Z</time>
      </trkpt>
      <trkpt lat="44.21137" lon="3.25049">
        <ele>915.1</ele>
        <time>2020-07-19T14:00:00Z</time>
      </trkpt>
      <trkpt lat="44.21136" lon="3.25047">
        <ele>915.5</ele>
        <time>2020-07-19T14:00:01Z</time>
      </trkpt>
      <trkpt lat="44.21135" lon="3.25045">
        <ele>915.8</ele>
        <time>2020-07-19T14:00:02Z</time>
      </trkpt>
      <trkpt lat="44.21134" lon="3.25039">
        <ele>916.6</ele>
        <time>2020-07-19T14:00:04Z</time>
      </trkpt>
      <trkpt lat="44.21134" lon="3.25035">
        <ele>917.2</ele>
        <time>2020-07-19T14:00:05Z</time>
      </trkpt>
      <trkpt lat="44.21134" lon="3.25031">
        <ele>917.8</ele>
        <time>2020-07-19T14:00:06Z</time>
      </trkpt>
      <trkpt lat="44.21135" lon="3.2503">
        <ele>917.9</ele>
        <time>2020-07-19T14:00:07Z</time>
      </trkpt>
      <trkpt lat="44.21135" lon="3.25025">
        <ele>918.5</ele>
        <time>2020-07-19T14:00:09Z</time>
      </trkpt>
      <trkpt lat="44.21134" lon="3.25022">
        <ele>918.9</ele>
        <time>2020-07-19T14:00:10Z</time>
      </trkpt>
      <trkpt lat="44.21132" lon="3.25018">
        <ele>919.6</ele>
        <time>2020-07-19T14:00:12Z</time>
      </trkpt>
      <trkpt lat="44.2113" lon="3.25015">
        <ele>920.1</ele>
        <time>2020-07-19T14:00:13Z</time>
      </trkpt>
      <trkpt lat="44.2113" lon="3.25014">
        <ele>920.2</ele>
        <time>2020-07-19T14:00:14Z</time>
      </trkpt>
      <trkpt lat="44.21128" lon="3.25009">
        <ele>920.8</ele>
        <time>2020-07-19T14:00:16Z</time>
      </trkpt>
      <trkpt lat="44.21127" lon="3.25006">
        <ele>921.2</ele>
        <time>2020-07-19T14:00:17Z</time>
      </trkpt>
      <trkpt lat="44.21124" lon="3.25002">
        <ele>921.8</ele>
        <time>2020-07-19T14:00:19Z</time>
      </trkpt>
      <trkpt lat="44.21121" lon="3.24999">
        <ele>921.8</ele>
        <time>2020-07-19T14:00:21Z</time>
      </trkpt>
      <trkpt lat="44.2112" lon="3.24998">
        <ele>921.9</ele>
        <time>2020-07-19T14:00:22Z</time>
      </trkpt>
      <trkpt lat="44.21118" lon="3.24994">
        <ele>921.9</ele>
        <time>2020-07-19T14:00:24Z</time>
      </trkpt>
      <trkpt lat="44.21116" lon="3.24992">
        <ele>921.9</ele>
        <time>2020-07-19T14:00:25Z</time>
      </trkpt>
      <trkpt lat="44.21115" lon="3.2499">
        <ele>921.9</ele>
        <time>2020-07-19T14:00:27Z</time>
      </trkpt>
      <trkpt lat="44.21113" lon="3.24988">
        <ele>921.9</ele>
        <time>2020-07-19T14:00:29Z</time>
      </trkpt>
      <trkpt lat="44.21111" lon="3.24986">
        <ele>922</ele>
        <time>2020-07-19T14:00:31Z</time>
      </trkpt>
      <trkpt lat="44.2111" lon="3.24984">
        <ele>922</ele>
        <time>2020-07-19T14:00:32Z</time>
      </trkpt>
      <trkpt lat="44.21107" lon="3.24979">
        <ele>922</ele>
        <time>2020-07-19T14:00:34Z</time>
      </trkpt>
      <trkpt lat="44.21105" lon="3.24976">
        <ele>922</ele>
        <time>2020-07-19T14:00:35Z</time>
      </trkpt>
      <trkpt lat="44.21104" lon="3.24975">
        <ele>922</ele>
        <time>2020-07-19T14:00:36Z</time>
      </trkpt>
      <trkpt lat="44.21101" lon="3.24971">
        <ele>922.1</ele>
        <time>2020-07-19T14:00:38Z</time>
      </trkpt>
      <trkpt lat="44.21098" lon="3.24967">
        <ele>922.1</ele>
        <time>2020-07-19T14:00:39Z</time>
      </trkpt>
      <trkpt lat="44.21096" lon="3.24964">
        <ele>922.2</ele>
        <time>2020-07-19T14:00:40Z</time>
      </trkpt>
      <trkpt lat="44.21093" lon="3.24961">
        <ele>922.3</ele>
        <time>2020-07-19T14:00:41Z</time>
      </trkpt>
      <trkpt lat="44.21088" lon="3.24956">
        <ele>922.6</ele>
        <time>2020-07-19T14:00:43Z</time>
      </trkpt>
      <trkpt lat="44.21083" lon="3.24951">
        <ele>922.9</ele>
        <time>2020-07-19T14:00:44Z</time>
      </trkpt>
      <trkpt lat="44.21074" lon="3.24943">
        <ele>923.3</ele>
        <time>2020-07-19T14:00:46Z</time>
      </trkpt>
      <trkpt lat="44.21063" lon="3.24932">
        <ele>923.5</ele>
        <time>2020-07-19T14:00:48Z</time>
      </trkpt>
      <trkpt lat="44.21057" lon="3.24926">
        <ele>923.4</ele>
        <time>2020-07-19T14:00:49Z</time>
      </trkpt>
      <trkpt lat="44.21049" lon="3.24917">
        <ele>923.1</ele>
        <time>2020-07-19T14:00:51Z</time>
      </trkpt>
      <trkpt lat="44.21043" lon="3.24906">
        <ele>922.5</ele>
        <time>2020-07-19T14:00:52Z</time>
      </trkpt>
      <trkpt lat="44.21038" lon="3.24889">
        <ele>921.6</ele>
        <time>2020-07-19T14:00:54Z</time>
      </trkpt>
      <trkpt lat="44.21036" lon="3.24881">
        <ele>921.2</ele>
        <time>2020-07-19T14:00:55Z</time>
      </trkpt>
      <trkpt lat="44.21035" lon="3.24862">
        <ele>920</ele>
        <time>2020-07-19T14:00:57Z</time>
      </trkpt>
      <trkpt lat="44.21038" lon="3.24852">
        <ele>919.2</ele>
        <time>2020-07-19T14:00:58Z</time>
      </trkpt>
      <trkpt lat="44.21047" lon="3.24835">
        <ele>917.6</ele>
        <time>2020-07-19T14:01:00Z</time>
      </trkpt>
      <trkpt lat="44.21052" lon="3.24825">
        <ele>916.5</ele>
        <time>2020-07-19T14:01:01Z</time>
      </trkpt>
      <trkpt lat="44.21057" lon="3.24815">
        <ele>915.6</ele>
        <time>2020-07-19T14:01:02Z</time>
      </trkpt>
      <trkpt lat="44.21069" lon="3.24795">
        <ele>914.2</ele>
        <time>2020-07-19T14:01:04Z</time>
      </trkpt>
      <trkpt lat="44.2108" lon="3.24777">
        <ele>913.3</ele>
        <time>2020-07-19T14:01:06Z</time>
      </trkpt>
      <trkpt lat="44.21092" lon="3.2476">
        <ele>912.4</ele>
        <time>2020-07-19T14:01:08Z</time>
      </trkpt>
      <trkpt lat="44.21097" lon="3.2474">
        <ele>911.7</ele>
        <time>2020-07-19T14:01:10Z</time>
      </trkpt>
      <trkpt lat="44.21092" lon="3.24725">
        <ele>911.1</ele>
        <time>2020-07-19T14:01:12Z</time>
      </trkpt>
      <trkpt lat="44.21082" lon="3.24711">
        <ele>910.2</ele>
        <time>2020-07-19T14:01:14Z</time>
      </trkpt>
      <trkpt lat="44.2108" lon="3.24702">
        <ele>909.8</ele>
        <time>2020-07-19T14:01:15Z</time>
      </trkpt>
      <trkpt lat="44.2108" lon="3.24692">
        <ele>909.3</ele>
        <time>2020-07-19T14:01:16Z</time>
      </trkpt>
      <trkpt lat="44.21081" lon="3.24674">
        <ele>908.1</ele>
        <time>2020-07-19T14:01:18Z</time>
      </trkpt>
      <trkpt lat="44.21086" lon="3.24654">
        <ele>906.4</ele>
        <time>2020-07-19T14:01:20Z</time>
      </trkpt>
      <trkpt lat="44.2109" lon="3.2463">
        <ele>904.9</ele>
        <time>2020-07-19T14:01:22Z</time>
      </trkpt>
      <trkpt lat="44.21092" lon="3.24616">
        <ele>903.9</ele>
        <time>2020-07-19T14:01:23Z</time>
      </trkpt>
      <trkpt lat="44.21097" lon="3.24604">
        <ele>904.7</ele>
        <time>2020-07-19T14:01:24Z</time>
      </trkpt>
      <trkpt lat="44.21109" lon="3.24592">
        <ele>906.1</ele>
        <time>2020-07-19T14:01:26Z</time>
      </trkpt>
      <trkpt lat="44.21116" lon="3.2459">
        <ele>906.8</ele>
        <time>2020-07-19T14:01:27Z</time>
      </trkpt>
      <trkpt lat="44.21121" lon="3.24586">
        <ele>907.5</ele>
        <time>2020-07-19T14:01:28Z</time>
      </trkpt>
      <trkpt lat="44.21124" lon="3.24583">
        <ele>907.9</ele>
        <time>2020-07-19T14:01:29Z</time>
      </trkpt>
      <trkpt lat="44.21126" lon="3.24582">
        <ele>908.1</ele>
        <time>2020-07-19T14:01:30Z</time>
      </trkpt>
      <trkpt lat="44.21134" lon="3.2458">
        <ele>909.3</ele>
        <time>2020-07-19T14:01:32Z</time>
      </trkpt>
      <trkpt lat="44.21139" lon="3.24577">
        <ele>909.8</ele>
        <time>2020-07-19T14:01:33Z</time>
      </trkpt>
      <trkpt lat="44.21142" lon="3.24572">
        <ele>910.3</ele>
        <time>2020-07-19T14:01:35Z</time>
      </trkpt>
      <trkpt lat="44.21147" lon="3.24569">
        <ele>910.6</ele>
        <time>2020-07-19T14:01:36Z</time>
      </trkpt>
      <trkpt lat="44.21149" lon="3.24568">
        <ele>910.8</ele>
        <time>2020-07-19T14:01:38Z</time>
      </trkpt>
      <trkpt lat="44.21151" lon="3.24566">
        <ele>910.9</ele>
        <time>2020-07-19T14:01:39Z</time>
      </trkpt>
      <trkpt lat="44.21155" lon="3.24562">
        <ele>911.1</ele>
        <time>2020-07-19T14:01:40Z</time>
      </trkpt>
      <trkpt lat="44.21159" lon="3.24559">
        <ele>911.3</ele>
        <time>2020-07-19T14:01:41Z</time>
      </trkpt>
      <trkpt lat="44.21168" lon="3.24555">
        <ele>911.6</ele>
        <time>2020-07-19T14:01:43Z</time>
      </trkpt>
      <trkpt lat="44.2117" lon="3.24554">
        <ele>911.9</ele>
        <time>2020-07-19T14:01:44Z</time>
      </trkpt>
      <trkpt lat="44.21173" lon="3.24552">
        <ele>912.2</ele>
        <time>2020-07-19T14:01:45Z</time>
      </trkpt>
      <trkpt lat="44.2118" lon="3.24549">
        <ele>912.8</ele>
        <time>2020-07-19T14:01:47Z</time>
      </trkpt>
      <trkpt lat="44.21183" lon="3.24548">
        <ele>913</ele>
        <time>2020-07-19T14:01:48Z</time>
      </trkpt>
      <trkpt lat="44.21187" lon="3.24547">
        <ele>913.2</ele>
        <time>2020-07-19T14:01:50Z</time>
      </trkpt>
      <trkpt lat="44.21193" lon="3.24547">
        <ele>913.3</ele>
        <time>2020-07-19T14:01:51Z</time>
      </trkpt>
      <trkpt lat="44.21196" lon="3.24547">
        <ele>913.3</ele>
        <time>2020-07-19T14:01:52Z</time>
      </trkpt>
      <trkpt lat="44.212" lon="3.24546">
        <ele>913.3</ele>
        <time>2020-07-19T14:01:53Z</time>
      </trkpt>
      <trkpt lat="44.21204" lon="3.24545">
        <ele>913.3</ele>
        <time>2020-07-19T14:01:55Z</time>
      </trkpt>
      <trkpt lat="44.21209" lon="3.24545">
        <ele>913.1</ele>
        <time>2020-07-19T14:01:56Z</time>
      </trkpt>
      <trkpt lat="44.21211" lon="3.24545">
        <ele>913</ele>
        <time>2020-07-19T14:01:57Z</time>
      </trkpt>
      <trkpt lat="44.21217" lon="3.24545">
        <ele>912.7</ele>
        <time>2020-07-19T14:01:59Z</time>
      </trkpt>
      <trkpt lat="44.21221" lon="3.24545">
        <ele>912.5</ele>
        <time>2020-07-19T14:02:00Z</time>
      </trkpt>
      <trkpt lat="44.21235" lon="3.2455">
        <ele>911.3</ele>
        <time>2020-07-19T14:02:02Z</time>
      </trkpt>
      <trkpt lat="44.21249" lon="3.24557">
        <ele>910.1</ele>
        <time>2020-07-19T14:02:04Z</time>
      </trkpt>
      <trkpt lat="44.21263" lon="3.2456">
        <ele>909</ele>
        <time>2020-07-19T14:02:06Z</time>
      </trkpt>
      <trkpt lat="44.2128" lon="3.24558">
        <ele>906.9</ele>
        <time>2020-07-19T14:02:08Z</time>
      </trkpt>
      <trkpt lat="44.21295" lon="3.24554">
        <ele>904.8</ele>
        <time>2020-07-19T14:02:10Z</time>
      </trkpt>
      <trkpt lat="44.21313" lon="3.24546">
        <ele>902.5</ele>
        <time>2020-07-19T14:02:12Z</time>
      </trkpt>
      <trkpt lat="44.21321" lon="3.24539">
        <ele>901.2</ele>
        <time>2020-07-19T14:02:13Z</time>
      </trkpt>
      <trkpt lat="44.21338" lon="3.24526">
        <ele>898.9</ele>
        <time>2020-07-19T14:02:15Z</time>
      </trkpt>
      <trkpt lat="44.21345" lon="3.24518">
        <ele>897.9</ele>
        <time>2020-07-19T14:02:16Z</time>
      </trkpt>
      <trkpt lat="44.21352" lon="3.24509">
        <ele>897.1</ele>
        <time>2020-07-19T14:02:17Z</time>
      </trkpt>
      <trkpt lat="44.21359" lon="3.24499">
        <ele>896.3</ele>
        <time>2020-07-19T14:02:18Z</time>
      </trkpt>
      <trkpt lat="44.21366" lon="3.24489">
        <ele>894.8</ele>
        <time>2020-07-19T14:02:19Z</time>
      </trkpt>
      <trkpt lat="44.21381" lon="3.24471">
        <ele>892.2</ele>
        <time>2020-07-19T14:02:21Z</time>
      </trkpt>
      <trkpt lat="44.21391" lon="3.24465">
        <ele>891.7</ele>
        <time>2020-07-19T14:02:22Z</time>
      </trkpt>
      <trkpt lat="44.2141" lon="3.24451">
        <ele>891</ele>
        <time>2020-07-19T14:02:24Z</time>
      </trkpt>
      <trkpt lat="44.21425" lon="3.24435">
        <ele>890.3</ele>
        <time>2020-07-19T14:02:26Z</time>
      </trkpt>
      <trkpt lat="44.21438" lon="3.24419">
        <ele>889.5</ele>
        <time>2020-07-19T14:02:28Z</time>
      </trkpt>
      <trkpt lat="44.21451" lon="3.24403">
        <ele>888</ele>
        <time>2020-07-19T14:02:30Z</time>
      </trkpt>
      <trkpt lat="44.21463" lon="3.24387">
        <ele>887.1</ele>
        <time>2020-07-19T14:02:32Z</time>
      </trkpt>
      <trkpt lat="44.21468" lon="3.24379">
        <ele>886.1</ele>
        <time>2020-07-19T14:02:33Z</time>
      </trkpt>
      <trkpt lat="44.21473" lon="3.2437">
        <ele>885.1</ele>
        <time>2020-07-19T14:02:34Z</time>
      </trkpt>
      <trkpt lat="44.2148" lon="3.24349">
        <ele>882.5</ele>
        <time>2020-07-19T14:02:36Z</time>
      </trkpt>
      <trkpt lat="44.21484" lon="3.24339">
        <ele>881.8</ele>
        <time>2020-07-19T14:02:37Z</time>
      </trkpt>
      <trkpt lat="44.2149" lon="3.24327">
        <ele>881.2</ele>
        <time>2020-07-19T14:02:38Z</time>
      </trkpt>
      <trkpt lat="44.21497" lon="3.24315">
        <ele>880.2</ele>
        <time>2020-07-19T14:02:39Z</time>
      </trkpt>
      <trkpt lat="44.21503" lon="3.24302">
        <ele>879.3</ele>
        <time>2020-07-19T14:02:40Z</time>
      </trkpt>
      <trkpt lat="44.21509" lon="3.24291">
        <ele>878.7</ele>
        <time>2020-07-19T14:02:41Z</time>
      </trkpt>
      <trkpt lat="44.21522" lon="3.24269">
        <ele>878.2</ele>
        <time>2020-07-19T14:02:43Z</time>
      </trkpt>
      <trkpt lat="44.21536" lon="3.2425">
        <ele>877.6</ele>
        <time>2020-07-19T14:02:45Z</time>
      </trkpt>
      <trkpt lat="44.21551" lon="3.24235">
        <ele>877.2</ele>
        <time>2020-07-19T14:02:47Z</time>
      </trkpt>
      <trkpt lat="44.21561" lon="3.24219">
        <ele>877.4</ele>
        <time>2020-07-19T14:02:49Z</time>
      </trkpt>
      <trkpt lat="44.21567" lon="3.24203">
        <ele>877.6</ele>
        <time>2020-07-19T14:02:51Z</time>
      </trkpt>
      <trkpt lat="44.21569" lon="3.24195">
        <ele>877.8</ele>
        <time>2020-07-19T14:02:52Z</time>
      </trkpt>
      <trkpt lat="44.21572" lon="3.24182">
        <ele>878.3</ele>
        <time>2020-07-19T14:02:54Z</time>
      </trkpt>
      <trkpt lat="44.21572" lon="3.24181">
        <ele>878.4</ele>
        <time>2020-07-19T14:02:55Z</time>
      </trkpt>
      <trkpt lat="44.21573" lon="3.24168">
        <ele>879</ele>
        <time>2020-07-19T14:02:57Z</time>
      </trkpt>
      <trkpt lat="44.21573" lon="3.24157">
        <ele>879.3</ele>
        <time>2020-07-19T14:02:59Z</time>
      </trkpt>
      <trkpt lat="44.21574" lon="3.24152">
        <ele>879.6</ele>
        <time>2020-07-19T14:03:00Z</time>
      </trkpt>
      <trkpt lat="44.21574" lon="3.24149">
        <ele>879.7</ele>
        <time>2020-07-19T14:03:01Z</time>
      </trkpt>
      <trkpt lat="44.21576" lon="3.2415">
        <ele>879.8</ele>
        <time>2020-07-19T14:03:03Z</time>
      </trkpt>
      <trkpt lat="44.21578" lon="3.24141">
        <ele>880.2</ele>
        <time>2020-07-19T14:03:05Z</time>
      </trkpt>
      <trkpt lat="44.2158" lon="3.24136">
        <ele>880.3</ele>
        <time>2020-07-19T14:03:06Z</time>
      </trkpt>
      <trkpt lat="44.2158" lon="3.24131">
        <ele>880.3</ele>
        <time>2020-07-19T14:03:07Z</time>
      </trkpt>
      <trkpt lat="44.2158" lon="3.24124">
        <ele>880.2</ele>
        <time>2020-07-19T14:03:09Z</time>
      </trkpt>
      <trkpt lat="44.21581" lon="3.24119">
        <ele>880.2</ele>
        <time>2020-07-19T14:03:10Z</time>
      </trkpt>
      <trkpt lat="44.21582" lon="3.24113">
        <ele>880.1</ele>
        <time>2020-07-19T14:03:11Z</time>
      </trkpt>
      <trkpt lat="44.21582" lon="3.24111">
        <ele>880.1</ele>
        <time>2020-07-19T14:03:12Z</time>
      </trkpt>
      <trkpt lat="44.21583" lon="3.24106">
        <ele>880.1</ele>
        <time>2020-07-19T14:03:13Z</time>
      </trkpt>
      <trkpt lat="44.21582" lon="3.241">
        <ele>880.4</ele>
        <time>2020-07-19T14:03:15Z</time>
      </trkpt>
      <trkpt lat="44.21583" lon="3.24094">
        <ele>880.7</ele>
        <time>2020-07-19T14:03:17Z</time>
      </trkpt>
      <trkpt lat="44.21584" lon="3.2409">
        <ele>881</ele>
        <time>2020-07-19T14:03:18Z</time>
      </trkpt>
      <trkpt lat="44.21589" lon="3.24083">
        <ele>881.6</ele>
        <time>2020-07-19T14:03:20Z</time>
      </trkpt>
      <trkpt lat="44.21593" lon="3.2408">
        <ele>881.9</ele>
        <time>2020-07-19T14:03:21Z</time>
      </trkpt>
      <trkpt lat="44.21597" lon="3.24078">
        <ele>881.8</ele>
        <time>2020-07-19T14:03:23Z</time>
      </trkpt>
      <trkpt lat="44.216" lon="3.24078">
        <ele>881.6</ele>
        <time>2020-07-19T14:03:24Z</time>
      </trkpt>
      <trkpt lat="44.21607" lon="3.24079">
        <ele>881.1</ele>
        <time>2020-07-19T14:03:26Z</time>
      </trkpt>
      <trkpt lat="44.21609" lon="3.24079">
        <ele>881</ele>
        <time>2020-07-19T14:03:27Z</time>
      </trkpt>
      <trkpt lat="44.2161" lon="3.24082">
        <ele>880.9</ele>
        <time>2020-07-19T14:03:29Z</time>
      </trkpt>
      <trkpt lat="44.2161" lon="3.24086">
        <ele>880.8</ele>
        <time>2020-07-19T14:03:30Z</time>
      </trkpt>
      <trkpt lat="44.21611" lon="3.24087">
        <ele>880.8</ele>
        <time>2020-07-19T14:03:31Z</time>
      </trkpt>
      <trkpt lat="44.21617" lon="3.24086">
        <ele>880.6</ele>
        <time>2020-07-19T14:03:33Z</time>
      </trkpt>
      <trkpt lat="44.2162" lon="3.24086">
        <ele>880.6</ele>
        <time>2020-07-19T14:03:34Z</time>
      </trkpt>
      <trkpt lat="44.21621" lon="3.24086">
        <ele>880.6</ele>
        <time>2020-07-19T14:03:35Z</time>
      </trkpt>
      <trkpt lat="44.21626" lon="3.24086">
        <ele>880.5</ele>
        <time>2020-07-19T14:03:37Z</time>
      </trkpt>
      <trkpt lat="44.21634" lon="3.24089">
        <ele>880.2</ele>
        <time>2020-07-19T14:03:38Z</time>
      </trkpt>
      <trkpt lat="44.21648" lon="3.24092">
        <ele>879.5</ele>
        <time>2020-07-19T14:03:39Z</time>
      </trkpt>
      <trkpt lat="44.21658" lon="3.24095">
        <ele>878.9</ele>
        <time>2020-07-19T14:03:40Z</time>
      </trkpt>
      <trkpt lat="44.21663" lon="3.241">
        <ele>878.5</ele>
        <time>2020-07-19T14:03:41Z</time>
      </trkpt>
      <trkpt lat="44.21673" lon="3.24106">
        <ele>877.8</ele>
        <time>2020-07-19T14:03:43Z</time>
      </trkpt>
      <trkpt lat="44.21679" lon="3.24108">
        <ele>877.5</ele>
        <time>2020-07-19T14:03:45Z</time>
      </trkpt>
      <trkpt lat="44.21681" lon="3.24106">
        <ele>877.3</ele>
        <time>2020-07-19T14:03:46Z</time>
      </trkpt>
      <trkpt lat="44.21686" lon="3.24106">
        <ele>877</ele>
        <time>2020-07-19T14:03:47Z</time>
      </trkpt>
      <trkpt lat="44.21706" lon="3.24115">
        <ele>875.5</ele>
        <time>2020-07-19T14:03:49Z</time>
      </trkpt>
      <trkpt lat="44.21714" lon="3.24118">
        <ele>874.9</ele>
        <time>2020-07-19T14:03:50Z</time>
      </trkpt>
      <trkpt lat="44.21722" lon="3.2412">
        <ele>874.3</ele>
        <time>2020-07-19T14:03:51Z</time>
      </trkpt>
      <trkpt lat="44.21736" lon="3.24122">
        <ele>873.2</ele>
        <time>2020-07-19T14:03:53Z</time>
      </trkpt>
      <trkpt lat="44.21749" lon="3.24123">
        <ele>872.6</ele>
        <time>2020-07-19T14:03:55Z</time>
      </trkpt>
      <trkpt lat="44.21756" lon="3.24124">
        <ele>872.4</ele>
        <time>2020-07-19T14:03:56Z</time>
      </trkpt>
      <trkpt lat="44.21761" lon="3.24124">
        <ele>872.3</ele>
        <time>2020-07-19T14:03:57Z</time>
      </trkpt>
      <trkpt lat="44.21773" lon="3.24124">
        <ele>871.7</ele>
        <time>2020-07-19T14:03:59Z</time>
      </trkpt>
      <trkpt lat="44.21784" lon="3.24124">
        <ele>870.7</ele>
        <time>2020-07-19T14:04:01Z</time>
      </trkpt>
      <trkpt lat="44.21789" lon="3.24126">
        <ele>870.3</ele>
        <time>2020-07-19T14:04:02Z</time>
      </trkpt>
      <trkpt lat="44.21794" lon="3.24127">
        <ele>869.8</ele>
        <time>2020-07-19T14:04:03Z</time>
      </trkpt>
      <trkpt lat="44.21807" lon="3.24134">
        <ele>869</ele>
        <time>2020-07-19T14:04:05Z</time>
      </trkpt>
      <trkpt lat="44.21819" lon="3.24139">
        <ele>868.9</ele>
        <time>2020-07-19T14:04:07Z</time>
      </trkpt>
      <trkpt lat="44.21825" lon="3.2414">
        <ele>868.9</ele>
        <time>2020-07-19T14:04:08Z</time>
      </trkpt>
      <trkpt lat="44.2183" lon="3.2414">
        <ele>868.8</ele>
        <time>2020-07-19T14:04:09Z</time>
      </trkpt>
      <trkpt lat="44.21837" lon="3.24139">
        <ele>868.4</ele>
        <time>2020-07-19T14:04:11Z</time>
      </trkpt>
      <trkpt lat="44.21842" lon="3.24138">
        <ele>868</ele>
        <time>2020-07-19T14:04:12Z</time>
      </trkpt>
      <trkpt lat="44.21852" lon="3.24138">
        <ele>867.2</ele>
        <time>2020-07-19T14:04:14Z</time>
      </trkpt>
      <trkpt lat="44.21858" lon="3.24138">
        <ele>866.6</ele>
        <time>2020-07-19T14:04:15Z</time>
      </trkpt>
      <trkpt lat="44.21871" lon="3.2414">
        <ele>865.2</ele>
        <time>2020-07-19T14:04:17Z</time>
      </trkpt>
      <trkpt lat="44.21877" lon="3.24141">
        <ele>864.4</ele>
        <time>2020-07-19T14:04:18Z</time>
      </trkpt>
      <trkpt lat="44.21891" lon="3.24145">
        <ele>863.1</ele>
        <time>2020-07-19T14:04:20Z</time>
      </trkpt>
      <trkpt lat="44.21899" lon="3.24145">
        <ele>862.4</ele>
        <time>2020-07-19T14:04:21Z</time>
      </trkpt>
      <trkpt lat="44.21913" lon="3.24142">
        <ele>860.3</ele>
        <time>2020-07-19T14:04:23Z</time>
      </trkpt>
      <trkpt lat="44.21921" lon="3.24141">
        <ele>859.3</ele>
        <time>2020-07-19T14:04:24Z</time>
      </trkpt>
      <trkpt lat="44.21928" lon="3.24142">
        <ele>858.6</ele>
        <time>2020-07-19T14:04:25Z</time>
      </trkpt>
      <trkpt lat="44.21943" lon="3.2415">
        <ele>857.5</ele>
        <time>2020-07-19T14:04:27Z</time>
      </trkpt>
      <trkpt lat="44.2195" lon="3.24155">
        <ele>857</ele>
        <time>2020-07-19T14:04:28Z</time>
      </trkpt>
      <trkpt lat="44.21965" lon="3.24164">
        <ele>855.6</ele>
        <time>2020-07-19T14:04:30Z</time>
      </trkpt>
      <trkpt lat="44.21971" lon="3.24172">
        <ele>854.9</ele>
        <time>2020-07-19T14:04:31Z</time>
      </trkpt>
      <trkpt lat="44.21976" lon="3.2418">
        <ele>854.5</ele>
        <time>2020-07-19T14:04:32Z</time>
      </trkpt>
      <trkpt lat="44.21987" lon="3.24196">
        <ele>853.8</ele>
        <time>2020-07-19T14:04:34Z</time>
      </trkpt>
      <trkpt lat="44.21992" lon="3.24204">
        <ele>853.7</ele>
        <time>2020-07-19T14:04:35Z</time>
      </trkpt>
      <trkpt lat="44.21996" lon="3.24213">
        <ele>853.6</ele>
        <time>2020-07-19T14:04:36Z</time>
      </trkpt>
      <trkpt lat="44.22004" lon="3.24229">
        <ele>853.2</ele>
        <time>2020-07-19T14:04:38Z</time>
      </trkpt>
      <trkpt lat="44.22013" lon="3.24238">
        <ele>852.4</ele>
        <time>2020-07-19T14:04:40Z</time>
      </trkpt>
      <trkpt lat="44.22027" lon="3.24241">
        <ele>851.1</ele>
        <time>2020-07-19T14:04:42Z</time>
      </trkpt>
      <trkpt lat="44.22034" lon="3.24243">
        <ele>850.6</ele>
        <time>2020-07-19T14:04:43Z</time>
      </trkpt>
      <trkpt lat="44.22049" lon="3.24243">
        <ele>850</ele>
        <time>2020-07-19T14:04:45Z</time>
      </trkpt>
      <trkpt lat="44.22063" lon="3.24247">
        <ele>849</ele>
        <time>2020-07-19T14:04:47Z</time>
      </trkpt>
      <trkpt lat="44.22071" lon="3.24248">
        <ele>848.6</ele>
        <time>2020-07-19T14:04:48Z</time>
      </trkpt>
      <trkpt lat="44.22079" lon="3.24248">
        <ele>848.4</ele>
        <time>2020-07-19T14:04:49Z</time>
      </trkpt>
      <trkpt lat="44.22094" lon="3.2425">
        <ele>847.9</ele>
        <time>2020-07-19T14:04:51Z</time>
      </trkpt>
      <trkpt lat="44.22108" lon="3.24245">
        <ele>847.4</ele>
        <time>2020-07-19T14:04:53Z</time>
      </trkpt>
      <trkpt lat="44.22116" lon="3.24245">
        <ele>847.1</ele>
        <time>2020-07-19T14:04:54Z</time>
      </trkpt>
      <trkpt lat="44.2213" lon="3.24249">
        <ele>846.4</ele>
        <time>2020-07-19T14:04:56Z</time>
      </trkpt>
      <trkpt lat="44.22142" lon="3.24258">
        <ele>845.8</ele>
        <time>2020-07-19T14:04:58Z</time>
      </trkpt>
      <trkpt lat="44.22148" lon="3.24263">
        <ele>845.2</ele>
        <time>2020-07-19T14:04:59Z</time>
      </trkpt>
      <trkpt lat="44.22154" lon="3.24267">
        <ele>844.7</ele>
        <time>2020-07-19T14:05:00Z</time>
      </trkpt>
      <trkpt lat="44.22168" lon="3.24266">
        <ele>844.3</ele>
        <time>2020-07-19T14:05:02Z</time>
      </trkpt>
      <trkpt lat="44.22182" lon="3.24264">
        <ele>843.4</ele>
        <time>2020-07-19T14:05:04Z</time>
      </trkpt>
      <trkpt lat="44.22187" lon="3.24264">
        <ele>843.1</ele>
        <time>2020-07-19T14:05:05Z</time>
      </trkpt>
      <trkpt lat="44.22193" lon="3.24264">
        <ele>842.7</ele>
        <time>2020-07-19T14:05:07Z</time>
      </trkpt>
      <trkpt lat="44.22197" lon="3.24263">
        <ele>842.5</ele>
        <time>2020-07-19T14:05:08Z</time>
      </trkpt>
      <trkpt lat="44.22202" lon="3.2426">
        <ele>842.3</ele>
        <time>2020-07-19T14:05:10Z</time>
      </trkpt>
      <trkpt lat="44.22204" lon="3.24258">
        <ele>842.2</ele>
        <time>2020-07-19T14:05:11Z</time>
      </trkpt>
      <trkpt lat="44.22208" lon="3.24257">
        <ele>842.1</ele>
        <time>2020-07-19T14:05:13Z</time>
      </trkpt>
      <trkpt lat="44.22209" lon="3.24257">
        <ele>842.1</ele>
        <time>2020-07-19T14:05:14Z</time>
      </trkpt>
      <trkpt lat="44.22215" lon="3.24256">
        <ele>842</ele>
        <time>2020-07-19T14:05:16Z</time>
      </trkpt>
      <trkpt lat="44.22219" lon="3.24255">
        <ele>842</ele>
        <time>2020-07-19T14:05:18Z</time>
      </trkpt>
      <trkpt lat="44.22223" lon="3.24253">
        <ele>842</ele>
        <time>2020-07-19T14:05:20Z</time>
      </trkpt>
      <trkpt lat="44.22226" lon="3.24252">
        <ele>842.1</ele>
        <time>2020-07-19T14:05:22Z</time>
      </trkpt>
      <trkpt lat="44.22229" lon="3.24249">
        <ele>842.2</ele>
        <time>2020-07-19T14:05:24Z</time>
      </trkpt>
      <trkpt lat="44.22232" lon="3.24248">
        <ele>842.3</ele>
        <time>2020-07-19T14:05:26Z</time>
      </trkpt>
      <trkpt lat="44.22235" lon="3.24248">
        <ele>842.3</ele>
        <time>2020-07-19T14:05:27Z</time>
      </trkpt>
      <trkpt lat="44.22237" lon="3.24247">
        <ele>842.4</ele>
        <time>2020-07-19T14:05:28Z</time>
      </trkpt>
      <trkpt lat="44.22241" lon="3.24245">
        <ele>842.5</ele>
        <time>2020-07-19T14:05:30Z</time>
      </trkpt>
      <trkpt lat="44.22243" lon="3.24245">
        <ele>842.5</ele>
        <time>2020-07-19T14:05:31Z</time>
      </trkpt>
      <trkpt lat="44.22247" lon="3.24242">
        <ele>842.6</ele>
        <time>2020-07-19T14:05:33Z</time>
      </trkpt>
      <trkpt lat="44.22251" lon="3.24241">
        <ele>842.6</ele>
        <time>2020-07-19T14:05:34Z</time>
      </trkpt>
      <trkpt lat="44.22252" lon="3.24241">
        <ele>842.6</ele>
        <time>2020-07-19T14:05:35Z</time>
      </trkpt>
      <trkpt lat="44.22257" lon="3.24238">
        <ele>842.6</ele>
        <time>2020-07-19T14:05:37Z</time>
      </trkpt>
      <trkpt lat="44.2226" lon="3.24236">
        <ele>842.6</ele>
        <time>2020-07-19T14:05:38Z</time>
      </trkpt>
      <trkpt lat="44.22266" lon="3.24233">
        <ele>842.3</ele>
        <time>2020-07-19T14:05:40Z</time>
      </trkpt>
      <trkpt lat="44.22269" lon="3.24232">
        <ele>842.1</ele>
        <time>2020-07-19T14:05:41Z</time>
      </trkpt>
      <trkpt lat="44.2227" lon="3.24232">
        <ele>842</ele>
        <time>2020-07-19T14:05:43Z</time>
      </trkpt>
      <trkpt lat="44.22271" lon="3.24232">
        <ele>841.9</ele>
        <time>2020-07-19T14:05:44Z</time>
      </trkpt>
      <trkpt lat="44.22273" lon="3.24231">
        <ele>841.8</ele>
        <time>2020-07-19T14:05:45Z</time>
      </trkpt>
      <trkpt lat="44.2228" lon="3.24229">
        <ele>840.9</ele>
        <time>2020-07-19T14:05:47Z</time>
      </trkpt>
      <trkpt lat="44.22284" lon="3.2423">
        <ele>840.4</ele>
        <time>2020-07-19T14:05:48Z</time>
      </trkpt>
      <trkpt lat="44.2229" lon="3.24238">
        <ele>839.7</ele>
        <time>2020-07-19T14:05:49Z</time>
      </trkpt>
      <trkpt lat="44.22296" lon="3.24251">
        <ele>838.6</ele>
        <time>2020-07-19T14:05:51Z</time>
      </trkpt>
      <trkpt lat="44.223" lon="3.24258">
        <ele>837.9</ele>
        <time>2020-07-19T14:05:52Z</time>
      </trkpt>
      <trkpt lat="44.22305" lon="3.24263">
        <ele>837.2</ele>
        <time>2020-07-19T14:05:53Z</time>
      </trkpt>
      <trkpt lat="44.22314" lon="3.24267">
        <ele>836.5</ele>
        <time>2020-07-19T14:05:55Z</time>
      </trkpt>
      <trkpt lat="44.22317" lon="3.24262">
        <ele>836.4</ele>
        <time>2020-07-19T14:05:56Z</time>
      </trkpt>
      <trkpt lat="44.22317" lon="3.24258">
        <ele>836.5</ele>
        <time>2020-07-19T14:05:57Z</time>
      </trkpt>
      <trkpt lat="44.22317" lon="3.24254">
        <ele>836.7</ele>
        <time>2020-07-19T14:05:58Z</time>
      </trkpt>
      <trkpt lat="44.22317" lon="3.2425">
        <ele>836.9</ele>
        <time>2020-07-19T14:06:00Z</time>
      </trkpt>
      <trkpt lat="44.22319" lon="3.24245">
        <ele>837.3</ele>
        <time>2020-07-19T14:06:01Z</time>
      </trkpt>
      <trkpt lat="44.22321" lon="3.2424">
        <ele>837.7</ele>
        <time>2020-07-19T14:06:03Z</time>
      </trkpt>
      <trkpt lat="44.22324" lon="3.24235">
        <ele>837.9</ele>
        <time>2020-07-19T14:06:04Z</time>
      </trkpt>
      <trkpt lat="44.22327" lon="3.2423">
        <ele>838.2</ele>
        <time>2020-07-19T14:06:06Z</time>
      </trkpt>
      <trkpt lat="44.22329" lon="3.24227">
        <ele>838.3</ele>
        <time>2020-07-19T14:06:07Z</time>
      </trkpt>
      <trkpt lat="44.22332" lon="3.24224">
        <ele>838.5</ele>
        <time>2020-07-19T14:06:08Z</time>
      </trkpt>
      <trkpt lat="44.22335" lon="3.24221">
        <ele>838.6</ele>
        <time>2020-07-19T14:06:09Z</time>
      </trkpt>
      <trkpt lat="44.22343" lon="3.24217">
        <ele>838.9</ele>
        <time>2020-07-19T14:06:11Z</time>
      </trkpt>
      <trkpt lat="44.22348" lon="3.24216">
        <ele>838.9</ele>
        <time>2020-07-19T14:06:13Z</time>
      </trkpt>
      <trkpt lat="44.22352" lon="3.24217">
        <ele>838.8</ele>
        <time>2020-07-19T14:06:14Z</time>
      </trkpt>
      <trkpt lat="44.22355" lon="3.24219">
        <ele>838.8</ele>
        <time>2020-07-19T14:06:15Z</time>
      </trkpt>
      <trkpt lat="44.22357" lon="3.2422">
        <ele>838.8</ele>
        <time>2020-07-19T14:06:16Z</time>
      </trkpt>
      <trkpt lat="44.22363" lon="3.24223">
        <ele>838.8</ele>
        <time>2020-07-19T14:06:18Z</time>
      </trkpt>
      <trkpt lat="44.22367" lon="3.24225">
        <ele>838.9</ele>
        <time>2020-07-19T14:06:19Z</time>
      </trkpt>
      <trkpt lat="44.22369" lon="3.24226">
        <ele>839</ele>
        <time>2020-07-19T14:06:20Z</time>
      </trkpt>
      <trkpt lat="44.22374" lon="3.24226">
        <ele>839.2</ele>
        <time>2020-07-19T14:06:22Z</time>
      </trkpt>
      <trkpt lat="44.22378" lon="3.24226">
        <ele>839.4</ele>
        <time>2020-07-19T14:06:23Z</time>
      </trkpt>
      <trkpt lat="44.22381" lon="3.24226">
        <ele>839.6</ele>
        <time>2020-07-19T14:06:24Z</time>
      </trkpt>
      <trkpt lat="44.22384" lon="3.24225">
        <ele>839.8</ele>
        <time>2020-07-19T14:06:25Z</time>
      </trkpt>
      <trkpt lat="44.22386" lon="3.24224">
        <ele>839.9</ele>
        <time>2020-07-19T14:06:26Z</time>
      </trkpt>
      <trkpt lat="44.22389" lon="3.24224">
        <ele>840.1</ele>
        <time>2020-07-19T14:06:28Z</time>
      </trkpt>
      <trkpt lat="44.22393" lon="3.24224">
        <ele>840.4</ele>
        <time>2020-07-19T14:06:30Z</time>
      </trkpt>
      <trkpt lat="44.22396" lon="3.24227">
        <ele>840.7</ele>
        <time>2020-07-19T14:06:31Z</time>
      </trkpt>
      <trkpt lat="44.22397" lon="3.24227">
        <ele>840.8</ele>
        <time>2020-07-19T14:06:32Z</time>
      </trkpt>
      <trkpt lat="44.224" lon="3.24229">
        <ele>841</ele>
        <time>2020-07-19T14:06:33Z</time>
      </trkpt>
      <trkpt lat="44.22402" lon="3.2423">
        <ele>841.1</ele>
        <time>2020-07-19T14:06:34Z</time>
      </trkpt>
      <trkpt lat="44.22403" lon="3.24231">
        <ele>841.2</ele>
        <time>2020-07-19T14:06:35Z</time>
      </trkpt>
      <trkpt lat="44.22407" lon="3.24232">
        <ele>841.6</ele>
        <time>2020-07-19T14:06:37Z</time>
      </trkpt>
      <trkpt lat="44.22409" lon="3.24233">
        <ele>841.7</ele>
        <time>2020-07-19T14:06:38Z</time>
      </trkpt>
      <trkpt lat="44.2241" lon="3.24234">
        <ele>841.8</ele>
        <time>2020-07-19T14:06:39Z</time>
      </trkpt>
      <trkpt lat="44.22412" lon="3.24236">
        <ele>842.1</ele>
        <time>2020-07-19T14:06:40Z</time>
      </trkpt>
      <trkpt lat="44.22413" lon="3.24237">
        <ele>842.1</ele>
        <time>2020-07-19T14:06:41Z</time>
      </trkpt>
      <trkpt lat="44.22416" lon="3.24239">
        <ele>842.4</ele>
        <time>2020-07-19T14:06:43Z</time>
      </trkpt>
      <trkpt lat="44.22419" lon="3.24241">
        <ele>842.7</ele>
        <time>2020-07-19T14:06:44Z</time>
      </trkpt>
      <trkpt lat="44.22421" lon="3.24243">
        <ele>842.8</ele>
        <time>2020-07-19T14:06:45Z</time>
      </trkpt>
      <trkpt lat="44.22425" lon="3.24246">
        <ele>843</ele>
        <time>2020-07-19T14:06:47Z</time>
      </trkpt>
      <trkpt lat="44.22426" lon="3.24247">
        <ele>843.1</ele>
        <time>2020-07-19T14:06:48Z</time>
      </trkpt>
      <trkpt lat="44.22429" lon="3.24251">
        <ele>843.3</ele>
        <time>2020-07-19T14:06:50Z</time>
      </trkpt>
      <trkpt lat="44.22431" lon="3.24253">
        <ele>843.5</ele>
        <time>2020-07-19T14:06:51Z</time>
      </trkpt>
      <trkpt lat="44.22433" lon="3.24258">
        <ele>843.6</ele>
        <time>2020-07-19T14:06:52Z</time>
      </trkpt>
      <trkpt lat="44.22434" lon="3.24259">
        <ele>843.7</ele>
        <time>2020-07-19T14:06:53Z</time>
      </trkpt>
      <trkpt lat="44.22436" lon="3.24263">
        <ele>843.9</ele>
        <time>2020-07-19T14:06:55Z</time>
      </trkpt>
      <trkpt lat="44.22438" lon="3.24266">
        <ele>844.1</ele>
        <time>2020-07-19T14:06:56Z</time>
      </trkpt>
      <trkpt lat="44.2244" lon="3.2427">
        <ele>844.3</ele>
        <time>2020-07-19T14:06:58Z</time>
      </trkpt>
      <trkpt lat="44.22442" lon="3.24272">
        <ele>844.5</ele>
        <time>2020-07-19T14:06:59Z</time>
      </trkpt>
      <trkpt lat="44.22445" lon="3.24275">
        <ele>844.7</ele>
        <time>2020-07-19T14:07:00Z</time>
      </trkpt>
      <trkpt lat="44.22447" lon="3.24276">
        <ele>845</ele>
        <time>2020-07-19T14:07:01Z</time>
      </trkpt>
      <trkpt lat="44.22448" lon="3.24277">
        <ele>845</ele>
        <time>2020-07-19T14:07:02Z</time>
      </trkpt>
      <trkpt lat="44.22451" lon="3.24279">
        <ele>845.3</ele>
        <time>2020-07-19T14:07:04Z</time>
      </trkpt>
      <trkpt lat="44.22451" lon="3.24279">
        <ele>845.4</ele>
        <time>2020-07-19T14:07:05Z</time>
      </trkpt>
      <trkpt lat="44.22453" lon="3.2428">
        <ele>845.5</ele>
        <time>2020-07-19T14:07:06Z</time>
      </trkpt>
      <trkpt lat="44.22454" lon="3.24281">
        <ele>845.7</ele>
        <time>2020-07-19T14:07:07Z</time>
      </trkpt>
      <trkpt lat="44.22456" lon="3.24283">
        <ele>845.9</ele>
        <time>2020-07-19T14:07:09Z</time>
      </trkpt>
      <trkpt lat="44.22457" lon="3.24283">
        <ele>846</ele>
        <time>2020-07-19T14:07:10Z</time>
      </trkpt>
      <trkpt lat="44.22459" lon="3.24285">
        <ele>846.1</ele>
        <time>2020-07-19T14:07:11Z</time>
      </trkpt>
      <trkpt lat="44.22461" lon="3.24286">
        <ele>846.4</ele>
        <time>2020-07-19T14:07:13Z</time>
      </trkpt>
      <trkpt lat="44.22463" lon="3.24287">
        <ele>846.5</ele>
        <time>2020-07-19T14:07:14Z</time>
      </trkpt>
      <trkpt lat="44.22464" lon="3.24287">
        <ele>846.7</ele>
        <time>2020-07-19T14:07:15Z</time>
      </trkpt>
      <trkpt lat="44.22468" lon="3.24289">
        <ele>847</ele>
        <time>2020-07-19T14:07:17Z</time>
      </trkpt>
      <trkpt lat="44.22469" lon="3.24289">
        <ele>847.1</ele>
        <time>2020-07-19T14:07:18Z</time>
      </trkpt>
      <trkpt lat="44.2247" lon="3.2429">
        <ele>847.2</ele>
        <time>2020-07-19T14:07:19Z</time>
      </trkpt>
      <trkpt lat="44.22472" lon="3.2429">
        <ele>847.4</ele>
        <time>2020-07-19T14:07:20Z</time>
      </trkpt>
      <trkpt lat="44.22473" lon="3.24291">
        <ele>847.5</ele>
        <time>2020-07-19T14:07:21Z</time>
      </trkpt>
      <trkpt lat="44.22475" lon="3.24291">
        <ele>847.7</ele>
        <time>2020-07-19T14:07:23Z</time>
      </trkpt>
      <trkpt lat="44.22477" lon="3.24292">
        <ele>847.9</ele>
        <time>2020-07-19T14:07:24Z</time>
      </trkpt>
      <trkpt lat="44.2248" lon="3.24294">
        <ele>848.2</ele>
        <time>2020-07-19T14:07:26Z</time>
      </trkpt>
      <trkpt lat="44.22484" lon="3.24296">
        <ele>848.5</ele>
        <time>2020-07-19T14:07:28Z</time>
      </trkpt>
      <trkpt lat="44.22487" lon="3.24298">
        <ele>848.9</ele>
        <time>2020-07-19T14:07:29Z</time>
      </trkpt>
      <trkpt lat="44.22487" lon="3.24298">
        <ele>848.9</ele>
        <time>2020-07-19T14:07:30Z</time>
      </trkpt>
      <trkpt lat="44.22489" lon="3.243">
        <ele>849.1</ele>
        <time>2020-07-19T14:07:31Z</time>
      </trkpt>
      <trkpt lat="44.22491" lon="3.24301">
        <ele>849.3</ele>
        <time>2020-07-19T14:07:33Z</time>
      </trkpt>
      <trkpt lat="44.22493" lon="3.24303">
        <ele>849.4</ele>
        <time>2020-07-19T14:07:34Z</time>
      </trkpt>
      <trkpt lat="44.22494" lon="3.24303">
        <ele>849.5</ele>
        <time>2020-07-19T14:07:35Z</time>
      </trkpt>
      <trkpt lat="44.22497" lon="3.24304">
        <ele>849.6</ele>
        <time>2020-07-19T14:07:37Z</time>
      </trkpt>
      <trkpt lat="44.22499" lon="3.24305">
        <ele>849.7</ele>
        <time>2020-07-19T14:07:38Z</time>
      </trkpt>
      <trkpt lat="44.225" lon="3.24305">
        <ele>849.7</ele>
        <time>2020-07-19T14:07:39Z</time>
      </trkpt>
      <trkpt lat="44.22504" lon="3.24306">
        <ele>849.8</ele>
        <time>2020-07-19T14:07:41Z</time>
      </trkpt>
      <trkpt lat="44.22507" lon="3.24307">
        <ele>849.9</ele>
        <time>2020-07-19T14:07:43Z</time>
      </trkpt>
      <trkpt lat="44.22511" lon="3.24308">
        <ele>850.1</ele>
        <time>2020-07-19T14:07:44Z</time>
      </trkpt>
      <trkpt lat="44.22514" lon="3.24309">
        <ele>850.2</ele>
        <time>2020-07-19T14:07:45Z</time>
      </trkpt>
      <trkpt lat="44.22517" lon="3.24311">
        <ele>850.4</ele>
        <time>2020-07-19T14:07:47Z</time>
      </trkpt>
      <trkpt lat="44.22519" lon="3.24311">
        <ele>850.4</ele>
        <time>2020-07-19T14:07:48Z</time>
      </trkpt>
      <trkpt lat="44.22523" lon="3.24313">
        <ele>850.5</ele>
        <time>2020-07-19T14:07:50Z</time>
      </trkpt>
      <trkpt lat="44.22534" lon="3.24317">
        <ele>850.4</ele>
        <time>2020-07-19T14:07:52Z</time>
      </trkpt>
      <trkpt lat="44.22544" lon="3.2432">
        <ele>850.8</ele>
        <time>2020-07-19T14:07:54Z</time>
      </trkpt>
      <trkpt lat="44.22551" lon="3.24322">
        <ele>851.3</ele>
        <time>2020-07-19T14:07:55Z</time>
      </trkpt>
      <trkpt lat="44.22558" lon="3.24326">
        <ele>851.7</ele>
        <time>2020-07-19T14:07:56Z</time>
      </trkpt>
      <trkpt lat="44.22565" lon="3.24329">
        <ele>852.1</ele>
        <time>2020-07-19T14:07:58Z</time>
      </trkpt>
      <trkpt lat="44.22569" lon="3.24331">
        <ele>852.4</ele>
        <time>2020-07-19T14:07:59Z</time>
      </trkpt>
      <trkpt lat="44.22575" lon="3.24335">
        <ele>852.8</ele>
        <time>2020-07-19T14:08:01Z</time>
      </trkpt>
      <trkpt lat="44.22578" lon="3.24337">
        <ele>852.9</ele>
        <time>2020-07-19T14:08:02Z</time>
      </trkpt>
      <trkpt lat="44.22584" lon="3.2434">
        <ele>853.4</ele>
        <time>2020-07-19T14:08:03Z</time>
      </trkpt>
      <trkpt lat="44.22588" lon="3.24341">
        <ele>853.6</ele>
        <time>2020-07-19T14:08:04Z</time>
      </trkpt>
      <trkpt lat="44.22591" lon="3.24342">
        <ele>853.8</ele>
        <time>2020-07-19T14:08:06Z</time>
      </trkpt>
      <trkpt lat="44.22595" lon="3.24344">
        <ele>854.1</ele>
        <time>2020-07-19T14:08:07Z</time>
      </trkpt>
      <trkpt lat="44.22601" lon="3.24346">
        <ele>854.5</ele>
        <time>2020-07-19T14:08:09Z</time>
      </trkpt>
      <trkpt lat="44.22606" lon="3.24347">
        <ele>854.8</ele>
        <time>2020-07-19T14:08:10Z</time>
      </trkpt>
      <trkpt lat="44.2261" lon="3.24349">
        <ele>855.2</ele>
        <time>2020-07-19T14:08:11Z</time>
      </trkpt>
      <trkpt lat="44.22615" lon="3.2435">
        <ele>855.7</ele>
        <time>2020-07-19T14:08:13Z</time>
      </trkpt>
      <trkpt lat="44.22619" lon="3.24352">
        <ele>856.1</ele>
        <time>2020-07-19T14:08:14Z</time>
      </trkpt>
      <trkpt lat="44.22623" lon="3.24354">
        <ele>856.4</ele>
        <time>2020-07-19T14:08:15Z</time>
      </trkpt>
      <trkpt lat="44.22629" lon="3.24358">
        <ele>857</ele>
        <time>2020-07-19T14:08:17Z</time>
      </trkpt>
      <trkpt lat="44.22631" lon="3.24359">
        <ele>857.3</ele>
        <time>2020-07-19T14:08:18Z</time>
      </trkpt>
      <trkpt lat="44.22634" lon="3.24361">
        <ele>857.6</ele>
        <time>2020-07-19T14:08:19Z</time>
      </trkpt>
      <trkpt lat="44.22637" lon="3.24362">
        <ele>858</ele>
        <time>2020-07-19T14:08:21Z</time>
      </trkpt>
      <trkpt lat="44.2264" lon="3.24362">
        <ele>858.3</ele>
        <time>2020-07-19T14:08:23Z</time>
      </trkpt>
      <trkpt lat="44.22643" lon="3.24362">
        <ele>858.6</ele>
        <time>2020-07-19T14:08:24Z</time>
      </trkpt>
      <trkpt lat="44.22645" lon="3.24363">
        <ele>858.9</ele>
        <time>2020-07-19T14:08:25Z</time>
      </trkpt>
      <trkpt lat="44.22648" lon="3.24367">
        <ele>859.2</ele>
        <time>2020-07-19T14:08:27Z</time>
      </trkpt>
      <trkpt lat="44.22651" lon="3.24368">
        <ele>859.5</ele>
        <time>2020-07-19T14:08:28Z</time>
      </trkpt>
      <trkpt lat="44.22652" lon="3.24369">
        <ele>859.6</ele>
        <time>2020-07-19T14:08:29Z</time>
      </trkpt>
      <trkpt lat="44.22654" lon="3.24371">
        <ele>860</ele>
        <time>2020-07-19T14:08:30Z</time>
      </trkpt>
      <trkpt lat="44.22658" lon="3.24372">
        <ele>860.3</ele>
        <time>2020-07-19T14:08:32Z</time>
      </trkpt>
      <trkpt lat="44.22659" lon="3.24373">
        <ele>860.5</ele>
        <time>2020-07-19T14:08:33Z</time>
      </trkpt>
      <trkpt lat="44.22662" lon="3.24374">
        <ele>860.8</ele>
        <time>2020-07-19T14:08:34Z</time>
      </trkpt>
      <trkpt lat="44.22663" lon="3.24375">
        <ele>860.9</ele>
        <time>2020-07-19T14:08:35Z</time>
      </trkpt>
      <trkpt lat="44.22664" lon="3.24375">
        <ele>861.1</ele>
        <time>2020-07-19T14:08:36Z</time>
      </trkpt>
      <trkpt lat="44.22668" lon="3.24375">
        <ele>861.5</ele>
        <time>2020-07-19T14:08:38Z</time>
      </trkpt>
      <trkpt lat="44.22673" lon="3.24376">
        <ele>861.8</ele>
        <time>2020-07-19T14:08:40Z</time>
      </trkpt>
      <trkpt lat="44.22676" lon="3.24378">
        <ele>862.1</ele>
        <time>2020-07-19T14:08:42Z</time>
      </trkpt>
      <trkpt lat="44.22679" lon="3.24379">
        <ele>862.3</ele>
        <time>2020-07-19T14:08:43Z</time>
      </trkpt>
      <trkpt lat="44.22682" lon="3.24381">
        <ele>862.6</ele>
        <time>2020-07-19T14:08:45Z</time>
      </trkpt>
      <trkpt lat="44.22685" lon="3.24382">
        <ele>862.9</ele>
        <time>2020-07-19T14:08:46Z</time>
      </trkpt>
      <trkpt lat="44.22686" lon="3.24382">
        <ele>863</ele>
        <time>2020-07-19T14:08:47Z</time>
      </trkpt>
      <trkpt lat="44.22688" lon="3.24383">
        <ele>863.2</ele>
        <time>2020-07-19T14:08:48Z</time>
      </trkpt>
      <trkpt lat="44.22691" lon="3.24384">
        <ele>863.5</ele>
        <time>2020-07-19T14:08:50Z</time>
      </trkpt>
      <trkpt lat="44.22693" lon="3.24384">
        <ele>863.6</ele>
        <time>2020-07-19T14:08:51Z</time>
      </trkpt>
      <trkpt lat="44.22694" lon="3.24384">
        <ele>863.8</ele>
        <time>2020-07-19T14:08:52Z</time>
      </trkpt>
      <trkpt lat="44.22697" lon="3.24385">
        <ele>864</ele>
        <time>2020-07-19T14:08:53Z</time>
      </trkpt>
      <trkpt lat="44.22699" lon="3.24385">
        <ele>864.2</ele>
        <time>2020-07-19T14:08:55Z</time>
      </trkpt>
      <trkpt lat="44.22701" lon="3.24385">
        <ele>864.3</ele>
        <time>2020-07-19T14:08:56Z</time>
      </trkpt>
      <trkpt lat="44.22702" lon="3.24385">
        <ele>864.4</ele>
        <time>2020-07-19T14:08:57Z</time>
      </trkpt>
      <trkpt lat="44.22702" lon="3.24385">
        <ele>864.4</ele>
        <time>2020-07-19T14:08:58Z</time>
      </trkpt>
      <trkpt lat="44.22703" lon="3.24385">
        <ele>864.4</ele>
        <time>2020-07-19T14:09:00Z</time>
      </trkpt>
      <trkpt lat="44.22703" lon="3.24386">
        <ele>864.4</ele>
        <time>2020-07-19T14:09:01Z</time>
      </trkpt>
      <trkpt lat="44.22703" lon="3.24386">
        <ele>864.5</ele>
        <time>2020-07-19T14:09:02Z</time>
      </trkpt>
      <trkpt lat="44.22703" lon="3.24386">
        <ele>864.5</ele>
        <time>2020-07-19T14:09:03Z</time>
      </trkpt>
      <trkpt lat="44.22703" lon="3.24387">
        <ele>864.5</ele>
        <time>2020-07-19T14:09:05Z</time>
      </trkpt>
      <trkpt lat="44.22703" lon="3.24387">
        <ele>864.5</ele>
        <time>2020-07-19T14:09:07Z</time>
      </trkpt>
      <trkpt lat="44.22703" lon="3.24388">
        <ele>864.5</ele>
        <time>2020-07-19T14:09:09Z</time>
      </trkpt>
      <trkpt lat="44.22703" lon="3.24388">
        <ele>864.6</ele>
        <time>2020-07-19T14:09:20Z</time>
      </trkpt>
      <trkpt lat="44.22704" lon="3.24388">
        <ele>864.6</ele>
        <time>2020-07-19T14:09:21Z</time>
      </trkpt>
      <trkpt lat="44.22704" lon="3.24389">
        <ele>864.6</ele>
        <time>2020-07-19T14:09:23Z</time>
      </trkpt>
      <trkpt lat="44.22704" lon="3.24389">
        <ele>864.6</ele>
        <time>2020-07-19T14:09:25Z</time>
      </trkpt>
      <trkpt lat="44.22704" lon="3.24389">
        <ele>864.6</ele>
        <time>2020-07-19T14:09:27Z</time>
      </trkpt>
      <trkpt lat="44.22704" lon="3.2439">
        <ele>864.6</ele>
        <time>2020-07-19T14:09:28Z</time>
      </trkpt>
      <trkpt lat="44.22704" lon="3.2439">
        <ele>864.6</ele>
        <time>2020-07-19T14:09:30Z</time>
      </trkpt>
      <trkpt lat="44.22704" lon="3.2439">
        <ele>864.7</ele>
        <time>2020-07-19T14:09:31Z</time>
      </trkpt>
      <trkpt lat="44.22704" lon="3.24391">
        <ele>864.7</ele>
        <time>2020-07-19T14:09:32Z</time>
      </trkpt>
      <trkpt lat="44.22705" lon="3.24391">
        <ele>864.7</ele>
        <time>2020-07-19T14:09:34Z</time>
      </trkpt>
      <trkpt lat="44.22705" lon="3.24391">
        <ele>864.7</ele>
        <time>2020-07-19T14:09:35Z</time>
      </trkpt>
      <trkpt lat="44.22705" lon="3.24392">
        <ele>864.7</ele>
        <time>2020-07-19T14:09:36Z</time>
      </trkpt>
      <trkpt lat="44.22705" lon="3.24392">
        <ele>864.7</ele>
        <time>2020-07-19T14:09:37Z</time>
      </trkpt>
      <trkpt lat="44.22705" lon="3.24393">
        <ele>864.8</ele>
        <time>2020-07-19T14:09:38Z</time>
      </trkpt>
      <trkpt lat="44.22705" lon="3.24393">
        <ele>864.8</ele>
        <time>2020-07-19T14:09:40Z</time>
      </trkpt>
      <trkpt lat="44.22705" lon="3.24393">
        <ele>864.8</ele>
        <time>2020-07-19T14:09:42Z</time>
      </trkpt>
      <trkpt lat="44.22705" lon="3.24394">
        <ele>864.8</ele>
        <time>2020-07-19T14:09:44Z</time>
      </trkpt>
      <trkpt lat="44.22706" lon="3.24394">
        <ele>864.8</ele>
        <time>2020-07-19T14:09:45Z</time>
      </trkpt>
      <trkpt lat="44.22706" lon="3.24394">
        <ele>864.8</ele>
        <time>2020-07-19T14:09:46Z</time>
      </trkpt>
      <trkpt lat="44.22706" lon="3.24395">
        <ele>864.8</ele>
        <time>2020-07-19T14:09:47Z</time>
      </trkpt>
      <trkpt lat="44.22708" lon="3.24395">
        <ele>864.9</ele>
        <time>2020-07-19T14:09:48Z</time>
      </trkpt>
      <trkpt lat="44.2271" lon="3.24395">
        <ele>865.1</ele>
        <time>2020-07-19T14:09:50Z</time>
      </trkpt>
      <trkpt lat="44.22712" lon="3.24396">
        <ele>865.2</ele>
        <time>2020-07-19T14:09:51Z</time>
      </trkpt>
      <trkpt lat="44.22716" lon="3.24397">
        <ele>865.5</ele>
        <time>2020-07-19T14:09:53Z</time>
      </trkpt>
      <trkpt lat="44.22719" lon="3.24397">
        <ele>865.8</ele>
        <time>2020-07-19T14:09:54Z</time>
      </trkpt>
      <trkpt lat="44.22724" lon="3.24398">
        <ele>866.3</ele>
        <time>2020-07-19T14:09:55Z</time>
      </trkpt>
      <trkpt lat="44.22731" lon="3.24399">
        <ele>866.9</ele>
        <time>2020-07-19T14:09:57Z</time>
      </trkpt>
      <trkpt lat="44.22735" lon="3.24399">
        <ele>867.2</ele>
        <time>2020-07-19T14:09:58Z</time>
      </trkpt>
      <trkpt lat="44.22738" lon="3.24398">
        <ele>867.5</ele>
        <time>2020-07-19T14:10:00Z</time>
      </trkpt>
      <trkpt lat="44.22742" lon="3.24396">
        <ele>867.8</ele>
        <time>2020-07-19T14:10:01Z</time>
      </trkpt>
      <trkpt lat="44.22744" lon="3.24394">
        <ele>868</ele>
        <time>2020-07-19T14:10:02Z</time>
      </trkpt>
      <trkpt lat="44.22746" lon="3.24393">
        <ele>868.2</ele>
        <time>2020-07-19T14:10:04Z</time>
      </trkpt>
      <trkpt lat="44.22749" lon="3.24391">
        <ele>868.4</ele>
        <time>2020-07-19T14:10:05Z</time>
      </trkpt>
      <trkpt lat="44.22752" lon="3.2439">
        <ele>868.6</ele>
        <time>2020-07-19T14:10:06Z</time>
      </trkpt>
      <trkpt lat="44.22756" lon="3.24388">
        <ele>869</ele>
        <time>2020-07-19T14:10:08Z</time>
      </trkpt>
      <trkpt lat="44.22759" lon="3.24386">
        <ele>869.2</ele>
        <time>2020-07-19T14:10:09Z</time>
      </trkpt>
      <trkpt lat="44.22763" lon="3.24385">
        <ele>869.6</ele>
        <time>2020-07-19T14:10:10Z</time>
      </trkpt>
      <trkpt lat="44.22765" lon="3.24385">
        <ele>869.7</ele>
        <time>2020-07-19T14:10:11Z</time>
      </trkpt>
      <trkpt lat="44.22767" lon="3.24385">
        <ele>869.9</ele>
        <time>2020-07-19T14:10:12Z</time>
      </trkpt>
      <trkpt lat="44.22771" lon="3.24384">
        <ele>870.3</ele>
        <time>2020-07-19T14:10:14Z</time>
      </trkpt>
      <trkpt lat="44.22773" lon="3.24383">
        <ele>870.5</ele>
        <time>2020-07-19T14:10:15Z</time>
      </trkpt>
      <trkpt lat="44.22776" lon="3.24383">
        <ele>870.7</ele>
        <time>2020-07-19T14:10:17Z</time>
      </trkpt>
      <trkpt lat="44.22779" lon="3.24383">
        <ele>871</ele>
        <time>2020-07-19T14:10:18Z</time>
      </trkpt>
      <trkpt lat="44.22781" lon="3.24383">
        <ele>871.1</ele>
        <time>2020-07-19T14:10:19Z</time>
      </trkpt>
      <trkpt lat="44.22783" lon="3.24384">
        <ele>871.4</ele>
        <time>2020-07-19T14:10:21Z</time>
      </trkpt>
      <trkpt lat="44.22785" lon="3.24384">
        <ele>871.5</ele>
        <time>2020-07-19T14:10:22Z</time>
      </trkpt>
      <trkpt lat="44.22787" lon="3.24384">
        <ele>871.6</ele>
        <time>2020-07-19T14:10:23Z</time>
      </trkpt>
      <trkpt lat="44.22789" lon="3.24384">
        <ele>871.9</ele>
        <time>2020-07-19T14:10:25Z</time>
      </trkpt>
      <trkpt lat="44.22791" lon="3.24384">
        <ele>872.1</ele>
        <time>2020-07-19T14:10:26Z</time>
      </trkpt>
      <trkpt lat="44.22793" lon="3.24385">
        <ele>872.3</ele>
        <time>2020-07-19T14:10:27Z</time>
      </trkpt>
      <trkpt lat="44.22795" lon="3.24385">
        <ele>872.5</ele>
        <time>2020-07-19T14:10:28Z</time>
      </trkpt>
      <trkpt lat="44.22796" lon="3.24386">
        <ele>872.7</ele>
        <time>2020-07-19T14:10:29Z</time>
      </trkpt>
      <trkpt lat="44.22799" lon="3.24387">
        <ele>873.1</ele>
        <time>2020-07-19T14:10:30Z</time>
      </trkpt>
      <trkpt lat="44.22802" lon="3.24387">
        <ele>873.3</ele>
        <time>2020-07-19T14:10:31Z</time>
      </trkpt>
      <trkpt lat="44.22804" lon="3.24386">
        <ele>873.6</ele>
        <time>2020-07-19T14:10:33Z</time>
      </trkpt>
      <trkpt lat="44.22808" lon="3.24386">
        <ele>874</ele>
        <time>2020-07-19T14:10:34Z</time>
      </trkpt>
      <trkpt lat="44.22811" lon="3.24385">
        <ele>874.3</ele>
        <time>2020-07-19T14:10:35Z</time>
      </trkpt>
      <trkpt lat="44.22812" lon="3.24385">
        <ele>874.3</ele>
        <time>2020-07-19T14:10:36Z</time>
      </trkpt>
      <trkpt lat="44.22815" lon="3.24384">
        <ele>874.5</ele>
        <time>2020-07-19T14:10:38Z</time>
      </trkpt>
      <trkpt lat="44.22818" lon="3.24383">
        <ele>874.7</ele>
        <time>2020-07-19T14:10:39Z</time>
      </trkpt>
      <trkpt lat="44.22821" lon="3.24382">
        <ele>874.8</ele>
        <time>2020-07-19T14:10:40Z</time>
      </trkpt>
      <trkpt lat="44.22823" lon="3.24382">
        <ele>875</ele>
        <time>2020-07-19T14:10:41Z</time>
      </trkpt>
      <trkpt lat="44.22827" lon="3.24381">
        <ele>875.2</ele>
        <time>2020-07-19T14:10:43Z</time>
      </trkpt>
      <trkpt lat="44.22828" lon="3.2438">
        <ele>875.3</ele>
        <time>2020-07-19T14:10:44Z</time>
      </trkpt>
      <trkpt lat="44.22831" lon="3.2438">
        <ele>875.6</ele>
        <time>2020-07-19T14:10:46Z</time>
      </trkpt>
      <trkpt lat="44.22834" lon="3.24379">
        <ele>875.9</ele>
        <time>2020-07-19T14:10:47Z</time>
      </trkpt>
      <trkpt lat="44.22836" lon="3.24378">
        <ele>876.1</ele>
        <time>2020-07-19T14:10:48Z</time>
      </trkpt>
      <trkpt lat="44.22838" lon="3.24378">
        <ele>876.3</ele>
        <time>2020-07-19T14:10:49Z</time>
      </trkpt>
      <trkpt lat="44.22842" lon="3.24378">
        <ele>876.7</ele>
        <time>2020-07-19T14:10:51Z</time>
      </trkpt>
      <trkpt lat="44.22843" lon="3.24378">
        <ele>876.8</ele>
        <time>2020-07-19T14:10:52Z</time>
      </trkpt>
      <trkpt lat="44.22844" lon="3.24378">
        <ele>877</ele>
        <time>2020-07-19T14:10:53Z</time>
      </trkpt>
      <trkpt lat="44.22846" lon="3.24378">
        <ele>877.2</ele>
        <time>2020-07-19T14:10:54Z</time>
      </trkpt>
      <trkpt lat="44.22851" lon="3.24379">
        <ele>877.8</ele>
        <time>2020-07-19T14:10:56Z</time>
      </trkpt>
      <trkpt lat="44.22852" lon="3.24379">
        <ele>877.9</ele>
        <time>2020-07-19T14:10:57Z</time>
      </trkpt>
      <trkpt lat="44.22853" lon="3.24379">
        <ele>878</ele>
        <time>2020-07-19T14:10:58Z</time>
      </trkpt>
      <trkpt lat="44.22857" lon="3.24379">
        <ele>878.5</ele>
        <time>2020-07-19T14:11:00Z</time>
      </trkpt>
      <trkpt lat="44.22858" lon="3.24379">
        <ele>878.6</ele>
        <time>2020-07-19T14:11:01Z</time>
      </trkpt>
      <trkpt lat="44.2286" lon="3.24378">
        <ele>878.8</ele>
        <time>2020-07-19T14:11:02Z</time>
      </trkpt>
      <trkpt lat="44.22863" lon="3.24378">
        <ele>879.1</ele>
        <time>2020-07-19T14:11:04Z</time>
      </trkpt>
      <trkpt lat="44.22865" lon="3.24377">
        <ele>879.3</ele>
        <time>2020-07-19T14:11:05Z</time>
      </trkpt>
      <trkpt lat="44.22868" lon="3.24376">
        <ele>879.5</ele>
        <time>2020-07-19T14:11:07Z</time>
      </trkpt>
      <trkpt lat="44.22872" lon="3.24376">
        <ele>879.7</ele>
        <time>2020-07-19T14:11:08Z</time>
      </trkpt>
      <trkpt lat="44.22875" lon="3.24374">
        <ele>879.8</ele>
        <time>2020-07-19T14:11:10Z</time>
      </trkpt>
      <trkpt lat="44.22877" lon="3.24372">
        <ele>879.9</ele>
        <time>2020-07-19T14:11:11Z</time>
      </trkpt>
      <trkpt lat="44.22879" lon="3.2437">
        <ele>879.9</ele>
        <time>2020-07-19T14:11:12Z</time>
      </trkpt>
      <trkpt lat="44.22883" lon="3.24366">
        <ele>879.9</ele>
        <time>2020-07-19T14:11:14Z</time>
      </trkpt>
      <trkpt lat="44.22886" lon="3.24362">
        <ele>879.9</ele>
        <time>2020-07-19T14:11:15Z</time>
      </trkpt>
      <trkpt lat="44.22886" lon="3.2436">
        <ele>879.9</ele>
        <time>2020-07-19T14:11:16Z</time>
      </trkpt>
      <trkpt lat="44.22888" lon="3.24356">
        <ele>879.8</ele>
        <time>2020-07-19T14:11:17Z</time>
      </trkpt>
      <trkpt lat="44.2289" lon="3.24351">
        <ele>879.8</ele>
        <time>2020-07-19T14:11:19Z</time>
      </trkpt>
      <trkpt lat="44.22892" lon="3.24345">
        <ele>879.8</ele>
        <time>2020-07-19T14:11:20Z</time>
      </trkpt>
      <trkpt lat="44.22894" lon="3.24339">
        <ele>879.7</ele>
        <time>2020-07-19T14:11:21Z</time>
      </trkpt>
      <trkpt lat="44.22896" lon="3.24334">
        <ele>879.7</ele>
        <time>2020-07-19T14:11:23Z</time>
      </trkpt>
      <trkpt lat="44.22898" lon="3.24328">
        <ele>879.7</ele>
        <time>2020-07-19T14:11:24Z</time>
      </trkpt>
      <trkpt lat="44.22902" lon="3.24321">
        <ele>879.7</ele>
        <time>2020-07-19T14:11:26Z</time>
      </trkpt>
      <trkpt lat="44.22904" lon="3.24316">
        <ele>879.8</ele>
        <time>2020-07-19T14:11:27Z</time>
      </trkpt>
      <trkpt lat="44.22905" lon="3.24312">
        <ele>879.8</ele>
        <time>2020-07-19T14:11:28Z</time>
      </trkpt>
      <trkpt lat="44.22908" lon="3.24306">
        <ele>880</ele>
        <time>2020-07-19T14:11:30Z</time>
      </trkpt>
      <trkpt lat="44.2291" lon="3.24302">
        <ele>880</ele>
        <time>2020-07-19T14:11:32Z</time>
      </trkpt>
      <trkpt lat="44.22912" lon="3.24298">
        <ele>880</ele>
        <time>2020-07-19T14:11:33Z</time>
      </trkpt>
      <trkpt lat="44.22913" lon="3.24297">
        <ele>880</ele>
        <time>2020-07-19T14:11:34Z</time>
      </trkpt>
      <trkpt lat="44.22917" lon="3.24295">
        <ele>879.9</ele>
        <time>2020-07-19T14:11:36Z</time>
      </trkpt>
      <trkpt lat="44.2292" lon="3.24295">
        <ele>879.9</ele>
        <time>2020-07-19T14:11:38Z</time>
      </trkpt>
      <trkpt lat="44.22921" lon="3.24294">
        <ele>879.9</ele>
        <time>2020-07-19T14:11:39Z</time>
      </trkpt>
      <trkpt lat="44.22921" lon="3.24295">
        <ele>879.8</ele>
        <time>2020-07-19T14:11:40Z</time>
      </trkpt>
      <trkpt lat="44.22921" lon="3.24296">
        <ele>879.8</ele>
        <time>2020-07-19T14:11:42Z</time>
      </trkpt>
      <trkpt lat="44.2292" lon="3.24297">
        <ele>879.7</ele>
        <time>2020-07-19T14:11:43Z</time>
      </trkpt>
      <trkpt lat="44.2292" lon="3.24297">
        <ele>879.7</ele>
        <time>2020-07-19T14:11:45Z</time>
      </trkpt>
      <trkpt lat="44.22919" lon="3.24298">
        <ele>879.7</ele>
        <time>2020-07-19T14:11:47Z</time>
      </trkpt>
      <trkpt lat="44.22919" lon="3.24298">
        <ele>879.7</ele>
        <time>2020-07-19T14:11:48Z</time>
      </trkpt>
      <trkpt lat="44.22919" lon="3.24298">
        <ele>879.6</ele>
        <time>2020-07-19T14:11:49Z</time>
      </trkpt>
      <trkpt lat="44.22919" lon="3.24298">
        <ele>879.6</ele>
        <time>2020-07-19T14:11:50Z</time>
      </trkpt>
      <trkpt lat="44.2292" lon="3.24296">
        <ele>879.5</ele>
        <time>2020-07-19T14:14:12Z</time>
      </trkpt>
      <trkpt lat="44.22921" lon="3.24295">
        <ele>879.3</ele>
        <time>2020-07-19T14:14:13Z</time>
      </trkpt>
      <trkpt lat="44.22922" lon="3.24294">
        <ele>879.2</ele>
        <time>2020-07-19T14:14:14Z</time>
      </trkpt>
      <trkpt lat="44.22922" lon="3.24292">
        <ele>879</ele>
        <time>2020-07-19T14:14:16Z</time>
      </trkpt>
      <trkpt lat="44.22931" lon="3.24274">
        <ele>876.7</ele>
        <time>2020-07-19T14:14:17Z</time>
      </trkpt>
      <trkpt lat="44.22939" lon="3.24261">
        <ele>876.1</ele>
        <time>2020-07-19T14:14:19Z</time>
      </trkpt>
      <trkpt lat="44.2295" lon="3.24257">
        <ele>875.3</ele>
        <time>2020-07-19T14:14:21Z</time>
      </trkpt>
      <trkpt lat="44.22962" lon="3.24263">
        <ele>874.4</ele>
        <time>2020-07-19T14:14:23Z</time>
      </trkpt>
      <trkpt lat="44.22975" lon="3.24268">
        <ele>873.4</ele>
        <time>2020-07-19T14:14:25Z</time>
      </trkpt>
      <trkpt lat="44.22981" lon="3.24272">
        <ele>872.7</ele>
        <time>2020-07-19T14:14:26Z</time>
      </trkpt>
      <trkpt lat="44.22995" lon="3.24278">
        <ele>871.3</ele>
        <time>2020-07-19T14:14:28Z</time>
      </trkpt>
      <trkpt lat="44.23009" lon="3.24281">
        <ele>870.3</ele>
        <time>2020-07-19T14:14:30Z</time>
      </trkpt>
      <trkpt lat="44.23016" lon="3.24285">
        <ele>869.8</ele>
        <time>2020-07-19T14:14:31Z</time>
      </trkpt>
      <trkpt lat="44.23022" lon="3.24292">
        <ele>869.3</ele>
        <time>2020-07-19T14:14:32Z</time>
      </trkpt>
      <trkpt lat="44.23034" lon="3.24305">
        <ele>867.8</ele>
        <time>2020-07-19T14:14:34Z</time>
      </trkpt>
      <trkpt lat="44.23049" lon="3.24313">
        <ele>866.8</ele>
        <time>2020-07-19T14:14:36Z</time>
      </trkpt>
      <trkpt lat="44.23064" lon="3.24316">
        <ele>866.1</ele>
        <time>2020-07-19T14:14:38Z</time>
      </trkpt>
      <trkpt lat="44.23071" lon="3.24317">
        <ele>865.7</ele>
        <time>2020-07-19T14:14:39Z</time>
      </trkpt>
      <trkpt lat="44.23079" lon="3.24321">
        <ele>865.2</ele>
        <time>2020-07-19T14:14:40Z</time>
      </trkpt>
      <trkpt lat="44.23086" lon="3.24326">
        <ele>864.8</ele>
        <time>2020-07-19T14:14:41Z</time>
      </trkpt>
      <trkpt lat="44.231" lon="3.24336">
        <ele>864.3</ele>
        <time>2020-07-19T14:14:43Z</time>
      </trkpt>
      <trkpt lat="44.23115" lon="3.24344">
        <ele>864.3</ele>
        <time>2020-07-19T14:14:45Z</time>
      </trkpt>
      <trkpt lat="44.23129" lon="3.2435">
        <ele>864</ele>
        <time>2020-07-19T14:14:47Z</time>
      </trkpt>
      <trkpt lat="44.2314" lon="3.24356">
        <ele>863.7</ele>
        <time>2020-07-19T14:14:49Z</time>
      </trkpt>
      <trkpt lat="44.23153" lon="3.2436">
        <ele>863.8</ele>
        <time>2020-07-19T14:14:51Z</time>
      </trkpt>
      <trkpt lat="44.23159" lon="3.24354">
        <ele>864.4</ele>
        <time>2020-07-19T14:14:53Z</time>
      </trkpt>
      <trkpt lat="44.23163" lon="3.24351">
        <ele>864.8</ele>
        <time>2020-07-19T14:14:55Z</time>
      </trkpt>
      <trkpt lat="44.23165" lon="3.2435">
        <ele>865</ele>
        <time>2020-07-19T14:14:56Z</time>
      </trkpt>
      <trkpt lat="44.23168" lon="3.24348">
        <ele>865.3</ele>
        <time>2020-07-19T14:14:58Z</time>
      </trkpt>
      <trkpt lat="44.23171" lon="3.24346">
        <ele>865.6</ele>
        <time>2020-07-19T14:14:59Z</time>
      </trkpt>
      <trkpt lat="44.23174" lon="3.24344">
        <ele>865.8</ele>
        <time>2020-07-19T14:15:00Z</time>
      </trkpt>
      <trkpt lat="44.23175" lon="3.24343">
        <ele>865.9</ele>
        <time>2020-07-19T14:15:02Z</time>
      </trkpt>
      <trkpt lat="44.23176" lon="3.24343">
        <ele>866</ele>
        <time>2020-07-19T14:15:03Z</time>
      </trkpt>
      <trkpt lat="44.23177" lon="3.24344">
        <ele>866.1</ele>
        <time>2020-07-19T14:15:04Z</time>
      </trkpt>
      <trkpt lat="44.23179" lon="3.24344">
        <ele>866.2</ele>
        <time>2020-07-19T14:15:06Z</time>
      </trkpt>
      <trkpt lat="44.23181" lon="3.24344">
        <ele>866.3</ele>
        <time>2020-07-19T14:15:07Z</time>
      </trkpt>
      <trkpt lat="44.23182" lon="3.24344">
        <ele>866.4</ele>
        <time>2020-07-19T14:15:09Z</time>
      </trkpt>
      <trkpt lat="44.23187" lon="3.24343">
        <ele>866.8</ele>
        <time>2020-07-19T14:15:10Z</time>
      </trkpt>
      <trkpt lat="44.23192" lon="3.24344">
        <ele>867.3</ele>
        <time>2020-07-19T14:15:11Z</time>
      </trkpt>
      <trkpt lat="44.23197" lon="3.24344">
        <ele>867.7</ele>
        <time>2020-07-19T14:15:13Z</time>
      </trkpt>
      <trkpt lat="44.23202" lon="3.24342">
        <ele>868.1</ele>
        <time>2020-07-19T14:15:15Z</time>
      </trkpt>
      <trkpt lat="44.23204" lon="3.2434">
        <ele>868.2</ele>
        <time>2020-07-19T14:15:16Z</time>
      </trkpt>
      <trkpt lat="44.23207" lon="3.24338">
        <ele>868.4</ele>
        <time>2020-07-19T14:15:17Z</time>
      </trkpt>
      <trkpt lat="44.23211" lon="3.24335">
        <ele>868.5</ele>
        <time>2020-07-19T14:15:19Z</time>
      </trkpt>
      <trkpt lat="44.23215" lon="3.24333">
        <ele>868.6</ele>
        <time>2020-07-19T14:15:20Z</time>
      </trkpt>
      <trkpt lat="44.23219" lon="3.24331">
        <ele>868.6</ele>
        <time>2020-07-19T14:15:21Z</time>
      </trkpt>
      <trkpt lat="44.23225" lon="3.24329">
        <ele>868.4</ele>
        <time>2020-07-19T14:15:23Z</time>
      </trkpt>
      <trkpt lat="44.23232" lon="3.24327">
        <ele>868.3</ele>
        <time>2020-07-19T14:15:25Z</time>
      </trkpt>
      <trkpt lat="44.23238" lon="3.24326">
        <ele>868.1</ele>
        <time>2020-07-19T14:15:26Z</time>
      </trkpt>
      <trkpt lat="44.23243" lon="3.24325">
        <ele>868</ele>
        <time>2020-07-19T14:15:27Z</time>
      </trkpt>
      <trkpt lat="44.23249" lon="3.24325">
        <ele>867.9</ele>
        <time>2020-07-19T14:15:29Z</time>
      </trkpt>
      <trkpt lat="44.23254" lon="3.24326">
        <ele>867.9</ele>
        <time>2020-07-19T14:15:30Z</time>
      </trkpt>
      <trkpt lat="44.23261" lon="3.24327">
        <ele>868</ele>
        <time>2020-07-19T14:15:31Z</time>
      </trkpt>
      <trkpt lat="44.23267" lon="3.24329">
        <ele>868.1</ele>
        <time>2020-07-19T14:15:33Z</time>
      </trkpt>
      <trkpt lat="44.23272" lon="3.2433">
        <ele>868.3</ele>
        <time>2020-07-19T14:15:34Z</time>
      </trkpt>
      <trkpt lat="44.23276" lon="3.24332">
        <ele>868.4</ele>
        <time>2020-07-19T14:15:35Z</time>
      </trkpt>
      <trkpt lat="44.23281" lon="3.24337">
        <ele>868.6</ele>
        <time>2020-07-19T14:15:37Z</time>
      </trkpt>
      <trkpt lat="44.23286" lon="3.2434">
        <ele>868.7</ele>
        <time>2020-07-19T14:15:38Z</time>
      </trkpt>
      <trkpt lat="44.2329" lon="3.24342">
        <ele>868.7</ele>
        <time>2020-07-19T14:15:40Z</time>
      </trkpt>
      <trkpt lat="44.23296" lon="3.24345">
        <ele>868.6</ele>
        <time>2020-07-19T14:15:41Z</time>
      </trkpt>
      <trkpt lat="44.23302" lon="3.24348">
        <ele>868.5</ele>
        <time>2020-07-19T14:15:43Z</time>
      </trkpt>
      <trkpt lat="44.23309" lon="3.24351">
        <ele>868.4</ele>
        <time>2020-07-19T14:15:45Z</time>
      </trkpt>
      <trkpt lat="44.23316" lon="3.24354">
        <ele>868.3</ele>
        <time>2020-07-19T14:15:46Z</time>
      </trkpt>
      <trkpt lat="44.23321" lon="3.24356">
        <ele>868.3</ele>
        <time>2020-07-19T14:15:47Z</time>
      </trkpt>
      <trkpt lat="44.23328" lon="3.24358">
        <ele>868.2</ele>
        <time>2020-07-19T14:15:49Z</time>
      </trkpt>
      <trkpt lat="44.23335" lon="3.2436">
        <ele>868.2</ele>
        <time>2020-07-19T14:15:51Z</time>
      </trkpt>
      <trkpt lat="44.23341" lon="3.24361">
        <ele>868.3</ele>
        <time>2020-07-19T14:15:52Z</time>
      </trkpt>
      <trkpt lat="44.23346" lon="3.24362">
        <ele>868.5</ele>
        <time>2020-07-19T14:15:53Z</time>
      </trkpt>
      <trkpt lat="44.23351" lon="3.24361">
        <ele>868.7</ele>
        <time>2020-07-19T14:15:54Z</time>
      </trkpt>
      <trkpt lat="44.23355" lon="3.2436">
        <ele>868.9</ele>
        <time>2020-07-19T14:15:55Z</time>
      </trkpt>
      <trkpt lat="44.23359" lon="3.24358">
        <ele>869.1</ele>
        <time>2020-07-19T14:15:57Z</time>
      </trkpt>
      <trkpt lat="44.23361" lon="3.24357">
        <ele>869.2</ele>
        <time>2020-07-19T14:15:58Z</time>
      </trkpt>
      <trkpt lat="44.23365" lon="3.24356">
        <ele>869.4</ele>
        <time>2020-07-19T14:15:59Z</time>
      </trkpt>
      <trkpt lat="44.23368" lon="3.24355">
        <ele>869.5</ele>
        <time>2020-07-19T14:16:00Z</time>
      </trkpt>
      <trkpt lat="44.23371" lon="3.24354">
        <ele>869.6</ele>
        <time>2020-07-19T14:16:01Z</time>
      </trkpt>
      <trkpt lat="44.23376" lon="3.24352">
        <ele>869.7</ele>
        <time>2020-07-19T14:16:03Z</time>
      </trkpt>
      <trkpt lat="44.23379" lon="3.24351">
        <ele>869.8</ele>
        <time>2020-07-19T14:16:04Z</time>
      </trkpt>
      <trkpt lat="44.23383" lon="3.24349">
        <ele>869.9</ele>
        <time>2020-07-19T14:16:05Z</time>
      </trkpt>
      <trkpt lat="44.23389" lon="3.24346">
        <ele>870</ele>
        <time>2020-07-19T14:16:07Z</time>
      </trkpt>
      <trkpt lat="44.23393" lon="3.24344">
        <ele>870</ele>
        <time>2020-07-19T14:16:09Z</time>
      </trkpt>
      <trkpt lat="44.23396" lon="3.24343">
        <ele>870</ele>
        <time>2020-07-19T14:16:10Z</time>
      </trkpt>
      <trkpt lat="44.23401" lon="3.2434">
        <ele>869.9</ele>
        <time>2020-07-19T14:16:11Z</time>
      </trkpt>
      <trkpt lat="44.23406" lon="3.24338">
        <ele>869.9</ele>
        <time>2020-07-19T14:16:13Z</time>
      </trkpt>
      <trkpt lat="44.23411" lon="3.24337">
        <ele>869.8</ele>
        <time>2020-07-19T14:16:14Z</time>
      </trkpt>
      <trkpt lat="44.23418" lon="3.24336">
        <ele>869.6</ele>
        <time>2020-07-19T14:16:15Z</time>
      </trkpt>
      <trkpt lat="44.23421" lon="3.24335">
        <ele>869.5</ele>
        <time>2020-07-19T14:16:16Z</time>
      </trkpt>
      <trkpt lat="44.23433" lon="3.24331">
        <ele>869.1</ele>
        <time>2020-07-19T14:16:18Z</time>
      </trkpt>
      <trkpt lat="44.23438" lon="3.2433">
        <ele>868.9</ele>
        <time>2020-07-19T14:16:19Z</time>
      </trkpt>
      <trkpt lat="44.23443" lon="3.24329">
        <ele>868.8</ele>
        <time>2020-07-19T14:16:20Z</time>
      </trkpt>
      <trkpt lat="44.23454" lon="3.24328">
        <ele>868.8</ele>
        <time>2020-07-19T14:16:22Z</time>
      </trkpt>
      <trkpt lat="44.23459" lon="3.24327">
        <ele>868.8</ele>
        <time>2020-07-19T14:16:23Z</time>
      </trkpt>
      <trkpt lat="44.23469" lon="3.24324">
        <ele>868.8</ele>
        <time>2020-07-19T14:16:25Z</time>
      </trkpt>
      <trkpt lat="44.23474" lon="3.24323">
        <ele>868.9</ele>
        <time>2020-07-19T14:16:26Z</time>
      </trkpt>
      <trkpt lat="44.23485" lon="3.24321">
        <ele>869</ele>
        <time>2020-07-19T14:16:28Z</time>
      </trkpt>
      <trkpt lat="44.23489" lon="3.24319">
        <ele>869</ele>
        <time>2020-07-19T14:16:29Z</time>
      </trkpt>
      <trkpt lat="44.23498" lon="3.24315">
        <ele>869</ele>
        <time>2020-07-19T14:16:31Z</time>
      </trkpt>
      <trkpt lat="44.23502" lon="3.24313">
        <ele>869.1</ele>
        <time>2020-07-19T14:16:32Z</time>
      </trkpt>
      <trkpt lat="44.23507" lon="3.24311">
        <ele>869.2</ele>
        <time>2020-07-19T14:16:33Z</time>
      </trkpt>
      <trkpt lat="44.23511" lon="3.2431">
        <ele>869.2</ele>
        <time>2020-07-19T14:16:34Z</time>
      </trkpt>
      <trkpt lat="44.2352" lon="3.24306">
        <ele>869.3</ele>
        <time>2020-07-19T14:16:36Z</time>
      </trkpt>
      <trkpt lat="44.2353" lon="3.24303">
        <ele>869.4</ele>
        <time>2020-07-19T14:16:38Z</time>
      </trkpt>
      <trkpt lat="44.23538" lon="3.24301">
        <ele>869.5</ele>
        <time>2020-07-19T14:16:40Z</time>
      </trkpt>
      <trkpt lat="44.23548" lon="3.24299">
        <ele>869.6</ele>
        <time>2020-07-19T14:16:42Z</time>
      </trkpt>
      <trkpt lat="44.23556" lon="3.24299">
        <ele>869.8</ele>
        <time>2020-07-19T14:16:44Z</time>
      </trkpt>
      <trkpt lat="44.23562" lon="3.24302">
        <ele>870</ele>
        <time>2020-07-19T14:16:46Z</time>
      </trkpt>
      <trkpt lat="44.23566" lon="3.24301">
        <ele>870.1</ele>
        <time>2020-07-19T14:16:47Z</time>
      </trkpt>
      <trkpt lat="44.2357" lon="3.24301">
        <ele>870.2</ele>
        <time>2020-07-19T14:16:48Z</time>
      </trkpt>
      <trkpt lat="44.23575" lon="3.243">
        <ele>870.3</ele>
        <time>2020-07-19T14:16:49Z</time>
      </trkpt>
      <trkpt lat="44.2358" lon="3.243">
        <ele>870.3</ele>
        <time>2020-07-19T14:16:50Z</time>
      </trkpt>
      <trkpt lat="44.23585" lon="3.24299">
        <ele>870.3</ele>
        <time>2020-07-19T14:16:52Z</time>
      </trkpt>
      <trkpt lat="44.2359" lon="3.24299">
        <ele>870.3</ele>
        <time>2020-07-19T14:16:53Z</time>
      </trkpt>
      <trkpt lat="44.23598" lon="3.24299">
        <ele>870.2</ele>
        <time>2020-07-19T14:16:54Z</time>
      </trkpt>
      <trkpt lat="44.23602" lon="3.243">
        <ele>870.2</ele>
        <time>2020-07-19T14:16:55Z</time>
      </trkpt>
      <trkpt lat="44.23612" lon="3.243">
        <ele>870.1</ele>
        <time>2020-07-19T14:16:57Z</time>
      </trkpt>
      <trkpt lat="44.23622" lon="3.243">
        <ele>870</ele>
        <time>2020-07-19T14:16:59Z</time>
      </trkpt>
      <trkpt lat="44.23627" lon="3.243">
        <ele>870</ele>
        <time>2020-07-19T14:17:00Z</time>
      </trkpt>
      <trkpt lat="44.23632" lon="3.24301">
        <ele>870</ele>
        <time>2020-07-19T14:17:01Z</time>
      </trkpt>
      <trkpt lat="44.23642" lon="3.24302">
        <ele>870.1</ele>
        <time>2020-07-19T14:17:03Z</time>
      </trkpt>
      <trkpt lat="44.23652" lon="3.24302">
        <ele>870.3</ele>
        <time>2020-07-19T14:17:05Z</time>
      </trkpt>
      <trkpt lat="44.23658" lon="3.24301">
        <ele>870.5</ele>
        <time>2020-07-19T14:17:07Z</time>
      </trkpt>
      <trkpt lat="44.23662" lon="3.24303">
        <ele>870.6</ele>
        <time>2020-07-19T14:17:08Z</time>
      </trkpt>
      <trkpt lat="44.23669" lon="3.24302">
        <ele>870.7</ele>
        <time>2020-07-19T14:17:10Z</time>
      </trkpt>
      <trkpt lat="44.23675" lon="3.243">
        <ele>870.8</ele>
        <time>2020-07-19T14:17:11Z</time>
      </trkpt>
      <trkpt lat="44.2368" lon="3.24299">
        <ele>870.9</ele>
        <time>2020-07-19T14:17:12Z</time>
      </trkpt>
      <trkpt lat="44.23685" lon="3.24298">
        <ele>870.9</ele>
        <time>2020-07-19T14:17:14Z</time>
      </trkpt>
      <trkpt lat="44.23689" lon="3.24298">
        <ele>871</ele>
        <time>2020-07-19T14:17:15Z</time>
      </trkpt>
      <trkpt lat="44.23695" lon="3.24299">
        <ele>871.1</ele>
        <time>2020-07-19T14:17:16Z</time>
      </trkpt>
      <trkpt lat="44.23698" lon="3.24299">
        <ele>871.1</ele>
        <time>2020-07-19T14:17:17Z</time>
      </trkpt>
      <trkpt lat="44.23706" lon="3.24298">
        <ele>871.1</ele>
        <time>2020-07-19T14:17:19Z</time>
      </trkpt>
      <trkpt lat="44.23712" lon="3.24298">
        <ele>871.2</ele>
        <time>2020-07-19T14:17:20Z</time>
      </trkpt>
      <trkpt lat="44.23718" lon="3.24298">
        <ele>871.3</ele>
        <time>2020-07-19T14:17:22Z</time>
      </trkpt>
      <trkpt lat="44.23723" lon="3.24298">
        <ele>871.4</ele>
        <time>2020-07-19T14:17:24Z</time>
      </trkpt>
      <trkpt lat="44.23728" lon="3.24298">
        <ele>871.4</ele>
        <time>2020-07-19T14:17:25Z</time>
      </trkpt>
      <trkpt lat="44.23733" lon="3.24298">
        <ele>871.3</ele>
        <time>2020-07-19T14:17:26Z</time>
      </trkpt>
      <trkpt lat="44.23738" lon="3.24298">
        <ele>871.3</ele>
        <time>2020-07-19T14:17:27Z</time>
      </trkpt>
      <trkpt lat="44.23746" lon="3.24297">
        <ele>871.2</ele>
        <time>2020-07-19T14:17:28Z</time>
      </trkpt>
      <trkpt lat="44.23756" lon="3.24296">
        <ele>870.8</ele>
        <time>2020-07-19T14:17:30Z</time>
      </trkpt>
      <trkpt lat="44.23765" lon="3.24294">
        <ele>870.5</ele>
        <time>2020-07-19T14:17:32Z</time>
      </trkpt>
      <trkpt lat="44.2377" lon="3.24293">
        <ele>870.3</ele>
        <time>2020-07-19T14:17:33Z</time>
      </trkpt>
      <trkpt lat="44.23775" lon="3.24291">
        <ele>870.2</ele>
        <time>2020-07-19T14:17:34Z</time>
      </trkpt>
      <trkpt lat="44.2378" lon="3.24288">
        <ele>869.9</ele>
        <time>2020-07-19T14:17:35Z</time>
      </trkpt>
      <trkpt lat="44.23787" lon="3.24283">
        <ele>869.3</ele>
        <time>2020-07-19T14:17:37Z</time>
      </trkpt>
      <trkpt lat="44.23788" lon="3.24279">
        <ele>869.2</ele>
        <time>2020-07-19T14:17:38Z</time>
      </trkpt>
      <trkpt lat="44.23793" lon="3.24276">
        <ele>869</ele>
        <time>2020-07-19T14:17:40Z</time>
      </trkpt>
      <trkpt lat="44.23802" lon="3.24269">
        <ele>868.6</ele>
        <time>2020-07-19T14:17:41Z</time>
      </trkpt>
      <trkpt lat="44.2381" lon="3.2426">
        <ele>868.2</ele>
        <time>2020-07-19T14:17:43Z</time>
      </trkpt>
      <trkpt lat="44.23815" lon="3.24256">
        <ele>868</ele>
        <time>2020-07-19T14:17:44Z</time>
      </trkpt>
      <trkpt lat="44.23823" lon="3.24247">
        <ele>867.5</ele>
        <time>2020-07-19T14:17:46Z</time>
      </trkpt>
      <trkpt lat="44.23828" lon="3.24243">
        <ele>867.3</ele>
        <time>2020-07-19T14:17:47Z</time>
      </trkpt>
      <trkpt lat="44.23834" lon="3.24238">
        <ele>867.2</ele>
        <time>2020-07-19T14:17:48Z</time>
      </trkpt>
      <trkpt lat="44.2384" lon="3.24234">
        <ele>867</ele>
        <time>2020-07-19T14:17:49Z</time>
      </trkpt>
      <trkpt lat="44.23845" lon="3.2423">
        <ele>866.9</ele>
        <time>2020-07-19T14:17:50Z</time>
      </trkpt>
      <trkpt lat="44.23857" lon="3.24224">
        <ele>866.7</ele>
        <time>2020-07-19T14:17:52Z</time>
      </trkpt>
      <trkpt lat="44.23862" lon="3.2422">
        <ele>866.6</ele>
        <time>2020-07-19T14:17:53Z</time>
      </trkpt>
      <trkpt lat="44.23868" lon="3.24216">
        <ele>866.4</ele>
        <time>2020-07-19T14:17:54Z</time>
      </trkpt>
      <trkpt lat="44.23874" lon="3.24212">
        <ele>866.2</ele>
        <time>2020-07-19T14:17:55Z</time>
      </trkpt>
      <trkpt lat="44.23885" lon="3.24202">
        <ele>865.7</ele>
        <time>2020-07-19T14:17:57Z</time>
      </trkpt>
      <trkpt lat="44.23891" lon="3.24197">
        <ele>865.3</ele>
        <time>2020-07-19T14:17:58Z</time>
      </trkpt>
      <trkpt lat="44.23897" lon="3.24193">
        <ele>865</ele>
        <time>2020-07-19T14:17:59Z</time>
      </trkpt>
      <trkpt lat="44.23904" lon="3.24191">
        <ele>864.5</ele>
        <time>2020-07-19T14:18:00Z</time>
      </trkpt>
      <trkpt lat="44.23917" lon="3.2419">
        <ele>863.5</ele>
        <time>2020-07-19T14:18:02Z</time>
      </trkpt>
      <trkpt lat="44.23931" lon="3.24192">
        <ele>862.4</ele>
        <time>2020-07-19T14:18:04Z</time>
      </trkpt>
      <trkpt lat="44.23938" lon="3.24193">
        <ele>861.8</ele>
        <time>2020-07-19T14:18:05Z</time>
      </trkpt>
      <trkpt lat="44.23953" lon="3.24191">
        <ele>861.1</ele>
        <time>2020-07-19T14:18:07Z</time>
      </trkpt>
      <trkpt lat="44.23961" lon="3.24191">
        <ele>860.9</ele>
        <time>2020-07-19T14:18:08Z</time>
      </trkpt>
      <trkpt lat="44.23975" lon="3.24192">
        <ele>860.5</ele>
        <time>2020-07-19T14:18:10Z</time>
      </trkpt>
      <trkpt lat="44.23987" lon="3.24184">
        <ele>860.3</ele>
        <time>2020-07-19T14:18:12Z</time>
      </trkpt>
      <trkpt lat="44.23997" lon="3.24174">
        <ele>859.9</ele>
        <time>2020-07-19T14:18:14Z</time>
      </trkpt>
      <trkpt lat="44.24008" lon="3.24166">
        <ele>859.3</ele>
        <time>2020-07-19T14:18:16Z</time>
      </trkpt>
      <trkpt lat="44.24013" lon="3.2416">
        <ele>859</ele>
        <time>2020-07-19T14:18:17Z</time>
      </trkpt>
      <trkpt lat="44.2402" lon="3.24146">
        <ele>858.3</ele>
        <time>2020-07-19T14:18:19Z</time>
      </trkpt>
      <trkpt lat="44.24028" lon="3.24137">
        <ele>857.8</ele>
        <time>2020-07-19T14:18:21Z</time>
      </trkpt>
      <trkpt lat="44.24036" lon="3.24133">
        <ele>857.4</ele>
        <time>2020-07-19T14:18:23Z</time>
      </trkpt>
      <trkpt lat="44.24041" lon="3.24131">
        <ele>856.9</ele>
        <time>2020-07-19T14:18:24Z</time>
      </trkpt>
      <trkpt lat="44.24048" lon="3.24128">
        <ele>856</ele>
        <time>2020-07-19T14:18:26Z</time>
      </trkpt>
      <trkpt lat="44.24052" lon="3.24126">
        <ele>856</ele>
        <time>2020-07-19T14:18:27Z</time>
      </trkpt>
      <trkpt lat="44.24055" lon="3.24124">
        <ele>855.9</ele>
        <time>2020-07-19T14:18:28Z</time>
      </trkpt>
      <trkpt lat="44.24061" lon="3.24123">
        <ele>855.8</ele>
        <time>2020-07-19T14:18:30Z</time>
      </trkpt>
      <trkpt lat="44.24063" lon="3.24124">
        <ele>855.8</ele>
        <time>2020-07-19T14:18:31Z</time>
      </trkpt>
      <trkpt lat="44.24063" lon="3.24127">
        <ele>855.8</ele>
        <time>2020-07-19T14:18:32Z</time>
      </trkpt>
      <trkpt lat="44.24066" lon="3.24123">
        <ele>855.8</ele>
        <time>2020-07-19T14:18:34Z</time>
      </trkpt>
      <trkpt lat="44.24067" lon="3.24122">
        <ele>855.8</ele>
        <time>2020-07-19T14:18:35Z</time>
      </trkpt>
      <trkpt lat="44.2407" lon="3.24121">
        <ele>855.8</ele>
        <time>2020-07-19T14:18:37Z</time>
      </trkpt>
      <trkpt lat="44.24072" lon="3.24119">
        <ele>856</ele>
        <time>2020-07-19T14:18:38Z</time>
      </trkpt>
      <trkpt lat="44.24073" lon="3.24118">
        <ele>856.1</ele>
        <time>2020-07-19T14:18:39Z</time>
      </trkpt>
      <trkpt lat="44.24079" lon="3.24116">
        <ele>856.4</ele>
        <time>2020-07-19T14:18:41Z</time>
      </trkpt>
      <trkpt lat="44.24081" lon="3.24115">
        <ele>856.6</ele>
        <time>2020-07-19T14:18:42Z</time>
      </trkpt>
      <trkpt lat="44.24085" lon="3.24114">
        <ele>856.7</ele>
        <time>2020-07-19T14:18:43Z</time>
      </trkpt>
      <trkpt lat="44.24088" lon="3.24113">
        <ele>856.9</ele>
        <time>2020-07-19T14:18:44Z</time>
      </trkpt>
      <trkpt lat="44.24092" lon="3.24113">
        <ele>857.1</ele>
        <time>2020-07-19T14:18:46Z</time>
      </trkpt>
      <trkpt lat="44.24094" lon="3.24113">
        <ele>857.2</ele>
        <time>2020-07-19T14:18:47Z</time>
      </trkpt>
      <trkpt lat="44.24099" lon="3.24113">
        <ele>857.5</ele>
        <time>2020-07-19T14:18:49Z</time>
      </trkpt>
      <trkpt lat="44.24102" lon="3.24113">
        <ele>857.7</ele>
        <time>2020-07-19T14:18:50Z</time>
      </trkpt>
      <trkpt lat="44.24105" lon="3.24112">
        <ele>857.9</ele>
        <time>2020-07-19T14:18:52Z</time>
      </trkpt>
      <trkpt lat="44.24109" lon="3.24113">
        <ele>858.1</ele>
        <time>2020-07-19T14:18:53Z</time>
      </trkpt>
      <trkpt lat="44.24114" lon="3.24113">
        <ele>858.5</ele>
        <time>2020-07-19T14:18:55Z</time>
      </trkpt>
      <trkpt lat="44.24117" lon="3.24113">
        <ele>858.7</ele>
        <time>2020-07-19T14:18:56Z</time>
      </trkpt>
      <trkpt lat="44.24119" lon="3.24113">
        <ele>858.8</ele>
        <time>2020-07-19T14:18:57Z</time>
      </trkpt>
      <trkpt lat="44.24123" lon="3.24114">
        <ele>859.1</ele>
        <time>2020-07-19T14:18:59Z</time>
      </trkpt>
      <trkpt lat="44.24127" lon="3.24116">
        <ele>859.4</ele>
        <time>2020-07-19T14:19:01Z</time>
      </trkpt>
      <trkpt lat="44.24132" lon="3.24118">
        <ele>859.7</ele>
        <time>2020-07-19T14:19:03Z</time>
      </trkpt>
      <trkpt lat="44.24135" lon="3.2412">
        <ele>860</ele>
        <time>2020-07-19T14:19:04Z</time>
      </trkpt>
      <trkpt lat="44.24136" lon="3.24121">
        <ele>860</ele>
        <time>2020-07-19T14:19:05Z</time>
      </trkpt>
      <trkpt lat="44.24138" lon="3.24123">
        <ele>860.2</ele>
        <time>2020-07-19T14:19:06Z</time>
      </trkpt>
      <trkpt lat="44.24141" lon="3.24126">
        <ele>860.4</ele>
        <time>2020-07-19T14:19:08Z</time>
      </trkpt>
      <trkpt lat="44.24143" lon="3.24128">
        <ele>860.5</ele>
        <time>2020-07-19T14:19:09Z</time>
      </trkpt>
      <trkpt lat="44.24147" lon="3.24131">
        <ele>860.7</ele>
        <time>2020-07-19T14:19:11Z</time>
      </trkpt>
      <trkpt lat="44.24149" lon="3.24134">
        <ele>860.8</ele>
        <time>2020-07-19T14:19:12Z</time>
      </trkpt>
      <trkpt lat="44.24151" lon="3.24135">
        <ele>860.8</ele>
        <time>2020-07-19T14:19:13Z</time>
      </trkpt>
      <trkpt lat="44.24155" lon="3.24138">
        <ele>861</ele>
        <time>2020-07-19T14:19:15Z</time>
      </trkpt>
      <trkpt lat="44.24156" lon="3.2414">
        <ele>861</ele>
        <time>2020-07-19T14:19:16Z</time>
      </trkpt>
      <trkpt lat="44.24159" lon="3.24143">
        <ele>861.1</ele>
        <time>2020-07-19T14:19:18Z</time>
      </trkpt>
      <trkpt lat="44.24162" lon="3.24146">
        <ele>861.2</ele>
        <time>2020-07-19T14:19:20Z</time>
      </trkpt>
      <trkpt lat="44.24166" lon="3.24149">
        <ele>861.3</ele>
        <time>2020-07-19T14:19:22Z</time>
      </trkpt>
      <trkpt lat="44.24169" lon="3.24152">
        <ele>861.4</ele>
        <time>2020-07-19T14:19:23Z</time>
      </trkpt>
      <trkpt lat="44.2417" lon="3.24153">
        <ele>861.4</ele>
        <time>2020-07-19T14:19:24Z</time>
      </trkpt>
      <trkpt lat="44.24172" lon="3.24155">
        <ele>861.4</ele>
        <time>2020-07-19T14:19:25Z</time>
      </trkpt>
      <trkpt lat="44.24176" lon="3.24158">
        <ele>861.4</ele>
        <time>2020-07-19T14:19:27Z</time>
      </trkpt>
      <trkpt lat="44.24181" lon="3.24163">
        <ele>861.5</ele>
        <time>2020-07-19T14:19:29Z</time>
      </trkpt>
      <trkpt lat="44.24183" lon="3.24165">
        <ele>861.6</ele>
        <time>2020-07-19T14:19:30Z</time>
      </trkpt>
      <trkpt lat="44.24186" lon="3.24167">
        <ele>861.6</ele>
        <time>2020-07-19T14:19:31Z</time>
      </trkpt>
      <trkpt lat="44.2419" lon="3.2417">
        <ele>861.7</ele>
        <time>2020-07-19T14:19:32Z</time>
      </trkpt>
      <trkpt lat="44.24195" lon="3.24175">
        <ele>861.8</ele>
        <time>2020-07-19T14:19:34Z</time>
      </trkpt>
      <trkpt lat="44.24197" lon="3.24177">
        <ele>861.8</ele>
        <time>2020-07-19T14:19:35Z</time>
      </trkpt>
      <trkpt lat="44.24205" lon="3.24186">
        <ele>861.8</ele>
        <time>2020-07-19T14:19:37Z</time>
      </trkpt>
      <trkpt lat="44.24209" lon="3.24189">
        <ele>861.7</ele>
        <time>2020-07-19T14:19:38Z</time>
      </trkpt>
      <trkpt lat="44.24212" lon="3.24191">
        <ele>861.7</ele>
        <time>2020-07-19T14:19:39Z</time>
      </trkpt>
      <trkpt lat="44.24219" lon="3.24197">
        <ele>861.5</ele>
        <time>2020-07-19T14:19:41Z</time>
      </trkpt>
      <trkpt lat="44.24222" lon="3.24199">
        <ele>861.5</ele>
        <time>2020-07-19T14:19:42Z</time>
      </trkpt>
      <trkpt lat="44.24231" lon="3.24207">
        <ele>861.3</ele>
        <time>2020-07-19T14:19:44Z</time>
      </trkpt>
      <trkpt lat="44.24235" lon="3.24213">
        <ele>861.2</ele>
        <time>2020-07-19T14:19:45Z</time>
      </trkpt>
      <trkpt lat="44.2424" lon="3.2422">
        <ele>861.1</ele>
        <time>2020-07-19T14:19:46Z</time>
      </trkpt>
      <trkpt lat="44.2425" lon="3.2423">
        <ele>860.8</ele>
        <time>2020-07-19T14:19:48Z</time>
      </trkpt>
      <trkpt lat="44.24255" lon="3.24234">
        <ele>860.6</ele>
        <time>2020-07-19T14:19:49Z</time>
      </trkpt>
      <trkpt lat="44.24266" lon="3.2424">
        <ele>860.1</ele>
        <time>2020-07-19T14:19:51Z</time>
      </trkpt>
      <trkpt lat="44.24271" lon="3.24243">
        <ele>859.9</ele>
        <time>2020-07-19T14:19:52Z</time>
      </trkpt>
      <trkpt lat="44.24277" lon="3.24246">
        <ele>859.7</ele>
        <time>2020-07-19T14:19:53Z</time>
      </trkpt>
      <trkpt lat="44.24289" lon="3.2425">
        <ele>859.2</ele>
        <time>2020-07-19T14:19:55Z</time>
      </trkpt>
      <trkpt lat="44.24296" lon="3.24252">
        <ele>859</ele>
        <time>2020-07-19T14:19:56Z</time>
      </trkpt>
      <trkpt lat="44.2431" lon="3.24255">
        <ele>858.5</ele>
        <time>2020-07-19T14:19:58Z</time>
      </trkpt>
      <trkpt lat="44.24318" lon="3.24255">
        <ele>858.2</ele>
        <time>2020-07-19T14:19:59Z</time>
      </trkpt>
      <trkpt lat="44.24325" lon="3.24254">
        <ele>857.9</ele>
        <time>2020-07-19T14:20:00Z</time>
      </trkpt>
      <trkpt lat="44.24332" lon="3.24252">
        <ele>857.6</ele>
        <time>2020-07-19T14:20:01Z</time>
      </trkpt>
      <trkpt lat="44.24347" lon="3.24246">
        <ele>857.1</ele>
        <time>2020-07-19T14:20:03Z</time>
      </trkpt>
      <trkpt lat="44.24353" lon="3.24241">
        <ele>856.8</ele>
        <time>2020-07-19T14:20:04Z</time>
      </trkpt>
      <trkpt lat="44.24368" lon="3.2423">
        <ele>856.1</ele>
        <time>2020-07-19T14:20:06Z</time>
      </trkpt>
      <trkpt lat="44.24383" lon="3.2422">
        <ele>855.5</ele>
        <time>2020-07-19T14:20:08Z</time>
      </trkpt>
      <trkpt lat="44.244" lon="3.24217">
        <ele>854.8</ele>
        <time>2020-07-19T14:20:10Z</time>
      </trkpt>
      <trkpt lat="44.24419" lon="3.24221">
        <ele>854.4</ele>
        <time>2020-07-19T14:20:12Z</time>
      </trkpt>
      <trkpt lat="44.24428" lon="3.24224">
        <ele>854.3</ele>
        <time>2020-07-19T14:20:13Z</time>
      </trkpt>
      <trkpt lat="44.24445" lon="3.24229">
        <ele>854.5</ele>
        <time>2020-07-19T14:20:15Z</time>
      </trkpt>
      <trkpt lat="44.24453" lon="3.24231">
        <ele>854.7</ele>
        <time>2020-07-19T14:20:16Z</time>
      </trkpt>
      <trkpt lat="44.24468" lon="3.24236">
        <ele>855.1</ele>
        <time>2020-07-19T14:20:18Z</time>
      </trkpt>
      <trkpt lat="44.24475" lon="3.24238">
        <ele>855.4</ele>
        <time>2020-07-19T14:20:19Z</time>
      </trkpt>
      <trkpt lat="44.24482" lon="3.24239">
        <ele>855.8</ele>
        <time>2020-07-19T14:20:20Z</time>
      </trkpt>
      <trkpt lat="44.24495" lon="3.24242">
        <ele>856.6</ele>
        <time>2020-07-19T14:20:22Z</time>
      </trkpt>
      <trkpt lat="44.24506" lon="3.24245">
        <ele>857.5</ele>
        <time>2020-07-19T14:20:24Z</time>
      </trkpt>
      <trkpt lat="44.24515" lon="3.24247">
        <ele>858.2</ele>
        <time>2020-07-19T14:20:26Z</time>
      </trkpt>
      <trkpt lat="44.24526" lon="3.24249">
        <ele>859.1</ele>
        <time>2020-07-19T14:20:28Z</time>
      </trkpt>
      <trkpt lat="44.24533" lon="3.24249">
        <ele>859.8</ele>
        <time>2020-07-19T14:20:30Z</time>
      </trkpt>
      <trkpt lat="44.24537" lon="3.24248">
        <ele>860.1</ele>
        <time>2020-07-19T14:20:31Z</time>
      </trkpt>
      <trkpt lat="44.24543" lon="3.24245">
        <ele>860.7</ele>
        <time>2020-07-19T14:20:33Z</time>
      </trkpt>
      <trkpt lat="44.24548" lon="3.2424">
        <ele>861.2</ele>
        <time>2020-07-19T14:20:35Z</time>
      </trkpt>
      <trkpt lat="44.2455" lon="3.24237">
        <ele>861.6</ele>
        <time>2020-07-19T14:20:36Z</time>
      </trkpt>
      <trkpt lat="44.24549" lon="3.24236">
        <ele>861.9</ele>
        <time>2020-07-19T14:20:38Z</time>
      </trkpt>
      <trkpt lat="44.24548" lon="3.24237">
        <ele>862</ele>
        <time>2020-07-19T14:20:39Z</time>
      </trkpt>
      <trkpt lat="44.24548" lon="3.24234">
        <ele>862.2</ele>
        <time>2020-07-19T14:20:41Z</time>
      </trkpt>
      <trkpt lat="44.24551" lon="3.24229">
        <ele>862.7</ele>
        <time>2020-07-19T14:20:43Z</time>
      </trkpt>
      <trkpt lat="44.24555" lon="3.24225">
        <ele>863.1</ele>
        <time>2020-07-19T14:20:44Z</time>
      </trkpt>
      <trkpt lat="44.24558" lon="3.24223">
        <ele>863.3</ele>
        <time>2020-07-19T14:20:45Z</time>
      </trkpt>
      <trkpt lat="44.24562" lon="3.24218">
        <ele>863.7</ele>
        <time>2020-07-19T14:20:46Z</time>
      </trkpt>
      <trkpt lat="44.24567" lon="3.24209">
        <ele>864.2</ele>
        <time>2020-07-19T14:20:48Z</time>
      </trkpt>
      <trkpt lat="44.24571" lon="3.24201">
        <ele>864.7</ele>
        <time>2020-07-19T14:20:50Z</time>
      </trkpt>
      <trkpt lat="44.24574" lon="3.24194">
        <ele>865.1</ele>
        <time>2020-07-19T14:20:51Z</time>
      </trkpt>
      <trkpt lat="44.24575" lon="3.24192">
        <ele>865.3</ele>
        <time>2020-07-19T14:20:52Z</time>
      </trkpt>
      <trkpt lat="44.24579" lon="3.24188">
        <ele>865.5</ele>
        <time>2020-07-19T14:20:54Z</time>
      </trkpt>
      <trkpt lat="44.24582" lon="3.24184">
        <ele>865.8</ele>
        <time>2020-07-19T14:20:56Z</time>
      </trkpt>
      <trkpt lat="44.24587" lon="3.2418">
        <ele>866.1</ele>
        <time>2020-07-19T14:20:58Z</time>
      </trkpt>
      <trkpt lat="44.24591" lon="3.24178">
        <ele>866.3</ele>
        <time>2020-07-19T14:21:00Z</time>
      </trkpt>
      <trkpt lat="44.24594" lon="3.24176">
        <ele>866.5</ele>
        <time>2020-07-19T14:21:01Z</time>
      </trkpt>
      <trkpt lat="44.24595" lon="3.24175">
        <ele>866.6</ele>
        <time>2020-07-19T14:21:02Z</time>
      </trkpt>
      <trkpt lat="44.246" lon="3.24173">
        <ele>866.8</ele>
        <time>2020-07-19T14:21:04Z</time>
      </trkpt>
      <trkpt lat="44.24603" lon="3.24171">
        <ele>867.1</ele>
        <time>2020-07-19T14:21:06Z</time>
      </trkpt>
      <trkpt lat="44.24608" lon="3.2417">
        <ele>867.3</ele>
        <time>2020-07-19T14:21:08Z</time>
      </trkpt>
      <trkpt lat="44.24611" lon="3.24169">
        <ele>867.5</ele>
        <time>2020-07-19T14:21:09Z</time>
      </trkpt>
      <trkpt lat="44.24616" lon="3.24167">
        <ele>867.7</ele>
        <time>2020-07-19T14:21:11Z</time>
      </trkpt>
      <trkpt lat="44.2462" lon="3.24167">
        <ele>868</ele>
        <time>2020-07-19T14:21:13Z</time>
      </trkpt>
      <trkpt lat="44.24622" lon="3.24166">
        <ele>868.2</ele>
        <time>2020-07-19T14:21:14Z</time>
      </trkpt>
      <trkpt lat="44.24625" lon="3.24166">
        <ele>868.4</ele>
        <time>2020-07-19T14:21:16Z</time>
      </trkpt>
      <trkpt lat="44.24629" lon="3.24164">
        <ele>868.7</ele>
        <time>2020-07-19T14:21:18Z</time>
      </trkpt>
      <trkpt lat="44.24633" lon="3.24164">
        <ele>868.9</ele>
        <time>2020-07-19T14:21:20Z</time>
      </trkpt>
      <trkpt lat="44.24636" lon="3.24163">
        <ele>869.1</ele>
        <time>2020-07-19T14:21:21Z</time>
      </trkpt>
      <trkpt lat="44.24637" lon="3.24163">
        <ele>869.2</ele>
        <time>2020-07-19T14:21:22Z</time>
      </trkpt>
      <trkpt lat="44.24638" lon="3.24162">
        <ele>869.3</ele>
        <time>2020-07-19T14:21:23Z</time>
      </trkpt>
      <trkpt lat="44.2464" lon="3.24161">
        <ele>869.5</ele>
        <time>2020-07-19T14:21:25Z</time>
      </trkpt>
      <trkpt lat="44.24642" lon="3.24161">
        <ele>869.5</ele>
        <time>2020-07-19T14:21:26Z</time>
      </trkpt>
      <trkpt lat="44.24644" lon="3.24161">
        <ele>869.6</ele>
        <time>2020-07-19T14:21:27Z</time>
      </trkpt>
      <trkpt lat="44.24645" lon="3.24161">
        <ele>869.7</ele>
        <time>2020-07-19T14:21:28Z</time>
      </trkpt>
      <trkpt lat="44.24649" lon="3.2416">
        <ele>869.9</ele>
        <time>2020-07-19T14:21:30Z</time>
      </trkpt>
      <trkpt lat="44.24652" lon="3.2416">
        <ele>870.1</ele>
        <time>2020-07-19T14:21:32Z</time>
      </trkpt>
      <trkpt lat="44.24655" lon="3.24159">
        <ele>870.3</ele>
        <time>2020-07-19T14:21:33Z</time>
      </trkpt>
      <trkpt lat="44.24659" lon="3.2416">
        <ele>870.5</ele>
        <time>2020-07-19T14:21:35Z</time>
      </trkpt>
      <trkpt lat="44.24661" lon="3.2416">
        <ele>870.6</ele>
        <time>2020-07-19T14:21:36Z</time>
      </trkpt>
      <trkpt lat="44.24665" lon="3.24159">
        <ele>870.8</ele>
        <time>2020-07-19T14:21:38Z</time>
      </trkpt>
      <trkpt lat="44.24669" lon="3.24158">
        <ele>870.9</ele>
        <time>2020-07-19T14:21:39Z</time>
      </trkpt>
      <trkpt lat="44.2467" lon="3.24157">
        <ele>871</ele>
        <time>2020-07-19T14:21:40Z</time>
      </trkpt>
      <trkpt lat="44.24674" lon="3.24155">
        <ele>871.2</ele>
        <time>2020-07-19T14:21:42Z</time>
      </trkpt>
      <trkpt lat="44.24678" lon="3.24153">
        <ele>871.5</ele>
        <time>2020-07-19T14:21:44Z</time>
      </trkpt>
      <trkpt lat="44.2468" lon="3.24151">
        <ele>871.6</ele>
        <time>2020-07-19T14:21:45Z</time>
      </trkpt>
      <trkpt lat="44.24682" lon="3.2415">
        <ele>871.8</ele>
        <time>2020-07-19T14:21:47Z</time>
      </trkpt>
      <trkpt lat="44.24685" lon="3.24148">
        <ele>871.9</ele>
        <time>2020-07-19T14:21:48Z</time>
      </trkpt>
      <trkpt lat="44.24686" lon="3.24146">
        <ele>872</ele>
        <time>2020-07-19T14:21:49Z</time>
      </trkpt>
      <trkpt lat="44.24688" lon="3.24144">
        <ele>872.1</ele>
        <time>2020-07-19T14:21:51Z</time>
      </trkpt>
      <trkpt lat="44.2469" lon="3.24141">
        <ele>872.3</ele>
        <time>2020-07-19T14:21:52Z</time>
      </trkpt>
      <trkpt lat="44.24691" lon="3.2414">
        <ele>872.4</ele>
        <time>2020-07-19T14:21:53Z</time>
      </trkpt>
      <trkpt lat="44.24693" lon="3.24138">
        <ele>872.5</ele>
        <time>2020-07-19T14:21:54Z</time>
      </trkpt>
      <trkpt lat="44.24694" lon="3.24135">
        <ele>872.6</ele>
        <time>2020-07-19T14:21:56Z</time>
      </trkpt>
      <trkpt lat="44.24697" lon="3.24132">
        <ele>872.8</ele>
        <time>2020-07-19T14:21:57Z</time>
      </trkpt>
      <trkpt lat="44.24698" lon="3.24131">
        <ele>872.9</ele>
        <time>2020-07-19T14:21:58Z</time>
      </trkpt>
      <trkpt lat="44.247" lon="3.24127">
        <ele>873.1</ele>
        <time>2020-07-19T14:22:00Z</time>
      </trkpt>
      <trkpt lat="44.24702" lon="3.24124">
        <ele>873.3</ele>
        <time>2020-07-19T14:22:02Z</time>
      </trkpt>
      <trkpt lat="44.24705" lon="3.24122">
        <ele>873.5</ele>
        <time>2020-07-19T14:22:04Z</time>
      </trkpt>
      <trkpt lat="44.24707" lon="3.24119">
        <ele>873.7</ele>
        <time>2020-07-19T14:22:06Z</time>
      </trkpt>
      <trkpt lat="44.2471" lon="3.24117">
        <ele>873.9</ele>
        <time>2020-07-19T14:22:07Z</time>
      </trkpt>
      <trkpt lat="44.24713" lon="3.24114">
        <ele>874.2</ele>
        <time>2020-07-19T14:22:09Z</time>
      </trkpt>
      <trkpt lat="44.24715" lon="3.24112">
        <ele>874.3</ele>
        <time>2020-07-19T14:22:10Z</time>
      </trkpt>
      <trkpt lat="44.24717" lon="3.2411">
        <ele>874.5</ele>
        <time>2020-07-19T14:22:12Z</time>
      </trkpt>
      <trkpt lat="44.24721" lon="3.24107">
        <ele>874.8</ele>
        <time>2020-07-19T14:22:14Z</time>
      </trkpt>
      <trkpt lat="44.24723" lon="3.24105">
        <ele>875</ele>
        <time>2020-07-19T14:22:15Z</time>
      </trkpt>
      <trkpt lat="44.24726" lon="3.24104">
        <ele>875.2</ele>
        <time>2020-07-19T14:22:17Z</time>
      </trkpt>
      <trkpt lat="44.24729" lon="3.24103">
        <ele>875.5</ele>
        <time>2020-07-19T14:22:19Z</time>
      </trkpt>
      <trkpt lat="44.24734" lon="3.241">
        <ele>875.8</ele>
        <time>2020-07-19T14:22:21Z</time>
      </trkpt>
      <trkpt lat="44.24737" lon="3.24099">
        <ele>876</ele>
        <time>2020-07-19T14:22:23Z</time>
      </trkpt>
      <trkpt lat="44.2474" lon="3.24098">
        <ele>876.3</ele>
        <time>2020-07-19T14:22:25Z</time>
      </trkpt>
      <trkpt lat="44.24742" lon="3.24097">
        <ele>876.4</ele>
        <time>2020-07-19T14:22:26Z</time>
      </trkpt>
      <trkpt lat="44.24746" lon="3.24096">
        <ele>876.6</ele>
        <time>2020-07-19T14:22:28Z</time>
      </trkpt>
      <trkpt lat="44.2475" lon="3.24096">
        <ele>876.9</ele>
        <time>2020-07-19T14:22:30Z</time>
      </trkpt>
      <trkpt lat="44.24753" lon="3.24095">
        <ele>877.1</ele>
        <time>2020-07-19T14:22:31Z</time>
      </trkpt>
      <trkpt lat="44.24755" lon="3.24095">
        <ele>877.1</ele>
        <time>2020-07-19T14:22:32Z</time>
      </trkpt>
      <trkpt lat="44.24758" lon="3.24093">
        <ele>877.3</ele>
        <time>2020-07-19T14:22:34Z</time>
      </trkpt>
      <trkpt lat="44.2476" lon="3.24093">
        <ele>877.4</ele>
        <time>2020-07-19T14:22:35Z</time>
      </trkpt>
      <trkpt lat="44.24763" lon="3.24091">
        <ele>877.6</ele>
        <time>2020-07-19T14:22:37Z</time>
      </trkpt>
      <trkpt lat="44.24764" lon="3.2409">
        <ele>877.7</ele>
        <time>2020-07-19T14:22:38Z</time>
      </trkpt>
      <trkpt lat="44.24768" lon="3.24089">
        <ele>877.9</ele>
        <time>2020-07-19T14:22:40Z</time>
      </trkpt>
      <trkpt lat="44.24771" lon="3.24087">
        <ele>878</ele>
        <time>2020-07-19T14:22:41Z</time>
      </trkpt>
      <trkpt lat="44.24772" lon="3.24086">
        <ele>878.1</ele>
        <time>2020-07-19T14:22:42Z</time>
      </trkpt>
      <trkpt lat="44.24777" lon="3.24082">
        <ele>878.4</ele>
        <time>2020-07-19T14:22:44Z</time>
      </trkpt>
      <trkpt lat="44.24778" lon="3.24081">
        <ele>878.5</ele>
        <time>2020-07-19T14:22:45Z</time>
      </trkpt>
      <trkpt lat="44.2478" lon="3.24081">
        <ele>878.6</ele>
        <time>2020-07-19T14:22:46Z</time>
      </trkpt>
      <trkpt lat="44.24784" lon="3.24078">
        <ele>878.9</ele>
        <time>2020-07-19T14:22:48Z</time>
      </trkpt>
      <trkpt lat="44.24786" lon="3.24077">
        <ele>879</ele>
        <time>2020-07-19T14:22:49Z</time>
      </trkpt>
      <trkpt lat="44.2479" lon="3.24076">
        <ele>879.2</ele>
        <time>2020-07-19T14:22:51Z</time>
      </trkpt>
      <trkpt lat="44.24793" lon="3.24075">
        <ele>879.4</ele>
        <time>2020-07-19T14:22:53Z</time>
      </trkpt>
      <trkpt lat="44.24795" lon="3.24075">
        <ele>879.5</ele>
        <time>2020-07-19T14:22:54Z</time>
      </trkpt>
      <trkpt lat="44.24799" lon="3.24074">
        <ele>879.7</ele>
        <time>2020-07-19T14:22:56Z</time>
      </trkpt>
      <trkpt lat="44.24801" lon="3.24074">
        <ele>879.8</ele>
        <time>2020-07-19T14:22:57Z</time>
      </trkpt>
      <trkpt lat="44.24803" lon="3.24074">
        <ele>879.9</ele>
        <time>2020-07-19T14:22:59Z</time>
      </trkpt>
      <trkpt lat="44.24805" lon="3.24073">
        <ele>880</ele>
        <time>2020-07-19T14:23:00Z</time>
      </trkpt>
      <trkpt lat="44.24808" lon="3.24072">
        <ele>880.2</ele>
        <time>2020-07-19T14:23:02Z</time>
      </trkpt>
      <trkpt lat="44.2481" lon="3.24071">
        <ele>880.4</ele>
        <time>2020-07-19T14:23:03Z</time>
      </trkpt>
      <trkpt lat="44.24812" lon="3.24069">
        <ele>880.5</ele>
        <time>2020-07-19T14:23:05Z</time>
      </trkpt>
      <trkpt lat="44.24815" lon="3.24069">
        <ele>880.7</ele>
        <time>2020-07-19T14:23:07Z</time>
      </trkpt>
      <trkpt lat="44.24818" lon="3.24068">
        <ele>880.9</ele>
        <time>2020-07-19T14:23:08Z</time>
      </trkpt>
      <trkpt lat="44.24821" lon="3.24068">
        <ele>881</ele>
        <time>2020-07-19T14:23:09Z</time>
      </trkpt>
      <trkpt lat="44.24824" lon="3.24069">
        <ele>881.2</ele>
        <time>2020-07-19T14:23:10Z</time>
      </trkpt>
      <trkpt lat="44.24828" lon="3.2407">
        <ele>881.4</ele>
        <time>2020-07-19T14:23:12Z</time>
      </trkpt>
      <trkpt lat="44.24829" lon="3.24071">
        <ele>881.5</ele>
        <time>2020-07-19T14:23:13Z</time>
      </trkpt>
      <trkpt lat="44.24833" lon="3.2407">
        <ele>881.7</ele>
        <time>2020-07-19T14:23:15Z</time>
      </trkpt>
      <trkpt lat="44.24837" lon="3.24072">
        <ele>882</ele>
        <time>2020-07-19T14:23:17Z</time>
      </trkpt>
      <trkpt lat="44.24842" lon="3.24073">
        <ele>882.2</ele>
        <time>2020-07-19T14:23:19Z</time>
      </trkpt>
      <trkpt lat="44.24846" lon="3.24076">
        <ele>882.4</ele>
        <time>2020-07-19T14:23:21Z</time>
      </trkpt>
      <trkpt lat="44.24849" lon="3.24078">
        <ele>882.6</ele>
        <time>2020-07-19T14:23:22Z</time>
      </trkpt>
      <trkpt lat="44.24851" lon="3.2408">
        <ele>882.7</ele>
        <time>2020-07-19T14:23:23Z</time>
      </trkpt>
      <trkpt lat="44.24854" lon="3.24084">
        <ele>882.9</ele>
        <time>2020-07-19T14:23:24Z</time>
      </trkpt>
      <trkpt lat="44.24856" lon="3.24087">
        <ele>883.1</ele>
        <time>2020-07-19T14:23:26Z</time>
      </trkpt>
      <trkpt lat="44.24858" lon="3.2409">
        <ele>883.3</ele>
        <time>2020-07-19T14:23:27Z</time>
      </trkpt>
      <trkpt lat="44.24859" lon="3.2409">
        <ele>883.3</ele>
        <time>2020-07-19T14:23:28Z</time>
      </trkpt>
      <trkpt lat="44.24863" lon="3.24095">
        <ele>883.6</ele>
        <time>2020-07-19T14:23:30Z</time>
      </trkpt>
      <trkpt lat="44.24864" lon="3.24097">
        <ele>883.7</ele>
        <time>2020-07-19T14:23:31Z</time>
      </trkpt>
      <trkpt lat="44.24867" lon="3.24099">
        <ele>884</ele>
        <time>2020-07-19T14:23:33Z</time>
      </trkpt>
      <trkpt lat="44.24871" lon="3.24102">
        <ele>884.2</ele>
        <time>2020-07-19T14:23:35Z</time>
      </trkpt>
      <trkpt lat="44.24876" lon="3.24105">
        <ele>884.6</ele>
        <time>2020-07-19T14:23:37Z</time>
      </trkpt>
      <trkpt lat="44.2488" lon="3.24107">
        <ele>884.8</ele>
        <time>2020-07-19T14:23:39Z</time>
      </trkpt>
      <trkpt lat="44.24884" lon="3.2411">
        <ele>885</ele>
        <time>2020-07-19T14:23:41Z</time>
      </trkpt>
      <trkpt lat="44.24885" lon="3.24111">
        <ele>885</ele>
        <time>2020-07-19T14:23:42Z</time>
      </trkpt>
      <trkpt lat="44.24888" lon="3.24113">
        <ele>885.2</ele>
        <time>2020-07-19T14:23:44Z</time>
      </trkpt>
      <trkpt lat="44.24891" lon="3.24117">
        <ele>885.3</ele>
        <time>2020-07-19T14:23:45Z</time>
      </trkpt>
      <trkpt lat="44.24892" lon="3.24118">
        <ele>885.4</ele>
        <time>2020-07-19T14:23:46Z</time>
      </trkpt>
      <trkpt lat="44.24894" lon="3.24124">
        <ele>885.5</ele>
        <time>2020-07-19T14:23:48Z</time>
      </trkpt>
      <trkpt lat="44.24896" lon="3.24129">
        <ele>885.7</ele>
        <time>2020-07-19T14:23:50Z</time>
      </trkpt>
      <trkpt lat="44.24897" lon="3.24132">
        <ele>885.7</ele>
        <time>2020-07-19T14:23:51Z</time>
      </trkpt>
      <trkpt lat="44.24898" lon="3.24138">
        <ele>885.9</ele>
        <time>2020-07-19T14:23:53Z</time>
      </trkpt>
      <trkpt lat="44.24899" lon="3.24145">
        <ele>886</ele>
        <time>2020-07-19T14:23:55Z</time>
      </trkpt>
      <trkpt lat="44.24899" lon="3.24148">
        <ele>886.1</ele>
        <time>2020-07-19T14:23:56Z</time>
      </trkpt>
      <trkpt lat="44.24898" lon="3.24157">
        <ele>886.2</ele>
        <time>2020-07-19T14:23:58Z</time>
      </trkpt>
      <trkpt lat="44.24898" lon="3.24161">
        <ele>886.3</ele>
        <time>2020-07-19T14:23:59Z</time>
      </trkpt>
      <trkpt lat="44.24899" lon="3.24168">
        <ele>886.4</ele>
        <time>2020-07-19T14:24:01Z</time>
      </trkpt>
      <trkpt lat="44.249" lon="3.24175">
        <ele>886.5</ele>
        <time>2020-07-19T14:24:03Z</time>
      </trkpt>
      <trkpt lat="44.249" lon="3.24179">
        <ele>886.6</ele>
        <time>2020-07-19T14:24:04Z</time>
      </trkpt>
      <trkpt lat="44.249" lon="3.24184">
        <ele>886.6</ele>
        <time>2020-07-19T14:24:05Z</time>
      </trkpt>
      <trkpt lat="44.249" lon="3.24191">
        <ele>886.7</ele>
        <time>2020-07-19T14:24:06Z</time>
      </trkpt>
      <trkpt lat="44.249" lon="3.24193">
        <ele>886.7</ele>
        <time>2020-07-19T14:24:07Z</time>
      </trkpt>
      <trkpt lat="44.249" lon="3.24197">
        <ele>886.8</ele>
        <time>2020-07-19T14:24:08Z</time>
      </trkpt>
      <trkpt lat="44.24899" lon="3.24205">
        <ele>886.8</ele>
        <time>2020-07-19T14:24:10Z</time>
      </trkpt>
      <trkpt lat="44.24899" lon="3.24211">
        <ele>886.8</ele>
        <time>2020-07-19T14:24:11Z</time>
      </trkpt>
      <trkpt lat="44.24898" lon="3.24215">
        <ele>886.9</ele>
        <time>2020-07-19T14:24:12Z</time>
      </trkpt>
      <trkpt lat="44.24897" lon="3.24221">
        <ele>886.9</ele>
        <time>2020-07-19T14:24:14Z</time>
      </trkpt>
      <trkpt lat="44.24897" lon="3.24225">
        <ele>886.9</ele>
        <time>2020-07-19T14:24:15Z</time>
      </trkpt>
      <trkpt lat="44.24896" lon="3.2423">
        <ele>886.9</ele>
        <time>2020-07-19T14:24:17Z</time>
      </trkpt>
      <trkpt lat="44.24896" lon="3.24235">
        <ele>886.9</ele>
        <time>2020-07-19T14:24:18Z</time>
      </trkpt>
      <trkpt lat="44.24896" lon="3.24237">
        <ele>887</ele>
        <time>2020-07-19T14:24:19Z</time>
      </trkpt>
      <trkpt lat="44.24896" lon="3.2424">
        <ele>887</ele>
        <time>2020-07-19T14:24:20Z</time>
      </trkpt>
      <trkpt lat="44.24896" lon="3.24246">
        <ele>887</ele>
        <time>2020-07-19T14:24:22Z</time>
      </trkpt>
      <trkpt lat="44.24895" lon="3.2425">
        <ele>887.1</ele>
        <time>2020-07-19T14:24:23Z</time>
      </trkpt>
      <trkpt lat="44.24895" lon="3.24251">
        <ele>887.1</ele>
        <time>2020-07-19T14:24:24Z</time>
      </trkpt>
      <trkpt lat="44.24895" lon="3.24258">
        <ele>887.1</ele>
        <time>2020-07-19T14:24:26Z</time>
      </trkpt>
      <trkpt lat="44.24896" lon="3.24261">
        <ele>887.2</ele>
        <time>2020-07-19T14:24:27Z</time>
      </trkpt>
      <trkpt lat="44.24897" lon="3.24268">
        <ele>887.2</ele>
        <time>2020-07-19T14:24:29Z</time>
      </trkpt>
      <trkpt lat="44.24898" lon="3.24278">
        <ele>887.2</ele>
        <time>2020-07-19T14:24:31Z</time>
      </trkpt>
      <trkpt lat="44.24899" lon="3.24287">
        <ele>887.2</ele>
        <time>2020-07-19T14:24:33Z</time>
      </trkpt>
      <trkpt lat="44.249" lon="3.24293">
        <ele>887.3</ele>
        <time>2020-07-19T14:24:34Z</time>
      </trkpt>
      <trkpt lat="44.24903" lon="3.24302">
        <ele>887.3</ele>
        <time>2020-07-19T14:24:36Z</time>
      </trkpt>
      <trkpt lat="44.24905" lon="3.24307">
        <ele>887.4</ele>
        <time>2020-07-19T14:24:37Z</time>
      </trkpt>
      <trkpt lat="44.24907" lon="3.24315">
        <ele>887.4</ele>
        <time>2020-07-19T14:24:39Z</time>
      </trkpt>
      <trkpt lat="44.24908" lon="3.2432">
        <ele>887.5</ele>
        <time>2020-07-19T14:24:40Z</time>
      </trkpt>
      <trkpt lat="44.2491" lon="3.24324">
        <ele>887.5</ele>
        <time>2020-07-19T14:24:41Z</time>
      </trkpt>
      <trkpt lat="44.24913" lon="3.24331">
        <ele>887.6</ele>
        <time>2020-07-19T14:24:43Z</time>
      </trkpt>
      <trkpt lat="44.24914" lon="3.24335">
        <ele>887.6</ele>
        <time>2020-07-19T14:24:44Z</time>
      </trkpt>
      <trkpt lat="44.24915" lon="3.24342">
        <ele>887.7</ele>
        <time>2020-07-19T14:24:46Z</time>
      </trkpt>
      <trkpt lat="44.24917" lon="3.24345">
        <ele>887.7</ele>
        <time>2020-07-19T14:24:47Z</time>
      </trkpt>
      <trkpt lat="44.24918" lon="3.24348">
        <ele>887.8</ele>
        <time>2020-07-19T14:24:49Z</time>
      </trkpt>
      <trkpt lat="44.24919" lon="3.24351">
        <ele>887.8</ele>
        <time>2020-07-19T14:24:50Z</time>
      </trkpt>
      <trkpt lat="44.24921" lon="3.24357">
        <ele>887.9</ele>
        <time>2020-07-19T14:24:51Z</time>
      </trkpt>
      <trkpt lat="44.24922" lon="3.24362">
        <ele>887.9</ele>
        <time>2020-07-19T14:24:52Z</time>
      </trkpt>
      <trkpt lat="44.24923" lon="3.24367">
        <ele>888</ele>
        <time>2020-07-19T14:24:53Z</time>
      </trkpt>
      <trkpt lat="44.24924" lon="3.24372">
        <ele>888</ele>
        <time>2020-07-19T14:24:54Z</time>
      </trkpt>
      <trkpt lat="44.24925" lon="3.24379">
        <ele>888.1</ele>
        <time>2020-07-19T14:24:56Z</time>
      </trkpt>
      <trkpt lat="44.24925" lon="3.24385">
        <ele>888.1</ele>
        <time>2020-07-19T14:24:57Z</time>
      </trkpt>
      <trkpt lat="44.24926" lon="3.24392">
        <ele>888.2</ele>
        <time>2020-07-19T14:24:58Z</time>
      </trkpt>
      <trkpt lat="44.24926" lon="3.24397">
        <ele>888.3</ele>
        <time>2020-07-19T14:24:59Z</time>
      </trkpt>
      <trkpt lat="44.24926" lon="3.24402">
        <ele>888.3</ele>
        <time>2020-07-19T14:25:00Z</time>
      </trkpt>
      <trkpt lat="44.24927" lon="3.2441">
        <ele>888.4</ele>
        <time>2020-07-19T14:25:02Z</time>
      </trkpt>
      <trkpt lat="44.24928" lon="3.24415">
        <ele>888.4</ele>
        <time>2020-07-19T14:25:03Z</time>
      </trkpt>
      <trkpt lat="44.24931" lon="3.24425">
        <ele>888.5</ele>
        <time>2020-07-19T14:25:05Z</time>
      </trkpt>
      <trkpt lat="44.24936" lon="3.24435">
        <ele>888.4</ele>
        <time>2020-07-19T14:25:06Z</time>
      </trkpt>
      <trkpt lat="44.24945" lon="3.24445">
        <ele>888.1</ele>
        <time>2020-07-19T14:25:08Z</time>
      </trkpt>
      <trkpt lat="44.24951" lon="3.24447">
        <ele>887.7</ele>
        <time>2020-07-19T14:25:09Z</time>
      </trkpt>
      <trkpt lat="44.24956" lon="3.24448">
        <ele>887.3</ele>
        <time>2020-07-19T14:25:10Z</time>
      </trkpt>
      <trkpt lat="44.24968" lon="3.24449">
        <ele>886.5</ele>
        <time>2020-07-19T14:25:12Z</time>
      </trkpt>
      <trkpt lat="44.24974" lon="3.24449">
        <ele>886</ele>
        <time>2020-07-19T14:25:13Z</time>
      </trkpt>
      <trkpt lat="44.24987" lon="3.24453">
        <ele>885</ele>
        <time>2020-07-19T14:25:15Z</time>
      </trkpt>
      <trkpt lat="44.24994" lon="3.24457">
        <ele>884.5</ele>
        <time>2020-07-19T14:25:16Z</time>
      </trkpt>
      <trkpt lat="44.25" lon="3.24461">
        <ele>884</ele>
        <time>2020-07-19T14:25:17Z</time>
      </trkpt>
      <trkpt lat="44.25012" lon="3.24473">
        <ele>882.9</ele>
        <time>2020-07-19T14:25:19Z</time>
      </trkpt>
      <trkpt lat="44.25025" lon="3.24486">
        <ele>881.7</ele>
        <time>2020-07-19T14:25:21Z</time>
      </trkpt>
      <trkpt lat="44.25033" lon="3.24504">
        <ele>880.5</ele>
        <time>2020-07-19T14:25:23Z</time>
      </trkpt>
      <trkpt lat="44.25036" lon="3.24528">
        <ele>879.3</ele>
        <time>2020-07-19T14:25:25Z</time>
      </trkpt>
      <trkpt lat="44.25036" lon="3.2454">
        <ele>878.7</ele>
        <time>2020-07-19T14:25:26Z</time>
      </trkpt>
      <trkpt lat="44.25039" lon="3.24565">
        <ele>878.1</ele>
        <time>2020-07-19T14:25:28Z</time>
      </trkpt>
      <trkpt lat="44.25042" lon="3.24577">
        <ele>877.7</ele>
        <time>2020-07-19T14:25:29Z</time>
      </trkpt>
      <trkpt lat="44.25052" lon="3.24599">
        <ele>877.1</ele>
        <time>2020-07-19T14:25:31Z</time>
      </trkpt>
      <trkpt lat="44.25065" lon="3.24614">
        <ele>877.4</ele>
        <time>2020-07-19T14:25:33Z</time>
      </trkpt>
      <trkpt lat="44.25077" lon="3.24624">
        <ele>877.8</ele>
        <time>2020-07-19T14:25:35Z</time>
      </trkpt>
      <trkpt lat="44.25087" lon="3.24625">
        <ele>878.3</ele>
        <time>2020-07-19T14:25:37Z</time>
      </trkpt>
      <trkpt lat="44.25096" lon="3.24625">
        <ele>878.8</ele>
        <time>2020-07-19T14:25:39Z</time>
      </trkpt>
      <trkpt lat="44.25103" lon="3.24622">
        <ele>879.3</ele>
        <time>2020-07-19T14:25:41Z</time>
      </trkpt>
      <trkpt lat="44.2511" lon="3.2462">
        <ele>879.7</ele>
        <time>2020-07-19T14:25:43Z</time>
      </trkpt>
      <trkpt lat="44.25115" lon="3.2462">
        <ele>879.9</ele>
        <time>2020-07-19T14:25:45Z</time>
      </trkpt>
      <trkpt lat="44.2512" lon="3.24619">
        <ele>880.2</ele>
        <time>2020-07-19T14:25:46Z</time>
      </trkpt>
      <trkpt lat="44.25124" lon="3.24619">
        <ele>880.4</ele>
        <time>2020-07-19T14:25:47Z</time>
      </trkpt>
      <trkpt lat="44.25127" lon="3.2462">
        <ele>880.6</ele>
        <time>2020-07-19T14:25:48Z</time>
      </trkpt>
      <trkpt lat="44.25132" lon="3.24617">
        <ele>880.8</ele>
        <time>2020-07-19T14:25:50Z</time>
      </trkpt>
      <trkpt lat="44.25136" lon="3.24616">
        <ele>881</ele>
        <time>2020-07-19T14:25:51Z</time>
      </trkpt>
      <trkpt lat="44.25139" lon="3.24615">
        <ele>881.2</ele>
        <time>2020-07-19T14:25:52Z</time>
      </trkpt>
      <trkpt lat="44.25144" lon="3.24615">
        <ele>881.4</ele>
        <time>2020-07-19T14:25:54Z</time>
      </trkpt>
      <trkpt lat="44.25147" lon="3.24615">
        <ele>881.5</ele>
        <time>2020-07-19T14:25:55Z</time>
      </trkpt>
      <trkpt lat="44.25151" lon="3.24614">
        <ele>881.7</ele>
        <time>2020-07-19T14:25:57Z</time>
      </trkpt>
      <trkpt lat="44.25154" lon="3.24614">
        <ele>881.9</ele>
        <time>2020-07-19T14:25:58Z</time>
      </trkpt>
      <trkpt lat="44.25159" lon="3.24614">
        <ele>882.1</ele>
        <time>2020-07-19T14:26:00Z</time>
      </trkpt>
      <trkpt lat="44.25163" lon="3.24614">
        <ele>882.3</ele>
        <time>2020-07-19T14:26:01Z</time>
      </trkpt>
      <trkpt lat="44.25168" lon="3.24614">
        <ele>882.6</ele>
        <time>2020-07-19T14:26:03Z</time>
      </trkpt>
      <trkpt lat="44.25173" lon="3.24614">
        <ele>882.8</ele>
        <time>2020-07-19T14:26:05Z</time>
      </trkpt>
      <trkpt lat="44.25175" lon="3.24613">
        <ele>882.9</ele>
        <time>2020-07-19T14:26:06Z</time>
      </trkpt>
      <trkpt lat="44.2518" lon="3.24613">
        <ele>883.1</ele>
        <time>2020-07-19T14:26:08Z</time>
      </trkpt>
      <trkpt lat="44.25185" lon="3.24613">
        <ele>883.3</ele>
        <time>2020-07-19T14:26:10Z</time>
      </trkpt>
      <trkpt lat="44.25189" lon="3.24613">
        <ele>883.5</ele>
        <time>2020-07-19T14:26:11Z</time>
      </trkpt>
      <trkpt lat="44.25191" lon="3.24613">
        <ele>883.6</ele>
        <time>2020-07-19T14:26:12Z</time>
      </trkpt>
      <trkpt lat="44.25196" lon="3.24611">
        <ele>883.9</ele>
        <time>2020-07-19T14:26:14Z</time>
      </trkpt>
      <trkpt lat="44.25198" lon="3.24611">
        <ele>884</ele>
        <time>2020-07-19T14:26:15Z</time>
      </trkpt>
      <trkpt lat="44.25202" lon="3.2461">
        <ele>884.2</ele>
        <time>2020-07-19T14:26:17Z</time>
      </trkpt>
      <trkpt lat="44.25206" lon="3.24609">
        <ele>884.4</ele>
        <time>2020-07-19T14:26:18Z</time>
      </trkpt>
      <trkpt lat="44.25208" lon="3.24609">
        <ele>884.5</ele>
        <time>2020-07-19T14:26:19Z</time>
      </trkpt>
      <trkpt lat="44.25212" lon="3.24608">
        <ele>884.8</ele>
        <time>2020-07-19T14:26:21Z</time>
      </trkpt>
      <trkpt lat="44.25217" lon="3.24608">
        <ele>885</ele>
        <time>2020-07-19T14:26:22Z</time>
      </trkpt>
      <trkpt lat="44.25221" lon="3.24606">
        <ele>885.3</ele>
        <time>2020-07-19T14:26:24Z</time>
      </trkpt>
      <trkpt lat="44.25224" lon="3.24604">
        <ele>885.5</ele>
        <time>2020-07-19T14:26:25Z</time>
      </trkpt>
      <trkpt lat="44.25228" lon="3.24602">
        <ele>885.8</ele>
        <time>2020-07-19T14:26:27Z</time>
      </trkpt>
      <trkpt lat="44.25232" lon="3.24601">
        <ele>886</ele>
        <time>2020-07-19T14:26:29Z</time>
      </trkpt>
      <trkpt lat="44.25236" lon="3.246">
        <ele>886.2</ele>
        <time>2020-07-19T14:26:30Z</time>
      </trkpt>
      <trkpt lat="44.25238" lon="3.24599">
        <ele>886.3</ele>
        <time>2020-07-19T14:26:31Z</time>
      </trkpt>
      <trkpt lat="44.25242" lon="3.24598">
        <ele>886.4</ele>
        <time>2020-07-19T14:26:33Z</time>
      </trkpt>
      <trkpt lat="44.25246" lon="3.24597">
        <ele>886.6</ele>
        <time>2020-07-19T14:26:34Z</time>
      </trkpt>
      <trkpt lat="44.25247" lon="3.24597">
        <ele>886.7</ele>
        <time>2020-07-19T14:26:35Z</time>
      </trkpt>
      <trkpt lat="44.25252" lon="3.24595">
        <ele>886.9</ele>
        <time>2020-07-19T14:26:37Z</time>
      </trkpt>
      <trkpt lat="44.25257" lon="3.24594">
        <ele>887.1</ele>
        <time>2020-07-19T14:26:39Z</time>
      </trkpt>
      <trkpt lat="44.25262" lon="3.24594">
        <ele>887.3</ele>
        <time>2020-07-19T14:26:41Z</time>
      </trkpt>
      <trkpt lat="44.25265" lon="3.24594">
        <ele>887.5</ele>
        <time>2020-07-19T14:26:43Z</time>
      </trkpt>
      <trkpt lat="44.25267" lon="3.24594">
        <ele>887.6</ele>
        <time>2020-07-19T14:26:44Z</time>
      </trkpt>
      <trkpt lat="44.25272" lon="3.24593">
        <ele>887.8</ele>
        <time>2020-07-19T14:26:46Z</time>
      </trkpt>
      <trkpt lat="44.25276" lon="3.24594">
        <ele>887.9</ele>
        <time>2020-07-19T14:26:48Z</time>
      </trkpt>
      <trkpt lat="44.25279" lon="3.24595">
        <ele>888.1</ele>
        <time>2020-07-19T14:26:49Z</time>
      </trkpt>
      <trkpt lat="44.2528" lon="3.24596">
        <ele>888.1</ele>
        <time>2020-07-19T14:26:50Z</time>
      </trkpt>
      <trkpt lat="44.25284" lon="3.24597">
        <ele>888.3</ele>
        <time>2020-07-19T14:26:52Z</time>
      </trkpt>
      <trkpt lat="44.25288" lon="3.24599">
        <ele>888.5</ele>
        <time>2020-07-19T14:26:53Z</time>
      </trkpt>
      <trkpt lat="44.25291" lon="3.246">
        <ele>888.6</ele>
        <time>2020-07-19T14:26:54Z</time>
      </trkpt>
      <trkpt lat="44.25293" lon="3.24601">
        <ele>888.7</ele>
        <time>2020-07-19T14:26:55Z</time>
      </trkpt>
      <trkpt lat="44.25297" lon="3.24604">
        <ele>888.9</ele>
        <time>2020-07-19T14:26:57Z</time>
      </trkpt>
      <trkpt lat="44.25301" lon="3.24606">
        <ele>889.1</ele>
        <time>2020-07-19T14:26:58Z</time>
      </trkpt>
      <trkpt lat="44.25304" lon="3.24608">
        <ele>889.3</ele>
        <time>2020-07-19T14:26:59Z</time>
      </trkpt>
      <trkpt lat="44.25306" lon="3.24609">
        <ele>889.4</ele>
        <time>2020-07-19T14:27:00Z</time>
      </trkpt>
      <trkpt lat="44.25311" lon="3.24613">
        <ele>889.7</ele>
        <time>2020-07-19T14:27:02Z</time>
      </trkpt>
      <trkpt lat="44.25313" lon="3.24615">
        <ele>889.8</ele>
        <time>2020-07-19T14:27:03Z</time>
      </trkpt>
      <trkpt lat="44.25317" lon="3.24617">
        <ele>890</ele>
        <time>2020-07-19T14:27:04Z</time>
      </trkpt>
      <trkpt lat="44.25322" lon="3.24619">
        <ele>890.4</ele>
        <time>2020-07-19T14:27:06Z</time>
      </trkpt>
      <trkpt lat="44.25326" lon="3.24621">
        <ele>890.6</ele>
        <time>2020-07-19T14:27:08Z</time>
      </trkpt>
      <trkpt lat="44.2533" lon="3.24622">
        <ele>890.8</ele>
        <time>2020-07-19T14:27:09Z</time>
      </trkpt>
      <trkpt lat="44.25337" lon="3.24623">
        <ele>891.1</ele>
        <time>2020-07-19T14:27:11Z</time>
      </trkpt>
      <trkpt lat="44.25339" lon="3.24623">
        <ele>891.2</ele>
        <time>2020-07-19T14:27:12Z</time>
      </trkpt>
      <trkpt lat="44.25345" lon="3.24623">
        <ele>891.5</ele>
        <time>2020-07-19T14:27:14Z</time>
      </trkpt>
      <trkpt lat="44.25349" lon="3.24623">
        <ele>891.7</ele>
        <time>2020-07-19T14:27:15Z</time>
      </trkpt>
      <trkpt lat="44.2535" lon="3.24623">
        <ele>891.8</ele>
        <time>2020-07-19T14:27:16Z</time>
      </trkpt>
      <trkpt lat="44.25354" lon="3.24624">
        <ele>892</ele>
        <time>2020-07-19T14:27:17Z</time>
      </trkpt>
      <trkpt lat="44.25358" lon="3.24625">
        <ele>892.2</ele>
        <time>2020-07-19T14:27:19Z</time>
      </trkpt>
      <trkpt lat="44.25364" lon="3.24624">
        <ele>892.5</ele>
        <time>2020-07-19T14:27:21Z</time>
      </trkpt>
      <trkpt lat="44.25368" lon="3.24624">
        <ele>892.8</ele>
        <time>2020-07-19T14:27:22Z</time>
      </trkpt>
      <trkpt lat="44.25373" lon="3.24623">
        <ele>893.1</ele>
        <time>2020-07-19T14:27:24Z</time>
      </trkpt>
      <trkpt lat="44.25377" lon="3.24623">
        <ele>893.3</ele>
        <time>2020-07-19T14:27:25Z</time>
      </trkpt>
      <trkpt lat="44.2538" lon="3.24624">
        <ele>893.4</ele>
        <time>2020-07-19T14:27:26Z</time>
      </trkpt>
      <trkpt lat="44.25386" lon="3.24625">
        <ele>893.8</ele>
        <time>2020-07-19T14:27:28Z</time>
      </trkpt>
      <trkpt lat="44.2539" lon="3.24626">
        <ele>894</ele>
        <time>2020-07-19T14:27:29Z</time>
      </trkpt>
      <trkpt lat="44.25398" lon="3.24627">
        <ele>894.4</ele>
        <time>2020-07-19T14:27:31Z</time>
      </trkpt>
      <trkpt lat="44.25401" lon="3.24627">
        <ele>894.5</ele>
        <time>2020-07-19T14:27:32Z</time>
      </trkpt>
      <trkpt lat="44.25405" lon="3.24628">
        <ele>894.7</ele>
        <time>2020-07-19T14:27:34Z</time>
      </trkpt>
      <trkpt lat="44.2541" lon="3.24629">
        <ele>894.9</ele>
        <time>2020-07-19T14:27:35Z</time>
      </trkpt>
      <trkpt lat="44.25413" lon="3.24629">
        <ele>895</ele>
        <time>2020-07-19T14:27:36Z</time>
      </trkpt>
      <trkpt lat="44.25418" lon="3.2463">
        <ele>895.2</ele>
        <time>2020-07-19T14:27:38Z</time>
      </trkpt>
      <trkpt lat="44.25422" lon="3.2463">
        <ele>895.4</ele>
        <time>2020-07-19T14:27:39Z</time>
      </trkpt>
      <trkpt lat="44.25425" lon="3.2463">
        <ele>895.5</ele>
        <time>2020-07-19T14:27:40Z</time>
      </trkpt>
      <trkpt lat="44.25431" lon="3.2463">
        <ele>895.8</ele>
        <time>2020-07-19T14:27:42Z</time>
      </trkpt>
      <trkpt lat="44.25435" lon="3.2463">
        <ele>896</ele>
        <time>2020-07-19T14:27:44Z</time>
      </trkpt>
      <trkpt lat="44.2544" lon="3.2463">
        <ele>896.2</ele>
        <time>2020-07-19T14:27:45Z</time>
      </trkpt>
      <trkpt lat="44.25445" lon="3.2463">
        <ele>896.4</ele>
        <time>2020-07-19T14:27:47Z</time>
      </trkpt>
      <trkpt lat="44.25449" lon="3.24631">
        <ele>896.5</ele>
        <time>2020-07-19T14:27:49Z</time>
      </trkpt>
      <trkpt lat="44.25452" lon="3.24631">
        <ele>896.7</ele>
        <time>2020-07-19T14:27:50Z</time>
      </trkpt>
      <trkpt lat="44.25455" lon="3.24632">
        <ele>896.8</ele>
        <time>2020-07-19T14:27:51Z</time>
      </trkpt>
      <trkpt lat="44.25458" lon="3.24632">
        <ele>896.9</ele>
        <time>2020-07-19T14:27:52Z</time>
      </trkpt>
      <trkpt lat="44.25462" lon="3.24633">
        <ele>897.1</ele>
        <time>2020-07-19T14:27:53Z</time>
      </trkpt>
      <trkpt lat="44.25466" lon="3.24633">
        <ele>897.2</ele>
        <time>2020-07-19T14:27:55Z</time>
      </trkpt>
      <trkpt lat="44.25471" lon="3.24635">
        <ele>897.4</ele>
        <time>2020-07-19T14:27:57Z</time>
      </trkpt>
      <trkpt lat="44.25475" lon="3.24636">
        <ele>897.6</ele>
        <time>2020-07-19T14:27:58Z</time>
      </trkpt>
      <trkpt lat="44.2548" lon="3.24637">
        <ele>897.7</ele>
        <time>2020-07-19T14:28:00Z</time>
      </trkpt>
      <trkpt lat="44.25483" lon="3.24639">
        <ele>897.8</ele>
        <time>2020-07-19T14:28:01Z</time>
      </trkpt>
      <trkpt lat="44.25484" lon="3.24639">
        <ele>897.8</ele>
        <time>2020-07-19T14:28:02Z</time>
      </trkpt>
      <trkpt lat="44.25485" lon="3.24639">
        <ele>897.9</ele>
        <time>2020-07-19T14:28:04Z</time>
      </trkpt>
      <trkpt lat="44.25486" lon="3.24639">
        <ele>897.9</ele>
        <time>2020-07-19T14:28:05Z</time>
      </trkpt>
      <trkpt lat="44.25486" lon="3.2464">
        <ele>897.9</ele>
        <time>2020-07-19T14:28:07Z</time>
      </trkpt>
      <trkpt lat="44.25486" lon="3.2464">
        <ele>897.9</ele>
        <time>2020-07-19T14:28:08Z</time>
      </trkpt>
      <trkpt lat="44.25486" lon="3.2464">
        <ele>897.9</ele>
        <time>2020-07-19T14:28:10Z</time>
      </trkpt>
      <trkpt lat="44.25487" lon="3.24641">
        <ele>897.9</ele>
        <time>2020-07-19T14:28:11Z</time>
      </trkpt>
      <trkpt lat="44.25487" lon="3.24641">
        <ele>897.9</ele>
        <time>2020-07-19T14:28:12Z</time>
      </trkpt>
      <trkpt lat="44.25487" lon="3.24641">
        <ele>897.9</ele>
        <time>2020-07-19T14:28:55Z</time>
      </trkpt>
      <trkpt lat="44.25487" lon="3.24642">
        <ele>897.9</ele>
        <time>2020-07-19T14:28:57Z</time>
      </trkpt>
      <trkpt lat="44.25488" lon="3.24642">
        <ele>898</ele>
        <time>2020-07-19T14:28:58Z</time>
      </trkpt>
      <trkpt lat="44.25488" lon="3.24642">
        <ele>898</ele>
        <time>2020-07-19T14:29:00Z</time>
      </trkpt>
      <trkpt lat="44.25488" lon="3.24643">
        <ele>898</ele>
        <time>2020-07-19T14:29:01Z</time>
      </trkpt>
      <trkpt lat="44.25488" lon="3.24643">
        <ele>898</ele>
        <time>2020-07-19T14:29:02Z</time>
      </trkpt>
      <trkpt lat="44.25488" lon="3.24643">
        <ele>898</ele>
        <time>2020-07-19T14:29:04Z</time>
      </trkpt>
      <trkpt lat="44.25489" lon="3.24644">
        <ele>898</ele>
        <time>2020-07-19T14:29:05Z</time>
      </trkpt>
      <trkpt lat="44.25489" lon="3.24644">
        <ele>898</ele>
        <time>2020-07-19T14:29:07Z</time>
      </trkpt>
      <trkpt lat="44.25489" lon="3.24644">
        <ele>898</ele>
        <time>2020-07-19T14:30:04Z</time>
      </trkpt>
      <trkpt lat="44.25489" lon="3.24645">
        <ele>898</ele>
        <time>2020-07-19T14:30:05Z</time>
      </trkpt>
      <trkpt lat="44.2549" lon="3.24645">
        <ele>898</ele>
        <time>2020-07-19T14:30:07Z</time>
      </trkpt>
      <trkpt lat="44.2549" lon="3.24645">
        <ele>898</ele>
        <time>2020-07-19T14:30:08Z</time>
      </trkpt>
      <trkpt lat="44.2549" lon="3.24646">
        <ele>898.1</ele>
        <time>2020-07-19T14:30:10Z</time>
      </trkpt>
      <trkpt lat="44.2549" lon="3.24646">
        <ele>898.1</ele>
        <time>2020-07-19T14:30:12Z</time>
      </trkpt>
      <trkpt lat="44.25491" lon="3.24647">
        <ele>898.1</ele>
        <time>2020-07-19T14:30:13Z</time>
      </trkpt>
      <trkpt lat="44.25491" lon="3.24647">
        <ele>898.1</ele>
        <time>2020-07-19T14:30:14Z</time>
      </trkpt>
      <trkpt lat="44.25491" lon="3.24647">
        <ele>898.1</ele>
        <time>2020-07-19T14:30:16Z</time>
      </trkpt>
      <trkpt lat="44.25491" lon="3.24648">
        <ele>898.1</ele>
        <time>2020-07-19T14:30:17Z</time>
      </trkpt>
      <trkpt lat="44.25492" lon="3.24648">
        <ele>898.1</ele>
        <time>2020-07-19T14:31:30Z</time>
      </trkpt>
      <trkpt lat="44.25492" lon="3.24648">
        <ele>898.1</ele>
        <time>2020-07-19T14:31:31Z</time>
      </trkpt>
      <trkpt lat="44.25492" lon="3.24649">
        <ele>898.1</ele>
        <time>2020-07-19T14:31:32Z</time>
      </trkpt>
      <trkpt lat="44.25492" lon="3.24649">
        <ele>898.1</ele>
        <time>2020-07-19T14:31:33Z</time>
      </trkpt>
      <trkpt lat="44.25493" lon="3.24649">
        <ele>898.1</ele>
        <time>2020-07-19T14:31:35Z</time>
      </trkpt>
      <trkpt lat="44.25493" lon="3.2465">
        <ele>898.1</ele>
        <time>2020-07-19T14:31:36Z</time>
      </trkpt>
      <trkpt lat="44.25497" lon="3.24651">
        <ele>898.2</ele>
        <time>2020-07-19T14:31:38Z</time>
      </trkpt>
      <trkpt lat="44.25498" lon="3.24651">
        <ele>898.2</ele>
        <time>2020-07-19T14:31:40Z</time>
      </trkpt>
      <trkpt lat="44.25499" lon="3.24652">
        <ele>898.2</ele>
        <time>2020-07-19T14:31:41Z</time>
      </trkpt>
      <trkpt lat="44.25501" lon="3.24653">
        <ele>898.3</ele>
        <time>2020-07-19T14:31:42Z</time>
      </trkpt>
      <trkpt lat="44.25507" lon="3.24659">
        <ele>898.3</ele>
        <time>2020-07-19T14:31:44Z</time>
      </trkpt>
      <trkpt lat="44.2551" lon="3.24663">
        <ele>898.3</ele>
        <time>2020-07-19T14:31:45Z</time>
      </trkpt>
      <trkpt lat="44.25518" lon="3.2467">
        <ele>898.4</ele>
        <time>2020-07-19T14:31:47Z</time>
      </trkpt>
      <trkpt lat="44.25524" lon="3.24675">
        <ele>898.4</ele>
        <time>2020-07-19T14:31:49Z</time>
      </trkpt>
      <trkpt lat="44.25527" lon="3.24678">
        <ele>898.3</ele>
        <time>2020-07-19T14:31:50Z</time>
      </trkpt>
      <trkpt lat="44.25532" lon="3.24683">
        <ele>898.3</ele>
        <time>2020-07-19T14:31:52Z</time>
      </trkpt>
      <trkpt lat="44.25537" lon="3.24688">
        <ele>898.3</ele>
        <time>2020-07-19T14:31:53Z</time>
      </trkpt>
      <trkpt lat="44.25541" lon="3.24693">
        <ele>898.2</ele>
        <time>2020-07-19T14:31:55Z</time>
      </trkpt>
      <trkpt lat="44.25546" lon="3.24696">
        <ele>898.2</ele>
        <time>2020-07-19T14:31:56Z</time>
      </trkpt>
      <trkpt lat="44.25551" lon="3.24699">
        <ele>898.1</ele>
        <time>2020-07-19T14:31:57Z</time>
      </trkpt>
      <trkpt lat="44.25556" lon="3.24701">
        <ele>898.1</ele>
        <time>2020-07-19T14:31:58Z</time>
      </trkpt>
      <trkpt lat="44.25561" lon="3.24703">
        <ele>898</ele>
        <time>2020-07-19T14:31:59Z</time>
      </trkpt>
      <trkpt lat="44.25569" lon="3.24705">
        <ele>897.9</ele>
        <time>2020-07-19T14:32:01Z</time>
      </trkpt>
      <trkpt lat="44.25573" lon="3.24706">
        <ele>897.8</ele>
        <time>2020-07-19T14:32:02Z</time>
      </trkpt>
      <trkpt lat="44.25578" lon="3.24707">
        <ele>897.8</ele>
        <time>2020-07-19T14:32:03Z</time>
      </trkpt>
      <trkpt lat="44.25583" lon="3.24708">
        <ele>897.8</ele>
        <time>2020-07-19T14:32:04Z</time>
      </trkpt>
      <trkpt lat="44.25589" lon="3.2471">
        <ele>897.7</ele>
        <time>2020-07-19T14:32:05Z</time>
      </trkpt>
      <trkpt lat="44.25594" lon="3.24712">
        <ele>897.7</ele>
        <time>2020-07-19T14:32:07Z</time>
      </trkpt>
      <trkpt lat="44.25601" lon="3.24715">
        <ele>897.7</ele>
        <time>2020-07-19T14:32:08Z</time>
      </trkpt>
      <trkpt lat="44.25606" lon="3.24719">
        <ele>897.7</ele>
        <time>2020-07-19T14:32:09Z</time>
      </trkpt>
      <trkpt lat="44.25611" lon="3.24723">
        <ele>897.7</ele>
        <time>2020-07-19T14:32:10Z</time>
      </trkpt>
      <trkpt lat="44.2562" lon="3.2473">
        <ele>897.7</ele>
        <time>2020-07-19T14:32:12Z</time>
      </trkpt>
      <trkpt lat="44.25623" lon="3.24733">
        <ele>897.6</ele>
        <time>2020-07-19T14:32:14Z</time>
      </trkpt>
      <trkpt lat="44.25628" lon="3.24736">
        <ele>897.6</ele>
        <time>2020-07-19T14:32:15Z</time>
      </trkpt>
      <trkpt lat="44.25638" lon="3.2474">
        <ele>897.7</ele>
        <time>2020-07-19T14:32:16Z</time>
      </trkpt>
      <trkpt lat="44.25642" lon="3.24742">
        <ele>897.7</ele>
        <time>2020-07-19T14:32:17Z</time>
      </trkpt>
      <trkpt lat="44.25648" lon="3.24742">
        <ele>897.7</ele>
        <time>2020-07-19T14:32:18Z</time>
      </trkpt>
      <trkpt lat="44.25658" lon="3.24742">
        <ele>897.7</ele>
        <time>2020-07-19T14:32:20Z</time>
      </trkpt>
      <trkpt lat="44.25664" lon="3.24742">
        <ele>897.7</ele>
        <time>2020-07-19T14:32:21Z</time>
      </trkpt>
      <trkpt lat="44.25674" lon="3.2474">
        <ele>897.6</ele>
        <time>2020-07-19T14:32:23Z</time>
      </trkpt>
      <trkpt lat="44.25679" lon="3.24738">
        <ele>897.6</ele>
        <time>2020-07-19T14:32:24Z</time>
      </trkpt>
      <trkpt lat="44.25687" lon="3.24734">
        <ele>897.6</ele>
        <time>2020-07-19T14:32:26Z</time>
      </trkpt>
      <trkpt lat="44.25692" lon="3.24731">
        <ele>897.6</ele>
        <time>2020-07-19T14:32:27Z</time>
      </trkpt>
      <trkpt lat="44.25699" lon="3.24727">
        <ele>897.6</ele>
        <time>2020-07-19T14:32:29Z</time>
      </trkpt>
      <trkpt lat="44.25704" lon="3.24723">
        <ele>897.6</ele>
        <time>2020-07-19T14:32:30Z</time>
      </trkpt>
      <trkpt lat="44.25708" lon="3.2472">
        <ele>897.5</ele>
        <time>2020-07-19T14:32:31Z</time>
      </trkpt>
      <trkpt lat="44.25718" lon="3.24714">
        <ele>897.4</ele>
        <time>2020-07-19T14:32:33Z</time>
      </trkpt>
      <trkpt lat="44.25723" lon="3.24711">
        <ele>897.4</ele>
        <time>2020-07-19T14:32:34Z</time>
      </trkpt>
      <trkpt lat="44.25733" lon="3.24707">
        <ele>897.2</ele>
        <time>2020-07-19T14:32:36Z</time>
      </trkpt>
      <trkpt lat="44.25742" lon="3.24703">
        <ele>897.1</ele>
        <time>2020-07-19T14:32:38Z</time>
      </trkpt>
      <trkpt lat="44.25747" lon="3.24701">
        <ele>897</ele>
        <time>2020-07-19T14:32:39Z</time>
      </trkpt>
      <trkpt lat="44.25752" lon="3.247">
        <ele>896.9</ele>
        <time>2020-07-19T14:32:40Z</time>
      </trkpt>
      <trkpt lat="44.25757" lon="3.24699">
        <ele>896.9</ele>
        <time>2020-07-19T14:32:41Z</time>
      </trkpt>
      <trkpt lat="44.25762" lon="3.24698">
        <ele>896.8</ele>
        <time>2020-07-19T14:32:42Z</time>
      </trkpt>
      <trkpt lat="44.25767" lon="3.24698">
        <ele>896.7</ele>
        <time>2020-07-19T14:32:43Z</time>
      </trkpt>
      <trkpt lat="44.25773" lon="3.24699">
        <ele>896.7</ele>
        <time>2020-07-19T14:32:44Z</time>
      </trkpt>
      <trkpt lat="44.25784" lon="3.24702">
        <ele>896.5</ele>
        <time>2020-07-19T14:32:46Z</time>
      </trkpt>
      <trkpt lat="44.2579" lon="3.24705">
        <ele>896.4</ele>
        <time>2020-07-19T14:32:47Z</time>
      </trkpt>
      <trkpt lat="44.25801" lon="3.2471">
        <ele>896.3</ele>
        <time>2020-07-19T14:32:49Z</time>
      </trkpt>
      <trkpt lat="44.25812" lon="3.24715">
        <ele>896.1</ele>
        <time>2020-07-19T14:32:51Z</time>
      </trkpt>
      <trkpt lat="44.25824" lon="3.24719">
        <ele>895.9</ele>
        <time>2020-07-19T14:32:53Z</time>
      </trkpt>
      <trkpt lat="44.2583" lon="3.24721">
        <ele>895.9</ele>
        <time>2020-07-19T14:32:54Z</time>
      </trkpt>
      <trkpt lat="44.25841" lon="3.24726">
        <ele>895.8</ele>
        <time>2020-07-19T14:32:56Z</time>
      </trkpt>
      <trkpt lat="44.25853" lon="3.24731">
        <ele>895.9</ele>
        <time>2020-07-19T14:32:58Z</time>
      </trkpt>
      <trkpt lat="44.2586" lon="3.24732">
        <ele>897.1</ele>
        <time>2020-07-19T14:32:59Z</time>
      </trkpt>
      <trkpt lat="44.25873" lon="3.2474">
        <ele>898.9</ele>
        <time>2020-07-19T14:33:01Z</time>
      </trkpt>
      <trkpt lat="44.2588" lon="3.24744">
        <ele>898.9</ele>
        <time>2020-07-19T14:33:02Z</time>
      </trkpt>
      <trkpt lat="44.25892" lon="3.24749">
        <ele>898.6</ele>
        <time>2020-07-19T14:33:04Z</time>
      </trkpt>
      <trkpt lat="44.25898" lon="3.24753">
        <ele>898.4</ele>
        <time>2020-07-19T14:33:05Z</time>
      </trkpt>
      <trkpt lat="44.25911" lon="3.24762">
        <ele>898</ele>
        <time>2020-07-19T14:33:07Z</time>
      </trkpt>
      <trkpt lat="44.25921" lon="3.24774">
        <ele>897.6</ele>
        <time>2020-07-19T14:33:09Z</time>
      </trkpt>
      <trkpt lat="44.25926" lon="3.24781">
        <ele>897.3</ele>
        <time>2020-07-19T14:33:10Z</time>
      </trkpt>
      <trkpt lat="44.25937" lon="3.24791">
        <ele>897</ele>
        <time>2020-07-19T14:33:12Z</time>
      </trkpt>
      <trkpt lat="44.25952" lon="3.24799">
        <ele>896.5</ele>
        <time>2020-07-19T14:33:14Z</time>
      </trkpt>
      <trkpt lat="44.25966" lon="3.2481">
        <ele>896.2</ele>
        <time>2020-07-19T14:33:16Z</time>
      </trkpt>
      <trkpt lat="44.25976" lon="3.24826">
        <ele>896</ele>
        <time>2020-07-19T14:33:18Z</time>
      </trkpt>
      <trkpt lat="44.2599" lon="3.24831">
        <ele>895.9</ele>
        <time>2020-07-19T14:33:20Z</time>
      </trkpt>
      <trkpt lat="44.26003" lon="3.24823">
        <ele>895.9</ele>
        <time>2020-07-19T14:33:22Z</time>
      </trkpt>
      <trkpt lat="44.2601" lon="3.24807">
        <ele>895.8</ele>
        <time>2020-07-19T14:33:24Z</time>
      </trkpt>
      <trkpt lat="44.26013" lon="3.24799">
        <ele>895.8</ele>
        <time>2020-07-19T14:33:25Z</time>
      </trkpt>
      <trkpt lat="44.26017" lon="3.24782">
        <ele>895.7</ele>
        <time>2020-07-19T14:33:27Z</time>
      </trkpt>
      <trkpt lat="44.2602" lon="3.24775">
        <ele>895.7</ele>
        <time>2020-07-19T14:33:28Z</time>
      </trkpt>
      <trkpt lat="44.26026" lon="3.24761">
        <ele>895.8</ele>
        <time>2020-07-19T14:33:30Z</time>
      </trkpt>
      <trkpt lat="44.26032" lon="3.24748">
        <ele>895.9</ele>
        <time>2020-07-19T14:33:32Z</time>
      </trkpt>
      <trkpt lat="44.26036" lon="3.24742">
        <ele>895.9</ele>
        <time>2020-07-19T14:33:33Z</time>
      </trkpt>
      <trkpt lat="44.26043" lon="3.2473">
        <ele>895.9</ele>
        <time>2020-07-19T14:33:35Z</time>
      </trkpt>
      <trkpt lat="44.26046" lon="3.24724">
        <ele>895.9</ele>
        <time>2020-07-19T14:33:36Z</time>
      </trkpt>
      <trkpt lat="44.26049" lon="3.24718">
        <ele>896</ele>
        <time>2020-07-19T14:33:37Z</time>
      </trkpt>
      <trkpt lat="44.26053" lon="3.24713">
        <ele>896.1</ele>
        <time>2020-07-19T14:33:38Z</time>
      </trkpt>
      <trkpt lat="44.2606" lon="3.24701">
        <ele>896.2</ele>
        <time>2020-07-19T14:33:40Z</time>
      </trkpt>
      <trkpt lat="44.26066" lon="3.24689">
        <ele>896.3</ele>
        <time>2020-07-19T14:33:42Z</time>
      </trkpt>
      <trkpt lat="44.26073" lon="3.24678">
        <ele>896.4</ele>
        <time>2020-07-19T14:33:44Z</time>
      </trkpt>
      <trkpt lat="44.2608" lon="3.24669">
        <ele>896.4</ele>
        <time>2020-07-19T14:33:46Z</time>
      </trkpt>
      <trkpt lat="44.26087" lon="3.24659">
        <ele>896.5</ele>
        <time>2020-07-19T14:33:48Z</time>
      </trkpt>
      <trkpt lat="44.26091" lon="3.24654">
        <ele>896.5</ele>
        <time>2020-07-19T14:33:49Z</time>
      </trkpt>
      <trkpt lat="44.261" lon="3.24646">
        <ele>896.6</ele>
        <time>2020-07-19T14:33:51Z</time>
      </trkpt>
      <trkpt lat="44.26103" lon="3.24642">
        <ele>896.7</ele>
        <time>2020-07-19T14:33:52Z</time>
      </trkpt>
      <trkpt lat="44.26108" lon="3.24638">
        <ele>896.8</ele>
        <time>2020-07-19T14:33:53Z</time>
      </trkpt>
      <trkpt lat="44.26112" lon="3.24635">
        <ele>896.8</ele>
        <time>2020-07-19T14:33:54Z</time>
      </trkpt>
      <trkpt lat="44.2612" lon="3.24629">
        <ele>896.9</ele>
        <time>2020-07-19T14:33:56Z</time>
      </trkpt>
      <trkpt lat="44.26124" lon="3.24626">
        <ele>897</ele>
        <time>2020-07-19T14:33:57Z</time>
      </trkpt>
      <trkpt lat="44.26129" lon="3.24624">
        <ele>897</ele>
        <time>2020-07-19T14:33:58Z</time>
      </trkpt>
      <trkpt lat="44.26138" lon="3.24619">
        <ele>897</ele>
        <time>2020-07-19T14:34:00Z</time>
      </trkpt>
      <trkpt lat="44.2615" lon="3.24615">
        <ele>897.2</ele>
        <time>2020-07-19T14:34:02Z</time>
      </trkpt>
      <trkpt lat="44.26157" lon="3.24611">
        <ele>897.2</ele>
        <time>2020-07-19T14:34:04Z</time>
      </trkpt>
      <trkpt lat="44.26166" lon="3.24609">
        <ele>897.3</ele>
        <time>2020-07-19T14:34:06Z</time>
      </trkpt>
      <trkpt lat="44.26176" lon="3.24606">
        <ele>897.4</ele>
        <time>2020-07-19T14:34:08Z</time>
      </trkpt>
      <trkpt lat="44.2618" lon="3.24604">
        <ele>897.4</ele>
        <time>2020-07-19T14:34:09Z</time>
      </trkpt>
      <trkpt lat="44.26184" lon="3.24604">
        <ele>897.4</ele>
        <time>2020-07-19T14:34:10Z</time>
      </trkpt>
      <trkpt lat="44.26188" lon="3.24605">
        <ele>897.4</ele>
        <time>2020-07-19T14:34:11Z</time>
      </trkpt>
      <trkpt lat="44.26198" lon="3.24604">
        <ele>897.5</ele>
        <time>2020-07-19T14:34:13Z</time>
      </trkpt>
      <trkpt lat="44.26203" lon="3.24605">
        <ele>897.6</ele>
        <time>2020-07-19T14:34:14Z</time>
      </trkpt>
      <trkpt lat="44.26208" lon="3.24606">
        <ele>897.6</ele>
        <time>2020-07-19T14:34:15Z</time>
      </trkpt>
      <trkpt lat="44.26213" lon="3.24609">
        <ele>897.7</ele>
        <time>2020-07-19T14:34:16Z</time>
      </trkpt>
      <trkpt lat="44.26218" lon="3.24613">
        <ele>897.8</ele>
        <time>2020-07-19T14:34:17Z</time>
      </trkpt>
      <trkpt lat="44.26226" lon="3.24619">
        <ele>897.9</ele>
        <time>2020-07-19T14:34:19Z</time>
      </trkpt>
      <trkpt lat="44.2623" lon="3.24622">
        <ele>898</ele>
        <time>2020-07-19T14:34:20Z</time>
      </trkpt>
      <trkpt lat="44.26233" lon="3.24624">
        <ele>898.1</ele>
        <time>2020-07-19T14:34:21Z</time>
      </trkpt>
      <trkpt lat="44.26241" lon="3.24627">
        <ele>898.1</ele>
        <time>2020-07-19T14:34:23Z</time>
      </trkpt>
      <trkpt lat="44.26247" lon="3.24628">
        <ele>898.2</ele>
        <time>2020-07-19T14:34:25Z</time>
      </trkpt>
      <trkpt lat="44.26253" lon="3.2463">
        <ele>898.2</ele>
        <time>2020-07-19T14:34:26Z</time>
      </trkpt>
      <trkpt lat="44.26259" lon="3.24632">
        <ele>898.2</ele>
        <time>2020-07-19T14:34:28Z</time>
      </trkpt>
      <trkpt lat="44.26265" lon="3.24631">
        <ele>898.2</ele>
        <time>2020-07-19T14:34:29Z</time>
      </trkpt>
      <trkpt lat="44.26272" lon="3.24629">
        <ele>898.3</ele>
        <time>2020-07-19T14:34:31Z</time>
      </trkpt>
      <trkpt lat="44.26277" lon="3.24628">
        <ele>898.3</ele>
        <time>2020-07-19T14:34:32Z</time>
      </trkpt>
      <trkpt lat="44.26286" lon="3.24626">
        <ele>898.4</ele>
        <time>2020-07-19T14:34:33Z</time>
      </trkpt>
      <trkpt lat="44.26295" lon="3.24625">
        <ele>898.4</ele>
        <time>2020-07-19T14:34:35Z</time>
      </trkpt>
      <trkpt lat="44.26304" lon="3.24624">
        <ele>898.5</ele>
        <time>2020-07-19T14:34:37Z</time>
      </trkpt>
      <trkpt lat="44.26313" lon="3.24618">
        <ele>898.5</ele>
        <time>2020-07-19T14:34:39Z</time>
      </trkpt>
      <trkpt lat="44.26318" lon="3.24615">
        <ele>898.5</ele>
        <time>2020-07-19T14:34:40Z</time>
      </trkpt>
      <trkpt lat="44.26324" lon="3.2461">
        <ele>898.5</ele>
        <time>2020-07-19T14:34:42Z</time>
      </trkpt>
      <trkpt lat="44.26329" lon="3.24606">
        <ele>898.6</ele>
        <time>2020-07-19T14:34:44Z</time>
      </trkpt>
      <trkpt lat="44.26334" lon="3.24602">
        <ele>898.6</ele>
        <time>2020-07-19T14:34:45Z</time>
      </trkpt>
      <trkpt lat="44.2634" lon="3.24597">
        <ele>898.6</ele>
        <time>2020-07-19T14:34:47Z</time>
      </trkpt>
      <trkpt lat="44.26349" lon="3.24589">
        <ele>898.7</ele>
        <time>2020-07-19T14:34:48Z</time>
      </trkpt>
      <trkpt lat="44.26353" lon="3.24585">
        <ele>898.8</ele>
        <time>2020-07-19T14:34:49Z</time>
      </trkpt>
      <trkpt lat="44.26361" lon="3.24576">
        <ele>898.9</ele>
        <time>2020-07-19T14:34:51Z</time>
      </trkpt>
      <trkpt lat="44.26364" lon="3.24572">
        <ele>898.9</ele>
        <time>2020-07-19T14:34:52Z</time>
      </trkpt>
      <trkpt lat="44.26367" lon="3.24568">
        <ele>898.9</ele>
        <time>2020-07-19T14:34:53Z</time>
      </trkpt>
      <trkpt lat="44.26375" lon="3.24559">
        <ele>899</ele>
        <time>2020-07-19T14:34:55Z</time>
      </trkpt>
      <trkpt lat="44.26382" lon="3.24549">
        <ele>899</ele>
        <time>2020-07-19T14:34:57Z</time>
      </trkpt>
      <trkpt lat="44.26387" lon="3.24535">
        <ele>899</ele>
        <time>2020-07-19T14:34:59Z</time>
      </trkpt>
      <trkpt lat="44.26389" lon="3.24519">
        <ele>899</ele>
        <time>2020-07-19T14:35:01Z</time>
      </trkpt>
      <trkpt lat="44.26391" lon="3.24505">
        <ele>899.1</ele>
        <time>2020-07-19T14:35:03Z</time>
      </trkpt>
      <trkpt lat="44.26393" lon="3.24497">
        <ele>899.1</ele>
        <time>2020-07-19T14:35:04Z</time>
      </trkpt>
      <trkpt lat="44.26395" lon="3.24491">
        <ele>899.1</ele>
        <time>2020-07-19T14:35:05Z</time>
      </trkpt>
      <trkpt lat="44.26399" lon="3.24479">
        <ele>899.2</ele>
        <time>2020-07-19T14:35:07Z</time>
      </trkpt>
      <trkpt lat="44.26402" lon="3.24472">
        <ele>899.3</ele>
        <time>2020-07-19T14:35:08Z</time>
      </trkpt>
      <trkpt lat="44.26408" lon="3.24461">
        <ele>899.4</ele>
        <time>2020-07-19T14:35:10Z</time>
      </trkpt>
      <trkpt lat="44.26411" lon="3.24455">
        <ele>899.4</ele>
        <time>2020-07-19T14:35:11Z</time>
      </trkpt>
      <trkpt lat="44.26417" lon="3.24446">
        <ele>899.4</ele>
        <time>2020-07-19T14:35:13Z</time>
      </trkpt>
      <trkpt lat="44.26424" lon="3.24438">
        <ele>899.5</ele>
        <time>2020-07-19T14:35:15Z</time>
      </trkpt>
      <trkpt lat="44.26434" lon="3.24436">
        <ele>899.5</ele>
        <time>2020-07-19T14:35:17Z</time>
      </trkpt>
      <trkpt lat="44.26439" lon="3.24437">
        <ele>899.5</ele>
        <time>2020-07-19T14:35:18Z</time>
      </trkpt>
      <trkpt lat="44.26447" lon="3.24439">
        <ele>899.4</ele>
        <time>2020-07-19T14:35:20Z</time>
      </trkpt>
      <trkpt lat="44.26451" lon="3.24439">
        <ele>899.4</ele>
        <time>2020-07-19T14:35:21Z</time>
      </trkpt>
      <trkpt lat="44.26464" lon="3.2444">
        <ele>899.3</ele>
        <time>2020-07-19T14:35:23Z</time>
      </trkpt>
      <trkpt lat="44.26474" lon="3.24439">
        <ele>899.2</ele>
        <time>2020-07-19T14:35:25Z</time>
      </trkpt>
      <trkpt lat="44.26483" lon="3.24437">
        <ele>899.2</ele>
        <time>2020-07-19T14:35:27Z</time>
      </trkpt>
      <trkpt lat="44.26487" lon="3.24436">
        <ele>899.3</ele>
        <time>2020-07-19T14:35:28Z</time>
      </trkpt>
      <trkpt lat="44.26492" lon="3.24435">
        <ele>899.3</ele>
        <time>2020-07-19T14:35:29Z</time>
      </trkpt>
      <trkpt lat="44.26496" lon="3.24433">
        <ele>899.4</ele>
        <time>2020-07-19T14:35:30Z</time>
      </trkpt>
      <trkpt lat="44.26499" lon="3.24431">
        <ele>899.4</ele>
        <time>2020-07-19T14:35:32Z</time>
      </trkpt>
      <trkpt lat="44.26504" lon="3.24428">
        <ele>899.5</ele>
        <time>2020-07-19T14:35:33Z</time>
      </trkpt>
      <trkpt lat="44.26508" lon="3.24424">
        <ele>899.6</ele>
        <time>2020-07-19T14:35:34Z</time>
      </trkpt>
      <trkpt lat="44.26513" lon="3.24419">
        <ele>899.7</ele>
        <time>2020-07-19T14:35:35Z</time>
      </trkpt>
      <trkpt lat="44.26519" lon="3.24412">
        <ele>899.8</ele>
        <time>2020-07-19T14:35:37Z</time>
      </trkpt>
      <trkpt lat="44.26518" lon="3.24409">
        <ele>899.8</ele>
        <time>2020-07-19T14:35:38Z</time>
      </trkpt>
      <trkpt lat="44.26525" lon="3.24401">
        <ele>899.9</ele>
        <time>2020-07-19T14:35:40Z</time>
      </trkpt>
      <trkpt lat="44.26532" lon="3.24395">
        <ele>900</ele>
        <time>2020-07-19T14:35:42Z</time>
      </trkpt>
      <trkpt lat="44.26538" lon="3.24393">
        <ele>900</ele>
        <time>2020-07-19T14:35:43Z</time>
      </trkpt>
      <trkpt lat="44.26544" lon="3.24387">
        <ele>900</ele>
        <time>2020-07-19T14:35:44Z</time>
      </trkpt>
      <trkpt lat="44.26549" lon="3.24381">
        <ele>900</ele>
        <time>2020-07-19T14:35:46Z</time>
      </trkpt>
      <trkpt lat="44.26553" lon="3.24375">
        <ele>900</ele>
        <time>2020-07-19T14:35:47Z</time>
      </trkpt>
      <trkpt lat="44.26557" lon="3.24369">
        <ele>900</ele>
        <time>2020-07-19T14:35:48Z</time>
      </trkpt>
      <trkpt lat="44.26561" lon="3.24362">
        <ele>900</ele>
        <time>2020-07-19T14:35:49Z</time>
      </trkpt>
      <trkpt lat="44.26564" lon="3.24356">
        <ele>900.1</ele>
        <time>2020-07-19T14:35:50Z</time>
      </trkpt>
      <trkpt lat="44.26567" lon="3.24351">
        <ele>900.1</ele>
        <time>2020-07-19T14:35:51Z</time>
      </trkpt>
      <trkpt lat="44.26571" lon="3.24344">
        <ele>900.1</ele>
        <time>2020-07-19T14:35:53Z</time>
      </trkpt>
      <trkpt lat="44.26573" lon="3.24338">
        <ele>900.1</ele>
        <time>2020-07-19T14:35:54Z</time>
      </trkpt>
      <trkpt lat="44.26577" lon="3.24328">
        <ele>900.1</ele>
        <time>2020-07-19T14:35:56Z</time>
      </trkpt>
      <trkpt lat="44.2658" lon="3.24323">
        <ele>900.1</ele>
        <time>2020-07-19T14:35:57Z</time>
      </trkpt>
      <trkpt lat="44.26582" lon="3.24318">
        <ele>900</ele>
        <time>2020-07-19T14:35:58Z</time>
      </trkpt>
      <trkpt lat="44.26584" lon="3.24314">
        <ele>900</ele>
        <time>2020-07-19T14:35:59Z</time>
      </trkpt>
      <trkpt lat="44.26591" lon="3.24301">
        <ele>899.9</ele>
        <time>2020-07-19T14:36:01Z</time>
      </trkpt>
      <trkpt lat="44.26595" lon="3.24294">
        <ele>899.8</ele>
        <time>2020-07-19T14:36:03Z</time>
      </trkpt>
      <trkpt lat="44.26596" lon="3.24287">
        <ele>899.7</ele>
        <time>2020-07-19T14:36:05Z</time>
      </trkpt>
      <trkpt lat="44.26602" lon="3.2428">
        <ele>899.3</ele>
        <time>2020-07-19T14:36:07Z</time>
      </trkpt>
      <trkpt lat="44.26609" lon="3.24273">
        <ele>898.9</ele>
        <time>2020-07-19T14:36:09Z</time>
      </trkpt>
      <trkpt lat="44.26615" lon="3.24269">
        <ele>898.6</ele>
        <time>2020-07-19T14:36:10Z</time>
      </trkpt>
      <trkpt lat="44.2662" lon="3.24264">
        <ele>898.3</ele>
        <time>2020-07-19T14:36:12Z</time>
      </trkpt>
      <trkpt lat="44.26623" lon="3.24262">
        <ele>898.2</ele>
        <time>2020-07-19T14:36:13Z</time>
      </trkpt>
      <trkpt lat="44.26627" lon="3.24259">
        <ele>897.9</ele>
        <time>2020-07-19T14:36:15Z</time>
      </trkpt>
      <trkpt lat="44.2663" lon="3.24256">
        <ele>897.7</ele>
        <time>2020-07-19T14:36:17Z</time>
      </trkpt>
      <trkpt lat="44.26633" lon="3.24251">
        <ele>897.5</ele>
        <time>2020-07-19T14:36:18Z</time>
      </trkpt>
      <trkpt lat="44.26636" lon="3.24248">
        <ele>897.5</ele>
        <time>2020-07-19T14:36:19Z</time>
      </trkpt>
      <trkpt lat="44.26639" lon="3.24244">
        <ele>897.6</ele>
        <time>2020-07-19T14:36:20Z</time>
      </trkpt>
      <trkpt lat="44.26644" lon="3.24239">
        <ele>897.6</ele>
        <time>2020-07-19T14:36:21Z</time>
      </trkpt>
      <trkpt lat="44.26653" lon="3.24229">
        <ele>897.7</ele>
        <time>2020-07-19T14:36:23Z</time>
      </trkpt>
      <trkpt lat="44.2666" lon="3.24223">
        <ele>897.8</ele>
        <time>2020-07-19T14:36:24Z</time>
      </trkpt>
      <trkpt lat="44.26665" lon="3.24218">
        <ele>897.9</ele>
        <time>2020-07-19T14:36:25Z</time>
      </trkpt>
      <trkpt lat="44.2667" lon="3.24214">
        <ele>897.9</ele>
        <time>2020-07-19T14:36:26Z</time>
      </trkpt>
      <trkpt lat="44.26678" lon="3.24208">
        <ele>898</ele>
        <time>2020-07-19T14:36:28Z</time>
      </trkpt>
      <trkpt lat="44.26681" lon="3.24206">
        <ele>898</ele>
        <time>2020-07-19T14:36:29Z</time>
      </trkpt>
      <trkpt lat="44.26689" lon="3.24203">
        <ele>897.9</ele>
        <time>2020-07-19T14:36:31Z</time>
      </trkpt>
      <trkpt lat="44.26692" lon="3.24202">
        <ele>897.9</ele>
        <time>2020-07-19T14:36:32Z</time>
      </trkpt>
      <trkpt lat="44.26697" lon="3.242">
        <ele>897.8</ele>
        <time>2020-07-19T14:36:33Z</time>
      </trkpt>
      <trkpt lat="44.26703" lon="3.24198">
        <ele>897.8</ele>
        <time>2020-07-19T14:36:35Z</time>
      </trkpt>
      <trkpt lat="44.2671" lon="3.24195">
        <ele>897.7</ele>
        <time>2020-07-19T14:36:37Z</time>
      </trkpt>
      <trkpt lat="44.26716" lon="3.24193">
        <ele>897.7</ele>
        <time>2020-07-19T14:36:38Z</time>
      </trkpt>
      <trkpt lat="44.26723" lon="3.2419">
        <ele>897.8</ele>
        <time>2020-07-19T14:36:40Z</time>
      </trkpt>
      <trkpt lat="44.26727" lon="3.24187">
        <ele>897.8</ele>
        <time>2020-07-19T14:36:41Z</time>
      </trkpt>
      <trkpt lat="44.26734" lon="3.24183">
        <ele>897.8</ele>
        <time>2020-07-19T14:36:43Z</time>
      </trkpt>
      <trkpt lat="44.26738" lon="3.2418">
        <ele>897.7</ele>
        <time>2020-07-19T14:36:44Z</time>
      </trkpt>
      <trkpt lat="44.26745" lon="3.24174">
        <ele>897.6</ele>
        <time>2020-07-19T14:36:46Z</time>
      </trkpt>
      <trkpt lat="44.26748" lon="3.24171">
        <ele>897.5</ele>
        <time>2020-07-19T14:36:47Z</time>
      </trkpt>
      <trkpt lat="44.26752" lon="3.24166">
        <ele>897.3</ele>
        <time>2020-07-19T14:36:48Z</time>
      </trkpt>
      <trkpt lat="44.26757" lon="3.24158">
        <ele>897.1</ele>
        <time>2020-07-19T14:36:49Z</time>
      </trkpt>
      <trkpt lat="44.26764" lon="3.24146">
        <ele>896.9</ele>
        <time>2020-07-19T14:36:51Z</time>
      </trkpt>
      <trkpt lat="44.26768" lon="3.2414">
        <ele>896.7</ele>
        <time>2020-07-19T14:36:52Z</time>
      </trkpt>
      <trkpt lat="44.26775" lon="3.24128">
        <ele>896.2</ele>
        <time>2020-07-19T14:36:54Z</time>
      </trkpt>
      <trkpt lat="44.26778" lon="3.24122">
        <ele>895.8</ele>
        <time>2020-07-19T14:36:55Z</time>
      </trkpt>
      <trkpt lat="44.26785" lon="3.24109">
        <ele>895.1</ele>
        <time>2020-07-19T14:36:57Z</time>
      </trkpt>
      <trkpt lat="44.26793" lon="3.24095">
        <ele>894.6</ele>
        <time>2020-07-19T14:36:59Z</time>
      </trkpt>
      <trkpt lat="44.26797" lon="3.24088">
        <ele>894.4</ele>
        <time>2020-07-19T14:37:00Z</time>
      </trkpt>
      <trkpt lat="44.26804" lon="3.24074">
        <ele>893.8</ele>
        <time>2020-07-19T14:37:02Z</time>
      </trkpt>
      <trkpt lat="44.26812" lon="3.24058">
        <ele>893</ele>
        <time>2020-07-19T14:37:04Z</time>
      </trkpt>
      <trkpt lat="44.26819" lon="3.24041">
        <ele>892.3</ele>
        <time>2020-07-19T14:37:06Z</time>
      </trkpt>
      <trkpt lat="44.26823" lon="3.24022">
        <ele>891.7</ele>
        <time>2020-07-19T14:37:08Z</time>
      </trkpt>
      <trkpt lat="44.26827" lon="3.24003">
        <ele>891</ele>
        <time>2020-07-19T14:37:10Z</time>
      </trkpt>
      <trkpt lat="44.26829" lon="3.23993">
        <ele>890.6</ele>
        <time>2020-07-19T14:37:11Z</time>
      </trkpt>
      <trkpt lat="44.2683" lon="3.23982">
        <ele>890.2</ele>
        <time>2020-07-19T14:37:12Z</time>
      </trkpt>
      <trkpt lat="44.26833" lon="3.23962">
        <ele>889.4</ele>
        <time>2020-07-19T14:37:14Z</time>
      </trkpt>
      <trkpt lat="44.26834" lon="3.23951">
        <ele>889</ele>
        <time>2020-07-19T14:37:15Z</time>
      </trkpt>
      <trkpt lat="44.26837" lon="3.2393">
        <ele>888.2</ele>
        <time>2020-07-19T14:37:17Z</time>
      </trkpt>
      <trkpt lat="44.26839" lon="3.23918">
        <ele>887.8</ele>
        <time>2020-07-19T14:37:18Z</time>
      </trkpt>
      <trkpt lat="44.26842" lon="3.23894">
        <ele>887.1</ele>
        <time>2020-07-19T14:37:20Z</time>
      </trkpt>
      <trkpt lat="44.26844" lon="3.23883">
        <ele>886.8</ele>
        <time>2020-07-19T14:37:21Z</time>
      </trkpt>
      <trkpt lat="44.26846" lon="3.2386">
        <ele>886.2</ele>
        <time>2020-07-19T14:37:23Z</time>
      </trkpt>
      <trkpt lat="44.26848" lon="3.23848">
        <ele>885.9</ele>
        <time>2020-07-19T14:37:24Z</time>
      </trkpt>
      <trkpt lat="44.26857" lon="3.23827">
        <ele>885.2</ele>
        <time>2020-07-19T14:37:26Z</time>
      </trkpt>
      <trkpt lat="44.26863" lon="3.23819">
        <ele>884.8</ele>
        <time>2020-07-19T14:37:27Z</time>
      </trkpt>
      <trkpt lat="44.26878" lon="3.23804">
        <ele>883.6</ele>
        <time>2020-07-19T14:37:29Z</time>
      </trkpt>
      <trkpt lat="44.26893" lon="3.23789">
        <ele>882.1</ele>
        <time>2020-07-19T14:37:31Z</time>
      </trkpt>
      <trkpt lat="44.26909" lon="3.23772">
        <ele>880.9</ele>
        <time>2020-07-19T14:37:33Z</time>
      </trkpt>
      <trkpt lat="44.26923" lon="3.2376">
        <ele>879.9</ele>
        <time>2020-07-19T14:37:35Z</time>
      </trkpt>
      <trkpt lat="44.2693" lon="3.23755">
        <ele>879.4</ele>
        <time>2020-07-19T14:37:36Z</time>
      </trkpt>
      <trkpt lat="44.26947" lon="3.23746">
        <ele>878.4</ele>
        <time>2020-07-19T14:37:38Z</time>
      </trkpt>
      <trkpt lat="44.26955" lon="3.23742">
        <ele>878</ele>
        <time>2020-07-19T14:37:39Z</time>
      </trkpt>
      <trkpt lat="44.26963" lon="3.23739">
        <ele>877.6</ele>
        <time>2020-07-19T14:37:40Z</time>
      </trkpt>
      <trkpt lat="44.2698" lon="3.23736">
        <ele>877.1</ele>
        <time>2020-07-19T14:37:42Z</time>
      </trkpt>
      <trkpt lat="44.26999" lon="3.23734">
        <ele>876.4</ele>
        <time>2020-07-19T14:37:44Z</time>
      </trkpt>
      <trkpt lat="44.27017" lon="3.23732">
        <ele>875.7</ele>
        <time>2020-07-19T14:37:46Z</time>
      </trkpt>
      <trkpt lat="44.27034" lon="3.23736">
        <ele>875.1</ele>
        <time>2020-07-19T14:37:48Z</time>
      </trkpt>
      <trkpt lat="44.27042" lon="3.23739">
        <ele>874.9</ele>
        <time>2020-07-19T14:37:49Z</time>
      </trkpt>
      <trkpt lat="44.27058" lon="3.23743">
        <ele>874.4</ele>
        <time>2020-07-19T14:37:51Z</time>
      </trkpt>
      <trkpt lat="44.27066" lon="3.23743">
        <ele>874.1</ele>
        <time>2020-07-19T14:37:52Z</time>
      </trkpt>
      <trkpt lat="44.27074" lon="3.23739">
        <ele>873.7</ele>
        <time>2020-07-19T14:37:53Z</time>
      </trkpt>
      <trkpt lat="44.27082" lon="3.23735">
        <ele>873.3</ele>
        <time>2020-07-19T14:37:54Z</time>
      </trkpt>
      <trkpt lat="44.27096" lon="3.23725">
        <ele>872.3</ele>
        <time>2020-07-19T14:37:56Z</time>
      </trkpt>
      <trkpt lat="44.27104" lon="3.2372">
        <ele>871.8</ele>
        <time>2020-07-19T14:37:57Z</time>
      </trkpt>
      <trkpt lat="44.27118" lon="3.23711">
        <ele>871</ele>
        <time>2020-07-19T14:37:59Z</time>
      </trkpt>
      <trkpt lat="44.27128" lon="3.23705">
        <ele>870.5</ele>
        <time>2020-07-19T14:38:01Z</time>
      </trkpt>
      <trkpt lat="44.2713" lon="3.23697">
        <ele>870.2</ele>
        <time>2020-07-19T14:38:03Z</time>
      </trkpt>
      <trkpt lat="44.27132" lon="3.23695">
        <ele>870.1</ele>
        <time>2020-07-19T14:38:05Z</time>
      </trkpt>
      <trkpt lat="44.27132" lon="3.23695">
        <ele>870.1</ele>
        <time>2020-07-19T14:38:07Z</time>
      </trkpt>
      <trkpt lat="44.27132" lon="3.23695">
        <ele>870.1</ele>
        <time>2020-07-19T14:38:08Z</time>
      </trkpt>
      <trkpt lat="44.27132" lon="3.23695">
        <ele>870.1</ele>
        <time>2020-07-19T14:38:09Z</time>
      </trkpt>
      <trkpt lat="44.27132" lon="3.23695">
        <ele>870</ele>
        <time>2020-07-19T14:38:11Z</time>
      </trkpt>
      <trkpt lat="44.27131" lon="3.23695">
        <ele>870</ele>
        <time>2020-07-19T14:38:12Z</time>
      </trkpt>
      <trkpt lat="44.27131" lon="3.23695">
        <ele>870</ele>
        <time>2020-07-19T14:38:13Z</time>
      </trkpt>
      <trkpt lat="44.27131" lon="3.23696">
        <ele>870</ele>
        <time>2020-07-19T14:38:14Z</time>
      </trkpt>
      <trkpt lat="44.27131" lon="3.23696">
        <ele>870</ele>
        <time>2020-07-19T14:38:16Z</time>
      </trkpt>
      <trkpt lat="44.27128" lon="3.23701">
        <ele>869.8</ele>
        <time>2020-07-19T14:41:16Z</time>
      </trkpt>
      <trkpt lat="44.27127" lon="3.23701">
        <ele>869.7</ele>
        <time>2020-07-19T14:41:17Z</time>
      </trkpt>
      <trkpt lat="44.27126" lon="3.23701">
        <ele>869.7</ele>
        <time>2020-07-19T14:41:18Z</time>
      </trkpt>
      <trkpt lat="44.27127" lon="3.237">
        <ele>869.7</ele>
        <time>2020-07-19T14:41:20Z</time>
      </trkpt>
      <trkpt lat="44.27127" lon="3.237">
        <ele>869.7</ele>
        <time>2020-07-19T14:41:21Z</time>
      </trkpt>
      <trkpt lat="44.27127" lon="3.237">
        <ele>869.7</ele>
        <time>2020-07-19T14:41:22Z</time>
      </trkpt>
      <trkpt lat="44.27127" lon="3.237">
        <ele>869.7</ele>
        <time>2020-07-19T14:41:24Z</time>
      </trkpt>
      <trkpt lat="44.27127" lon="3.237">
        <ele>869.7</ele>
        <time>2020-07-19T14:41:25Z</time>
      </trkpt>
      <trkpt lat="44.27127" lon="3.237">
        <ele>869.7</ele>
        <time>2020-07-19T14:41:27Z</time>
      </trkpt>
      <trkpt lat="44.27127" lon="3.237">
        <ele>869.7</ele>
        <time>2020-07-19T14:41:28Z</time>
      </trkpt>
      <trkpt lat="44.27133" lon="3.23686">
        <ele>869.1</ele>
        <time>2020-07-19T14:42:37Z</time>
      </trkpt>
      <trkpt lat="44.27134" lon="3.23684">
        <ele>869</ele>
        <time>2020-07-19T14:42:38Z</time>
      </trkpt>
      <trkpt lat="44.27137" lon="3.23685">
        <ele>868.9</ele>
        <time>2020-07-19T14:42:40Z</time>
      </trkpt>
      <trkpt lat="44.27138" lon="3.23685">
        <ele>868.8</ele>
        <time>2020-07-19T14:42:41Z</time>
      </trkpt>
      <trkpt lat="44.2714" lon="3.23685">
        <ele>868.7</ele>
        <time>2020-07-19T14:42:42Z</time>
      </trkpt>
      <trkpt lat="44.27143" lon="3.23685">
        <ele>868.5</ele>
        <time>2020-07-19T14:42:44Z</time>
      </trkpt>
      <trkpt lat="44.27145" lon="3.23685">
        <ele>865.2</ele>
        <time>2020-07-19T14:42:45Z</time>
      </trkpt>
      <trkpt lat="44.27151" lon="3.23684">
        <ele>862</ele>
        <time>2020-07-19T14:42:46Z</time>
      </trkpt>
      <trkpt lat="44.27153" lon="3.23683">
        <ele>858.7</ele>
        <time>2020-07-19T14:42:47Z</time>
      </trkpt>
      <trkpt lat="44.27165" lon="3.2368">
        <ele>853.6</ele>
        <time>2020-07-19T14:42:48Z</time>
      </trkpt>
      <trkpt lat="44.27182" lon="3.23676">
        <ele>847.5</ele>
        <time>2020-07-19T14:42:50Z</time>
      </trkpt>
      <trkpt lat="44.27188" lon="3.23675">
        <ele>843</ele>
        <time>2020-07-19T14:42:51Z</time>
      </trkpt>
      <trkpt lat="44.27199" lon="3.23675">
        <ele>838.4</ele>
        <time>2020-07-19T14:42:53Z</time>
      </trkpt>
      <trkpt lat="44.27204" lon="3.23676">
        <ele>834.1</ele>
        <time>2020-07-19T14:42:54Z</time>
      </trkpt>
      <trkpt lat="44.27214" lon="3.23672">
        <ele>829.3</ele>
        <time>2020-07-19T14:42:56Z</time>
      </trkpt>
      <trkpt lat="44.2722" lon="3.23673">
        <ele>829.8</ele>
        <time>2020-07-19T14:42:57Z</time>
      </trkpt>
      <trkpt lat="44.27222" lon="3.23676">
        <ele>830.2</ele>
        <time>2020-07-19T14:42:59Z</time>
      </trkpt>
      <trkpt lat="44.27223" lon="3.23678">
        <ele>830.3</ele>
        <time>2020-07-19T14:43:00Z</time>
      </trkpt>
      <trkpt lat="44.27226" lon="3.23676">
        <ele>830.5</ele>
        <time>2020-07-19T14:43:01Z</time>
      </trkpt>
      <trkpt lat="44.27231" lon="3.23676">
        <ele>831</ele>
        <time>2020-07-19T14:43:03Z</time>
      </trkpt>
      <trkpt lat="44.27244" lon="3.23678">
        <ele>832.1</ele>
        <time>2020-07-19T14:43:04Z</time>
      </trkpt>
      <trkpt lat="44.27258" lon="3.2368">
        <ele>833.3</ele>
        <time>2020-07-19T14:43:06Z</time>
      </trkpt>
      <trkpt lat="44.27265" lon="3.23683">
        <ele>833.9</ele>
        <time>2020-07-19T14:43:08Z</time>
      </trkpt>
      <trkpt lat="44.2727" lon="3.23686">
        <ele>834.4</ele>
        <time>2020-07-19T14:43:10Z</time>
      </trkpt>
      <trkpt lat="44.27275" lon="3.23687">
        <ele>834.8</ele>
        <time>2020-07-19T14:43:11Z</time>
      </trkpt>
      <trkpt lat="44.27285" lon="3.23693">
        <ele>835.7</ele>
        <time>2020-07-19T14:43:13Z</time>
      </trkpt>
      <trkpt lat="44.27287" lon="3.23695">
        <ele>836</ele>
        <time>2020-07-19T14:43:14Z</time>
      </trkpt>
      <trkpt lat="44.27292" lon="3.23696">
        <ele>836.4</ele>
        <time>2020-07-19T14:43:16Z</time>
      </trkpt>
      <trkpt lat="44.27295" lon="3.23696">
        <ele>836.7</ele>
        <time>2020-07-19T14:43:17Z</time>
      </trkpt>
      <trkpt lat="44.27298" lon="3.23699">
        <ele>836.9</ele>
        <time>2020-07-19T14:43:19Z</time>
      </trkpt>
      <trkpt lat="44.273" lon="3.237">
        <ele>837.1</ele>
        <time>2020-07-19T14:43:21Z</time>
      </trkpt>
      <trkpt lat="44.27301" lon="3.23702">
        <ele>837.2</ele>
        <time>2020-07-19T14:43:22Z</time>
      </trkpt>
      <trkpt lat="44.27303" lon="3.23706">
        <ele>837</ele>
        <time>2020-07-19T14:43:23Z</time>
      </trkpt>
      <trkpt lat="44.27304" lon="3.23707">
        <ele>836.9</ele>
        <time>2020-07-19T14:43:24Z</time>
      </trkpt>
      <trkpt lat="44.27307" lon="3.23711">
        <ele>836.6</ele>
        <time>2020-07-19T14:43:26Z</time>
      </trkpt>
      <trkpt lat="44.27308" lon="3.23712">
        <ele>836.4</ele>
        <time>2020-07-19T14:43:27Z</time>
      </trkpt>
      <trkpt lat="44.27312" lon="3.23713">
        <ele>836</ele>
        <time>2020-07-19T14:43:28Z</time>
      </trkpt>
      <trkpt lat="44.27314" lon="3.23713">
        <ele>835.8</ele>
        <time>2020-07-19T14:43:29Z</time>
      </trkpt>
      <trkpt lat="44.27319" lon="3.23713">
        <ele>835</ele>
        <time>2020-07-19T14:43:30Z</time>
      </trkpt>
      <trkpt lat="44.27325" lon="3.23714">
        <ele>834</ele>
        <time>2020-07-19T14:43:32Z</time>
      </trkpt>
      <trkpt lat="44.27337" lon="3.23715">
        <ele>832.1</ele>
        <time>2020-07-19T14:43:34Z</time>
      </trkpt>
      <trkpt lat="44.2735" lon="3.23715">
        <ele>830.6</ele>
        <time>2020-07-19T14:43:36Z</time>
      </trkpt>
      <trkpt lat="44.27355" lon="3.23715">
        <ele>830.1</ele>
        <time>2020-07-19T14:43:37Z</time>
      </trkpt>
      <trkpt lat="44.27357" lon="3.23714">
        <ele>829.8</ele>
        <time>2020-07-19T14:43:38Z</time>
      </trkpt>
      <trkpt lat="44.27363" lon="3.23712">
        <ele>828.9</ele>
        <time>2020-07-19T14:43:40Z</time>
      </trkpt>
      <trkpt lat="44.27364" lon="3.23711">
        <ele>828.7</ele>
        <time>2020-07-19T14:43:41Z</time>
      </trkpt>
      <trkpt lat="44.27363" lon="3.2371">
        <ele>828.5</ele>
        <time>2020-07-19T14:43:43Z</time>
      </trkpt>
      <trkpt lat="44.27361" lon="3.2371">
        <ele>828.3</ele>
        <time>2020-07-19T14:43:44Z</time>
      </trkpt>
      <trkpt lat="44.2736" lon="3.23709">
        <ele>828.1</ele>
        <time>2020-07-19T14:43:45Z</time>
      </trkpt>
      <trkpt lat="44.27354" lon="3.23706">
        <ele>826.8</ele>
        <time>2020-07-19T14:43:46Z</time>
      </trkpt>
      <trkpt lat="44.27344" lon="3.23701">
        <ele>824.7</ele>
        <time>2020-07-19T14:43:48Z</time>
      </trkpt>
      <trkpt lat="44.27339" lon="3.23698">
        <ele>823.7</ele>
        <time>2020-07-19T14:43:49Z</time>
      </trkpt>
      <trkpt lat="44.27333" lon="3.23695">
        <ele>822.8</ele>
        <time>2020-07-19T14:43:50Z</time>
      </trkpt>
      <trkpt lat="44.27328" lon="3.23691">
        <ele>821.9</ele>
        <time>2020-07-19T14:43:51Z</time>
      </trkpt>
      <trkpt lat="44.27322" lon="3.23685">
        <ele>820.7</ele>
        <time>2020-07-19T14:43:53Z</time>
      </trkpt>
      <trkpt lat="44.27321" lon="3.23681">
        <ele>820.2</ele>
        <time>2020-07-19T14:43:54Z</time>
      </trkpt>
      <trkpt lat="44.27319" lon="3.2368">
        <ele>820</ele>
        <time>2020-07-19T14:43:55Z</time>
      </trkpt>
      <trkpt lat="44.27316" lon="3.23678">
        <ele>819.3</ele>
        <time>2020-07-19T14:43:57Z</time>
      </trkpt>
      <trkpt lat="44.27315" lon="3.23676">
        <ele>819.1</ele>
        <time>2020-07-19T14:43:58Z</time>
      </trkpt>
      <trkpt lat="44.27314" lon="3.23675">
        <ele>818.9</ele>
        <time>2020-07-19T14:43:59Z</time>
      </trkpt>
      <trkpt lat="44.27311" lon="3.23673">
        <ele>818.4</ele>
        <time>2020-07-19T14:44:00Z</time>
      </trkpt>
      <trkpt lat="44.27309" lon="3.2367">
        <ele>817.8</ele>
        <time>2020-07-19T14:44:01Z</time>
      </trkpt>
      <trkpt lat="44.27308" lon="3.23669">
        <ele>817.6</ele>
        <time>2020-07-19T14:44:02Z</time>
      </trkpt>
      <trkpt lat="44.27305" lon="3.23666">
        <ele>816.8</ele>
        <time>2020-07-19T14:44:04Z</time>
      </trkpt>
      <trkpt lat="44.27299" lon="3.23658">
        <ele>814.7</ele>
        <time>2020-07-19T14:44:05Z</time>
      </trkpt>
      <trkpt lat="44.27294" lon="3.23652">
        <ele>813.1</ele>
        <time>2020-07-19T14:44:06Z</time>
      </trkpt>
      <trkpt lat="44.27291" lon="3.23648">
        <ele>812.1</ele>
        <time>2020-07-19T14:44:08Z</time>
      </trkpt>
      <trkpt lat="44.27283" lon="3.23642">
        <ele>810.2</ele>
        <time>2020-07-19T14:44:09Z</time>
      </trkpt>
      <trkpt lat="44.27274" lon="3.23634">
        <ele>808.6</ele>
        <time>2020-07-19T14:44:11Z</time>
      </trkpt>
      <trkpt lat="44.27265" lon="3.23627">
        <ele>807.2</ele>
        <time>2020-07-19T14:44:12Z</time>
      </trkpt>
      <trkpt lat="44.27257" lon="3.2362">
        <ele>805.7</ele>
        <time>2020-07-19T14:44:13Z</time>
      </trkpt>
      <trkpt lat="44.27246" lon="3.2361">
        <ele>803.4</ele>
        <time>2020-07-19T14:44:15Z</time>
      </trkpt>
      <trkpt lat="44.27241" lon="3.23606">
        <ele>802.5</ele>
        <time>2020-07-19T14:44:16Z</time>
      </trkpt>
      <trkpt lat="44.2724" lon="3.23607">
        <ele>802.2</ele>
        <time>2020-07-19T14:44:18Z</time>
      </trkpt>
      <trkpt lat="44.27237" lon="3.23608">
        <ele>801.6</ele>
        <time>2020-07-19T14:44:20Z</time>
      </trkpt>
      <trkpt lat="44.27234" lon="3.23605">
        <ele>801.1</ele>
        <time>2020-07-19T14:44:21Z</time>
      </trkpt>
      <trkpt lat="44.27234" lon="3.23604">
        <ele>800.9</ele>
        <time>2020-07-19T14:44:22Z</time>
      </trkpt>
      <trkpt lat="44.27233" lon="3.236">
        <ele>800.3</ele>
        <time>2020-07-19T14:44:23Z</time>
      </trkpt>
      <trkpt lat="44.27232" lon="3.23598">
        <ele>800.1</ele>
        <time>2020-07-19T14:44:24Z</time>
      </trkpt>
      <trkpt lat="44.2723" lon="3.23596">
        <ele>799.7</ele>
        <time>2020-07-19T14:44:25Z</time>
      </trkpt>
      <trkpt lat="44.27228" lon="3.23591">
        <ele>797.3</ele>
        <time>2020-07-19T14:44:27Z</time>
      </trkpt>
      <trkpt lat="44.27226" lon="3.23585">
        <ele>793.6</ele>
        <time>2020-07-19T14:44:28Z</time>
      </trkpt>
      <trkpt lat="44.27224" lon="3.2358">
        <ele>791.9</ele>
        <time>2020-07-19T14:44:30Z</time>
      </trkpt>
      <trkpt lat="44.27224" lon="3.23578">
        <ele>791.5</ele>
        <time>2020-07-19T14:44:31Z</time>
      </trkpt>
      <trkpt lat="44.27224" lon="3.23577">
        <ele>788.8</ele>
        <time>2020-07-19T14:44:32Z</time>
      </trkpt>
      <trkpt lat="44.27225" lon="3.23575">
        <ele>787.2</ele>
        <time>2020-07-19T14:44:34Z</time>
      </trkpt>
      <trkpt lat="44.27229" lon="3.23576">
        <ele>785.7</ele>
        <time>2020-07-19T14:44:35Z</time>
      </trkpt>
      <trkpt lat="44.27231" lon="3.23577">
        <ele>784.3</ele>
        <time>2020-07-19T14:44:36Z</time>
      </trkpt>
      <trkpt lat="44.2724" lon="3.2358">
        <ele>784.3</ele>
        <time>2020-07-19T14:44:37Z</time>
      </trkpt>
      <trkpt lat="44.27248" lon="3.23583">
        <ele>783.5</ele>
        <time>2020-07-19T14:44:38Z</time>
      </trkpt>
      <trkpt lat="44.27259" lon="3.23585">
        <ele>781.9</ele>
        <time>2020-07-19T14:44:40Z</time>
      </trkpt>
      <trkpt lat="44.27268" lon="3.23588">
        <ele>780</ele>
        <time>2020-07-19T14:44:42Z</time>
      </trkpt>
      <trkpt lat="44.27268" lon="3.2359">
        <ele>779.6</ele>
        <time>2020-07-19T14:44:44Z</time>
      </trkpt>
      <trkpt lat="44.27277" lon="3.2359">
        <ele>777.6</ele>
        <time>2020-07-19T14:44:46Z</time>
      </trkpt>
      <trkpt lat="44.27284" lon="3.23592">
        <ele>776.3</ele>
        <time>2020-07-19T14:44:47Z</time>
      </trkpt>
      <trkpt lat="44.27292" lon="3.2359">
        <ele>774.7</ele>
        <time>2020-07-19T14:44:48Z</time>
      </trkpt>
      <trkpt lat="44.273" lon="3.23591">
        <ele>773.1</ele>
        <time>2020-07-19T14:44:50Z</time>
      </trkpt>
      <trkpt lat="44.2731" lon="3.23594">
        <ele>771.1</ele>
        <time>2020-07-19T14:44:51Z</time>
      </trkpt>
      <trkpt lat="44.27316" lon="3.23595">
        <ele>770.3</ele>
        <time>2020-07-19T14:44:52Z</time>
      </trkpt>
      <trkpt lat="44.27321" lon="3.23597">
        <ele>769.5</ele>
        <time>2020-07-19T14:44:53Z</time>
      </trkpt>
      <trkpt lat="44.27324" lon="3.23596">
        <ele>769</ele>
        <time>2020-07-19T14:44:54Z</time>
      </trkpt>
      <trkpt lat="44.27322" lon="3.23591">
        <ele>768.4</ele>
        <time>2020-07-19T14:44:56Z</time>
      </trkpt>
      <trkpt lat="44.27318" lon="3.23587">
        <ele>767.4</ele>
        <time>2020-07-19T14:44:58Z</time>
      </trkpt>
      <trkpt lat="44.27315" lon="3.23583">
        <ele>766.3</ele>
        <time>2020-07-19T14:44:59Z</time>
      </trkpt>
      <trkpt lat="44.2731" lon="3.23578">
        <ele>764.8</ele>
        <time>2020-07-19T14:45:00Z</time>
      </trkpt>
      <trkpt lat="44.27305" lon="3.23573">
        <ele>762.9</ele>
        <time>2020-07-19T14:45:01Z</time>
      </trkpt>
      <trkpt lat="44.27301" lon="3.23568">
        <ele>761.2</ele>
        <time>2020-07-19T14:45:03Z</time>
      </trkpt>
      <trkpt lat="44.273" lon="3.23566">
        <ele>760.7</ele>
        <time>2020-07-19T14:45:05Z</time>
      </trkpt>
      <trkpt lat="44.273" lon="3.23567">
        <ele>760.6</ele>
        <time>2020-07-19T14:45:06Z</time>
      </trkpt>
      <trkpt lat="44.27302" lon="3.23567">
        <ele>759.9</ele>
        <time>2020-07-19T14:45:07Z</time>
      </trkpt>
      <trkpt lat="44.27303" lon="3.23564">
        <ele>759.2</ele>
        <time>2020-07-19T14:45:09Z</time>
      </trkpt>
      <trkpt lat="44.27301" lon="3.23562">
        <ele>758.4</ele>
        <time>2020-07-19T14:45:11Z</time>
      </trkpt>
      <trkpt lat="44.27297" lon="3.23559">
        <ele>757</ele>
        <time>2020-07-19T14:45:12Z</time>
      </trkpt>
      <trkpt lat="44.27296" lon="3.23556">
        <ele>756.3</ele>
        <time>2020-07-19T14:45:13Z</time>
      </trkpt>
      <trkpt lat="44.27294" lon="3.23554">
        <ele>755.6</ele>
        <time>2020-07-19T14:45:15Z</time>
      </trkpt>
      <trkpt lat="44.27293" lon="3.23552">
        <ele>755</ele>
        <time>2020-07-19T14:45:16Z</time>
      </trkpt>
      <trkpt lat="44.27285" lon="3.23539">
        <ele>751.5</ele>
        <time>2020-07-19T14:45:18Z</time>
      </trkpt>
      <trkpt lat="44.27281" lon="3.23533">
        <ele>749.9</ele>
        <time>2020-07-19T14:45:19Z</time>
      </trkpt>
      <trkpt lat="44.2727" lon="3.23517">
        <ele>746.8</ele>
        <time>2020-07-19T14:45:21Z</time>
      </trkpt>
      <trkpt lat="44.27258" lon="3.23502">
        <ele>743.6</ele>
        <time>2020-07-19T14:45:23Z</time>
      </trkpt>
      <trkpt lat="44.27251" lon="3.23494">
        <ele>741.4</ele>
        <time>2020-07-19T14:45:24Z</time>
      </trkpt>
      <trkpt lat="44.27245" lon="3.23486">
        <ele>739.2</ele>
        <time>2020-07-19T14:45:25Z</time>
      </trkpt>
      <trkpt lat="44.27234" lon="3.23472">
        <ele>736.7</ele>
        <time>2020-07-19T14:45:27Z</time>
      </trkpt>
      <trkpt lat="44.27227" lon="3.23464">
        <ele>735.5</ele>
        <time>2020-07-19T14:45:28Z</time>
      </trkpt>
      <trkpt lat="44.27215" lon="3.23449">
        <ele>733.2</ele>
        <time>2020-07-19T14:45:30Z</time>
      </trkpt>
      <trkpt lat="44.27211" lon="3.23443">
        <ele>732.4</ele>
        <time>2020-07-19T14:45:31Z</time>
      </trkpt>
      <trkpt lat="44.27203" lon="3.23433">
        <ele>731</ele>
        <time>2020-07-19T14:45:33Z</time>
      </trkpt>
      <trkpt lat="44.27197" lon="3.2342">
        <ele>728.9</ele>
        <time>2020-07-19T14:45:35Z</time>
      </trkpt>
      <trkpt lat="44.27197" lon="3.2341">
        <ele>727.1</ele>
        <time>2020-07-19T14:45:37Z</time>
      </trkpt>
      <trkpt lat="44.27198" lon="3.23409">
        <ele>726.7</ele>
        <time>2020-07-19T14:45:39Z</time>
      </trkpt>
      <trkpt lat="44.27198" lon="3.23409">
        <ele>726.7</ele>
        <time>2020-07-19T14:45:40Z</time>
      </trkpt>
      <trkpt lat="44.27198" lon="3.2341">
        <ele>726.7</ele>
        <time>2020-07-19T14:45:41Z</time>
      </trkpt>
      <trkpt lat="44.27198" lon="3.2341">
        <ele>726.6</ele>
        <time>2020-07-19T14:45:43Z</time>
      </trkpt>
      <trkpt lat="44.27198" lon="3.2341">
        <ele>726.6</ele>
        <time>2020-07-19T14:45:48Z</time>
      </trkpt>
      <trkpt lat="44.27194" lon="3.23412">
        <ele>725.4</ele>
        <time>2020-07-19T14:46:41Z</time>
      </trkpt>
      <trkpt lat="44.27195" lon="3.23415">
        <ele>724.8</ele>
        <time>2020-07-19T14:46:42Z</time>
      </trkpt>
      <trkpt lat="44.27199" lon="3.2342">
        <ele>723.6</ele>
        <time>2020-07-19T14:46:44Z</time>
      </trkpt>
      <trkpt lat="44.27201" lon="3.2342">
        <ele>722.9</ele>
        <time>2020-07-19T14:46:45Z</time>
      </trkpt>
      <trkpt lat="44.27203" lon="3.23422">
        <ele>722.5</ele>
        <time>2020-07-19T14:46:47Z</time>
      </trkpt>
      <trkpt lat="44.27204" lon="3.23422">
        <ele>722.3</ele>
        <time>2020-07-19T14:46:48Z</time>
      </trkpt>
      <trkpt lat="44.27205" lon="3.23423">
        <ele>722</ele>
        <time>2020-07-19T14:46:50Z</time>
      </trkpt>
      <trkpt lat="44.27206" lon="3.23424">
        <ele>721.7</ele>
        <time>2020-07-19T14:46:51Z</time>
      </trkpt>
      <trkpt lat="44.2721" lon="3.23427">
        <ele>720.9</ele>
        <time>2020-07-19T14:46:53Z</time>
      </trkpt>
      <trkpt lat="44.27213" lon="3.2343">
        <ele>720.2</ele>
        <time>2020-07-19T14:46:54Z</time>
      </trkpt>
      <trkpt lat="44.27216" lon="3.23432">
        <ele>719.8</ele>
        <time>2020-07-19T14:46:55Z</time>
      </trkpt>
      <trkpt lat="44.2722" lon="3.23437">
        <ele>719.1</ele>
        <time>2020-07-19T14:46:57Z</time>
      </trkpt>
      <trkpt lat="44.27229" lon="3.23444">
        <ele>718</ele>
        <time>2020-07-19T14:46:59Z</time>
      </trkpt>
      <trkpt lat="44.27236" lon="3.23448">
        <ele>717.1</ele>
        <time>2020-07-19T14:47:00Z</time>
      </trkpt>
      <trkpt lat="44.27244" lon="3.23451">
        <ele>715.5</ele>
        <time>2020-07-19T14:47:01Z</time>
      </trkpt>
      <trkpt lat="44.27257" lon="3.23454">
        <ele>713</ele>
        <time>2020-07-19T14:47:03Z</time>
      </trkpt>
      <trkpt lat="44.27262" lon="3.23456">
        <ele>712.4</ele>
        <time>2020-07-19T14:47:04Z</time>
      </trkpt>
      <trkpt lat="44.27267" lon="3.23459">
        <ele>711.7</ele>
        <time>2020-07-19T14:47:06Z</time>
      </trkpt>
      <trkpt lat="44.2727" lon="3.23461">
        <ele>711.4</ele>
        <time>2020-07-19T14:47:07Z</time>
      </trkpt>
      <trkpt lat="44.27282" lon="3.23466">
        <ele>709.9</ele>
        <time>2020-07-19T14:47:09Z</time>
      </trkpt>
      <trkpt lat="44.27293" lon="3.23471">
        <ele>708.4</ele>
        <time>2020-07-19T14:47:11Z</time>
      </trkpt>
      <trkpt lat="44.27301" lon="3.23472">
        <ele>707.2</ele>
        <time>2020-07-19T14:47:13Z</time>
      </trkpt>
      <trkpt lat="44.27305" lon="3.23473">
        <ele>706.5</ele>
        <time>2020-07-19T14:47:14Z</time>
      </trkpt>
      <trkpt lat="44.27309" lon="3.23471">
        <ele>705.8</ele>
        <time>2020-07-19T14:47:16Z</time>
      </trkpt>
      <trkpt lat="44.27305" lon="3.23468">
        <ele>705.2</ele>
        <time>2020-07-19T14:47:17Z</time>
      </trkpt>
      <trkpt lat="44.27301" lon="3.23465">
        <ele>704.4</ele>
        <time>2020-07-19T14:47:19Z</time>
      </trkpt>
      <trkpt lat="44.27298" lon="3.23463">
        <ele>703.9</ele>
        <time>2020-07-19T14:47:20Z</time>
      </trkpt>
      <trkpt lat="44.27295" lon="3.23459">
        <ele>703.1</ele>
        <time>2020-07-19T14:47:21Z</time>
      </trkpt>
      <trkpt lat="44.27286" lon="3.23449">
        <ele>687.1</ele>
        <time>2020-07-19T14:47:23Z</time>
      </trkpt>
      <trkpt lat="44.27284" lon="3.23448">
        <ele>686.7</ele>
        <time>2020-07-19T14:47:25Z</time>
      </trkpt>
      <trkpt lat="44.27285" lon="3.23444">
        <ele>686.2</ele>
        <time>2020-07-19T14:47:26Z</time>
      </trkpt>
      <trkpt lat="44.27289" lon="3.23444">
        <ele>685.4</ele>
        <time>2020-07-19T14:47:27Z</time>
      </trkpt>
      <trkpt lat="44.27295" lon="3.23444">
        <ele>684.1</ele>
        <time>2020-07-19T14:47:29Z</time>
      </trkpt>
      <trkpt lat="44.27304" lon="3.23447">
        <ele>682.4</ele>
        <time>2020-07-19T14:47:31Z</time>
      </trkpt>
      <trkpt lat="44.27308" lon="3.23448">
        <ele>681.4</ele>
        <time>2020-07-19T14:47:32Z</time>
      </trkpt>
      <trkpt lat="44.27312" lon="3.23449">
        <ele>680.6</ele>
        <time>2020-07-19T14:47:33Z</time>
      </trkpt>
      <trkpt lat="44.27317" lon="3.2345">
        <ele>679.6</ele>
        <time>2020-07-19T14:47:35Z</time>
      </trkpt>
      <trkpt lat="44.27322" lon="3.2345">
        <ele>678.7</ele>
        <time>2020-07-19T14:47:37Z</time>
      </trkpt>
      <trkpt lat="44.27328" lon="3.2345">
        <ele>677.3</ele>
        <time>2020-07-19T14:47:38Z</time>
      </trkpt>
      <trkpt lat="44.27334" lon="3.23451">
        <ele>676.2</ele>
        <time>2020-07-19T14:47:39Z</time>
      </trkpt>
      <trkpt lat="44.27345" lon="3.2345">
        <ele>673.8</ele>
        <time>2020-07-19T14:47:41Z</time>
      </trkpt>
      <trkpt lat="44.27356" lon="3.23448">
        <ele>671.2</ele>
        <time>2020-07-19T14:47:43Z</time>
      </trkpt>
      <trkpt lat="44.2736" lon="3.23447">
        <ele>670.2</ele>
        <time>2020-07-19T14:47:45Z</time>
      </trkpt>
      <trkpt lat="44.27362" lon="3.23449">
        <ele>669.5</ele>
        <time>2020-07-19T14:47:46Z</time>
      </trkpt>
      <trkpt lat="44.27363" lon="3.23449">
        <ele>669.3</ele>
        <time>2020-07-19T14:47:47Z</time>
      </trkpt>
      <trkpt lat="44.27366" lon="3.2345">
        <ele>668.7</ele>
        <time>2020-07-19T14:47:48Z</time>
      </trkpt>
      <trkpt lat="44.27373" lon="3.2345">
        <ele>667.5</ele>
        <time>2020-07-19T14:47:50Z</time>
      </trkpt>
      <trkpt lat="44.27385" lon="3.23449">
        <ele>665</ele>
        <time>2020-07-19T14:47:52Z</time>
      </trkpt>
      <trkpt lat="44.27395" lon="3.2345">
        <ele>663.3</ele>
        <time>2020-07-19T14:47:54Z</time>
      </trkpt>
      <trkpt lat="44.27395" lon="3.23448">
        <ele>663</ele>
        <time>2020-07-19T14:47:56Z</time>
      </trkpt>
      <trkpt lat="44.27394" lon="3.23447">
        <ele>662.9</ele>
        <time>2020-07-19T14:47:57Z</time>
      </trkpt>
      <trkpt lat="44.27393" lon="3.23447">
        <ele>662.7</ele>
        <time>2020-07-19T14:47:58Z</time>
      </trkpt>
      <trkpt lat="44.27392" lon="3.23447">
        <ele>662.6</ele>
        <time>2020-07-19T14:48:00Z</time>
      </trkpt>
      <trkpt lat="44.27391" lon="3.23446">
        <ele>662.5</ele>
        <time>2020-07-19T14:48:01Z</time>
      </trkpt>
      <trkpt lat="44.27386" lon="3.23444">
        <ele>661.8</ele>
        <time>2020-07-19T14:48:03Z</time>
      </trkpt>
      <trkpt lat="44.27382" lon="3.23442">
        <ele>661.3</ele>
        <time>2020-07-19T14:48:04Z</time>
      </trkpt>
      <trkpt lat="44.2738" lon="3.23438">
        <ele>660.9</ele>
        <time>2020-07-19T14:48:05Z</time>
      </trkpt>
      <trkpt lat="44.27379" lon="3.23438">
        <ele>660.7</ele>
        <time>2020-07-19T14:48:06Z</time>
      </trkpt>
      <trkpt lat="44.27375" lon="3.23434">
        <ele>660</ele>
        <time>2020-07-19T14:48:08Z</time>
      </trkpt>
      <trkpt lat="44.27372" lon="3.23432">
        <ele>659.4</ele>
        <time>2020-07-19T14:48:09Z</time>
      </trkpt>
      <trkpt lat="44.27368" lon="3.2343">
        <ele>658.7</ele>
        <time>2020-07-19T14:48:11Z</time>
      </trkpt>
      <trkpt lat="44.27368" lon="3.2343">
        <ele>658.7</ele>
        <time>2020-07-19T14:48:12Z</time>
      </trkpt>
      <trkpt lat="44.27369" lon="3.2343">
        <ele>658.6</ele>
        <time>2020-07-19T14:48:13Z</time>
      </trkpt>
      <trkpt lat="44.27369" lon="3.2343">
        <ele>658.6</ele>
        <time>2020-07-19T14:48:15Z</time>
      </trkpt>
      <trkpt lat="44.27368" lon="3.23428">
        <ele>658.2</ele>
        <time>2020-07-19T14:48:17Z</time>
      </trkpt>
      <trkpt lat="44.27366" lon="3.23426">
        <ele>657.9</ele>
        <time>2020-07-19T14:48:18Z</time>
      </trkpt>
      <trkpt lat="44.27364" lon="3.23423">
        <ele>657.4</ele>
        <time>2020-07-19T14:48:20Z</time>
      </trkpt>
      <trkpt lat="44.27363" lon="3.23423">
        <ele>657.3</ele>
        <time>2020-07-19T14:48:21Z</time>
      </trkpt>
      <trkpt lat="44.27361" lon="3.23422">
        <ele>657</ele>
        <time>2020-07-19T14:48:22Z</time>
      </trkpt>
      <trkpt lat="44.27359" lon="3.23418">
        <ele>656.6</ele>
        <time>2020-07-19T14:48:24Z</time>
      </trkpt>
      <trkpt lat="44.27355" lon="3.23414">
        <ele>655.9</ele>
        <time>2020-07-19T14:48:25Z</time>
      </trkpt>
      <trkpt lat="44.27352" lon="3.23409">
        <ele>655.1</ele>
        <time>2020-07-19T14:48:26Z</time>
      </trkpt>
      <trkpt lat="44.27342" lon="3.23399">
        <ele>653.3</ele>
        <time>2020-07-19T14:48:28Z</time>
      </trkpt>
      <trkpt lat="44.27338" lon="3.23392">
        <ele>652.3</ele>
        <time>2020-07-19T14:48:29Z</time>
      </trkpt>
      <trkpt lat="44.27332" lon="3.2338">
        <ele>650.1</ele>
        <time>2020-07-19T14:48:31Z</time>
      </trkpt>
      <trkpt lat="44.27324" lon="3.23368">
        <ele>648</ele>
        <time>2020-07-19T14:48:33Z</time>
      </trkpt>
      <trkpt lat="44.27321" lon="3.23364">
        <ele>647.3</ele>
        <time>2020-07-19T14:48:34Z</time>
      </trkpt>
      <trkpt lat="44.27316" lon="3.2336">
        <ele>646.2</ele>
        <time>2020-07-19T14:48:36Z</time>
      </trkpt>
      <trkpt lat="44.2731" lon="3.23355">
        <ele>644.4</ele>
        <time>2020-07-19T14:48:38Z</time>
      </trkpt>
      <trkpt lat="44.27308" lon="3.23351">
        <ele>643.2</ele>
        <time>2020-07-19T14:48:39Z</time>
      </trkpt>
      <trkpt lat="44.27306" lon="3.2335">
        <ele>642.6</ele>
        <time>2020-07-19T14:48:41Z</time>
      </trkpt>
      <trkpt lat="44.2731" lon="3.23351">
        <ele>641.5</ele>
        <time>2020-07-19T14:48:42Z</time>
      </trkpt>
      <trkpt lat="44.27316" lon="3.23353">
        <ele>640.3</ele>
        <time>2020-07-19T14:48:44Z</time>
      </trkpt>
      <trkpt lat="44.27326" lon="3.23358">
        <ele>638.8</ele>
        <time>2020-07-19T14:48:45Z</time>
      </trkpt>
      <trkpt lat="44.27331" lon="3.2336">
        <ele>638.3</ele>
        <time>2020-07-19T14:48:46Z</time>
      </trkpt>
      <trkpt lat="44.27335" lon="3.23364">
        <ele>637.7</ele>
        <time>2020-07-19T14:48:48Z</time>
      </trkpt>
      <trkpt lat="44.27337" lon="3.23358">
        <ele>637</ele>
        <time>2020-07-19T14:48:49Z</time>
      </trkpt>
      <trkpt lat="44.27342" lon="3.2336">
        <ele>636</ele>
        <time>2020-07-19T14:48:51Z</time>
      </trkpt>
      <trkpt lat="44.27345" lon="3.23361">
        <ele>635.2</ele>
        <time>2020-07-19T14:48:52Z</time>
      </trkpt>
      <trkpt lat="44.27351" lon="3.23362">
        <ele>634.3</ele>
        <time>2020-07-19T14:48:54Z</time>
      </trkpt>
      <trkpt lat="44.27352" lon="3.23359">
        <ele>633.9</ele>
        <time>2020-07-19T14:48:56Z</time>
      </trkpt>
      <trkpt lat="44.27347" lon="3.23354">
        <ele>633.1</ele>
        <time>2020-07-19T14:48:58Z</time>
      </trkpt>
      <trkpt lat="44.27345" lon="3.23352">
        <ele>632.7</ele>
        <time>2020-07-19T14:48:59Z</time>
      </trkpt>
      <trkpt lat="44.27342" lon="3.23349">
        <ele>632.2</ele>
        <time>2020-07-19T14:49:01Z</time>
      </trkpt>
      <trkpt lat="44.2734" lon="3.23345">
        <ele>631.6</ele>
        <time>2020-07-19T14:49:02Z</time>
      </trkpt>
      <trkpt lat="44.27337" lon="3.23337">
        <ele>630.5</ele>
        <time>2020-07-19T14:49:03Z</time>
      </trkpt>
      <trkpt lat="44.27334" lon="3.23332">
        <ele>629.8</ele>
        <time>2020-07-19T14:49:04Z</time>
      </trkpt>
      <trkpt lat="44.27331" lon="3.23328">
        <ele>629.3</ele>
        <time>2020-07-19T14:49:05Z</time>
      </trkpt>
      <trkpt lat="44.27328" lon="3.23324">
        <ele>628.6</ele>
        <time>2020-07-19T14:49:06Z</time>
      </trkpt>
      <trkpt lat="44.2732" lon="3.23315">
        <ele>627.1</ele>
        <time>2020-07-19T14:49:08Z</time>
      </trkpt>
      <trkpt lat="44.27317" lon="3.2331">
        <ele>626.4</ele>
        <time>2020-07-19T14:49:10Z</time>
      </trkpt>
      <trkpt lat="44.27313" lon="3.23306">
        <ele>625.9</ele>
        <time>2020-07-19T14:49:11Z</time>
      </trkpt>
      <trkpt lat="44.27306" lon="3.233">
        <ele>625</ele>
        <time>2020-07-19T14:49:12Z</time>
      </trkpt>
      <trkpt lat="44.27301" lon="3.23296">
        <ele>624.4</ele>
        <time>2020-07-19T14:49:13Z</time>
      </trkpt>
      <trkpt lat="44.27298" lon="3.2329">
        <ele>623.8</ele>
        <time>2020-07-19T14:49:14Z</time>
      </trkpt>
      <trkpt lat="44.27295" lon="3.23286">
        <ele>623.3</ele>
        <time>2020-07-19T14:49:15Z</time>
      </trkpt>
      <trkpt lat="44.27286" lon="3.23277">
        <ele>622</ele>
        <time>2020-07-19T14:49:17Z</time>
      </trkpt>
      <trkpt lat="44.27281" lon="3.2327">
        <ele>621.2</ele>
        <time>2020-07-19T14:49:18Z</time>
      </trkpt>
      <trkpt lat="44.27273" lon="3.23255">
        <ele>619.6</ele>
        <time>2020-07-19T14:49:20Z</time>
      </trkpt>
      <trkpt lat="44.27269" lon="3.2325">
        <ele>618.7</ele>
        <time>2020-07-19T14:49:21Z</time>
      </trkpt>
      <trkpt lat="44.27268" lon="3.23248">
        <ele>618.5</ele>
        <time>2020-07-19T14:49:23Z</time>
      </trkpt>
      <trkpt lat="44.27268" lon="3.23246">
        <ele>618.2</ele>
        <time>2020-07-19T14:49:24Z</time>
      </trkpt>
      <trkpt lat="44.27275" lon="3.23247">
        <ele>616.7</ele>
        <time>2020-07-19T14:49:25Z</time>
      </trkpt>
      <trkpt lat="44.2729" lon="3.2325">
        <ele>612.9</ele>
        <time>2020-07-19T14:49:27Z</time>
      </trkpt>
      <trkpt lat="44.27306" lon="3.23252">
        <ele>608.4</ele>
        <time>2020-07-19T14:49:29Z</time>
      </trkpt>
      <trkpt lat="44.27312" lon="3.23253">
        <ele>607.3</ele>
        <time>2020-07-19T14:49:30Z</time>
      </trkpt>
      <trkpt lat="44.27317" lon="3.23255">
        <ele>606.6</ele>
        <time>2020-07-19T14:49:32Z</time>
      </trkpt>
      <trkpt lat="44.27321" lon="3.23255">
        <ele>606</ele>
        <time>2020-07-19T14:49:34Z</time>
      </trkpt>
      <trkpt lat="44.27322" lon="3.23254">
        <ele>605.7</ele>
        <time>2020-07-19T14:49:35Z</time>
      </trkpt>
      <trkpt lat="44.27322" lon="3.23251">
        <ele>605.4</ele>
        <time>2020-07-19T14:49:36Z</time>
      </trkpt>
      <trkpt lat="44.27317" lon="3.23248">
        <ele>604.4</ele>
        <time>2020-07-19T14:49:38Z</time>
      </trkpt>
      <trkpt lat="44.27314" lon="3.23243">
        <ele>603.6</ele>
        <time>2020-07-19T14:49:39Z</time>
      </trkpt>
      <trkpt lat="44.27311" lon="3.23238">
        <ele>602.5</ele>
        <time>2020-07-19T14:49:40Z</time>
      </trkpt>
      <trkpt lat="44.27308" lon="3.23232">
        <ele>601.2</ele>
        <time>2020-07-19T14:49:42Z</time>
      </trkpt>
      <trkpt lat="44.27305" lon="3.23227">
        <ele>600.1</ele>
        <time>2020-07-19T14:49:43Z</time>
      </trkpt>
      <trkpt lat="44.27297" lon="3.23213">
        <ele>597.3</ele>
        <time>2020-07-19T14:49:45Z</time>
      </trkpt>
      <trkpt lat="44.27294" lon="3.23206">
        <ele>596.1</ele>
        <time>2020-07-19T14:49:46Z</time>
      </trkpt>
      <trkpt lat="44.27292" lon="3.23201">
        <ele>595.3</ele>
        <time>2020-07-19T14:49:48Z</time>
      </trkpt>
      <trkpt lat="44.27293" lon="3.23199">
        <ele>595</ele>
        <time>2020-07-19T14:49:49Z</time>
      </trkpt>
      <trkpt lat="44.27295" lon="3.232">
        <ele>594.7</ele>
        <time>2020-07-19T14:49:50Z</time>
      </trkpt>
      <trkpt lat="44.27296" lon="3.232">
        <ele>594.5</ele>
        <time>2020-07-19T14:49:51Z</time>
      </trkpt>
      <trkpt lat="44.27298" lon="3.232">
        <ele>594.1</ele>
        <time>2020-07-19T14:49:52Z</time>
      </trkpt>
      <trkpt lat="44.273" lon="3.23198">
        <ele>587</ele>
        <time>2020-07-19T14:49:53Z</time>
      </trkpt>
      <trkpt lat="44.27299" lon="3.23198">
        <ele>586.9</ele>
        <time>2020-07-19T14:49:54Z</time>
      </trkpt>
      <trkpt lat="44.27295" lon="3.23196">
        <ele>586.6</ele>
        <time>2020-07-19T14:49:56Z</time>
      </trkpt>
      <trkpt lat="44.27293" lon="3.23191">
        <ele>586.3</ele>
        <time>2020-07-19T14:49:58Z</time>
      </trkpt>
      <trkpt lat="44.27294" lon="3.23189">
        <ele>586.2</ele>
        <time>2020-07-19T14:49:59Z</time>
      </trkpt>
      <trkpt lat="44.27295" lon="3.23189">
        <ele>586.1</ele>
        <time>2020-07-19T14:50:01Z</time>
      </trkpt>
      <trkpt lat="44.27296" lon="3.23189">
        <ele>586</ele>
        <time>2020-07-19T14:50:03Z</time>
      </trkpt>
      <trkpt lat="44.27297" lon="3.2319">
        <ele>585.9</ele>
        <time>2020-07-19T14:50:04Z</time>
      </trkpt>
      <trkpt lat="44.27298" lon="3.2319">
        <ele>585.8</ele>
        <time>2020-07-19T14:50:06Z</time>
      </trkpt>
      <trkpt lat="44.27299" lon="3.2319">
        <ele>585.8</ele>
        <time>2020-07-19T14:50:08Z</time>
      </trkpt>
      <trkpt lat="44.273" lon="3.2319">
        <ele>585.7</ele>
        <time>2020-07-19T14:50:10Z</time>
      </trkpt>
      <trkpt lat="44.27301" lon="3.2319">
        <ele>585.6</ele>
        <time>2020-07-19T14:50:11Z</time>
      </trkpt>
      <trkpt lat="44.27302" lon="3.2319">
        <ele>585.5</ele>
        <time>2020-07-19T14:50:13Z</time>
      </trkpt>
      <trkpt lat="44.27303" lon="3.2319">
        <ele>585.4</ele>
        <time>2020-07-19T14:50:15Z</time>
      </trkpt>
      <trkpt lat="44.27304" lon="3.2319">
        <ele>585.3</ele>
        <time>2020-07-19T14:50:16Z</time>
      </trkpt>
      <trkpt lat="44.27305" lon="3.2319">
        <ele>585.3</ele>
        <time>2020-07-19T14:50:17Z</time>
      </trkpt>
      <trkpt lat="44.27306" lon="3.2319">
        <ele>585.2</ele>
        <time>2020-07-19T14:50:18Z</time>
      </trkpt>
      <trkpt lat="44.27307" lon="3.23191">
        <ele>585.1</ele>
        <time>2020-07-19T14:50:53Z</time>
      </trkpt>
      <trkpt lat="44.27308" lon="3.23191">
        <ele>585</ele>
        <time>2020-07-19T14:50:54Z</time>
      </trkpt>
      <trkpt lat="44.27322" lon="3.23201">
        <ele>583.9</ele>
        <time>2020-07-19T14:50:56Z</time>
      </trkpt>
      <trkpt lat="44.27337" lon="3.23208">
        <ele>582.7</ele>
        <time>2020-07-19T14:50:58Z</time>
      </trkpt>
      <trkpt lat="44.27351" lon="3.23213">
        <ele>581.6</ele>
        <time>2020-07-19T14:51:00Z</time>
      </trkpt>
      <trkpt lat="44.27359" lon="3.23216">
        <ele>581</ele>
        <time>2020-07-19T14:51:01Z</time>
      </trkpt>
      <trkpt lat="44.27374" lon="3.2322">
        <ele>579.9</ele>
        <time>2020-07-19T14:51:03Z</time>
      </trkpt>
      <trkpt lat="44.27379" lon="3.23222">
        <ele>579.4</ele>
        <time>2020-07-19T14:51:04Z</time>
      </trkpt>
      <trkpt lat="44.27386" lon="3.23224">
        <ele>579</ele>
        <time>2020-07-19T14:51:06Z</time>
      </trkpt>
      <trkpt lat="44.27382" lon="3.23221">
        <ele>578.1</ele>
        <time>2020-07-19T14:51:08Z</time>
      </trkpt>
      <trkpt lat="44.27383" lon="3.23218">
        <ele>577.9</ele>
        <time>2020-07-19T14:51:10Z</time>
      </trkpt>
      <trkpt lat="44.27381" lon="3.23211">
        <ele>575.3</ele>
        <time>2020-07-19T14:51:12Z</time>
      </trkpt>
      <trkpt lat="44.27385" lon="3.23217">
        <ele>576.5</ele>
        <time>2020-07-19T14:51:14Z</time>
      </trkpt>
      <trkpt lat="44.27385" lon="3.23216">
        <ele>574.5</ele>
        <time>2020-07-19T14:51:15Z</time>
      </trkpt>
      <trkpt lat="44.27385" lon="3.23214">
        <ele>574.4</ele>
        <time>2020-07-19T14:51:17Z</time>
      </trkpt>
      <trkpt lat="44.27384" lon="3.23212">
        <ele>573.6</ele>
        <time>2020-07-19T14:51:18Z</time>
      </trkpt>
      <trkpt lat="44.27385" lon="3.23208">
        <ele>570.7</ele>
        <time>2020-07-19T14:51:20Z</time>
      </trkpt>
      <trkpt lat="44.27387" lon="3.23204">
        <ele>570.5</ele>
        <time>2020-07-19T14:51:21Z</time>
      </trkpt>
      <trkpt lat="44.27397" lon="3.232">
        <ele>564.8</ele>
        <time>2020-07-19T14:51:23Z</time>
      </trkpt>
      <trkpt lat="44.27404" lon="3.23198">
        <ele>561.4</ele>
        <time>2020-07-19T14:51:24Z</time>
      </trkpt>
      <trkpt lat="44.27408" lon="3.23198">
        <ele>560.5</ele>
        <time>2020-07-19T14:51:26Z</time>
      </trkpt>
      <trkpt lat="44.27412" lon="3.23201">
        <ele>561.1</ele>
        <time>2020-07-19T14:51:28Z</time>
      </trkpt>
      <trkpt lat="44.27414" lon="3.23201">
        <ele>560.2</ele>
        <time>2020-07-19T14:51:29Z</time>
      </trkpt>
      <trkpt lat="44.27423" lon="3.23201">
        <ele>557.8</ele>
        <time>2020-07-19T14:51:31Z</time>
      </trkpt>
      <trkpt lat="44.27426" lon="3.23199">
        <ele>555.5</ele>
        <time>2020-07-19T14:51:32Z</time>
      </trkpt>
      <trkpt lat="44.27426" lon="3.23195">
        <ele>553.9</ele>
        <time>2020-07-19T14:51:33Z</time>
      </trkpt>
      <trkpt lat="44.27426" lon="3.23192">
        <ele>553.8</ele>
        <time>2020-07-19T14:51:34Z</time>
      </trkpt>
      <trkpt lat="44.27421" lon="3.23183">
        <ele>551.4</ele>
        <time>2020-07-19T14:51:36Z</time>
      </trkpt>
      <trkpt lat="44.27415" lon="3.23176">
        <ele>549.6</ele>
        <time>2020-07-19T14:51:37Z</time>
      </trkpt>
      <trkpt lat="44.27411" lon="3.23172">
        <ele>549.3</ele>
        <time>2020-07-19T14:51:38Z</time>
      </trkpt>
      <trkpt lat="44.27409" lon="3.23172">
        <ele>549.2</ele>
        <time>2020-07-19T14:51:40Z</time>
      </trkpt>
      <trkpt lat="44.27405" lon="3.23164">
        <ele>547.6</ele>
        <time>2020-07-19T14:51:42Z</time>
      </trkpt>
      <trkpt lat="44.27399" lon="3.23155">
        <ele>546.6</ele>
        <time>2020-07-19T14:51:43Z</time>
      </trkpt>
      <trkpt lat="44.27394" lon="3.23151">
        <ele>546.1</ele>
        <time>2020-07-19T14:51:44Z</time>
      </trkpt>
      <trkpt lat="44.2739" lon="3.23147">
        <ele>546.7</ele>
        <time>2020-07-19T14:51:46Z</time>
      </trkpt>
      <trkpt lat="44.27391" lon="3.23146">
        <ele>546.6</ele>
        <time>2020-07-19T14:51:47Z</time>
      </trkpt>
      <trkpt lat="44.27392" lon="3.23145">
        <ele>545.4</ele>
        <time>2020-07-19T14:51:49Z</time>
      </trkpt>
      <trkpt lat="44.27393" lon="3.23144">
        <ele>545.3</ele>
        <time>2020-07-19T14:51:51Z</time>
      </trkpt>
      <trkpt lat="44.27394" lon="3.23143">
        <ele>543</ele>
        <time>2020-07-19T14:51:53Z</time>
      </trkpt>
      <trkpt lat="44.27395" lon="3.23141">
        <ele>542.9</ele>
        <time>2020-07-19T14:51:55Z</time>
      </trkpt>
      <trkpt lat="44.27399" lon="3.23137">
        <ele>540.6</ele>
        <time>2020-07-19T14:51:57Z</time>
      </trkpt>
      <trkpt lat="44.274" lon="3.23137">
        <ele>539.7</ele>
        <time>2020-07-19T14:51:58Z</time>
      </trkpt>
      <trkpt lat="44.27401" lon="3.23136">
        <ele>539.6</ele>
        <time>2020-07-19T14:51:59Z</time>
      </trkpt>
      <trkpt lat="44.27403" lon="3.23136">
        <ele>539.4</ele>
        <time>2020-07-19T14:52:00Z</time>
      </trkpt>
      <trkpt lat="44.27404" lon="3.23135">
        <ele>537.3</ele>
        <time>2020-07-19T14:52:01Z</time>
      </trkpt>
      <trkpt lat="44.27404" lon="3.23136">
        <ele>538.4</ele>
        <time>2020-07-19T14:52:03Z</time>
      </trkpt>
      <trkpt lat="44.27404" lon="3.23137">
        <ele>538.3</ele>
        <time>2020-07-19T14:52:04Z</time>
      </trkpt>
      <trkpt lat="44.27405" lon="3.23137">
        <ele>538.2</ele>
        <time>2020-07-19T14:52:06Z</time>
      </trkpt>
      <trkpt lat="44.27403" lon="3.23136">
        <ele>538</ele>
        <time>2020-07-19T14:52:07Z</time>
      </trkpt>
      <trkpt lat="44.27402" lon="3.23135">
        <ele>538.6</ele>
        <time>2020-07-19T14:52:08Z</time>
      </trkpt>
      <trkpt lat="44.27401" lon="3.23133">
        <ele>537.2</ele>
        <time>2020-07-19T14:52:09Z</time>
      </trkpt>
      <trkpt lat="44.274" lon="3.23129">
        <ele>535.8</ele>
        <time>2020-07-19T14:52:11Z</time>
      </trkpt>
      <trkpt lat="44.27401" lon="3.23126">
        <ele>534.4</ele>
        <time>2020-07-19T14:52:12Z</time>
      </trkpt>
      <trkpt lat="44.27403" lon="3.23121">
        <ele>533.1</ele>
        <time>2020-07-19T14:52:14Z</time>
      </trkpt>
      <trkpt lat="44.27401" lon="3.2311">
        <ele>530.7</ele>
        <time>2020-07-19T14:52:15Z</time>
      </trkpt>
      <trkpt lat="44.27403" lon="3.23102">
        <ele>527.9</ele>
        <time>2020-07-19T14:52:17Z</time>
      </trkpt>
      <trkpt lat="44.27406" lon="3.23092">
        <ele>524</ele>
        <time>2020-07-19T14:52:19Z</time>
      </trkpt>
      <trkpt lat="44.27409" lon="3.23089">
        <ele>523.8</ele>
        <time>2020-07-19T14:52:20Z</time>
      </trkpt>
      <trkpt lat="44.2741" lon="3.23088">
        <ele>522</ele>
        <time>2020-07-19T14:52:21Z</time>
      </trkpt>
      <trkpt lat="44.27412" lon="3.23087">
        <ele>521.3</ele>
        <time>2020-07-19T14:52:22Z</time>
      </trkpt>
      <trkpt lat="44.27415" lon="3.23087">
        <ele>520.6</ele>
        <time>2020-07-19T14:52:23Z</time>
      </trkpt>
      <trkpt lat="44.27419" lon="3.23086">
        <ele>519.8</ele>
        <time>2020-07-19T14:52:25Z</time>
      </trkpt>
      <trkpt lat="44.27421" lon="3.23086">
        <ele>519.7</ele>
        <time>2020-07-19T14:52:26Z</time>
      </trkpt>
      <trkpt lat="44.27424" lon="3.23085">
        <ele>519</ele>
        <time>2020-07-19T14:52:27Z</time>
      </trkpt>
      <trkpt lat="44.27425" lon="3.23084">
        <ele>518.3</ele>
        <time>2020-07-19T14:52:28Z</time>
      </trkpt>
      <trkpt lat="44.27424" lon="3.2308">
        <ele>516.9</ele>
        <time>2020-07-19T14:52:30Z</time>
      </trkpt>
      <trkpt lat="44.27423" lon="3.23079">
        <ele>516.1</ele>
        <time>2020-07-19T14:52:31Z</time>
      </trkpt>
      <trkpt lat="44.2742" lon="3.23074">
        <ele>515.3</ele>
        <time>2020-07-19T14:52:32Z</time>
      </trkpt>
      <trkpt lat="44.27418" lon="3.23071">
        <ele>514.5</ele>
        <time>2020-07-19T14:52:33Z</time>
      </trkpt>
      <trkpt lat="44.27413" lon="3.23064">
        <ele>512.6</ele>
        <time>2020-07-19T14:52:35Z</time>
      </trkpt>
      <trkpt lat="44.2741" lon="3.23058">
        <ele>510.7</ele>
        <time>2020-07-19T14:52:36Z</time>
      </trkpt>
      <trkpt lat="44.27406" lon="3.23049">
        <ele>508.5</ele>
        <time>2020-07-19T14:52:38Z</time>
      </trkpt>
      <trkpt lat="44.27405" lon="3.23045">
        <ele>507.7</ele>
        <time>2020-07-19T14:52:39Z</time>
      </trkpt>
      <trkpt lat="44.27408" lon="3.23041">
        <ele>506.6</ele>
        <time>2020-07-19T14:52:40Z</time>
      </trkpt>
      <trkpt lat="44.2741" lon="3.23037">
        <ele>505.4</ele>
        <time>2020-07-19T14:52:42Z</time>
      </trkpt>
      <trkpt lat="44.27415" lon="3.23034">
        <ele>504.4</ele>
        <time>2020-07-19T14:52:43Z</time>
      </trkpt>
      <trkpt lat="44.27419" lon="3.23033">
        <ele>502.7</ele>
        <time>2020-07-19T14:52:44Z</time>
      </trkpt>
      <trkpt lat="44.27426" lon="3.23036">
        <ele>500</ele>
        <time>2020-07-19T14:52:46Z</time>
      </trkpt>
      <trkpt lat="44.27429" lon="3.23038">
        <ele>498.9</ele>
        <time>2020-07-19T14:52:48Z</time>
      </trkpt>
      <trkpt lat="44.2743" lon="3.23039">
        <ele>498.5</ele>
        <time>2020-07-19T14:52:49Z</time>
      </trkpt>
      <trkpt lat="44.2743" lon="3.23037">
        <ele>498.1</ele>
        <time>2020-07-19T14:52:50Z</time>
      </trkpt>
      <trkpt lat="44.27427" lon="3.23034">
        <ele>497.3</ele>
        <time>2020-07-19T14:52:52Z</time>
      </trkpt>
      <trkpt lat="44.27424" lon="3.23032">
        <ele>496.3</ele>
        <time>2020-07-19T14:52:54Z</time>
      </trkpt>
      <trkpt lat="44.27423" lon="3.23031">
        <ele>496.1</ele>
        <time>2020-07-19T14:52:55Z</time>
      </trkpt>
      <trkpt lat="44.27423" lon="3.23031">
        <ele>496</ele>
        <time>2020-07-19T14:52:57Z</time>
      </trkpt>
      <trkpt lat="44.27424" lon="3.23031">
        <ele>495.9</ele>
        <time>2020-07-19T14:52:59Z</time>
      </trkpt>
      <trkpt lat="44.27424" lon="3.2303">
        <ele>495.8</ele>
        <time>2020-07-19T14:53:01Z</time>
      </trkpt>
      <trkpt lat="44.27425" lon="3.2303">
        <ele>495.6</ele>
        <time>2020-07-19T14:53:02Z</time>
      </trkpt>
      <trkpt lat="44.27425" lon="3.2303">
        <ele>495.5</ele>
        <time>2020-07-19T14:53:04Z</time>
      </trkpt>
      <trkpt lat="44.27425" lon="3.23029">
        <ele>495.4</ele>
        <time>2020-07-19T14:53:05Z</time>
      </trkpt>
      <trkpt lat="44.27426" lon="3.23029">
        <ele>495.3</ele>
        <time>2020-07-19T14:53:07Z</time>
      </trkpt>
      <trkpt lat="44.27426" lon="3.23029">
        <ele>495.2</ele>
        <time>2020-07-19T14:53:08Z</time>
      </trkpt>
      <trkpt lat="44.27436" lon="3.23021">
        <ele>492.6</ele>
        <time>2020-07-19T14:53:09Z</time>
      </trkpt>
      <trkpt lat="44.27443" lon="3.23015">
        <ele>490.5</ele>
        <time>2020-07-19T14:53:11Z</time>
      </trkpt>
      <trkpt lat="44.27449" lon="3.23011">
        <ele>489</ele>
        <time>2020-07-19T14:53:12Z</time>
      </trkpt>
      <trkpt lat="44.2746" lon="3.23005">
        <ele>486.1</ele>
        <time>2020-07-19T14:53:14Z</time>
      </trkpt>
      <trkpt lat="44.27464" lon="3.23002">
        <ele>484.6</ele>
        <time>2020-07-19T14:53:15Z</time>
      </trkpt>
      <trkpt lat="44.27467" lon="3.23001">
        <ele>483.3</ele>
        <time>2020-07-19T14:53:17Z</time>
      </trkpt>
      <trkpt lat="44.27471" lon="3.22996">
        <ele>480.9</ele>
        <time>2020-07-19T14:53:18Z</time>
      </trkpt>
      <trkpt lat="44.27474" lon="3.22995">
        <ele>479.1</ele>
        <time>2020-07-19T14:53:19Z</time>
      </trkpt>
      <trkpt lat="44.27486" lon="3.23003">
        <ele>473.2</ele>
        <time>2020-07-19T14:53:21Z</time>
      </trkpt>
      <trkpt lat="44.27497" lon="3.2301">
        <ele>470.8</ele>
        <time>2020-07-19T14:53:23Z</time>
      </trkpt>
      <trkpt lat="44.27509" lon="3.23005">
        <ele>468.6</ele>
        <time>2020-07-19T14:53:25Z</time>
      </trkpt>
      <trkpt lat="44.27513" lon="3.23">
        <ele>467.7</ele>
        <time>2020-07-19T14:53:26Z</time>
      </trkpt>
      <trkpt lat="44.27522" lon="3.22992">
        <ele>466.4</ele>
        <time>2020-07-19T14:53:28Z</time>
      </trkpt>
      <trkpt lat="44.2753" lon="3.22985">
        <ele>465.4</ele>
        <time>2020-07-19T14:53:30Z</time>
      </trkpt>
      <trkpt lat="44.27534" lon="3.2298">
        <ele>464.9</ele>
        <time>2020-07-19T14:53:31Z</time>
      </trkpt>
      <trkpt lat="44.27538" lon="3.22976">
        <ele>464.5</ele>
        <time>2020-07-19T14:53:32Z</time>
      </trkpt>
      <trkpt lat="44.27548" lon="3.22973">
        <ele>463.6</ele>
        <time>2020-07-19T14:53:34Z</time>
      </trkpt>
      <trkpt lat="44.27554" lon="3.22974">
        <ele>463.1</ele>
        <time>2020-07-19T14:53:35Z</time>
      </trkpt>
      <trkpt lat="44.27565" lon="3.22971">
        <ele>462</ele>
        <time>2020-07-19T14:53:37Z</time>
      </trkpt>
      <trkpt lat="44.27578" lon="3.22969">
        <ele>460.8</ele>
        <time>2020-07-19T14:53:39Z</time>
      </trkpt>
      <trkpt lat="44.27585" lon="3.22969">
        <ele>460.3</ele>
        <time>2020-07-19T14:53:40Z</time>
      </trkpt>
      <trkpt lat="44.27598" lon="3.22968">
        <ele>459</ele>
        <time>2020-07-19T14:53:42Z</time>
      </trkpt>
      <trkpt lat="44.27604" lon="3.2297">
        <ele>458.3</ele>
        <time>2020-07-19T14:53:43Z</time>
      </trkpt>
      <trkpt lat="44.27608" lon="3.22971">
        <ele>457.9</ele>
        <time>2020-07-19T14:53:45Z</time>
      </trkpt>
      <trkpt lat="44.27608" lon="3.2297">
        <ele>457.8</ele>
        <time>2020-07-19T14:53:46Z</time>
      </trkpt>
      <trkpt lat="44.27608" lon="3.22968">
        <ele>457.6</ele>
        <time>2020-07-19T14:53:48Z</time>
      </trkpt>
      <trkpt lat="44.27607" lon="3.22968">
        <ele>457.6</ele>
        <time>2020-07-19T14:53:49Z</time>
      </trkpt>
      <trkpt lat="44.27607" lon="3.22967">
        <ele>457.5</ele>
        <time>2020-07-19T14:53:50Z</time>
      </trkpt>
      <trkpt lat="44.27607" lon="3.22967">
        <ele>457.4</ele>
        <time>2020-07-19T14:53:52Z</time>
      </trkpt>
      <trkpt lat="44.27607" lon="3.22967">
        <ele>457.4</ele>
        <time>2020-07-19T14:53:54Z</time>
      </trkpt>
      <trkpt lat="44.27607" lon="3.22967">
        <ele>457.4</ele>
        <time>2020-07-19T14:53:56Z</time>
      </trkpt>
      <trkpt lat="44.27607" lon="3.22967">
        <ele>457.4</ele>
        <time>2020-07-19T14:53:57Z</time>
      </trkpt>
      <trkpt lat="44.27607" lon="3.22967">
        <ele>457.4</ele>
        <time>2020-07-19T14:53:59Z</time>
      </trkpt>
      <trkpt lat="44.27612" lon="3.22967">
        <ele>456.6</ele>
        <time>2020-07-19T14:54:53Z</time>
      </trkpt>
      <trkpt lat="44.27618" lon="3.22966">
        <ele>455.7</ele>
        <time>2020-07-19T14:54:55Z</time>
      </trkpt>
      <trkpt lat="44.2762" lon="3.22965">
        <ele>455.4</ele>
        <time>2020-07-19T14:54:56Z</time>
      </trkpt>
      <trkpt lat="44.2762" lon="3.22963">
        <ele>455</ele>
        <time>2020-07-19T14:54:57Z</time>
      </trkpt>
      <trkpt lat="44.27623" lon="3.22965">
        <ele>454.5</ele>
        <time>2020-07-19T14:54:59Z</time>
      </trkpt>
      <trkpt lat="44.27624" lon="3.22964">
        <ele>454.1</ele>
        <time>2020-07-19T14:55:00Z</time>
      </trkpt>
      <trkpt lat="44.27626" lon="3.22962">
        <ele>453.7</ele>
        <time>2020-07-19T14:55:01Z</time>
      </trkpt>
      <trkpt lat="44.27628" lon="3.22963">
        <ele>453.2</ele>
        <time>2020-07-19T14:55:02Z</time>
      </trkpt>
      <trkpt lat="44.27631" lon="3.22965">
        <ele>452.5</ele>
        <time>2020-07-19T14:55:04Z</time>
      </trkpt>
      <trkpt lat="44.27634" lon="3.22967">
        <ele>451.9</ele>
        <time>2020-07-19T14:55:05Z</time>
      </trkpt>
      <trkpt lat="44.27635" lon="3.22968">
        <ele>451.6</ele>
        <time>2020-07-19T14:55:06Z</time>
      </trkpt>
      <trkpt lat="44.27638" lon="3.22968">
        <ele>451.1</ele>
        <time>2020-07-19T14:55:07Z</time>
      </trkpt>
      <trkpt lat="44.27641" lon="3.22966">
        <ele>450.5</ele>
        <time>2020-07-19T14:55:09Z</time>
      </trkpt>
      <trkpt lat="44.27642" lon="3.22965">
        <ele>450.3</ele>
        <time>2020-07-19T14:55:11Z</time>
      </trkpt>
      <trkpt lat="44.27643" lon="3.22965">
        <ele>450.1</ele>
        <time>2020-07-19T14:55:12Z</time>
      </trkpt>
      <trkpt lat="44.27644" lon="3.22964">
        <ele>449.9</ele>
        <time>2020-07-19T14:55:13Z</time>
      </trkpt>
      <trkpt lat="44.27645" lon="3.22964">
        <ele>449.8</ele>
        <time>2020-07-19T14:55:15Z</time>
      </trkpt>
      <trkpt lat="44.27646" lon="3.22964">
        <ele>449.6</ele>
        <time>2020-07-19T14:55:17Z</time>
      </trkpt>
      <trkpt lat="44.27647" lon="3.22963">
        <ele>449.4</ele>
        <time>2020-07-19T14:55:18Z</time>
      </trkpt>
      <trkpt lat="44.2765" lon="3.22963">
        <ele>449.1</ele>
        <time>2020-07-19T14:55:19Z</time>
      </trkpt>
      <trkpt lat="44.27655" lon="3.22961">
        <ele>448.5</ele>
        <time>2020-07-19T14:55:21Z</time>
      </trkpt>
      <trkpt lat="44.27667" lon="3.22955">
        <ele>446.8</ele>
        <time>2020-07-19T14:55:22Z</time>
      </trkpt>
      <trkpt lat="44.27676" lon="3.22951">
        <ele>445.9</ele>
        <time>2020-07-19T14:55:23Z</time>
      </trkpt>
      <trkpt lat="44.27689" lon="3.22946">
        <ele>444.5</ele>
        <time>2020-07-19T14:55:25Z</time>
      </trkpt>
      <trkpt lat="44.27695" lon="3.22942">
        <ele>443.8</ele>
        <time>2020-07-19T14:55:26Z</time>
      </trkpt>
      <trkpt lat="44.277" lon="3.22939">
        <ele>443</ele>
        <time>2020-07-19T14:55:27Z</time>
      </trkpt>
      <trkpt lat="44.27712" lon="3.22931">
        <ele>441.7</ele>
        <time>2020-07-19T14:55:29Z</time>
      </trkpt>
      <trkpt lat="44.27717" lon="3.2293">
        <ele>441.2</ele>
        <time>2020-07-19T14:55:30Z</time>
      </trkpt>
      <trkpt lat="44.27722" lon="3.2293">
        <ele>440.6</ele>
        <time>2020-07-19T14:55:31Z</time>
      </trkpt>
      <trkpt lat="44.27723" lon="3.22928">
        <ele>440.5</ele>
        <time>2020-07-19T14:55:32Z</time>
      </trkpt>
      <trkpt lat="44.27727" lon="3.22926">
        <ele>439.9</ele>
        <time>2020-07-19T14:55:34Z</time>
      </trkpt>
      <trkpt lat="44.27735" lon="3.22934">
        <ele>438.6</ele>
        <time>2020-07-19T14:55:36Z</time>
      </trkpt>
      <trkpt lat="44.2774" lon="3.2294">
        <ele>437.7</ele>
        <time>2020-07-19T14:55:37Z</time>
      </trkpt>
      <trkpt lat="44.27743" lon="3.22945">
        <ele>437</ele>
        <time>2020-07-19T14:55:38Z</time>
      </trkpt>
      <trkpt lat="44.27748" lon="3.2296">
        <ele>434.8</ele>
        <time>2020-07-19T14:55:40Z</time>
      </trkpt>
      <trkpt lat="44.27753" lon="3.22973">
        <ele>432.7</ele>
        <time>2020-07-19T14:55:42Z</time>
      </trkpt>
      <trkpt lat="44.27757" lon="3.22977">
        <ele>432</ele>
        <time>2020-07-19T14:55:43Z</time>
      </trkpt>
      <trkpt lat="44.27761" lon="3.22981">
        <ele>431</ele>
        <time>2020-07-19T14:55:44Z</time>
      </trkpt>
      <trkpt lat="44.27767" lon="3.22987">
        <ele>429.5</ele>
        <time>2020-07-19T14:55:46Z</time>
      </trkpt>
      <trkpt lat="44.27767" lon="3.22988">
        <ele>429.4</ele>
        <time>2020-07-19T14:55:47Z</time>
      </trkpt>
      <trkpt lat="44.27773" lon="3.22994">
        <ele>428</ele>
        <time>2020-07-19T14:55:49Z</time>
      </trkpt>
      <trkpt lat="44.2778" lon="3.23001">
        <ele>426.6</ele>
        <time>2020-07-19T14:55:50Z</time>
      </trkpt>
      <trkpt lat="44.27788" lon="3.23009">
        <ele>423.8</ele>
        <time>2020-07-19T14:55:52Z</time>
      </trkpt>
      <trkpt lat="44.27792" lon="3.23005">
        <ele>423</ele>
        <time>2020-07-19T14:55:54Z</time>
      </trkpt>
      <trkpt lat="44.27793" lon="3.23">
        <ele>422.4</ele>
        <time>2020-07-19T14:55:56Z</time>
      </trkpt>
      <trkpt lat="44.27793" lon="3.22998">
        <ele>422.3</ele>
        <time>2020-07-19T14:55:57Z</time>
      </trkpt>
      <trkpt lat="44.27796" lon="3.22992">
        <ele>421.6</ele>
        <time>2020-07-19T14:55:58Z</time>
      </trkpt>
      <trkpt lat="44.27799" lon="3.22991">
        <ele>421.2</ele>
        <time>2020-07-19T14:55:59Z</time>
      </trkpt>
      <trkpt lat="44.27802" lon="3.22992">
        <ele>420.9</ele>
        <time>2020-07-19T14:56:01Z</time>
      </trkpt>
      <trkpt lat="44.27805" lon="3.22993">
        <ele>420.6</ele>
        <time>2020-07-19T14:56:02Z</time>
      </trkpt>
      <trkpt lat="44.27807" lon="3.22989">
        <ele>420.2</ele>
        <time>2020-07-19T14:56:04Z</time>
      </trkpt>
      <trkpt lat="44.2781" lon="3.22985">
        <ele>419.9</ele>
        <time>2020-07-19T14:56:05Z</time>
      </trkpt>
      <trkpt lat="44.27813" lon="3.22979">
        <ele>419.3</ele>
        <time>2020-07-19T14:56:07Z</time>
      </trkpt>
      <trkpt lat="44.27815" lon="3.22976">
        <ele>419.2</ele>
        <time>2020-07-19T14:56:08Z</time>
      </trkpt>
      <trkpt lat="44.27816" lon="3.22976">
        <ele>419.2</ele>
        <time>2020-07-19T14:56:09Z</time>
      </trkpt>
      <trkpt lat="44.27815" lon="3.22978">
        <ele>419.2</ele>
        <time>2020-07-19T14:56:11Z</time>
      </trkpt>
      <trkpt lat="44.27815" lon="3.22977">
        <ele>419.2</ele>
        <time>2020-07-19T14:56:12Z</time>
      </trkpt>
      <trkpt lat="44.27816" lon="3.22977">
        <ele>419.2</ele>
        <time>2020-07-19T14:56:13Z</time>
      </trkpt>
      <trkpt lat="44.27816" lon="3.22978">
        <ele>419.2</ele>
        <time>2020-07-19T14:56:14Z</time>
      </trkpt>
      <trkpt lat="44.27816" lon="3.22979">
        <ele>419.2</ele>
        <time>2020-07-19T14:56:15Z</time>
      </trkpt>
      <trkpt lat="44.27816" lon="3.22981">
        <ele>419.2</ele>
        <time>2020-07-19T14:56:17Z</time>
      </trkpt>
      <trkpt lat="44.27814" lon="3.22981">
        <ele>419.2</ele>
        <time>2020-07-19T14:56:18Z</time>
      </trkpt>
      <trkpt lat="44.27813" lon="3.22981">
        <ele>419.2</ele>
        <time>2020-07-19T14:56:20Z</time>
      </trkpt>
      <trkpt lat="44.27813" lon="3.22981">
        <ele>419.2</ele>
        <time>2020-07-19T14:56:21Z</time>
      </trkpt>
      <trkpt lat="44.2779" lon="3.22951">
        <ele>417.7</ele>
        <time>2020-07-19T14:56:23Z</time>
      </trkpt>
      <trkpt lat="44.2778" lon="3.22935">
        <ele>416.6</ele>
        <time>2020-07-19T14:56:25Z</time>
      </trkpt>
      <trkpt lat="44.27776" lon="3.22926">
        <ele>416.1</ele>
        <time>2020-07-19T14:56:26Z</time>
      </trkpt>
      <trkpt lat="44.27772" lon="3.22919">
        <ele>415.8</ele>
        <time>2020-07-19T14:56:27Z</time>
      </trkpt>
      <trkpt lat="44.27766" lon="3.22906">
        <ele>416.2</ele>
        <time>2020-07-19T14:56:29Z</time>
      </trkpt>
      <trkpt lat="44.27759" lon="3.22895">
        <ele>417.1</ele>
        <time>2020-07-19T14:56:31Z</time>
      </trkpt>
      <trkpt lat="44.27755" lon="3.2289">
        <ele>417.5</ele>
        <time>2020-07-19T14:56:32Z</time>
      </trkpt>
      <trkpt lat="44.27747" lon="3.22882">
        <ele>418.3</ele>
        <time>2020-07-19T14:56:34Z</time>
      </trkpt>
      <trkpt lat="44.27742" lon="3.22877">
        <ele>418.8</ele>
        <time>2020-07-19T14:56:35Z</time>
      </trkpt>
      <trkpt lat="44.27733" lon="3.22866">
        <ele>419.7</ele>
        <time>2020-07-19T14:56:37Z</time>
      </trkpt>
      <trkpt lat="44.27729" lon="3.22862">
        <ele>420.1</ele>
        <time>2020-07-19T14:56:38Z</time>
      </trkpt>
      <trkpt lat="44.27726" lon="3.22857">
        <ele>420.5</ele>
        <time>2020-07-19T14:56:40Z</time>
      </trkpt>
      <trkpt lat="44.27726" lon="3.22856">
        <ele>420.6</ele>
        <time>2020-07-19T14:56:41Z</time>
      </trkpt>
      <trkpt lat="44.27725" lon="3.22853">
        <ele>420.8</ele>
        <time>2020-07-19T14:56:42Z</time>
      </trkpt>
      <trkpt lat="44.27723" lon="3.22847">
        <ele>421.2</ele>
        <time>2020-07-19T14:56:44Z</time>
      </trkpt>
      <trkpt lat="44.27722" lon="3.22843">
        <ele>421.6</ele>
        <time>2020-07-19T14:56:45Z</time>
      </trkpt>
      <trkpt lat="44.27724" lon="3.22837">
        <ele>421.7</ele>
        <time>2020-07-19T14:56:47Z</time>
      </trkpt>
      <trkpt lat="44.27766" lon="3.22743">
        <ele>415.8</ele>
      </trkpt>
      <trkpt lat="44.2775" lon="3.22723">
        <ele>417.8</ele>
      </trkpt>
      <trkpt lat="44.27749" lon="3.22713">
        <ele>419.8</ele>
      </trkpt>
      <trkpt lat="44.27713" lon="3.22661">
        <ele>422.8</ele>
      </trkpt>
      <trkpt lat="44.27703" lon="3.22645">
        <ele>424.5</ele>
      </trkpt>
      <trkpt lat="44.27697" lon="3.22627">
        <ele>425.5</ele>
      </trkpt>
      <trkpt lat="44.27697" lon="3.22616">
        <ele>426.6</ele>
      </trkpt>
      <trkpt lat="44.27699" lon="3.22608">
        <ele>428.8</ele>
      </trkpt>
      <trkpt lat="44.27705" lon="3.22606">
        <ele>432.4</ele>
      </trkpt>
      <trkpt lat="44.27712" lon="3.22606">
        <ele>435.4</ele>
      </trkpt>
      <trkpt lat="44.27715" lon="3.22615">
        <ele>434.3</ele>
      </trkpt>
      <trkpt lat="44.27721" lon="3.22639">
        <ele>430.5</ele>
      </trkpt>
      <trkpt lat="44.27726" lon="3.22649">
        <ele>430.4</ele>
      </trkpt>
      <trkpt lat="44.27736" lon="3.22657">
        <ele>439.3</ele>
        <time>2017-02-17T14:05:24Z</time>
      </trkpt>
      <trkpt lat="44.27738" lon="3.2266">
        <ele>439.7</ele>
        <time>2017-02-17T14:05:25Z</time>
      </trkpt>
      <trkpt lat="44.27744" lon="3.22668">
        <ele>440.7</ele>
        <time>2017-02-17T14:05:26Z</time>
      </trkpt>
      <trkpt lat="44.2775" lon="3.22674">
        <ele>441.7</ele>
        <time>2017-02-17T14:05:27Z</time>
      </trkpt>
      <trkpt lat="44.27754" lon="3.22678">
        <ele>442.2</ele>
        <time>2017-02-17T14:05:28Z</time>
      </trkpt>
      <trkpt lat="44.2776" lon="3.22689">
        <ele>443.3</ele>
        <time>2017-02-17T14:05:45Z</time>
      </trkpt>
      <trkpt lat="44.27766" lon="3.22689">
        <ele>443.9</ele>
        <time>2017-02-17T14:05:48Z</time>
      </trkpt>
      <trkpt lat="44.27769" lon="3.22692">
        <ele>444.2</ele>
        <time>2017-02-17T14:05:51Z</time>
      </trkpt>
      <trkpt lat="44.27772" lon="3.22695">
        <ele>444.6</ele>
        <time>2017-02-17T14:05:53Z</time>
      </trkpt>
      <trkpt lat="44.27777" lon="3.22695">
        <ele>445.1</ele>
        <time>2017-02-17T14:05:56Z</time>
      </trkpt>
      <trkpt lat="44.2778" lon="3.22696">
        <ele>445.5</ele>
        <time>2017-02-17T14:05:58Z</time>
      </trkpt>
      <trkpt lat="44.27784" lon="3.22698">
        <ele>445.9</ele>
        <time>2017-02-17T14:06:00Z</time>
      </trkpt>
      <trkpt lat="44.27787" lon="3.227">
        <ele>446.3</ele>
        <time>2017-02-17T14:06:02Z</time>
      </trkpt>
      <trkpt lat="44.2779" lon="3.22702">
        <ele>446.5</ele>
        <time>2017-02-17T14:06:04Z</time>
      </trkpt>
      <trkpt lat="44.27793" lon="3.22703">
        <ele>446.8</ele>
        <time>2017-02-17T14:06:06Z</time>
      </trkpt>
      <trkpt lat="44.27797" lon="3.22704">
        <ele>447.2</ele>
        <time>2017-02-17T14:06:08Z</time>
      </trkpt>
      <trkpt lat="44.278" lon="3.22706">
        <ele>447.6</ele>
        <time>2017-02-17T14:06:10Z</time>
      </trkpt>
      <trkpt lat="44.27803" lon="3.22709">
        <ele>448</ele>
        <time>2017-02-17T14:06:12Z</time>
      </trkpt>
      <trkpt lat="44.27806" lon="3.22712">
        <ele>448.4</ele>
        <time>2017-02-17T14:06:14Z</time>
      </trkpt>
      <trkpt lat="44.27807" lon="3.22716">
        <ele>448.8</ele>
        <time>2017-02-17T14:06:16Z</time>
      </trkpt>
      <trkpt lat="44.27811" lon="3.22721">
        <ele>449.3</ele>
        <time>2017-02-17T14:06:21Z</time>
      </trkpt>
      <trkpt lat="44.27815" lon="3.22721">
        <ele>449.8</ele>
        <time>2017-02-17T14:06:23Z</time>
      </trkpt>
      <trkpt lat="44.27818" lon="3.22721">
        <ele>450.2</ele>
        <time>2017-02-17T14:06:25Z</time>
      </trkpt>
      <trkpt lat="44.27822" lon="3.22723">
        <ele>450.7</ele>
        <time>2017-02-17T14:06:27Z</time>
      </trkpt>
      <trkpt lat="44.27826" lon="3.22724">
        <ele>451.2</ele>
        <time>2017-02-17T14:06:29Z</time>
      </trkpt>
      <trkpt lat="44.27833" lon="3.22726">
        <ele>451.9</ele>
        <time>2017-02-17T14:06:32Z</time>
      </trkpt>
      <trkpt lat="44.27835" lon="3.22726">
        <ele>452.2</ele>
        <time>2017-02-17T14:06:33Z</time>
      </trkpt>
      <trkpt lat="44.2784" lon="3.22726">
        <ele>452.7</ele>
        <time>2017-02-17T14:06:35Z</time>
      </trkpt>
      <trkpt lat="44.27844" lon="3.22725">
        <ele>453.2</ele>
        <time>2017-02-17T14:06:37Z</time>
      </trkpt>
      <trkpt lat="44.27848" lon="3.22726">
        <ele>453.6</ele>
        <time>2017-02-17T14:06:39Z</time>
      </trkpt>
      <trkpt lat="44.27852" lon="3.22728">
        <ele>454</ele>
        <time>2017-02-17T14:06:41Z</time>
      </trkpt>
      <trkpt lat="44.27856" lon="3.22728">
        <ele>454.4</ele>
        <time>2017-02-17T14:06:43Z</time>
      </trkpt>
      <trkpt lat="44.2786" lon="3.22729">
        <ele>454.8</ele>
        <time>2017-02-17T14:06:45Z</time>
      </trkpt>
      <trkpt lat="44.27863" lon="3.22731">
        <ele>455.1</ele>
        <time>2017-02-17T14:06:47Z</time>
      </trkpt>
      <trkpt lat="44.27867" lon="3.22732">
        <ele>455.5</ele>
        <time>2017-02-17T14:06:49Z</time>
      </trkpt>
      <trkpt lat="44.27871" lon="3.22733">
        <ele>455.9</ele>
        <time>2017-02-17T14:06:51Z</time>
      </trkpt>
      <trkpt lat="44.27875" lon="3.22735">
        <ele>456</ele>
        <time>2017-02-17T14:06:53Z</time>
      </trkpt>
      <trkpt lat="44.27877" lon="3.22737">
        <ele>456</ele>
        <time>2017-02-17T14:06:55Z</time>
      </trkpt>
      <trkpt lat="44.2788" lon="3.22741">
        <ele>455.9</ele>
        <time>2017-02-17T14:07:00Z</time>
      </trkpt>
      <trkpt lat="44.27883" lon="3.22744">
        <ele>455.9</ele>
        <time>2017-02-17T14:07:02Z</time>
      </trkpt>
      <trkpt lat="44.27885" lon="3.22748">
        <ele>455.9</ele>
        <time>2017-02-17T14:07:04Z</time>
      </trkpt>
      <trkpt lat="44.27888" lon="3.2275">
        <ele>455.9</ele>
        <time>2017-02-17T14:07:05Z</time>
      </trkpt>
      <trkpt lat="44.2789" lon="3.22752">
        <ele>455.9</ele>
        <time>2017-02-17T14:07:06Z</time>
      </trkpt>
      <trkpt lat="44.27893" lon="3.22755">
        <ele>455.9</ele>
        <time>2017-02-17T14:07:08Z</time>
      </trkpt>
      <trkpt lat="44.27897" lon="3.22757">
        <ele>455.9</ele>
        <time>2017-02-17T14:07:10Z</time>
      </trkpt>
      <trkpt lat="44.279" lon="3.22759">
        <ele>455.9</ele>
        <time>2017-02-17T14:07:12Z</time>
      </trkpt>
      <trkpt lat="44.27904" lon="3.22761">
        <ele>455.9</ele>
        <time>2017-02-17T14:07:14Z</time>
      </trkpt>
      <trkpt lat="44.27908" lon="3.22763">
        <ele>455.9</ele>
        <time>2017-02-17T14:07:17Z</time>
      </trkpt>
      <trkpt lat="44.27911" lon="3.22765">
        <ele>455.9</ele>
        <time>2017-02-17T14:07:19Z</time>
      </trkpt>
      <trkpt lat="44.27916" lon="3.22766">
        <ele>455.9</ele>
        <time>2017-02-17T14:07:21Z</time>
      </trkpt>
      <trkpt lat="44.27919" lon="3.22768">
        <ele>455.9</ele>
        <time>2017-02-17T14:07:23Z</time>
      </trkpt>
      <trkpt lat="44.27922" lon="3.2277">
        <ele>455.9</ele>
        <time>2017-02-17T14:07:25Z</time>
      </trkpt>
      <trkpt lat="44.27925" lon="3.22773">
        <ele>456</ele>
        <time>2017-02-17T14:07:27Z</time>
      </trkpt>
      <trkpt lat="44.27927" lon="3.22776">
        <ele>456</ele>
        <time>2017-02-17T14:07:29Z</time>
      </trkpt>
      <trkpt lat="44.2793" lon="3.2278">
        <ele>456.3</ele>
        <time>2017-02-17T14:07:32Z</time>
      </trkpt>
      <trkpt lat="44.27934" lon="3.22781">
        <ele>456.7</ele>
        <time>2017-02-17T14:07:35Z</time>
      </trkpt>
      <trkpt lat="44.27937" lon="3.22784">
        <ele>457</ele>
        <time>2017-02-17T14:07:38Z</time>
      </trkpt>
      <trkpt lat="44.27939" lon="3.22786">
        <ele>457.4</ele>
        <time>2017-02-17T14:07:41Z</time>
      </trkpt>
      <trkpt lat="44.27942" lon="3.22788">
        <ele>457.8</ele>
        <time>2017-02-17T14:07:44Z</time>
      </trkpt>
      <trkpt lat="44.27946" lon="3.2279">
        <ele>458.2</ele>
        <time>2017-02-17T14:07:47Z</time>
      </trkpt>
      <trkpt lat="44.27948" lon="3.22791">
        <ele>458.4</ele>
        <time>2017-02-17T14:07:49Z</time>
      </trkpt>
      <trkpt lat="44.27951" lon="3.22794">
        <ele>458.7</ele>
        <time>2017-02-17T14:07:52Z</time>
      </trkpt>
      <trkpt lat="44.27955" lon="3.22796">
        <ele>459.2</ele>
        <time>2017-02-17T14:07:55Z</time>
      </trkpt>
      <trkpt lat="44.27958" lon="3.22797">
        <ele>459.5</ele>
        <time>2017-02-17T14:07:57Z</time>
      </trkpt>
      <trkpt lat="44.27961" lon="3.22797">
        <ele>459.8</ele>
        <time>2017-02-17T14:07:59Z</time>
      </trkpt>
      <trkpt lat="44.27964" lon="3.22798">
        <ele>460</ele>
        <time>2017-02-17T14:08:01Z</time>
      </trkpt>
      <trkpt lat="44.27967" lon="3.228">
        <ele>460.3</ele>
        <time>2017-02-17T14:08:03Z</time>
      </trkpt>
      <trkpt lat="44.2797" lon="3.22801">
        <ele>460.7</ele>
        <time>2017-02-17T14:08:05Z</time>
      </trkpt>
      <trkpt lat="44.27973" lon="3.22803">
        <ele>461</ele>
        <time>2017-02-17T14:08:07Z</time>
      </trkpt>
      <trkpt lat="44.27978" lon="3.22805">
        <ele>461.5</ele>
        <time>2017-02-17T14:08:11Z</time>
      </trkpt>
      <trkpt lat="44.27981" lon="3.22807">
        <ele>461.7</ele>
        <time>2017-02-17T14:08:13Z</time>
      </trkpt>
      <trkpt lat="44.27984" lon="3.22808">
        <ele>462</ele>
        <time>2017-02-17T14:08:15Z</time>
      </trkpt>
      <trkpt lat="44.27986" lon="3.22809">
        <ele>462.3</ele>
        <time>2017-02-17T14:08:17Z</time>
      </trkpt>
      <trkpt lat="44.27989" lon="3.22811">
        <ele>462.6</ele>
        <time>2017-02-17T14:08:19Z</time>
      </trkpt>
      <trkpt lat="44.27992" lon="3.22811">
        <ele>462.8</ele>
        <time>2017-02-17T14:08:21Z</time>
      </trkpt>
      <trkpt lat="44.27996" lon="3.22813">
        <ele>463.2</ele>
        <time>2017-02-17T14:08:24Z</time>
      </trkpt>
      <trkpt lat="44.27999" lon="3.22814">
        <ele>463.6</ele>
        <time>2017-02-17T14:08:26Z</time>
      </trkpt>
      <trkpt lat="44.28002" lon="3.22815">
        <ele>463.9</ele>
        <time>2017-02-17T14:08:28Z</time>
      </trkpt>
      <trkpt lat="44.28005" lon="3.22815">
        <ele>464.1</ele>
        <time>2017-02-17T14:08:30Z</time>
      </trkpt>
      <trkpt lat="44.28009" lon="3.22815">
        <ele>464.5</ele>
        <time>2017-02-17T14:08:34Z</time>
      </trkpt>
      <trkpt lat="44.28012" lon="3.22815">
        <ele>464.8</ele>
        <time>2017-02-17T14:08:37Z</time>
      </trkpt>
      <trkpt lat="44.28016" lon="3.22816">
        <ele>465.1</ele>
        <time>2017-02-17T14:08:39Z</time>
      </trkpt>
      <trkpt lat="44.2802" lon="3.22816">
        <ele>465.5</ele>
        <time>2017-02-17T14:08:41Z</time>
      </trkpt>
      <trkpt lat="44.28023" lon="3.22815">
        <ele>465.8</ele>
        <time>2017-02-17T14:08:43Z</time>
      </trkpt>
      <trkpt lat="44.28026" lon="3.22814">
        <ele>466</ele>
        <time>2017-02-17T14:08:45Z</time>
      </trkpt>
      <trkpt lat="44.28029" lon="3.22815">
        <ele>466.4</ele>
        <time>2017-02-17T14:08:47Z</time>
      </trkpt>
      <trkpt lat="44.28032" lon="3.22814">
        <ele>466.6</ele>
        <time>2017-02-17T14:08:49Z</time>
      </trkpt>
      <trkpt lat="44.28035" lon="3.22814">
        <ele>466.9</ele>
        <time>2017-02-17T14:08:53Z</time>
      </trkpt>
      <trkpt lat="44.28038" lon="3.22815">
        <ele>467.1</ele>
        <time>2017-02-17T14:08:56Z</time>
      </trkpt>
      <trkpt lat="44.28042" lon="3.22816">
        <ele>467.5</ele>
        <time>2017-02-17T14:08:59Z</time>
      </trkpt>
      <trkpt lat="44.28045" lon="3.22817">
        <ele>467.8</ele>
        <time>2017-02-17T14:09:01Z</time>
      </trkpt>
      <trkpt lat="44.28049" lon="3.22818">
        <ele>468.2</ele>
        <time>2017-02-17T14:09:03Z</time>
      </trkpt>
      <trkpt lat="44.28052" lon="3.22818">
        <ele>468.5</ele>
        <time>2017-02-17T14:09:05Z</time>
      </trkpt>
      <trkpt lat="44.28055" lon="3.22817">
        <ele>468.8</ele>
        <time>2017-02-17T14:09:07Z</time>
      </trkpt>
      <trkpt lat="44.28058" lon="3.22816">
        <ele>469</ele>
        <time>2017-02-17T14:09:09Z</time>
      </trkpt>
      <trkpt lat="44.28061" lon="3.22816">
        <ele>469.3</ele>
        <time>2017-02-17T14:09:11Z</time>
      </trkpt>
      <trkpt lat="44.28064" lon="3.22817">
        <ele>469.6</ele>
        <time>2017-02-17T14:09:13Z</time>
      </trkpt>
      <trkpt lat="44.28067" lon="3.22817">
        <ele>469.8</ele>
        <time>2017-02-17T14:09:15Z</time>
      </trkpt>
      <trkpt lat="44.2807" lon="3.22817">
        <ele>470.1</ele>
        <time>2017-02-17T14:09:17Z</time>
      </trkpt>
      <trkpt lat="44.28073" lon="3.22816">
        <ele>470.4</ele>
        <time>2017-02-17T14:09:19Z</time>
      </trkpt>
      <trkpt lat="44.28077" lon="3.22815">
        <ele>470.8</ele>
        <time>2017-02-17T14:09:21Z</time>
      </trkpt>
      <trkpt lat="44.28081" lon="3.22814">
        <ele>471.1</ele>
        <time>2017-02-17T14:09:23Z</time>
      </trkpt>
      <trkpt lat="44.28084" lon="3.22812">
        <ele>471.5</ele>
        <time>2017-02-17T14:09:25Z</time>
      </trkpt>
      <trkpt lat="44.28087" lon="3.22811">
        <ele>471.8</ele>
        <time>2017-02-17T14:09:27Z</time>
      </trkpt>
      <trkpt lat="44.28089" lon="3.2281">
        <ele>472.1</ele>
        <time>2017-02-17T14:09:29Z</time>
      </trkpt>
      <trkpt lat="44.28092" lon="3.22808">
        <ele>472.4</ele>
        <time>2017-02-17T14:09:31Z</time>
      </trkpt>
      <trkpt lat="44.28096" lon="3.22806">
        <ele>472.8</ele>
        <time>2017-02-17T14:09:33Z</time>
      </trkpt>
      <trkpt lat="44.28099" lon="3.22805">
        <ele>473.1</ele>
        <time>2017-02-17T14:09:35Z</time>
      </trkpt>
      <trkpt lat="44.28102" lon="3.22803">
        <ele>473.5</ele>
        <time>2017-02-17T14:09:38Z</time>
      </trkpt>
      <trkpt lat="44.28104" lon="3.22801">
        <ele>473.8</ele>
        <time>2017-02-17T14:09:40Z</time>
      </trkpt>
      <trkpt lat="44.28107" lon="3.22798">
        <ele>474.2</ele>
        <time>2017-02-17T14:09:42Z</time>
      </trkpt>
      <trkpt lat="44.2811" lon="3.22795">
        <ele>474.6</ele>
        <time>2017-02-17T14:09:44Z</time>
      </trkpt>
      <trkpt lat="44.28112" lon="3.22792">
        <ele>474.9</ele>
        <time>2017-02-17T14:09:46Z</time>
      </trkpt>
      <trkpt lat="44.28114" lon="3.22789">
        <ele>475.1</ele>
        <time>2017-02-17T14:09:48Z</time>
      </trkpt>
      <trkpt lat="44.28116" lon="3.22785">
        <ele>475.4</ele>
        <time>2017-02-17T14:09:51Z</time>
      </trkpt>
      <trkpt lat="44.28118" lon="3.2278">
        <ele>475.8</ele>
        <time>2017-02-17T14:09:54Z</time>
      </trkpt>
      <trkpt lat="44.28119" lon="3.22776">
        <ele>476.1</ele>
        <time>2017-02-17T14:09:56Z</time>
      </trkpt>
      <trkpt lat="44.2812" lon="3.22772">
        <ele>476.3</ele>
        <time>2017-02-17T14:09:58Z</time>
      </trkpt>
      <trkpt lat="44.28121" lon="3.22767">
        <ele>476.7</ele>
        <time>2017-02-17T14:10:01Z</time>
      </trkpt>
      <trkpt lat="44.2812" lon="3.22763">
        <ele>476.9</ele>
        <time>2017-02-17T14:10:04Z</time>
      </trkpt>
      <trkpt lat="44.28119" lon="3.22759">
        <ele>477.2</ele>
        <time>2017-02-17T14:10:08Z</time>
      </trkpt>
      <trkpt lat="44.28122" lon="3.22755">
        <ele>477.5</ele>
        <time>2017-02-17T14:10:13Z</time>
      </trkpt>
      <trkpt lat="44.28125" lon="3.22752">
        <ele>477.8</ele>
        <time>2017-02-17T14:10:15Z</time>
      </trkpt>
      <trkpt lat="44.28132" lon="3.2275">
        <ele>478.3</ele>
        <time>2017-02-17T14:10:17Z</time>
      </trkpt>
      <trkpt lat="44.28137" lon="3.22747">
        <ele>478.7</ele>
        <time>2017-02-17T14:10:19Z</time>
      </trkpt>
      <trkpt lat="44.2814" lon="3.22747">
        <ele>479</ele>
        <time>2017-02-17T14:10:21Z</time>
      </trkpt>
      <trkpt lat="44.28144" lon="3.22746">
        <ele>479.3</ele>
        <time>2017-02-17T14:10:23Z</time>
      </trkpt>
      <trkpt lat="44.28148" lon="3.22745">
        <ele>479.5</ele>
        <time>2017-02-17T14:10:24Z</time>
      </trkpt>
      <trkpt lat="44.28151" lon="3.22743">
        <ele>479.8</ele>
        <time>2017-02-17T14:10:25Z</time>
      </trkpt>
      <trkpt lat="44.28157" lon="3.22743">
        <ele>480.2</ele>
        <time>2017-02-17T14:10:27Z</time>
      </trkpt>
      <trkpt lat="44.28161" lon="3.22741">
        <ele>480.4</ele>
        <time>2017-02-17T14:10:28Z</time>
      </trkpt>
      <trkpt lat="44.28165" lon="3.22739">
        <ele>480.8</ele>
        <time>2017-02-17T14:10:29Z</time>
      </trkpt>
      <trkpt lat="44.28168" lon="3.22738">
        <ele>481</ele>
        <time>2017-02-17T14:10:31Z</time>
      </trkpt>
      <trkpt lat="44.28173" lon="3.22737">
        <ele>481.4</ele>
        <time>2017-02-17T14:10:33Z</time>
      </trkpt>
      <trkpt lat="44.28178" lon="3.22735">
        <ele>481.7</ele>
        <time>2017-02-17T14:10:35Z</time>
      </trkpt>
      <trkpt lat="44.28182" lon="3.22734">
        <ele>482</ele>
        <time>2017-02-17T14:10:38Z</time>
      </trkpt>
      <trkpt lat="44.28185" lon="3.22735">
        <ele>482.2</ele>
        <time>2017-02-17T14:10:40Z</time>
      </trkpt>
      <trkpt lat="44.2819" lon="3.22734">
        <ele>482.5</ele>
        <time>2017-02-17T14:10:41Z</time>
      </trkpt>
      <trkpt lat="44.28194" lon="3.22732">
        <ele>482.9</ele>
        <time>2017-02-17T14:10:42Z</time>
      </trkpt>
      <trkpt lat="44.28196" lon="3.2273">
        <ele>483.1</ele>
        <time>2017-02-17T14:10:45Z</time>
      </trkpt>
      <trkpt lat="44.28199" lon="3.22727">
        <ele>483.3</ele>
        <time>2017-02-17T14:10:50Z</time>
      </trkpt>
      <trkpt lat="44.282" lon="3.22724">
        <ele>483.5</ele>
        <time>2017-02-17T14:10:55Z</time>
      </trkpt>
      <trkpt lat="44.28201" lon="3.2272">
        <ele>483.7</ele>
        <time>2017-02-17T14:10:58Z</time>
      </trkpt>
      <trkpt lat="44.28202" lon="3.22715">
        <ele>484</ele>
        <time>2017-02-17T14:11:01Z</time>
      </trkpt>
      <trkpt lat="44.28205" lon="3.22712">
        <ele>484.2</ele>
        <time>2017-02-17T14:11:04Z</time>
      </trkpt>
      <trkpt lat="44.28211" lon="3.22706">
        <ele>484.8</ele>
        <time>2017-02-17T14:11:11Z</time>
      </trkpt>
      <trkpt lat="44.2822" lon="3.22698">
        <ele>485.6</ele>
        <time>2017-02-17T14:11:17Z</time>
      </trkpt>
      <trkpt lat="44.28224" lon="3.22699">
        <ele>485.8</ele>
        <time>2017-02-17T14:11:20Z</time>
      </trkpt>
      <trkpt lat="44.28227" lon="3.22699">
        <ele>486</ele>
        <time>2017-02-17T14:11:22Z</time>
      </trkpt>
      <trkpt lat="44.28231" lon="3.22697">
        <ele>486.4</ele>
        <time>2017-02-17T14:11:23Z</time>
      </trkpt>
      <trkpt lat="44.28236" lon="3.22696">
        <ele>486.7</ele>
        <time>2017-02-17T14:11:24Z</time>
      </trkpt>
      <trkpt lat="44.28239" lon="3.22695">
        <ele>487</ele>
        <time>2017-02-17T14:11:26Z</time>
      </trkpt>
      <trkpt lat="44.28245" lon="3.22693">
        <ele>487.4</ele>
        <time>2017-02-17T14:11:28Z</time>
      </trkpt>
      <trkpt lat="44.28249" lon="3.22691">
        <ele>487.6</ele>
        <time>2017-02-17T14:11:30Z</time>
      </trkpt>
      <trkpt lat="44.28252" lon="3.2269">
        <ele>487.8</ele>
        <time>2017-02-17T14:11:32Z</time>
      </trkpt>
      <trkpt lat="44.28256" lon="3.2269">
        <ele>488.1</ele>
        <time>2017-02-17T14:11:35Z</time>
      </trkpt>
      <trkpt lat="44.2826" lon="3.22689">
        <ele>488.3</ele>
        <time>2017-02-17T14:11:37Z</time>
      </trkpt>
      <trkpt lat="44.28263" lon="3.22689">
        <ele>488.5</ele>
        <time>2017-02-17T14:11:39Z</time>
      </trkpt>
      <trkpt lat="44.28267" lon="3.22689">
        <ele>488.8</ele>
        <time>2017-02-17T14:11:40Z</time>
      </trkpt>
      <trkpt lat="44.28272" lon="3.22688">
        <ele>489.1</ele>
        <time>2017-02-17T14:11:42Z</time>
      </trkpt>
      <trkpt lat="44.28276" lon="3.22687">
        <ele>489.3</ele>
        <time>2017-02-17T14:11:44Z</time>
      </trkpt>
      <trkpt lat="44.2828" lon="3.22685">
        <ele>489.6</ele>
        <time>2017-02-17T14:11:46Z</time>
      </trkpt>
      <trkpt lat="44.28284" lon="3.22684">
        <ele>489.8</ele>
        <time>2017-02-17T14:11:48Z</time>
      </trkpt>
      <trkpt lat="44.28287" lon="3.22683">
        <ele>490.1</ele>
        <time>2017-02-17T14:11:50Z</time>
      </trkpt>
      <trkpt lat="44.2829" lon="3.22683">
        <ele>490.3</ele>
        <time>2017-02-17T14:11:52Z</time>
      </trkpt>
      <trkpt lat="44.28294" lon="3.22682">
        <ele>490.5</ele>
        <time>2017-02-17T14:11:54Z</time>
      </trkpt>
      <trkpt lat="44.28297" lon="3.22681">
        <ele>490.8</ele>
        <time>2017-02-17T14:11:56Z</time>
      </trkpt>
      <trkpt lat="44.28301" lon="3.2268">
        <ele>491</ele>
        <time>2017-02-17T14:11:58Z</time>
      </trkpt>
      <trkpt lat="44.28305" lon="3.2268">
        <ele>491.2</ele>
        <time>2017-02-17T14:12:00Z</time>
      </trkpt>
      <trkpt lat="44.28308" lon="3.2268">
        <ele>491.4</ele>
        <time>2017-02-17T14:12:02Z</time>
      </trkpt>
      <trkpt lat="44.28312" lon="3.2268">
        <ele>491.6</ele>
        <time>2017-02-17T14:12:04Z</time>
      </trkpt>
      <trkpt lat="44.28315" lon="3.22681">
        <ele>491.8</ele>
        <time>2017-02-17T14:12:06Z</time>
      </trkpt>
      <trkpt lat="44.28319" lon="3.22681">
        <ele>492</ele>
        <time>2017-02-17T14:12:08Z</time>
      </trkpt>
      <trkpt lat="44.28323" lon="3.22681">
        <ele>492.3</ele>
        <time>2017-02-17T14:12:10Z</time>
      </trkpt>
      <trkpt lat="44.28328" lon="3.22679">
        <ele>492.5</ele>
        <time>2017-02-17T14:12:12Z</time>
      </trkpt>
      <trkpt lat="44.28333" lon="3.22678">
        <ele>492.7</ele>
        <time>2017-02-17T14:12:14Z</time>
      </trkpt>
      <trkpt lat="44.28336" lon="3.22677">
        <ele>492.9</ele>
        <time>2017-02-17T14:12:16Z</time>
      </trkpt>
      <trkpt lat="44.28338" lon="3.22672">
        <ele>493.1</ele>
        <time>2017-02-17T14:12:19Z</time>
      </trkpt>
      <trkpt lat="44.28338" lon="3.22668">
        <ele>493.2</ele>
        <time>2017-02-17T14:12:21Z</time>
      </trkpt>
      <trkpt lat="44.28337" lon="3.22664">
        <ele>493.4</ele>
        <time>2017-02-17T14:12:24Z</time>
      </trkpt>
      <trkpt lat="44.28333" lon="3.22663">
        <ele>493.2</ele>
        <time>2017-02-17T14:12:28Z</time>
      </trkpt>
      <trkpt lat="44.2833" lon="3.22662">
        <ele>493</ele>
        <time>2017-02-17T14:12:30Z</time>
      </trkpt>
      <trkpt lat="44.28328" lon="3.2266">
        <ele>492.9</ele>
        <time>2017-02-17T14:12:32Z</time>
      </trkpt>
      <trkpt lat="44.28324" lon="3.22661">
        <ele>492.7</ele>
        <time>2017-02-17T14:12:34Z</time>
      </trkpt>
      <trkpt lat="44.2832" lon="3.22662">
        <ele>492.5</ele>
        <time>2017-02-17T14:12:36Z</time>
      </trkpt>
      <trkpt lat="44.28317" lon="3.22662">
        <ele>492.4</ele>
        <time>2017-02-17T14:12:38Z</time>
      </trkpt>
      <trkpt lat="44.28314" lon="3.22662">
        <ele>492.1</ele>
        <time>2017-02-17T14:12:40Z</time>
      </trkpt>
      <trkpt lat="44.28311" lon="3.22662">
        <ele>491.9</ele>
        <time>2017-02-17T14:12:42Z</time>
      </trkpt>
      <trkpt lat="44.28307" lon="3.22662">
        <ele>491.7</ele>
        <time>2017-02-17T14:12:44Z</time>
      </trkpt>
      <trkpt lat="44.283" lon="3.22663">
        <ele>494.7</ele>
        <time>2017-02-17T14:12:49Z</time>
      </trkpt>
      <trkpt lat="44.28296" lon="3.22661">
        <ele>495</ele>
        <time>2017-02-17T14:12:51Z</time>
      </trkpt>
      <trkpt lat="44.28292" lon="3.2266">
        <ele>495.1</ele>
        <time>2017-02-17T14:12:54Z</time>
      </trkpt>
      <trkpt lat="44.28289" lon="3.22659">
        <ele>495.3</ele>
        <time>2017-02-17T14:12:57Z</time>
      </trkpt>
      <trkpt lat="44.28286" lon="3.22659">
        <ele>495.4</ele>
        <time>2017-02-17T14:12:59Z</time>
      </trkpt>
      <trkpt lat="44.28283" lon="3.22658">
        <ele>495.6</ele>
        <time>2017-02-17T14:13:01Z</time>
      </trkpt>
      <trkpt lat="44.28279" lon="3.22657">
        <ele>495.8</ele>
        <time>2017-02-17T14:13:02Z</time>
      </trkpt>
      <trkpt lat="44.28274" lon="3.22656">
        <ele>496</ele>
        <time>2017-02-17T14:13:03Z</time>
      </trkpt>
      <trkpt lat="44.28271" lon="3.22656">
        <ele>496.2</ele>
        <time>2017-02-17T14:13:05Z</time>
      </trkpt>
      <trkpt lat="44.28267" lon="3.22655">
        <ele>496.4</ele>
        <time>2017-02-17T14:13:06Z</time>
      </trkpt>
      <trkpt lat="44.28263" lon="3.22654">
        <ele>496.7</ele>
        <time>2017-02-17T14:13:08Z</time>
      </trkpt>
      <trkpt lat="44.28259" lon="3.22654">
        <ele>496.9</ele>
        <time>2017-02-17T14:13:10Z</time>
      </trkpt>
      <trkpt lat="44.28255" lon="3.22654">
        <ele>497.2</ele>
        <time>2017-02-17T14:13:12Z</time>
      </trkpt>
      <trkpt lat="44.28251" lon="3.22656">
        <ele>497.5</ele>
        <time>2017-02-17T14:13:14Z</time>
      </trkpt>
      <trkpt lat="44.28248" lon="3.22657">
        <ele>497.8</ele>
        <time>2017-02-17T14:13:17Z</time>
      </trkpt>
      <trkpt lat="44.28244" lon="3.22658">
        <ele>498</ele>
        <time>2017-02-17T14:13:19Z</time>
      </trkpt>
      <trkpt lat="44.28239" lon="3.22659">
        <ele>498.3</ele>
        <time>2017-02-17T14:13:20Z</time>
      </trkpt>
      <trkpt lat="44.28235" lon="3.22661">
        <ele>498.7</ele>
        <time>2017-02-17T14:13:21Z</time>
      </trkpt>
      <trkpt lat="44.28232" lon="3.22662">
        <ele>498.9</ele>
        <time>2017-02-17T14:13:23Z</time>
      </trkpt>
      <trkpt lat="44.28229" lon="3.22664">
        <ele>499.3</ele>
        <time>2017-02-17T14:13:25Z</time>
      </trkpt>
      <trkpt lat="44.28226" lon="3.22666">
        <ele>499.6</ele>
        <time>2017-02-17T14:13:27Z</time>
      </trkpt>
      <trkpt lat="44.28223" lon="3.22667">
        <ele>499.8</ele>
        <time>2017-02-17T14:13:29Z</time>
      </trkpt>
      <trkpt lat="44.2822" lon="3.22669">
        <ele>500.1</ele>
        <time>2017-02-17T14:13:31Z</time>
      </trkpt>
      <trkpt lat="44.28217" lon="3.22671">
        <ele>500.3</ele>
        <time>2017-02-17T14:13:33Z</time>
      </trkpt>
      <trkpt lat="44.28214" lon="3.22673">
        <ele>500.6</ele>
        <time>2017-02-17T14:13:35Z</time>
      </trkpt>
      <trkpt lat="44.28212" lon="3.22675">
        <ele>500.9</ele>
        <time>2017-02-17T14:13:37Z</time>
      </trkpt>
      <trkpt lat="44.28209" lon="3.22676">
        <ele>501.1</ele>
        <time>2017-02-17T14:13:39Z</time>
      </trkpt>
      <trkpt lat="44.28206" lon="3.22678">
        <ele>501.4</ele>
        <time>2017-02-17T14:13:41Z</time>
      </trkpt>
      <trkpt lat="44.28203" lon="3.2268">
        <ele>501.6</ele>
        <time>2017-02-17T14:13:43Z</time>
      </trkpt>
      <trkpt lat="44.282" lon="3.22681">
        <ele>501.9</ele>
        <time>2017-02-17T14:13:45Z</time>
      </trkpt>
      <trkpt lat="44.28197" lon="3.22681">
        <ele>502.1</ele>
        <time>2017-02-17T14:13:47Z</time>
      </trkpt>
      <trkpt lat="44.28194" lon="3.22682">
        <ele>502.3</ele>
        <time>2017-02-17T14:13:49Z</time>
      </trkpt>
      <trkpt lat="44.28188" lon="3.22682">
        <ele>502.8</ele>
        <time>2017-02-17T14:13:52Z</time>
      </trkpt>
      <trkpt lat="44.28184" lon="3.22683">
        <ele>503.1</ele>
        <time>2017-02-17T14:13:55Z</time>
      </trkpt>
      <trkpt lat="44.28181" lon="3.22681">
        <ele>503.3</ele>
        <time>2017-02-17T14:13:57Z</time>
      </trkpt>
      <trkpt lat="44.28177" lon="3.22681">
        <ele>503.6</ele>
        <time>2017-02-17T14:13:59Z</time>
      </trkpt>
      <trkpt lat="44.28174" lon="3.2268">
        <ele>503.9</ele>
        <time>2017-02-17T14:14:01Z</time>
      </trkpt>
      <trkpt lat="44.2817" lon="3.2268">
        <ele>504.1</ele>
        <time>2017-02-17T14:14:03Z</time>
      </trkpt>
      <trkpt lat="44.28167" lon="3.2268">
        <ele>504.4</ele>
        <time>2017-02-17T14:14:05Z</time>
      </trkpt>
      <trkpt lat="44.28161" lon="3.22679">
        <ele>504.7</ele>
        <time>2017-02-17T14:14:07Z</time>
      </trkpt>
      <trkpt lat="44.28157" lon="3.22676">
        <ele>505</ele>
        <time>2017-02-17T14:14:14Z</time>
      </trkpt>
      <trkpt lat="44.28154" lon="3.22674">
        <ele>505.2</ele>
        <time>2017-02-17T14:14:23Z</time>
      </trkpt>
      <trkpt lat="44.28151" lon="3.22673">
        <ele>505.6</ele>
        <time>2017-02-17T14:14:25Z</time>
      </trkpt>
      <trkpt lat="44.28147" lon="3.22673">
        <ele>505.8</ele>
        <time>2017-02-17T14:14:27Z</time>
      </trkpt>
      <trkpt lat="44.28143" lon="3.22672">
        <ele>506.1</ele>
        <time>2017-02-17T14:14:29Z</time>
      </trkpt>
      <trkpt lat="44.28141" lon="3.22673">
        <ele>506.3</ele>
        <time>2017-02-17T14:14:31Z</time>
      </trkpt>
      <trkpt lat="44.28137" lon="3.22673">
        <ele>506.5</ele>
        <time>2017-02-17T14:14:33Z</time>
      </trkpt>
      <trkpt lat="44.28134" lon="3.22673">
        <ele>506.7</ele>
        <time>2017-02-17T14:14:35Z</time>
      </trkpt>
      <trkpt lat="44.28131" lon="3.22674">
        <ele>507</ele>
        <time>2017-02-17T14:14:37Z</time>
      </trkpt>
      <trkpt lat="44.28125" lon="3.22669">
        <ele>507.5</ele>
        <time>2017-02-17T14:14:39Z</time>
      </trkpt>
      <trkpt lat="44.28121" lon="3.2267">
        <ele>507.8</ele>
        <time>2017-02-17T14:14:40Z</time>
      </trkpt>
      <trkpt lat="44.28118" lon="3.22674">
        <ele>508.1</ele>
        <time>2017-02-17T14:14:42Z</time>
      </trkpt>
      <trkpt lat="44.28115" lon="3.22675">
        <ele>508.4</ele>
        <time>2017-02-17T14:14:44Z</time>
      </trkpt>
      <trkpt lat="44.28107" lon="3.22678">
        <ele>509</ele>
        <time>2017-02-17T14:14:46Z</time>
      </trkpt>
      <trkpt lat="44.28103" lon="3.22679">
        <ele>509.4</ele>
        <time>2017-02-17T14:14:48Z</time>
      </trkpt>
      <trkpt lat="44.28099" lon="3.2268">
        <ele>509.7</ele>
        <time>2017-02-17T14:14:51Z</time>
      </trkpt>
      <trkpt lat="44.28078" lon="3.22678">
        <ele>514.3</ele>
      </trkpt>
      <trkpt lat="44.28053" lon="3.22669">
        <ele>516.8</ele>
      </trkpt>
      <trkpt lat="44.28035" lon="3.22656">
        <ele>515.2</ele>
        <time>2017-02-17T14:15:37Z</time>
      </trkpt>
      <trkpt lat="44.28033" lon="3.22653">
        <ele>515.5</ele>
        <time>2017-02-17T14:15:39Z</time>
      </trkpt>
      <trkpt lat="44.2803" lon="3.22651">
        <ele>515.8</ele>
        <time>2017-02-17T14:15:41Z</time>
      </trkpt>
      <trkpt lat="44.28026" lon="3.22649">
        <ele>516</ele>
        <time>2017-02-17T14:15:44Z</time>
      </trkpt>
      <trkpt lat="44.28022" lon="3.22646">
        <ele>516.3</ele>
        <time>2017-02-17T14:15:46Z</time>
      </trkpt>
      <trkpt lat="44.28018" lon="3.22643">
        <ele>516.7</ele>
        <time>2017-02-17T14:15:48Z</time>
      </trkpt>
      <trkpt lat="44.28015" lon="3.2264">
        <ele>516.9</ele>
        <time>2017-02-17T14:15:50Z</time>
      </trkpt>
      <trkpt lat="44.28012" lon="3.22638">
        <ele>517.2</ele>
        <time>2017-02-17T14:15:52Z</time>
      </trkpt>
      <trkpt lat="44.28009" lon="3.22638">
        <ele>517.4</ele>
        <time>2017-02-17T14:15:54Z</time>
      </trkpt>
      <trkpt lat="44.28006" lon="3.22635">
        <ele>517.6</ele>
        <time>2017-02-17T14:15:56Z</time>
      </trkpt>
      <trkpt lat="44.28003" lon="3.22632">
        <ele>517.9</ele>
        <time>2017-02-17T14:15:58Z</time>
      </trkpt>
      <trkpt lat="44.28001" lon="3.22625">
        <ele>518.2</ele>
        <time>2017-02-17T14:16:01Z</time>
      </trkpt>
      <trkpt lat="44.27999" lon="3.22619">
        <ele>518.5</ele>
        <time>2017-02-17T14:16:02Z</time>
      </trkpt>
      <trkpt lat="44.27998" lon="3.22615">
        <ele>518.7</ele>
        <time>2017-02-17T14:16:04Z</time>
      </trkpt>
      <trkpt lat="44.27996" lon="3.22616">
        <ele>518.9</ele>
        <time>2017-02-17T14:16:06Z</time>
      </trkpt>
      <trkpt lat="44.27991" lon="3.22617">
        <ele>519.3</ele>
        <time>2017-02-17T14:16:08Z</time>
      </trkpt>
      <trkpt lat="44.27987" lon="3.22615">
        <ele>519.6</ele>
        <time>2017-02-17T14:16:10Z</time>
      </trkpt>
      <trkpt lat="44.27983" lon="3.22612">
        <ele>519.8</ele>
        <time>2017-02-17T14:16:12Z</time>
      </trkpt>
      <trkpt lat="44.2798" lon="3.22609">
        <ele>520.1</ele>
        <time>2017-02-17T14:16:14Z</time>
      </trkpt>
      <trkpt lat="44.27977" lon="3.22604">
        <ele>520.4</ele>
        <time>2017-02-17T14:16:16Z</time>
      </trkpt>
      <trkpt lat="44.27974" lon="3.226">
        <ele>520.6</ele>
        <time>2017-02-17T14:16:18Z</time>
      </trkpt>
      <trkpt lat="44.2797" lon="3.22598">
        <ele>520.8</ele>
        <time>2017-02-17T14:16:21Z</time>
      </trkpt>
      <trkpt lat="44.27968" lon="3.22595">
        <ele>521</ele>
        <time>2017-02-17T14:16:23Z</time>
      </trkpt>
      <trkpt lat="44.27965" lon="3.22594">
        <ele>522.1</ele>
        <time>2017-02-17T14:16:26Z</time>
      </trkpt>
      <trkpt lat="44.27961" lon="3.22593">
        <ele>523.9</ele>
        <time>2017-02-17T14:16:28Z</time>
      </trkpt>
      <trkpt lat="44.27957" lon="3.22593">
        <ele>525.8</ele>
        <time>2017-02-17T14:16:30Z</time>
      </trkpt>
      <trkpt lat="44.27954" lon="3.22591">
        <ele>527.7</ele>
        <time>2017-02-17T14:16:33Z</time>
      </trkpt>
      <trkpt lat="44.27951" lon="3.22589">
        <ele>529.3</ele>
        <time>2017-02-17T14:16:35Z</time>
      </trkpt>
      <trkpt lat="44.27948" lon="3.22586">
        <ele>531.6</ele>
        <time>2017-02-17T14:16:37Z</time>
      </trkpt>
      <trkpt lat="44.27945" lon="3.22583">
        <ele>534.6</ele>
        <time>2017-02-17T14:16:39Z</time>
      </trkpt>
      <trkpt lat="44.27943" lon="3.2258">
        <ele>536.2</ele>
        <time>2017-02-17T14:16:41Z</time>
      </trkpt>
      <trkpt lat="44.27941" lon="3.22577">
        <ele>537.4</ele>
        <time>2017-02-17T14:16:43Z</time>
      </trkpt>
      <trkpt lat="44.27939" lon="3.22574">
        <ele>538.5</ele>
        <time>2017-02-17T14:16:45Z</time>
      </trkpt>
      <trkpt lat="44.27936" lon="3.22571">
        <ele>540</ele>
        <time>2017-02-17T14:16:48Z</time>
      </trkpt>
      <trkpt lat="44.27933" lon="3.22567">
        <ele>541.7</ele>
        <time>2017-02-17T14:16:51Z</time>
      </trkpt>
      <trkpt lat="44.2793" lon="3.22564">
        <ele>543.3</ele>
        <time>2017-02-17T14:16:53Z</time>
      </trkpt>
      <trkpt lat="44.27927" lon="3.22561">
        <ele>544.8</ele>
        <time>2017-02-17T14:16:55Z</time>
      </trkpt>
      <trkpt lat="44.27924" lon="3.22558">
        <ele>548.4</ele>
        <time>2017-02-17T14:16:57Z</time>
      </trkpt>
      <trkpt lat="44.27922" lon="3.22555">
        <ele>551</ele>
        <time>2017-02-17T14:16:59Z</time>
      </trkpt>
      <trkpt lat="44.27921" lon="3.2255">
        <ele>553.9</ele>
        <time>2017-02-17T14:17:01Z</time>
      </trkpt>
      <trkpt lat="44.27921" lon="3.22546">
        <ele>557</ele>
        <time>2017-02-17T14:17:03Z</time>
      </trkpt>
      <trkpt lat="44.27921" lon="3.22542">
        <ele>557</ele>
        <time>2017-02-17T14:17:05Z</time>
      </trkpt>
      <trkpt lat="44.27923" lon="3.22538">
        <ele>557</ele>
        <time>2017-02-17T14:17:09Z</time>
      </trkpt>
      <trkpt lat="44.27923" lon="3.22534">
        <ele>557.1</ele>
        <time>2017-02-17T14:17:11Z</time>
      </trkpt>
      <trkpt lat="44.27931" lon="3.2253">
        <ele>557.1</ele>
        <time>2017-02-17T14:17:13Z</time>
      </trkpt>
      <trkpt lat="44.27934" lon="3.22532">
        <ele>557.1</ele>
        <time>2017-02-17T14:17:15Z</time>
      </trkpt>
      <trkpt lat="44.27935" lon="3.22535">
        <ele>557.1</ele>
        <time>2017-02-17T14:17:17Z</time>
      </trkpt>
      <trkpt lat="44.27937" lon="3.22539">
        <ele>557.1</ele>
        <time>2017-02-17T14:17:20Z</time>
      </trkpt>
      <trkpt lat="44.27939" lon="3.22544">
        <ele>557.1</ele>
        <time>2017-02-17T14:17:22Z</time>
      </trkpt>
      <trkpt lat="44.27941" lon="3.22547">
        <ele>557.1</ele>
        <time>2017-02-17T14:17:23Z</time>
      </trkpt>
      <trkpt lat="44.27943" lon="3.22551">
        <ele>557.1</ele>
        <time>2017-02-17T14:17:24Z</time>
      </trkpt>
      <trkpt lat="44.27945" lon="3.22554">
        <ele>557.1</ele>
        <time>2017-02-17T14:17:25Z</time>
      </trkpt>
      <trkpt lat="44.27947" lon="3.22557">
        <ele>557.1</ele>
        <time>2017-02-17T14:17:26Z</time>
      </trkpt>
      <trkpt lat="44.27951" lon="3.22563">
        <ele>557</ele>
        <time>2017-02-17T14:17:28Z</time>
      </trkpt>
      <trkpt lat="44.27953" lon="3.22566">
        <ele>557</ele>
        <time>2017-02-17T14:17:29Z</time>
      </trkpt>
      <trkpt lat="44.27956" lon="3.22569">
        <ele>557.7</ele>
        <time>2017-02-17T14:17:30Z</time>
      </trkpt>
      <trkpt lat="44.27959" lon="3.22572">
        <ele>559.1</ele>
        <time>2017-02-17T14:17:32Z</time>
      </trkpt>
      <trkpt lat="44.27963" lon="3.22575">
        <ele>560.2</ele>
        <time>2017-02-17T14:17:34Z</time>
      </trkpt>
      <trkpt lat="44.27965" lon="3.22577">
        <ele>561.1</ele>
        <time>2017-02-17T14:17:36Z</time>
      </trkpt>
      <trkpt lat="44.27968" lon="3.22578">
        <ele>562.1</ele>
        <time>2017-02-17T14:17:38Z</time>
      </trkpt>
      <trkpt lat="44.27972" lon="3.2258">
        <ele>563.3</ele>
        <time>2017-02-17T14:17:40Z</time>
      </trkpt>
      <trkpt lat="44.27976" lon="3.2258">
        <ele>564.4</ele>
        <time>2017-02-17T14:17:42Z</time>
      </trkpt>
      <trkpt lat="44.27979" lon="3.2258">
        <ele>565.3</ele>
        <time>2017-02-17T14:17:45Z</time>
      </trkpt>
      <trkpt lat="44.27982" lon="3.22581">
        <ele>566.2</ele>
        <time>2017-02-17T14:17:49Z</time>
      </trkpt>
      <trkpt lat="44.27986" lon="3.22582">
        <ele>567.3</ele>
        <time>2017-02-17T14:17:52Z</time>
      </trkpt>
      <trkpt lat="44.27989" lon="3.22583">
        <ele>568.4</ele>
        <time>2017-02-17T14:17:54Z</time>
      </trkpt>
      <trkpt lat="44.27992" lon="3.22584">
        <ele>569.2</ele>
        <time>2017-02-17T14:17:56Z</time>
      </trkpt>
      <trkpt lat="44.27995" lon="3.22585">
        <ele>570.2</ele>
        <time>2017-02-17T14:17:59Z</time>
      </trkpt>
      <trkpt lat="44.27998" lon="3.22585">
        <ele>571</ele>
        <time>2017-02-17T14:18:01Z</time>
      </trkpt>
      <trkpt lat="44.28002" lon="3.22586">
        <ele>572</ele>
        <time>2017-02-17T14:18:03Z</time>
      </trkpt>
      <trkpt lat="44.28005" lon="3.22587">
        <ele>572.5</ele>
        <time>2017-02-17T14:18:06Z</time>
      </trkpt>
      <trkpt lat="44.28008" lon="3.2259">
        <ele>572.9</ele>
        <time>2017-02-17T14:18:08Z</time>
      </trkpt>
      <trkpt lat="44.28012" lon="3.22591">
        <ele>573.4</ele>
        <time>2017-02-17T14:18:10Z</time>
      </trkpt>
      <trkpt lat="44.28017" lon="3.22592">
        <ele>574</ele>
        <time>2017-02-17T14:18:12Z</time>
      </trkpt>
      <trkpt lat="44.2802" lon="3.22593">
        <ele>574.4</ele>
        <time>2017-02-17T14:18:14Z</time>
      </trkpt>
      <trkpt lat="44.28024" lon="3.22594">
        <ele>574.8</ele>
        <time>2017-02-17T14:18:16Z</time>
      </trkpt>
      <trkpt lat="44.28028" lon="3.22596">
        <ele>575.3</ele>
        <time>2017-02-17T14:18:18Z</time>
      </trkpt>
      <trkpt lat="44.28031" lon="3.22599">
        <ele>575.7</ele>
        <time>2017-02-17T14:18:20Z</time>
      </trkpt>
      <trkpt lat="44.28035" lon="3.22601">
        <ele>576.2</ele>
        <time>2017-02-17T14:18:22Z</time>
      </trkpt>
      <trkpt lat="44.28038" lon="3.22601">
        <ele>576.5</ele>
        <time>2017-02-17T14:18:23Z</time>
      </trkpt>
      <trkpt lat="44.28042" lon="3.22601">
        <ele>576.9</ele>
        <time>2017-02-17T14:18:25Z</time>
      </trkpt>
      <trkpt lat="44.28045" lon="3.22602">
        <ele>577.3</ele>
        <time>2017-02-17T14:18:27Z</time>
      </trkpt>
      <trkpt lat="44.2805" lon="3.22603">
        <ele>577.8</ele>
        <time>2017-02-17T14:18:28Z</time>
      </trkpt>
      <trkpt lat="44.28054" lon="3.22604">
        <ele>578.2</ele>
        <time>2017-02-17T14:18:30Z</time>
      </trkpt>
      <trkpt lat="44.28058" lon="3.22603">
        <ele>578.5</ele>
        <time>2017-02-17T14:18:32Z</time>
      </trkpt>
      <trkpt lat="44.28061" lon="3.22605">
        <ele>578.8</ele>
        <time>2017-02-17T14:18:34Z</time>
      </trkpt>
      <trkpt lat="44.28063" lon="3.22605">
        <ele>579.1</ele>
        <time>2017-02-17T14:18:36Z</time>
      </trkpt>
      <trkpt lat="44.28066" lon="3.22605">
        <ele>579.4</ele>
        <time>2017-02-17T14:18:38Z</time>
      </trkpt>
      <trkpt lat="44.28069" lon="3.22606">
        <ele>579.7</ele>
        <time>2017-02-17T14:18:40Z</time>
      </trkpt>
      <trkpt lat="44.28072" lon="3.22606">
        <ele>580</ele>
        <time>2017-02-17T14:18:42Z</time>
      </trkpt>
      <trkpt lat="44.28075" lon="3.22606">
        <ele>580.3</ele>
        <time>2017-02-17T14:18:45Z</time>
      </trkpt>
      <trkpt lat="44.28079" lon="3.22605">
        <ele>580.8</ele>
        <time>2017-02-17T14:18:48Z</time>
      </trkpt>
      <trkpt lat="44.28082" lon="3.22604">
        <ele>581.2</ele>
        <time>2017-02-17T14:18:50Z</time>
      </trkpt>
      <trkpt lat="44.28084" lon="3.22602">
        <ele>581.4</ele>
        <time>2017-02-17T14:18:52Z</time>
      </trkpt>
      <trkpt lat="44.28088" lon="3.22602">
        <ele>581.7</ele>
        <time>2017-02-17T14:18:55Z</time>
      </trkpt>
      <trkpt lat="44.28091" lon="3.22601">
        <ele>582</ele>
        <time>2017-02-17T14:18:58Z</time>
      </trkpt>
      <trkpt lat="44.28094" lon="3.22601">
        <ele>582.3</ele>
        <time>2017-02-17T14:19:00Z</time>
      </trkpt>
      <trkpt lat="44.28097" lon="3.22601">
        <ele>582.6</ele>
        <time>2017-02-17T14:19:02Z</time>
      </trkpt>
      <trkpt lat="44.281" lon="3.22601">
        <ele>583</ele>
        <time>2017-02-17T14:19:04Z</time>
      </trkpt>
      <trkpt lat="44.28103" lon="3.226">
        <ele>583.4</ele>
        <time>2017-02-17T14:19:06Z</time>
      </trkpt>
      <trkpt lat="44.28106" lon="3.22599">
        <ele>583.7</ele>
        <time>2017-02-17T14:19:08Z</time>
      </trkpt>
      <trkpt lat="44.2811" lon="3.22598">
        <ele>584.1</ele>
        <time>2017-02-17T14:19:11Z</time>
      </trkpt>
      <trkpt lat="44.28114" lon="3.22596">
        <ele>584.5</ele>
        <time>2017-02-17T14:19:13Z</time>
      </trkpt>
      <trkpt lat="44.28118" lon="3.22595">
        <ele>584.9</ele>
        <time>2017-02-17T14:19:15Z</time>
      </trkpt>
      <trkpt lat="44.28122" lon="3.22594">
        <ele>585.3</ele>
        <time>2017-02-17T14:19:17Z</time>
      </trkpt>
      <trkpt lat="44.28126" lon="3.22592">
        <ele>585.7</ele>
        <time>2017-02-17T14:19:19Z</time>
      </trkpt>
      <trkpt lat="44.2813" lon="3.22592">
        <ele>586</ele>
        <time>2017-02-17T14:19:21Z</time>
      </trkpt>
      <trkpt lat="44.28133" lon="3.22591">
        <ele>586.4</ele>
        <time>2017-02-17T14:19:23Z</time>
      </trkpt>
      <trkpt lat="44.28136" lon="3.22588">
        <ele>586.7</ele>
        <time>2017-02-17T14:19:25Z</time>
      </trkpt>
      <trkpt lat="44.2814" lon="3.22587">
        <ele>587.1</ele>
        <time>2017-02-17T14:19:27Z</time>
      </trkpt>
      <trkpt lat="44.28143" lon="3.22586">
        <ele>587.4</ele>
        <time>2017-02-17T14:19:29Z</time>
      </trkpt>
      <trkpt lat="44.28146" lon="3.22583">
        <ele>587.8</ele>
        <time>2017-02-17T14:19:31Z</time>
      </trkpt>
      <trkpt lat="44.2815" lon="3.22582">
        <ele>588.2</ele>
        <time>2017-02-17T14:19:34Z</time>
      </trkpt>
      <trkpt lat="44.28153" lon="3.22582">
        <ele>588.5</ele>
        <time>2017-02-17T14:19:36Z</time>
      </trkpt>
      <trkpt lat="44.28157" lon="3.22582">
        <ele>588.9</ele>
        <time>2017-02-17T14:19:38Z</time>
      </trkpt>
      <trkpt lat="44.28162" lon="3.22582">
        <ele>589.4</ele>
        <time>2017-02-17T14:19:40Z</time>
      </trkpt>
      <trkpt lat="44.28165" lon="3.2258">
        <ele>589.7</ele>
        <time>2017-02-17T14:19:42Z</time>
      </trkpt>
      <trkpt lat="44.28168" lon="3.22579">
        <ele>590</ele>
        <time>2017-02-17T14:19:44Z</time>
      </trkpt>
      <trkpt lat="44.2817" lon="3.22576">
        <ele>590.3</ele>
        <time>2017-02-17T14:19:46Z</time>
      </trkpt>
      <trkpt lat="44.28173" lon="3.22575">
        <ele>590.6</ele>
        <time>2017-02-17T14:19:48Z</time>
      </trkpt>
      <trkpt lat="44.28176" lon="3.22572">
        <ele>591</ele>
        <time>2017-02-17T14:19:51Z</time>
      </trkpt>
      <trkpt lat="44.28179" lon="3.22572">
        <ele>591.3</ele>
        <time>2017-02-17T14:19:53Z</time>
      </trkpt>
      <trkpt lat="44.28182" lon="3.22571">
        <ele>591.7</ele>
        <time>2017-02-17T14:19:55Z</time>
      </trkpt>
      <trkpt lat="44.28185" lon="3.22569">
        <ele>592</ele>
        <time>2017-02-17T14:19:57Z</time>
      </trkpt>
      <trkpt lat="44.28188" lon="3.22567">
        <ele>592.3</ele>
        <time>2017-02-17T14:19:59Z</time>
      </trkpt>
      <trkpt lat="44.28191" lon="3.22565">
        <ele>592.6</ele>
        <time>2017-02-17T14:20:03Z</time>
      </trkpt>
      <trkpt lat="44.28193" lon="3.22563">
        <ele>592.9</ele>
        <time>2017-02-17T14:20:05Z</time>
      </trkpt>
      <trkpt lat="44.28197" lon="3.22561">
        <ele>593.3</ele>
        <time>2017-02-17T14:20:08Z</time>
      </trkpt>
      <trkpt lat="44.28201" lon="3.2256">
        <ele>593.8</ele>
        <time>2017-02-17T14:20:10Z</time>
      </trkpt>
      <trkpt lat="44.28205" lon="3.22559">
        <ele>594.1</ele>
        <time>2017-02-17T14:20:12Z</time>
      </trkpt>
      <trkpt lat="44.28209" lon="3.22559">
        <ele>594.6</ele>
        <time>2017-02-17T14:20:14Z</time>
      </trkpt>
      <trkpt lat="44.28213" lon="3.22557">
        <ele>595</ele>
        <time>2017-02-17T14:20:16Z</time>
      </trkpt>
      <trkpt lat="44.28217" lon="3.22557">
        <ele>595.4</ele>
        <time>2017-02-17T14:20:18Z</time>
      </trkpt>
      <trkpt lat="44.28221" lon="3.22557">
        <ele>595.8</ele>
        <time>2017-02-17T14:20:20Z</time>
      </trkpt>
      <trkpt lat="44.28226" lon="3.22556">
        <ele>596.3</ele>
        <time>2017-02-17T14:20:22Z</time>
      </trkpt>
      <trkpt lat="44.2823" lon="3.22554">
        <ele>596.7</ele>
        <time>2017-02-17T14:20:24Z</time>
      </trkpt>
      <trkpt lat="44.28234" lon="3.22553">
        <ele>597.1</ele>
        <time>2017-02-17T14:20:26Z</time>
      </trkpt>
      <trkpt lat="44.28238" lon="3.22551">
        <ele>597.5</ele>
        <time>2017-02-17T14:20:28Z</time>
      </trkpt>
      <trkpt lat="44.2824" lon="3.2255">
        <ele>597.8</ele>
        <time>2017-02-17T14:20:30Z</time>
      </trkpt>
      <trkpt lat="44.28243" lon="3.22549">
        <ele>598.1</ele>
        <time>2017-02-17T14:20:32Z</time>
      </trkpt>
      <trkpt lat="44.28248" lon="3.22548">
        <ele>598.5</ele>
        <time>2017-02-17T14:20:35Z</time>
      </trkpt>
      <trkpt lat="44.2825" lon="3.22547">
        <ele>598.8</ele>
        <time>2017-02-17T14:20:37Z</time>
      </trkpt>
      <trkpt lat="44.28255" lon="3.22546">
        <ele>599.2</ele>
        <time>2017-02-17T14:20:40Z</time>
      </trkpt>
      <trkpt lat="44.28259" lon="3.22545">
        <ele>599.6</ele>
        <time>2017-02-17T14:20:42Z</time>
      </trkpt>
      <trkpt lat="44.28262" lon="3.22544">
        <ele>599.9</ele>
        <time>2017-02-17T14:20:44Z</time>
      </trkpt>
      <trkpt lat="44.28265" lon="3.22543">
        <ele>600.2</ele>
        <time>2017-02-17T14:20:46Z</time>
      </trkpt>
      <trkpt lat="44.28268" lon="3.22542">
        <ele>600.5</ele>
        <time>2017-02-17T14:20:48Z</time>
      </trkpt>
      <trkpt lat="44.28272" lon="3.2254">
        <ele>600.9</ele>
        <time>2017-02-17T14:20:51Z</time>
      </trkpt>
      <trkpt lat="44.28275" lon="3.2254">
        <ele>601.3</ele>
        <time>2017-02-17T14:20:54Z</time>
      </trkpt>
      <trkpt lat="44.28278" lon="3.22539">
        <ele>601.6</ele>
        <time>2017-02-17T14:20:56Z</time>
      </trkpt>
      <trkpt lat="44.28281" lon="3.22539">
        <ele>601.8</ele>
        <time>2017-02-17T14:20:58Z</time>
      </trkpt>
      <trkpt lat="44.28284" lon="3.22539">
        <ele>602.1</ele>
        <time>2017-02-17T14:21:00Z</time>
      </trkpt>
      <trkpt lat="44.28287" lon="3.2254">
        <ele>602.5</ele>
        <time>2017-02-17T14:21:03Z</time>
      </trkpt>
      <trkpt lat="44.28291" lon="3.22539">
        <ele>602.9</ele>
        <time>2017-02-17T14:21:06Z</time>
      </trkpt>
      <trkpt lat="44.28295" lon="3.22538">
        <ele>603.3</ele>
        <time>2017-02-17T14:21:09Z</time>
      </trkpt>
      <trkpt lat="44.28301" lon="3.22538">
        <ele>603.9</ele>
        <time>2017-02-17T14:21:11Z</time>
      </trkpt>
      <trkpt lat="44.28304" lon="3.22538">
        <ele>604.2</ele>
        <time>2017-02-17T14:21:13Z</time>
      </trkpt>
      <trkpt lat="44.28307" lon="3.22537">
        <ele>604.5</ele>
        <time>2017-02-17T14:21:15Z</time>
      </trkpt>
      <trkpt lat="44.2831" lon="3.22538">
        <ele>604.7</ele>
        <time>2017-02-17T14:21:17Z</time>
      </trkpt>
      <trkpt lat="44.28312" lon="3.22538">
        <ele>605</ele>
        <time>2017-02-17T14:21:19Z</time>
      </trkpt>
      <trkpt lat="44.28315" lon="3.22538">
        <ele>605.4</ele>
        <time>2017-02-17T14:21:21Z</time>
      </trkpt>
      <trkpt lat="44.28318" lon="3.22537">
        <ele>605.7</ele>
        <time>2017-02-17T14:21:24Z</time>
      </trkpt>
      <trkpt lat="44.28321" lon="3.22536">
        <ele>606</ele>
        <time>2017-02-17T14:21:26Z</time>
      </trkpt>
      <trkpt lat="44.28323" lon="3.22533">
        <ele>606.3</ele>
        <time>2017-02-17T14:21:29Z</time>
      </trkpt>
      <trkpt lat="44.28326" lon="3.22532">
        <ele>606.6</ele>
        <time>2017-02-17T14:21:31Z</time>
      </trkpt>
      <trkpt lat="44.2833" lon="3.2253">
        <ele>607</ele>
        <time>2017-02-17T14:21:33Z</time>
      </trkpt>
      <trkpt lat="44.28333" lon="3.22527">
        <ele>607.4</ele>
        <time>2017-02-17T14:21:35Z</time>
      </trkpt>
      <trkpt lat="44.28337" lon="3.22525">
        <ele>607.8</ele>
        <time>2017-02-17T14:21:37Z</time>
      </trkpt>
      <trkpt lat="44.28342" lon="3.22522">
        <ele>608.4</ele>
        <time>2017-02-17T14:21:39Z</time>
      </trkpt>
      <trkpt lat="44.28345" lon="3.22518">
        <ele>608.9</ele>
        <time>2017-02-17T14:21:41Z</time>
      </trkpt>
      <trkpt lat="44.28347" lon="3.22515">
        <ele>609.2</ele>
        <time>2017-02-17T14:21:43Z</time>
      </trkpt>
      <trkpt lat="44.28351" lon="3.22512">
        <ele>609.8</ele>
        <time>2017-02-17T14:21:45Z</time>
      </trkpt>
      <trkpt lat="44.28354" lon="3.2251">
        <ele>610.1</ele>
        <time>2017-02-17T14:21:47Z</time>
      </trkpt>
      <trkpt lat="44.28357" lon="3.22507">
        <ele>610.5</ele>
        <time>2017-02-17T14:21:49Z</time>
      </trkpt>
      <trkpt lat="44.2836" lon="3.22505">
        <ele>610.8</ele>
        <time>2017-02-17T14:21:51Z</time>
      </trkpt>
      <trkpt lat="44.28362" lon="3.22502">
        <ele>611.3</ele>
        <time>2017-02-17T14:21:53Z</time>
      </trkpt>
      <trkpt lat="44.28366" lon="3.225">
        <ele>611.7</ele>
        <time>2017-02-17T14:21:55Z</time>
      </trkpt>
      <trkpt lat="44.2837" lon="3.22498">
        <ele>612.1</ele>
        <time>2017-02-17T14:21:57Z</time>
      </trkpt>
      <trkpt lat="44.28373" lon="3.22496">
        <ele>612.5</ele>
        <time>2017-02-17T14:21:59Z</time>
      </trkpt>
      <trkpt lat="44.28378" lon="3.22495">
        <ele>613.1</ele>
        <time>2017-02-17T14:22:02Z</time>
      </trkpt>
      <trkpt lat="44.28381" lon="3.22496">
        <ele>613.4</ele>
        <time>2017-02-17T14:22:06Z</time>
      </trkpt>
      <trkpt lat="44.28384" lon="3.22495">
        <ele>613.7</ele>
        <time>2017-02-17T14:22:08Z</time>
      </trkpt>
      <trkpt lat="44.28388" lon="3.22493">
        <ele>614.2</ele>
        <time>2017-02-17T14:22:10Z</time>
      </trkpt>
      <trkpt lat="44.28391" lon="3.22492">
        <ele>614.5</ele>
        <time>2017-02-17T14:22:12Z</time>
      </trkpt>
      <trkpt lat="44.28394" lon="3.22489">
        <ele>615</ele>
        <time>2017-02-17T14:22:14Z</time>
      </trkpt>
      <trkpt lat="44.28398" lon="3.22485">
        <ele>615.4</ele>
        <time>2017-02-17T14:22:16Z</time>
      </trkpt>
      <trkpt lat="44.284" lon="3.22481">
        <ele>615.8</ele>
        <time>2017-02-17T14:22:18Z</time>
      </trkpt>
      <trkpt lat="44.28403" lon="3.22477">
        <ele>616.2</ele>
        <time>2017-02-17T14:22:20Z</time>
      </trkpt>
      <trkpt lat="44.28405" lon="3.22475">
        <ele>616.5</ele>
        <time>2017-02-17T14:22:22Z</time>
      </trkpt>
      <trkpt lat="44.28408" lon="3.22473">
        <ele>616.8</ele>
        <time>2017-02-17T14:22:24Z</time>
      </trkpt>
      <trkpt lat="44.28411" lon="3.22469">
        <ele>617.2</ele>
        <time>2017-02-17T14:22:26Z</time>
      </trkpt>
      <trkpt lat="44.28414" lon="3.22466">
        <ele>617.6</ele>
        <time>2017-02-17T14:22:28Z</time>
      </trkpt>
      <trkpt lat="44.28417" lon="3.22462">
        <ele>618.1</ele>
        <time>2017-02-17T14:22:31Z</time>
      </trkpt>
      <trkpt lat="44.2842" lon="3.22458">
        <ele>618.5</ele>
        <time>2017-02-17T14:22:33Z</time>
      </trkpt>
      <trkpt lat="44.28423" lon="3.22456">
        <ele>618.8</ele>
        <time>2017-02-17T14:22:35Z</time>
      </trkpt>
      <trkpt lat="44.28425" lon="3.22453">
        <ele>619.1</ele>
        <time>2017-02-17T14:22:37Z</time>
      </trkpt>
      <trkpt lat="44.28428" lon="3.22449">
        <ele>619.6</ele>
        <time>2017-02-17T14:22:39Z</time>
      </trkpt>
      <trkpt lat="44.28431" lon="3.22446">
        <ele>620</ele>
        <time>2017-02-17T14:22:41Z</time>
      </trkpt>
      <trkpt lat="44.28438" lon="3.22439">
        <ele>620.8</ele>
        <time>2017-02-17T14:22:47Z</time>
      </trkpt>
      <trkpt lat="44.2844" lon="3.22435">
        <ele>621.3</ele>
        <time>2017-02-17T14:22:49Z</time>
      </trkpt>
      <trkpt lat="44.28445" lon="3.22433">
        <ele>621.9</ele>
        <time>2017-02-17T14:22:51Z</time>
      </trkpt>
      <trkpt lat="44.28452" lon="3.22421">
        <ele>623</ele>
        <time>2017-02-17T14:22:56Z</time>
      </trkpt>
      <trkpt lat="44.28455" lon="3.22419">
        <ele>623.3</ele>
        <time>2017-02-17T14:22:58Z</time>
      </trkpt>
      <trkpt lat="44.28457" lon="3.22422">
        <ele>623.6</ele>
        <time>2017-02-17T14:23:00Z</time>
      </trkpt>
      <trkpt lat="44.28463" lon="3.22418">
        <ele>624.3</ele>
        <time>2017-02-17T14:23:02Z</time>
      </trkpt>
      <trkpt lat="44.28469" lon="3.22417">
        <ele>624.9</ele>
        <time>2017-02-17T14:23:03Z</time>
      </trkpt>
      <trkpt lat="44.28473" lon="3.22415">
        <ele>619.6</ele>
        <time>2017-02-17T14:23:04Z</time>
      </trkpt>
      <trkpt lat="44.28477" lon="3.22414">
        <ele>618.6</ele>
        <time>2017-02-17T14:23:05Z</time>
      </trkpt>
      <trkpt lat="44.2847" lon="3.22396">
        <ele>624.4</ele>
        <time>2017-02-17T14:23:13Z</time>
      </trkpt>
      <trkpt lat="44.28466" lon="3.2239">
        <ele>626</ele>
        <time>2017-02-17T14:23:14Z</time>
      </trkpt>
      <trkpt lat="44.28463" lon="3.22401">
        <ele>625.4</ele>
        <time>2017-02-17T14:23:19Z</time>
      </trkpt>
      <trkpt lat="44.28461" lon="3.22403">
        <ele>625.2</ele>
        <time>2017-02-17T14:23:21Z</time>
      </trkpt>
      <trkpt lat="44.28463" lon="3.22408">
        <ele>624.8</ele>
        <time>2017-02-17T14:23:23Z</time>
      </trkpt>
      <trkpt lat="44.28465" lon="3.22412">
        <ele>624.5</ele>
        <time>2017-02-17T14:23:24Z</time>
      </trkpt>
      <trkpt lat="44.28463" lon="3.22416">
        <ele>624.2</ele>
        <time>2017-02-17T14:23:25Z</time>
      </trkpt>
      <trkpt lat="44.2846" lon="3.22419">
        <ele>623.9</ele>
        <time>2017-02-17T14:23:26Z</time>
      </trkpt>
      <trkpt lat="44.28457" lon="3.22422">
        <ele>623.5</ele>
        <time>2017-02-17T14:23:27Z</time>
      </trkpt>
      <trkpt lat="44.28441" lon="3.2244">
        <ele>621.6</ele>
        <time>2017-02-17T14:23:32Z</time>
      </trkpt>
      <trkpt lat="44.28439" lon="3.22445">
        <ele>621</ele>
        <time>2017-02-17T14:23:33Z</time>
      </trkpt>
      <trkpt lat="44.28434" lon="3.22452">
        <ele>620.4</ele>
        <time>2017-02-17T14:23:34Z</time>
      </trkpt>
      <trkpt lat="44.28431" lon="3.22455">
        <ele>620</ele>
        <time>2017-02-17T14:23:35Z</time>
      </trkpt>
      <trkpt lat="44.28428" lon="3.22457">
        <ele>619.7</ele>
        <time>2017-02-17T14:23:36Z</time>
      </trkpt>
      <trkpt lat="44.28423" lon="3.22459">
        <ele>619.2</ele>
        <time>2017-02-17T14:23:37Z</time>
      </trkpt>
      <trkpt lat="44.28418" lon="3.22461">
        <ele>618.7</ele>
        <time>2017-02-17T14:23:39Z</time>
      </trkpt>
      <trkpt lat="44.28416" lon="3.22464">
        <ele>618.4</ele>
        <time>2017-02-17T14:23:41Z</time>
      </trkpt>
      <trkpt lat="44.28412" lon="3.22466">
        <ele>618.1</ele>
        <time>2017-02-17T14:23:44Z</time>
      </trkpt>
      <trkpt lat="44.28405" lon="3.22468">
        <ele>617.4</ele>
        <time>2017-02-17T14:23:46Z</time>
      </trkpt>
      <trkpt lat="44.28402" lon="3.22469">
        <ele>617.1</ele>
        <time>2017-02-17T14:23:48Z</time>
      </trkpt>
      <trkpt lat="44.28398" lon="3.22469">
        <ele>616.7</ele>
        <time>2017-02-17T14:23:50Z</time>
      </trkpt>
      <trkpt lat="44.28395" lon="3.22467">
        <ele>616.4</ele>
        <time>2017-02-17T14:23:53Z</time>
      </trkpt>
      <trkpt lat="44.28391" lon="3.22467">
        <ele>616.1</ele>
        <time>2017-02-17T14:23:55Z</time>
      </trkpt>
      <trkpt lat="44.28388" lon="3.22464">
        <ele>615.8</ele>
        <time>2017-02-17T14:24:00Z</time>
      </trkpt>
      <trkpt lat="44.28382" lon="3.22466">
        <ele>619</ele>
        <time>2017-02-17T14:24:03Z</time>
      </trkpt>
      <trkpt lat="44.28375" lon="3.22468">
        <ele>624.6</ele>
        <time>2017-02-17T14:24:05Z</time>
      </trkpt>
      <trkpt lat="44.28371" lon="3.22468">
        <ele>624.6</ele>
        <time>2017-02-17T14:24:06Z</time>
      </trkpt>
      <trkpt lat="44.28366" lon="3.22468">
        <ele>624.6</ele>
        <time>2017-02-17T14:24:08Z</time>
      </trkpt>
      <trkpt lat="44.28359" lon="3.22468">
        <ele>624.6</ele>
        <time>2017-02-17T14:24:10Z</time>
      </trkpt>
      <trkpt lat="44.28355" lon="3.22468">
        <ele>624.6</ele>
        <time>2017-02-17T14:24:12Z</time>
      </trkpt>
      <trkpt lat="44.28352" lon="3.22469">
        <ele>624.6</ele>
        <time>2017-02-17T14:24:14Z</time>
      </trkpt>
      <trkpt lat="44.28347" lon="3.22469">
        <ele>624.5</ele>
        <time>2017-02-17T14:24:16Z</time>
      </trkpt>
      <trkpt lat="44.28343" lon="3.2247">
        <ele>624.5</ele>
        <time>2017-02-17T14:24:18Z</time>
      </trkpt>
      <trkpt lat="44.28339" lon="3.22469">
        <ele>624.5</ele>
        <time>2017-02-17T14:24:20Z</time>
      </trkpt>
      <trkpt lat="44.28335" lon="3.2247">
        <ele>624.5</ele>
        <time>2017-02-17T14:24:21Z</time>
      </trkpt>
      <trkpt lat="44.28332" lon="3.22469">
        <ele>624.5</ele>
        <time>2017-02-17T14:24:23Z</time>
      </trkpt>
      <trkpt lat="44.28328" lon="3.22468">
        <ele>624.5</ele>
        <time>2017-02-17T14:24:25Z</time>
      </trkpt>
      <trkpt lat="44.28325" lon="3.22468">
        <ele>624.4</ele>
        <time>2017-02-17T14:24:27Z</time>
      </trkpt>
      <trkpt lat="44.28321" lon="3.22467">
        <ele>624.4</ele>
        <time>2017-02-17T14:24:29Z</time>
      </trkpt>
      <trkpt lat="44.28318" lon="3.22466">
        <ele>624.4</ele>
        <time>2017-02-17T14:24:31Z</time>
      </trkpt>
      <trkpt lat="44.28314" lon="3.22466">
        <ele>624.4</ele>
        <time>2017-02-17T14:24:33Z</time>
      </trkpt>
      <trkpt lat="44.2831" lon="3.22466">
        <ele>624.4</ele>
        <time>2017-02-17T14:24:35Z</time>
      </trkpt>
      <trkpt lat="44.28307" lon="3.22465">
        <ele>624.4</ele>
        <time>2017-02-17T14:24:37Z</time>
      </trkpt>
      <trkpt lat="44.28304" lon="3.22464">
        <ele>624.4</ele>
        <time>2017-02-17T14:24:39Z</time>
      </trkpt>
      <trkpt lat="44.28301" lon="3.22462">
        <ele>624.4</ele>
        <time>2017-02-17T14:24:41Z</time>
      </trkpt>
      <trkpt lat="44.28289" lon="3.22459">
        <ele>624.4</ele>
        <time>2017-02-17T14:24:46Z</time>
      </trkpt>
      <trkpt lat="44.28286" lon="3.22461">
        <ele>624.5</ele>
        <time>2017-02-17T14:24:48Z</time>
      </trkpt>
      <trkpt lat="44.28283" lon="3.22462">
        <ele>624.5</ele>
        <time>2017-02-17T14:24:50Z</time>
      </trkpt>
      <trkpt lat="44.28278" lon="3.2246">
        <ele>624.5</ele>
        <time>2017-02-17T14:24:55Z</time>
      </trkpt>
      <trkpt lat="44.28274" lon="3.2246">
        <ele>624.5</ele>
        <time>2017-02-17T14:24:58Z</time>
      </trkpt>
      <trkpt lat="44.28271" lon="3.22462">
        <ele>624.5</ele>
        <time>2017-02-17T14:25:00Z</time>
      </trkpt>
      <trkpt lat="44.28267" lon="3.22463">
        <ele>624.6</ele>
        <time>2017-02-17T14:25:02Z</time>
      </trkpt>
      <trkpt lat="44.28264" lon="3.22463">
        <ele>624.6</ele>
        <time>2017-02-17T14:25:04Z</time>
      </trkpt>
      <trkpt lat="44.28261" lon="3.22461">
        <ele>624.6</ele>
        <time>2017-02-17T14:25:06Z</time>
      </trkpt>
      <trkpt lat="44.28258" lon="3.22458">
        <ele>624.6</ele>
        <time>2017-02-17T14:25:08Z</time>
      </trkpt>
      <trkpt lat="44.28251" lon="3.22459">
        <ele>624.6</ele>
        <time>2017-02-17T14:25:10Z</time>
      </trkpt>
      <trkpt lat="44.28248" lon="3.22457">
        <ele>624.6</ele>
        <time>2017-02-17T14:25:12Z</time>
      </trkpt>
      <trkpt lat="44.28244" lon="3.22455">
        <ele>624.6</ele>
        <time>2017-02-17T14:25:13Z</time>
      </trkpt>
      <trkpt lat="44.28241" lon="3.22455">
        <ele>624.5</ele>
        <time>2017-02-17T14:25:14Z</time>
      </trkpt>
      <trkpt lat="44.28238" lon="3.22455">
        <ele>624.5</ele>
        <time>2017-02-17T14:25:17Z</time>
      </trkpt>
      <trkpt lat="44.28235" lon="3.22457">
        <ele>624.5</ele>
        <time>2017-02-17T14:25:21Z</time>
      </trkpt>
      <trkpt lat="44.28232" lon="3.22455">
        <ele>624.5</ele>
        <time>2017-02-17T14:25:24Z</time>
      </trkpt>
      <trkpt lat="44.28229" lon="3.22452">
        <ele>624.4</ele>
        <time>2017-02-17T14:25:27Z</time>
      </trkpt>
      <trkpt lat="44.28226" lon="3.2245">
        <ele>624.4</ele>
        <time>2017-02-17T14:25:29Z</time>
      </trkpt>
      <trkpt lat="44.28223" lon="3.22449">
        <ele>624.4</ele>
        <time>2017-02-17T14:25:31Z</time>
      </trkpt>
      <trkpt lat="44.2822" lon="3.22448">
        <ele>624.4</ele>
        <time>2017-02-17T14:25:33Z</time>
      </trkpt>
      <trkpt lat="44.28217" lon="3.22446">
        <ele>624.4</ele>
        <time>2017-02-17T14:25:35Z</time>
      </trkpt>
      <trkpt lat="44.28214" lon="3.22446">
        <ele>624.3</ele>
        <time>2017-02-17T14:25:37Z</time>
      </trkpt>
      <trkpt lat="44.2821" lon="3.22446">
        <ele>624.3</ele>
        <time>2017-02-17T14:25:40Z</time>
      </trkpt>
      <trkpt lat="44.28206" lon="3.22446">
        <ele>624.3</ele>
        <time>2017-02-17T14:25:42Z</time>
      </trkpt>
      <trkpt lat="44.28203" lon="3.22447">
        <ele>624.3</ele>
        <time>2017-02-17T14:25:44Z</time>
      </trkpt>
      <trkpt lat="44.28198" lon="3.22445">
        <ele>624.3</ele>
        <time>2017-02-17T14:25:46Z</time>
      </trkpt>
      <trkpt lat="44.28194" lon="3.22445">
        <ele>624.3</ele>
        <time>2017-02-17T14:25:47Z</time>
      </trkpt>
      <trkpt lat="44.28189" lon="3.22446">
        <ele>624.3</ele>
        <time>2017-02-17T14:25:48Z</time>
      </trkpt>
      <trkpt lat="44.28184" lon="3.22445">
        <ele>624.3</ele>
        <time>2017-02-17T14:25:49Z</time>
      </trkpt>
      <trkpt lat="44.28178" lon="3.22444">
        <ele>624.4</ele>
        <time>2017-02-17T14:25:51Z</time>
      </trkpt>
      <trkpt lat="44.28166" lon="3.22444">
        <ele>624.4</ele>
        <time>2017-02-17T14:26:00Z</time>
      </trkpt>
      <trkpt lat="44.28163" lon="3.22445">
        <ele>624.4</ele>
        <time>2017-02-17T14:26:04Z</time>
      </trkpt>
      <trkpt lat="44.2816" lon="3.22444">
        <ele>624.4</ele>
        <time>2017-02-17T14:26:07Z</time>
      </trkpt>
      <trkpt lat="44.28156" lon="3.22443">
        <ele>624.4</ele>
        <time>2017-02-17T14:26:09Z</time>
      </trkpt>
      <trkpt lat="44.28153" lon="3.22443">
        <ele>624.4</ele>
        <time>2017-02-17T14:26:12Z</time>
      </trkpt>
      <trkpt lat="44.28148" lon="3.22444">
        <ele>624.4</ele>
        <time>2017-02-17T14:26:15Z</time>
      </trkpt>
      <trkpt lat="44.28145" lon="3.22447">
        <ele>624.4</ele>
        <time>2017-02-17T14:26:17Z</time>
      </trkpt>
      <trkpt lat="44.28142" lon="3.22448">
        <ele>624.4</ele>
        <time>2017-02-17T14:26:19Z</time>
      </trkpt>
      <trkpt lat="44.28124" lon="3.22441">
        <ele>624.3</ele>
        <time>2017-02-17T14:26:31Z</time>
      </trkpt>
      <trkpt lat="44.28121" lon="3.22439">
        <ele>624.3</ele>
        <time>2017-02-17T14:26:34Z</time>
      </trkpt>
      <trkpt lat="44.28119" lon="3.22436">
        <ele>624.2</ele>
        <time>2017-02-17T14:26:37Z</time>
      </trkpt>
      <trkpt lat="44.28117" lon="3.22434">
        <ele>624.2</ele>
        <time>2017-02-17T14:26:40Z</time>
      </trkpt>
      <trkpt lat="44.28113" lon="3.22431">
        <ele>624.2</ele>
        <time>2017-02-17T14:26:43Z</time>
      </trkpt>
      <trkpt lat="44.2811" lon="3.22429">
        <ele>624.2</ele>
        <time>2017-02-17T14:26:45Z</time>
      </trkpt>
      <trkpt lat="44.28108" lon="3.22428">
        <ele>624.2</ele>
        <time>2017-02-17T14:26:47Z</time>
      </trkpt>
      <trkpt lat="44.28105" lon="3.22426">
        <ele>624.1</ele>
        <time>2017-02-17T14:26:49Z</time>
      </trkpt>
      <trkpt lat="44.28102" lon="3.22424">
        <ele>624.1</ele>
        <time>2017-02-17T14:26:51Z</time>
      </trkpt>
      <trkpt lat="44.28099" lon="3.22422">
        <ele>624.1</ele>
        <time>2017-02-17T14:26:53Z</time>
      </trkpt>
      <trkpt lat="44.28096" lon="3.22421">
        <ele>624.1</ele>
        <time>2017-02-17T14:26:55Z</time>
      </trkpt>
      <trkpt lat="44.28093" lon="3.22419">
        <ele>624.1</ele>
        <time>2017-02-17T14:26:57Z</time>
      </trkpt>
      <trkpt lat="44.2809" lon="3.22417">
        <ele>624.1</ele>
        <time>2017-02-17T14:26:59Z</time>
      </trkpt>
      <trkpt lat="44.28087" lon="3.22416">
        <ele>624.1</ele>
        <time>2017-02-17T14:27:01Z</time>
      </trkpt>
      <trkpt lat="44.28084" lon="3.22414">
        <ele>624.1</ele>
        <time>2017-02-17T14:27:03Z</time>
      </trkpt>
      <trkpt lat="44.28081" lon="3.22413">
        <ele>624.1</ele>
        <time>2017-02-17T14:27:06Z</time>
      </trkpt>
      <trkpt lat="44.28078" lon="3.22412">
        <ele>624.1</ele>
        <time>2017-02-17T14:27:08Z</time>
      </trkpt>
      <trkpt lat="44.28075" lon="3.2241">
        <ele>624.1</ele>
        <time>2017-02-17T14:27:11Z</time>
      </trkpt>
      <trkpt lat="44.28072" lon="3.22408">
        <ele>624.1</ele>
        <time>2017-02-17T14:27:13Z</time>
      </trkpt>
      <trkpt lat="44.28068" lon="3.22406">
        <ele>624.1</ele>
        <time>2017-02-17T14:27:15Z</time>
      </trkpt>
      <trkpt lat="44.28064" lon="3.22403">
        <ele>624.1</ele>
        <time>2017-02-17T14:27:17Z</time>
      </trkpt>
      <trkpt lat="44.2806" lon="3.22401">
        <ele>624</ele>
        <time>2017-02-17T14:27:19Z</time>
      </trkpt>
      <trkpt lat="44.28056" lon="3.22398">
        <ele>624</ele>
        <time>2017-02-17T14:27:21Z</time>
      </trkpt>
      <trkpt lat="44.28054" lon="3.22395">
        <ele>624</ele>
        <time>2017-02-17T14:27:23Z</time>
      </trkpt>
      <trkpt lat="44.28051" lon="3.22393">
        <ele>624</ele>
        <time>2017-02-17T14:27:25Z</time>
      </trkpt>
      <trkpt lat="44.28048" lon="3.22391">
        <ele>624</ele>
        <time>2017-02-17T14:27:27Z</time>
      </trkpt>
      <trkpt lat="44.28045" lon="3.22391">
        <ele>624</ele>
        <time>2017-02-17T14:27:29Z</time>
      </trkpt>
      <trkpt lat="44.28042" lon="3.2239">
        <ele>624</ele>
        <time>2017-02-17T14:27:31Z</time>
      </trkpt>
      <trkpt lat="44.28039" lon="3.22388">
        <ele>623.9</ele>
        <time>2017-02-17T14:27:33Z</time>
      </trkpt>
      <trkpt lat="44.28036" lon="3.22387">
        <ele>623.9</ele>
        <time>2017-02-17T14:27:36Z</time>
      </trkpt>
      <trkpt lat="44.28033" lon="3.22386">
        <ele>623.9</ele>
        <time>2017-02-17T14:27:38Z</time>
      </trkpt>
      <trkpt lat="44.28029" lon="3.22386">
        <ele>623.9</ele>
        <time>2017-02-17T14:27:39Z</time>
      </trkpt>
      <trkpt lat="44.28024" lon="3.22387">
        <ele>623.9</ele>
        <time>2017-02-17T14:27:46Z</time>
      </trkpt>
      <trkpt lat="44.28021" lon="3.22384">
        <ele>623.9</ele>
        <time>2017-02-17T14:27:47Z</time>
      </trkpt>
      <trkpt lat="44.28016" lon="3.22379">
        <ele>623.9</ele>
        <time>2017-02-17T14:27:48Z</time>
      </trkpt>
      <trkpt lat="44.28013" lon="3.22378">
        <ele>623.9</ele>
        <time>2017-02-17T14:27:49Z</time>
      </trkpt>
      <trkpt lat="44.2801" lon="3.22375">
        <ele>623.9</ele>
        <time>2017-02-17T14:27:51Z</time>
      </trkpt>
      <trkpt lat="44.28008" lon="3.22373">
        <ele>623.9</ele>
        <time>2017-02-17T14:27:53Z</time>
      </trkpt>
      <trkpt lat="44.28006" lon="3.22368">
        <ele>623.9</ele>
        <time>2017-02-17T14:27:56Z</time>
      </trkpt>
      <trkpt lat="44.28003" lon="3.22365">
        <ele>623.9</ele>
        <time>2017-02-17T14:27:59Z</time>
      </trkpt>
      <trkpt lat="44.28" lon="3.22361">
        <ele>623.9</ele>
        <time>2017-02-17T14:28:02Z</time>
      </trkpt>
      <trkpt lat="44.27997" lon="3.22357">
        <ele>623.9</ele>
        <time>2017-02-17T14:28:05Z</time>
      </trkpt>
      <trkpt lat="44.27995" lon="3.22355">
        <ele>623.9</ele>
        <time>2017-02-17T14:28:07Z</time>
      </trkpt>
      <trkpt lat="44.27992" lon="3.22354">
        <ele>623.9</ele>
        <time>2017-02-17T14:28:09Z</time>
      </trkpt>
      <trkpt lat="44.27989" lon="3.22352">
        <ele>623.9</ele>
        <time>2017-02-17T14:28:11Z</time>
      </trkpt>
      <trkpt lat="44.27987" lon="3.2235">
        <ele>624</ele>
        <time>2017-02-17T14:28:14Z</time>
      </trkpt>
      <trkpt lat="44.27984" lon="3.22348">
        <ele>624</ele>
        <time>2017-02-17T14:28:18Z</time>
      </trkpt>
      <trkpt lat="44.27981" lon="3.22346">
        <ele>624</ele>
        <time>2017-02-17T14:28:21Z</time>
      </trkpt>
      <trkpt lat="44.27979" lon="3.22344">
        <ele>624</ele>
        <time>2017-02-17T14:28:23Z</time>
      </trkpt>
      <trkpt lat="44.27977" lon="3.22342">
        <ele>624</ele>
        <time>2017-02-17T14:28:25Z</time>
      </trkpt>
      <trkpt lat="44.27974" lon="3.22339">
        <ele>624</ele>
        <time>2017-02-17T14:28:27Z</time>
      </trkpt>
      <trkpt lat="44.27972" lon="3.22336">
        <ele>625.4</ele>
        <time>2017-02-17T14:28:29Z</time>
      </trkpt>
      <trkpt lat="44.27969" lon="3.22332">
        <ele>626.7</ele>
        <time>2017-02-17T14:28:32Z</time>
      </trkpt>
      <trkpt lat="44.27967" lon="3.22329">
        <ele>627.8</ele>
        <time>2017-02-17T14:28:34Z</time>
      </trkpt>
      <trkpt lat="44.27964" lon="3.22325">
        <ele>629.4</ele>
        <time>2017-02-17T14:28:37Z</time>
      </trkpt>
      <trkpt lat="44.27961" lon="3.22323">
        <ele>630.9</ele>
        <time>2017-02-17T14:28:39Z</time>
      </trkpt>
      <trkpt lat="44.27958" lon="3.2232">
        <ele>632.1</ele>
        <time>2017-02-17T14:28:41Z</time>
      </trkpt>
      <trkpt lat="44.27956" lon="3.22318">
        <ele>633.4</ele>
        <time>2017-02-17T14:28:43Z</time>
      </trkpt>
      <trkpt lat="44.27952" lon="3.22314">
        <ele>635.6</ele>
        <time>2017-02-17T14:28:46Z</time>
      </trkpt>
      <trkpt lat="44.27949" lon="3.22311">
        <ele>637.8</ele>
        <time>2017-02-17T14:28:48Z</time>
      </trkpt>
      <trkpt lat="44.27947" lon="3.22309">
        <ele>638.9</ele>
        <time>2017-02-17T14:28:50Z</time>
      </trkpt>
      <trkpt lat="44.27944" lon="3.22307">
        <ele>640</ele>
        <time>2017-02-17T14:28:52Z</time>
      </trkpt>
      <trkpt lat="44.27941" lon="3.22305">
        <ele>641.2</ele>
        <time>2017-02-17T14:28:54Z</time>
      </trkpt>
      <trkpt lat="44.27939" lon="3.22303">
        <ele>642.1</ele>
        <time>2017-02-17T14:28:56Z</time>
      </trkpt>
      <trkpt lat="44.27936" lon="3.22302">
        <ele>642.9</ele>
        <time>2017-02-17T14:28:58Z</time>
      </trkpt>
      <trkpt lat="44.27933" lon="3.223">
        <ele>643.7</ele>
        <time>2017-02-17T14:29:00Z</time>
      </trkpt>
      <trkpt lat="44.2793" lon="3.22296">
        <ele>639.8</ele>
        <time>2017-02-17T14:29:03Z</time>
      </trkpt>
      <trkpt lat="44.27926" lon="3.22294">
        <ele>633.9</ele>
        <time>2017-02-17T14:29:05Z</time>
      </trkpt>
      <trkpt lat="44.27922" lon="3.22292">
        <ele>634.6</ele>
        <time>2017-02-17T14:29:07Z</time>
      </trkpt>
      <trkpt lat="44.27919" lon="3.22291">
        <ele>635.3</ele>
        <time>2017-02-17T14:29:09Z</time>
      </trkpt>
      <trkpt lat="44.27916" lon="3.22289">
        <ele>635.9</ele>
        <time>2017-02-17T14:29:11Z</time>
      </trkpt>
      <trkpt lat="44.27912" lon="3.22287">
        <ele>636.5</ele>
        <time>2017-02-17T14:29:13Z</time>
      </trkpt>
      <trkpt lat="44.27908" lon="3.22285">
        <ele>637.2</ele>
        <time>2017-02-17T14:29:15Z</time>
      </trkpt>
      <trkpt lat="44.27904" lon="3.22283">
        <ele>638</ele>
        <time>2017-02-17T14:29:17Z</time>
      </trkpt>
      <trkpt lat="44.279" lon="3.22282">
        <ele>638.7</ele>
        <time>2017-02-17T14:29:19Z</time>
      </trkpt>
      <trkpt lat="44.27897" lon="3.22282">
        <ele>639.2</ele>
        <time>2017-02-17T14:29:21Z</time>
      </trkpt>
      <trkpt lat="44.27894" lon="3.22282">
        <ele>639.8</ele>
        <time>2017-02-17T14:29:23Z</time>
      </trkpt>
      <trkpt lat="44.27891" lon="3.22281">
        <ele>640.3</ele>
        <time>2017-02-17T14:29:25Z</time>
      </trkpt>
      <trkpt lat="44.27886" lon="3.22281">
        <ele>641.1</ele>
        <time>2017-02-17T14:29:28Z</time>
      </trkpt>
      <trkpt lat="44.27883" lon="3.22281">
        <ele>641.6</ele>
        <time>2017-02-17T14:29:31Z</time>
      </trkpt>
      <trkpt lat="44.27879" lon="3.22281">
        <ele>642.7</ele>
        <time>2017-02-17T14:29:34Z</time>
      </trkpt>
      <trkpt lat="44.27876" lon="3.2228">
        <ele>643.4</ele>
        <time>2017-02-17T14:29:36Z</time>
      </trkpt>
      <trkpt lat="44.27873" lon="3.22277">
        <ele>644.1</ele>
        <time>2017-02-17T14:29:38Z</time>
      </trkpt>
      <trkpt lat="44.27861" lon="3.22283">
        <ele>646.7</ele>
        <time>2017-02-17T14:29:42Z</time>
      </trkpt>
      <trkpt lat="44.27858" lon="3.22285">
        <ele>647.6</ele>
        <time>2017-02-17T14:29:43Z</time>
      </trkpt>
      <trkpt lat="44.27853" lon="3.22283">
        <ele>648.5</ele>
        <time>2017-02-17T14:29:49Z</time>
      </trkpt>
      <trkpt lat="44.27849" lon="3.22282">
        <ele>649.4</ele>
        <time>2017-02-17T14:29:51Z</time>
      </trkpt>
      <trkpt lat="44.27846" lon="3.22282">
        <ele>650</ele>
        <time>2017-02-17T14:29:54Z</time>
      </trkpt>
      <trkpt lat="44.27843" lon="3.22281">
        <ele>650.7</ele>
        <time>2017-02-17T14:29:57Z</time>
      </trkpt>
      <trkpt lat="44.2784" lon="3.2228">
        <ele>651.3</ele>
        <time>2017-02-17T14:30:00Z</time>
      </trkpt>
      <trkpt lat="44.27837" lon="3.22277">
        <ele>652</ele>
        <time>2017-02-17T14:30:02Z</time>
      </trkpt>
      <trkpt lat="44.27834" lon="3.22277">
        <ele>652.6</ele>
        <time>2017-02-17T14:30:05Z</time>
      </trkpt>
      <trkpt lat="44.27831" lon="3.22277">
        <ele>653.3</ele>
        <time>2017-02-17T14:30:08Z</time>
      </trkpt>
      <trkpt lat="44.27828" lon="3.22276">
        <ele>654.1</ele>
        <time>2017-02-17T14:30:11Z</time>
      </trkpt>
      <trkpt lat="44.27824" lon="3.22275">
        <ele>655.1</ele>
        <time>2017-02-17T14:30:14Z</time>
      </trkpt>
      <trkpt lat="44.2782" lon="3.22276">
        <ele>656</ele>
        <time>2017-02-17T14:30:17Z</time>
      </trkpt>
      <trkpt lat="44.27817" lon="3.22276">
        <ele>656.8</ele>
        <time>2017-02-17T14:30:19Z</time>
      </trkpt>
      <trkpt lat="44.27812" lon="3.22275">
        <ele>657.8</ele>
        <time>2017-02-17T14:30:21Z</time>
      </trkpt>
      <trkpt lat="44.27809" lon="3.22272">
        <ele>658.4</ele>
        <time>2017-02-17T14:30:23Z</time>
      </trkpt>
      <trkpt lat="44.27807" lon="3.22269">
        <ele>659.1</ele>
        <time>2017-02-17T14:30:26Z</time>
      </trkpt>
      <trkpt lat="44.27806" lon="3.22265">
        <ele>659.9</ele>
        <time>2017-02-17T14:30:28Z</time>
      </trkpt>
      <trkpt lat="44.27804" lon="3.22262">
        <ele>660.5</ele>
        <time>2017-02-17T14:30:30Z</time>
      </trkpt>
      <trkpt lat="44.27804" lon="3.22257">
        <ele>661.1</ele>
        <time>2017-02-17T14:30:33Z</time>
      </trkpt>
      <trkpt lat="44.27806" lon="3.22253">
        <ele>661.8</ele>
        <time>2017-02-17T14:30:38Z</time>
      </trkpt>
      <trkpt lat="44.27808" lon="3.22251">
        <ele>662.4</ele>
        <time>2017-02-17T14:30:40Z</time>
      </trkpt>
      <trkpt lat="44.27811" lon="3.2225">
        <ele>663</ele>
        <time>2017-02-17T14:30:42Z</time>
      </trkpt>
      <trkpt lat="44.27815" lon="3.22249">
        <ele>663.9</ele>
        <time>2017-02-17T14:30:44Z</time>
      </trkpt>
      <trkpt lat="44.27818" lon="3.22246">
        <ele>664.8</ele>
        <time>2017-02-17T14:30:47Z</time>
      </trkpt>
      <trkpt lat="44.27821" lon="3.22247">
        <ele>665.3</ele>
        <time>2017-02-17T14:30:49Z</time>
      </trkpt>
      <trkpt lat="44.27824" lon="3.22246">
        <ele>665.9</ele>
        <time>2017-02-17T14:30:52Z</time>
      </trkpt>
      <trkpt lat="44.27828" lon="3.22246">
        <ele>666.5</ele>
        <time>2017-02-17T14:31:01Z</time>
      </trkpt>
      <trkpt lat="44.27831" lon="3.22247">
        <ele>667.1</ele>
        <time>2017-02-17T14:31:03Z</time>
      </trkpt>
      <trkpt lat="44.27837" lon="3.22244">
        <ele>668.1</ele>
        <time>2017-02-17T14:31:06Z</time>
      </trkpt>
      <trkpt lat="44.2784" lon="3.22245">
        <ele>668.8</ele>
        <time>2017-02-17T14:31:07Z</time>
      </trkpt>
      <trkpt lat="44.27843" lon="3.22243">
        <ele>669.4</ele>
        <time>2017-02-17T14:31:10Z</time>
      </trkpt>
      <trkpt lat="44.27846" lon="3.22242">
        <ele>670</ele>
        <time>2017-02-17T14:31:13Z</time>
      </trkpt>
      <trkpt lat="44.27878" lon="3.22233">
        <ele>677.2</ele>
        <time>2017-02-17T14:33:46Z</time>
      </trkpt>
      <trkpt lat="44.27884" lon="3.22234">
        <ele>678.2</ele>
        <time>2017-02-17T14:33:47Z</time>
      </trkpt>
      <trkpt lat="44.27888" lon="3.22232">
        <ele>679.1</ele>
        <time>2017-02-17T14:33:48Z</time>
      </trkpt>
      <trkpt lat="44.27893" lon="3.22233">
        <ele>680</ele>
        <time>2017-02-17T14:33:50Z</time>
      </trkpt>
      <trkpt lat="44.27897" lon="3.22234">
        <ele>680.8</ele>
        <time>2017-02-17T14:33:52Z</time>
      </trkpt>
      <trkpt lat="44.27901" lon="3.22234">
        <ele>681.4</ele>
        <time>2017-02-17T14:33:54Z</time>
      </trkpt>
      <trkpt lat="44.27904" lon="3.22234">
        <ele>681.9</ele>
        <time>2017-02-17T14:33:56Z</time>
      </trkpt>
      <trkpt lat="44.27907" lon="3.22235">
        <ele>682.5</ele>
        <time>2017-02-17T14:33:58Z</time>
      </trkpt>
      <trkpt lat="44.27909" lon="3.22235">
        <ele>683</ele>
        <time>2017-02-17T14:34:00Z</time>
      </trkpt>
      <trkpt lat="44.27912" lon="3.22236">
        <ele>683.6</ele>
        <time>2017-02-17T14:34:02Z</time>
      </trkpt>
      <trkpt lat="44.27915" lon="3.22237">
        <ele>684.2</ele>
        <time>2017-02-17T14:34:05Z</time>
      </trkpt>
      <trkpt lat="44.27919" lon="3.22237">
        <ele>684.9</ele>
        <time>2017-02-17T14:34:08Z</time>
      </trkpt>
      <trkpt lat="44.27922" lon="3.2224">
        <ele>685.6</ele>
        <time>2017-02-17T14:34:10Z</time>
      </trkpt>
      <trkpt lat="44.27926" lon="3.22241">
        <ele>686.3</ele>
        <time>2017-02-17T14:34:12Z</time>
      </trkpt>
      <trkpt lat="44.27928" lon="3.22243">
        <ele>686.8</ele>
        <time>2017-02-17T14:34:14Z</time>
      </trkpt>
      <trkpt lat="44.27931" lon="3.22244">
        <ele>687.4</ele>
        <time>2017-02-17T14:34:17Z</time>
      </trkpt>
      <trkpt lat="44.27934" lon="3.22246">
        <ele>688</ele>
        <time>2017-02-17T14:34:20Z</time>
      </trkpt>
      <trkpt lat="44.27937" lon="3.22246">
        <ele>688.5</ele>
        <time>2017-02-17T14:34:22Z</time>
      </trkpt>
      <trkpt lat="44.2794" lon="3.22247">
        <ele>689</ele>
        <time>2017-02-17T14:34:25Z</time>
      </trkpt>
      <trkpt lat="44.27943" lon="3.22248">
        <ele>689.6</ele>
        <time>2017-02-17T14:34:27Z</time>
      </trkpt>
      <trkpt lat="44.27946" lon="3.22249">
        <ele>690.2</ele>
        <time>2017-02-17T14:34:30Z</time>
      </trkpt>
      <trkpt lat="44.2795" lon="3.22248">
        <ele>690.4</ele>
        <time>2017-02-17T14:34:33Z</time>
      </trkpt>
      <trkpt lat="44.27952" lon="3.22246">
        <ele>690.6</ele>
        <time>2017-02-17T14:34:35Z</time>
      </trkpt>
      <trkpt lat="44.27953" lon="3.22243">
        <ele>690.8</ele>
        <time>2017-02-17T14:34:39Z</time>
      </trkpt>
      <trkpt lat="44.27955" lon="3.22238">
        <ele>691</ele>
        <time>2017-02-17T14:34:41Z</time>
      </trkpt>
      <trkpt lat="44.27958" lon="3.22241">
        <ele>691.3</ele>
        <time>2017-02-17T14:34:43Z</time>
      </trkpt>
      <trkpt lat="44.2796" lon="3.22244">
        <ele>691.5</ele>
        <time>2017-02-17T14:34:44Z</time>
      </trkpt>
      <trkpt lat="44.27962" lon="3.22248">
        <ele>691.8</ele>
        <time>2017-02-17T14:34:46Z</time>
      </trkpt>
      <trkpt lat="44.27969" lon="3.22251">
        <ele>692.3</ele>
        <time>2017-02-17T14:34:48Z</time>
      </trkpt>
      <trkpt lat="44.27972" lon="3.22251">
        <ele>692.5</ele>
        <time>2017-02-17T14:34:50Z</time>
      </trkpt>
      <trkpt lat="44.27977" lon="3.2225">
        <ele>692.8</ele>
        <time>2017-02-17T14:34:52Z</time>
      </trkpt>
      <trkpt lat="44.27981" lon="3.22247">
        <ele>693.1</ele>
        <time>2017-02-17T14:34:54Z</time>
      </trkpt>
      <trkpt lat="44.27984" lon="3.22249">
        <ele>693.3</ele>
        <time>2017-02-17T14:34:58Z</time>
      </trkpt>
      <trkpt lat="44.27988" lon="3.2225">
        <ele>693.6</ele>
        <time>2017-02-17T14:35:00Z</time>
      </trkpt>
      <trkpt lat="44.27992" lon="3.22251">
        <ele>693.9</ele>
        <time>2017-02-17T14:35:02Z</time>
      </trkpt>
      <trkpt lat="44.27995" lon="3.22251">
        <ele>694.1</ele>
        <time>2017-02-17T14:35:03Z</time>
      </trkpt>
      <trkpt lat="44.27998" lon="3.22252">
        <ele>694.4</ele>
        <time>2017-02-17T14:35:04Z</time>
      </trkpt>
      <trkpt lat="44.28002" lon="3.22253">
        <ele>694.6</ele>
        <time>2017-02-17T14:35:06Z</time>
      </trkpt>
      <trkpt lat="44.28006" lon="3.2225">
        <ele>694.9</ele>
        <time>2017-02-17T14:35:08Z</time>
      </trkpt>
      <trkpt lat="44.28009" lon="3.22251">
        <ele>695.1</ele>
        <time>2017-02-17T14:35:10Z</time>
      </trkpt>
      <trkpt lat="44.28012" lon="3.22251">
        <ele>695.3</ele>
        <time>2017-02-17T14:35:13Z</time>
      </trkpt>
      <trkpt lat="44.28015" lon="3.22255">
        <ele>695.5</ele>
        <time>2017-02-17T14:35:17Z</time>
      </trkpt>
      <trkpt lat="44.28019" lon="3.2226">
        <ele>695.8</ele>
        <time>2017-02-17T14:35:19Z</time>
      </trkpt>
      <trkpt lat="44.28022" lon="3.22262">
        <ele>696</ele>
        <time>2017-02-17T14:35:20Z</time>
      </trkpt>
      <trkpt lat="44.28024" lon="3.22264">
        <ele>696.2</ele>
        <time>2017-02-17T14:35:21Z</time>
      </trkpt>
      <trkpt lat="44.28027" lon="3.22266">
        <ele>696.4</ele>
        <time>2017-02-17T14:35:22Z</time>
      </trkpt>
      <trkpt lat="44.2803" lon="3.22267">
        <ele>696.6</ele>
        <time>2017-02-17T14:35:23Z</time>
      </trkpt>
      <trkpt lat="44.28033" lon="3.22267">
        <ele>696.7</ele>
        <time>2017-02-17T14:35:24Z</time>
      </trkpt>
      <trkpt lat="44.28038" lon="3.22268">
        <ele>697</ele>
        <time>2017-02-17T14:35:26Z</time>
      </trkpt>
      <trkpt lat="44.28041" lon="3.22267">
        <ele>697.2</ele>
        <time>2017-02-17T14:35:28Z</time>
      </trkpt>
      <trkpt lat="44.28044" lon="3.22265">
        <ele>697.4</ele>
        <time>2017-02-17T14:35:29Z</time>
      </trkpt>
      <trkpt lat="44.28048" lon="3.22267">
        <ele>697.7</ele>
        <time>2017-02-17T14:35:32Z</time>
      </trkpt>
      <trkpt lat="44.28051" lon="3.22267">
        <ele>697.9</ele>
        <time>2017-02-17T14:35:35Z</time>
      </trkpt>
      <trkpt lat="44.28055" lon="3.22267">
        <ele>698.1</ele>
        <time>2017-02-17T14:35:37Z</time>
      </trkpt>
      <trkpt lat="44.2806" lon="3.22267">
        <ele>698.4</ele>
        <time>2017-02-17T14:35:39Z</time>
      </trkpt>
      <trkpt lat="44.28062" lon="3.22268">
        <ele>698.6</ele>
        <time>2017-02-17T14:35:40Z</time>
      </trkpt>
      <trkpt lat="44.28067" lon="3.22269">
        <ele>698.9</ele>
        <time>2017-02-17T14:35:42Z</time>
      </trkpt>
      <trkpt lat="44.28072" lon="3.22271">
        <ele>699.3</ele>
        <time>2017-02-17T14:35:44Z</time>
      </trkpt>
      <trkpt lat="44.28076" lon="3.22272">
        <ele>699.7</ele>
        <time>2017-02-17T14:35:46Z</time>
      </trkpt>
      <trkpt lat="44.28079" lon="3.22273">
        <ele>699.9</ele>
        <time>2017-02-17T14:35:48Z</time>
      </trkpt>
      <trkpt lat="44.28083" lon="3.22274">
        <ele>700.2</ele>
        <time>2017-02-17T14:35:50Z</time>
      </trkpt>
      <trkpt lat="44.28087" lon="3.22274">
        <ele>700.6</ele>
        <time>2017-02-17T14:35:52Z</time>
      </trkpt>
      <trkpt lat="44.28091" lon="3.22275">
        <ele>700.9</ele>
        <time>2017-02-17T14:35:54Z</time>
      </trkpt>
      <trkpt lat="44.28095" lon="3.22275">
        <ele>701.2</ele>
        <time>2017-02-17T14:35:56Z</time>
      </trkpt>
      <trkpt lat="44.28098" lon="3.22276">
        <ele>701.5</ele>
        <time>2017-02-17T14:35:58Z</time>
      </trkpt>
      <trkpt lat="44.28103" lon="3.22275">
        <ele>701.8</ele>
        <time>2017-02-17T14:36:00Z</time>
      </trkpt>
      <trkpt lat="44.28106" lon="3.22275">
        <ele>702.1</ele>
        <time>2017-02-17T14:36:02Z</time>
      </trkpt>
      <trkpt lat="44.2811" lon="3.22275">
        <ele>702.4</ele>
        <time>2017-02-17T14:36:04Z</time>
      </trkpt>
      <trkpt lat="44.28114" lon="3.22277">
        <ele>702.7</ele>
        <time>2017-02-17T14:36:06Z</time>
      </trkpt>
      <trkpt lat="44.28118" lon="3.22279">
        <ele>703.2</ele>
        <time>2017-02-17T14:36:08Z</time>
      </trkpt>
      <trkpt lat="44.28122" lon="3.22279">
        <ele>703.6</ele>
        <time>2017-02-17T14:36:10Z</time>
      </trkpt>
      <trkpt lat="44.28126" lon="3.22279">
        <ele>703.8</ele>
        <time>2017-02-17T14:36:12Z</time>
      </trkpt>
      <trkpt lat="44.2813" lon="3.22279">
        <ele>704.2</ele>
        <time>2017-02-17T14:36:14Z</time>
      </trkpt>
      <trkpt lat="44.28134" lon="3.22279">
        <ele>704.5</ele>
        <time>2017-02-17T14:36:16Z</time>
      </trkpt>
      <trkpt lat="44.28137" lon="3.22278">
        <ele>704.7</ele>
        <time>2017-02-17T14:36:18Z</time>
      </trkpt>
      <trkpt lat="44.28141" lon="3.22277">
        <ele>705</ele>
        <time>2017-02-17T14:36:20Z</time>
      </trkpt>
      <trkpt lat="44.28144" lon="3.22275">
        <ele>705.3</ele>
        <time>2017-02-17T14:36:22Z</time>
      </trkpt>
      <trkpt lat="44.28149" lon="3.22274">
        <ele>705.6</ele>
        <time>2017-02-17T14:36:24Z</time>
      </trkpt>
      <trkpt lat="44.28153" lon="3.22273">
        <ele>705.9</ele>
        <time>2017-02-17T14:36:26Z</time>
      </trkpt>
      <trkpt lat="44.28157" lon="3.22271">
        <ele>706.2</ele>
        <time>2017-02-17T14:36:28Z</time>
      </trkpt>
      <trkpt lat="44.2816" lon="3.22269">
        <ele>706.5</ele>
        <time>2017-02-17T14:36:30Z</time>
      </trkpt>
      <trkpt lat="44.28163" lon="3.22267">
        <ele>706.7</ele>
        <time>2017-02-17T14:36:32Z</time>
      </trkpt>
      <trkpt lat="44.28167" lon="3.22266">
        <ele>707</ele>
        <time>2017-02-17T14:36:34Z</time>
      </trkpt>
      <trkpt lat="44.2817" lon="3.22264">
        <ele>707.3</ele>
        <time>2017-02-17T14:36:36Z</time>
      </trkpt>
      <trkpt lat="44.28174" lon="3.22262">
        <ele>707.5</ele>
        <time>2017-02-17T14:36:38Z</time>
      </trkpt>
      <trkpt lat="44.28178" lon="3.2226">
        <ele>707.9</ele>
        <time>2017-02-17T14:36:40Z</time>
      </trkpt>
      <trkpt lat="44.28182" lon="3.22259">
        <ele>708.2</ele>
        <time>2017-02-17T14:36:42Z</time>
      </trkpt>
      <trkpt lat="44.28186" lon="3.22257">
        <ele>708.5</ele>
        <time>2017-02-17T14:36:44Z</time>
      </trkpt>
      <trkpt lat="44.28189" lon="3.22255">
        <ele>708.9</ele>
        <time>2017-02-17T14:36:47Z</time>
      </trkpt>
      <trkpt lat="44.28193" lon="3.22254">
        <ele>709.2</ele>
        <time>2017-02-17T14:36:49Z</time>
      </trkpt>
      <trkpt lat="44.28196" lon="3.22252">
        <ele>709.5</ele>
        <time>2017-02-17T14:36:52Z</time>
      </trkpt>
      <trkpt lat="44.282" lon="3.2225">
        <ele>709.8</ele>
        <time>2017-02-17T14:36:54Z</time>
      </trkpt>
      <trkpt lat="44.28202" lon="3.22248">
        <ele>710</ele>
        <time>2017-02-17T14:36:56Z</time>
      </trkpt>
      <trkpt lat="44.282" lon="3.22245">
        <ele>710.2</ele>
        <time>2017-02-17T14:37:01Z</time>
      </trkpt>
      <trkpt lat="44.28203" lon="3.22241">
        <ele>710.5</ele>
        <time>2017-02-17T14:37:04Z</time>
      </trkpt>
      <trkpt lat="44.28206" lon="3.22239">
        <ele>710.8</ele>
        <time>2017-02-17T14:37:06Z</time>
      </trkpt>
      <trkpt lat="44.28209" lon="3.22236">
        <ele>711.1</ele>
        <time>2017-02-17T14:37:08Z</time>
      </trkpt>
      <trkpt lat="44.28212" lon="3.22234">
        <ele>711.3</ele>
        <time>2017-02-17T14:37:09Z</time>
      </trkpt>
      <trkpt lat="44.28215" lon="3.22231">
        <ele>711.6</ele>
        <time>2017-02-17T14:37:11Z</time>
      </trkpt>
      <trkpt lat="44.28219" lon="3.22228">
        <ele>711.9</ele>
        <time>2017-02-17T14:37:13Z</time>
      </trkpt>
      <trkpt lat="44.28222" lon="3.22226">
        <ele>712.2</ele>
        <time>2017-02-17T14:37:15Z</time>
      </trkpt>
      <trkpt lat="44.28226" lon="3.22223">
        <ele>712.5</ele>
        <time>2017-02-17T14:37:17Z</time>
      </trkpt>
      <trkpt lat="44.2823" lon="3.2222">
        <ele>712.9</ele>
        <time>2017-02-17T14:37:19Z</time>
      </trkpt>
      <trkpt lat="44.28233" lon="3.22217">
        <ele>713.2</ele>
        <time>2017-02-17T14:37:21Z</time>
      </trkpt>
      <trkpt lat="44.28238" lon="3.22214">
        <ele>713.6</ele>
        <time>2017-02-17T14:37:23Z</time>
      </trkpt>
      <trkpt lat="44.2824" lon="3.22213">
        <ele>713.8</ele>
        <time>2017-02-17T14:37:24Z</time>
      </trkpt>
      <trkpt lat="44.28246" lon="3.2221">
        <ele>714.2</ele>
        <time>2017-02-17T14:37:26Z</time>
      </trkpt>
      <trkpt lat="44.2825" lon="3.22207">
        <ele>714.6</ele>
        <time>2017-02-17T14:37:28Z</time>
      </trkpt>
      <trkpt lat="44.28254" lon="3.22204">
        <ele>714.9</ele>
        <time>2017-02-17T14:37:30Z</time>
      </trkpt>
      <trkpt lat="44.28258" lon="3.22199">
        <ele>715.3</ele>
        <time>2017-02-17T14:37:32Z</time>
      </trkpt>
      <trkpt lat="44.2826" lon="3.22193">
        <ele>715.6</ele>
        <time>2017-02-17T14:37:34Z</time>
      </trkpt>
      <trkpt lat="44.28263" lon="3.22191">
        <ele>715.8</ele>
        <time>2017-02-17T14:37:37Z</time>
      </trkpt>
      <trkpt lat="44.28266" lon="3.22188">
        <ele>716.1</ele>
        <time>2017-02-17T14:37:40Z</time>
      </trkpt>
      <trkpt lat="44.2827" lon="3.22183">
        <ele>716.4</ele>
        <time>2017-02-17T14:37:42Z</time>
      </trkpt>
      <trkpt lat="44.28273" lon="3.2218">
        <ele>716.6</ele>
        <time>2017-02-17T14:37:44Z</time>
      </trkpt>
      <trkpt lat="44.28275" lon="3.22178">
        <ele>716.8</ele>
        <time>2017-02-17T14:37:46Z</time>
      </trkpt>
      <trkpt lat="44.28279" lon="3.22172">
        <ele>717.2</ele>
        <time>2017-02-17T14:37:48Z</time>
      </trkpt>
      <trkpt lat="44.28284" lon="3.22167">
        <ele>717.5</ele>
        <time>2017-02-17T14:37:51Z</time>
      </trkpt>
      <trkpt lat="44.28288" lon="3.22163">
        <ele>717.9</ele>
        <time>2017-02-17T14:37:53Z</time>
      </trkpt>
      <trkpt lat="44.2829" lon="3.2216">
        <ele>718.1</ele>
        <time>2017-02-17T14:37:56Z</time>
      </trkpt>
      <trkpt lat="44.28293" lon="3.22158">
        <ele>718.3</ele>
        <time>2017-02-17T14:37:58Z</time>
      </trkpt>
      <trkpt lat="44.28295" lon="3.22155">
        <ele>718.6</ele>
        <time>2017-02-17T14:38:00Z</time>
      </trkpt>
      <trkpt lat="44.28298" lon="3.22152">
        <ele>718.8</ele>
        <time>2017-02-17T14:38:02Z</time>
      </trkpt>
      <trkpt lat="44.283" lon="3.22149">
        <ele>719</ele>
        <time>2017-02-17T14:38:04Z</time>
      </trkpt>
      <trkpt lat="44.28303" lon="3.22145">
        <ele>719.3</ele>
        <time>2017-02-17T14:38:06Z</time>
      </trkpt>
      <trkpt lat="44.28305" lon="3.22141">
        <ele>719.5</ele>
        <time>2017-02-17T14:38:07Z</time>
      </trkpt>
      <trkpt lat="44.28309" lon="3.22139">
        <ele>719.8</ele>
        <time>2017-02-17T14:38:09Z</time>
      </trkpt>
      <trkpt lat="44.28311" lon="3.22135">
        <ele>720</ele>
        <time>2017-02-17T14:38:11Z</time>
      </trkpt>
      <trkpt lat="44.28313" lon="3.22132">
        <ele>720.3</ele>
        <time>2017-02-17T14:38:13Z</time>
      </trkpt>
      <trkpt lat="44.28316" lon="3.22128">
        <ele>720.5</ele>
        <time>2017-02-17T14:38:14Z</time>
      </trkpt>
      <trkpt lat="44.2832" lon="3.22122">
        <ele>721</ele>
        <time>2017-02-17T14:38:16Z</time>
      </trkpt>
      <trkpt lat="44.28322" lon="3.22117">
        <ele>721.3</ele>
        <time>2017-02-17T14:38:18Z</time>
      </trkpt>
      <trkpt lat="44.28324" lon="3.22112">
        <ele>721.5</ele>
        <time>2017-02-17T14:38:20Z</time>
      </trkpt>
      <trkpt lat="44.28326" lon="3.2211">
        <ele>721.7</ele>
        <time>2017-02-17T14:38:22Z</time>
      </trkpt>
      <trkpt lat="44.28328" lon="3.22107">
        <ele>721.9</ele>
        <time>2017-02-17T14:38:25Z</time>
      </trkpt>
      <trkpt lat="44.2833" lon="3.22104">
        <ele>722.1</ele>
        <time>2017-02-17T14:38:27Z</time>
      </trkpt>
      <trkpt lat="44.28332" lon="3.22101">
        <ele>722.2</ele>
        <time>2017-02-17T14:38:29Z</time>
      </trkpt>
      <trkpt lat="44.28335" lon="3.22095">
        <ele>722.7</ele>
        <time>2017-02-17T14:38:31Z</time>
      </trkpt>
      <trkpt lat="44.28338" lon="3.22091">
        <ele>722.9</ele>
        <time>2017-02-17T14:38:33Z</time>
      </trkpt>
      <trkpt lat="44.28341" lon="3.22084">
        <ele>723.3</ele>
        <time>2017-02-17T14:38:35Z</time>
      </trkpt>
      <trkpt lat="44.28343" lon="3.2208">
        <ele>723.5</ele>
        <time>2017-02-17T14:38:37Z</time>
      </trkpt>
      <trkpt lat="44.28344" lon="3.22075">
        <ele>723.7</ele>
        <time>2017-02-17T14:38:39Z</time>
      </trkpt>
      <trkpt lat="44.28346" lon="3.2207">
        <ele>724</ele>
        <time>2017-02-17T14:38:41Z</time>
      </trkpt>
      <trkpt lat="44.28346" lon="3.22065">
        <ele>724.2</ele>
        <time>2017-02-17T14:38:43Z</time>
      </trkpt>
      <trkpt lat="44.28345" lon="3.22061">
        <ele>724.4</ele>
        <time>2017-02-17T14:38:45Z</time>
      </trkpt>
      <trkpt lat="44.28343" lon="3.22058">
        <ele>724.6</ele>
        <time>2017-02-17T14:38:47Z</time>
      </trkpt>
      <trkpt lat="44.28339" lon="3.22055">
        <ele>724.9</ele>
        <time>2017-02-17T14:38:50Z</time>
      </trkpt>
      <trkpt lat="44.28336" lon="3.22055">
        <ele>725</ele>
        <time>2017-02-17T14:38:52Z</time>
      </trkpt>
      <trkpt lat="44.28333" lon="3.22057">
        <ele>724.9</ele>
        <time>2017-02-17T14:38:54Z</time>
      </trkpt>
      <trkpt lat="44.28332" lon="3.22061">
        <ele>724.8</ele>
        <time>2017-02-17T14:38:57Z</time>
      </trkpt>
      <trkpt lat="44.2833" lon="3.22065">
        <ele>724.8</ele>
        <time>2017-02-17T14:38:59Z</time>
      </trkpt>
      <trkpt lat="44.28327" lon="3.2207">
        <ele>724.8</ele>
        <time>2017-02-17T14:39:01Z</time>
      </trkpt>
      <trkpt lat="44.28325" lon="3.22074">
        <ele>724.8</ele>
        <time>2017-02-17T14:39:03Z</time>
      </trkpt>
      <trkpt lat="44.28322" lon="3.22079">
        <ele>724.8</ele>
        <time>2017-02-17T14:39:05Z</time>
      </trkpt>
      <trkpt lat="44.28319" lon="3.22082">
        <ele>724.9</ele>
        <time>2017-02-17T14:39:07Z</time>
      </trkpt>
      <trkpt lat="44.28316" lon="3.22086">
        <ele>724.9</ele>
        <time>2017-02-17T14:39:09Z</time>
      </trkpt>
      <trkpt lat="44.28311" lon="3.22092">
        <ele>725</ele>
        <time>2017-02-17T14:39:13Z</time>
      </trkpt>
      <trkpt lat="44.28309" lon="3.22095">
        <ele>725</ele>
        <time>2017-02-17T14:39:14Z</time>
      </trkpt>
      <trkpt lat="44.28306" lon="3.22098">
        <ele>725.1</ele>
        <time>2017-02-17T14:39:15Z</time>
      </trkpt>
      <trkpt lat="44.28303" lon="3.221">
        <ele>725.1</ele>
        <time>2017-02-17T14:39:16Z</time>
      </trkpt>
      <trkpt lat="44.28299" lon="3.22104">
        <ele>725.2</ele>
        <time>2017-02-17T14:39:18Z</time>
      </trkpt>
      <trkpt lat="44.28295" lon="3.22106">
        <ele>725.2</ele>
        <time>2017-02-17T14:39:20Z</time>
      </trkpt>
      <trkpt lat="44.28292" lon="3.22108">
        <ele>725.3</ele>
        <time>2017-02-17T14:39:22Z</time>
      </trkpt>
      <trkpt lat="44.28289" lon="3.2211">
        <ele>725.3</ele>
        <time>2017-02-17T14:39:24Z</time>
      </trkpt>
      <trkpt lat="44.28284" lon="3.22111">
        <ele>725.3</ele>
        <time>2017-02-17T14:39:26Z</time>
      </trkpt>
      <trkpt lat="44.28281" lon="3.22113">
        <ele>725.4</ele>
        <time>2017-02-17T14:39:28Z</time>
      </trkpt>
      <trkpt lat="44.28278" lon="3.22116">
        <ele>725.4</ele>
        <time>2017-02-17T14:39:30Z</time>
      </trkpt>
      <trkpt lat="44.28276" lon="3.2212">
        <ele>725.5</ele>
        <time>2017-02-17T14:39:32Z</time>
      </trkpt>
      <trkpt lat="44.28272" lon="3.22125">
        <ele>725.6</ele>
        <time>2017-02-17T14:39:36Z</time>
      </trkpt>
      <trkpt lat="44.2827" lon="3.22128">
        <ele>725.6</ele>
        <time>2017-02-17T14:39:38Z</time>
      </trkpt>
      <trkpt lat="44.28266" lon="3.2213">
        <ele>725.7</ele>
        <time>2017-02-17T14:39:40Z</time>
      </trkpt>
      <trkpt lat="44.28257" lon="3.22133">
        <ele>725.8</ele>
        <time>2017-02-17T14:39:43Z</time>
      </trkpt>
      <trkpt lat="44.28253" lon="3.22134">
        <ele>725.9</ele>
        <time>2017-02-17T14:39:45Z</time>
      </trkpt>
      <trkpt lat="44.28246" lon="3.22135">
        <ele>726</ele>
        <time>2017-02-17T14:39:47Z</time>
      </trkpt>
      <trkpt lat="44.28244" lon="3.22135">
        <ele>726</ele>
        <time>2017-02-17T14:39:48Z</time>
      </trkpt>
      <trkpt lat="44.2824" lon="3.22135">
        <ele>726.1</ele>
        <time>2017-02-17T14:39:50Z</time>
      </trkpt>
      <trkpt lat="44.28235" lon="3.22136">
        <ele>726.2</ele>
        <time>2017-02-17T14:39:52Z</time>
      </trkpt>
      <trkpt lat="44.28232" lon="3.22136">
        <ele>726.3</ele>
        <time>2017-02-17T14:39:53Z</time>
      </trkpt>
      <trkpt lat="44.28212" lon="3.22132">
        <ele>726.9</ele>
        <time>2017-02-17T14:40:03Z</time>
      </trkpt>
      <trkpt lat="44.28207" lon="3.22133">
        <ele>727</ele>
        <time>2017-02-17T14:40:04Z</time>
      </trkpt>
      <trkpt lat="44.28203" lon="3.22133">
        <ele>727.2</ele>
        <time>2017-02-17T14:40:06Z</time>
      </trkpt>
      <trkpt lat="44.282" lon="3.22134">
        <ele>727.3</ele>
        <time>2017-02-17T14:40:07Z</time>
      </trkpt>
      <trkpt lat="44.28197" lon="3.22134">
        <ele>727.3</ele>
        <time>2017-02-17T14:40:08Z</time>
      </trkpt>
      <trkpt lat="44.28193" lon="3.22134">
        <ele>727.5</ele>
        <time>2017-02-17T14:40:10Z</time>
      </trkpt>
      <trkpt lat="44.28189" lon="3.22133">
        <ele>727.6</ele>
        <time>2017-02-17T14:40:12Z</time>
      </trkpt>
      <trkpt lat="44.28185" lon="3.22132">
        <ele>727.7</ele>
        <time>2017-02-17T14:40:13Z</time>
      </trkpt>
      <trkpt lat="44.28182" lon="3.22131">
        <ele>727.8</ele>
        <time>2017-02-17T14:40:14Z</time>
      </trkpt>
      <trkpt lat="44.28178" lon="3.22131">
        <ele>727.9</ele>
        <time>2017-02-17T14:40:16Z</time>
      </trkpt>
      <trkpt lat="44.28174" lon="3.22131">
        <ele>728</ele>
        <time>2017-02-17T14:40:18Z</time>
      </trkpt>
      <trkpt lat="44.28171" lon="3.22131">
        <ele>728.1</ele>
        <time>2017-02-17T14:40:20Z</time>
      </trkpt>
      <trkpt lat="44.28168" lon="3.22129">
        <ele>728.2</ele>
        <time>2017-02-17T14:40:22Z</time>
      </trkpt>
      <trkpt lat="44.28163" lon="3.22129">
        <ele>728.3</ele>
        <time>2017-02-17T14:40:25Z</time>
      </trkpt>
      <trkpt lat="44.2816" lon="3.22131">
        <ele>728.3</ele>
        <time>2017-02-17T14:40:27Z</time>
      </trkpt>
      <trkpt lat="44.28158" lon="3.22129">
        <ele>728.4</ele>
        <time>2017-02-17T14:40:32Z</time>
      </trkpt>
      <trkpt lat="44.28154" lon="3.22126">
        <ele>728.5</ele>
        <time>2017-02-17T14:40:34Z</time>
      </trkpt>
      <trkpt lat="44.28151" lon="3.22128">
        <ele>728.5</ele>
        <time>2017-02-17T14:40:36Z</time>
      </trkpt>
      <trkpt lat="44.28139" lon="3.22123">
        <ele>728.8</ele>
        <time>2017-02-17T14:40:43Z</time>
      </trkpt>
      <trkpt lat="44.28136" lon="3.22123">
        <ele>728.9</ele>
        <time>2017-02-17T14:40:46Z</time>
      </trkpt>
      <trkpt lat="44.28132" lon="3.22123">
        <ele>729</ele>
        <time>2017-02-17T14:40:48Z</time>
      </trkpt>
      <trkpt lat="44.28129" lon="3.22122">
        <ele>729.1</ele>
        <time>2017-02-17T14:40:49Z</time>
      </trkpt>
      <trkpt lat="44.28124" lon="3.22121">
        <ele>729.2</ele>
        <time>2017-02-17T14:40:50Z</time>
      </trkpt>
      <trkpt lat="44.28121" lon="3.2212">
        <ele>729.3</ele>
        <time>2017-02-17T14:40:51Z</time>
      </trkpt>
      <trkpt lat="44.28118" lon="3.22119">
        <ele>729.4</ele>
        <time>2017-02-17T14:40:52Z</time>
      </trkpt>
      <trkpt lat="44.28116" lon="3.22118">
        <ele>729.4</ele>
        <time>2017-02-17T14:40:53Z</time>
      </trkpt>
      <trkpt lat="44.28113" lon="3.22117">
        <ele>729.5</ele>
        <time>2017-02-17T14:40:54Z</time>
      </trkpt>
      <trkpt lat="44.28108" lon="3.22115">
        <ele>729.6</ele>
        <time>2017-02-17T14:40:56Z</time>
      </trkpt>
      <trkpt lat="44.28103" lon="3.22112">
        <ele>729.7</ele>
        <time>2017-02-17T14:40:58Z</time>
      </trkpt>
      <trkpt lat="44.281" lon="3.22111">
        <ele>729.7</ele>
        <time>2017-02-17T14:40:59Z</time>
      </trkpt>
      <trkpt lat="44.28097" lon="3.22109">
        <ele>729.8</ele>
        <time>2017-02-17T14:41:00Z</time>
      </trkpt>
      <trkpt lat="44.28094" lon="3.22108">
        <ele>729.8</ele>
        <time>2017-02-17T14:41:01Z</time>
      </trkpt>
      <trkpt lat="44.28091" lon="3.22107">
        <ele>729.9</ele>
        <time>2017-02-17T14:41:02Z</time>
      </trkpt>
      <trkpt lat="44.28088" lon="3.22105">
        <ele>729.9</ele>
        <time>2017-02-17T14:41:03Z</time>
      </trkpt>
      <trkpt lat="44.28086" lon="3.22103">
        <ele>730</ele>
        <time>2017-02-17T14:41:04Z</time>
      </trkpt>
      <trkpt lat="44.28083" lon="3.22101">
        <ele>730.5</ele>
        <time>2017-02-17T14:41:05Z</time>
      </trkpt>
      <trkpt lat="44.28077" lon="3.221">
        <ele>731.2</ele>
        <time>2017-02-17T14:41:07Z</time>
      </trkpt>
      <trkpt lat="44.28074" lon="3.22097">
        <ele>731.6</ele>
        <time>2017-02-17T14:41:09Z</time>
      </trkpt>
      <trkpt lat="44.2807" lon="3.22094">
        <ele>732.1</ele>
        <time>2017-02-17T14:41:12Z</time>
      </trkpt>
      <trkpt lat="44.28067" lon="3.22092">
        <ele>732.5</ele>
        <time>2017-02-17T14:41:14Z</time>
      </trkpt>
      <trkpt lat="44.28064" lon="3.2209">
        <ele>732.8</ele>
        <time>2017-02-17T14:41:16Z</time>
      </trkpt>
      <trkpt lat="44.28061" lon="3.22088">
        <ele>733.2</ele>
        <time>2017-02-17T14:41:18Z</time>
      </trkpt>
      <trkpt lat="44.28058" lon="3.22086">
        <ele>733.5</ele>
        <time>2017-02-17T14:41:20Z</time>
      </trkpt>
      <trkpt lat="44.28055" lon="3.22084">
        <ele>733.9</ele>
        <time>2017-02-17T14:41:22Z</time>
      </trkpt>
      <trkpt lat="44.28052" lon="3.22082">
        <ele>734.2</ele>
        <time>2017-02-17T14:41:24Z</time>
      </trkpt>
      <trkpt lat="44.28048" lon="3.2208">
        <ele>734.7</ele>
        <time>2017-02-17T14:41:26Z</time>
      </trkpt>
      <trkpt lat="44.28044" lon="3.22078">
        <ele>735.1</ele>
        <time>2017-02-17T14:41:28Z</time>
      </trkpt>
      <trkpt lat="44.28041" lon="3.22075">
        <ele>735.4</ele>
        <time>2017-02-17T14:41:30Z</time>
      </trkpt>
      <trkpt lat="44.28038" lon="3.22074">
        <ele>735.7</ele>
        <time>2017-02-17T14:41:32Z</time>
      </trkpt>
      <trkpt lat="44.28035" lon="3.22071">
        <ele>736.1</ele>
        <time>2017-02-17T14:41:34Z</time>
      </trkpt>
      <trkpt lat="44.28031" lon="3.22069">
        <ele>736.5</ele>
        <time>2017-02-17T14:41:36Z</time>
      </trkpt>
      <trkpt lat="44.28027" lon="3.22067">
        <ele>737</ele>
        <time>2017-02-17T14:41:38Z</time>
      </trkpt>
      <trkpt lat="44.28024" lon="3.22065">
        <ele>737.3</ele>
        <time>2017-02-17T14:41:40Z</time>
      </trkpt>
      <trkpt lat="44.28019" lon="3.22063">
        <ele>737.8</ele>
        <time>2017-02-17T14:41:42Z</time>
      </trkpt>
      <trkpt lat="44.28015" lon="3.22061">
        <ele>738.3</ele>
        <time>2017-02-17T14:41:44Z</time>
      </trkpt>
      <trkpt lat="44.28011" lon="3.22058">
        <ele>738.8</ele>
        <time>2017-02-17T14:41:46Z</time>
      </trkpt>
      <trkpt lat="44.28007" lon="3.22056">
        <ele>739.4</ele>
        <time>2017-02-17T14:41:48Z</time>
      </trkpt>
      <trkpt lat="44.28002" lon="3.22055">
        <ele>740</ele>
        <time>2017-02-17T14:41:50Z</time>
      </trkpt>
      <trkpt lat="44.27999" lon="3.22054">
        <ele>740.3</ele>
        <time>2017-02-17T14:41:51Z</time>
      </trkpt>
      <trkpt lat="44.27996" lon="3.22053">
        <ele>740.6</ele>
        <time>2017-02-17T14:41:52Z</time>
      </trkpt>
      <trkpt lat="44.27993" lon="3.22052">
        <ele>740.9</ele>
        <time>2017-02-17T14:41:53Z</time>
      </trkpt>
      <trkpt lat="44.27991" lon="3.22051">
        <ele>741.2</ele>
        <time>2017-02-17T14:41:54Z</time>
      </trkpt>
      <trkpt lat="44.27988" lon="3.2205">
        <ele>741.5</ele>
        <time>2017-02-17T14:41:55Z</time>
      </trkpt>
      <trkpt lat="44.27985" lon="3.22049">
        <ele>741.8</ele>
        <time>2017-02-17T14:41:56Z</time>
      </trkpt>
      <trkpt lat="44.27982" lon="3.22048">
        <ele>742.1</ele>
        <time>2017-02-17T14:41:57Z</time>
      </trkpt>
      <trkpt lat="44.27978" lon="3.22046">
        <ele>742.6</ele>
        <time>2017-02-17T14:41:59Z</time>
      </trkpt>
      <trkpt lat="44.27974" lon="3.22044">
        <ele>743.1</ele>
        <time>2017-02-17T14:42:01Z</time>
      </trkpt>
      <trkpt lat="44.27971" lon="3.22043">
        <ele>743.4</ele>
        <time>2017-02-17T14:42:03Z</time>
      </trkpt>
      <trkpt lat="44.27968" lon="3.22042">
        <ele>743.8</ele>
        <time>2017-02-17T14:42:05Z</time>
      </trkpt>
      <trkpt lat="44.27965" lon="3.22041">
        <ele>744.1</ele>
        <time>2017-02-17T14:42:07Z</time>
      </trkpt>
      <trkpt lat="44.27961" lon="3.22039">
        <ele>744.5</ele>
        <time>2017-02-17T14:42:09Z</time>
      </trkpt>
      <trkpt lat="44.27958" lon="3.22037">
        <ele>744.9</ele>
        <time>2017-02-17T14:42:11Z</time>
      </trkpt>
      <trkpt lat="44.27954" lon="3.22035">
        <ele>745.4</ele>
        <time>2017-02-17T14:42:13Z</time>
      </trkpt>
      <trkpt lat="44.27951" lon="3.22035">
        <ele>745.7</ele>
        <time>2017-02-17T14:42:15Z</time>
      </trkpt>
      <trkpt lat="44.27947" lon="3.22033">
        <ele>746.2</ele>
        <time>2017-02-17T14:42:18Z</time>
      </trkpt>
      <trkpt lat="44.27944" lon="3.22032">
        <ele>746.6</ele>
        <time>2017-02-17T14:42:20Z</time>
      </trkpt>
      <trkpt lat="44.27939" lon="3.2203">
        <ele>747.3</ele>
        <time>2017-02-17T14:42:22Z</time>
      </trkpt>
      <trkpt lat="44.27935" lon="3.22029">
        <ele>747.7</ele>
        <time>2017-02-17T14:42:24Z</time>
      </trkpt>
      <trkpt lat="44.27931" lon="3.22028">
        <ele>748.2</ele>
        <time>2017-02-17T14:42:26Z</time>
      </trkpt>
      <trkpt lat="44.27926" lon="3.22027">
        <ele>748.8</ele>
        <time>2017-02-17T14:42:28Z</time>
      </trkpt>
      <trkpt lat="44.27921" lon="3.22025">
        <ele>749.3</ele>
        <time>2017-02-17T14:42:30Z</time>
      </trkpt>
      <trkpt lat="44.27917" lon="3.22023">
        <ele>749.8</ele>
        <time>2017-02-17T14:42:32Z</time>
      </trkpt>
      <trkpt lat="44.27914" lon="3.22022">
        <ele>750.2</ele>
        <time>2017-02-17T14:42:34Z</time>
      </trkpt>
      <trkpt lat="44.2791" lon="3.22021">
        <ele>750.5</ele>
        <time>2017-02-17T14:42:36Z</time>
      </trkpt>
      <trkpt lat="44.27906" lon="3.2202">
        <ele>750.9</ele>
        <time>2017-02-17T14:42:38Z</time>
      </trkpt>
      <trkpt lat="44.27902" lon="3.22019">
        <ele>751.4</ele>
        <time>2017-02-17T14:42:41Z</time>
      </trkpt>
      <trkpt lat="44.27898" lon="3.22019">
        <ele>751.8</ele>
        <time>2017-02-17T14:42:43Z</time>
      </trkpt>
      <trkpt lat="44.27895" lon="3.22017">
        <ele>752.1</ele>
        <time>2017-02-17T14:42:45Z</time>
      </trkpt>
      <trkpt lat="44.27893" lon="3.22016">
        <ele>752.4</ele>
        <time>2017-02-17T14:42:47Z</time>
      </trkpt>
      <trkpt lat="44.27889" lon="3.22015">
        <ele>752.8</ele>
        <time>2017-02-17T14:42:49Z</time>
      </trkpt>
      <trkpt lat="44.27885" lon="3.22014">
        <ele>753.3</ele>
        <time>2017-02-17T14:42:51Z</time>
      </trkpt>
      <trkpt lat="44.27881" lon="3.22013">
        <ele>753.8</ele>
        <time>2017-02-17T14:42:53Z</time>
      </trkpt>
      <trkpt lat="44.27877" lon="3.22012">
        <ele>754.3</ele>
        <time>2017-02-17T14:42:55Z</time>
      </trkpt>
      <trkpt lat="44.27873" lon="3.22011">
        <ele>754.7</ele>
        <time>2017-02-17T14:42:57Z</time>
      </trkpt>
      <trkpt lat="44.27868" lon="3.2201">
        <ele>755.3</ele>
        <time>2017-02-17T14:42:59Z</time>
      </trkpt>
      <trkpt lat="44.27863" lon="3.22009">
        <ele>755.8</ele>
        <time>2017-02-17T14:43:01Z</time>
      </trkpt>
      <trkpt lat="44.2786" lon="3.22008">
        <ele>756.2</ele>
        <time>2017-02-17T14:43:04Z</time>
      </trkpt>
      <trkpt lat="44.27856" lon="3.22007">
        <ele>756.6</ele>
        <time>2017-02-17T14:43:06Z</time>
      </trkpt>
      <trkpt lat="44.27853" lon="3.22005">
        <ele>757</ele>
        <time>2017-02-17T14:43:08Z</time>
      </trkpt>
      <trkpt lat="44.2785" lon="3.22004">
        <ele>757.3</ele>
        <time>2017-02-17T14:43:10Z</time>
      </trkpt>
      <trkpt lat="44.27847" lon="3.22004">
        <ele>757.7</ele>
        <time>2017-02-17T14:43:12Z</time>
      </trkpt>
      <trkpt lat="44.27841" lon="3.22003">
        <ele>758.4</ele>
        <time>2017-02-17T14:43:14Z</time>
      </trkpt>
      <trkpt lat="44.27838" lon="3.22002">
        <ele>758.7</ele>
        <time>2017-02-17T14:43:15Z</time>
      </trkpt>
      <trkpt lat="44.27813" lon="3.21998">
        <ele>761.6</ele>
        <time>2017-02-17T14:43:25Z</time>
      </trkpt>
      <trkpt lat="44.27792" lon="3.21997">
        <ele>755.2</ele>
      </trkpt>
      <trkpt lat="44.27775" lon="3.21999">
        <ele>755.3</ele>
      </trkpt>
      <trkpt lat="44.27762" lon="3.21999">
        <ele>755.7</ele>
      </trkpt>
      <trkpt lat="44.27753" lon="3.21993">
        <ele>756.3</ele>
      </trkpt>
      <trkpt lat="44.27753" lon="3.21986">
        <ele>756.7</ele>
      </trkpt>
      <trkpt lat="44.27756" lon="3.2198">
        <ele>757.2</ele>
      </trkpt>
      <trkpt lat="44.27764" lon="3.2198">
        <ele>758</ele>
      </trkpt>
      <trkpt lat="44.27784" lon="3.21988">
        <ele>758.2</ele>
      </trkpt>
      <trkpt lat="44.27818" lon="3.2199">
        <ele>758.4</ele>
      </trkpt>
      <trkpt lat="44.2786" lon="3.2198">
        <ele>762.3</ele>
      </trkpt>
      <trkpt lat="44.2789" lon="3.21982">
        <ele>764.2</ele>
      </trkpt>
      <trkpt lat="44.2795" lon="3.21983">
        <ele>768</ele>
      </trkpt>
      <trkpt lat="44.28016" lon="3.21985">
        <ele>771.7</ele>
      </trkpt>
      <trkpt lat="44.28037" lon="3.21983">
        <ele>773.4</ele>
      </trkpt>
      <trkpt lat="44.28066" lon="3.21978">
        <ele>775.5</ele>
      </trkpt>
      <trkpt lat="44.28094" lon="3.2197">
        <ele>777.6</ele>
      </trkpt>
      <trkpt lat="44.28154" lon="3.21956">
        <ele>780</ele>
      </trkpt>
      <trkpt lat="44.28178" lon="3.21948">
        <ele>783.3</ele>
      </trkpt>
      <trkpt lat="44.28202" lon="3.21949">
        <ele>781.1</ele>
      </trkpt>
      <trkpt lat="44.28228" lon="3.2194">
        <ele>781.2</ele>
      </trkpt>
      <trkpt lat="44.28245" lon="3.21926">
        <ele>782.6</ele>
      </trkpt>
      <trkpt lat="44.28263" lon="3.21899">
        <ele>784</ele>
      </trkpt>
      <trkpt lat="44.28277" lon="3.21875">
        <ele>785</ele>
      </trkpt>
      <trkpt lat="44.28279" lon="3.21862">
        <ele>787</ele>
      </trkpt>
      <trkpt lat="44.28278" lon="3.21853">
        <ele>789.3</ele>
      </trkpt>
      <trkpt lat="44.28272" lon="3.21849">
        <ele>793.1</ele>
      </trkpt>
      <trkpt lat="44.28266" lon="3.21853">
        <ele>795.2</ele>
      </trkpt>
      <trkpt lat="44.2826" lon="3.21866">
        <ele>794.2</ele>
      </trkpt>
      <trkpt lat="44.28255" lon="3.21885">
        <ele>790.5</ele>
      </trkpt>
      <trkpt lat="44.28244" lon="3.21903">
        <ele>790.3</ele>
      </trkpt>
      <trkpt lat="44.28231" lon="3.21912">
        <ele>791.6</ele>
      </trkpt>
      <trkpt lat="44.28216" lon="3.21919">
        <ele>792.1</ele>
      </trkpt>
      <trkpt lat="44.28199" lon="3.21923">
        <ele>793</ele>
      </trkpt>
      <trkpt lat="44.28137" lon="3.21928">
        <ele>798.4</ele>
      </trkpt>
      <trkpt lat="44.28072" lon="3.21932">
        <ele>804.3</ele>
      </trkpt>
      <trkpt lat="44.28051" lon="3.21933">
        <ele>804.5</ele>
      </trkpt>
      <trkpt lat="44.28027" lon="3.21927">
        <ele>806.3</ele>
      </trkpt>
      <trkpt lat="44.27995" lon="3.21916">
        <ele>807.6</ele>
      </trkpt>
      <trkpt lat="44.27969" lon="3.21908">
        <ele>810.5</ele>
      </trkpt>
      <trkpt lat="44.27949" lon="3.21899">
        <ele>810.4</ele>
      </trkpt>
      <trkpt lat="44.27887" lon="3.21867">
        <ele>815.3</ele>
      </trkpt>
      <trkpt lat="44.27864" lon="3.21859">
        <ele>818.7</ele>
      </trkpt>
      <trkpt lat="44.27835" lon="3.21859">
        <ele>819.9</ele>
      </trkpt>
      <trkpt lat="44.27796" lon="3.21861">
        <ele>822.6</ele>
      </trkpt>
      <trkpt lat="44.27748" lon="3.21859">
        <ele>826.1</ele>
      </trkpt>
      <trkpt lat="44.2772" lon="3.21849">
        <ele>838</ele>
        <time>2017-02-17T14:52:45Z</time>
      </trkpt>
      <trkpt lat="44.27716" lon="3.21846">
        <ele>838.2</ele>
        <time>2017-02-17T14:52:47Z</time>
      </trkpt>
      <trkpt lat="44.27713" lon="3.21842">
        <ele>838.4</ele>
        <time>2017-02-17T14:52:49Z</time>
      </trkpt>
      <trkpt lat="44.2771" lon="3.21839">
        <ele>838.7</ele>
        <time>2017-02-17T14:52:51Z</time>
      </trkpt>
      <trkpt lat="44.27706" lon="3.21836">
        <ele>838.9</ele>
        <time>2017-02-17T14:52:53Z</time>
      </trkpt>
      <trkpt lat="44.27702" lon="3.21834">
        <ele>839</ele>
        <time>2017-02-17T14:52:55Z</time>
      </trkpt>
      <trkpt lat="44.27699" lon="3.21832">
        <ele>839.2</ele>
        <time>2017-02-17T14:52:57Z</time>
      </trkpt>
      <trkpt lat="44.27696" lon="3.21829">
        <ele>839.3</ele>
        <time>2017-02-17T14:52:59Z</time>
      </trkpt>
      <trkpt lat="44.27693" lon="3.21825">
        <ele>839.5</ele>
        <time>2017-02-17T14:53:01Z</time>
      </trkpt>
      <trkpt lat="44.2769" lon="3.21821">
        <ele>839.7</ele>
        <time>2017-02-17T14:53:03Z</time>
      </trkpt>
      <trkpt lat="44.27687" lon="3.21819">
        <ele>839.9</ele>
        <time>2017-02-17T14:53:05Z</time>
      </trkpt>
      <trkpt lat="44.27684" lon="3.21816">
        <ele>840</ele>
        <time>2017-02-17T14:53:08Z</time>
      </trkpt>
      <trkpt lat="44.27681" lon="3.21814">
        <ele>840.1</ele>
        <time>2017-02-17T14:53:10Z</time>
      </trkpt>
      <trkpt lat="44.27671" lon="3.21812">
        <ele>840.6</ele>
        <time>2017-02-17T14:53:16Z</time>
      </trkpt>
      <trkpt lat="44.27669" lon="3.2181">
        <ele>840.7</ele>
        <time>2017-02-17T14:53:18Z</time>
      </trkpt>
      <trkpt lat="44.27666" lon="3.21807">
        <ele>840.8</ele>
        <time>2017-02-17T14:53:20Z</time>
      </trkpt>
      <trkpt lat="44.27665" lon="3.21803">
        <ele>840.9</ele>
        <time>2017-02-17T14:53:22Z</time>
      </trkpt>
      <trkpt lat="44.27663" lon="3.218">
        <ele>841</ele>
        <time>2017-02-17T14:53:24Z</time>
      </trkpt>
      <trkpt lat="44.2766" lon="3.21797">
        <ele>841.1</ele>
        <time>2017-02-17T14:53:26Z</time>
      </trkpt>
      <trkpt lat="44.27657" lon="3.21793">
        <ele>841.3</ele>
        <time>2017-02-17T14:53:28Z</time>
      </trkpt>
      <trkpt lat="44.27654" lon="3.2179">
        <ele>841.4</ele>
        <time>2017-02-17T14:53:30Z</time>
      </trkpt>
      <trkpt lat="44.27651" lon="3.21787">
        <ele>841.6</ele>
        <time>2017-02-17T14:53:33Z</time>
      </trkpt>
      <trkpt lat="44.27649" lon="3.21783">
        <ele>841.7</ele>
        <time>2017-02-17T14:53:35Z</time>
      </trkpt>
      <trkpt lat="44.27646" lon="3.21778">
        <ele>841.9</ele>
        <time>2017-02-17T14:53:37Z</time>
      </trkpt>
      <trkpt lat="44.27642" lon="3.21775">
        <ele>842.1</ele>
        <time>2017-02-17T14:53:39Z</time>
      </trkpt>
      <trkpt lat="44.27638" lon="3.21773">
        <ele>842.2</ele>
        <time>2017-02-17T14:53:41Z</time>
      </trkpt>
      <trkpt lat="44.27635" lon="3.2177">
        <ele>842.4</ele>
        <time>2017-02-17T14:53:43Z</time>
      </trkpt>
      <trkpt lat="44.2763" lon="3.21766">
        <ele>842.6</ele>
        <time>2017-02-17T14:53:45Z</time>
      </trkpt>
      <trkpt lat="44.27627" lon="3.21764">
        <ele>842.7</ele>
        <time>2017-02-17T14:53:47Z</time>
      </trkpt>
      <trkpt lat="44.27624" lon="3.21761">
        <ele>842.9</ele>
        <time>2017-02-17T14:53:49Z</time>
      </trkpt>
      <trkpt lat="44.2762" lon="3.21758">
        <ele>843</ele>
        <time>2017-02-17T14:53:51Z</time>
      </trkpt>
      <trkpt lat="44.27618" lon="3.21755">
        <ele>843.2</ele>
        <time>2017-02-17T14:53:53Z</time>
      </trkpt>
      <trkpt lat="44.27615" lon="3.21752">
        <ele>843.3</ele>
        <time>2017-02-17T14:53:55Z</time>
      </trkpt>
      <trkpt lat="44.27612" lon="3.21748">
        <ele>843.5</ele>
        <time>2017-02-17T14:53:57Z</time>
      </trkpt>
      <trkpt lat="44.2761" lon="3.21745">
        <ele>843.6</ele>
        <time>2017-02-17T14:53:59Z</time>
      </trkpt>
      <trkpt lat="44.27607" lon="3.21741">
        <ele>843.8</ele>
        <time>2017-02-17T14:54:01Z</time>
      </trkpt>
      <trkpt lat="44.27605" lon="3.21737">
        <ele>844</ele>
        <time>2017-02-17T14:54:03Z</time>
      </trkpt>
      <trkpt lat="44.27603" lon="3.21732">
        <ele>844.2</ele>
        <time>2017-02-17T14:54:05Z</time>
      </trkpt>
      <trkpt lat="44.276" lon="3.21728">
        <ele>844.4</ele>
        <time>2017-02-17T14:54:07Z</time>
      </trkpt>
      <trkpt lat="44.27598" lon="3.21724">
        <ele>844.6</ele>
        <time>2017-02-17T14:54:09Z</time>
      </trkpt>
      <trkpt lat="44.27596" lon="3.2172">
        <ele>844.8</ele>
        <time>2017-02-17T14:54:11Z</time>
      </trkpt>
      <trkpt lat="44.27593" lon="3.21716">
        <ele>844.9</ele>
        <time>2017-02-17T14:54:13Z</time>
      </trkpt>
      <trkpt lat="44.2759" lon="3.21713">
        <ele>845.1</ele>
        <time>2017-02-17T14:54:15Z</time>
      </trkpt>
      <trkpt lat="44.27588" lon="3.21709">
        <ele>845.2</ele>
        <time>2017-02-17T14:54:17Z</time>
      </trkpt>
      <trkpt lat="44.27585" lon="3.21705">
        <ele>845.4</ele>
        <time>2017-02-17T14:54:19Z</time>
      </trkpt>
      <trkpt lat="44.27583" lon="3.21702">
        <ele>845.5</ele>
        <time>2017-02-17T14:54:21Z</time>
      </trkpt>
      <trkpt lat="44.2758" lon="3.21698">
        <ele>845.7</ele>
        <time>2017-02-17T14:54:23Z</time>
      </trkpt>
      <trkpt lat="44.27577" lon="3.21694">
        <ele>845.8</ele>
        <time>2017-02-17T14:54:25Z</time>
      </trkpt>
      <trkpt lat="44.27574" lon="3.2169">
        <ele>846</ele>
        <time>2017-02-17T14:54:27Z</time>
      </trkpt>
      <trkpt lat="44.27571" lon="3.21687">
        <ele>846.2</ele>
        <time>2017-02-17T14:54:29Z</time>
      </trkpt>
      <trkpt lat="44.27567" lon="3.21685">
        <ele>846.5</ele>
        <time>2017-02-17T14:54:31Z</time>
      </trkpt>
      <trkpt lat="44.27563" lon="3.21682">
        <ele>846.6</ele>
        <time>2017-02-17T14:54:33Z</time>
      </trkpt>
      <trkpt lat="44.2756" lon="3.21679">
        <ele>846.8</ele>
        <time>2017-02-17T14:54:35Z</time>
      </trkpt>
      <trkpt lat="44.27557" lon="3.21678">
        <ele>847</ele>
        <time>2017-02-17T14:54:37Z</time>
      </trkpt>
      <trkpt lat="44.27553" lon="3.21675">
        <ele>847.2</ele>
        <time>2017-02-17T14:54:39Z</time>
      </trkpt>
      <trkpt lat="44.2755" lon="3.21673">
        <ele>847.3</ele>
        <time>2017-02-17T14:54:40Z</time>
      </trkpt>
      <trkpt lat="44.27547" lon="3.21672">
        <ele>847.5</ele>
        <time>2017-02-17T14:54:42Z</time>
      </trkpt>
      <trkpt lat="44.27541" lon="3.21669">
        <ele>847.9</ele>
        <time>2017-02-17T14:54:45Z</time>
      </trkpt>
      <trkpt lat="44.27537" lon="3.21666">
        <ele>848.1</ele>
        <time>2017-02-17T14:54:47Z</time>
      </trkpt>
      <trkpt lat="44.27533" lon="3.21665">
        <ele>848.2</ele>
        <time>2017-02-17T14:54:49Z</time>
      </trkpt>
      <trkpt lat="44.27529" lon="3.21663">
        <ele>848.4</ele>
        <time>2017-02-17T14:54:51Z</time>
      </trkpt>
      <trkpt lat="44.27525" lon="3.21661">
        <ele>848.5</ele>
        <time>2017-02-17T14:54:53Z</time>
      </trkpt>
      <trkpt lat="44.27522" lon="3.21661">
        <ele>848.7</ele>
        <time>2017-02-17T14:54:55Z</time>
      </trkpt>
      <trkpt lat="44.27518" lon="3.2166">
        <ele>848.9</ele>
        <time>2017-02-17T14:54:57Z</time>
      </trkpt>
      <trkpt lat="44.27514" lon="3.21659">
        <ele>849</ele>
        <time>2017-02-17T14:54:59Z</time>
      </trkpt>
      <trkpt lat="44.2751" lon="3.21656">
        <ele>849.3</ele>
        <time>2017-02-17T14:55:01Z</time>
      </trkpt>
      <trkpt lat="44.27506" lon="3.21653">
        <ele>849.5</ele>
        <time>2017-02-17T14:55:03Z</time>
      </trkpt>
      <trkpt lat="44.27502" lon="3.2165">
        <ele>849.7</ele>
        <time>2017-02-17T14:55:05Z</time>
      </trkpt>
      <trkpt lat="44.27499" lon="3.21647">
        <ele>849.9</ele>
        <time>2017-02-17T14:55:07Z</time>
      </trkpt>
      <trkpt lat="44.27496" lon="3.21645">
        <ele>850.1</ele>
        <time>2017-02-17T14:55:09Z</time>
      </trkpt>
      <trkpt lat="44.27492" lon="3.21641">
        <ele>850.4</ele>
        <time>2017-02-17T14:55:11Z</time>
      </trkpt>
      <trkpt lat="44.27487" lon="3.21637">
        <ele>850.6</ele>
        <time>2017-02-17T14:55:13Z</time>
      </trkpt>
      <trkpt lat="44.27483" lon="3.21634">
        <ele>850.9</ele>
        <time>2017-02-17T14:55:15Z</time>
      </trkpt>
      <trkpt lat="44.27478" lon="3.21632">
        <ele>851.1</ele>
        <time>2017-02-17T14:55:17Z</time>
      </trkpt>
      <trkpt lat="44.27474" lon="3.2163">
        <ele>851.4</ele>
        <time>2017-02-17T14:55:19Z</time>
      </trkpt>
      <trkpt lat="44.2747" lon="3.21627">
        <ele>851.6</ele>
        <time>2017-02-17T14:55:21Z</time>
      </trkpt>
      <trkpt lat="44.27465" lon="3.21623">
        <ele>851.8</ele>
        <time>2017-02-17T14:55:23Z</time>
      </trkpt>
      <trkpt lat="44.27462" lon="3.21622">
        <ele>852</ele>
        <time>2017-02-17T14:55:25Z</time>
      </trkpt>
      <trkpt lat="44.27459" lon="3.21612">
        <ele>852.3</ele>
        <time>2017-02-17T14:55:30Z</time>
      </trkpt>
      <trkpt lat="44.27458" lon="3.21608">
        <ele>852.4</ele>
        <time>2017-02-17T14:55:31Z</time>
      </trkpt>
      <trkpt lat="44.27457" lon="3.21605">
        <ele>852.5</ele>
        <time>2017-02-17T14:55:32Z</time>
      </trkpt>
      <trkpt lat="44.27454" lon="3.21598">
        <ele>852.7</ele>
        <time>2017-02-17T14:55:34Z</time>
      </trkpt>
      <trkpt lat="44.27452" lon="3.21593">
        <ele>852.9</ele>
        <time>2017-02-17T14:55:36Z</time>
      </trkpt>
      <trkpt lat="44.27448" lon="3.2159">
        <ele>853.1</ele>
        <time>2017-02-17T14:55:38Z</time>
      </trkpt>
      <trkpt lat="44.27433" lon="3.21586">
        <ele>853.5</ele>
        <time>2017-02-17T14:55:50Z</time>
      </trkpt>
      <trkpt lat="44.27431" lon="3.21568">
        <ele>854</ele>
        <time>2017-02-17T14:55:56Z</time>
      </trkpt>
      <trkpt lat="44.27428" lon="3.21563">
        <ele>854.2</ele>
        <time>2017-02-17T14:55:58Z</time>
      </trkpt>
      <trkpt lat="44.27424" lon="3.21559">
        <ele>854.5</ele>
        <time>2017-02-17T14:56:00Z</time>
      </trkpt>
      <trkpt lat="44.2742" lon="3.21559">
        <ele>854.7</ele>
        <time>2017-02-17T14:56:02Z</time>
      </trkpt>
      <trkpt lat="44.27407" lon="3.21563">
        <ele>855.4</ele>
        <time>2017-02-17T14:56:10Z</time>
      </trkpt>
      <trkpt lat="44.27389" lon="3.2155">
        <ele>856.9</ele>
        <time>2017-02-17T14:59:00Z</time>
      </trkpt>
      <trkpt lat="44.27386" lon="3.2155">
        <ele>857.3</ele>
        <time>2017-02-17T14:59:02Z</time>
      </trkpt>
      <trkpt lat="44.27382" lon="3.21551">
        <ele>857.7</ele>
        <time>2017-02-17T14:59:04Z</time>
      </trkpt>
      <trkpt lat="44.27377" lon="3.21549">
        <ele>858.2</ele>
        <time>2017-02-17T14:59:06Z</time>
      </trkpt>
      <trkpt lat="44.27374" lon="3.21549">
        <ele>858.5</ele>
        <time>2017-02-17T14:59:07Z</time>
      </trkpt>
      <trkpt lat="44.27371" lon="3.21548">
        <ele>858.8</ele>
        <time>2017-02-17T14:59:08Z</time>
      </trkpt>
      <trkpt lat="44.27368" lon="3.21547">
        <ele>859.2</ele>
        <time>2017-02-17T14:59:09Z</time>
      </trkpt>
      <trkpt lat="44.27365" lon="3.21546">
        <ele>859.5</ele>
        <time>2017-02-17T14:59:10Z</time>
      </trkpt>
      <trkpt lat="44.27361" lon="3.21545">
        <ele>860</ele>
        <time>2017-02-17T14:59:12Z</time>
      </trkpt>
      <trkpt lat="44.27358" lon="3.21545">
        <ele>860.4</ele>
        <time>2017-02-17T14:59:14Z</time>
      </trkpt>
      <trkpt lat="44.27354" lon="3.21543">
        <ele>860.8</ele>
        <time>2017-02-17T14:59:16Z</time>
      </trkpt>
      <trkpt lat="44.27351" lon="3.21543">
        <ele>861.2</ele>
        <time>2017-02-17T14:59:17Z</time>
      </trkpt>
      <trkpt lat="44.27348" lon="3.21542">
        <ele>861.7</ele>
        <time>2017-02-17T14:59:18Z</time>
      </trkpt>
      <trkpt lat="44.27345" lon="3.21542">
        <ele>862.2</ele>
        <time>2017-02-17T14:59:19Z</time>
      </trkpt>
      <trkpt lat="44.2734" lon="3.21541">
        <ele>862.7</ele>
        <time>2017-02-17T14:59:21Z</time>
      </trkpt>
      <trkpt lat="44.27336" lon="3.2154">
        <ele>863.2</ele>
        <time>2017-02-17T14:59:23Z</time>
      </trkpt>
      <trkpt lat="44.27332" lon="3.21538">
        <ele>863.8</ele>
        <time>2017-02-17T14:59:25Z</time>
      </trkpt>
      <trkpt lat="44.27329" lon="3.21536">
        <ele>864.1</ele>
        <time>2017-02-17T14:59:27Z</time>
      </trkpt>
      <trkpt lat="44.27326" lon="3.21535">
        <ele>864.5</ele>
        <time>2017-02-17T14:59:29Z</time>
      </trkpt>
      <trkpt lat="44.27323" lon="3.21534">
        <ele>864.9</ele>
        <time>2017-02-17T14:59:31Z</time>
      </trkpt>
      <trkpt lat="44.27318" lon="3.21532">
        <ele>865.5</ele>
        <time>2017-02-17T14:59:33Z</time>
      </trkpt>
      <trkpt lat="44.27313" lon="3.21531">
        <ele>866.1</ele>
        <time>2017-02-17T14:59:35Z</time>
      </trkpt>
      <trkpt lat="44.27311" lon="3.2153">
        <ele>866.4</ele>
        <time>2017-02-17T14:59:36Z</time>
      </trkpt>
      <trkpt lat="44.27306" lon="3.21528">
        <ele>867</ele>
        <time>2017-02-17T14:59:38Z</time>
      </trkpt>
      <trkpt lat="44.27301" lon="3.21526">
        <ele>867.6</ele>
        <time>2017-02-17T14:59:40Z</time>
      </trkpt>
      <trkpt lat="44.27299" lon="3.21524">
        <ele>868</ele>
        <time>2017-02-17T14:59:42Z</time>
      </trkpt>
      <trkpt lat="44.27296" lon="3.21522">
        <ele>868.3</ele>
        <time>2017-02-17T14:59:44Z</time>
      </trkpt>
      <trkpt lat="44.27293" lon="3.21518">
        <ele>868.6</ele>
        <time>2017-02-17T14:59:46Z</time>
      </trkpt>
      <trkpt lat="44.2729" lon="3.21514">
        <ele>868.9</ele>
        <time>2017-02-17T14:59:48Z</time>
      </trkpt>
      <trkpt lat="44.27287" lon="3.21511">
        <ele>869.1</ele>
        <time>2017-02-17T14:59:50Z</time>
      </trkpt>
      <trkpt lat="44.27285" lon="3.21508">
        <ele>869.4</ele>
        <time>2017-02-17T14:59:52Z</time>
      </trkpt>
      <trkpt lat="44.27283" lon="3.21504">
        <ele>869.7</ele>
        <time>2017-02-17T14:59:54Z</time>
      </trkpt>
      <trkpt lat="44.27281" lon="3.215">
        <ele>870</ele>
        <time>2017-02-17T14:59:56Z</time>
      </trkpt>
      <trkpt lat="44.27278" lon="3.21495">
        <ele>870.3</ele>
        <time>2017-02-17T14:59:58Z</time>
      </trkpt>
      <trkpt lat="44.27276" lon="3.21489">
        <ele>870.7</ele>
        <time>2017-02-17T15:00:00Z</time>
      </trkpt>
      <trkpt lat="44.27274" lon="3.21484">
        <ele>871.1</ele>
        <time>2017-02-17T15:00:02Z</time>
      </trkpt>
      <trkpt lat="44.27273" lon="3.21478">
        <ele>871.4</ele>
        <time>2017-02-17T15:00:04Z</time>
      </trkpt>
      <trkpt lat="44.27273" lon="3.21472">
        <ele>871.6</ele>
        <time>2017-02-17T15:00:06Z</time>
      </trkpt>
      <trkpt lat="44.27274" lon="3.21466">
        <ele>871.9</ele>
        <time>2017-02-17T15:00:08Z</time>
      </trkpt>
      <trkpt lat="44.27274" lon="3.21461">
        <ele>872.1</ele>
        <time>2017-02-17T15:00:10Z</time>
      </trkpt>
      <trkpt lat="44.27275" lon="3.21456">
        <ele>872.4</ele>
        <time>2017-02-17T15:00:12Z</time>
      </trkpt>
      <trkpt lat="44.27275" lon="3.21451">
        <ele>872.7</ele>
        <time>2017-02-17T15:00:14Z</time>
      </trkpt>
      <trkpt lat="44.27276" lon="3.21444">
        <ele>873.1</ele>
        <time>2017-02-17T15:00:16Z</time>
      </trkpt>
      <trkpt lat="44.27276" lon="3.21437">
        <ele>873.5</ele>
        <time>2017-02-17T15:00:18Z</time>
      </trkpt>
      <trkpt lat="44.27277" lon="3.21432">
        <ele>873.7</ele>
        <time>2017-02-17T15:00:20Z</time>
      </trkpt>
      <trkpt lat="44.27278" lon="3.21426">
        <ele>873.9</ele>
        <time>2017-02-17T15:00:22Z</time>
      </trkpt>
      <trkpt lat="44.27279" lon="3.2142">
        <ele>874.2</ele>
        <time>2017-02-17T15:00:24Z</time>
      </trkpt>
      <trkpt lat="44.2728" lon="3.21415">
        <ele>874.5</ele>
        <time>2017-02-17T15:00:26Z</time>
      </trkpt>
      <trkpt lat="44.2728" lon="3.21409">
        <ele>874.8</ele>
        <time>2017-02-17T15:00:28Z</time>
      </trkpt>
      <trkpt lat="44.2728" lon="3.21403">
        <ele>875.1</ele>
        <time>2017-02-17T15:00:30Z</time>
      </trkpt>
      <trkpt lat="44.2728" lon="3.21398">
        <ele>875.3</ele>
        <time>2017-02-17T15:00:32Z</time>
      </trkpt>
      <trkpt lat="44.27279" lon="3.21391">
        <ele>875.7</ele>
        <time>2017-02-17T15:00:34Z</time>
      </trkpt>
      <trkpt lat="44.27279" lon="3.21386">
        <ele>876</ele>
        <time>2017-02-17T15:00:36Z</time>
      </trkpt>
      <trkpt lat="44.27279" lon="3.21379">
        <ele>876.5</ele>
        <time>2017-02-17T15:00:38Z</time>
      </trkpt>
      <trkpt lat="44.27279" lon="3.21375">
        <ele>876.7</ele>
        <time>2017-02-17T15:00:39Z</time>
      </trkpt>
      <trkpt lat="44.27279" lon="3.21371">
        <ele>877</ele>
        <time>2017-02-17T15:00:40Z</time>
      </trkpt>
      <trkpt lat="44.27278" lon="3.21363">
        <ele>877.5</ele>
        <time>2017-02-17T15:00:42Z</time>
      </trkpt>
      <trkpt lat="44.27276" lon="3.21358">
        <ele>878</ele>
        <time>2017-02-17T15:00:44Z</time>
      </trkpt>
      <trkpt lat="44.27273" lon="3.21352">
        <ele>878.4</ele>
        <time>2017-02-17T15:00:46Z</time>
      </trkpt>
      <trkpt lat="44.2727" lon="3.2135">
        <ele>878.6</ele>
        <time>2017-02-17T15:00:47Z</time>
      </trkpt>
      <trkpt lat="44.27263" lon="3.21345">
        <ele>879.2</ele>
        <time>2017-02-17T15:00:50Z</time>
      </trkpt>
      <trkpt lat="44.27263" lon="3.21341">
        <ele>879.5</ele>
        <time>2017-02-17T15:00:52Z</time>
      </trkpt>
      <trkpt lat="44.27259" lon="3.21333">
        <ele>880.1</ele>
        <time>2017-02-17T15:00:54Z</time>
      </trkpt>
      <trkpt lat="44.27256" lon="3.21329">
        <ele>880.4</ele>
        <time>2017-02-17T15:00:55Z</time>
      </trkpt>
      <trkpt lat="44.27253" lon="3.21325">
        <ele>880.6</ele>
        <time>2017-02-17T15:00:57Z</time>
      </trkpt>
      <trkpt lat="44.2725" lon="3.21319">
        <ele>880.9</ele>
        <time>2017-02-17T15:00:59Z</time>
      </trkpt>
      <trkpt lat="44.27248" lon="3.21315">
        <ele>881</ele>
        <time>2017-02-17T15:01:01Z</time>
      </trkpt>
      <trkpt lat="44.27247" lon="3.21312">
        <ele>881.1</ele>
        <time>2017-02-17T15:01:03Z</time>
      </trkpt>
      <trkpt lat="44.27245" lon="3.21308">
        <ele>881.1</ele>
        <time>2017-02-17T15:01:05Z</time>
      </trkpt>
      <trkpt lat="44.27245" lon="3.21303">
        <ele>881.1</ele>
        <time>2017-02-17T15:01:07Z</time>
      </trkpt>
      <trkpt lat="44.27244" lon="3.21297">
        <ele>881.2</ele>
        <time>2017-02-17T15:01:09Z</time>
      </trkpt>
      <trkpt lat="44.27244" lon="3.21281">
        <ele>881.3</ele>
        <time>2017-02-17T15:01:15Z</time>
      </trkpt>
      <trkpt lat="44.27244" lon="3.21285">
        <ele>881.4</ele>
        <time>2017-02-17T15:01:17Z</time>
      </trkpt>
      <trkpt lat="44.27247" lon="3.2128">
        <ele>881.5</ele>
        <time>2017-02-17T15:01:19Z</time>
      </trkpt>
      <trkpt lat="44.27249" lon="3.21277">
        <ele>881.5</ele>
        <time>2017-02-17T15:01:20Z</time>
      </trkpt>
      <trkpt lat="44.27255" lon="3.21274">
        <ele>881.6</ele>
        <time>2017-02-17T15:01:21Z</time>
      </trkpt>
      <trkpt lat="44.2726" lon="3.21271">
        <ele>881.7</ele>
        <time>2017-02-17T15:01:22Z</time>
      </trkpt>
      <trkpt lat="44.27262" lon="3.21269">
        <ele>881.8</ele>
        <time>2017-02-17T15:01:23Z</time>
      </trkpt>
      <trkpt lat="44.27265" lon="3.21267">
        <ele>881.9</ele>
        <time>2017-02-17T15:01:24Z</time>
      </trkpt>
      <trkpt lat="44.27268" lon="3.21267">
        <ele>881.9</ele>
        <time>2017-02-17T15:01:25Z</time>
      </trkpt>
      <trkpt lat="44.27271" lon="3.21266">
        <ele>882</ele>
        <time>2017-02-17T15:01:26Z</time>
      </trkpt>
      <trkpt lat="44.27274" lon="3.21264">
        <ele>882.1</ele>
        <time>2017-02-17T15:01:28Z</time>
      </trkpt>
      <trkpt lat="44.27278" lon="3.21261">
        <ele>882.2</ele>
        <time>2017-02-17T15:01:29Z</time>
      </trkpt>
      <trkpt lat="44.27282" lon="3.2126">
        <ele>882.2</ele>
        <time>2017-02-17T15:01:31Z</time>
      </trkpt>
      <trkpt lat="44.27285" lon="3.21258">
        <ele>882.3</ele>
        <time>2017-02-17T15:01:33Z</time>
      </trkpt>
      <trkpt lat="44.27289" lon="3.21255">
        <ele>882.3</ele>
        <time>2017-02-17T15:01:35Z</time>
      </trkpt>
      <trkpt lat="44.27293" lon="3.21252">
        <ele>882.4</ele>
        <time>2017-02-17T15:01:37Z</time>
      </trkpt>
      <trkpt lat="44.27297" lon="3.21249">
        <ele>882.4</ele>
        <time>2017-02-17T15:01:39Z</time>
      </trkpt>
      <trkpt lat="44.27301" lon="3.21245">
        <ele>882.5</ele>
        <time>2017-02-17T15:01:41Z</time>
      </trkpt>
      <trkpt lat="44.27305" lon="3.21242">
        <ele>882.5</ele>
        <time>2017-02-17T15:01:43Z</time>
      </trkpt>
      <trkpt lat="44.27309" lon="3.21239">
        <ele>882.6</ele>
        <time>2017-02-17T15:01:45Z</time>
      </trkpt>
      <trkpt lat="44.27313" lon="3.21236">
        <ele>882.6</ele>
        <time>2017-02-17T15:01:47Z</time>
      </trkpt>
      <trkpt lat="44.27317" lon="3.21233">
        <ele>882.7</ele>
        <time>2017-02-17T15:01:49Z</time>
      </trkpt>
      <trkpt lat="44.2732" lon="3.2123">
        <ele>882.7</ele>
        <time>2017-02-17T15:01:51Z</time>
      </trkpt>
      <trkpt lat="44.27321" lon="3.21226">
        <ele>882.8</ele>
        <time>2017-02-17T15:01:53Z</time>
      </trkpt>
      <trkpt lat="44.27324" lon="3.21223">
        <ele>882.8</ele>
        <time>2017-02-17T15:01:55Z</time>
      </trkpt>
      <trkpt lat="44.27327" lon="3.21218">
        <ele>882.9</ele>
        <time>2017-02-17T15:01:57Z</time>
      </trkpt>
      <trkpt lat="44.2733" lon="3.21214">
        <ele>882.9</ele>
        <time>2017-02-17T15:01:59Z</time>
      </trkpt>
      <trkpt lat="44.27332" lon="3.21211">
        <ele>882.9</ele>
        <time>2017-02-17T15:02:00Z</time>
      </trkpt>
      <trkpt lat="44.27335" lon="3.21208">
        <ele>882.9</ele>
        <time>2017-02-17T15:02:01Z</time>
      </trkpt>
      <trkpt lat="44.27336" lon="3.21205">
        <ele>882.9</ele>
        <time>2017-02-17T15:02:02Z</time>
      </trkpt>
      <trkpt lat="44.27339" lon="3.212">
        <ele>883</ele>
        <time>2017-02-17T15:02:04Z</time>
      </trkpt>
      <trkpt lat="44.27341" lon="3.21195">
        <ele>883</ele>
        <time>2017-02-17T15:02:06Z</time>
      </trkpt>
      <trkpt lat="44.27344" lon="3.21191">
        <ele>883</ele>
        <time>2017-02-17T15:02:08Z</time>
      </trkpt>
      <trkpt lat="44.27348" lon="3.21186">
        <ele>883.1</ele>
        <time>2017-02-17T15:02:10Z</time>
      </trkpt>
      <trkpt lat="44.2735" lon="3.21181">
        <ele>883.5</ele>
        <time>2017-02-17T15:02:12Z</time>
      </trkpt>
      <trkpt lat="44.27351" lon="3.21178">
        <ele>883.7</ele>
        <time>2017-02-17T15:02:14Z</time>
      </trkpt>
      <trkpt lat="44.27353" lon="3.21175">
        <ele>883.8</ele>
        <time>2017-02-17T15:02:16Z</time>
      </trkpt>
      <trkpt lat="44.27355" lon="3.21169">
        <ele>884.1</ele>
        <time>2017-02-17T15:02:18Z</time>
      </trkpt>
      <trkpt lat="44.27358" lon="3.21165">
        <ele>884.3</ele>
        <time>2017-02-17T15:02:20Z</time>
      </trkpt>
      <trkpt lat="44.27362" lon="3.21167">
        <ele>884.7</ele>
        <time>2017-02-17T15:02:22Z</time>
      </trkpt>
      <trkpt lat="44.27365" lon="3.21168">
        <ele>884.9</ele>
        <time>2017-02-17T15:02:23Z</time>
      </trkpt>
      <trkpt lat="44.27369" lon="3.21168">
        <ele>885.2</ele>
        <time>2017-02-17T15:02:25Z</time>
      </trkpt>
      <trkpt lat="44.27372" lon="3.21168">
        <ele>885.5</ele>
        <time>2017-02-17T15:02:27Z</time>
      </trkpt>
      <trkpt lat="44.27377" lon="3.21167">
        <ele>886</ele>
        <time>2017-02-17T15:02:29Z</time>
      </trkpt>
      <trkpt lat="44.2738" lon="3.21166">
        <ele>886.3</ele>
        <time>2017-02-17T15:02:30Z</time>
      </trkpt>
      <trkpt lat="44.27385" lon="3.21165">
        <ele>886.6</ele>
        <time>2017-02-17T15:02:32Z</time>
      </trkpt>
      <trkpt lat="44.27389" lon="3.21164">
        <ele>886.9</ele>
        <time>2017-02-17T15:02:34Z</time>
      </trkpt>
      <trkpt lat="44.27393" lon="3.21163">
        <ele>887.2</ele>
        <time>2017-02-17T15:02:36Z</time>
      </trkpt>
      <trkpt lat="44.27398" lon="3.21162">
        <ele>887.7</ele>
        <time>2017-02-17T15:02:38Z</time>
      </trkpt>
      <trkpt lat="44.27402" lon="3.21161">
        <ele>888</ele>
        <time>2017-02-17T15:02:39Z</time>
      </trkpt>
      <trkpt lat="44.27404" lon="3.2116">
        <ele>888.3</ele>
        <time>2017-02-17T15:02:41Z</time>
      </trkpt>
      <trkpt lat="44.27407" lon="3.2116">
        <ele>888.5</ele>
        <time>2017-02-17T15:02:43Z</time>
      </trkpt>
      <trkpt lat="44.2741" lon="3.2116">
        <ele>888.8</ele>
        <time>2017-02-17T15:02:44Z</time>
      </trkpt>
      <trkpt lat="44.27413" lon="3.2116">
        <ele>889</ele>
        <time>2017-02-17T15:02:45Z</time>
      </trkpt>
      <trkpt lat="44.27417" lon="3.21159">
        <ele>889.2</ele>
        <time>2017-02-17T15:02:47Z</time>
      </trkpt>
      <trkpt lat="44.27421" lon="3.21158">
        <ele>889.5</ele>
        <time>2017-02-17T15:02:49Z</time>
      </trkpt>
      <trkpt lat="44.27425" lon="3.21157">
        <ele>889.8</ele>
        <time>2017-02-17T15:02:51Z</time>
      </trkpt>
      <trkpt lat="44.27429" lon="3.21156">
        <ele>890</ele>
        <time>2017-02-17T15:02:53Z</time>
      </trkpt>
      <trkpt lat="44.27433" lon="3.21154">
        <ele>890.3</ele>
        <time>2017-02-17T15:02:55Z</time>
      </trkpt>
      <trkpt lat="44.27437" lon="3.21153">
        <ele>890.5</ele>
        <time>2017-02-17T15:02:58Z</time>
      </trkpt>
      <trkpt lat="44.27441" lon="3.21151">
        <ele>890.8</ele>
        <time>2017-02-17T15:03:01Z</time>
      </trkpt>
      <trkpt lat="44.27446" lon="3.21151">
        <ele>891.2</ele>
        <time>2017-02-17T15:03:03Z</time>
      </trkpt>
      <trkpt lat="44.27449" lon="3.2115">
        <ele>891.4</ele>
        <time>2017-02-17T15:03:04Z</time>
      </trkpt>
      <trkpt lat="44.27454" lon="3.21147">
        <ele>891.7</ele>
        <time>2017-02-17T15:03:05Z</time>
      </trkpt>
      <trkpt lat="44.27459" lon="3.21145">
        <ele>892</ele>
        <time>2017-02-17T15:03:07Z</time>
      </trkpt>
      <trkpt lat="44.27463" lon="3.21143">
        <ele>892.3</ele>
        <time>2017-02-17T15:03:09Z</time>
      </trkpt>
      <trkpt lat="44.27467" lon="3.2114">
        <ele>892.5</ele>
        <time>2017-02-17T15:03:11Z</time>
      </trkpt>
      <trkpt lat="44.27471" lon="3.21137">
        <ele>892.8</ele>
        <time>2017-02-17T15:03:13Z</time>
      </trkpt>
      <trkpt lat="44.27475" lon="3.21134">
        <ele>893</ele>
        <time>2017-02-17T15:03:15Z</time>
      </trkpt>
      <trkpt lat="44.27479" lon="3.21133">
        <ele>893.4</ele>
        <time>2017-02-17T15:03:17Z</time>
      </trkpt>
      <trkpt lat="44.27481" lon="3.21124">
        <ele>893.9</ele>
        <time>2017-02-17T15:03:19Z</time>
      </trkpt>
      <trkpt lat="44.2748" lon="3.21121">
        <ele>894.1</ele>
        <time>2017-02-17T15:03:20Z</time>
      </trkpt>
      <trkpt lat="44.27476" lon="3.21117">
        <ele>894.3</ele>
        <time>2017-02-17T15:03:23Z</time>
      </trkpt>
      <trkpt lat="44.27473" lon="3.21115">
        <ele>894.4</ele>
        <time>2017-02-17T15:03:25Z</time>
      </trkpt>
      <trkpt lat="44.2747" lon="3.21116">
        <ele>894.5</ele>
        <time>2017-02-17T15:03:27Z</time>
      </trkpt>
      <trkpt lat="44.27465" lon="3.21117">
        <ele>894.7</ele>
        <time>2017-02-17T15:03:29Z</time>
      </trkpt>
      <trkpt lat="44.2746" lon="3.21118">
        <ele>894.8</ele>
        <time>2017-02-17T15:03:31Z</time>
      </trkpt>
      <trkpt lat="44.27457" lon="3.21119">
        <ele>895</ele>
        <time>2017-02-17T15:03:33Z</time>
      </trkpt>
      <trkpt lat="44.27452" lon="3.21119">
        <ele>895.1</ele>
        <time>2017-02-17T15:03:35Z</time>
      </trkpt>
      <trkpt lat="44.27448" lon="3.2112">
        <ele>895.2</ele>
        <time>2017-02-17T15:03:37Z</time>
      </trkpt>
      <trkpt lat="44.27429" lon="3.21127">
        <ele>895.9</ele>
        <time>2017-02-17T15:03:44Z</time>
      </trkpt>
      <trkpt lat="44.27424" lon="3.2113">
        <ele>896</ele>
        <time>2017-02-17T15:03:45Z</time>
      </trkpt>
      <trkpt lat="44.27416" lon="3.21133">
        <ele>896.3</ele>
        <time>2017-02-17T15:03:47Z</time>
      </trkpt>
      <trkpt lat="44.27411" lon="3.21129">
        <ele>896.5</ele>
        <time>2017-02-17T15:03:48Z</time>
      </trkpt>
      <trkpt lat="44.27406" lon="3.21128">
        <ele>896.6</ele>
        <time>2017-02-17T15:03:49Z</time>
      </trkpt>
      <trkpt lat="44.27403" lon="3.21127">
        <ele>896.7</ele>
        <time>2017-02-17T15:03:52Z</time>
      </trkpt>
      <trkpt lat="44.27392" lon="3.21122">
        <ele>897</ele>
        <time>2017-02-17T15:03:57Z</time>
      </trkpt>
      <trkpt lat="44.27393" lon="3.21117">
        <ele>897.1</ele>
        <time>2017-02-17T15:03:58Z</time>
      </trkpt>
      <trkpt lat="44.27394" lon="3.21112">
        <ele>897.2</ele>
        <time>2017-02-17T15:03:59Z</time>
      </trkpt>
      <trkpt lat="44.27396" lon="3.21107">
        <ele>897.3</ele>
        <time>2017-02-17T15:04:01Z</time>
      </trkpt>
      <trkpt lat="44.27392" lon="3.21105">
        <ele>897.4</ele>
        <time>2017-02-17T15:04:04Z</time>
      </trkpt>
      <trkpt lat="44.27388" lon="3.21103">
        <ele>897.6</ele>
        <time>2017-02-17T15:04:06Z</time>
      </trkpt>
      <trkpt lat="44.27383" lon="3.21102">
        <ele>897.7</ele>
        <time>2017-02-17T15:04:07Z</time>
      </trkpt>
      <trkpt lat="44.27378" lon="3.211">
        <ele>897.9</ele>
        <time>2017-02-17T15:04:08Z</time>
      </trkpt>
      <trkpt lat="44.27371" lon="3.21096">
        <ele>898.2</ele>
        <time>2017-02-17T15:04:10Z</time>
      </trkpt>
      <trkpt lat="44.27368" lon="3.21096">
        <ele>898.2</ele>
        <time>2017-02-17T15:04:11Z</time>
      </trkpt>
      <trkpt lat="44.27364" lon="3.21097">
        <ele>898.3</ele>
        <time>2017-02-17T15:04:13Z</time>
      </trkpt>
      <trkpt lat="44.27364" lon="3.21093">
        <ele>898.4</ele>
        <time>2017-02-17T15:04:16Z</time>
      </trkpt>
      <trkpt lat="44.27366" lon="3.21091">
        <ele>898.4</ele>
        <time>2017-02-17T15:04:18Z</time>
      </trkpt>
      <trkpt lat="44.27363" lon="3.21087">
        <ele>898.4</ele>
        <time>2017-02-17T15:04:21Z</time>
      </trkpt>
      <trkpt lat="44.27359" lon="3.21083">
        <ele>898.4</ele>
        <time>2017-02-17T15:04:23Z</time>
      </trkpt>
      <trkpt lat="44.27356" lon="3.21081">
        <ele>898.4</ele>
        <time>2017-02-17T15:04:24Z</time>
      </trkpt>
      <trkpt lat="44.27354" lon="3.21079">
        <ele>898.4</ele>
        <time>2017-02-17T15:04:25Z</time>
      </trkpt>
      <trkpt lat="44.27351" lon="3.21078">
        <ele>898.4</ele>
        <time>2017-02-17T15:04:26Z</time>
      </trkpt>
      <trkpt lat="44.27347" lon="3.21075">
        <ele>898.3</ele>
        <time>2017-02-17T15:04:28Z</time>
      </trkpt>
      <trkpt lat="44.27344" lon="3.21072">
        <ele>898.3</ele>
        <time>2017-02-17T15:04:30Z</time>
      </trkpt>
      <trkpt lat="44.27342" lon="3.21069">
        <ele>898.2</ele>
        <time>2017-02-17T15:04:32Z</time>
      </trkpt>
      <trkpt lat="44.27339" lon="3.21065">
        <ele>898.1</ele>
        <time>2017-02-17T15:04:34Z</time>
      </trkpt>
      <trkpt lat="44.27336" lon="3.21062">
        <ele>898.1</ele>
        <time>2017-02-17T15:04:36Z</time>
      </trkpt>
      <trkpt lat="44.27333" lon="3.2106">
        <ele>898</ele>
        <time>2017-02-17T15:04:38Z</time>
      </trkpt>
      <trkpt lat="44.27329" lon="3.21058">
        <ele>897.8</ele>
        <time>2017-02-17T15:04:40Z</time>
      </trkpt>
      <trkpt lat="44.27325" lon="3.21057">
        <ele>897.7</ele>
        <time>2017-02-17T15:04:42Z</time>
      </trkpt>
      <trkpt lat="44.2732" lon="3.21054">
        <ele>897.6</ele>
        <time>2017-02-17T15:04:44Z</time>
      </trkpt>
      <trkpt lat="44.27316" lon="3.21052">
        <ele>897.4</ele>
        <time>2017-02-17T15:04:46Z</time>
      </trkpt>
      <trkpt lat="44.27311" lon="3.2105">
        <ele>897.3</ele>
        <time>2017-02-17T15:04:48Z</time>
      </trkpt>
      <trkpt lat="44.27309" lon="3.21049">
        <ele>897.2</ele>
        <time>2017-02-17T15:04:50Z</time>
      </trkpt>
      <trkpt lat="44.27304" lon="3.21048">
        <ele>897.1</ele>
        <time>2017-02-17T15:04:52Z</time>
      </trkpt>
      <trkpt lat="44.273" lon="3.21047">
        <ele>897</ele>
        <time>2017-02-17T15:04:54Z</time>
      </trkpt>
      <trkpt lat="44.27298" lon="3.21049">
        <ele>897</ele>
        <time>2017-02-17T15:04:56Z</time>
      </trkpt>
      <trkpt lat="44.27294" lon="3.21051">
        <ele>897</ele>
        <time>2017-02-17T15:04:58Z</time>
      </trkpt>
      <trkpt lat="44.27289" lon="3.21054">
        <ele>897</ele>
        <time>2017-02-17T15:05:00Z</time>
      </trkpt>
      <trkpt lat="44.27285" lon="3.21056">
        <ele>897.1</ele>
        <time>2017-02-17T15:05:02Z</time>
      </trkpt>
      <trkpt lat="44.27281" lon="3.21056">
        <ele>897.1</ele>
        <time>2017-02-17T15:05:04Z</time>
      </trkpt>
      <trkpt lat="44.27277" lon="3.21053">
        <ele>897.2</ele>
        <time>2017-02-17T15:05:06Z</time>
      </trkpt>
      <trkpt lat="44.27274" lon="3.21051">
        <ele>897.2</ele>
        <time>2017-02-17T15:05:07Z</time>
      </trkpt>
      <trkpt lat="44.27272" lon="3.21046">
        <ele>897.3</ele>
        <time>2017-02-17T15:05:08Z</time>
      </trkpt>
      <trkpt lat="44.27252" lon="3.2103">
        <ele>898.2</ele>
        <time>2017-02-17T15:05:15Z</time>
      </trkpt>
      <trkpt lat="44.27249" lon="3.21032">
        <ele>898.5</ele>
        <time>2017-02-17T15:05:16Z</time>
      </trkpt>
      <trkpt lat="44.27244" lon="3.21034">
        <ele>898.6</ele>
        <time>2017-02-17T15:05:17Z</time>
      </trkpt>
      <trkpt lat="44.27238" lon="3.21034">
        <ele>898.9</ele>
        <time>2017-02-17T15:05:18Z</time>
      </trkpt>
      <trkpt lat="44.27236" lon="3.21037">
        <ele>899.1</ele>
        <time>2017-02-17T15:05:20Z</time>
      </trkpt>
      <trkpt lat="44.27234" lon="3.21042">
        <ele>899.3</ele>
        <time>2017-02-17T15:05:22Z</time>
      </trkpt>
      <trkpt lat="44.27234" lon="3.21047">
        <ele>899.4</ele>
        <time>2017-02-17T15:05:23Z</time>
      </trkpt>
      <trkpt lat="44.27235" lon="3.21051">
        <ele>899.3</ele>
        <time>2017-02-17T15:05:24Z</time>
      </trkpt>
      <trkpt lat="44.27236" lon="3.21055">
        <ele>899.3</ele>
        <time>2017-02-17T15:05:25Z</time>
      </trkpt>
      <trkpt lat="44.27235" lon="3.21059">
        <ele>899.4</ele>
        <time>2017-02-17T15:05:26Z</time>
      </trkpt>
      <trkpt lat="44.27231" lon="3.21061">
        <ele>899.6</ele>
        <time>2017-02-17T15:05:28Z</time>
      </trkpt>
      <trkpt lat="44.27228" lon="3.21059">
        <ele>899.7</ele>
        <time>2017-02-17T15:05:30Z</time>
      </trkpt>
      <trkpt lat="44.27224" lon="3.21058">
        <ele>899.9</ele>
        <time>2017-02-17T15:05:32Z</time>
      </trkpt>
      <trkpt lat="44.27219" lon="3.21057">
        <ele>900.1</ele>
        <time>2017-02-17T15:05:34Z</time>
      </trkpt>
      <trkpt lat="44.27215" lon="3.21058">
        <ele>900.3</ele>
        <time>2017-02-17T15:05:35Z</time>
      </trkpt>
      <trkpt lat="44.2721" lon="3.2106">
        <ele>900.7</ele>
        <time>2017-02-17T15:05:36Z</time>
      </trkpt>
      <trkpt lat="44.27205" lon="3.2106">
        <ele>901.1</ele>
        <time>2017-02-17T15:05:38Z</time>
      </trkpt>
      <trkpt lat="44.27202" lon="3.2106">
        <ele>901.2</ele>
        <time>2017-02-17T15:05:39Z</time>
      </trkpt>
      <trkpt lat="44.27198" lon="3.21061">
        <ele>901.4</ele>
        <time>2017-02-17T15:05:41Z</time>
      </trkpt>
      <trkpt lat="44.27193" lon="3.21061">
        <ele>901.5</ele>
        <time>2017-02-17T15:05:44Z</time>
      </trkpt>
      <trkpt lat="44.27189" lon="3.21062">
        <ele>901.6</ele>
        <time>2017-02-17T15:05:45Z</time>
      </trkpt>
      <trkpt lat="44.27185" lon="3.21065">
        <ele>901.6</ele>
        <time>2017-02-17T15:05:47Z</time>
      </trkpt>
      <trkpt lat="44.27182" lon="3.21065">
        <ele>901.6</ele>
        <time>2017-02-17T15:05:48Z</time>
      </trkpt>
      <trkpt lat="44.27179" lon="3.21066">
        <ele>901.6</ele>
        <time>2017-02-17T15:05:49Z</time>
      </trkpt>
      <trkpt lat="44.27176" lon="3.21069">
        <ele>901.7</ele>
        <time>2017-02-17T15:05:51Z</time>
      </trkpt>
      <trkpt lat="44.27172" lon="3.21067">
        <ele>901.7</ele>
        <time>2017-02-17T15:05:53Z</time>
      </trkpt>
      <trkpt lat="44.27166" lon="3.21066">
        <ele>901.7</ele>
        <time>2017-02-17T15:05:55Z</time>
      </trkpt>
      <trkpt lat="44.27162" lon="3.21064">
        <ele>901.7</ele>
        <time>2017-02-17T15:05:56Z</time>
      </trkpt>
      <trkpt lat="44.27157" lon="3.21061">
        <ele>901.7</ele>
        <time>2017-02-17T15:05:57Z</time>
      </trkpt>
      <trkpt lat="44.27153" lon="3.21058">
        <ele>901.7</ele>
        <time>2017-02-17T15:05:58Z</time>
      </trkpt>
      <trkpt lat="44.27149" lon="3.21056">
        <ele>901.7</ele>
        <time>2017-02-17T15:05:59Z</time>
      </trkpt>
      <trkpt lat="44.27146" lon="3.21053">
        <ele>901.7</ele>
        <time>2017-02-17T15:06:00Z</time>
      </trkpt>
      <trkpt lat="44.27143" lon="3.21051">
        <ele>901.7</ele>
        <time>2017-02-17T15:06:01Z</time>
      </trkpt>
      <trkpt lat="44.27139" lon="3.21048">
        <ele>901.7</ele>
        <time>2017-02-17T15:06:02Z</time>
      </trkpt>
      <trkpt lat="44.27136" lon="3.21045">
        <ele>901.7</ele>
        <time>2017-02-17T15:06:03Z</time>
      </trkpt>
      <trkpt lat="44.27133" lon="3.21043">
        <ele>901.7</ele>
        <time>2017-02-17T15:06:04Z</time>
      </trkpt>
      <trkpt lat="44.2713" lon="3.21041">
        <ele>901.8</ele>
        <time>2017-02-17T15:06:05Z</time>
      </trkpt>
      <trkpt lat="44.27126" lon="3.21039">
        <ele>901.8</ele>
        <time>2017-02-17T15:06:06Z</time>
      </trkpt>
      <trkpt lat="44.27124" lon="3.21039">
        <ele>901.8</ele>
        <time>2017-02-17T15:06:07Z</time>
      </trkpt>
      <trkpt lat="44.2712" lon="3.21039">
        <ele>901.8</ele>
        <time>2017-02-17T15:06:08Z</time>
      </trkpt>
      <trkpt lat="44.27115" lon="3.21039">
        <ele>901.8</ele>
        <time>2017-02-17T15:06:09Z</time>
      </trkpt>
      <trkpt lat="44.27112" lon="3.21037">
        <ele>901.8</ele>
        <time>2017-02-17T15:06:10Z</time>
      </trkpt>
      <trkpt lat="44.2711" lon="3.21036">
        <ele>901.8</ele>
        <time>2017-02-17T15:06:11Z</time>
      </trkpt>
      <trkpt lat="44.27107" lon="3.21032">
        <ele>901.8</ele>
        <time>2017-02-17T15:06:13Z</time>
      </trkpt>
      <trkpt lat="44.27104" lon="3.21031">
        <ele>901.9</ele>
        <time>2017-02-17T15:06:14Z</time>
      </trkpt>
      <trkpt lat="44.27099" lon="3.21028">
        <ele>901.9</ele>
        <time>2017-02-17T15:06:16Z</time>
      </trkpt>
      <trkpt lat="44.27096" lon="3.21027">
        <ele>901.9</ele>
        <time>2017-02-17T15:06:17Z</time>
      </trkpt>
      <trkpt lat="44.27093" lon="3.21027">
        <ele>901.9</ele>
        <time>2017-02-17T15:06:18Z</time>
      </trkpt>
      <trkpt lat="44.2709" lon="3.21026">
        <ele>902</ele>
        <time>2017-02-17T15:06:19Z</time>
      </trkpt>
      <trkpt lat="44.27087" lon="3.21026">
        <ele>902</ele>
        <time>2017-02-17T15:06:20Z</time>
      </trkpt>
      <trkpt lat="44.27083" lon="3.21026">
        <ele>902.1</ele>
        <time>2017-02-17T15:06:21Z</time>
      </trkpt>
      <trkpt lat="44.27077" lon="3.21028">
        <ele>902.2</ele>
        <time>2017-02-17T15:06:22Z</time>
      </trkpt>
      <trkpt lat="44.27073" lon="3.21028">
        <ele>902.3</ele>
        <time>2017-02-17T15:06:23Z</time>
      </trkpt>
      <trkpt lat="44.27066" lon="3.21027">
        <ele>902.6</ele>
        <time>2017-02-17T15:06:24Z</time>
      </trkpt>
      <trkpt lat="44.27063" lon="3.21027">
        <ele>902.9</ele>
        <time>2017-02-17T15:06:25Z</time>
      </trkpt>
      <trkpt lat="44.2706" lon="3.21027">
        <ele>903.2</ele>
        <time>2017-02-17T15:06:26Z</time>
      </trkpt>
      <trkpt lat="44.27055" lon="3.2103">
        <ele>903.3</ele>
        <time>2017-02-17T15:06:28Z</time>
      </trkpt>
      <trkpt lat="44.27052" lon="3.21031">
        <ele>903.4</ele>
        <time>2017-02-17T15:06:29Z</time>
      </trkpt>
      <trkpt lat="44.27048" lon="3.21032">
        <ele>903.5</ele>
        <time>2017-02-17T15:06:31Z</time>
      </trkpt>
      <trkpt lat="44.27044" lon="3.21032">
        <ele>903.5</ele>
        <time>2017-02-17T15:06:34Z</time>
      </trkpt>
      <trkpt lat="44.27041" lon="3.21033">
        <ele>903.6</ele>
        <time>2017-02-17T15:06:36Z</time>
      </trkpt>
      <trkpt lat="44.27034" lon="3.21031">
        <ele>903.7</ele>
        <time>2017-02-17T15:06:39Z</time>
      </trkpt>
      <trkpt lat="44.2703" lon="3.21028">
        <ele>903.7</ele>
        <time>2017-02-17T15:06:41Z</time>
      </trkpt>
      <trkpt lat="44.27024" lon="3.21028">
        <ele>903.7</ele>
        <time>2017-02-17T15:06:43Z</time>
      </trkpt>
      <trkpt lat="44.27021" lon="3.21027">
        <ele>903.8</ele>
        <time>2017-02-17T15:06:44Z</time>
      </trkpt>
      <trkpt lat="44.27018" lon="3.21027">
        <ele>903.8</ele>
        <time>2017-02-17T15:06:45Z</time>
      </trkpt>
      <trkpt lat="44.27011" lon="3.21027">
        <ele>903.9</ele>
        <time>2017-02-17T15:06:47Z</time>
      </trkpt>
      <trkpt lat="44.27003" lon="3.21028">
        <ele>903.9</ele>
        <time>2017-02-17T15:06:48Z</time>
      </trkpt>
      <trkpt lat="44.27" lon="3.21027">
        <ele>904</ele>
        <time>2017-02-17T15:06:49Z</time>
      </trkpt>
      <trkpt lat="44.26995" lon="3.21028">
        <ele>904.1</ele>
        <time>2017-02-17T15:06:51Z</time>
      </trkpt>
      <trkpt lat="44.2699" lon="3.2103">
        <ele>904.2</ele>
        <time>2017-02-17T15:06:53Z</time>
      </trkpt>
      <trkpt lat="44.26989" lon="3.21026">
        <ele>904.3</ele>
        <time>2017-02-17T15:06:57Z</time>
      </trkpt>
      <trkpt lat="44.26985" lon="3.21026">
        <ele>904.4</ele>
        <time>2017-02-17T15:06:58Z</time>
      </trkpt>
      <trkpt lat="44.26981" lon="3.21027">
        <ele>904.5</ele>
        <time>2017-02-17T15:06:59Z</time>
      </trkpt>
      <trkpt lat="44.26974" lon="3.21027">
        <ele>904.9</ele>
        <time>2017-02-17T15:07:00Z</time>
      </trkpt>
      <trkpt lat="44.26967" lon="3.21027">
        <ele>905.4</ele>
        <time>2017-02-17T15:07:01Z</time>
      </trkpt>
      <trkpt lat="44.26959" lon="3.21028">
        <ele>905.6</ele>
        <time>2017-02-17T15:07:03Z</time>
      </trkpt>
      <trkpt lat="44.26956" lon="3.21028">
        <ele>905.6</ele>
        <time>2017-02-17T15:07:04Z</time>
      </trkpt>
      <trkpt lat="44.26951" lon="3.21028">
        <ele>905.7</ele>
        <time>2017-02-17T15:07:05Z</time>
      </trkpt>
      <trkpt lat="44.26945" lon="3.21027">
        <ele>905.7</ele>
        <time>2017-02-17T15:07:06Z</time>
      </trkpt>
      <trkpt lat="44.26939" lon="3.21028">
        <ele>905.7</ele>
        <time>2017-02-17T15:07:07Z</time>
      </trkpt>
      <trkpt lat="44.26931" lon="3.21029">
        <ele>905.6</ele>
        <time>2017-02-17T15:07:08Z</time>
      </trkpt>
      <trkpt lat="44.26911" lon="3.2102">
        <ele>905.4</ele>
        <time>2017-02-17T15:07:12Z</time>
      </trkpt>
      <trkpt lat="44.26904" lon="3.21018">
        <ele>905.2</ele>
        <time>2017-02-17T15:07:13Z</time>
      </trkpt>
      <trkpt lat="44.26898" lon="3.2102">
        <ele>904.9</ele>
        <time>2017-02-17T15:07:14Z</time>
      </trkpt>
      <trkpt lat="44.26888" lon="3.21017">
        <ele>904.6</ele>
        <time>2017-02-17T15:07:15Z</time>
      </trkpt>
      <trkpt lat="44.2688" lon="3.2102">
        <ele>904.3</ele>
        <time>2017-02-17T15:07:16Z</time>
      </trkpt>
      <trkpt lat="44.26871" lon="3.21026">
        <ele>904</ele>
        <time>2017-02-17T15:07:17Z</time>
      </trkpt>
      <trkpt lat="44.26861" lon="3.21032">
        <ele>903.9</ele>
        <time>2017-02-17T15:07:18Z</time>
      </trkpt>
      <trkpt lat="44.26857" lon="3.21036">
        <ele>903.8</ele>
        <time>2017-02-17T15:07:19Z</time>
      </trkpt>
      <trkpt lat="44.26848" lon="3.2104">
        <ele>903.8</ele>
        <time>2017-02-17T15:07:20Z</time>
      </trkpt>
      <trkpt lat="44.26842" lon="3.21043">
        <ele>903.8</ele>
        <time>2017-02-17T15:07:21Z</time>
      </trkpt>
      <trkpt lat="44.26837" lon="3.21047">
        <ele>903.7</ele>
        <time>2017-02-17T15:07:22Z</time>
      </trkpt>
      <trkpt lat="44.26832" lon="3.21051">
        <ele>903.7</ele>
        <time>2017-02-17T15:07:23Z</time>
      </trkpt>
      <trkpt lat="44.26807" lon="3.21086">
        <ele>903.8</ele>
        <time>2017-02-17T15:07:27Z</time>
      </trkpt>
      <trkpt lat="44.26801" lon="3.21088">
        <ele>903.9</ele>
        <time>2017-02-17T15:07:28Z</time>
      </trkpt>
      <trkpt lat="44.26796" lon="3.21085">
        <ele>903.9</ele>
        <time>2017-02-17T15:07:29Z</time>
      </trkpt>
      <trkpt lat="44.26794" lon="3.21091">
        <ele>903.9</ele>
        <time>2017-02-17T15:07:31Z</time>
      </trkpt>
      <trkpt lat="44.26793" lon="3.21096">
        <ele>904</ele>
        <time>2017-02-17T15:07:32Z</time>
      </trkpt>
      <trkpt lat="44.26791" lon="3.21101">
        <ele>904.1</ele>
        <time>2017-02-17T15:07:33Z</time>
      </trkpt>
      <trkpt lat="44.26788" lon="3.21103">
        <ele>904.2</ele>
        <time>2017-02-17T15:07:35Z</time>
      </trkpt>
      <trkpt lat="44.26785" lon="3.21104">
        <ele>904.3</ele>
        <time>2017-02-17T15:07:37Z</time>
      </trkpt>
      <trkpt lat="44.2678" lon="3.21104">
        <ele>904.6</ele>
        <time>2017-02-17T15:07:39Z</time>
      </trkpt>
      <trkpt lat="44.26775" lon="3.21104">
        <ele>904.8</ele>
        <time>2017-02-17T15:07:40Z</time>
      </trkpt>
      <trkpt lat="44.26772" lon="3.21103">
        <ele>905</ele>
        <time>2017-02-17T15:07:42Z</time>
      </trkpt>
      <trkpt lat="44.26769" lon="3.21104">
        <ele>905.2</ele>
        <time>2017-02-17T15:07:43Z</time>
      </trkpt>
      <trkpt lat="44.26765" lon="3.21104">
        <ele>905.4</ele>
        <time>2017-02-17T15:07:44Z</time>
      </trkpt>
      <trkpt lat="44.26762" lon="3.21103">
        <ele>905.5</ele>
        <time>2017-02-17T15:07:45Z</time>
      </trkpt>
      <trkpt lat="44.2676" lon="3.21101">
        <ele>905.7</ele>
        <time>2017-02-17T15:07:47Z</time>
      </trkpt>
      <trkpt lat="44.26756" lon="3.21099">
        <ele>905.8</ele>
        <time>2017-02-17T15:07:49Z</time>
      </trkpt>
      <trkpt lat="44.26754" lon="3.21097">
        <ele>905.9</ele>
        <time>2017-02-17T15:07:51Z</time>
      </trkpt>
      <trkpt lat="44.2675" lon="3.21095">
        <ele>906</ele>
        <time>2017-02-17T15:07:53Z</time>
      </trkpt>
      <trkpt lat="44.26744" lon="3.21095">
        <ele>906.2</ele>
        <time>2017-02-17T15:07:55Z</time>
      </trkpt>
      <trkpt lat="44.26741" lon="3.21095">
        <ele>906.2</ele>
        <time>2017-02-17T15:07:56Z</time>
      </trkpt>
      <trkpt lat="44.26737" lon="3.21095">
        <ele>906.3</ele>
        <time>2017-02-17T15:07:57Z</time>
      </trkpt>
      <trkpt lat="44.26734" lon="3.21095">
        <ele>906.5</ele>
        <time>2017-02-17T15:07:58Z</time>
      </trkpt>
      <trkpt lat="44.26731" lon="3.21096">
        <ele>906.7</ele>
        <time>2017-02-17T15:07:59Z</time>
      </trkpt>
      <trkpt lat="44.26726" lon="3.21098">
        <ele>907.1</ele>
        <time>2017-02-17T15:08:01Z</time>
      </trkpt>
      <trkpt lat="44.26721" lon="3.211">
        <ele>907.4</ele>
        <time>2017-02-17T15:08:03Z</time>
      </trkpt>
      <trkpt lat="44.26718" lon="3.21101">
        <ele>907.6</ele>
        <time>2017-02-17T15:08:04Z</time>
      </trkpt>
      <trkpt lat="44.26714" lon="3.21102">
        <ele>907.8</ele>
        <time>2017-02-17T15:08:06Z</time>
      </trkpt>
      <trkpt lat="44.2671" lon="3.21103">
        <ele>907.8</ele>
        <time>2017-02-17T15:08:08Z</time>
      </trkpt>
      <trkpt lat="44.26705" lon="3.21104">
        <ele>907.9</ele>
        <time>2017-02-17T15:08:10Z</time>
      </trkpt>
      <trkpt lat="44.267" lon="3.21104">
        <ele>908</ele>
        <time>2017-02-17T15:08:12Z</time>
      </trkpt>
      <trkpt lat="44.26697" lon="3.21103">
        <ele>908</ele>
        <time>2017-02-17T15:08:13Z</time>
      </trkpt>
      <trkpt lat="44.26693" lon="3.21103">
        <ele>908</ele>
        <time>2017-02-17T15:08:14Z</time>
      </trkpt>
      <trkpt lat="44.2669" lon="3.21103">
        <ele>908</ele>
        <time>2017-02-17T15:08:15Z</time>
      </trkpt>
      <trkpt lat="44.26686" lon="3.21103">
        <ele>908</ele>
        <time>2017-02-17T15:08:16Z</time>
      </trkpt>
      <trkpt lat="44.26681" lon="3.21102">
        <ele>908</ele>
        <time>2017-02-17T15:08:18Z</time>
      </trkpt>
      <trkpt lat="44.26679" lon="3.211">
        <ele>908</ele>
        <time>2017-02-17T15:08:19Z</time>
      </trkpt>
      <trkpt lat="44.26676" lon="3.21099">
        <ele>908</ele>
        <time>2017-02-17T15:08:20Z</time>
      </trkpt>
      <trkpt lat="44.26673" lon="3.21097">
        <ele>908</ele>
        <time>2017-02-17T15:08:21Z</time>
      </trkpt>
      <trkpt lat="44.26669" lon="3.21097">
        <ele>908</ele>
        <time>2017-02-17T15:08:22Z</time>
      </trkpt>
      <trkpt lat="44.26666" lon="3.21099">
        <ele>908</ele>
        <time>2017-02-17T15:08:24Z</time>
      </trkpt>
      <trkpt lat="44.26663" lon="3.211">
        <ele>908</ele>
        <time>2017-02-17T15:08:25Z</time>
      </trkpt>
      <trkpt lat="44.2666" lon="3.21102">
        <ele>908</ele>
        <time>2017-02-17T15:08:26Z</time>
      </trkpt>
      <trkpt lat="44.26656" lon="3.21104">
        <ele>908</ele>
        <time>2017-02-17T15:08:27Z</time>
      </trkpt>
      <trkpt lat="44.26651" lon="3.21107">
        <ele>907.9</ele>
        <time>2017-02-17T15:08:28Z</time>
      </trkpt>
      <trkpt lat="44.26645" lon="3.21111">
        <ele>907.9</ele>
        <time>2017-02-17T15:08:29Z</time>
      </trkpt>
      <trkpt lat="44.2664" lon="3.21115">
        <ele>907.9</ele>
        <time>2017-02-17T15:08:30Z</time>
      </trkpt>
      <trkpt lat="44.26636" lon="3.21118">
        <ele>907.8</ele>
        <time>2017-02-17T15:08:31Z</time>
      </trkpt>
      <trkpt lat="44.26632" lon="3.2112">
        <ele>907.8</ele>
        <time>2017-02-17T15:08:32Z</time>
      </trkpt>
      <trkpt lat="44.26627" lon="3.21122">
        <ele>907.7</ele>
        <time>2017-02-17T15:08:33Z</time>
      </trkpt>
      <trkpt lat="44.26622" lon="3.2112">
        <ele>907.6</ele>
        <time>2017-02-17T15:08:34Z</time>
      </trkpt>
      <trkpt lat="44.26616" lon="3.21117">
        <ele>907.5</ele>
        <time>2017-02-17T15:08:35Z</time>
      </trkpt>
      <trkpt lat="44.26611" lon="3.21114">
        <ele>907.4</ele>
        <time>2017-02-17T15:08:36Z</time>
      </trkpt>
      <trkpt lat="44.26605" lon="3.21112">
        <ele>907.2</ele>
        <time>2017-02-17T15:08:37Z</time>
      </trkpt>
      <trkpt lat="44.26599" lon="3.21111">
        <ele>907.1</ele>
        <time>2017-02-17T15:08:38Z</time>
      </trkpt>
      <trkpt lat="44.26597" lon="3.2111">
        <ele>907</ele>
        <time>2017-02-17T15:08:39Z</time>
      </trkpt>
      <trkpt lat="44.26593" lon="3.21109">
        <ele>906.9</ele>
        <time>2017-02-17T15:08:40Z</time>
      </trkpt>
      <trkpt lat="44.26589" lon="3.21107">
        <ele>906.7</ele>
        <time>2017-02-17T15:08:41Z</time>
      </trkpt>
      <trkpt lat="44.26577" lon="3.21108">
        <ele>904.5</ele>
        <time>2017-02-17T15:08:43Z</time>
      </trkpt>
      <trkpt lat="44.26561" lon="3.21122">
        <ele>900.5</ele>
        <time>2017-02-17T15:08:45Z</time>
      </trkpt>
      <trkpt lat="44.26554" lon="3.21133">
        <ele>897.7</ele>
        <time>2017-02-17T15:08:46Z</time>
      </trkpt>
      <trkpt lat="44.26542" lon="3.21145">
        <ele>894.9</ele>
        <time>2017-02-17T15:08:47Z</time>
      </trkpt>
      <trkpt lat="44.26536" lon="3.21154">
        <ele>894.1</ele>
        <time>2017-02-17T15:08:48Z</time>
      </trkpt>
      <trkpt lat="44.26528" lon="3.21163">
        <ele>893.6</ele>
        <time>2017-02-17T15:08:49Z</time>
      </trkpt>
      <trkpt lat="44.26521" lon="3.21174">
        <ele>892.7</ele>
        <time>2017-02-17T15:08:50Z</time>
      </trkpt>
      <trkpt lat="44.26514" lon="3.21186">
        <ele>893</ele>
        <time>2017-02-17T15:08:51Z</time>
      </trkpt>
      <trkpt lat="44.26507" lon="3.21202">
        <ele>893.5</ele>
        <time>2017-02-17T15:08:52Z</time>
      </trkpt>
      <trkpt lat="44.265" lon="3.21213">
        <ele>893.2</ele>
        <time>2017-02-17T15:08:53Z</time>
      </trkpt>
      <trkpt lat="44.26492" lon="3.21224">
        <ele>892.5</ele>
        <time>2017-02-17T15:08:54Z</time>
      </trkpt>
      <trkpt lat="44.26486" lon="3.21234">
        <ele>892.1</ele>
        <time>2017-02-17T15:08:55Z</time>
      </trkpt>
      <trkpt lat="44.26483" lon="3.21241">
        <ele>891.8</ele>
        <time>2017-02-17T15:08:56Z</time>
      </trkpt>
      <trkpt lat="44.26479" lon="3.21248">
        <ele>891.4</ele>
        <time>2017-02-17T15:08:57Z</time>
      </trkpt>
      <trkpt lat="44.26473" lon="3.21257">
        <ele>890.9</ele>
        <time>2017-02-17T15:08:58Z</time>
      </trkpt>
      <trkpt lat="44.26466" lon="3.21264">
        <ele>890.6</ele>
        <time>2017-02-17T15:08:59Z</time>
      </trkpt>
      <trkpt lat="44.2646" lon="3.2127">
        <ele>890.6</ele>
        <time>2017-02-17T15:09:00Z</time>
      </trkpt>
      <trkpt lat="44.26455" lon="3.21275">
        <ele>890.5</ele>
        <time>2017-02-17T15:09:01Z</time>
      </trkpt>
      <trkpt lat="44.26429" lon="3.213">
        <ele>891.8</ele>
        <time>2017-02-17T15:09:05Z</time>
      </trkpt>
      <trkpt lat="44.26421" lon="3.21306">
        <ele>892.5</ele>
        <time>2017-02-17T15:09:08Z</time>
      </trkpt>
      <trkpt lat="44.26417" lon="3.2131">
        <ele>892.9</ele>
        <time>2017-02-17T15:09:09Z</time>
      </trkpt>
      <trkpt lat="44.26413" lon="3.21317">
        <ele>894</ele>
        <time>2017-02-17T15:09:10Z</time>
      </trkpt>
      <trkpt lat="44.26412" lon="3.21325">
        <ele>894.3</ele>
        <time>2017-02-17T15:09:11Z</time>
      </trkpt>
      <trkpt lat="44.26411" lon="3.21334">
        <ele>894.4</ele>
        <time>2017-02-17T15:09:12Z</time>
      </trkpt>
      <trkpt lat="44.26409" lon="3.21361">
        <ele>895.8</ele>
        <time>2017-02-17T15:09:16Z</time>
      </trkpt>
      <trkpt lat="44.26408" lon="3.21369">
        <ele>895.8</ele>
        <time>2017-02-17T15:09:17Z</time>
      </trkpt>
      <trkpt lat="44.26407" lon="3.21378">
        <ele>895.9</ele>
        <time>2017-02-17T15:09:18Z</time>
      </trkpt>
      <trkpt lat="44.26406" lon="3.21387">
        <ele>896.1</ele>
        <time>2017-02-17T15:09:19Z</time>
      </trkpt>
      <trkpt lat="44.26404" lon="3.21396">
        <ele>896.2</ele>
        <time>2017-02-17T15:09:20Z</time>
      </trkpt>
      <trkpt lat="44.26402" lon="3.21405">
        <ele>896.7</ele>
        <time>2017-02-17T15:09:21Z</time>
      </trkpt>
      <trkpt lat="44.264" lon="3.2141">
        <ele>896.9</ele>
        <time>2017-02-17T15:09:22Z</time>
      </trkpt>
      <trkpt lat="44.26397" lon="3.21409">
        <ele>897.1</ele>
        <time>2017-02-17T15:09:23Z</time>
      </trkpt>
      <trkpt lat="44.26391" lon="3.21411">
        <ele>897.3</ele>
        <time>2017-02-17T15:09:25Z</time>
      </trkpt>
      <trkpt lat="44.26388" lon="3.21414">
        <ele>897.4</ele>
        <time>2017-02-17T15:09:26Z</time>
      </trkpt>
      <trkpt lat="44.26384" lon="3.21419">
        <ele>897.5</ele>
        <time>2017-02-17T15:09:27Z</time>
      </trkpt>
      <trkpt lat="44.26382" lon="3.21422">
        <ele>897.5</ele>
        <time>2017-02-17T15:09:28Z</time>
      </trkpt>
      <trkpt lat="44.26378" lon="3.21427">
        <ele>897.6</ele>
        <time>2017-02-17T15:09:29Z</time>
      </trkpt>
      <trkpt lat="44.26375" lon="3.21433">
        <ele>897.6</ele>
        <time>2017-02-17T15:09:30Z</time>
      </trkpt>
      <trkpt lat="44.26372" lon="3.21442">
        <ele>897.6</ele>
        <time>2017-02-17T15:09:31Z</time>
      </trkpt>
      <trkpt lat="44.26369" lon="3.21448">
        <ele>897.7</ele>
        <time>2017-02-17T15:09:32Z</time>
      </trkpt>
      <trkpt lat="44.26365" lon="3.21453">
        <ele>897.7</ele>
        <time>2017-02-17T15:09:33Z</time>
      </trkpt>
      <trkpt lat="44.26362" lon="3.21457">
        <ele>897.7</ele>
        <time>2017-02-17T15:09:34Z</time>
      </trkpt>
      <trkpt lat="44.26358" lon="3.21461">
        <ele>897.7</ele>
        <time>2017-02-17T15:09:35Z</time>
      </trkpt>
      <trkpt lat="44.26355" lon="3.21466">
        <ele>897.7</ele>
        <time>2017-02-17T15:09:36Z</time>
      </trkpt>
      <trkpt lat="44.26353" lon="3.21473">
        <ele>897.7</ele>
        <time>2017-02-17T15:09:37Z</time>
      </trkpt>
      <trkpt lat="44.2635" lon="3.2148">
        <ele>897.8</ele>
        <time>2017-02-17T15:09:38Z</time>
      </trkpt>
      <trkpt lat="44.26346" lon="3.21488">
        <ele>897.8</ele>
        <time>2017-02-17T15:09:39Z</time>
      </trkpt>
      <trkpt lat="44.26342" lon="3.21495">
        <ele>897.7</ele>
        <time>2017-02-17T15:09:40Z</time>
      </trkpt>
      <trkpt lat="44.26339" lon="3.21502">
        <ele>897.7</ele>
        <time>2017-02-17T15:09:41Z</time>
      </trkpt>
      <trkpt lat="44.26334" lon="3.2151">
        <ele>897.7</ele>
        <time>2017-02-17T15:09:42Z</time>
      </trkpt>
      <trkpt lat="44.26332" lon="3.21516">
        <ele>897.7</ele>
        <time>2017-02-17T15:09:43Z</time>
      </trkpt>
      <trkpt lat="44.26329" lon="3.21522">
        <ele>897.6</ele>
        <time>2017-02-17T15:09:44Z</time>
      </trkpt>
      <trkpt lat="44.26329" lon="3.21526">
        <ele>897.6</ele>
        <time>2017-02-17T15:09:45Z</time>
      </trkpt>
      <trkpt lat="44.26324" lon="3.21542">
        <ele>897.4</ele>
        <time>2017-02-17T15:09:48Z</time>
      </trkpt>
      <trkpt lat="44.26319" lon="3.21549">
        <ele>897.2</ele>
        <time>2017-02-17T15:09:49Z</time>
      </trkpt>
      <trkpt lat="44.26313" lon="3.21554">
        <ele>897</ele>
        <time>2017-02-17T15:09:50Z</time>
      </trkpt>
      <trkpt lat="44.26306" lon="3.2156">
        <ele>896.5</ele>
        <time>2017-02-17T15:09:51Z</time>
      </trkpt>
      <trkpt lat="44.26299" lon="3.21563">
        <ele>896.1</ele>
        <time>2017-02-17T15:09:52Z</time>
      </trkpt>
      <trkpt lat="44.26294" lon="3.21567">
        <ele>895.7</ele>
        <time>2017-02-17T15:09:53Z</time>
      </trkpt>
      <trkpt lat="44.26288" lon="3.21571">
        <ele>895.4</ele>
        <time>2017-02-17T15:09:54Z</time>
      </trkpt>
      <trkpt lat="44.2628" lon="3.21577">
        <ele>895</ele>
        <time>2017-02-17T15:09:55Z</time>
      </trkpt>
      <trkpt lat="44.26271" lon="3.21587">
        <ele>894.1</ele>
        <time>2017-02-17T15:09:56Z</time>
      </trkpt>
      <trkpt lat="44.26268" lon="3.21601">
        <ele>893.4</ele>
        <time>2017-02-17T15:09:57Z</time>
      </trkpt>
      <trkpt lat="44.26266" lon="3.21613">
        <ele>892.7</ele>
        <time>2017-02-17T15:09:58Z</time>
      </trkpt>
      <trkpt lat="44.26266" lon="3.21625">
        <ele>892.1</ele>
        <time>2017-02-17T15:09:59Z</time>
      </trkpt>
      <trkpt lat="44.26267" lon="3.21635">
        <ele>891.6</ele>
        <time>2017-02-17T15:10:00Z</time>
      </trkpt>
      <trkpt lat="44.26267" lon="3.21644">
        <ele>891.1</ele>
        <time>2017-02-17T15:10:01Z</time>
      </trkpt>
      <trkpt lat="44.26264" lon="3.21649">
        <ele>890.6</ele>
        <time>2017-02-17T15:10:02Z</time>
      </trkpt>
      <trkpt lat="44.26262" lon="3.21653">
        <ele>890.3</ele>
        <time>2017-02-17T15:10:03Z</time>
      </trkpt>
      <trkpt lat="44.2626" lon="3.21658">
        <ele>890</ele>
        <time>2017-02-17T15:10:04Z</time>
      </trkpt>
      <trkpt lat="44.26254" lon="3.21659">
        <ele>889.6</ele>
        <time>2017-02-17T15:10:05Z</time>
      </trkpt>
      <trkpt lat="44.26246" lon="3.2166">
        <ele>889</ele>
        <time>2017-02-17T15:10:06Z</time>
      </trkpt>
      <trkpt lat="44.26239" lon="3.21661">
        <ele>888.4</ele>
        <time>2017-02-17T15:10:07Z</time>
      </trkpt>
      <trkpt lat="44.26232" lon="3.21662">
        <ele>887.7</ele>
        <time>2017-02-17T15:10:08Z</time>
      </trkpt>
      <trkpt lat="44.26225" lon="3.21664">
        <ele>887</ele>
        <time>2017-02-17T15:10:09Z</time>
      </trkpt>
      <trkpt lat="44.26219" lon="3.21668">
        <ele>886.3</ele>
        <time>2017-02-17T15:10:10Z</time>
      </trkpt>
      <trkpt lat="44.26215" lon="3.21672">
        <ele>885.9</ele>
        <time>2017-02-17T15:10:11Z</time>
      </trkpt>
      <trkpt lat="44.2621" lon="3.21672">
        <ele>885.6</ele>
        <time>2017-02-17T15:10:12Z</time>
      </trkpt>
      <trkpt lat="44.26206" lon="3.21672">
        <ele>885.4</ele>
        <time>2017-02-17T15:10:13Z</time>
      </trkpt>
      <trkpt lat="44.26201" lon="3.21671">
        <ele>885.2</ele>
        <time>2017-02-17T15:10:14Z</time>
      </trkpt>
      <trkpt lat="44.26199" lon="3.21666">
        <ele>885.1</ele>
        <time>2017-02-17T15:10:15Z</time>
      </trkpt>
      <trkpt lat="44.26202" lon="3.21645">
        <ele>884.5</ele>
        <time>2017-02-17T15:10:19Z</time>
      </trkpt>
      <trkpt lat="44.26204" lon="3.2164">
        <ele>884.2</ele>
        <time>2017-02-17T15:10:20Z</time>
      </trkpt>
      <trkpt lat="44.26203" lon="3.21632">
        <ele>883.8</ele>
        <time>2017-02-17T15:10:21Z</time>
      </trkpt>
      <trkpt lat="44.26201" lon="3.21623">
        <ele>883.2</ele>
        <time>2017-02-17T15:10:22Z</time>
      </trkpt>
      <trkpt lat="44.26197" lon="3.21615">
        <ele>882.6</ele>
        <time>2017-02-17T15:10:23Z</time>
      </trkpt>
      <trkpt lat="44.26193" lon="3.21605">
        <ele>881.9</ele>
        <time>2017-02-17T15:10:24Z</time>
      </trkpt>
      <trkpt lat="44.26191" lon="3.21598">
        <ele>881.4</ele>
        <time>2017-02-17T15:10:25Z</time>
      </trkpt>
      <trkpt lat="44.26186" lon="3.21593">
        <ele>880.8</ele>
        <time>2017-02-17T15:10:26Z</time>
      </trkpt>
      <trkpt lat="44.26185" lon="3.21588">
        <ele>880.4</ele>
        <time>2017-02-17T15:10:27Z</time>
      </trkpt>
      <trkpt lat="44.26184" lon="3.21583">
        <ele>880</ele>
        <time>2017-02-17T15:10:28Z</time>
      </trkpt>
      <trkpt lat="44.26184" lon="3.21578">
        <ele>879.6</ele>
        <time>2017-02-17T15:10:29Z</time>
      </trkpt>
      <trkpt lat="44.26183" lon="3.21571">
        <ele>879</ele>
        <time>2017-02-17T15:10:30Z</time>
      </trkpt>
      <trkpt lat="44.26179" lon="3.21568">
        <ele>878.4</ele>
        <time>2017-02-17T15:10:31Z</time>
      </trkpt>
      <trkpt lat="44.26174" lon="3.21568">
        <ele>877.6</ele>
        <time>2017-02-17T15:10:32Z</time>
      </trkpt>
      <trkpt lat="44.26167" lon="3.21571">
        <ele>877</ele>
        <time>2017-02-17T15:10:33Z</time>
      </trkpt>
      <trkpt lat="44.26161" lon="3.21576">
        <ele>876.6</ele>
        <time>2017-02-17T15:10:34Z</time>
      </trkpt>
      <trkpt lat="44.26155" lon="3.2158">
        <ele>876.3</ele>
        <time>2017-02-17T15:10:35Z</time>
      </trkpt>
      <trkpt lat="44.2615" lon="3.21587">
        <ele>875.9</ele>
        <time>2017-02-17T15:10:36Z</time>
      </trkpt>
      <trkpt lat="44.26146" lon="3.21595">
        <ele>875.4</ele>
        <time>2017-02-17T15:10:37Z</time>
      </trkpt>
      <trkpt lat="44.26143" lon="3.21604">
        <ele>875</ele>
        <time>2017-02-17T15:10:38Z</time>
      </trkpt>
      <trkpt lat="44.26142" lon="3.2161">
        <ele>874.7</ele>
        <time>2017-02-17T15:10:39Z</time>
      </trkpt>
      <trkpt lat="44.26141" lon="3.21618">
        <ele>874.3</ele>
        <time>2017-02-17T15:10:40Z</time>
      </trkpt>
      <trkpt lat="44.26139" lon="3.21629">
        <ele>873.6</ele>
        <time>2017-02-17T15:10:41Z</time>
      </trkpt>
      <trkpt lat="44.26136" lon="3.21641">
        <ele>872.8</ele>
        <time>2017-02-17T15:10:42Z</time>
      </trkpt>
      <trkpt lat="44.26131" lon="3.21653">
        <ele>871.9</ele>
        <time>2017-02-17T15:10:43Z</time>
      </trkpt>
      <trkpt lat="44.26126" lon="3.21664">
        <ele>871.1</ele>
        <time>2017-02-17T15:10:44Z</time>
      </trkpt>
      <trkpt lat="44.26122" lon="3.21675">
        <ele>870.3</ele>
        <time>2017-02-17T15:10:45Z</time>
      </trkpt>
      <trkpt lat="44.26117" lon="3.21685">
        <ele>869.5</ele>
        <time>2017-02-17T15:10:46Z</time>
      </trkpt>
      <trkpt lat="44.26111" lon="3.21698">
        <ele>868.5</ele>
        <time>2017-02-17T15:10:47Z</time>
      </trkpt>
      <trkpt lat="44.26103" lon="3.2171">
        <ele>867.5</ele>
        <time>2017-02-17T15:10:48Z</time>
      </trkpt>
      <trkpt lat="44.26093" lon="3.2172">
        <ele>866.5</ele>
        <time>2017-02-17T15:10:49Z</time>
      </trkpt>
      <trkpt lat="44.26082" lon="3.21726">
        <ele>865.5</ele>
        <time>2017-02-17T15:10:50Z</time>
      </trkpt>
      <trkpt lat="44.26073" lon="3.21731">
        <ele>864.7</ele>
        <time>2017-02-17T15:10:51Z</time>
      </trkpt>
      <trkpt lat="44.26065" lon="3.21737">
        <ele>863.9</ele>
        <time>2017-02-17T15:10:52Z</time>
      </trkpt>
      <trkpt lat="44.26057" lon="3.21748">
        <ele>863</ele>
        <time>2017-02-17T15:10:53Z</time>
      </trkpt>
      <trkpt lat="44.2605" lon="3.21759">
        <ele>862.2</ele>
        <time>2017-02-17T15:10:54Z</time>
      </trkpt>
      <trkpt lat="44.26042" lon="3.21766">
        <ele>861.5</ele>
        <time>2017-02-17T15:10:55Z</time>
      </trkpt>
      <trkpt lat="44.26034" lon="3.21775">
        <ele>860.7</ele>
        <time>2017-02-17T15:10:56Z</time>
      </trkpt>
      <trkpt lat="44.26026" lon="3.21786">
        <ele>860</ele>
        <time>2017-02-17T15:10:57Z</time>
      </trkpt>
      <trkpt lat="44.26018" lon="3.21795">
        <ele>859.3</ele>
        <time>2017-02-17T15:10:58Z</time>
      </trkpt>
      <trkpt lat="44.26011" lon="3.21801">
        <ele>858.8</ele>
        <time>2017-02-17T15:10:59Z</time>
      </trkpt>
      <trkpt lat="44.26005" lon="3.21806">
        <ele>858.3</ele>
        <time>2017-02-17T15:11:00Z</time>
      </trkpt>
      <trkpt lat="44.25997" lon="3.21813">
        <ele>857.6</ele>
        <time>2017-02-17T15:11:01Z</time>
      </trkpt>
      <trkpt lat="44.25988" lon="3.2182">
        <ele>856.8</ele>
        <time>2017-02-17T15:11:02Z</time>
      </trkpt>
      <trkpt lat="44.25979" lon="3.21823">
        <ele>856.1</ele>
        <time>2017-02-17T15:11:03Z</time>
      </trkpt>
      <trkpt lat="44.2597" lon="3.21827">
        <ele>855.4</ele>
        <time>2017-02-17T15:11:04Z</time>
      </trkpt>
      <trkpt lat="44.25963" lon="3.21831">
        <ele>854.7</ele>
        <time>2017-02-17T15:11:05Z</time>
      </trkpt>
      <trkpt lat="44.25956" lon="3.21836">
        <ele>854</ele>
        <time>2017-02-17T15:11:06Z</time>
      </trkpt>
      <trkpt lat="44.25948" lon="3.21842">
        <ele>853.2</ele>
        <time>2017-02-17T15:11:07Z</time>
      </trkpt>
      <trkpt lat="44.2594" lon="3.21847">
        <ele>852.5</ele>
        <time>2017-02-17T15:11:08Z</time>
      </trkpt>
      <trkpt lat="44.25933" lon="3.21849">
        <ele>851.9</ele>
        <time>2017-02-17T15:11:09Z</time>
      </trkpt>
      <trkpt lat="44.25926" lon="3.21851">
        <ele>851.4</ele>
        <time>2017-02-17T15:11:10Z</time>
      </trkpt>
      <trkpt lat="44.25817" lon="3.21796">
        <ele>843.2</ele>
        <time>2017-02-17T15:11:45Z</time>
      </trkpt>
      <trkpt lat="44.25821" lon="3.2183">
        <ele>843.7</ele>
        <time>2017-02-17T15:11:47Z</time>
      </trkpt>
      <trkpt lat="44.25782" lon="3.21828">
        <ele>844.8</ele>
        <time>2017-02-17T15:11:50Z</time>
      </trkpt>
      <trkpt lat="44.25767" lon="3.21833">
        <ele>845.5</ele>
        <time>2017-02-17T15:11:57Z</time>
      </trkpt>
      <trkpt lat="44.25762" lon="3.21831">
        <ele>845.3</ele>
        <time>2017-02-17T15:11:58Z</time>
      </trkpt>
      <trkpt lat="44.25756" lon="3.21829">
        <ele>845.4</ele>
        <time>2017-02-17T15:11:59Z</time>
      </trkpt>
      <trkpt lat="44.25752" lon="3.21828">
        <ele>845.5</ele>
        <time>2017-02-17T15:12:01Z</time>
      </trkpt>
      <trkpt lat="44.25756" lon="3.21829">
        <ele>844.6</ele>
        <time>2017-02-17T15:12:02Z</time>
      </trkpt>
      <trkpt lat="44.25759" lon="3.21829">
        <ele>843.9</ele>
        <time>2017-02-17T15:12:03Z</time>
      </trkpt>
      <trkpt lat="44.25762" lon="3.21827">
        <ele>843.2</ele>
        <time>2017-02-17T15:12:04Z</time>
      </trkpt>
      <trkpt lat="44.25758" lon="3.21822">
        <ele>843.2</ele>
        <time>2017-02-17T15:12:06Z</time>
      </trkpt>
      <trkpt lat="44.25756" lon="3.21817">
        <ele>843.1</ele>
        <time>2017-02-17T15:12:07Z</time>
      </trkpt>
      <trkpt lat="44.25755" lon="3.2181">
        <ele>843.1</ele>
        <time>2017-02-17T15:12:08Z</time>
      </trkpt>
      <trkpt lat="44.25754" lon="3.218">
        <ele>843.1</ele>
        <time>2017-02-17T15:12:10Z</time>
      </trkpt>
      <trkpt lat="44.25751" lon="3.21795">
        <ele>843.1</ele>
        <time>2017-02-17T15:12:11Z</time>
      </trkpt>
      <trkpt lat="44.25746" lon="3.21792">
        <ele>843.1</ele>
        <time>2017-02-17T15:12:12Z</time>
      </trkpt>
      <trkpt lat="44.25742" lon="3.21788">
        <ele>843.1</ele>
        <time>2017-02-17T15:12:13Z</time>
      </trkpt>
      <trkpt lat="44.25739" lon="3.21783">
        <ele>843</ele>
        <time>2017-02-17T15:12:14Z</time>
      </trkpt>
      <trkpt lat="44.25732" lon="3.21777">
        <ele>843</ele>
        <time>2017-02-17T15:12:15Z</time>
      </trkpt>
      <trkpt lat="44.25726" lon="3.2177">
        <ele>843</ele>
        <time>2017-02-17T15:12:17Z</time>
      </trkpt>
      <trkpt lat="44.25722" lon="3.21765">
        <ele>843.1</ele>
        <time>2017-02-17T15:12:18Z</time>
      </trkpt>
      <trkpt lat="44.25721" lon="3.21758">
        <ele>843.3</ele>
        <time>2017-02-17T15:12:19Z</time>
      </trkpt>
      <trkpt lat="44.25718" lon="3.21755">
        <ele>843.3</ele>
        <time>2017-02-17T15:12:20Z</time>
      </trkpt>
      <trkpt lat="44.25697" lon="3.21769">
        <ele>843.9</ele>
        <time>2017-02-17T15:12:24Z</time>
      </trkpt>
      <trkpt lat="44.25687" lon="3.21773">
        <ele>844.1</ele>
        <time>2017-02-17T15:12:25Z</time>
      </trkpt>
      <trkpt lat="44.2568" lon="3.21778">
        <ele>844.2</ele>
        <time>2017-02-17T15:12:26Z</time>
      </trkpt>
      <trkpt lat="44.25659" lon="3.21787">
        <ele>843.8</ele>
        <time>2017-02-17T15:12:30Z</time>
      </trkpt>
      <trkpt lat="44.25655" lon="3.21787">
        <ele>843.6</ele>
        <time>2017-02-17T15:12:31Z</time>
      </trkpt>
      <trkpt lat="44.25649" lon="3.21787">
        <ele>843.5</ele>
        <time>2017-02-17T15:12:32Z</time>
      </trkpt>
      <trkpt lat="44.25642" lon="3.21787">
        <ele>843.5</ele>
        <time>2017-02-17T15:12:33Z</time>
      </trkpt>
      <trkpt lat="44.25634" lon="3.21786">
        <ele>843.6</ele>
        <time>2017-02-17T15:12:34Z</time>
      </trkpt>
      <trkpt lat="44.25627" lon="3.21785">
        <ele>843.8</ele>
        <time>2017-02-17T15:12:35Z</time>
      </trkpt>
      <trkpt lat="44.2562" lon="3.21784">
        <ele>844</ele>
        <time>2017-02-17T15:12:36Z</time>
      </trkpt>
      <trkpt lat="44.25612" lon="3.21782">
        <ele>844.2</ele>
        <time>2017-02-17T15:12:37Z</time>
      </trkpt>
      <trkpt lat="44.25605" lon="3.21781">
        <ele>844.4</ele>
        <time>2017-02-17T15:12:38Z</time>
      </trkpt>
      <trkpt lat="44.25597" lon="3.2178">
        <ele>844.6</ele>
        <time>2017-02-17T15:12:39Z</time>
      </trkpt>
      <trkpt lat="44.25589" lon="3.21779">
        <ele>844.8</ele>
        <time>2017-02-17T15:12:40Z</time>
      </trkpt>
      <trkpt lat="44.2558" lon="3.21778">
        <ele>845.1</ele>
        <time>2017-02-17T15:12:41Z</time>
      </trkpt>
      <trkpt lat="44.25575" lon="3.21777">
        <ele>845.5</ele>
        <time>2017-02-17T15:12:42Z</time>
      </trkpt>
      <trkpt lat="44.25571" lon="3.21776">
        <ele>845.7</ele>
        <time>2017-02-17T15:12:43Z</time>
      </trkpt>
      <trkpt lat="44.25568" lon="3.21775">
        <ele>845.8</ele>
        <time>2017-02-17T15:12:44Z</time>
      </trkpt>
      <trkpt lat="44.25564" lon="3.21774">
        <ele>846</ele>
        <time>2017-02-17T15:12:47Z</time>
      </trkpt>
      <trkpt lat="44.2556" lon="3.21775">
        <ele>846.2</ele>
        <time>2017-02-17T15:12:49Z</time>
      </trkpt>
      <trkpt lat="44.25555" lon="3.21777">
        <ele>846.5</ele>
        <time>2017-02-17T15:12:51Z</time>
      </trkpt>
      <trkpt lat="44.25551" lon="3.21777">
        <ele>846.7</ele>
        <time>2017-02-17T15:12:52Z</time>
      </trkpt>
      <trkpt lat="44.25548" lon="3.21777">
        <ele>846.8</ele>
        <time>2017-02-17T15:12:53Z</time>
      </trkpt>
      <trkpt lat="44.25546" lon="3.21778">
        <ele>846.8</ele>
        <time>2017-02-17T15:12:54Z</time>
      </trkpt>
      <trkpt lat="44.25541" lon="3.21779">
        <ele>846.8</ele>
        <time>2017-02-17T15:12:56Z</time>
      </trkpt>
      <trkpt lat="44.25535" lon="3.21778">
        <ele>846.7</ele>
        <time>2017-02-17T15:12:58Z</time>
      </trkpt>
      <trkpt lat="44.25532" lon="3.21778">
        <ele>846.6</ele>
        <time>2017-02-17T15:12:59Z</time>
      </trkpt>
      <trkpt lat="44.25528" lon="3.21777">
        <ele>846.5</ele>
        <time>2017-02-17T15:13:00Z</time>
      </trkpt>
      <trkpt lat="44.25525" lon="3.21777">
        <ele>846.5</ele>
        <time>2017-02-17T15:13:01Z</time>
      </trkpt>
      <trkpt lat="44.25521" lon="3.21776">
        <ele>846.4</ele>
        <time>2017-02-17T15:13:02Z</time>
      </trkpt>
      <trkpt lat="44.25517" lon="3.21774">
        <ele>846.4</ele>
        <time>2017-02-17T15:13:03Z</time>
      </trkpt>
      <trkpt lat="44.25512" lon="3.21774">
        <ele>846.3</ele>
        <time>2017-02-17T15:13:04Z</time>
      </trkpt>
      <trkpt lat="44.25507" lon="3.21773">
        <ele>846.3</ele>
        <time>2017-02-17T15:13:05Z</time>
      </trkpt>
      <trkpt lat="44.25502" lon="3.21773">
        <ele>846.2</ele>
        <time>2017-02-17T15:13:06Z</time>
      </trkpt>
      <trkpt lat="44.25498" lon="3.21773">
        <ele>846.2</ele>
        <time>2017-02-17T15:13:07Z</time>
      </trkpt>
      <trkpt lat="44.25495" lon="3.21773">
        <ele>846.3</ele>
        <time>2017-02-17T15:13:08Z</time>
      </trkpt>
      <trkpt lat="44.25491" lon="3.21773">
        <ele>846.3</ele>
        <time>2017-02-17T15:13:09Z</time>
      </trkpt>
      <trkpt lat="44.25486" lon="3.21773">
        <ele>846.2</ele>
        <time>2017-02-17T15:13:10Z</time>
      </trkpt>
      <trkpt lat="44.2548" lon="3.21775">
        <ele>846.1</ele>
        <time>2017-02-17T15:13:11Z</time>
      </trkpt>
      <trkpt lat="44.25476" lon="3.21774">
        <ele>846.1</ele>
        <time>2017-02-17T15:13:12Z</time>
      </trkpt>
      <trkpt lat="44.25473" lon="3.21774">
        <ele>846.1</ele>
        <time>2017-02-17T15:13:13Z</time>
      </trkpt>
      <trkpt lat="44.25469" lon="3.21773">
        <ele>846.1</ele>
        <time>2017-02-17T15:13:14Z</time>
      </trkpt>
      <trkpt lat="44.25464" lon="3.21773">
        <ele>846.2</ele>
        <time>2017-02-17T15:13:15Z</time>
      </trkpt>
      <trkpt lat="44.25461" lon="3.21773">
        <ele>846.3</ele>
        <time>2017-02-17T15:13:16Z</time>
      </trkpt>
      <trkpt lat="44.25457" lon="3.21773">
        <ele>846.4</ele>
        <time>2017-02-17T15:13:17Z</time>
      </trkpt>
      <trkpt lat="44.25454" lon="3.21772">
        <ele>846.5</ele>
        <time>2017-02-17T15:13:18Z</time>
      </trkpt>
      <trkpt lat="44.25451" lon="3.21771">
        <ele>846.6</ele>
        <time>2017-02-17T15:13:19Z</time>
      </trkpt>
      <trkpt lat="44.25449" lon="3.2177">
        <ele>846.7</ele>
        <time>2017-02-17T15:13:20Z</time>
      </trkpt>
      <trkpt lat="44.25444" lon="3.2177">
        <ele>846.8</ele>
        <time>2017-02-17T15:13:22Z</time>
      </trkpt>
      <trkpt lat="44.25441" lon="3.2177">
        <ele>847</ele>
        <time>2017-02-17T15:13:23Z</time>
      </trkpt>
      <trkpt lat="44.25437" lon="3.21768">
        <ele>847.1</ele>
        <time>2017-02-17T15:13:25Z</time>
      </trkpt>
      <trkpt lat="44.2542" lon="3.21781">
        <ele>847.8</ele>
        <time>2017-02-17T15:13:37Z</time>
      </trkpt>
      <trkpt lat="44.25417" lon="3.21782">
        <ele>847.9</ele>
        <time>2017-02-17T15:13:38Z</time>
      </trkpt>
      <trkpt lat="44.25413" lon="3.21785">
        <ele>848.5</ele>
        <time>2017-02-17T15:13:39Z</time>
      </trkpt>
      <trkpt lat="44.25411" lon="3.21788">
        <ele>848.7</ele>
        <time>2017-02-17T15:13:40Z</time>
      </trkpt>
      <trkpt lat="44.254" lon="3.21798">
        <ele>849.9</ele>
        <time>2017-02-17T15:13:55Z</time>
      </trkpt>
      <trkpt lat="44.25396" lon="3.21797">
        <ele>850.2</ele>
        <time>2017-02-17T15:13:57Z</time>
      </trkpt>
      <trkpt lat="44.25392" lon="3.21794">
        <ele>850.5</ele>
        <time>2017-02-17T15:14:01Z</time>
      </trkpt>
      <trkpt lat="44.25387" lon="3.21794">
        <ele>850.8</ele>
        <time>2017-02-17T15:14:06Z</time>
      </trkpt>
      <trkpt lat="44.2538" lon="3.21796">
        <ele>851.5</ele>
        <time>2017-02-17T15:14:10Z</time>
      </trkpt>
      <trkpt lat="44.25376" lon="3.21796">
        <ele>851.8</ele>
        <time>2017-02-17T15:14:12Z</time>
      </trkpt>
      <trkpt lat="44.25372" lon="3.21797">
        <ele>852.1</ele>
        <time>2017-02-17T15:14:14Z</time>
      </trkpt>
      <trkpt lat="44.25331" lon="3.21772">
        <ele>854.6</ele>
        <time>2017-02-17T15:15:11Z</time>
      </trkpt>
      <trkpt lat="44.25329" lon="3.2179">
        <ele>858.1</ele>
        <time>2017-02-17T15:15:47Z</time>
      </trkpt>
      <trkpt lat="44.25319" lon="3.21797">
        <ele>859.3</ele>
        <time>2017-02-17T15:15:50Z</time>
      </trkpt>
      <trkpt lat="44.25309" lon="3.21778">
        <ele>863.6</ele>
        <time>2017-02-17T15:15:55Z</time>
      </trkpt>
      <trkpt lat="44.25305" lon="3.21784">
        <ele>865.2</ele>
        <time>2017-02-17T15:15:59Z</time>
      </trkpt>
      <trkpt lat="44.25312" lon="3.21782">
        <ele>866.5</ele>
        <time>2017-02-17T15:16:02Z</time>
      </trkpt>
      <trkpt lat="44.25299" lon="3.21717">
        <ele>867.3</ele>
        <time>2017-02-17T15:17:56Z</time>
      </trkpt>
      <trkpt lat="44.25296" lon="3.21712">
        <ele>867.2</ele>
        <time>2017-02-17T15:17:58Z</time>
      </trkpt>
      <trkpt lat="44.25292" lon="3.2171">
        <ele>867.1</ele>
        <time>2017-02-17T15:18:00Z</time>
      </trkpt>
      <trkpt lat="44.25288" lon="3.21711">
        <ele>867</ele>
        <time>2017-02-17T15:18:01Z</time>
      </trkpt>
      <trkpt lat="44.25285" lon="3.21712">
        <ele>866.4</ele>
        <time>2017-02-17T15:18:02Z</time>
      </trkpt>
      <trkpt lat="44.25282" lon="3.21715">
        <ele>865.9</ele>
        <time>2017-02-17T15:18:03Z</time>
      </trkpt>
      <trkpt lat="44.2528" lon="3.21719">
        <ele>865.6</ele>
        <time>2017-02-17T15:18:04Z</time>
      </trkpt>
      <trkpt lat="44.25277" lon="3.21723">
        <ele>865.5</ele>
        <time>2017-02-17T15:18:05Z</time>
      </trkpt>
      <trkpt lat="44.25273" lon="3.21726">
        <ele>865.4</ele>
        <time>2017-02-17T15:18:06Z</time>
      </trkpt>
      <trkpt lat="44.2527" lon="3.21728">
        <ele>865.4</ele>
        <time>2017-02-17T15:18:07Z</time>
      </trkpt>
      <trkpt lat="44.25267" lon="3.21729">
        <ele>865.5</ele>
        <time>2017-02-17T15:18:09Z</time>
      </trkpt>
      <trkpt lat="44.25264" lon="3.21731">
        <ele>865.6</ele>
        <time>2017-02-17T15:18:11Z</time>
      </trkpt>
      <trkpt lat="44.25261" lon="3.21733">
        <ele>865.6</ele>
        <time>2017-02-17T15:18:13Z</time>
      </trkpt>
      <trkpt lat="44.25258" lon="3.21734">
        <ele>865.9</ele>
        <time>2017-02-17T15:18:15Z</time>
      </trkpt>
      <trkpt lat="44.25236" lon="3.21738">
        <ele>867.4</ele>
        <time>2017-02-17T15:18:25Z</time>
      </trkpt>
      <trkpt lat="44.25232" lon="3.21737">
        <ele>867.6</ele>
        <time>2017-02-17T15:18:28Z</time>
      </trkpt>
      <trkpt lat="44.25226" lon="3.21727">
        <ele>868.5</ele>
        <time>2017-02-17T15:18:33Z</time>
      </trkpt>
      <trkpt lat="44.25224" lon="3.21721">
        <ele>869.3</ele>
        <time>2017-02-17T15:18:34Z</time>
      </trkpt>
      <trkpt lat="44.2522" lon="3.21716">
        <ele>869.8</ele>
        <time>2017-02-17T15:18:36Z</time>
      </trkpt>
      <trkpt lat="44.25211" lon="3.21723">
        <ele>870.6</ele>
        <time>2017-02-17T15:18:46Z</time>
      </trkpt>
      <trkpt lat="44.25215" lon="3.21721">
        <ele>871.1</ele>
        <time>2017-02-17T15:18:51Z</time>
      </trkpt>
      <trkpt lat="44.25219" lon="3.21719">
        <ele>871.4</ele>
        <time>2017-02-17T15:18:52Z</time>
      </trkpt>
      <trkpt lat="44.25222" lon="3.21717">
        <ele>871.7</ele>
        <time>2017-02-17T15:18:53Z</time>
      </trkpt>
      <trkpt lat="44.25225" lon="3.21715">
        <ele>871.9</ele>
        <time>2017-02-17T15:18:54Z</time>
      </trkpt>
      <trkpt lat="44.25194" lon="3.21731">
        <ele>873.8</ele>
        <time>2017-02-17T15:19:03Z</time>
      </trkpt>
      <trkpt lat="44.25186" lon="3.21731">
        <ele>874</ele>
        <time>2017-02-17T15:19:04Z</time>
      </trkpt>
      <trkpt lat="44.25167" lon="3.21738">
        <ele>874.4</ele>
        <time>2017-02-17T15:19:10Z</time>
      </trkpt>
      <trkpt lat="44.25165" lon="3.2174">
        <ele>874.5</ele>
        <time>2017-02-17T15:19:12Z</time>
      </trkpt>
      <trkpt lat="44.25154" lon="3.21771">
        <ele>875.7</ele>
        <time>2017-02-17T15:19:43Z</time>
      </trkpt>
      <trkpt lat="44.25156" lon="3.21775">
        <ele>875.8</ele>
        <time>2017-02-17T15:19:45Z</time>
      </trkpt>
      <trkpt lat="44.25158" lon="3.21779">
        <ele>875.9</ele>
        <time>2017-02-17T15:19:46Z</time>
      </trkpt>
      <trkpt lat="44.25161" lon="3.21787">
        <ele>876</ele>
        <time>2017-02-17T15:19:47Z</time>
      </trkpt>
      <trkpt lat="44.25162" lon="3.21798">
        <ele>876</ele>
        <time>2017-02-17T15:19:48Z</time>
      </trkpt>
      <trkpt lat="44.25162" lon="3.21811">
        <ele>876</ele>
        <time>2017-02-17T15:19:49Z</time>
      </trkpt>
      <trkpt lat="44.25162" lon="3.21828">
        <ele>876</ele>
        <time>2017-02-17T15:19:50Z</time>
      </trkpt>
      <trkpt lat="44.25161" lon="3.21841">
        <ele>875.9</ele>
        <time>2017-02-17T15:19:51Z</time>
      </trkpt>
      <trkpt lat="44.25159" lon="3.21852">
        <ele>875.7</ele>
        <time>2017-02-17T15:19:52Z</time>
      </trkpt>
      <trkpt lat="44.25156" lon="3.21858">
        <ele>875.5</ele>
        <time>2017-02-17T15:19:53Z</time>
      </trkpt>
      <trkpt lat="44.25153" lon="3.21862">
        <ele>875.3</ele>
        <time>2017-02-17T15:19:54Z</time>
      </trkpt>
      <trkpt lat="44.2515" lon="3.21867">
        <ele>875.1</ele>
        <time>2017-02-17T15:19:55Z</time>
      </trkpt>
      <trkpt lat="44.25148" lon="3.2187">
        <ele>874.9</ele>
        <time>2017-02-17T15:19:56Z</time>
      </trkpt>
      <trkpt lat="44.25144" lon="3.21879">
        <ele>874.7</ele>
        <time>2017-02-17T15:19:57Z</time>
      </trkpt>
      <trkpt lat="44.25138" lon="3.21892">
        <ele>874.4</ele>
        <time>2017-02-17T15:19:58Z</time>
      </trkpt>
      <trkpt lat="44.25134" lon="3.21899">
        <ele>874.4</ele>
        <time>2017-02-17T15:19:59Z</time>
      </trkpt>
      <trkpt lat="44.25131" lon="3.21903">
        <ele>874.3</ele>
        <time>2017-02-17T15:20:00Z</time>
      </trkpt>
      <trkpt lat="44.25128" lon="3.21907">
        <ele>874.3</ele>
        <time>2017-02-17T15:20:01Z</time>
      </trkpt>
      <trkpt lat="44.25123" lon="3.21912">
        <ele>874.3</ele>
        <time>2017-02-17T15:20:02Z</time>
      </trkpt>
      <trkpt lat="44.25121" lon="3.21914">
        <ele>874.3</ele>
        <time>2017-02-17T15:20:05Z</time>
      </trkpt>
      <trkpt lat="44.25119" lon="3.21917">
        <ele>874.3</ele>
        <time>2017-02-17T15:20:07Z</time>
      </trkpt>
      <trkpt lat="44.25123" lon="3.21917">
        <ele>874.2</ele>
        <time>2017-02-17T15:20:08Z</time>
      </trkpt>
      <trkpt lat="44.25122" lon="3.21922">
        <ele>874.2</ele>
        <time>2017-02-17T15:20:10Z</time>
      </trkpt>
      <trkpt lat="44.25119" lon="3.21928">
        <ele>874.2</ele>
        <time>2017-02-17T15:20:11Z</time>
      </trkpt>
      <trkpt lat="44.25115" lon="3.21933">
        <ele>874.2</ele>
        <time>2017-02-17T15:20:12Z</time>
      </trkpt>
      <trkpt lat="44.25113" lon="3.21938">
        <ele>874.3</ele>
        <time>2017-02-17T15:20:13Z</time>
      </trkpt>
      <trkpt lat="44.25112" lon="3.21946">
        <ele>874.3</ele>
        <time>2017-02-17T15:20:14Z</time>
      </trkpt>
      <trkpt lat="44.25109" lon="3.21955">
        <ele>874.4</ele>
        <time>2017-02-17T15:20:15Z</time>
      </trkpt>
      <trkpt lat="44.25107" lon="3.21965">
        <ele>874.4</ele>
        <time>2017-02-17T15:20:16Z</time>
      </trkpt>
      <trkpt lat="44.25103" lon="3.21974">
        <ele>874.5</ele>
        <time>2017-02-17T15:20:17Z</time>
      </trkpt>
      <trkpt lat="44.25103" lon="3.2198">
        <ele>874.5</ele>
        <time>2017-02-17T15:20:18Z</time>
      </trkpt>
      <trkpt lat="44.25101" lon="3.21982">
        <ele>874.6</ele>
        <time>2017-02-17T15:20:22Z</time>
      </trkpt>
      <trkpt lat="44.25098" lon="3.21982">
        <ele>874.7</ele>
        <time>2017-02-17T15:20:23Z</time>
      </trkpt>
      <trkpt lat="44.25092" lon="3.21981">
        <ele>874.8</ele>
        <time>2017-02-17T15:20:25Z</time>
      </trkpt>
      <trkpt lat="44.25089" lon="3.21981">
        <ele>874.9</ele>
        <time>2017-02-17T15:20:26Z</time>
      </trkpt>
      <trkpt lat="44.25083" lon="3.21979">
        <ele>875.4</ele>
        <time>2017-02-17T15:20:27Z</time>
      </trkpt>
      <trkpt lat="44.2508" lon="3.21977">
        <ele>875.9</ele>
        <time>2017-02-17T15:20:28Z</time>
      </trkpt>
      <trkpt lat="44.25076" lon="3.21975">
        <ele>876.4</ele>
        <time>2017-02-17T15:20:29Z</time>
      </trkpt>
      <trkpt lat="44.25073" lon="3.21975">
        <ele>876.9</ele>
        <time>2017-02-17T15:20:31Z</time>
      </trkpt>
      <trkpt lat="44.2507" lon="3.21975">
        <ele>877.2</ele>
        <time>2017-02-17T15:20:33Z</time>
      </trkpt>
      <trkpt lat="44.25065" lon="3.21978">
        <ele>878</ele>
        <time>2017-02-17T15:20:41Z</time>
      </trkpt>
      <trkpt lat="44.25033" lon="3.21952">
        <ele>881.4</ele>
        <time>2017-02-17T15:20:57Z</time>
      </trkpt>
      <trkpt lat="44.25027" lon="3.21952">
        <ele>881.7</ele>
        <time>2017-02-17T15:20:58Z</time>
      </trkpt>
      <trkpt lat="44.2502" lon="3.21948">
        <ele>882.8</ele>
        <time>2017-02-17T15:20:59Z</time>
      </trkpt>
      <trkpt lat="44.25016" lon="3.21947">
        <ele>883.5</ele>
        <time>2017-02-17T15:21:00Z</time>
      </trkpt>
      <trkpt lat="44.25012" lon="3.21947">
        <ele>884.3</ele>
        <time>2017-02-17T15:21:01Z</time>
      </trkpt>
      <trkpt lat="44.25017" lon="3.2195">
        <ele>885.1</ele>
        <time>2017-02-17T15:21:04Z</time>
      </trkpt>
      <trkpt lat="44.25015" lon="3.21956">
        <ele>885.4</ele>
        <time>2017-02-17T15:21:06Z</time>
      </trkpt>
      <trkpt lat="44.25012" lon="3.21961">
        <ele>885.8</ele>
        <time>2017-02-17T15:21:08Z</time>
      </trkpt>
      <trkpt lat="44.25009" lon="3.21963">
        <ele>886.3</ele>
        <time>2017-02-17T15:21:10Z</time>
      </trkpt>
      <trkpt lat="44.25006" lon="3.21966">
        <ele>886.8</ele>
        <time>2017-02-17T15:21:12Z</time>
      </trkpt>
      <trkpt lat="44.25002" lon="3.21969">
        <ele>887</ele>
        <time>2017-02-17T15:21:14Z</time>
      </trkpt>
      <trkpt lat="44.25008" lon="3.21967">
        <ele>887.4</ele>
        <time>2017-02-17T15:21:19Z</time>
      </trkpt>
      <trkpt lat="44.25004" lon="3.21968">
        <ele>887.6</ele>
        <time>2017-02-17T15:21:23Z</time>
      </trkpt>
      <trkpt lat="44.25" lon="3.21968">
        <ele>888</ele>
        <time>2017-02-17T15:21:24Z</time>
      </trkpt>
      <trkpt lat="44.24995" lon="3.21968">
        <ele>888.4</ele>
        <time>2017-02-17T15:21:25Z</time>
      </trkpt>
      <trkpt lat="44.24993" lon="3.21969">
        <ele>888.6</ele>
        <time>2017-02-17T15:21:26Z</time>
      </trkpt>
      <trkpt lat="44.24988" lon="3.21969">
        <ele>889</ele>
        <time>2017-02-17T15:21:28Z</time>
      </trkpt>
      <trkpt lat="44.24982" lon="3.21969">
        <ele>889.1</ele>
        <time>2017-02-17T15:21:30Z</time>
      </trkpt>
      <trkpt lat="44.24978" lon="3.21969">
        <ele>889.2</ele>
        <time>2017-02-17T15:21:33Z</time>
      </trkpt>
      <trkpt lat="44.24976" lon="3.21966">
        <ele>889.2</ele>
        <time>2017-02-17T15:21:36Z</time>
      </trkpt>
      <trkpt lat="44.24972" lon="3.21965">
        <ele>889.2</ele>
        <time>2017-02-17T15:21:40Z</time>
      </trkpt>
      <trkpt lat="44.24968" lon="3.21967">
        <ele>889.3</ele>
        <time>2017-02-17T15:21:43Z</time>
      </trkpt>
      <trkpt lat="44.24964" lon="3.2197">
        <ele>889.4</ele>
        <time>2017-02-17T15:21:45Z</time>
      </trkpt>
      <trkpt lat="44.24961" lon="3.21971">
        <ele>889.4</ele>
        <time>2017-02-17T15:21:46Z</time>
      </trkpt>
      <trkpt lat="44.24958" lon="3.21972">
        <ele>889.4</ele>
        <time>2017-02-17T15:21:47Z</time>
      </trkpt>
      <trkpt lat="44.24953" lon="3.21973">
        <ele>889.5</ele>
        <time>2017-02-17T15:21:48Z</time>
      </trkpt>
      <trkpt lat="44.2495" lon="3.21973">
        <ele>889.5</ele>
        <time>2017-02-17T15:21:49Z</time>
      </trkpt>
      <trkpt lat="44.24946" lon="3.21974">
        <ele>889.5</ele>
        <time>2017-02-17T15:21:50Z</time>
      </trkpt>
      <trkpt lat="44.24942" lon="3.21975">
        <ele>889.5</ele>
        <time>2017-02-17T15:21:51Z</time>
      </trkpt>
      <trkpt lat="44.24939" lon="3.21975">
        <ele>889.5</ele>
        <time>2017-02-17T15:21:52Z</time>
      </trkpt>
      <trkpt lat="44.24936" lon="3.21976">
        <ele>889.5</ele>
        <time>2017-02-17T15:21:53Z</time>
      </trkpt>
      <trkpt lat="44.24932" lon="3.21976">
        <ele>889.5</ele>
        <time>2017-02-17T15:21:54Z</time>
      </trkpt>
      <trkpt lat="44.24929" lon="3.21976">
        <ele>889.5</ele>
        <time>2017-02-17T15:21:55Z</time>
      </trkpt>
      <trkpt lat="44.24922" lon="3.21975">
        <ele>889.4</ele>
        <time>2017-02-17T15:21:57Z</time>
      </trkpt>
      <trkpt lat="44.24916" lon="3.21978">
        <ele>889.4</ele>
        <time>2017-02-17T15:21:59Z</time>
      </trkpt>
      <trkpt lat="44.24912" lon="3.21979">
        <ele>889.4</ele>
        <time>2017-02-17T15:22:00Z</time>
      </trkpt>
      <trkpt lat="44.24905" lon="3.21983">
        <ele>889.3</ele>
        <time>2017-02-17T15:22:02Z</time>
      </trkpt>
      <trkpt lat="44.24898" lon="3.21988">
        <ele>889.1</ele>
        <time>2017-02-17T15:22:03Z</time>
      </trkpt>
      <trkpt lat="44.24888" lon="3.21993">
        <ele>888.6</ele>
        <time>2017-02-17T15:22:04Z</time>
      </trkpt>
      <trkpt lat="44.24883" lon="3.21995">
        <ele>888.3</ele>
        <time>2017-02-17T15:22:05Z</time>
      </trkpt>
      <trkpt lat="44.24878" lon="3.22">
        <ele>888</ele>
        <time>2017-02-17T15:22:06Z</time>
      </trkpt>
      <trkpt lat="44.24873" lon="3.22">
        <ele>887.5</ele>
        <time>2017-02-17T15:22:07Z</time>
      </trkpt>
      <trkpt lat="44.24867" lon="3.22003">
        <ele>887</ele>
        <time>2017-02-17T15:22:08Z</time>
      </trkpt>
      <trkpt lat="44.24861" lon="3.22003">
        <ele>886.4</ele>
        <time>2017-02-17T15:22:09Z</time>
      </trkpt>
      <trkpt lat="44.24855" lon="3.22001">
        <ele>885.8</ele>
        <time>2017-02-17T15:22:10Z</time>
      </trkpt>
      <trkpt lat="44.24849" lon="3.21999">
        <ele>885.2</ele>
        <time>2017-02-17T15:22:11Z</time>
      </trkpt>
      <trkpt lat="44.24839" lon="3.22">
        <ele>884.1</ele>
        <time>2017-02-17T15:22:14Z</time>
      </trkpt>
      <trkpt lat="44.24833" lon="3.21999">
        <ele>883.6</ele>
        <time>2017-02-17T15:22:15Z</time>
      </trkpt>
      <trkpt lat="44.24824" lon="3.21998">
        <ele>882.7</ele>
        <time>2017-02-17T15:22:16Z</time>
      </trkpt>
      <trkpt lat="44.24815" lon="3.21997">
        <ele>881.8</ele>
        <time>2017-02-17T15:22:17Z</time>
      </trkpt>
      <trkpt lat="44.24806" lon="3.21997">
        <ele>881</ele>
        <time>2017-02-17T15:22:18Z</time>
      </trkpt>
      <trkpt lat="44.24799" lon="3.22001">
        <ele>880.3</ele>
        <time>2017-02-17T15:22:19Z</time>
      </trkpt>
      <trkpt lat="44.24798" lon="3.22009">
        <ele>879.9</ele>
        <time>2017-02-17T15:22:20Z</time>
      </trkpt>
      <trkpt lat="44.24798" lon="3.22012">
        <ele>879.7</ele>
        <time>2017-02-17T15:22:21Z</time>
      </trkpt>
      <trkpt lat="44.24797" lon="3.2202">
        <ele>879.3</ele>
        <time>2017-02-17T15:22:23Z</time>
      </trkpt>
      <trkpt lat="44.24798" lon="3.22024">
        <ele>879.1</ele>
        <time>2017-02-17T15:22:24Z</time>
      </trkpt>
      <trkpt lat="44.24798" lon="3.22031">
        <ele>878.7</ele>
        <time>2017-02-17T15:22:25Z</time>
      </trkpt>
      <trkpt lat="44.24796" lon="3.2204">
        <ele>878.4</ele>
        <time>2017-02-17T15:22:26Z</time>
      </trkpt>
      <trkpt lat="44.24797" lon="3.22047">
        <ele>878.2</ele>
        <time>2017-02-17T15:22:27Z</time>
      </trkpt>
      <trkpt lat="44.24801" lon="3.22055">
        <ele>878.1</ele>
        <time>2017-02-17T15:22:28Z</time>
      </trkpt>
      <trkpt lat="44.24805" lon="3.22061">
        <ele>878.1</ele>
        <time>2017-02-17T15:22:29Z</time>
      </trkpt>
      <trkpt lat="44.24812" lon="3.22069">
        <ele>878.1</ele>
        <time>2017-02-17T15:22:30Z</time>
      </trkpt>
      <trkpt lat="44.24818" lon="3.22074">
        <ele>878.3</ele>
        <time>2017-02-17T15:22:31Z</time>
      </trkpt>
      <trkpt lat="44.24825" lon="3.22079">
        <ele>878.6</ele>
        <time>2017-02-17T15:22:32Z</time>
      </trkpt>
      <trkpt lat="44.24831" lon="3.22086">
        <ele>879.2</ele>
        <time>2017-02-17T15:22:33Z</time>
      </trkpt>
      <trkpt lat="44.24833" lon="3.22094">
        <ele>879.4</ele>
        <time>2017-02-17T15:22:34Z</time>
      </trkpt>
      <trkpt lat="44.24834" lon="3.22105">
        <ele>879.5</ele>
        <time>2017-02-17T15:22:35Z</time>
      </trkpt>
      <trkpt lat="44.24835" lon="3.22114">
        <ele>879.6</ele>
        <time>2017-02-17T15:22:36Z</time>
      </trkpt>
      <trkpt lat="44.24834" lon="3.22118">
        <ele>879.6</ele>
        <time>2017-02-17T15:22:37Z</time>
      </trkpt>
      <trkpt lat="44.24831" lon="3.22123">
        <ele>879.7</ele>
        <time>2017-02-17T15:22:38Z</time>
      </trkpt>
      <trkpt lat="44.24829" lon="3.22128">
        <ele>879.7</ele>
        <time>2017-02-17T15:22:39Z</time>
      </trkpt>
      <trkpt lat="44.24825" lon="3.22133">
        <ele>879.7</ele>
        <time>2017-02-17T15:22:40Z</time>
      </trkpt>
      <trkpt lat="44.24821" lon="3.22137">
        <ele>879.8</ele>
        <time>2017-02-17T15:22:41Z</time>
      </trkpt>
      <trkpt lat="44.24819" lon="3.22143">
        <ele>879.8</ele>
        <time>2017-02-17T15:22:42Z</time>
      </trkpt>
      <trkpt lat="44.24815" lon="3.22148">
        <ele>879.8</ele>
        <time>2017-02-17T15:22:43Z</time>
      </trkpt>
      <trkpt lat="44.2481" lon="3.22155">
        <ele>879.8</ele>
        <time>2017-02-17T15:22:44Z</time>
      </trkpt>
      <trkpt lat="44.24803" lon="3.22161">
        <ele>879.8</ele>
        <time>2017-02-17T15:22:45Z</time>
      </trkpt>
      <trkpt lat="44.24799" lon="3.22164">
        <ele>879.8</ele>
        <time>2017-02-17T15:22:46Z</time>
      </trkpt>
      <trkpt lat="44.24793" lon="3.22166">
        <ele>879.8</ele>
        <time>2017-02-17T15:22:47Z</time>
      </trkpt>
      <trkpt lat="44.24789" lon="3.22169">
        <ele>879.8</ele>
        <time>2017-02-17T15:22:48Z</time>
      </trkpt>
      <trkpt lat="44.24786" lon="3.22169">
        <ele>879.8</ele>
        <time>2017-02-17T15:22:49Z</time>
      </trkpt>
      <trkpt lat="44.24782" lon="3.2217">
        <ele>879.8</ele>
        <time>2017-02-17T15:22:50Z</time>
      </trkpt>
      <trkpt lat="44.24778" lon="3.22172">
        <ele>879.7</ele>
        <time>2017-02-17T15:22:51Z</time>
      </trkpt>
      <trkpt lat="44.24773" lon="3.22174">
        <ele>879.7</ele>
        <time>2017-02-17T15:22:52Z</time>
      </trkpt>
      <trkpt lat="44.24769" lon="3.22176">
        <ele>879.7</ele>
        <time>2017-02-17T15:22:53Z</time>
      </trkpt>
      <trkpt lat="44.24765" lon="3.22177">
        <ele>879.7</ele>
        <time>2017-02-17T15:22:54Z</time>
      </trkpt>
      <trkpt lat="44.2476" lon="3.22177">
        <ele>879.6</ele>
        <time>2017-02-17T15:22:55Z</time>
      </trkpt>
      <trkpt lat="44.24755" lon="3.22176">
        <ele>879.6</ele>
        <time>2017-02-17T15:22:56Z</time>
      </trkpt>
      <trkpt lat="44.24748" lon="3.22176">
        <ele>879.5</ele>
        <time>2017-02-17T15:22:57Z</time>
      </trkpt>
      <trkpt lat="44.24739" lon="3.22177">
        <ele>879.3</ele>
        <time>2017-02-17T15:22:58Z</time>
      </trkpt>
      <trkpt lat="44.24733" lon="3.22179">
        <ele>879.2</ele>
        <time>2017-02-17T15:22:59Z</time>
      </trkpt>
      <trkpt lat="44.24728" lon="3.22184">
        <ele>879.1</ele>
        <time>2017-02-17T15:23:00Z</time>
      </trkpt>
      <trkpt lat="44.24724" lon="3.22188">
        <ele>878.9</ele>
        <time>2017-02-17T15:23:01Z</time>
      </trkpt>
      <trkpt lat="44.24719" lon="3.22191">
        <ele>878.7</ele>
        <time>2017-02-17T15:23:02Z</time>
      </trkpt>
      <trkpt lat="44.2471" lon="3.22191">
        <ele>878.2</ele>
        <time>2017-02-17T15:23:03Z</time>
      </trkpt>
      <trkpt lat="44.24702" lon="3.22191">
        <ele>877.6</ele>
        <time>2017-02-17T15:23:04Z</time>
      </trkpt>
      <trkpt lat="44.24691" lon="3.22195">
        <ele>876.9</ele>
        <time>2017-02-17T15:23:05Z</time>
      </trkpt>
      <trkpt lat="44.24682" lon="3.22196">
        <ele>876.2</ele>
        <time>2017-02-17T15:23:06Z</time>
      </trkpt>
      <trkpt lat="44.24677" lon="3.22198">
        <ele>875.9</ele>
        <time>2017-02-17T15:23:07Z</time>
      </trkpt>
      <trkpt lat="44.24673" lon="3.22201">
        <ele>875.6</ele>
        <time>2017-02-17T15:23:08Z</time>
      </trkpt>
      <trkpt lat="44.24669" lon="3.22203">
        <ele>875.4</ele>
        <time>2017-02-17T15:23:09Z</time>
      </trkpt>
      <trkpt lat="44.24665" lon="3.22205">
        <ele>875.3</ele>
        <time>2017-02-17T15:23:10Z</time>
      </trkpt>
      <trkpt lat="44.24657" lon="3.22206">
        <ele>875.1</ele>
        <time>2017-02-17T15:23:11Z</time>
      </trkpt>
      <trkpt lat="44.24654" lon="3.22206">
        <ele>875</ele>
        <time>2017-02-17T15:23:12Z</time>
      </trkpt>
      <trkpt lat="44.24651" lon="3.22203">
        <ele>874.9</ele>
        <time>2017-02-17T15:23:13Z</time>
      </trkpt>
      <trkpt lat="44.2465" lon="3.22197">
        <ele>874.9</ele>
        <time>2017-02-17T15:23:14Z</time>
      </trkpt>
      <trkpt lat="44.24649" lon="3.22191">
        <ele>874.9</ele>
        <time>2017-02-17T15:23:15Z</time>
      </trkpt>
      <trkpt lat="44.24648" lon="3.22185">
        <ele>874.8</ele>
        <time>2017-02-17T15:23:16Z</time>
      </trkpt>
      <trkpt lat="44.24647" lon="3.22166">
        <ele>874.8</ele>
        <time>2017-02-17T15:23:19Z</time>
      </trkpt>
      <trkpt lat="44.24649" lon="3.22159">
        <ele>874.8</ele>
        <time>2017-02-17T15:23:20Z</time>
      </trkpt>
      <trkpt lat="44.24651" lon="3.22154">
        <ele>874.8</ele>
        <time>2017-02-17T15:23:21Z</time>
      </trkpt>
      <trkpt lat="44.24653" lon="3.22147">
        <ele>874.8</ele>
        <time>2017-02-17T15:23:22Z</time>
      </trkpt>
      <trkpt lat="44.24656" lon="3.22142">
        <ele>874.8</ele>
        <time>2017-02-17T15:23:23Z</time>
      </trkpt>
      <trkpt lat="44.24658" lon="3.22138">
        <ele>874.8</ele>
        <time>2017-02-17T15:23:26Z</time>
      </trkpt>
      <trkpt lat="44.24656" lon="3.22134">
        <ele>874.8</ele>
        <time>2017-02-17T15:23:31Z</time>
      </trkpt>
      <trkpt lat="44.24655" lon="3.2213">
        <ele>874.9</ele>
        <time>2017-02-17T15:23:33Z</time>
      </trkpt>
      <trkpt lat="44.24653" lon="3.22126">
        <ele>874.9</ele>
        <time>2017-02-17T15:23:35Z</time>
      </trkpt>
      <trkpt lat="44.24651" lon="3.22123">
        <ele>874.9</ele>
        <time>2017-02-17T15:23:38Z</time>
      </trkpt>
      <trkpt lat="44.24648" lon="3.22121">
        <ele>875</ele>
        <time>2017-02-17T15:23:40Z</time>
      </trkpt>
      <trkpt lat="44.24644" lon="3.2212">
        <ele>875</ele>
        <time>2017-02-17T15:23:43Z</time>
      </trkpt>
      <trkpt lat="44.2464" lon="3.22116">
        <ele>875.2</ele>
        <time>2017-02-17T15:23:48Z</time>
      </trkpt>
      <trkpt lat="44.24636" lon="3.22113">
        <ele>875.4</ele>
        <time>2017-02-17T15:23:50Z</time>
      </trkpt>
      <trkpt lat="44.24633" lon="3.22111">
        <ele>875.8</ele>
        <time>2017-02-17T15:23:52Z</time>
      </trkpt>
      <trkpt lat="44.24631" lon="3.22115">
        <ele>877.1</ele>
        <time>2017-02-17T15:23:55Z</time>
      </trkpt>
      <trkpt lat="44.24625" lon="3.22119">
        <ele>878.7</ele>
        <time>2017-02-17T15:23:57Z</time>
      </trkpt>
      <trkpt lat="44.24619" lon="3.22123">
        <ele>879.3</ele>
        <time>2017-02-17T15:23:59Z</time>
      </trkpt>
      <trkpt lat="44.24613" lon="3.22123">
        <ele>879.7</ele>
        <time>2017-02-17T15:24:01Z</time>
      </trkpt>
      <trkpt lat="44.24609" lon="3.22127">
        <ele>880.1</ele>
        <time>2017-02-17T15:24:12Z</time>
      </trkpt>
      <trkpt lat="44.24605" lon="3.22129">
        <ele>880.4</ele>
        <time>2017-02-17T15:24:14Z</time>
      </trkpt>
      <trkpt lat="44.24595" lon="3.22131">
        <ele>881.3</ele>
        <time>2017-02-17T15:24:24Z</time>
      </trkpt>
      <trkpt lat="44.24594" lon="3.22135">
        <ele>881.6</ele>
        <time>2017-02-17T15:24:30Z</time>
      </trkpt>
      <trkpt lat="44.24591" lon="3.22137">
        <ele>881.9</ele>
        <time>2017-02-17T15:24:32Z</time>
      </trkpt>
      <trkpt lat="44.24584" lon="3.22139">
        <ele>882.6</ele>
        <time>2017-02-17T15:24:34Z</time>
      </trkpt>
      <trkpt lat="44.2458" lon="3.22141">
        <ele>883</ele>
        <time>2017-02-17T15:24:35Z</time>
      </trkpt>
      <trkpt lat="44.24577" lon="3.22139">
        <ele>883.3</ele>
        <time>2017-02-17T15:24:45Z</time>
      </trkpt>
      <trkpt lat="44.24572" lon="3.22137">
        <ele>883.7</ele>
        <time>2017-02-17T15:24:47Z</time>
      </trkpt>
      <trkpt lat="44.24569" lon="3.22137">
        <ele>884</ele>
        <time>2017-02-17T15:24:49Z</time>
      </trkpt>
      <trkpt lat="44.24567" lon="3.22137">
        <ele>884.3</ele>
        <time>2017-02-17T15:24:52Z</time>
      </trkpt>
      <trkpt lat="44.24562" lon="3.22135">
        <ele>884.6</ele>
        <time>2017-02-17T15:24:54Z</time>
      </trkpt>
      <trkpt lat="44.24557" lon="3.22136">
        <ele>884.8</ele>
        <time>2017-02-17T15:24:57Z</time>
      </trkpt>
      <trkpt lat="44.24554" lon="3.22135">
        <ele>885</ele>
        <time>2017-02-17T15:24:58Z</time>
      </trkpt>
      <trkpt lat="44.24551" lon="3.22137">
        <ele>885.3</ele>
        <time>2017-02-17T15:25:02Z</time>
      </trkpt>
      <trkpt lat="44.24548" lon="3.22139">
        <ele>885.7</ele>
        <time>2017-02-17T15:25:08Z</time>
      </trkpt>
      <trkpt lat="44.24545" lon="3.22138">
        <ele>886</ele>
        <time>2017-02-17T15:25:11Z</time>
      </trkpt>
      <trkpt lat="44.24542" lon="3.2214">
        <ele>886.3</ele>
        <time>2017-02-17T15:25:15Z</time>
      </trkpt>
      <trkpt lat="44.24539" lon="3.2214">
        <ele>886.5</ele>
        <time>2017-02-17T15:25:17Z</time>
      </trkpt>
      <trkpt lat="44.24535" lon="3.22139">
        <ele>886.7</ele>
        <time>2017-02-17T15:25:20Z</time>
      </trkpt>
      <trkpt lat="44.24532" lon="3.22135">
        <ele>887</ele>
        <time>2017-02-17T15:25:22Z</time>
      </trkpt>
      <trkpt lat="44.24529" lon="3.22131">
        <ele>887.3</ele>
        <time>2017-02-17T15:25:24Z</time>
      </trkpt>
      <trkpt lat="44.24524" lon="3.22129">
        <ele>887.9</ele>
        <time>2017-02-17T15:25:26Z</time>
      </trkpt>
      <trkpt lat="44.24528" lon="3.22132">
        <ele>888.6</ele>
        <time>2017-02-17T15:25:28Z</time>
      </trkpt>
      <trkpt lat="44.24527" lon="3.22128">
        <ele>888.9</ele>
        <time>2017-02-17T15:25:35Z</time>
      </trkpt>
      <trkpt lat="44.24523" lon="3.22129">
        <ele>889.1</ele>
        <time>2017-02-17T15:25:41Z</time>
      </trkpt>
      <trkpt lat="44.2452" lon="3.22127">
        <ele>894.3</ele>
        <time>2017-02-17T15:25:42Z</time>
      </trkpt>
      <trkpt lat="44.24516" lon="3.22128">
        <ele>894.7</ele>
        <time>2017-02-17T15:25:44Z</time>
      </trkpt>
      <trkpt lat="44.24512" lon="3.22126">
        <ele>895.2</ele>
        <time>2017-02-17T15:25:46Z</time>
      </trkpt>
      <trkpt lat="44.24509" lon="3.22127">
        <ele>895.4</ele>
        <time>2017-02-17T15:25:49Z</time>
      </trkpt>
      <trkpt lat="44.24506" lon="3.22128">
        <ele>895.6</ele>
        <time>2017-02-17T15:25:52Z</time>
      </trkpt>
      <trkpt lat="44.24502" lon="3.22127">
        <ele>895.8</ele>
        <time>2017-02-17T15:25:53Z</time>
      </trkpt>
      <trkpt lat="44.24498" lon="3.22127">
        <ele>895.9</ele>
        <time>2017-02-17T15:25:54Z</time>
      </trkpt>
      <trkpt lat="44.24495" lon="3.22126">
        <ele>895.9</ele>
        <time>2017-02-17T15:25:55Z</time>
      </trkpt>
      <trkpt lat="44.24489" lon="3.22121">
        <ele>895.8</ele>
        <time>2017-02-17T15:25:56Z</time>
      </trkpt>
      <trkpt lat="44.24486" lon="3.2212">
        <ele>895.8</ele>
        <time>2017-02-17T15:25:57Z</time>
      </trkpt>
      <trkpt lat="44.24488" lon="3.22116">
        <ele>895.8</ele>
        <time>2017-02-17T15:26:00Z</time>
      </trkpt>
      <trkpt lat="44.24491" lon="3.22115">
        <ele>895.8</ele>
        <time>2017-02-17T15:26:06Z</time>
      </trkpt>
      <trkpt lat="44.24488" lon="3.22117">
        <ele>895.7</ele>
        <time>2017-02-17T15:26:08Z</time>
      </trkpt>
      <trkpt lat="44.24485" lon="3.22115">
        <ele>895.6</ele>
        <time>2017-02-17T15:26:16Z</time>
      </trkpt>
      <trkpt lat="44.24482" lon="3.22117">
        <ele>895.5</ele>
        <time>2017-02-17T15:26:17Z</time>
      </trkpt>
      <trkpt lat="44.24479" lon="3.22115">
        <ele>895.4</ele>
        <time>2017-02-17T15:26:19Z</time>
      </trkpt>
      <trkpt lat="44.24477" lon="3.22112">
        <ele>895.3</ele>
        <time>2017-02-17T15:26:21Z</time>
      </trkpt>
      <trkpt lat="44.24472" lon="3.22112">
        <ele>895.1</ele>
        <time>2017-02-17T15:26:23Z</time>
      </trkpt>
      <trkpt lat="44.24468" lon="3.22111">
        <ele>894.9</ele>
        <time>2017-02-17T15:26:24Z</time>
      </trkpt>
      <trkpt lat="44.24466" lon="3.22111">
        <ele>894.8</ele>
        <time>2017-02-17T15:26:25Z</time>
      </trkpt>
      <trkpt lat="44.24458" lon="3.22108">
        <ele>894.4</ele>
        <time>2017-02-17T15:26:27Z</time>
      </trkpt>
      <trkpt lat="44.24454" lon="3.22107">
        <ele>894.3</ele>
        <time>2017-02-17T15:26:28Z</time>
      </trkpt>
      <trkpt lat="44.24446" lon="3.22107">
        <ele>894</ele>
        <time>2017-02-17T15:26:29Z</time>
      </trkpt>
      <trkpt lat="44.24439" lon="3.22108">
        <ele>893.9</ele>
        <time>2017-02-17T15:26:30Z</time>
      </trkpt>
      <trkpt lat="44.24435" lon="3.22106">
        <ele>893.8</ele>
        <time>2017-02-17T15:26:31Z</time>
      </trkpt>
      <trkpt lat="44.24431" lon="3.22105">
        <ele>893.7</ele>
        <time>2017-02-17T15:26:32Z</time>
      </trkpt>
      <trkpt lat="44.24424" lon="3.22104">
        <ele>893.6</ele>
        <time>2017-02-17T15:26:33Z</time>
      </trkpt>
      <trkpt lat="44.24416" lon="3.22104">
        <ele>893.4</ele>
        <time>2017-02-17T15:26:34Z</time>
      </trkpt>
      <trkpt lat="44.24409" lon="3.22106">
        <ele>893.2</ele>
        <time>2017-02-17T15:26:35Z</time>
      </trkpt>
      <trkpt lat="44.24403" lon="3.22108">
        <ele>893.1</ele>
        <time>2017-02-17T15:26:36Z</time>
      </trkpt>
      <trkpt lat="44.24397" lon="3.22107">
        <ele>892.9</ele>
        <time>2017-02-17T15:26:37Z</time>
      </trkpt>
      <trkpt lat="44.24392" lon="3.22107">
        <ele>892.6</ele>
        <time>2017-02-17T15:26:38Z</time>
      </trkpt>
      <trkpt lat="44.24384" lon="3.22108">
        <ele>892.1</ele>
        <time>2017-02-17T15:26:39Z</time>
      </trkpt>
      <trkpt lat="44.24379" lon="3.22109">
        <ele>891.8</ele>
        <time>2017-02-17T15:26:40Z</time>
      </trkpt>
      <trkpt lat="44.24344" lon="3.22113">
        <ele>890.1</ele>
        <time>2017-02-17T15:26:46Z</time>
      </trkpt>
      <trkpt lat="44.24339" lon="3.22104">
        <ele>889.7</ele>
        <time>2017-02-17T15:26:47Z</time>
      </trkpt>
      <trkpt lat="44.24334" lon="3.22096">
        <ele>889.4</ele>
        <time>2017-02-17T15:26:48Z</time>
      </trkpt>
      <trkpt lat="44.24327" lon="3.22087">
        <ele>889</ele>
        <time>2017-02-17T15:26:49Z</time>
      </trkpt>
      <trkpt lat="44.24319" lon="3.22076">
        <ele>888.3</ele>
        <time>2017-02-17T15:26:50Z</time>
      </trkpt>
      <trkpt lat="44.24312" lon="3.22068">
        <ele>887.7</ele>
        <time>2017-02-17T15:26:51Z</time>
      </trkpt>
      <trkpt lat="44.24303" lon="3.22066">
        <ele>887.1</ele>
        <time>2017-02-17T15:26:52Z</time>
      </trkpt>
      <trkpt lat="44.24295" lon="3.22067">
        <ele>886.6</ele>
        <time>2017-02-17T15:26:53Z</time>
      </trkpt>
      <trkpt lat="44.24287" lon="3.22068">
        <ele>886</ele>
        <time>2017-02-17T15:26:54Z</time>
      </trkpt>
      <trkpt lat="44.24279" lon="3.22068">
        <ele>885.5</ele>
        <time>2017-02-17T15:26:55Z</time>
      </trkpt>
      <trkpt lat="44.24273" lon="3.22069">
        <ele>885.1</ele>
        <time>2017-02-17T15:26:56Z</time>
      </trkpt>
      <trkpt lat="44.24265" lon="3.22073">
        <ele>884.6</ele>
        <time>2017-02-17T15:26:57Z</time>
      </trkpt>
      <trkpt lat="44.24259" lon="3.22076">
        <ele>884.1</ele>
        <time>2017-02-17T15:26:58Z</time>
      </trkpt>
      <trkpt lat="44.24253" lon="3.22077">
        <ele>883.6</ele>
        <time>2017-02-17T15:26:59Z</time>
      </trkpt>
      <trkpt lat="44.24247" lon="3.22076">
        <ele>883.2</ele>
        <time>2017-02-17T15:27:00Z</time>
      </trkpt>
      <trkpt lat="44.24241" lon="3.22075">
        <ele>882.7</ele>
        <time>2017-02-17T15:27:01Z</time>
      </trkpt>
      <trkpt lat="44.24233" lon="3.22073">
        <ele>882.1</ele>
        <time>2017-02-17T15:27:02Z</time>
      </trkpt>
      <trkpt lat="44.24227" lon="3.22072">
        <ele>881.6</ele>
        <time>2017-02-17T15:27:03Z</time>
      </trkpt>
      <trkpt lat="44.2422" lon="3.22071">
        <ele>881.2</ele>
        <time>2017-02-17T15:27:04Z</time>
      </trkpt>
      <trkpt lat="44.24216" lon="3.22071">
        <ele>881</ele>
        <time>2017-02-17T15:27:05Z</time>
      </trkpt>
      <trkpt lat="44.24212" lon="3.22073">
        <ele>880.9</ele>
        <time>2017-02-17T15:27:06Z</time>
      </trkpt>
      <trkpt lat="44.24209" lon="3.22078">
        <ele>880.9</ele>
        <time>2017-02-17T15:27:07Z</time>
      </trkpt>
      <trkpt lat="44.24206" lon="3.22083">
        <ele>881</ele>
        <time>2017-02-17T15:27:08Z</time>
      </trkpt>
      <trkpt lat="44.24206" lon="3.2209">
        <ele>881.1</ele>
        <time>2017-02-17T15:27:09Z</time>
      </trkpt>
      <trkpt lat="44.24208" lon="3.22097">
        <ele>881.3</ele>
        <time>2017-02-17T15:27:10Z</time>
      </trkpt>
      <trkpt lat="44.24211" lon="3.22103">
        <ele>881.7</ele>
        <time>2017-02-17T15:27:11Z</time>
      </trkpt>
      <trkpt lat="44.24213" lon="3.2211">
        <ele>882</ele>
        <time>2017-02-17T15:27:12Z</time>
      </trkpt>
      <trkpt lat="44.24215" lon="3.22115">
        <ele>882.3</ele>
        <time>2017-02-17T15:27:13Z</time>
      </trkpt>
      <trkpt lat="44.24216" lon="3.22119">
        <ele>882.6</ele>
        <time>2017-02-17T15:27:14Z</time>
      </trkpt>
      <trkpt lat="44.24216" lon="3.22124">
        <ele>882.9</ele>
        <time>2017-02-17T15:27:15Z</time>
      </trkpt>
      <trkpt lat="44.24215" lon="3.22129">
        <ele>883.3</ele>
        <time>2017-02-17T15:27:16Z</time>
      </trkpt>
      <trkpt lat="44.24214" lon="3.22133">
        <ele>883.5</ele>
        <time>2017-02-17T15:27:17Z</time>
      </trkpt>
      <trkpt lat="44.24212" lon="3.22137">
        <ele>883.7</ele>
        <time>2017-02-17T15:27:18Z</time>
      </trkpt>
      <trkpt lat="44.24209" lon="3.22141">
        <ele>883.8</ele>
        <time>2017-02-17T15:27:20Z</time>
      </trkpt>
      <trkpt lat="44.24207" lon="3.22144">
        <ele>883.9</ele>
        <time>2017-02-17T15:27:21Z</time>
      </trkpt>
      <trkpt lat="44.24204" lon="3.22147">
        <ele>884</ele>
        <time>2017-02-17T15:27:22Z</time>
      </trkpt>
      <trkpt lat="44.242" lon="3.22151">
        <ele>884.1</ele>
        <time>2017-02-17T15:27:23Z</time>
      </trkpt>
      <trkpt lat="44.24197" lon="3.22154">
        <ele>884.1</ele>
        <time>2017-02-17T15:27:24Z</time>
      </trkpt>
      <trkpt lat="44.24193" lon="3.22157">
        <ele>884.1</ele>
        <time>2017-02-17T15:27:25Z</time>
      </trkpt>
      <trkpt lat="44.24187" lon="3.22161">
        <ele>884.1</ele>
        <time>2017-02-17T15:27:26Z</time>
      </trkpt>
      <trkpt lat="44.24181" lon="3.22164">
        <ele>884.1</ele>
        <time>2017-02-17T15:27:27Z</time>
      </trkpt>
      <trkpt lat="44.24175" lon="3.22167">
        <ele>884</ele>
        <time>2017-02-17T15:27:28Z</time>
      </trkpt>
      <trkpt lat="44.2417" lon="3.22165">
        <ele>884</ele>
        <time>2017-02-17T15:27:29Z</time>
      </trkpt>
      <trkpt lat="44.24166" lon="3.22163">
        <ele>883.9</ele>
        <time>2017-02-17T15:27:30Z</time>
      </trkpt>
      <trkpt lat="44.24162" lon="3.2216">
        <ele>883.9</ele>
        <time>2017-02-17T15:27:31Z</time>
      </trkpt>
      <trkpt lat="44.24159" lon="3.22156">
        <ele>883.8</ele>
        <time>2017-02-17T15:27:32Z</time>
      </trkpt>
      <trkpt lat="44.24157" lon="3.2215">
        <ele>883.6</ele>
        <time>2017-02-17T15:27:33Z</time>
      </trkpt>
      <trkpt lat="44.24155" lon="3.22145">
        <ele>883.5</ele>
        <time>2017-02-17T15:27:34Z</time>
      </trkpt>
      <trkpt lat="44.24154" lon="3.22142">
        <ele>883.3</ele>
        <time>2017-02-17T15:27:35Z</time>
      </trkpt>
      <trkpt lat="44.24152" lon="3.22135">
        <ele>883.1</ele>
        <time>2017-02-17T15:27:37Z</time>
      </trkpt>
      <trkpt lat="44.2415" lon="3.22129">
        <ele>883.1</ele>
        <time>2017-02-17T15:27:39Z</time>
      </trkpt>
      <trkpt lat="44.24148" lon="3.22124">
        <ele>883.1</ele>
        <time>2017-02-17T15:27:41Z</time>
      </trkpt>
      <trkpt lat="44.24145" lon="3.2212">
        <ele>883.1</ele>
        <time>2017-02-17T15:27:43Z</time>
      </trkpt>
      <trkpt lat="44.24142" lon="3.22116">
        <ele>883.2</ele>
        <time>2017-02-17T15:27:45Z</time>
      </trkpt>
      <trkpt lat="44.2414" lon="3.22111">
        <ele>883.4</ele>
        <time>2017-02-17T15:27:47Z</time>
      </trkpt>
      <trkpt lat="44.24137" lon="3.22108">
        <ele>883.7</ele>
        <time>2017-02-17T15:27:48Z</time>
      </trkpt>
      <trkpt lat="44.24134" lon="3.22102">
        <ele>884</ele>
        <time>2017-02-17T15:27:50Z</time>
      </trkpt>
      <trkpt lat="44.24132" lon="3.22097">
        <ele>884.3</ele>
        <time>2017-02-17T15:27:51Z</time>
      </trkpt>
      <trkpt lat="44.24129" lon="3.22092">
        <ele>884.4</ele>
        <time>2017-02-17T15:27:52Z</time>
      </trkpt>
      <trkpt lat="44.24127" lon="3.22088">
        <ele>884.5</ele>
        <time>2017-02-17T15:27:54Z</time>
      </trkpt>
      <trkpt lat="44.24124" lon="3.22085">
        <ele>884.6</ele>
        <time>2017-02-17T15:27:55Z</time>
      </trkpt>
      <trkpt lat="44.24118" lon="3.2208">
        <ele>884.7</ele>
        <time>2017-02-17T15:27:57Z</time>
      </trkpt>
      <trkpt lat="44.24112" lon="3.22078">
        <ele>884.8</ele>
        <time>2017-02-17T15:27:58Z</time>
      </trkpt>
      <trkpt lat="44.24107" lon="3.22078">
        <ele>884.8</ele>
        <time>2017-02-17T15:27:59Z</time>
      </trkpt>
      <trkpt lat="44.24102" lon="3.22081">
        <ele>884.9</ele>
        <time>2017-02-17T15:28:00Z</time>
      </trkpt>
      <trkpt lat="44.24099" lon="3.22085">
        <ele>884.9</ele>
        <time>2017-02-17T15:28:01Z</time>
      </trkpt>
      <trkpt lat="44.24096" lon="3.22091">
        <ele>885</ele>
        <time>2017-02-17T15:28:02Z</time>
      </trkpt>
      <trkpt lat="44.24095" lon="3.22097">
        <ele>885.1</ele>
        <time>2017-02-17T15:28:03Z</time>
      </trkpt>
      <trkpt lat="44.24094" lon="3.22102">
        <ele>885.2</ele>
        <time>2017-02-17T15:28:04Z</time>
      </trkpt>
      <trkpt lat="44.24094" lon="3.22106">
        <ele>885.2</ele>
        <time>2017-02-17T15:28:05Z</time>
      </trkpt>
      <trkpt lat="44.24094" lon="3.2211">
        <ele>885.3</ele>
        <time>2017-02-17T15:28:06Z</time>
      </trkpt>
      <trkpt lat="44.24093" lon="3.22116">
        <ele>885.5</ele>
        <time>2017-02-17T15:28:07Z</time>
      </trkpt>
      <trkpt lat="44.24093" lon="3.2212">
        <ele>885.7</ele>
        <time>2017-02-17T15:28:08Z</time>
      </trkpt>
      <trkpt lat="44.24094" lon="3.22124">
        <ele>885.8</ele>
        <time>2017-02-17T15:28:09Z</time>
      </trkpt>
      <trkpt lat="44.24096" lon="3.22131">
        <ele>886.1</ele>
        <time>2017-02-17T15:28:11Z</time>
      </trkpt>
      <trkpt lat="44.24098" lon="3.22137">
        <ele>886.4</ele>
        <time>2017-02-17T15:28:12Z</time>
      </trkpt>
      <trkpt lat="44.24099" lon="3.22143">
        <ele>886.6</ele>
        <time>2017-02-17T15:28:13Z</time>
      </trkpt>
      <trkpt lat="44.24101" lon="3.22147">
        <ele>886.7</ele>
        <time>2017-02-17T15:28:14Z</time>
      </trkpt>
      <trkpt lat="44.24103" lon="3.2215">
        <ele>886.7</ele>
        <time>2017-02-17T15:28:15Z</time>
      </trkpt>
      <trkpt lat="44.24105" lon="3.22153">
        <ele>886.8</ele>
        <time>2017-02-17T15:28:16Z</time>
      </trkpt>
      <trkpt lat="44.24107" lon="3.22158">
        <ele>886.9</ele>
        <time>2017-02-17T15:28:17Z</time>
      </trkpt>
      <trkpt lat="44.2411" lon="3.22163">
        <ele>887</ele>
        <time>2017-02-17T15:28:18Z</time>
      </trkpt>
      <trkpt lat="44.24112" lon="3.22169">
        <ele>887</ele>
        <time>2017-02-17T15:28:19Z</time>
      </trkpt>
      <trkpt lat="44.24114" lon="3.22174">
        <ele>887</ele>
        <time>2017-02-17T15:28:20Z</time>
      </trkpt>
      <trkpt lat="44.24116" lon="3.2218">
        <ele>887</ele>
        <time>2017-02-17T15:28:21Z</time>
      </trkpt>
      <trkpt lat="44.24118" lon="3.22186">
        <ele>887.1</ele>
        <time>2017-02-17T15:28:22Z</time>
      </trkpt>
      <trkpt lat="44.24121" lon="3.22192">
        <ele>887.1</ele>
        <time>2017-02-17T15:28:23Z</time>
      </trkpt>
      <trkpt lat="44.24122" lon="3.222">
        <ele>887.1</ele>
        <time>2017-02-17T15:28:24Z</time>
      </trkpt>
      <trkpt lat="44.24123" lon="3.22206">
        <ele>887.1</ele>
        <time>2017-02-17T15:28:25Z</time>
      </trkpt>
      <trkpt lat="44.24122" lon="3.2221">
        <ele>887.1</ele>
        <time>2017-02-17T15:28:26Z</time>
      </trkpt>
      <trkpt lat="44.2412" lon="3.22214">
        <ele>887.1</ele>
        <time>2017-02-17T15:28:27Z</time>
      </trkpt>
      <trkpt lat="44.24118" lon="3.22218">
        <ele>887.1</ele>
        <time>2017-02-17T15:28:28Z</time>
      </trkpt>
      <trkpt lat="44.24103" lon="3.2224">
        <ele>887.3</ele>
        <time>2017-02-17T15:28:43Z</time>
      </trkpt>
      <trkpt lat="44.24097" lon="3.22241">
        <ele>887.3</ele>
        <time>2017-02-17T15:28:47Z</time>
      </trkpt>
      <trkpt lat="44.24093" lon="3.22242">
        <ele>887.4</ele>
        <time>2017-02-17T15:28:48Z</time>
      </trkpt>
      <trkpt lat="44.24089" lon="3.22243">
        <ele>887.4</ele>
        <time>2017-02-17T15:28:49Z</time>
      </trkpt>
      <trkpt lat="44.24086" lon="3.22244">
        <ele>887.5</ele>
        <time>2017-02-17T15:28:50Z</time>
      </trkpt>
      <trkpt lat="44.24083" lon="3.22244">
        <ele>887.5</ele>
        <time>2017-02-17T15:28:51Z</time>
      </trkpt>
      <trkpt lat="44.2408" lon="3.22243">
        <ele>887.5</ele>
        <time>2017-02-17T15:28:52Z</time>
      </trkpt>
      <trkpt lat="44.24012" lon="3.22237">
        <ele>889.2</ele>
        <time>2017-02-17T15:29:04Z</time>
      </trkpt>
      <trkpt lat="44.24005" lon="3.22238">
        <ele>889</ele>
        <time>2017-02-17T15:29:07Z</time>
      </trkpt>
      <trkpt lat="44.24" lon="3.22242">
        <ele>888.7</ele>
        <time>2017-02-17T15:29:08Z</time>
      </trkpt>
      <trkpt lat="44.23996" lon="3.22247">
        <ele>888.4</ele>
        <time>2017-02-17T15:29:09Z</time>
      </trkpt>
      <trkpt lat="44.23991" lon="3.22251">
        <ele>888.1</ele>
        <time>2017-02-17T15:29:10Z</time>
      </trkpt>
      <trkpt lat="44.23984" lon="3.22251">
        <ele>887.6</ele>
        <time>2017-02-17T15:29:11Z</time>
      </trkpt>
      <trkpt lat="44.23979" lon="3.2225">
        <ele>887.2</ele>
        <time>2017-02-17T15:29:12Z</time>
      </trkpt>
      <trkpt lat="44.23976" lon="3.22249">
        <ele>887</ele>
        <time>2017-02-17T15:29:13Z</time>
      </trkpt>
      <trkpt lat="44.23976" lon="3.22239">
        <ele>886.4</ele>
        <time>2017-02-17T15:29:15Z</time>
      </trkpt>
      <trkpt lat="44.23973" lon="3.22233">
        <ele>886</ele>
        <time>2017-02-17T15:29:16Z</time>
      </trkpt>
      <trkpt lat="44.2397" lon="3.22227">
        <ele>885.6</ele>
        <time>2017-02-17T15:29:17Z</time>
      </trkpt>
      <trkpt lat="44.23966" lon="3.22222">
        <ele>885.2</ele>
        <time>2017-02-17T15:29:18Z</time>
      </trkpt>
      <trkpt lat="44.23961" lon="3.22214">
        <ele>884.6</ele>
        <time>2017-02-17T15:29:19Z</time>
      </trkpt>
      <trkpt lat="44.23954" lon="3.22206">
        <ele>883.9</ele>
        <time>2017-02-17T15:29:20Z</time>
      </trkpt>
      <trkpt lat="44.23951" lon="3.22201">
        <ele>883.7</ele>
        <time>2017-02-17T15:29:21Z</time>
      </trkpt>
      <trkpt lat="44.23948" lon="3.22201">
        <ele>883.6</ele>
        <time>2017-02-17T15:29:22Z</time>
      </trkpt>
      <trkpt lat="44.23944" lon="3.222">
        <ele>883.4</ele>
        <time>2017-02-17T15:29:23Z</time>
      </trkpt>
      <trkpt lat="44.23941" lon="3.22198">
        <ele>883.3</ele>
        <time>2017-02-17T15:29:24Z</time>
      </trkpt>
      <trkpt lat="44.23938" lon="3.22197">
        <ele>883.3</ele>
        <time>2017-02-17T15:29:25Z</time>
      </trkpt>
      <trkpt lat="44.23935" lon="3.22197">
        <ele>883.3</ele>
        <time>2017-02-17T15:29:26Z</time>
      </trkpt>
      <trkpt lat="44.23933" lon="3.22197">
        <ele>883.3</ele>
        <time>2017-02-17T15:29:27Z</time>
      </trkpt>
      <trkpt lat="44.2393" lon="3.22197">
        <ele>883.3</ele>
        <time>2017-02-17T15:29:28Z</time>
      </trkpt>
      <trkpt lat="44.23924" lon="3.22195">
        <ele>883.3</ele>
        <time>2017-02-17T15:29:30Z</time>
      </trkpt>
      <trkpt lat="44.23919" lon="3.22196">
        <ele>883.4</ele>
        <time>2017-02-17T15:29:32Z</time>
      </trkpt>
      <trkpt lat="44.23916" lon="3.22197">
        <ele>883.4</ele>
        <time>2017-02-17T15:29:33Z</time>
      </trkpt>
      <trkpt lat="44.2391" lon="3.22194">
        <ele>883.5</ele>
        <time>2017-02-17T15:29:35Z</time>
      </trkpt>
      <trkpt lat="44.23906" lon="3.22193">
        <ele>883.6</ele>
        <time>2017-02-17T15:29:36Z</time>
      </trkpt>
      <trkpt lat="44.23901" lon="3.22193">
        <ele>883.6</ele>
        <time>2017-02-17T15:29:37Z</time>
      </trkpt>
      <trkpt lat="44.23897" lon="3.22192">
        <ele>883.8</ele>
        <time>2017-02-17T15:29:38Z</time>
      </trkpt>
      <trkpt lat="44.23892" lon="3.22192">
        <ele>883.9</ele>
        <time>2017-02-17T15:29:39Z</time>
      </trkpt>
      <trkpt lat="44.23888" lon="3.22193">
        <ele>884</ele>
        <time>2017-02-17T15:29:40Z</time>
      </trkpt>
      <trkpt lat="44.23884" lon="3.22194">
        <ele>884.2</ele>
        <time>2017-02-17T15:29:41Z</time>
      </trkpt>
      <trkpt lat="44.23877" lon="3.22194">
        <ele>884.5</ele>
        <time>2017-02-17T15:29:42Z</time>
      </trkpt>
      <trkpt lat="44.2387" lon="3.22195">
        <ele>884.6</ele>
        <time>2017-02-17T15:29:43Z</time>
      </trkpt>
      <trkpt lat="44.2386" lon="3.22198">
        <ele>884.7</ele>
        <time>2017-02-17T15:29:44Z</time>
      </trkpt>
      <trkpt lat="44.23837" lon="3.22209">
        <ele>883.8</ele>
        <time>2017-02-17T15:29:47Z</time>
      </trkpt>
      <trkpt lat="44.23831" lon="3.22213">
        <ele>883.5</ele>
        <time>2017-02-17T15:29:48Z</time>
      </trkpt>
      <trkpt lat="44.23823" lon="3.22217">
        <ele>882.8</ele>
        <time>2017-02-17T15:29:49Z</time>
      </trkpt>
      <trkpt lat="44.23814" lon="3.22222">
        <ele>882</ele>
        <time>2017-02-17T15:29:50Z</time>
      </trkpt>
      <trkpt lat="44.23806" lon="3.22225">
        <ele>881.3</ele>
        <time>2017-02-17T15:29:51Z</time>
      </trkpt>
      <trkpt lat="44.23797" lon="3.22227">
        <ele>880.6</ele>
        <time>2017-02-17T15:29:52Z</time>
      </trkpt>
      <trkpt lat="44.23787" lon="3.22229">
        <ele>879.7</ele>
        <time>2017-02-17T15:29:53Z</time>
      </trkpt>
      <trkpt lat="44.2378" lon="3.22228">
        <ele>878.9</ele>
        <time>2017-02-17T15:29:54Z</time>
      </trkpt>
      <trkpt lat="44.23773" lon="3.22225">
        <ele>878.2</ele>
        <time>2017-02-17T15:29:55Z</time>
      </trkpt>
      <trkpt lat="44.2377" lon="3.22225">
        <ele>877.9</ele>
        <time>2017-02-17T15:29:56Z</time>
      </trkpt>
      <trkpt lat="44.23765" lon="3.22215">
        <ele>876.8</ele>
        <time>2017-02-17T15:29:59Z</time>
      </trkpt>
      <trkpt lat="44.23764" lon="3.22208">
        <ele>876.2</ele>
        <time>2017-02-17T15:30:00Z</time>
      </trkpt>
      <trkpt lat="44.23764" lon="3.22203">
        <ele>875.8</ele>
        <time>2017-02-17T15:30:02Z</time>
      </trkpt>
      <trkpt lat="44.23763" lon="3.22195">
        <ele>875.5</ele>
        <time>2017-02-17T15:30:04Z</time>
      </trkpt>
      <trkpt lat="44.23762" lon="3.22191">
        <ele>875.6</ele>
        <time>2017-02-17T15:30:05Z</time>
      </trkpt>
      <trkpt lat="44.23763" lon="3.22186">
        <ele>875.7</ele>
        <time>2017-02-17T15:30:06Z</time>
      </trkpt>
      <trkpt lat="44.23764" lon="3.22182">
        <ele>875.9</ele>
        <time>2017-02-17T15:30:07Z</time>
      </trkpt>
      <trkpt lat="44.23762" lon="3.22176">
        <ele>876.4</ele>
        <time>2017-02-17T15:30:09Z</time>
      </trkpt>
      <trkpt lat="44.2376" lon="3.22169">
        <ele>877</ele>
        <time>2017-02-17T15:30:11Z</time>
      </trkpt>
      <trkpt lat="44.23758" lon="3.22163">
        <ele>877.6</ele>
        <time>2017-02-17T15:30:13Z</time>
      </trkpt>
      <trkpt lat="44.23757" lon="3.22157">
        <ele>878.1</ele>
        <time>2017-02-17T15:30:15Z</time>
      </trkpt>
      <trkpt lat="44.23756" lon="3.22152">
        <ele>878.4</ele>
        <time>2017-02-17T15:30:17Z</time>
      </trkpt>
      <trkpt lat="44.23755" lon="3.22148">
        <ele>878.7</ele>
        <time>2017-02-17T15:30:19Z</time>
      </trkpt>
      <trkpt lat="44.23754" lon="3.22142">
        <ele>879</ele>
        <time>2017-02-17T15:30:21Z</time>
      </trkpt>
      <trkpt lat="44.23752" lon="3.22135">
        <ele>879.2</ele>
        <time>2017-02-17T15:30:23Z</time>
      </trkpt>
      <trkpt lat="44.2375" lon="3.22129">
        <ele>879.4</ele>
        <time>2017-02-17T15:30:25Z</time>
      </trkpt>
      <trkpt lat="44.23747" lon="3.22123">
        <ele>879.7</ele>
        <time>2017-02-17T15:30:27Z</time>
      </trkpt>
      <trkpt lat="44.23744" lon="3.22122">
        <ele>880.1</ele>
        <time>2017-02-17T15:30:28Z</time>
      </trkpt>
      <trkpt lat="44.23739" lon="3.2212">
        <ele>880.5</ele>
        <time>2017-02-17T15:30:30Z</time>
      </trkpt>
      <trkpt lat="44.23736" lon="3.22119">
        <ele>880.7</ele>
        <time>2017-02-17T15:30:31Z</time>
      </trkpt>
      <trkpt lat="44.23731" lon="3.22119">
        <ele>880.9</ele>
        <time>2017-02-17T15:30:33Z</time>
      </trkpt>
      <trkpt lat="44.23728" lon="3.22119">
        <ele>881</ele>
        <time>2017-02-17T15:30:34Z</time>
      </trkpt>
      <trkpt lat="44.23723" lon="3.22121">
        <ele>881.1</ele>
        <time>2017-02-17T15:30:36Z</time>
      </trkpt>
      <trkpt lat="44.23718" lon="3.22122">
        <ele>881.2</ele>
        <time>2017-02-17T15:30:38Z</time>
      </trkpt>
      <trkpt lat="44.23715" lon="3.22123">
        <ele>881.2</ele>
        <time>2017-02-17T15:30:39Z</time>
      </trkpt>
      <trkpt lat="44.2371" lon="3.22123">
        <ele>881.3</ele>
        <time>2017-02-17T15:30:41Z</time>
      </trkpt>
      <trkpt lat="44.23707" lon="3.22122">
        <ele>881.3</ele>
        <time>2017-02-17T15:30:42Z</time>
      </trkpt>
      <trkpt lat="44.237" lon="3.2212">
        <ele>881.3</ele>
        <time>2017-02-17T15:30:46Z</time>
      </trkpt>
      <trkpt lat="44.23697" lon="3.22118">
        <ele>881.3</ele>
        <time>2017-02-17T15:30:47Z</time>
      </trkpt>
      <trkpt lat="44.23692" lon="3.22113">
        <ele>881.3</ele>
        <time>2017-02-17T15:30:49Z</time>
      </trkpt>
      <trkpt lat="44.2369" lon="3.22111">
        <ele>881.3</ele>
        <time>2017-02-17T15:30:50Z</time>
      </trkpt>
      <trkpt lat="44.23688" lon="3.22106">
        <ele>881.4</ele>
        <time>2017-02-17T15:30:53Z</time>
      </trkpt>
      <trkpt lat="44.23685" lon="3.22102">
        <ele>881.4</ele>
        <time>2017-02-17T15:30:54Z</time>
      </trkpt>
      <trkpt lat="44.23682" lon="3.22098">
        <ele>881.4</ele>
        <time>2017-02-17T15:30:55Z</time>
      </trkpt>
      <trkpt lat="44.23678" lon="3.22096">
        <ele>881.4</ele>
        <time>2017-02-17T15:30:56Z</time>
      </trkpt>
      <trkpt lat="44.23675" lon="3.22092">
        <ele>881.5</ele>
        <time>2017-02-17T15:30:57Z</time>
      </trkpt>
      <trkpt lat="44.23673" lon="3.22089">
        <ele>881.5</ele>
        <time>2017-02-17T15:30:58Z</time>
      </trkpt>
      <trkpt lat="44.2367" lon="3.22085">
        <ele>881.6</ele>
        <time>2017-02-17T15:31:00Z</time>
      </trkpt>
      <trkpt lat="44.23663" lon="3.22085">
        <ele>881.7</ele>
        <time>2017-02-17T15:31:07Z</time>
      </trkpt>
      <trkpt lat="44.2366" lon="3.22083">
        <ele>881.7</ele>
        <time>2017-02-17T15:31:08Z</time>
      </trkpt>
      <trkpt lat="44.23655" lon="3.2208">
        <ele>881.8</ele>
        <time>2017-02-17T15:31:09Z</time>
      </trkpt>
      <trkpt lat="44.23648" lon="3.22075">
        <ele>882.1</ele>
        <time>2017-02-17T15:31:10Z</time>
      </trkpt>
      <trkpt lat="44.23643" lon="3.22069">
        <ele>882.5</ele>
        <time>2017-02-17T15:31:11Z</time>
      </trkpt>
      <trkpt lat="44.23639" lon="3.22064">
        <ele>883.1</ele>
        <time>2017-02-17T15:31:12Z</time>
      </trkpt>
      <trkpt lat="44.23634" lon="3.22062">
        <ele>883.5</ele>
        <time>2017-02-17T15:31:14Z</time>
      </trkpt>
      <trkpt lat="44.23629" lon="3.2206">
        <ele>883.7</ele>
        <time>2017-02-17T15:31:20Z</time>
      </trkpt>
      <trkpt lat="44.23623" lon="3.22018">
        <ele>887.5</ele>
        <time>2017-02-17T15:31:34Z</time>
      </trkpt>
      <trkpt lat="44.2362" lon="3.22015">
        <ele>887.8</ele>
        <time>2017-02-17T15:31:35Z</time>
      </trkpt>
      <trkpt lat="44.23615" lon="3.22011">
        <ele>888.4</ele>
        <time>2017-02-17T15:31:37Z</time>
      </trkpt>
      <trkpt lat="44.23612" lon="3.22008">
        <ele>888.9</ele>
        <time>2017-02-17T15:31:39Z</time>
      </trkpt>
      <trkpt lat="44.23607" lon="3.22006">
        <ele>889.6</ele>
        <time>2017-02-17T15:31:45Z</time>
      </trkpt>
      <trkpt lat="44.23603" lon="3.22001">
        <ele>890.4</ele>
        <time>2017-02-17T15:31:49Z</time>
      </trkpt>
      <trkpt lat="44.23587" lon="3.22008">
        <ele>892.1</ele>
        <time>2017-02-17T15:31:57Z</time>
      </trkpt>
      <trkpt lat="44.23576" lon="3.22004">
        <ele>893.4</ele>
        <time>2017-02-17T15:32:02Z</time>
      </trkpt>
      <trkpt lat="44.2357" lon="3.21999">
        <ele>894.5</ele>
        <time>2017-02-17T15:32:04Z</time>
      </trkpt>
      <trkpt lat="44.23565" lon="3.21998">
        <ele>895.7</ele>
        <time>2017-02-17T15:32:06Z</time>
      </trkpt>
      <trkpt lat="44.23561" lon="3.21996">
        <ele>897.3</ele>
        <time>2017-02-17T15:32:08Z</time>
      </trkpt>
      <trkpt lat="44.23557" lon="3.21996">
        <ele>899.1</ele>
        <time>2017-02-17T15:32:12Z</time>
      </trkpt>
      <trkpt lat="44.23554" lon="3.21995">
        <ele>900.6</ele>
        <time>2017-02-17T15:32:15Z</time>
      </trkpt>
      <trkpt lat="44.2355" lon="3.21996">
        <ele>903</ele>
        <time>2017-02-17T15:32:18Z</time>
      </trkpt>
      <trkpt lat="44.23535" lon="3.22014">
        <ele>901</ele>
        <time>2017-02-17T15:33:59Z</time>
      </trkpt>
      <trkpt lat="44.23534" lon="3.2201">
        <ele>900.7</ele>
        <time>2017-02-17T15:34:00Z</time>
      </trkpt>
      <trkpt lat="44.23532" lon="3.21999">
        <ele>899.9</ele>
        <time>2017-02-17T15:34:05Z</time>
      </trkpt>
      <trkpt lat="44.23533" lon="3.22011">
        <ele>899</ele>
        <time>2017-02-17T15:34:35Z</time>
      </trkpt>
      <trkpt lat="44.23536" lon="3.22012">
        <ele>898.5</ele>
        <time>2017-02-17T15:34:38Z</time>
      </trkpt>
      <trkpt lat="44.23532" lon="3.22014">
        <ele>897.9</ele>
        <time>2017-02-17T15:34:42Z</time>
      </trkpt>
      <trkpt lat="44.23528" lon="3.22014">
        <ele>897.3</ele>
        <time>2017-02-17T15:34:43Z</time>
      </trkpt>
      <trkpt lat="44.23524" lon="3.22015">
        <ele>896.7</ele>
        <time>2017-02-17T15:34:45Z</time>
      </trkpt>
      <trkpt lat="44.2352" lon="3.22017">
        <ele>895.9</ele>
        <time>2017-02-17T15:34:47Z</time>
      </trkpt>
      <trkpt lat="44.23515" lon="3.22019">
        <ele>895.1</ele>
        <time>2017-02-17T15:34:48Z</time>
      </trkpt>
      <trkpt lat="44.23511" lon="3.22022">
        <ele>894.3</ele>
        <time>2017-02-17T15:34:49Z</time>
      </trkpt>
      <trkpt lat="44.23507" lon="3.22024">
        <ele>893.5</ele>
        <time>2017-02-17T15:34:50Z</time>
      </trkpt>
      <trkpt lat="44.23501" lon="3.22026">
        <ele>892.5</ele>
        <time>2017-02-17T15:34:51Z</time>
      </trkpt>
      <trkpt lat="44.23492" lon="3.22029">
        <ele>890.9</ele>
        <time>2017-02-17T15:34:52Z</time>
      </trkpt>
      <trkpt lat="44.23485" lon="3.22034">
        <ele>889.7</ele>
        <time>2017-02-17T15:34:53Z</time>
      </trkpt>
      <trkpt lat="44.23479" lon="3.22037">
        <ele>888.5</ele>
        <time>2017-02-17T15:34:54Z</time>
      </trkpt>
      <trkpt lat="44.23473" lon="3.22039">
        <ele>887.6</ele>
        <time>2017-02-17T15:34:55Z</time>
      </trkpt>
      <trkpt lat="44.23468" lon="3.2204">
        <ele>886.9</ele>
        <time>2017-02-17T15:34:56Z</time>
      </trkpt>
      <trkpt lat="44.23465" lon="3.22041">
        <ele>886.4</ele>
        <time>2017-02-17T15:34:57Z</time>
      </trkpt>
      <trkpt lat="44.23461" lon="3.2204">
        <ele>885.9</ele>
        <time>2017-02-17T15:34:58Z</time>
      </trkpt>
      <trkpt lat="44.23457" lon="3.22039">
        <ele>885.2</ele>
        <time>2017-02-17T15:34:59Z</time>
      </trkpt>
      <trkpt lat="44.23453" lon="3.22037">
        <ele>884.5</ele>
        <time>2017-02-17T15:35:00Z</time>
      </trkpt>
      <trkpt lat="44.23449" lon="3.22035">
        <ele>883.7</ele>
        <time>2017-02-17T15:35:01Z</time>
      </trkpt>
      <trkpt lat="44.23446" lon="3.22032">
        <ele>882.7</ele>
        <time>2017-02-17T15:35:02Z</time>
      </trkpt>
      <trkpt lat="44.23442" lon="3.22029">
        <ele>879.1</ele>
        <time>2017-02-17T15:35:03Z</time>
      </trkpt>
      <trkpt lat="44.23438" lon="3.22026">
        <ele>878.4</ele>
        <time>2017-02-17T15:35:05Z</time>
      </trkpt>
      <trkpt lat="44.23435" lon="3.22024">
        <ele>877.8</ele>
        <time>2017-02-17T15:35:06Z</time>
      </trkpt>
      <trkpt lat="44.23431" lon="3.22022">
        <ele>877.3</ele>
        <time>2017-02-17T15:35:07Z</time>
      </trkpt>
      <trkpt lat="44.23427" lon="3.2202">
        <ele>877</ele>
        <time>2017-02-17T15:35:08Z</time>
      </trkpt>
      <trkpt lat="44.23424" lon="3.22019">
        <ele>876.7</ele>
        <time>2017-02-17T15:35:09Z</time>
      </trkpt>
      <trkpt lat="44.23419" lon="3.22015">
        <ele>876.3</ele>
        <time>2017-02-17T15:35:11Z</time>
      </trkpt>
      <trkpt lat="44.23415" lon="3.22012">
        <ele>876.1</ele>
        <time>2017-02-17T15:35:13Z</time>
      </trkpt>
      <trkpt lat="44.2341" lon="3.22011">
        <ele>876</ele>
        <time>2017-02-17T15:35:15Z</time>
      </trkpt>
      <trkpt lat="44.23408" lon="3.22007">
        <ele>875.9</ele>
        <time>2017-02-17T15:35:18Z</time>
      </trkpt>
      <trkpt lat="44.23405" lon="3.22005">
        <ele>875.8</ele>
        <time>2017-02-17T15:35:21Z</time>
      </trkpt>
      <trkpt lat="44.23401" lon="3.22008">
        <ele>875.8</ele>
        <time>2017-02-17T15:35:31Z</time>
      </trkpt>
      <trkpt lat="44.23404" lon="3.2201">
        <ele>875.8</ele>
        <time>2017-02-17T15:35:40Z</time>
      </trkpt>
      <trkpt lat="44.23407" lon="3.22012">
        <ele>875.9</ele>
        <time>2017-02-17T15:35:43Z</time>
      </trkpt>
      <trkpt lat="44.23411" lon="3.22015">
        <ele>876</ele>
        <time>2017-02-17T15:35:45Z</time>
      </trkpt>
      <trkpt lat="44.23414" lon="3.22018">
        <ele>876.1</ele>
        <time>2017-02-17T15:35:47Z</time>
      </trkpt>
      <trkpt lat="44.23417" lon="3.22018">
        <ele>876.2</ele>
        <time>2017-02-17T15:35:48Z</time>
      </trkpt>
      <trkpt lat="44.23423" lon="3.2202">
        <ele>876.6</ele>
        <time>2017-02-17T15:35:50Z</time>
      </trkpt>
      <trkpt lat="44.23426" lon="3.22024">
        <ele>876.9</ele>
        <time>2017-02-17T15:35:52Z</time>
      </trkpt>
      <trkpt lat="44.23428" lon="3.22027">
        <ele>877</ele>
        <time>2017-02-17T15:35:55Z</time>
      </trkpt>
      <trkpt lat="44.23426" lon="3.22031">
        <ele>876.6</ele>
        <time>2017-02-17T15:35:57Z</time>
      </trkpt>
      <trkpt lat="44.23422" lon="3.22039">
        <ele>875.8</ele>
        <time>2017-02-17T15:36:00Z</time>
      </trkpt>
      <trkpt lat="44.23423" lon="3.22043">
        <ele>875.5</ele>
        <time>2017-02-17T15:36:02Z</time>
      </trkpt>
      <trkpt lat="44.2342" lon="3.22046">
        <ele>875</ele>
        <time>2017-02-17T15:36:03Z</time>
      </trkpt>
      <trkpt lat="44.23415" lon="3.22051">
        <ele>874.3</ele>
        <time>2017-02-17T15:36:05Z</time>
      </trkpt>
      <trkpt lat="44.23412" lon="3.22052">
        <ele>873.2</ele>
        <time>2017-02-17T15:36:06Z</time>
      </trkpt>
      <trkpt lat="44.23406" lon="3.22061">
        <ele>869.5</ele>
        <time>2017-02-17T15:36:09Z</time>
      </trkpt>
      <trkpt lat="44.23401" lon="3.22063">
        <ele>867.9</ele>
        <time>2017-02-17T15:36:11Z</time>
      </trkpt>
      <trkpt lat="44.23397" lon="3.22064">
        <ele>866.5</ele>
        <time>2017-02-17T15:36:12Z</time>
      </trkpt>
      <trkpt lat="44.23393" lon="3.22065">
        <ele>865.2</ele>
        <time>2017-02-17T15:36:13Z</time>
      </trkpt>
      <trkpt lat="44.23389" lon="3.22068">
        <ele>863.9</ele>
        <time>2017-02-17T15:36:14Z</time>
      </trkpt>
      <trkpt lat="44.23381" lon="3.22072">
        <ele>861.7</ele>
        <time>2017-02-17T15:36:15Z</time>
      </trkpt>
      <trkpt lat="44.23377" lon="3.22074">
        <ele>860.4</ele>
        <time>2017-02-17T15:36:16Z</time>
      </trkpt>
      <trkpt lat="44.23372" lon="3.22076">
        <ele>859.2</ele>
        <time>2017-02-17T15:36:17Z</time>
      </trkpt>
      <trkpt lat="44.23368" lon="3.22077">
        <ele>857.9</ele>
        <time>2017-02-17T15:36:18Z</time>
      </trkpt>
      <trkpt lat="44.23364" lon="3.22077">
        <ele>856.9</ele>
        <time>2017-02-17T15:36:19Z</time>
      </trkpt>
      <trkpt lat="44.2336" lon="3.22079">
        <ele>856</ele>
        <time>2017-02-17T15:36:20Z</time>
      </trkpt>
      <trkpt lat="44.23357" lon="3.22081">
        <ele>855.1</ele>
        <time>2017-02-17T15:36:21Z</time>
      </trkpt>
      <trkpt lat="44.23355" lon="3.22083">
        <ele>854.5</ele>
        <time>2017-02-17T15:36:22Z</time>
      </trkpt>
      <trkpt lat="44.23352" lon="3.2208">
        <ele>853.8</ele>
        <time>2017-02-17T15:36:25Z</time>
      </trkpt>
      <trkpt lat="44.23348" lon="3.22079">
        <ele>852.8</ele>
        <time>2017-02-17T15:36:29Z</time>
      </trkpt>
      <trkpt lat="44.23342" lon="3.22079">
        <ele>851.3</ele>
        <time>2017-02-17T15:36:31Z</time>
      </trkpt>
      <trkpt lat="44.23304" lon="3.22095">
        <ele>842.1</ele>
        <time>2017-02-17T15:36:40Z</time>
      </trkpt>
      <trkpt lat="44.23296" lon="3.22099">
        <ele>840.2</ele>
        <time>2017-02-17T15:36:41Z</time>
      </trkpt>
      <trkpt lat="44.23264" lon="3.22111">
        <ele>832.6</ele>
        <time>2017-02-17T15:36:46Z</time>
      </trkpt>
      <trkpt lat="44.2326" lon="3.22105">
        <ele>831.1</ele>
        <time>2017-02-17T15:36:47Z</time>
      </trkpt>
      <trkpt lat="44.23258" lon="3.22098">
        <ele>829.7</ele>
        <time>2017-02-17T15:36:48Z</time>
      </trkpt>
      <trkpt lat="44.23256" lon="3.22092">
        <ele>828.2</ele>
        <time>2017-02-17T15:36:49Z</time>
      </trkpt>
      <trkpt lat="44.23255" lon="3.22087">
        <ele>826.9</ele>
        <time>2017-02-17T15:36:50Z</time>
      </trkpt>
      <trkpt lat="44.23253" lon="3.22083">
        <ele>825.5</ele>
        <time>2017-02-17T15:36:51Z</time>
      </trkpt>
      <trkpt lat="44.2325" lon="3.2208">
        <ele>824.1</ele>
        <time>2017-02-17T15:36:52Z</time>
      </trkpt>
      <trkpt lat="44.23246" lon="3.22076">
        <ele>822.6</ele>
        <time>2017-02-17T15:36:53Z</time>
      </trkpt>
      <trkpt lat="44.23239" lon="3.22073">
        <ele>821.3</ele>
        <time>2017-02-17T15:36:54Z</time>
      </trkpt>
      <trkpt lat="44.23233" lon="3.22073">
        <ele>820.3</ele>
        <time>2017-02-17T15:36:55Z</time>
      </trkpt>
      <trkpt lat="44.23227" lon="3.22073">
        <ele>818.7</ele>
        <time>2017-02-17T15:36:56Z</time>
      </trkpt>
      <trkpt lat="44.23224" lon="3.22073">
        <ele>818.1</ele>
        <time>2017-02-17T15:37:05Z</time>
      </trkpt>
      <trkpt lat="44.2322" lon="3.22074">
        <ele>817.5</ele>
        <time>2017-02-17T15:37:07Z</time>
      </trkpt>
      <trkpt lat="44.23217" lon="3.22075">
        <ele>817</ele>
        <time>2017-02-17T15:37:11Z</time>
      </trkpt>
      <trkpt lat="44.23214" lon="3.22073">
        <ele>816.5</ele>
        <time>2017-02-17T15:37:24Z</time>
      </trkpt>
      <trkpt lat="44.23216" lon="3.22076">
        <ele>816.2</ele>
        <time>2017-02-17T15:37:32Z</time>
      </trkpt>
      <trkpt lat="44.23221" lon="3.22077">
        <ele>815.7</ele>
        <time>2017-02-17T15:37:38Z</time>
      </trkpt>
      <trkpt lat="44.23223" lon="3.22078">
        <ele>815.4</ele>
        <time>2017-02-17T15:37:44Z</time>
      </trkpt>
      <trkpt lat="44.2322" lon="3.22079">
        <ele>815.1</ele>
        <time>2017-02-17T15:37:59Z</time>
      </trkpt>
      <trkpt lat="44.23217" lon="3.2208">
        <ele>814.8</ele>
        <time>2017-02-17T15:38:02Z</time>
      </trkpt>
      <trkpt lat="44.23215" lon="3.22083">
        <ele>814.5</ele>
        <time>2017-02-17T15:38:10Z</time>
      </trkpt>
      <trkpt lat="44.2321" lon="3.22087">
        <ele>814.1</ele>
        <time>2017-02-17T15:38:14Z</time>
      </trkpt>
      <trkpt lat="44.23207" lon="3.22086">
        <ele>813.9</ele>
        <time>2017-02-17T15:38:22Z</time>
      </trkpt>
      <trkpt lat="44.23206" lon="3.22082">
        <ele>813.7</ele>
        <time>2017-02-17T15:38:26Z</time>
      </trkpt>
      <trkpt lat="44.23203" lon="3.2208">
        <ele>813.5</ele>
        <time>2017-02-17T15:38:29Z</time>
      </trkpt>
      <trkpt lat="44.23201" lon="3.22075">
        <ele>813.3</ele>
        <time>2017-02-17T15:38:31Z</time>
      </trkpt>
      <trkpt lat="44.23202" lon="3.22071">
        <ele>813.2</ele>
        <time>2017-02-17T15:38:33Z</time>
      </trkpt>
      <trkpt lat="44.23201" lon="3.22067">
        <ele>813</ele>
        <time>2017-02-17T15:38:35Z</time>
      </trkpt>
      <trkpt lat="44.23198" lon="3.2206">
        <ele>812.9</ele>
        <time>2017-02-17T15:38:37Z</time>
      </trkpt>
      <trkpt lat="44.23196" lon="3.22056">
        <ele>812.9</ele>
        <time>2017-02-17T15:38:38Z</time>
      </trkpt>
      <trkpt lat="44.23193" lon="3.22051">
        <ele>813</ele>
        <time>2017-02-17T15:38:39Z</time>
      </trkpt>
      <trkpt lat="44.23189" lon="3.22044">
        <ele>813.1</ele>
        <time>2017-02-17T15:38:41Z</time>
      </trkpt>
      <trkpt lat="44.23186" lon="3.22039">
        <ele>813.3</ele>
        <time>2017-02-17T15:38:42Z</time>
      </trkpt>
      <trkpt lat="44.23185" lon="3.22033">
        <ele>813.4</ele>
        <time>2017-02-17T15:38:43Z</time>
      </trkpt>
      <trkpt lat="44.23183" lon="3.22028">
        <ele>813.4</ele>
        <time>2017-02-17T15:38:44Z</time>
      </trkpt>
      <trkpt lat="44.23178" lon="3.22028">
        <ele>813.3</ele>
        <time>2017-02-17T15:38:46Z</time>
      </trkpt>
      <trkpt lat="44.23173" lon="3.22027">
        <ele>812.9</ele>
        <time>2017-02-17T15:38:47Z</time>
      </trkpt>
      <trkpt lat="44.23169" lon="3.22028">
        <ele>812.5</ele>
        <time>2017-02-17T15:38:48Z</time>
      </trkpt>
      <trkpt lat="44.23167" lon="3.2203">
        <ele>812.3</ele>
        <time>2017-02-17T15:38:49Z</time>
      </trkpt>
      <trkpt lat="44.23163" lon="3.22034">
        <ele>813.1</ele>
        <time>2017-02-17T15:38:51Z</time>
      </trkpt>
      <trkpt lat="44.23161" lon="3.22037">
        <ele>813.3</ele>
        <time>2017-02-17T15:38:52Z</time>
      </trkpt>
      <trkpt lat="44.23158" lon="3.2204">
        <ele>813.8</ele>
        <time>2017-02-17T15:38:54Z</time>
      </trkpt>
      <trkpt lat="44.23155" lon="3.22041">
        <ele>813.9</ele>
        <time>2017-02-17T15:38:56Z</time>
      </trkpt>
      <trkpt lat="44.23152" lon="3.22038">
        <ele>814</ele>
        <time>2017-02-17T15:38:57Z</time>
      </trkpt>
      <trkpt lat="44.2315" lon="3.22033">
        <ele>814.1</ele>
        <time>2017-02-17T15:38:58Z</time>
      </trkpt>
      <trkpt lat="44.23148" lon="3.22029">
        <ele>814.2</ele>
        <time>2017-02-17T15:38:59Z</time>
      </trkpt>
      <trkpt lat="44.23146" lon="3.22026">
        <ele>814.5</ele>
        <time>2017-02-17T15:39:00Z</time>
      </trkpt>
      <trkpt lat="44.23143" lon="3.22023">
        <ele>814.5</ele>
        <time>2017-02-17T15:39:02Z</time>
      </trkpt>
      <trkpt lat="44.2314" lon="3.2202">
        <ele>814.4</ele>
        <time>2017-02-17T15:39:03Z</time>
      </trkpt>
      <trkpt lat="44.23135" lon="3.22019">
        <ele>814.4</ele>
        <time>2017-02-17T15:39:04Z</time>
      </trkpt>
      <trkpt lat="44.23131" lon="3.22018">
        <ele>814.3</ele>
        <time>2017-02-17T15:39:05Z</time>
      </trkpt>
      <trkpt lat="44.23126" lon="3.22019">
        <ele>814.2</ele>
        <time>2017-02-17T15:39:06Z</time>
      </trkpt>
      <trkpt lat="44.23122" lon="3.22018">
        <ele>814</ele>
        <time>2017-02-17T15:39:08Z</time>
      </trkpt>
      <trkpt lat="44.23119" lon="3.22017">
        <ele>813.9</ele>
        <time>2017-02-17T15:39:09Z</time>
      </trkpt>
      <trkpt lat="44.23116" lon="3.2202">
        <ele>813.8</ele>
        <time>2017-02-17T15:39:10Z</time>
      </trkpt>
      <trkpt lat="44.23113" lon="3.22021">
        <ele>813.6</ele>
        <time>2017-02-17T15:39:11Z</time>
      </trkpt>
      <trkpt lat="44.23111" lon="3.22028">
        <ele>813.4</ele>
        <time>2017-02-17T15:39:13Z</time>
      </trkpt>
      <trkpt lat="44.23109" lon="3.22031">
        <ele>813.2</ele>
        <time>2017-02-17T15:39:14Z</time>
      </trkpt>
      <trkpt lat="44.23107" lon="3.22039">
        <ele>813</ele>
        <time>2017-02-17T15:39:16Z</time>
      </trkpt>
      <trkpt lat="44.23106" lon="3.22042">
        <ele>812.9</ele>
        <time>2017-02-17T15:39:17Z</time>
      </trkpt>
      <trkpt lat="44.23103" lon="3.22044">
        <ele>812.8</ele>
        <time>2017-02-17T15:39:18Z</time>
      </trkpt>
      <trkpt lat="44.231" lon="3.22047">
        <ele>812.7</ele>
        <time>2017-02-17T15:39:19Z</time>
      </trkpt>
      <trkpt lat="44.23099" lon="3.2205">
        <ele>812.7</ele>
        <time>2017-02-17T15:39:20Z</time>
      </trkpt>
      <trkpt lat="44.23098" lon="3.22054">
        <ele>812.6</ele>
        <time>2017-02-17T15:39:21Z</time>
      </trkpt>
      <trkpt lat="44.23096" lon="3.22057">
        <ele>812.6</ele>
        <time>2017-02-17T15:39:22Z</time>
      </trkpt>
      <trkpt lat="44.23093" lon="3.22061">
        <ele>812.5</ele>
        <time>2017-02-17T15:39:23Z</time>
      </trkpt>
      <trkpt lat="44.23089" lon="3.22064">
        <ele>812.4</ele>
        <time>2017-02-17T15:39:24Z</time>
      </trkpt>
      <trkpt lat="44.23085" lon="3.22068">
        <ele>812.4</ele>
        <time>2017-02-17T15:39:25Z</time>
      </trkpt>
      <trkpt lat="44.23082" lon="3.2207">
        <ele>812.3</ele>
        <time>2017-02-17T15:39:26Z</time>
      </trkpt>
      <trkpt lat="44.23078" lon="3.22071">
        <ele>812.3</ele>
        <time>2017-02-17T15:39:27Z</time>
      </trkpt>
      <trkpt lat="44.23075" lon="3.22072">
        <ele>812.2</ele>
        <time>2017-02-17T15:39:28Z</time>
      </trkpt>
      <trkpt lat="44.2307" lon="3.22072">
        <ele>812.2</ele>
        <time>2017-02-17T15:39:29Z</time>
      </trkpt>
      <trkpt lat="44.23068" lon="3.22077">
        <ele>812.1</ele>
        <time>2017-02-17T15:39:30Z</time>
      </trkpt>
      <trkpt lat="44.23065" lon="3.22081">
        <ele>812.1</ele>
        <time>2017-02-17T15:39:31Z</time>
      </trkpt>
      <trkpt lat="44.23061" lon="3.22082">
        <ele>812</ele>
        <time>2017-02-17T15:39:32Z</time>
      </trkpt>
      <trkpt lat="44.23057" lon="3.22084">
        <ele>812</ele>
        <time>2017-02-17T15:39:33Z</time>
      </trkpt>
      <trkpt lat="44.23053" lon="3.22087">
        <ele>812</ele>
        <time>2017-02-17T15:39:34Z</time>
      </trkpt>
      <trkpt lat="44.23048" lon="3.2209">
        <ele>812</ele>
        <time>2017-02-17T15:39:35Z</time>
      </trkpt>
      <trkpt lat="44.23044" lon="3.22095">
        <ele>811.7</ele>
        <time>2017-02-17T15:39:36Z</time>
      </trkpt>
      <trkpt lat="44.23042" lon="3.22098">
        <ele>811.1</ele>
        <time>2017-02-17T15:39:37Z</time>
      </trkpt>
      <trkpt lat="44.23039" lon="3.22099">
        <ele>810.4</ele>
        <time>2017-02-17T15:39:40Z</time>
      </trkpt>
      <trkpt lat="44.23037" lon="3.22105">
        <ele>809.7</ele>
        <time>2017-02-17T15:39:46Z</time>
      </trkpt>
      <trkpt lat="44.23036" lon="3.22117">
        <ele>808.3</ele>
        <time>2017-02-17T15:39:49Z</time>
      </trkpt>
      <trkpt lat="44.23032" lon="3.22125">
        <ele>807.4</ele>
        <time>2017-02-17T15:39:52Z</time>
      </trkpt>
      <trkpt lat="44.23029" lon="3.22127">
        <ele>807</ele>
        <time>2017-02-17T15:39:53Z</time>
      </trkpt>
      <trkpt lat="44.23021" lon="3.22132">
        <ele>806.2</ele>
        <time>2017-02-17T15:39:54Z</time>
      </trkpt>
      <trkpt lat="44.23005" lon="3.22142">
        <ele>804.5</ele>
        <time>2017-02-17T15:39:56Z</time>
      </trkpt>
      <trkpt lat="44.23" lon="3.22144">
        <ele>804</ele>
        <time>2017-02-17T15:39:57Z</time>
      </trkpt>
      <trkpt lat="44.22993" lon="3.22144">
        <ele>803.3</ele>
        <time>2017-02-17T15:39:58Z</time>
      </trkpt>
      <trkpt lat="44.22983" lon="3.22143">
        <ele>802.3</ele>
        <time>2017-02-17T15:39:59Z</time>
      </trkpt>
      <trkpt lat="44.22976" lon="3.22141">
        <ele>801.7</ele>
        <time>2017-02-17T15:40:00Z</time>
      </trkpt>
      <trkpt lat="44.22971" lon="3.2214">
        <ele>801.1</ele>
        <time>2017-02-17T15:40:01Z</time>
      </trkpt>
      <trkpt lat="44.22966" lon="3.2214">
        <ele>800</ele>
        <time>2017-02-17T15:40:02Z</time>
      </trkpt>
      <trkpt lat="44.22949" lon="3.22132">
        <ele>791.4</ele>
        <time>2017-02-17T15:40:06Z</time>
      </trkpt>
      <trkpt lat="44.22942" lon="3.22131">
        <ele>789.5</ele>
        <time>2017-02-17T15:40:21Z</time>
      </trkpt>
      <trkpt lat="44.22937" lon="3.22128">
        <ele>788.4</ele>
        <time>2017-02-17T15:40:26Z</time>
      </trkpt>
      <trkpt lat="44.22933" lon="3.22126">
        <ele>787.4</ele>
        <time>2017-02-17T15:40:33Z</time>
      </trkpt>
      <trkpt lat="44.22928" lon="3.22123">
        <ele>786.5</ele>
        <time>2017-02-17T15:40:40Z</time>
      </trkpt>
      <trkpt lat="44.22924" lon="3.2212">
        <ele>785.6</ele>
        <time>2017-02-17T15:41:23Z</time>
      </trkpt>
      <trkpt lat="44.22919" lon="3.22118">
        <ele>784.6</ele>
        <time>2017-02-17T15:41:24Z</time>
      </trkpt>
      <trkpt lat="44.22921" lon="3.22114">
        <ele>783.9</ele>
        <time>2017-02-17T15:41:25Z</time>
      </trkpt>
      <trkpt lat="44.22916" lon="3.2211">
        <ele>782.9</ele>
        <time>2017-02-17T15:41:28Z</time>
      </trkpt>
      <trkpt lat="44.22911" lon="3.22109">
        <ele>782</ele>
        <time>2017-02-17T15:41:29Z</time>
      </trkpt>
      <trkpt lat="44.22907" lon="3.22108">
        <ele>781.1</ele>
        <time>2017-02-17T15:41:30Z</time>
      </trkpt>
      <trkpt lat="44.22903" lon="3.22106">
        <ele>780.4</ele>
        <time>2017-02-17T15:41:31Z</time>
      </trkpt>
      <trkpt lat="44.22896" lon="3.22104">
        <ele>779.1</ele>
        <time>2017-02-17T15:41:33Z</time>
      </trkpt>
      <trkpt lat="44.22893" lon="3.22103">
        <ele>778.5</ele>
        <time>2017-02-17T15:41:34Z</time>
      </trkpt>
      <trkpt lat="44.22891" lon="3.221">
        <ele>778</ele>
        <time>2017-02-17T15:41:35Z</time>
      </trkpt>
      <trkpt lat="44.22888" lon="3.22096">
        <ele>777.4</ele>
        <time>2017-02-17T15:41:36Z</time>
      </trkpt>
      <trkpt lat="44.22886" lon="3.22091">
        <ele>776.7</ele>
        <time>2017-02-17T15:41:37Z</time>
      </trkpt>
      <trkpt lat="44.22883" lon="3.22085">
        <ele>776</ele>
        <time>2017-02-17T15:41:38Z</time>
      </trkpt>
      <trkpt lat="44.22879" lon="3.22084">
        <ele>775.3</ele>
        <time>2017-02-17T15:41:39Z</time>
      </trkpt>
      <trkpt lat="44.22873" lon="3.22083">
        <ele>774.6</ele>
        <time>2017-02-17T15:41:40Z</time>
      </trkpt>
      <trkpt lat="44.22869" lon="3.22083">
        <ele>774.2</ele>
        <time>2017-02-17T15:41:41Z</time>
      </trkpt>
      <trkpt lat="44.22863" lon="3.22084">
        <ele>773.6</ele>
        <time>2017-02-17T15:41:42Z</time>
      </trkpt>
      <trkpt lat="44.22858" lon="3.22083">
        <ele>773</ele>
        <time>2017-02-17T15:41:43Z</time>
      </trkpt>
      <trkpt lat="44.22854" lon="3.22082">
        <ele>771.2</ele>
        <time>2017-02-17T15:41:44Z</time>
      </trkpt>
      <trkpt lat="44.22849" lon="3.22079">
        <ele>763.3</ele>
        <time>2017-02-17T15:41:45Z</time>
      </trkpt>
      <trkpt lat="44.22844" lon="3.22076">
        <ele>762.2</ele>
        <time>2017-02-17T15:41:46Z</time>
      </trkpt>
      <trkpt lat="44.2284" lon="3.22074">
        <ele>761.8</ele>
        <time>2017-02-17T15:41:47Z</time>
      </trkpt>
      <trkpt lat="44.22836" lon="3.22073">
        <ele>761.5</ele>
        <time>2017-02-17T15:41:48Z</time>
      </trkpt>
      <trkpt lat="44.22833" lon="3.22072">
        <ele>761.2</ele>
        <time>2017-02-17T15:41:49Z</time>
      </trkpt>
      <trkpt lat="44.2283" lon="3.2207">
        <ele>761</ele>
        <time>2017-02-17T15:41:57Z</time>
      </trkpt>
      <trkpt lat="44.22831" lon="3.22075">
        <ele>760.5</ele>
        <time>2017-02-17T15:42:04Z</time>
      </trkpt>
      <trkpt lat="44.22836" lon="3.22078">
        <ele>759.4</ele>
        <time>2017-02-17T15:42:06Z</time>
      </trkpt>
      <trkpt lat="44.22839" lon="3.2208">
        <ele>758.5</ele>
        <time>2017-02-17T15:42:07Z</time>
      </trkpt>
      <trkpt lat="44.22842" lon="3.22083">
        <ele>757.3</ele>
        <time>2017-02-17T15:42:08Z</time>
      </trkpt>
      <trkpt lat="44.22845" lon="3.22086">
        <ele>756</ele>
        <time>2017-02-17T15:42:09Z</time>
      </trkpt>
      <trkpt lat="44.22848" lon="3.22089">
        <ele>754.5</ele>
        <time>2017-02-17T15:42:10Z</time>
      </trkpt>
      <trkpt lat="44.2285" lon="3.22093">
        <ele>753.5</ele>
        <time>2017-02-17T15:42:11Z</time>
      </trkpt>
      <trkpt lat="44.22853" lon="3.22096">
        <ele>752.5</ele>
        <time>2017-02-17T15:42:13Z</time>
      </trkpt>
      <trkpt lat="44.22857" lon="3.22102">
        <ele>751.4</ele>
        <time>2017-02-17T15:42:15Z</time>
      </trkpt>
      <trkpt lat="44.22857" lon="3.22108">
        <ele>750.7</ele>
        <time>2017-02-17T15:42:16Z</time>
      </trkpt>
      <trkpt lat="44.22854" lon="3.2211">
        <ele>750.2</ele>
        <time>2017-02-17T15:42:19Z</time>
      </trkpt>
      <trkpt lat="44.22851" lon="3.22112">
        <ele>749.6</ele>
        <time>2017-02-17T15:42:21Z</time>
      </trkpt>
      <trkpt lat="44.2285" lon="3.22117">
        <ele>749.1</ele>
        <time>2017-02-17T15:42:23Z</time>
      </trkpt>
      <trkpt lat="44.2285" lon="3.22127">
        <ele>747.9</ele>
        <time>2017-02-17T15:42:25Z</time>
      </trkpt>
      <trkpt lat="44.22851" lon="3.22135">
        <ele>747</ele>
        <time>2017-02-17T15:42:26Z</time>
      </trkpt>
      <trkpt lat="44.22852" lon="3.2214">
        <ele>746.4</ele>
        <time>2017-02-17T15:42:27Z</time>
      </trkpt>
      <trkpt lat="44.22853" lon="3.22146">
        <ele>745.6</ele>
        <time>2017-02-17T15:42:28Z</time>
      </trkpt>
      <trkpt lat="44.22855" lon="3.22152">
        <ele>744.9</ele>
        <time>2017-02-17T15:42:29Z</time>
      </trkpt>
      <trkpt lat="44.22856" lon="3.22156">
        <ele>744.3</ele>
        <time>2017-02-17T15:42:30Z</time>
      </trkpt>
      <trkpt lat="44.22857" lon="3.22161">
        <ele>743.8</ele>
        <time>2017-02-17T15:42:32Z</time>
      </trkpt>
      <trkpt lat="44.22858" lon="3.22164">
        <ele>743.2</ele>
        <time>2017-02-17T15:42:45Z</time>
      </trkpt>
      <trkpt lat="44.2286" lon="3.22168">
        <ele>742.5</ele>
        <time>2017-02-17T15:42:51Z</time>
      </trkpt>
      <trkpt lat="44.22862" lon="3.22171">
        <ele>741.7</ele>
        <time>2017-02-17T15:42:53Z</time>
      </trkpt>
      <trkpt lat="44.22866" lon="3.22176">
        <ele>740.5</ele>
        <time>2017-02-17T15:42:55Z</time>
      </trkpt>
      <trkpt lat="44.22868" lon="3.2218">
        <ele>739.5</ele>
        <time>2017-02-17T15:42:56Z</time>
      </trkpt>
      <trkpt lat="44.2287" lon="3.22186">
        <ele>737.9</ele>
        <time>2017-02-17T15:42:57Z</time>
      </trkpt>
      <trkpt lat="44.22869" lon="3.2219">
        <ele>737</ele>
        <time>2017-02-17T15:42:58Z</time>
      </trkpt>
      <trkpt lat="44.22869" lon="3.22194">
        <ele>736.4</ele>
        <time>2017-02-17T15:42:59Z</time>
      </trkpt>
      <trkpt lat="44.22871" lon="3.22201">
        <ele>735.1</ele>
        <time>2017-02-17T15:43:01Z</time>
      </trkpt>
      <trkpt lat="44.22873" lon="3.22205">
        <ele>734.4</ele>
        <time>2017-02-17T15:43:02Z</time>
      </trkpt>
      <trkpt lat="44.22867" lon="3.22205">
        <ele>733.4</ele>
        <time>2017-02-17T15:43:06Z</time>
      </trkpt>
      <trkpt lat="44.22864" lon="3.22203">
        <ele>732.9</ele>
        <time>2017-02-17T15:43:07Z</time>
      </trkpt>
      <trkpt lat="44.22862" lon="3.22199">
        <ele>732.4</ele>
        <time>2017-02-17T15:43:08Z</time>
      </trkpt>
      <trkpt lat="44.22857" lon="3.22195">
        <ele>731.4</ele>
        <time>2017-02-17T15:43:10Z</time>
      </trkpt>
      <trkpt lat="44.22852" lon="3.22194">
        <ele>730.7</ele>
        <time>2017-02-17T15:43:11Z</time>
      </trkpt>
      <trkpt lat="44.22848" lon="3.22191">
        <ele>730.1</ele>
        <time>2017-02-17T15:43:12Z</time>
      </trkpt>
      <trkpt lat="44.22843" lon="3.22189">
        <ele>729.4</ele>
        <time>2017-02-17T15:43:13Z</time>
      </trkpt>
      <trkpt lat="44.22839" lon="3.22188">
        <ele>728.8</ele>
        <time>2017-02-17T15:43:14Z</time>
      </trkpt>
      <trkpt lat="44.22833" lon="3.22188">
        <ele>728.1</ele>
        <time>2017-02-17T15:43:15Z</time>
      </trkpt>
      <trkpt lat="44.22829" lon="3.22187">
        <ele>727.5</ele>
        <time>2017-02-17T15:43:16Z</time>
      </trkpt>
      <trkpt lat="44.22825" lon="3.22186">
        <ele>726.9</ele>
        <time>2017-02-17T15:43:17Z</time>
      </trkpt>
      <trkpt lat="44.22821" lon="3.22183">
        <ele>726.3</ele>
        <time>2017-02-17T15:43:18Z</time>
      </trkpt>
      <trkpt lat="44.22818" lon="3.22179">
        <ele>725.7</ele>
        <time>2017-02-17T15:43:19Z</time>
      </trkpt>
      <trkpt lat="44.22816" lon="3.22175">
        <ele>725.3</ele>
        <time>2017-02-17T15:43:20Z</time>
      </trkpt>
      <trkpt lat="44.22811" lon="3.2217">
        <ele>724.6</ele>
        <time>2017-02-17T15:43:22Z</time>
      </trkpt>
      <trkpt lat="44.22808" lon="3.22167">
        <ele>724.1</ele>
        <time>2017-02-17T15:43:23Z</time>
      </trkpt>
      <trkpt lat="44.22808" lon="3.22163">
        <ele>723.8</ele>
        <time>2017-02-17T15:43:24Z</time>
      </trkpt>
      <trkpt lat="44.22806" lon="3.22157">
        <ele>723.5</ele>
        <time>2017-02-17T15:43:26Z</time>
      </trkpt>
      <trkpt lat="44.22803" lon="3.22154">
        <ele>723.1</ele>
        <time>2017-02-17T15:43:27Z</time>
      </trkpt>
      <trkpt lat="44.228" lon="3.22154">
        <ele>720.8</ele>
        <time>2017-02-17T15:43:39Z</time>
      </trkpt>
      <trkpt lat="44.22798" lon="3.22151">
        <ele>720</ele>
        <time>2017-02-17T15:43:48Z</time>
      </trkpt>
      <trkpt lat="44.22798" lon="3.22146">
        <ele>718.9</ele>
        <time>2017-02-17T15:43:50Z</time>
      </trkpt>
      <trkpt lat="44.22797" lon="3.2214">
        <ele>717.2</ele>
        <time>2017-02-17T15:43:52Z</time>
      </trkpt>
      <trkpt lat="44.22797" lon="3.22135">
        <ele>716.1</ele>
        <time>2017-02-17T15:43:54Z</time>
      </trkpt>
      <trkpt lat="44.22795" lon="3.22129">
        <ele>714.8</ele>
        <time>2017-02-17T15:43:56Z</time>
      </trkpt>
      <trkpt lat="44.22793" lon="3.22126">
        <ele>714.1</ele>
        <time>2017-02-17T15:43:57Z</time>
      </trkpt>
      <trkpt lat="44.2279" lon="3.22122">
        <ele>713.1</ele>
        <time>2017-02-17T15:43:59Z</time>
      </trkpt>
      <trkpt lat="44.22785" lon="3.2212">
        <ele>712.1</ele>
        <time>2017-02-17T15:44:02Z</time>
      </trkpt>
      <trkpt lat="44.22784" lon="3.22117">
        <ele>711.5</ele>
        <time>2017-02-17T15:44:04Z</time>
      </trkpt>
      <trkpt lat="44.22783" lon="3.22112">
        <ele>710.9</ele>
        <time>2017-02-17T15:44:05Z</time>
      </trkpt>
      <trkpt lat="44.22782" lon="3.22108">
        <ele>710.3</ele>
        <time>2017-02-17T15:44:06Z</time>
      </trkpt>
      <trkpt lat="44.2278" lon="3.22103">
        <ele>709.7</ele>
        <time>2017-02-17T15:44:07Z</time>
      </trkpt>
      <trkpt lat="44.22777" lon="3.22099">
        <ele>709.1</ele>
        <time>2017-02-17T15:44:08Z</time>
      </trkpt>
      <trkpt lat="44.22774" lon="3.22095">
        <ele>708.6</ele>
        <time>2017-02-17T15:44:09Z</time>
      </trkpt>
      <trkpt lat="44.2277" lon="3.22089">
        <ele>708</ele>
        <time>2017-02-17T15:44:10Z</time>
      </trkpt>
      <trkpt lat="44.22765" lon="3.22081">
        <ele>706.9</ele>
        <time>2017-02-17T15:44:11Z</time>
      </trkpt>
      <trkpt lat="44.22761" lon="3.22075">
        <ele>705.9</ele>
        <time>2017-02-17T15:44:12Z</time>
      </trkpt>
      <trkpt lat="44.22758" lon="3.22071">
        <ele>705.3</ele>
        <time>2017-02-17T15:44:13Z</time>
      </trkpt>
      <trkpt lat="44.22755" lon="3.22067">
        <ele>704.7</ele>
        <time>2017-02-17T15:44:14Z</time>
      </trkpt>
      <trkpt lat="44.22754" lon="3.22063">
        <ele>704.3</ele>
        <time>2017-02-17T15:44:15Z</time>
      </trkpt>
      <trkpt lat="44.22754" lon="3.22059">
        <ele>703.8</ele>
        <time>2017-02-17T15:44:16Z</time>
      </trkpt>
      <trkpt lat="44.22752" lon="3.22056">
        <ele>703.3</ele>
        <time>2017-02-17T15:44:17Z</time>
      </trkpt>
      <trkpt lat="44.22749" lon="3.22052">
        <ele>702.6</ele>
        <time>2017-02-17T15:44:18Z</time>
      </trkpt>
      <trkpt lat="44.22748" lon="3.22049">
        <ele>701.9</ele>
        <time>2017-02-17T15:44:19Z</time>
      </trkpt>
      <trkpt lat="44.22745" lon="3.22043">
        <ele>701</ele>
        <time>2017-02-17T15:44:20Z</time>
      </trkpt>
      <trkpt lat="44.22743" lon="3.22039">
        <ele>700.2</ele>
        <time>2017-02-17T15:44:21Z</time>
      </trkpt>
      <trkpt lat="44.22742" lon="3.22035">
        <ele>699.1</ele>
        <time>2017-02-17T15:44:23Z</time>
      </trkpt>
      <trkpt lat="44.2274" lon="3.22029">
        <ele>697.5</ele>
        <time>2017-02-17T15:44:25Z</time>
      </trkpt>
      <trkpt lat="44.22738" lon="3.22023">
        <ele>696.1</ele>
        <time>2017-02-17T15:44:27Z</time>
      </trkpt>
      <trkpt lat="44.22739" lon="3.22018">
        <ele>695.3</ele>
        <time>2017-02-17T15:44:29Z</time>
      </trkpt>
      <trkpt lat="44.22736" lon="3.22018">
        <ele>694.5</ele>
        <time>2017-02-17T15:44:40Z</time>
      </trkpt>
      <trkpt lat="44.22734" lon="3.22014">
        <ele>693.7</ele>
        <time>2017-02-17T15:44:48Z</time>
      </trkpt>
      <trkpt lat="44.22732" lon="3.2201">
        <ele>692.9</ele>
        <time>2017-02-17T15:44:58Z</time>
      </trkpt>
      <trkpt lat="44.22731" lon="3.22007">
        <ele>692.1</ele>
        <time>2017-02-17T15:45:10Z</time>
      </trkpt>
      <trkpt lat="44.22728" lon="3.22005">
        <ele>691.2</ele>
        <time>2017-02-17T15:45:29Z</time>
      </trkpt>
      <trkpt lat="44.22726" lon="3.21999">
        <ele>689.8</ele>
        <time>2017-02-17T15:45:31Z</time>
      </trkpt>
      <trkpt lat="44.22725" lon="3.21992">
        <ele>688</ele>
        <time>2017-02-17T15:45:33Z</time>
      </trkpt>
      <trkpt lat="44.22725" lon="3.21988">
        <ele>687.3</ele>
        <time>2017-02-17T15:45:41Z</time>
      </trkpt>
      <trkpt lat="44.22725" lon="3.21985">
        <ele>686.5</ele>
        <time>2017-02-17T15:46:03Z</time>
      </trkpt>
      <trkpt lat="44.22724" lon="3.21981">
        <ele>685.5</ele>
        <time>2017-02-17T15:46:11Z</time>
      </trkpt>
      <trkpt lat="44.22724" lon="3.21977">
        <ele>684.6</ele>
        <time>2017-02-17T15:46:14Z</time>
      </trkpt>
      <trkpt lat="44.22723" lon="3.21974">
        <ele>682.7</ele>
        <time>2017-02-17T15:46:17Z</time>
      </trkpt>
      <trkpt lat="44.22723" lon="3.2197">
        <ele>681.7</ele>
        <time>2017-02-17T15:46:21Z</time>
      </trkpt>
      <trkpt lat="44.22723" lon="3.21966">
        <ele>680.5</ele>
        <time>2017-02-17T15:46:38Z</time>
      </trkpt>
      <trkpt lat="44.22722" lon="3.21963">
        <ele>676.9</ele>
        <time>2017-02-17T15:46:40Z</time>
      </trkpt>
      <trkpt lat="44.22722" lon="3.21959">
        <ele>674</ele>
        <time>2017-02-17T15:46:46Z</time>
      </trkpt>
      <trkpt lat="44.22721" lon="3.21956">
        <ele>671.9</ele>
        <time>2017-02-17T15:47:04Z</time>
      </trkpt>
      <trkpt lat="44.22721" lon="3.21952">
        <ele>670</ele>
        <time>2017-02-17T15:47:23Z</time>
      </trkpt>
      <trkpt lat="44.2272" lon="3.21948">
        <ele>669.8</ele>
        <time>2017-02-17T15:47:24Z</time>
      </trkpt>
      <trkpt lat="44.22719" lon="3.21945">
        <ele>669.6</ele>
        <time>2017-02-17T15:47:43Z</time>
      </trkpt>
      <trkpt lat="44.2272" lon="3.21941">
        <ele>669.4</ele>
        <time>2017-02-17T15:47:48Z</time>
      </trkpt>
      <trkpt lat="44.22721" lon="3.21935">
        <ele>669.1</ele>
        <time>2017-02-17T15:48:02Z</time>
      </trkpt>
      <trkpt lat="44.22721" lon="3.21931">
        <ele>668.9</ele>
        <time>2017-02-17T15:48:04Z</time>
      </trkpt>
      <trkpt lat="44.22723" lon="3.21926">
        <ele>668.6</ele>
        <time>2017-02-17T15:48:06Z</time>
      </trkpt>
      <trkpt lat="44.22724" lon="3.21921">
        <ele>667.7</ele>
        <time>2017-02-17T15:48:08Z</time>
      </trkpt>
      <trkpt lat="44.22725" lon="3.21914">
        <ele>666.6</ele>
        <time>2017-02-17T15:48:10Z</time>
      </trkpt>
      <trkpt lat="44.22725" lon="3.2191">
        <ele>665.9</ele>
        <time>2017-02-17T15:48:11Z</time>
      </trkpt>
      <trkpt lat="44.22724" lon="3.21902">
        <ele>664.8</ele>
        <time>2017-02-17T15:48:12Z</time>
      </trkpt>
      <trkpt lat="44.22722" lon="3.21898">
        <ele>664.3</ele>
        <time>2017-02-17T15:48:14Z</time>
      </trkpt>
      <trkpt lat="44.22718" lon="3.21896">
        <ele>663.9</ele>
        <time>2017-02-17T15:48:16Z</time>
      </trkpt>
      <trkpt lat="44.22713" lon="3.21894">
        <ele>663.6</ele>
        <time>2017-02-17T15:48:18Z</time>
      </trkpt>
      <trkpt lat="44.22708" lon="3.21892">
        <ele>663.4</ele>
        <time>2017-02-17T15:48:20Z</time>
      </trkpt>
      <trkpt lat="44.22706" lon="3.2189">
        <ele>663.3</ele>
        <time>2017-02-17T15:48:21Z</time>
      </trkpt>
      <trkpt lat="44.22703" lon="3.21889">
        <ele>663.3</ele>
        <time>2017-02-17T15:48:22Z</time>
      </trkpt>
      <trkpt lat="44.227" lon="3.21888">
        <ele>663.3</ele>
        <time>2017-02-17T15:48:23Z</time>
      </trkpt>
      <trkpt lat="44.22697" lon="3.21888">
        <ele>663.2</ele>
        <time>2017-02-17T15:48:24Z</time>
      </trkpt>
      <trkpt lat="44.22694" lon="3.21889">
        <ele>663.2</ele>
        <time>2017-02-17T15:48:25Z</time>
      </trkpt>
      <trkpt lat="44.22691" lon="3.21889">
        <ele>663.2</ele>
        <time>2017-02-17T15:48:26Z</time>
      </trkpt>
      <trkpt lat="44.22688" lon="3.21887">
        <ele>663.2</ele>
        <time>2017-02-17T15:48:27Z</time>
      </trkpt>
      <trkpt lat="44.22684" lon="3.21884">
        <ele>663.1</ele>
        <time>2017-02-17T15:48:28Z</time>
      </trkpt>
      <trkpt lat="44.2268" lon="3.21879">
        <ele>663</ele>
        <time>2017-02-17T15:48:29Z</time>
      </trkpt>
      <trkpt lat="44.22676" lon="3.21877">
        <ele>662.9</ele>
        <time>2017-02-17T15:48:31Z</time>
      </trkpt>
      <trkpt lat="44.22672" lon="3.21875">
        <ele>662.8</ele>
        <time>2017-02-17T15:48:33Z</time>
      </trkpt>
      <trkpt lat="44.22668" lon="3.21872">
        <ele>662.7</ele>
        <time>2017-02-17T15:48:35Z</time>
      </trkpt>
      <trkpt lat="44.22664" lon="3.21869">
        <ele>662.6</ele>
        <time>2017-02-17T15:48:37Z</time>
      </trkpt>
      <trkpt lat="44.22662" lon="3.21867">
        <ele>662.5</ele>
        <time>2017-02-17T15:48:38Z</time>
      </trkpt>
      <trkpt lat="44.22659" lon="3.21865">
        <ele>662.5</ele>
        <time>2017-02-17T15:48:39Z</time>
      </trkpt>
      <trkpt lat="44.22654" lon="3.21862">
        <ele>662.3</ele>
        <time>2017-02-17T15:48:41Z</time>
      </trkpt>
      <trkpt lat="44.22651" lon="3.2186">
        <ele>662.2</ele>
        <time>2017-02-17T15:48:43Z</time>
      </trkpt>
      <trkpt lat="44.22647" lon="3.21858">
        <ele>662</ele>
        <time>2017-02-17T15:48:45Z</time>
      </trkpt>
      <trkpt lat="44.22645" lon="3.21857">
        <ele>661.8</ele>
        <time>2017-02-17T15:48:46Z</time>
      </trkpt>
      <trkpt lat="44.22641" lon="3.21856">
        <ele>661.5</ele>
        <time>2017-02-17T15:48:47Z</time>
      </trkpt>
      <trkpt lat="44.22638" lon="3.21856">
        <ele>661.3</ele>
        <time>2017-02-17T15:48:48Z</time>
      </trkpt>
      <trkpt lat="44.22633" lon="3.21855">
        <ele>660.9</ele>
        <time>2017-02-17T15:48:49Z</time>
      </trkpt>
      <trkpt lat="44.22628" lon="3.21851">
        <ele>660.3</ele>
        <time>2017-02-17T15:48:50Z</time>
      </trkpt>
      <trkpt lat="44.22625" lon="3.21849">
        <ele>660</ele>
        <time>2017-02-17T15:48:51Z</time>
      </trkpt>
      <trkpt lat="44.22622" lon="3.21847">
        <ele>659.7</ele>
        <time>2017-02-17T15:48:52Z</time>
      </trkpt>
      <trkpt lat="44.22618" lon="3.21845">
        <ele>659.1</ele>
        <time>2017-02-17T15:48:53Z</time>
      </trkpt>
      <trkpt lat="44.22613" lon="3.21842">
        <ele>658.4</ele>
        <time>2017-02-17T15:48:54Z</time>
      </trkpt>
      <trkpt lat="44.22607" lon="3.2184">
        <ele>657.6</ele>
        <time>2017-02-17T15:48:55Z</time>
      </trkpt>
      <trkpt lat="44.22602" lon="3.21837">
        <ele>656.8</ele>
        <time>2017-02-17T15:48:56Z</time>
      </trkpt>
      <trkpt lat="44.22596" lon="3.21834">
        <ele>656</ele>
        <time>2017-02-17T15:48:57Z</time>
      </trkpt>
      <trkpt lat="44.22591" lon="3.21829">
        <ele>655.1</ele>
        <time>2017-02-17T15:48:58Z</time>
      </trkpt>
      <trkpt lat="44.22586" lon="3.21825">
        <ele>654.4</ele>
        <time>2017-02-17T15:48:59Z</time>
      </trkpt>
      <trkpt lat="44.22581" lon="3.21821">
        <ele>653.5</ele>
        <time>2017-02-17T15:49:00Z</time>
      </trkpt>
      <trkpt lat="44.22575" lon="3.21816">
        <ele>651.6</ele>
        <time>2017-02-17T15:49:01Z</time>
      </trkpt>
      <trkpt lat="44.22569" lon="3.2181">
        <ele>650.8</ele>
        <time>2017-02-17T15:49:02Z</time>
      </trkpt>
      <trkpt lat="44.22566" lon="3.21808">
        <ele>650.5</ele>
        <time>2017-02-17T15:49:03Z</time>
      </trkpt>
      <trkpt lat="44.22564" lon="3.21805">
        <ele>650.2</ele>
        <time>2017-02-17T15:49:05Z</time>
      </trkpt>
      <trkpt lat="44.22562" lon="3.21801">
        <ele>649.8</ele>
        <time>2017-02-17T15:49:07Z</time>
      </trkpt>
      <trkpt lat="44.22558" lon="3.21795">
        <ele>649.3</ele>
        <time>2017-02-17T15:49:09Z</time>
      </trkpt>
      <trkpt lat="44.22556" lon="3.21791">
        <ele>649.1</ele>
        <time>2017-02-17T15:49:10Z</time>
      </trkpt>
      <trkpt lat="44.22553" lon="3.21786">
        <ele>648.9</ele>
        <time>2017-02-17T15:49:14Z</time>
      </trkpt>
      <trkpt lat="44.22552" lon="3.21782">
        <ele>648.8</ele>
        <time>2017-02-17T15:49:17Z</time>
      </trkpt>
      <trkpt lat="44.2255" lon="3.21779">
        <ele>648.7</ele>
        <time>2017-02-17T15:49:19Z</time>
      </trkpt>
      <trkpt lat="44.22547" lon="3.21775">
        <ele>648.7</ele>
        <time>2017-02-17T15:49:23Z</time>
      </trkpt>
      <trkpt lat="44.22548" lon="3.21765">
        <ele>648.7</ele>
        <time>2017-02-17T15:49:25Z</time>
      </trkpt>
      <trkpt lat="44.22548" lon="3.21758">
        <ele>648.4</ele>
        <time>2017-02-17T15:49:27Z</time>
      </trkpt>
      <trkpt lat="44.22546" lon="3.21753">
        <ele>647.9</ele>
        <time>2017-02-17T15:49:29Z</time>
      </trkpt>
      <trkpt lat="44.22543" lon="3.21748">
        <ele>647.4</ele>
        <time>2017-02-17T15:49:31Z</time>
      </trkpt>
      <trkpt lat="44.22539" lon="3.21746">
        <ele>647</ele>
        <time>2017-02-17T15:49:33Z</time>
      </trkpt>
      <trkpt lat="44.22536" lon="3.21743">
        <ele>646.7</ele>
        <time>2017-02-17T15:49:53Z</time>
      </trkpt>
      <trkpt lat="44.22532" lon="3.21738">
        <ele>646.2</ele>
        <time>2017-02-17T15:49:55Z</time>
      </trkpt>
      <trkpt lat="44.22527" lon="3.21734">
        <ele>645.5</ele>
        <time>2017-02-17T15:49:56Z</time>
      </trkpt>
      <trkpt lat="44.22523" lon="3.21733">
        <ele>645.1</ele>
        <time>2017-02-17T15:49:57Z</time>
      </trkpt>
      <trkpt lat="44.2252" lon="3.21731">
        <ele>644.7</ele>
        <time>2017-02-17T15:49:58Z</time>
      </trkpt>
      <trkpt lat="44.22516" lon="3.21729">
        <ele>644.3</ele>
        <time>2017-02-17T15:49:59Z</time>
      </trkpt>
      <trkpt lat="44.2251" lon="3.21727">
        <ele>643.7</ele>
        <time>2017-02-17T15:50:00Z</time>
      </trkpt>
      <trkpt lat="44.22507" lon="3.21724">
        <ele>643.4</ele>
        <time>2017-02-17T15:50:01Z</time>
      </trkpt>
      <trkpt lat="44.22505" lon="3.21722">
        <ele>643.1</ele>
        <time>2017-02-17T15:50:02Z</time>
      </trkpt>
      <trkpt lat="44.225" lon="3.21721">
        <ele>642.7</ele>
        <time>2017-02-17T15:50:04Z</time>
      </trkpt>
      <trkpt lat="44.22495" lon="3.21721">
        <ele>642.3</ele>
        <time>2017-02-17T15:50:05Z</time>
      </trkpt>
      <trkpt lat="44.22491" lon="3.2172">
        <ele>641.9</ele>
        <time>2017-02-17T15:50:07Z</time>
      </trkpt>
      <trkpt lat="44.22487" lon="3.21717">
        <ele>641.3</ele>
        <time>2017-02-17T15:50:09Z</time>
      </trkpt>
      <trkpt lat="44.22484" lon="3.21714">
        <ele>640.8</ele>
        <time>2017-02-17T15:50:10Z</time>
      </trkpt>
      <trkpt lat="44.22479" lon="3.21708">
        <ele>640</ele>
        <time>2017-02-17T15:50:12Z</time>
      </trkpt>
      <trkpt lat="44.22477" lon="3.21702">
        <ele>639.7</ele>
        <time>2017-02-17T15:50:14Z</time>
      </trkpt>
      <trkpt lat="44.22474" lon="3.21696">
        <ele>638.7</ele>
        <time>2017-02-17T15:50:16Z</time>
      </trkpt>
      <trkpt lat="44.22471" lon="3.2169">
        <ele>638</ele>
        <time>2017-02-17T15:50:18Z</time>
      </trkpt>
      <trkpt lat="44.22469" lon="3.21686">
        <ele>637.5</ele>
        <time>2017-02-17T15:50:26Z</time>
      </trkpt>
      <trkpt lat="44.22466" lon="3.21682">
        <ele>636.9</ele>
        <time>2017-02-17T15:50:28Z</time>
      </trkpt>
      <trkpt lat="44.22464" lon="3.21678">
        <ele>636.4</ele>
        <time>2017-02-17T15:50:29Z</time>
      </trkpt>
      <trkpt lat="44.22462" lon="3.21674">
        <ele>635.9</ele>
        <time>2017-02-17T15:50:30Z</time>
      </trkpt>
      <trkpt lat="44.22461" lon="3.2167">
        <ele>635.4</ele>
        <time>2017-02-17T15:50:31Z</time>
      </trkpt>
      <trkpt lat="44.22459" lon="3.21666">
        <ele>634.8</ele>
        <time>2017-02-17T15:50:32Z</time>
      </trkpt>
      <trkpt lat="44.22457" lon="3.21663">
        <ele>634.2</ele>
        <time>2017-02-17T15:50:33Z</time>
      </trkpt>
      <trkpt lat="44.22455" lon="3.21658">
        <ele>633.6</ele>
        <time>2017-02-17T15:50:34Z</time>
      </trkpt>
      <trkpt lat="44.22455" lon="3.21652">
        <ele>632.8</ele>
        <time>2017-02-17T15:50:35Z</time>
      </trkpt>
      <trkpt lat="44.22454" lon="3.21648">
        <ele>632.2</ele>
        <time>2017-02-17T15:50:36Z</time>
      </trkpt>
      <trkpt lat="44.22453" lon="3.21644">
        <ele>631.5</ele>
        <time>2017-02-17T15:50:37Z</time>
      </trkpt>
      <trkpt lat="44.22451" lon="3.21637">
        <ele>630.5</ele>
        <time>2017-02-17T15:50:38Z</time>
      </trkpt>
      <trkpt lat="44.2245" lon="3.21632">
        <ele>629.5</ele>
        <time>2017-02-17T15:50:39Z</time>
      </trkpt>
      <trkpt lat="44.22448" lon="3.21628">
        <ele>628.7</ele>
        <time>2017-02-17T15:50:40Z</time>
      </trkpt>
      <trkpt lat="44.22447" lon="3.21623">
        <ele>627.8</ele>
        <time>2017-02-17T15:50:42Z</time>
      </trkpt>
      <trkpt lat="44.22446" lon="3.21619">
        <ele>627.3</ele>
        <time>2017-02-17T15:50:43Z</time>
      </trkpt>
      <trkpt lat="44.22441" lon="3.21617">
        <ele>626.5</ele>
        <time>2017-02-17T15:50:45Z</time>
      </trkpt>
      <trkpt lat="44.2244" lon="3.21613">
        <ele>626.1</ele>
        <time>2017-02-17T15:50:46Z</time>
      </trkpt>
      <trkpt lat="44.22438" lon="3.21609">
        <ele>625.5</ele>
        <time>2017-02-17T15:50:47Z</time>
      </trkpt>
      <trkpt lat="44.22434" lon="3.21606">
        <ele>624.8</ele>
        <time>2017-02-17T15:50:48Z</time>
      </trkpt>
      <trkpt lat="44.22431" lon="3.21601">
        <ele>624.1</ele>
        <time>2017-02-17T15:50:49Z</time>
      </trkpt>
      <trkpt lat="44.22428" lon="3.21598">
        <ele>623.4</ele>
        <time>2017-02-17T15:50:50Z</time>
      </trkpt>
      <trkpt lat="44.22426" lon="3.21595">
        <ele>622.9</ele>
        <time>2017-02-17T15:50:51Z</time>
      </trkpt>
      <trkpt lat="44.22423" lon="3.21591">
        <ele>622</ele>
        <time>2017-02-17T15:50:53Z</time>
      </trkpt>
      <trkpt lat="44.22419" lon="3.21589">
        <ele>621.2</ele>
        <time>2017-02-17T15:50:55Z</time>
      </trkpt>
      <trkpt lat="44.22417" lon="3.21585">
        <ele>620.6</ele>
        <time>2017-02-17T15:50:56Z</time>
      </trkpt>
      <trkpt lat="44.22415" lon="3.21582">
        <ele>620</ele>
        <time>2017-02-17T15:50:57Z</time>
      </trkpt>
      <trkpt lat="44.22412" lon="3.21578">
        <ele>619.3</ele>
        <time>2017-02-17T15:50:58Z</time>
      </trkpt>
      <trkpt lat="44.2241" lon="3.2158">
        <ele>618.8</ele>
        <time>2017-02-17T15:51:08Z</time>
      </trkpt>
      <trkpt lat="44.22404" lon="3.2158">
        <ele>617.4</ele>
        <time>2017-02-17T15:51:12Z</time>
      </trkpt>
      <trkpt lat="44.22402" lon="3.21579">
        <ele>616.7</ele>
        <time>2017-02-17T15:51:20Z</time>
      </trkpt>
      <trkpt lat="44.22403" lon="3.21574">
        <ele>615.9</ele>
        <time>2017-02-17T15:51:32Z</time>
      </trkpt>
      <trkpt lat="44.22403" lon="3.21569">
        <ele>615.3</ele>
        <time>2017-02-17T15:51:36Z</time>
      </trkpt>
      <trkpt lat="44.22403" lon="3.21565">
        <ele>614.8</ele>
        <time>2017-02-17T15:51:43Z</time>
      </trkpt>
      <trkpt lat="44.22401" lon="3.21562">
        <ele>614.1</ele>
        <time>2017-02-17T15:51:58Z</time>
      </trkpt>
      <trkpt lat="44.22397" lon="3.21557">
        <ele>613.2</ele>
        <time>2017-02-17T15:52:00Z</time>
      </trkpt>
      <trkpt lat="44.22396" lon="3.21553">
        <ele>612.6</ele>
        <time>2017-02-17T15:52:06Z</time>
      </trkpt>
      <trkpt lat="44.22395" lon="3.2155">
        <ele>612.7</ele>
        <time>2017-02-17T15:52:27Z</time>
      </trkpt>
      <trkpt lat="44.22398" lon="3.21548">
        <ele>616.1</ele>
        <time>2017-02-17T15:52:50Z</time>
      </trkpt>
      <trkpt lat="44.22396" lon="3.21545">
        <ele>619</ele>
        <time>2017-02-17T15:52:58Z</time>
      </trkpt>
      <trkpt lat="44.22391" lon="3.21543">
        <ele>617.9</ele>
        <time>2017-02-17T15:53:13Z</time>
      </trkpt>
      <trkpt lat="44.22388" lon="3.21542">
        <ele>617.2</ele>
        <time>2017-02-17T15:53:33Z</time>
      </trkpt>
      <trkpt lat="44.22386" lon="3.21541">
        <ele>616.3</ele>
        <time>2017-02-17T15:53:53Z</time>
      </trkpt>
      <trkpt lat="44.22383" lon="3.21537">
        <ele>617.6</ele>
        <time>2017-02-17T15:53:55Z</time>
      </trkpt>
      <trkpt lat="44.22382" lon="3.21532">
        <ele>621.1</ele>
        <time>2017-02-17T15:53:56Z</time>
      </trkpt>
      <trkpt lat="44.22379" lon="3.21529">
        <ele>622.1</ele>
        <time>2017-02-17T15:53:57Z</time>
      </trkpt>
      <trkpt lat="44.22376" lon="3.21524">
        <ele>622.9</ele>
        <time>2017-02-17T15:54:07Z</time>
      </trkpt>
      <trkpt lat="44.22373" lon="3.21522">
        <ele>621.7</ele>
        <time>2017-02-17T15:54:08Z</time>
      </trkpt>
      <trkpt lat="44.22375" lon="3.21518">
        <ele>627.2</ele>
        <time>2017-02-17T15:54:59Z</time>
      </trkpt>
      <trkpt lat="44.22378" lon="3.21519">
        <ele>630.7</ele>
        <time>2017-02-17T15:55:14Z</time>
      </trkpt>
      <trkpt lat="44.22381" lon="3.21519">
        <ele>634</ele>
        <time>2017-02-17T15:55:18Z</time>
      </trkpt>
      <trkpt lat="44.22384" lon="3.21519">
        <ele>637.1</ele>
        <time>2017-02-17T15:55:20Z</time>
      </trkpt>
      <trkpt lat="44.22387" lon="3.2152">
        <ele>640</ele>
        <time>2017-02-17T15:55:22Z</time>
      </trkpt>
      <trkpt lat="44.22391" lon="3.21521">
        <ele>642.7</ele>
        <time>2017-02-17T15:55:25Z</time>
      </trkpt>
      <trkpt lat="44.22394" lon="3.21521">
        <ele>645.5</ele>
        <time>2017-02-17T15:55:27Z</time>
      </trkpt>
      <trkpt lat="44.22397" lon="3.21521">
        <ele>648.4</ele>
        <time>2017-02-17T15:55:29Z</time>
      </trkpt>
      <trkpt lat="44.224" lon="3.2152">
        <ele>651.4</ele>
        <time>2017-02-17T15:55:31Z</time>
      </trkpt>
      <trkpt lat="44.22403" lon="3.2152">
        <ele>654.4</ele>
        <time>2017-02-17T15:55:33Z</time>
      </trkpt>
      <trkpt lat="44.22407" lon="3.21518">
        <ele>657.3</ele>
        <time>2017-02-17T15:55:35Z</time>
      </trkpt>
      <trkpt lat="44.2241" lon="3.21517">
        <ele>661.2</ele>
        <time>2017-02-17T15:55:37Z</time>
      </trkpt>
      <trkpt lat="44.22413" lon="3.21517">
        <ele>663.6</ele>
        <time>2017-02-17T15:56:21Z</time>
      </trkpt>
      <trkpt lat="44.22411" lon="3.21518">
        <ele>664.3</ele>
        <time>2017-02-17T15:57:21Z</time>
      </trkpt>
      <trkpt lat="44.22407" lon="3.21519">
        <ele>665.3</ele>
        <time>2017-02-17T15:57:24Z</time>
      </trkpt>
      <trkpt lat="44.22404" lon="3.21518">
        <ele>666.2</ele>
        <time>2017-02-17T15:57:33Z</time>
      </trkpt>
      <trkpt lat="44.22401" lon="3.21518">
        <ele>667.2</ele>
        <time>2017-02-17T15:57:41Z</time>
      </trkpt>
      <trkpt lat="44.22399" lon="3.21512">
        <ele>668.8</ele>
        <time>2017-02-17T15:57:45Z</time>
      </trkpt>
      <trkpt lat="44.22398" lon="3.21509">
        <ele>670</ele>
        <time>2017-02-17T15:58:06Z</time>
      </trkpt>
      <trkpt lat="44.22395" lon="3.21506">
        <ele>671.5</ele>
        <time>2017-02-17T15:58:07Z</time>
      </trkpt>
      <trkpt lat="44.22392" lon="3.21503">
        <ele>672.9</ele>
        <time>2017-02-17T15:58:08Z</time>
      </trkpt>
      <trkpt lat="44.22389" lon="3.21503">
        <ele>674</ele>
        <time>2017-02-17T15:58:21Z</time>
      </trkpt>
      <trkpt lat="44.22385" lon="3.215">
        <ele>675.2</ele>
        <time>2017-02-17T15:58:23Z</time>
      </trkpt>
      <trkpt lat="44.22383" lon="3.21497">
        <ele>676</ele>
        <time>2017-02-17T15:58:27Z</time>
      </trkpt>
      <trkpt lat="44.22379" lon="3.21494">
        <ele>677.1</ele>
        <time>2017-02-17T15:58:30Z</time>
      </trkpt>
      <trkpt lat="44.22376" lon="3.21493">
        <ele>677.7</ele>
        <time>2017-02-17T15:58:33Z</time>
      </trkpt>
      <trkpt lat="44.22375" lon="3.21489">
        <ele>678.4</ele>
        <time>2017-02-17T15:58:35Z</time>
      </trkpt>
      <trkpt lat="44.22374" lon="3.21485">
        <ele>679.1</ele>
        <time>2017-02-17T15:58:47Z</time>
      </trkpt>
      <trkpt lat="44.22373" lon="3.21481">
        <ele>679.7</ele>
        <time>2017-02-17T15:58:48Z</time>
      </trkpt>
      <trkpt lat="44.22372" lon="3.21477">
        <ele>680.3</ele>
        <time>2017-02-17T15:58:50Z</time>
      </trkpt>
      <trkpt lat="44.22371" lon="3.21474">
        <ele>680.8</ele>
        <time>2017-02-17T15:58:52Z</time>
      </trkpt>
      <trkpt lat="44.22369" lon="3.2147">
        <ele>681.5</ele>
        <time>2017-02-17T15:58:55Z</time>
      </trkpt>
      <trkpt lat="44.22368" lon="3.21465">
        <ele>682.3</ele>
        <time>2017-02-17T15:58:58Z</time>
      </trkpt>
      <trkpt lat="44.22368" lon="3.2146">
        <ele>683.1</ele>
        <time>2017-02-17T15:58:59Z</time>
      </trkpt>
      <trkpt lat="44.22367" lon="3.21456">
        <ele>683.8</ele>
        <time>2017-02-17T15:59:02Z</time>
      </trkpt>
      <trkpt lat="44.22362" lon="3.21448">
        <ele>685.9</ele>
        <time>2017-02-17T16:02:24Z</time>
      </trkpt>
      <trkpt lat="44.2236" lon="3.21445">
        <ele>686.5</ele>
        <time>2017-02-17T16:02:26Z</time>
      </trkpt>
      <trkpt lat="44.22358" lon="3.21442">
        <ele>687.2</ele>
        <time>2017-02-17T16:02:28Z</time>
      </trkpt>
      <trkpt lat="44.22353" lon="3.21437">
        <ele>688.6</ele>
        <time>2017-02-17T16:02:30Z</time>
      </trkpt>
      <trkpt lat="44.2235" lon="3.21435">
        <ele>689.3</ele>
        <time>2017-02-17T16:02:32Z</time>
      </trkpt>
      <trkpt lat="44.22347" lon="3.21431">
        <ele>690.3</ele>
        <time>2017-02-17T16:02:35Z</time>
      </trkpt>
      <trkpt lat="44.22346" lon="3.21428">
        <ele>691.1</ele>
        <time>2017-02-17T16:03:15Z</time>
      </trkpt>
      <trkpt lat="44.22345" lon="3.21422">
        <ele>692.3</ele>
        <time>2017-02-17T16:03:25Z</time>
      </trkpt>
      <trkpt lat="44.22343" lon="3.21418">
        <ele>693.4</ele>
        <time>2017-02-17T16:03:29Z</time>
      </trkpt>
      <trkpt lat="44.22344" lon="3.21413">
        <ele>694.5</ele>
        <time>2017-02-17T16:03:45Z</time>
      </trkpt>
      <trkpt lat="44.22344" lon="3.21408">
        <ele>695.9</ele>
        <time>2017-02-17T16:03:48Z</time>
      </trkpt>
      <trkpt lat="44.22345" lon="3.21401">
        <ele>697.4</ele>
        <time>2017-02-17T16:03:54Z</time>
      </trkpt>
      <trkpt lat="44.22345" lon="3.21395">
        <ele>698.4</ele>
        <time>2017-02-17T16:03:56Z</time>
      </trkpt>
      <trkpt lat="44.22343" lon="3.21387">
        <ele>699.7</ele>
        <time>2017-02-17T16:03:58Z</time>
      </trkpt>
      <trkpt lat="44.22341" lon="3.21381">
        <ele>700.6</ele>
        <time>2017-02-17T16:03:59Z</time>
      </trkpt>
      <trkpt lat="44.22338" lon="3.21374">
        <ele>701.8</ele>
        <time>2017-02-17T16:04:01Z</time>
      </trkpt>
      <trkpt lat="44.22337" lon="3.21369">
        <ele>702.4</ele>
        <time>2017-02-17T16:04:03Z</time>
      </trkpt>
      <trkpt lat="44.22335" lon="3.21365">
        <ele>703.1</ele>
        <time>2017-02-17T16:04:06Z</time>
      </trkpt>
      <trkpt lat="44.22334" lon="3.21362">
        <ele>703.6</ele>
        <time>2017-02-17T16:04:07Z</time>
      </trkpt>
      <trkpt lat="44.22331" lon="3.21357">
        <ele>704.3</ele>
        <time>2017-02-17T16:04:09Z</time>
      </trkpt>
      <trkpt lat="44.22329" lon="3.21351">
        <ele>705</ele>
        <time>2017-02-17T16:04:12Z</time>
      </trkpt>
      <trkpt lat="44.22328" lon="3.21347">
        <ele>705.5</ele>
        <time>2017-02-17T16:04:14Z</time>
      </trkpt>
      <trkpt lat="44.22327" lon="3.21342">
        <ele>705.9</ele>
        <time>2017-02-17T16:04:16Z</time>
      </trkpt>
      <trkpt lat="44.22326" lon="3.21336">
        <ele>706.4</ele>
        <time>2017-02-17T16:04:18Z</time>
      </trkpt>
      <trkpt lat="44.2232" lon="3.2133">
        <ele>707.3</ele>
        <time>2017-02-17T16:04:20Z</time>
      </trkpt>
      <trkpt lat="44.22317" lon="3.21326">
        <ele>707.9</ele>
        <time>2017-02-17T16:04:21Z</time>
      </trkpt>
      <trkpt lat="44.22314" lon="3.21323">
        <ele>708.5</ele>
        <time>2017-02-17T16:04:23Z</time>
      </trkpt>
      <trkpt lat="44.22311" lon="3.2132">
        <ele>709.1</ele>
        <time>2017-02-17T16:04:26Z</time>
      </trkpt>
      <trkpt lat="44.22308" lon="3.21316">
        <ele>710</ele>
        <time>2017-02-17T16:04:28Z</time>
      </trkpt>
      <trkpt lat="44.22304" lon="3.21313">
        <ele>710.9</ele>
        <time>2017-02-17T16:04:30Z</time>
      </trkpt>
      <trkpt lat="44.22302" lon="3.2131">
        <ele>711.6</ele>
        <time>2017-02-17T16:04:32Z</time>
      </trkpt>
      <trkpt lat="44.22299" lon="3.21309">
        <ele>711.8</ele>
        <time>2017-02-17T16:04:34Z</time>
      </trkpt>
      <trkpt lat="44.22297" lon="3.21306">
        <ele>711.6</ele>
        <time>2017-02-17T16:04:36Z</time>
      </trkpt>
      <trkpt lat="44.22294" lon="3.21302">
        <ele>711.3</ele>
        <time>2017-02-17T16:04:38Z</time>
      </trkpt>
      <trkpt lat="44.22292" lon="3.21299">
        <ele>711.1</ele>
        <time>2017-02-17T16:04:39Z</time>
      </trkpt>
      <trkpt lat="44.2229" lon="3.21296">
        <ele>710.8</ele>
        <time>2017-02-17T16:04:40Z</time>
      </trkpt>
      <trkpt lat="44.22286" lon="3.21293">
        <ele>710.5</ele>
        <time>2017-02-17T16:04:42Z</time>
      </trkpt>
      <trkpt lat="44.22284" lon="3.21291">
        <ele>710.4</ele>
        <time>2017-02-17T16:04:43Z</time>
      </trkpt>
      <trkpt lat="44.22281" lon="3.21288">
        <ele>710.5</ele>
        <time>2017-02-17T16:04:44Z</time>
      </trkpt>
      <trkpt lat="44.22278" lon="3.21286">
        <ele>710.8</ele>
        <time>2017-02-17T16:04:45Z</time>
      </trkpt>
      <trkpt lat="44.22275" lon="3.21289">
        <ele>711.5</ele>
        <time>2017-02-17T16:04:49Z</time>
      </trkpt>
      <trkpt lat="44.22272" lon="3.21292">
        <ele>712.2</ele>
        <time>2017-02-17T16:04:51Z</time>
      </trkpt>
      <trkpt lat="44.2227" lon="3.21295">
        <ele>712.5</ele>
        <time>2017-02-17T16:04:52Z</time>
      </trkpt>
      <trkpt lat="44.22269" lon="3.21299">
        <ele>712.7</ele>
        <time>2017-02-17T16:04:54Z</time>
      </trkpt>
      <trkpt lat="44.22267" lon="3.21305">
        <ele>712.9</ele>
        <time>2017-02-17T16:05:10Z</time>
      </trkpt>
      <trkpt lat="44.22265" lon="3.2131">
        <ele>713</ele>
        <time>2017-02-17T16:05:12Z</time>
      </trkpt>
      <trkpt lat="44.22262" lon="3.21313">
        <ele>713.1</ele>
        <time>2017-02-17T16:05:15Z</time>
      </trkpt>
      <trkpt lat="44.22261" lon="3.21316">
        <ele>713.2</ele>
        <time>2017-02-17T16:05:23Z</time>
      </trkpt>
      <trkpt lat="44.22263" lon="3.21313">
        <ele>713.4</ele>
        <time>2017-02-17T16:05:38Z</time>
      </trkpt>
      <trkpt lat="44.2226" lon="3.21313">
        <ele>713.5</ele>
        <time>2017-02-17T16:05:45Z</time>
      </trkpt>
      <trkpt lat="44.22257" lon="3.21316">
        <ele>713.5</ele>
        <time>2017-02-17T16:05:51Z</time>
      </trkpt>
      <trkpt lat="44.22254" lon="3.21317">
        <ele>713.4</ele>
        <time>2017-02-17T16:05:55Z</time>
      </trkpt>
      <trkpt lat="44.22251" lon="3.21317">
        <ele>713.5</ele>
        <time>2017-02-17T16:07:53Z</time>
      </trkpt>
      <trkpt lat="44.22246" lon="3.21315">
        <ele>713.7</ele>
        <time>2017-02-17T16:07:58Z</time>
      </trkpt>
      <trkpt lat="44.2224" lon="3.21316">
        <ele>714.2</ele>
        <time>2017-02-17T16:08:09Z</time>
      </trkpt>
      <trkpt lat="44.22236" lon="3.21315">
        <ele>714.7</ele>
        <time>2017-02-17T16:08:11Z</time>
      </trkpt>
      <trkpt lat="44.22233" lon="3.21312">
        <ele>715</ele>
        <time>2017-02-17T16:08:12Z</time>
      </trkpt>
      <trkpt lat="44.2223" lon="3.2131">
        <ele>715.3</ele>
        <time>2017-02-17T16:08:15Z</time>
      </trkpt>
      <trkpt lat="44.22227" lon="3.21308">
        <ele>715.6</ele>
        <time>2017-02-17T16:08:18Z</time>
      </trkpt>
      <trkpt lat="44.22222" lon="3.21307">
        <ele>716.2</ele>
        <time>2017-02-17T16:08:21Z</time>
      </trkpt>
      <trkpt lat="44.22217" lon="3.21304">
        <ele>716.7</ele>
        <time>2017-02-17T16:08:24Z</time>
      </trkpt>
      <trkpt lat="44.22215" lon="3.21301">
        <ele>717.1</ele>
        <time>2017-02-17T16:08:27Z</time>
      </trkpt>
      <trkpt lat="44.22211" lon="3.21299">
        <ele>717.5</ele>
        <time>2017-02-17T16:08:30Z</time>
      </trkpt>
      <trkpt lat="44.22207" lon="3.213">
        <ele>717.9</ele>
        <time>2017-02-17T16:08:31Z</time>
      </trkpt>
      <trkpt lat="44.22204" lon="3.213">
        <ele>718.3</ele>
        <time>2017-02-17T16:08:40Z</time>
      </trkpt>
      <trkpt lat="44.22201" lon="3.21299">
        <ele>718.6</ele>
        <time>2017-02-17T16:08:45Z</time>
      </trkpt>
      <trkpt lat="44.22198" lon="3.21299">
        <ele>718.9</ele>
        <time>2017-02-17T16:08:50Z</time>
      </trkpt>
      <trkpt lat="44.22195" lon="3.213">
        <ele>719.1</ele>
        <time>2017-02-17T16:08:57Z</time>
      </trkpt>
      <trkpt lat="44.22192" lon="3.21302">
        <ele>719.3</ele>
        <time>2017-02-17T16:08:58Z</time>
      </trkpt>
      <trkpt lat="44.2219" lon="3.21304">
        <ele>719.3</ele>
        <time>2017-02-17T16:09:05Z</time>
      </trkpt>
      <trkpt lat="44.22187" lon="3.21303">
        <ele>719.2</ele>
        <time>2017-02-17T16:09:10Z</time>
      </trkpt>
      <trkpt lat="44.22184" lon="3.21304">
        <ele>719.1</ele>
        <time>2017-02-17T16:09:13Z</time>
      </trkpt>
      <trkpt lat="44.22181" lon="3.21305">
        <ele>719</ele>
        <time>2017-02-17T16:09:18Z</time>
      </trkpt>
      <trkpt lat="44.22178" lon="3.21307">
        <ele>718.8</ele>
        <time>2017-02-17T16:09:26Z</time>
      </trkpt>
      <trkpt lat="44.22172" lon="3.2131">
        <ele>718.3</ele>
        <time>2017-02-17T16:09:28Z</time>
      </trkpt>
      <trkpt lat="44.22168" lon="3.21312">
        <ele>718</ele>
        <time>2017-02-17T16:09:29Z</time>
      </trkpt>
      <trkpt lat="44.22164" lon="3.21313">
        <ele>717.6</ele>
        <time>2017-02-17T16:09:31Z</time>
      </trkpt>
      <trkpt lat="44.2216" lon="3.21315">
        <ele>717.2</ele>
        <time>2017-02-17T16:09:33Z</time>
      </trkpt>
      <trkpt lat="44.22156" lon="3.21317">
        <ele>716.8</ele>
        <time>2017-02-17T16:09:35Z</time>
      </trkpt>
      <trkpt lat="44.22153" lon="3.2132">
        <ele>716.3</ele>
        <time>2017-02-17T16:09:37Z</time>
      </trkpt>
      <trkpt lat="44.22149" lon="3.21323">
        <ele>715.7</ele>
        <time>2017-02-17T16:09:39Z</time>
      </trkpt>
      <trkpt lat="44.22145" lon="3.21326">
        <ele>715</ele>
        <time>2017-02-17T16:09:41Z</time>
      </trkpt>
      <trkpt lat="44.2214" lon="3.21329">
        <ele>714.2</ele>
        <time>2017-02-17T16:09:43Z</time>
      </trkpt>
      <trkpt lat="44.22137" lon="3.21332">
        <ele>713.7</ele>
        <time>2017-02-17T16:09:44Z</time>
      </trkpt>
      <trkpt lat="44.22135" lon="3.21335">
        <ele>713.3</ele>
        <time>2017-02-17T16:09:45Z</time>
      </trkpt>
      <trkpt lat="44.22133" lon="3.21339">
        <ele>712.8</ele>
        <time>2017-02-17T16:09:46Z</time>
      </trkpt>
      <trkpt lat="44.22129" lon="3.21345">
        <ele>712.1</ele>
        <time>2017-02-17T16:09:47Z</time>
      </trkpt>
      <trkpt lat="44.22126" lon="3.21349">
        <ele>711.7</ele>
        <time>2017-02-17T16:09:48Z</time>
      </trkpt>
      <trkpt lat="44.22123" lon="3.21352">
        <ele>711.4</ele>
        <time>2017-02-17T16:09:49Z</time>
      </trkpt>
      <trkpt lat="44.2212" lon="3.21356">
        <ele>711</ele>
        <time>2017-02-17T16:09:50Z</time>
      </trkpt>
      <trkpt lat="44.22116" lon="3.2136">
        <ele>710.6</ele>
        <time>2017-02-17T16:09:51Z</time>
      </trkpt>
      <trkpt lat="44.22113" lon="3.21363">
        <ele>710.4</ele>
        <time>2017-02-17T16:09:52Z</time>
      </trkpt>
      <trkpt lat="44.2211" lon="3.21367">
        <ele>710.1</ele>
        <time>2017-02-17T16:09:53Z</time>
      </trkpt>
      <trkpt lat="44.22105" lon="3.21372">
        <ele>709.7</ele>
        <time>2017-02-17T16:09:54Z</time>
      </trkpt>
      <trkpt lat="44.22102" lon="3.21375">
        <ele>709.5</ele>
        <time>2017-02-17T16:09:55Z</time>
      </trkpt>
      <trkpt lat="44.22098" lon="3.21377">
        <ele>709.4</ele>
        <time>2017-02-17T16:09:56Z</time>
      </trkpt>
      <trkpt lat="44.22095" lon="3.21379">
        <ele>709.2</ele>
        <time>2017-02-17T16:09:57Z</time>
      </trkpt>
      <trkpt lat="44.22089" lon="3.21383">
        <ele>709</ele>
        <time>2017-02-17T16:09:58Z</time>
      </trkpt>
      <trkpt lat="44.22086" lon="3.21385">
        <ele>708.9</ele>
        <time>2017-02-17T16:09:59Z</time>
      </trkpt>
      <trkpt lat="44.22084" lon="3.21389">
        <ele>708.4</ele>
        <time>2017-02-17T16:10:01Z</time>
      </trkpt>
      <trkpt lat="44.22079" lon="3.21395">
        <ele>707.9</ele>
        <time>2017-02-17T16:10:03Z</time>
      </trkpt>
      <trkpt lat="44.22075" lon="3.21401">
        <ele>707.3</ele>
        <time>2017-02-17T16:10:04Z</time>
      </trkpt>
      <trkpt lat="44.22071" lon="3.21407">
        <ele>706.8</ele>
        <time>2017-02-17T16:10:05Z</time>
      </trkpt>
      <trkpt lat="44.2207" lon="3.2141">
        <ele>706.5</ele>
        <time>2017-02-17T16:10:06Z</time>
      </trkpt>
      <trkpt lat="44.22064" lon="3.21416">
        <ele>705.9</ele>
        <time>2017-02-17T16:10:07Z</time>
      </trkpt>
      <trkpt lat="44.2206" lon="3.21423">
        <ele>705.4</ele>
        <time>2017-02-17T16:10:08Z</time>
      </trkpt>
      <trkpt lat="44.22056" lon="3.21427">
        <ele>705.1</ele>
        <time>2017-02-17T16:10:09Z</time>
      </trkpt>
      <trkpt lat="44.22051" lon="3.21434">
        <ele>704.7</ele>
        <time>2017-02-17T16:10:10Z</time>
      </trkpt>
      <trkpt lat="44.22047" lon="3.21441">
        <ele>704.4</ele>
        <time>2017-02-17T16:10:11Z</time>
      </trkpt>
      <trkpt lat="44.22044" lon="3.21444">
        <ele>704.2</ele>
        <time>2017-02-17T16:10:12Z</time>
      </trkpt>
      <trkpt lat="44.2204" lon="3.2145">
        <ele>704</ele>
        <time>2017-02-17T16:10:13Z</time>
      </trkpt>
      <trkpt lat="44.22035" lon="3.21455">
        <ele>703.8</ele>
        <time>2017-02-17T16:10:14Z</time>
      </trkpt>
      <trkpt lat="44.22031" lon="3.21457">
        <ele>703.6</ele>
        <time>2017-02-17T16:10:15Z</time>
      </trkpt>
      <trkpt lat="44.22027" lon="3.2146">
        <ele>703.5</ele>
        <time>2017-02-17T16:10:16Z</time>
      </trkpt>
      <trkpt lat="44.22024" lon="3.21462">
        <ele>703.3</ele>
        <time>2017-02-17T16:10:17Z</time>
      </trkpt>
      <trkpt lat="44.22022" lon="3.21465">
        <ele>703.2</ele>
        <time>2017-02-17T16:10:18Z</time>
      </trkpt>
      <trkpt lat="44.2202" lon="3.21467">
        <ele>703.1</ele>
        <time>2017-02-17T16:10:19Z</time>
      </trkpt>
      <trkpt lat="44.22017" lon="3.2147">
        <ele>703</ele>
        <time>2017-02-17T16:10:20Z</time>
      </trkpt>
      <trkpt lat="44.22014" lon="3.21471">
        <ele>702.8</ele>
        <time>2017-02-17T16:10:21Z</time>
      </trkpt>
      <trkpt lat="44.22012" lon="3.21473">
        <ele>702.7</ele>
        <time>2017-02-17T16:10:22Z</time>
      </trkpt>
      <trkpt lat="44.22008" lon="3.21478">
        <ele>702.5</ele>
        <time>2017-02-17T16:10:24Z</time>
      </trkpt>
      <trkpt lat="44.22005" lon="3.21481">
        <ele>702.4</ele>
        <time>2017-02-17T16:10:26Z</time>
      </trkpt>
      <trkpt lat="44.22002" lon="3.21487">
        <ele>702.1</ele>
        <time>2017-02-17T16:10:28Z</time>
      </trkpt>
      <trkpt lat="44.22001" lon="3.21491">
        <ele>701.9</ele>
        <time>2017-02-17T16:10:29Z</time>
      </trkpt>
      <trkpt lat="44.21999" lon="3.21497">
        <ele>701.7</ele>
        <time>2017-02-17T16:10:30Z</time>
      </trkpt>
      <trkpt lat="44.21997" lon="3.21501">
        <ele>701.5</ele>
        <time>2017-02-17T16:10:31Z</time>
      </trkpt>
      <trkpt lat="44.21996" lon="3.21506">
        <ele>701.3</ele>
        <time>2017-02-17T16:10:32Z</time>
      </trkpt>
      <trkpt lat="44.21994" lon="3.21511">
        <ele>701.1</ele>
        <time>2017-02-17T16:10:33Z</time>
      </trkpt>
      <trkpt lat="44.21993" lon="3.21514">
        <ele>701</ele>
        <time>2017-02-17T16:10:34Z</time>
      </trkpt>
      <trkpt lat="44.21992" lon="3.21521">
        <ele>700.8</ele>
        <time>2017-02-17T16:10:35Z</time>
      </trkpt>
      <trkpt lat="44.21991" lon="3.21525">
        <ele>700.8</ele>
        <time>2017-02-17T16:10:36Z</time>
      </trkpt>
      <trkpt lat="44.21991" lon="3.21529">
        <ele>700.7</ele>
        <time>2017-02-17T16:10:37Z</time>
      </trkpt>
      <trkpt lat="44.21989" lon="3.21533">
        <ele>700.7</ele>
        <time>2017-02-17T16:10:38Z</time>
      </trkpt>
      <trkpt lat="44.21987" lon="3.2154">
        <ele>700.7</ele>
        <time>2017-02-17T16:10:40Z</time>
      </trkpt>
      <trkpt lat="44.21985" lon="3.21544">
        <ele>700.6</ele>
        <time>2017-02-17T16:10:41Z</time>
      </trkpt>
      <trkpt lat="44.21983" lon="3.21549">
        <ele>700.4</ele>
        <time>2017-02-17T16:10:42Z</time>
      </trkpt>
      <trkpt lat="44.21981" lon="3.21555">
        <ele>700</ele>
        <time>2017-02-17T16:10:44Z</time>
      </trkpt>
      <trkpt lat="44.21978" lon="3.21559">
        <ele>699.5</ele>
        <time>2017-02-17T16:10:46Z</time>
      </trkpt>
      <trkpt lat="44.21974" lon="3.2156">
        <ele>699.1</ele>
        <time>2017-02-17T16:10:47Z</time>
      </trkpt>
      <trkpt lat="44.2197" lon="3.21559">
        <ele>698.8</ele>
        <time>2017-02-17T16:10:49Z</time>
      </trkpt>
      <trkpt lat="44.21966" lon="3.21559">
        <ele>698.7</ele>
        <time>2017-02-17T16:10:51Z</time>
      </trkpt>
      <trkpt lat="44.21963" lon="3.21558">
        <ele>698.7</ele>
        <time>2017-02-17T16:10:53Z</time>
      </trkpt>
      <trkpt lat="44.21962" lon="3.21554">
        <ele>698.7</ele>
        <time>2017-02-17T16:10:56Z</time>
      </trkpt>
      <trkpt lat="44.21959" lon="3.21553">
        <ele>698.7</ele>
        <time>2017-02-17T16:11:01Z</time>
      </trkpt>
      <trkpt lat="44.21953" lon="3.21551">
        <ele>698.6</ele>
        <time>2017-02-17T16:11:13Z</time>
      </trkpt>
      <trkpt lat="44.21951" lon="3.21551">
        <ele>698.6</ele>
        <time>2017-02-17T16:11:23Z</time>
      </trkpt>
      <trkpt lat="44.21945" lon="3.21551">
        <ele>698.4</ele>
        <time>2017-02-17T16:11:32Z</time>
      </trkpt>
      <trkpt lat="44.21941" lon="3.21548">
        <ele>697.9</ele>
        <time>2017-02-17T16:11:34Z</time>
      </trkpt>
      <trkpt lat="44.21938" lon="3.21549">
        <ele>697.6</ele>
        <time>2017-02-17T16:11:36Z</time>
      </trkpt>
      <trkpt lat="44.21935" lon="3.21548">
        <ele>697.4</ele>
        <time>2017-02-17T16:11:39Z</time>
      </trkpt>
      <trkpt lat="44.21932" lon="3.21546">
        <ele>697.2</ele>
        <time>2017-02-17T16:11:41Z</time>
      </trkpt>
      <trkpt lat="44.21928" lon="3.21547">
        <ele>696.9</ele>
        <time>2017-02-17T16:11:43Z</time>
      </trkpt>
      <trkpt lat="44.21923" lon="3.21543">
        <ele>696.5</ele>
        <time>2017-02-17T16:11:45Z</time>
      </trkpt>
      <trkpt lat="44.21919" lon="3.21545">
        <ele>696.3</ele>
        <time>2017-02-17T16:11:47Z</time>
      </trkpt>
      <trkpt lat="44.21916" lon="3.21544">
        <ele>696.1</ele>
        <time>2017-02-17T16:11:48Z</time>
      </trkpt>
      <trkpt lat="44.21913" lon="3.21546">
        <ele>696</ele>
        <time>2017-02-17T16:11:50Z</time>
      </trkpt>
      <trkpt lat="44.21908" lon="3.21544">
        <ele>695.8</ele>
        <time>2017-02-17T16:11:52Z</time>
      </trkpt>
      <trkpt lat="44.21904" lon="3.21542">
        <ele>695.7</ele>
        <time>2017-02-17T16:11:54Z</time>
      </trkpt>
      <trkpt lat="44.21901" lon="3.21542">
        <ele>695.6</ele>
        <time>2017-02-17T16:11:56Z</time>
      </trkpt>
      <trkpt lat="44.21897" lon="3.21543">
        <ele>695.5</ele>
        <time>2017-02-17T16:11:58Z</time>
      </trkpt>
      <trkpt lat="44.21893" lon="3.21542">
        <ele>695.3</ele>
        <time>2017-02-17T16:12:00Z</time>
      </trkpt>
      <trkpt lat="44.21887" lon="3.21544">
        <ele>695</ele>
        <time>2017-02-17T16:12:02Z</time>
      </trkpt>
      <trkpt lat="44.21884" lon="3.21545">
        <ele>694.8</ele>
        <time>2017-02-17T16:12:03Z</time>
      </trkpt>
      <trkpt lat="44.21881" lon="3.21543">
        <ele>694.6</ele>
        <time>2017-02-17T16:12:05Z</time>
      </trkpt>
      <trkpt lat="44.21875" lon="3.21543">
        <ele>694.2</ele>
        <time>2017-02-17T16:12:07Z</time>
      </trkpt>
      <trkpt lat="44.21871" lon="3.21544">
        <ele>694</ele>
        <time>2017-02-17T16:12:08Z</time>
      </trkpt>
      <trkpt lat="44.21868" lon="3.21544">
        <ele>693.9</ele>
        <time>2017-02-17T16:12:09Z</time>
      </trkpt>
      <trkpt lat="44.21863" lon="3.21543">
        <ele>693.7</ele>
        <time>2017-02-17T16:12:10Z</time>
      </trkpt>
      <trkpt lat="44.2186" lon="3.21543">
        <ele>693.6</ele>
        <time>2017-02-17T16:12:11Z</time>
      </trkpt>
      <trkpt lat="44.21857" lon="3.21543">
        <ele>693.5</ele>
        <time>2017-02-17T16:12:12Z</time>
      </trkpt>
      <trkpt lat="44.21854" lon="3.21544">
        <ele>693.3</ele>
        <time>2017-02-17T16:12:13Z</time>
      </trkpt>
      <trkpt lat="44.2185" lon="3.21545">
        <ele>692.9</ele>
        <time>2017-02-17T16:12:14Z</time>
      </trkpt>
      <trkpt lat="44.21847" lon="3.21546">
        <ele>692.6</ele>
        <time>2017-02-17T16:12:15Z</time>
      </trkpt>
      <trkpt lat="44.21844" lon="3.21546">
        <ele>692.2</ele>
        <time>2017-02-17T16:12:16Z</time>
      </trkpt>
      <trkpt lat="44.21839" lon="3.21547">
        <ele>691.5</ele>
        <time>2017-02-17T16:12:17Z</time>
      </trkpt>
      <trkpt lat="44.21836" lon="3.21548">
        <ele>690.9</ele>
        <time>2017-02-17T16:12:25Z</time>
      </trkpt>
      <trkpt lat="44.21834" lon="3.21551">
        <ele>690.6</ele>
        <time>2017-02-17T16:12:26Z</time>
      </trkpt>
      <trkpt lat="44.21831" lon="3.21555">
        <ele>690.1</ele>
        <time>2017-02-17T16:12:29Z</time>
      </trkpt>
      <trkpt lat="44.21827" lon="3.21558">
        <ele>689.7</ele>
        <time>2017-02-17T16:12:30Z</time>
      </trkpt>
      <trkpt lat="44.21822" lon="3.21563">
        <ele>689.1</ele>
        <time>2017-02-17T16:12:31Z</time>
      </trkpt>
      <trkpt lat="44.21817" lon="3.21568">
        <ele>688.5</ele>
        <time>2017-02-17T16:12:32Z</time>
      </trkpt>
      <trkpt lat="44.21813" lon="3.21573">
        <ele>688.1</ele>
        <time>2017-02-17T16:12:33Z</time>
      </trkpt>
      <trkpt lat="44.2181" lon="3.21576">
        <ele>687.8</ele>
        <time>2017-02-17T16:12:34Z</time>
      </trkpt>
      <trkpt lat="44.21806" lon="3.21579">
        <ele>687.4</ele>
        <time>2017-02-17T16:12:35Z</time>
      </trkpt>
      <trkpt lat="44.21799" lon="3.21583">
        <ele>686.7</ele>
        <time>2017-02-17T16:12:36Z</time>
      </trkpt>
      <trkpt lat="44.21794" lon="3.21585">
        <ele>686.1</ele>
        <time>2017-02-17T16:12:37Z</time>
      </trkpt>
      <trkpt lat="44.21791" lon="3.21586">
        <ele>685.8</ele>
        <time>2017-02-17T16:12:38Z</time>
      </trkpt>
      <trkpt lat="44.21787" lon="3.21589">
        <ele>685.1</ele>
        <time>2017-02-17T16:12:40Z</time>
      </trkpt>
      <trkpt lat="44.21783" lon="3.21591">
        <ele>684.6</ele>
        <time>2017-02-17T16:12:42Z</time>
      </trkpt>
      <trkpt lat="44.21781" lon="3.21595">
        <ele>684</ele>
        <time>2017-02-17T16:12:44Z</time>
      </trkpt>
      <trkpt lat="44.21778" lon="3.21597">
        <ele>683.4</ele>
        <time>2017-02-17T16:12:45Z</time>
      </trkpt>
      <trkpt lat="44.21775" lon="3.21601">
        <ele>682.6</ele>
        <time>2017-02-17T16:12:46Z</time>
      </trkpt>
      <trkpt lat="44.2177" lon="3.21606">
        <ele>681.5</ele>
        <time>2017-02-17T16:12:47Z</time>
      </trkpt>
      <trkpt lat="44.21766" lon="3.21611">
        <ele>680.4</ele>
        <time>2017-02-17T16:12:48Z</time>
      </trkpt>
      <trkpt lat="44.21763" lon="3.21615">
        <ele>679.5</ele>
        <time>2017-02-17T16:12:49Z</time>
      </trkpt>
      <trkpt lat="44.21757" lon="3.2162">
        <ele>678.4</ele>
        <time>2017-02-17T16:12:50Z</time>
      </trkpt>
      <trkpt lat="44.21755" lon="3.21622">
        <ele>677.9</ele>
        <time>2017-02-17T16:12:52Z</time>
      </trkpt>
      <trkpt lat="44.21752" lon="3.21624">
        <ele>677.3</ele>
        <time>2017-02-17T16:13:00Z</time>
      </trkpt>
      <trkpt lat="44.21748" lon="3.21627">
        <ele>676.3</ele>
        <time>2017-02-17T16:13:05Z</time>
      </trkpt>
      <trkpt lat="44.21744" lon="3.21632">
        <ele>675.2</ele>
        <time>2017-02-17T16:13:07Z</time>
      </trkpt>
      <trkpt lat="44.21738" lon="3.21634">
        <ele>674.3</ele>
        <time>2017-02-17T16:13:09Z</time>
      </trkpt>
      <trkpt lat="44.21735" lon="3.21632">
        <ele>673.7</ele>
        <time>2017-02-17T16:13:11Z</time>
      </trkpt>
      <trkpt lat="44.21732" lon="3.21631">
        <ele>673.3</ele>
        <time>2017-02-17T16:13:17Z</time>
      </trkpt>
      <trkpt lat="44.21729" lon="3.21631">
        <ele>672.8</ele>
        <time>2017-02-17T16:13:26Z</time>
      </trkpt>
      <trkpt lat="44.21726" lon="3.21629">
        <ele>672.3</ele>
        <time>2017-02-17T16:13:41Z</time>
      </trkpt>
      <trkpt lat="44.21722" lon="3.21628">
        <ele>671.5</ele>
        <time>2017-02-17T16:13:43Z</time>
      </trkpt>
      <trkpt lat="44.21717" lon="3.21628">
        <ele>670.5</ele>
        <time>2017-02-17T16:13:45Z</time>
      </trkpt>
      <trkpt lat="44.21714" lon="3.21629">
        <ele>669.7</ele>
        <time>2017-02-17T16:13:47Z</time>
      </trkpt>
      <trkpt lat="44.2171" lon="3.2163">
        <ele>669.1</ele>
        <time>2017-02-17T16:13:48Z</time>
      </trkpt>
      <trkpt lat="44.21707" lon="3.21632">
        <ele>668.5</ele>
        <time>2017-02-17T16:13:50Z</time>
      </trkpt>
      <trkpt lat="44.21708" lon="3.21636">
        <ele>668.1</ele>
        <time>2017-02-17T16:13:52Z</time>
      </trkpt>
      <trkpt lat="44.21708" lon="3.21641">
        <ele>667.8</ele>
        <time>2017-02-17T16:13:53Z</time>
      </trkpt>
      <trkpt lat="44.21706" lon="3.21644">
        <ele>667.4</ele>
        <time>2017-02-17T16:13:54Z</time>
      </trkpt>
      <trkpt lat="44.21703" lon="3.21652">
        <ele>666.9</ele>
        <time>2017-02-17T16:13:55Z</time>
      </trkpt>
      <trkpt lat="44.21701" lon="3.21661">
        <ele>666.2</ele>
        <time>2017-02-17T16:13:56Z</time>
      </trkpt>
      <trkpt lat="44.21698" lon="3.21667">
        <ele>665.8</ele>
        <time>2017-02-17T16:13:57Z</time>
      </trkpt>
      <trkpt lat="44.21695" lon="3.21672">
        <ele>665.3</ele>
        <time>2017-02-17T16:13:58Z</time>
      </trkpt>
      <trkpt lat="44.21692" lon="3.21679">
        <ele>664.7</ele>
        <time>2017-02-17T16:13:59Z</time>
      </trkpt>
      <trkpt lat="44.21686" lon="3.21683">
        <ele>664.2</ele>
        <time>2017-02-17T16:14:05Z</time>
      </trkpt>
      <trkpt lat="44.21685" lon="3.21684">
        <ele>664.1</ele>
        <time>2017-02-17T16:14:09Z</time>
      </trkpt>
      <trkpt lat="44.21684" lon="3.21685">
        <ele>664</ele>
        <time>2017-02-17T16:14:15Z</time>
      </trkpt>
      <trkpt lat="44.21683" lon="3.21686">
        <ele>663.9</ele>
        <time>2017-02-17T16:14:16Z</time>
      </trkpt>
      <trkpt lat="44.21681" lon="3.21688">
        <ele>663.8</ele>
        <time>2017-02-17T16:14:17Z</time>
      </trkpt>
      <trkpt lat="44.21677" lon="3.21691">
        <ele>663.8</ele>
        <time>2017-02-17T16:14:19Z</time>
      </trkpt>
      <trkpt lat="44.21675" lon="3.21694">
        <ele>663.9</ele>
        <time>2017-02-17T16:14:22Z</time>
      </trkpt>
      <trkpt lat="44.21675" lon="3.21699">
        <ele>664.2</ele>
        <time>2017-02-17T16:14:29Z</time>
      </trkpt>
      <trkpt lat="44.21675" lon="3.21704">
        <ele>664.5</ele>
        <time>2017-02-17T16:14:32Z</time>
      </trkpt>
      <trkpt lat="44.21676" lon="3.21713">
        <ele>665.3</ele>
        <time>2017-02-17T16:14:35Z</time>
      </trkpt>
      <trkpt lat="44.21674" lon="3.21717">
        <ele>665.7</ele>
        <time>2017-02-17T16:14:36Z</time>
      </trkpt>
      <trkpt lat="44.21671" lon="3.21723">
        <ele>666.1</ele>
        <time>2017-02-17T16:14:37Z</time>
      </trkpt>
      <trkpt lat="44.21669" lon="3.21726">
        <ele>666.4</ele>
        <time>2017-02-17T16:14:39Z</time>
      </trkpt>
      <trkpt lat="44.21668" lon="3.2173">
        <ele>666.7</ele>
        <time>2017-02-17T16:14:54Z</time>
      </trkpt>
      <trkpt lat="44.21669" lon="3.21734">
        <ele>667</ele>
        <time>2017-02-17T16:15:05Z</time>
      </trkpt>
      <trkpt lat="44.21667" lon="3.21738">
        <ele>667.5</ele>
        <time>2017-02-17T16:15:08Z</time>
      </trkpt>
      <trkpt lat="44.21666" lon="3.21743">
        <ele>668.2</ele>
        <time>2017-02-17T16:15:11Z</time>
      </trkpt>
      <trkpt lat="44.21664" lon="3.21747">
        <ele>668.7</ele>
        <time>2017-02-17T16:15:13Z</time>
      </trkpt>
      <trkpt lat="44.21665" lon="3.21753">
        <ele>668.9</ele>
        <time>2017-02-17T16:15:15Z</time>
      </trkpt>
      <trkpt lat="44.21665" lon="3.21758">
        <ele>668.9</ele>
        <time>2017-02-17T16:15:17Z</time>
      </trkpt>
      <trkpt lat="44.21666" lon="3.21763">
        <ele>668.9</ele>
        <time>2017-02-17T16:15:19Z</time>
      </trkpt>
      <trkpt lat="44.21667" lon="3.21766">
        <ele>668.9</ele>
        <time>2017-02-17T16:15:20Z</time>
      </trkpt>
      <trkpt lat="44.21668" lon="3.2177">
        <ele>668.8</ele>
        <time>2017-02-17T16:15:21Z</time>
      </trkpt>
      <trkpt lat="44.21668" lon="3.21775">
        <ele>668.6</ele>
        <time>2017-02-17T16:15:22Z</time>
      </trkpt>
      <trkpt lat="44.21668" lon="3.21781">
        <ele>668.3</ele>
        <time>2017-02-17T16:15:23Z</time>
      </trkpt>
      <trkpt lat="44.21665" lon="3.21788">
        <ele>667.8</ele>
        <time>2017-02-17T16:15:24Z</time>
      </trkpt>
      <trkpt lat="44.21662" lon="3.21792">
        <ele>667.6</ele>
        <time>2017-02-17T16:15:25Z</time>
      </trkpt>
      <trkpt lat="44.2166" lon="3.21794">
        <ele>667.4</ele>
        <time>2017-02-17T16:15:26Z</time>
      </trkpt>
      <trkpt lat="44.21657" lon="3.21796">
        <ele>667.1</ele>
        <time>2017-02-17T16:15:28Z</time>
      </trkpt>
      <trkpt lat="44.21654" lon="3.218">
        <ele>666.9</ele>
        <time>2017-02-17T16:15:30Z</time>
      </trkpt>
      <trkpt lat="44.21653" lon="3.21803">
        <ele>666.7</ele>
        <time>2017-02-17T16:15:32Z</time>
      </trkpt>
      <trkpt lat="44.21649" lon="3.21807">
        <ele>666.5</ele>
        <time>2017-02-17T16:15:34Z</time>
      </trkpt>
      <trkpt lat="44.21646" lon="3.2181">
        <ele>666.4</ele>
        <time>2017-02-17T16:15:37Z</time>
      </trkpt>
      <trkpt lat="44.21644" lon="3.21812">
        <ele>666.4</ele>
        <time>2017-02-17T16:15:45Z</time>
      </trkpt>
      <trkpt lat="44.2164" lon="3.21818">
        <ele>666.4</ele>
        <time>2017-02-17T16:15:49Z</time>
      </trkpt>
      <trkpt lat="44.21638" lon="3.21824">
        <ele>666.4</ele>
        <time>2017-02-17T16:15:53Z</time>
      </trkpt>
      <trkpt lat="44.21635" lon="3.21827">
        <ele>666.4</ele>
        <time>2017-02-17T16:15:59Z</time>
      </trkpt>
      <trkpt lat="44.21634" lon="3.21831">
        <ele>666.5</ele>
        <time>2017-02-17T16:16:01Z</time>
      </trkpt>
      <trkpt lat="44.21634" lon="3.21837">
        <ele>666.5</ele>
        <time>2017-02-17T16:16:02Z</time>
      </trkpt>
      <trkpt lat="44.21632" lon="3.21843">
        <ele>666.5</ele>
        <time>2017-02-17T16:16:04Z</time>
      </trkpt>
      <trkpt lat="44.2163" lon="3.21847">
        <ele>666.4</ele>
        <time>2017-02-17T16:16:05Z</time>
      </trkpt>
      <trkpt lat="44.21628" lon="3.21851">
        <ele>666.3</ele>
        <time>2017-02-17T16:16:07Z</time>
      </trkpt>
      <trkpt lat="44.21626" lon="3.21855">
        <ele>666.1</ele>
        <time>2017-02-17T16:16:09Z</time>
      </trkpt>
      <trkpt lat="44.21624" lon="3.21859">
        <ele>665.9</ele>
        <time>2017-02-17T16:16:12Z</time>
      </trkpt>
      <trkpt lat="44.2162" lon="3.21866">
        <ele>665.6</ele>
        <time>2017-02-17T16:16:14Z</time>
      </trkpt>
      <trkpt lat="44.21619" lon="3.21872">
        <ele>665.5</ele>
        <time>2017-02-17T16:16:15Z</time>
      </trkpt>
      <trkpt lat="44.21619" lon="3.21876">
        <ele>665.4</ele>
        <time>2017-02-17T16:16:17Z</time>
      </trkpt>
      <trkpt lat="44.21616" lon="3.21879">
        <ele>665.2</ele>
        <time>2017-02-17T16:16:19Z</time>
      </trkpt>
      <trkpt lat="44.21613" lon="3.21883">
        <ele>665.1</ele>
        <time>2017-02-17T16:16:22Z</time>
      </trkpt>
      <trkpt lat="44.21611" lon="3.21887">
        <ele>665</ele>
        <time>2017-02-17T16:16:24Z</time>
      </trkpt>
      <trkpt lat="44.21609" lon="3.21894">
        <ele>664.9</ele>
        <time>2017-02-17T16:16:26Z</time>
      </trkpt>
      <trkpt lat="44.21607" lon="3.219">
        <ele>664.7</ele>
        <time>2017-02-17T16:16:27Z</time>
      </trkpt>
      <trkpt lat="44.21603" lon="3.21904">
        <ele>664.5</ele>
        <time>2017-02-17T16:16:29Z</time>
      </trkpt>
      <trkpt lat="44.216" lon="3.21906">
        <ele>664.4</ele>
        <time>2017-02-17T16:16:31Z</time>
      </trkpt>
      <trkpt lat="44.21596" lon="3.21908">
        <ele>664</ele>
        <time>2017-02-17T16:16:33Z</time>
      </trkpt>
      <trkpt lat="44.21592" lon="3.2191">
        <ele>663.8</ele>
        <time>2017-02-17T16:16:34Z</time>
      </trkpt>
      <trkpt lat="44.21587" lon="3.21912">
        <ele>663.4</ele>
        <time>2017-02-17T16:16:36Z</time>
      </trkpt>
      <trkpt lat="44.21584" lon="3.21912">
        <ele>663.1</ele>
        <time>2017-02-17T16:16:39Z</time>
      </trkpt>
      <trkpt lat="44.21582" lon="3.21909">
        <ele>662.8</ele>
        <time>2017-02-17T16:16:43Z</time>
      </trkpt>
      <trkpt lat="44.2158" lon="3.21905">
        <ele>662.5</ele>
        <time>2017-02-17T16:16:45Z</time>
      </trkpt>
      <trkpt lat="44.21578" lon="3.21902">
        <ele>662.1</ele>
        <time>2017-02-17T16:16:48Z</time>
      </trkpt>
      <trkpt lat="44.21574" lon="3.21899">
        <ele>661.6</ele>
        <time>2017-02-17T16:16:51Z</time>
      </trkpt>
      <trkpt lat="44.21571" lon="3.21895">
        <ele>660.9</ele>
        <time>2017-02-17T16:16:53Z</time>
      </trkpt>
      <trkpt lat="44.21567" lon="3.21891">
        <ele>660.3</ele>
        <time>2017-02-17T16:16:54Z</time>
      </trkpt>
      <trkpt lat="44.21561" lon="3.21888">
        <ele>659.9</ele>
        <time>2017-02-17T16:16:56Z</time>
      </trkpt>
      <trkpt lat="44.21557" lon="3.21887">
        <ele>659.7</ele>
        <time>2017-02-17T16:16:57Z</time>
      </trkpt>
      <trkpt lat="44.21553" lon="3.21885">
        <ele>658.7</ele>
        <time>2017-02-17T16:16:58Z</time>
      </trkpt>
      <trkpt lat="44.21546" lon="3.21882">
        <ele>657.8</ele>
        <time>2017-02-17T16:17:00Z</time>
      </trkpt>
      <trkpt lat="44.21538" lon="3.2188">
        <ele>657.4</ele>
        <time>2017-02-17T16:17:02Z</time>
      </trkpt>
      <trkpt lat="44.21536" lon="3.2188">
        <ele>657.2</ele>
        <time>2017-02-17T16:17:03Z</time>
      </trkpt>
      <trkpt lat="44.21531" lon="3.21878">
        <ele>656.8</ele>
        <time>2017-02-17T16:17:05Z</time>
      </trkpt>
      <trkpt lat="44.21528" lon="3.21879">
        <ele>656.7</ele>
        <time>2017-02-17T16:17:06Z</time>
      </trkpt>
      <trkpt lat="44.21525" lon="3.21877">
        <ele>656.5</ele>
        <time>2017-02-17T16:17:08Z</time>
      </trkpt>
      <trkpt lat="44.21523" lon="3.21873">
        <ele>656.4</ele>
        <time>2017-02-17T16:17:10Z</time>
      </trkpt>
      <trkpt lat="44.21515" lon="3.21869">
        <ele>656</ele>
        <time>2017-02-17T16:17:12Z</time>
      </trkpt>
      <trkpt lat="44.21509" lon="3.21867">
        <ele>655.7</ele>
        <time>2017-02-17T16:17:13Z</time>
      </trkpt>
      <trkpt lat="44.21503" lon="3.21865">
        <ele>655.2</ele>
        <time>2017-02-17T16:17:14Z</time>
      </trkpt>
      <trkpt lat="44.21498" lon="3.21862">
        <ele>654.7</ele>
        <time>2017-02-17T16:17:16Z</time>
      </trkpt>
      <trkpt lat="44.21495" lon="3.21861">
        <ele>654.4</ele>
        <time>2017-02-17T16:17:17Z</time>
      </trkpt>
      <trkpt lat="44.21492" lon="3.2186">
        <ele>654.1</ele>
        <time>2017-02-17T16:17:18Z</time>
      </trkpt>
      <trkpt lat="44.21487" lon="3.21858">
        <ele>653.6</ele>
        <time>2017-02-17T16:17:19Z</time>
      </trkpt>
      <trkpt lat="44.21481" lon="3.21858">
        <ele>653.1</ele>
        <time>2017-02-17T16:17:20Z</time>
      </trkpt>
      <trkpt lat="44.21478" lon="3.21858">
        <ele>652.8</ele>
        <time>2017-02-17T16:17:21Z</time>
      </trkpt>
      <trkpt lat="44.21474" lon="3.21858">
        <ele>652.4</ele>
        <time>2017-02-17T16:17:22Z</time>
      </trkpt>
      <trkpt lat="44.21471" lon="3.21859">
        <ele>652.2</ele>
        <time>2017-02-17T16:17:24Z</time>
      </trkpt>
      <trkpt lat="44.21468" lon="3.2186">
        <ele>652</ele>
        <time>2017-02-17T16:17:26Z</time>
      </trkpt>
      <trkpt lat="44.21464" lon="3.21863">
        <ele>651.7</ele>
        <time>2017-02-17T16:17:27Z</time>
      </trkpt>
      <trkpt lat="44.2146" lon="3.21868">
        <ele>651.5</ele>
        <time>2017-02-17T16:17:28Z</time>
      </trkpt>
      <trkpt lat="44.21457" lon="3.21871">
        <ele>651.3</ele>
        <time>2017-02-17T16:17:29Z</time>
      </trkpt>
      <trkpt lat="44.21453" lon="3.21875">
        <ele>651.1</ele>
        <time>2017-02-17T16:17:30Z</time>
      </trkpt>
      <trkpt lat="44.2145" lon="3.21878">
        <ele>650.9</ele>
        <time>2017-02-17T16:17:31Z</time>
      </trkpt>
      <trkpt lat="44.21445" lon="3.2188">
        <ele>650.5</ele>
        <time>2017-02-17T16:17:33Z</time>
      </trkpt>
      <trkpt lat="44.21441" lon="3.21878">
        <ele>650.1</ele>
        <time>2017-02-17T16:17:35Z</time>
      </trkpt>
      <trkpt lat="44.21438" lon="3.21875">
        <ele>649.9</ele>
        <time>2017-02-17T16:17:36Z</time>
      </trkpt>
      <trkpt lat="44.21436" lon="3.21869">
        <ele>649.5</ele>
        <time>2017-02-17T16:17:38Z</time>
      </trkpt>
      <trkpt lat="44.21433" lon="3.21863">
        <ele>649.1</ele>
        <time>2017-02-17T16:17:40Z</time>
      </trkpt>
      <trkpt lat="44.21429" lon="3.21861">
        <ele>648.8</ele>
        <time>2017-02-17T16:17:42Z</time>
      </trkpt>
      <trkpt lat="44.21427" lon="3.21857">
        <ele>648.6</ele>
        <time>2017-02-17T16:17:43Z</time>
      </trkpt>
      <trkpt lat="44.21425" lon="3.21852">
        <ele>648.3</ele>
        <time>2017-02-17T16:17:44Z</time>
      </trkpt>
      <trkpt lat="44.21423" lon="3.21847">
        <ele>648</ele>
        <time>2017-02-17T16:17:45Z</time>
      </trkpt>
      <trkpt lat="44.21421" lon="3.2184">
        <ele>647.6</ele>
        <time>2017-02-17T16:17:47Z</time>
      </trkpt>
      <trkpt lat="44.2142" lon="3.21835">
        <ele>647.3</ele>
        <time>2017-02-17T16:17:49Z</time>
      </trkpt>
      <trkpt lat="44.21417" lon="3.21829">
        <ele>647</ele>
        <time>2017-02-17T16:17:51Z</time>
      </trkpt>
      <trkpt lat="44.21416" lon="3.21826">
        <ele>646.8</ele>
        <time>2017-02-17T16:17:52Z</time>
      </trkpt>
      <trkpt lat="44.21414" lon="3.21819">
        <ele>646.5</ele>
        <time>2017-02-17T16:17:54Z</time>
      </trkpt>
      <trkpt lat="44.21412" lon="3.21816">
        <ele>646.4</ele>
        <time>2017-02-17T16:17:55Z</time>
      </trkpt>
      <trkpt lat="44.2141" lon="3.21814">
        <ele>646.2</ele>
        <time>2017-02-17T16:17:56Z</time>
      </trkpt>
      <trkpt lat="44.21408" lon="3.2181">
        <ele>646</ele>
        <time>2017-02-17T16:17:57Z</time>
      </trkpt>
      <trkpt lat="44.21407" lon="3.21806">
        <ele>645.8</ele>
        <time>2017-02-17T16:17:58Z</time>
      </trkpt>
      <trkpt lat="44.21406" lon="3.21802">
        <ele>645.7</ele>
        <time>2017-02-17T16:17:59Z</time>
      </trkpt>
      <trkpt lat="44.21402" lon="3.21798">
        <ele>645.5</ele>
        <time>2017-02-17T16:18:01Z</time>
      </trkpt>
      <trkpt lat="44.21398" lon="3.21793">
        <ele>645.4</ele>
        <time>2017-02-17T16:18:03Z</time>
      </trkpt>
      <trkpt lat="44.21395" lon="3.2179">
        <ele>645.4</ele>
        <time>2017-02-17T16:18:05Z</time>
      </trkpt>
      <trkpt lat="44.21393" lon="3.21787">
        <ele>645.4</ele>
        <time>2017-02-17T16:18:06Z</time>
      </trkpt>
      <trkpt lat="44.2139" lon="3.21784">
        <ele>645.4</ele>
        <time>2017-02-17T16:18:07Z</time>
      </trkpt>
      <trkpt lat="44.21386" lon="3.21781">
        <ele>645.4</ele>
        <time>2017-02-17T16:18:08Z</time>
      </trkpt>
      <trkpt lat="44.21382" lon="3.21779">
        <ele>645.5</ele>
        <time>2017-02-17T16:18:09Z</time>
      </trkpt>
      <trkpt lat="44.21377" lon="3.21776">
        <ele>645.5</ele>
        <time>2017-02-17T16:18:10Z</time>
      </trkpt>
      <trkpt lat="44.21375" lon="3.21773">
        <ele>645.5</ele>
        <time>2017-02-17T16:18:11Z</time>
      </trkpt>
      <trkpt lat="44.21374" lon="3.2177">
        <ele>645.5</ele>
        <time>2017-02-17T16:18:12Z</time>
      </trkpt>
      <trkpt lat="44.21371" lon="3.21764">
        <ele>645.4</ele>
        <time>2017-02-17T16:18:14Z</time>
      </trkpt>
      <trkpt lat="44.21367" lon="3.21758">
        <ele>645.1</ele>
        <time>2017-02-17T16:18:16Z</time>
      </trkpt>
      <trkpt lat="44.21366" lon="3.21752">
        <ele>644.9</ele>
        <time>2017-02-17T16:18:17Z</time>
      </trkpt>
      <trkpt lat="44.21365" lon="3.21749">
        <ele>644.7</ele>
        <time>2017-02-17T16:18:18Z</time>
      </trkpt>
      <trkpt lat="44.21361" lon="3.21747">
        <ele>644.5</ele>
        <time>2017-02-17T16:18:19Z</time>
      </trkpt>
      <trkpt lat="44.21358" lon="3.21747">
        <ele>644.3</ele>
        <time>2017-02-17T16:18:20Z</time>
      </trkpt>
      <trkpt lat="44.21355" lon="3.21747">
        <ele>644.1</ele>
        <time>2017-02-17T16:18:21Z</time>
      </trkpt>
      <trkpt lat="44.2135" lon="3.21747">
        <ele>643.9</ele>
        <time>2017-02-17T16:18:23Z</time>
      </trkpt>
      <trkpt lat="44.21345" lon="3.21747">
        <ele>643.7</ele>
        <time>2017-02-17T16:18:25Z</time>
      </trkpt>
      <trkpt lat="44.21339" lon="3.21747">
        <ele>643.5</ele>
        <time>2017-02-17T16:18:27Z</time>
      </trkpt>
      <trkpt lat="44.21335" lon="3.21747">
        <ele>643.4</ele>
        <time>2017-02-17T16:18:29Z</time>
      </trkpt>
      <trkpt lat="44.21332" lon="3.21748">
        <ele>643.3</ele>
        <time>2017-02-17T16:18:30Z</time>
      </trkpt>
      <trkpt lat="44.21326" lon="3.21753">
        <ele>643.1</ele>
        <time>2017-02-17T16:18:31Z</time>
      </trkpt>
      <trkpt lat="44.21323" lon="3.2176">
        <ele>642.9</ele>
        <time>2017-02-17T16:18:32Z</time>
      </trkpt>
      <trkpt lat="44.21318" lon="3.21764">
        <ele>642.6</ele>
        <time>2017-02-17T16:18:33Z</time>
      </trkpt>
      <trkpt lat="44.21313" lon="3.21768">
        <ele>642.4</ele>
        <time>2017-02-17T16:18:34Z</time>
      </trkpt>
      <trkpt lat="44.21308" lon="3.2177">
        <ele>642.1</ele>
        <time>2017-02-17T16:18:35Z</time>
      </trkpt>
      <trkpt lat="44.21305" lon="3.21772">
        <ele>641.9</ele>
        <time>2017-02-17T16:18:36Z</time>
      </trkpt>
      <trkpt lat="44.21302" lon="3.21774">
        <ele>641.8</ele>
        <time>2017-02-17T16:18:37Z</time>
      </trkpt>
      <trkpt lat="44.21299" lon="3.21777">
        <ele>641.5</ele>
        <time>2017-02-17T16:18:38Z</time>
      </trkpt>
      <trkpt lat="44.21296" lon="3.2178">
        <ele>641.3</ele>
        <time>2017-02-17T16:18:39Z</time>
      </trkpt>
      <trkpt lat="44.21293" lon="3.21783">
        <ele>641.1</ele>
        <time>2017-02-17T16:18:40Z</time>
      </trkpt>
      <trkpt lat="44.2129" lon="3.21785">
        <ele>640.8</ele>
        <time>2017-02-17T16:18:41Z</time>
      </trkpt>
      <trkpt lat="44.21288" lon="3.21788">
        <ele>640.5</ele>
        <time>2017-02-17T16:18:42Z</time>
      </trkpt>
      <trkpt lat="44.21285" lon="3.21791">
        <ele>640.2</ele>
        <time>2017-02-17T16:18:43Z</time>
      </trkpt>
      <trkpt lat="44.21281" lon="3.21794">
        <ele>639.7</ele>
        <time>2017-02-17T16:18:45Z</time>
      </trkpt>
      <trkpt lat="44.21278" lon="3.21795">
        <ele>639.5</ele>
        <time>2017-02-17T16:18:46Z</time>
      </trkpt>
      <trkpt lat="44.21275" lon="3.21797">
        <ele>639.3</ele>
        <time>2017-02-17T16:18:47Z</time>
      </trkpt>
      <trkpt lat="44.21272" lon="3.21798">
        <ele>639.1</ele>
        <time>2017-02-17T16:18:48Z</time>
      </trkpt>
      <trkpt lat="44.21269" lon="3.218">
        <ele>638.9</ele>
        <time>2017-02-17T16:18:49Z</time>
      </trkpt>
      <trkpt lat="44.21266" lon="3.21802">
        <ele>638.7</ele>
        <time>2017-02-17T16:18:50Z</time>
      </trkpt>
      <trkpt lat="44.21263" lon="3.21802">
        <ele>638.6</ele>
        <time>2017-02-17T16:18:51Z</time>
      </trkpt>
      <trkpt lat="44.21259" lon="3.21802">
        <ele>638.4</ele>
        <time>2017-02-17T16:18:53Z</time>
      </trkpt>
      <trkpt lat="44.21255" lon="3.21801">
        <ele>638.2</ele>
        <time>2017-02-17T16:18:55Z</time>
      </trkpt>
      <trkpt lat="44.21252" lon="3.21799">
        <ele>638.1</ele>
        <time>2017-02-17T16:18:56Z</time>
      </trkpt>
      <trkpt lat="44.21249" lon="3.21798">
        <ele>638</ele>
        <time>2017-02-17T16:18:57Z</time>
      </trkpt>
      <trkpt lat="44.21246" lon="3.21797">
        <ele>637.9</ele>
        <time>2017-02-17T16:18:58Z</time>
      </trkpt>
      <trkpt lat="44.21243" lon="3.21795">
        <ele>637.8</ele>
        <time>2017-02-17T16:18:59Z</time>
      </trkpt>
      <trkpt lat="44.21241" lon="3.21793">
        <ele>637.6</ele>
        <time>2017-02-17T16:19:00Z</time>
      </trkpt>
      <trkpt lat="44.21236" lon="3.21789">
        <ele>637.4</ele>
        <time>2017-02-17T16:19:02Z</time>
      </trkpt>
      <trkpt lat="44.21234" lon="3.21787">
        <ele>637.3</ele>
        <time>2017-02-17T16:19:03Z</time>
      </trkpt>
      <trkpt lat="44.2123" lon="3.21786">
        <ele>637.2</ele>
        <time>2017-02-17T16:19:05Z</time>
      </trkpt>
      <trkpt lat="44.21227" lon="3.21784">
        <ele>637</ele>
        <time>2017-02-17T16:19:06Z</time>
      </trkpt>
      <trkpt lat="44.21222" lon="3.21781">
        <ele>636.8</ele>
        <time>2017-02-17T16:19:08Z</time>
      </trkpt>
      <trkpt lat="44.21218" lon="3.21778">
        <ele>636</ele>
        <time>2017-02-17T16:19:09Z</time>
      </trkpt>
      <trkpt lat="44.21214" lon="3.21774">
        <ele>635.1</ele>
        <time>2017-02-17T16:19:10Z</time>
      </trkpt>
      <trkpt lat="44.21211" lon="3.21771">
        <ele>634.4</ele>
        <time>2017-02-17T16:19:11Z</time>
      </trkpt>
      <trkpt lat="44.21208" lon="3.21767">
        <ele>633.6</ele>
        <time>2017-02-17T16:19:12Z</time>
      </trkpt>
      <trkpt lat="44.21206" lon="3.21763">
        <ele>632.9</ele>
        <time>2017-02-17T16:19:13Z</time>
      </trkpt>
      <trkpt lat="44.21201" lon="3.21759">
        <ele>631.8</ele>
        <time>2017-02-17T16:19:15Z</time>
      </trkpt>
      <trkpt lat="44.21198" lon="3.21758">
        <ele>631.4</ele>
        <time>2017-02-17T16:19:17Z</time>
      </trkpt>
      <trkpt lat="44.21195" lon="3.21759">
        <ele>631.1</ele>
        <time>2017-02-17T16:19:19Z</time>
      </trkpt>
      <trkpt lat="44.2119" lon="3.21759">
        <ele>630.6</ele>
        <time>2017-02-17T16:19:21Z</time>
      </trkpt>
      <trkpt lat="44.21186" lon="3.21758">
        <ele>630.3</ele>
        <time>2017-02-17T16:19:22Z</time>
      </trkpt>
      <trkpt lat="44.21182" lon="3.21758">
        <ele>630</ele>
        <time>2017-02-17T16:19:23Z</time>
      </trkpt>
      <trkpt lat="44.21177" lon="3.21756">
        <ele>629.7</ele>
        <time>2017-02-17T16:19:24Z</time>
      </trkpt>
      <trkpt lat="44.21172" lon="3.21753">
        <ele>629.4</ele>
        <time>2017-02-17T16:19:25Z</time>
      </trkpt>
      <trkpt lat="44.21167" lon="3.21755">
        <ele>629</ele>
        <time>2017-02-17T16:19:26Z</time>
      </trkpt>
      <trkpt lat="44.21163" lon="3.21754">
        <ele>628.8</ele>
        <time>2017-02-17T16:19:27Z</time>
      </trkpt>
      <trkpt lat="44.21159" lon="3.21756">
        <ele>628.5</ele>
        <time>2017-02-17T16:19:28Z</time>
      </trkpt>
      <trkpt lat="44.21156" lon="3.2176">
        <ele>628</ele>
        <time>2017-02-17T16:19:30Z</time>
      </trkpt>
      <trkpt lat="44.21151" lon="3.2176">
        <ele>627.2</ele>
        <time>2017-02-17T16:19:32Z</time>
      </trkpt>
      <trkpt lat="44.21147" lon="3.21759">
        <ele>626.8</ele>
        <time>2017-02-17T16:19:33Z</time>
      </trkpt>
      <trkpt lat="44.21144" lon="3.21761">
        <ele>626.3</ele>
        <time>2017-02-17T16:19:34Z</time>
      </trkpt>
      <trkpt lat="44.21141" lon="3.21763">
        <ele>626</ele>
        <time>2017-02-17T16:19:41Z</time>
      </trkpt>
      <trkpt lat="44.21138" lon="3.21765">
        <ele>625.5</ele>
        <time>2017-02-17T16:19:54Z</time>
      </trkpt>
      <trkpt lat="44.21137" lon="3.21769">
        <ele>625.2</ele>
        <time>2017-02-17T16:20:10Z</time>
      </trkpt>
      <trkpt lat="44.21134" lon="3.21766">
        <ele>624.9</ele>
        <time>2017-02-17T16:20:23Z</time>
      </trkpt>
      <trkpt lat="44.21132" lon="3.21763">
        <ele>624.5</ele>
        <time>2017-02-17T16:20:32Z</time>
      </trkpt>
      <trkpt lat="44.21131" lon="3.21757">
        <ele>623.9</ele>
        <time>2017-02-17T16:20:34Z</time>
      </trkpt>
      <trkpt lat="44.2113" lon="3.21752">
        <ele>623.5</ele>
        <time>2017-02-17T16:20:35Z</time>
      </trkpt>
      <trkpt lat="44.21128" lon="3.21753">
        <ele>623.2</ele>
        <time>2017-02-17T16:20:40Z</time>
      </trkpt>
      <trkpt lat="44.21126" lon="3.21759">
        <ele>622.6</ele>
        <time>2017-02-17T16:20:43Z</time>
      </trkpt>
      <trkpt lat="44.21124" lon="3.21765">
        <ele>621.7</ele>
        <time>2017-02-17T16:20:45Z</time>
      </trkpt>
      <trkpt lat="44.21122" lon="3.21768">
        <ele>621.1</ele>
        <time>2017-02-17T16:20:46Z</time>
      </trkpt>
      <trkpt lat="44.21119" lon="3.2177">
        <ele>620.6</ele>
        <time>2017-02-17T16:20:47Z</time>
      </trkpt>
      <trkpt lat="44.21118" lon="3.21773">
        <ele>620.1</ele>
        <time>2017-02-17T16:20:57Z</time>
      </trkpt>
      <trkpt lat="44.21114" lon="3.21771">
        <ele>619.6</ele>
        <time>2017-02-17T16:21:02Z</time>
      </trkpt>
      <trkpt lat="44.21111" lon="3.21771">
        <ele>616</ele>
        <time>2017-02-17T16:21:03Z</time>
      </trkpt>
      <trkpt lat="44.21107" lon="3.21769">
        <ele>615.2</ele>
        <time>2017-02-17T16:21:05Z</time>
      </trkpt>
      <trkpt lat="44.21103" lon="3.21767">
        <ele>614.3</ele>
        <time>2017-02-17T16:21:07Z</time>
      </trkpt>
      <trkpt lat="44.21098" lon="3.21769">
        <ele>613.8</ele>
        <time>2017-02-17T16:21:10Z</time>
      </trkpt>
      <trkpt lat="44.21093" lon="3.21767">
        <ele>613</ele>
        <time>2017-02-17T16:21:12Z</time>
      </trkpt>
      <trkpt lat="44.21089" lon="3.21764">
        <ele>611.7</ele>
        <time>2017-02-17T16:21:13Z</time>
      </trkpt>
      <trkpt lat="44.21087" lon="3.2176">
        <ele>610.4</ele>
        <time>2017-02-17T16:21:14Z</time>
      </trkpt>
      <trkpt lat="44.21084" lon="3.21757">
        <ele>610.1</ele>
        <time>2017-02-17T16:21:15Z</time>
      </trkpt>
      <trkpt lat="44.21082" lon="3.21755">
        <ele>609.8</ele>
        <time>2017-02-17T16:21:18Z</time>
      </trkpt>
      <trkpt lat="44.21079" lon="3.21755">
        <ele>609.5</ele>
        <time>2017-02-17T16:21:21Z</time>
      </trkpt>
      <trkpt lat="44.21077" lon="3.2175">
        <ele>609.1</ele>
        <time>2017-02-17T16:21:25Z</time>
      </trkpt>
      <trkpt lat="44.21076" lon="3.21746">
        <ele>608.7</ele>
        <time>2017-02-17T16:21:28Z</time>
      </trkpt>
      <trkpt lat="44.21076" lon="3.21741">
        <ele>608.4</ele>
        <time>2017-02-17T16:21:29Z</time>
      </trkpt>
      <trkpt lat="44.21074" lon="3.21737">
        <ele>608</ele>
        <time>2017-02-17T16:21:37Z</time>
      </trkpt>
      <trkpt lat="44.21073" lon="3.21733">
        <ele>607.7</ele>
        <time>2017-02-17T16:21:39Z</time>
      </trkpt>
      <trkpt lat="44.21071" lon="3.21729">
        <ele>607.5</ele>
        <time>2017-02-17T16:21:42Z</time>
      </trkpt>
      <trkpt lat="44.21069" lon="3.21727">
        <ele>607.4</ele>
        <time>2017-02-17T16:21:58Z</time>
      </trkpt>
      <trkpt lat="44.21065" lon="3.21723">
        <ele>607.3</ele>
        <time>2017-02-17T16:22:01Z</time>
      </trkpt>
      <trkpt lat="44.21064" lon="3.21719">
        <ele>607.2</ele>
        <time>2017-02-17T16:22:02Z</time>
      </trkpt>
      <trkpt lat="44.21062" lon="3.21715">
        <ele>607</ele>
        <time>2017-02-17T16:22:04Z</time>
      </trkpt>
      <trkpt lat="44.21059" lon="3.21709">
        <ele>607.1</ele>
        <time>2017-02-17T16:22:06Z</time>
      </trkpt>
      <trkpt lat="44.21057" lon="3.21703">
        <ele>607.3</ele>
        <time>2017-02-17T16:22:08Z</time>
      </trkpt>
      <trkpt lat="44.21054" lon="3.21696">
        <ele>607.4</ele>
        <time>2017-02-17T16:22:10Z</time>
      </trkpt>
      <trkpt lat="44.21053" lon="3.21691">
        <ele>607.5</ele>
        <time>2017-02-17T16:22:11Z</time>
      </trkpt>
      <trkpt lat="44.21051" lon="3.21688">
        <ele>607.5</ele>
        <time>2017-02-17T16:22:12Z</time>
      </trkpt>
      <trkpt lat="44.21048" lon="3.21683">
        <ele>607.5</ele>
        <time>2017-02-17T16:22:14Z</time>
      </trkpt>
      <trkpt lat="44.21045" lon="3.2168">
        <ele>607.5</ele>
        <time>2017-02-17T16:22:16Z</time>
      </trkpt>
      <trkpt lat="44.21041" lon="3.2168">
        <ele>607.4</ele>
        <time>2017-02-17T16:22:24Z</time>
      </trkpt>
      <trkpt lat="44.2104" lon="3.21676">
        <ele>607.2</ele>
        <time>2017-02-17T16:22:28Z</time>
      </trkpt>
      <trkpt lat="44.21039" lon="3.21673">
        <ele>606.9</ele>
        <time>2017-02-17T16:22:35Z</time>
      </trkpt>
      <trkpt lat="44.21036" lon="3.21673">
        <ele>606.7</ele>
        <time>2017-02-17T16:22:40Z</time>
      </trkpt>
      <trkpt lat="44.21034" lon="3.21676">
        <ele>606.4</ele>
        <time>2017-02-17T16:22:57Z</time>
      </trkpt>
      <trkpt lat="44.21034" lon="3.21681">
        <ele>606</ele>
        <time>2017-02-17T16:23:03Z</time>
      </trkpt>
      <trkpt lat="44.21033" lon="3.21685">
        <ele>596.6</ele>
        <time>2017-02-17T16:23:09Z</time>
      </trkpt>
      <trkpt lat="44.2103" lon="3.21684">
        <ele>593.9</ele>
        <time>2017-02-17T16:23:15Z</time>
      </trkpt>
      <trkpt lat="44.21027" lon="3.21682">
        <ele>592.2</ele>
        <time>2017-02-17T16:23:20Z</time>
      </trkpt>
      <trkpt lat="44.21025" lon="3.21679">
        <ele>590.6</ele>
        <time>2017-02-17T16:23:24Z</time>
      </trkpt>
      <trkpt lat="44.21022" lon="3.21679">
        <ele>588.6</ele>
        <time>2017-02-17T16:23:48Z</time>
      </trkpt>
      <trkpt lat="44.21025" lon="3.2168">
        <ele>590.9</ele>
        <time>2017-02-17T16:24:08Z</time>
      </trkpt>
      <trkpt lat="44.21028" lon="3.21681">
        <ele>592.5</ele>
        <time>2017-02-17T16:24:15Z</time>
      </trkpt>
      <trkpt lat="44.21031" lon="3.21681">
        <ele>594.2</ele>
        <time>2017-02-17T16:24:20Z</time>
      </trkpt>
      <trkpt lat="44.21034" lon="3.21681">
        <ele>596.9</ele>
        <time>2017-02-17T16:24:24Z</time>
      </trkpt>
      <trkpt lat="44.21037" lon="3.21681">
        <ele>599.6</ele>
        <time>2017-02-17T16:24:29Z</time>
      </trkpt>
      <trkpt lat="44.2104" lon="3.21681">
        <ele>602.4</ele>
        <time>2017-02-17T16:24:35Z</time>
      </trkpt>
      <trkpt lat="44.21043" lon="3.21682">
        <ele>606.5</ele>
        <time>2017-02-17T16:24:39Z</time>
      </trkpt>
      <trkpt lat="44.21043" lon="3.21679">
        <ele>606.9</ele>
        <time>2017-02-17T16:25:00Z</time>
      </trkpt>
      <trkpt lat="44.21042" lon="3.21674">
        <ele>607.3</ele>
        <time>2017-02-17T16:25:04Z</time>
      </trkpt>
      <trkpt lat="44.21041" lon="3.21669">
        <ele>607.6</ele>
        <time>2017-02-17T16:25:07Z</time>
      </trkpt>
      <trkpt lat="44.2104" lon="3.21666">
        <ele>607.8</ele>
        <time>2017-02-17T16:25:10Z</time>
      </trkpt>
      <trkpt lat="44.21038" lon="3.21662">
        <ele>608</ele>
        <time>2017-02-17T16:25:13Z</time>
      </trkpt>
      <trkpt lat="44.21036" lon="3.21658">
        <ele>608.3</ele>
        <time>2017-02-17T16:25:17Z</time>
      </trkpt>
      <trkpt lat="44.21033" lon="3.21655">
        <ele>608.6</ele>
        <time>2017-02-17T16:25:26Z</time>
      </trkpt>
      <trkpt lat="44.21031" lon="3.21652">
        <ele>608.7</ele>
        <time>2017-02-17T16:25:30Z</time>
      </trkpt>
      <trkpt lat="44.21032" lon="3.21648">
        <ele>608.8</ele>
        <time>2017-02-17T16:25:34Z</time>
      </trkpt>
      <trkpt lat="44.21034" lon="3.21645">
        <ele>609.9</ele>
        <time>2017-02-17T16:25:37Z</time>
      </trkpt>
      <trkpt lat="44.21035" lon="3.2164">
        <ele>610.3</ele>
        <time>2017-02-17T16:25:40Z</time>
      </trkpt>
      <trkpt lat="44.21037" lon="3.21636">
        <ele>610.7</ele>
        <time>2017-02-17T16:26:06Z</time>
      </trkpt>
      <trkpt lat="44.21041" lon="3.21634">
        <ele>611.1</ele>
        <time>2017-02-17T16:26:09Z</time>
      </trkpt>
      <trkpt lat="44.21044" lon="3.2163">
        <ele>611.5</ele>
        <time>2017-02-17T16:26:11Z</time>
      </trkpt>
      <trkpt lat="44.21048" lon="3.21626">
        <ele>611.7</ele>
        <time>2017-02-17T16:26:13Z</time>
      </trkpt>
      <trkpt lat="44.21051" lon="3.21623">
        <ele>611.8</ele>
        <time>2017-02-17T16:26:15Z</time>
      </trkpt>
      <trkpt lat="44.21056" lon="3.21619">
        <ele>611.9</ele>
        <time>2017-02-17T16:26:17Z</time>
      </trkpt>
      <trkpt lat="44.21058" lon="3.21616">
        <ele>612</ele>
        <time>2017-02-17T16:26:18Z</time>
      </trkpt>
      <trkpt lat="44.2106" lon="3.21613">
        <ele>612.3</ele>
        <time>2017-02-17T16:26:19Z</time>
      </trkpt>
      <trkpt lat="44.21063" lon="3.21608">
        <ele>612.5</ele>
        <time>2017-02-17T16:26:21Z</time>
      </trkpt>
      <trkpt lat="44.21066" lon="3.21603">
        <ele>612.8</ele>
        <time>2017-02-17T16:26:23Z</time>
      </trkpt>
      <trkpt lat="44.21068" lon="3.21597">
        <ele>613.1</ele>
        <time>2017-02-17T16:26:25Z</time>
      </trkpt>
      <trkpt lat="44.21072" lon="3.21592">
        <ele>613.5</ele>
        <time>2017-02-17T16:26:27Z</time>
      </trkpt>
      <trkpt lat="44.21075" lon="3.21586">
        <ele>613.8</ele>
        <time>2017-02-17T16:26:29Z</time>
      </trkpt>
      <trkpt lat="44.21077" lon="3.21583">
        <ele>613.9</ele>
        <time>2017-02-17T16:26:30Z</time>
      </trkpt>
      <trkpt lat="44.21079" lon="3.21581">
        <ele>614</ele>
        <time>2017-02-17T16:26:31Z</time>
      </trkpt>
      <trkpt lat="44.21083" lon="3.21578">
        <ele>614.3</ele>
        <time>2017-02-17T16:26:33Z</time>
      </trkpt>
      <trkpt lat="44.21087" lon="3.21571">
        <ele>614.7</ele>
        <time>2017-02-17T16:26:35Z</time>
      </trkpt>
      <trkpt lat="44.21089" lon="3.21567">
        <ele>615</ele>
        <time>2017-02-17T16:26:37Z</time>
      </trkpt>
      <trkpt lat="44.21089" lon="3.21563">
        <ele>615</ele>
        <time>2017-02-17T16:26:39Z</time>
      </trkpt>
      <trkpt lat="44.21092" lon="3.21561">
        <ele>615</ele>
        <time>2017-02-17T16:26:41Z</time>
      </trkpt>
      <trkpt lat="44.21092" lon="3.21551">
        <ele>615</ele>
        <time>2017-02-17T16:27:32Z</time>
      </trkpt>
      <trkpt lat="44.21095" lon="3.21549">
        <ele>615</ele>
        <time>2017-02-17T16:27:38Z</time>
      </trkpt>
      <trkpt lat="44.21098" lon="3.21547">
        <ele>615</ele>
        <time>2017-02-17T16:27:42Z</time>
      </trkpt>
      <trkpt lat="44.21099" lon="3.21542">
        <ele>615</ele>
        <time>2017-02-17T16:27:49Z</time>
      </trkpt>
      <trkpt lat="44.21101" lon="3.21537">
        <ele>615.4</ele>
        <time>2017-02-17T16:27:54Z</time>
      </trkpt>
      <trkpt lat="44.21102" lon="3.21533">
        <ele>616</ele>
        <time>2017-02-17T16:27:59Z</time>
      </trkpt>
      <trkpt lat="44.21104" lon="3.21528">
        <ele>617.1</ele>
        <time>2017-02-17T16:28:05Z</time>
      </trkpt>
      <trkpt lat="44.21107" lon="3.21525">
        <ele>618.1</ele>
        <time>2017-02-17T16:28:07Z</time>
      </trkpt>
      <trkpt lat="44.21109" lon="3.21521">
        <ele>618.7</ele>
        <time>2017-02-17T16:28:09Z</time>
      </trkpt>
      <trkpt lat="44.21112" lon="3.21522">
        <ele>619</ele>
        <time>2017-02-17T16:28:11Z</time>
      </trkpt>
      <trkpt lat="44.2111" lon="3.21519">
        <ele>619.3</ele>
        <time>2017-02-17T16:28:27Z</time>
      </trkpt>
      <trkpt lat="44.21107" lon="3.2152">
        <ele>619.8</ele>
        <time>2017-02-17T16:28:33Z</time>
      </trkpt>
      <trkpt lat="44.21107" lon="3.21515">
        <ele>621</ele>
        <time>2017-02-17T16:28:38Z</time>
      </trkpt>
      <trkpt lat="44.21112" lon="3.21516">
        <ele>622.6</ele>
        <time>2017-02-17T16:28:42Z</time>
      </trkpt>
      <trkpt lat="44.21115" lon="3.21518">
        <ele>623.5</ele>
        <time>2017-02-17T16:28:43Z</time>
      </trkpt>
      <trkpt lat="44.21117" lon="3.21513">
        <ele>624.6</ele>
        <time>2017-02-17T16:28:47Z</time>
      </trkpt>
      <trkpt lat="44.21116" lon="3.21506">
        <ele>625.1</ele>
        <time>2017-02-17T16:28:50Z</time>
      </trkpt>
      <trkpt lat="44.21117" lon="3.21503">
        <ele>625.1</ele>
        <time>2017-02-17T16:28:52Z</time>
      </trkpt>
      <trkpt lat="44.21118" lon="3.21498">
        <ele>625.1</ele>
        <time>2017-02-17T16:28:55Z</time>
      </trkpt>
      <trkpt lat="44.21118" lon="3.21491">
        <ele>626.1</ele>
        <time>2017-02-17T16:29:06Z</time>
      </trkpt>
      <trkpt lat="44.21118" lon="3.21487">
        <ele>626.7</ele>
        <time>2017-02-17T16:29:12Z</time>
      </trkpt>
      <trkpt lat="44.21118" lon="3.21481">
        <ele>624.2</ele>
        <time>2017-02-17T16:29:17Z</time>
      </trkpt>
      <trkpt lat="44.21116" lon="3.21474">
        <ele>622.7</ele>
        <time>2017-02-17T16:29:19Z</time>
      </trkpt>
      <trkpt lat="44.21113" lon="3.21472">
        <ele>622.2</ele>
        <time>2017-02-17T16:29:20Z</time>
      </trkpt>
      <trkpt lat="44.21111" lon="3.21471">
        <ele>621.6</ele>
        <time>2017-02-17T16:29:21Z</time>
      </trkpt>
      <trkpt lat="44.21108" lon="3.21463">
        <ele>620.5</ele>
        <time>2017-02-17T16:29:23Z</time>
      </trkpt>
      <trkpt lat="44.21107" lon="3.21458">
        <ele>619.7</ele>
        <time>2017-02-17T16:29:24Z</time>
      </trkpt>
      <trkpt lat="44.21107" lon="3.21452">
        <ele>619.3</ele>
        <time>2017-02-17T16:29:25Z</time>
      </trkpt>
      <trkpt lat="44.21106" lon="3.21447">
        <ele>619.2</ele>
        <time>2017-02-17T16:29:26Z</time>
      </trkpt>
      <trkpt lat="44.21105" lon="3.21443">
        <ele>619.2</ele>
        <time>2017-02-17T16:29:27Z</time>
      </trkpt>
      <trkpt lat="44.21105" lon="3.21436">
        <ele>620.3</ele>
        <time>2017-02-17T16:29:29Z</time>
      </trkpt>
      <trkpt lat="44.21107" lon="3.2143">
        <ele>621.5</ele>
        <time>2017-02-17T16:29:31Z</time>
      </trkpt>
      <trkpt lat="44.21109" lon="3.21424">
        <ele>623.4</ele>
        <time>2017-02-17T16:29:33Z</time>
      </trkpt>
      <trkpt lat="44.2111" lon="3.21417">
        <ele>625.9</ele>
        <time>2017-02-17T16:29:35Z</time>
      </trkpt>
      <trkpt lat="44.21111" lon="3.21409">
        <ele>628.5</ele>
        <time>2017-02-17T16:29:37Z</time>
      </trkpt>
      <trkpt lat="44.21113" lon="3.21406">
        <ele>629.3</ele>
        <time>2017-02-17T16:29:38Z</time>
      </trkpt>
      <trkpt lat="44.21114" lon="3.21403">
        <ele>630</ele>
        <time>2017-02-17T16:29:39Z</time>
      </trkpt>
      <trkpt lat="44.21114" lon="3.21398">
        <ele>630.4</ele>
        <time>2017-02-17T16:29:40Z</time>
      </trkpt>
      <trkpt lat="44.21113" lon="3.21393">
        <ele>630.7</ele>
        <time>2017-02-17T16:29:41Z</time>
      </trkpt>
      <trkpt lat="44.21112" lon="3.21388">
        <ele>630.8</ele>
        <time>2017-02-17T16:29:42Z</time>
      </trkpt>
      <trkpt lat="44.21112" lon="3.21383">
        <ele>630.8</ele>
        <time>2017-02-17T16:29:43Z</time>
      </trkpt>
      <trkpt lat="44.2111" lon="3.21376">
        <ele>630.4</ele>
        <time>2017-02-17T16:29:45Z</time>
      </trkpt>
      <trkpt lat="44.21108" lon="3.21372">
        <ele>630.3</ele>
        <time>2017-02-17T16:29:46Z</time>
      </trkpt>
      <trkpt lat="44.21106" lon="3.21368">
        <ele>630.4</ele>
        <time>2017-02-17T16:29:47Z</time>
      </trkpt>
      <trkpt lat="44.21106" lon="3.21365">
        <ele>630.4</ele>
        <time>2017-02-17T16:29:48Z</time>
      </trkpt>
      <trkpt lat="44.21106" lon="3.21358">
        <ele>631.3</ele>
        <time>2017-02-17T16:29:49Z</time>
      </trkpt>
      <trkpt lat="44.21105" lon="3.21353">
        <ele>632</ele>
        <time>2017-02-17T16:29:50Z</time>
      </trkpt>
      <trkpt lat="44.21103" lon="3.21349">
        <ele>631.5</ele>
        <time>2017-02-17T16:29:51Z</time>
      </trkpt>
      <trkpt lat="44.21102" lon="3.21344">
        <ele>630.3</ele>
        <time>2017-02-17T16:29:52Z</time>
      </trkpt>
      <trkpt lat="44.21101" lon="3.2134">
        <ele>629.4</ele>
        <time>2017-02-17T16:29:53Z</time>
      </trkpt>
      <trkpt lat="44.21099" lon="3.21336">
        <ele>628.7</ele>
        <time>2017-02-17T16:29:54Z</time>
      </trkpt>
      <trkpt lat="44.21096" lon="3.21333">
        <ele>627.9</ele>
        <time>2017-02-17T16:29:55Z</time>
      </trkpt>
      <trkpt lat="44.21095" lon="3.21328">
        <ele>627.2</ele>
        <time>2017-02-17T16:29:56Z</time>
      </trkpt>
      <trkpt lat="44.21092" lon="3.21325">
        <ele>626.5</ele>
        <time>2017-02-17T16:29:58Z</time>
      </trkpt>
      <trkpt lat="44.21088" lon="3.21323">
        <ele>625.4</ele>
        <time>2017-02-17T16:30:00Z</time>
      </trkpt>
      <trkpt lat="44.21084" lon="3.21322">
        <ele>624.3</ele>
        <time>2017-02-17T16:30:01Z</time>
      </trkpt>
      <trkpt lat="44.21079" lon="3.21322">
        <ele>623.4</ele>
        <time>2017-02-17T16:30:02Z</time>
      </trkpt>
      <trkpt lat="44.21073" lon="3.21321">
        <ele>623</ele>
        <time>2017-02-17T16:30:03Z</time>
      </trkpt>
      <trkpt lat="44.21069" lon="3.21319">
        <ele>623.2</ele>
        <time>2017-02-17T16:30:04Z</time>
      </trkpt>
      <trkpt lat="44.21067" lon="3.21318">
        <ele>623.3</ele>
        <time>2017-02-17T16:30:05Z</time>
      </trkpt>
      <trkpt lat="44.21062" lon="3.21318">
        <ele>623</ele>
        <time>2017-02-17T16:30:06Z</time>
      </trkpt>
      <trkpt lat="44.21057" lon="3.21319">
        <ele>622.9</ele>
        <time>2017-02-17T16:30:07Z</time>
      </trkpt>
      <trkpt lat="44.21053" lon="3.2132">
        <ele>623</ele>
        <time>2017-02-17T16:30:08Z</time>
      </trkpt>
      <trkpt lat="44.21048" lon="3.21316">
        <ele>622.1</ele>
        <time>2017-02-17T16:30:09Z</time>
      </trkpt>
      <trkpt lat="44.21045" lon="3.21315">
        <ele>621.5</ele>
        <time>2017-02-17T16:30:10Z</time>
      </trkpt>
      <trkpt lat="44.2104" lon="3.21315">
        <ele>620</ele>
        <time>2017-02-17T16:30:11Z</time>
      </trkpt>
      <trkpt lat="44.21035" lon="3.21314">
        <ele>618.2</ele>
        <time>2017-02-17T16:30:12Z</time>
      </trkpt>
      <trkpt lat="44.21031" lon="3.21313">
        <ele>616.7</ele>
        <time>2017-02-17T16:30:13Z</time>
      </trkpt>
      <trkpt lat="44.21026" lon="3.21312">
        <ele>615.4</ele>
        <time>2017-02-17T16:30:14Z</time>
      </trkpt>
      <trkpt lat="44.21021" lon="3.21311">
        <ele>614.4</ele>
        <time>2017-02-17T16:30:15Z</time>
      </trkpt>
      <trkpt lat="44.21016" lon="3.2131">
        <ele>612.9</ele>
        <time>2017-02-17T16:30:16Z</time>
      </trkpt>
      <trkpt lat="44.21012" lon="3.2131">
        <ele>611.8</ele>
        <time>2017-02-17T16:30:17Z</time>
      </trkpt>
      <trkpt lat="44.2101" lon="3.21307">
        <ele>611.5</ele>
        <time>2017-02-17T16:30:18Z</time>
      </trkpt>
      <trkpt lat="44.21004" lon="3.21303">
        <ele>611.1</ele>
        <time>2017-02-17T16:30:20Z</time>
      </trkpt>
      <trkpt lat="44.21" lon="3.21301">
        <ele>610.4</ele>
        <time>2017-02-17T16:30:21Z</time>
      </trkpt>
      <trkpt lat="44.20997" lon="3.21299">
        <ele>610</ele>
        <time>2017-02-17T16:30:22Z</time>
      </trkpt>
      <trkpt lat="44.20993" lon="3.21298">
        <ele>609.9</ele>
        <time>2017-02-17T16:30:23Z</time>
      </trkpt>
      <trkpt lat="44.20988" lon="3.21296">
        <ele>609.7</ele>
        <time>2017-02-17T16:30:24Z</time>
      </trkpt>
      <trkpt lat="44.20984" lon="3.21295">
        <ele>609.1</ele>
        <time>2017-02-17T16:30:25Z</time>
      </trkpt>
      <trkpt lat="44.2098" lon="3.21294">
        <ele>608.9</ele>
        <time>2017-02-17T16:30:26Z</time>
      </trkpt>
      <trkpt lat="44.20975" lon="3.21292">
        <ele>609.2</ele>
        <time>2017-02-17T16:30:27Z</time>
      </trkpt>
      <trkpt lat="44.20971" lon="3.21289">
        <ele>609.5</ele>
        <time>2017-02-17T16:30:28Z</time>
      </trkpt>
      <trkpt lat="44.20968" lon="3.21286">
        <ele>609.7</ele>
        <time>2017-02-17T16:30:29Z</time>
      </trkpt>
      <trkpt lat="44.20965" lon="3.21284">
        <ele>610.2</ele>
        <time>2017-02-17T16:30:30Z</time>
      </trkpt>
      <trkpt lat="44.20961" lon="3.21278">
        <ele>611.4</ele>
        <time>2017-02-17T16:30:32Z</time>
      </trkpt>
      <trkpt lat="44.20957" lon="3.21276">
        <ele>612.4</ele>
        <time>2017-02-17T16:30:33Z</time>
      </trkpt>
      <trkpt lat="44.20954" lon="3.21272">
        <ele>613.3</ele>
        <time>2017-02-17T16:30:34Z</time>
      </trkpt>
      <trkpt lat="44.20951" lon="3.21268">
        <ele>615.5</ele>
        <time>2017-02-17T16:30:36Z</time>
      </trkpt>
      <trkpt lat="44.20949" lon="3.21266">
        <ele>617.2</ele>
        <time>2017-02-17T16:30:39Z</time>
      </trkpt>
      <trkpt lat="44.20946" lon="3.21264">
        <ele>618.3</ele>
        <time>2017-02-17T16:30:41Z</time>
      </trkpt>
      <trkpt lat="44.20943" lon="3.21261">
        <ele>618.8</ele>
        <time>2017-02-17T16:30:43Z</time>
      </trkpt>
      <trkpt lat="44.2094" lon="3.21258">
        <ele>618.8</ele>
        <time>2017-02-17T16:30:45Z</time>
      </trkpt>
      <trkpt lat="44.20937" lon="3.21256">
        <ele>618.4</ele>
        <time>2017-02-17T16:30:47Z</time>
      </trkpt>
      <trkpt lat="44.20932" lon="3.21254">
        <ele>618.3</ele>
        <time>2017-02-17T16:30:51Z</time>
      </trkpt>
      <trkpt lat="44.20929" lon="3.21254">
        <ele>618.7</ele>
        <time>2017-02-17T16:30:52Z</time>
      </trkpt>
      <trkpt lat="44.20923" lon="3.21254">
        <ele>618.5</ele>
        <time>2017-02-17T16:30:54Z</time>
      </trkpt>
      <trkpt lat="44.20918" lon="3.21253">
        <ele>617.7</ele>
        <time>2017-02-17T16:30:56Z</time>
      </trkpt>
      <trkpt lat="44.20912" lon="3.21255">
        <ele>616.2</ele>
        <time>2017-02-17T16:30:58Z</time>
      </trkpt>
      <trkpt lat="44.20908" lon="3.21254">
        <ele>615.2</ele>
        <time>2017-02-17T16:30:59Z</time>
      </trkpt>
      <trkpt lat="44.20904" lon="3.21254">
        <ele>614</ele>
        <time>2017-02-17T16:31:00Z</time>
      </trkpt>
      <trkpt lat="44.20901" lon="3.21255">
        <ele>612.9</ele>
        <time>2017-02-17T16:31:01Z</time>
      </trkpt>
      <trkpt lat="44.20898" lon="3.21256">
        <ele>612.2</ele>
        <time>2017-02-17T16:31:02Z</time>
      </trkpt>
      <trkpt lat="44.20894" lon="3.21257">
        <ele>611.5</ele>
        <time>2017-02-17T16:31:03Z</time>
      </trkpt>
      <trkpt lat="44.20889" lon="3.21258">
        <ele>610</ele>
        <time>2017-02-17T16:31:04Z</time>
      </trkpt>
      <trkpt lat="44.20885" lon="3.2126">
        <ele>608</ele>
        <time>2017-02-17T16:31:05Z</time>
      </trkpt>
      <trkpt lat="44.2088" lon="3.21259">
        <ele>606.3</ele>
        <time>2017-02-17T16:31:06Z</time>
      </trkpt>
      <trkpt lat="44.20875" lon="3.21259">
        <ele>604.3</ele>
        <time>2017-02-17T16:31:07Z</time>
      </trkpt>
      <trkpt lat="44.2087" lon="3.21259">
        <ele>601.4</ele>
        <time>2017-02-17T16:31:08Z</time>
      </trkpt>
      <trkpt lat="44.20865" lon="3.21258">
        <ele>599.6</ele>
        <time>2017-02-17T16:31:09Z</time>
      </trkpt>
      <trkpt lat="44.20861" lon="3.21257">
        <ele>599.7</ele>
        <time>2017-02-17T16:31:10Z</time>
      </trkpt>
      <trkpt lat="44.20858" lon="3.21254">
        <ele>600.6</ele>
        <time>2017-02-17T16:31:11Z</time>
      </trkpt>
      <trkpt lat="44.20855" lon="3.21249">
        <ele>600.8</ele>
        <time>2017-02-17T16:31:12Z</time>
      </trkpt>
      <trkpt lat="44.20855" lon="3.21243">
        <ele>600.6</ele>
        <time>2017-02-17T16:31:13Z</time>
      </trkpt>
      <trkpt lat="44.20854" lon="3.21234">
        <ele>599.7</ele>
        <time>2017-02-17T16:31:14Z</time>
      </trkpt>
      <trkpt lat="44.20854" lon="3.21229">
        <ele>599.3</ele>
        <time>2017-02-17T16:31:15Z</time>
      </trkpt>
      <trkpt lat="44.20852" lon="3.21222">
        <ele>599.3</ele>
        <time>2017-02-17T16:31:17Z</time>
      </trkpt>
      <trkpt lat="44.20852" lon="3.21218">
        <ele>600.3</ele>
        <time>2017-02-17T16:31:18Z</time>
      </trkpt>
      <trkpt lat="44.20851" lon="3.21211">
        <ele>601.4</ele>
        <time>2017-02-17T16:31:19Z</time>
      </trkpt>
      <trkpt lat="44.2085" lon="3.21206">
        <ele>601.6</ele>
        <time>2017-02-17T16:31:20Z</time>
      </trkpt>
      <trkpt lat="44.2085" lon="3.21199">
        <ele>601.9</ele>
        <time>2017-02-17T16:31:22Z</time>
      </trkpt>
      <trkpt lat="44.2085" lon="3.21195">
        <ele>602.5</ele>
        <time>2017-02-17T16:31:23Z</time>
      </trkpt>
      <trkpt lat="44.20851" lon="3.21191">
        <ele>603</ele>
        <time>2017-02-17T16:31:24Z</time>
      </trkpt>
      <trkpt lat="44.2085" lon="3.21188">
        <ele>603.4</ele>
        <time>2017-02-17T16:31:25Z</time>
      </trkpt>
      <trkpt lat="44.2085" lon="3.21181">
        <ele>603.1</ele>
        <time>2017-02-17T16:31:27Z</time>
      </trkpt>
      <trkpt lat="44.20851" lon="3.21177">
        <ele>602.9</ele>
        <time>2017-02-17T16:31:28Z</time>
      </trkpt>
      <trkpt lat="44.20851" lon="3.21173">
        <ele>602.5</ele>
        <time>2017-02-17T16:31:29Z</time>
      </trkpt>
      <trkpt lat="44.20851" lon="3.21169">
        <ele>602.1</ele>
        <time>2017-02-17T16:31:30Z</time>
      </trkpt>
      <trkpt lat="44.20852" lon="3.21162">
        <ele>601.7</ele>
        <time>2017-02-17T16:31:32Z</time>
      </trkpt>
      <trkpt lat="44.20852" lon="3.21154">
        <ele>601.7</ele>
        <time>2017-02-17T16:31:34Z</time>
      </trkpt>
      <trkpt lat="44.20853" lon="3.21146">
        <ele>601.1</ele>
        <time>2017-02-17T16:31:35Z</time>
      </trkpt>
      <trkpt lat="44.20853" lon="3.21138">
        <ele>600.9</ele>
        <time>2017-02-17T16:31:36Z</time>
      </trkpt>
      <trkpt lat="44.20853" lon="3.21125">
        <ele>602.1</ele>
        <time>2017-02-17T16:31:37Z</time>
      </trkpt>
      <trkpt lat="44.20854" lon="3.21114">
        <ele>603</ele>
        <time>2017-02-17T16:31:38Z</time>
      </trkpt>
      <trkpt lat="44.20855" lon="3.21106">
        <ele>604</ele>
        <time>2017-02-17T16:31:39Z</time>
      </trkpt>
      <trkpt lat="44.20855" lon="3.21098">
        <ele>605.7</ele>
        <time>2017-02-17T16:31:40Z</time>
      </trkpt>
      <trkpt lat="44.20856" lon="3.21092">
        <ele>605</ele>
        <time>2017-02-17T16:31:41Z</time>
      </trkpt>
      <trkpt lat="44.20855" lon="3.21088">
        <ele>604.4</ele>
        <time>2017-02-17T16:31:42Z</time>
      </trkpt>
      <trkpt lat="44.20853" lon="3.21084">
        <ele>604.3</ele>
        <time>2017-02-17T16:31:43Z</time>
      </trkpt>
      <trkpt lat="44.20851" lon="3.2108">
        <ele>604.3</ele>
        <time>2017-02-17T16:31:46Z</time>
      </trkpt>
      <trkpt lat="44.20848" lon="3.21078">
        <ele>604.3</ele>
        <time>2017-02-17T16:31:48Z</time>
      </trkpt>
      <trkpt lat="44.20844" lon="3.21076">
        <ele>603.9</ele>
        <time>2017-02-17T16:31:50Z</time>
      </trkpt>
      <trkpt lat="44.2084" lon="3.21071">
        <ele>603.5</ele>
        <time>2017-02-17T16:31:52Z</time>
      </trkpt>
      <trkpt lat="44.20838" lon="3.21068">
        <ele>603.3</ele>
        <time>2017-02-17T16:31:53Z</time>
      </trkpt>
      <trkpt lat="44.20836" lon="3.21065">
        <ele>603.3</ele>
        <time>2017-02-17T16:31:54Z</time>
      </trkpt>
      <trkpt lat="44.20834" lon="3.21062">
        <ele>603.4</ele>
        <time>2017-02-17T16:31:55Z</time>
      </trkpt>
      <trkpt lat="44.20831" lon="3.21058">
        <ele>603.7</ele>
        <time>2017-02-17T16:31:57Z</time>
      </trkpt>
      <trkpt lat="44.20826" lon="3.21055">
        <ele>603.7</ele>
        <time>2017-02-17T16:31:59Z</time>
      </trkpt>
      <trkpt lat="44.20821" lon="3.21053">
        <ele>603.4</ele>
        <time>2017-02-17T16:32:01Z</time>
      </trkpt>
      <trkpt lat="44.20817" lon="3.21052">
        <ele>602.3</ele>
        <time>2017-02-17T16:32:03Z</time>
      </trkpt>
      <trkpt lat="44.20814" lon="3.21052">
        <ele>601.8</ele>
        <time>2017-02-17T16:32:04Z</time>
      </trkpt>
      <trkpt lat="44.2081" lon="3.21051">
        <ele>602.1</ele>
        <time>2017-02-17T16:32:05Z</time>
      </trkpt>
      <trkpt lat="44.20807" lon="3.2105">
        <ele>602.5</ele>
        <time>2017-02-17T16:32:06Z</time>
      </trkpt>
      <trkpt lat="44.20804" lon="3.21048">
        <ele>603.3</ele>
        <time>2017-02-17T16:32:07Z</time>
      </trkpt>
      <trkpt lat="44.20801" lon="3.21045">
        <ele>604.2</ele>
        <time>2017-02-17T16:32:08Z</time>
      </trkpt>
      <trkpt lat="44.20798" lon="3.21044">
        <ele>605</ele>
        <time>2017-02-17T16:32:09Z</time>
      </trkpt>
      <trkpt lat="44.20794" lon="3.2104">
        <ele>604.6</ele>
        <time>2017-02-17T16:32:10Z</time>
      </trkpt>
      <trkpt lat="44.20791" lon="3.21037">
        <ele>604.5</ele>
        <time>2017-02-17T16:32:11Z</time>
      </trkpt>
      <trkpt lat="44.20788" lon="3.21035">
        <ele>604.9</ele>
        <time>2017-02-17T16:32:12Z</time>
      </trkpt>
      <trkpt lat="44.20784" lon="3.21032">
        <ele>604.9</ele>
        <time>2017-02-17T16:32:13Z</time>
      </trkpt>
      <trkpt lat="44.20779" lon="3.21029">
        <ele>604.2</ele>
        <time>2017-02-17T16:32:14Z</time>
      </trkpt>
      <trkpt lat="44.20774" lon="3.21025">
        <ele>603.8</ele>
        <time>2017-02-17T16:32:15Z</time>
      </trkpt>
      <trkpt lat="44.2077" lon="3.2102">
        <ele>603.3</ele>
        <time>2017-02-17T16:32:16Z</time>
      </trkpt>
      <trkpt lat="44.20766" lon="3.21015">
        <ele>602.3</ele>
        <time>2017-02-17T16:32:17Z</time>
      </trkpt>
      <trkpt lat="44.20761" lon="3.21011">
        <ele>602.1</ele>
        <time>2017-02-17T16:32:18Z</time>
      </trkpt>
      <trkpt lat="44.20757" lon="3.21008">
        <ele>601.1</ele>
        <time>2017-02-17T16:32:19Z</time>
      </trkpt>
      <trkpt lat="44.20752" lon="3.21009">
        <ele>599.3</ele>
        <time>2017-02-17T16:32:20Z</time>
      </trkpt>
      <trkpt lat="44.20747" lon="3.21012">
        <ele>597.1</ele>
        <time>2017-02-17T16:32:21Z</time>
      </trkpt>
      <trkpt lat="44.20745" lon="3.21015">
        <ele>595.4</ele>
        <time>2017-02-17T16:32:22Z</time>
      </trkpt>
      <trkpt lat="44.2074" lon="3.2102">
        <ele>593.2</ele>
        <time>2017-02-17T16:32:24Z</time>
      </trkpt>
      <trkpt lat="44.20736" lon="3.21024">
        <ele>592.1</ele>
        <time>2017-02-17T16:32:25Z</time>
      </trkpt>
      <trkpt lat="44.20734" lon="3.21026">
        <ele>591.3</ele>
        <time>2017-02-17T16:32:26Z</time>
      </trkpt>
      <trkpt lat="44.20729" lon="3.21032">
        <ele>589.5</ele>
        <time>2017-02-17T16:32:28Z</time>
      </trkpt>
      <trkpt lat="44.20685" lon="3.21103">
        <ele>569.8</ele>
        <time>2017-02-17T16:32:40Z</time>
      </trkpt>
      <trkpt lat="44.20642" lon="3.21141">
        <ele>567.8</ele>
        <time>2017-02-17T16:32:46Z</time>
      </trkpt>
      <trkpt lat="44.20634" lon="3.21129">
        <ele>580.7</ele>
        <time>2017-02-17T16:32:48Z</time>
      </trkpt>
      <trkpt lat="44.20636" lon="3.21124">
        <ele>582.8</ele>
        <time>2017-02-17T16:32:49Z</time>
      </trkpt>
      <trkpt lat="44.20633" lon="3.21115">
        <ele>590.7</ele>
        <time>2017-02-17T16:32:50Z</time>
      </trkpt>
      <trkpt lat="44.20634" lon="3.2111">
        <ele>594.3</ele>
        <time>2017-02-17T16:32:51Z</time>
      </trkpt>
      <trkpt lat="44.20629" lon="3.21113">
        <ele>592.8</ele>
        <time>2017-02-17T16:32:52Z</time>
      </trkpt>
      <trkpt lat="44.20626" lon="3.21107">
        <ele>591.5</ele>
        <time>2017-02-17T16:32:54Z</time>
      </trkpt>
      <trkpt lat="44.20627" lon="3.21112">
        <ele>591.1</ele>
        <time>2017-02-17T16:32:55Z</time>
      </trkpt>
      <trkpt lat="44.20622" lon="3.21112">
        <ele>590.8</ele>
        <time>2017-02-17T16:32:56Z</time>
      </trkpt>
      <trkpt lat="44.20622" lon="3.21118">
        <ele>590.5</ele>
        <time>2017-02-17T16:32:57Z</time>
      </trkpt>
      <trkpt lat="44.20503" lon="3.21212">
        <ele>589.4</ele>
        <time>2017-02-17T16:33:23Z</time>
      </trkpt>
      <trkpt lat="44.20511" lon="3.2122">
        <ele>581.7</ele>
        <time>2017-02-17T16:33:24Z</time>
      </trkpt>
      <trkpt lat="44.20503" lon="3.21222">
        <ele>579.7</ele>
        <time>2017-02-17T16:33:25Z</time>
      </trkpt>
      <trkpt lat="44.20506" lon="3.21236">
        <ele>576.9</ele>
        <time>2017-02-17T16:33:26Z</time>
      </trkpt>
      <trkpt lat="44.20504" lon="3.21233">
        <ele>576.2</ele>
        <time>2017-02-17T16:33:27Z</time>
      </trkpt>
      <trkpt lat="44.20496" lon="3.21232">
        <ele>574.3</ele>
        <time>2017-02-17T16:33:28Z</time>
      </trkpt>
      <trkpt lat="44.20502" lon="3.21246">
        <ele>573.2</ele>
        <time>2017-02-17T16:33:29Z</time>
      </trkpt>
      <trkpt lat="44.20495" lon="3.21245">
        <ele>572.6</ele>
        <time>2017-02-17T16:33:30Z</time>
      </trkpt>
      <trkpt lat="44.20492" lon="3.21268">
        <ele>570.2</ele>
        <time>2017-02-17T16:33:35Z</time>
      </trkpt>
      <trkpt lat="44.20488" lon="3.21267">
        <ele>570.3</ele>
        <time>2017-02-17T16:33:36Z</time>
      </trkpt>
      <trkpt lat="44.20482" lon="3.21267">
        <ele>570.4</ele>
        <time>2017-02-17T16:33:37Z</time>
      </trkpt>
      <trkpt lat="44.20477" lon="3.21268">
        <ele>572</ele>
        <time>2017-02-17T16:33:38Z</time>
      </trkpt>
      <trkpt lat="44.20473" lon="3.21269">
        <ele>572.4</ele>
        <time>2017-02-17T16:33:39Z</time>
      </trkpt>
      <trkpt lat="44.20468" lon="3.21272">
        <ele>571.9</ele>
        <time>2017-02-17T16:33:40Z</time>
      </trkpt>
      <trkpt lat="44.20465" lon="3.21273">
        <ele>571.3</ele>
        <time>2017-02-17T16:33:41Z</time>
      </trkpt>
      <trkpt lat="44.2046" lon="3.21276">
        <ele>570.2</ele>
        <time>2017-02-17T16:33:42Z</time>
      </trkpt>
      <trkpt lat="44.20456" lon="3.21275">
        <ele>570.1</ele>
        <time>2017-02-17T16:33:43Z</time>
      </trkpt>
      <trkpt lat="44.20448" lon="3.21272">
        <ele>570</ele>
        <time>2017-02-17T16:33:44Z</time>
      </trkpt>
      <trkpt lat="44.2044" lon="3.21267">
        <ele>569.4</ele>
        <time>2017-02-17T16:33:45Z</time>
      </trkpt>
      <trkpt lat="44.20433" lon="3.21263">
        <ele>567.7</ele>
        <time>2017-02-17T16:33:46Z</time>
      </trkpt>
      <trkpt lat="44.20426" lon="3.21262">
        <ele>567.8</ele>
        <time>2017-02-17T16:33:47Z</time>
      </trkpt>
      <trkpt lat="44.20422" lon="3.21261">
        <ele>567.7</ele>
        <time>2017-02-17T16:33:48Z</time>
      </trkpt>
      <trkpt lat="44.20418" lon="3.21258">
        <ele>567.5</ele>
        <time>2017-02-17T16:33:49Z</time>
      </trkpt>
      <trkpt lat="44.20413" lon="3.21255">
        <ele>566.7</ele>
        <time>2017-02-17T16:33:50Z</time>
      </trkpt>
      <trkpt lat="44.20407" lon="3.21251">
        <ele>566.2</ele>
        <time>2017-02-17T16:33:51Z</time>
      </trkpt>
      <trkpt lat="44.20403" lon="3.21247">
        <ele>566.2</ele>
        <time>2017-02-17T16:33:52Z</time>
      </trkpt>
      <trkpt lat="44.20398" lon="3.21245">
        <ele>566.4</ele>
        <time>2017-02-17T16:33:53Z</time>
      </trkpt>
      <trkpt lat="44.20395" lon="3.21241">
        <ele>566.7</ele>
        <time>2017-02-17T16:33:54Z</time>
      </trkpt>
      <trkpt lat="44.20392" lon="3.2124">
        <ele>566.1</ele>
        <time>2017-02-17T16:33:55Z</time>
      </trkpt>
      <trkpt lat="44.20388" lon="3.21238">
        <ele>565</ele>
        <time>2017-02-17T16:33:56Z</time>
      </trkpt>
      <trkpt lat="44.20384" lon="3.21236">
        <ele>564.1</ele>
        <time>2017-02-17T16:33:57Z</time>
      </trkpt>
      <trkpt lat="44.2038" lon="3.21234">
        <ele>563.4</ele>
        <time>2017-02-17T16:33:58Z</time>
      </trkpt>
      <trkpt lat="44.20379" lon="3.2123">
        <ele>562.9</ele>
        <time>2017-02-17T16:33:59Z</time>
      </trkpt>
      <trkpt lat="44.20376" lon="3.21225">
        <ele>562.9</ele>
        <time>2017-02-17T16:34:01Z</time>
      </trkpt>
      <trkpt lat="44.20373" lon="3.21226">
        <ele>563</ele>
        <time>2017-02-17T16:34:02Z</time>
      </trkpt>
      <trkpt lat="44.20368" lon="3.21227">
        <ele>562</ele>
        <time>2017-02-17T16:34:03Z</time>
      </trkpt>
      <trkpt lat="44.20363" lon="3.21227">
        <ele>560.9</ele>
        <time>2017-02-17T16:34:04Z</time>
      </trkpt>
      <trkpt lat="44.20356" lon="3.21224">
        <ele>560.2</ele>
        <time>2017-02-17T16:34:05Z</time>
      </trkpt>
      <trkpt lat="44.20343" lon="3.21217">
        <ele>555.6</ele>
        <time>2017-02-17T16:34:07Z</time>
      </trkpt>
      <trkpt lat="44.20338" lon="3.21214">
        <ele>555.3</ele>
        <time>2017-02-17T16:34:08Z</time>
      </trkpt>
      <trkpt lat="44.20332" lon="3.21211">
        <ele>554.1</ele>
        <time>2017-02-17T16:34:09Z</time>
      </trkpt>
      <trkpt lat="44.20329" lon="3.21208">
        <ele>553.9</ele>
        <time>2017-02-17T16:34:10Z</time>
      </trkpt>
      <trkpt lat="44.20319" lon="3.21206">
        <ele>554.9</ele>
        <time>2017-02-17T16:34:11Z</time>
      </trkpt>
      <trkpt lat="44.20299" lon="3.212">
        <ele>554.4</ele>
        <time>2017-02-17T16:34:14Z</time>
      </trkpt>
      <trkpt lat="44.20267" lon="3.2117">
        <ele>558.5</ele>
        <time>2017-02-17T16:34:20Z</time>
      </trkpt>
      <trkpt lat="44.20268" lon="3.21159">
        <ele>561</ele>
        <time>2017-02-17T16:34:21Z</time>
      </trkpt>
      <trkpt lat="44.20269" lon="3.21151">
        <ele>563.1</ele>
        <time>2017-02-17T16:34:22Z</time>
      </trkpt>
      <trkpt lat="44.20269" lon="3.21143">
        <ele>564.9</ele>
        <time>2017-02-17T16:34:23Z</time>
      </trkpt>
      <trkpt lat="44.2027" lon="3.21137">
        <ele>565.7</ele>
        <time>2017-02-17T16:34:24Z</time>
      </trkpt>
      <trkpt lat="44.20272" lon="3.21129">
        <ele>566.7</ele>
        <time>2017-02-17T16:34:25Z</time>
      </trkpt>
      <trkpt lat="44.20274" lon="3.21125">
        <ele>567.7</ele>
        <time>2017-02-17T16:34:26Z</time>
      </trkpt>
      <trkpt lat="44.20276" lon="3.21122">
        <ele>568.6</ele>
        <time>2017-02-17T16:34:27Z</time>
      </trkpt>
      <trkpt lat="44.20278" lon="3.21119">
        <ele>569.4</ele>
        <time>2017-02-17T16:34:28Z</time>
      </trkpt>
      <trkpt lat="44.20282" lon="3.21112">
        <ele>570.7</ele>
        <time>2017-02-17T16:34:29Z</time>
      </trkpt>
      <trkpt lat="44.20284" lon="3.21109">
        <ele>570.9</ele>
        <time>2017-02-17T16:34:32Z</time>
      </trkpt>
      <trkpt lat="44.20286" lon="3.2111">
        <ele>571.1</ele>
        <time>2017-02-17T16:34:38Z</time>
      </trkpt>
      <trkpt lat="44.20285" lon="3.21116">
        <ele>572.1</ele>
        <time>2017-02-17T16:34:54Z</time>
      </trkpt>
      <trkpt lat="44.20281" lon="3.21109">
        <ele>572.7</ele>
        <time>2017-02-17T16:35:06Z</time>
      </trkpt>
      <trkpt lat="44.20281" lon="3.21104">
        <ele>571.5</ele>
        <time>2017-02-17T16:35:07Z</time>
      </trkpt>
      <trkpt lat="44.20283" lon="3.21097">
        <ele>570.4</ele>
        <time>2017-02-17T16:35:08Z</time>
      </trkpt>
      <trkpt lat="44.20285" lon="3.2109">
        <ele>569.8</ele>
        <time>2017-02-17T16:35:10Z</time>
      </trkpt>
      <trkpt lat="44.20285" lon="3.21085">
        <ele>569.4</ele>
        <time>2017-02-17T16:35:11Z</time>
      </trkpt>
      <trkpt lat="44.20286" lon="3.21078">
        <ele>568.8</ele>
        <time>2017-02-17T16:35:13Z</time>
      </trkpt>
      <trkpt lat="44.20285" lon="3.21074">
        <ele>568.6</ele>
        <time>2017-02-17T16:35:14Z</time>
      </trkpt>
      <trkpt lat="44.20283" lon="3.21071">
        <ele>568.5</ele>
        <time>2017-02-17T16:35:15Z</time>
      </trkpt>
      <trkpt lat="44.20281" lon="3.2107">
        <ele>568.4</ele>
        <time>2017-02-17T16:35:16Z</time>
      </trkpt>
      <trkpt lat="44.20276" lon="3.21066">
        <ele>568.4</ele>
        <time>2017-02-17T16:35:18Z</time>
      </trkpt>
      <trkpt lat="44.20273" lon="3.21063">
        <ele>568.5</ele>
        <time>2017-02-17T16:35:19Z</time>
      </trkpt>
      <trkpt lat="44.20268" lon="3.21059">
        <ele>569</ele>
        <time>2017-02-17T16:35:21Z</time>
      </trkpt>
      <trkpt lat="44.20265" lon="3.21057">
        <ele>569.4</ele>
        <time>2017-02-17T16:35:23Z</time>
      </trkpt>
      <trkpt lat="44.20261" lon="3.21055">
        <ele>569.2</ele>
        <time>2017-02-17T16:35:25Z</time>
      </trkpt>
      <trkpt lat="44.20258" lon="3.21054">
        <ele>569</ele>
        <time>2017-02-17T16:35:26Z</time>
      </trkpt>
      <trkpt lat="44.20253" lon="3.21051">
        <ele>568.4</ele>
        <time>2017-02-17T16:35:27Z</time>
      </trkpt>
      <trkpt lat="44.20249" lon="3.21049">
        <ele>567.6</ele>
        <time>2017-02-17T16:35:28Z</time>
      </trkpt>
      <trkpt lat="44.20245" lon="3.21048">
        <ele>566.4</ele>
        <time>2017-02-17T16:35:29Z</time>
      </trkpt>
      <trkpt lat="44.20241" lon="3.21047">
        <ele>565.7</ele>
        <time>2017-02-17T16:35:30Z</time>
      </trkpt>
      <trkpt lat="44.20236" lon="3.21046">
        <ele>565.5</ele>
        <time>2017-02-17T16:35:31Z</time>
      </trkpt>
      <trkpt lat="44.20231" lon="3.21045">
        <ele>565.2</ele>
        <time>2017-02-17T16:35:32Z</time>
      </trkpt>
      <trkpt lat="44.20225" lon="3.21044">
        <ele>564.6</ele>
        <time>2017-02-17T16:35:33Z</time>
      </trkpt>
      <trkpt lat="44.2022" lon="3.2104">
        <ele>564</ele>
        <time>2017-02-17T16:35:34Z</time>
      </trkpt>
      <trkpt lat="44.20213" lon="3.21035">
        <ele>563.1</ele>
        <time>2017-02-17T16:35:35Z</time>
      </trkpt>
      <trkpt lat="44.20207" lon="3.2103">
        <ele>562.2</ele>
        <time>2017-02-17T16:35:36Z</time>
      </trkpt>
      <trkpt lat="44.20204" lon="3.21027">
        <ele>562.2</ele>
        <time>2017-02-17T16:35:37Z</time>
      </trkpt>
      <trkpt lat="44.202" lon="3.21024">
        <ele>562.5</ele>
        <time>2017-02-17T16:35:38Z</time>
      </trkpt>
      <trkpt lat="44.20196" lon="3.21021">
        <ele>562.6</ele>
        <time>2017-02-17T16:35:39Z</time>
      </trkpt>
      <trkpt lat="44.20193" lon="3.21018">
        <ele>562</ele>
        <time>2017-02-17T16:35:40Z</time>
      </trkpt>
      <trkpt lat="44.2019" lon="3.21015">
        <ele>561.5</ele>
        <time>2017-02-17T16:35:41Z</time>
      </trkpt>
      <trkpt lat="44.20186" lon="3.21012">
        <ele>561.2</ele>
        <time>2017-02-17T16:35:42Z</time>
      </trkpt>
      <trkpt lat="44.20183" lon="3.2101">
        <ele>561</ele>
        <time>2017-02-17T16:35:43Z</time>
      </trkpt>
      <trkpt lat="44.2018" lon="3.21008">
        <ele>560.8</ele>
        <time>2017-02-17T16:35:44Z</time>
      </trkpt>
      <trkpt lat="44.20177" lon="3.21007">
        <ele>560.9</ele>
        <time>2017-02-17T16:35:45Z</time>
      </trkpt>
      <trkpt lat="44.20174" lon="3.21005">
        <ele>561.1</ele>
        <time>2017-02-17T16:35:46Z</time>
      </trkpt>
      <trkpt lat="44.20169" lon="3.21003">
        <ele>561.3</ele>
        <time>2017-02-17T16:35:47Z</time>
      </trkpt>
      <trkpt lat="44.20166" lon="3.21002">
        <ele>561.2</ele>
        <time>2017-02-17T16:35:48Z</time>
      </trkpt>
      <trkpt lat="44.20163" lon="3.21001">
        <ele>561.2</ele>
        <time>2017-02-17T16:35:49Z</time>
      </trkpt>
      <trkpt lat="44.2016" lon="3.20999">
        <ele>561.1</ele>
        <time>2017-02-17T16:35:50Z</time>
      </trkpt>
      <trkpt lat="44.20156" lon="3.20997">
        <ele>561</ele>
        <time>2017-02-17T16:35:51Z</time>
      </trkpt>
      <trkpt lat="44.20153" lon="3.20994">
        <ele>561</ele>
        <time>2017-02-17T16:35:52Z</time>
      </trkpt>
      <trkpt lat="44.2015" lon="3.20992">
        <ele>560.7</ele>
        <time>2017-02-17T16:35:53Z</time>
      </trkpt>
      <trkpt lat="44.20145" lon="3.2099">
        <ele>560</ele>
        <time>2017-02-17T16:35:55Z</time>
      </trkpt>
      <trkpt lat="44.2014" lon="3.2099">
        <ele>559.4</ele>
        <time>2017-02-17T16:35:57Z</time>
      </trkpt>
      <trkpt lat="44.20136" lon="3.20991">
        <ele>558.8</ele>
        <time>2017-02-17T16:35:59Z</time>
      </trkpt>
      <trkpt lat="44.20133" lon="3.20991">
        <ele>558.5</ele>
        <time>2017-02-17T16:36:00Z</time>
      </trkpt>
      <trkpt lat="44.2013" lon="3.20992">
        <ele>558.1</ele>
        <time>2017-02-17T16:36:01Z</time>
      </trkpt>
      <trkpt lat="44.20127" lon="3.20992">
        <ele>557.8</ele>
        <time>2017-02-17T16:36:02Z</time>
      </trkpt>
      <trkpt lat="44.20122" lon="3.20993">
        <ele>557.9</ele>
        <time>2017-02-17T16:36:03Z</time>
      </trkpt>
      <trkpt lat="44.20119" lon="3.20993">
        <ele>558.3</ele>
        <time>2017-02-17T16:36:04Z</time>
      </trkpt>
      <trkpt lat="44.20116" lon="3.20994">
        <ele>558.6</ele>
        <time>2017-02-17T16:36:05Z</time>
      </trkpt>
      <trkpt lat="44.20113" lon="3.20994">
        <ele>558.5</ele>
        <time>2017-02-17T16:36:06Z</time>
      </trkpt>
      <trkpt lat="44.2011" lon="3.20995">
        <ele>558.3</ele>
        <time>2017-02-17T16:36:07Z</time>
      </trkpt>
      <trkpt lat="44.20107" lon="3.20994">
        <ele>558</ele>
        <time>2017-02-17T16:36:08Z</time>
      </trkpt>
      <trkpt lat="44.20105" lon="3.20994">
        <ele>557.8</ele>
        <time>2017-02-17T16:36:09Z</time>
      </trkpt>
      <trkpt lat="44.20101" lon="3.20994">
        <ele>557.7</ele>
        <time>2017-02-17T16:36:10Z</time>
      </trkpt>
      <trkpt lat="44.20096" lon="3.20994">
        <ele>557.4</ele>
        <time>2017-02-17T16:36:12Z</time>
      </trkpt>
      <trkpt lat="44.20091" lon="3.20994">
        <ele>557.1</ele>
        <time>2017-02-17T16:36:14Z</time>
      </trkpt>
      <trkpt lat="44.20088" lon="3.20994">
        <ele>556.9</ele>
        <time>2017-02-17T16:36:15Z</time>
      </trkpt>
      <trkpt lat="44.20083" lon="3.20992">
        <ele>556.7</ele>
        <time>2017-02-17T16:36:16Z</time>
      </trkpt>
      <trkpt lat="44.20079" lon="3.20991">
        <ele>556.6</ele>
        <time>2017-02-17T16:36:17Z</time>
      </trkpt>
      <trkpt lat="44.20074" lon="3.20991">
        <ele>556.5</ele>
        <time>2017-02-17T16:36:18Z</time>
      </trkpt>
      <trkpt lat="44.20071" lon="3.20992">
        <ele>556.5</ele>
        <time>2017-02-17T16:36:19Z</time>
      </trkpt>
      <trkpt lat="44.20068" lon="3.20992">
        <ele>556.3</ele>
        <time>2017-02-17T16:36:20Z</time>
      </trkpt>
      <trkpt lat="44.20065" lon="3.20992">
        <ele>555.7</ele>
        <time>2017-02-17T16:36:21Z</time>
      </trkpt>
      <trkpt lat="44.20061" lon="3.20995">
        <ele>554.9</ele>
        <time>2017-02-17T16:36:23Z</time>
      </trkpt>
      <trkpt lat="44.20058" lon="3.20997">
        <ele>554.4</ele>
        <time>2017-02-17T16:36:25Z</time>
      </trkpt>
      <trkpt lat="44.20055" lon="3.20999">
        <ele>553.8</ele>
        <time>2017-02-17T16:36:27Z</time>
      </trkpt>
      <trkpt lat="44.20052" lon="3.21001">
        <ele>553.5</ele>
        <time>2017-02-17T16:36:28Z</time>
      </trkpt>
      <trkpt lat="44.20049" lon="3.21001">
        <ele>553.3</ele>
        <time>2017-02-17T16:36:29Z</time>
      </trkpt>
      <trkpt lat="44.20045" lon="3.20999">
        <ele>553</ele>
        <time>2017-02-17T16:36:30Z</time>
      </trkpt>
      <trkpt lat="44.20041" lon="3.20999">
        <ele>553.5</ele>
        <time>2017-02-17T16:36:32Z</time>
      </trkpt>
      <trkpt lat="44.20038" lon="3.20998">
        <ele>554</ele>
        <time>2017-02-17T16:36:34Z</time>
      </trkpt>
      <trkpt lat="44.20035" lon="3.20997">
        <ele>554.4</ele>
        <time>2017-02-17T16:36:38Z</time>
      </trkpt>
      <trkpt lat="44.20032" lon="3.20996">
        <ele>554.8</ele>
        <time>2017-02-17T16:36:40Z</time>
      </trkpt>
      <trkpt lat="44.20029" lon="3.20994">
        <ele>555.3</ele>
        <time>2017-02-17T16:36:42Z</time>
      </trkpt>
      <trkpt lat="44.20026" lon="3.20992">
        <ele>556.1</ele>
        <time>2017-02-17T16:36:44Z</time>
      </trkpt>
      <trkpt lat="44.20022" lon="3.2099">
        <ele>557.3</ele>
        <time>2017-02-17T16:36:46Z</time>
      </trkpt>
      <trkpt lat="44.2002" lon="3.20987">
        <ele>558.3</ele>
        <time>2017-02-17T16:36:48Z</time>
      </trkpt>
      <trkpt lat="44.20017" lon="3.20984">
        <ele>559.2</ele>
        <time>2017-02-17T16:36:50Z</time>
      </trkpt>
      <trkpt lat="44.20012" lon="3.20981">
        <ele>560</ele>
        <time>2017-02-17T16:36:52Z</time>
      </trkpt>
      <trkpt lat="44.20008" lon="3.20978">
        <ele>560.5</ele>
        <time>2017-02-17T16:36:54Z</time>
      </trkpt>
      <trkpt lat="44.20003" lon="3.20978">
        <ele>561</ele>
        <time>2017-02-17T16:36:56Z</time>
      </trkpt>
      <trkpt lat="44.19998" lon="3.20979">
        <ele>561.1</ele>
        <time>2017-02-17T16:36:58Z</time>
      </trkpt>
      <trkpt lat="44.19994" lon="3.20978">
        <ele>561</ele>
        <time>2017-02-17T16:36:59Z</time>
      </trkpt>
      <trkpt lat="44.19991" lon="3.20975">
        <ele>560.8</ele>
        <time>2017-02-17T16:37:01Z</time>
      </trkpt>
      <trkpt lat="44.19989" lon="3.20975">
        <ele>560.8</ele>
        <time>2017-02-17T16:37:03Z</time>
      </trkpt>
      <trkpt lat="44.19983" lon="3.20972">
        <ele>560.8</ele>
        <time>2017-02-17T16:37:09Z</time>
      </trkpt>
      <trkpt lat="44.19981" lon="3.20969">
        <ele>560.6</ele>
        <time>2017-02-17T16:37:16Z</time>
      </trkpt>
      <trkpt lat="44.19982" lon="3.20973">
        <ele>560.4</ele>
        <time>2017-02-17T16:37:20Z</time>
      </trkpt>
      <trkpt lat="44.19982" lon="3.20977">
        <ele>560.1</ele>
        <time>2017-02-17T16:37:23Z</time>
      </trkpt>
      <trkpt lat="44.19977" lon="3.20979">
        <ele>560.1</ele>
        <time>2017-02-17T16:37:25Z</time>
      </trkpt>
      <trkpt lat="44.19974" lon="3.20979">
        <ele>560.2</ele>
        <time>2017-02-17T16:37:26Z</time>
      </trkpt>
      <trkpt lat="44.19971" lon="3.20975">
        <ele>560.4</ele>
        <time>2017-02-17T16:37:30Z</time>
      </trkpt>
      <trkpt lat="44.19967" lon="3.20975">
        <ele>560.4</ele>
        <time>2017-02-17T16:37:34Z</time>
      </trkpt>
      <trkpt lat="44.19963" lon="3.20977">
        <ele>560.3</ele>
        <time>2017-02-17T16:37:37Z</time>
      </trkpt>
      <trkpt lat="44.19961" lon="3.20974">
        <ele>560.2</ele>
        <time>2017-02-17T16:37:43Z</time>
      </trkpt>
      <trkpt lat="44.1996" lon="3.20971">
        <ele>560.1</ele>
        <time>2017-02-17T16:37:50Z</time>
      </trkpt>
      <trkpt lat="44.19957" lon="3.20965">
        <ele>559.9</ele>
        <time>2017-02-17T16:37:58Z</time>
      </trkpt>
      <trkpt lat="44.19955" lon="3.2096">
        <ele>560.1</ele>
        <time>2017-02-17T16:38:00Z</time>
      </trkpt>
      <trkpt lat="44.19952" lon="3.20956">
        <ele>560.4</ele>
        <time>2017-02-17T16:38:02Z</time>
      </trkpt>
      <trkpt lat="44.1995" lon="3.20951">
        <ele>560.6</ele>
        <time>2017-02-17T16:38:03Z</time>
      </trkpt>
      <trkpt lat="44.19948" lon="3.20946">
        <ele>560.5</ele>
        <time>2017-02-17T16:38:04Z</time>
      </trkpt>
      <trkpt lat="44.19947" lon="3.20942">
        <ele>560.4</ele>
        <time>2017-02-17T16:38:05Z</time>
      </trkpt>
      <trkpt lat="44.19945" lon="3.20939">
        <ele>560.3</ele>
        <time>2017-02-17T16:38:06Z</time>
      </trkpt>
      <trkpt lat="44.19944" lon="3.20935">
        <ele>560.2</ele>
        <time>2017-02-17T16:38:07Z</time>
      </trkpt>
      <trkpt lat="44.19942" lon="3.20929">
        <ele>560.1</ele>
        <time>2017-02-17T16:38:09Z</time>
      </trkpt>
      <trkpt lat="44.1994" lon="3.20924">
        <ele>559.7</ele>
        <time>2017-02-17T16:38:11Z</time>
      </trkpt>
      <trkpt lat="44.19937" lon="3.20925">
        <ele>559.4</ele>
        <time>2017-02-17T16:38:20Z</time>
      </trkpt>
      <trkpt lat="44.19938" lon="3.20928">
        <ele>559.7</ele>
        <time>2017-02-17T16:38:27Z</time>
      </trkpt>
      <trkpt lat="44.1994" lon="3.20931">
        <ele>560</ele>
        <time>2017-02-17T16:38:30Z</time>
      </trkpt>
      <trkpt lat="44.19942" lon="3.20934">
        <ele>560.1</ele>
        <time>2017-02-17T16:38:33Z</time>
      </trkpt>
      <trkpt lat="44.19943" lon="3.20938">
        <ele>560.2</ele>
        <time>2017-02-17T16:38:38Z</time>
      </trkpt>
      <trkpt lat="44.19941" lon="3.2094">
        <ele>560.3</ele>
        <time>2017-02-17T16:38:48Z</time>
      </trkpt>
      <trkpt lat="44.19937" lon="3.20943">
        <ele>559</ele>
        <time>2017-02-17T16:39:02Z</time>
      </trkpt>
      <trkpt lat="44.19932" lon="3.20942">
        <ele>558.2</ele>
        <time>2017-02-17T16:39:04Z</time>
      </trkpt>
      <trkpt lat="44.19928" lon="3.2094">
        <ele>557.4</ele>
        <time>2017-02-17T16:39:06Z</time>
      </trkpt>
      <trkpt lat="44.19926" lon="3.20934">
        <ele>556.6</ele>
        <time>2017-02-17T16:39:08Z</time>
      </trkpt>
      <trkpt lat="44.19922" lon="3.2093">
        <ele>555.1</ele>
        <time>2017-02-17T16:39:10Z</time>
      </trkpt>
      <trkpt lat="44.19918" lon="3.20926">
        <ele>554.6</ele>
        <time>2017-02-17T16:39:12Z</time>
      </trkpt>
      <trkpt lat="44.19914" lon="3.20922">
        <ele>554.1</ele>
        <time>2017-02-17T16:39:14Z</time>
      </trkpt>
      <trkpt lat="44.19911" lon="3.20918">
        <ele>553.5</ele>
        <time>2017-02-17T16:39:16Z</time>
      </trkpt>
      <trkpt lat="44.19909" lon="3.20915">
        <ele>552.8</ele>
        <time>2017-02-17T16:39:17Z</time>
      </trkpt>
      <trkpt lat="44.19907" lon="3.20912">
        <ele>553</ele>
        <time>2017-02-17T16:39:18Z</time>
      </trkpt>
      <trkpt lat="44.19901" lon="3.2091">
        <ele>551</ele>
        <time>2017-02-17T16:39:20Z</time>
      </trkpt>
      <trkpt lat="44.19898" lon="3.20909">
        <ele>549.9</ele>
        <time>2017-02-17T16:39:21Z</time>
      </trkpt>
      <trkpt lat="44.19894" lon="3.20904">
        <ele>547.9</ele>
        <time>2017-02-17T16:39:23Z</time>
      </trkpt>
      <trkpt lat="44.1989" lon="3.20901">
        <ele>547.1</ele>
        <time>2017-02-17T16:39:24Z</time>
      </trkpt>
      <trkpt lat="44.19886" lon="3.20898">
        <ele>546.4</ele>
        <time>2017-02-17T16:39:25Z</time>
      </trkpt>
      <trkpt lat="44.19882" lon="3.20896">
        <ele>543.8</ele>
        <time>2017-02-17T16:39:27Z</time>
      </trkpt>
      <trkpt lat="44.19878" lon="3.20895">
        <ele>542.4</ele>
        <time>2017-02-17T16:39:28Z</time>
      </trkpt>
      <trkpt lat="44.19873" lon="3.20892">
        <ele>541.5</ele>
        <time>2017-02-17T16:39:29Z</time>
      </trkpt>
      <trkpt lat="44.19869" lon="3.20891">
        <ele>538.8</ele>
        <time>2017-02-17T16:39:30Z</time>
      </trkpt>
      <trkpt lat="44.19866" lon="3.20893">
        <ele>537.7</ele>
        <time>2017-02-17T16:39:31Z</time>
      </trkpt>
      <trkpt lat="44.19862" lon="3.20894">
        <ele>536.7</ele>
        <time>2017-02-17T16:39:32Z</time>
      </trkpt>
      <trkpt lat="44.19858" lon="3.20892">
        <ele>535.8</ele>
        <time>2017-02-17T16:39:33Z</time>
      </trkpt>
      <trkpt lat="44.19855" lon="3.2089">
        <ele>535.6</ele>
        <time>2017-02-17T16:39:34Z</time>
      </trkpt>
      <trkpt lat="44.19852" lon="3.20889">
        <ele>534.8</ele>
        <time>2017-02-17T16:39:35Z</time>
      </trkpt>
      <trkpt lat="44.19846" lon="3.20888">
        <ele>533.1</ele>
        <time>2017-02-17T16:39:37Z</time>
      </trkpt>
      <trkpt lat="44.19842" lon="3.20888">
        <ele>532.3</ele>
        <time>2017-02-17T16:39:38Z</time>
      </trkpt>
      <trkpt lat="44.19838" lon="3.20888">
        <ele>530.9</ele>
        <time>2017-02-17T16:39:39Z</time>
      </trkpt>
      <trkpt lat="44.19834" lon="3.20887">
        <ele>530.4</ele>
        <time>2017-02-17T16:39:40Z</time>
      </trkpt>
      <trkpt lat="44.19832" lon="3.20885">
        <ele>530.1</ele>
        <time>2017-02-17T16:39:41Z</time>
      </trkpt>
      <trkpt lat="44.19829" lon="3.20882">
        <ele>529.5</ele>
        <time>2017-02-17T16:39:42Z</time>
      </trkpt>
      <trkpt lat="44.19826" lon="3.2088">
        <ele>528.7</ele>
        <time>2017-02-17T16:39:43Z</time>
      </trkpt>
      <trkpt lat="44.19823" lon="3.20877">
        <ele>527.8</ele>
        <time>2017-02-17T16:39:44Z</time>
      </trkpt>
      <trkpt lat="44.19819" lon="3.20875">
        <ele>526.8</ele>
        <time>2017-02-17T16:39:45Z</time>
      </trkpt>
      <trkpt lat="44.19816" lon="3.20874">
        <ele>525.9</ele>
        <time>2017-02-17T16:39:46Z</time>
      </trkpt>
      <trkpt lat="44.19813" lon="3.20877">
        <ele>524.9</ele>
        <time>2017-02-17T16:39:52Z</time>
      </trkpt>
      <trkpt lat="44.19813" lon="3.20881">
        <ele>525</ele>
        <time>2017-02-17T16:40:05Z</time>
      </trkpt>
      <trkpt lat="44.1981" lon="3.20886">
        <ele>524.2</ele>
        <time>2017-02-17T16:40:07Z</time>
      </trkpt>
      <trkpt lat="44.19811" lon="3.20882">
        <ele>525</ele>
        <time>2017-02-17T16:40:16Z</time>
      </trkpt>
      <trkpt lat="44.1981" lon="3.20878">
        <ele>524.2</ele>
        <time>2017-02-17T16:40:18Z</time>
      </trkpt>
      <trkpt lat="44.19806" lon="3.20877">
        <ele>523.4</ele>
        <time>2017-02-17T16:40:27Z</time>
      </trkpt>
      <trkpt lat="44.19805" lon="3.20873">
        <ele>522.8</ele>
        <time>2017-02-17T16:40:30Z</time>
      </trkpt>
      <trkpt lat="44.19802" lon="3.20869">
        <ele>522.9</ele>
        <time>2017-02-17T16:40:32Z</time>
      </trkpt>
      <trkpt lat="44.19802" lon="3.20862">
        <ele>522.2</ele>
        <time>2017-02-17T16:40:34Z</time>
      </trkpt>
      <trkpt lat="44.19802" lon="3.20856">
        <ele>523.3</ele>
        <time>2017-02-17T16:40:35Z</time>
      </trkpt>
      <trkpt lat="44.19801" lon="3.2085">
        <ele>522.6</ele>
        <time>2017-02-17T16:40:36Z</time>
      </trkpt>
      <trkpt lat="44.19799" lon="3.20846">
        <ele>522.9</ele>
        <time>2017-02-17T16:40:37Z</time>
      </trkpt>
      <trkpt lat="44.19798" lon="3.20841">
        <ele>522.1</ele>
        <time>2017-02-17T16:40:38Z</time>
      </trkpt>
      <trkpt lat="44.19796" lon="3.20838">
        <ele>522.4</ele>
        <time>2017-02-17T16:40:39Z</time>
      </trkpt>
      <trkpt lat="44.19792" lon="3.20836">
        <ele>520</ele>
        <time>2017-02-17T16:40:40Z</time>
      </trkpt>
      <trkpt lat="44.19785" lon="3.20838">
        <ele>517.7</ele>
        <time>2017-02-17T16:40:41Z</time>
      </trkpt>
      <trkpt lat="44.19781" lon="3.20839">
        <ele>516.7</ele>
        <time>2017-02-17T16:40:42Z</time>
      </trkpt>
      <trkpt lat="44.19778" lon="3.20838">
        <ele>515.8</ele>
        <time>2017-02-17T16:40:44Z</time>
      </trkpt>
      <trkpt lat="44.19777" lon="3.20835">
        <ele>515.2</ele>
        <time>2017-02-17T16:40:49Z</time>
      </trkpt>
      <trkpt lat="44.19774" lon="3.20833">
        <ele>514.2</ele>
        <time>2017-02-17T16:40:54Z</time>
      </trkpt>
      <trkpt lat="44.19771" lon="3.20834">
        <ele>513.1</ele>
        <time>2017-02-17T16:41:05Z</time>
      </trkpt>
      <trkpt lat="44.19768" lon="3.20834">
        <ele>511.8</ele>
        <time>2017-02-17T16:41:13Z</time>
      </trkpt>
      <trkpt lat="44.19765" lon="3.20829">
        <ele>512.1</ele>
        <time>2017-02-17T16:41:16Z</time>
      </trkpt>
      <trkpt lat="44.19763" lon="3.20828">
        <ele>510.8</ele>
        <time>2017-02-17T16:41:19Z</time>
      </trkpt>
      <trkpt lat="44.19759" lon="3.20824">
        <ele>509.7</ele>
        <time>2017-02-17T16:41:22Z</time>
      </trkpt>
      <trkpt lat="44.19757" lon="3.20818">
        <ele>508.5</ele>
        <time>2017-02-17T16:41:24Z</time>
      </trkpt>
      <trkpt lat="44.19755" lon="3.20813">
        <ele>507.6</ele>
        <time>2017-02-17T16:41:26Z</time>
      </trkpt>
      <trkpt lat="44.19753" lon="3.20809">
        <ele>506.4</ele>
        <time>2017-02-17T16:41:27Z</time>
      </trkpt>
      <trkpt lat="44.1975" lon="3.20806">
        <ele>506.4</ele>
        <time>2017-02-17T16:41:28Z</time>
      </trkpt>
      <trkpt lat="44.19748" lon="3.20803">
        <ele>505.1</ele>
        <time>2017-02-17T16:41:30Z</time>
      </trkpt>
      <trkpt lat="44.19745" lon="3.20801">
        <ele>503.7</ele>
        <time>2017-02-17T16:41:32Z</time>
      </trkpt>
      <trkpt lat="44.19743" lon="3.20799">
        <ele>501.9</ele>
        <time>2017-02-17T16:41:33Z</time>
      </trkpt>
      <trkpt lat="44.19741" lon="3.20794">
        <ele>502</ele>
        <time>2017-02-17T16:41:35Z</time>
      </trkpt>
      <trkpt lat="44.1974" lon="3.2079">
        <ele>500</ele>
        <time>2017-02-17T16:41:36Z</time>
      </trkpt>
      <trkpt lat="44.19738" lon="3.20786">
        <ele>500.1</ele>
        <time>2017-02-17T16:41:37Z</time>
      </trkpt>
      <trkpt lat="44.19736" lon="3.20784">
        <ele>497.9</ele>
        <time>2017-02-17T16:41:38Z</time>
      </trkpt>
      <trkpt lat="44.19733" lon="3.2078">
        <ele>495.7</ele>
        <time>2017-02-17T16:41:39Z</time>
      </trkpt>
      <trkpt lat="44.19731" lon="3.20776">
        <ele>493.6</ele>
        <time>2017-02-17T16:41:40Z</time>
      </trkpt>
      <trkpt lat="44.19728" lon="3.20773">
        <ele>491.5</ele>
        <time>2017-02-17T16:41:41Z</time>
      </trkpt>
      <trkpt lat="44.19725" lon="3.2077">
        <ele>489.6</ele>
        <time>2017-02-17T16:41:42Z</time>
      </trkpt>
      <trkpt lat="44.19722" lon="3.20767">
        <ele>487.9</ele>
        <time>2017-02-17T16:41:43Z</time>
      </trkpt>
      <trkpt lat="44.19718" lon="3.20762">
        <ele>486.2</ele>
        <time>2017-02-17T16:41:44Z</time>
      </trkpt>
      <trkpt lat="44.19716" lon="3.20759">
        <ele>486.2</ele>
        <time>2017-02-17T16:41:45Z</time>
      </trkpt>
      <trkpt lat="44.19714" lon="3.20755">
        <ele>484.6</ele>
        <time>2017-02-17T16:41:46Z</time>
      </trkpt>
      <trkpt lat="44.19712" lon="3.20752">
        <ele>483.1</ele>
        <time>2017-02-17T16:41:47Z</time>
      </trkpt>
      <trkpt lat="44.1971" lon="3.20748">
        <ele>481.6</ele>
        <time>2017-02-17T16:41:48Z</time>
      </trkpt>
      <trkpt lat="44.19709" lon="3.20744">
        <ele>481.9</ele>
        <time>2017-02-17T16:41:49Z</time>
      </trkpt>
      <trkpt lat="44.19708" lon="3.20739">
        <ele>482.1</ele>
        <time>2017-02-17T16:41:50Z</time>
      </trkpt>
      <trkpt lat="44.19708" lon="3.20734">
        <ele>482.3</ele>
        <time>2017-02-17T16:41:51Z</time>
      </trkpt>
      <trkpt lat="44.19707" lon="3.2073">
        <ele>482.4</ele>
        <time>2017-02-17T16:41:52Z</time>
      </trkpt>
      <trkpt lat="44.19706" lon="3.20726">
        <ele>480.5</ele>
        <time>2017-02-17T16:41:53Z</time>
      </trkpt>
      <trkpt lat="44.19706" lon="3.20722">
        <ele>480.5</ele>
        <time>2017-02-17T16:41:54Z</time>
      </trkpt>
      <trkpt lat="44.19707" lon="3.20717">
        <ele>480.4</ele>
        <time>2017-02-17T16:41:55Z</time>
      </trkpt>
      <trkpt lat="44.19706" lon="3.20712">
        <ele>480.2</ele>
        <time>2017-02-17T16:41:56Z</time>
      </trkpt>
      <trkpt lat="44.19706" lon="3.20706">
        <ele>479.8</ele>
        <time>2017-02-17T16:41:57Z</time>
      </trkpt>
      <trkpt lat="44.19707" lon="3.20702">
        <ele>480.9</ele>
        <time>2017-02-17T16:41:58Z</time>
      </trkpt>
      <trkpt lat="44.19708" lon="3.20697">
        <ele>480.3</ele>
        <time>2017-02-17T16:41:59Z</time>
      </trkpt>
      <trkpt lat="44.19708" lon="3.20693">
        <ele>479.7</ele>
        <time>2017-02-17T16:42:00Z</time>
      </trkpt>
      <trkpt lat="44.19711" lon="3.20687">
        <ele>481.3</ele>
        <time>2017-02-17T16:42:02Z</time>
      </trkpt>
      <trkpt lat="44.19712" lon="3.20681">
        <ele>480.5</ele>
        <time>2017-02-17T16:42:04Z</time>
      </trkpt>
      <trkpt lat="44.19712" lon="3.20677">
        <ele>479.6</ele>
        <time>2017-02-17T16:42:05Z</time>
      </trkpt>
      <trkpt lat="44.19712" lon="3.20672">
        <ele>477.7</ele>
        <time>2017-02-17T16:42:06Z</time>
      </trkpt>
      <trkpt lat="44.19713" lon="3.20667">
        <ele>479</ele>
        <time>2017-02-17T16:42:07Z</time>
      </trkpt>
      <trkpt lat="44.19714" lon="3.20661">
        <ele>478</ele>
        <time>2017-02-17T16:42:08Z</time>
      </trkpt>
      <trkpt lat="44.19714" lon="3.20655">
        <ele>476.8</ele>
        <time>2017-02-17T16:42:09Z</time>
      </trkpt>
      <trkpt lat="44.19714" lon="3.20651">
        <ele>475.6</ele>
        <time>2017-02-17T16:42:10Z</time>
      </trkpt>
      <trkpt lat="44.19714" lon="3.20646">
        <ele>473.2</ele>
        <time>2017-02-17T16:42:11Z</time>
      </trkpt>
      <trkpt lat="44.19715" lon="3.20641">
        <ele>472.1</ele>
        <time>2017-02-17T16:42:12Z</time>
      </trkpt>
      <trkpt lat="44.19717" lon="3.20635">
        <ele>473</ele>
        <time>2017-02-17T16:42:13Z</time>
      </trkpt>
      <trkpt lat="44.19718" lon="3.2063">
        <ele>471.9</ele>
        <time>2017-02-17T16:42:14Z</time>
      </trkpt>
      <trkpt lat="44.19718" lon="3.20625">
        <ele>469.7</ele>
        <time>2017-02-17T16:42:15Z</time>
      </trkpt>
      <trkpt lat="44.19719" lon="3.2062">
        <ele>470.3</ele>
        <time>2017-02-17T16:42:16Z</time>
      </trkpt>
      <trkpt lat="44.1972" lon="3.20613">
        <ele>469.4</ele>
        <time>2017-02-17T16:42:17Z</time>
      </trkpt>
      <trkpt lat="44.19721" lon="3.20607">
        <ele>468.1</ele>
        <time>2017-02-17T16:42:18Z</time>
      </trkpt>
      <trkpt lat="44.1972" lon="3.206">
        <ele>467.4</ele>
        <time>2017-02-17T16:42:19Z</time>
      </trkpt>
      <trkpt lat="44.1972" lon="3.20594">
        <ele>466.2</ele>
        <time>2017-02-17T16:42:20Z</time>
      </trkpt>
      <trkpt lat="44.19719" lon="3.20588">
        <ele>465.7</ele>
        <time>2017-02-17T16:42:21Z</time>
      </trkpt>
      <trkpt lat="44.19719" lon="3.20581">
        <ele>463.2</ele>
        <time>2017-02-17T16:42:22Z</time>
      </trkpt>
      <trkpt lat="44.19722" lon="3.20568">
        <ele>462.6</ele>
        <time>2017-02-17T16:42:23Z</time>
      </trkpt>
      <trkpt lat="44.19723" lon="3.20557">
        <ele>462.6</ele>
        <time>2017-02-17T16:42:24Z</time>
      </trkpt>
      <trkpt lat="44.19725" lon="3.20551">
        <ele>462</ele>
        <time>2017-02-17T16:42:25Z</time>
      </trkpt>
      <trkpt lat="44.19725" lon="3.20548">
        <ele>463.4</ele>
        <time>2017-02-17T16:42:26Z</time>
      </trkpt>
      <trkpt lat="44.19726" lon="3.20542">
        <ele>463.1</ele>
        <time>2017-02-17T16:42:28Z</time>
      </trkpt>
      <trkpt lat="44.19724" lon="3.20538">
        <ele>461.6</ele>
        <time>2017-02-17T16:42:30Z</time>
      </trkpt>
      <trkpt lat="44.19721" lon="3.2054">
        <ele>460.5</ele>
        <time>2017-02-17T16:42:32Z</time>
      </trkpt>
      <trkpt lat="44.19721" lon="3.20545">
        <ele>460.7</ele>
        <time>2017-02-17T16:42:38Z</time>
      </trkpt>
      <trkpt lat="44.19719" lon="3.20549">
        <ele>461</ele>
        <time>2017-02-17T16:42:40Z</time>
      </trkpt>
      <trkpt lat="44.19718" lon="3.20546">
        <ele>459.5</ele>
        <time>2017-02-17T16:42:56Z</time>
      </trkpt>
      <trkpt lat="44.19717" lon="3.2054">
        <ele>459.3</ele>
        <time>2017-02-17T16:43:05Z</time>
      </trkpt>
      <trkpt lat="44.19717" lon="3.20533">
        <ele>459</ele>
        <time>2017-02-17T16:43:07Z</time>
      </trkpt>
      <trkpt lat="44.19716" lon="3.20529">
        <ele>457.5</ele>
        <time>2017-02-17T16:43:08Z</time>
      </trkpt>
      <trkpt lat="44.19715" lon="3.20523">
        <ele>457.5</ele>
        <time>2017-02-17T16:43:09Z</time>
      </trkpt>
      <trkpt lat="44.19714" lon="3.20518">
        <ele>457.3</ele>
        <time>2017-02-17T16:43:10Z</time>
      </trkpt>
      <trkpt lat="44.19711" lon="3.20513">
        <ele>455.2</ele>
        <time>2017-02-17T16:43:11Z</time>
      </trkpt>
      <trkpt lat="44.19708" lon="3.20506">
        <ele>453.3</ele>
        <time>2017-02-17T16:43:12Z</time>
      </trkpt>
      <trkpt lat="44.19706" lon="3.20502">
        <ele>451.4</ele>
        <time>2017-02-17T16:43:13Z</time>
      </trkpt>
      <trkpt lat="44.19703" lon="3.20498">
        <ele>449.6</ele>
        <time>2017-02-17T16:43:14Z</time>
      </trkpt>
      <trkpt lat="44.197" lon="3.20495">
        <ele>448</ele>
        <time>2017-02-17T16:43:15Z</time>
      </trkpt>
      <trkpt lat="44.19697" lon="3.20492">
        <ele>446.7</ele>
        <time>2017-02-17T16:43:17Z</time>
      </trkpt>
      <trkpt lat="44.19695" lon="3.20495">
        <ele>446.7</ele>
        <time>2017-02-17T16:43:19Z</time>
      </trkpt>
      <trkpt lat="44.19692" lon="3.20499">
        <ele>445.6</ele>
        <time>2017-02-17T16:43:22Z</time>
      </trkpt>
      <trkpt lat="44.1969" lon="3.20501">
        <ele>444.4</ele>
        <time>2017-02-17T16:43:23Z</time>
      </trkpt>
      <trkpt lat="44.19687" lon="3.20503">
        <ele>443.1</ele>
        <time>2017-02-17T16:43:24Z</time>
      </trkpt>
      <trkpt lat="44.19684" lon="3.20507">
        <ele>441.9</ele>
        <time>2017-02-17T16:43:25Z</time>
      </trkpt>
      <trkpt lat="44.19681" lon="3.20511">
        <ele>440.6</ele>
        <time>2017-02-17T16:43:26Z</time>
      </trkpt>
      <trkpt lat="44.19678" lon="3.20514">
        <ele>439.4</ele>
        <time>2017-02-17T16:43:27Z</time>
      </trkpt>
      <trkpt lat="44.19676" lon="3.20518">
        <ele>439.4</ele>
        <time>2017-02-17T16:43:28Z</time>
      </trkpt>
      <trkpt lat="44.19674" lon="3.2052">
        <ele>438.3</ele>
        <time>2017-02-17T16:43:29Z</time>
      </trkpt>
      <trkpt lat="44.1967" lon="3.2052">
        <ele>435.9</ele>
        <time>2017-02-17T16:43:31Z</time>
      </trkpt>
      <trkpt lat="44.19667" lon="3.20518">
        <ele>435.9</ele>
        <time>2017-02-17T16:43:32Z</time>
      </trkpt>
      <trkpt lat="44.19663" lon="3.20514">
        <ele>433.9</ele>
        <time>2017-02-17T16:43:33Z</time>
      </trkpt>
      <trkpt lat="44.19658" lon="3.20511">
        <ele>433.1</ele>
        <time>2017-02-17T16:43:34Z</time>
      </trkpt>
      <trkpt lat="44.19655" lon="3.2051">
        <ele>432</ele>
        <time>2017-02-17T16:43:35Z</time>
      </trkpt>
      <trkpt lat="44.19652" lon="3.20508">
        <ele>431.2</ele>
        <time>2017-02-17T16:43:36Z</time>
      </trkpt>
      <trkpt lat="44.19648" lon="3.20507">
        <ele>429.3</ele>
        <time>2017-02-17T16:43:37Z</time>
      </trkpt>
      <trkpt lat="44.19642" lon="3.20506">
        <ele>429.2</ele>
        <time>2017-02-17T16:43:38Z</time>
      </trkpt>
      <trkpt lat="44.19638" lon="3.20506">
        <ele>429</ele>
        <time>2017-02-17T16:43:39Z</time>
      </trkpt>
      <trkpt lat="44.19632" lon="3.20505">
        <ele>428.9</ele>
        <time>2017-02-17T16:43:41Z</time>
      </trkpt>
      <trkpt lat="44.19629" lon="3.20502">
        <ele>428.7</ele>
        <time>2017-02-17T16:43:43Z</time>
      </trkpt>
      <trkpt lat="44.19629" lon="3.20496">
        <ele>428.5</ele>
        <time>2017-02-17T16:43:50Z</time>
      </trkpt>
      <trkpt lat="44.19626" lon="3.20493">
        <ele>428.4</ele>
        <time>2017-02-17T16:43:55Z</time>
      </trkpt>
      <trkpt lat="44.19624" lon="3.2049">
        <ele>428.2</ele>
        <time>2017-02-17T16:43:59Z</time>
      </trkpt>
      <trkpt lat="44.19624" lon="3.20486">
        <ele>428.1</ele>
        <time>2017-02-17T16:44:20Z</time>
      </trkpt>
      <trkpt lat="44.19623" lon="3.20482">
        <ele>428</ele>
        <time>2017-02-17T16:44:24Z</time>
      </trkpt>
      <trkpt lat="44.19623" lon="3.20478">
        <ele>428</ele>
        <time>2017-02-17T16:44:26Z</time>
      </trkpt>
      <trkpt lat="44.19621" lon="3.20473">
        <ele>428</ele>
        <time>2017-02-17T16:44:29Z</time>
      </trkpt>
      <trkpt lat="44.19621" lon="3.20468">
        <ele>427.9</ele>
        <time>2017-02-17T16:44:31Z</time>
      </trkpt>
      <trkpt lat="44.1962" lon="3.20464">
        <ele>427.8</ele>
        <time>2017-02-17T16:44:33Z</time>
      </trkpt>
      <trkpt lat="44.19619" lon="3.20459">
        <ele>427.7</ele>
        <time>2017-02-17T16:44:35Z</time>
      </trkpt>
      <trkpt lat="44.19617" lon="3.20456">
        <ele>427.8</ele>
        <time>2017-02-17T16:44:37Z</time>
      </trkpt>
      <trkpt lat="44.19616" lon="3.2046">
        <ele>427.7</ele>
        <time>2017-02-17T16:44:39Z</time>
      </trkpt>
      <trkpt lat="44.19618" lon="3.20465">
        <ele>427.8</ele>
        <time>2017-02-17T16:44:41Z</time>
      </trkpt>
      <trkpt lat="44.1962" lon="3.20468">
        <ele>427.9</ele>
        <time>2017-02-17T16:44:43Z</time>
      </trkpt>
      <trkpt lat="44.19621" lon="3.20474">
        <ele>428</ele>
        <time>2017-02-17T16:44:45Z</time>
      </trkpt>
      <trkpt lat="44.1962" lon="3.2048">
        <ele>428</ele>
        <time>2017-02-17T16:44:47Z</time>
      </trkpt>
      <trkpt lat="44.19618" lon="3.20483">
        <ele>427.3</ele>
        <time>2017-02-17T16:44:48Z</time>
      </trkpt>
      <trkpt lat="44.19614" lon="3.20486">
        <ele>426.2</ele>
        <time>2017-02-17T16:44:49Z</time>
      </trkpt>
      <trkpt lat="44.19612" lon="3.20488">
        <ele>425.1</ele>
        <time>2017-02-17T16:44:50Z</time>
      </trkpt>
      <trkpt lat="44.19607" lon="3.20489">
        <ele>423.4</ele>
        <time>2017-02-17T16:44:52Z</time>
      </trkpt>
      <trkpt lat="44.19604" lon="3.20489">
        <ele>422.6</ele>
        <time>2017-02-17T16:44:53Z</time>
      </trkpt>
      <trkpt lat="44.196" lon="3.20489">
        <ele>421.6</ele>
        <time>2017-02-17T16:44:54Z</time>
      </trkpt>
      <trkpt lat="44.19595" lon="3.20488">
        <ele>420.3</ele>
        <time>2017-02-17T16:44:55Z</time>
      </trkpt>
      <trkpt lat="44.19591" lon="3.2049">
        <ele>419.3</ele>
        <time>2017-02-17T16:44:56Z</time>
      </trkpt>
      <trkpt lat="44.19587" lon="3.20492">
        <ele>418.3</ele>
        <time>2017-02-17T16:44:57Z</time>
      </trkpt>
      <trkpt lat="44.19584" lon="3.20495">
        <ele>417.8</ele>
        <time>2017-02-17T16:44:58Z</time>
      </trkpt>
      <trkpt lat="44.1958" lon="3.20497">
        <ele>417.2</ele>
        <time>2017-02-17T16:44:59Z</time>
      </trkpt>
      <trkpt lat="44.19577" lon="3.205">
        <ele>416.6</ele>
        <time>2017-02-17T16:45:00Z</time>
      </trkpt>
      <trkpt lat="44.19573" lon="3.20503">
        <ele>416.1</ele>
        <time>2017-02-17T16:45:01Z</time>
      </trkpt>
      <trkpt lat="44.1957" lon="3.20507">
        <ele>415.5</ele>
        <time>2017-02-17T16:45:02Z</time>
      </trkpt>
      <trkpt lat="44.19566" lon="3.2051">
        <ele>415.4</ele>
        <time>2017-02-17T16:45:03Z</time>
      </trkpt>
      <trkpt lat="44.19563" lon="3.20511">
        <ele>414.9</ele>
        <time>2017-02-17T16:45:04Z</time>
      </trkpt>
      <trkpt lat="44.19559" lon="3.20512">
        <ele>414.2</ele>
        <time>2017-02-17T16:45:05Z</time>
      </trkpt>
      <trkpt lat="44.19557" lon="3.20514">
        <ele>413.5</ele>
        <time>2017-02-17T16:45:06Z</time>
      </trkpt>
      <trkpt lat="44.19553" lon="3.20516">
        <ele>412.6</ele>
        <time>2017-02-17T16:45:07Z</time>
      </trkpt>
      <trkpt lat="44.1955" lon="3.20517">
        <ele>411.8</ele>
        <time>2017-02-17T16:45:08Z</time>
      </trkpt>
      <trkpt lat="44.19546" lon="3.20517">
        <ele>411.1</ele>
        <time>2017-02-17T16:45:09Z</time>
      </trkpt>
      <trkpt lat="44.19543" lon="3.20516">
        <ele>410.2</ele>
        <time>2017-02-17T16:45:10Z</time>
      </trkpt>
      <trkpt lat="44.19539" lon="3.20514">
        <ele>408.8</ele>
        <time>2017-02-17T16:45:11Z</time>
      </trkpt>
      <trkpt lat="44.19535" lon="3.20514">
        <ele>407.5</ele>
        <time>2017-02-17T16:45:12Z</time>
      </trkpt>
      <trkpt lat="44.19531" lon="3.20512">
        <ele>406.2</ele>
        <time>2017-02-17T16:45:14Z</time>
      </trkpt>
      <trkpt lat="44.19528" lon="3.20513">
        <ele>405.1</ele>
        <time>2017-02-17T16:45:16Z</time>
      </trkpt>
      <trkpt lat="44.19523" lon="3.20512">
        <ele>404.5</ele>
        <time>2017-02-17T16:45:18Z</time>
      </trkpt>
      <trkpt lat="44.19521" lon="3.2051">
        <ele>404</ele>
        <time>2017-02-17T16:45:19Z</time>
      </trkpt>
      <trkpt lat="44.19518" lon="3.20508">
        <ele>403.3</ele>
        <time>2017-02-17T16:45:20Z</time>
      </trkpt>
      <trkpt lat="44.19515" lon="3.20505">
        <ele>402.4</ele>
        <time>2017-02-17T16:45:21Z</time>
      </trkpt>
      <trkpt lat="44.19513" lon="3.20502">
        <ele>401.5</ele>
        <time>2017-02-17T16:45:22Z</time>
      </trkpt>
      <trkpt lat="44.1951" lon="3.20499">
        <ele>400.5</ele>
        <time>2017-02-17T16:45:23Z</time>
      </trkpt>
      <trkpt lat="44.19506" lon="3.20495">
        <ele>399.7</ele>
        <time>2017-02-17T16:45:24Z</time>
      </trkpt>
      <trkpt lat="44.19502" lon="3.20491">
        <ele>398.9</ele>
        <time>2017-02-17T16:45:25Z</time>
      </trkpt>
      <trkpt lat="44.19498" lon="3.20488">
        <ele>398.4</ele>
        <time>2017-02-17T16:45:26Z</time>
      </trkpt>
      <trkpt lat="44.19492" lon="3.20485">
        <ele>397.6</ele>
        <time>2017-02-17T16:45:27Z</time>
      </trkpt>
      <trkpt lat="44.19487" lon="3.20483">
        <ele>396.6</ele>
        <time>2017-02-17T16:45:28Z</time>
      </trkpt>
      <trkpt lat="44.19482" lon="3.20481">
        <ele>396.1</ele>
        <time>2017-02-17T16:45:29Z</time>
      </trkpt>
      <trkpt lat="44.19476" lon="3.20479">
        <ele>395.4</ele>
        <time>2017-02-17T16:45:30Z</time>
      </trkpt>
      <trkpt lat="44.19471" lon="3.20477">
        <ele>394.4</ele>
        <time>2017-02-17T16:45:31Z</time>
      </trkpt>
      <trkpt lat="44.19466" lon="3.20475">
        <ele>393.4</ele>
        <time>2017-02-17T16:45:32Z</time>
      </trkpt>
      <trkpt lat="44.19462" lon="3.20473">
        <ele>392.8</ele>
        <time>2017-02-17T16:45:33Z</time>
      </trkpt>
      <trkpt lat="44.19459" lon="3.20471">
        <ele>392.4</ele>
        <time>2017-02-17T16:45:34Z</time>
      </trkpt>
      <trkpt lat="44.19455" lon="3.20471">
        <ele>391.9</ele>
        <time>2017-02-17T16:45:36Z</time>
      </trkpt>
      <trkpt lat="44.19453" lon="3.20473">
        <ele>391.3</ele>
        <time>2017-02-17T16:45:38Z</time>
      </trkpt>
      <trkpt lat="44.19451" lon="3.20477">
        <ele>391</ele>
        <time>2017-02-17T16:45:39Z</time>
      </trkpt>
      <trkpt lat="44.19451" lon="3.20481">
        <ele>391</ele>
        <time>2017-02-17T16:45:40Z</time>
      </trkpt>
      <trkpt lat="44.1945" lon="3.20485">
        <ele>391</ele>
        <time>2017-02-17T16:45:41Z</time>
      </trkpt>
      <trkpt lat="44.19449" lon="3.20489">
        <ele>391</ele>
        <time>2017-02-17T16:45:42Z</time>
      </trkpt>
      <trkpt lat="44.19448" lon="3.20496">
        <ele>391.1</ele>
        <time>2017-02-17T16:45:44Z</time>
      </trkpt>
      <trkpt lat="44.19447" lon="3.20503">
        <ele>391.1</ele>
        <time>2017-02-17T16:45:46Z</time>
      </trkpt>
      <trkpt lat="44.19447" lon="3.20508">
        <ele>391.1</ele>
        <time>2017-02-17T16:45:48Z</time>
      </trkpt>
      <trkpt lat="44.19447" lon="3.20514">
        <ele>391.1</ele>
        <time>2017-02-17T16:45:50Z</time>
      </trkpt>
      <trkpt lat="44.19448" lon="3.2052">
        <ele>391.2</ele>
        <time>2017-02-17T16:45:52Z</time>
      </trkpt>
      <trkpt lat="44.19448" lon="3.20527">
        <ele>391.2</ele>
        <time>2017-02-17T16:45:54Z</time>
      </trkpt>
      <trkpt lat="44.19449" lon="3.20531">
        <ele>391.2</ele>
        <time>2017-02-17T16:45:55Z</time>
      </trkpt>
      <trkpt lat="44.1945" lon="3.20537">
        <ele>391.2</ele>
        <time>2017-02-17T16:45:56Z</time>
      </trkpt>
      <trkpt lat="44.19452" lon="3.20543">
        <ele>391.2</ele>
        <time>2017-02-17T16:45:57Z</time>
      </trkpt>
      <trkpt lat="44.19453" lon="3.2055">
        <ele>391.3</ele>
        <time>2017-02-17T16:45:58Z</time>
      </trkpt>
      <trkpt lat="44.19454" lon="3.20557">
        <ele>391.3</ele>
        <time>2017-02-17T16:45:59Z</time>
      </trkpt>
      <trkpt lat="44.19454" lon="3.20564">
        <ele>391.3</ele>
        <time>2017-02-17T16:46:00Z</time>
      </trkpt>
      <trkpt lat="44.19456" lon="3.20571">
        <ele>391.3</ele>
        <time>2017-02-17T16:46:01Z</time>
      </trkpt>
      <trkpt lat="44.19456" lon="3.20578">
        <ele>391.4</ele>
        <time>2017-02-17T16:46:02Z</time>
      </trkpt>
      <trkpt lat="44.19456" lon="3.20584">
        <ele>391.4</ele>
        <time>2017-02-17T16:46:03Z</time>
      </trkpt>
      <trkpt lat="44.19456" lon="3.20589">
        <ele>391.4</ele>
        <time>2017-02-17T16:46:04Z</time>
      </trkpt>
      <trkpt lat="44.19456" lon="3.20595">
        <ele>391.4</ele>
        <time>2017-02-17T16:46:05Z</time>
      </trkpt>
      <trkpt lat="44.19455" lon="3.20601">
        <ele>391.5</ele>
        <time>2017-02-17T16:46:06Z</time>
      </trkpt>
      <trkpt lat="44.19455" lon="3.20607">
        <ele>391.5</ele>
        <time>2017-02-17T16:46:07Z</time>
      </trkpt>
      <trkpt lat="44.19454" lon="3.20613">
        <ele>391.5</ele>
        <time>2017-02-17T16:46:08Z</time>
      </trkpt>
      <trkpt lat="44.19453" lon="3.2062">
        <ele>391.6</ele>
        <time>2017-02-17T16:46:09Z</time>
      </trkpt>
      <trkpt lat="44.19452" lon="3.20627">
        <ele>391.7</ele>
        <time>2017-02-17T16:46:10Z</time>
      </trkpt>
      <trkpt lat="44.19451" lon="3.20634">
        <ele>391.7</ele>
        <time>2017-02-17T16:46:11Z</time>
      </trkpt>
      <trkpt lat="44.1945" lon="3.2064">
        <ele>391.8</ele>
        <time>2017-02-17T16:46:12Z</time>
      </trkpt>
      <trkpt lat="44.19449" lon="3.20646">
        <ele>391.8</ele>
        <time>2017-02-17T16:46:13Z</time>
      </trkpt>
      <trkpt lat="44.19448" lon="3.20652">
        <ele>391.8</ele>
        <time>2017-02-17T16:46:14Z</time>
      </trkpt>
      <trkpt lat="44.19447" lon="3.20658">
        <ele>391.9</ele>
        <time>2017-02-17T16:46:15Z</time>
      </trkpt>
      <trkpt lat="44.19447" lon="3.20663">
        <ele>391.9</ele>
        <time>2017-02-17T16:46:16Z</time>
      </trkpt>
      <trkpt lat="44.19446" lon="3.20668">
        <ele>391.9</ele>
        <time>2017-02-17T16:46:17Z</time>
      </trkpt>
      <trkpt lat="44.19445" lon="3.20674">
        <ele>391.9</ele>
        <time>2017-02-17T16:46:18Z</time>
      </trkpt>
      <trkpt lat="44.19444" lon="3.20679">
        <ele>392</ele>
        <time>2017-02-17T16:46:19Z</time>
      </trkpt>
      <trkpt lat="44.19444" lon="3.20685">
        <ele>392.1</ele>
        <time>2017-02-17T16:46:20Z</time>
      </trkpt>
      <trkpt lat="44.19444" lon="3.20691">
        <ele>392.3</ele>
        <time>2017-02-17T16:46:21Z</time>
      </trkpt>
      <trkpt lat="44.19445" lon="3.20696">
        <ele>392.4</ele>
        <time>2017-02-17T16:46:22Z</time>
      </trkpt>
      <trkpt lat="44.19445" lon="3.20703">
        <ele>392.7</ele>
        <time>2017-02-17T16:46:23Z</time>
      </trkpt>
      <trkpt lat="44.19445" lon="3.20708">
        <ele>392.9</ele>
        <time>2017-02-17T16:46:24Z</time>
      </trkpt>
      <trkpt lat="44.19446" lon="3.20714">
        <ele>393.1</ele>
        <time>2017-02-17T16:46:25Z</time>
      </trkpt>
      <trkpt lat="44.19446" lon="3.2072">
        <ele>393.3</ele>
        <time>2017-02-17T16:46:26Z</time>
      </trkpt>
      <trkpt lat="44.19446" lon="3.20726">
        <ele>393.4</ele>
        <time>2017-02-17T16:46:27Z</time>
      </trkpt>
      <trkpt lat="44.19446" lon="3.20731">
        <ele>393.6</ele>
        <time>2017-02-17T16:46:28Z</time>
      </trkpt>
      <trkpt lat="44.19446" lon="3.20736">
        <ele>393.8</ele>
        <time>2017-02-17T16:46:29Z</time>
      </trkpt>
      <trkpt lat="44.19447" lon="3.20741">
        <ele>394</ele>
        <time>2017-02-17T16:46:30Z</time>
      </trkpt>
      <trkpt lat="44.19447" lon="3.20748">
        <ele>394.4</ele>
        <time>2017-02-17T16:46:31Z</time>
      </trkpt>
      <trkpt lat="44.19445" lon="3.20754">
        <ele>395</ele>
        <time>2017-02-17T16:46:32Z</time>
      </trkpt>
      <trkpt lat="44.19444" lon="3.2076">
        <ele>395</ele>
        <time>2017-02-17T16:46:33Z</time>
      </trkpt>
      <trkpt lat="44.19442" lon="3.20766">
        <ele>395</ele>
        <time>2017-02-17T16:46:34Z</time>
      </trkpt>
      <trkpt lat="44.19441" lon="3.2077">
        <ele>395</ele>
        <time>2017-02-17T16:46:35Z</time>
      </trkpt>
      <trkpt lat="44.1944" lon="3.20775">
        <ele>395.1</ele>
        <time>2017-02-17T16:46:36Z</time>
      </trkpt>
      <trkpt lat="44.19438" lon="3.2078">
        <ele>395.1</ele>
        <time>2017-02-17T16:46:37Z</time>
      </trkpt>
      <trkpt lat="44.19436" lon="3.20783">
        <ele>395</ele>
        <time>2017-02-17T16:46:38Z</time>
      </trkpt>
      <trkpt lat="44.19434" lon="3.20786">
        <ele>395</ele>
        <time>2017-02-17T16:46:39Z</time>
      </trkpt>
      <trkpt lat="44.19432" lon="3.2079">
        <ele>395</ele>
        <time>2017-02-17T16:46:40Z</time>
      </trkpt>
      <trkpt lat="44.1943" lon="3.20793">
        <ele>395</ele>
        <time>2017-02-17T16:46:41Z</time>
      </trkpt>
      <trkpt lat="44.19426" lon="3.208">
        <ele>395</ele>
        <time>2017-02-17T16:46:43Z</time>
      </trkpt>
      <trkpt lat="44.19423" lon="3.20801">
        <ele>395</ele>
        <time>2017-02-17T16:46:44Z</time>
      </trkpt>
      <trkpt lat="44.19419" lon="3.20803">
        <ele>395</ele>
        <time>2017-02-17T16:46:45Z</time>
      </trkpt>
      <trkpt lat="44.19416" lon="3.20806">
        <ele>395</ele>
        <time>2017-02-17T16:46:46Z</time>
      </trkpt>
      <trkpt lat="44.19412" lon="3.20808">
        <ele>395.3</ele>
        <time>2017-02-17T16:46:47Z</time>
      </trkpt>
      <trkpt lat="44.19408" lon="3.20811">
        <ele>395.5</ele>
        <time>2017-02-17T16:46:48Z</time>
      </trkpt>
      <trkpt lat="44.19405" lon="3.20813">
        <ele>395.8</ele>
        <time>2017-02-17T16:46:49Z</time>
      </trkpt>
      <trkpt lat="44.19402" lon="3.20816">
        <ele>396</ele>
        <time>2017-02-17T16:46:50Z</time>
      </trkpt>
      <trkpt lat="44.19398" lon="3.20818">
        <ele>396.3</ele>
        <time>2017-02-17T16:46:51Z</time>
      </trkpt>
      <trkpt lat="44.19395" lon="3.20821">
        <ele>396.5</ele>
        <time>2017-02-17T16:46:52Z</time>
      </trkpt>
      <trkpt lat="44.19392" lon="3.20823">
        <ele>397</ele>
        <time>2017-02-17T16:46:53Z</time>
      </trkpt>
      <trkpt lat="44.19389" lon="3.20825">
        <ele>397.5</ele>
        <time>2017-02-17T16:46:54Z</time>
      </trkpt>
      <trkpt lat="44.19386" lon="3.20827">
        <ele>397.9</ele>
        <time>2017-02-17T16:46:55Z</time>
      </trkpt>
      <trkpt lat="44.19382" lon="3.20829">
        <ele>398.2</ele>
        <time>2017-02-17T16:46:56Z</time>
      </trkpt>
      <trkpt lat="44.19378" lon="3.20831">
        <ele>398.7</ele>
        <time>2017-02-17T16:46:57Z</time>
      </trkpt>
      <trkpt lat="44.19374" lon="3.20833">
        <ele>399.1</ele>
        <time>2017-02-17T16:46:58Z</time>
      </trkpt>
      <trkpt lat="44.19371" lon="3.20835">
        <ele>399.5</ele>
        <time>2017-02-17T16:46:59Z</time>
      </trkpt>
      <trkpt lat="44.19367" lon="3.20837">
        <ele>400.8</ele>
        <time>2017-02-17T16:47:00Z</time>
      </trkpt>
      <trkpt lat="44.19364" lon="3.20838">
        <ele>402.1</ele>
        <time>2017-02-17T16:47:01Z</time>
      </trkpt>
      <trkpt lat="44.19361" lon="3.2084">
        <ele>403</ele>
        <time>2017-02-17T16:47:02Z</time>
      </trkpt>
      <trkpt lat="44.19357" lon="3.20842">
        <ele>403.5</ele>
        <time>2017-02-17T16:47:03Z</time>
      </trkpt>
      <trkpt lat="44.19354" lon="3.20844">
        <ele>404</ele>
        <time>2017-02-17T16:47:04Z</time>
      </trkpt>
      <trkpt lat="44.19351" lon="3.20846">
        <ele>404.4</ele>
        <time>2017-02-17T16:47:05Z</time>
      </trkpt>
      <trkpt lat="44.19348" lon="3.20847">
        <ele>404.8</ele>
        <time>2017-02-17T16:47:06Z</time>
      </trkpt>
      <trkpt lat="44.19345" lon="3.20849">
        <ele>405.2</ele>
        <time>2017-02-17T16:47:07Z</time>
      </trkpt>
      <trkpt lat="44.19342" lon="3.2085">
        <ele>405.6</ele>
        <time>2017-02-17T16:47:08Z</time>
      </trkpt>
      <trkpt lat="44.19338" lon="3.20851">
        <ele>406</ele>
        <time>2017-02-17T16:47:09Z</time>
      </trkpt>
      <trkpt lat="44.19332" lon="3.20849">
        <ele>418.3</ele>
        <time>2017-02-17T16:47:11Z</time>
      </trkpt>
      <trkpt lat="44.19328" lon="3.20846">
        <ele>427.3</ele>
        <time>2017-02-17T16:47:12Z</time>
      </trkpt>
      <trkpt lat="44.19324" lon="3.20844">
        <ele>426.1</ele>
        <time>2017-02-17T16:47:13Z</time>
      </trkpt>
      <trkpt lat="44.19321" lon="3.20842">
        <ele>423.7</ele>
        <time>2017-02-17T16:47:14Z</time>
      </trkpt>
      <trkpt lat="44.19318" lon="3.20838">
        <ele>421.8</ele>
        <time>2017-02-17T16:47:15Z</time>
      </trkpt>
      <trkpt lat="44.19315" lon="3.20834">
        <ele>420.5</ele>
        <time>2017-02-17T16:47:16Z</time>
      </trkpt>
      <trkpt lat="44.19313" lon="3.2083">
        <ele>419.2</ele>
        <time>2017-02-17T16:47:17Z</time>
      </trkpt>
      <trkpt lat="44.1931" lon="3.20825">
        <ele>417.7</ele>
        <time>2017-02-17T16:47:18Z</time>
      </trkpt>
      <trkpt lat="44.19308" lon="3.20819">
        <ele>416.1</ele>
        <time>2017-02-17T16:47:19Z</time>
      </trkpt>
      <trkpt lat="44.19305" lon="3.20813">
        <ele>414.4</ele>
        <time>2017-02-17T16:47:20Z</time>
      </trkpt>
      <trkpt lat="44.19302" lon="3.20809">
        <ele>413</ele>
        <time>2017-02-17T16:47:21Z</time>
      </trkpt>
      <trkpt lat="44.193" lon="3.20804">
        <ele>411.7</ele>
        <time>2017-02-17T16:47:22Z</time>
      </trkpt>
      <trkpt lat="44.19298" lon="3.208">
        <ele>410.7</ele>
        <time>2017-02-17T16:47:23Z</time>
      </trkpt>
      <trkpt lat="44.19297" lon="3.20796">
        <ele>409.6</ele>
        <time>2017-02-17T16:47:24Z</time>
      </trkpt>
      <trkpt lat="44.19296" lon="3.20793">
        <ele>409</ele>
        <time>2017-02-17T16:47:25Z</time>
      </trkpt>
      <trkpt lat="44.19293" lon="3.20787">
        <ele>408.8</ele>
        <time>2017-02-17T16:47:27Z</time>
      </trkpt>
      <trkpt lat="44.19291" lon="3.20783">
        <ele>408.6</ele>
        <time>2017-02-17T16:47:28Z</time>
      </trkpt>
      <trkpt lat="44.19289" lon="3.20778">
        <ele>408.5</ele>
        <time>2017-02-17T16:47:29Z</time>
      </trkpt>
      <trkpt lat="44.19287" lon="3.20775">
        <ele>408.3</ele>
        <time>2017-02-17T16:47:30Z</time>
      </trkpt>
      <trkpt lat="44.19285" lon="3.20772">
        <ele>408.2</ele>
        <time>2017-02-17T16:47:31Z</time>
      </trkpt>
      <trkpt lat="44.19283" lon="3.20769">
        <ele>408.1</ele>
        <time>2017-02-17T16:47:32Z</time>
      </trkpt>
      <trkpt lat="44.19279" lon="3.20765">
        <ele>407.8</ele>
        <time>2017-02-17T16:47:34Z</time>
      </trkpt>
      <trkpt lat="44.19277" lon="3.20763">
        <ele>407.7</ele>
        <time>2017-02-17T16:47:35Z</time>
      </trkpt>
      <trkpt lat="44.19274" lon="3.2076">
        <ele>407.5</ele>
        <time>2017-02-17T16:47:36Z</time>
      </trkpt>
      <trkpt lat="44.1927" lon="3.20759">
        <ele>407.4</ele>
        <time>2017-02-17T16:47:37Z</time>
      </trkpt>
      <trkpt lat="44.19267" lon="3.20757">
        <ele>407.2</ele>
        <time>2017-02-17T16:47:38Z</time>
      </trkpt>
      <trkpt lat="44.19263" lon="3.20754">
        <ele>406.9</ele>
        <time>2017-02-17T16:47:39Z</time>
      </trkpt>
      <trkpt lat="44.1926" lon="3.2075">
        <ele>406.8</ele>
        <time>2017-02-17T16:47:40Z</time>
      </trkpt>
      <trkpt lat="44.19256" lon="3.20744">
        <ele>406.7</ele>
        <time>2017-02-17T16:47:41Z</time>
      </trkpt>
      <trkpt lat="44.19253" lon="3.20739">
        <ele>406.5</ele>
        <time>2017-02-17T16:47:42Z</time>
      </trkpt>
      <trkpt lat="44.19249" lon="3.20735">
        <ele>406.4</ele>
        <time>2017-02-17T16:47:43Z</time>
      </trkpt>
      <trkpt lat="44.19246" lon="3.20731">
        <ele>406.3</ele>
        <time>2017-02-17T16:47:44Z</time>
      </trkpt>
      <trkpt lat="44.19243" lon="3.20727">
        <ele>406.2</ele>
        <time>2017-02-17T16:47:45Z</time>
      </trkpt>
      <trkpt lat="44.19239" lon="3.20723">
        <ele>406.1</ele>
        <time>2017-02-17T16:47:46Z</time>
      </trkpt>
      <trkpt lat="44.19235" lon="3.20719">
        <ele>405.8</ele>
        <time>2017-02-17T16:47:47Z</time>
      </trkpt>
      <trkpt lat="44.19231" lon="3.20715">
        <ele>405.6</ele>
        <time>2017-02-17T16:47:48Z</time>
      </trkpt>
      <trkpt lat="44.19229" lon="3.20711">
        <ele>405.4</ele>
        <time>2017-02-17T16:47:49Z</time>
      </trkpt>
      <trkpt lat="44.19226" lon="3.20706">
        <ele>405.1</ele>
        <time>2017-02-17T16:47:50Z</time>
      </trkpt>
      <trkpt lat="44.19224" lon="3.20702">
        <ele>404.8</ele>
        <time>2017-02-17T16:47:51Z</time>
      </trkpt>
      <trkpt lat="44.19221" lon="3.20697">
        <ele>404.6</ele>
        <time>2017-02-17T16:47:52Z</time>
      </trkpt>
      <trkpt lat="44.19219" lon="3.20692">
        <ele>404.3</ele>
        <time>2017-02-17T16:47:53Z</time>
      </trkpt>
      <trkpt lat="44.19217" lon="3.20688">
        <ele>404.2</ele>
        <time>2017-02-17T16:47:54Z</time>
      </trkpt>
      <trkpt lat="44.19215" lon="3.20683">
        <ele>404</ele>
        <time>2017-02-17T16:47:55Z</time>
      </trkpt>
      <trkpt lat="44.19212" lon="3.20678">
        <ele>403.7</ele>
        <time>2017-02-17T16:47:56Z</time>
      </trkpt>
      <trkpt lat="44.1921" lon="3.20673">
        <ele>403.5</ele>
        <time>2017-02-17T16:47:57Z</time>
      </trkpt>
      <trkpt lat="44.19208" lon="3.20669">
        <ele>403.4</ele>
        <time>2017-02-17T16:47:58Z</time>
      </trkpt>
      <trkpt lat="44.19205" lon="3.20666">
        <ele>403.2</ele>
        <time>2017-02-17T16:47:59Z</time>
      </trkpt>
      <trkpt lat="44.19202" lon="3.20663">
        <ele>403</ele>
        <time>2017-02-17T16:48:00Z</time>
      </trkpt>
      <trkpt lat="44.192" lon="3.20659">
        <ele>402.8</ele>
        <time>2017-02-17T16:48:01Z</time>
      </trkpt>
      <trkpt lat="44.19198" lon="3.20655">
        <ele>402.7</ele>
        <time>2017-02-17T16:48:02Z</time>
      </trkpt>
      <trkpt lat="44.19197" lon="3.20651">
        <ele>402.5</ele>
        <time>2017-02-17T16:48:03Z</time>
      </trkpt>
      <trkpt lat="44.19195" lon="3.20647">
        <ele>402.2</ele>
        <time>2017-02-17T16:48:06Z</time>
      </trkpt>
      <trkpt lat="44.19198" lon="3.20644">
        <ele>401.9</ele>
        <time>2017-02-17T16:48:12Z</time>
      </trkpt>
      <trkpt lat="44.19201" lon="3.20645">
        <ele>401.6</ele>
        <time>2017-02-17T16:48:37Z</time>
      </trkpt>
    </trkseg>
  </trk>
  <trk>
    <name><![CDATA[Trace 4]]></name>
    <desc><![CDATA[Larzac: buissières, pied, hameau troglodyte, arche...]]></desc>
    <extensions>
      <line xmlns="http://www.topografix.com/GPX/gpx_style/0/2">
        <color>ff00ff</color>
        <width>4</width>
          <extensions>
            <sens>1</sens>
          </extensions>
      </line>
    </extensions>
    <trkseg>
      <trkpt lat="44.07211" lon="3.06413">
        <ele>725.4</ele>
        <time>2019-05-31T08:50:47Z</time>
      </trkpt>
      <trkpt lat="44.07213" lon="3.06412">
        <ele>725.4</ele>
        <time>2019-05-31T08:51:08Z</time>
      </trkpt>
      <trkpt lat="44.07213" lon="3.06416">
        <ele>725.4</ele>
        <time>2019-05-31T08:52:41Z</time>
      </trkpt>
      <trkpt lat="44.07213" lon="3.06423">
        <ele>725.4</ele>
        <time>2019-05-31T08:52:43Z</time>
      </trkpt>
      <trkpt lat="44.07215" lon="3.06426">
        <ele>725.3</ele>
        <time>2019-05-31T08:52:45Z</time>
      </trkpt>
      <trkpt lat="44.07218" lon="3.0643">
        <ele>725.3</ele>
        <time>2019-05-31T08:52:48Z</time>
      </trkpt>
      <trkpt lat="44.0722" lon="3.06433">
        <ele>725.3</ele>
        <time>2019-05-31T08:52:50Z</time>
      </trkpt>
      <trkpt lat="44.07223" lon="3.06438">
        <ele>725</ele>
        <time>2019-05-31T08:52:52Z</time>
      </trkpt>
      <trkpt lat="44.07226" lon="3.06444">
        <ele>724.6</ele>
        <time>2019-05-31T08:52:54Z</time>
      </trkpt>
      <trkpt lat="44.07228" lon="3.06447">
        <ele>724.4</ele>
        <time>2019-05-31T08:52:55Z</time>
      </trkpt>
      <trkpt lat="44.0723" lon="3.0645">
        <ele>724.2</ele>
        <time>2019-05-31T08:52:56Z</time>
      </trkpt>
      <trkpt lat="44.07232" lon="3.06453">
        <ele>724</ele>
        <time>2019-05-31T08:52:57Z</time>
      </trkpt>
      <trkpt lat="44.07234" lon="3.06456">
        <ele>723.8</ele>
        <time>2019-05-31T08:52:58Z</time>
      </trkpt>
      <trkpt lat="44.07236" lon="3.06459">
        <ele>723.5</ele>
        <time>2019-05-31T08:52:59Z</time>
      </trkpt>
      <trkpt lat="44.07238" lon="3.06462">
        <ele>723.3</ele>
        <time>2019-05-31T08:53:00Z</time>
      </trkpt>
      <trkpt lat="44.0724" lon="3.06464">
        <ele>723</ele>
        <time>2019-05-31T08:53:01Z</time>
      </trkpt>
      <trkpt lat="44.07242" lon="3.06467">
        <ele>722.8</ele>
        <time>2019-05-31T08:53:02Z</time>
      </trkpt>
      <trkpt lat="44.07245" lon="3.06469">
        <ele>722.4</ele>
        <time>2019-05-31T08:53:03Z</time>
      </trkpt>
      <trkpt lat="44.07247" lon="3.06472">
        <ele>722.1</ele>
        <time>2019-05-31T08:53:04Z</time>
      </trkpt>
      <trkpt lat="44.0725" lon="3.06475">
        <ele>721.7</ele>
        <time>2019-05-31T08:53:05Z</time>
      </trkpt>
      <trkpt lat="44.07254" lon="3.06477">
        <ele>721.2</ele>
        <time>2019-05-31T08:53:06Z</time>
      </trkpt>
      <trkpt lat="44.07257" lon="3.0648">
        <ele>720.8</ele>
        <time>2019-05-31T08:53:07Z</time>
      </trkpt>
      <trkpt lat="44.0726" lon="3.06483">
        <ele>720.3</ele>
        <time>2019-05-31T08:53:08Z</time>
      </trkpt>
      <trkpt lat="44.07263" lon="3.06486">
        <ele>719.8</ele>
        <time>2019-05-31T08:53:09Z</time>
      </trkpt>
      <trkpt lat="44.07266" lon="3.06489">
        <ele>719.3</ele>
        <time>2019-05-31T08:53:10Z</time>
      </trkpt>
      <trkpt lat="44.07269" lon="3.06493">
        <ele>718.8</ele>
        <time>2019-05-31T08:53:11Z</time>
      </trkpt>
      <trkpt lat="44.07272" lon="3.06498">
        <ele>718.4</ele>
        <time>2019-05-31T08:53:12Z</time>
      </trkpt>
      <trkpt lat="44.07275" lon="3.06504">
        <ele>718</ele>
        <time>2019-05-31T08:53:13Z</time>
      </trkpt>
      <trkpt lat="44.07279" lon="3.0651">
        <ele>717.6</ele>
        <time>2019-05-31T08:53:14Z</time>
      </trkpt>
      <trkpt lat="44.07283" lon="3.06515">
        <ele>717.2</ele>
        <time>2019-05-31T08:53:15Z</time>
      </trkpt>
      <trkpt lat="44.07288" lon="3.0652">
        <ele>716.9</ele>
        <time>2019-05-31T08:53:16Z</time>
      </trkpt>
      <trkpt lat="44.07292" lon="3.06526">
        <ele>716.6</ele>
        <time>2019-05-31T08:53:17Z</time>
      </trkpt>
      <trkpt lat="44.07298" lon="3.06533">
        <ele>716</ele>
        <time>2019-05-31T08:53:18Z</time>
      </trkpt>
      <trkpt lat="44.07304" lon="3.0654">
        <ele>715.5</ele>
        <time>2019-05-31T08:53:19Z</time>
      </trkpt>
      <trkpt lat="44.07309" lon="3.0655">
        <ele>714.9</ele>
        <time>2019-05-31T08:53:20Z</time>
      </trkpt>
      <trkpt lat="44.07313" lon="3.06559">
        <ele>714.6</ele>
        <time>2019-05-31T08:53:21Z</time>
      </trkpt>
      <trkpt lat="44.07315" lon="3.0657">
        <ele>714.1</ele>
        <time>2019-05-31T08:53:22Z</time>
      </trkpt>
      <trkpt lat="44.07316" lon="3.06582">
        <ele>713.7</ele>
        <time>2019-05-31T08:53:23Z</time>
      </trkpt>
      <trkpt lat="44.07317" lon="3.06595">
        <ele>713.2</ele>
        <time>2019-05-31T08:53:24Z</time>
      </trkpt>
      <trkpt lat="44.07315" lon="3.06607">
        <ele>712.7</ele>
        <time>2019-05-31T08:53:25Z</time>
      </trkpt>
      <trkpt lat="44.07314" lon="3.06619">
        <ele>712.2</ele>
        <time>2019-05-31T08:53:26Z</time>
      </trkpt>
      <trkpt lat="44.07315" lon="3.06631">
        <ele>711.8</ele>
        <time>2019-05-31T08:53:27Z</time>
      </trkpt>
      <trkpt lat="44.07317" lon="3.06642">
        <ele>711.4</ele>
        <time>2019-05-31T08:53:28Z</time>
      </trkpt>
      <trkpt lat="44.07319" lon="3.06653">
        <ele>711.1</ele>
        <time>2019-05-31T08:53:29Z</time>
      </trkpt>
      <trkpt lat="44.07322" lon="3.06665">
        <ele>710.9</ele>
        <time>2019-05-31T08:53:30Z</time>
      </trkpt>
      <trkpt lat="44.07324" lon="3.06676">
        <ele>710.8</ele>
        <time>2019-05-31T08:53:31Z</time>
      </trkpt>
      <trkpt lat="44.07326" lon="3.06686">
        <ele>710.8</ele>
        <time>2019-05-31T08:53:32Z</time>
      </trkpt>
      <trkpt lat="44.07328" lon="3.06698">
        <ele>710.8</ele>
        <time>2019-05-31T08:53:33Z</time>
      </trkpt>
      <trkpt lat="44.07329" lon="3.0671">
        <ele>710.8</ele>
        <time>2019-05-31T08:53:34Z</time>
      </trkpt>
      <trkpt lat="44.07329" lon="3.0672">
        <ele>710.8</ele>
        <time>2019-05-31T08:53:35Z</time>
      </trkpt>
      <trkpt lat="44.07331" lon="3.06729">
        <ele>710.7</ele>
        <time>2019-05-31T08:53:36Z</time>
      </trkpt>
      <trkpt lat="44.07335" lon="3.06736">
        <ele>710.6</ele>
        <time>2019-05-31T08:53:37Z</time>
      </trkpt>
      <trkpt lat="44.07338" lon="3.06742">
        <ele>710.6</ele>
        <time>2019-05-31T08:53:38Z</time>
      </trkpt>
      <trkpt lat="44.07342" lon="3.06746">
        <ele>710.5</ele>
        <time>2019-05-31T08:53:39Z</time>
      </trkpt>
      <trkpt lat="44.07346" lon="3.0675">
        <ele>710.6</ele>
        <time>2019-05-31T08:53:40Z</time>
      </trkpt>
      <trkpt lat="44.0735" lon="3.06755">
        <ele>710.6</ele>
        <time>2019-05-31T08:53:41Z</time>
      </trkpt>
      <trkpt lat="44.07354" lon="3.0676">
        <ele>710.7</ele>
        <time>2019-05-31T08:53:42Z</time>
      </trkpt>
      <trkpt lat="44.07356" lon="3.06764">
        <ele>710.8</ele>
        <time>2019-05-31T08:53:43Z</time>
      </trkpt>
      <trkpt lat="44.07359" lon="3.06769">
        <ele>710.8</ele>
        <time>2019-05-31T08:53:44Z</time>
      </trkpt>
      <trkpt lat="44.07362" lon="3.06774">
        <ele>710.9</ele>
        <time>2019-05-31T08:53:45Z</time>
      </trkpt>
      <trkpt lat="44.07363" lon="3.06778">
        <ele>710.9</ele>
        <time>2019-05-31T08:53:46Z</time>
      </trkpt>
      <trkpt lat="44.07365" lon="3.06783">
        <ele>710.9</ele>
        <time>2019-05-31T08:53:47Z</time>
      </trkpt>
      <trkpt lat="44.07368" lon="3.06787">
        <ele>710.9</ele>
        <time>2019-05-31T08:53:48Z</time>
      </trkpt>
      <trkpt lat="44.0737" lon="3.06791">
        <ele>711</ele>
        <time>2019-05-31T08:53:49Z</time>
      </trkpt>
      <trkpt lat="44.07372" lon="3.06796">
        <ele>711</ele>
        <time>2019-05-31T08:53:50Z</time>
      </trkpt>
      <trkpt lat="44.07375" lon="3.06801">
        <ele>711</ele>
        <time>2019-05-31T08:53:51Z</time>
      </trkpt>
      <trkpt lat="44.07378" lon="3.06804">
        <ele>710.9</ele>
        <time>2019-05-31T08:53:52Z</time>
      </trkpt>
      <trkpt lat="44.0738" lon="3.06808">
        <ele>710.9</ele>
        <time>2019-05-31T08:53:53Z</time>
      </trkpt>
      <trkpt lat="44.07384" lon="3.06812">
        <ele>710.9</ele>
        <time>2019-05-31T08:53:54Z</time>
      </trkpt>
      <trkpt lat="44.07387" lon="3.06816">
        <ele>710.8</ele>
        <time>2019-05-31T08:53:55Z</time>
      </trkpt>
      <trkpt lat="44.0739" lon="3.06818">
        <ele>710.7</ele>
        <time>2019-05-31T08:53:56Z</time>
      </trkpt>
      <trkpt lat="44.07393" lon="3.06823">
        <ele>710.6</ele>
        <time>2019-05-31T08:53:58Z</time>
      </trkpt>
      <trkpt lat="44.07396" lon="3.06828">
        <ele>710.4</ele>
        <time>2019-05-31T08:54:00Z</time>
      </trkpt>
      <trkpt lat="44.07398" lon="3.06831">
        <ele>710.3</ele>
        <time>2019-05-31T08:54:01Z</time>
      </trkpt>
      <trkpt lat="44.074" lon="3.06834">
        <ele>710.1</ele>
        <time>2019-05-31T08:54:02Z</time>
      </trkpt>
      <trkpt lat="44.07404" lon="3.06838">
        <ele>709.9</ele>
        <time>2019-05-31T08:54:04Z</time>
      </trkpt>
      <trkpt lat="44.07406" lon="3.06841">
        <ele>709.8</ele>
        <time>2019-05-31T08:54:05Z</time>
      </trkpt>
      <trkpt lat="44.07409" lon="3.06844">
        <ele>709.7</ele>
        <time>2019-05-31T08:54:06Z</time>
      </trkpt>
      <trkpt lat="44.07412" lon="3.06847">
        <ele>709.5</ele>
        <time>2019-05-31T08:54:07Z</time>
      </trkpt>
      <trkpt lat="44.07417" lon="3.06852">
        <ele>709.3</ele>
        <time>2019-05-31T08:54:08Z</time>
      </trkpt>
      <trkpt lat="44.07421" lon="3.06858">
        <ele>709.1</ele>
        <time>2019-05-31T08:54:09Z</time>
      </trkpt>
      <trkpt lat="44.07425" lon="3.06862">
        <ele>708.9</ele>
        <time>2019-05-31T08:54:10Z</time>
      </trkpt>
      <trkpt lat="44.07428" lon="3.06867">
        <ele>708.8</ele>
        <time>2019-05-31T08:54:11Z</time>
      </trkpt>
      <trkpt lat="44.07432" lon="3.06872">
        <ele>708.6</ele>
        <time>2019-05-31T08:54:12Z</time>
      </trkpt>
      <trkpt lat="44.07436" lon="3.06878">
        <ele>708.4</ele>
        <time>2019-05-31T08:54:13Z</time>
      </trkpt>
      <trkpt lat="44.07439" lon="3.06884">
        <ele>708.2</ele>
        <time>2019-05-31T08:54:14Z</time>
      </trkpt>
      <trkpt lat="44.07442" lon="3.0689">
        <ele>708</ele>
        <time>2019-05-31T08:54:15Z</time>
      </trkpt>
      <trkpt lat="44.07444" lon="3.06896">
        <ele>707.8</ele>
        <time>2019-05-31T08:54:16Z</time>
      </trkpt>
      <trkpt lat="44.07446" lon="3.06906">
        <ele>707.6</ele>
        <time>2019-05-31T08:54:17Z</time>
      </trkpt>
      <trkpt lat="44.07448" lon="3.06914">
        <ele>707.5</ele>
        <time>2019-05-31T08:54:18Z</time>
      </trkpt>
      <trkpt lat="44.07452" lon="3.0692">
        <ele>707.4</ele>
        <time>2019-05-31T08:54:19Z</time>
      </trkpt>
      <trkpt lat="44.07456" lon="3.06923">
        <ele>707.4</ele>
        <time>2019-05-31T08:54:20Z</time>
      </trkpt>
      <trkpt lat="44.07459" lon="3.06926">
        <ele>707.5</ele>
        <time>2019-05-31T08:54:21Z</time>
      </trkpt>
      <trkpt lat="44.07468" lon="3.06929">
        <ele>707.7</ele>
        <time>2019-05-31T08:54:22Z</time>
      </trkpt>
      <trkpt lat="44.07472" lon="3.06925">
        <ele>707.8</ele>
        <time>2019-05-31T08:54:23Z</time>
      </trkpt>
      <trkpt lat="44.07478" lon="3.0692">
        <ele>708.1</ele>
        <time>2019-05-31T08:54:24Z</time>
      </trkpt>
      <trkpt lat="44.07482" lon="3.06917">
        <ele>708.3</ele>
        <time>2019-05-31T08:54:25Z</time>
      </trkpt>
      <trkpt lat="44.07485" lon="3.06915">
        <ele>707.6</ele>
        <time>2019-05-31T08:54:26Z</time>
      </trkpt>
      <trkpt lat="44.07487" lon="3.06914">
        <ele>707.2</ele>
        <time>2019-05-31T08:54:28Z</time>
      </trkpt>
      <trkpt lat="44.07492" lon="3.06912">
        <ele>706.6</ele>
        <time>2019-05-31T08:54:30Z</time>
      </trkpt>
      <trkpt lat="44.07497" lon="3.06909">
        <ele>705.8</ele>
        <time>2019-05-31T08:54:32Z</time>
      </trkpt>
      <trkpt lat="44.075" lon="3.06904">
        <ele>705.1</ele>
        <time>2019-05-31T08:54:34Z</time>
      </trkpt>
      <trkpt lat="44.07502" lon="3.06898">
        <ele>704.3</ele>
        <time>2019-05-31T08:54:36Z</time>
      </trkpt>
      <trkpt lat="44.07504" lon="3.06891">
        <ele>703.6</ele>
        <time>2019-05-31T08:54:38Z</time>
      </trkpt>
      <trkpt lat="44.07505" lon="3.06887">
        <ele>703.2</ele>
        <time>2019-05-31T08:54:39Z</time>
      </trkpt>
      <trkpt lat="44.07505" lon="3.06883">
        <ele>702.7</ele>
        <time>2019-05-31T08:54:40Z</time>
      </trkpt>
      <trkpt lat="44.07507" lon="3.06877">
        <ele>701.9</ele>
        <time>2019-05-31T08:54:42Z</time>
      </trkpt>
      <trkpt lat="44.07507" lon="3.06873">
        <ele>701.4</ele>
        <time>2019-05-31T08:54:43Z</time>
      </trkpt>
      <trkpt lat="44.07508" lon="3.06869">
        <ele>700.9</ele>
        <time>2019-05-31T08:54:44Z</time>
      </trkpt>
      <trkpt lat="44.07508" lon="3.06865">
        <ele>700.5</ele>
        <time>2019-05-31T08:54:45Z</time>
      </trkpt>
      <trkpt lat="44.07509" lon="3.06861">
        <ele>700</ele>
        <time>2019-05-31T08:54:46Z</time>
      </trkpt>
      <trkpt lat="44.0751" lon="3.06857">
        <ele>699.5</ele>
        <time>2019-05-31T08:54:47Z</time>
      </trkpt>
      <trkpt lat="44.0751" lon="3.06853">
        <ele>699</ele>
        <time>2019-05-31T08:54:48Z</time>
      </trkpt>
      <trkpt lat="44.07511" lon="3.06849">
        <ele>698.5</ele>
        <time>2019-05-31T08:54:49Z</time>
      </trkpt>
      <trkpt lat="44.07511" lon="3.06844">
        <ele>698</ele>
        <time>2019-05-31T08:54:50Z</time>
      </trkpt>
      <trkpt lat="44.07512" lon="3.0684">
        <ele>697.6</ele>
        <time>2019-05-31T08:54:51Z</time>
      </trkpt>
      <trkpt lat="44.07513" lon="3.06835">
        <ele>697.1</ele>
        <time>2019-05-31T08:54:52Z</time>
      </trkpt>
      <trkpt lat="44.07513" lon="3.0683">
        <ele>696.6</ele>
        <time>2019-05-31T08:54:53Z</time>
      </trkpt>
      <trkpt lat="44.07514" lon="3.06825">
        <ele>696.3</ele>
        <time>2019-05-31T08:54:54Z</time>
      </trkpt>
      <trkpt lat="44.07513" lon="3.06821">
        <ele>696</ele>
        <time>2019-05-31T08:54:55Z</time>
      </trkpt>
      <trkpt lat="44.07513" lon="3.06813">
        <ele>695.4</ele>
        <time>2019-05-31T08:54:57Z</time>
      </trkpt>
      <trkpt lat="44.07514" lon="3.06806">
        <ele>696</ele>
        <time>2019-05-31T08:54:59Z</time>
      </trkpt>
      <trkpt lat="44.07515" lon="3.06802">
        <ele>696.3</ele>
        <time>2019-05-31T08:55:00Z</time>
      </trkpt>
      <trkpt lat="44.07517" lon="3.06799">
        <ele>696.5</ele>
        <time>2019-05-31T08:55:01Z</time>
      </trkpt>
      <trkpt lat="44.07519" lon="3.06795">
        <ele>696.7</ele>
        <time>2019-05-31T08:55:02Z</time>
      </trkpt>
      <trkpt lat="44.07521" lon="3.06792">
        <ele>696.9</ele>
        <time>2019-05-31T08:55:03Z</time>
      </trkpt>
      <trkpt lat="44.07525" lon="3.06788">
        <ele>697.2</ele>
        <time>2019-05-31T08:55:05Z</time>
      </trkpt>
      <trkpt lat="44.07529" lon="3.06786">
        <ele>697.4</ele>
        <time>2019-05-31T08:55:07Z</time>
      </trkpt>
      <trkpt lat="44.07532" lon="3.06785">
        <ele>697.4</ele>
        <time>2019-05-31T08:55:09Z</time>
      </trkpt>
      <trkpt lat="44.07535" lon="3.06784">
        <ele>697.3</ele>
        <time>2019-05-31T08:55:12Z</time>
      </trkpt>
      <trkpt lat="44.07537" lon="3.06792">
        <ele>697.2</ele>
        <time>2019-05-31T08:56:18Z</time>
      </trkpt>
      <trkpt lat="44.07538" lon="3.06788">
        <ele>697</ele>
        <time>2019-05-31T08:59:44Z</time>
      </trkpt>
      <trkpt lat="44.07541" lon="3.06785">
        <ele>696.6</ele>
        <time>2019-05-31T08:59:59Z</time>
      </trkpt>
      <trkpt lat="44.07544" lon="3.06783">
        <ele>696.3</ele>
        <time>2019-05-31T09:00:02Z</time>
      </trkpt>
      <trkpt lat="44.07547" lon="3.06782">
        <ele>696.1</ele>
        <time>2019-05-31T09:00:05Z</time>
      </trkpt>
      <trkpt lat="44.0755" lon="3.06781">
        <ele>695.8</ele>
        <time>2019-05-31T09:00:08Z</time>
      </trkpt>
      <trkpt lat="44.07553" lon="3.0678">
        <ele>695.5</ele>
        <time>2019-05-31T09:00:11Z</time>
      </trkpt>
      <trkpt lat="44.07557" lon="3.06779">
        <ele>695.2</ele>
        <time>2019-05-31T09:00:14Z</time>
      </trkpt>
      <trkpt lat="44.07561" lon="3.06779">
        <ele>694.9</ele>
        <time>2019-05-31T09:00:16Z</time>
      </trkpt>
      <trkpt lat="44.07566" lon="3.06779">
        <ele>694.7</ele>
        <time>2019-05-31T09:00:18Z</time>
      </trkpt>
      <trkpt lat="44.0757" lon="3.06779">
        <ele>694.6</ele>
        <time>2019-05-31T09:00:19Z</time>
      </trkpt>
      <trkpt lat="44.07573" lon="3.06779">
        <ele>694.5</ele>
        <time>2019-05-31T09:00:20Z</time>
      </trkpt>
      <trkpt lat="44.07577" lon="3.06779">
        <ele>694.4</ele>
        <time>2019-05-31T09:00:21Z</time>
      </trkpt>
      <trkpt lat="44.07581" lon="3.06779">
        <ele>694.4</ele>
        <time>2019-05-31T09:00:22Z</time>
      </trkpt>
      <trkpt lat="44.07585" lon="3.06779">
        <ele>694.3</ele>
        <time>2019-05-31T09:00:23Z</time>
      </trkpt>
      <trkpt lat="44.07591" lon="3.06782">
        <ele>694.2</ele>
        <time>2019-05-31T09:00:24Z</time>
      </trkpt>
      <trkpt lat="44.07595" lon="3.06784">
        <ele>694.1</ele>
        <time>2019-05-31T09:00:25Z</time>
      </trkpt>
      <trkpt lat="44.07601" lon="3.06786">
        <ele>693.9</ele>
        <time>2019-05-31T09:00:26Z</time>
      </trkpt>
      <trkpt lat="44.07606" lon="3.06789">
        <ele>693.7</ele>
        <time>2019-05-31T09:00:27Z</time>
      </trkpt>
      <trkpt lat="44.07612" lon="3.06793">
        <ele>693.5</ele>
        <time>2019-05-31T09:00:28Z</time>
      </trkpt>
      <trkpt lat="44.07616" lon="3.06798">
        <ele>693.3</ele>
        <time>2019-05-31T09:00:29Z</time>
      </trkpt>
      <trkpt lat="44.0762" lon="3.06803">
        <ele>693.2</ele>
        <time>2019-05-31T09:00:30Z</time>
      </trkpt>
      <trkpt lat="44.07624" lon="3.06807">
        <ele>693</ele>
        <time>2019-05-31T09:00:31Z</time>
      </trkpt>
      <trkpt lat="44.07628" lon="3.06809">
        <ele>692.9</ele>
        <time>2019-05-31T09:00:32Z</time>
      </trkpt>
      <trkpt lat="44.07633" lon="3.06812">
        <ele>692.9</ele>
        <time>2019-05-31T09:00:33Z</time>
      </trkpt>
      <trkpt lat="44.07637" lon="3.06814">
        <ele>692.8</ele>
        <time>2019-05-31T09:00:34Z</time>
      </trkpt>
      <trkpt lat="44.07642" lon="3.06816">
        <ele>692.7</ele>
        <time>2019-05-31T09:00:35Z</time>
      </trkpt>
      <trkpt lat="44.07645" lon="3.06818">
        <ele>692.7</ele>
        <time>2019-05-31T09:00:36Z</time>
      </trkpt>
      <trkpt lat="44.07649" lon="3.06819">
        <ele>692.7</ele>
        <time>2019-05-31T09:00:37Z</time>
      </trkpt>
      <trkpt lat="44.07653" lon="3.0682">
        <ele>692.7</ele>
        <time>2019-05-31T09:00:38Z</time>
      </trkpt>
      <trkpt lat="44.07657" lon="3.06821">
        <ele>692.8</ele>
        <time>2019-05-31T09:00:39Z</time>
      </trkpt>
      <trkpt lat="44.0766" lon="3.06819">
        <ele>692.9</ele>
        <time>2019-05-31T09:00:40Z</time>
      </trkpt>
      <trkpt lat="44.07664" lon="3.06818">
        <ele>693</ele>
        <time>2019-05-31T09:00:41Z</time>
      </trkpt>
      <trkpt lat="44.07667" lon="3.06817">
        <ele>693.2</ele>
        <time>2019-05-31T09:00:42Z</time>
      </trkpt>
      <trkpt lat="44.07672" lon="3.06816">
        <ele>693.4</ele>
        <time>2019-05-31T09:00:44Z</time>
      </trkpt>
      <trkpt lat="44.07675" lon="3.06814">
        <ele>693.7</ele>
        <time>2019-05-31T09:00:45Z</time>
      </trkpt>
      <trkpt lat="44.07679" lon="3.06809">
        <ele>694.2</ele>
        <time>2019-05-31T09:00:47Z</time>
      </trkpt>
      <trkpt lat="44.07681" lon="3.06806">
        <ele>694.6</ele>
        <time>2019-05-31T09:00:48Z</time>
      </trkpt>
      <trkpt lat="44.07684" lon="3.06802">
        <ele>695</ele>
        <time>2019-05-31T09:00:50Z</time>
      </trkpt>
      <trkpt lat="44.07688" lon="3.06797">
        <ele>695.6</ele>
        <time>2019-05-31T09:00:52Z</time>
      </trkpt>
      <trkpt lat="44.07692" lon="3.06793">
        <ele>695.9</ele>
        <time>2019-05-31T09:00:54Z</time>
      </trkpt>
      <trkpt lat="44.07695" lon="3.06787">
        <ele>696.3</ele>
        <time>2019-05-31T09:00:56Z</time>
      </trkpt>
      <trkpt lat="44.07697" lon="3.06784">
        <ele>696.6</ele>
        <time>2019-05-31T09:00:57Z</time>
      </trkpt>
      <trkpt lat="44.077" lon="3.06779">
        <ele>697.1</ele>
        <time>2019-05-31T09:00:59Z</time>
      </trkpt>
      <trkpt lat="44.07702" lon="3.06776">
        <ele>697.3</ele>
        <time>2019-05-31T09:01:00Z</time>
      </trkpt>
      <trkpt lat="44.07705" lon="3.06774">
        <ele>697.6</ele>
        <time>2019-05-31T09:01:01Z</time>
      </trkpt>
      <trkpt lat="44.07709" lon="3.0677">
        <ele>698</ele>
        <time>2019-05-31T09:01:03Z</time>
      </trkpt>
      <trkpt lat="44.07712" lon="3.06765">
        <ele>698.4</ele>
        <time>2019-05-31T09:01:05Z</time>
      </trkpt>
      <trkpt lat="44.07715" lon="3.06762">
        <ele>698.7</ele>
        <time>2019-05-31T09:01:07Z</time>
      </trkpt>
      <trkpt lat="44.0772" lon="3.06759">
        <ele>699.3</ele>
        <time>2019-05-31T09:01:09Z</time>
      </trkpt>
      <trkpt lat="44.07725" lon="3.06758">
        <ele>699.9</ele>
        <time>2019-05-31T09:01:11Z</time>
      </trkpt>
      <trkpt lat="44.07729" lon="3.06758">
        <ele>700.4</ele>
        <time>2019-05-31T09:01:13Z</time>
      </trkpt>
      <trkpt lat="44.07734" lon="3.06757">
        <ele>700.9</ele>
        <time>2019-05-31T09:01:15Z</time>
      </trkpt>
      <trkpt lat="44.07737" lon="3.06756">
        <ele>701.2</ele>
        <time>2019-05-31T09:01:16Z</time>
      </trkpt>
      <trkpt lat="44.07739" lon="3.06754">
        <ele>701.5</ele>
        <time>2019-05-31T09:01:17Z</time>
      </trkpt>
      <trkpt lat="44.07744" lon="3.06752">
        <ele>702.1</ele>
        <time>2019-05-31T09:01:19Z</time>
      </trkpt>
      <trkpt lat="44.0775" lon="3.0675">
        <ele>702.7</ele>
        <time>2019-05-31T09:01:21Z</time>
      </trkpt>
      <trkpt lat="44.07755" lon="3.06748">
        <ele>703</ele>
        <time>2019-05-31T09:01:23Z</time>
      </trkpt>
      <trkpt lat="44.07759" lon="3.06745">
        <ele>703.3</ele>
        <time>2019-05-31T09:01:25Z</time>
      </trkpt>
      <trkpt lat="44.07763" lon="3.06743">
        <ele>703.5</ele>
        <time>2019-05-31T09:01:27Z</time>
      </trkpt>
      <trkpt lat="44.07766" lon="3.0674">
        <ele>703.7</ele>
        <time>2019-05-31T09:01:29Z</time>
      </trkpt>
      <trkpt lat="44.07769" lon="3.06739">
        <ele>704</ele>
        <time>2019-05-31T09:01:31Z</time>
      </trkpt>
      <trkpt lat="44.07774" lon="3.06738">
        <ele>704.3</ele>
        <time>2019-05-31T09:01:33Z</time>
      </trkpt>
      <trkpt lat="44.07778" lon="3.06739">
        <ele>704.6</ele>
        <time>2019-05-31T09:01:35Z</time>
      </trkpt>
      <trkpt lat="44.07782" lon="3.06742">
        <ele>704.8</ele>
        <time>2019-05-31T09:01:37Z</time>
      </trkpt>
      <trkpt lat="44.07786" lon="3.06745">
        <ele>705.1</ele>
        <time>2019-05-31T09:01:39Z</time>
      </trkpt>
      <trkpt lat="44.07788" lon="3.06751">
        <ele>705.3</ele>
        <time>2019-05-31T09:01:41Z</time>
      </trkpt>
      <trkpt lat="44.07791" lon="3.06755">
        <ele>705.5</ele>
        <time>2019-05-31T09:01:43Z</time>
      </trkpt>
      <trkpt lat="44.07794" lon="3.06757">
        <ele>705.6</ele>
        <time>2019-05-31T09:01:45Z</time>
      </trkpt>
      <trkpt lat="44.07797" lon="3.06759">
        <ele>705.8</ele>
        <time>2019-05-31T09:01:47Z</time>
      </trkpt>
      <trkpt lat="44.07801" lon="3.0676">
        <ele>706</ele>
        <time>2019-05-31T09:01:50Z</time>
      </trkpt>
      <trkpt lat="44.07804" lon="3.06762">
        <ele>706.2</ele>
        <time>2019-05-31T09:01:52Z</time>
      </trkpt>
      <trkpt lat="44.07807" lon="3.06764">
        <ele>706.4</ele>
        <time>2019-05-31T09:01:54Z</time>
      </trkpt>
      <trkpt lat="44.07811" lon="3.06765">
        <ele>706.9</ele>
        <time>2019-05-31T09:01:56Z</time>
      </trkpt>
      <trkpt lat="44.07815" lon="3.06765">
        <ele>707.4</ele>
        <time>2019-05-31T09:01:58Z</time>
      </trkpt>
      <trkpt lat="44.07818" lon="3.06765">
        <ele>707.9</ele>
        <time>2019-05-31T09:02:00Z</time>
      </trkpt>
      <trkpt lat="44.07821" lon="3.06763">
        <ele>708.4</ele>
        <time>2019-05-31T09:02:02Z</time>
      </trkpt>
      <trkpt lat="44.07825" lon="3.06764">
        <ele>709</ele>
        <time>2019-05-31T09:02:04Z</time>
      </trkpt>
      <trkpt lat="44.07828" lon="3.06765">
        <ele>709.6</ele>
        <time>2019-05-31T09:02:06Z</time>
      </trkpt>
      <trkpt lat="44.07832" lon="3.06766">
        <ele>710.1</ele>
        <time>2019-05-31T09:02:09Z</time>
      </trkpt>
      <trkpt lat="44.07836" lon="3.06766">
        <ele>710.7</ele>
        <time>2019-05-31T09:02:11Z</time>
      </trkpt>
      <trkpt lat="44.0784" lon="3.06767">
        <ele>711.2</ele>
        <time>2019-05-31T09:02:13Z</time>
      </trkpt>
      <trkpt lat="44.07843" lon="3.06769">
        <ele>711.6</ele>
        <time>2019-05-31T09:02:15Z</time>
      </trkpt>
      <trkpt lat="44.07847" lon="3.06772">
        <ele>712</ele>
        <time>2019-05-31T09:02:17Z</time>
      </trkpt>
      <trkpt lat="44.0785" lon="3.06777">
        <ele>712.3</ele>
        <time>2019-05-31T09:02:19Z</time>
      </trkpt>
      <trkpt lat="44.07853" lon="3.0678">
        <ele>712.4</ele>
        <time>2019-05-31T09:02:21Z</time>
      </trkpt>
      <trkpt lat="44.07857" lon="3.06782">
        <ele>712.6</ele>
        <time>2019-05-31T09:02:23Z</time>
      </trkpt>
      <trkpt lat="44.0786" lon="3.06784">
        <ele>712.7</ele>
        <time>2019-05-31T09:02:25Z</time>
      </trkpt>
      <trkpt lat="44.07863" lon="3.06786">
        <ele>712.8</ele>
        <time>2019-05-31T09:02:27Z</time>
      </trkpt>
      <trkpt lat="44.07866" lon="3.06789">
        <ele>712.9</ele>
        <time>2019-05-31T09:02:29Z</time>
      </trkpt>
      <trkpt lat="44.0787" lon="3.06792">
        <ele>713</ele>
        <time>2019-05-31T09:02:31Z</time>
      </trkpt>
      <trkpt lat="44.07873" lon="3.06796">
        <ele>713.2</ele>
        <time>2019-05-31T09:02:33Z</time>
      </trkpt>
      <trkpt lat="44.07876" lon="3.06799">
        <ele>713.3</ele>
        <time>2019-05-31T09:02:35Z</time>
      </trkpt>
      <trkpt lat="44.07879" lon="3.06804">
        <ele>713.5</ele>
        <time>2019-05-31T09:02:37Z</time>
      </trkpt>
      <trkpt lat="44.07882" lon="3.06811">
        <ele>713.6</ele>
        <time>2019-05-31T09:02:39Z</time>
      </trkpt>
      <trkpt lat="44.07883" lon="3.06817">
        <ele>713.8</ele>
        <time>2019-05-31T09:02:41Z</time>
      </trkpt>
      <trkpt lat="44.07886" lon="3.06823">
        <ele>714</ele>
        <time>2019-05-31T09:02:43Z</time>
      </trkpt>
      <trkpt lat="44.07888" lon="3.06829">
        <ele>714.2</ele>
        <time>2019-05-31T09:02:45Z</time>
      </trkpt>
      <trkpt lat="44.0789" lon="3.06833">
        <ele>714.4</ele>
        <time>2019-05-31T09:02:47Z</time>
      </trkpt>
      <trkpt lat="44.07892" lon="3.06839">
        <ele>714.5</ele>
        <time>2019-05-31T09:02:49Z</time>
      </trkpt>
      <trkpt lat="44.07893" lon="3.06844">
        <ele>714.6</ele>
        <time>2019-05-31T09:02:51Z</time>
      </trkpt>
      <trkpt lat="44.07891" lon="3.06851">
        <ele>714.7</ele>
        <time>2019-05-31T09:02:53Z</time>
      </trkpt>
      <trkpt lat="44.07888" lon="3.06857">
        <ele>714.9</ele>
        <time>2019-05-31T09:02:55Z</time>
      </trkpt>
      <trkpt lat="44.07887" lon="3.06861">
        <ele>714.9</ele>
        <time>2019-05-31T09:02:56Z</time>
      </trkpt>
      <trkpt lat="44.07885" lon="3.06865">
        <ele>714.9</ele>
        <time>2019-05-31T09:02:57Z</time>
      </trkpt>
      <trkpt lat="44.07884" lon="3.06868">
        <ele>715</ele>
        <time>2019-05-31T09:02:58Z</time>
      </trkpt>
      <trkpt lat="44.07884" lon="3.06872">
        <ele>715</ele>
        <time>2019-05-31T09:02:59Z</time>
      </trkpt>
      <trkpt lat="44.07884" lon="3.06877">
        <ele>715</ele>
        <time>2019-05-31T09:03:00Z</time>
      </trkpt>
      <trkpt lat="44.07883" lon="3.06882">
        <ele>715</ele>
        <time>2019-05-31T09:03:01Z</time>
      </trkpt>
      <trkpt lat="44.07883" lon="3.06887">
        <ele>715.1</ele>
        <time>2019-05-31T09:03:02Z</time>
      </trkpt>
      <trkpt lat="44.07883" lon="3.06891">
        <ele>715.1</ele>
        <time>2019-05-31T09:03:03Z</time>
      </trkpt>
      <trkpt lat="44.07883" lon="3.06896">
        <ele>715.3</ele>
        <time>2019-05-31T09:03:04Z</time>
      </trkpt>
      <trkpt lat="44.07883" lon="3.06902">
        <ele>715.4</ele>
        <time>2019-05-31T09:03:05Z</time>
      </trkpt>
      <trkpt lat="44.07883" lon="3.06907">
        <ele>715.5</ele>
        <time>2019-05-31T09:03:06Z</time>
      </trkpt>
      <trkpt lat="44.07884" lon="3.06911">
        <ele>715.6</ele>
        <time>2019-05-31T09:03:07Z</time>
      </trkpt>
      <trkpt lat="44.07884" lon="3.06916">
        <ele>715.8</ele>
        <time>2019-05-31T09:03:08Z</time>
      </trkpt>
      <trkpt lat="44.07884" lon="3.06921">
        <ele>716</ele>
        <time>2019-05-31T09:03:09Z</time>
      </trkpt>
      <trkpt lat="44.07884" lon="3.06926">
        <ele>716.2</ele>
        <time>2019-05-31T09:03:10Z</time>
      </trkpt>
      <trkpt lat="44.07884" lon="3.06931">
        <ele>716.3</ele>
        <time>2019-05-31T09:03:11Z</time>
      </trkpt>
      <trkpt lat="44.07884" lon="3.06936">
        <ele>716.5</ele>
        <time>2019-05-31T09:03:12Z</time>
      </trkpt>
      <trkpt lat="44.07884" lon="3.0694">
        <ele>716.7</ele>
        <time>2019-05-31T09:03:13Z</time>
      </trkpt>
      <trkpt lat="44.07884" lon="3.06945">
        <ele>716.9</ele>
        <time>2019-05-31T09:03:14Z</time>
      </trkpt>
      <trkpt lat="44.07883" lon="3.06949">
        <ele>717</ele>
        <time>2019-05-31T09:03:15Z</time>
      </trkpt>
      <trkpt lat="44.07883" lon="3.06953">
        <ele>717.1</ele>
        <time>2019-05-31T09:03:16Z</time>
      </trkpt>
      <trkpt lat="44.07883" lon="3.06958">
        <ele>717.3</ele>
        <time>2019-05-31T09:03:17Z</time>
      </trkpt>
      <trkpt lat="44.07883" lon="3.06964">
        <ele>717.6</ele>
        <time>2019-05-31T09:03:18Z</time>
      </trkpt>
      <trkpt lat="44.07886" lon="3.06972">
        <ele>717.9</ele>
        <time>2019-05-31T09:03:19Z</time>
      </trkpt>
      <trkpt lat="44.07887" lon="3.06981">
        <ele>718.3</ele>
        <time>2019-05-31T09:03:20Z</time>
      </trkpt>
      <trkpt lat="44.07887" lon="3.06988">
        <ele>718.7</ele>
        <time>2019-05-31T09:03:21Z</time>
      </trkpt>
      <trkpt lat="44.07887" lon="3.06997">
        <ele>719.2</ele>
        <time>2019-05-31T09:03:22Z</time>
      </trkpt>
      <trkpt lat="44.07888" lon="3.07005">
        <ele>719.9</ele>
        <time>2019-05-31T09:03:23Z</time>
      </trkpt>
      <trkpt lat="44.0789" lon="3.07015">
        <ele>720.5</ele>
        <time>2019-05-31T09:03:24Z</time>
      </trkpt>
      <trkpt lat="44.07891" lon="3.07021">
        <ele>720.9</ele>
        <time>2019-05-31T09:03:25Z</time>
      </trkpt>
      <trkpt lat="44.07893" lon="3.0703">
        <ele>721.4</ele>
        <time>2019-05-31T09:03:26Z</time>
      </trkpt>
      <trkpt lat="44.07894" lon="3.07038">
        <ele>721.8</ele>
        <time>2019-05-31T09:03:27Z</time>
      </trkpt>
      <trkpt lat="44.07896" lon="3.07047">
        <ele>722.2</ele>
        <time>2019-05-31T09:03:28Z</time>
      </trkpt>
      <trkpt lat="44.07898" lon="3.07055">
        <ele>722.5</ele>
        <time>2019-05-31T09:03:29Z</time>
      </trkpt>
      <trkpt lat="44.079" lon="3.07063">
        <ele>723</ele>
        <time>2019-05-31T09:03:30Z</time>
      </trkpt>
      <trkpt lat="44.07901" lon="3.07071">
        <ele>723.7</ele>
        <time>2019-05-31T09:03:31Z</time>
      </trkpt>
      <trkpt lat="44.07902" lon="3.07079">
        <ele>724.3</ele>
        <time>2019-05-31T09:03:32Z</time>
      </trkpt>
      <trkpt lat="44.07902" lon="3.07086">
        <ele>724.9</ele>
        <time>2019-05-31T09:03:33Z</time>
      </trkpt>
      <trkpt lat="44.07904" lon="3.07094">
        <ele>725.6</ele>
        <time>2019-05-31T09:03:34Z</time>
      </trkpt>
      <trkpt lat="44.07905" lon="3.07101">
        <ele>726.2</ele>
        <time>2019-05-31T09:03:35Z</time>
      </trkpt>
      <trkpt lat="44.07908" lon="3.07108">
        <ele>726.8</ele>
        <time>2019-05-31T09:03:36Z</time>
      </trkpt>
      <trkpt lat="44.0791" lon="3.07115">
        <ele>727.5</ele>
        <time>2019-05-31T09:03:37Z</time>
      </trkpt>
      <trkpt lat="44.07911" lon="3.07122">
        <ele>728.1</ele>
        <time>2019-05-31T09:03:38Z</time>
      </trkpt>
      <trkpt lat="44.07914" lon="3.07128">
        <ele>728.7</ele>
        <time>2019-05-31T09:03:39Z</time>
      </trkpt>
      <trkpt lat="44.07916" lon="3.07134">
        <ele>729.7</ele>
        <time>2019-05-31T09:03:40Z</time>
      </trkpt>
      <trkpt lat="44.07918" lon="3.07141">
        <ele>729.8</ele>
        <time>2019-05-31T09:03:41Z</time>
      </trkpt>
      <trkpt lat="44.07919" lon="3.07145">
        <ele>729.9</ele>
        <time>2019-05-31T09:03:42Z</time>
      </trkpt>
      <trkpt lat="44.0792" lon="3.07148">
        <ele>729.9</ele>
        <time>2019-05-31T09:03:43Z</time>
      </trkpt>
      <trkpt lat="44.07922" lon="3.07153">
        <ele>730</ele>
        <time>2019-05-31T09:03:44Z</time>
      </trkpt>
      <trkpt lat="44.07923" lon="3.07158">
        <ele>730.1</ele>
        <time>2019-05-31T09:03:45Z</time>
      </trkpt>
      <trkpt lat="44.07926" lon="3.07164">
        <ele>730.2</ele>
        <time>2019-05-31T09:03:47Z</time>
      </trkpt>
      <trkpt lat="44.07929" lon="3.07169">
        <ele>730.3</ele>
        <time>2019-05-31T09:03:48Z</time>
      </trkpt>
      <trkpt lat="44.07931" lon="3.07175">
        <ele>730.4</ele>
        <time>2019-05-31T09:03:49Z</time>
      </trkpt>
      <trkpt lat="44.07934" lon="3.07178">
        <ele>730.6</ele>
        <time>2019-05-31T09:03:50Z</time>
      </trkpt>
      <trkpt lat="44.07938" lon="3.07183">
        <ele>730.7</ele>
        <time>2019-05-31T09:03:51Z</time>
      </trkpt>
      <trkpt lat="44.07939" lon="3.07187">
        <ele>730.8</ele>
        <time>2019-05-31T09:03:52Z</time>
      </trkpt>
      <trkpt lat="44.07942" lon="3.07191">
        <ele>730.9</ele>
        <time>2019-05-31T09:03:53Z</time>
      </trkpt>
      <trkpt lat="44.07943" lon="3.07194">
        <ele>731</ele>
        <time>2019-05-31T09:03:54Z</time>
      </trkpt>
      <trkpt lat="44.07945" lon="3.07199">
        <ele>731.2</ele>
        <time>2019-05-31T09:03:55Z</time>
      </trkpt>
      <trkpt lat="44.07947" lon="3.07203">
        <ele>731.3</ele>
        <time>2019-05-31T09:03:56Z</time>
      </trkpt>
      <trkpt lat="44.07949" lon="3.07207">
        <ele>731.4</ele>
        <time>2019-05-31T09:03:57Z</time>
      </trkpt>
      <trkpt lat="44.07951" lon="3.0721">
        <ele>731.6</ele>
        <time>2019-05-31T09:03:58Z</time>
      </trkpt>
      <trkpt lat="44.07953" lon="3.07214">
        <ele>731.7</ele>
        <time>2019-05-31T09:03:59Z</time>
      </trkpt>
      <trkpt lat="44.07956" lon="3.07217">
        <ele>731.8</ele>
        <time>2019-05-31T09:04:00Z</time>
      </trkpt>
      <trkpt lat="44.07957" lon="3.0722">
        <ele>731.9</ele>
        <time>2019-05-31T09:04:01Z</time>
      </trkpt>
      <trkpt lat="44.0796" lon="3.07224">
        <ele>732.1</ele>
        <time>2019-05-31T09:04:02Z</time>
      </trkpt>
      <trkpt lat="44.07963" lon="3.07228">
        <ele>732.2</ele>
        <time>2019-05-31T09:04:03Z</time>
      </trkpt>
      <trkpt lat="44.07965" lon="3.0723">
        <ele>732.3</ele>
        <time>2019-05-31T09:04:04Z</time>
      </trkpt>
      <trkpt lat="44.07968" lon="3.07233">
        <ele>732.4</ele>
        <time>2019-05-31T09:04:05Z</time>
      </trkpt>
      <trkpt lat="44.0797" lon="3.07236">
        <ele>732.6</ele>
        <time>2019-05-31T09:04:06Z</time>
      </trkpt>
      <trkpt lat="44.07972" lon="3.07239">
        <ele>732.7</ele>
        <time>2019-05-31T09:04:07Z</time>
      </trkpt>
      <trkpt lat="44.07974" lon="3.07242">
        <ele>732.8</ele>
        <time>2019-05-31T09:04:08Z</time>
      </trkpt>
      <trkpt lat="44.07976" lon="3.07244">
        <ele>732.9</ele>
        <time>2019-05-31T09:04:09Z</time>
      </trkpt>
      <trkpt lat="44.07979" lon="3.07247">
        <ele>733</ele>
        <time>2019-05-31T09:04:10Z</time>
      </trkpt>
      <trkpt lat="44.07981" lon="3.07249">
        <ele>733.1</ele>
        <time>2019-05-31T09:04:11Z</time>
      </trkpt>
      <trkpt lat="44.07984" lon="3.07251">
        <ele>733.3</ele>
        <time>2019-05-31T09:04:12Z</time>
      </trkpt>
      <trkpt lat="44.07988" lon="3.07256">
        <ele>733.5</ele>
        <time>2019-05-31T09:04:14Z</time>
      </trkpt>
      <trkpt lat="44.07992" lon="3.0726">
        <ele>733.7</ele>
        <time>2019-05-31T09:04:16Z</time>
      </trkpt>
      <trkpt lat="44.07996" lon="3.07265">
        <ele>733.9</ele>
        <time>2019-05-31T09:04:18Z</time>
      </trkpt>
      <trkpt lat="44.07998" lon="3.07268">
        <ele>734</ele>
        <time>2019-05-31T09:04:19Z</time>
      </trkpt>
      <trkpt lat="44.07999" lon="3.07272">
        <ele>734.2</ele>
        <time>2019-05-31T09:04:20Z</time>
      </trkpt>
      <trkpt lat="44.08" lon="3.07277">
        <ele>734.3</ele>
        <time>2019-05-31T09:04:21Z</time>
      </trkpt>
      <trkpt lat="44.08" lon="3.07282">
        <ele>734.4</ele>
        <time>2019-05-31T09:04:22Z</time>
      </trkpt>
      <trkpt lat="44.08" lon="3.07286">
        <ele>734.5</ele>
        <time>2019-05-31T09:04:23Z</time>
      </trkpt>
      <trkpt lat="44.07999" lon="3.0729">
        <ele>734.5</ele>
        <time>2019-05-31T09:04:24Z</time>
      </trkpt>
      <trkpt lat="44.07999" lon="3.07296">
        <ele>734.6</ele>
        <time>2019-05-31T09:04:26Z</time>
      </trkpt>
      <trkpt lat="44.07999" lon="3.07302">
        <ele>734.7</ele>
        <time>2019-05-31T09:04:28Z</time>
      </trkpt>
      <trkpt lat="44.08" lon="3.07306">
        <ele>734.7</ele>
        <time>2019-05-31T09:04:29Z</time>
      </trkpt>
      <trkpt lat="44.08" lon="3.0731">
        <ele>734.7</ele>
        <time>2019-05-31T09:04:30Z</time>
      </trkpt>
      <trkpt lat="44.08001" lon="3.07314">
        <ele>734.7</ele>
        <time>2019-05-31T09:04:31Z</time>
      </trkpt>
      <trkpt lat="44.08001" lon="3.07318">
        <ele>734.7</ele>
        <time>2019-05-31T09:04:32Z</time>
      </trkpt>
      <trkpt lat="44.08003" lon="3.07324">
        <ele>734.6</ele>
        <time>2019-05-31T09:04:34Z</time>
      </trkpt>
      <trkpt lat="44.08004" lon="3.07327">
        <ele>734.6</ele>
        <time>2019-05-31T09:04:35Z</time>
      </trkpt>
      <trkpt lat="44.08006" lon="3.07331">
        <ele>734.6</ele>
        <time>2019-05-31T09:04:36Z</time>
      </trkpt>
      <trkpt lat="44.08008" lon="3.07333">
        <ele>734.6</ele>
        <time>2019-05-31T09:04:37Z</time>
      </trkpt>
      <trkpt lat="44.08011" lon="3.07338">
        <ele>734.7</ele>
        <time>2019-05-31T09:04:39Z</time>
      </trkpt>
      <trkpt lat="44.08014" lon="3.07341">
        <ele>734.8</ele>
        <time>2019-05-31T09:04:41Z</time>
      </trkpt>
      <trkpt lat="44.08018" lon="3.07344">
        <ele>734.8</ele>
        <time>2019-05-31T09:04:43Z</time>
      </trkpt>
      <trkpt lat="44.08021" lon="3.07346">
        <ele>734.9</ele>
        <time>2019-05-31T09:04:45Z</time>
      </trkpt>
      <trkpt lat="44.08024" lon="3.07348">
        <ele>734.9</ele>
        <time>2019-05-31T09:04:47Z</time>
      </trkpt>
      <trkpt lat="44.08028" lon="3.07351">
        <ele>734.9</ele>
        <time>2019-05-31T09:04:49Z</time>
      </trkpt>
      <trkpt lat="44.08031" lon="3.07353">
        <ele>734.9</ele>
        <time>2019-05-31T09:04:51Z</time>
      </trkpt>
      <trkpt lat="44.08034" lon="3.07356">
        <ele>735</ele>
        <time>2019-05-31T09:04:52Z</time>
      </trkpt>
      <trkpt lat="44.08036" lon="3.07358">
        <ele>735</ele>
        <time>2019-05-31T09:04:53Z</time>
      </trkpt>
      <trkpt lat="44.0804" lon="3.07362">
        <ele>735</ele>
        <time>2019-05-31T09:04:55Z</time>
      </trkpt>
      <trkpt lat="44.08042" lon="3.07365">
        <ele>735</ele>
        <time>2019-05-31T09:04:56Z</time>
      </trkpt>
      <trkpt lat="44.08045" lon="3.0737">
        <ele>734.9</ele>
        <time>2019-05-31T09:04:58Z</time>
      </trkpt>
      <trkpt lat="44.08049" lon="3.07375">
        <ele>734.9</ele>
        <time>2019-05-31T09:05:00Z</time>
      </trkpt>
      <trkpt lat="44.08051" lon="3.07378">
        <ele>734.9</ele>
        <time>2019-05-31T09:05:01Z</time>
      </trkpt>
      <trkpt lat="44.08053" lon="3.07383">
        <ele>734.8</ele>
        <time>2019-05-31T09:05:02Z</time>
      </trkpt>
      <trkpt lat="44.08054" lon="3.07388">
        <ele>734.8</ele>
        <time>2019-05-31T09:05:03Z</time>
      </trkpt>
      <trkpt lat="44.08056" lon="3.07393">
        <ele>734.7</ele>
        <time>2019-05-31T09:05:04Z</time>
      </trkpt>
      <trkpt lat="44.08057" lon="3.07398">
        <ele>734.6</ele>
        <time>2019-05-31T09:05:05Z</time>
      </trkpt>
      <trkpt lat="44.08058" lon="3.07402">
        <ele>734.6</ele>
        <time>2019-05-31T09:05:06Z</time>
      </trkpt>
      <trkpt lat="44.0806" lon="3.07406">
        <ele>734.6</ele>
        <time>2019-05-31T09:05:07Z</time>
      </trkpt>
      <trkpt lat="44.08063" lon="3.07411">
        <ele>734.5</ele>
        <time>2019-05-31T09:05:08Z</time>
      </trkpt>
      <trkpt lat="44.08065" lon="3.07415">
        <ele>734.5</ele>
        <time>2019-05-31T09:05:09Z</time>
      </trkpt>
      <trkpt lat="44.08067" lon="3.07419">
        <ele>734.5</ele>
        <time>2019-05-31T09:05:10Z</time>
      </trkpt>
      <trkpt lat="44.08069" lon="3.07424">
        <ele>734.6</ele>
        <time>2019-05-31T09:05:11Z</time>
      </trkpt>
      <trkpt lat="44.0807" lon="3.0743">
        <ele>734.7</ele>
        <time>2019-05-31T09:05:12Z</time>
      </trkpt>
      <trkpt lat="44.08068" lon="3.07437">
        <ele>734.8</ele>
        <time>2019-05-31T09:05:13Z</time>
      </trkpt>
      <trkpt lat="44.0807" lon="3.07443">
        <ele>735</ele>
        <time>2019-05-31T09:05:14Z</time>
      </trkpt>
      <trkpt lat="44.08073" lon="3.07449">
        <ele>735.2</ele>
        <time>2019-05-31T09:05:15Z</time>
      </trkpt>
      <trkpt lat="44.08075" lon="3.07457">
        <ele>735.8</ele>
        <time>2019-05-31T09:05:16Z</time>
      </trkpt>
      <trkpt lat="44.08077" lon="3.07464">
        <ele>736.4</ele>
        <time>2019-05-31T09:05:17Z</time>
      </trkpt>
      <trkpt lat="44.08079" lon="3.07471">
        <ele>737.1</ele>
        <time>2019-05-31T09:05:18Z</time>
      </trkpt>
      <trkpt lat="44.0808" lon="3.07475">
        <ele>737.5</ele>
        <time>2019-05-31T09:05:19Z</time>
      </trkpt>
      <trkpt lat="44.08083" lon="3.0748">
        <ele>737.9</ele>
        <time>2019-05-31T09:05:20Z</time>
      </trkpt>
      <trkpt lat="44.08085" lon="3.07486">
        <ele>738.5</ele>
        <time>2019-05-31T09:05:22Z</time>
      </trkpt>
      <trkpt lat="44.08086" lon="3.07491">
        <ele>738.8</ele>
        <time>2019-05-31T09:05:23Z</time>
      </trkpt>
      <trkpt lat="44.08087" lon="3.07498">
        <ele>739.3</ele>
        <time>2019-05-31T09:05:25Z</time>
      </trkpt>
      <trkpt lat="44.08088" lon="3.07502">
        <ele>739.6</ele>
        <time>2019-05-31T09:05:26Z</time>
      </trkpt>
      <trkpt lat="44.0809" lon="3.07507">
        <ele>739.9</ele>
        <time>2019-05-31T09:05:27Z</time>
      </trkpt>
      <trkpt lat="44.08089" lon="3.07514">
        <ele>740.4</ele>
        <time>2019-05-31T09:05:29Z</time>
      </trkpt>
      <trkpt lat="44.0809" lon="3.0752">
        <ele>740.8</ele>
        <time>2019-05-31T09:05:31Z</time>
      </trkpt>
      <trkpt lat="44.08091" lon="3.07524">
        <ele>741.1</ele>
        <time>2019-05-31T09:05:32Z</time>
      </trkpt>
      <trkpt lat="44.08092" lon="3.07527">
        <ele>741.4</ele>
        <time>2019-05-31T09:05:33Z</time>
      </trkpt>
      <trkpt lat="44.08095" lon="3.07533">
        <ele>741.7</ele>
        <time>2019-05-31T09:05:35Z</time>
      </trkpt>
      <trkpt lat="44.08097" lon="3.07536">
        <ele>741.9</ele>
        <time>2019-05-31T09:05:36Z</time>
      </trkpt>
      <trkpt lat="44.081" lon="3.07541">
        <ele>742.3</ele>
        <time>2019-05-31T09:05:38Z</time>
      </trkpt>
      <trkpt lat="44.08102" lon="3.07544">
        <ele>742.5</ele>
        <time>2019-05-31T09:05:39Z</time>
      </trkpt>
      <trkpt lat="44.08103" lon="3.07551">
        <ele>742.8</ele>
        <time>2019-05-31T09:05:41Z</time>
      </trkpt>
      <trkpt lat="44.08105" lon="3.07558">
        <ele>743.1</ele>
        <time>2019-05-31T09:05:43Z</time>
      </trkpt>
      <trkpt lat="44.08105" lon="3.07562">
        <ele>743.3</ele>
        <time>2019-05-31T09:05:44Z</time>
      </trkpt>
      <trkpt lat="44.08105" lon="3.07568">
        <ele>743.6</ele>
        <time>2019-05-31T09:05:46Z</time>
      </trkpt>
      <trkpt lat="44.08106" lon="3.07572">
        <ele>743.7</ele>
        <time>2019-05-31T09:05:47Z</time>
      </trkpt>
      <trkpt lat="44.08106" lon="3.07578">
        <ele>744</ele>
        <time>2019-05-31T09:05:49Z</time>
      </trkpt>
      <trkpt lat="44.08108" lon="3.07585">
        <ele>744.5</ele>
        <time>2019-05-31T09:05:51Z</time>
      </trkpt>
      <trkpt lat="44.0811" lon="3.07591">
        <ele>745.1</ele>
        <time>2019-05-31T09:05:53Z</time>
      </trkpt>
      <trkpt lat="44.08112" lon="3.07596">
        <ele>745.6</ele>
        <time>2019-05-31T09:05:55Z</time>
      </trkpt>
      <trkpt lat="44.08114" lon="3.07603">
        <ele>746.1</ele>
        <time>2019-05-31T09:05:57Z</time>
      </trkpt>
      <trkpt lat="44.08115" lon="3.07607">
        <ele>746.4</ele>
        <time>2019-05-31T09:05:58Z</time>
      </trkpt>
      <trkpt lat="44.08115" lon="3.07612">
        <ele>746.8</ele>
        <time>2019-05-31T09:06:00Z</time>
      </trkpt>
      <trkpt lat="44.08115" lon="3.07617">
        <ele>747.1</ele>
        <time>2019-05-31T09:06:02Z</time>
      </trkpt>
      <trkpt lat="44.08116" lon="3.07621">
        <ele>747.7</ele>
        <time>2019-05-31T09:06:04Z</time>
      </trkpt>
      <trkpt lat="44.08118" lon="3.07624">
        <ele>748.4</ele>
        <time>2019-05-31T09:06:06Z</time>
      </trkpt>
      <trkpt lat="44.0812" lon="3.07628">
        <ele>748.9</ele>
        <time>2019-05-31T09:06:08Z</time>
      </trkpt>
      <trkpt lat="44.0812" lon="3.07633">
        <ele>749.8</ele>
        <time>2019-05-31T09:06:10Z</time>
      </trkpt>
      <trkpt lat="44.08119" lon="3.07639">
        <ele>750.6</ele>
        <time>2019-05-31T09:06:12Z</time>
      </trkpt>
      <trkpt lat="44.0812" lon="3.07646">
        <ele>751.4</ele>
        <time>2019-05-31T09:06:14Z</time>
      </trkpt>
      <trkpt lat="44.08122" lon="3.07651">
        <ele>752</ele>
        <time>2019-05-31T09:06:16Z</time>
      </trkpt>
      <trkpt lat="44.08123" lon="3.07654">
        <ele>752.4</ele>
        <time>2019-05-31T09:06:18Z</time>
      </trkpt>
      <trkpt lat="44.08126" lon="3.07658">
        <ele>752.9</ele>
        <time>2019-05-31T09:06:20Z</time>
      </trkpt>
      <trkpt lat="44.08129" lon="3.07662">
        <ele>753.4</ele>
        <time>2019-05-31T09:06:22Z</time>
      </trkpt>
      <trkpt lat="44.08132" lon="3.07668">
        <ele>753.8</ele>
        <time>2019-05-31T09:06:24Z</time>
      </trkpt>
      <trkpt lat="44.08133" lon="3.07673">
        <ele>754.2</ele>
        <time>2019-05-31T09:06:26Z</time>
      </trkpt>
      <trkpt lat="44.08134" lon="3.07679">
        <ele>754.6</ele>
        <time>2019-05-31T09:06:28Z</time>
      </trkpt>
      <trkpt lat="44.08136" lon="3.07684">
        <ele>754.9</ele>
        <time>2019-05-31T09:06:30Z</time>
      </trkpt>
      <trkpt lat="44.08138" lon="3.07689">
        <ele>755.2</ele>
        <time>2019-05-31T09:06:32Z</time>
      </trkpt>
      <trkpt lat="44.08139" lon="3.07695">
        <ele>755.6</ele>
        <time>2019-05-31T09:06:34Z</time>
      </trkpt>
      <trkpt lat="44.0814" lon="3.077">
        <ele>755.9</ele>
        <time>2019-05-31T09:06:36Z</time>
      </trkpt>
      <trkpt lat="44.08141" lon="3.07706">
        <ele>756.3</ele>
        <time>2019-05-31T09:06:38Z</time>
      </trkpt>
      <trkpt lat="44.08142" lon="3.07711">
        <ele>756.5</ele>
        <time>2019-05-31T09:06:40Z</time>
      </trkpt>
      <trkpt lat="44.08144" lon="3.07716">
        <ele>756.8</ele>
        <time>2019-05-31T09:06:42Z</time>
      </trkpt>
      <trkpt lat="44.08145" lon="3.0772">
        <ele>757.1</ele>
        <time>2019-05-31T09:06:44Z</time>
      </trkpt>
      <trkpt lat="44.08146" lon="3.07725">
        <ele>757.3</ele>
        <time>2019-05-31T09:06:46Z</time>
      </trkpt>
      <trkpt lat="44.08149" lon="3.07729">
        <ele>757.6</ele>
        <time>2019-05-31T09:06:48Z</time>
      </trkpt>
      <trkpt lat="44.08152" lon="3.07732">
        <ele>757.8</ele>
        <time>2019-05-31T09:06:50Z</time>
      </trkpt>
      <trkpt lat="44.08155" lon="3.07736">
        <ele>758.1</ele>
        <time>2019-05-31T09:06:52Z</time>
      </trkpt>
      <trkpt lat="44.08157" lon="3.07742">
        <ele>758.3</ele>
        <time>2019-05-31T09:06:54Z</time>
      </trkpt>
      <trkpt lat="44.0816" lon="3.07748">
        <ele>758.6</ele>
        <time>2019-05-31T09:06:56Z</time>
      </trkpt>
      <trkpt lat="44.08161" lon="3.07753">
        <ele>758.9</ele>
        <time>2019-05-31T09:06:58Z</time>
      </trkpt>
      <trkpt lat="44.08162" lon="3.07759">
        <ele>759.2</ele>
        <time>2019-05-31T09:07:00Z</time>
      </trkpt>
      <trkpt lat="44.08163" lon="3.07764">
        <ele>759.5</ele>
        <time>2019-05-31T09:07:02Z</time>
      </trkpt>
      <trkpt lat="44.08164" lon="3.07768">
        <ele>759.7</ele>
        <time>2019-05-31T09:07:04Z</time>
      </trkpt>
      <trkpt lat="44.08164" lon="3.07773">
        <ele>759.9</ele>
        <time>2019-05-31T09:07:06Z</time>
      </trkpt>
      <trkpt lat="44.08165" lon="3.07778">
        <ele>760.1</ele>
        <time>2019-05-31T09:07:08Z</time>
      </trkpt>
      <trkpt lat="44.08166" lon="3.07784">
        <ele>760.5</ele>
        <time>2019-05-31T09:07:10Z</time>
      </trkpt>
      <trkpt lat="44.08167" lon="3.0779">
        <ele>760.8</ele>
        <time>2019-05-31T09:07:12Z</time>
      </trkpt>
      <trkpt lat="44.08169" lon="3.07795">
        <ele>761.1</ele>
        <time>2019-05-31T09:07:14Z</time>
      </trkpt>
      <trkpt lat="44.08172" lon="3.078">
        <ele>761.4</ele>
        <time>2019-05-31T09:07:16Z</time>
      </trkpt>
      <trkpt lat="44.08174" lon="3.07803">
        <ele>761.7</ele>
        <time>2019-05-31T09:07:18Z</time>
      </trkpt>
      <trkpt lat="44.08177" lon="3.07807">
        <ele>762.1</ele>
        <time>2019-05-31T09:07:20Z</time>
      </trkpt>
      <trkpt lat="44.08179" lon="3.07811">
        <ele>762.3</ele>
        <time>2019-05-31T09:07:22Z</time>
      </trkpt>
      <trkpt lat="44.08182" lon="3.07816">
        <ele>762.5</ele>
        <time>2019-05-31T09:07:24Z</time>
      </trkpt>
      <trkpt lat="44.08184" lon="3.07821">
        <ele>762.7</ele>
        <time>2019-05-31T09:07:26Z</time>
      </trkpt>
      <trkpt lat="44.08185" lon="3.07825">
        <ele>762.9</ele>
        <time>2019-05-31T09:07:28Z</time>
      </trkpt>
      <trkpt lat="44.08187" lon="3.07831">
        <ele>763.1</ele>
        <time>2019-05-31T09:07:30Z</time>
      </trkpt>
      <trkpt lat="44.08189" lon="3.07836">
        <ele>763.4</ele>
        <time>2019-05-31T09:07:32Z</time>
      </trkpt>
      <trkpt lat="44.08192" lon="3.07842">
        <ele>763.5</ele>
        <time>2019-05-31T09:07:34Z</time>
      </trkpt>
      <trkpt lat="44.08194" lon="3.07845">
        <ele>763.6</ele>
        <time>2019-05-31T09:07:35Z</time>
      </trkpt>
      <trkpt lat="44.08195" lon="3.07849">
        <ele>763.7</ele>
        <time>2019-05-31T09:07:36Z</time>
      </trkpt>
      <trkpt lat="44.08197" lon="3.07853">
        <ele>763.8</ele>
        <time>2019-05-31T09:07:37Z</time>
      </trkpt>
      <trkpt lat="44.08199" lon="3.07856">
        <ele>763.9</ele>
        <time>2019-05-31T09:07:38Z</time>
      </trkpt>
      <trkpt lat="44.08202" lon="3.07862">
        <ele>764.1</ele>
        <time>2019-05-31T09:07:40Z</time>
      </trkpt>
      <trkpt lat="44.08204" lon="3.07868">
        <ele>764.2</ele>
        <time>2019-05-31T09:07:42Z</time>
      </trkpt>
      <trkpt lat="44.08207" lon="3.07875">
        <ele>764.4</ele>
        <time>2019-05-31T09:07:44Z</time>
      </trkpt>
      <trkpt lat="44.08209" lon="3.07881">
        <ele>764.5</ele>
        <time>2019-05-31T09:07:46Z</time>
      </trkpt>
      <trkpt lat="44.0821" lon="3.07884">
        <ele>764.6</ele>
        <time>2019-05-31T09:07:47Z</time>
      </trkpt>
      <trkpt lat="44.08213" lon="3.07891">
        <ele>764.7</ele>
        <time>2019-05-31T09:07:49Z</time>
      </trkpt>
      <trkpt lat="44.08214" lon="3.07895">
        <ele>764.8</ele>
        <time>2019-05-31T09:07:50Z</time>
      </trkpt>
      <trkpt lat="44.08216" lon="3.07902">
        <ele>764.9</ele>
        <time>2019-05-31T09:07:52Z</time>
      </trkpt>
      <trkpt lat="44.08217" lon="3.07906">
        <ele>765</ele>
        <time>2019-05-31T09:07:53Z</time>
      </trkpt>
      <trkpt lat="44.08219" lon="3.07909">
        <ele>765.1</ele>
        <time>2019-05-31T09:07:54Z</time>
      </trkpt>
      <trkpt lat="44.0822" lon="3.07913">
        <ele>765.3</ele>
        <time>2019-05-31T09:07:55Z</time>
      </trkpt>
      <trkpt lat="44.08222" lon="3.07917">
        <ele>765.7</ele>
        <time>2019-05-31T09:07:56Z</time>
      </trkpt>
      <trkpt lat="44.08224" lon="3.07921">
        <ele>766.1</ele>
        <time>2019-05-31T09:07:57Z</time>
      </trkpt>
      <trkpt lat="44.08225" lon="3.07925">
        <ele>766.5</ele>
        <time>2019-05-31T09:07:58Z</time>
      </trkpt>
      <trkpt lat="44.08225" lon="3.07929">
        <ele>766.8</ele>
        <time>2019-05-31T09:07:59Z</time>
      </trkpt>
      <trkpt lat="44.08226" lon="3.07934">
        <ele>767.2</ele>
        <time>2019-05-31T09:08:00Z</time>
      </trkpt>
      <trkpt lat="44.08226" lon="3.07938">
        <ele>767.6</ele>
        <time>2019-05-31T09:08:01Z</time>
      </trkpt>
      <trkpt lat="44.08227" lon="3.07942">
        <ele>767.9</ele>
        <time>2019-05-31T09:08:02Z</time>
      </trkpt>
      <trkpt lat="44.08227" lon="3.07946">
        <ele>768.2</ele>
        <time>2019-05-31T09:08:03Z</time>
      </trkpt>
      <trkpt lat="44.08226" lon="3.0795">
        <ele>768.5</ele>
        <time>2019-05-31T09:08:04Z</time>
      </trkpt>
      <trkpt lat="44.08225" lon="3.07956">
        <ele>768.9</ele>
        <time>2019-05-31T09:08:06Z</time>
      </trkpt>
      <trkpt lat="44.08225" lon="3.07962">
        <ele>769.3</ele>
        <time>2019-05-31T09:08:08Z</time>
      </trkpt>
      <trkpt lat="44.08221" lon="3.07966">
        <ele>769.7</ele>
        <time>2019-05-31T09:08:11Z</time>
      </trkpt>
      <trkpt lat="44.08218" lon="3.07968">
        <ele>770.1</ele>
        <time>2019-05-31T09:08:13Z</time>
      </trkpt>
      <trkpt lat="44.08215" lon="3.07973">
        <ele>770.5</ele>
        <time>2019-05-31T09:08:15Z</time>
      </trkpt>
      <trkpt lat="44.08216" lon="3.07979">
        <ele>770.9</ele>
        <time>2019-05-31T09:08:17Z</time>
      </trkpt>
      <trkpt lat="44.08217" lon="3.07984">
        <ele>771.2</ele>
        <time>2019-05-31T09:08:18Z</time>
      </trkpt>
      <trkpt lat="44.08217" lon="3.07989">
        <ele>771.4</ele>
        <time>2019-05-31T09:08:19Z</time>
      </trkpt>
      <trkpt lat="44.08218" lon="3.07993">
        <ele>771.7</ele>
        <time>2019-05-31T09:08:20Z</time>
      </trkpt>
      <trkpt lat="44.08218" lon="3.07997">
        <ele>771.9</ele>
        <time>2019-05-31T09:08:21Z</time>
      </trkpt>
      <trkpt lat="44.08219" lon="3.08003">
        <ele>772.3</ele>
        <time>2019-05-31T09:08:22Z</time>
      </trkpt>
      <trkpt lat="44.08219" lon="3.08008">
        <ele>772.6</ele>
        <time>2019-05-31T09:08:23Z</time>
      </trkpt>
      <trkpt lat="44.08219" lon="3.08012">
        <ele>772.9</ele>
        <time>2019-05-31T09:08:24Z</time>
      </trkpt>
      <trkpt lat="44.08218" lon="3.08016">
        <ele>773.2</ele>
        <time>2019-05-31T09:08:25Z</time>
      </trkpt>
      <trkpt lat="44.08217" lon="3.0802">
        <ele>773.6</ele>
        <time>2019-05-31T09:08:26Z</time>
      </trkpt>
      <trkpt lat="44.08216" lon="3.08027">
        <ele>774.2</ele>
        <time>2019-05-31T09:08:28Z</time>
      </trkpt>
      <trkpt lat="44.08215" lon="3.08031">
        <ele>774.6</ele>
        <time>2019-05-31T09:08:29Z</time>
      </trkpt>
      <trkpt lat="44.08215" lon="3.08037">
        <ele>775.4</ele>
        <time>2019-05-31T09:08:31Z</time>
      </trkpt>
      <trkpt lat="44.08216" lon="3.08041">
        <ele>775.9</ele>
        <time>2019-05-31T09:08:32Z</time>
      </trkpt>
      <trkpt lat="44.08216" lon="3.08046">
        <ele>776.5</ele>
        <time>2019-05-31T09:08:33Z</time>
      </trkpt>
      <trkpt lat="44.08217" lon="3.08052">
        <ele>777.5</ele>
        <time>2019-05-31T09:08:35Z</time>
      </trkpt>
      <trkpt lat="44.08217" lon="3.08059">
        <ele>778.5</ele>
        <time>2019-05-31T09:08:37Z</time>
      </trkpt>
      <trkpt lat="44.08216" lon="3.08065">
        <ele>779.5</ele>
        <time>2019-05-31T09:08:39Z</time>
      </trkpt>
      <trkpt lat="44.08212" lon="3.08068">
        <ele>780.2</ele>
        <time>2019-05-31T09:08:41Z</time>
      </trkpt>
      <trkpt lat="44.08209" lon="3.08071">
        <ele>780.8</ele>
        <time>2019-05-31T09:08:43Z</time>
      </trkpt>
      <trkpt lat="44.08206" lon="3.08077">
        <ele>781.6</ele>
        <time>2019-05-31T09:08:45Z</time>
      </trkpt>
      <trkpt lat="44.08205" lon="3.08081">
        <ele>782</ele>
        <time>2019-05-31T09:08:47Z</time>
      </trkpt>
      <trkpt lat="44.08203" lon="3.08086">
        <ele>782.7</ele>
        <time>2019-05-31T09:08:50Z</time>
      </trkpt>
      <trkpt lat="44.082" lon="3.08088">
        <ele>783.2</ele>
        <time>2019-05-31T09:08:52Z</time>
      </trkpt>
      <trkpt lat="44.08198" lon="3.0809">
        <ele>783.7</ele>
        <time>2019-05-31T09:08:53Z</time>
      </trkpt>
      <trkpt lat="44.08194" lon="3.08093">
        <ele>784.4</ele>
        <time>2019-05-31T09:08:55Z</time>
      </trkpt>
      <trkpt lat="44.0819" lon="3.08096">
        <ele>785</ele>
        <time>2019-05-31T09:08:57Z</time>
      </trkpt>
      <trkpt lat="44.08187" lon="3.081">
        <ele>785.7</ele>
        <time>2019-05-31T09:08:59Z</time>
      </trkpt>
      <trkpt lat="44.08184" lon="3.08106">
        <ele>786.3</ele>
        <time>2019-05-31T09:09:01Z</time>
      </trkpt>
      <trkpt lat="44.08184" lon="3.08109">
        <ele>787.3</ele>
        <time>2019-05-31T09:09:02Z</time>
      </trkpt>
      <trkpt lat="44.08184" lon="3.08114">
        <ele>787.6</ele>
        <time>2019-05-31T09:09:03Z</time>
      </trkpt>
      <trkpt lat="44.08184" lon="3.08118">
        <ele>787.8</ele>
        <time>2019-05-31T09:09:04Z</time>
      </trkpt>
      <trkpt lat="44.08184" lon="3.08122">
        <ele>788.1</ele>
        <time>2019-05-31T09:09:05Z</time>
      </trkpt>
      <trkpt lat="44.08182" lon="3.08129">
        <ele>788.5</ele>
        <time>2019-05-31T09:09:07Z</time>
      </trkpt>
      <trkpt lat="44.0818" lon="3.08132">
        <ele>788.7</ele>
        <time>2019-05-31T09:09:08Z</time>
      </trkpt>
      <trkpt lat="44.08176" lon="3.08137">
        <ele>789.2</ele>
        <time>2019-05-31T09:09:10Z</time>
      </trkpt>
      <trkpt lat="44.08175" lon="3.08141">
        <ele>789.4</ele>
        <time>2019-05-31T09:09:11Z</time>
      </trkpt>
      <trkpt lat="44.08174" lon="3.08145">
        <ele>789.6</ele>
        <time>2019-05-31T09:09:12Z</time>
      </trkpt>
      <trkpt lat="44.08174" lon="3.0815">
        <ele>789.8</ele>
        <time>2019-05-31T09:09:13Z</time>
      </trkpt>
      <trkpt lat="44.08174" lon="3.08154">
        <ele>790</ele>
        <time>2019-05-31T09:09:14Z</time>
      </trkpt>
      <trkpt lat="44.08175" lon="3.08158">
        <ele>790.1</ele>
        <time>2019-05-31T09:09:15Z</time>
      </trkpt>
      <trkpt lat="44.08177" lon="3.08165">
        <ele>790.3</ele>
        <time>2019-05-31T09:09:17Z</time>
      </trkpt>
      <trkpt lat="44.08178" lon="3.08169">
        <ele>790.4</ele>
        <time>2019-05-31T09:09:18Z</time>
      </trkpt>
      <trkpt lat="44.08179" lon="3.08173">
        <ele>790.5</ele>
        <time>2019-05-31T09:09:19Z</time>
      </trkpt>
      <trkpt lat="44.08179" lon="3.08179">
        <ele>790.7</ele>
        <time>2019-05-31T09:09:21Z</time>
      </trkpt>
      <trkpt lat="44.08178" lon="3.08183">
        <ele>790.8</ele>
        <time>2019-05-31T09:09:22Z</time>
      </trkpt>
      <trkpt lat="44.08175" lon="3.08189">
        <ele>791</ele>
        <time>2019-05-31T09:09:24Z</time>
      </trkpt>
      <trkpt lat="44.08174" lon="3.08195">
        <ele>791.1</ele>
        <time>2019-05-31T09:09:26Z</time>
      </trkpt>
      <trkpt lat="44.08175" lon="3.082">
        <ele>791.2</ele>
        <time>2019-05-31T09:09:28Z</time>
      </trkpt>
      <trkpt lat="44.08175" lon="3.08206">
        <ele>791.4</ele>
        <time>2019-05-31T09:09:30Z</time>
      </trkpt>
      <trkpt lat="44.08176" lon="3.08212">
        <ele>791.4</ele>
        <time>2019-05-31T09:09:32Z</time>
      </trkpt>
      <trkpt lat="44.08176" lon="3.08217">
        <ele>791.5</ele>
        <time>2019-05-31T09:09:34Z</time>
      </trkpt>
      <trkpt lat="44.08176" lon="3.08221">
        <ele>791.5</ele>
        <time>2019-05-31T09:09:36Z</time>
      </trkpt>
      <trkpt lat="44.08177" lon="3.08225">
        <ele>791.6</ele>
        <time>2019-05-31T09:09:38Z</time>
      </trkpt>
      <trkpt lat="44.08176" lon="3.08222">
        <ele>791.6</ele>
        <time>2019-05-31T09:09:47Z</time>
      </trkpt>
      <trkpt lat="44.08174" lon="3.08226">
        <ele>791.7</ele>
        <time>2019-05-31T09:10:05Z</time>
      </trkpt>
      <trkpt lat="44.08171" lon="3.08232">
        <ele>791.8</ele>
        <time>2019-05-31T09:10:07Z</time>
      </trkpt>
      <trkpt lat="44.08168" lon="3.08237">
        <ele>791.8</ele>
        <time>2019-05-31T09:10:09Z</time>
      </trkpt>
      <trkpt lat="44.08165" lon="3.0824">
        <ele>791.8</ele>
        <time>2019-05-31T09:10:10Z</time>
      </trkpt>
      <trkpt lat="44.08163" lon="3.08242">
        <ele>791.9</ele>
        <time>2019-05-31T09:10:11Z</time>
      </trkpt>
      <trkpt lat="44.0816" lon="3.08244">
        <ele>791.9</ele>
        <time>2019-05-31T09:10:12Z</time>
      </trkpt>
      <trkpt lat="44.08156" lon="3.08244">
        <ele>791.9</ele>
        <time>2019-05-31T09:10:13Z</time>
      </trkpt>
      <trkpt lat="44.08153" lon="3.08246">
        <ele>791.9</ele>
        <time>2019-05-31T09:10:14Z</time>
      </trkpt>
      <trkpt lat="44.0815" lon="3.08249">
        <ele>791.8</ele>
        <time>2019-05-31T09:10:15Z</time>
      </trkpt>
      <trkpt lat="44.08148" lon="3.08254">
        <ele>791.8</ele>
        <time>2019-05-31T09:10:16Z</time>
      </trkpt>
      <trkpt lat="44.08148" lon="3.0827">
        <ele>791.7</ele>
        <time>2019-05-31T09:10:17Z</time>
      </trkpt>
      <trkpt lat="44.08147" lon="3.08283">
        <ele>791.6</ele>
        <time>2019-05-31T09:10:18Z</time>
      </trkpt>
      <trkpt lat="44.08146" lon="3.0829">
        <ele>791.5</ele>
        <time>2019-05-31T09:10:19Z</time>
      </trkpt>
      <trkpt lat="44.08144" lon="3.08298">
        <ele>791.4</ele>
        <time>2019-05-31T09:10:20Z</time>
      </trkpt>
      <trkpt lat="44.0814" lon="3.08305">
        <ele>791.3</ele>
        <time>2019-05-31T09:10:21Z</time>
      </trkpt>
      <trkpt lat="44.08137" lon="3.08315">
        <ele>791.1</ele>
        <time>2019-05-31T09:10:22Z</time>
      </trkpt>
      <trkpt lat="44.08132" lon="3.08321">
        <ele>791</ele>
        <time>2019-05-31T09:10:23Z</time>
      </trkpt>
      <trkpt lat="44.08128" lon="3.08329">
        <ele>790.9</ele>
        <time>2019-05-31T09:10:24Z</time>
      </trkpt>
      <trkpt lat="44.08123" lon="3.08336">
        <ele>790.4</ele>
        <time>2019-05-31T09:10:25Z</time>
      </trkpt>
      <trkpt lat="44.08118" lon="3.08351">
        <ele>789.8</ele>
        <time>2019-05-31T09:10:26Z</time>
      </trkpt>
      <trkpt lat="44.08115" lon="3.08358">
        <ele>789.5</ele>
        <time>2019-05-31T09:10:27Z</time>
      </trkpt>
      <trkpt lat="44.08111" lon="3.08363">
        <ele>789.1</ele>
        <time>2019-05-31T09:10:28Z</time>
      </trkpt>
      <trkpt lat="44.08107" lon="3.08369">
        <ele>788.8</ele>
        <time>2019-05-31T09:10:29Z</time>
      </trkpt>
      <trkpt lat="44.08104" lon="3.08375">
        <ele>788.4</ele>
        <time>2019-05-31T09:10:30Z</time>
      </trkpt>
      <trkpt lat="44.081" lon="3.08385">
        <ele>787.9</ele>
        <time>2019-05-31T09:10:31Z</time>
      </trkpt>
      <trkpt lat="44.08098" lon="3.08394">
        <ele>787.4</ele>
        <time>2019-05-31T09:10:32Z</time>
      </trkpt>
      <trkpt lat="44.08095" lon="3.08405">
        <ele>786.9</ele>
        <time>2019-05-31T09:10:33Z</time>
      </trkpt>
      <trkpt lat="44.08093" lon="3.08415">
        <ele>786.4</ele>
        <time>2019-05-31T09:10:34Z</time>
      </trkpt>
      <trkpt lat="44.08088" lon="3.08422">
        <ele>786</ele>
        <time>2019-05-31T09:10:35Z</time>
      </trkpt>
      <trkpt lat="44.08083" lon="3.08428">
        <ele>785.6</ele>
        <time>2019-05-31T09:10:36Z</time>
      </trkpt>
      <trkpt lat="44.08081" lon="3.08436">
        <ele>785.3</ele>
        <time>2019-05-31T09:10:37Z</time>
      </trkpt>
      <trkpt lat="44.08077" lon="3.08445">
        <ele>784.9</ele>
        <time>2019-05-31T09:10:38Z</time>
      </trkpt>
      <trkpt lat="44.08074" lon="3.08454">
        <ele>784.5</ele>
        <time>2019-05-31T09:10:39Z</time>
      </trkpt>
      <trkpt lat="44.08069" lon="3.08461">
        <ele>784.2</ele>
        <time>2019-05-31T09:10:40Z</time>
      </trkpt>
      <trkpt lat="44.08067" lon="3.08469">
        <ele>784</ele>
        <time>2019-05-31T09:10:41Z</time>
      </trkpt>
      <trkpt lat="44.08065" lon="3.08477">
        <ele>783.7</ele>
        <time>2019-05-31T09:10:42Z</time>
      </trkpt>
      <trkpt lat="44.08062" lon="3.08485">
        <ele>783.5</ele>
        <time>2019-05-31T09:10:43Z</time>
      </trkpt>
      <trkpt lat="44.08061" lon="3.08493">
        <ele>783.2</ele>
        <time>2019-05-31T09:10:44Z</time>
      </trkpt>
      <trkpt lat="44.08062" lon="3.08502">
        <ele>783</ele>
        <time>2019-05-31T09:10:45Z</time>
      </trkpt>
      <trkpt lat="44.08061" lon="3.08512">
        <ele>782.9</ele>
        <time>2019-05-31T09:10:46Z</time>
      </trkpt>
      <trkpt lat="44.0806" lon="3.08521">
        <ele>782.7</ele>
        <time>2019-05-31T09:10:47Z</time>
      </trkpt>
      <trkpt lat="44.08059" lon="3.08533">
        <ele>782.5</ele>
        <time>2019-05-31T09:10:48Z</time>
      </trkpt>
      <trkpt lat="44.08059" lon="3.08545">
        <ele>782.1</ele>
        <time>2019-05-31T09:10:49Z</time>
      </trkpt>
      <trkpt lat="44.08058" lon="3.08557">
        <ele>781.8</ele>
        <time>2019-05-31T09:10:50Z</time>
      </trkpt>
      <trkpt lat="44.08058" lon="3.08567">
        <ele>781.5</ele>
        <time>2019-05-31T09:10:51Z</time>
      </trkpt>
      <trkpt lat="44.08059" lon="3.08576">
        <ele>781.2</ele>
        <time>2019-05-31T09:10:52Z</time>
      </trkpt>
      <trkpt lat="44.08061" lon="3.08583">
        <ele>780.9</ele>
        <time>2019-05-31T09:10:53Z</time>
      </trkpt>
      <trkpt lat="44.08062" lon="3.08592">
        <ele>780.6</ele>
        <time>2019-05-31T09:10:54Z</time>
      </trkpt>
      <trkpt lat="44.08063" lon="3.08602">
        <ele>780.3</ele>
        <time>2019-05-31T09:10:55Z</time>
      </trkpt>
      <trkpt lat="44.08063" lon="3.08612">
        <ele>779.8</ele>
        <time>2019-05-31T09:10:56Z</time>
      </trkpt>
      <trkpt lat="44.08064" lon="3.08622">
        <ele>779.3</ele>
        <time>2019-05-31T09:10:57Z</time>
      </trkpt>
      <trkpt lat="44.08066" lon="3.08631">
        <ele>778.9</ele>
        <time>2019-05-31T09:10:58Z</time>
      </trkpt>
      <trkpt lat="44.08063" lon="3.0864">
        <ele>778.5</ele>
        <time>2019-05-31T09:10:59Z</time>
      </trkpt>
      <trkpt lat="44.08062" lon="3.0865">
        <ele>778</ele>
        <time>2019-05-31T09:11:00Z</time>
      </trkpt>
      <trkpt lat="44.08058" lon="3.08657">
        <ele>777.6</ele>
        <time>2019-05-31T09:11:01Z</time>
      </trkpt>
      <trkpt lat="44.08056" lon="3.08666">
        <ele>777.2</ele>
        <time>2019-05-31T09:11:02Z</time>
      </trkpt>
      <trkpt lat="44.08052" lon="3.08675">
        <ele>776.7</ele>
        <time>2019-05-31T09:11:03Z</time>
      </trkpt>
      <trkpt lat="44.0805" lon="3.08689">
        <ele>776</ele>
        <time>2019-05-31T09:11:04Z</time>
      </trkpt>
      <trkpt lat="44.08047" lon="3.08698">
        <ele>775.5</ele>
        <time>2019-05-31T09:11:05Z</time>
      </trkpt>
      <trkpt lat="44.08046" lon="3.08705">
        <ele>774.9</ele>
        <time>2019-05-31T09:11:06Z</time>
      </trkpt>
      <trkpt lat="44.08045" lon="3.08713">
        <ele>774.4</ele>
        <time>2019-05-31T09:11:07Z</time>
      </trkpt>
      <trkpt lat="44.08043" lon="3.0872">
        <ele>773.9</ele>
        <time>2019-05-31T09:11:08Z</time>
      </trkpt>
      <trkpt lat="44.0804" lon="3.08728">
        <ele>773.3</ele>
        <time>2019-05-31T09:11:09Z</time>
      </trkpt>
      <trkpt lat="44.08037" lon="3.08737">
        <ele>772.8</ele>
        <time>2019-05-31T09:11:10Z</time>
      </trkpt>
      <trkpt lat="44.08032" lon="3.08745">
        <ele>772.2</ele>
        <time>2019-05-31T09:11:11Z</time>
      </trkpt>
      <trkpt lat="44.08026" lon="3.08748">
        <ele>771.7</ele>
        <time>2019-05-31T09:11:12Z</time>
      </trkpt>
      <trkpt lat="44.08023" lon="3.08759">
        <ele>771</ele>
        <time>2019-05-31T09:11:13Z</time>
      </trkpt>
      <trkpt lat="44.0802" lon="3.08768">
        <ele>770.4</ele>
        <time>2019-05-31T09:11:14Z</time>
      </trkpt>
      <trkpt lat="44.08017" lon="3.08774">
        <ele>769.9</ele>
        <time>2019-05-31T09:11:15Z</time>
      </trkpt>
      <trkpt lat="44.08015" lon="3.08779">
        <ele>769.6</ele>
        <time>2019-05-31T09:11:16Z</time>
      </trkpt>
      <trkpt lat="44.08013" lon="3.08783">
        <ele>769.2</ele>
        <time>2019-05-31T09:11:17Z</time>
      </trkpt>
      <trkpt lat="44.08012" lon="3.08788">
        <ele>768.9</ele>
        <time>2019-05-31T09:11:18Z</time>
      </trkpt>
      <trkpt lat="44.08012" lon="3.08795">
        <ele>768.4</ele>
        <time>2019-05-31T09:11:19Z</time>
      </trkpt>
      <trkpt lat="44.08013" lon="3.08803">
        <ele>767.8</ele>
        <time>2019-05-31T09:11:20Z</time>
      </trkpt>
      <trkpt lat="44.08012" lon="3.08809">
        <ele>767.3</ele>
        <time>2019-05-31T09:11:21Z</time>
      </trkpt>
      <trkpt lat="44.08011" lon="3.08816">
        <ele>766.7</ele>
        <time>2019-05-31T09:11:22Z</time>
      </trkpt>
      <trkpt lat="44.08011" lon="3.08823">
        <ele>766.1</ele>
        <time>2019-05-31T09:11:23Z</time>
      </trkpt>
      <trkpt lat="44.0801" lon="3.08829">
        <ele>765.5</ele>
        <time>2019-05-31T09:11:24Z</time>
      </trkpt>
      <trkpt lat="44.0801" lon="3.08837">
        <ele>764.8</ele>
        <time>2019-05-31T09:11:25Z</time>
      </trkpt>
      <trkpt lat="44.08009" lon="3.08844">
        <ele>764.3</ele>
        <time>2019-05-31T09:11:26Z</time>
      </trkpt>
      <trkpt lat="44.0801" lon="3.0885">
        <ele>763.8</ele>
        <time>2019-05-31T09:11:27Z</time>
      </trkpt>
      <trkpt lat="44.0801" lon="3.08857">
        <ele>763.1</ele>
        <time>2019-05-31T09:11:28Z</time>
      </trkpt>
      <trkpt lat="44.08009" lon="3.08862">
        <ele>762.4</ele>
        <time>2019-05-31T09:11:29Z</time>
      </trkpt>
      <trkpt lat="44.08008" lon="3.08866">
        <ele>762</ele>
        <time>2019-05-31T09:11:30Z</time>
      </trkpt>
      <trkpt lat="44.08007" lon="3.0887">
        <ele>761.5</ele>
        <time>2019-05-31T09:11:34Z</time>
      </trkpt>
      <trkpt lat="44.08009" lon="3.08874">
        <ele>760.8</ele>
        <time>2019-05-31T09:11:36Z</time>
      </trkpt>
      <trkpt lat="44.08007" lon="3.08878">
        <ele>760.1</ele>
        <time>2019-05-31T09:12:01Z</time>
      </trkpt>
      <trkpt lat="44.08004" lon="3.08882">
        <ele>759</ele>
        <time>2019-05-31T09:12:03Z</time>
      </trkpt>
      <trkpt lat="44.07999" lon="3.08887">
        <ele>757.7</ele>
        <time>2019-05-31T09:12:05Z</time>
      </trkpt>
      <trkpt lat="44.07997" lon="3.0889">
        <ele>756.8</ele>
        <time>2019-05-31T09:12:06Z</time>
      </trkpt>
      <trkpt lat="44.07992" lon="3.08898">
        <ele>754.8</ele>
        <time>2019-05-31T09:12:07Z</time>
      </trkpt>
      <trkpt lat="44.07988" lon="3.08906">
        <ele>752.9</ele>
        <time>2019-05-31T09:12:08Z</time>
      </trkpt>
      <trkpt lat="44.07984" lon="3.08913">
        <ele>751.1</ele>
        <time>2019-05-31T09:12:09Z</time>
      </trkpt>
      <trkpt lat="44.0798" lon="3.08924">
        <ele>749.4</ele>
        <time>2019-05-31T09:12:10Z</time>
      </trkpt>
      <trkpt lat="44.07976" lon="3.08934">
        <ele>748.4</ele>
        <time>2019-05-31T09:12:11Z</time>
      </trkpt>
      <trkpt lat="44.07971" lon="3.08942">
        <ele>747.5</ele>
        <time>2019-05-31T09:12:12Z</time>
      </trkpt>
      <trkpt lat="44.07967" lon="3.08952">
        <ele>746.8</ele>
        <time>2019-05-31T09:12:13Z</time>
      </trkpt>
      <trkpt lat="44.07962" lon="3.08961">
        <ele>746.1</ele>
        <time>2019-05-31T09:12:14Z</time>
      </trkpt>
      <trkpt lat="44.07959" lon="3.08972">
        <ele>745.5</ele>
        <time>2019-05-31T09:12:15Z</time>
      </trkpt>
      <trkpt lat="44.07955" lon="3.08982">
        <ele>745</ele>
        <time>2019-05-31T09:12:16Z</time>
      </trkpt>
      <trkpt lat="44.07952" lon="3.08991">
        <ele>744.5</ele>
        <time>2019-05-31T09:12:17Z</time>
      </trkpt>
      <trkpt lat="44.07948" lon="3.09">
        <ele>743.9</ele>
        <time>2019-05-31T09:12:18Z</time>
      </trkpt>
      <trkpt lat="44.07945" lon="3.09011">
        <ele>743.4</ele>
        <time>2019-05-31T09:12:19Z</time>
      </trkpt>
      <trkpt lat="44.07942" lon="3.09026">
        <ele>742.5</ele>
        <time>2019-05-31T09:12:20Z</time>
      </trkpt>
      <trkpt lat="44.07938" lon="3.09037">
        <ele>741.9</ele>
        <time>2019-05-31T09:12:21Z</time>
      </trkpt>
      <trkpt lat="44.07934" lon="3.09046">
        <ele>741.2</ele>
        <time>2019-05-31T09:12:22Z</time>
      </trkpt>
      <trkpt lat="44.0793" lon="3.0906">
        <ele>740.6</ele>
        <time>2019-05-31T09:12:23Z</time>
      </trkpt>
      <trkpt lat="44.07927" lon="3.09071">
        <ele>740.2</ele>
        <time>2019-05-31T09:12:24Z</time>
      </trkpt>
      <trkpt lat="44.07923" lon="3.09083">
        <ele>739.8</ele>
        <time>2019-05-31T09:12:25Z</time>
      </trkpt>
      <trkpt lat="44.07918" lon="3.09093">
        <ele>739.2</ele>
        <time>2019-05-31T09:12:26Z</time>
      </trkpt>
      <trkpt lat="44.07913" lon="3.09102">
        <ele>738.6</ele>
        <time>2019-05-31T09:12:27Z</time>
      </trkpt>
      <trkpt lat="44.07907" lon="3.09112">
        <ele>738</ele>
        <time>2019-05-31T09:12:28Z</time>
      </trkpt>
      <trkpt lat="44.07902" lon="3.09122">
        <ele>737.3</ele>
        <time>2019-05-31T09:12:29Z</time>
      </trkpt>
      <trkpt lat="44.07897" lon="3.0913">
        <ele>736.5</ele>
        <time>2019-05-31T09:12:30Z</time>
      </trkpt>
      <trkpt lat="44.07891" lon="3.09136">
        <ele>735.6</ele>
        <time>2019-05-31T09:12:31Z</time>
      </trkpt>
      <trkpt lat="44.07886" lon="3.09144">
        <ele>734.6</ele>
        <time>2019-05-31T09:12:32Z</time>
      </trkpt>
      <trkpt lat="44.07882" lon="3.09148">
        <ele>734.2</ele>
        <time>2019-05-31T09:12:33Z</time>
      </trkpt>
      <trkpt lat="44.07877" lon="3.09145">
        <ele>733.7</ele>
        <time>2019-05-31T09:12:35Z</time>
      </trkpt>
      <trkpt lat="44.07873" lon="3.09143">
        <ele>733.3</ele>
        <time>2019-05-31T09:12:38Z</time>
      </trkpt>
      <trkpt lat="44.0787" lon="3.09139">
        <ele>733</ele>
        <time>2019-05-31T09:12:39Z</time>
      </trkpt>
      <trkpt lat="44.07864" lon="3.0914">
        <ele>732.4</ele>
        <time>2019-05-31T09:12:40Z</time>
      </trkpt>
      <trkpt lat="44.07859" lon="3.09143">
        <ele>732.1</ele>
        <time>2019-05-31T09:12:41Z</time>
      </trkpt>
      <trkpt lat="44.07856" lon="3.09145">
        <ele>731.9</ele>
        <time>2019-05-31T09:12:42Z</time>
      </trkpt>
      <trkpt lat="44.07853" lon="3.09149">
        <ele>731.7</ele>
        <time>2019-05-31T09:12:44Z</time>
      </trkpt>
      <trkpt lat="44.07849" lon="3.09145">
        <ele>731.4</ele>
        <time>2019-05-31T09:12:46Z</time>
      </trkpt>
      <trkpt lat="44.07846" lon="3.09146">
        <ele>731.1</ele>
        <time>2019-05-31T09:12:48Z</time>
      </trkpt>
      <trkpt lat="44.07844" lon="3.0915">
        <ele>731</ele>
        <time>2019-05-31T09:12:54Z</time>
      </trkpt>
      <trkpt lat="44.07844" lon="3.09153">
        <ele>730.8</ele>
        <time>2019-05-31T09:12:57Z</time>
      </trkpt>
      <trkpt lat="44.07844" lon="3.09161">
        <ele>730.5</ele>
        <time>2019-05-31T09:13:38Z</time>
      </trkpt>
      <trkpt lat="44.07846" lon="3.09165">
        <ele>730.4</ele>
        <time>2019-05-31T09:13:40Z</time>
      </trkpt>
      <trkpt lat="44.07847" lon="3.09169">
        <ele>730.3</ele>
        <time>2019-05-31T09:13:42Z</time>
      </trkpt>
      <trkpt lat="44.07848" lon="3.09176">
        <ele>730.1</ele>
        <time>2019-05-31T09:13:44Z</time>
      </trkpt>
      <trkpt lat="44.07847" lon="3.09181">
        <ele>730</ele>
        <time>2019-05-31T09:13:45Z</time>
      </trkpt>
      <trkpt lat="44.07846" lon="3.09187">
        <ele>729.9</ele>
        <time>2019-05-31T09:13:46Z</time>
      </trkpt>
      <trkpt lat="44.07846" lon="3.09191">
        <ele>729.8</ele>
        <time>2019-05-31T09:13:47Z</time>
      </trkpt>
      <trkpt lat="44.07846" lon="3.09195">
        <ele>729.7</ele>
        <time>2019-05-31T09:13:48Z</time>
      </trkpt>
      <trkpt lat="44.07849" lon="3.09199">
        <ele>729.6</ele>
        <time>2019-05-31T09:13:49Z</time>
      </trkpt>
      <trkpt lat="44.07859" lon="3.09202">
        <ele>729.3</ele>
        <time>2019-05-31T09:13:50Z</time>
      </trkpt>
      <trkpt lat="44.07862" lon="3.09206">
        <ele>729.2</ele>
        <time>2019-05-31T09:13:51Z</time>
      </trkpt>
      <trkpt lat="44.07865" lon="3.09212">
        <ele>729</ele>
        <time>2019-05-31T09:13:52Z</time>
      </trkpt>
      <trkpt lat="44.07869" lon="3.09219">
        <ele>728.8</ele>
        <time>2019-05-31T09:13:53Z</time>
      </trkpt>
      <trkpt lat="44.07875" lon="3.09227">
        <ele>728.5</ele>
        <time>2019-05-31T09:13:54Z</time>
      </trkpt>
      <trkpt lat="44.07881" lon="3.09235">
        <ele>728.2</ele>
        <time>2019-05-31T09:13:55Z</time>
      </trkpt>
      <trkpt lat="44.07886" lon="3.09241">
        <ele>727.9</ele>
        <time>2019-05-31T09:13:56Z</time>
      </trkpt>
      <trkpt lat="44.07892" lon="3.09248">
        <ele>726.6</ele>
        <time>2019-05-31T09:13:57Z</time>
      </trkpt>
      <trkpt lat="44.07897" lon="3.09251">
        <ele>726.4</ele>
        <time>2019-05-31T09:13:58Z</time>
      </trkpt>
      <trkpt lat="44.07902" lon="3.09255">
        <ele>725.7</ele>
        <time>2019-05-31T09:13:59Z</time>
      </trkpt>
      <trkpt lat="44.07909" lon="3.09254">
        <ele>725.1</ele>
        <time>2019-05-31T09:14:00Z</time>
      </trkpt>
      <trkpt lat="44.07912" lon="3.09256">
        <ele>724.8</ele>
        <time>2019-05-31T09:14:01Z</time>
      </trkpt>
      <trkpt lat="44.07917" lon="3.09258">
        <ele>724.3</ele>
        <time>2019-05-31T09:14:02Z</time>
      </trkpt>
      <trkpt lat="44.07922" lon="3.09259">
        <ele>723.8</ele>
        <time>2019-05-31T09:14:03Z</time>
      </trkpt>
      <trkpt lat="44.07926" lon="3.0926">
        <ele>723.5</ele>
        <time>2019-05-31T09:14:04Z</time>
      </trkpt>
      <trkpt lat="44.0793" lon="3.09261">
        <ele>723.1</ele>
        <time>2019-05-31T09:14:05Z</time>
      </trkpt>
      <trkpt lat="44.07935" lon="3.09262">
        <ele>722.6</ele>
        <time>2019-05-31T09:14:06Z</time>
      </trkpt>
      <trkpt lat="44.07939" lon="3.09263">
        <ele>722.2</ele>
        <time>2019-05-31T09:14:07Z</time>
      </trkpt>
      <trkpt lat="44.07943" lon="3.09265">
        <ele>721.8</ele>
        <time>2019-05-31T09:14:08Z</time>
      </trkpt>
      <trkpt lat="44.07947" lon="3.09266">
        <ele>721.4</ele>
        <time>2019-05-31T09:14:09Z</time>
      </trkpt>
      <trkpt lat="44.07951" lon="3.09268">
        <ele>721</ele>
        <time>2019-05-31T09:14:10Z</time>
      </trkpt>
      <trkpt lat="44.07954" lon="3.09269">
        <ele>720.7</ele>
        <time>2019-05-31T09:14:11Z</time>
      </trkpt>
      <trkpt lat="44.07958" lon="3.09271">
        <ele>720.3</ele>
        <time>2019-05-31T09:14:12Z</time>
      </trkpt>
      <trkpt lat="44.0796" lon="3.09273">
        <ele>720.1</ele>
        <time>2019-05-31T09:14:13Z</time>
      </trkpt>
      <trkpt lat="44.07964" lon="3.09275">
        <ele>719.8</ele>
        <time>2019-05-31T09:14:14Z</time>
      </trkpt>
      <trkpt lat="44.07967" lon="3.09275">
        <ele>719.5</ele>
        <time>2019-05-31T09:14:15Z</time>
      </trkpt>
      <trkpt lat="44.07972" lon="3.09278">
        <ele>719</ele>
        <time>2019-05-31T09:14:17Z</time>
      </trkpt>
      <trkpt lat="44.07975" lon="3.09282">
        <ele>719.3</ele>
        <time>2019-05-31T09:14:19Z</time>
      </trkpt>
      <trkpt lat="44.0798" lon="3.09285">
        <ele>719.6</ele>
        <time>2019-05-31T09:14:21Z</time>
      </trkpt>
      <trkpt lat="44.07982" lon="3.09286">
        <ele>719.8</ele>
        <time>2019-05-31T09:14:22Z</time>
      </trkpt>
      <trkpt lat="44.07985" lon="3.09287">
        <ele>719.9</ele>
        <time>2019-05-31T09:14:23Z</time>
      </trkpt>
      <trkpt lat="44.07988" lon="3.09288">
        <ele>720.1</ele>
        <time>2019-05-31T09:14:24Z</time>
      </trkpt>
      <trkpt lat="44.07991" lon="3.09288">
        <ele>720.2</ele>
        <time>2019-05-31T09:14:25Z</time>
      </trkpt>
      <trkpt lat="44.07994" lon="3.09289">
        <ele>720.4</ele>
        <time>2019-05-31T09:14:26Z</time>
      </trkpt>
      <trkpt lat="44.07997" lon="3.0929">
        <ele>720.5</ele>
        <time>2019-05-31T09:14:27Z</time>
      </trkpt>
      <trkpt lat="44.08" lon="3.0929">
        <ele>720.6</ele>
        <time>2019-05-31T09:14:28Z</time>
      </trkpt>
      <trkpt lat="44.08003" lon="3.0929">
        <ele>720.8</ele>
        <time>2019-05-31T09:14:29Z</time>
      </trkpt>
      <trkpt lat="44.08006" lon="3.0929">
        <ele>720.9</ele>
        <time>2019-05-31T09:14:30Z</time>
      </trkpt>
      <trkpt lat="44.08009" lon="3.0929">
        <ele>721</ele>
        <time>2019-05-31T09:14:31Z</time>
      </trkpt>
      <trkpt lat="44.08011" lon="3.09289">
        <ele>721.1</ele>
        <time>2019-05-31T09:14:32Z</time>
      </trkpt>
      <trkpt lat="44.08014" lon="3.0929">
        <ele>721.2</ele>
        <time>2019-05-31T09:14:33Z</time>
      </trkpt>
      <trkpt lat="44.0802" lon="3.0929">
        <ele>721.4</ele>
        <time>2019-05-31T09:14:35Z</time>
      </trkpt>
      <trkpt lat="44.08025" lon="3.0929">
        <ele>721.5</ele>
        <time>2019-05-31T09:14:37Z</time>
      </trkpt>
      <trkpt lat="44.0803" lon="3.09291">
        <ele>721.7</ele>
        <time>2019-05-31T09:14:39Z</time>
      </trkpt>
      <trkpt lat="44.08035" lon="3.09293">
        <ele>721.8</ele>
        <time>2019-05-31T09:14:41Z</time>
      </trkpt>
      <trkpt lat="44.08039" lon="3.09295">
        <ele>721.9</ele>
        <time>2019-05-31T09:14:43Z</time>
      </trkpt>
      <trkpt lat="44.08044" lon="3.09297">
        <ele>722</ele>
        <time>2019-05-31T09:14:45Z</time>
      </trkpt>
      <trkpt lat="44.08047" lon="3.09298">
        <ele>722.1</ele>
        <time>2019-05-31T09:14:46Z</time>
      </trkpt>
      <trkpt lat="44.0805" lon="3.09297">
        <ele>722.2</ele>
        <time>2019-05-31T09:14:47Z</time>
      </trkpt>
      <trkpt lat="44.08053" lon="3.09296">
        <ele>722.3</ele>
        <time>2019-05-31T09:14:48Z</time>
      </trkpt>
      <trkpt lat="44.08056" lon="3.09295">
        <ele>722.3</ele>
        <time>2019-05-31T09:14:49Z</time>
      </trkpt>
      <trkpt lat="44.08059" lon="3.09292">
        <ele>722.4</ele>
        <time>2019-05-31T09:14:50Z</time>
      </trkpt>
      <trkpt lat="44.08061" lon="3.0929">
        <ele>722.4</ele>
        <time>2019-05-31T09:14:51Z</time>
      </trkpt>
      <trkpt lat="44.08065" lon="3.09288">
        <ele>722.5</ele>
        <time>2019-05-31T09:14:52Z</time>
      </trkpt>
      <trkpt lat="44.08068" lon="3.09286">
        <ele>722.6</ele>
        <time>2019-05-31T09:14:53Z</time>
      </trkpt>
      <trkpt lat="44.08072" lon="3.09285">
        <ele>722.7</ele>
        <time>2019-05-31T09:14:54Z</time>
      </trkpt>
      <trkpt lat="44.08076" lon="3.09284">
        <ele>722.8</ele>
        <time>2019-05-31T09:14:55Z</time>
      </trkpt>
      <trkpt lat="44.0808" lon="3.09283">
        <ele>722.9</ele>
        <time>2019-05-31T09:14:56Z</time>
      </trkpt>
      <trkpt lat="44.08084" lon="3.09282">
        <ele>723.1</ele>
        <time>2019-05-31T09:14:57Z</time>
      </trkpt>
      <trkpt lat="44.08087" lon="3.09282">
        <ele>723.2</ele>
        <time>2019-05-31T09:14:58Z</time>
      </trkpt>
      <trkpt lat="44.0809" lon="3.09281">
        <ele>723.3</ele>
        <time>2019-05-31T09:14:59Z</time>
      </trkpt>
      <trkpt lat="44.08093" lon="3.09281">
        <ele>723.5</ele>
        <time>2019-05-31T09:15:00Z</time>
      </trkpt>
      <trkpt lat="44.08098" lon="3.09281">
        <ele>723.6</ele>
        <time>2019-05-31T09:15:01Z</time>
      </trkpt>
      <trkpt lat="44.08101" lon="3.09279">
        <ele>723.8</ele>
        <time>2019-05-31T09:15:02Z</time>
      </trkpt>
      <trkpt lat="44.08104" lon="3.09278">
        <ele>723.9</ele>
        <time>2019-05-31T09:15:03Z</time>
      </trkpt>
      <trkpt lat="44.08107" lon="3.09276">
        <ele>724</ele>
        <time>2019-05-31T09:15:04Z</time>
      </trkpt>
      <trkpt lat="44.0811" lon="3.09274">
        <ele>724.2</ele>
        <time>2019-05-31T09:15:05Z</time>
      </trkpt>
      <trkpt lat="44.08113" lon="3.09272">
        <ele>724.4</ele>
        <time>2019-05-31T09:15:06Z</time>
      </trkpt>
      <trkpt lat="44.08116" lon="3.09271">
        <ele>724.6</ele>
        <time>2019-05-31T09:15:07Z</time>
      </trkpt>
      <trkpt lat="44.08119" lon="3.09269">
        <ele>724.9</ele>
        <time>2019-05-31T09:15:08Z</time>
      </trkpt>
      <trkpt lat="44.08123" lon="3.09266">
        <ele>725.4</ele>
        <time>2019-05-31T09:15:10Z</time>
      </trkpt>
      <trkpt lat="44.08128" lon="3.09263">
        <ele>726</ele>
        <time>2019-05-31T09:15:12Z</time>
      </trkpt>
      <trkpt lat="44.08131" lon="3.09261">
        <ele>726.5</ele>
        <time>2019-05-31T09:15:14Z</time>
      </trkpt>
      <trkpt lat="44.08134" lon="3.09257">
        <ele>727</ele>
        <time>2019-05-31T09:15:17Z</time>
      </trkpt>
      <trkpt lat="44.08136" lon="3.09254">
        <ele>727.5</ele>
        <time>2019-05-31T09:15:42Z</time>
      </trkpt>
      <trkpt lat="44.08138" lon="3.09251">
        <ele>727.9</ele>
        <time>2019-05-31T09:16:02Z</time>
      </trkpt>
      <trkpt lat="44.0814" lon="3.0925">
        <ele>728.4</ele>
        <time>2019-05-31T09:16:06Z</time>
      </trkpt>
      <trkpt lat="44.08144" lon="3.09248">
        <ele>729</ele>
        <time>2019-05-31T09:16:10Z</time>
      </trkpt>
      <trkpt lat="44.08143" lon="3.09252">
        <ele>729.4</ele>
        <time>2019-05-31T09:18:31Z</time>
      </trkpt>
      <trkpt lat="44.08141" lon="3.09255">
        <ele>729.9</ele>
        <time>2019-05-31T09:18:34Z</time>
      </trkpt>
      <trkpt lat="44.0814" lon="3.09259">
        <ele>730.3</ele>
        <time>2019-05-31T09:18:38Z</time>
      </trkpt>
      <trkpt lat="44.08143" lon="3.09259">
        <ele>730.7</ele>
        <time>2019-05-31T09:19:13Z</time>
      </trkpt>
      <trkpt lat="44.08143" lon="3.09263">
        <ele>731.1</ele>
        <time>2019-05-31T09:19:22Z</time>
      </trkpt>
      <trkpt lat="44.08142" lon="3.09266">
        <ele>731.4</ele>
        <time>2019-05-31T09:19:24Z</time>
      </trkpt>
      <trkpt lat="44.0814" lon="3.09271">
        <ele>731.9</ele>
        <time>2019-05-31T09:19:26Z</time>
      </trkpt>
      <trkpt lat="44.08138" lon="3.09275">
        <ele>732.3</ele>
        <time>2019-05-31T09:19:28Z</time>
      </trkpt>
      <trkpt lat="44.08137" lon="3.09279">
        <ele>732.7</ele>
        <time>2019-05-31T09:19:30Z</time>
      </trkpt>
      <trkpt lat="44.08137" lon="3.09285">
        <ele>733.2</ele>
        <time>2019-05-31T09:19:32Z</time>
      </trkpt>
      <trkpt lat="44.08138" lon="3.0929">
        <ele>733.6</ele>
        <time>2019-05-31T09:19:34Z</time>
      </trkpt>
      <trkpt lat="44.08139" lon="3.09295">
        <ele>733.9</ele>
        <time>2019-05-31T09:19:36Z</time>
      </trkpt>
      <trkpt lat="44.08141" lon="3.093">
        <ele>734.3</ele>
        <time>2019-05-31T09:19:38Z</time>
      </trkpt>
      <trkpt lat="44.08142" lon="3.09306">
        <ele>734.6</ele>
        <time>2019-05-31T09:19:40Z</time>
      </trkpt>
      <trkpt lat="44.08141" lon="3.09311">
        <ele>734.9</ele>
        <time>2019-05-31T09:19:42Z</time>
      </trkpt>
      <trkpt lat="44.0814" lon="3.09316">
        <ele>735.1</ele>
        <time>2019-05-31T09:19:44Z</time>
      </trkpt>
      <trkpt lat="44.08139" lon="3.09321">
        <ele>735.4</ele>
        <time>2019-05-31T09:19:47Z</time>
      </trkpt>
      <trkpt lat="44.08138" lon="3.09325">
        <ele>735.6</ele>
        <time>2019-05-31T09:19:49Z</time>
      </trkpt>
      <trkpt lat="44.08138" lon="3.0933">
        <ele>735.9</ele>
        <time>2019-05-31T09:19:51Z</time>
      </trkpt>
      <trkpt lat="44.08138" lon="3.09335">
        <ele>736.2</ele>
        <time>2019-05-31T09:19:54Z</time>
      </trkpt>
      <trkpt lat="44.08138" lon="3.0934">
        <ele>736.5</ele>
        <time>2019-05-31T09:19:56Z</time>
      </trkpt>
      <trkpt lat="44.08137" lon="3.09345">
        <ele>736.7</ele>
        <time>2019-05-31T09:19:58Z</time>
      </trkpt>
      <trkpt lat="44.08136" lon="3.0935">
        <ele>737</ele>
        <time>2019-05-31T09:20:00Z</time>
      </trkpt>
      <trkpt lat="44.08136" lon="3.09355">
        <ele>737.3</ele>
        <time>2019-05-31T09:20:02Z</time>
      </trkpt>
      <trkpt lat="44.08137" lon="3.09359">
        <ele>737.5</ele>
        <time>2019-05-31T09:20:04Z</time>
      </trkpt>
      <trkpt lat="44.08136" lon="3.09365">
        <ele>737.8</ele>
        <time>2019-05-31T09:20:07Z</time>
      </trkpt>
      <trkpt lat="44.08136" lon="3.09369">
        <ele>738</ele>
        <time>2019-05-31T09:20:09Z</time>
      </trkpt>
      <trkpt lat="44.08137" lon="3.09374">
        <ele>738.2</ele>
        <time>2019-05-31T09:20:12Z</time>
      </trkpt>
      <trkpt lat="44.08138" lon="3.09378">
        <ele>738.4</ele>
        <time>2019-05-31T09:20:14Z</time>
      </trkpt>
      <trkpt lat="44.08138" lon="3.09383">
        <ele>738.6</ele>
        <time>2019-05-31T09:20:16Z</time>
      </trkpt>
      <trkpt lat="44.08137" lon="3.09387">
        <ele>738.7</ele>
        <time>2019-05-31T09:20:18Z</time>
      </trkpt>
      <trkpt lat="44.08137" lon="3.09392">
        <ele>738.9</ele>
        <time>2019-05-31T09:20:20Z</time>
      </trkpt>
      <trkpt lat="44.08136" lon="3.09396">
        <ele>739</ele>
        <time>2019-05-31T09:20:22Z</time>
      </trkpt>
      <trkpt lat="44.08136" lon="3.094">
        <ele>739.1</ele>
        <time>2019-05-31T09:20:25Z</time>
      </trkpt>
      <trkpt lat="44.08137" lon="3.09403">
        <ele>739.2</ele>
        <time>2019-05-31T09:20:27Z</time>
      </trkpt>
      <trkpt lat="44.08138" lon="3.09408">
        <ele>739.3</ele>
        <time>2019-05-31T09:20:29Z</time>
      </trkpt>
      <trkpt lat="44.0814" lon="3.09412">
        <ele>739.4</ele>
        <time>2019-05-31T09:20:31Z</time>
      </trkpt>
      <trkpt lat="44.08141" lon="3.09416">
        <ele>739.4</ele>
        <time>2019-05-31T09:20:33Z</time>
      </trkpt>
      <trkpt lat="44.08142" lon="3.09421">
        <ele>739.4</ele>
        <time>2019-05-31T09:20:35Z</time>
      </trkpt>
      <trkpt lat="44.08142" lon="3.09426">
        <ele>739.4</ele>
        <time>2019-05-31T09:20:37Z</time>
      </trkpt>
      <trkpt lat="44.08143" lon="3.09431">
        <ele>739.4</ele>
        <time>2019-05-31T09:20:39Z</time>
      </trkpt>
      <trkpt lat="44.08144" lon="3.09437">
        <ele>739.3</ele>
        <time>2019-05-31T09:20:41Z</time>
      </trkpt>
      <trkpt lat="44.08144" lon="3.09442">
        <ele>739.2</ele>
        <time>2019-05-31T09:20:43Z</time>
      </trkpt>
      <trkpt lat="44.08144" lon="3.09446">
        <ele>739.1</ele>
        <time>2019-05-31T09:20:45Z</time>
      </trkpt>
      <trkpt lat="44.08143" lon="3.09452">
        <ele>739</ele>
        <time>2019-05-31T09:20:47Z</time>
      </trkpt>
      <trkpt lat="44.08142" lon="3.09457">
        <ele>738.9</ele>
        <time>2019-05-31T09:20:49Z</time>
      </trkpt>
      <trkpt lat="44.0814" lon="3.09463">
        <ele>738.8</ele>
        <time>2019-05-31T09:20:51Z</time>
      </trkpt>
      <trkpt lat="44.08139" lon="3.09468">
        <ele>738.7</ele>
        <time>2019-05-31T09:20:53Z</time>
      </trkpt>
      <trkpt lat="44.08138" lon="3.09475">
        <ele>738.7</ele>
        <time>2019-05-31T09:20:55Z</time>
      </trkpt>
      <trkpt lat="44.08138" lon="3.09481">
        <ele>738.7</ele>
        <time>2019-05-31T09:20:57Z</time>
      </trkpt>
      <trkpt lat="44.08138" lon="3.09485">
        <ele>738.7</ele>
        <time>2019-05-31T09:20:58Z</time>
      </trkpt>
      <trkpt lat="44.08137" lon="3.09489">
        <ele>738.7</ele>
        <time>2019-05-31T09:20:59Z</time>
      </trkpt>
      <trkpt lat="44.08136" lon="3.09493">
        <ele>738.7</ele>
        <time>2019-05-31T09:21:00Z</time>
      </trkpt>
      <trkpt lat="44.08136" lon="3.09498">
        <ele>738.7</ele>
        <time>2019-05-31T09:21:01Z</time>
      </trkpt>
      <trkpt lat="44.08135" lon="3.09502">
        <ele>738.7</ele>
        <time>2019-05-31T09:21:02Z</time>
      </trkpt>
      <trkpt lat="44.08133" lon="3.09506">
        <ele>738.7</ele>
        <time>2019-05-31T09:21:03Z</time>
      </trkpt>
      <trkpt lat="44.08132" lon="3.09511">
        <ele>738.7</ele>
        <time>2019-05-31T09:21:04Z</time>
      </trkpt>
      <trkpt lat="44.08129" lon="3.09516">
        <ele>738.7</ele>
        <time>2019-05-31T09:21:05Z</time>
      </trkpt>
      <trkpt lat="44.08127" lon="3.09519">
        <ele>738.7</ele>
        <time>2019-05-31T09:21:06Z</time>
      </trkpt>
      <trkpt lat="44.08124" lon="3.09524">
        <ele>738.7</ele>
        <time>2019-05-31T09:21:07Z</time>
      </trkpt>
      <trkpt lat="44.08122" lon="3.0953">
        <ele>738.7</ele>
        <time>2019-05-31T09:21:08Z</time>
      </trkpt>
      <trkpt lat="44.08121" lon="3.09535">
        <ele>738.7</ele>
        <time>2019-05-31T09:21:09Z</time>
      </trkpt>
      <trkpt lat="44.08119" lon="3.0954">
        <ele>738.6</ele>
        <time>2019-05-31T09:21:10Z</time>
      </trkpt>
      <trkpt lat="44.08118" lon="3.09547">
        <ele>738.6</ele>
        <time>2019-05-31T09:21:11Z</time>
      </trkpt>
      <trkpt lat="44.08117" lon="3.09553">
        <ele>738.5</ele>
        <time>2019-05-31T09:21:12Z</time>
      </trkpt>
      <trkpt lat="44.08115" lon="3.0956">
        <ele>738.5</ele>
        <time>2019-05-31T09:21:14Z</time>
      </trkpt>
      <trkpt lat="44.08115" lon="3.09567">
        <ele>738.5</ele>
        <time>2019-05-31T09:21:15Z</time>
      </trkpt>
      <trkpt lat="44.08114" lon="3.09572">
        <ele>738.5</ele>
        <time>2019-05-31T09:21:16Z</time>
      </trkpt>
      <trkpt lat="44.08114" lon="3.09578">
        <ele>738.5</ele>
        <time>2019-05-31T09:21:17Z</time>
      </trkpt>
      <trkpt lat="44.08112" lon="3.09583">
        <ele>738.6</ele>
        <time>2019-05-31T09:21:18Z</time>
      </trkpt>
      <trkpt lat="44.0811" lon="3.09589">
        <ele>738.6</ele>
        <time>2019-05-31T09:21:19Z</time>
      </trkpt>
      <trkpt lat="44.08109" lon="3.09595">
        <ele>738.7</ele>
        <time>2019-05-31T09:21:20Z</time>
      </trkpt>
      <trkpt lat="44.08108" lon="3.096">
        <ele>738.8</ele>
        <time>2019-05-31T09:21:21Z</time>
      </trkpt>
      <trkpt lat="44.08107" lon="3.09605">
        <ele>738.8</ele>
        <time>2019-05-31T09:21:22Z</time>
      </trkpt>
      <trkpt lat="44.08107" lon="3.09609">
        <ele>738.8</ele>
        <time>2019-05-31T09:21:23Z</time>
      </trkpt>
      <trkpt lat="44.08106" lon="3.09615">
        <ele>738.8</ele>
        <time>2019-05-31T09:21:24Z</time>
      </trkpt>
      <trkpt lat="44.08106" lon="3.0962">
        <ele>738.8</ele>
        <time>2019-05-31T09:21:25Z</time>
      </trkpt>
      <trkpt lat="44.08107" lon="3.09624">
        <ele>738.9</ele>
        <time>2019-05-31T09:21:26Z</time>
      </trkpt>
      <trkpt lat="44.08106" lon="3.09629">
        <ele>738.9</ele>
        <time>2019-05-31T09:21:27Z</time>
      </trkpt>
      <trkpt lat="44.08106" lon="3.09634">
        <ele>738.9</ele>
        <time>2019-05-31T09:21:28Z</time>
      </trkpt>
      <trkpt lat="44.08105" lon="3.09639">
        <ele>738.9</ele>
        <time>2019-05-31T09:21:29Z</time>
      </trkpt>
      <trkpt lat="44.08104" lon="3.09644">
        <ele>738.9</ele>
        <time>2019-05-31T09:21:30Z</time>
      </trkpt>
      <trkpt lat="44.08103" lon="3.09648">
        <ele>738.9</ele>
        <time>2019-05-31T09:21:31Z</time>
      </trkpt>
      <trkpt lat="44.08102" lon="3.09654">
        <ele>738.9</ele>
        <time>2019-05-31T09:21:32Z</time>
      </trkpt>
      <trkpt lat="44.08102" lon="3.09659">
        <ele>738.9</ele>
        <time>2019-05-31T09:21:33Z</time>
      </trkpt>
      <trkpt lat="44.08102" lon="3.09664">
        <ele>738.9</ele>
        <time>2019-05-31T09:21:34Z</time>
      </trkpt>
      <trkpt lat="44.08103" lon="3.09669">
        <ele>738.9</ele>
        <time>2019-05-31T09:21:35Z</time>
      </trkpt>
      <trkpt lat="44.08103" lon="3.09673">
        <ele>738.9</ele>
        <time>2019-05-31T09:21:36Z</time>
      </trkpt>
      <trkpt lat="44.08104" lon="3.09678">
        <ele>738.9</ele>
        <time>2019-05-31T09:21:37Z</time>
      </trkpt>
      <trkpt lat="44.08104" lon="3.09683">
        <ele>739</ele>
        <time>2019-05-31T09:21:38Z</time>
      </trkpt>
      <trkpt lat="44.08104" lon="3.09687">
        <ele>739</ele>
        <time>2019-05-31T09:21:39Z</time>
      </trkpt>
      <trkpt lat="44.08104" lon="3.09693">
        <ele>739</ele>
        <time>2019-05-31T09:21:40Z</time>
      </trkpt>
      <trkpt lat="44.08103" lon="3.09699">
        <ele>739</ele>
        <time>2019-05-31T09:21:41Z</time>
      </trkpt>
      <trkpt lat="44.08103" lon="3.09706">
        <ele>739.1</ele>
        <time>2019-05-31T09:21:42Z</time>
      </trkpt>
      <trkpt lat="44.08103" lon="3.09712">
        <ele>739.1</ele>
        <time>2019-05-31T09:21:43Z</time>
      </trkpt>
      <trkpt lat="44.08103" lon="3.09718">
        <ele>739.2</ele>
        <time>2019-05-31T09:21:44Z</time>
      </trkpt>
      <trkpt lat="44.08104" lon="3.09724">
        <ele>739.3</ele>
        <time>2019-05-31T09:21:45Z</time>
      </trkpt>
      <trkpt lat="44.08105" lon="3.09729">
        <ele>739.4</ele>
        <time>2019-05-31T09:21:46Z</time>
      </trkpt>
      <trkpt lat="44.08106" lon="3.09735">
        <ele>739.5</ele>
        <time>2019-05-31T09:21:47Z</time>
      </trkpt>
      <trkpt lat="44.08106" lon="3.09742">
        <ele>739.6</ele>
        <time>2019-05-31T09:21:48Z</time>
      </trkpt>
      <trkpt lat="44.08105" lon="3.09747">
        <ele>739.7</ele>
        <time>2019-05-31T09:21:49Z</time>
      </trkpt>
      <trkpt lat="44.08104" lon="3.09752">
        <ele>739.8</ele>
        <time>2019-05-31T09:21:50Z</time>
      </trkpt>
      <trkpt lat="44.08105" lon="3.09759">
        <ele>739.9</ele>
        <time>2019-05-31T09:21:51Z</time>
      </trkpt>
      <trkpt lat="44.08105" lon="3.09764">
        <ele>740</ele>
        <time>2019-05-31T09:21:52Z</time>
      </trkpt>
      <trkpt lat="44.08106" lon="3.09768">
        <ele>740.1</ele>
        <time>2019-05-31T09:21:53Z</time>
      </trkpt>
      <trkpt lat="44.08109" lon="3.09775">
        <ele>740.2</ele>
        <time>2019-05-31T09:21:55Z</time>
      </trkpt>
      <trkpt lat="44.08111" lon="3.09782">
        <ele>740.4</ele>
        <time>2019-05-31T09:21:57Z</time>
      </trkpt>
      <trkpt lat="44.08111" lon="3.09789">
        <ele>740.5</ele>
        <time>2019-05-31T09:21:59Z</time>
      </trkpt>
      <trkpt lat="44.08113" lon="3.09795">
        <ele>740.6</ele>
        <time>2019-05-31T09:22:01Z</time>
      </trkpt>
      <trkpt lat="44.08115" lon="3.09802">
        <ele>740.7</ele>
        <time>2019-05-31T09:22:03Z</time>
      </trkpt>
      <trkpt lat="44.08116" lon="3.09808">
        <ele>740.8</ele>
        <time>2019-05-31T09:22:05Z</time>
      </trkpt>
      <trkpt lat="44.08117" lon="3.09812">
        <ele>740.9</ele>
        <time>2019-05-31T09:22:06Z</time>
      </trkpt>
      <trkpt lat="44.08117" lon="3.09817">
        <ele>741</ele>
        <time>2019-05-31T09:22:08Z</time>
      </trkpt>
      <trkpt lat="44.08117" lon="3.09822">
        <ele>741</ele>
        <time>2019-05-31T09:22:10Z</time>
      </trkpt>
      <trkpt lat="44.08118" lon="3.09828">
        <ele>741.1</ele>
        <time>2019-05-31T09:22:12Z</time>
      </trkpt>
      <trkpt lat="44.0812" lon="3.09834">
        <ele>741.1</ele>
        <time>2019-05-31T09:22:14Z</time>
      </trkpt>
      <trkpt lat="44.08122" lon="3.0984">
        <ele>741.1</ele>
        <time>2019-05-31T09:22:16Z</time>
      </trkpt>
      <trkpt lat="44.08124" lon="3.09845">
        <ele>741.1</ele>
        <time>2019-05-31T09:22:18Z</time>
      </trkpt>
      <trkpt lat="44.08125" lon="3.09852">
        <ele>741.1</ele>
        <time>2019-05-31T09:22:20Z</time>
      </trkpt>
      <trkpt lat="44.08127" lon="3.09859">
        <ele>742.2</ele>
        <time>2019-05-31T09:22:22Z</time>
      </trkpt>
      <trkpt lat="44.08129" lon="3.09865">
        <ele>742.8</ele>
        <time>2019-05-31T09:22:24Z</time>
      </trkpt>
      <trkpt lat="44.08131" lon="3.09871">
        <ele>743.5</ele>
        <time>2019-05-31T09:22:26Z</time>
      </trkpt>
      <trkpt lat="44.08133" lon="3.09874">
        <ele>743.8</ele>
        <time>2019-05-31T09:22:27Z</time>
      </trkpt>
      <trkpt lat="44.08135" lon="3.09879">
        <ele>744.3</ele>
        <time>2019-05-31T09:22:29Z</time>
      </trkpt>
      <trkpt lat="44.08136" lon="3.09885">
        <ele>744.7</ele>
        <time>2019-05-31T09:22:31Z</time>
      </trkpt>
      <trkpt lat="44.08137" lon="3.09891">
        <ele>745.1</ele>
        <time>2019-05-31T09:22:33Z</time>
      </trkpt>
      <trkpt lat="44.08137" lon="3.09896">
        <ele>745.5</ele>
        <time>2019-05-31T09:22:35Z</time>
      </trkpt>
      <trkpt lat="44.08138" lon="3.099">
        <ele>745.8</ele>
        <time>2019-05-31T09:22:37Z</time>
      </trkpt>
      <trkpt lat="44.08138" lon="3.09904">
        <ele>746</ele>
        <time>2019-05-31T09:22:39Z</time>
      </trkpt>
      <trkpt lat="44.08139" lon="3.09908">
        <ele>746.2</ele>
        <time>2019-05-31T09:22:41Z</time>
      </trkpt>
      <trkpt lat="44.0814" lon="3.09913">
        <ele>746.5</ele>
        <time>2019-05-31T09:22:44Z</time>
      </trkpt>
      <trkpt lat="44.08141" lon="3.09918">
        <ele>746.7</ele>
        <time>2019-05-31T09:22:46Z</time>
      </trkpt>
      <trkpt lat="44.08143" lon="3.09922">
        <ele>746.9</ele>
        <time>2019-05-31T09:22:48Z</time>
      </trkpt>
      <trkpt lat="44.08144" lon="3.09928">
        <ele>747</ele>
        <time>2019-05-31T09:22:50Z</time>
      </trkpt>
      <trkpt lat="44.08145" lon="3.09932">
        <ele>747.1</ele>
        <time>2019-05-31T09:22:52Z</time>
      </trkpt>
      <trkpt lat="44.08145" lon="3.09937">
        <ele>747.2</ele>
        <time>2019-05-31T09:22:54Z</time>
      </trkpt>
      <trkpt lat="44.08145" lon="3.09943">
        <ele>747.2</ele>
        <time>2019-05-31T09:22:56Z</time>
      </trkpt>
      <trkpt lat="44.08147" lon="3.09948">
        <ele>747.3</ele>
        <time>2019-05-31T09:22:58Z</time>
      </trkpt>
      <trkpt lat="44.08149" lon="3.09952">
        <ele>747.3</ele>
        <time>2019-05-31T09:23:00Z</time>
      </trkpt>
      <trkpt lat="44.08151" lon="3.09958">
        <ele>747.3</ele>
        <time>2019-05-31T09:23:02Z</time>
      </trkpt>
      <trkpt lat="44.08152" lon="3.09964">
        <ele>747.4</ele>
        <time>2019-05-31T09:23:04Z</time>
      </trkpt>
      <trkpt lat="44.08153" lon="3.0997">
        <ele>747.5</ele>
        <time>2019-05-31T09:23:06Z</time>
      </trkpt>
      <trkpt lat="44.08154" lon="3.09977">
        <ele>747.5</ele>
        <time>2019-05-31T09:23:08Z</time>
      </trkpt>
      <trkpt lat="44.08156" lon="3.09983">
        <ele>747.6</ele>
        <time>2019-05-31T09:23:10Z</time>
      </trkpt>
      <trkpt lat="44.08157" lon="3.0999">
        <ele>747.6</ele>
        <time>2019-05-31T09:23:12Z</time>
      </trkpt>
      <trkpt lat="44.08159" lon="3.09996">
        <ele>747.5</ele>
        <time>2019-05-31T09:23:14Z</time>
      </trkpt>
      <trkpt lat="44.08159" lon="3.1">
        <ele>747.4</ele>
        <time>2019-05-31T09:23:15Z</time>
      </trkpt>
      <trkpt lat="44.0816" lon="3.10005">
        <ele>747.3</ele>
        <time>2019-05-31T09:23:17Z</time>
      </trkpt>
      <trkpt lat="44.08161" lon="3.10011">
        <ele>747.2</ele>
        <time>2019-05-31T09:23:19Z</time>
      </trkpt>
      <trkpt lat="44.08161" lon="3.10015">
        <ele>747.1</ele>
        <time>2019-05-31T09:23:20Z</time>
      </trkpt>
      <trkpt lat="44.08162" lon="3.10019">
        <ele>747</ele>
        <time>2019-05-31T09:23:21Z</time>
      </trkpt>
      <trkpt lat="44.08163" lon="3.10027">
        <ele>746.8</ele>
        <time>2019-05-31T09:23:23Z</time>
      </trkpt>
      <trkpt lat="44.08164" lon="3.10031">
        <ele>746.7</ele>
        <time>2019-05-31T09:23:24Z</time>
      </trkpt>
      <trkpt lat="44.08164" lon="3.10036">
        <ele>746.7</ele>
        <time>2019-05-31T09:23:25Z</time>
      </trkpt>
      <trkpt lat="44.08165" lon="3.1004">
        <ele>746.6</ele>
        <time>2019-05-31T09:23:26Z</time>
      </trkpt>
      <trkpt lat="44.08166" lon="3.10046">
        <ele>746.5</ele>
        <time>2019-05-31T09:23:27Z</time>
      </trkpt>
      <trkpt lat="44.08167" lon="3.10051">
        <ele>746.4</ele>
        <time>2019-05-31T09:23:28Z</time>
      </trkpt>
      <trkpt lat="44.08168" lon="3.10057">
        <ele>746.3</ele>
        <time>2019-05-31T09:23:29Z</time>
      </trkpt>
      <trkpt lat="44.08168" lon="3.10062">
        <ele>746.3</ele>
        <time>2019-05-31T09:23:30Z</time>
      </trkpt>
      <trkpt lat="44.08169" lon="3.10067">
        <ele>746.3</ele>
        <time>2019-05-31T09:23:31Z</time>
      </trkpt>
      <trkpt lat="44.0817" lon="3.10072">
        <ele>746.4</ele>
        <time>2019-05-31T09:23:32Z</time>
      </trkpt>
      <trkpt lat="44.08171" lon="3.10077">
        <ele>746.4</ele>
        <time>2019-05-31T09:23:33Z</time>
      </trkpt>
      <trkpt lat="44.08172" lon="3.10081">
        <ele>746.4</ele>
        <time>2019-05-31T09:23:34Z</time>
      </trkpt>
      <trkpt lat="44.08174" lon="3.10086">
        <ele>746.4</ele>
        <time>2019-05-31T09:23:35Z</time>
      </trkpt>
      <trkpt lat="44.08177" lon="3.10091">
        <ele>746.4</ele>
        <time>2019-05-31T09:23:36Z</time>
      </trkpt>
      <trkpt lat="44.08179" lon="3.10095">
        <ele>746.3</ele>
        <time>2019-05-31T09:23:37Z</time>
      </trkpt>
      <trkpt lat="44.08181" lon="3.101">
        <ele>746.2</ele>
        <time>2019-05-31T09:23:38Z</time>
      </trkpt>
      <trkpt lat="44.08183" lon="3.10105">
        <ele>746.1</ele>
        <time>2019-05-31T09:23:39Z</time>
      </trkpt>
      <trkpt lat="44.08185" lon="3.10111">
        <ele>745.9</ele>
        <time>2019-05-31T09:23:40Z</time>
      </trkpt>
      <trkpt lat="44.08187" lon="3.10116">
        <ele>745.8</ele>
        <time>2019-05-31T09:23:41Z</time>
      </trkpt>
      <trkpt lat="44.08188" lon="3.10122">
        <ele>745.7</ele>
        <time>2019-05-31T09:23:42Z</time>
      </trkpt>
      <trkpt lat="44.0819" lon="3.10128">
        <ele>745.6</ele>
        <time>2019-05-31T09:23:43Z</time>
      </trkpt>
      <trkpt lat="44.08192" lon="3.10136">
        <ele>745.5</ele>
        <time>2019-05-31T09:23:44Z</time>
      </trkpt>
      <trkpt lat="44.0819" lon="3.10141">
        <ele>745.5</ele>
        <time>2019-05-31T09:23:45Z</time>
      </trkpt>
      <trkpt lat="44.08189" lon="3.10146">
        <ele>745.4</ele>
        <time>2019-05-31T09:23:46Z</time>
      </trkpt>
      <trkpt lat="44.08189" lon="3.10151">
        <ele>745.4</ele>
        <time>2019-05-31T09:23:47Z</time>
      </trkpt>
      <trkpt lat="44.08191" lon="3.10156">
        <ele>745.3</ele>
        <time>2019-05-31T09:23:48Z</time>
      </trkpt>
      <trkpt lat="44.08192" lon="3.10163">
        <ele>745.3</ele>
        <time>2019-05-31T09:23:49Z</time>
      </trkpt>
      <trkpt lat="44.08192" lon="3.10168">
        <ele>745.2</ele>
        <time>2019-05-31T09:23:50Z</time>
      </trkpt>
      <trkpt lat="44.08194" lon="3.10174">
        <ele>745.1</ele>
        <time>2019-05-31T09:23:51Z</time>
      </trkpt>
      <trkpt lat="44.08195" lon="3.10179">
        <ele>745.1</ele>
        <time>2019-05-31T09:23:52Z</time>
      </trkpt>
      <trkpt lat="44.08195" lon="3.10184">
        <ele>744.9</ele>
        <time>2019-05-31T09:23:53Z</time>
      </trkpt>
      <trkpt lat="44.08194" lon="3.1019">
        <ele>744.8</ele>
        <time>2019-05-31T09:23:54Z</time>
      </trkpt>
      <trkpt lat="44.08195" lon="3.10195">
        <ele>744.7</ele>
        <time>2019-05-31T09:23:55Z</time>
      </trkpt>
      <trkpt lat="44.08196" lon="3.10203">
        <ele>744.5</ele>
        <time>2019-05-31T09:23:56Z</time>
      </trkpt>
      <trkpt lat="44.08198" lon="3.1021">
        <ele>744.5</ele>
        <time>2019-05-31T09:23:57Z</time>
      </trkpt>
      <trkpt lat="44.08199" lon="3.10217">
        <ele>744.4</ele>
        <time>2019-05-31T09:23:58Z</time>
      </trkpt>
      <trkpt lat="44.082" lon="3.10222">
        <ele>744.4</ele>
        <time>2019-05-31T09:23:59Z</time>
      </trkpt>
      <trkpt lat="44.08201" lon="3.10229">
        <ele>744.5</ele>
        <time>2019-05-31T09:24:00Z</time>
      </trkpt>
      <trkpt lat="44.08201" lon="3.10237">
        <ele>744.6</ele>
        <time>2019-05-31T09:24:01Z</time>
      </trkpt>
      <trkpt lat="44.08201" lon="3.10243">
        <ele>744.7</ele>
        <time>2019-05-31T09:24:02Z</time>
      </trkpt>
      <trkpt lat="44.08201" lon="3.1025">
        <ele>744.7</ele>
        <time>2019-05-31T09:24:03Z</time>
      </trkpt>
      <trkpt lat="44.08204" lon="3.10258">
        <ele>744.7</ele>
        <time>2019-05-31T09:24:04Z</time>
      </trkpt>
      <trkpt lat="44.08204" lon="3.10266">
        <ele>744.7</ele>
        <time>2019-05-31T09:24:05Z</time>
      </trkpt>
      <trkpt lat="44.08205" lon="3.10274">
        <ele>744.6</ele>
        <time>2019-05-31T09:24:06Z</time>
      </trkpt>
      <trkpt lat="44.08206" lon="3.10281">
        <ele>744.4</ele>
        <time>2019-05-31T09:24:07Z</time>
      </trkpt>
      <trkpt lat="44.08208" lon="3.10289">
        <ele>744.1</ele>
        <time>2019-05-31T09:24:08Z</time>
      </trkpt>
      <trkpt lat="44.08209" lon="3.10295">
        <ele>743.9</ele>
        <time>2019-05-31T09:24:09Z</time>
      </trkpt>
      <trkpt lat="44.08209" lon="3.10304">
        <ele>743.5</ele>
        <time>2019-05-31T09:24:10Z</time>
      </trkpt>
      <trkpt lat="44.08207" lon="3.10309">
        <ele>743.3</ele>
        <time>2019-05-31T09:24:11Z</time>
      </trkpt>
      <trkpt lat="44.08208" lon="3.10318">
        <ele>743.1</ele>
        <time>2019-05-31T09:24:12Z</time>
      </trkpt>
      <trkpt lat="44.08208" lon="3.10325">
        <ele>742.9</ele>
        <time>2019-05-31T09:24:13Z</time>
      </trkpt>
      <trkpt lat="44.08209" lon="3.10333">
        <ele>742.8</ele>
        <time>2019-05-31T09:24:14Z</time>
      </trkpt>
      <trkpt lat="44.0821" lon="3.1034">
        <ele>742.7</ele>
        <time>2019-05-31T09:24:15Z</time>
      </trkpt>
      <trkpt lat="44.0821" lon="3.10347">
        <ele>742.7</ele>
        <time>2019-05-31T09:24:16Z</time>
      </trkpt>
      <trkpt lat="44.0821" lon="3.10355">
        <ele>742.7</ele>
        <time>2019-05-31T09:24:17Z</time>
      </trkpt>
      <trkpt lat="44.08211" lon="3.10362">
        <ele>742.7</ele>
        <time>2019-05-31T09:24:18Z</time>
      </trkpt>
      <trkpt lat="44.08211" lon="3.1037">
        <ele>742.7</ele>
        <time>2019-05-31T09:24:19Z</time>
      </trkpt>
      <trkpt lat="44.08212" lon="3.10377">
        <ele>742.6</ele>
        <time>2019-05-31T09:24:20Z</time>
      </trkpt>
      <trkpt lat="44.08213" lon="3.10385">
        <ele>742.6</ele>
        <time>2019-05-31T09:24:21Z</time>
      </trkpt>
      <trkpt lat="44.08214" lon="3.10392">
        <ele>742.6</ele>
        <time>2019-05-31T09:24:22Z</time>
      </trkpt>
      <trkpt lat="44.08214" lon="3.104">
        <ele>742.5</ele>
        <time>2019-05-31T09:24:23Z</time>
      </trkpt>
      <trkpt lat="44.08215" lon="3.10406">
        <ele>742.4</ele>
        <time>2019-05-31T09:24:24Z</time>
      </trkpt>
      <trkpt lat="44.08216" lon="3.10413">
        <ele>742.3</ele>
        <time>2019-05-31T09:24:25Z</time>
      </trkpt>
      <trkpt lat="44.08219" lon="3.1042">
        <ele>742.2</ele>
        <time>2019-05-31T09:24:27Z</time>
      </trkpt>
      <trkpt lat="44.0822" lon="3.10424">
        <ele>742.1</ele>
        <time>2019-05-31T09:24:28Z</time>
      </trkpt>
      <trkpt lat="44.08221" lon="3.10431">
        <ele>742.1</ele>
        <time>2019-05-31T09:24:30Z</time>
      </trkpt>
      <trkpt lat="44.08223" lon="3.10437">
        <ele>742.1</ele>
        <time>2019-05-31T09:24:32Z</time>
      </trkpt>
      <trkpt lat="44.08225" lon="3.10443">
        <ele>742.1</ele>
        <time>2019-05-31T09:24:34Z</time>
      </trkpt>
      <trkpt lat="44.08226" lon="3.10449">
        <ele>742.1</ele>
        <time>2019-05-31T09:24:36Z</time>
      </trkpt>
      <trkpt lat="44.08227" lon="3.10452">
        <ele>742</ele>
        <time>2019-05-31T09:24:37Z</time>
      </trkpt>
      <trkpt lat="44.08229" lon="3.10456">
        <ele>742</ele>
        <time>2019-05-31T09:24:38Z</time>
      </trkpt>
      <trkpt lat="44.0823" lon="3.1046">
        <ele>742</ele>
        <time>2019-05-31T09:24:39Z</time>
      </trkpt>
      <trkpt lat="44.08231" lon="3.10464">
        <ele>741.9</ele>
        <time>2019-05-31T09:24:40Z</time>
      </trkpt>
      <trkpt lat="44.08233" lon="3.10469">
        <ele>741.9</ele>
        <time>2019-05-31T09:24:41Z</time>
      </trkpt>
      <trkpt lat="44.08234" lon="3.10475">
        <ele>741.8</ele>
        <time>2019-05-31T09:24:42Z</time>
      </trkpt>
      <trkpt lat="44.08237" lon="3.10483">
        <ele>741.8</ele>
        <time>2019-05-31T09:24:43Z</time>
      </trkpt>
      <trkpt lat="44.08239" lon="3.10489">
        <ele>741.9</ele>
        <time>2019-05-31T09:24:44Z</time>
      </trkpt>
      <trkpt lat="44.0824" lon="3.10495">
        <ele>742.1</ele>
        <time>2019-05-31T09:24:45Z</time>
      </trkpt>
      <trkpt lat="44.08244" lon="3.10501">
        <ele>742.4</ele>
        <time>2019-05-31T09:24:46Z</time>
      </trkpt>
      <trkpt lat="44.08245" lon="3.10508">
        <ele>742.6</ele>
        <time>2019-05-31T09:24:47Z</time>
      </trkpt>
      <trkpt lat="44.08248" lon="3.10515">
        <ele>742.8</ele>
        <time>2019-05-31T09:24:48Z</time>
      </trkpt>
      <trkpt lat="44.08249" lon="3.10522">
        <ele>743</ele>
        <time>2019-05-31T09:24:49Z</time>
      </trkpt>
      <trkpt lat="44.08251" lon="3.1053">
        <ele>743.1</ele>
        <time>2019-05-31T09:24:50Z</time>
      </trkpt>
      <trkpt lat="44.08252" lon="3.10536">
        <ele>743.1</ele>
        <time>2019-05-31T09:24:51Z</time>
      </trkpt>
      <trkpt lat="44.08253" lon="3.10543">
        <ele>743.1</ele>
        <time>2019-05-31T09:24:52Z</time>
      </trkpt>
      <trkpt lat="44.08253" lon="3.10548">
        <ele>743.1</ele>
        <time>2019-05-31T09:24:53Z</time>
      </trkpt>
      <trkpt lat="44.08257" lon="3.10553">
        <ele>743.1</ele>
        <time>2019-05-31T09:24:54Z</time>
      </trkpt>
      <trkpt lat="44.08258" lon="3.10558">
        <ele>743.1</ele>
        <time>2019-05-31T09:24:55Z</time>
      </trkpt>
      <trkpt lat="44.08259" lon="3.10562">
        <ele>743.7</ele>
        <time>2019-05-31T09:24:56Z</time>
      </trkpt>
      <trkpt lat="44.0826" lon="3.10568">
        <ele>744.1</ele>
        <time>2019-05-31T09:24:57Z</time>
      </trkpt>
      <trkpt lat="44.0826" lon="3.10573">
        <ele>744.4</ele>
        <time>2019-05-31T09:24:58Z</time>
      </trkpt>
      <trkpt lat="44.08261" lon="3.10578">
        <ele>744.7</ele>
        <time>2019-05-31T09:24:59Z</time>
      </trkpt>
      <trkpt lat="44.08262" lon="3.10583">
        <ele>745</ele>
        <time>2019-05-31T09:25:00Z</time>
      </trkpt>
      <trkpt lat="44.08263" lon="3.10587">
        <ele>745.2</ele>
        <time>2019-05-31T09:25:01Z</time>
      </trkpt>
      <trkpt lat="44.08265" lon="3.10593">
        <ele>745.5</ele>
        <time>2019-05-31T09:25:03Z</time>
      </trkpt>
      <trkpt lat="44.08269" lon="3.10598">
        <ele>745.7</ele>
        <time>2019-05-31T09:25:05Z</time>
      </trkpt>
      <trkpt lat="44.08274" lon="3.10601">
        <ele>746</ele>
        <time>2019-05-31T09:25:07Z</time>
      </trkpt>
      <trkpt lat="44.08276" lon="3.10602">
        <ele>746.2</ele>
        <time>2019-05-31T09:25:08Z</time>
      </trkpt>
      <trkpt lat="44.08279" lon="3.10604">
        <ele>746.3</ele>
        <time>2019-05-31T09:25:09Z</time>
      </trkpt>
      <trkpt lat="44.08281" lon="3.10606">
        <ele>746.4</ele>
        <time>2019-05-31T09:25:10Z</time>
      </trkpt>
      <trkpt lat="44.08285" lon="3.10611">
        <ele>746.6</ele>
        <time>2019-05-31T09:25:12Z</time>
      </trkpt>
      <trkpt lat="44.08287" lon="3.10616">
        <ele>746.9</ele>
        <time>2019-05-31T09:25:14Z</time>
      </trkpt>
      <trkpt lat="44.08289" lon="3.1062">
        <ele>747</ele>
        <time>2019-05-31T09:25:15Z</time>
      </trkpt>
      <trkpt lat="44.0829" lon="3.10624">
        <ele>747.2</ele>
        <time>2019-05-31T09:25:16Z</time>
      </trkpt>
      <trkpt lat="44.08291" lon="3.10628">
        <ele>747.4</ele>
        <time>2019-05-31T09:25:17Z</time>
      </trkpt>
      <trkpt lat="44.08293" lon="3.10635">
        <ele>747.6</ele>
        <time>2019-05-31T09:25:19Z</time>
      </trkpt>
      <trkpt lat="44.08295" lon="3.10638">
        <ele>747.7</ele>
        <time>2019-05-31T09:25:21Z</time>
      </trkpt>
      <trkpt lat="44.08298" lon="3.10639">
        <ele>747.8</ele>
        <time>2019-05-31T09:25:24Z</time>
      </trkpt>
      <trkpt lat="44.08299" lon="3.10644">
        <ele>747.9</ele>
        <time>2019-05-31T09:25:48Z</time>
      </trkpt>
      <trkpt lat="44.08299" lon="3.10649">
        <ele>749.4</ele>
        <time>2019-05-31T09:25:50Z</time>
      </trkpt>
      <trkpt lat="44.08298" lon="3.10654">
        <ele>752.1</ele>
        <time>2019-05-31T09:25:52Z</time>
      </trkpt>
      <trkpt lat="44.08296" lon="3.10658">
        <ele>754.3</ele>
        <time>2019-05-31T09:25:53Z</time>
      </trkpt>
      <trkpt lat="44.08294" lon="3.10661">
        <ele>755.3</ele>
        <time>2019-05-31T09:25:54Z</time>
      </trkpt>
      <trkpt lat="44.0829" lon="3.10666">
        <ele>757.1</ele>
        <time>2019-05-31T09:25:56Z</time>
      </trkpt>
      <trkpt lat="44.08286" lon="3.1067">
        <ele>759.3</ele>
        <time>2019-05-31T09:25:58Z</time>
      </trkpt>
      <trkpt lat="44.08282" lon="3.10674">
        <ele>762.1</ele>
        <time>2019-05-31T09:26:00Z</time>
      </trkpt>
      <trkpt lat="44.08279" lon="3.10676">
        <ele>763</ele>
        <time>2019-05-31T09:26:01Z</time>
      </trkpt>
      <trkpt lat="44.08275" lon="3.1068">
        <ele>764.3</ele>
        <time>2019-05-31T09:26:03Z</time>
      </trkpt>
      <trkpt lat="44.08273" lon="3.10684">
        <ele>765.3</ele>
        <time>2019-05-31T09:26:04Z</time>
      </trkpt>
      <trkpt lat="44.08271" lon="3.10689">
        <ele>766.3</ele>
        <time>2019-05-31T09:26:05Z</time>
      </trkpt>
      <trkpt lat="44.08269" lon="3.10693">
        <ele>766.8</ele>
        <time>2019-05-31T09:26:06Z</time>
      </trkpt>
      <trkpt lat="44.08267" lon="3.10696">
        <ele>766.9</ele>
        <time>2019-05-31T09:26:07Z</time>
      </trkpt>
      <trkpt lat="44.08265" lon="3.10699">
        <ele>767.1</ele>
        <time>2019-05-31T09:26:08Z</time>
      </trkpt>
      <trkpt lat="44.08263" lon="3.10702">
        <ele>767</ele>
        <time>2019-05-31T09:26:09Z</time>
      </trkpt>
      <trkpt lat="44.08261" lon="3.10705">
        <ele>766.8</ele>
        <time>2019-05-31T09:26:10Z</time>
      </trkpt>
      <trkpt lat="44.08258" lon="3.10711">
        <ele>766.4</ele>
        <time>2019-05-31T09:26:11Z</time>
      </trkpt>
      <trkpt lat="44.08257" lon="3.10716">
        <ele>765.9</ele>
        <time>2019-05-31T09:26:12Z</time>
      </trkpt>
      <trkpt lat="44.08254" lon="3.10722">
        <ele>765.5</ele>
        <time>2019-05-31T09:26:13Z</time>
      </trkpt>
      <trkpt lat="44.08252" lon="3.10727">
        <ele>765.1</ele>
        <time>2019-05-31T09:26:14Z</time>
      </trkpt>
      <trkpt lat="44.08248" lon="3.10732">
        <ele>764.8</ele>
        <time>2019-05-31T09:26:15Z</time>
      </trkpt>
      <trkpt lat="44.08245" lon="3.10735">
        <ele>764.6</ele>
        <time>2019-05-31T09:26:16Z</time>
      </trkpt>
      <trkpt lat="44.08242" lon="3.10738">
        <ele>764.4</ele>
        <time>2019-05-31T09:26:17Z</time>
      </trkpt>
      <trkpt lat="44.0824" lon="3.10741">
        <ele>764.4</ele>
        <time>2019-05-31T09:26:18Z</time>
      </trkpt>
      <trkpt lat="44.08237" lon="3.10745">
        <ele>764.3</ele>
        <time>2019-05-31T09:26:19Z</time>
      </trkpt>
      <trkpt lat="44.08235" lon="3.10748">
        <ele>764.2</ele>
        <time>2019-05-31T09:26:20Z</time>
      </trkpt>
      <trkpt lat="44.08233" lon="3.10751">
        <ele>764.2</ele>
        <time>2019-05-31T09:26:22Z</time>
      </trkpt>
      <trkpt lat="44.0823" lon="3.10756">
        <ele>764.2</ele>
        <time>2019-05-31T09:26:24Z</time>
      </trkpt>
      <trkpt lat="44.08227" lon="3.1076">
        <ele>764.2</ele>
        <time>2019-05-31T09:26:26Z</time>
      </trkpt>
      <trkpt lat="44.08225" lon="3.10763">
        <ele>764.2</ele>
        <time>2019-05-31T09:26:29Z</time>
      </trkpt>
      <trkpt lat="44.08223" lon="3.10768">
        <ele>764.3</ele>
        <time>2019-05-31T09:26:35Z</time>
      </trkpt>
      <trkpt lat="44.08221" lon="3.10771">
        <ele>764.3</ele>
        <time>2019-05-31T09:26:38Z</time>
      </trkpt>
      <trkpt lat="44.08221" lon="3.10775">
        <ele>764.3</ele>
        <time>2019-05-31T09:26:41Z</time>
      </trkpt>
      <trkpt lat="44.08219" lon="3.10777">
        <ele>764.3</ele>
        <time>2019-05-31T09:26:45Z</time>
      </trkpt>
      <trkpt lat="44.08216" lon="3.10779">
        <ele>764.4</ele>
        <time>2019-05-31T09:26:48Z</time>
      </trkpt>
      <trkpt lat="44.08213" lon="3.10781">
        <ele>764.4</ele>
        <time>2019-05-31T09:26:53Z</time>
      </trkpt>
      <trkpt lat="44.08207" lon="3.10784">
        <ele>764.4</ele>
        <time>2019-05-31T09:27:13Z</time>
      </trkpt>
      <trkpt lat="44.08204" lon="3.10787">
        <ele>764.4</ele>
        <time>2019-05-31T09:27:14Z</time>
      </trkpt>
      <trkpt lat="44.08201" lon="3.10788">
        <ele>764.4</ele>
        <time>2019-05-31T09:27:16Z</time>
      </trkpt>
      <trkpt lat="44.08198" lon="3.1079">
        <ele>764.4</ele>
        <time>2019-05-31T09:27:21Z</time>
      </trkpt>
      <trkpt lat="44.08195" lon="3.10791">
        <ele>764.4</ele>
        <time>2019-05-31T09:27:30Z</time>
      </trkpt>
      <trkpt lat="44.08192" lon="3.10792">
        <ele>764.4</ele>
        <time>2019-05-31T09:27:34Z</time>
      </trkpt>
      <trkpt lat="44.08189" lon="3.10793">
        <ele>764.4</ele>
        <time>2019-05-31T09:27:37Z</time>
      </trkpt>
      <trkpt lat="44.08186" lon="3.10793">
        <ele>764.4</ele>
        <time>2019-05-31T09:27:42Z</time>
      </trkpt>
      <trkpt lat="44.08184" lon="3.1079">
        <ele>764.4</ele>
        <time>2019-05-31T09:27:44Z</time>
      </trkpt>
      <trkpt lat="44.08181" lon="3.10789">
        <ele>764.4</ele>
        <time>2019-05-31T09:27:46Z</time>
      </trkpt>
      <trkpt lat="44.08178" lon="3.1079">
        <ele>764.4</ele>
        <time>2019-05-31T09:27:47Z</time>
      </trkpt>
      <trkpt lat="44.08173" lon="3.10793">
        <ele>764.4</ele>
        <time>2019-05-31T09:27:49Z</time>
      </trkpt>
      <trkpt lat="44.08168" lon="3.10795">
        <ele>764.4</ele>
        <time>2019-05-31T09:27:50Z</time>
      </trkpt>
      <trkpt lat="44.08164" lon="3.10797">
        <ele>764.3</ele>
        <time>2019-05-31T09:27:51Z</time>
      </trkpt>
      <trkpt lat="44.08158" lon="3.10802">
        <ele>764.2</ele>
        <time>2019-05-31T09:27:52Z</time>
      </trkpt>
      <trkpt lat="44.08153" lon="3.10803">
        <ele>764.2</ele>
        <time>2019-05-31T09:27:53Z</time>
      </trkpt>
      <trkpt lat="44.08149" lon="3.10807">
        <ele>764.1</ele>
        <time>2019-05-31T09:27:54Z</time>
      </trkpt>
      <trkpt lat="44.08143" lon="3.1081">
        <ele>764</ele>
        <time>2019-05-31T09:27:55Z</time>
      </trkpt>
      <trkpt lat="44.08137" lon="3.1081">
        <ele>763.9</ele>
        <time>2019-05-31T09:27:56Z</time>
      </trkpt>
      <trkpt lat="44.08132" lon="3.10811">
        <ele>763.9</ele>
        <time>2019-05-31T09:27:57Z</time>
      </trkpt>
      <trkpt lat="44.08127" lon="3.10813">
        <ele>763.8</ele>
        <time>2019-05-31T09:27:58Z</time>
      </trkpt>
      <trkpt lat="44.08124" lon="3.10818">
        <ele>763.8</ele>
        <time>2019-05-31T09:27:59Z</time>
      </trkpt>
      <trkpt lat="44.08123" lon="3.10823">
        <ele>763.8</ele>
        <time>2019-05-31T09:28:00Z</time>
      </trkpt>
      <trkpt lat="44.08123" lon="3.10828">
        <ele>763.8</ele>
        <time>2019-05-31T09:28:01Z</time>
      </trkpt>
      <trkpt lat="44.08121" lon="3.10833">
        <ele>763.3</ele>
        <time>2019-05-31T09:28:02Z</time>
      </trkpt>
      <trkpt lat="44.08119" lon="3.10837">
        <ele>763.2</ele>
        <time>2019-05-31T09:28:03Z</time>
      </trkpt>
      <trkpt lat="44.08117" lon="3.10841">
        <ele>763.1</ele>
        <time>2019-05-31T09:28:05Z</time>
      </trkpt>
      <trkpt lat="44.08116" lon="3.10845">
        <ele>763</ele>
        <time>2019-05-31T09:28:07Z</time>
      </trkpt>
      <trkpt lat="44.08115" lon="3.1085">
        <ele>762.8</ele>
        <time>2019-05-31T09:28:09Z</time>
      </trkpt>
      <trkpt lat="44.08112" lon="3.10855">
        <ele>762.7</ele>
        <time>2019-05-31T09:28:11Z</time>
      </trkpt>
      <trkpt lat="44.0811" lon="3.10858">
        <ele>762.7</ele>
        <time>2019-05-31T09:28:13Z</time>
      </trkpt>
      <trkpt lat="44.08108" lon="3.10861">
        <ele>762.6</ele>
        <time>2019-05-31T09:28:15Z</time>
      </trkpt>
      <trkpt lat="44.08107" lon="3.10865">
        <ele>762.5</ele>
        <time>2019-05-31T09:28:16Z</time>
      </trkpt>
      <trkpt lat="44.08106" lon="3.1087">
        <ele>762.5</ele>
        <time>2019-05-31T09:28:17Z</time>
      </trkpt>
      <trkpt lat="44.08106" lon="3.10875">
        <ele>762.4</ele>
        <time>2019-05-31T09:28:18Z</time>
      </trkpt>
      <trkpt lat="44.08106" lon="3.1088">
        <ele>762.3</ele>
        <time>2019-05-31T09:28:19Z</time>
      </trkpt>
      <trkpt lat="44.08106" lon="3.10885">
        <ele>762.3</ele>
        <time>2019-05-31T09:28:20Z</time>
      </trkpt>
      <trkpt lat="44.08107" lon="3.10891">
        <ele>762.2</ele>
        <time>2019-05-31T09:28:21Z</time>
      </trkpt>
      <trkpt lat="44.08107" lon="3.10898">
        <ele>762.1</ele>
        <time>2019-05-31T09:28:22Z</time>
      </trkpt>
      <trkpt lat="44.08107" lon="3.10904">
        <ele>762</ele>
        <time>2019-05-31T09:28:23Z</time>
      </trkpt>
      <trkpt lat="44.08106" lon="3.1091">
        <ele>761.9</ele>
        <time>2019-05-31T09:28:24Z</time>
      </trkpt>
      <trkpt lat="44.08104" lon="3.10916">
        <ele>761.8</ele>
        <time>2019-05-31T09:28:25Z</time>
      </trkpt>
      <trkpt lat="44.08102" lon="3.1092">
        <ele>761.8</ele>
        <time>2019-05-31T09:28:26Z</time>
      </trkpt>
      <trkpt lat="44.081" lon="3.10923">
        <ele>761.8</ele>
        <time>2019-05-31T09:28:27Z</time>
      </trkpt>
      <trkpt lat="44.08098" lon="3.10926">
        <ele>761.7</ele>
        <time>2019-05-31T09:28:28Z</time>
      </trkpt>
      <trkpt lat="44.08096" lon="3.10928">
        <ele>761.6</ele>
        <time>2019-05-31T09:28:29Z</time>
      </trkpt>
      <trkpt lat="44.08092" lon="3.1093">
        <ele>761.6</ele>
        <time>2019-05-31T09:28:31Z</time>
      </trkpt>
      <trkpt lat="44.08087" lon="3.10931">
        <ele>761.5</ele>
        <time>2019-05-31T09:28:33Z</time>
      </trkpt>
      <trkpt lat="44.08083" lon="3.10933">
        <ele>761.5</ele>
        <time>2019-05-31T09:28:35Z</time>
      </trkpt>
      <trkpt lat="44.0808" lon="3.10938">
        <ele>761.5</ele>
        <time>2019-05-31T09:28:37Z</time>
      </trkpt>
      <trkpt lat="44.08078" lon="3.10942">
        <ele>761.5</ele>
        <time>2019-05-31T09:28:39Z</time>
      </trkpt>
      <trkpt lat="44.08076" lon="3.10945">
        <ele>761.3</ele>
        <time>2019-05-31T09:28:41Z</time>
      </trkpt>
      <trkpt lat="44.08073" lon="3.10944">
        <ele>761.3</ele>
        <time>2019-05-31T09:28:50Z</time>
      </trkpt>
      <trkpt lat="44.08069" lon="3.10947">
        <ele>761.3</ele>
        <time>2019-05-31T09:28:52Z</time>
      </trkpt>
      <trkpt lat="44.08067" lon="3.10951">
        <ele>761.2</ele>
        <time>2019-05-31T09:28:53Z</time>
      </trkpt>
      <trkpt lat="44.08066" lon="3.10955">
        <ele>761.1</ele>
        <time>2019-05-31T09:28:54Z</time>
      </trkpt>
      <trkpt lat="44.08066" lon="3.1096">
        <ele>761</ele>
        <time>2019-05-31T09:28:55Z</time>
      </trkpt>
      <trkpt lat="44.08065" lon="3.10966">
        <ele>761</ele>
        <time>2019-05-31T09:28:56Z</time>
      </trkpt>
      <trkpt lat="44.08067" lon="3.10983">
        <ele>760.7</ele>
        <time>2019-05-31T09:28:57Z</time>
      </trkpt>
      <trkpt lat="44.08065" lon="3.10987">
        <ele>760.7</ele>
        <time>2019-05-31T09:28:58Z</time>
      </trkpt>
      <trkpt lat="44.08065" lon="3.10994">
        <ele>760.6</ele>
        <time>2019-05-31T09:28:59Z</time>
      </trkpt>
      <trkpt lat="44.08065" lon="3.11">
        <ele>760.5</ele>
        <time>2019-05-31T09:29:00Z</time>
      </trkpt>
      <trkpt lat="44.08064" lon="3.11005">
        <ele>760.4</ele>
        <time>2019-05-31T09:29:01Z</time>
      </trkpt>
      <trkpt lat="44.08063" lon="3.1101">
        <ele>760.3</ele>
        <time>2019-05-31T09:29:03Z</time>
      </trkpt>
      <trkpt lat="44.08064" lon="3.11014">
        <ele>760.2</ele>
        <time>2019-05-31T09:29:04Z</time>
      </trkpt>
      <trkpt lat="44.08065" lon="3.11021">
        <ele>760</ele>
        <time>2019-05-31T09:29:05Z</time>
      </trkpt>
      <trkpt lat="44.08064" lon="3.11027">
        <ele>759.8</ele>
        <time>2019-05-31T09:29:06Z</time>
      </trkpt>
      <trkpt lat="44.08064" lon="3.11037">
        <ele>759.6</ele>
        <time>2019-05-31T09:29:07Z</time>
      </trkpt>
      <trkpt lat="44.08063" lon="3.11042">
        <ele>759.6</ele>
        <time>2019-05-31T09:29:08Z</time>
      </trkpt>
      <trkpt lat="44.08062" lon="3.11046">
        <ele>759.4</ele>
        <time>2019-05-31T09:29:09Z</time>
      </trkpt>
      <trkpt lat="44.0806" lon="3.11052">
        <ele>759.3</ele>
        <time>2019-05-31T09:29:11Z</time>
      </trkpt>
      <trkpt lat="44.08059" lon="3.11056">
        <ele>759.2</ele>
        <time>2019-05-31T09:29:12Z</time>
      </trkpt>
      <trkpt lat="44.08059" lon="3.1106">
        <ele>759.1</ele>
        <time>2019-05-31T09:29:13Z</time>
      </trkpt>
      <trkpt lat="44.08059" lon="3.11065">
        <ele>759</ele>
        <time>2019-05-31T09:29:14Z</time>
      </trkpt>
      <trkpt lat="44.08058" lon="3.1107">
        <ele>758.9</ele>
        <time>2019-05-31T09:29:15Z</time>
      </trkpt>
      <trkpt lat="44.08058" lon="3.11075">
        <ele>758.7</ele>
        <time>2019-05-31T09:29:16Z</time>
      </trkpt>
      <trkpt lat="44.08058" lon="3.1108">
        <ele>758.7</ele>
        <time>2019-05-31T09:29:17Z</time>
      </trkpt>
      <trkpt lat="44.08058" lon="3.11085">
        <ele>758.6</ele>
        <time>2019-05-31T09:29:18Z</time>
      </trkpt>
      <trkpt lat="44.08058" lon="3.11091">
        <ele>758.5</ele>
        <time>2019-05-31T09:29:19Z</time>
      </trkpt>
      <trkpt lat="44.08059" lon="3.11098">
        <ele>758.4</ele>
        <time>2019-05-31T09:29:20Z</time>
      </trkpt>
      <trkpt lat="44.08059" lon="3.11103">
        <ele>758.3</ele>
        <time>2019-05-31T09:29:21Z</time>
      </trkpt>
      <trkpt lat="44.0806" lon="3.11108">
        <ele>758.2</ele>
        <time>2019-05-31T09:29:22Z</time>
      </trkpt>
      <trkpt lat="44.08061" lon="3.11112">
        <ele>758.1</ele>
        <time>2019-05-31T09:29:23Z</time>
      </trkpt>
      <trkpt lat="44.08061" lon="3.11117">
        <ele>758.1</ele>
        <time>2019-05-31T09:29:24Z</time>
      </trkpt>
      <trkpt lat="44.0806" lon="3.11121">
        <ele>758</ele>
        <time>2019-05-31T09:29:25Z</time>
      </trkpt>
      <trkpt lat="44.08057" lon="3.11129">
        <ele>757.9</ele>
        <time>2019-05-31T09:29:27Z</time>
      </trkpt>
      <trkpt lat="44.08056" lon="3.11134">
        <ele>757.8</ele>
        <time>2019-05-31T09:29:28Z</time>
      </trkpt>
      <trkpt lat="44.08055" lon="3.1114">
        <ele>757.7</ele>
        <time>2019-05-31T09:29:29Z</time>
      </trkpt>
      <trkpt lat="44.08054" lon="3.11146">
        <ele>757.7</ele>
        <time>2019-05-31T09:29:30Z</time>
      </trkpt>
      <trkpt lat="44.08053" lon="3.11152">
        <ele>757.6</ele>
        <time>2019-05-31T09:29:31Z</time>
      </trkpt>
      <trkpt lat="44.08051" lon="3.11157">
        <ele>757.5</ele>
        <time>2019-05-31T09:29:32Z</time>
      </trkpt>
      <trkpt lat="44.08049" lon="3.11161">
        <ele>757.5</ele>
        <time>2019-05-31T09:29:33Z</time>
      </trkpt>
      <trkpt lat="44.08046" lon="3.11166">
        <ele>757.4</ele>
        <time>2019-05-31T09:29:34Z</time>
      </trkpt>
      <trkpt lat="44.08043" lon="3.11171">
        <ele>757.3</ele>
        <time>2019-05-31T09:29:35Z</time>
      </trkpt>
      <trkpt lat="44.08041" lon="3.11178">
        <ele>757.1</ele>
        <time>2019-05-31T09:29:36Z</time>
      </trkpt>
      <trkpt lat="44.08036" lon="3.11193">
        <ele>756.9</ele>
        <time>2019-05-31T09:29:37Z</time>
      </trkpt>
      <trkpt lat="44.08036" lon="3.11199">
        <ele>756.9</ele>
        <time>2019-05-31T09:29:38Z</time>
      </trkpt>
      <trkpt lat="44.08035" lon="3.11204">
        <ele>756.8</ele>
        <time>2019-05-31T09:29:39Z</time>
      </trkpt>
      <trkpt lat="44.08033" lon="3.11207">
        <ele>756.7</ele>
        <time>2019-05-31T09:29:40Z</time>
      </trkpt>
      <trkpt lat="44.0803" lon="3.11212">
        <ele>756.6</ele>
        <time>2019-05-31T09:29:41Z</time>
      </trkpt>
      <trkpt lat="44.08028" lon="3.11216">
        <ele>756.5</ele>
        <time>2019-05-31T09:29:42Z</time>
      </trkpt>
      <trkpt lat="44.08028" lon="3.11222">
        <ele>756.5</ele>
        <time>2019-05-31T09:29:43Z</time>
      </trkpt>
      <trkpt lat="44.08028" lon="3.11226">
        <ele>756.4</ele>
        <time>2019-05-31T09:29:44Z</time>
      </trkpt>
      <trkpt lat="44.08023" lon="3.11229">
        <ele>756.4</ele>
        <time>2019-05-31T09:29:45Z</time>
      </trkpt>
      <trkpt lat="44.08024" lon="3.11238">
        <ele>756.3</ele>
        <time>2019-05-31T09:29:46Z</time>
      </trkpt>
      <trkpt lat="44.08021" lon="3.11242">
        <ele>756.3</ele>
        <time>2019-05-31T09:29:47Z</time>
      </trkpt>
      <trkpt lat="44.08018" lon="3.11247">
        <ele>756.3</ele>
        <time>2019-05-31T09:29:48Z</time>
      </trkpt>
      <trkpt lat="44.08016" lon="3.11252">
        <ele>756.3</ele>
        <time>2019-05-31T09:29:49Z</time>
      </trkpt>
      <trkpt lat="44.08013" lon="3.11254">
        <ele>756.2</ele>
        <time>2019-05-31T09:29:50Z</time>
      </trkpt>
      <trkpt lat="44.08011" lon="3.1126">
        <ele>756.2</ele>
        <time>2019-05-31T09:29:51Z</time>
      </trkpt>
      <trkpt lat="44.08007" lon="3.11269">
        <ele>756.2</ele>
        <time>2019-05-31T09:29:52Z</time>
      </trkpt>
      <trkpt lat="44.08002" lon="3.11272">
        <ele>756.1</ele>
        <time>2019-05-31T09:29:53Z</time>
      </trkpt>
      <trkpt lat="44.08" lon="3.11276">
        <ele>756.1</ele>
        <time>2019-05-31T09:29:54Z</time>
      </trkpt>
      <trkpt lat="44.07997" lon="3.11279">
        <ele>756.1</ele>
        <time>2019-05-31T09:29:55Z</time>
      </trkpt>
      <trkpt lat="44.07993" lon="3.11284">
        <ele>756</ele>
        <time>2019-05-31T09:29:56Z</time>
      </trkpt>
      <trkpt lat="44.07989" lon="3.11289">
        <ele>756</ele>
        <time>2019-05-31T09:29:57Z</time>
      </trkpt>
      <trkpt lat="44.07987" lon="3.11305">
        <ele>755.8</ele>
        <time>2019-05-31T09:29:58Z</time>
      </trkpt>
      <trkpt lat="44.07984" lon="3.1131">
        <ele>755.7</ele>
        <time>2019-05-31T09:29:59Z</time>
      </trkpt>
      <trkpt lat="44.07979" lon="3.11316">
        <ele>755.6</ele>
        <time>2019-05-31T09:30:00Z</time>
      </trkpt>
      <trkpt lat="44.07973" lon="3.11322">
        <ele>755.4</ele>
        <time>2019-05-31T09:30:01Z</time>
      </trkpt>
      <trkpt lat="44.07967" lon="3.11325">
        <ele>755.2</ele>
        <time>2019-05-31T09:30:02Z</time>
      </trkpt>
      <trkpt lat="44.0796" lon="3.11329">
        <ele>755.1</ele>
        <time>2019-05-31T09:30:03Z</time>
      </trkpt>
      <trkpt lat="44.07956" lon="3.11333">
        <ele>754.9</ele>
        <time>2019-05-31T09:30:04Z</time>
      </trkpt>
      <trkpt lat="44.07953" lon="3.11338">
        <ele>754.8</ele>
        <time>2019-05-31T09:30:05Z</time>
      </trkpt>
      <trkpt lat="44.0795" lon="3.11341">
        <ele>754.7</ele>
        <time>2019-05-31T09:30:06Z</time>
      </trkpt>
      <trkpt lat="44.07946" lon="3.11346">
        <ele>754.7</ele>
        <time>2019-05-31T09:30:07Z</time>
      </trkpt>
      <trkpt lat="44.07944" lon="3.1135">
        <ele>754.6</ele>
        <time>2019-05-31T09:30:08Z</time>
      </trkpt>
      <trkpt lat="44.07943" lon="3.11356">
        <ele>754.6</ele>
        <time>2019-05-31T09:30:09Z</time>
      </trkpt>
      <trkpt lat="44.07942" lon="3.11361">
        <ele>754.5</ele>
        <time>2019-05-31T09:30:10Z</time>
      </trkpt>
      <trkpt lat="44.0794" lon="3.11366">
        <ele>754.5</ele>
        <time>2019-05-31T09:30:11Z</time>
      </trkpt>
      <trkpt lat="44.07938" lon="3.11373">
        <ele>754.5</ele>
        <time>2019-05-31T09:30:12Z</time>
      </trkpt>
      <trkpt lat="44.07936" lon="3.11381">
        <ele>754.5</ele>
        <time>2019-05-31T09:30:13Z</time>
      </trkpt>
      <trkpt lat="44.07934" lon="3.11386">
        <ele>754.5</ele>
        <time>2019-05-31T09:30:14Z</time>
      </trkpt>
      <trkpt lat="44.07932" lon="3.11393">
        <ele>754.5</ele>
        <time>2019-05-31T09:30:15Z</time>
      </trkpt>
      <trkpt lat="44.07931" lon="3.11402">
        <ele>754.6</ele>
        <time>2019-05-31T09:30:16Z</time>
      </trkpt>
      <trkpt lat="44.07932" lon="3.11408">
        <ele>754.6</ele>
        <time>2019-05-31T09:30:17Z</time>
      </trkpt>
      <trkpt lat="44.07927" lon="3.11413">
        <ele>754.6</ele>
        <time>2019-05-31T09:30:18Z</time>
      </trkpt>
      <trkpt lat="44.07926" lon="3.11417">
        <ele>754.6</ele>
        <time>2019-05-31T09:30:19Z</time>
      </trkpt>
      <trkpt lat="44.07926" lon="3.11422">
        <ele>754.6</ele>
        <time>2019-05-31T09:30:20Z</time>
      </trkpt>
      <trkpt lat="44.07925" lon="3.11425">
        <ele>754.6</ele>
        <time>2019-05-31T09:30:21Z</time>
      </trkpt>
      <trkpt lat="44.07925" lon="3.11432">
        <ele>754.7</ele>
        <time>2019-05-31T09:30:22Z</time>
      </trkpt>
      <trkpt lat="44.07925" lon="3.11436">
        <ele>754.7</ele>
        <time>2019-05-31T09:30:23Z</time>
      </trkpt>
      <trkpt lat="44.07924" lon="3.1144">
        <ele>754.7</ele>
        <time>2019-05-31T09:30:24Z</time>
      </trkpt>
      <trkpt lat="44.07924" lon="3.11445">
        <ele>754.6</ele>
        <time>2019-05-31T09:30:25Z</time>
      </trkpt>
      <trkpt lat="44.07923" lon="3.1145">
        <ele>754.6</ele>
        <time>2019-05-31T09:30:26Z</time>
      </trkpt>
      <trkpt lat="44.07922" lon="3.11455">
        <ele>754.6</ele>
        <time>2019-05-31T09:30:27Z</time>
      </trkpt>
      <trkpt lat="44.0792" lon="3.11459">
        <ele>754.6</ele>
        <time>2019-05-31T09:30:28Z</time>
      </trkpt>
      <trkpt lat="44.07918" lon="3.11463">
        <ele>754.5</ele>
        <time>2019-05-31T09:30:29Z</time>
      </trkpt>
      <trkpt lat="44.07916" lon="3.11467">
        <ele>754.5</ele>
        <time>2019-05-31T09:30:30Z</time>
      </trkpt>
      <trkpt lat="44.07915" lon="3.1147">
        <ele>754.5</ele>
        <time>2019-05-31T09:30:31Z</time>
      </trkpt>
      <trkpt lat="44.07912" lon="3.11474">
        <ele>754.5</ele>
        <time>2019-05-31T09:30:33Z</time>
      </trkpt>
      <trkpt lat="44.07911" lon="3.11477">
        <ele>754.5</ele>
        <time>2019-05-31T09:30:35Z</time>
      </trkpt>
      <trkpt lat="44.07912" lon="3.11481">
        <ele>754.4</ele>
        <time>2019-05-31T09:30:38Z</time>
      </trkpt>
      <trkpt lat="44.07913" lon="3.11484">
        <ele>754.4</ele>
        <time>2019-05-31T09:31:13Z</time>
      </trkpt>
      <trkpt lat="44.07915" lon="3.11488">
        <ele>754.4</ele>
        <time>2019-05-31T09:31:15Z</time>
      </trkpt>
      <trkpt lat="44.07918" lon="3.11494">
        <ele>754.3</ele>
        <time>2019-05-31T09:31:17Z</time>
      </trkpt>
      <trkpt lat="44.07919" lon="3.11498">
        <ele>754.3</ele>
        <time>2019-05-31T09:31:18Z</time>
      </trkpt>
      <trkpt lat="44.0792" lon="3.11501">
        <ele>754.3</ele>
        <time>2019-05-31T09:31:19Z</time>
      </trkpt>
      <trkpt lat="44.07922" lon="3.11505">
        <ele>754.3</ele>
        <time>2019-05-31T09:31:20Z</time>
      </trkpt>
      <trkpt lat="44.07923" lon="3.11508">
        <ele>754.2</ele>
        <time>2019-05-31T09:31:21Z</time>
      </trkpt>
      <trkpt lat="44.07925" lon="3.11512">
        <ele>754.2</ele>
        <time>2019-05-31T09:31:22Z</time>
      </trkpt>
      <trkpt lat="44.07926" lon="3.11516">
        <ele>754.2</ele>
        <time>2019-05-31T09:31:23Z</time>
      </trkpt>
      <trkpt lat="44.07928" lon="3.1152">
        <ele>754.2</ele>
        <time>2019-05-31T09:31:24Z</time>
      </trkpt>
      <trkpt lat="44.07929" lon="3.11525">
        <ele>754.1</ele>
        <time>2019-05-31T09:31:25Z</time>
      </trkpt>
      <trkpt lat="44.0793" lon="3.11531">
        <ele>754</ele>
        <time>2019-05-31T09:31:26Z</time>
      </trkpt>
      <trkpt lat="44.07931" lon="3.11538">
        <ele>753.9</ele>
        <time>2019-05-31T09:31:27Z</time>
      </trkpt>
      <trkpt lat="44.07929" lon="3.11547">
        <ele>753.7</ele>
        <time>2019-05-31T09:31:28Z</time>
      </trkpt>
      <trkpt lat="44.0793" lon="3.11553">
        <ele>753.6</ele>
        <time>2019-05-31T09:31:29Z</time>
      </trkpt>
      <trkpt lat="44.07931" lon="3.11559">
        <ele>753.5</ele>
        <time>2019-05-31T09:31:30Z</time>
      </trkpt>
      <trkpt lat="44.07932" lon="3.11567">
        <ele>753.3</ele>
        <time>2019-05-31T09:31:31Z</time>
      </trkpt>
      <trkpt lat="44.07933" lon="3.11574">
        <ele>753.1</ele>
        <time>2019-05-31T09:31:32Z</time>
      </trkpt>
      <trkpt lat="44.07934" lon="3.11581">
        <ele>752.9</ele>
        <time>2019-05-31T09:31:33Z</time>
      </trkpt>
      <trkpt lat="44.07937" lon="3.11589">
        <ele>752.6</ele>
        <time>2019-05-31T09:31:34Z</time>
      </trkpt>
      <trkpt lat="44.07939" lon="3.11597">
        <ele>752.4</ele>
        <time>2019-05-31T09:31:35Z</time>
      </trkpt>
      <trkpt lat="44.07941" lon="3.11605">
        <ele>752.2</ele>
        <time>2019-05-31T09:31:36Z</time>
      </trkpt>
      <trkpt lat="44.07943" lon="3.11614">
        <ele>752</ele>
        <time>2019-05-31T09:31:37Z</time>
      </trkpt>
      <trkpt lat="44.07947" lon="3.11623">
        <ele>751.9</ele>
        <time>2019-05-31T09:31:38Z</time>
      </trkpt>
      <trkpt lat="44.07951" lon="3.11633">
        <ele>751.7</ele>
        <time>2019-05-31T09:31:39Z</time>
      </trkpt>
      <trkpt lat="44.07953" lon="3.11643">
        <ele>751.6</ele>
        <time>2019-05-31T09:31:40Z</time>
      </trkpt>
      <trkpt lat="44.07954" lon="3.11651">
        <ele>751.5</ele>
        <time>2019-05-31T09:31:41Z</time>
      </trkpt>
      <trkpt lat="44.07956" lon="3.1166">
        <ele>751.3</ele>
        <time>2019-05-31T09:31:42Z</time>
      </trkpt>
      <trkpt lat="44.07958" lon="3.11671">
        <ele>751.2</ele>
        <time>2019-05-31T09:31:43Z</time>
      </trkpt>
      <trkpt lat="44.07959" lon="3.11679">
        <ele>751.1</ele>
        <time>2019-05-31T09:31:44Z</time>
      </trkpt>
      <trkpt lat="44.0796" lon="3.1169">
        <ele>751</ele>
        <time>2019-05-31T09:31:45Z</time>
      </trkpt>
      <trkpt lat="44.07962" lon="3.117">
        <ele>750.9</ele>
        <time>2019-05-31T09:31:46Z</time>
      </trkpt>
      <trkpt lat="44.07964" lon="3.11709">
        <ele>750.7</ele>
        <time>2019-05-31T09:31:47Z</time>
      </trkpt>
      <trkpt lat="44.07964" lon="3.11717">
        <ele>750.6</ele>
        <time>2019-05-31T09:31:48Z</time>
      </trkpt>
      <trkpt lat="44.07965" lon="3.11727">
        <ele>750.5</ele>
        <time>2019-05-31T09:31:49Z</time>
      </trkpt>
      <trkpt lat="44.07966" lon="3.11735">
        <ele>750.4</ele>
        <time>2019-05-31T09:31:50Z</time>
      </trkpt>
      <trkpt lat="44.07966" lon="3.11743">
        <ele>750.3</ele>
        <time>2019-05-31T09:31:51Z</time>
      </trkpt>
      <trkpt lat="44.07967" lon="3.11751">
        <ele>750.2</ele>
        <time>2019-05-31T09:31:52Z</time>
      </trkpt>
      <trkpt lat="44.0797" lon="3.1176">
        <ele>750.1</ele>
        <time>2019-05-31T09:31:53Z</time>
      </trkpt>
      <trkpt lat="44.07972" lon="3.11768">
        <ele>750.1</ele>
        <time>2019-05-31T09:31:54Z</time>
      </trkpt>
      <trkpt lat="44.07975" lon="3.11776">
        <ele>750</ele>
        <time>2019-05-31T09:31:55Z</time>
      </trkpt>
      <trkpt lat="44.07976" lon="3.11784">
        <ele>749.9</ele>
        <time>2019-05-31T09:31:56Z</time>
      </trkpt>
      <trkpt lat="44.07977" lon="3.11793">
        <ele>749.8</ele>
        <time>2019-05-31T09:31:57Z</time>
      </trkpt>
      <trkpt lat="44.07979" lon="3.11802">
        <ele>749.8</ele>
        <time>2019-05-31T09:31:58Z</time>
      </trkpt>
      <trkpt lat="44.07979" lon="3.11811">
        <ele>749.7</ele>
        <time>2019-05-31T09:31:59Z</time>
      </trkpt>
      <trkpt lat="44.07981" lon="3.11819">
        <ele>749.7</ele>
        <time>2019-05-31T09:32:00Z</time>
      </trkpt>
      <trkpt lat="44.07981" lon="3.11826">
        <ele>749.7</ele>
        <time>2019-05-31T09:32:01Z</time>
      </trkpt>
      <trkpt lat="44.07982" lon="3.11835">
        <ele>749.6</ele>
        <time>2019-05-31T09:32:02Z</time>
      </trkpt>
      <trkpt lat="44.07983" lon="3.11843">
        <ele>749.6</ele>
        <time>2019-05-31T09:32:03Z</time>
      </trkpt>
      <trkpt lat="44.07985" lon="3.1185">
        <ele>749.6</ele>
        <time>2019-05-31T09:32:04Z</time>
      </trkpt>
      <trkpt lat="44.07986" lon="3.11859">
        <ele>749.5</ele>
        <time>2019-05-31T09:32:05Z</time>
      </trkpt>
      <trkpt lat="44.07986" lon="3.11867">
        <ele>749.5</ele>
        <time>2019-05-31T09:32:06Z</time>
      </trkpt>
      <trkpt lat="44.07987" lon="3.11875">
        <ele>749.4</ele>
        <time>2019-05-31T09:32:07Z</time>
      </trkpt>
      <trkpt lat="44.07989" lon="3.11883">
        <ele>749.4</ele>
        <time>2019-05-31T09:32:08Z</time>
      </trkpt>
      <trkpt lat="44.07991" lon="3.1189">
        <ele>749.3</ele>
        <time>2019-05-31T09:32:09Z</time>
      </trkpt>
      <trkpt lat="44.07994" lon="3.119">
        <ele>749.2</ele>
        <time>2019-05-31T09:32:10Z</time>
      </trkpt>
      <trkpt lat="44.07996" lon="3.11907">
        <ele>749.2</ele>
        <time>2019-05-31T09:32:11Z</time>
      </trkpt>
      <trkpt lat="44.07998" lon="3.11916">
        <ele>749.1</ele>
        <time>2019-05-31T09:32:12Z</time>
      </trkpt>
      <trkpt lat="44.07998" lon="3.11922">
        <ele>749</ele>
        <time>2019-05-31T09:32:13Z</time>
      </trkpt>
      <trkpt lat="44.07998" lon="3.11929">
        <ele>749</ele>
        <time>2019-05-31T09:32:14Z</time>
      </trkpt>
      <trkpt lat="44.08" lon="3.11937">
        <ele>749</ele>
        <time>2019-05-31T09:32:15Z</time>
      </trkpt>
      <trkpt lat="44.08" lon="3.11945">
        <ele>748.9</ele>
        <time>2019-05-31T09:32:16Z</time>
      </trkpt>
      <trkpt lat="44.08" lon="3.11954">
        <ele>748.9</ele>
        <time>2019-05-31T09:32:17Z</time>
      </trkpt>
      <trkpt lat="44.08001" lon="3.11962">
        <ele>748.9</ele>
        <time>2019-05-31T09:32:18Z</time>
      </trkpt>
      <trkpt lat="44.08002" lon="3.11969">
        <ele>748.9</ele>
        <time>2019-05-31T09:32:19Z</time>
      </trkpt>
      <trkpt lat="44.08003" lon="3.11977">
        <ele>748.8</ele>
        <time>2019-05-31T09:32:20Z</time>
      </trkpt>
      <trkpt lat="44.08003" lon="3.11983">
        <ele>748.8</ele>
        <time>2019-05-31T09:32:21Z</time>
      </trkpt>
      <trkpt lat="44.08003" lon="3.11992">
        <ele>748.8</ele>
        <time>2019-05-31T09:32:22Z</time>
      </trkpt>
      <trkpt lat="44.08003" lon="3.11999">
        <ele>748.8</ele>
        <time>2019-05-31T09:32:23Z</time>
      </trkpt>
      <trkpt lat="44.08005" lon="3.12006">
        <ele>748.8</ele>
        <time>2019-05-31T09:32:24Z</time>
      </trkpt>
      <trkpt lat="44.08005" lon="3.12014">
        <ele>748.8</ele>
        <time>2019-05-31T09:32:25Z</time>
      </trkpt>
      <trkpt lat="44.08006" lon="3.12021">
        <ele>748.8</ele>
        <time>2019-05-31T09:32:26Z</time>
      </trkpt>
      <trkpt lat="44.08006" lon="3.12029">
        <ele>748.7</ele>
        <time>2019-05-31T09:32:27Z</time>
      </trkpt>
      <trkpt lat="44.08008" lon="3.12037">
        <ele>748.7</ele>
        <time>2019-05-31T09:32:28Z</time>
      </trkpt>
      <trkpt lat="44.0801" lon="3.12045">
        <ele>748.7</ele>
        <time>2019-05-31T09:32:29Z</time>
      </trkpt>
      <trkpt lat="44.08011" lon="3.12053">
        <ele>748.7</ele>
        <time>2019-05-31T09:32:30Z</time>
      </trkpt>
      <trkpt lat="44.08012" lon="3.1206">
        <ele>748.7</ele>
        <time>2019-05-31T09:32:31Z</time>
      </trkpt>
      <trkpt lat="44.08013" lon="3.12067">
        <ele>748.7</ele>
        <time>2019-05-31T09:32:32Z</time>
      </trkpt>
      <trkpt lat="44.08013" lon="3.12072">
        <ele>748.8</ele>
        <time>2019-05-31T09:32:33Z</time>
      </trkpt>
      <trkpt lat="44.08016" lon="3.1208">
        <ele>748.8</ele>
        <time>2019-05-31T09:32:34Z</time>
      </trkpt>
      <trkpt lat="44.08017" lon="3.12088">
        <ele>748.8</ele>
        <time>2019-05-31T09:32:35Z</time>
      </trkpt>
      <trkpt lat="44.08017" lon="3.12094">
        <ele>748.9</ele>
        <time>2019-05-31T09:32:36Z</time>
      </trkpt>
      <trkpt lat="44.08019" lon="3.12101">
        <ele>749</ele>
        <time>2019-05-31T09:32:37Z</time>
      </trkpt>
      <trkpt lat="44.08022" lon="3.1211">
        <ele>749</ele>
        <time>2019-05-31T09:32:38Z</time>
      </trkpt>
      <trkpt lat="44.08022" lon="3.12117">
        <ele>749.1</ele>
        <time>2019-05-31T09:32:39Z</time>
      </trkpt>
      <trkpt lat="44.08023" lon="3.12125">
        <ele>749</ele>
        <time>2019-05-31T09:32:40Z</time>
      </trkpt>
      <trkpt lat="44.08023" lon="3.12131">
        <ele>748.9</ele>
        <time>2019-05-31T09:32:41Z</time>
      </trkpt>
      <trkpt lat="44.08025" lon="3.12137">
        <ele>748.8</ele>
        <time>2019-05-31T09:32:42Z</time>
      </trkpt>
      <trkpt lat="44.08027" lon="3.12142">
        <ele>748.6</ele>
        <time>2019-05-31T09:32:43Z</time>
      </trkpt>
      <trkpt lat="44.08026" lon="3.12148">
        <ele>748.5</ele>
        <time>2019-05-31T09:32:45Z</time>
      </trkpt>
      <trkpt lat="44.08025" lon="3.12153">
        <ele>748.4</ele>
        <time>2019-05-31T09:32:47Z</time>
      </trkpt>
      <trkpt lat="44.08029" lon="3.12155">
        <ele>748.3</ele>
        <time>2019-05-31T09:32:50Z</time>
      </trkpt>
      <trkpt lat="44.08029" lon="3.1215">
        <ele>748.2</ele>
        <time>2019-05-31T09:32:53Z</time>
      </trkpt>
      <trkpt lat="44.08027" lon="3.12148">
        <ele>748.2</ele>
        <time>2019-05-31T09:32:56Z</time>
      </trkpt>
      <trkpt lat="44.08024" lon="3.12147">
        <ele>748.1</ele>
        <time>2019-05-31T09:32:59Z</time>
      </trkpt>
      <trkpt lat="44.08023" lon="3.12151">
        <ele>748</ele>
        <time>2019-05-31T09:33:03Z</time>
      </trkpt>
      <trkpt lat="44.08023" lon="3.12155">
        <ele>748</ele>
        <time>2019-05-31T09:33:36Z</time>
      </trkpt>
      <trkpt lat="44.08025" lon="3.12159">
        <ele>747.9</ele>
        <time>2019-05-31T09:33:38Z</time>
      </trkpt>
      <trkpt lat="44.08026" lon="3.12165">
        <ele>747.8</ele>
        <time>2019-05-31T09:33:40Z</time>
      </trkpt>
      <trkpt lat="44.08027" lon="3.12169">
        <ele>747.7</ele>
        <time>2019-05-31T09:33:41Z</time>
      </trkpt>
      <trkpt lat="44.08027" lon="3.12174">
        <ele>747.7</ele>
        <time>2019-05-31T09:33:42Z</time>
      </trkpt>
      <trkpt lat="44.08027" lon="3.1218">
        <ele>747.6</ele>
        <time>2019-05-31T09:33:43Z</time>
      </trkpt>
      <trkpt lat="44.08028" lon="3.12188">
        <ele>747.5</ele>
        <time>2019-05-31T09:33:44Z</time>
      </trkpt>
      <trkpt lat="44.08029" lon="3.12196">
        <ele>747.4</ele>
        <time>2019-05-31T09:33:45Z</time>
      </trkpt>
      <trkpt lat="44.0803" lon="3.12204">
        <ele>747.2</ele>
        <time>2019-05-31T09:33:46Z</time>
      </trkpt>
      <trkpt lat="44.08032" lon="3.12212">
        <ele>747.1</ele>
        <time>2019-05-31T09:33:47Z</time>
      </trkpt>
      <trkpt lat="44.08033" lon="3.12222">
        <ele>746.8</ele>
        <time>2019-05-31T09:33:48Z</time>
      </trkpt>
      <trkpt lat="44.08035" lon="3.12231">
        <ele>746.6</ele>
        <time>2019-05-31T09:33:49Z</time>
      </trkpt>
      <trkpt lat="44.08038" lon="3.12241">
        <ele>746.3</ele>
        <time>2019-05-31T09:33:50Z</time>
      </trkpt>
      <trkpt lat="44.08041" lon="3.12251">
        <ele>746.1</ele>
        <time>2019-05-31T09:33:51Z</time>
      </trkpt>
      <trkpt lat="44.08044" lon="3.1226">
        <ele>745.5</ele>
        <time>2019-05-31T09:33:52Z</time>
      </trkpt>
      <trkpt lat="44.08045" lon="3.1227">
        <ele>745.5</ele>
        <time>2019-05-31T09:33:53Z</time>
      </trkpt>
      <trkpt lat="44.08042" lon="3.12277">
        <ele>745.3</ele>
        <time>2019-05-31T09:33:54Z</time>
      </trkpt>
      <trkpt lat="44.08039" lon="3.12284">
        <ele>745.1</ele>
        <time>2019-05-31T09:33:55Z</time>
      </trkpt>
      <trkpt lat="44.08036" lon="3.12291">
        <ele>744.8</ele>
        <time>2019-05-31T09:33:56Z</time>
      </trkpt>
      <trkpt lat="44.08033" lon="3.12299">
        <ele>744.6</ele>
        <time>2019-05-31T09:33:57Z</time>
      </trkpt>
      <trkpt lat="44.0803" lon="3.12307">
        <ele>744.4</ele>
        <time>2019-05-31T09:33:58Z</time>
      </trkpt>
      <trkpt lat="44.08018" lon="3.12302">
        <ele>744.1</ele>
        <time>2019-05-31T09:33:59Z</time>
      </trkpt>
      <trkpt lat="44.08011" lon="3.12302">
        <ele>743.9</ele>
        <time>2019-05-31T09:34:00Z</time>
      </trkpt>
      <trkpt lat="44.08005" lon="3.12302">
        <ele>743.6</ele>
        <time>2019-05-31T09:34:01Z</time>
      </trkpt>
      <trkpt lat="44.08001" lon="3.12303">
        <ele>743.4</ele>
        <time>2019-05-31T09:34:02Z</time>
      </trkpt>
      <trkpt lat="44.07997" lon="3.12303">
        <ele>743.2</ele>
        <time>2019-05-31T09:34:03Z</time>
      </trkpt>
      <trkpt lat="44.07992" lon="3.12302">
        <ele>742.9</ele>
        <time>2019-05-31T09:34:04Z</time>
      </trkpt>
      <trkpt lat="44.07987" lon="3.12301">
        <ele>742.7</ele>
        <time>2019-05-31T09:34:05Z</time>
      </trkpt>
      <trkpt lat="44.07984" lon="3.12302">
        <ele>742.5</ele>
        <time>2019-05-31T09:34:06Z</time>
      </trkpt>
      <trkpt lat="44.07981" lon="3.12302">
        <ele>742.4</ele>
        <time>2019-05-31T09:34:07Z</time>
      </trkpt>
      <trkpt lat="44.07978" lon="3.12303">
        <ele>742.2</ele>
        <time>2019-05-31T09:34:08Z</time>
      </trkpt>
      <trkpt lat="44.07974" lon="3.12305">
        <ele>742</ele>
        <time>2019-05-31T09:34:10Z</time>
      </trkpt>
      <trkpt lat="44.0797" lon="3.12306">
        <ele>741.8</ele>
        <time>2019-05-31T09:34:12Z</time>
      </trkpt>
      <trkpt lat="44.07967" lon="3.12307">
        <ele>741.6</ele>
        <time>2019-05-31T09:34:13Z</time>
      </trkpt>
      <trkpt lat="44.07962" lon="3.12309">
        <ele>741.4</ele>
        <time>2019-05-31T09:34:15Z</time>
      </trkpt>
      <trkpt lat="44.07959" lon="3.1231">
        <ele>741.2</ele>
        <time>2019-05-31T09:34:16Z</time>
      </trkpt>
      <trkpt lat="44.07957" lon="3.12311">
        <ele>741.1</ele>
        <time>2019-05-31T09:34:17Z</time>
      </trkpt>
      <trkpt lat="44.07954" lon="3.12312">
        <ele>740.9</ele>
        <time>2019-05-31T09:34:18Z</time>
      </trkpt>
      <trkpt lat="44.07951" lon="3.12312">
        <ele>740.7</ele>
        <time>2019-05-31T09:34:19Z</time>
      </trkpt>
      <trkpt lat="44.07947" lon="3.12313">
        <ele>740.4</ele>
        <time>2019-05-31T09:34:20Z</time>
      </trkpt>
      <trkpt lat="44.07944" lon="3.12314">
        <ele>740.2</ele>
        <time>2019-05-31T09:34:21Z</time>
      </trkpt>
      <trkpt lat="44.07941" lon="3.12314">
        <ele>740</ele>
        <time>2019-05-31T09:34:22Z</time>
      </trkpt>
      <trkpt lat="44.07937" lon="3.12314">
        <ele>739.7</ele>
        <time>2019-05-31T09:34:23Z</time>
      </trkpt>
      <trkpt lat="44.07933" lon="3.12315">
        <ele>739.4</ele>
        <time>2019-05-31T09:34:24Z</time>
      </trkpt>
      <trkpt lat="44.07929" lon="3.12315">
        <ele>739.1</ele>
        <time>2019-05-31T09:34:25Z</time>
      </trkpt>
      <trkpt lat="44.07925" lon="3.12316">
        <ele>739.2</ele>
        <time>2019-05-31T09:34:26Z</time>
      </trkpt>
      <trkpt lat="44.07921" lon="3.12317">
        <ele>739.3</ele>
        <time>2019-05-31T09:34:27Z</time>
      </trkpt>
      <trkpt lat="44.07918" lon="3.12319">
        <ele>739.4</ele>
        <time>2019-05-31T09:34:28Z</time>
      </trkpt>
      <trkpt lat="44.07915" lon="3.12322">
        <ele>739.4</ele>
        <time>2019-05-31T09:34:29Z</time>
      </trkpt>
      <trkpt lat="44.07912" lon="3.12325">
        <ele>739.5</ele>
        <time>2019-05-31T09:34:30Z</time>
      </trkpt>
      <trkpt lat="44.07908" lon="3.12328">
        <ele>739.6</ele>
        <time>2019-05-31T09:34:31Z</time>
      </trkpt>
      <trkpt lat="44.07904" lon="3.12332">
        <ele>739.7</ele>
        <time>2019-05-31T09:34:32Z</time>
      </trkpt>
      <trkpt lat="44.07899" lon="3.12335">
        <ele>739.8</ele>
        <time>2019-05-31T09:34:33Z</time>
      </trkpt>
      <trkpt lat="44.07895" lon="3.12339">
        <ele>739.9</ele>
        <time>2019-05-31T09:34:34Z</time>
      </trkpt>
      <trkpt lat="44.0789" lon="3.12341">
        <ele>740</ele>
        <time>2019-05-31T09:34:35Z</time>
      </trkpt>
      <trkpt lat="44.07887" lon="3.12344">
        <ele>740.1</ele>
        <time>2019-05-31T09:34:36Z</time>
      </trkpt>
      <trkpt lat="44.07883" lon="3.12347">
        <ele>740.2</ele>
        <time>2019-05-31T09:34:37Z</time>
      </trkpt>
      <trkpt lat="44.07881" lon="3.12351">
        <ele>740.3</ele>
        <time>2019-05-31T09:34:38Z</time>
      </trkpt>
      <trkpt lat="44.07876" lon="3.12354">
        <ele>740.4</ele>
        <time>2019-05-31T09:34:39Z</time>
      </trkpt>
      <trkpt lat="44.07872" lon="3.12357">
        <ele>740.5</ele>
        <time>2019-05-31T09:34:40Z</time>
      </trkpt>
      <trkpt lat="44.07869" lon="3.12361">
        <ele>740.7</ele>
        <time>2019-05-31T09:34:41Z</time>
      </trkpt>
      <trkpt lat="44.07864" lon="3.12365">
        <ele>740.9</ele>
        <time>2019-05-31T09:34:42Z</time>
      </trkpt>
      <trkpt lat="44.0786" lon="3.12368">
        <ele>741.1</ele>
        <time>2019-05-31T09:34:43Z</time>
      </trkpt>
      <trkpt lat="44.07855" lon="3.12372">
        <ele>741.3</ele>
        <time>2019-05-31T09:34:44Z</time>
      </trkpt>
      <trkpt lat="44.07851" lon="3.12375">
        <ele>741.6</ele>
        <time>2019-05-31T09:34:45Z</time>
      </trkpt>
      <trkpt lat="44.07847" lon="3.12379">
        <ele>741.8</ele>
        <time>2019-05-31T09:34:46Z</time>
      </trkpt>
      <trkpt lat="44.07842" lon="3.12385">
        <ele>742.1</ele>
        <time>2019-05-31T09:34:47Z</time>
      </trkpt>
      <trkpt lat="44.07838" lon="3.12386">
        <ele>742.3</ele>
        <time>2019-05-31T09:34:48Z</time>
      </trkpt>
      <trkpt lat="44.07833" lon="3.12388">
        <ele>742.4</ele>
        <time>2019-05-31T09:34:49Z</time>
      </trkpt>
      <trkpt lat="44.07829" lon="3.1239">
        <ele>742.5</ele>
        <time>2019-05-31T09:34:50Z</time>
      </trkpt>
      <trkpt lat="44.07824" lon="3.12392">
        <ele>742.6</ele>
        <time>2019-05-31T09:34:51Z</time>
      </trkpt>
      <trkpt lat="44.07819" lon="3.12393">
        <ele>742.8</ele>
        <time>2019-05-31T09:34:52Z</time>
      </trkpt>
      <trkpt lat="44.07814" lon="3.12395">
        <ele>742.9</ele>
        <time>2019-05-31T09:34:53Z</time>
      </trkpt>
      <trkpt lat="44.07809" lon="3.12393">
        <ele>743</ele>
        <time>2019-05-31T09:34:54Z</time>
      </trkpt>
      <trkpt lat="44.07804" lon="3.12392">
        <ele>743.1</ele>
        <time>2019-05-31T09:34:55Z</time>
      </trkpt>
      <trkpt lat="44.07798" lon="3.12391">
        <ele>743.2</ele>
        <time>2019-05-31T09:34:56Z</time>
      </trkpt>
      <trkpt lat="44.07794" lon="3.12391">
        <ele>743.3</ele>
        <time>2019-05-31T09:34:57Z</time>
      </trkpt>
      <trkpt lat="44.0779" lon="3.1239">
        <ele>743.5</ele>
        <time>2019-05-31T09:34:58Z</time>
      </trkpt>
      <trkpt lat="44.07785" lon="3.1239">
        <ele>743.7</ele>
        <time>2019-05-31T09:34:59Z</time>
      </trkpt>
      <trkpt lat="44.07779" lon="3.12391">
        <ele>744</ele>
        <time>2019-05-31T09:35:00Z</time>
      </trkpt>
      <trkpt lat="44.07774" lon="3.12392">
        <ele>744.4</ele>
        <time>2019-05-31T09:35:01Z</time>
      </trkpt>
      <trkpt lat="44.0777" lon="3.12395">
        <ele>744.7</ele>
        <time>2019-05-31T09:35:02Z</time>
      </trkpt>
      <trkpt lat="44.07765" lon="3.12399">
        <ele>744.9</ele>
        <time>2019-05-31T09:35:03Z</time>
      </trkpt>
      <trkpt lat="44.0776" lon="3.12403">
        <ele>744.9</ele>
        <time>2019-05-31T09:35:04Z</time>
      </trkpt>
      <trkpt lat="44.07756" lon="3.12406">
        <ele>744.9</ele>
        <time>2019-05-31T09:35:05Z</time>
      </trkpt>
      <trkpt lat="44.07752" lon="3.1241">
        <ele>744.9</ele>
        <time>2019-05-31T09:35:06Z</time>
      </trkpt>
      <trkpt lat="44.07747" lon="3.12415">
        <ele>744.9</ele>
        <time>2019-05-31T09:35:07Z</time>
      </trkpt>
      <trkpt lat="44.07744" lon="3.12419">
        <ele>745</ele>
        <time>2019-05-31T09:35:08Z</time>
      </trkpt>
      <trkpt lat="44.07741" lon="3.12422">
        <ele>745</ele>
        <time>2019-05-31T09:35:09Z</time>
      </trkpt>
      <trkpt lat="44.07738" lon="3.12427">
        <ele>745</ele>
        <time>2019-05-31T09:35:10Z</time>
      </trkpt>
      <trkpt lat="44.07734" lon="3.12431">
        <ele>745.1</ele>
        <time>2019-05-31T09:35:11Z</time>
      </trkpt>
      <trkpt lat="44.07729" lon="3.12434">
        <ele>745.1</ele>
        <time>2019-05-31T09:35:12Z</time>
      </trkpt>
      <trkpt lat="44.07724" lon="3.12443">
        <ele>745.2</ele>
        <time>2019-05-31T09:35:13Z</time>
      </trkpt>
      <trkpt lat="44.07722" lon="3.12447">
        <ele>745.2</ele>
        <time>2019-05-31T09:35:14Z</time>
      </trkpt>
      <trkpt lat="44.07717" lon="3.12451">
        <ele>745.3</ele>
        <time>2019-05-31T09:35:15Z</time>
      </trkpt>
      <trkpt lat="44.07713" lon="3.12456">
        <ele>745.3</ele>
        <time>2019-05-31T09:35:16Z</time>
      </trkpt>
      <trkpt lat="44.0771" lon="3.12458">
        <ele>745.3</ele>
        <time>2019-05-31T09:35:17Z</time>
      </trkpt>
      <trkpt lat="44.07706" lon="3.12461">
        <ele>745.4</ele>
        <time>2019-05-31T09:35:18Z</time>
      </trkpt>
      <trkpt lat="44.07703" lon="3.12469">
        <ele>745.5</ele>
        <time>2019-05-31T09:35:19Z</time>
      </trkpt>
      <trkpt lat="44.07699" lon="3.12473">
        <ele>745.5</ele>
        <time>2019-05-31T09:35:20Z</time>
      </trkpt>
      <trkpt lat="44.07697" lon="3.1248">
        <ele>745.6</ele>
        <time>2019-05-31T09:35:21Z</time>
      </trkpt>
      <trkpt lat="44.07692" lon="3.12485">
        <ele>745.6</ele>
        <time>2019-05-31T09:35:22Z</time>
      </trkpt>
      <trkpt lat="44.07688" lon="3.12489">
        <ele>745.7</ele>
        <time>2019-05-31T09:35:23Z</time>
      </trkpt>
      <trkpt lat="44.07684" lon="3.12495">
        <ele>745.7</ele>
        <time>2019-05-31T09:35:24Z</time>
      </trkpt>
      <trkpt lat="44.07681" lon="3.125">
        <ele>745.7</ele>
        <time>2019-05-31T09:35:25Z</time>
      </trkpt>
      <trkpt lat="44.07678" lon="3.12505">
        <ele>745.7</ele>
        <time>2019-05-31T09:35:26Z</time>
      </trkpt>
      <trkpt lat="44.07674" lon="3.12511">
        <ele>745.8</ele>
        <time>2019-05-31T09:35:27Z</time>
      </trkpt>
      <trkpt lat="44.07671" lon="3.1252">
        <ele>745.8</ele>
        <time>2019-05-31T09:35:28Z</time>
      </trkpt>
      <trkpt lat="44.07668" lon="3.12525">
        <ele>745.8</ele>
        <time>2019-05-31T09:35:29Z</time>
      </trkpt>
      <trkpt lat="44.07664" lon="3.12532">
        <ele>745.8</ele>
        <time>2019-05-31T09:35:30Z</time>
      </trkpt>
      <trkpt lat="44.0766" lon="3.12537">
        <ele>745.8</ele>
        <time>2019-05-31T09:35:31Z</time>
      </trkpt>
      <trkpt lat="44.07658" lon="3.12542">
        <ele>745.8</ele>
        <time>2019-05-31T09:35:32Z</time>
      </trkpt>
      <trkpt lat="44.07654" lon="3.12547">
        <ele>745.8</ele>
        <time>2019-05-31T09:35:33Z</time>
      </trkpt>
      <trkpt lat="44.0765" lon="3.12552">
        <ele>745.8</ele>
        <time>2019-05-31T09:35:34Z</time>
      </trkpt>
      <trkpt lat="44.07648" lon="3.12559">
        <ele>745.8</ele>
        <time>2019-05-31T09:35:35Z</time>
      </trkpt>
      <trkpt lat="44.07646" lon="3.12564">
        <ele>745.8</ele>
        <time>2019-05-31T09:35:36Z</time>
      </trkpt>
      <trkpt lat="44.07645" lon="3.12571">
        <ele>745.8</ele>
        <time>2019-05-31T09:35:37Z</time>
      </trkpt>
      <trkpt lat="44.07643" lon="3.1258">
        <ele>745.8</ele>
        <time>2019-05-31T09:35:38Z</time>
      </trkpt>
      <trkpt lat="44.07644" lon="3.12587">
        <ele>745.8</ele>
        <time>2019-05-31T09:35:39Z</time>
      </trkpt>
      <trkpt lat="44.07646" lon="3.12595">
        <ele>745.8</ele>
        <time>2019-05-31T09:35:40Z</time>
      </trkpt>
      <trkpt lat="44.07648" lon="3.12602">
        <ele>745.8</ele>
        <time>2019-05-31T09:35:41Z</time>
      </trkpt>
      <trkpt lat="44.07651" lon="3.12607">
        <ele>745.8</ele>
        <time>2019-05-31T09:35:42Z</time>
      </trkpt>
      <trkpt lat="44.07655" lon="3.12614">
        <ele>745.9</ele>
        <time>2019-05-31T09:35:43Z</time>
      </trkpt>
      <trkpt lat="44.07658" lon="3.12619">
        <ele>746</ele>
        <time>2019-05-31T09:35:44Z</time>
      </trkpt>
      <trkpt lat="44.07662" lon="3.12625">
        <ele>746</ele>
        <time>2019-05-31T09:35:45Z</time>
      </trkpt>
      <trkpt lat="44.07665" lon="3.12632">
        <ele>746.1</ele>
        <time>2019-05-31T09:35:46Z</time>
      </trkpt>
      <trkpt lat="44.07669" lon="3.1264">
        <ele>746.2</ele>
        <time>2019-05-31T09:35:47Z</time>
      </trkpt>
      <trkpt lat="44.07672" lon="3.12646">
        <ele>746.3</ele>
        <time>2019-05-31T09:35:48Z</time>
      </trkpt>
      <trkpt lat="44.07674" lon="3.12653">
        <ele>746.4</ele>
        <time>2019-05-31T09:35:49Z</time>
      </trkpt>
      <trkpt lat="44.07677" lon="3.12659">
        <ele>746.5</ele>
        <time>2019-05-31T09:35:50Z</time>
      </trkpt>
      <trkpt lat="44.0768" lon="3.12667">
        <ele>746.6</ele>
        <time>2019-05-31T09:35:51Z</time>
      </trkpt>
      <trkpt lat="44.07682" lon="3.12674">
        <ele>746.7</ele>
        <time>2019-05-31T09:35:52Z</time>
      </trkpt>
      <trkpt lat="44.07684" lon="3.1268">
        <ele>746.7</ele>
        <time>2019-05-31T09:35:53Z</time>
      </trkpt>
      <trkpt lat="44.07686" lon="3.12686">
        <ele>746.8</ele>
        <time>2019-05-31T09:35:54Z</time>
      </trkpt>
      <trkpt lat="44.07692" lon="3.12694">
        <ele>746.9</ele>
        <time>2019-05-31T09:35:55Z</time>
      </trkpt>
      <trkpt lat="44.07696" lon="3.12701">
        <ele>746.9</ele>
        <time>2019-05-31T09:35:56Z</time>
      </trkpt>
      <trkpt lat="44.07698" lon="3.12708">
        <ele>747</ele>
        <time>2019-05-31T09:35:57Z</time>
      </trkpt>
      <trkpt lat="44.077" lon="3.12711">
        <ele>747</ele>
        <time>2019-05-31T09:35:58Z</time>
      </trkpt>
      <trkpt lat="44.07705" lon="3.12719">
        <ele>747.1</ele>
        <time>2019-05-31T09:35:59Z</time>
      </trkpt>
      <trkpt lat="44.07706" lon="3.12727">
        <ele>747.2</ele>
        <time>2019-05-31T09:36:00Z</time>
      </trkpt>
      <trkpt lat="44.07707" lon="3.12734">
        <ele>747.3</ele>
        <time>2019-05-31T09:36:01Z</time>
      </trkpt>
      <trkpt lat="44.0771" lon="3.12744">
        <ele>747.4</ele>
        <time>2019-05-31T09:36:02Z</time>
      </trkpt>
      <trkpt lat="44.0771" lon="3.12751">
        <ele>747.5</ele>
        <time>2019-05-31T09:36:03Z</time>
      </trkpt>
      <trkpt lat="44.07709" lon="3.12761">
        <ele>747.6</ele>
        <time>2019-05-31T09:36:04Z</time>
      </trkpt>
      <trkpt lat="44.07706" lon="3.1277">
        <ele>747.8</ele>
        <time>2019-05-31T09:36:05Z</time>
      </trkpt>
      <trkpt lat="44.07705" lon="3.12777">
        <ele>748</ele>
        <time>2019-05-31T09:36:06Z</time>
      </trkpt>
      <trkpt lat="44.07702" lon="3.12785">
        <ele>748.2</ele>
        <time>2019-05-31T09:36:07Z</time>
      </trkpt>
      <trkpt lat="44.07701" lon="3.12792">
        <ele>748.3</ele>
        <time>2019-05-31T09:36:08Z</time>
      </trkpt>
      <trkpt lat="44.07698" lon="3.12798">
        <ele>748.5</ele>
        <time>2019-05-31T09:36:09Z</time>
      </trkpt>
      <trkpt lat="44.07694" lon="3.12804">
        <ele>748.7</ele>
        <time>2019-05-31T09:36:10Z</time>
      </trkpt>
      <trkpt lat="44.07691" lon="3.12808">
        <ele>748.9</ele>
        <time>2019-05-31T09:36:11Z</time>
      </trkpt>
      <trkpt lat="44.07686" lon="3.12813">
        <ele>749</ele>
        <time>2019-05-31T09:36:12Z</time>
      </trkpt>
      <trkpt lat="44.07682" lon="3.12817">
        <ele>749.2</ele>
        <time>2019-05-31T09:36:13Z</time>
      </trkpt>
      <trkpt lat="44.07677" lon="3.1282">
        <ele>749.3</ele>
        <time>2019-05-31T09:36:14Z</time>
      </trkpt>
      <trkpt lat="44.07673" lon="3.12822">
        <ele>749.4</ele>
        <time>2019-05-31T09:36:15Z</time>
      </trkpt>
      <trkpt lat="44.07668" lon="3.12826">
        <ele>749.5</ele>
        <time>2019-05-31T09:36:16Z</time>
      </trkpt>
      <trkpt lat="44.07665" lon="3.12828">
        <ele>749.6</ele>
        <time>2019-05-31T09:36:17Z</time>
      </trkpt>
      <trkpt lat="44.07661" lon="3.1283">
        <ele>749.7</ele>
        <time>2019-05-31T09:36:18Z</time>
      </trkpt>
      <trkpt lat="44.07656" lon="3.12833">
        <ele>749.8</ele>
        <time>2019-05-31T09:36:19Z</time>
      </trkpt>
      <trkpt lat="44.07652" lon="3.12836">
        <ele>749.9</ele>
        <time>2019-05-31T09:36:20Z</time>
      </trkpt>
      <trkpt lat="44.07647" lon="3.1284">
        <ele>750</ele>
        <time>2019-05-31T09:36:21Z</time>
      </trkpt>
      <trkpt lat="44.07643" lon="3.12843">
        <ele>750.1</ele>
        <time>2019-05-31T09:36:22Z</time>
      </trkpt>
      <trkpt lat="44.0764" lon="3.12848">
        <ele>750.2</ele>
        <time>2019-05-31T09:36:23Z</time>
      </trkpt>
      <trkpt lat="44.07635" lon="3.12853">
        <ele>750.4</ele>
        <time>2019-05-31T09:36:24Z</time>
      </trkpt>
      <trkpt lat="44.07633" lon="3.12858">
        <ele>750.4</ele>
        <time>2019-05-31T09:36:25Z</time>
      </trkpt>
      <trkpt lat="44.07629" lon="3.12862">
        <ele>750.5</ele>
        <time>2019-05-31T09:36:26Z</time>
      </trkpt>
      <trkpt lat="44.07627" lon="3.12866">
        <ele>750.6</ele>
        <time>2019-05-31T09:36:27Z</time>
      </trkpt>
      <trkpt lat="44.07625" lon="3.12871">
        <ele>750.6</ele>
        <time>2019-05-31T09:36:28Z</time>
      </trkpt>
      <trkpt lat="44.07621" lon="3.12876">
        <ele>750.7</ele>
        <time>2019-05-31T09:36:29Z</time>
      </trkpt>
      <trkpt lat="44.0762" lon="3.12882">
        <ele>750.8</ele>
        <time>2019-05-31T09:36:30Z</time>
      </trkpt>
      <trkpt lat="44.07618" lon="3.12888">
        <ele>750.9</ele>
        <time>2019-05-31T09:36:31Z</time>
      </trkpt>
      <trkpt lat="44.07617" lon="3.12894">
        <ele>751</ele>
        <time>2019-05-31T09:36:32Z</time>
      </trkpt>
      <trkpt lat="44.07617" lon="3.12902">
        <ele>751.1</ele>
        <time>2019-05-31T09:36:33Z</time>
      </trkpt>
      <trkpt lat="44.07617" lon="3.12911">
        <ele>751.2</ele>
        <time>2019-05-31T09:36:34Z</time>
      </trkpt>
      <trkpt lat="44.07618" lon="3.12919">
        <ele>751.3</ele>
        <time>2019-05-31T09:36:35Z</time>
      </trkpt>
      <trkpt lat="44.07618" lon="3.12926">
        <ele>751.4</ele>
        <time>2019-05-31T09:36:36Z</time>
      </trkpt>
      <trkpt lat="44.07619" lon="3.12933">
        <ele>751.5</ele>
        <time>2019-05-31T09:36:37Z</time>
      </trkpt>
      <trkpt lat="44.07619" lon="3.12941">
        <ele>751.7</ele>
        <time>2019-05-31T09:36:38Z</time>
      </trkpt>
      <trkpt lat="44.0762" lon="3.12947">
        <ele>751.9</ele>
        <time>2019-05-31T09:36:39Z</time>
      </trkpt>
      <trkpt lat="44.0762" lon="3.12953">
        <ele>752</ele>
        <time>2019-05-31T09:36:40Z</time>
      </trkpt>
      <trkpt lat="44.0762" lon="3.12959">
        <ele>752.2</ele>
        <time>2019-05-31T09:36:41Z</time>
      </trkpt>
      <trkpt lat="44.0762" lon="3.12965">
        <ele>752.4</ele>
        <time>2019-05-31T09:36:42Z</time>
      </trkpt>
      <trkpt lat="44.07623" lon="3.12971">
        <ele>752.6</ele>
        <time>2019-05-31T09:36:43Z</time>
      </trkpt>
      <trkpt lat="44.07625" lon="3.12978">
        <ele>752.9</ele>
        <time>2019-05-31T09:36:44Z</time>
      </trkpt>
      <trkpt lat="44.07626" lon="3.12983">
        <ele>753.1</ele>
        <time>2019-05-31T09:36:45Z</time>
      </trkpt>
      <trkpt lat="44.07627" lon="3.12988">
        <ele>753.3</ele>
        <time>2019-05-31T09:36:46Z</time>
      </trkpt>
      <trkpt lat="44.07627" lon="3.12994">
        <ele>753.6</ele>
        <time>2019-05-31T09:36:47Z</time>
      </trkpt>
      <trkpt lat="44.07627" lon="3.12999">
        <ele>753.8</ele>
        <time>2019-05-31T09:36:48Z</time>
      </trkpt>
      <trkpt lat="44.07627" lon="3.13004">
        <ele>754.2</ele>
        <time>2019-05-31T09:36:49Z</time>
      </trkpt>
      <trkpt lat="44.07627" lon="3.13009">
        <ele>754.3</ele>
        <time>2019-05-31T09:36:50Z</time>
      </trkpt>
      <trkpt lat="44.07623" lon="3.13013">
        <ele>754.5</ele>
        <time>2019-05-31T09:36:52Z</time>
      </trkpt>
      <trkpt lat="44.07619" lon="3.13013">
        <ele>754.7</ele>
        <time>2019-05-31T09:36:54Z</time>
      </trkpt>
      <trkpt lat="44.07614" lon="3.13015">
        <ele>755</ele>
        <time>2019-05-31T09:36:56Z</time>
      </trkpt>
      <trkpt lat="44.0761" lon="3.13017">
        <ele>755.3</ele>
        <time>2019-05-31T09:36:57Z</time>
      </trkpt>
      <trkpt lat="44.07607" lon="3.13019">
        <ele>755.6</ele>
        <time>2019-05-31T09:36:58Z</time>
      </trkpt>
      <trkpt lat="44.07604" lon="3.1302">
        <ele>755.8</ele>
        <time>2019-05-31T09:36:59Z</time>
      </trkpt>
      <trkpt lat="44.07599" lon="3.13022">
        <ele>756</ele>
        <time>2019-05-31T09:37:01Z</time>
      </trkpt>
      <trkpt lat="44.07596" lon="3.13025">
        <ele>756.2</ele>
        <time>2019-05-31T09:37:03Z</time>
      </trkpt>
      <trkpt lat="44.07593" lon="3.13028">
        <ele>756.4</ele>
        <time>2019-05-31T09:37:05Z</time>
      </trkpt>
      <trkpt lat="44.07591" lon="3.13032">
        <ele>756.7</ele>
        <time>2019-05-31T09:37:07Z</time>
      </trkpt>
      <trkpt lat="44.07587" lon="3.13037">
        <ele>756.9</ele>
        <time>2019-05-31T09:37:09Z</time>
      </trkpt>
      <trkpt lat="44.07584" lon="3.13041">
        <ele>757.2</ele>
        <time>2019-05-31T09:37:11Z</time>
      </trkpt>
      <trkpt lat="44.0758" lon="3.13045">
        <ele>757.5</ele>
        <time>2019-05-31T09:37:13Z</time>
      </trkpt>
      <trkpt lat="44.07576" lon="3.13047">
        <ele>757.7</ele>
        <time>2019-05-31T09:37:15Z</time>
      </trkpt>
      <trkpt lat="44.07573" lon="3.13048">
        <ele>757.8</ele>
        <time>2019-05-31T09:37:16Z</time>
      </trkpt>
      <trkpt lat="44.07569" lon="3.13049">
        <ele>758</ele>
        <time>2019-05-31T09:37:18Z</time>
      </trkpt>
      <trkpt lat="44.07566" lon="3.13052">
        <ele>758.1</ele>
        <time>2019-05-31T09:37:20Z</time>
      </trkpt>
      <trkpt lat="44.07564" lon="3.13055">
        <ele>758.3</ele>
        <time>2019-05-31T09:37:22Z</time>
      </trkpt>
      <trkpt lat="44.0756" lon="3.13059">
        <ele>758.4</ele>
        <time>2019-05-31T09:37:24Z</time>
      </trkpt>
      <trkpt lat="44.07556" lon="3.13061">
        <ele>758.7</ele>
        <time>2019-05-31T09:37:26Z</time>
      </trkpt>
      <trkpt lat="44.07551" lon="3.13062">
        <ele>759</ele>
        <time>2019-05-31T09:37:28Z</time>
      </trkpt>
      <trkpt lat="44.07547" lon="3.13061">
        <ele>759.2</ele>
        <time>2019-05-31T09:37:30Z</time>
      </trkpt>
      <trkpt lat="44.07542" lon="3.13062">
        <ele>759.4</ele>
        <time>2019-05-31T09:37:32Z</time>
      </trkpt>
      <trkpt lat="44.07538" lon="3.13062">
        <ele>759.5</ele>
        <time>2019-05-31T09:37:34Z</time>
      </trkpt>
      <trkpt lat="44.07534" lon="3.1306">
        <ele>759.7</ele>
        <time>2019-05-31T09:37:36Z</time>
      </trkpt>
      <trkpt lat="44.0753" lon="3.13059">
        <ele>759.9</ele>
        <time>2019-05-31T09:37:38Z</time>
      </trkpt>
      <trkpt lat="44.07528" lon="3.13059">
        <ele>760.2</ele>
        <time>2019-05-31T09:37:40Z</time>
      </trkpt>
      <trkpt lat="44.07524" lon="3.13059">
        <ele>760.4</ele>
        <time>2019-05-31T09:37:43Z</time>
      </trkpt>
      <trkpt lat="44.07519" lon="3.13058">
        <ele>760.8</ele>
        <time>2019-05-31T09:37:45Z</time>
      </trkpt>
      <trkpt lat="44.07515" lon="3.13058">
        <ele>761.1</ele>
        <time>2019-05-31T09:37:47Z</time>
      </trkpt>
      <trkpt lat="44.07509" lon="3.13058">
        <ele>761.5</ele>
        <time>2019-05-31T09:37:49Z</time>
      </trkpt>
      <trkpt lat="44.07506" lon="3.13058">
        <ele>761.8</ele>
        <time>2019-05-31T09:37:50Z</time>
      </trkpt>
      <trkpt lat="44.07502" lon="3.13058">
        <ele>762.1</ele>
        <time>2019-05-31T09:37:52Z</time>
      </trkpt>
      <trkpt lat="44.07499" lon="3.13058">
        <ele>762.3</ele>
        <time>2019-05-31T09:37:53Z</time>
      </trkpt>
      <trkpt lat="44.07494" lon="3.13058">
        <ele>762.7</ele>
        <time>2019-05-31T09:37:55Z</time>
      </trkpt>
      <trkpt lat="44.07489" lon="3.1306">
        <ele>763.1</ele>
        <time>2019-05-31T09:37:57Z</time>
      </trkpt>
      <trkpt lat="44.07486" lon="3.13062">
        <ele>763.3</ele>
        <time>2019-05-31T09:37:58Z</time>
      </trkpt>
      <trkpt lat="44.07481" lon="3.13064">
        <ele>763.7</ele>
        <time>2019-05-31T09:38:00Z</time>
      </trkpt>
      <trkpt lat="44.07477" lon="3.13066">
        <ele>764.2</ele>
        <time>2019-05-31T09:38:02Z</time>
      </trkpt>
      <trkpt lat="44.07473" lon="3.13067">
        <ele>764.5</ele>
        <time>2019-05-31T09:38:03Z</time>
      </trkpt>
      <trkpt lat="44.0747" lon="3.13069">
        <ele>764.7</ele>
        <time>2019-05-31T09:38:04Z</time>
      </trkpt>
      <trkpt lat="44.07467" lon="3.13071">
        <ele>764.9</ele>
        <time>2019-05-31T09:38:05Z</time>
      </trkpt>
      <trkpt lat="44.07464" lon="3.13073">
        <ele>765.1</ele>
        <time>2019-05-31T09:38:06Z</time>
      </trkpt>
      <trkpt lat="44.07461" lon="3.13075">
        <ele>765.3</ele>
        <time>2019-05-31T09:38:07Z</time>
      </trkpt>
      <trkpt lat="44.07457" lon="3.13076">
        <ele>765.5</ele>
        <time>2019-05-31T09:38:08Z</time>
      </trkpt>
      <trkpt lat="44.07454" lon="3.13077">
        <ele>765.7</ele>
        <time>2019-05-31T09:38:09Z</time>
      </trkpt>
      <trkpt lat="44.07451" lon="3.13078">
        <ele>765.9</ele>
        <time>2019-05-31T09:38:10Z</time>
      </trkpt>
      <trkpt lat="44.07449" lon="3.1308">
        <ele>766</ele>
        <time>2019-05-31T09:38:11Z</time>
      </trkpt>
      <trkpt lat="44.07446" lon="3.13081">
        <ele>766.2</ele>
        <time>2019-05-31T09:38:12Z</time>
      </trkpt>
      <trkpt lat="44.07443" lon="3.13084">
        <ele>766.3</ele>
        <time>2019-05-31T09:38:13Z</time>
      </trkpt>
      <trkpt lat="44.0744" lon="3.13086">
        <ele>766.6</ele>
        <time>2019-05-31T09:38:14Z</time>
      </trkpt>
      <trkpt lat="44.07436" lon="3.13089">
        <ele>766.8</ele>
        <time>2019-05-31T09:38:15Z</time>
      </trkpt>
      <trkpt lat="44.07433" lon="3.13092">
        <ele>767.2</ele>
        <time>2019-05-31T09:38:16Z</time>
      </trkpt>
      <trkpt lat="44.0743" lon="3.13094">
        <ele>767.4</ele>
        <time>2019-05-31T09:38:17Z</time>
      </trkpt>
      <trkpt lat="44.07425" lon="3.13093">
        <ele>767.7</ele>
        <time>2019-05-31T09:38:18Z</time>
      </trkpt>
      <trkpt lat="44.0742" lon="3.13096">
        <ele>768</ele>
        <time>2019-05-31T09:38:19Z</time>
      </trkpt>
      <trkpt lat="44.07416" lon="3.13101">
        <ele>768.3</ele>
        <time>2019-05-31T09:38:20Z</time>
      </trkpt>
      <trkpt lat="44.07412" lon="3.13105">
        <ele>768.7</ele>
        <time>2019-05-31T09:38:21Z</time>
      </trkpt>
      <trkpt lat="44.07407" lon="3.13108">
        <ele>769.1</ele>
        <time>2019-05-31T09:38:22Z</time>
      </trkpt>
      <trkpt lat="44.07404" lon="3.13111">
        <ele>769.4</ele>
        <time>2019-05-31T09:38:23Z</time>
      </trkpt>
      <trkpt lat="44.074" lon="3.13114">
        <ele>769.7</ele>
        <time>2019-05-31T09:38:24Z</time>
      </trkpt>
      <trkpt lat="44.07396" lon="3.13116">
        <ele>770</ele>
        <time>2019-05-31T09:38:25Z</time>
      </trkpt>
      <trkpt lat="44.07391" lon="3.13118">
        <ele>770.4</ele>
        <time>2019-05-31T09:38:26Z</time>
      </trkpt>
      <trkpt lat="44.07388" lon="3.13122">
        <ele>770.6</ele>
        <time>2019-05-31T09:38:27Z</time>
      </trkpt>
      <trkpt lat="44.07384" lon="3.13124">
        <ele>770.7</ele>
        <time>2019-05-31T09:38:28Z</time>
      </trkpt>
      <trkpt lat="44.07379" lon="3.13128">
        <ele>770.7</ele>
        <time>2019-05-31T09:38:29Z</time>
      </trkpt>
      <trkpt lat="44.07373" lon="3.13132">
        <ele>770.9</ele>
        <time>2019-05-31T09:38:30Z</time>
      </trkpt>
      <trkpt lat="44.07369" lon="3.13134">
        <ele>771</ele>
        <time>2019-05-31T09:38:31Z</time>
      </trkpt>
      <trkpt lat="44.07365" lon="3.13136">
        <ele>771.1</ele>
        <time>2019-05-31T09:38:32Z</time>
      </trkpt>
      <trkpt lat="44.07361" lon="3.1314">
        <ele>771.3</ele>
        <time>2019-05-31T09:38:33Z</time>
      </trkpt>
      <trkpt lat="44.07359" lon="3.13142">
        <ele>771.4</ele>
        <time>2019-05-31T09:38:34Z</time>
      </trkpt>
      <trkpt lat="44.07356" lon="3.13144">
        <ele>771.4</ele>
        <time>2019-05-31T09:38:35Z</time>
      </trkpt>
      <trkpt lat="44.07353" lon="3.13148">
        <ele>771.5</ele>
        <time>2019-05-31T09:38:37Z</time>
      </trkpt>
      <trkpt lat="44.07349" lon="3.13153">
        <ele>771.6</ele>
        <time>2019-05-31T09:38:39Z</time>
      </trkpt>
      <trkpt lat="44.07346" lon="3.13158">
        <ele>771.8</ele>
        <time>2019-05-31T09:38:41Z</time>
      </trkpt>
      <trkpt lat="44.07343" lon="3.13163">
        <ele>771.9</ele>
        <time>2019-05-31T09:38:43Z</time>
      </trkpt>
      <trkpt lat="44.07339" lon="3.13165">
        <ele>772</ele>
        <time>2019-05-31T09:38:45Z</time>
      </trkpt>
      <trkpt lat="44.07335" lon="3.13166">
        <ele>772</ele>
        <time>2019-05-31T09:38:47Z</time>
      </trkpt>
      <trkpt lat="44.07331" lon="3.13167">
        <ele>772.1</ele>
        <time>2019-05-31T09:38:49Z</time>
      </trkpt>
      <trkpt lat="44.07326" lon="3.13168">
        <ele>772.1</ele>
        <time>2019-05-31T09:38:51Z</time>
      </trkpt>
      <trkpt lat="44.07322" lon="3.13169">
        <ele>772.2</ele>
        <time>2019-05-31T09:38:53Z</time>
      </trkpt>
      <trkpt lat="44.07317" lon="3.1317">
        <ele>772.3</ele>
        <time>2019-05-31T09:38:55Z</time>
      </trkpt>
      <trkpt lat="44.07312" lon="3.13169">
        <ele>772.3</ele>
        <time>2019-05-31T09:38:57Z</time>
      </trkpt>
      <trkpt lat="44.07309" lon="3.13169">
        <ele>772.3</ele>
        <time>2019-05-31T09:38:58Z</time>
      </trkpt>
      <trkpt lat="44.07305" lon="3.13169">
        <ele>772.4</ele>
        <time>2019-05-31T09:38:59Z</time>
      </trkpt>
      <trkpt lat="44.07302" lon="3.13168">
        <ele>772.4</ele>
        <time>2019-05-31T09:39:00Z</time>
      </trkpt>
      <trkpt lat="44.07298" lon="3.13166">
        <ele>772.4</ele>
        <time>2019-05-31T09:39:01Z</time>
      </trkpt>
      <trkpt lat="44.07294" lon="3.13164">
        <ele>772.4</ele>
        <time>2019-05-31T09:39:02Z</time>
      </trkpt>
      <trkpt lat="44.07291" lon="3.13162">
        <ele>772.4</ele>
        <time>2019-05-31T09:39:03Z</time>
      </trkpt>
      <trkpt lat="44.07288" lon="3.13159">
        <ele>772.4</ele>
        <time>2019-05-31T09:39:04Z</time>
      </trkpt>
      <trkpt lat="44.07285" lon="3.13156">
        <ele>772.4</ele>
        <time>2019-05-31T09:39:05Z</time>
      </trkpt>
      <trkpt lat="44.07283" lon="3.13153">
        <ele>772.4</ele>
        <time>2019-05-31T09:39:06Z</time>
      </trkpt>
      <trkpt lat="44.07281" lon="3.1315">
        <ele>772.5</ele>
        <time>2019-05-31T09:39:07Z</time>
      </trkpt>
      <trkpt lat="44.07275" lon="3.13146">
        <ele>772.5</ele>
        <time>2019-05-31T09:39:08Z</time>
      </trkpt>
      <trkpt lat="44.0727" lon="3.13142">
        <ele>772.6</ele>
        <time>2019-05-31T09:39:09Z</time>
      </trkpt>
      <trkpt lat="44.07267" lon="3.1314">
        <ele>772.7</ele>
        <time>2019-05-31T09:39:10Z</time>
      </trkpt>
      <trkpt lat="44.07263" lon="3.13139">
        <ele>772.8</ele>
        <time>2019-05-31T09:39:11Z</time>
      </trkpt>
      <trkpt lat="44.07259" lon="3.13137">
        <ele>772.9</ele>
        <time>2019-05-31T09:39:12Z</time>
      </trkpt>
      <trkpt lat="44.07255" lon="3.13136">
        <ele>773</ele>
        <time>2019-05-31T09:39:13Z</time>
      </trkpt>
      <trkpt lat="44.07252" lon="3.13135">
        <ele>773.1</ele>
        <time>2019-05-31T09:39:14Z</time>
      </trkpt>
      <trkpt lat="44.07248" lon="3.13133">
        <ele>773.2</ele>
        <time>2019-05-31T09:39:15Z</time>
      </trkpt>
      <trkpt lat="44.07242" lon="3.13131">
        <ele>773.4</ele>
        <time>2019-05-31T09:39:16Z</time>
      </trkpt>
      <trkpt lat="44.07236" lon="3.13128">
        <ele>773.5</ele>
        <time>2019-05-31T09:39:17Z</time>
      </trkpt>
      <trkpt lat="44.0723" lon="3.13126">
        <ele>773.7</ele>
        <time>2019-05-31T09:39:18Z</time>
      </trkpt>
      <trkpt lat="44.07225" lon="3.13126">
        <ele>773.8</ele>
        <time>2019-05-31T09:39:19Z</time>
      </trkpt>
      <trkpt lat="44.0722" lon="3.13122">
        <ele>773.9</ele>
        <time>2019-05-31T09:39:20Z</time>
      </trkpt>
      <trkpt lat="44.07214" lon="3.13118">
        <ele>774.1</ele>
        <time>2019-05-31T09:39:21Z</time>
      </trkpt>
      <trkpt lat="44.07208" lon="3.13116">
        <ele>774.2</ele>
        <time>2019-05-31T09:39:22Z</time>
      </trkpt>
      <trkpt lat="44.07203" lon="3.13116">
        <ele>774.4</ele>
        <time>2019-05-31T09:39:23Z</time>
      </trkpt>
      <trkpt lat="44.07198" lon="3.13114">
        <ele>774.5</ele>
        <time>2019-05-31T09:39:24Z</time>
      </trkpt>
      <trkpt lat="44.07194" lon="3.13113">
        <ele>774.6</ele>
        <time>2019-05-31T09:39:25Z</time>
      </trkpt>
      <trkpt lat="44.0719" lon="3.13113">
        <ele>774.8</ele>
        <time>2019-05-31T09:39:26Z</time>
      </trkpt>
      <trkpt lat="44.07185" lon="3.13114">
        <ele>775</ele>
        <time>2019-05-31T09:39:27Z</time>
      </trkpt>
      <trkpt lat="44.07178" lon="3.13115">
        <ele>775.2</ele>
        <time>2019-05-31T09:39:28Z</time>
      </trkpt>
      <trkpt lat="44.07173" lon="3.13115">
        <ele>775.5</ele>
        <time>2019-05-31T09:39:29Z</time>
      </trkpt>
      <trkpt lat="44.07166" lon="3.13114">
        <ele>775.8</ele>
        <time>2019-05-31T09:39:30Z</time>
      </trkpt>
      <trkpt lat="44.07163" lon="3.13116">
        <ele>775.9</ele>
        <time>2019-05-31T09:39:31Z</time>
      </trkpt>
      <trkpt lat="44.07159" lon="3.13117">
        <ele>776.1</ele>
        <time>2019-05-31T09:39:32Z</time>
      </trkpt>
      <trkpt lat="44.07155" lon="3.13119">
        <ele>776.3</ele>
        <time>2019-05-31T09:39:33Z</time>
      </trkpt>
      <trkpt lat="44.0715" lon="3.1312">
        <ele>776.6</ele>
        <time>2019-05-31T09:39:34Z</time>
      </trkpt>
      <trkpt lat="44.07146" lon="3.13122">
        <ele>776.8</ele>
        <time>2019-05-31T09:39:35Z</time>
      </trkpt>
      <trkpt lat="44.0714" lon="3.13122">
        <ele>777.1</ele>
        <time>2019-05-31T09:39:37Z</time>
      </trkpt>
      <trkpt lat="44.07135" lon="3.13121">
        <ele>777.3</ele>
        <time>2019-05-31T09:39:38Z</time>
      </trkpt>
      <trkpt lat="44.0713" lon="3.13121">
        <ele>777.4</ele>
        <time>2019-05-31T09:39:39Z</time>
      </trkpt>
      <trkpt lat="44.07125" lon="3.1312">
        <ele>777.4</ele>
        <time>2019-05-31T09:39:40Z</time>
      </trkpt>
      <trkpt lat="44.0712" lon="3.13121">
        <ele>777.5</ele>
        <time>2019-05-31T09:39:41Z</time>
      </trkpt>
      <trkpt lat="44.07116" lon="3.13122">
        <ele>777.6</ele>
        <time>2019-05-31T09:39:42Z</time>
      </trkpt>
      <trkpt lat="44.07113" lon="3.13121">
        <ele>777.7</ele>
        <time>2019-05-31T09:39:43Z</time>
      </trkpt>
      <trkpt lat="44.0711" lon="3.13123">
        <ele>777.8</ele>
        <time>2019-05-31T09:39:44Z</time>
      </trkpt>
      <trkpt lat="44.07105" lon="3.13121">
        <ele>778</ele>
        <time>2019-05-31T09:39:45Z</time>
      </trkpt>
      <trkpt lat="44.07102" lon="3.1312">
        <ele>778.1</ele>
        <time>2019-05-31T09:39:46Z</time>
      </trkpt>
      <trkpt lat="44.07099" lon="3.13119">
        <ele>778.2</ele>
        <time>2019-05-31T09:39:47Z</time>
      </trkpt>
      <trkpt lat="44.07095" lon="3.13118">
        <ele>778.3</ele>
        <time>2019-05-31T09:39:48Z</time>
      </trkpt>
      <trkpt lat="44.07091" lon="3.13118">
        <ele>778.3</ele>
        <time>2019-05-31T09:39:49Z</time>
      </trkpt>
      <trkpt lat="44.07088" lon="3.1312">
        <ele>778.4</ele>
        <time>2019-05-31T09:39:50Z</time>
      </trkpt>
      <trkpt lat="44.07084" lon="3.13119">
        <ele>778.5</ele>
        <time>2019-05-31T09:39:51Z</time>
      </trkpt>
      <trkpt lat="44.07081" lon="3.13118">
        <ele>778.6</ele>
        <time>2019-05-31T09:39:52Z</time>
      </trkpt>
      <trkpt lat="44.07077" lon="3.13117">
        <ele>778.7</ele>
        <time>2019-05-31T09:39:53Z</time>
      </trkpt>
      <trkpt lat="44.07074" lon="3.13116">
        <ele>778.8</ele>
        <time>2019-05-31T09:39:54Z</time>
      </trkpt>
      <trkpt lat="44.07071" lon="3.13115">
        <ele>778.9</ele>
        <time>2019-05-31T09:39:55Z</time>
      </trkpt>
      <trkpt lat="44.07067" lon="3.13114">
        <ele>779</ele>
        <time>2019-05-31T09:39:57Z</time>
      </trkpt>
      <trkpt lat="44.07064" lon="3.13113">
        <ele>779</ele>
        <time>2019-05-31T09:39:59Z</time>
      </trkpt>
      <trkpt lat="44.07059" lon="3.13112">
        <ele>779.1</ele>
        <time>2019-05-31T09:40:02Z</time>
      </trkpt>
      <trkpt lat="44.07056" lon="3.13113">
        <ele>779.2</ele>
        <time>2019-05-31T09:40:03Z</time>
      </trkpt>
      <trkpt lat="44.07053" lon="3.13113">
        <ele>779.2</ele>
        <time>2019-05-31T09:40:04Z</time>
      </trkpt>
      <trkpt lat="44.0705" lon="3.13114">
        <ele>779.2</ele>
        <time>2019-05-31T09:40:05Z</time>
      </trkpt>
      <trkpt lat="44.07047" lon="3.13116">
        <ele>779.2</ele>
        <time>2019-05-31T09:40:06Z</time>
      </trkpt>
      <trkpt lat="44.07044" lon="3.13117">
        <ele>779.2</ele>
        <time>2019-05-31T09:40:07Z</time>
      </trkpt>
      <trkpt lat="44.07041" lon="3.13118">
        <ele>779.2</ele>
        <time>2019-05-31T09:40:08Z</time>
      </trkpt>
      <trkpt lat="44.07037" lon="3.13119">
        <ele>779.2</ele>
        <time>2019-05-31T09:40:09Z</time>
      </trkpt>
      <trkpt lat="44.07034" lon="3.1312">
        <ele>779.2</ele>
        <time>2019-05-31T09:40:10Z</time>
      </trkpt>
      <trkpt lat="44.07028" lon="3.13121">
        <ele>779.2</ele>
        <time>2019-05-31T09:40:11Z</time>
      </trkpt>
      <trkpt lat="44.07024" lon="3.13123">
        <ele>779.2</ele>
        <time>2019-05-31T09:40:12Z</time>
      </trkpt>
      <trkpt lat="44.07019" lon="3.13125">
        <ele>779.2</ele>
        <time>2019-05-31T09:40:13Z</time>
      </trkpt>
      <trkpt lat="44.07013" lon="3.13131">
        <ele>779.3</ele>
        <time>2019-05-31T09:40:14Z</time>
      </trkpt>
      <trkpt lat="44.07011" lon="3.13135">
        <ele>779.3</ele>
        <time>2019-05-31T09:40:15Z</time>
      </trkpt>
      <trkpt lat="44.0701" lon="3.13141">
        <ele>779.4</ele>
        <time>2019-05-31T09:40:16Z</time>
      </trkpt>
      <trkpt lat="44.0701" lon="3.13145">
        <ele>779.4</ele>
        <time>2019-05-31T09:40:17Z</time>
      </trkpt>
      <trkpt lat="44.07008" lon="3.13149">
        <ele>779.5</ele>
        <time>2019-05-31T09:40:18Z</time>
      </trkpt>
      <trkpt lat="44.07006" lon="3.13154">
        <ele>779.5</ele>
        <time>2019-05-31T09:40:19Z</time>
      </trkpt>
      <trkpt lat="44.07005" lon="3.13159">
        <ele>779.6</ele>
        <time>2019-05-31T09:40:20Z</time>
      </trkpt>
      <trkpt lat="44.07001" lon="3.13163">
        <ele>779.7</ele>
        <time>2019-05-31T09:40:22Z</time>
      </trkpt>
      <trkpt lat="44.06999" lon="3.13168">
        <ele>779.8</ele>
        <time>2019-05-31T09:40:24Z</time>
      </trkpt>
      <trkpt lat="44.06998" lon="3.13174">
        <ele>780</ele>
        <time>2019-05-31T09:40:26Z</time>
      </trkpt>
      <trkpt lat="44.06996" lon="3.13178">
        <ele>780.1</ele>
        <time>2019-05-31T09:40:27Z</time>
      </trkpt>
      <trkpt lat="44.06995" lon="3.13182">
        <ele>780.2</ele>
        <time>2019-05-31T09:40:28Z</time>
      </trkpt>
      <trkpt lat="44.06993" lon="3.13188">
        <ele>780.5</ele>
        <time>2019-05-31T09:40:30Z</time>
      </trkpt>
      <trkpt lat="44.06991" lon="3.13195">
        <ele>780.8</ele>
        <time>2019-05-31T09:40:32Z</time>
      </trkpt>
      <trkpt lat="44.0699" lon="3.13201">
        <ele>781.1</ele>
        <time>2019-05-31T09:40:34Z</time>
      </trkpt>
      <trkpt lat="44.0699" lon="3.13206">
        <ele>781.2</ele>
        <time>2019-05-31T09:40:35Z</time>
      </trkpt>
      <trkpt lat="44.06989" lon="3.1321">
        <ele>781.5</ele>
        <time>2019-05-31T09:40:36Z</time>
      </trkpt>
      <trkpt lat="44.06989" lon="3.13214">
        <ele>781.6</ele>
        <time>2019-05-31T09:40:37Z</time>
      </trkpt>
      <trkpt lat="44.0699" lon="3.13218">
        <ele>781.9</ele>
        <time>2019-05-31T09:40:38Z</time>
      </trkpt>
      <trkpt lat="44.06991" lon="3.13222">
        <ele>782.1</ele>
        <time>2019-05-31T09:40:39Z</time>
      </trkpt>
      <trkpt lat="44.06993" lon="3.13226">
        <ele>782.4</ele>
        <time>2019-05-31T09:40:40Z</time>
      </trkpt>
      <trkpt lat="44.06994" lon="3.1323">
        <ele>782.6</ele>
        <time>2019-05-31T09:40:41Z</time>
      </trkpt>
      <trkpt lat="44.06994" lon="3.13234">
        <ele>782.9</ele>
        <time>2019-05-31T09:40:42Z</time>
      </trkpt>
      <trkpt lat="44.06994" lon="3.13238">
        <ele>783.2</ele>
        <time>2019-05-31T09:40:43Z</time>
      </trkpt>
      <trkpt lat="44.06992" lon="3.13244">
        <ele>783.6</ele>
        <time>2019-05-31T09:40:45Z</time>
      </trkpt>
      <trkpt lat="44.0699" lon="3.1325">
        <ele>784</ele>
        <time>2019-05-31T09:40:47Z</time>
      </trkpt>
      <trkpt lat="44.06989" lon="3.13254">
        <ele>784.2</ele>
        <time>2019-05-31T09:40:49Z</time>
      </trkpt>
      <trkpt lat="44.06988" lon="3.13258">
        <ele>784.4</ele>
        <time>2019-05-31T09:40:50Z</time>
      </trkpt>
      <trkpt lat="44.06987" lon="3.13262">
        <ele>784.6</ele>
        <time>2019-05-31T09:40:51Z</time>
      </trkpt>
      <trkpt lat="44.06986" lon="3.13266">
        <ele>784.8</ele>
        <time>2019-05-31T09:40:52Z</time>
      </trkpt>
      <trkpt lat="44.06985" lon="3.13271">
        <ele>784.9</ele>
        <time>2019-05-31T09:40:53Z</time>
      </trkpt>
      <trkpt lat="44.06985" lon="3.13275">
        <ele>785.1</ele>
        <time>2019-05-31T09:40:54Z</time>
      </trkpt>
      <trkpt lat="44.06985" lon="3.13281">
        <ele>785.4</ele>
        <time>2019-05-31T09:40:56Z</time>
      </trkpt>
      <trkpt lat="44.06986" lon="3.13286">
        <ele>785.6</ele>
        <time>2019-05-31T09:40:58Z</time>
      </trkpt>
      <trkpt lat="44.06985" lon="3.13292">
        <ele>785.8</ele>
        <time>2019-05-31T09:41:00Z</time>
      </trkpt>
      <trkpt lat="44.06982" lon="3.13298">
        <ele>786</ele>
        <time>2019-05-31T09:41:02Z</time>
      </trkpt>
      <trkpt lat="44.0698" lon="3.13301">
        <ele>786</ele>
        <time>2019-05-31T09:41:03Z</time>
      </trkpt>
      <trkpt lat="44.06979" lon="3.13304">
        <ele>786</ele>
        <time>2019-05-31T09:41:04Z</time>
      </trkpt>
      <trkpt lat="44.06977" lon="3.13308">
        <ele>786</ele>
        <time>2019-05-31T09:41:05Z</time>
      </trkpt>
      <trkpt lat="44.06976" lon="3.13312">
        <ele>786.1</ele>
        <time>2019-05-31T09:41:06Z</time>
      </trkpt>
      <trkpt lat="44.06975" lon="3.13316">
        <ele>786.1</ele>
        <time>2019-05-31T09:41:07Z</time>
      </trkpt>
      <trkpt lat="44.06975" lon="3.13323">
        <ele>786.2</ele>
        <time>2019-05-31T09:41:09Z</time>
      </trkpt>
      <trkpt lat="44.06975" lon="3.13329">
        <ele>786.3</ele>
        <time>2019-05-31T09:41:11Z</time>
      </trkpt>
      <trkpt lat="44.06975" lon="3.13336">
        <ele>786.4</ele>
        <time>2019-05-31T09:41:13Z</time>
      </trkpt>
      <trkpt lat="44.06972" lon="3.13338">
        <ele>786.4</ele>
        <time>2019-05-31T09:41:15Z</time>
      </trkpt>
      <trkpt lat="44.06968" lon="3.13339">
        <ele>786.5</ele>
        <time>2019-05-31T09:41:17Z</time>
      </trkpt>
      <trkpt lat="44.06965" lon="3.13339">
        <ele>786.6</ele>
        <time>2019-05-31T09:41:19Z</time>
      </trkpt>
      <trkpt lat="44.06962" lon="3.13339">
        <ele>786.7</ele>
        <time>2019-05-31T09:41:25Z</time>
      </trkpt>
      <trkpt lat="44.06957" lon="3.13342">
        <ele>786.8</ele>
        <time>2019-05-31T09:41:27Z</time>
      </trkpt>
      <trkpt lat="44.06955" lon="3.13345">
        <ele>786.9</ele>
        <time>2019-05-31T09:41:28Z</time>
      </trkpt>
      <trkpt lat="44.06953" lon="3.13348">
        <ele>787</ele>
        <time>2019-05-31T09:41:29Z</time>
      </trkpt>
      <trkpt lat="44.0695" lon="3.13353">
        <ele>787.1</ele>
        <time>2019-05-31T09:41:31Z</time>
      </trkpt>
      <trkpt lat="44.06947" lon="3.13355">
        <ele>787.2</ele>
        <time>2019-05-31T09:41:32Z</time>
      </trkpt>
      <trkpt lat="44.06944" lon="3.13358">
        <ele>787.3</ele>
        <time>2019-05-31T09:41:33Z</time>
      </trkpt>
      <trkpt lat="44.06942" lon="3.13361">
        <ele>787.4</ele>
        <time>2019-05-31T09:41:34Z</time>
      </trkpt>
      <trkpt lat="44.0694" lon="3.13364">
        <ele>787.5</ele>
        <time>2019-05-31T09:41:35Z</time>
      </trkpt>
      <trkpt lat="44.06938" lon="3.13367">
        <ele>787.6</ele>
        <time>2019-05-31T09:41:36Z</time>
      </trkpt>
      <trkpt lat="44.06936" lon="3.13371">
        <ele>787.7</ele>
        <time>2019-05-31T09:41:37Z</time>
      </trkpt>
      <trkpt lat="44.06935" lon="3.13375">
        <ele>787.8</ele>
        <time>2019-05-31T09:41:38Z</time>
      </trkpt>
      <trkpt lat="44.06934" lon="3.13378">
        <ele>787.9</ele>
        <time>2019-05-31T09:41:39Z</time>
      </trkpt>
      <trkpt lat="44.06933" lon="3.13382">
        <ele>788</ele>
        <time>2019-05-31T09:41:40Z</time>
      </trkpt>
      <trkpt lat="44.06932" lon="3.13386">
        <ele>788.1</ele>
        <time>2019-05-31T09:41:41Z</time>
      </trkpt>
      <trkpt lat="44.06931" lon="3.1339">
        <ele>788.2</ele>
        <time>2019-05-31T09:41:42Z</time>
      </trkpt>
      <trkpt lat="44.06929" lon="3.13393">
        <ele>788.3</ele>
        <time>2019-05-31T09:41:43Z</time>
      </trkpt>
      <trkpt lat="44.06928" lon="3.13397">
        <ele>788.4</ele>
        <time>2019-05-31T09:41:44Z</time>
      </trkpt>
      <trkpt lat="44.06927" lon="3.13401">
        <ele>788.5</ele>
        <time>2019-05-31T09:41:45Z</time>
      </trkpt>
      <trkpt lat="44.06926" lon="3.13404">
        <ele>788.6</ele>
        <time>2019-05-31T09:41:46Z</time>
      </trkpt>
      <trkpt lat="44.06924" lon="3.13408">
        <ele>788.6</ele>
        <time>2019-05-31T09:41:47Z</time>
      </trkpt>
      <trkpt lat="44.06923" lon="3.13412">
        <ele>788.7</ele>
        <time>2019-05-31T09:41:48Z</time>
      </trkpt>
      <trkpt lat="44.0692" lon="3.13419">
        <ele>788.9</ele>
        <time>2019-05-31T09:41:50Z</time>
      </trkpt>
      <trkpt lat="44.06919" lon="3.13422">
        <ele>789</ele>
        <time>2019-05-31T09:41:51Z</time>
      </trkpt>
      <trkpt lat="44.06918" lon="3.13426">
        <ele>789.1</ele>
        <time>2019-05-31T09:41:52Z</time>
      </trkpt>
      <trkpt lat="44.06916" lon="3.1343">
        <ele>789.2</ele>
        <time>2019-05-31T09:41:53Z</time>
      </trkpt>
      <trkpt lat="44.06914" lon="3.13434">
        <ele>789.3</ele>
        <time>2019-05-31T09:41:54Z</time>
      </trkpt>
      <trkpt lat="44.06912" lon="3.13438">
        <ele>789.4</ele>
        <time>2019-05-31T09:41:55Z</time>
      </trkpt>
      <trkpt lat="44.06911" lon="3.13442">
        <ele>789.5</ele>
        <time>2019-05-31T09:41:56Z</time>
      </trkpt>
      <trkpt lat="44.06909" lon="3.13445">
        <ele>789.6</ele>
        <time>2019-05-31T09:41:57Z</time>
      </trkpt>
      <trkpt lat="44.06908" lon="3.1345">
        <ele>789.8</ele>
        <time>2019-05-31T09:41:58Z</time>
      </trkpt>
      <trkpt lat="44.06906" lon="3.13453">
        <ele>789.9</ele>
        <time>2019-05-31T09:41:59Z</time>
      </trkpt>
      <trkpt lat="44.06904" lon="3.13457">
        <ele>790</ele>
        <time>2019-05-31T09:42:00Z</time>
      </trkpt>
      <trkpt lat="44.06902" lon="3.1346">
        <ele>790.1</ele>
        <time>2019-05-31T09:42:01Z</time>
      </trkpt>
      <trkpt lat="44.069" lon="3.13463">
        <ele>790.3</ele>
        <time>2019-05-31T09:42:02Z</time>
      </trkpt>
      <trkpt lat="44.06896" lon="3.13467">
        <ele>790.4</ele>
        <time>2019-05-31T09:42:04Z</time>
      </trkpt>
      <trkpt lat="44.06892" lon="3.13469">
        <ele>790.6</ele>
        <time>2019-05-31T09:42:06Z</time>
      </trkpt>
      <trkpt lat="44.0689" lon="3.13471">
        <ele>790.7</ele>
        <time>2019-05-31T09:42:07Z</time>
      </trkpt>
      <trkpt lat="44.06887" lon="3.13472">
        <ele>790.8</ele>
        <time>2019-05-31T09:42:08Z</time>
      </trkpt>
      <trkpt lat="44.06884" lon="3.13473">
        <ele>791</ele>
        <time>2019-05-31T09:42:09Z</time>
      </trkpt>
      <trkpt lat="44.0688" lon="3.13474">
        <ele>791.1</ele>
        <time>2019-05-31T09:42:10Z</time>
      </trkpt>
      <trkpt lat="44.06877" lon="3.13475">
        <ele>791.2</ele>
        <time>2019-05-31T09:42:11Z</time>
      </trkpt>
      <trkpt lat="44.06874" lon="3.13476">
        <ele>791.3</ele>
        <time>2019-05-31T09:42:12Z</time>
      </trkpt>
      <trkpt lat="44.0687" lon="3.1348">
        <ele>791.4</ele>
        <time>2019-05-31T09:42:14Z</time>
      </trkpt>
      <trkpt lat="44.06868" lon="3.13483">
        <ele>791.5</ele>
        <time>2019-05-31T09:42:15Z</time>
      </trkpt>
      <trkpt lat="44.06865" lon="3.13485">
        <ele>791.7</ele>
        <time>2019-05-31T09:42:16Z</time>
      </trkpt>
      <trkpt lat="44.06862" lon="3.13487">
        <ele>791.8</ele>
        <time>2019-05-31T09:42:17Z</time>
      </trkpt>
      <trkpt lat="44.0686" lon="3.1349">
        <ele>791.9</ele>
        <time>2019-05-31T09:42:18Z</time>
      </trkpt>
      <trkpt lat="44.06857" lon="3.13492">
        <ele>792.1</ele>
        <time>2019-05-31T09:42:19Z</time>
      </trkpt>
      <trkpt lat="44.06855" lon="3.13495">
        <ele>792.2</ele>
        <time>2019-05-31T09:42:20Z</time>
      </trkpt>
      <trkpt lat="44.06852" lon="3.13497">
        <ele>792.3</ele>
        <time>2019-05-31T09:42:21Z</time>
      </trkpt>
      <trkpt lat="44.06848" lon="3.13501">
        <ele>792.6</ele>
        <time>2019-05-31T09:42:23Z</time>
      </trkpt>
      <trkpt lat="44.06845" lon="3.13504">
        <ele>792.8</ele>
        <time>2019-05-31T09:42:24Z</time>
      </trkpt>
      <trkpt lat="44.06842" lon="3.13506">
        <ele>793</ele>
        <time>2019-05-31T09:42:25Z</time>
      </trkpt>
      <trkpt lat="44.06839" lon="3.13508">
        <ele>793.3</ele>
        <time>2019-05-31T09:42:26Z</time>
      </trkpt>
      <trkpt lat="44.06836" lon="3.1351">
        <ele>793.6</ele>
        <time>2019-05-31T09:42:27Z</time>
      </trkpt>
      <trkpt lat="44.06833" lon="3.13511">
        <ele>793.8</ele>
        <time>2019-05-31T09:42:28Z</time>
      </trkpt>
      <trkpt lat="44.06829" lon="3.13512">
        <ele>794.2</ele>
        <time>2019-05-31T09:42:30Z</time>
      </trkpt>
      <trkpt lat="44.06824" lon="3.13513">
        <ele>794.5</ele>
        <time>2019-05-31T09:42:32Z</time>
      </trkpt>
      <trkpt lat="44.0682" lon="3.13515">
        <ele>794.8</ele>
        <time>2019-05-31T09:42:34Z</time>
      </trkpt>
      <trkpt lat="44.06816" lon="3.13517">
        <ele>795.1</ele>
        <time>2019-05-31T09:42:36Z</time>
      </trkpt>
      <trkpt lat="44.06812" lon="3.1352">
        <ele>795.4</ele>
        <time>2019-05-31T09:42:38Z</time>
      </trkpt>
      <trkpt lat="44.06808" lon="3.13523">
        <ele>795.7</ele>
        <time>2019-05-31T09:42:40Z</time>
      </trkpt>
      <trkpt lat="44.06804" lon="3.13526">
        <ele>795.9</ele>
        <time>2019-05-31T09:42:42Z</time>
      </trkpt>
      <trkpt lat="44.06802" lon="3.13528">
        <ele>796</ele>
        <time>2019-05-31T09:42:43Z</time>
      </trkpt>
      <trkpt lat="44.06798" lon="3.13533">
        <ele>796.3</ele>
        <time>2019-05-31T09:42:45Z</time>
      </trkpt>
      <trkpt lat="44.06796" lon="3.13536">
        <ele>796.4</ele>
        <time>2019-05-31T09:42:46Z</time>
      </trkpt>
      <trkpt lat="44.06793" lon="3.13539">
        <ele>796.6</ele>
        <time>2019-05-31T09:42:47Z</time>
      </trkpt>
      <trkpt lat="44.06791" lon="3.13542">
        <ele>796.7</ele>
        <time>2019-05-31T09:42:48Z</time>
      </trkpt>
      <trkpt lat="44.06785" lon="3.13544">
        <ele>797.1</ele>
        <time>2019-05-31T09:42:50Z</time>
      </trkpt>
      <trkpt lat="44.06781" lon="3.13545">
        <ele>797.3</ele>
        <time>2019-05-31T09:42:51Z</time>
      </trkpt>
      <trkpt lat="44.06778" lon="3.13545">
        <ele>797.5</ele>
        <time>2019-05-31T09:42:52Z</time>
      </trkpt>
      <trkpt lat="44.06774" lon="3.13546">
        <ele>797.7</ele>
        <time>2019-05-31T09:42:53Z</time>
      </trkpt>
      <trkpt lat="44.06771" lon="3.13548">
        <ele>797.8</ele>
        <time>2019-05-31T09:42:54Z</time>
      </trkpt>
      <trkpt lat="44.06768" lon="3.1355">
        <ele>798</ele>
        <time>2019-05-31T09:42:56Z</time>
      </trkpt>
      <trkpt lat="44.06765" lon="3.13551">
        <ele>798.2</ele>
        <time>2019-05-31T09:42:57Z</time>
      </trkpt>
      <trkpt lat="44.06761" lon="3.13551">
        <ele>798.4</ele>
        <time>2019-05-31T09:42:58Z</time>
      </trkpt>
      <trkpt lat="44.06758" lon="3.13551">
        <ele>798.6</ele>
        <time>2019-05-31T09:42:59Z</time>
      </trkpt>
      <trkpt lat="44.06754" lon="3.13553">
        <ele>798.8</ele>
        <time>2019-05-31T09:43:00Z</time>
      </trkpt>
      <trkpt lat="44.06751" lon="3.13555">
        <ele>799</ele>
        <time>2019-05-31T09:43:01Z</time>
      </trkpt>
      <trkpt lat="44.06748" lon="3.13557">
        <ele>799.1</ele>
        <time>2019-05-31T09:43:02Z</time>
      </trkpt>
      <trkpt lat="44.06746" lon="3.1356">
        <ele>799.3</ele>
        <time>2019-05-31T09:43:03Z</time>
      </trkpt>
      <trkpt lat="44.06744" lon="3.13563">
        <ele>799.5</ele>
        <time>2019-05-31T09:43:04Z</time>
      </trkpt>
      <trkpt lat="44.06742" lon="3.13567">
        <ele>799.7</ele>
        <time>2019-05-31T09:43:05Z</time>
      </trkpt>
      <trkpt lat="44.06739" lon="3.1357">
        <ele>799.9</ele>
        <time>2019-05-31T09:43:06Z</time>
      </trkpt>
      <trkpt lat="44.06737" lon="3.13573">
        <ele>800.1</ele>
        <time>2019-05-31T09:43:07Z</time>
      </trkpt>
      <trkpt lat="44.06735" lon="3.13576">
        <ele>800.4</ele>
        <time>2019-05-31T09:43:08Z</time>
      </trkpt>
      <trkpt lat="44.06731" lon="3.13581">
        <ele>800.7</ele>
        <time>2019-05-31T09:43:09Z</time>
      </trkpt>
      <trkpt lat="44.06729" lon="3.13584">
        <ele>800.9</ele>
        <time>2019-05-31T09:43:10Z</time>
      </trkpt>
      <trkpt lat="44.06727" lon="3.13588">
        <ele>801.1</ele>
        <time>2019-05-31T09:43:11Z</time>
      </trkpt>
      <trkpt lat="44.06726" lon="3.13592">
        <ele>801.2</ele>
        <time>2019-05-31T09:43:12Z</time>
      </trkpt>
      <trkpt lat="44.06724" lon="3.13596">
        <ele>801.4</ele>
        <time>2019-05-31T09:43:13Z</time>
      </trkpt>
      <trkpt lat="44.06721" lon="3.136">
        <ele>801.6</ele>
        <time>2019-05-31T09:43:14Z</time>
      </trkpt>
      <trkpt lat="44.06718" lon="3.13603">
        <ele>801.8</ele>
        <time>2019-05-31T09:43:15Z</time>
      </trkpt>
      <trkpt lat="44.06715" lon="3.13606">
        <ele>801.9</ele>
        <time>2019-05-31T09:43:16Z</time>
      </trkpt>
      <trkpt lat="44.06712" lon="3.13608">
        <ele>802</ele>
        <time>2019-05-31T09:43:17Z</time>
      </trkpt>
      <trkpt lat="44.06709" lon="3.13609">
        <ele>802.2</ele>
        <time>2019-05-31T09:43:18Z</time>
      </trkpt>
      <trkpt lat="44.06707" lon="3.1361">
        <ele>802.3</ele>
        <time>2019-05-31T09:43:19Z</time>
      </trkpt>
      <trkpt lat="44.06704" lon="3.13612">
        <ele>802.4</ele>
        <time>2019-05-31T09:43:20Z</time>
      </trkpt>
      <trkpt lat="44.06701" lon="3.13614">
        <ele>802.5</ele>
        <time>2019-05-31T09:43:21Z</time>
      </trkpt>
      <trkpt lat="44.06698" lon="3.13617">
        <ele>802.6</ele>
        <time>2019-05-31T09:43:22Z</time>
      </trkpt>
      <trkpt lat="44.06695" lon="3.13622">
        <ele>802.8</ele>
        <time>2019-05-31T09:43:24Z</time>
      </trkpt>
      <trkpt lat="44.06693" lon="3.13625">
        <ele>802.9</ele>
        <time>2019-05-31T09:43:25Z</time>
      </trkpt>
      <trkpt lat="44.06691" lon="3.13628">
        <ele>803</ele>
        <time>2019-05-31T09:43:26Z</time>
      </trkpt>
      <trkpt lat="44.06688" lon="3.13632">
        <ele>803.1</ele>
        <time>2019-05-31T09:43:27Z</time>
      </trkpt>
      <trkpt lat="44.06686" lon="3.13636">
        <ele>803.2</ele>
        <time>2019-05-31T09:43:28Z</time>
      </trkpt>
      <trkpt lat="44.06684" lon="3.13639">
        <ele>803.3</ele>
        <time>2019-05-31T09:43:29Z</time>
      </trkpt>
      <trkpt lat="44.06682" lon="3.13642">
        <ele>803.4</ele>
        <time>2019-05-31T09:43:30Z</time>
      </trkpt>
      <trkpt lat="44.0668" lon="3.13648">
        <ele>803.5</ele>
        <time>2019-05-31T09:43:32Z</time>
      </trkpt>
      <trkpt lat="44.06677" lon="3.13654">
        <ele>803.7</ele>
        <time>2019-05-31T09:43:34Z</time>
      </trkpt>
      <trkpt lat="44.06672" lon="3.13658">
        <ele>803.8</ele>
        <time>2019-05-31T09:43:36Z</time>
      </trkpt>
      <trkpt lat="44.06669" lon="3.13659">
        <ele>803.9</ele>
        <time>2019-05-31T09:43:37Z</time>
      </trkpt>
      <trkpt lat="44.06667" lon="3.13661">
        <ele>804</ele>
        <time>2019-05-31T09:43:38Z</time>
      </trkpt>
      <trkpt lat="44.06664" lon="3.13661">
        <ele>804.1</ele>
        <time>2019-05-31T09:43:39Z</time>
      </trkpt>
      <trkpt lat="44.0666" lon="3.13664">
        <ele>804.2</ele>
        <time>2019-05-31T09:43:41Z</time>
      </trkpt>
      <trkpt lat="44.06658" lon="3.13667">
        <ele>804.3</ele>
        <time>2019-05-31T09:43:42Z</time>
      </trkpt>
      <trkpt lat="44.06656" lon="3.13671">
        <ele>804.4</ele>
        <time>2019-05-31T09:43:43Z</time>
      </trkpt>
      <trkpt lat="44.06653" lon="3.13677">
        <ele>804.6</ele>
        <time>2019-05-31T09:43:45Z</time>
      </trkpt>
      <trkpt lat="44.0665" lon="3.13681">
        <ele>804.7</ele>
        <time>2019-05-31T09:43:47Z</time>
      </trkpt>
      <trkpt lat="44.06647" lon="3.13684">
        <ele>804.9</ele>
        <time>2019-05-31T09:43:49Z</time>
      </trkpt>
      <trkpt lat="44.06644" lon="3.13688">
        <ele>805.1</ele>
        <time>2019-05-31T09:43:51Z</time>
      </trkpt>
      <trkpt lat="44.06641" lon="3.13692">
        <ele>805.4</ele>
        <time>2019-05-31T09:43:53Z</time>
      </trkpt>
      <trkpt lat="44.06637" lon="3.13695">
        <ele>805.7</ele>
        <time>2019-05-31T09:43:55Z</time>
      </trkpt>
      <trkpt lat="44.06633" lon="3.13698">
        <ele>806</ele>
        <time>2019-05-31T09:43:57Z</time>
      </trkpt>
      <trkpt lat="44.06631" lon="3.13699">
        <ele>806.1</ele>
        <time>2019-05-31T09:43:59Z</time>
      </trkpt>
      <trkpt lat="44.06628" lon="3.13703">
        <ele>806.4</ele>
        <time>2019-05-31T09:44:01Z</time>
      </trkpt>
      <trkpt lat="44.06624" lon="3.13708">
        <ele>806.7</ele>
        <time>2019-05-31T09:44:03Z</time>
      </trkpt>
      <trkpt lat="44.06622" lon="3.1371">
        <ele>806.9</ele>
        <time>2019-05-31T09:44:04Z</time>
      </trkpt>
      <trkpt lat="44.06618" lon="3.13715">
        <ele>807.1</ele>
        <time>2019-05-31T09:44:06Z</time>
      </trkpt>
      <trkpt lat="44.06616" lon="3.13717">
        <ele>807.2</ele>
        <time>2019-05-31T09:44:07Z</time>
      </trkpt>
      <trkpt lat="44.06613" lon="3.13722">
        <ele>807.5</ele>
        <time>2019-05-31T09:44:09Z</time>
      </trkpt>
      <trkpt lat="44.06608" lon="3.13726">
        <ele>807.7</ele>
        <time>2019-05-31T09:44:11Z</time>
      </trkpt>
      <trkpt lat="44.06605" lon="3.13729">
        <ele>807.9</ele>
        <time>2019-05-31T09:44:13Z</time>
      </trkpt>
      <trkpt lat="44.06601" lon="3.13732">
        <ele>808.1</ele>
        <time>2019-05-31T09:44:15Z</time>
      </trkpt>
      <trkpt lat="44.06598" lon="3.13735">
        <ele>808.3</ele>
        <time>2019-05-31T09:44:17Z</time>
      </trkpt>
      <trkpt lat="44.06595" lon="3.1374">
        <ele>808.5</ele>
        <time>2019-05-31T09:44:19Z</time>
      </trkpt>
      <trkpt lat="44.06593" lon="3.13745">
        <ele>808.8</ele>
        <time>2019-05-31T09:44:21Z</time>
      </trkpt>
      <trkpt lat="44.0659" lon="3.13749">
        <ele>809.2</ele>
        <time>2019-05-31T09:44:23Z</time>
      </trkpt>
      <trkpt lat="44.06587" lon="3.13754">
        <ele>809.5</ele>
        <time>2019-05-31T09:44:25Z</time>
      </trkpt>
      <trkpt lat="44.06585" lon="3.13757">
        <ele>809.8</ele>
        <time>2019-05-31T09:44:26Z</time>
      </trkpt>
      <trkpt lat="44.06582" lon="3.13762">
        <ele>810.2</ele>
        <time>2019-05-31T09:44:28Z</time>
      </trkpt>
      <trkpt lat="44.06581" lon="3.13765">
        <ele>810.5</ele>
        <time>2019-05-31T09:44:29Z</time>
      </trkpt>
      <trkpt lat="44.06579" lon="3.13769">
        <ele>810.8</ele>
        <time>2019-05-31T09:44:30Z</time>
      </trkpt>
      <trkpt lat="44.06576" lon="3.13773">
        <ele>810.9</ele>
        <time>2019-05-31T09:44:32Z</time>
      </trkpt>
      <trkpt lat="44.06571" lon="3.13775">
        <ele>810.6</ele>
        <time>2019-05-31T09:44:34Z</time>
      </trkpt>
      <trkpt lat="44.06569" lon="3.13778">
        <ele>810.4</ele>
        <time>2019-05-31T09:44:36Z</time>
      </trkpt>
      <trkpt lat="44.06568" lon="3.13783">
        <ele>810.1</ele>
        <time>2019-05-31T09:44:38Z</time>
      </trkpt>
      <trkpt lat="44.06569" lon="3.13787">
        <ele>809.9</ele>
        <time>2019-05-31T09:44:40Z</time>
      </trkpt>
      <trkpt lat="44.06569" lon="3.13792">
        <ele>809.7</ele>
        <time>2019-05-31T09:44:42Z</time>
      </trkpt>
      <trkpt lat="44.0657" lon="3.13797">
        <ele>809.4</ele>
        <time>2019-05-31T09:44:44Z</time>
      </trkpt>
      <trkpt lat="44.06572" lon="3.13802">
        <ele>809.1</ele>
        <time>2019-05-31T09:44:46Z</time>
      </trkpt>
      <trkpt lat="44.06572" lon="3.13807">
        <ele>809.4</ele>
        <time>2019-05-31T09:44:48Z</time>
      </trkpt>
      <trkpt lat="44.06571" lon="3.13813">
        <ele>809.7</ele>
        <time>2019-05-31T09:44:50Z</time>
      </trkpt>
      <trkpt lat="44.06569" lon="3.13816">
        <ele>809.9</ele>
        <time>2019-05-31T09:44:51Z</time>
      </trkpt>
      <trkpt lat="44.06567" lon="3.1382">
        <ele>810.2</ele>
        <time>2019-05-31T09:44:52Z</time>
      </trkpt>
      <trkpt lat="44.06564" lon="3.13824">
        <ele>810.6</ele>
        <time>2019-05-31T09:44:53Z</time>
      </trkpt>
      <trkpt lat="44.0656" lon="3.13827">
        <ele>810.8</ele>
        <time>2019-05-31T09:44:54Z</time>
      </trkpt>
      <trkpt lat="44.06557" lon="3.13831">
        <ele>811.2</ele>
        <time>2019-05-31T09:44:55Z</time>
      </trkpt>
      <trkpt lat="44.06552" lon="3.13834">
        <ele>812</ele>
        <time>2019-05-31T09:44:56Z</time>
      </trkpt>
      <trkpt lat="44.06549" lon="3.13838">
        <ele>812.5</ele>
        <time>2019-05-31T09:44:57Z</time>
      </trkpt>
      <trkpt lat="44.06546" lon="3.13843">
        <ele>812.7</ele>
        <time>2019-05-31T09:44:58Z</time>
      </trkpt>
      <trkpt lat="44.06542" lon="3.13848">
        <ele>812.4</ele>
        <time>2019-05-31T09:44:59Z</time>
      </trkpt>
      <trkpt lat="44.06539" lon="3.13853">
        <ele>812.6</ele>
        <time>2019-05-31T09:45:00Z</time>
      </trkpt>
      <trkpt lat="44.06536" lon="3.13859">
        <ele>813</ele>
        <time>2019-05-31T09:45:01Z</time>
      </trkpt>
      <trkpt lat="44.06532" lon="3.13863">
        <ele>813.8</ele>
        <time>2019-05-31T09:45:02Z</time>
      </trkpt>
      <trkpt lat="44.06528" lon="3.13865">
        <ele>814.5</ele>
        <time>2019-05-31T09:45:03Z</time>
      </trkpt>
      <trkpt lat="44.06525" lon="3.13868">
        <ele>815.1</ele>
        <time>2019-05-31T09:45:04Z</time>
      </trkpt>
      <trkpt lat="44.06523" lon="3.1387">
        <ele>815.6</ele>
        <time>2019-05-31T09:45:05Z</time>
      </trkpt>
      <trkpt lat="44.06519" lon="3.13873">
        <ele>816.1</ele>
        <time>2019-05-31T09:45:07Z</time>
      </trkpt>
      <trkpt lat="44.06516" lon="3.13876">
        <ele>816.2</ele>
        <time>2019-05-31T09:45:09Z</time>
      </trkpt>
      <trkpt lat="44.06512" lon="3.13879">
        <ele>816.4</ele>
        <time>2019-05-31T09:45:11Z</time>
      </trkpt>
      <trkpt lat="44.06509" lon="3.13881">
        <ele>816.5</ele>
        <time>2019-05-31T09:45:13Z</time>
      </trkpt>
      <trkpt lat="44.06505" lon="3.13883">
        <ele>817.2</ele>
        <time>2019-05-31T09:45:15Z</time>
      </trkpt>
      <trkpt lat="44.06502" lon="3.13883">
        <ele>817.8</ele>
        <time>2019-05-31T09:45:17Z</time>
      </trkpt>
      <trkpt lat="44.06499" lon="3.13883">
        <ele>818.2</ele>
        <time>2019-05-31T09:45:19Z</time>
      </trkpt>
      <trkpt lat="44.06496" lon="3.13887">
        <ele>818.8</ele>
        <time>2019-05-31T09:45:21Z</time>
      </trkpt>
      <trkpt lat="44.06494" lon="3.13891">
        <ele>819.2</ele>
        <time>2019-05-31T09:45:23Z</time>
      </trkpt>
      <trkpt lat="44.06491" lon="3.13894">
        <ele>819.4</ele>
        <time>2019-05-31T09:45:25Z</time>
      </trkpt>
      <trkpt lat="44.06488" lon="3.13894">
        <ele>819.9</ele>
        <time>2019-05-31T09:45:27Z</time>
      </trkpt>
      <trkpt lat="44.06486" lon="3.1389">
        <ele>820.5</ele>
        <time>2019-05-31T09:45:29Z</time>
      </trkpt>
      <trkpt lat="44.06484" lon="3.13886">
        <ele>821.3</ele>
        <time>2019-05-31T09:45:31Z</time>
      </trkpt>
      <trkpt lat="44.06481" lon="3.13884">
        <ele>821.5</ele>
        <time>2019-05-31T09:45:33Z</time>
      </trkpt>
      <trkpt lat="44.06477" lon="3.13885">
        <ele>821.5</ele>
        <time>2019-05-31T09:45:36Z</time>
      </trkpt>
      <trkpt lat="44.06474" lon="3.13887">
        <ele>821.7</ele>
        <time>2019-05-31T09:45:38Z</time>
      </trkpt>
      <trkpt lat="44.06471" lon="3.13889">
        <ele>821.8</ele>
        <time>2019-05-31T09:45:40Z</time>
      </trkpt>
      <trkpt lat="44.06467" lon="3.13891">
        <ele>822</ele>
        <time>2019-05-31T09:45:43Z</time>
      </trkpt>
      <trkpt lat="44.06464" lon="3.13891">
        <ele>822.1</ele>
        <time>2019-05-31T09:45:45Z</time>
      </trkpt>
      <trkpt lat="44.06461" lon="3.13892">
        <ele>822.3</ele>
        <time>2019-05-31T09:45:47Z</time>
      </trkpt>
      <trkpt lat="44.06457" lon="3.13893">
        <ele>822.5</ele>
        <time>2019-05-31T09:45:49Z</time>
      </trkpt>
      <trkpt lat="44.06454" lon="3.13893">
        <ele>822.7</ele>
        <time>2019-05-31T09:45:51Z</time>
      </trkpt>
      <trkpt lat="44.06451" lon="3.13895">
        <ele>822.9</ele>
        <time>2019-05-31T09:45:53Z</time>
      </trkpt>
      <trkpt lat="44.06448" lon="3.13893">
        <ele>823.1</ele>
        <time>2019-05-31T09:45:56Z</time>
      </trkpt>
      <trkpt lat="44.06445" lon="3.13891">
        <ele>823.2</ele>
        <time>2019-05-31T09:45:58Z</time>
      </trkpt>
      <trkpt lat="44.06442" lon="3.13892">
        <ele>823.4</ele>
        <time>2019-05-31T09:50:32Z</time>
      </trkpt>
      <trkpt lat="44.0644" lon="3.1389">
        <ele>823.6</ele>
        <time>2019-05-31T09:50:43Z</time>
      </trkpt>
      <trkpt lat="44.0644" lon="3.13894">
        <ele>823.8</ele>
        <time>2019-05-31T09:51:06Z</time>
      </trkpt>
      <trkpt lat="44.06442" lon="3.13897">
        <ele>824</ele>
        <time>2019-05-31T09:51:12Z</time>
      </trkpt>
      <trkpt lat="44.06446" lon="3.13898">
        <ele>824.3</ele>
        <time>2019-05-31T09:51:16Z</time>
      </trkpt>
      <trkpt lat="44.06451" lon="3.13899">
        <ele>823.7</ele>
        <time>2019-05-31T09:51:18Z</time>
      </trkpt>
      <trkpt lat="44.06454" lon="3.139">
        <ele>823.3</ele>
        <time>2019-05-31T09:51:19Z</time>
      </trkpt>
      <trkpt lat="44.0646" lon="3.13898">
        <ele>822.9</ele>
        <time>2019-05-31T09:51:20Z</time>
      </trkpt>
      <trkpt lat="44.06465" lon="3.13896">
        <ele>822.4</ele>
        <time>2019-05-31T09:51:21Z</time>
      </trkpt>
      <trkpt lat="44.0647" lon="3.13894">
        <ele>822</ele>
        <time>2019-05-31T09:51:22Z</time>
      </trkpt>
      <trkpt lat="44.06474" lon="3.13892">
        <ele>821.7</ele>
        <time>2019-05-31T09:51:23Z</time>
      </trkpt>
      <trkpt lat="44.06478" lon="3.13891">
        <ele>821.5</ele>
        <time>2019-05-31T09:51:24Z</time>
      </trkpt>
      <trkpt lat="44.06481" lon="3.13895">
        <ele>820.9</ele>
        <time>2019-05-31T09:51:25Z</time>
      </trkpt>
      <trkpt lat="44.06485" lon="3.13898">
        <ele>820.1</ele>
        <time>2019-05-31T09:51:26Z</time>
      </trkpt>
      <trkpt lat="44.06489" lon="3.13898">
        <ele>819.4</ele>
        <time>2019-05-31T09:51:27Z</time>
      </trkpt>
      <trkpt lat="44.06493" lon="3.13894">
        <ele>819.1</ele>
        <time>2019-05-31T09:51:28Z</time>
      </trkpt>
      <trkpt lat="44.06496" lon="3.13888">
        <ele>818.4</ele>
        <time>2019-05-31T09:51:29Z</time>
      </trkpt>
      <trkpt lat="44.065" lon="3.13885">
        <ele>817.7</ele>
        <time>2019-05-31T09:51:30Z</time>
      </trkpt>
      <trkpt lat="44.06506" lon="3.13882">
        <ele>816.7</ele>
        <time>2019-05-31T09:51:31Z</time>
      </trkpt>
      <trkpt lat="44.06511" lon="3.13876">
        <ele>816.3</ele>
        <time>2019-05-31T09:51:32Z</time>
      </trkpt>
      <trkpt lat="44.06517" lon="3.1387">
        <ele>816.1</ele>
        <time>2019-05-31T09:51:33Z</time>
      </trkpt>
      <trkpt lat="44.06523" lon="3.13867">
        <ele>815.3</ele>
        <time>2019-05-31T09:51:34Z</time>
      </trkpt>
      <trkpt lat="44.06528" lon="3.13865">
        <ele>814.3</ele>
        <time>2019-05-31T09:51:35Z</time>
      </trkpt>
      <trkpt lat="44.06531" lon="3.13862">
        <ele>813.7</ele>
        <time>2019-05-31T09:51:36Z</time>
      </trkpt>
      <trkpt lat="44.06534" lon="3.13859">
        <ele>813.1</ele>
        <time>2019-05-31T09:51:37Z</time>
      </trkpt>
      <trkpt lat="44.06537" lon="3.13855">
        <ele>812.7</ele>
        <time>2019-05-31T09:51:38Z</time>
      </trkpt>
      <trkpt lat="44.06539" lon="3.1385">
        <ele>812.3</ele>
        <time>2019-05-31T09:51:40Z</time>
      </trkpt>
      <trkpt lat="44.0654" lon="3.1384">
        <ele>812.6</ele>
        <time>2019-05-31T09:51:41Z</time>
      </trkpt>
      <trkpt lat="44.06543" lon="3.13838">
        <ele>812.8</ele>
        <time>2019-05-31T09:51:42Z</time>
      </trkpt>
      <trkpt lat="44.06544" lon="3.13835">
        <ele>812.5</ele>
        <time>2019-05-31T09:51:43Z</time>
      </trkpt>
      <trkpt lat="44.06548" lon="3.13832">
        <ele>811.9</ele>
        <time>2019-05-31T09:51:45Z</time>
      </trkpt>
      <trkpt lat="44.06551" lon="3.13829">
        <ele>811.4</ele>
        <time>2019-05-31T09:51:47Z</time>
      </trkpt>
      <trkpt lat="44.06555" lon="3.13825">
        <ele>810.9</ele>
        <time>2019-05-31T09:51:49Z</time>
      </trkpt>
      <trkpt lat="44.06557" lon="3.13822">
        <ele>810.8</ele>
        <time>2019-05-31T09:51:50Z</time>
      </trkpt>
      <trkpt lat="44.0656" lon="3.13816">
        <ele>810.4</ele>
        <time>2019-05-31T09:51:52Z</time>
      </trkpt>
      <trkpt lat="44.06564" lon="3.13813">
        <ele>810</ele>
        <time>2019-05-31T09:51:54Z</time>
      </trkpt>
      <trkpt lat="44.06566" lon="3.1381">
        <ele>809.8</ele>
        <time>2019-05-31T09:51:56Z</time>
      </trkpt>
      <trkpt lat="44.06569" lon="3.13807">
        <ele>809.5</ele>
        <time>2019-05-31T09:51:58Z</time>
      </trkpt>
      <trkpt lat="44.06572" lon="3.13803">
        <ele>809.2</ele>
        <time>2019-05-31T09:52:00Z</time>
      </trkpt>
      <trkpt lat="44.06576" lon="3.13798">
        <ele>809</ele>
        <time>2019-05-31T09:52:02Z</time>
      </trkpt>
      <trkpt lat="44.06579" lon="3.13795">
        <ele>809</ele>
        <time>2019-05-31T09:52:04Z</time>
      </trkpt>
      <trkpt lat="44.06582" lon="3.13792">
        <ele>808.9</ele>
        <time>2019-05-31T09:52:05Z</time>
      </trkpt>
      <trkpt lat="44.06585" lon="3.13788">
        <ele>808.7</ele>
        <time>2019-05-31T09:52:06Z</time>
      </trkpt>
      <trkpt lat="44.0659" lon="3.13781">
        <ele>808.4</ele>
        <time>2019-05-31T09:52:07Z</time>
      </trkpt>
      <trkpt lat="44.06593" lon="3.13778">
        <ele>808.3</ele>
        <time>2019-05-31T09:52:08Z</time>
      </trkpt>
      <trkpt lat="44.06596" lon="3.13773">
        <ele>808.2</ele>
        <time>2019-05-31T09:52:09Z</time>
      </trkpt>
      <trkpt lat="44.06598" lon="3.1377">
        <ele>808.1</ele>
        <time>2019-05-31T09:52:10Z</time>
      </trkpt>
      <trkpt lat="44.06601" lon="3.13768">
        <ele>808</ele>
        <time>2019-05-31T09:52:11Z</time>
      </trkpt>
      <trkpt lat="44.06603" lon="3.13772">
        <ele>807.8</ele>
        <time>2019-05-31T09:52:13Z</time>
      </trkpt>
      <trkpt lat="44.06605" lon="3.13769">
        <ele>807.7</ele>
        <time>2019-05-31T09:52:18Z</time>
      </trkpt>
      <trkpt lat="44.06609" lon="3.13764">
        <ele>807.5</ele>
        <time>2019-05-31T09:52:20Z</time>
      </trkpt>
      <trkpt lat="44.06613" lon="3.13762">
        <ele>807.4</ele>
        <time>2019-05-31T09:52:22Z</time>
      </trkpt>
      <trkpt lat="44.06616" lon="3.1376">
        <ele>807.3</ele>
        <time>2019-05-31T09:52:23Z</time>
      </trkpt>
      <trkpt lat="44.06619" lon="3.13758">
        <ele>807.2</ele>
        <time>2019-05-31T09:52:24Z</time>
      </trkpt>
      <trkpt lat="44.06622" lon="3.13757">
        <ele>807.1</ele>
        <time>2019-05-31T09:52:25Z</time>
      </trkpt>
      <trkpt lat="44.06624" lon="3.13755">
        <ele>807</ele>
        <time>2019-05-31T09:52:26Z</time>
      </trkpt>
      <trkpt lat="44.06628" lon="3.13752">
        <ele>806.8</ele>
        <time>2019-05-31T09:52:27Z</time>
      </trkpt>
      <trkpt lat="44.06632" lon="3.13749">
        <ele>806.7</ele>
        <time>2019-05-31T09:52:28Z</time>
      </trkpt>
      <trkpt lat="44.06635" lon="3.13745">
        <ele>806.4</ele>
        <time>2019-05-31T09:52:29Z</time>
      </trkpt>
      <trkpt lat="44.06639" lon="3.13741">
        <ele>806.1</ele>
        <time>2019-05-31T09:52:30Z</time>
      </trkpt>
      <trkpt lat="44.06643" lon="3.1374">
        <ele>805.8</ele>
        <time>2019-05-31T09:52:31Z</time>
      </trkpt>
      <trkpt lat="44.06647" lon="3.13738">
        <ele>805.5</ele>
        <time>2019-05-31T09:52:32Z</time>
      </trkpt>
      <trkpt lat="44.06652" lon="3.13734">
        <ele>805.2</ele>
        <time>2019-05-31T09:52:33Z</time>
      </trkpt>
      <trkpt lat="44.06656" lon="3.13731">
        <ele>805</ele>
        <time>2019-05-31T09:52:34Z</time>
      </trkpt>
      <trkpt lat="44.0666" lon="3.13728">
        <ele>804.8</ele>
        <time>2019-05-31T09:52:35Z</time>
      </trkpt>
      <trkpt lat="44.06667" lon="3.13725">
        <ele>804.6</ele>
        <time>2019-05-31T09:52:36Z</time>
      </trkpt>
      <trkpt lat="44.06674" lon="3.13723">
        <ele>804.3</ele>
        <time>2019-05-31T09:52:37Z</time>
      </trkpt>
      <trkpt lat="44.0668" lon="3.1372">
        <ele>804.2</ele>
        <time>2019-05-31T09:52:38Z</time>
      </trkpt>
      <trkpt lat="44.06687" lon="3.13715">
        <ele>804.1</ele>
        <time>2019-05-31T09:52:39Z</time>
      </trkpt>
      <trkpt lat="44.06691" lon="3.13711">
        <ele>804</ele>
        <time>2019-05-31T09:52:40Z</time>
      </trkpt>
      <trkpt lat="44.06696" lon="3.1371">
        <ele>803.8</ele>
        <time>2019-05-31T09:52:41Z</time>
      </trkpt>
      <trkpt lat="44.06701" lon="3.13708">
        <ele>803.7</ele>
        <time>2019-05-31T09:52:42Z</time>
      </trkpt>
      <trkpt lat="44.06705" lon="3.13705">
        <ele>803.6</ele>
        <time>2019-05-31T09:52:43Z</time>
      </trkpt>
      <trkpt lat="44.06709" lon="3.13701">
        <ele>803.5</ele>
        <time>2019-05-31T09:52:44Z</time>
      </trkpt>
      <trkpt lat="44.06713" lon="3.13701">
        <ele>803.4</ele>
        <time>2019-05-31T09:52:45Z</time>
      </trkpt>
      <trkpt lat="44.06716" lon="3.137">
        <ele>803.3</ele>
        <time>2019-05-31T09:52:47Z</time>
      </trkpt>
      <trkpt lat="44.06721" lon="3.13695">
        <ele>803.1</ele>
        <time>2019-05-31T09:52:49Z</time>
      </trkpt>
      <trkpt lat="44.06724" lon="3.13692">
        <ele>803.1</ele>
        <time>2019-05-31T09:52:50Z</time>
      </trkpt>
      <trkpt lat="44.06727" lon="3.1369">
        <ele>803</ele>
        <time>2019-05-31T09:52:51Z</time>
      </trkpt>
      <trkpt lat="44.0673" lon="3.13687">
        <ele>802.9</ele>
        <time>2019-05-31T09:52:52Z</time>
      </trkpt>
      <trkpt lat="44.06734" lon="3.13684">
        <ele>802.8</ele>
        <time>2019-05-31T09:52:53Z</time>
      </trkpt>
      <trkpt lat="44.06737" lon="3.13681">
        <ele>802.7</ele>
        <time>2019-05-31T09:52:54Z</time>
      </trkpt>
      <trkpt lat="44.06741" lon="3.13678">
        <ele>802.7</ele>
        <time>2019-05-31T09:52:55Z</time>
      </trkpt>
      <trkpt lat="44.06744" lon="3.13675">
        <ele>802.6</ele>
        <time>2019-05-31T09:52:56Z</time>
      </trkpt>
      <trkpt lat="44.06747" lon="3.13672">
        <ele>802.6</ele>
        <time>2019-05-31T09:52:57Z</time>
      </trkpt>
      <trkpt lat="44.0675" lon="3.13669">
        <ele>802.5</ele>
        <time>2019-05-31T09:52:58Z</time>
      </trkpt>
      <trkpt lat="44.06753" lon="3.13666">
        <ele>802.5</ele>
        <time>2019-05-31T09:52:59Z</time>
      </trkpt>
      <trkpt lat="44.06756" lon="3.13661">
        <ele>802.4</ele>
        <time>2019-05-31T09:53:01Z</time>
      </trkpt>
      <trkpt lat="44.06758" lon="3.13666">
        <ele>802.3</ele>
        <time>2019-05-31T09:53:16Z</time>
      </trkpt>
      <trkpt lat="44.06758" lon="3.13671">
        <ele>802.1</ele>
        <time>2019-05-31T09:53:19Z</time>
      </trkpt>
      <trkpt lat="44.06757" lon="3.13676">
        <ele>801.9</ele>
        <time>2019-05-31T09:53:22Z</time>
      </trkpt>
      <trkpt lat="44.06758" lon="3.13681">
        <ele>801.9</ele>
        <time>2019-05-31T09:53:24Z</time>
      </trkpt>
      <trkpt lat="44.06758" lon="3.13685">
        <ele>801.9</ele>
        <time>2019-05-31T09:53:27Z</time>
      </trkpt>
      <trkpt lat="44.06757" lon="3.13689">
        <ele>801.9</ele>
        <time>2019-05-31T09:53:29Z</time>
      </trkpt>
      <trkpt lat="44.06758" lon="3.13693">
        <ele>801.9</ele>
        <time>2019-05-31T09:53:32Z</time>
      </trkpt>
      <trkpt lat="44.06758" lon="3.13698">
        <ele>801.9</ele>
        <time>2019-05-31T09:53:34Z</time>
      </trkpt>
      <trkpt lat="44.06758" lon="3.13702">
        <ele>801.8</ele>
        <time>2019-05-31T09:53:36Z</time>
      </trkpt>
      <trkpt lat="44.06759" lon="3.13707">
        <ele>801.8</ele>
        <time>2019-05-31T09:53:38Z</time>
      </trkpt>
      <trkpt lat="44.06759" lon="3.13712">
        <ele>801.7</ele>
        <time>2019-05-31T09:53:40Z</time>
      </trkpt>
      <trkpt lat="44.06757" lon="3.13718">
        <ele>801.7</ele>
        <time>2019-05-31T09:53:42Z</time>
      </trkpt>
      <trkpt lat="44.06756" lon="3.13725">
        <ele>801.7</ele>
        <time>2019-05-31T09:53:44Z</time>
      </trkpt>
      <trkpt lat="44.06756" lon="3.13729">
        <ele>801.6</ele>
        <time>2019-05-31T09:53:45Z</time>
      </trkpt>
      <trkpt lat="44.06755" lon="3.13735">
        <ele>801.6</ele>
        <time>2019-05-31T09:53:47Z</time>
      </trkpt>
      <trkpt lat="44.06752" lon="3.1374">
        <ele>801.7</ele>
        <time>2019-05-31T09:53:49Z</time>
      </trkpt>
      <trkpt lat="44.06749" lon="3.13746">
        <ele>801.6</ele>
        <time>2019-05-31T09:53:51Z</time>
      </trkpt>
      <trkpt lat="44.06746" lon="3.13751">
        <ele>801.6</ele>
        <time>2019-05-31T09:53:53Z</time>
      </trkpt>
      <trkpt lat="44.06744" lon="3.13756">
        <ele>801.6</ele>
        <time>2019-05-31T09:53:55Z</time>
      </trkpt>
      <trkpt lat="44.06741" lon="3.1376">
        <ele>801.5</ele>
        <time>2019-05-31T09:53:57Z</time>
      </trkpt>
      <trkpt lat="44.06737" lon="3.13764">
        <ele>801.5</ele>
        <time>2019-05-31T09:53:59Z</time>
      </trkpt>
      <trkpt lat="44.06733" lon="3.13768">
        <ele>801.4</ele>
        <time>2019-05-31T09:54:01Z</time>
      </trkpt>
      <trkpt lat="44.0673" lon="3.13771">
        <ele>801.4</ele>
        <time>2019-05-31T09:54:03Z</time>
      </trkpt>
      <trkpt lat="44.06727" lon="3.13774">
        <ele>801.4</ele>
        <time>2019-05-31T09:54:05Z</time>
      </trkpt>
      <trkpt lat="44.06722" lon="3.13777">
        <ele>801.4</ele>
        <time>2019-05-31T09:54:07Z</time>
      </trkpt>
      <trkpt lat="44.06719" lon="3.13778">
        <ele>801.4</ele>
        <time>2019-05-31T09:54:08Z</time>
      </trkpt>
      <trkpt lat="44.06716" lon="3.13781">
        <ele>801.3</ele>
        <time>2019-05-31T09:54:09Z</time>
      </trkpt>
      <trkpt lat="44.06713" lon="3.13784">
        <ele>801.3</ele>
        <time>2019-05-31T09:54:10Z</time>
      </trkpt>
      <trkpt lat="44.06709" lon="3.13788">
        <ele>801.3</ele>
        <time>2019-05-31T09:54:11Z</time>
      </trkpt>
      <trkpt lat="44.06707" lon="3.13792">
        <ele>801.4</ele>
        <time>2019-05-31T09:54:12Z</time>
      </trkpt>
      <trkpt lat="44.06704" lon="3.13796">
        <ele>801.6</ele>
        <time>2019-05-31T09:54:13Z</time>
      </trkpt>
      <trkpt lat="44.06702" lon="3.13802">
        <ele>801.7</ele>
        <time>2019-05-31T09:54:14Z</time>
      </trkpt>
      <trkpt lat="44.06698" lon="3.13804">
        <ele>801.8</ele>
        <time>2019-05-31T09:54:15Z</time>
      </trkpt>
      <trkpt lat="44.06695" lon="3.13806">
        <ele>801.9</ele>
        <time>2019-05-31T09:54:16Z</time>
      </trkpt>
      <trkpt lat="44.06692" lon="3.1381">
        <ele>802</ele>
        <time>2019-05-31T09:54:17Z</time>
      </trkpt>
      <trkpt lat="44.06688" lon="3.13814">
        <ele>802</ele>
        <time>2019-05-31T09:54:18Z</time>
      </trkpt>
      <trkpt lat="44.06684" lon="3.13819">
        <ele>802</ele>
        <time>2019-05-31T09:54:19Z</time>
      </trkpt>
      <trkpt lat="44.06681" lon="3.13823">
        <ele>802</ele>
        <time>2019-05-31T09:54:20Z</time>
      </trkpt>
      <trkpt lat="44.06677" lon="3.13827">
        <ele>802</ele>
        <time>2019-05-31T09:54:21Z</time>
      </trkpt>
      <trkpt lat="44.06674" lon="3.13831">
        <ele>801.8</ele>
        <time>2019-05-31T09:54:22Z</time>
      </trkpt>
      <trkpt lat="44.06671" lon="3.13838">
        <ele>801.6</ele>
        <time>2019-05-31T09:54:23Z</time>
      </trkpt>
      <trkpt lat="44.06669" lon="3.13843">
        <ele>801.5</ele>
        <time>2019-05-31T09:54:24Z</time>
      </trkpt>
      <trkpt lat="44.06666" lon="3.13849">
        <ele>801.2</ele>
        <time>2019-05-31T09:54:25Z</time>
      </trkpt>
      <trkpt lat="44.06663" lon="3.13852">
        <ele>801.1</ele>
        <time>2019-05-31T09:54:26Z</time>
      </trkpt>
      <trkpt lat="44.06659" lon="3.13858">
        <ele>801</ele>
        <time>2019-05-31T09:54:27Z</time>
      </trkpt>
      <trkpt lat="44.06657" lon="3.13864">
        <ele>800.8</ele>
        <time>2019-05-31T09:54:28Z</time>
      </trkpt>
      <trkpt lat="44.06656" lon="3.13868">
        <ele>800.6</ele>
        <time>2019-05-31T09:54:29Z</time>
      </trkpt>
      <trkpt lat="44.06653" lon="3.13874">
        <ele>800.3</ele>
        <time>2019-05-31T09:54:30Z</time>
      </trkpt>
      <trkpt lat="44.06651" lon="3.13877">
        <ele>800.1</ele>
        <time>2019-05-31T09:54:31Z</time>
      </trkpt>
      <trkpt lat="44.06648" lon="3.13883">
        <ele>799.9</ele>
        <time>2019-05-31T09:54:33Z</time>
      </trkpt>
      <trkpt lat="44.06645" lon="3.13886">
        <ele>799.8</ele>
        <time>2019-05-31T09:54:34Z</time>
      </trkpt>
      <trkpt lat="44.06642" lon="3.13891">
        <ele>799.8</ele>
        <time>2019-05-31T09:54:35Z</time>
      </trkpt>
      <trkpt lat="44.06639" lon="3.13894">
        <ele>799.9</ele>
        <time>2019-05-31T09:54:36Z</time>
      </trkpt>
      <trkpt lat="44.06637" lon="3.13898">
        <ele>799.9</ele>
        <time>2019-05-31T09:54:37Z</time>
      </trkpt>
      <trkpt lat="44.06635" lon="3.13902">
        <ele>800.1</ele>
        <time>2019-05-31T09:54:38Z</time>
      </trkpt>
      <trkpt lat="44.06633" lon="3.13906">
        <ele>800.2</ele>
        <time>2019-05-31T09:54:39Z</time>
      </trkpt>
      <trkpt lat="44.0663" lon="3.13909">
        <ele>800.3</ele>
        <time>2019-05-31T09:54:40Z</time>
      </trkpt>
      <trkpt lat="44.06628" lon="3.13912">
        <ele>800.4</ele>
        <time>2019-05-31T09:54:41Z</time>
      </trkpt>
      <trkpt lat="44.06626" lon="3.13916">
        <ele>800.5</ele>
        <time>2019-05-31T09:54:42Z</time>
      </trkpt>
      <trkpt lat="44.06625" lon="3.13922">
        <ele>800.6</ele>
        <time>2019-05-31T09:54:44Z</time>
      </trkpt>
      <trkpt lat="44.06625" lon="3.13926">
        <ele>800.6</ele>
        <time>2019-05-31T09:54:46Z</time>
      </trkpt>
      <trkpt lat="44.06622" lon="3.13929">
        <ele>800.7</ele>
        <time>2019-05-31T09:54:50Z</time>
      </trkpt>
      <trkpt lat="44.0662" lon="3.13933">
        <ele>800.8</ele>
        <time>2019-05-31T09:55:26Z</time>
      </trkpt>
      <trkpt lat="44.06617" lon="3.13938">
        <ele>800.9</ele>
        <time>2019-05-31T09:55:28Z</time>
      </trkpt>
      <trkpt lat="44.06614" lon="3.13943">
        <ele>800.9</ele>
        <time>2019-05-31T09:55:30Z</time>
      </trkpt>
      <trkpt lat="44.06613" lon="3.13947">
        <ele>800.9</ele>
        <time>2019-05-31T09:55:31Z</time>
      </trkpt>
      <trkpt lat="44.06612" lon="3.1395">
        <ele>800.8</ele>
        <time>2019-05-31T09:55:32Z</time>
      </trkpt>
      <trkpt lat="44.06611" lon="3.13954">
        <ele>800.8</ele>
        <time>2019-05-31T09:55:33Z</time>
      </trkpt>
      <trkpt lat="44.06609" lon="3.13959">
        <ele>800.7</ele>
        <time>2019-05-31T09:55:34Z</time>
      </trkpt>
      <trkpt lat="44.06609" lon="3.13966">
        <ele>800.8</ele>
        <time>2019-05-31T09:55:36Z</time>
      </trkpt>
      <trkpt lat="44.06609" lon="3.13971">
        <ele>800.8</ele>
        <time>2019-05-31T09:55:37Z</time>
      </trkpt>
      <trkpt lat="44.06609" lon="3.13976">
        <ele>800.8</ele>
        <time>2019-05-31T09:55:38Z</time>
      </trkpt>
      <trkpt lat="44.06608" lon="3.1398">
        <ele>800.8</ele>
        <time>2019-05-31T09:55:39Z</time>
      </trkpt>
      <trkpt lat="44.06607" lon="3.13984">
        <ele>800.9</ele>
        <time>2019-05-31T09:55:40Z</time>
      </trkpt>
      <trkpt lat="44.06607" lon="3.13988">
        <ele>800.9</ele>
        <time>2019-05-31T09:55:41Z</time>
      </trkpt>
      <trkpt lat="44.06606" lon="3.13991">
        <ele>801</ele>
        <time>2019-05-31T09:55:42Z</time>
      </trkpt>
      <trkpt lat="44.06605" lon="3.13996">
        <ele>801.1</ele>
        <time>2019-05-31T09:55:43Z</time>
      </trkpt>
      <trkpt lat="44.06605" lon="3.14">
        <ele>801.2</ele>
        <time>2019-05-31T09:55:44Z</time>
      </trkpt>
      <trkpt lat="44.06604" lon="3.14004">
        <ele>801.3</ele>
        <time>2019-05-31T09:55:45Z</time>
      </trkpt>
      <trkpt lat="44.06604" lon="3.14009">
        <ele>801.4</ele>
        <time>2019-05-31T09:55:46Z</time>
      </trkpt>
      <trkpt lat="44.06603" lon="3.14013">
        <ele>801.5</ele>
        <time>2019-05-31T09:55:47Z</time>
      </trkpt>
      <trkpt lat="44.06601" lon="3.14016">
        <ele>801.6</ele>
        <time>2019-05-31T09:55:48Z</time>
      </trkpt>
      <trkpt lat="44.06599" lon="3.1402">
        <ele>801.6</ele>
        <time>2019-05-31T09:55:49Z</time>
      </trkpt>
      <trkpt lat="44.06598" lon="3.14024">
        <ele>801.6</ele>
        <time>2019-05-31T09:55:50Z</time>
      </trkpt>
      <trkpt lat="44.06596" lon="3.14028">
        <ele>801.6</ele>
        <time>2019-05-31T09:55:51Z</time>
      </trkpt>
      <trkpt lat="44.06594" lon="3.14031">
        <ele>801.5</ele>
        <time>2019-05-31T09:55:52Z</time>
      </trkpt>
      <trkpt lat="44.06592" lon="3.14035">
        <ele>801.4</ele>
        <time>2019-05-31T09:55:53Z</time>
      </trkpt>
      <trkpt lat="44.0659" lon="3.14039">
        <ele>801.2</ele>
        <time>2019-05-31T09:55:54Z</time>
      </trkpt>
      <trkpt lat="44.06587" lon="3.14042">
        <ele>801.1</ele>
        <time>2019-05-31T09:55:55Z</time>
      </trkpt>
      <trkpt lat="44.06584" lon="3.14046">
        <ele>800.9</ele>
        <time>2019-05-31T09:55:56Z</time>
      </trkpt>
      <trkpt lat="44.06581" lon="3.14048">
        <ele>800.8</ele>
        <time>2019-05-31T09:55:57Z</time>
      </trkpt>
      <trkpt lat="44.06578" lon="3.14052">
        <ele>800.8</ele>
        <time>2019-05-31T09:55:58Z</time>
      </trkpt>
      <trkpt lat="44.06575" lon="3.14055">
        <ele>800.9</ele>
        <time>2019-05-31T09:55:59Z</time>
      </trkpt>
      <trkpt lat="44.06572" lon="3.14058">
        <ele>801</ele>
        <time>2019-05-31T09:56:00Z</time>
      </trkpt>
      <trkpt lat="44.06568" lon="3.1406">
        <ele>801.1</ele>
        <time>2019-05-31T09:56:01Z</time>
      </trkpt>
      <trkpt lat="44.06564" lon="3.14063">
        <ele>801.1</ele>
        <time>2019-05-31T09:56:02Z</time>
      </trkpt>
      <trkpt lat="44.0656" lon="3.14065">
        <ele>801.2</ele>
        <time>2019-05-31T09:56:03Z</time>
      </trkpt>
      <trkpt lat="44.06557" lon="3.14067">
        <ele>801.2</ele>
        <time>2019-05-31T09:56:04Z</time>
      </trkpt>
      <trkpt lat="44.06553" lon="3.14068">
        <ele>801.2</ele>
        <time>2019-05-31T09:56:05Z</time>
      </trkpt>
      <trkpt lat="44.0655" lon="3.1407">
        <ele>801.3</ele>
        <time>2019-05-31T09:56:06Z</time>
      </trkpt>
      <trkpt lat="44.06546" lon="3.14072">
        <ele>801.4</ele>
        <time>2019-05-31T09:56:07Z</time>
      </trkpt>
      <trkpt lat="44.06542" lon="3.14074">
        <ele>801.6</ele>
        <time>2019-05-31T09:56:08Z</time>
      </trkpt>
      <trkpt lat="44.06539" lon="3.14076">
        <ele>801.8</ele>
        <time>2019-05-31T09:56:09Z</time>
      </trkpt>
      <trkpt lat="44.06535" lon="3.14077">
        <ele>802</ele>
        <time>2019-05-31T09:56:10Z</time>
      </trkpt>
      <trkpt lat="44.0653" lon="3.14078">
        <ele>802.2</ele>
        <time>2019-05-31T09:56:11Z</time>
      </trkpt>
      <trkpt lat="44.06526" lon="3.14078">
        <ele>802.4</ele>
        <time>2019-05-31T09:56:12Z</time>
      </trkpt>
      <trkpt lat="44.06522" lon="3.14077">
        <ele>802.7</ele>
        <time>2019-05-31T09:56:13Z</time>
      </trkpt>
      <trkpt lat="44.06518" lon="3.14077">
        <ele>803</ele>
        <time>2019-05-31T09:56:14Z</time>
      </trkpt>
      <trkpt lat="44.06514" lon="3.14077">
        <ele>803.4</ele>
        <time>2019-05-31T09:56:15Z</time>
      </trkpt>
      <trkpt lat="44.06511" lon="3.14078">
        <ele>803.7</ele>
        <time>2019-05-31T09:56:16Z</time>
      </trkpt>
      <trkpt lat="44.06506" lon="3.1408">
        <ele>804.1</ele>
        <time>2019-05-31T09:56:17Z</time>
      </trkpt>
      <trkpt lat="44.06502" lon="3.14081">
        <ele>804.6</ele>
        <time>2019-05-31T09:56:18Z</time>
      </trkpt>
      <trkpt lat="44.06497" lon="3.14083">
        <ele>805.2</ele>
        <time>2019-05-31T09:56:19Z</time>
      </trkpt>
      <trkpt lat="44.06493" lon="3.14087">
        <ele>805.4</ele>
        <time>2019-05-31T09:56:20Z</time>
      </trkpt>
      <trkpt lat="44.0649" lon="3.1409">
        <ele>805.6</ele>
        <time>2019-05-31T09:56:21Z</time>
      </trkpt>
      <trkpt lat="44.06486" lon="3.14093">
        <ele>805.9</ele>
        <time>2019-05-31T09:56:22Z</time>
      </trkpt>
      <trkpt lat="44.06483" lon="3.14095">
        <ele>806.2</ele>
        <time>2019-05-31T09:56:23Z</time>
      </trkpt>
      <trkpt lat="44.06479" lon="3.14097">
        <ele>806.2</ele>
        <time>2019-05-31T09:56:24Z</time>
      </trkpt>
      <trkpt lat="44.06476" lon="3.14095">
        <ele>806.3</ele>
        <time>2019-05-31T09:56:25Z</time>
      </trkpt>
      <trkpt lat="44.06472" lon="3.14094">
        <ele>806.5</ele>
        <time>2019-05-31T09:56:26Z</time>
      </trkpt>
      <trkpt lat="44.06469" lon="3.14094">
        <ele>806.6</ele>
        <time>2019-05-31T09:56:27Z</time>
      </trkpt>
      <trkpt lat="44.06465" lon="3.14096">
        <ele>806.9</ele>
        <time>2019-05-31T09:56:28Z</time>
      </trkpt>
      <trkpt lat="44.06461" lon="3.14098">
        <ele>807.2</ele>
        <time>2019-05-31T09:56:29Z</time>
      </trkpt>
      <trkpt lat="44.06457" lon="3.14102">
        <ele>807.7</ele>
        <time>2019-05-31T09:56:31Z</time>
      </trkpt>
      <trkpt lat="44.06454" lon="3.14105">
        <ele>807.9</ele>
        <time>2019-05-31T09:56:32Z</time>
      </trkpt>
      <trkpt lat="44.06451" lon="3.14109">
        <ele>808.2</ele>
        <time>2019-05-31T09:56:34Z</time>
      </trkpt>
      <trkpt lat="44.0645" lon="3.14115">
        <ele>808.4</ele>
        <time>2019-05-31T09:56:36Z</time>
      </trkpt>
      <trkpt lat="44.06448" lon="3.14121">
        <ele>808.4</ele>
        <time>2019-05-31T09:56:38Z</time>
      </trkpt>
      <trkpt lat="44.06444" lon="3.14125">
        <ele>808.2</ele>
        <time>2019-05-31T09:56:40Z</time>
      </trkpt>
      <trkpt lat="44.06441" lon="3.14127">
        <ele>808.3</ele>
        <time>2019-05-31T09:56:41Z</time>
      </trkpt>
      <trkpt lat="44.06438" lon="3.14129">
        <ele>808.4</ele>
        <time>2019-05-31T09:56:42Z</time>
      </trkpt>
      <trkpt lat="44.06434" lon="3.14134">
        <ele>808.6</ele>
        <time>2019-05-31T09:56:44Z</time>
      </trkpt>
      <trkpt lat="44.06432" lon="3.14137">
        <ele>808.7</ele>
        <time>2019-05-31T09:56:45Z</time>
      </trkpt>
      <trkpt lat="44.06429" lon="3.1414">
        <ele>808.8</ele>
        <time>2019-05-31T09:56:46Z</time>
      </trkpt>
      <trkpt lat="44.06427" lon="3.14141">
        <ele>809</ele>
        <time>2019-05-31T09:56:47Z</time>
      </trkpt>
      <trkpt lat="44.06424" lon="3.14143">
        <ele>809.2</ele>
        <time>2019-05-31T09:56:48Z</time>
      </trkpt>
      <trkpt lat="44.06421" lon="3.14143">
        <ele>809.3</ele>
        <time>2019-05-31T09:56:49Z</time>
      </trkpt>
      <trkpt lat="44.06417" lon="3.14145">
        <ele>809.4</ele>
        <time>2019-05-31T09:56:51Z</time>
      </trkpt>
      <trkpt lat="44.06412" lon="3.14147">
        <ele>809.6</ele>
        <time>2019-05-31T09:56:53Z</time>
      </trkpt>
      <trkpt lat="44.06409" lon="3.14149">
        <ele>809.7</ele>
        <time>2019-05-31T09:56:54Z</time>
      </trkpt>
      <trkpt lat="44.06406" lon="3.1415">
        <ele>809.8</ele>
        <time>2019-05-31T09:56:55Z</time>
      </trkpt>
      <trkpt lat="44.06402" lon="3.14155">
        <ele>809.9</ele>
        <time>2019-05-31T09:56:57Z</time>
      </trkpt>
      <trkpt lat="44.06399" lon="3.1416">
        <ele>809.9</ele>
        <time>2019-05-31T09:56:58Z</time>
      </trkpt>
      <trkpt lat="44.06397" lon="3.14162">
        <ele>809.8</ele>
        <time>2019-05-31T09:56:59Z</time>
      </trkpt>
      <trkpt lat="44.06394" lon="3.14163">
        <ele>809.8</ele>
        <time>2019-05-31T09:57:01Z</time>
      </trkpt>
      <trkpt lat="44.0639" lon="3.14164">
        <ele>809.8</ele>
        <time>2019-05-31T09:57:03Z</time>
      </trkpt>
      <trkpt lat="44.06387" lon="3.14167">
        <ele>809.8</ele>
        <time>2019-05-31T09:57:05Z</time>
      </trkpt>
      <trkpt lat="44.06384" lon="3.14173">
        <ele>809.8</ele>
        <time>2019-05-31T09:57:07Z</time>
      </trkpt>
      <trkpt lat="44.06381" lon="3.14179">
        <ele>809.8</ele>
        <time>2019-05-31T09:57:09Z</time>
      </trkpt>
      <trkpt lat="44.06379" lon="3.14183">
        <ele>809.8</ele>
        <time>2019-05-31T09:57:10Z</time>
      </trkpt>
      <trkpt lat="44.06377" lon="3.14185">
        <ele>809.8</ele>
        <time>2019-05-31T09:57:11Z</time>
      </trkpt>
      <trkpt lat="44.06375" lon="3.14189">
        <ele>809.8</ele>
        <time>2019-05-31T09:57:12Z</time>
      </trkpt>
      <trkpt lat="44.06373" lon="3.14192">
        <ele>809.8</ele>
        <time>2019-05-31T09:57:13Z</time>
      </trkpt>
      <trkpt lat="44.06371" lon="3.14196">
        <ele>809.8</ele>
        <time>2019-05-31T09:57:14Z</time>
      </trkpt>
      <trkpt lat="44.06369" lon="3.14199">
        <ele>809.8</ele>
        <time>2019-05-31T09:57:15Z</time>
      </trkpt>
      <trkpt lat="44.06367" lon="3.14203">
        <ele>809.8</ele>
        <time>2019-05-31T09:57:16Z</time>
      </trkpt>
      <trkpt lat="44.06364" lon="3.14207">
        <ele>809.7</ele>
        <time>2019-05-31T09:57:17Z</time>
      </trkpt>
      <trkpt lat="44.06361" lon="3.1421">
        <ele>809.7</ele>
        <time>2019-05-31T09:57:18Z</time>
      </trkpt>
      <trkpt lat="44.06358" lon="3.14213">
        <ele>809.6</ele>
        <time>2019-05-31T09:57:19Z</time>
      </trkpt>
      <trkpt lat="44.06355" lon="3.14215">
        <ele>809.5</ele>
        <time>2019-05-31T09:57:20Z</time>
      </trkpt>
      <trkpt lat="44.06351" lon="3.14217">
        <ele>809.4</ele>
        <time>2019-05-31T09:57:21Z</time>
      </trkpt>
      <trkpt lat="44.06344" lon="3.14219">
        <ele>809.1</ele>
        <time>2019-05-31T09:57:22Z</time>
      </trkpt>
      <trkpt lat="44.06338" lon="3.14224">
        <ele>808.9</ele>
        <time>2019-05-31T09:57:23Z</time>
      </trkpt>
      <trkpt lat="44.06334" lon="3.1423">
        <ele>808.8</ele>
        <time>2019-05-31T09:57:24Z</time>
      </trkpt>
      <trkpt lat="44.0633" lon="3.14236">
        <ele>808.8</ele>
        <time>2019-05-31T09:57:25Z</time>
      </trkpt>
      <trkpt lat="44.06326" lon="3.1424">
        <ele>808.7</ele>
        <time>2019-05-31T09:57:26Z</time>
      </trkpt>
      <trkpt lat="44.06323" lon="3.14247">
        <ele>808.6</ele>
        <time>2019-05-31T09:57:27Z</time>
      </trkpt>
      <trkpt lat="44.06317" lon="3.14252">
        <ele>808.5</ele>
        <time>2019-05-31T09:57:28Z</time>
      </trkpt>
      <trkpt lat="44.06312" lon="3.14255">
        <ele>808.4</ele>
        <time>2019-05-31T09:57:29Z</time>
      </trkpt>
      <trkpt lat="44.06307" lon="3.14259">
        <ele>808.2</ele>
        <time>2019-05-31T09:57:30Z</time>
      </trkpt>
      <trkpt lat="44.06301" lon="3.14261">
        <ele>808</ele>
        <time>2019-05-31T09:57:31Z</time>
      </trkpt>
      <trkpt lat="44.06295" lon="3.14266">
        <ele>807.9</ele>
        <time>2019-05-31T09:57:32Z</time>
      </trkpt>
      <trkpt lat="44.06289" lon="3.1427">
        <ele>807.8</ele>
        <time>2019-05-31T09:57:33Z</time>
      </trkpt>
      <trkpt lat="44.06283" lon="3.14276">
        <ele>807.6</ele>
        <time>2019-05-31T09:57:34Z</time>
      </trkpt>
      <trkpt lat="44.06277" lon="3.14278">
        <ele>807.5</ele>
        <time>2019-05-31T09:57:35Z</time>
      </trkpt>
      <trkpt lat="44.06271" lon="3.14282">
        <ele>807.5</ele>
        <time>2019-05-31T09:57:36Z</time>
      </trkpt>
      <trkpt lat="44.06265" lon="3.14286">
        <ele>807.4</ele>
        <time>2019-05-31T09:57:37Z</time>
      </trkpt>
      <trkpt lat="44.0626" lon="3.14292">
        <ele>807.4</ele>
        <time>2019-05-31T09:57:38Z</time>
      </trkpt>
      <trkpt lat="44.06255" lon="3.14299">
        <ele>807.4</ele>
        <time>2019-05-31T09:57:39Z</time>
      </trkpt>
      <trkpt lat="44.06251" lon="3.14306">
        <ele>807.3</ele>
        <time>2019-05-31T09:57:40Z</time>
      </trkpt>
      <trkpt lat="44.06248" lon="3.1431">
        <ele>807.3</ele>
        <time>2019-05-31T09:57:41Z</time>
      </trkpt>
      <trkpt lat="44.06245" lon="3.14313">
        <ele>807.3</ele>
        <time>2019-05-31T09:57:42Z</time>
      </trkpt>
      <trkpt lat="44.06241" lon="3.14316">
        <ele>807.2</ele>
        <time>2019-05-31T09:57:43Z</time>
      </trkpt>
      <trkpt lat="44.06237" lon="3.1432">
        <ele>807.2</ele>
        <time>2019-05-31T09:57:44Z</time>
      </trkpt>
      <trkpt lat="44.06235" lon="3.14325">
        <ele>807.1</ele>
        <time>2019-05-31T09:57:45Z</time>
      </trkpt>
      <trkpt lat="44.06232" lon="3.14328">
        <ele>807.1</ele>
        <time>2019-05-31T09:57:46Z</time>
      </trkpt>
      <trkpt lat="44.06229" lon="3.1433">
        <ele>807</ele>
        <time>2019-05-31T09:57:47Z</time>
      </trkpt>
      <trkpt lat="44.06225" lon="3.14333">
        <ele>807</ele>
        <time>2019-05-31T09:57:48Z</time>
      </trkpt>
      <trkpt lat="44.0622" lon="3.14338">
        <ele>806.9</ele>
        <time>2019-05-31T09:57:49Z</time>
      </trkpt>
      <trkpt lat="44.06217" lon="3.14342">
        <ele>806.8</ele>
        <time>2019-05-31T09:57:50Z</time>
      </trkpt>
      <trkpt lat="44.06215" lon="3.14345">
        <ele>806.8</ele>
        <time>2019-05-31T09:57:51Z</time>
      </trkpt>
      <trkpt lat="44.0621" lon="3.14347">
        <ele>806.6</ele>
        <time>2019-05-31T09:57:52Z</time>
      </trkpt>
      <trkpt lat="44.06206" lon="3.14348">
        <ele>806.5</ele>
        <time>2019-05-31T09:57:53Z</time>
      </trkpt>
      <trkpt lat="44.06201" lon="3.1435">
        <ele>806.4</ele>
        <time>2019-05-31T09:57:54Z</time>
      </trkpt>
      <trkpt lat="44.06197" lon="3.14354">
        <ele>806.3</ele>
        <time>2019-05-31T09:57:55Z</time>
      </trkpt>
      <trkpt lat="44.06194" lon="3.14358">
        <ele>806.2</ele>
        <time>2019-05-31T09:57:56Z</time>
      </trkpt>
      <trkpt lat="44.06191" lon="3.14363">
        <ele>806.1</ele>
        <time>2019-05-31T09:57:57Z</time>
      </trkpt>
      <trkpt lat="44.06187" lon="3.14365">
        <ele>806</ele>
        <time>2019-05-31T09:57:58Z</time>
      </trkpt>
      <trkpt lat="44.06183" lon="3.14368">
        <ele>805.8</ele>
        <time>2019-05-31T09:57:59Z</time>
      </trkpt>
      <trkpt lat="44.06178" lon="3.14373">
        <ele>805.6</ele>
        <time>2019-05-31T09:58:00Z</time>
      </trkpt>
      <trkpt lat="44.06172" lon="3.14377">
        <ele>805.6</ele>
        <time>2019-05-31T09:58:01Z</time>
      </trkpt>
      <trkpt lat="44.06169" lon="3.14382">
        <ele>805.6</ele>
        <time>2019-05-31T09:58:02Z</time>
      </trkpt>
      <trkpt lat="44.06165" lon="3.14388">
        <ele>805.5</ele>
        <time>2019-05-31T09:58:03Z</time>
      </trkpt>
      <trkpt lat="44.06162" lon="3.14391">
        <ele>805.5</ele>
        <time>2019-05-31T09:58:04Z</time>
      </trkpt>
      <trkpt lat="44.06159" lon="3.14396">
        <ele>805.5</ele>
        <time>2019-05-31T09:58:05Z</time>
      </trkpt>
      <trkpt lat="44.06156" lon="3.14399">
        <ele>805.5</ele>
        <time>2019-05-31T09:58:06Z</time>
      </trkpt>
      <trkpt lat="44.06153" lon="3.14403">
        <ele>805.4</ele>
        <time>2019-05-31T09:58:07Z</time>
      </trkpt>
      <trkpt lat="44.06149" lon="3.14407">
        <ele>805.4</ele>
        <time>2019-05-31T09:58:08Z</time>
      </trkpt>
      <trkpt lat="44.06145" lon="3.14408">
        <ele>805.4</ele>
        <time>2019-05-31T09:58:09Z</time>
      </trkpt>
      <trkpt lat="44.06141" lon="3.14411">
        <ele>805.4</ele>
        <time>2019-05-31T09:58:10Z</time>
      </trkpt>
      <trkpt lat="44.06136" lon="3.14415">
        <ele>805.4</ele>
        <time>2019-05-31T09:58:11Z</time>
      </trkpt>
      <trkpt lat="44.06132" lon="3.14421">
        <ele>805.3</ele>
        <time>2019-05-31T09:58:12Z</time>
      </trkpt>
      <trkpt lat="44.06128" lon="3.14426">
        <ele>805.3</ele>
        <time>2019-05-31T09:58:13Z</time>
      </trkpt>
      <trkpt lat="44.06123" lon="3.14429">
        <ele>805.3</ele>
        <time>2019-05-31T09:58:14Z</time>
      </trkpt>
      <trkpt lat="44.06119" lon="3.14434">
        <ele>805.2</ele>
        <time>2019-05-31T09:58:15Z</time>
      </trkpt>
      <trkpt lat="44.06114" lon="3.1444">
        <ele>805.1</ele>
        <time>2019-05-31T09:58:16Z</time>
      </trkpt>
      <trkpt lat="44.06111" lon="3.14445">
        <ele>805</ele>
        <time>2019-05-31T09:58:17Z</time>
      </trkpt>
      <trkpt lat="44.06108" lon="3.14452">
        <ele>804.8</ele>
        <time>2019-05-31T09:58:18Z</time>
      </trkpt>
      <trkpt lat="44.06103" lon="3.14458">
        <ele>804.7</ele>
        <time>2019-05-31T09:58:19Z</time>
      </trkpt>
      <trkpt lat="44.06098" lon="3.14462">
        <ele>804.5</ele>
        <time>2019-05-31T09:58:20Z</time>
      </trkpt>
      <trkpt lat="44.06092" lon="3.14463">
        <ele>804.3</ele>
        <time>2019-05-31T09:58:21Z</time>
      </trkpt>
      <trkpt lat="44.06087" lon="3.14466">
        <ele>804.1</ele>
        <time>2019-05-31T09:58:22Z</time>
      </trkpt>
      <trkpt lat="44.06083" lon="3.14472">
        <ele>804</ele>
        <time>2019-05-31T09:58:23Z</time>
      </trkpt>
      <trkpt lat="44.06079" lon="3.14477">
        <ele>803.9</ele>
        <time>2019-05-31T09:58:24Z</time>
      </trkpt>
      <trkpt lat="44.06076" lon="3.14485">
        <ele>803.9</ele>
        <time>2019-05-31T09:58:25Z</time>
      </trkpt>
      <trkpt lat="44.06076" lon="3.14491">
        <ele>803.8</ele>
        <time>2019-05-31T09:58:26Z</time>
      </trkpt>
      <trkpt lat="44.06074" lon="3.14495">
        <ele>803.7</ele>
        <time>2019-05-31T09:58:27Z</time>
      </trkpt>
      <trkpt lat="44.0607" lon="3.14499">
        <ele>803.7</ele>
        <time>2019-05-31T09:58:29Z</time>
      </trkpt>
      <trkpt lat="44.06068" lon="3.14504">
        <ele>803.6</ele>
        <time>2019-05-31T09:58:30Z</time>
      </trkpt>
      <trkpt lat="44.06065" lon="3.14509">
        <ele>803.5</ele>
        <time>2019-05-31T09:58:31Z</time>
      </trkpt>
      <trkpt lat="44.06061" lon="3.14512">
        <ele>803.4</ele>
        <time>2019-05-31T09:58:32Z</time>
      </trkpt>
      <trkpt lat="44.06057" lon="3.14519">
        <ele>803.3</ele>
        <time>2019-05-31T09:58:33Z</time>
      </trkpt>
      <trkpt lat="44.06053" lon="3.14525">
        <ele>803.1</ele>
        <time>2019-05-31T09:58:34Z</time>
      </trkpt>
      <trkpt lat="44.0605" lon="3.14529">
        <ele>803</ele>
        <time>2019-05-31T09:58:35Z</time>
      </trkpt>
      <trkpt lat="44.06047" lon="3.14532">
        <ele>803</ele>
        <time>2019-05-31T09:58:36Z</time>
      </trkpt>
      <trkpt lat="44.06045" lon="3.14536">
        <ele>803</ele>
        <time>2019-05-31T09:58:37Z</time>
      </trkpt>
      <trkpt lat="44.06042" lon="3.14541">
        <ele>802.8</ele>
        <time>2019-05-31T09:58:38Z</time>
      </trkpt>
      <trkpt lat="44.0604" lon="3.14546">
        <ele>802.7</ele>
        <time>2019-05-31T09:58:39Z</time>
      </trkpt>
      <trkpt lat="44.06039" lon="3.14552">
        <ele>802.6</ele>
        <time>2019-05-31T09:58:40Z</time>
      </trkpt>
      <trkpt lat="44.06037" lon="3.14555">
        <ele>802.5</ele>
        <time>2019-05-31T09:58:41Z</time>
      </trkpt>
      <trkpt lat="44.06033" lon="3.14559">
        <ele>802.2</ele>
        <time>2019-05-31T09:58:42Z</time>
      </trkpt>
      <trkpt lat="44.0603" lon="3.14562">
        <ele>802</ele>
        <time>2019-05-31T09:58:43Z</time>
      </trkpt>
      <trkpt lat="44.06028" lon="3.14565">
        <ele>802</ele>
        <time>2019-05-31T09:58:44Z</time>
      </trkpt>
      <trkpt lat="44.06025" lon="3.14569">
        <ele>801.9</ele>
        <time>2019-05-31T09:58:45Z</time>
      </trkpt>
      <trkpt lat="44.06022" lon="3.14573">
        <ele>801.9</ele>
        <time>2019-05-31T09:58:46Z</time>
      </trkpt>
      <trkpt lat="44.06019" lon="3.14576">
        <ele>801.8</ele>
        <time>2019-05-31T09:58:47Z</time>
      </trkpt>
      <trkpt lat="44.06016" lon="3.14579">
        <ele>801.8</ele>
        <time>2019-05-31T09:58:48Z</time>
      </trkpt>
      <trkpt lat="44.06013" lon="3.14582">
        <ele>801.8</ele>
        <time>2019-05-31T09:58:49Z</time>
      </trkpt>
      <trkpt lat="44.06009" lon="3.14585">
        <ele>801.8</ele>
        <time>2019-05-31T09:58:50Z</time>
      </trkpt>
      <trkpt lat="44.06006" lon="3.14587">
        <ele>801.7</ele>
        <time>2019-05-31T09:58:51Z</time>
      </trkpt>
      <trkpt lat="44.06003" lon="3.1459">
        <ele>801.7</ele>
        <time>2019-05-31T09:58:52Z</time>
      </trkpt>
      <trkpt lat="44.06" lon="3.14593">
        <ele>801.8</ele>
        <time>2019-05-31T09:58:53Z</time>
      </trkpt>
      <trkpt lat="44.05997" lon="3.14595">
        <ele>801.8</ele>
        <time>2019-05-31T09:58:54Z</time>
      </trkpt>
      <trkpt lat="44.05994" lon="3.14598">
        <ele>801.8</ele>
        <time>2019-05-31T09:58:55Z</time>
      </trkpt>
      <trkpt lat="44.05991" lon="3.14601">
        <ele>801.8</ele>
        <time>2019-05-31T09:58:56Z</time>
      </trkpt>
      <trkpt lat="44.05988" lon="3.14604">
        <ele>801.9</ele>
        <time>2019-05-31T09:58:57Z</time>
      </trkpt>
      <trkpt lat="44.05984" lon="3.14606">
        <ele>801.9</ele>
        <time>2019-05-31T09:58:58Z</time>
      </trkpt>
      <trkpt lat="44.05981" lon="3.14609">
        <ele>801.9</ele>
        <time>2019-05-31T09:58:59Z</time>
      </trkpt>
      <trkpt lat="44.05978" lon="3.14611">
        <ele>802</ele>
        <time>2019-05-31T09:59:00Z</time>
      </trkpt>
      <trkpt lat="44.05974" lon="3.14614">
        <ele>802.1</ele>
        <time>2019-05-31T09:59:01Z</time>
      </trkpt>
      <trkpt lat="44.05971" lon="3.14617">
        <ele>802.1</ele>
        <time>2019-05-31T09:59:02Z</time>
      </trkpt>
      <trkpt lat="44.05967" lon="3.1462">
        <ele>802.1</ele>
        <time>2019-05-31T09:59:03Z</time>
      </trkpt>
      <trkpt lat="44.05964" lon="3.14623">
        <ele>802.2</ele>
        <time>2019-05-31T09:59:04Z</time>
      </trkpt>
      <trkpt lat="44.05961" lon="3.14626">
        <ele>802.2</ele>
        <time>2019-05-31T09:59:05Z</time>
      </trkpt>
      <trkpt lat="44.05957" lon="3.14627">
        <ele>802.4</ele>
        <time>2019-05-31T09:59:06Z</time>
      </trkpt>
      <trkpt lat="44.05953" lon="3.14627">
        <ele>802.5</ele>
        <time>2019-05-31T09:59:07Z</time>
      </trkpt>
      <trkpt lat="44.0595" lon="3.14627">
        <ele>802.6</ele>
        <time>2019-05-31T09:59:08Z</time>
      </trkpt>
      <trkpt lat="44.05946" lon="3.14627">
        <ele>802.6</ele>
        <time>2019-05-31T09:59:09Z</time>
      </trkpt>
      <trkpt lat="44.05942" lon="3.14628">
        <ele>802.7</ele>
        <time>2019-05-31T09:59:10Z</time>
      </trkpt>
      <trkpt lat="44.05939" lon="3.14629">
        <ele>802.8</ele>
        <time>2019-05-31T09:59:11Z</time>
      </trkpt>
      <trkpt lat="44.05935" lon="3.14631">
        <ele>802.9</ele>
        <time>2019-05-31T09:59:12Z</time>
      </trkpt>
      <trkpt lat="44.05933" lon="3.14634">
        <ele>803.1</ele>
        <time>2019-05-31T09:59:13Z</time>
      </trkpt>
      <trkpt lat="44.0593" lon="3.14637">
        <ele>803.3</ele>
        <time>2019-05-31T09:59:14Z</time>
      </trkpt>
      <trkpt lat="44.05927" lon="3.1464">
        <ele>803.4</ele>
        <time>2019-05-31T09:59:15Z</time>
      </trkpt>
      <trkpt lat="44.05924" lon="3.14643">
        <ele>803.6</ele>
        <time>2019-05-31T09:59:16Z</time>
      </trkpt>
      <trkpt lat="44.05921" lon="3.14646">
        <ele>803.8</ele>
        <time>2019-05-31T09:59:17Z</time>
      </trkpt>
      <trkpt lat="44.05919" lon="3.1465">
        <ele>804</ele>
        <time>2019-05-31T09:59:18Z</time>
      </trkpt>
      <trkpt lat="44.05918" lon="3.14654">
        <ele>804.3</ele>
        <time>2019-05-31T09:59:19Z</time>
      </trkpt>
      <trkpt lat="44.05916" lon="3.14659">
        <ele>804.4</ele>
        <time>2019-05-31T09:59:20Z</time>
      </trkpt>
      <trkpt lat="44.05915" lon="3.14664">
        <ele>804.6</ele>
        <time>2019-05-31T09:59:21Z</time>
      </trkpt>
      <trkpt lat="44.05914" lon="3.14668">
        <ele>804.8</ele>
        <time>2019-05-31T09:59:22Z</time>
      </trkpt>
      <trkpt lat="44.05913" lon="3.14673">
        <ele>804.9</ele>
        <time>2019-05-31T09:59:23Z</time>
      </trkpt>
      <trkpt lat="44.05911" lon="3.14678">
        <ele>805.1</ele>
        <time>2019-05-31T09:59:24Z</time>
      </trkpt>
      <trkpt lat="44.05909" lon="3.14682">
        <ele>805.3</ele>
        <time>2019-05-31T09:59:25Z</time>
      </trkpt>
      <trkpt lat="44.05907" lon="3.14688">
        <ele>805.4</ele>
        <time>2019-05-31T09:59:26Z</time>
      </trkpt>
      <trkpt lat="44.05906" lon="3.14694">
        <ele>805.6</ele>
        <time>2019-05-31T09:59:27Z</time>
      </trkpt>
      <trkpt lat="44.05905" lon="3.14699">
        <ele>805.8</ele>
        <time>2019-05-31T09:59:28Z</time>
      </trkpt>
      <trkpt lat="44.05903" lon="3.14707">
        <ele>806.1</ele>
        <time>2019-05-31T09:59:29Z</time>
      </trkpt>
      <trkpt lat="44.05902" lon="3.14713">
        <ele>806.2</ele>
        <time>2019-05-31T09:59:30Z</time>
      </trkpt>
      <trkpt lat="44.059" lon="3.14719">
        <ele>806.4</ele>
        <time>2019-05-31T09:59:31Z</time>
      </trkpt>
      <trkpt lat="44.05899" lon="3.14725">
        <ele>806.6</ele>
        <time>2019-05-31T09:59:32Z</time>
      </trkpt>
      <trkpt lat="44.05898" lon="3.14731">
        <ele>806.8</ele>
        <time>2019-05-31T09:59:33Z</time>
      </trkpt>
      <trkpt lat="44.05898" lon="3.14737">
        <ele>807</ele>
        <time>2019-05-31T09:59:34Z</time>
      </trkpt>
      <trkpt lat="44.05897" lon="3.14743">
        <ele>807.3</ele>
        <time>2019-05-31T09:59:35Z</time>
      </trkpt>
      <trkpt lat="44.05896" lon="3.14748">
        <ele>807.4</ele>
        <time>2019-05-31T09:59:36Z</time>
      </trkpt>
      <trkpt lat="44.05895" lon="3.14755">
        <ele>807.7</ele>
        <time>2019-05-31T09:59:37Z</time>
      </trkpt>
      <trkpt lat="44.05894" lon="3.1476">
        <ele>807.8</ele>
        <time>2019-05-31T09:59:38Z</time>
      </trkpt>
      <trkpt lat="44.05894" lon="3.14767">
        <ele>807.8</ele>
        <time>2019-05-31T09:59:39Z</time>
      </trkpt>
      <trkpt lat="44.05894" lon="3.14775">
        <ele>807.9</ele>
        <time>2019-05-31T09:59:40Z</time>
      </trkpt>
      <trkpt lat="44.05893" lon="3.1478">
        <ele>807.9</ele>
        <time>2019-05-31T09:59:41Z</time>
      </trkpt>
      <trkpt lat="44.0589" lon="3.14783">
        <ele>808</ele>
        <time>2019-05-31T09:59:42Z</time>
      </trkpt>
      <trkpt lat="44.05888" lon="3.14787">
        <ele>808.2</ele>
        <time>2019-05-31T09:59:43Z</time>
      </trkpt>
      <trkpt lat="44.05884" lon="3.14791">
        <ele>808.4</ele>
        <time>2019-05-31T09:59:45Z</time>
      </trkpt>
      <trkpt lat="44.0588" lon="3.14794">
        <ele>808.5</ele>
        <time>2019-05-31T09:59:47Z</time>
      </trkpt>
      <trkpt lat="44.05878" lon="3.14796">
        <ele>808.6</ele>
        <time>2019-05-31T10:00:04Z</time>
      </trkpt>
      <trkpt lat="44.05874" lon="3.148">
        <ele>808.7</ele>
        <time>2019-05-31T10:00:06Z</time>
      </trkpt>
      <trkpt lat="44.05871" lon="3.14803">
        <ele>808.8</ele>
        <time>2019-05-31T10:00:07Z</time>
      </trkpt>
      <trkpt lat="44.05869" lon="3.14805">
        <ele>808.9</ele>
        <time>2019-05-31T10:00:08Z</time>
      </trkpt>
      <trkpt lat="44.05866" lon="3.14808">
        <ele>808.9</ele>
        <time>2019-05-31T10:00:09Z</time>
      </trkpt>
      <trkpt lat="44.05863" lon="3.1481">
        <ele>809</ele>
        <time>2019-05-31T10:00:10Z</time>
      </trkpt>
      <trkpt lat="44.0586" lon="3.14812">
        <ele>809.1</ele>
        <time>2019-05-31T10:00:11Z</time>
      </trkpt>
      <trkpt lat="44.05857" lon="3.14814">
        <ele>809.1</ele>
        <time>2019-05-31T10:00:12Z</time>
      </trkpt>
      <trkpt lat="44.05855" lon="3.14816">
        <ele>809.3</ele>
        <time>2019-05-31T10:00:13Z</time>
      </trkpt>
      <trkpt lat="44.05851" lon="3.14819">
        <ele>809.4</ele>
        <time>2019-05-31T10:00:14Z</time>
      </trkpt>
      <trkpt lat="44.05848" lon="3.14822">
        <ele>809.5</ele>
        <time>2019-05-31T10:00:15Z</time>
      </trkpt>
      <trkpt lat="44.05843" lon="3.14824">
        <ele>809.6</ele>
        <time>2019-05-31T10:00:16Z</time>
      </trkpt>
      <trkpt lat="44.05839" lon="3.14826">
        <ele>809.7</ele>
        <time>2019-05-31T10:00:17Z</time>
      </trkpt>
      <trkpt lat="44.05835" lon="3.1483">
        <ele>809.9</ele>
        <time>2019-05-31T10:00:18Z</time>
      </trkpt>
      <trkpt lat="44.05832" lon="3.14833">
        <ele>809.9</ele>
        <time>2019-05-31T10:00:19Z</time>
      </trkpt>
      <trkpt lat="44.05828" lon="3.14837">
        <ele>809.9</ele>
        <time>2019-05-31T10:00:20Z</time>
      </trkpt>
      <trkpt lat="44.05825" lon="3.14843">
        <ele>809.8</ele>
        <time>2019-05-31T10:00:21Z</time>
      </trkpt>
      <trkpt lat="44.05822" lon="3.14849">
        <ele>809.7</ele>
        <time>2019-05-31T10:00:22Z</time>
      </trkpt>
      <trkpt lat="44.05818" lon="3.14855">
        <ele>809.5</ele>
        <time>2019-05-31T10:00:23Z</time>
      </trkpt>
      <trkpt lat="44.05815" lon="3.1486">
        <ele>809.5</ele>
        <time>2019-05-31T10:00:24Z</time>
      </trkpt>
      <trkpt lat="44.0581" lon="3.14863">
        <ele>809.3</ele>
        <time>2019-05-31T10:00:25Z</time>
      </trkpt>
      <trkpt lat="44.05805" lon="3.14867">
        <ele>809.2</ele>
        <time>2019-05-31T10:00:26Z</time>
      </trkpt>
      <trkpt lat="44.05801" lon="3.14872">
        <ele>809</ele>
        <time>2019-05-31T10:00:27Z</time>
      </trkpt>
      <trkpt lat="44.05797" lon="3.14878">
        <ele>808.8</ele>
        <time>2019-05-31T10:00:28Z</time>
      </trkpt>
      <trkpt lat="44.05793" lon="3.14884">
        <ele>808.6</ele>
        <time>2019-05-31T10:00:29Z</time>
      </trkpt>
      <trkpt lat="44.05788" lon="3.1489">
        <ele>808.4</ele>
        <time>2019-05-31T10:00:30Z</time>
      </trkpt>
      <trkpt lat="44.05785" lon="3.14898">
        <ele>808</ele>
        <time>2019-05-31T10:00:31Z</time>
      </trkpt>
      <trkpt lat="44.05781" lon="3.14907">
        <ele>807.7</ele>
        <time>2019-05-31T10:00:32Z</time>
      </trkpt>
      <trkpt lat="44.05778" lon="3.14913">
        <ele>807.5</ele>
        <time>2019-05-31T10:00:33Z</time>
      </trkpt>
      <trkpt lat="44.05775" lon="3.14919">
        <ele>807.3</ele>
        <time>2019-05-31T10:00:34Z</time>
      </trkpt>
      <trkpt lat="44.05772" lon="3.14926">
        <ele>807.1</ele>
        <time>2019-05-31T10:00:35Z</time>
      </trkpt>
      <trkpt lat="44.05769" lon="3.14933">
        <ele>806.8</ele>
        <time>2019-05-31T10:00:36Z</time>
      </trkpt>
      <trkpt lat="44.05767" lon="3.14941">
        <ele>806.6</ele>
        <time>2019-05-31T10:00:37Z</time>
      </trkpt>
      <trkpt lat="44.05764" lon="3.14951">
        <ele>806.4</ele>
        <time>2019-05-31T10:00:38Z</time>
      </trkpt>
      <trkpt lat="44.05763" lon="3.14958">
        <ele>806.3</ele>
        <time>2019-05-31T10:00:39Z</time>
      </trkpt>
      <trkpt lat="44.05761" lon="3.14964">
        <ele>806.2</ele>
        <time>2019-05-31T10:00:40Z</time>
      </trkpt>
      <trkpt lat="44.05758" lon="3.14969">
        <ele>806.1</ele>
        <time>2019-05-31T10:00:41Z</time>
      </trkpt>
      <trkpt lat="44.05757" lon="3.14975">
        <ele>806.1</ele>
        <time>2019-05-31T10:00:42Z</time>
      </trkpt>
      <trkpt lat="44.05755" lon="3.14983">
        <ele>806.2</ele>
        <time>2019-05-31T10:00:43Z</time>
      </trkpt>
      <trkpt lat="44.05753" lon="3.14989">
        <ele>806.2</ele>
        <time>2019-05-31T10:00:44Z</time>
      </trkpt>
      <trkpt lat="44.05751" lon="3.14994">
        <ele>806.3</ele>
        <time>2019-05-31T10:00:45Z</time>
      </trkpt>
      <trkpt lat="44.05748" lon="3.15001">
        <ele>806.4</ele>
        <time>2019-05-31T10:00:46Z</time>
      </trkpt>
      <trkpt lat="44.05744" lon="3.15005">
        <ele>806.4</ele>
        <time>2019-05-31T10:00:47Z</time>
      </trkpt>
      <trkpt lat="44.05742" lon="3.1501">
        <ele>806.5</ele>
        <time>2019-05-31T10:00:48Z</time>
      </trkpt>
      <trkpt lat="44.0574" lon="3.15013">
        <ele>806.5</ele>
        <time>2019-05-31T10:00:49Z</time>
      </trkpt>
      <trkpt lat="44.05737" lon="3.15015">
        <ele>806.6</ele>
        <time>2019-05-31T10:00:50Z</time>
      </trkpt>
      <trkpt lat="44.05733" lon="3.15018">
        <ele>806.7</ele>
        <time>2019-05-31T10:00:52Z</time>
      </trkpt>
      <trkpt lat="44.05728" lon="3.1502">
        <ele>806.8</ele>
        <time>2019-05-31T10:00:54Z</time>
      </trkpt>
      <trkpt lat="44.05723" lon="3.1502">
        <ele>806.9</ele>
        <time>2019-05-31T10:00:56Z</time>
      </trkpt>
      <trkpt lat="44.05718" lon="3.15021">
        <ele>807</ele>
        <time>2019-05-31T10:00:57Z</time>
      </trkpt>
      <trkpt lat="44.05714" lon="3.15024">
        <ele>807.1</ele>
        <time>2019-05-31T10:00:58Z</time>
      </trkpt>
      <trkpt lat="44.05711" lon="3.15026">
        <ele>807.2</ele>
        <time>2019-05-31T10:00:59Z</time>
      </trkpt>
      <trkpt lat="44.05708" lon="3.15029">
        <ele>807.3</ele>
        <time>2019-05-31T10:01:00Z</time>
      </trkpt>
      <trkpt lat="44.05704" lon="3.1503">
        <ele>807.4</ele>
        <time>2019-05-31T10:01:01Z</time>
      </trkpt>
      <trkpt lat="44.05701" lon="3.15032">
        <ele>807.5</ele>
        <time>2019-05-31T10:01:02Z</time>
      </trkpt>
      <trkpt lat="44.05698" lon="3.15034">
        <ele>807.5</ele>
        <time>2019-05-31T10:01:03Z</time>
      </trkpt>
      <trkpt lat="44.05694" lon="3.15036">
        <ele>807.6</ele>
        <time>2019-05-31T10:01:04Z</time>
      </trkpt>
      <trkpt lat="44.05691" lon="3.15038">
        <ele>807.7</ele>
        <time>2019-05-31T10:01:05Z</time>
      </trkpt>
      <trkpt lat="44.05688" lon="3.15039">
        <ele>807.8</ele>
        <time>2019-05-31T10:01:06Z</time>
      </trkpt>
      <trkpt lat="44.05685" lon="3.1504">
        <ele>807.9</ele>
        <time>2019-05-31T10:01:07Z</time>
      </trkpt>
      <trkpt lat="44.05682" lon="3.15041">
        <ele>808</ele>
        <time>2019-05-31T10:01:08Z</time>
      </trkpt>
      <trkpt lat="44.0568" lon="3.15041">
        <ele>808.1</ele>
        <time>2019-05-31T10:01:09Z</time>
      </trkpt>
      <trkpt lat="44.05675" lon="3.15044">
        <ele>808.2</ele>
        <time>2019-05-31T10:01:11Z</time>
      </trkpt>
      <trkpt lat="44.05672" lon="3.15046">
        <ele>808.3</ele>
        <time>2019-05-31T10:01:12Z</time>
      </trkpt>
      <trkpt lat="44.05669" lon="3.15048">
        <ele>808.4</ele>
        <time>2019-05-31T10:01:13Z</time>
      </trkpt>
      <trkpt lat="44.05666" lon="3.1505">
        <ele>808.5</ele>
        <time>2019-05-31T10:01:14Z</time>
      </trkpt>
      <trkpt lat="44.05663" lon="3.15052">
        <ele>808.6</ele>
        <time>2019-05-31T10:01:15Z</time>
      </trkpt>
      <trkpt lat="44.05659" lon="3.15054">
        <ele>808.8</ele>
        <time>2019-05-31T10:01:16Z</time>
      </trkpt>
      <trkpt lat="44.05656" lon="3.15056">
        <ele>808.9</ele>
        <time>2019-05-31T10:01:17Z</time>
      </trkpt>
      <trkpt lat="44.05652" lon="3.15057">
        <ele>809</ele>
        <time>2019-05-31T10:01:18Z</time>
      </trkpt>
      <trkpt lat="44.05649" lon="3.15059">
        <ele>809.2</ele>
        <time>2019-05-31T10:01:19Z</time>
      </trkpt>
      <trkpt lat="44.05646" lon="3.1506">
        <ele>809.3</ele>
        <time>2019-05-31T10:01:20Z</time>
      </trkpt>
      <trkpt lat="44.05642" lon="3.15061">
        <ele>809.4</ele>
        <time>2019-05-31T10:01:21Z</time>
      </trkpt>
      <trkpt lat="44.05639" lon="3.15064">
        <ele>809.6</ele>
        <time>2019-05-31T10:01:22Z</time>
      </trkpt>
      <trkpt lat="44.05636" lon="3.15066">
        <ele>809.7</ele>
        <time>2019-05-31T10:01:23Z</time>
      </trkpt>
      <trkpt lat="44.05632" lon="3.1507">
        <ele>809.9</ele>
        <time>2019-05-31T10:01:24Z</time>
      </trkpt>
      <trkpt lat="44.0563" lon="3.15073">
        <ele>810.1</ele>
        <time>2019-05-31T10:01:25Z</time>
      </trkpt>
      <trkpt lat="44.05626" lon="3.15077">
        <ele>810.3</ele>
        <time>2019-05-31T10:01:26Z</time>
      </trkpt>
      <trkpt lat="44.05624" lon="3.1508">
        <ele>810.4</ele>
        <time>2019-05-31T10:01:27Z</time>
      </trkpt>
      <trkpt lat="44.05619" lon="3.15082">
        <ele>810.6</ele>
        <time>2019-05-31T10:01:28Z</time>
      </trkpt>
      <trkpt lat="44.05617" lon="3.15085">
        <ele>810.8</ele>
        <time>2019-05-31T10:01:29Z</time>
      </trkpt>
      <trkpt lat="44.05615" lon="3.15088">
        <ele>810.9</ele>
        <time>2019-05-31T10:01:30Z</time>
      </trkpt>
      <trkpt lat="44.05611" lon="3.15089">
        <ele>811</ele>
        <time>2019-05-31T10:01:31Z</time>
      </trkpt>
      <trkpt lat="44.05609" lon="3.15092">
        <ele>811.2</ele>
        <time>2019-05-31T10:01:32Z</time>
      </trkpt>
      <trkpt lat="44.05605" lon="3.15096">
        <ele>811.4</ele>
        <time>2019-05-31T10:01:33Z</time>
      </trkpt>
      <trkpt lat="44.05602" lon="3.15098">
        <ele>811.5</ele>
        <time>2019-05-31T10:01:34Z</time>
      </trkpt>
      <trkpt lat="44.05599" lon="3.151">
        <ele>811.8</ele>
        <time>2019-05-31T10:01:35Z</time>
      </trkpt>
      <trkpt lat="44.05595" lon="3.15102">
        <ele>811.9</ele>
        <time>2019-05-31T10:01:36Z</time>
      </trkpt>
      <trkpt lat="44.05593" lon="3.15103">
        <ele>812.1</ele>
        <time>2019-05-31T10:01:37Z</time>
      </trkpt>
      <trkpt lat="44.0559" lon="3.15106">
        <ele>812.2</ele>
        <time>2019-05-31T10:01:38Z</time>
      </trkpt>
      <trkpt lat="44.05588" lon="3.15109">
        <ele>812.3</ele>
        <time>2019-05-31T10:01:39Z</time>
      </trkpt>
      <trkpt lat="44.05586" lon="3.15112">
        <ele>812.4</ele>
        <time>2019-05-31T10:01:40Z</time>
      </trkpt>
      <trkpt lat="44.05584" lon="3.15116">
        <ele>812.6</ele>
        <time>2019-05-31T10:01:41Z</time>
      </trkpt>
      <trkpt lat="44.05582" lon="3.15119">
        <ele>812.8</ele>
        <time>2019-05-31T10:01:42Z</time>
      </trkpt>
      <trkpt lat="44.0558" lon="3.15123">
        <ele>813</ele>
        <time>2019-05-31T10:01:43Z</time>
      </trkpt>
      <trkpt lat="44.05579" lon="3.15127">
        <ele>813.2</ele>
        <time>2019-05-31T10:01:44Z</time>
      </trkpt>
      <trkpt lat="44.05576" lon="3.1513">
        <ele>813.4</ele>
        <time>2019-05-31T10:01:45Z</time>
      </trkpt>
      <trkpt lat="44.05574" lon="3.15134">
        <ele>813.5</ele>
        <time>2019-05-31T10:01:46Z</time>
      </trkpt>
      <trkpt lat="44.05572" lon="3.15138">
        <ele>813.7</ele>
        <time>2019-05-31T10:01:47Z</time>
      </trkpt>
      <trkpt lat="44.05569" lon="3.15141">
        <ele>813.8</ele>
        <time>2019-05-31T10:01:48Z</time>
      </trkpt>
      <trkpt lat="44.05565" lon="3.15146">
        <ele>814.2</ele>
        <time>2019-05-31T10:01:50Z</time>
      </trkpt>
      <trkpt lat="44.05563" lon="3.1515">
        <ele>814.4</ele>
        <time>2019-05-31T10:01:51Z</time>
      </trkpt>
      <trkpt lat="44.05561" lon="3.15154">
        <ele>814.6</ele>
        <time>2019-05-31T10:01:52Z</time>
      </trkpt>
      <trkpt lat="44.05559" lon="3.15159">
        <ele>814.7</ele>
        <time>2019-05-31T10:01:53Z</time>
      </trkpt>
      <trkpt lat="44.05557" lon="3.15164">
        <ele>814.8</ele>
        <time>2019-05-31T10:01:54Z</time>
      </trkpt>
      <trkpt lat="44.05555" lon="3.15168">
        <ele>815.1</ele>
        <time>2019-05-31T10:01:55Z</time>
      </trkpt>
      <trkpt lat="44.05553" lon="3.15172">
        <ele>815.3</ele>
        <time>2019-05-31T10:01:56Z</time>
      </trkpt>
      <trkpt lat="44.05551" lon="3.15176">
        <ele>815.5</ele>
        <time>2019-05-31T10:01:57Z</time>
      </trkpt>
      <trkpt lat="44.05547" lon="3.1518">
        <ele>815.8</ele>
        <time>2019-05-31T10:01:58Z</time>
      </trkpt>
      <trkpt lat="44.05544" lon="3.15184">
        <ele>816</ele>
        <time>2019-05-31T10:01:59Z</time>
      </trkpt>
      <trkpt lat="44.05541" lon="3.15189">
        <ele>816.3</ele>
        <time>2019-05-31T10:02:00Z</time>
      </trkpt>
      <trkpt lat="44.05539" lon="3.15192">
        <ele>816.4</ele>
        <time>2019-05-31T10:02:01Z</time>
      </trkpt>
      <trkpt lat="44.05535" lon="3.15195">
        <ele>816.7</ele>
        <time>2019-05-31T10:02:02Z</time>
      </trkpt>
      <trkpt lat="44.05533" lon="3.15197">
        <ele>816.8</ele>
        <time>2019-05-31T10:02:03Z</time>
      </trkpt>
      <trkpt lat="44.05529" lon="3.152">
        <ele>817.1</ele>
        <time>2019-05-31T10:02:04Z</time>
      </trkpt>
      <trkpt lat="44.05523" lon="3.15205">
        <ele>817.5</ele>
        <time>2019-05-31T10:02:06Z</time>
      </trkpt>
      <trkpt lat="44.05518" lon="3.15207">
        <ele>817.8</ele>
        <time>2019-05-31T10:02:08Z</time>
      </trkpt>
      <trkpt lat="44.05513" lon="3.1521">
        <ele>818.1</ele>
        <time>2019-05-31T10:02:10Z</time>
      </trkpt>
      <trkpt lat="44.0551" lon="3.15211">
        <ele>818.3</ele>
        <time>2019-05-31T10:02:11Z</time>
      </trkpt>
      <trkpt lat="44.05508" lon="3.1521">
        <ele>818.4</ele>
        <time>2019-05-31T10:02:12Z</time>
      </trkpt>
      <trkpt lat="44.05505" lon="3.15212">
        <ele>818.6</ele>
        <time>2019-05-31T10:02:13Z</time>
      </trkpt>
      <trkpt lat="44.05502" lon="3.15215">
        <ele>818.7</ele>
        <time>2019-05-31T10:02:14Z</time>
      </trkpt>
      <trkpt lat="44.05499" lon="3.15218">
        <ele>818.8</ele>
        <time>2019-05-31T10:02:15Z</time>
      </trkpt>
      <trkpt lat="44.05497" lon="3.15221">
        <ele>818.8</ele>
        <time>2019-05-31T10:02:16Z</time>
      </trkpt>
      <trkpt lat="44.05494" lon="3.15225">
        <ele>818.9</ele>
        <time>2019-05-31T10:02:17Z</time>
      </trkpt>
      <trkpt lat="44.05492" lon="3.15229">
        <ele>818.9</ele>
        <time>2019-05-31T10:02:18Z</time>
      </trkpt>
      <trkpt lat="44.05489" lon="3.15233">
        <ele>818.9</ele>
        <time>2019-05-31T10:02:19Z</time>
      </trkpt>
      <trkpt lat="44.05487" lon="3.15236">
        <ele>819</ele>
        <time>2019-05-31T10:02:20Z</time>
      </trkpt>
      <trkpt lat="44.05485" lon="3.1524">
        <ele>819</ele>
        <time>2019-05-31T10:02:21Z</time>
      </trkpt>
      <trkpt lat="44.05481" lon="3.15244">
        <ele>819.1</ele>
        <time>2019-05-31T10:02:23Z</time>
      </trkpt>
      <trkpt lat="44.05476" lon="3.15245">
        <ele>819.1</ele>
        <time>2019-05-31T10:02:25Z</time>
      </trkpt>
      <trkpt lat="44.05471" lon="3.15247">
        <ele>819.2</ele>
        <time>2019-05-31T10:02:27Z</time>
      </trkpt>
      <trkpt lat="44.05469" lon="3.15251">
        <ele>819.2</ele>
        <time>2019-05-31T10:02:29Z</time>
      </trkpt>
      <trkpt lat="44.0547" lon="3.15257">
        <ele>819.3</ele>
        <time>2019-05-31T10:02:31Z</time>
      </trkpt>
      <trkpt lat="44.05471" lon="3.15261">
        <ele>819.4</ele>
        <time>2019-05-31T10:02:33Z</time>
      </trkpt>
      <trkpt lat="44.05471" lon="3.15265">
        <ele>819.5</ele>
        <time>2019-05-31T10:02:35Z</time>
      </trkpt>
      <trkpt lat="44.05471" lon="3.15269">
        <ele>819.6</ele>
        <time>2019-05-31T10:02:37Z</time>
      </trkpt>
      <trkpt lat="44.05471" lon="3.15274">
        <ele>819.7</ele>
        <time>2019-05-31T10:02:39Z</time>
      </trkpt>
      <trkpt lat="44.0547" lon="3.15278">
        <ele>819.8</ele>
        <time>2019-05-31T10:02:41Z</time>
      </trkpt>
      <trkpt lat="44.0547" lon="3.15283">
        <ele>819.9</ele>
        <time>2019-05-31T10:02:43Z</time>
      </trkpt>
      <trkpt lat="44.0547" lon="3.15287">
        <ele>820</ele>
        <time>2019-05-31T10:02:45Z</time>
      </trkpt>
      <trkpt lat="44.0547" lon="3.15291">
        <ele>820.2</ele>
        <time>2019-05-31T10:02:47Z</time>
      </trkpt>
      <trkpt lat="44.0547" lon="3.15295">
        <ele>820.3</ele>
        <time>2019-05-31T10:02:49Z</time>
      </trkpt>
      <trkpt lat="44.05469" lon="3.153">
        <ele>820.5</ele>
        <time>2019-05-31T10:02:51Z</time>
      </trkpt>
      <trkpt lat="44.05468" lon="3.15304">
        <ele>820.7</ele>
        <time>2019-05-31T10:02:54Z</time>
      </trkpt>
      <trkpt lat="44.05465" lon="3.15306">
        <ele>820.8</ele>
        <time>2019-05-31T10:03:27Z</time>
      </trkpt>
      <trkpt lat="44.05464" lon="3.15311">
        <ele>821.1</ele>
        <time>2019-05-31T10:03:29Z</time>
      </trkpt>
      <trkpt lat="44.05462" lon="3.15314">
        <ele>821.2</ele>
        <time>2019-05-31T10:03:30Z</time>
      </trkpt>
      <trkpt lat="44.05461" lon="3.15318">
        <ele>821.3</ele>
        <time>2019-05-31T10:03:31Z</time>
      </trkpt>
      <trkpt lat="44.0546" lon="3.15325">
        <ele>821.4</ele>
        <time>2019-05-31T10:03:33Z</time>
      </trkpt>
      <trkpt lat="44.05458" lon="3.15329">
        <ele>821.5</ele>
        <time>2019-05-31T10:03:34Z</time>
      </trkpt>
      <trkpt lat="44.05457" lon="3.15332">
        <ele>821.6</ele>
        <time>2019-05-31T10:03:35Z</time>
      </trkpt>
      <trkpt lat="44.05456" lon="3.15336">
        <ele>821.7</ele>
        <time>2019-05-31T10:03:36Z</time>
      </trkpt>
      <trkpt lat="44.05455" lon="3.1534">
        <ele>821.8</ele>
        <time>2019-05-31T10:03:37Z</time>
      </trkpt>
      <trkpt lat="44.05453" lon="3.15347">
        <ele>822</ele>
        <time>2019-05-31T10:03:39Z</time>
      </trkpt>
      <trkpt lat="44.05451" lon="3.15351">
        <ele>822.1</ele>
        <time>2019-05-31T10:03:40Z</time>
      </trkpt>
      <trkpt lat="44.0545" lon="3.15357">
        <ele>822.3</ele>
        <time>2019-05-31T10:03:42Z</time>
      </trkpt>
      <trkpt lat="44.05448" lon="3.15363">
        <ele>822.7</ele>
        <time>2019-05-31T10:03:44Z</time>
      </trkpt>
      <trkpt lat="44.05446" lon="3.1537">
        <ele>823</ele>
        <time>2019-05-31T10:03:46Z</time>
      </trkpt>
      <trkpt lat="44.05444" lon="3.15376">
        <ele>823.5</ele>
        <time>2019-05-31T10:03:48Z</time>
      </trkpt>
      <trkpt lat="44.05442" lon="3.15382">
        <ele>823.8</ele>
        <time>2019-05-31T10:03:50Z</time>
      </trkpt>
      <trkpt lat="44.05441" lon="3.15386">
        <ele>824.2</ele>
        <time>2019-05-31T10:03:52Z</time>
      </trkpt>
      <trkpt lat="44.0544" lon="3.15392">
        <ele>824.5</ele>
        <time>2019-05-31T10:03:55Z</time>
      </trkpt>
      <trkpt lat="44.05438" lon="3.15398">
        <ele>824.9</ele>
        <time>2019-05-31T10:03:57Z</time>
      </trkpt>
      <trkpt lat="44.05436" lon="3.15404">
        <ele>825.2</ele>
        <time>2019-05-31T10:03:59Z</time>
      </trkpt>
      <trkpt lat="44.05433" lon="3.1541">
        <ele>825.5</ele>
        <time>2019-05-31T10:04:01Z</time>
      </trkpt>
      <trkpt lat="44.05429" lon="3.15414">
        <ele>825.7</ele>
        <time>2019-05-31T10:04:03Z</time>
      </trkpt>
      <trkpt lat="44.05426" lon="3.15416">
        <ele>825.9</ele>
        <time>2019-05-31T10:04:04Z</time>
      </trkpt>
      <trkpt lat="44.05423" lon="3.15417">
        <ele>826</ele>
        <time>2019-05-31T10:04:05Z</time>
      </trkpt>
      <trkpt lat="44.0542" lon="3.15419">
        <ele>826.1</ele>
        <time>2019-05-31T10:04:06Z</time>
      </trkpt>
      <trkpt lat="44.05417" lon="3.1542">
        <ele>826.1</ele>
        <time>2019-05-31T10:04:07Z</time>
      </trkpt>
      <trkpt lat="44.05414" lon="3.15422">
        <ele>826.1</ele>
        <time>2019-05-31T10:04:08Z</time>
      </trkpt>
      <trkpt lat="44.05409" lon="3.15422">
        <ele>826.1</ele>
        <time>2019-05-31T10:04:10Z</time>
      </trkpt>
      <trkpt lat="44.05404" lon="3.15425">
        <ele>826.4</ele>
        <time>2019-05-31T10:04:12Z</time>
      </trkpt>
      <trkpt lat="44.05402" lon="3.15429">
        <ele>826.5</ele>
        <time>2019-05-31T10:04:13Z</time>
      </trkpt>
      <trkpt lat="44.05401" lon="3.15435">
        <ele>826.6</ele>
        <time>2019-05-31T10:04:14Z</time>
      </trkpt>
      <trkpt lat="44.054" lon="3.1544">
        <ele>826.8</ele>
        <time>2019-05-31T10:04:15Z</time>
      </trkpt>
      <trkpt lat="44.054" lon="3.15446">
        <ele>826.9</ele>
        <time>2019-05-31T10:04:16Z</time>
      </trkpt>
      <trkpt lat="44.054" lon="3.15451">
        <ele>827</ele>
        <time>2019-05-31T10:04:17Z</time>
      </trkpt>
      <trkpt lat="44.054" lon="3.15457">
        <ele>827.1</ele>
        <time>2019-05-31T10:04:18Z</time>
      </trkpt>
      <trkpt lat="44.054" lon="3.15462">
        <ele>827.1</ele>
        <time>2019-05-31T10:04:19Z</time>
      </trkpt>
      <trkpt lat="44.05401" lon="3.15467">
        <ele>827.2</ele>
        <time>2019-05-31T10:04:20Z</time>
      </trkpt>
      <trkpt lat="44.05401" lon="3.15473">
        <ele>827.3</ele>
        <time>2019-05-31T10:04:21Z</time>
      </trkpt>
      <trkpt lat="44.05402" lon="3.15477">
        <ele>827.3</ele>
        <time>2019-05-31T10:04:22Z</time>
      </trkpt>
      <trkpt lat="44.05403" lon="3.15482">
        <ele>827.3</ele>
        <time>2019-05-31T10:04:23Z</time>
      </trkpt>
      <trkpt lat="44.05405" lon="3.15487">
        <ele>827.4</ele>
        <time>2019-05-31T10:04:24Z</time>
      </trkpt>
      <trkpt lat="44.05406" lon="3.15493">
        <ele>827.4</ele>
        <time>2019-05-31T10:04:25Z</time>
      </trkpt>
      <trkpt lat="44.05407" lon="3.15499">
        <ele>827.4</ele>
        <time>2019-05-31T10:04:26Z</time>
      </trkpt>
      <trkpt lat="44.05408" lon="3.15504">
        <ele>827.4</ele>
        <time>2019-05-31T10:04:27Z</time>
      </trkpt>
      <trkpt lat="44.05408" lon="3.15509">
        <ele>827.4</ele>
        <time>2019-05-31T10:04:28Z</time>
      </trkpt>
      <trkpt lat="44.05408" lon="3.15514">
        <ele>827.4</ele>
        <time>2019-05-31T10:04:29Z</time>
      </trkpt>
      <trkpt lat="44.05408" lon="3.15519">
        <ele>827.2</ele>
        <time>2019-05-31T10:04:30Z</time>
      </trkpt>
      <trkpt lat="44.05408" lon="3.15524">
        <ele>827</ele>
        <time>2019-05-31T10:04:31Z</time>
      </trkpt>
      <trkpt lat="44.05408" lon="3.15528">
        <ele>826.8</ele>
        <time>2019-05-31T10:04:32Z</time>
      </trkpt>
      <trkpt lat="44.05408" lon="3.15534">
        <ele>826.5</ele>
        <time>2019-05-31T10:04:33Z</time>
      </trkpt>
      <trkpt lat="44.05409" lon="3.1554">
        <ele>826.3</ele>
        <time>2019-05-31T10:04:34Z</time>
      </trkpt>
      <trkpt lat="44.05409" lon="3.15546">
        <ele>826.1</ele>
        <time>2019-05-31T10:04:35Z</time>
      </trkpt>
      <trkpt lat="44.05409" lon="3.15552">
        <ele>825.8</ele>
        <time>2019-05-31T10:04:36Z</time>
      </trkpt>
      <trkpt lat="44.05408" lon="3.15556">
        <ele>825.6</ele>
        <time>2019-05-31T10:04:37Z</time>
      </trkpt>
      <trkpt lat="44.05408" lon="3.15561">
        <ele>825.4</ele>
        <time>2019-05-31T10:04:38Z</time>
      </trkpt>
      <trkpt lat="44.05406" lon="3.15569">
        <ele>825.1</ele>
        <time>2019-05-31T10:04:40Z</time>
      </trkpt>
      <trkpt lat="44.05407" lon="3.15574">
        <ele>824.9</ele>
        <time>2019-05-31T10:04:41Z</time>
      </trkpt>
      <trkpt lat="44.05406" lon="3.15577">
        <ele>824.7</ele>
        <time>2019-05-31T10:04:42Z</time>
      </trkpt>
      <trkpt lat="44.05406" lon="3.15583">
        <ele>824.5</ele>
        <time>2019-05-31T10:04:43Z</time>
      </trkpt>
      <trkpt lat="44.05405" lon="3.15589">
        <ele>824.2</ele>
        <time>2019-05-31T10:04:44Z</time>
      </trkpt>
      <trkpt lat="44.05404" lon="3.15597">
        <ele>823.8</ele>
        <time>2019-05-31T10:04:45Z</time>
      </trkpt>
      <trkpt lat="44.05406" lon="3.15603">
        <ele>823.5</ele>
        <time>2019-05-31T10:04:46Z</time>
      </trkpt>
      <trkpt lat="44.05407" lon="3.15609">
        <ele>823.2</ele>
        <time>2019-05-31T10:04:47Z</time>
      </trkpt>
      <trkpt lat="44.05407" lon="3.15615">
        <ele>822.9</ele>
        <time>2019-05-31T10:04:48Z</time>
      </trkpt>
      <trkpt lat="44.05406" lon="3.15623">
        <ele>822.5</ele>
        <time>2019-05-31T10:04:49Z</time>
      </trkpt>
      <trkpt lat="44.05406" lon="3.15628">
        <ele>822.2</ele>
        <time>2019-05-31T10:04:50Z</time>
      </trkpt>
      <trkpt lat="44.05405" lon="3.15634">
        <ele>821.9</ele>
        <time>2019-05-31T10:04:51Z</time>
      </trkpt>
      <trkpt lat="44.05405" lon="3.15641">
        <ele>821.6</ele>
        <time>2019-05-31T10:04:52Z</time>
      </trkpt>
      <trkpt lat="44.05407" lon="3.15646">
        <ele>821.2</ele>
        <time>2019-05-31T10:04:53Z</time>
      </trkpt>
      <trkpt lat="44.05409" lon="3.15653">
        <ele>820.8</ele>
        <time>2019-05-31T10:04:54Z</time>
      </trkpt>
      <trkpt lat="44.05411" lon="3.15659">
        <ele>820.4</ele>
        <time>2019-05-31T10:04:55Z</time>
      </trkpt>
      <trkpt lat="44.05413" lon="3.15667">
        <ele>819.9</ele>
        <time>2019-05-31T10:04:56Z</time>
      </trkpt>
      <trkpt lat="44.05414" lon="3.15673">
        <ele>819.5</ele>
        <time>2019-05-31T10:04:57Z</time>
      </trkpt>
      <trkpt lat="44.05416" lon="3.15681">
        <ele>819</ele>
        <time>2019-05-31T10:04:58Z</time>
      </trkpt>
      <trkpt lat="44.05419" lon="3.15688">
        <ele>818.5</ele>
        <time>2019-05-31T10:04:59Z</time>
      </trkpt>
      <trkpt lat="44.05421" lon="3.15695">
        <ele>818</ele>
        <time>2019-05-31T10:05:00Z</time>
      </trkpt>
      <trkpt lat="44.0542" lon="3.15703">
        <ele>817.6</ele>
        <time>2019-05-31T10:05:01Z</time>
      </trkpt>
      <trkpt lat="44.0542" lon="3.15711">
        <ele>817.2</ele>
        <time>2019-05-31T10:05:02Z</time>
      </trkpt>
      <trkpt lat="44.05419" lon="3.15716">
        <ele>817.2</ele>
        <time>2019-05-31T10:05:03Z</time>
      </trkpt>
      <trkpt lat="44.05419" lon="3.15726">
        <ele>816.5</ele>
        <time>2019-05-31T10:05:04Z</time>
      </trkpt>
      <trkpt lat="44.05418" lon="3.15731">
        <ele>816.1</ele>
        <time>2019-05-31T10:05:05Z</time>
      </trkpt>
      <trkpt lat="44.05418" lon="3.15737">
        <ele>815.7</ele>
        <time>2019-05-31T10:05:06Z</time>
      </trkpt>
      <trkpt lat="44.05418" lon="3.15745">
        <ele>815.1</ele>
        <time>2019-05-31T10:05:07Z</time>
      </trkpt>
      <trkpt lat="44.05418" lon="3.15749">
        <ele>814.7</ele>
        <time>2019-05-31T10:05:08Z</time>
      </trkpt>
      <trkpt lat="44.05417" lon="3.15756">
        <ele>814.3</ele>
        <time>2019-05-31T10:05:09Z</time>
      </trkpt>
      <trkpt lat="44.05416" lon="3.15762">
        <ele>814.1</ele>
        <time>2019-05-31T10:05:10Z</time>
      </trkpt>
      <trkpt lat="44.05416" lon="3.15767">
        <ele>814</ele>
        <time>2019-05-31T10:05:11Z</time>
      </trkpt>
      <trkpt lat="44.05415" lon="3.15773">
        <ele>814</ele>
        <time>2019-05-31T10:05:12Z</time>
      </trkpt>
      <trkpt lat="44.05414" lon="3.15779">
        <ele>814.1</ele>
        <time>2019-05-31T10:05:13Z</time>
      </trkpt>
      <trkpt lat="44.05414" lon="3.15783">
        <ele>814.1</ele>
        <time>2019-05-31T10:05:14Z</time>
      </trkpt>
      <trkpt lat="44.05414" lon="3.15789">
        <ele>813.9</ele>
        <time>2019-05-31T10:05:15Z</time>
      </trkpt>
      <trkpt lat="44.05413" lon="3.15793">
        <ele>813.9</ele>
        <time>2019-05-31T10:05:16Z</time>
      </trkpt>
      <trkpt lat="44.05413" lon="3.15797">
        <ele>813.9</ele>
        <time>2019-05-31T10:05:17Z</time>
      </trkpt>
      <trkpt lat="44.05412" lon="3.15803">
        <ele>813.8</ele>
        <time>2019-05-31T10:05:18Z</time>
      </trkpt>
      <trkpt lat="44.05411" lon="3.15809">
        <ele>813.6</ele>
        <time>2019-05-31T10:05:19Z</time>
      </trkpt>
      <trkpt lat="44.0541" lon="3.15816">
        <ele>813.4</ele>
        <time>2019-05-31T10:05:20Z</time>
      </trkpt>
      <trkpt lat="44.0541" lon="3.15823">
        <ele>813.2</ele>
        <time>2019-05-31T10:05:21Z</time>
      </trkpt>
      <trkpt lat="44.05409" lon="3.15831">
        <ele>813</ele>
        <time>2019-05-31T10:05:22Z</time>
      </trkpt>
      <trkpt lat="44.05409" lon="3.15839">
        <ele>812.6</ele>
        <time>2019-05-31T10:05:23Z</time>
      </trkpt>
      <trkpt lat="44.05408" lon="3.15849">
        <ele>812.5</ele>
        <time>2019-05-31T10:05:24Z</time>
      </trkpt>
      <trkpt lat="44.05407" lon="3.15858">
        <ele>812.3</ele>
        <time>2019-05-31T10:05:25Z</time>
      </trkpt>
      <trkpt lat="44.05405" lon="3.15867">
        <ele>812.3</ele>
        <time>2019-05-31T10:05:26Z</time>
      </trkpt>
      <trkpt lat="44.05402" lon="3.15876">
        <ele>812.4</ele>
        <time>2019-05-31T10:05:27Z</time>
      </trkpt>
      <trkpt lat="44.05399" lon="3.15884">
        <ele>812.6</ele>
        <time>2019-05-31T10:05:28Z</time>
      </trkpt>
      <trkpt lat="44.05396" lon="3.15893">
        <ele>812.7</ele>
        <time>2019-05-31T10:05:29Z</time>
      </trkpt>
      <trkpt lat="44.05392" lon="3.15901">
        <ele>812.9</ele>
        <time>2019-05-31T10:05:30Z</time>
      </trkpt>
      <trkpt lat="44.0539" lon="3.15909">
        <ele>813.1</ele>
        <time>2019-05-31T10:05:31Z</time>
      </trkpt>
      <trkpt lat="44.05387" lon="3.15918">
        <ele>813.2</ele>
        <time>2019-05-31T10:05:32Z</time>
      </trkpt>
      <trkpt lat="44.05386" lon="3.15927">
        <ele>813.3</ele>
        <time>2019-05-31T10:05:33Z</time>
      </trkpt>
      <trkpt lat="44.05383" lon="3.15935">
        <ele>813.3</ele>
        <time>2019-05-31T10:05:34Z</time>
      </trkpt>
      <trkpt lat="44.0538" lon="3.15943">
        <ele>813.2</ele>
        <time>2019-05-31T10:05:35Z</time>
      </trkpt>
      <trkpt lat="44.05379" lon="3.15951">
        <ele>813</ele>
        <time>2019-05-31T10:05:36Z</time>
      </trkpt>
      <trkpt lat="44.0538" lon="3.15959">
        <ele>812.8</ele>
        <time>2019-05-31T10:05:37Z</time>
      </trkpt>
      <trkpt lat="44.05381" lon="3.15968">
        <ele>812.6</ele>
        <time>2019-05-31T10:05:38Z</time>
      </trkpt>
      <trkpt lat="44.05381" lon="3.15974">
        <ele>812.5</ele>
        <time>2019-05-31T10:05:39Z</time>
      </trkpt>
      <trkpt lat="44.05381" lon="3.15984">
        <ele>812.3</ele>
        <time>2019-05-31T10:05:40Z</time>
      </trkpt>
      <trkpt lat="44.05382" lon="3.15995">
        <ele>812.1</ele>
        <time>2019-05-31T10:05:41Z</time>
      </trkpt>
      <trkpt lat="44.05381" lon="3.16004">
        <ele>811.9</ele>
        <time>2019-05-31T10:05:42Z</time>
      </trkpt>
      <trkpt lat="44.05382" lon="3.16013">
        <ele>811.8</ele>
        <time>2019-05-31T10:05:43Z</time>
      </trkpt>
      <trkpt lat="44.05382" lon="3.16022">
        <ele>811.6</ele>
        <time>2019-05-31T10:05:44Z</time>
      </trkpt>
      <trkpt lat="44.05381" lon="3.16032">
        <ele>811.3</ele>
        <time>2019-05-31T10:05:45Z</time>
      </trkpt>
      <trkpt lat="44.05381" lon="3.16042">
        <ele>811</ele>
        <time>2019-05-31T10:05:46Z</time>
      </trkpt>
      <trkpt lat="44.05383" lon="3.16052">
        <ele>810.8</ele>
        <time>2019-05-31T10:05:47Z</time>
      </trkpt>
      <trkpt lat="44.05386" lon="3.16063">
        <ele>810.4</ele>
        <time>2019-05-31T10:05:48Z</time>
      </trkpt>
      <trkpt lat="44.05389" lon="3.16073">
        <ele>810.2</ele>
        <time>2019-05-31T10:05:49Z</time>
      </trkpt>
      <trkpt lat="44.05392" lon="3.16081">
        <ele>810</ele>
        <time>2019-05-31T10:05:50Z</time>
      </trkpt>
      <trkpt lat="44.05395" lon="3.16088">
        <ele>809.8</ele>
        <time>2019-05-31T10:05:51Z</time>
      </trkpt>
      <trkpt lat="44.05396" lon="3.16093">
        <ele>809.7</ele>
        <time>2019-05-31T10:05:52Z</time>
      </trkpt>
      <trkpt lat="44.05398" lon="3.16098">
        <ele>809.6</ele>
        <time>2019-05-31T10:05:53Z</time>
      </trkpt>
      <trkpt lat="44.054" lon="3.16107">
        <ele>809.4</ele>
        <time>2019-05-31T10:05:54Z</time>
      </trkpt>
      <trkpt lat="44.05402" lon="3.16113">
        <ele>809.2</ele>
        <time>2019-05-31T10:05:55Z</time>
      </trkpt>
      <trkpt lat="44.05403" lon="3.1612">
        <ele>809.1</ele>
        <time>2019-05-31T10:05:56Z</time>
      </trkpt>
      <trkpt lat="44.05404" lon="3.16126">
        <ele>808.9</ele>
        <time>2019-05-31T10:05:57Z</time>
      </trkpt>
      <trkpt lat="44.05406" lon="3.16133">
        <ele>808.7</ele>
        <time>2019-05-31T10:05:58Z</time>
      </trkpt>
      <trkpt lat="44.05406" lon="3.16139">
        <ele>808.5</ele>
        <time>2019-05-31T10:05:59Z</time>
      </trkpt>
      <trkpt lat="44.05408" lon="3.16148">
        <ele>808.2</ele>
        <time>2019-05-31T10:06:00Z</time>
      </trkpt>
      <trkpt lat="44.05407" lon="3.16155">
        <ele>807.8</ele>
        <time>2019-05-31T10:06:01Z</time>
      </trkpt>
      <trkpt lat="44.0541" lon="3.16164">
        <ele>807.3</ele>
        <time>2019-05-31T10:06:02Z</time>
      </trkpt>
      <trkpt lat="44.05413" lon="3.16173">
        <ele>806.8</ele>
        <time>2019-05-31T10:06:03Z</time>
      </trkpt>
      <trkpt lat="44.05414" lon="3.16183">
        <ele>806.4</ele>
        <time>2019-05-31T10:06:04Z</time>
      </trkpt>
      <trkpt lat="44.05414" lon="3.16193">
        <ele>806</ele>
        <time>2019-05-31T10:06:05Z</time>
      </trkpt>
      <trkpt lat="44.05414" lon="3.16202">
        <ele>805.6</ele>
        <time>2019-05-31T10:06:06Z</time>
      </trkpt>
      <trkpt lat="44.05414" lon="3.16212">
        <ele>805.3</ele>
        <time>2019-05-31T10:06:07Z</time>
      </trkpt>
      <trkpt lat="44.05415" lon="3.16223">
        <ele>804.8</ele>
        <time>2019-05-31T10:06:08Z</time>
      </trkpt>
      <trkpt lat="44.05417" lon="3.16232">
        <ele>804.4</ele>
        <time>2019-05-31T10:06:09Z</time>
      </trkpt>
      <trkpt lat="44.05419" lon="3.16243">
        <ele>804.1</ele>
        <time>2019-05-31T10:06:10Z</time>
      </trkpt>
      <trkpt lat="44.05418" lon="3.16253">
        <ele>803.8</ele>
        <time>2019-05-31T10:06:11Z</time>
      </trkpt>
      <trkpt lat="44.05419" lon="3.16262">
        <ele>803.5</ele>
        <time>2019-05-31T10:06:12Z</time>
      </trkpt>
      <trkpt lat="44.0542" lon="3.16272">
        <ele>803.2</ele>
        <time>2019-05-31T10:06:13Z</time>
      </trkpt>
      <trkpt lat="44.0542" lon="3.16281">
        <ele>803</ele>
        <time>2019-05-31T10:06:14Z</time>
      </trkpt>
      <trkpt lat="44.05421" lon="3.16288">
        <ele>802.8</ele>
        <time>2019-05-31T10:06:15Z</time>
      </trkpt>
      <trkpt lat="44.05422" lon="3.16294">
        <ele>802.7</ele>
        <time>2019-05-31T10:06:16Z</time>
      </trkpt>
      <trkpt lat="44.05424" lon="3.163">
        <ele>802.5</ele>
        <time>2019-05-31T10:06:17Z</time>
      </trkpt>
      <trkpt lat="44.05426" lon="3.16305">
        <ele>802.4</ele>
        <time>2019-05-31T10:06:18Z</time>
      </trkpt>
      <trkpt lat="44.05427" lon="3.16313">
        <ele>802.3</ele>
        <time>2019-05-31T10:06:19Z</time>
      </trkpt>
      <trkpt lat="44.05429" lon="3.16321">
        <ele>802.2</ele>
        <time>2019-05-31T10:06:20Z</time>
      </trkpt>
      <trkpt lat="44.05431" lon="3.16327">
        <ele>802.1</ele>
        <time>2019-05-31T10:06:21Z</time>
      </trkpt>
      <trkpt lat="44.05432" lon="3.16335">
        <ele>802.1</ele>
        <time>2019-05-31T10:06:22Z</time>
      </trkpt>
      <trkpt lat="44.05434" lon="3.16342">
        <ele>802.1</ele>
        <time>2019-05-31T10:06:23Z</time>
      </trkpt>
      <trkpt lat="44.05437" lon="3.16349">
        <ele>802</ele>
        <time>2019-05-31T10:06:24Z</time>
      </trkpt>
      <trkpt lat="44.05438" lon="3.16356">
        <ele>802</ele>
        <time>2019-05-31T10:06:25Z</time>
      </trkpt>
      <trkpt lat="44.05439" lon="3.16365">
        <ele>802</ele>
        <time>2019-05-31T10:06:26Z</time>
      </trkpt>
      <trkpt lat="44.05441" lon="3.16372">
        <ele>802.1</ele>
        <time>2019-05-31T10:06:27Z</time>
      </trkpt>
      <trkpt lat="44.05445" lon="3.1638">
        <ele>802.1</ele>
        <time>2019-05-31T10:06:28Z</time>
      </trkpt>
      <trkpt lat="44.05448" lon="3.16388">
        <ele>802.1</ele>
        <time>2019-05-31T10:06:29Z</time>
      </trkpt>
      <trkpt lat="44.05451" lon="3.16394">
        <ele>802.2</ele>
        <time>2019-05-31T10:06:30Z</time>
      </trkpt>
      <trkpt lat="44.05455" lon="3.16401">
        <ele>802.3</ele>
        <time>2019-05-31T10:06:31Z</time>
      </trkpt>
      <trkpt lat="44.05459" lon="3.16407">
        <ele>802.3</ele>
        <time>2019-05-31T10:06:32Z</time>
      </trkpt>
      <trkpt lat="44.05464" lon="3.16413">
        <ele>802.4</ele>
        <time>2019-05-31T10:06:33Z</time>
      </trkpt>
      <trkpt lat="44.05468" lon="3.16417">
        <ele>802.5</ele>
        <time>2019-05-31T10:06:34Z</time>
      </trkpt>
      <trkpt lat="44.05472" lon="3.16417">
        <ele>802.5</ele>
        <time>2019-05-31T10:06:35Z</time>
      </trkpt>
      <trkpt lat="44.05477" lon="3.16417">
        <ele>802.6</ele>
        <time>2019-05-31T10:06:36Z</time>
      </trkpt>
      <trkpt lat="44.05483" lon="3.16419">
        <ele>802.7</ele>
        <time>2019-05-31T10:06:37Z</time>
      </trkpt>
      <trkpt lat="44.05487" lon="3.16421">
        <ele>802.8</ele>
        <time>2019-05-31T10:06:38Z</time>
      </trkpt>
      <trkpt lat="44.05489" lon="3.16423">
        <ele>802.8</ele>
        <time>2019-05-31T10:06:39Z</time>
      </trkpt>
      <trkpt lat="44.05492" lon="3.16425">
        <ele>802.9</ele>
        <time>2019-05-31T10:06:40Z</time>
      </trkpt>
      <trkpt lat="44.05491" lon="3.16429">
        <ele>802.9</ele>
        <time>2019-05-31T10:06:41Z</time>
      </trkpt>
      <trkpt lat="44.05494" lon="3.16432">
        <ele>803</ele>
        <time>2019-05-31T10:06:42Z</time>
      </trkpt>
      <trkpt lat="44.05494" lon="3.16437">
        <ele>803</ele>
        <time>2019-05-31T10:06:43Z</time>
      </trkpt>
      <trkpt lat="44.05494" lon="3.16441">
        <ele>803.1</ele>
        <time>2019-05-31T10:06:44Z</time>
      </trkpt>
      <trkpt lat="44.05494" lon="3.16444">
        <ele>803.2</ele>
        <time>2019-05-31T10:06:45Z</time>
      </trkpt>
      <trkpt lat="44.05496" lon="3.16449">
        <ele>803.3</ele>
        <time>2019-05-31T10:06:46Z</time>
      </trkpt>
      <trkpt lat="44.05496" lon="3.16455">
        <ele>803.3</ele>
        <time>2019-05-31T10:06:47Z</time>
      </trkpt>
      <trkpt lat="44.05497" lon="3.16459">
        <ele>803.4</ele>
        <time>2019-05-31T10:06:48Z</time>
      </trkpt>
      <trkpt lat="44.05497" lon="3.16464">
        <ele>803.4</ele>
        <time>2019-05-31T10:06:49Z</time>
      </trkpt>
      <trkpt lat="44.05497" lon="3.16469">
        <ele>803.5</ele>
        <time>2019-05-31T10:06:50Z</time>
      </trkpt>
      <trkpt lat="44.05496" lon="3.16474">
        <ele>803.5</ele>
        <time>2019-05-31T10:06:51Z</time>
      </trkpt>
      <trkpt lat="44.05496" lon="3.16479">
        <ele>803.5</ele>
        <time>2019-05-31T10:06:52Z</time>
      </trkpt>
      <trkpt lat="44.05495" lon="3.16484">
        <ele>803.5</ele>
        <time>2019-05-31T10:06:53Z</time>
      </trkpt>
      <trkpt lat="44.05493" lon="3.16489">
        <ele>803.5</ele>
        <time>2019-05-31T10:06:54Z</time>
      </trkpt>
      <trkpt lat="44.05492" lon="3.16494">
        <ele>803.5</ele>
        <time>2019-05-31T10:06:55Z</time>
      </trkpt>
      <trkpt lat="44.05491" lon="3.16498">
        <ele>803.5</ele>
        <time>2019-05-31T10:06:56Z</time>
      </trkpt>
      <trkpt lat="44.05488" lon="3.16499">
        <ele>803.5</ele>
        <time>2019-05-31T10:06:57Z</time>
      </trkpt>
      <trkpt lat="44.05488" lon="3.16505">
        <ele>803.5</ele>
        <time>2019-05-31T10:06:58Z</time>
      </trkpt>
      <trkpt lat="44.05486" lon="3.16512">
        <ele>803.4</ele>
        <time>2019-05-31T10:06:59Z</time>
      </trkpt>
      <trkpt lat="44.05485" lon="3.1652">
        <ele>803.3</ele>
        <time>2019-05-31T10:07:00Z</time>
      </trkpt>
      <trkpt lat="44.05483" lon="3.16528">
        <ele>803.2</ele>
        <time>2019-05-31T10:07:01Z</time>
      </trkpt>
      <trkpt lat="44.05483" lon="3.16535">
        <ele>803</ele>
        <time>2019-05-31T10:07:02Z</time>
      </trkpt>
      <trkpt lat="44.05485" lon="3.16544">
        <ele>802.7</ele>
        <time>2019-05-31T10:07:03Z</time>
      </trkpt>
      <trkpt lat="44.05486" lon="3.16551">
        <ele>802.4</ele>
        <time>2019-05-31T10:07:04Z</time>
      </trkpt>
      <trkpt lat="44.05489" lon="3.16559">
        <ele>802.1</ele>
        <time>2019-05-31T10:07:05Z</time>
      </trkpt>
      <trkpt lat="44.05492" lon="3.16568">
        <ele>801.7</ele>
        <time>2019-05-31T10:07:06Z</time>
      </trkpt>
      <trkpt lat="44.05495" lon="3.16575">
        <ele>801.5</ele>
        <time>2019-05-31T10:07:07Z</time>
      </trkpt>
      <trkpt lat="44.05497" lon="3.16582">
        <ele>801.2</ele>
        <time>2019-05-31T10:07:08Z</time>
      </trkpt>
      <trkpt lat="44.055" lon="3.16588">
        <ele>801</ele>
        <time>2019-05-31T10:07:09Z</time>
      </trkpt>
      <trkpt lat="44.05502" lon="3.16595">
        <ele>800.8</ele>
        <time>2019-05-31T10:07:10Z</time>
      </trkpt>
      <trkpt lat="44.05506" lon="3.166">
        <ele>800.6</ele>
        <time>2019-05-31T10:07:11Z</time>
      </trkpt>
      <trkpt lat="44.05511" lon="3.16605">
        <ele>800.4</ele>
        <time>2019-05-31T10:07:12Z</time>
      </trkpt>
      <trkpt lat="44.05515" lon="3.1661">
        <ele>800.3</ele>
        <time>2019-05-31T10:07:13Z</time>
      </trkpt>
      <trkpt lat="44.0552" lon="3.16615">
        <ele>800.1</ele>
        <time>2019-05-31T10:07:14Z</time>
      </trkpt>
      <trkpt lat="44.05526" lon="3.16619">
        <ele>800</ele>
        <time>2019-05-31T10:07:15Z</time>
      </trkpt>
      <trkpt lat="44.05532" lon="3.16623">
        <ele>799.8</ele>
        <time>2019-05-31T10:07:16Z</time>
      </trkpt>
      <trkpt lat="44.05537" lon="3.16626">
        <ele>799.7</ele>
        <time>2019-05-31T10:07:17Z</time>
      </trkpt>
      <trkpt lat="44.05541" lon="3.1663">
        <ele>799.6</ele>
        <time>2019-05-31T10:07:18Z</time>
      </trkpt>
      <trkpt lat="44.05547" lon="3.16633">
        <ele>799.4</ele>
        <time>2019-05-31T10:07:19Z</time>
      </trkpt>
      <trkpt lat="44.05555" lon="3.16635">
        <ele>799.2</ele>
        <time>2019-05-31T10:07:20Z</time>
      </trkpt>
      <trkpt lat="44.0556" lon="3.16637">
        <ele>799.1</ele>
        <time>2019-05-31T10:07:21Z</time>
      </trkpt>
      <trkpt lat="44.05565" lon="3.16639">
        <ele>799</ele>
        <time>2019-05-31T10:07:22Z</time>
      </trkpt>
      <trkpt lat="44.05571" lon="3.1664">
        <ele>798.9</ele>
        <time>2019-05-31T10:07:23Z</time>
      </trkpt>
      <trkpt lat="44.05576" lon="3.16642">
        <ele>798.8</ele>
        <time>2019-05-31T10:07:24Z</time>
      </trkpt>
      <trkpt lat="44.05581" lon="3.16643">
        <ele>798.6</ele>
        <time>2019-05-31T10:07:25Z</time>
      </trkpt>
      <trkpt lat="44.05586" lon="3.16645">
        <ele>798.5</ele>
        <time>2019-05-31T10:07:26Z</time>
      </trkpt>
      <trkpt lat="44.05591" lon="3.16646">
        <ele>798.4</ele>
        <time>2019-05-31T10:07:27Z</time>
      </trkpt>
      <trkpt lat="44.05597" lon="3.16642">
        <ele>798.2</ele>
        <time>2019-05-31T10:07:28Z</time>
      </trkpt>
      <trkpt lat="44.05602" lon="3.16643">
        <ele>798.1</ele>
        <time>2019-05-31T10:07:29Z</time>
      </trkpt>
      <trkpt lat="44.05607" lon="3.16645">
        <ele>798</ele>
        <time>2019-05-31T10:07:30Z</time>
      </trkpt>
      <trkpt lat="44.05612" lon="3.16647">
        <ele>798</ele>
        <time>2019-05-31T10:07:31Z</time>
      </trkpt>
      <trkpt lat="44.05615" lon="3.16647">
        <ele>797.9</ele>
        <time>2019-05-31T10:07:32Z</time>
      </trkpt>
      <trkpt lat="44.05619" lon="3.16646">
        <ele>797.9</ele>
        <time>2019-05-31T10:07:33Z</time>
      </trkpt>
      <trkpt lat="44.05623" lon="3.16646">
        <ele>797.9</ele>
        <time>2019-05-31T10:07:34Z</time>
      </trkpt>
      <trkpt lat="44.05627" lon="3.1665">
        <ele>797.9</ele>
        <time>2019-05-31T10:07:35Z</time>
      </trkpt>
      <trkpt lat="44.0563" lon="3.1665">
        <ele>797.9</ele>
        <time>2019-05-31T10:07:36Z</time>
      </trkpt>
      <trkpt lat="44.05633" lon="3.16652">
        <ele>797.9</ele>
        <time>2019-05-31T10:07:37Z</time>
      </trkpt>
      <trkpt lat="44.05636" lon="3.16655">
        <ele>797.9</ele>
        <time>2019-05-31T10:07:38Z</time>
      </trkpt>
      <trkpt lat="44.05641" lon="3.16657">
        <ele>797.9</ele>
        <time>2019-05-31T10:07:39Z</time>
      </trkpt>
      <trkpt lat="44.05644" lon="3.16661">
        <ele>797.9</ele>
        <time>2019-05-31T10:07:40Z</time>
      </trkpt>
      <trkpt lat="44.05648" lon="3.16663">
        <ele>798</ele>
        <time>2019-05-31T10:07:41Z</time>
      </trkpt>
      <trkpt lat="44.05652" lon="3.16665">
        <ele>798</ele>
        <time>2019-05-31T10:07:42Z</time>
      </trkpt>
      <trkpt lat="44.05655" lon="3.16667">
        <ele>798.1</ele>
        <time>2019-05-31T10:07:43Z</time>
      </trkpt>
      <trkpt lat="44.05659" lon="3.16669">
        <ele>798.1</ele>
        <time>2019-05-31T10:07:44Z</time>
      </trkpt>
      <trkpt lat="44.05665" lon="3.16671">
        <ele>798.2</ele>
        <time>2019-05-31T10:07:46Z</time>
      </trkpt>
      <trkpt lat="44.0567" lon="3.16673">
        <ele>798.2</ele>
        <time>2019-05-31T10:07:47Z</time>
      </trkpt>
      <trkpt lat="44.05675" lon="3.16675">
        <ele>798.3</ele>
        <time>2019-05-31T10:07:48Z</time>
      </trkpt>
      <trkpt lat="44.05681" lon="3.16676">
        <ele>798.3</ele>
        <time>2019-05-31T10:07:49Z</time>
      </trkpt>
      <trkpt lat="44.05686" lon="3.16678">
        <ele>798.3</ele>
        <time>2019-05-31T10:07:50Z</time>
      </trkpt>
      <trkpt lat="44.05692" lon="3.16676">
        <ele>798.4</ele>
        <time>2019-05-31T10:07:51Z</time>
      </trkpt>
      <trkpt lat="44.05697" lon="3.16677">
        <ele>798.4</ele>
        <time>2019-05-31T10:07:52Z</time>
      </trkpt>
      <trkpt lat="44.05702" lon="3.16679">
        <ele>798.4</ele>
        <time>2019-05-31T10:07:53Z</time>
      </trkpt>
      <trkpt lat="44.05708" lon="3.16682">
        <ele>798.4</ele>
        <time>2019-05-31T10:07:54Z</time>
      </trkpt>
      <trkpt lat="44.05712" lon="3.16683">
        <ele>798.3</ele>
        <time>2019-05-31T10:07:55Z</time>
      </trkpt>
      <trkpt lat="44.05718" lon="3.16684">
        <ele>798.3</ele>
        <time>2019-05-31T10:07:56Z</time>
      </trkpt>
      <trkpt lat="44.05724" lon="3.16686">
        <ele>798.2</ele>
        <time>2019-05-31T10:07:57Z</time>
      </trkpt>
      <trkpt lat="44.05729" lon="3.16688">
        <ele>798.1</ele>
        <time>2019-05-31T10:07:58Z</time>
      </trkpt>
      <trkpt lat="44.05734" lon="3.16689">
        <ele>798.1</ele>
        <time>2019-05-31T10:07:59Z</time>
      </trkpt>
      <trkpt lat="44.05739" lon="3.16691">
        <ele>798</ele>
        <time>2019-05-31T10:08:00Z</time>
      </trkpt>
      <trkpt lat="44.05745" lon="3.16691">
        <ele>797.9</ele>
        <time>2019-05-31T10:08:01Z</time>
      </trkpt>
      <trkpt lat="44.0575" lon="3.16691">
        <ele>797.8</ele>
        <time>2019-05-31T10:08:02Z</time>
      </trkpt>
      <trkpt lat="44.05753" lon="3.16692">
        <ele>797.8</ele>
        <time>2019-05-31T10:08:03Z</time>
      </trkpt>
      <trkpt lat="44.05758" lon="3.16697">
        <ele>797.6</ele>
        <time>2019-05-31T10:08:05Z</time>
      </trkpt>
      <trkpt lat="44.05761" lon="3.16699">
        <ele>797.6</ele>
        <time>2019-05-31T10:08:06Z</time>
      </trkpt>
      <trkpt lat="44.05763" lon="3.16703">
        <ele>797.5</ele>
        <time>2019-05-31T10:08:07Z</time>
      </trkpt>
      <trkpt lat="44.05767" lon="3.16705">
        <ele>797.4</ele>
        <time>2019-05-31T10:08:08Z</time>
      </trkpt>
      <trkpt lat="44.05769" lon="3.16711">
        <ele>797.3</ele>
        <time>2019-05-31T10:08:09Z</time>
      </trkpt>
      <trkpt lat="44.05774" lon="3.16716">
        <ele>797.2</ele>
        <time>2019-05-31T10:08:10Z</time>
      </trkpt>
      <trkpt lat="44.05776" lon="3.16721">
        <ele>797.1</ele>
        <time>2019-05-31T10:08:11Z</time>
      </trkpt>
      <trkpt lat="44.05779" lon="3.16726">
        <ele>797</ele>
        <time>2019-05-31T10:08:12Z</time>
      </trkpt>
      <trkpt lat="44.05783" lon="3.1673">
        <ele>796.9</ele>
        <time>2019-05-31T10:08:13Z</time>
      </trkpt>
      <trkpt lat="44.05785" lon="3.16734">
        <ele>796.8</ele>
        <time>2019-05-31T10:08:14Z</time>
      </trkpt>
      <trkpt lat="44.05788" lon="3.16739">
        <ele>796.7</ele>
        <time>2019-05-31T10:08:15Z</time>
      </trkpt>
      <trkpt lat="44.05789" lon="3.16745">
        <ele>796.6</ele>
        <time>2019-05-31T10:08:17Z</time>
      </trkpt>
      <trkpt lat="44.05794" lon="3.16751">
        <ele>796.5</ele>
        <time>2019-05-31T10:08:18Z</time>
      </trkpt>
      <trkpt lat="44.05795" lon="3.16756">
        <ele>796.4</ele>
        <time>2019-05-31T10:08:19Z</time>
      </trkpt>
      <trkpt lat="44.05797" lon="3.16762">
        <ele>796.4</ele>
        <time>2019-05-31T10:08:20Z</time>
      </trkpt>
      <trkpt lat="44.05797" lon="3.16766">
        <ele>796.3</ele>
        <time>2019-05-31T10:08:21Z</time>
      </trkpt>
      <trkpt lat="44.05799" lon="3.16772">
        <ele>796.3</ele>
        <time>2019-05-31T10:08:22Z</time>
      </trkpt>
      <trkpt lat="44.05804" lon="3.16781">
        <ele>796.1</ele>
        <time>2019-05-31T10:08:23Z</time>
      </trkpt>
      <trkpt lat="44.05805" lon="3.16787">
        <ele>796</ele>
        <time>2019-05-31T10:08:24Z</time>
      </trkpt>
      <trkpt lat="44.05808" lon="3.16795">
        <ele>795.7</ele>
        <time>2019-05-31T10:08:25Z</time>
      </trkpt>
      <trkpt lat="44.05809" lon="3.16804">
        <ele>795.4</ele>
        <time>2019-05-31T10:08:26Z</time>
      </trkpt>
      <trkpt lat="44.05812" lon="3.16813">
        <ele>795.1</ele>
        <time>2019-05-31T10:08:27Z</time>
      </trkpt>
      <trkpt lat="44.05817" lon="3.16823">
        <ele>794.8</ele>
        <time>2019-05-31T10:08:28Z</time>
      </trkpt>
      <trkpt lat="44.0582" lon="3.16831">
        <ele>794.7</ele>
        <time>2019-05-31T10:08:29Z</time>
      </trkpt>
      <trkpt lat="44.05822" lon="3.16839">
        <ele>794.5</ele>
        <time>2019-05-31T10:08:30Z</time>
      </trkpt>
      <trkpt lat="44.05824" lon="3.16846">
        <ele>794.4</ele>
        <time>2019-05-31T10:08:31Z</time>
      </trkpt>
      <trkpt lat="44.05827" lon="3.16854">
        <ele>794.4</ele>
        <time>2019-05-31T10:08:32Z</time>
      </trkpt>
      <trkpt lat="44.05829" lon="3.16861">
        <ele>794.3</ele>
        <time>2019-05-31T10:08:33Z</time>
      </trkpt>
      <trkpt lat="44.05832" lon="3.16867">
        <ele>794.2</ele>
        <time>2019-05-31T10:08:34Z</time>
      </trkpt>
      <trkpt lat="44.05835" lon="3.16875">
        <ele>794.2</ele>
        <time>2019-05-31T10:08:35Z</time>
      </trkpt>
      <trkpt lat="44.05837" lon="3.16883">
        <ele>794.1</ele>
        <time>2019-05-31T10:08:36Z</time>
      </trkpt>
      <trkpt lat="44.05839" lon="3.16889">
        <ele>794.1</ele>
        <time>2019-05-31T10:08:37Z</time>
      </trkpt>
      <trkpt lat="44.05841" lon="3.16895">
        <ele>794.1</ele>
        <time>2019-05-31T10:08:38Z</time>
      </trkpt>
      <trkpt lat="44.05843" lon="3.16904">
        <ele>794</ele>
        <time>2019-05-31T10:08:39Z</time>
      </trkpt>
      <trkpt lat="44.05845" lon="3.16912">
        <ele>794</ele>
        <time>2019-05-31T10:08:40Z</time>
      </trkpt>
      <trkpt lat="44.05848" lon="3.1692">
        <ele>794</ele>
        <time>2019-05-31T10:08:41Z</time>
      </trkpt>
      <trkpt lat="44.05847" lon="3.16926">
        <ele>794</ele>
        <time>2019-05-31T10:08:42Z</time>
      </trkpt>
      <trkpt lat="44.0585" lon="3.16933">
        <ele>794</ele>
        <time>2019-05-31T10:08:43Z</time>
      </trkpt>
      <trkpt lat="44.05851" lon="3.1694">
        <ele>794</ele>
        <time>2019-05-31T10:08:44Z</time>
      </trkpt>
      <trkpt lat="44.05852" lon="3.16948">
        <ele>794.1</ele>
        <time>2019-05-31T10:08:45Z</time>
      </trkpt>
      <trkpt lat="44.05853" lon="3.16954">
        <ele>794.1</ele>
        <time>2019-05-31T10:08:46Z</time>
      </trkpt>
      <trkpt lat="44.05854" lon="3.16961">
        <ele>794.2</ele>
        <time>2019-05-31T10:08:47Z</time>
      </trkpt>
      <trkpt lat="44.05854" lon="3.16969">
        <ele>794.4</ele>
        <time>2019-05-31T10:08:48Z</time>
      </trkpt>
      <trkpt lat="44.05855" lon="3.16975">
        <ele>794.4</ele>
        <time>2019-05-31T10:08:49Z</time>
      </trkpt>
      <trkpt lat="44.05858" lon="3.1698">
        <ele>794.5</ele>
        <time>2019-05-31T10:08:50Z</time>
      </trkpt>
      <trkpt lat="44.05859" lon="3.16986">
        <ele>794.6</ele>
        <time>2019-05-31T10:08:51Z</time>
      </trkpt>
      <trkpt lat="44.05861" lon="3.16992">
        <ele>794.7</ele>
        <time>2019-05-31T10:08:52Z</time>
      </trkpt>
      <trkpt lat="44.05863" lon="3.16998">
        <ele>794.8</ele>
        <time>2019-05-31T10:08:53Z</time>
      </trkpt>
      <trkpt lat="44.05865" lon="3.17005">
        <ele>795</ele>
        <time>2019-05-31T10:08:54Z</time>
      </trkpt>
      <trkpt lat="44.05867" lon="3.17011">
        <ele>795.1</ele>
        <time>2019-05-31T10:08:55Z</time>
      </trkpt>
      <trkpt lat="44.05868" lon="3.1702">
        <ele>795.3</ele>
        <time>2019-05-31T10:08:56Z</time>
      </trkpt>
      <trkpt lat="44.0587" lon="3.17029">
        <ele>795.6</ele>
        <time>2019-05-31T10:08:57Z</time>
      </trkpt>
      <trkpt lat="44.05872" lon="3.17033">
        <ele>795.7</ele>
        <time>2019-05-31T10:08:58Z</time>
      </trkpt>
      <trkpt lat="44.05874" lon="3.17039">
        <ele>795.8</ele>
        <time>2019-05-31T10:08:59Z</time>
      </trkpt>
      <trkpt lat="44.05876" lon="3.17047">
        <ele>796.1</ele>
        <time>2019-05-31T10:09:00Z</time>
      </trkpt>
      <trkpt lat="44.0588" lon="3.17054">
        <ele>796.3</ele>
        <time>2019-05-31T10:09:01Z</time>
      </trkpt>
      <trkpt lat="44.05884" lon="3.17061">
        <ele>796.6</ele>
        <time>2019-05-31T10:09:02Z</time>
      </trkpt>
      <trkpt lat="44.05888" lon="3.17069">
        <ele>796.8</ele>
        <time>2019-05-31T10:09:03Z</time>
      </trkpt>
      <trkpt lat="44.05891" lon="3.17076">
        <ele>797</ele>
        <time>2019-05-31T10:09:04Z</time>
      </trkpt>
      <trkpt lat="44.05895" lon="3.17084">
        <ele>797.2</ele>
        <time>2019-05-31T10:09:05Z</time>
      </trkpt>
      <trkpt lat="44.05899" lon="3.17092">
        <ele>797.3</ele>
        <time>2019-05-31T10:09:06Z</time>
      </trkpt>
      <trkpt lat="44.05904" lon="3.17102">
        <ele>797.5</ele>
        <time>2019-05-31T10:09:07Z</time>
      </trkpt>
      <trkpt lat="44.05907" lon="3.17112">
        <ele>797.5</ele>
        <time>2019-05-31T10:09:08Z</time>
      </trkpt>
      <trkpt lat="44.05909" lon="3.1712">
        <ele>797.6</ele>
        <time>2019-05-31T10:09:09Z</time>
      </trkpt>
      <trkpt lat="44.05911" lon="3.17127">
        <ele>797.6</ele>
        <time>2019-05-31T10:09:10Z</time>
      </trkpt>
      <trkpt lat="44.05908" lon="3.17132">
        <ele>797.6</ele>
        <time>2019-05-31T10:09:11Z</time>
      </trkpt>
      <trkpt lat="44.05908" lon="3.17138">
        <ele>797.5</ele>
        <time>2019-05-31T10:09:12Z</time>
      </trkpt>
      <trkpt lat="44.05909" lon="3.17145">
        <ele>797.5</ele>
        <time>2019-05-31T10:09:13Z</time>
      </trkpt>
      <trkpt lat="44.05911" lon="3.1715">
        <ele>797.4</ele>
        <time>2019-05-31T10:09:14Z</time>
      </trkpt>
      <trkpt lat="44.05912" lon="3.17155">
        <ele>797.4</ele>
        <time>2019-05-31T10:09:15Z</time>
      </trkpt>
      <trkpt lat="44.05916" lon="3.17161">
        <ele>797.2</ele>
        <time>2019-05-31T10:09:16Z</time>
      </trkpt>
      <trkpt lat="44.05918" lon="3.17165">
        <ele>797.1</ele>
        <time>2019-05-31T10:09:17Z</time>
      </trkpt>
      <trkpt lat="44.05919" lon="3.1717">
        <ele>797</ele>
        <time>2019-05-31T10:09:18Z</time>
      </trkpt>
      <trkpt lat="44.05924" lon="3.17175">
        <ele>796.8</ele>
        <time>2019-05-31T10:09:19Z</time>
      </trkpt>
      <trkpt lat="44.0593" lon="3.17179">
        <ele>796.6</ele>
        <time>2019-05-31T10:09:20Z</time>
      </trkpt>
      <trkpt lat="44.05936" lon="3.17183">
        <ele>796.3</ele>
        <time>2019-05-31T10:09:21Z</time>
      </trkpt>
      <trkpt lat="44.0594" lon="3.17186">
        <ele>796.1</ele>
        <time>2019-05-31T10:09:22Z</time>
      </trkpt>
      <trkpt lat="44.05942" lon="3.1719">
        <ele>796</ele>
        <time>2019-05-31T10:09:23Z</time>
      </trkpt>
      <trkpt lat="44.05945" lon="3.17192">
        <ele>795.8</ele>
        <time>2019-05-31T10:09:24Z</time>
      </trkpt>
      <trkpt lat="44.05948" lon="3.17195">
        <ele>795.6</ele>
        <time>2019-05-31T10:09:25Z</time>
      </trkpt>
      <trkpt lat="44.0595" lon="3.17198">
        <ele>795.5</ele>
        <time>2019-05-31T10:09:26Z</time>
      </trkpt>
      <trkpt lat="44.05953" lon="3.17202">
        <ele>795.3</ele>
        <time>2019-05-31T10:09:27Z</time>
      </trkpt>
      <trkpt lat="44.05955" lon="3.17204">
        <ele>795.1</ele>
        <time>2019-05-31T10:09:28Z</time>
      </trkpt>
      <trkpt lat="44.05958" lon="3.17207">
        <ele>795</ele>
        <time>2019-05-31T10:09:29Z</time>
      </trkpt>
      <trkpt lat="44.05961" lon="3.17209">
        <ele>794.8</ele>
        <time>2019-05-31T10:09:30Z</time>
      </trkpt>
      <trkpt lat="44.05964" lon="3.17212">
        <ele>794.7</ele>
        <time>2019-05-31T10:09:31Z</time>
      </trkpt>
      <trkpt lat="44.05967" lon="3.17214">
        <ele>794.6</ele>
        <time>2019-05-31T10:09:32Z</time>
      </trkpt>
      <trkpt lat="44.0597" lon="3.17217">
        <ele>794.4</ele>
        <time>2019-05-31T10:09:33Z</time>
      </trkpt>
      <trkpt lat="44.05973" lon="3.17221">
        <ele>794.3</ele>
        <time>2019-05-31T10:09:34Z</time>
      </trkpt>
      <trkpt lat="44.05976" lon="3.17224">
        <ele>794.3</ele>
        <time>2019-05-31T10:09:35Z</time>
      </trkpt>
      <trkpt lat="44.05979" lon="3.17227">
        <ele>794.2</ele>
        <time>2019-05-31T10:09:36Z</time>
      </trkpt>
      <trkpt lat="44.05982" lon="3.1723">
        <ele>794.2</ele>
        <time>2019-05-31T10:09:37Z</time>
      </trkpt>
      <trkpt lat="44.05984" lon="3.17234">
        <ele>794.2</ele>
        <time>2019-05-31T10:09:38Z</time>
      </trkpt>
      <trkpt lat="44.05987" lon="3.17238">
        <ele>794.1</ele>
        <time>2019-05-31T10:09:39Z</time>
      </trkpt>
      <trkpt lat="44.05989" lon="3.17241">
        <ele>794.2</ele>
        <time>2019-05-31T10:09:40Z</time>
      </trkpt>
      <trkpt lat="44.05991" lon="3.17243">
        <ele>794.2</ele>
        <time>2019-05-31T10:09:41Z</time>
      </trkpt>
      <trkpt lat="44.05994" lon="3.17248">
        <ele>794.2</ele>
        <time>2019-05-31T10:09:43Z</time>
      </trkpt>
      <trkpt lat="44.05996" lon="3.17251">
        <ele>794.3</ele>
        <time>2019-05-31T10:09:44Z</time>
      </trkpt>
      <trkpt lat="44.05999" lon="3.17255">
        <ele>794.3</ele>
        <time>2019-05-31T10:09:45Z</time>
      </trkpt>
      <trkpt lat="44.06001" lon="3.17258">
        <ele>794.3</ele>
        <time>2019-05-31T10:09:46Z</time>
      </trkpt>
      <trkpt lat="44.06004" lon="3.17261">
        <ele>794.4</ele>
        <time>2019-05-31T10:09:47Z</time>
      </trkpt>
      <trkpt lat="44.06006" lon="3.17264">
        <ele>794.5</ele>
        <time>2019-05-31T10:09:48Z</time>
      </trkpt>
      <trkpt lat="44.06008" lon="3.17267">
        <ele>794.6</ele>
        <time>2019-05-31T10:09:49Z</time>
      </trkpt>
      <trkpt lat="44.0601" lon="3.1727">
        <ele>794.7</ele>
        <time>2019-05-31T10:09:50Z</time>
      </trkpt>
      <trkpt lat="44.06012" lon="3.17272">
        <ele>794.8</ele>
        <time>2019-05-31T10:09:51Z</time>
      </trkpt>
      <trkpt lat="44.06014" lon="3.17275">
        <ele>794.9</ele>
        <time>2019-05-31T10:09:52Z</time>
      </trkpt>
      <trkpt lat="44.06017" lon="3.1728">
        <ele>795.1</ele>
        <time>2019-05-31T10:09:54Z</time>
      </trkpt>
      <trkpt lat="44.06019" lon="3.17285">
        <ele>795.2</ele>
        <time>2019-05-31T10:09:56Z</time>
      </trkpt>
      <trkpt lat="44.06023" lon="3.17291">
        <ele>795.4</ele>
        <time>2019-05-31T10:09:58Z</time>
      </trkpt>
      <trkpt lat="44.06025" lon="3.17295">
        <ele>795.5</ele>
        <time>2019-05-31T10:09:59Z</time>
      </trkpt>
      <trkpt lat="44.06027" lon="3.17298">
        <ele>795.7</ele>
        <time>2019-05-31T10:10:00Z</time>
      </trkpt>
      <trkpt lat="44.06029" lon="3.17301">
        <ele>795.8</ele>
        <time>2019-05-31T10:10:01Z</time>
      </trkpt>
      <trkpt lat="44.06032" lon="3.17305">
        <ele>795.9</ele>
        <time>2019-05-31T10:10:02Z</time>
      </trkpt>
      <trkpt lat="44.06033" lon="3.17309">
        <ele>796</ele>
        <time>2019-05-31T10:10:03Z</time>
      </trkpt>
      <trkpt lat="44.06035" lon="3.17312">
        <ele>796.1</ele>
        <time>2019-05-31T10:10:04Z</time>
      </trkpt>
      <trkpt lat="44.06037" lon="3.17317">
        <ele>796.2</ele>
        <time>2019-05-31T10:10:05Z</time>
      </trkpt>
      <trkpt lat="44.06038" lon="3.17321">
        <ele>796.3</ele>
        <time>2019-05-31T10:10:06Z</time>
      </trkpt>
      <trkpt lat="44.06041" lon="3.17327">
        <ele>796.5</ele>
        <time>2019-05-31T10:10:08Z</time>
      </trkpt>
      <trkpt lat="44.06043" lon="3.17333">
        <ele>796.6</ele>
        <time>2019-05-31T10:10:10Z</time>
      </trkpt>
      <trkpt lat="44.06044" lon="3.17337">
        <ele>796.8</ele>
        <time>2019-05-31T10:10:11Z</time>
      </trkpt>
      <trkpt lat="44.06045" lon="3.17343">
        <ele>796.9</ele>
        <time>2019-05-31T10:10:12Z</time>
      </trkpt>
      <trkpt lat="44.06047" lon="3.17349">
        <ele>797.1</ele>
        <time>2019-05-31T10:10:13Z</time>
      </trkpt>
      <trkpt lat="44.06049" lon="3.17354">
        <ele>797.2</ele>
        <time>2019-05-31T10:10:14Z</time>
      </trkpt>
      <trkpt lat="44.06052" lon="3.17359">
        <ele>797.3</ele>
        <time>2019-05-31T10:10:15Z</time>
      </trkpt>
      <trkpt lat="44.06054" lon="3.17364">
        <ele>797.5</ele>
        <time>2019-05-31T10:10:16Z</time>
      </trkpt>
      <trkpt lat="44.06055" lon="3.17369">
        <ele>797.6</ele>
        <time>2019-05-31T10:10:17Z</time>
      </trkpt>
      <trkpt lat="44.06055" lon="3.17375">
        <ele>797.7</ele>
        <time>2019-05-31T10:10:18Z</time>
      </trkpt>
      <trkpt lat="44.06055" lon="3.17379">
        <ele>797.8</ele>
        <time>2019-05-31T10:10:19Z</time>
      </trkpt>
      <trkpt lat="44.06055" lon="3.17384">
        <ele>797.9</ele>
        <time>2019-05-31T10:10:20Z</time>
      </trkpt>
      <trkpt lat="44.06055" lon="3.17391">
        <ele>798.1</ele>
        <time>2019-05-31T10:10:21Z</time>
      </trkpt>
      <trkpt lat="44.06057" lon="3.17398">
        <ele>798.3</ele>
        <time>2019-05-31T10:10:22Z</time>
      </trkpt>
      <trkpt lat="44.06058" lon="3.17405">
        <ele>798.6</ele>
        <time>2019-05-31T10:10:23Z</time>
      </trkpt>
      <trkpt lat="44.06059" lon="3.17411">
        <ele>798.7</ele>
        <time>2019-05-31T10:10:24Z</time>
      </trkpt>
      <trkpt lat="44.06059" lon="3.17425">
        <ele>798.9</ele>
        <time>2019-05-31T10:10:25Z</time>
      </trkpt>
      <trkpt lat="44.06059" lon="3.1743">
        <ele>799</ele>
        <time>2019-05-31T10:10:26Z</time>
      </trkpt>
      <trkpt lat="44.0606" lon="3.17438">
        <ele>799.1</ele>
        <time>2019-05-31T10:10:27Z</time>
      </trkpt>
      <trkpt lat="44.0606" lon="3.17448">
        <ele>799.4</ele>
        <time>2019-05-31T10:10:28Z</time>
      </trkpt>
      <trkpt lat="44.06059" lon="3.17457">
        <ele>799.6</ele>
        <time>2019-05-31T10:10:29Z</time>
      </trkpt>
      <trkpt lat="44.06059" lon="3.17466">
        <ele>799.8</ele>
        <time>2019-05-31T10:10:30Z</time>
      </trkpt>
      <trkpt lat="44.06058" lon="3.17473">
        <ele>800</ele>
        <time>2019-05-31T10:10:31Z</time>
      </trkpt>
      <trkpt lat="44.06058" lon="3.17482">
        <ele>800.1</ele>
        <time>2019-05-31T10:10:32Z</time>
      </trkpt>
      <trkpt lat="44.06058" lon="3.1749">
        <ele>800.3</ele>
        <time>2019-05-31T10:10:33Z</time>
      </trkpt>
      <trkpt lat="44.06057" lon="3.17499">
        <ele>800.5</ele>
        <time>2019-05-31T10:10:34Z</time>
      </trkpt>
      <trkpt lat="44.06057" lon="3.17504">
        <ele>800.5</ele>
        <time>2019-05-31T10:10:35Z</time>
      </trkpt>
      <trkpt lat="44.06055" lon="3.17513">
        <ele>800.7</ele>
        <time>2019-05-31T10:10:36Z</time>
      </trkpt>
      <trkpt lat="44.06056" lon="3.17519">
        <ele>800.8</ele>
        <time>2019-05-31T10:10:37Z</time>
      </trkpt>
      <trkpt lat="44.06056" lon="3.17529">
        <ele>800.9</ele>
        <time>2019-05-31T10:10:38Z</time>
      </trkpt>
      <trkpt lat="44.06056" lon="3.17537">
        <ele>801</ele>
        <time>2019-05-31T10:10:39Z</time>
      </trkpt>
      <trkpt lat="44.06056" lon="3.17545">
        <ele>801.1</ele>
        <time>2019-05-31T10:10:40Z</time>
      </trkpt>
      <trkpt lat="44.06055" lon="3.17553">
        <ele>801.1</ele>
        <time>2019-05-31T10:10:41Z</time>
      </trkpt>
      <trkpt lat="44.06053" lon="3.1756">
        <ele>801.1</ele>
        <time>2019-05-31T10:10:42Z</time>
      </trkpt>
      <trkpt lat="44.06052" lon="3.17571">
        <ele>801.1</ele>
        <time>2019-05-31T10:10:43Z</time>
      </trkpt>
      <trkpt lat="44.06054" lon="3.17578">
        <ele>801.1</ele>
        <time>2019-05-31T10:10:44Z</time>
      </trkpt>
      <trkpt lat="44.06056" lon="3.17588">
        <ele>801</ele>
        <time>2019-05-31T10:10:45Z</time>
      </trkpt>
      <trkpt lat="44.06055" lon="3.17597">
        <ele>801</ele>
        <time>2019-05-31T10:10:46Z</time>
      </trkpt>
      <trkpt lat="44.06056" lon="3.17607">
        <ele>800.8</ele>
        <time>2019-05-31T10:10:47Z</time>
      </trkpt>
      <trkpt lat="44.06052" lon="3.17616">
        <ele>800.7</ele>
        <time>2019-05-31T10:10:48Z</time>
      </trkpt>
      <trkpt lat="44.06051" lon="3.17624">
        <ele>800.6</ele>
        <time>2019-05-31T10:10:49Z</time>
      </trkpt>
      <trkpt lat="44.06051" lon="3.17631">
        <ele>800.5</ele>
        <time>2019-05-31T10:10:50Z</time>
      </trkpt>
      <trkpt lat="44.06051" lon="3.17642">
        <ele>800.3</ele>
        <time>2019-05-31T10:10:51Z</time>
      </trkpt>
      <trkpt lat="44.0605" lon="3.17653">
        <ele>800.2</ele>
        <time>2019-05-31T10:10:52Z</time>
      </trkpt>
      <trkpt lat="44.06048" lon="3.17662">
        <ele>800</ele>
        <time>2019-05-31T10:10:53Z</time>
      </trkpt>
      <trkpt lat="44.06045" lon="3.1767">
        <ele>799.9</ele>
        <time>2019-05-31T10:10:54Z</time>
      </trkpt>
      <trkpt lat="44.06046" lon="3.17678">
        <ele>799.8</ele>
        <time>2019-05-31T10:10:55Z</time>
      </trkpt>
      <trkpt lat="44.06046" lon="3.17687">
        <ele>799.7</ele>
        <time>2019-05-31T10:10:56Z</time>
      </trkpt>
      <trkpt lat="44.06046" lon="3.17696">
        <ele>799.6</ele>
        <time>2019-05-31T10:10:57Z</time>
      </trkpt>
      <trkpt lat="44.06047" lon="3.17705">
        <ele>799.5</ele>
        <time>2019-05-31T10:10:58Z</time>
      </trkpt>
      <trkpt lat="44.06047" lon="3.17714">
        <ele>799.4</ele>
        <time>2019-05-31T10:10:59Z</time>
      </trkpt>
      <trkpt lat="44.06047" lon="3.17725">
        <ele>799.4</ele>
        <time>2019-05-31T10:11:00Z</time>
      </trkpt>
      <trkpt lat="44.06048" lon="3.17737">
        <ele>799.3</ele>
        <time>2019-05-31T10:11:01Z</time>
      </trkpt>
      <trkpt lat="44.0605" lon="3.17749">
        <ele>799.3</ele>
        <time>2019-05-31T10:11:02Z</time>
      </trkpt>
      <trkpt lat="44.06052" lon="3.1776">
        <ele>799.3</ele>
        <time>2019-05-31T10:11:03Z</time>
      </trkpt>
      <trkpt lat="44.06055" lon="3.17767">
        <ele>799.3</ele>
        <time>2019-05-31T10:11:04Z</time>
      </trkpt>
      <trkpt lat="44.06057" lon="3.17776">
        <ele>799.3</ele>
        <time>2019-05-31T10:11:05Z</time>
      </trkpt>
      <trkpt lat="44.0606" lon="3.17784">
        <ele>799.3</ele>
        <time>2019-05-31T10:11:06Z</time>
      </trkpt>
      <trkpt lat="44.06061" lon="3.17794">
        <ele>799.3</ele>
        <time>2019-05-31T10:11:07Z</time>
      </trkpt>
      <trkpt lat="44.06062" lon="3.17804">
        <ele>799.2</ele>
        <time>2019-05-31T10:11:08Z</time>
      </trkpt>
      <trkpt lat="44.06062" lon="3.17812">
        <ele>799.2</ele>
        <time>2019-05-31T10:11:09Z</time>
      </trkpt>
      <trkpt lat="44.06062" lon="3.1782">
        <ele>799.2</ele>
        <time>2019-05-31T10:11:10Z</time>
      </trkpt>
      <trkpt lat="44.06063" lon="3.17827">
        <ele>799.1</ele>
        <time>2019-05-31T10:11:11Z</time>
      </trkpt>
      <trkpt lat="44.06063" lon="3.17832">
        <ele>799.1</ele>
        <time>2019-05-31T10:11:12Z</time>
      </trkpt>
      <trkpt lat="44.06064" lon="3.17838">
        <ele>799</ele>
        <time>2019-05-31T10:11:13Z</time>
      </trkpt>
      <trkpt lat="44.06064" lon="3.17843">
        <ele>799</ele>
        <time>2019-05-31T10:11:14Z</time>
      </trkpt>
      <trkpt lat="44.06068" lon="3.17848">
        <ele>798.9</ele>
        <time>2019-05-31T10:11:15Z</time>
      </trkpt>
      <trkpt lat="44.06069" lon="3.17853">
        <ele>798.9</ele>
        <time>2019-05-31T10:11:16Z</time>
      </trkpt>
      <trkpt lat="44.0607" lon="3.17858">
        <ele>798.8</ele>
        <time>2019-05-31T10:11:17Z</time>
      </trkpt>
      <trkpt lat="44.0607" lon="3.17865">
        <ele>798.7</ele>
        <time>2019-05-31T10:11:18Z</time>
      </trkpt>
      <trkpt lat="44.06069" lon="3.17871">
        <ele>798.6</ele>
        <time>2019-05-31T10:11:19Z</time>
      </trkpt>
      <trkpt lat="44.06068" lon="3.17877">
        <ele>798.6</ele>
        <time>2019-05-31T10:11:20Z</time>
      </trkpt>
      <trkpt lat="44.06066" lon="3.17884">
        <ele>798.5</ele>
        <time>2019-05-31T10:11:21Z</time>
      </trkpt>
      <trkpt lat="44.06065" lon="3.17891">
        <ele>798.4</ele>
        <time>2019-05-31T10:11:22Z</time>
      </trkpt>
      <trkpt lat="44.06065" lon="3.17898">
        <ele>798.3</ele>
        <time>2019-05-31T10:11:23Z</time>
      </trkpt>
      <trkpt lat="44.06064" lon="3.17906">
        <ele>798.2</ele>
        <time>2019-05-31T10:11:24Z</time>
      </trkpt>
      <trkpt lat="44.06064" lon="3.17914">
        <ele>798.1</ele>
        <time>2019-05-31T10:11:25Z</time>
      </trkpt>
      <trkpt lat="44.06064" lon="3.17921">
        <ele>797.9</ele>
        <time>2019-05-31T10:11:26Z</time>
      </trkpt>
      <trkpt lat="44.06065" lon="3.1793">
        <ele>797.8</ele>
        <time>2019-05-31T10:11:27Z</time>
      </trkpt>
      <trkpt lat="44.06066" lon="3.17936">
        <ele>797.6</ele>
        <time>2019-05-31T10:11:28Z</time>
      </trkpt>
      <trkpt lat="44.06067" lon="3.17943">
        <ele>797.5</ele>
        <time>2019-05-31T10:11:29Z</time>
      </trkpt>
      <trkpt lat="44.06068" lon="3.1795">
        <ele>797.3</ele>
        <time>2019-05-31T10:11:30Z</time>
      </trkpt>
      <trkpt lat="44.0607" lon="3.17958">
        <ele>797.1</ele>
        <time>2019-05-31T10:11:31Z</time>
      </trkpt>
      <trkpt lat="44.06071" lon="3.17964">
        <ele>796.9</ele>
        <time>2019-05-31T10:11:32Z</time>
      </trkpt>
      <trkpt lat="44.06071" lon="3.1797">
        <ele>796.8</ele>
        <time>2019-05-31T10:11:33Z</time>
      </trkpt>
      <trkpt lat="44.06072" lon="3.17973">
        <ele>796.7</ele>
        <time>2019-05-31T10:11:34Z</time>
      </trkpt>
      <trkpt lat="44.06073" lon="3.1798">
        <ele>796.5</ele>
        <time>2019-05-31T10:11:36Z</time>
      </trkpt>
      <trkpt lat="44.06075" lon="3.17985">
        <ele>796.4</ele>
        <time>2019-05-31T10:11:39Z</time>
      </trkpt>
      <trkpt lat="44.06077" lon="3.1799">
        <ele>796.2</ele>
        <time>2019-05-31T10:11:40Z</time>
      </trkpt>
      <trkpt lat="44.06077" lon="3.17994">
        <ele>796.1</ele>
        <time>2019-05-31T10:11:41Z</time>
      </trkpt>
      <trkpt lat="44.06079" lon="3.17999">
        <ele>796</ele>
        <time>2019-05-31T10:11:42Z</time>
      </trkpt>
      <trkpt lat="44.06078" lon="3.18004">
        <ele>795.9</ele>
        <time>2019-05-31T10:11:43Z</time>
      </trkpt>
      <trkpt lat="44.06079" lon="3.1801">
        <ele>795.7</ele>
        <time>2019-05-31T10:11:44Z</time>
      </trkpt>
      <trkpt lat="44.06079" lon="3.18016">
        <ele>795.6</ele>
        <time>2019-05-31T10:11:45Z</time>
      </trkpt>
      <trkpt lat="44.0608" lon="3.18022">
        <ele>795.4</ele>
        <time>2019-05-31T10:11:46Z</time>
      </trkpt>
      <trkpt lat="44.06081" lon="3.18028">
        <ele>795.2</ele>
        <time>2019-05-31T10:11:47Z</time>
      </trkpt>
      <trkpt lat="44.06081" lon="3.18033">
        <ele>795.1</ele>
        <time>2019-05-31T10:11:48Z</time>
      </trkpt>
      <trkpt lat="44.06082" lon="3.18039">
        <ele>794.8</ele>
        <time>2019-05-31T10:11:49Z</time>
      </trkpt>
      <trkpt lat="44.06082" lon="3.18044">
        <ele>794.7</ele>
        <time>2019-05-31T10:11:50Z</time>
      </trkpt>
      <trkpt lat="44.06083" lon="3.18049">
        <ele>794.5</ele>
        <time>2019-05-31T10:11:51Z</time>
      </trkpt>
      <trkpt lat="44.06084" lon="3.18055">
        <ele>794.4</ele>
        <time>2019-05-31T10:11:52Z</time>
      </trkpt>
      <trkpt lat="44.06086" lon="3.18059">
        <ele>794.3</ele>
        <time>2019-05-31T10:11:53Z</time>
      </trkpt>
      <trkpt lat="44.06088" lon="3.18063">
        <ele>794.2</ele>
        <time>2019-05-31T10:11:54Z</time>
      </trkpt>
      <trkpt lat="44.0609" lon="3.18066">
        <ele>794.1</ele>
        <time>2019-05-31T10:11:55Z</time>
      </trkpt>
      <trkpt lat="44.06093" lon="3.18068">
        <ele>794</ele>
        <time>2019-05-31T10:11:56Z</time>
      </trkpt>
      <trkpt lat="44.06096" lon="3.1807">
        <ele>793.8</ele>
        <time>2019-05-31T10:11:57Z</time>
      </trkpt>
      <trkpt lat="44.06099" lon="3.18072">
        <ele>793.7</ele>
        <time>2019-05-31T10:11:58Z</time>
      </trkpt>
      <trkpt lat="44.06102" lon="3.18071">
        <ele>793.6</ele>
        <time>2019-05-31T10:11:59Z</time>
      </trkpt>
      <trkpt lat="44.06105" lon="3.18069">
        <ele>793.5</ele>
        <time>2019-05-31T10:12:00Z</time>
      </trkpt>
      <trkpt lat="44.06107" lon="3.18066">
        <ele>793.3</ele>
        <time>2019-05-31T10:12:01Z</time>
      </trkpt>
      <trkpt lat="44.06109" lon="3.18063">
        <ele>793.2</ele>
        <time>2019-05-31T10:12:02Z</time>
      </trkpt>
      <trkpt lat="44.06111" lon="3.1806">
        <ele>793.1</ele>
        <time>2019-05-31T10:12:03Z</time>
      </trkpt>
      <trkpt lat="44.06113" lon="3.18057">
        <ele>793</ele>
        <time>2019-05-31T10:12:04Z</time>
      </trkpt>
      <trkpt lat="44.06118" lon="3.18057">
        <ele>792.7</ele>
        <time>2019-05-31T10:12:06Z</time>
      </trkpt>
      <trkpt lat="44.06122" lon="3.18063">
        <ele>792.5</ele>
        <time>2019-05-31T10:12:08Z</time>
      </trkpt>
      <trkpt lat="44.06123" lon="3.18067">
        <ele>792.4</ele>
        <time>2019-05-31T10:12:09Z</time>
      </trkpt>
      <trkpt lat="44.06124" lon="3.18072">
        <ele>792.3</ele>
        <time>2019-05-31T10:12:10Z</time>
      </trkpt>
      <trkpt lat="44.06125" lon="3.18076">
        <ele>792.2</ele>
        <time>2019-05-31T10:12:11Z</time>
      </trkpt>
      <trkpt lat="44.06127" lon="3.18082">
        <ele>792</ele>
        <time>2019-05-31T10:12:13Z</time>
      </trkpt>
      <trkpt lat="44.06132" lon="3.18085">
        <ele>791.8</ele>
        <time>2019-05-31T10:12:15Z</time>
      </trkpt>
      <trkpt lat="44.06136" lon="3.18084">
        <ele>790.9</ele>
        <time>2019-05-31T10:12:16Z</time>
      </trkpt>
      <trkpt lat="44.06139" lon="3.18082">
        <ele>791</ele>
        <time>2019-05-31T10:12:17Z</time>
      </trkpt>
      <trkpt lat="44.06143" lon="3.18081">
        <ele>791.1</ele>
        <time>2019-05-31T10:12:18Z</time>
      </trkpt>
      <trkpt lat="44.06147" lon="3.1808">
        <ele>791.2</ele>
        <time>2019-05-31T10:12:19Z</time>
      </trkpt>
      <trkpt lat="44.0615" lon="3.1808">
        <ele>791.3</ele>
        <time>2019-05-31T10:12:20Z</time>
      </trkpt>
      <trkpt lat="44.06154" lon="3.1808">
        <ele>791.4</ele>
        <time>2019-05-31T10:12:21Z</time>
      </trkpt>
      <trkpt lat="44.06157" lon="3.1808">
        <ele>791.5</ele>
        <time>2019-05-31T10:12:22Z</time>
      </trkpt>
      <trkpt lat="44.0616" lon="3.1808">
        <ele>791.7</ele>
        <time>2019-05-31T10:12:23Z</time>
      </trkpt>
      <trkpt lat="44.06164" lon="3.18079">
        <ele>791.8</ele>
        <time>2019-05-31T10:12:24Z</time>
      </trkpt>
      <trkpt lat="44.06167" lon="3.18077">
        <ele>792</ele>
        <time>2019-05-31T10:12:25Z</time>
      </trkpt>
      <trkpt lat="44.06171" lon="3.18074">
        <ele>792.1</ele>
        <time>2019-05-31T10:12:26Z</time>
      </trkpt>
      <trkpt lat="44.06175" lon="3.18071">
        <ele>792.3</ele>
        <time>2019-05-31T10:12:27Z</time>
      </trkpt>
      <trkpt lat="44.06179" lon="3.18069">
        <ele>792.5</ele>
        <time>2019-05-31T10:12:28Z</time>
      </trkpt>
      <trkpt lat="44.06182" lon="3.18067">
        <ele>792.6</ele>
        <time>2019-05-31T10:12:29Z</time>
      </trkpt>
      <trkpt lat="44.06186" lon="3.18065">
        <ele>792.7</ele>
        <time>2019-05-31T10:12:30Z</time>
      </trkpt>
      <trkpt lat="44.0619" lon="3.18064">
        <ele>792.8</ele>
        <time>2019-05-31T10:12:31Z</time>
      </trkpt>
      <trkpt lat="44.06193" lon="3.18063">
        <ele>792.9</ele>
        <time>2019-05-31T10:12:32Z</time>
      </trkpt>
      <trkpt lat="44.06196" lon="3.18062">
        <ele>793.1</ele>
        <time>2019-05-31T10:12:33Z</time>
      </trkpt>
      <trkpt lat="44.062" lon="3.18062">
        <ele>793.1</ele>
        <time>2019-05-31T10:12:34Z</time>
      </trkpt>
      <trkpt lat="44.06203" lon="3.18061">
        <ele>793.2</ele>
        <time>2019-05-31T10:12:35Z</time>
      </trkpt>
      <trkpt lat="44.06206" lon="3.18059">
        <ele>793.3</ele>
        <time>2019-05-31T10:12:36Z</time>
      </trkpt>
      <trkpt lat="44.06209" lon="3.18058">
        <ele>793.4</ele>
        <time>2019-05-31T10:12:37Z</time>
      </trkpt>
      <trkpt lat="44.06213" lon="3.18053">
        <ele>793.5</ele>
        <time>2019-05-31T10:12:39Z</time>
      </trkpt>
      <trkpt lat="44.06217" lon="3.18049">
        <ele>793.7</ele>
        <time>2019-05-31T10:12:41Z</time>
      </trkpt>
      <trkpt lat="44.0622" lon="3.18048">
        <ele>793.8</ele>
        <time>2019-05-31T10:12:42Z</time>
      </trkpt>
      <trkpt lat="44.06223" lon="3.18046">
        <ele>793.9</ele>
        <time>2019-05-31T10:12:43Z</time>
      </trkpt>
      <trkpt lat="44.06226" lon="3.18045">
        <ele>794</ele>
        <time>2019-05-31T10:12:44Z</time>
      </trkpt>
      <trkpt lat="44.06229" lon="3.18043">
        <ele>794</ele>
        <time>2019-05-31T10:12:45Z</time>
      </trkpt>
      <trkpt lat="44.06232" lon="3.18041">
        <ele>794.1</ele>
        <time>2019-05-31T10:12:46Z</time>
      </trkpt>
      <trkpt lat="44.06234" lon="3.18038">
        <ele>794.2</ele>
        <time>2019-05-31T10:12:47Z</time>
      </trkpt>
      <trkpt lat="44.06237" lon="3.18037">
        <ele>794.4</ele>
        <time>2019-05-31T10:12:48Z</time>
      </trkpt>
      <trkpt lat="44.06241" lon="3.18035">
        <ele>794.5</ele>
        <time>2019-05-31T10:12:49Z</time>
      </trkpt>
      <trkpt lat="44.06244" lon="3.18033">
        <ele>794.6</ele>
        <time>2019-05-31T10:12:50Z</time>
      </trkpt>
      <trkpt lat="44.06247" lon="3.1803">
        <ele>794.8</ele>
        <time>2019-05-31T10:12:51Z</time>
      </trkpt>
      <trkpt lat="44.0625" lon="3.18028">
        <ele>794.9</ele>
        <time>2019-05-31T10:12:52Z</time>
      </trkpt>
      <trkpt lat="44.06252" lon="3.18025">
        <ele>794.9</ele>
        <time>2019-05-31T10:12:53Z</time>
      </trkpt>
      <trkpt lat="44.06257" lon="3.18021">
        <ele>795.2</ele>
        <time>2019-05-31T10:12:55Z</time>
      </trkpt>
      <trkpt lat="44.0626" lon="3.18018">
        <ele>795.4</ele>
        <time>2019-05-31T10:12:56Z</time>
      </trkpt>
      <trkpt lat="44.06263" lon="3.18016">
        <ele>795.5</ele>
        <time>2019-05-31T10:12:57Z</time>
      </trkpt>
      <trkpt lat="44.06265" lon="3.18013">
        <ele>795.6</ele>
        <time>2019-05-31T10:12:58Z</time>
      </trkpt>
      <trkpt lat="44.06267" lon="3.18011">
        <ele>795.7</ele>
        <time>2019-05-31T10:12:59Z</time>
      </trkpt>
      <trkpt lat="44.0627" lon="3.18008">
        <ele>795.9</ele>
        <time>2019-05-31T10:13:00Z</time>
      </trkpt>
      <trkpt lat="44.06272" lon="3.18005">
        <ele>796.1</ele>
        <time>2019-05-31T10:13:01Z</time>
      </trkpt>
      <trkpt lat="44.06276" lon="3.17999">
        <ele>796.2</ele>
        <time>2019-05-31T10:13:03Z</time>
      </trkpt>
      <trkpt lat="44.06279" lon="3.17996">
        <ele>796.3</ele>
        <time>2019-05-31T10:13:04Z</time>
      </trkpt>
      <trkpt lat="44.06282" lon="3.17993">
        <ele>796.4</ele>
        <time>2019-05-31T10:13:05Z</time>
      </trkpt>
      <trkpt lat="44.06285" lon="3.1799">
        <ele>796.5</ele>
        <time>2019-05-31T10:13:06Z</time>
      </trkpt>
      <trkpt lat="44.06288" lon="3.17987">
        <ele>796.6</ele>
        <time>2019-05-31T10:13:07Z</time>
      </trkpt>
      <trkpt lat="44.06291" lon="3.17984">
        <ele>796.7</ele>
        <time>2019-05-31T10:13:08Z</time>
      </trkpt>
      <trkpt lat="44.06294" lon="3.17982">
        <ele>796.8</ele>
        <time>2019-05-31T10:13:09Z</time>
      </trkpt>
      <trkpt lat="44.06298" lon="3.1798">
        <ele>796.9</ele>
        <time>2019-05-31T10:13:10Z</time>
      </trkpt>
      <trkpt lat="44.06301" lon="3.17978">
        <ele>797</ele>
        <time>2019-05-31T10:13:11Z</time>
      </trkpt>
      <trkpt lat="44.06304" lon="3.17976">
        <ele>797.1</ele>
        <time>2019-05-31T10:13:12Z</time>
      </trkpt>
      <trkpt lat="44.06307" lon="3.17975">
        <ele>797.2</ele>
        <time>2019-05-31T10:13:13Z</time>
      </trkpt>
      <trkpt lat="44.0631" lon="3.17972">
        <ele>797.3</ele>
        <time>2019-05-31T10:13:14Z</time>
      </trkpt>
      <trkpt lat="44.06314" lon="3.1797">
        <ele>797.4</ele>
        <time>2019-05-31T10:13:15Z</time>
      </trkpt>
      <trkpt lat="44.06317" lon="3.17969">
        <ele>797.5</ele>
        <time>2019-05-31T10:13:16Z</time>
      </trkpt>
      <trkpt lat="44.06321" lon="3.17966">
        <ele>797.8</ele>
        <time>2019-05-31T10:13:18Z</time>
      </trkpt>
      <trkpt lat="44.06325" lon="3.17964">
        <ele>797.9</ele>
        <time>2019-05-31T10:13:19Z</time>
      </trkpt>
      <trkpt lat="44.06328" lon="3.17963">
        <ele>798.1</ele>
        <time>2019-05-31T10:13:20Z</time>
      </trkpt>
      <trkpt lat="44.06331" lon="3.17961">
        <ele>798.3</ele>
        <time>2019-05-31T10:13:21Z</time>
      </trkpt>
      <trkpt lat="44.06334" lon="3.1796">
        <ele>798.4</ele>
        <time>2019-05-31T10:13:22Z</time>
      </trkpt>
      <trkpt lat="44.06338" lon="3.17959">
        <ele>798.6</ele>
        <time>2019-05-31T10:13:23Z</time>
      </trkpt>
      <trkpt lat="44.06342" lon="3.17958">
        <ele>798.8</ele>
        <time>2019-05-31T10:13:24Z</time>
      </trkpt>
      <trkpt lat="44.06345" lon="3.17957">
        <ele>798.9</ele>
        <time>2019-05-31T10:13:25Z</time>
      </trkpt>
      <trkpt lat="44.06348" lon="3.17956">
        <ele>798.9</ele>
        <time>2019-05-31T10:13:26Z</time>
      </trkpt>
      <trkpt lat="44.06354" lon="3.17955">
        <ele>799.1</ele>
        <time>2019-05-31T10:13:28Z</time>
      </trkpt>
      <trkpt lat="44.06358" lon="3.17954">
        <ele>799.3</ele>
        <time>2019-05-31T10:13:29Z</time>
      </trkpt>
      <trkpt lat="44.06361" lon="3.17954">
        <ele>799.4</ele>
        <time>2019-05-31T10:13:30Z</time>
      </trkpt>
      <trkpt lat="44.06364" lon="3.17953">
        <ele>799.5</ele>
        <time>2019-05-31T10:13:31Z</time>
      </trkpt>
      <trkpt lat="44.06367" lon="3.17952">
        <ele>799.6</ele>
        <time>2019-05-31T10:13:32Z</time>
      </trkpt>
      <trkpt lat="44.06371" lon="3.17952">
        <ele>799.7</ele>
        <time>2019-05-31T10:13:33Z</time>
      </trkpt>
      <trkpt lat="44.06375" lon="3.17951">
        <ele>799.8</ele>
        <time>2019-05-31T10:13:34Z</time>
      </trkpt>
      <trkpt lat="44.06378" lon="3.17949">
        <ele>799.9</ele>
        <time>2019-05-31T10:13:35Z</time>
      </trkpt>
      <trkpt lat="44.06382" lon="3.17947">
        <ele>800</ele>
        <time>2019-05-31T10:13:36Z</time>
      </trkpt>
      <trkpt lat="44.06386" lon="3.17946">
        <ele>800.1</ele>
        <time>2019-05-31T10:13:37Z</time>
      </trkpt>
      <trkpt lat="44.06389" lon="3.17944">
        <ele>800.3</ele>
        <time>2019-05-31T10:13:38Z</time>
      </trkpt>
      <trkpt lat="44.06393" lon="3.17943">
        <ele>800.4</ele>
        <time>2019-05-31T10:13:39Z</time>
      </trkpt>
      <trkpt lat="44.06396" lon="3.17941">
        <ele>800.5</ele>
        <time>2019-05-31T10:13:40Z</time>
      </trkpt>
      <trkpt lat="44.06399" lon="3.1794">
        <ele>800.6</ele>
        <time>2019-05-31T10:13:41Z</time>
      </trkpt>
      <trkpt lat="44.06403" lon="3.17938">
        <ele>800.8</ele>
        <time>2019-05-31T10:13:42Z</time>
      </trkpt>
      <trkpt lat="44.06406" lon="3.17937">
        <ele>801</ele>
        <time>2019-05-31T10:13:43Z</time>
      </trkpt>
      <trkpt lat="44.06409" lon="3.17935">
        <ele>801.1</ele>
        <time>2019-05-31T10:13:44Z</time>
      </trkpt>
      <trkpt lat="44.06413" lon="3.17934">
        <ele>801.3</ele>
        <time>2019-05-31T10:13:45Z</time>
      </trkpt>
      <trkpt lat="44.06416" lon="3.17932">
        <ele>801.4</ele>
        <time>2019-05-31T10:13:46Z</time>
      </trkpt>
      <trkpt lat="44.0642" lon="3.17931">
        <ele>801.5</ele>
        <time>2019-05-31T10:13:47Z</time>
      </trkpt>
      <trkpt lat="44.06423" lon="3.17929">
        <ele>801.6</ele>
        <time>2019-05-31T10:13:48Z</time>
      </trkpt>
      <trkpt lat="44.06426" lon="3.17927">
        <ele>801.7</ele>
        <time>2019-05-31T10:13:49Z</time>
      </trkpt>
      <trkpt lat="44.0643" lon="3.17925">
        <ele>801.8</ele>
        <time>2019-05-31T10:13:50Z</time>
      </trkpt>
      <trkpt lat="44.06433" lon="3.17923">
        <ele>801.8</ele>
        <time>2019-05-31T10:13:51Z</time>
      </trkpt>
      <trkpt lat="44.06436" lon="3.17922">
        <ele>801.8</ele>
        <time>2019-05-31T10:13:52Z</time>
      </trkpt>
      <trkpt lat="44.06438" lon="3.1792">
        <ele>801.8</ele>
        <time>2019-05-31T10:13:53Z</time>
      </trkpt>
      <trkpt lat="44.06442" lon="3.17918">
        <ele>801.8</ele>
        <time>2019-05-31T10:13:54Z</time>
      </trkpt>
      <trkpt lat="44.06445" lon="3.17917">
        <ele>801.8</ele>
        <time>2019-05-31T10:13:55Z</time>
      </trkpt>
      <trkpt lat="44.06449" lon="3.17915">
        <ele>801.7</ele>
        <time>2019-05-31T10:13:56Z</time>
      </trkpt>
      <trkpt lat="44.06453" lon="3.17913">
        <ele>801.6</ele>
        <time>2019-05-31T10:13:57Z</time>
      </trkpt>
      <trkpt lat="44.06456" lon="3.1791">
        <ele>801.5</ele>
        <time>2019-05-31T10:13:58Z</time>
      </trkpt>
      <trkpt lat="44.0646" lon="3.17908">
        <ele>801.4</ele>
        <time>2019-05-31T10:13:59Z</time>
      </trkpt>
      <trkpt lat="44.06464" lon="3.17906">
        <ele>801.3</ele>
        <time>2019-05-31T10:14:00Z</time>
      </trkpt>
      <trkpt lat="44.06469" lon="3.17906">
        <ele>801</ele>
        <time>2019-05-31T10:14:01Z</time>
      </trkpt>
      <trkpt lat="44.06474" lon="3.17906">
        <ele>800.9</ele>
        <time>2019-05-31T10:14:02Z</time>
      </trkpt>
      <trkpt lat="44.0648" lon="3.17904">
        <ele>800.7</ele>
        <time>2019-05-31T10:14:03Z</time>
      </trkpt>
      <trkpt lat="44.06484" lon="3.17901">
        <ele>800.5</ele>
        <time>2019-05-31T10:14:04Z</time>
      </trkpt>
      <trkpt lat="44.06489" lon="3.17902">
        <ele>800.4</ele>
        <time>2019-05-31T10:14:05Z</time>
      </trkpt>
      <trkpt lat="44.06494" lon="3.17901">
        <ele>800.2</ele>
        <time>2019-05-31T10:14:06Z</time>
      </trkpt>
      <trkpt lat="44.06501" lon="3.179">
        <ele>799.9</ele>
        <time>2019-05-31T10:14:07Z</time>
      </trkpt>
      <trkpt lat="44.06507" lon="3.179">
        <ele>799.7</ele>
        <time>2019-05-31T10:14:08Z</time>
      </trkpt>
      <trkpt lat="44.06515" lon="3.17898">
        <ele>799.4</ele>
        <time>2019-05-31T10:14:09Z</time>
      </trkpt>
      <trkpt lat="44.06521" lon="3.17897">
        <ele>799</ele>
        <time>2019-05-31T10:14:10Z</time>
      </trkpt>
      <trkpt lat="44.06529" lon="3.17893">
        <ele>798.4</ele>
        <time>2019-05-31T10:14:11Z</time>
      </trkpt>
      <trkpt lat="44.06536" lon="3.17891">
        <ele>797.9</ele>
        <time>2019-05-31T10:14:12Z</time>
      </trkpt>
      <trkpt lat="44.06543" lon="3.17889">
        <ele>797.3</ele>
        <time>2019-05-31T10:14:13Z</time>
      </trkpt>
      <trkpt lat="44.06551" lon="3.17886">
        <ele>796.5</ele>
        <time>2019-05-31T10:14:14Z</time>
      </trkpt>
      <trkpt lat="44.06558" lon="3.17884">
        <ele>795.8</ele>
        <time>2019-05-31T10:14:15Z</time>
      </trkpt>
      <trkpt lat="44.06567" lon="3.17882">
        <ele>795.1</ele>
        <time>2019-05-31T10:14:16Z</time>
      </trkpt>
      <trkpt lat="44.06575" lon="3.1788">
        <ele>794.7</ele>
        <time>2019-05-31T10:14:17Z</time>
      </trkpt>
      <trkpt lat="44.06583" lon="3.17878">
        <ele>794.1</ele>
        <time>2019-05-31T10:14:18Z</time>
      </trkpt>
      <trkpt lat="44.06591" lon="3.17874">
        <ele>793.8</ele>
        <time>2019-05-31T10:14:19Z</time>
      </trkpt>
      <trkpt lat="44.06599" lon="3.1787">
        <ele>793.3</ele>
        <time>2019-05-31T10:14:20Z</time>
      </trkpt>
      <trkpt lat="44.06606" lon="3.17865">
        <ele>793</ele>
        <time>2019-05-31T10:14:21Z</time>
      </trkpt>
      <trkpt lat="44.06615" lon="3.17859">
        <ele>792.6</ele>
        <time>2019-05-31T10:14:22Z</time>
      </trkpt>
      <trkpt lat="44.06623" lon="3.17854">
        <ele>792.4</ele>
        <time>2019-05-31T10:14:23Z</time>
      </trkpt>
      <trkpt lat="44.06631" lon="3.1785">
        <ele>791.9</ele>
        <time>2019-05-31T10:14:24Z</time>
      </trkpt>
      <trkpt lat="44.0664" lon="3.17846">
        <ele>791.6</ele>
        <time>2019-05-31T10:14:25Z</time>
      </trkpt>
      <trkpt lat="44.06648" lon="3.17842">
        <ele>791.4</ele>
        <time>2019-05-31T10:14:26Z</time>
      </trkpt>
      <trkpt lat="44.06657" lon="3.17839">
        <ele>791.2</ele>
        <time>2019-05-31T10:14:27Z</time>
      </trkpt>
      <trkpt lat="44.06666" lon="3.17837">
        <ele>790.9</ele>
        <time>2019-05-31T10:14:28Z</time>
      </trkpt>
      <trkpt lat="44.06675" lon="3.17835">
        <ele>790.8</ele>
        <time>2019-05-31T10:14:29Z</time>
      </trkpt>
      <trkpt lat="44.06683" lon="3.17834">
        <ele>790.6</ele>
        <time>2019-05-31T10:14:30Z</time>
      </trkpt>
      <trkpt lat="44.06691" lon="3.17834">
        <ele>790.4</ele>
        <time>2019-05-31T10:14:31Z</time>
      </trkpt>
      <trkpt lat="44.06699" lon="3.17832">
        <ele>790.2</ele>
        <time>2019-05-31T10:14:32Z</time>
      </trkpt>
      <trkpt lat="44.06706" lon="3.17831">
        <ele>790.1</ele>
        <time>2019-05-31T10:14:33Z</time>
      </trkpt>
      <trkpt lat="44.06714" lon="3.1783">
        <ele>789.9</ele>
        <time>2019-05-31T10:14:34Z</time>
      </trkpt>
      <trkpt lat="44.06721" lon="3.17829">
        <ele>789.7</ele>
        <time>2019-05-31T10:14:35Z</time>
      </trkpt>
      <trkpt lat="44.06728" lon="3.17827">
        <ele>789.6</ele>
        <time>2019-05-31T10:14:36Z</time>
      </trkpt>
      <trkpt lat="44.06734" lon="3.17826">
        <ele>789.5</ele>
        <time>2019-05-31T10:14:37Z</time>
      </trkpt>
      <trkpt lat="44.0674" lon="3.17825">
        <ele>789.4</ele>
        <time>2019-05-31T10:14:38Z</time>
      </trkpt>
      <trkpt lat="44.06747" lon="3.17824">
        <ele>789.2</ele>
        <time>2019-05-31T10:14:39Z</time>
      </trkpt>
      <trkpt lat="44.06754" lon="3.17822">
        <ele>789</ele>
        <time>2019-05-31T10:14:40Z</time>
      </trkpt>
      <trkpt lat="44.0676" lon="3.17822">
        <ele>788.9</ele>
        <time>2019-05-31T10:14:41Z</time>
      </trkpt>
      <trkpt lat="44.06767" lon="3.17821">
        <ele>788.8</ele>
        <time>2019-05-31T10:14:42Z</time>
      </trkpt>
      <trkpt lat="44.06775" lon="3.17817">
        <ele>788.5</ele>
        <time>2019-05-31T10:14:43Z</time>
      </trkpt>
      <trkpt lat="44.06782" lon="3.17814">
        <ele>788.4</ele>
        <time>2019-05-31T10:14:44Z</time>
      </trkpt>
      <trkpt lat="44.06788" lon="3.17815">
        <ele>788.3</ele>
        <time>2019-05-31T10:14:45Z</time>
      </trkpt>
      <trkpt lat="44.06795" lon="3.17816">
        <ele>788.2</ele>
        <time>2019-05-31T10:14:46Z</time>
      </trkpt>
      <trkpt lat="44.06803" lon="3.17816">
        <ele>788.1</ele>
        <time>2019-05-31T10:14:47Z</time>
      </trkpt>
      <trkpt lat="44.06812" lon="3.1781">
        <ele>788.1</ele>
        <time>2019-05-31T10:14:48Z</time>
      </trkpt>
      <trkpt lat="44.06818" lon="3.17809">
        <ele>788.1</ele>
        <time>2019-05-31T10:14:49Z</time>
      </trkpt>
      <trkpt lat="44.06825" lon="3.17809">
        <ele>788.1</ele>
        <time>2019-05-31T10:14:50Z</time>
      </trkpt>
      <trkpt lat="44.06832" lon="3.17808">
        <ele>788.2</ele>
        <time>2019-05-31T10:14:51Z</time>
      </trkpt>
      <trkpt lat="44.06838" lon="3.17808">
        <ele>788.3</ele>
        <time>2019-05-31T10:14:52Z</time>
      </trkpt>
      <trkpt lat="44.06844" lon="3.17807">
        <ele>788.5</ele>
        <time>2019-05-31T10:14:53Z</time>
      </trkpt>
      <trkpt lat="44.0685" lon="3.17806">
        <ele>788.7</ele>
        <time>2019-05-31T10:14:54Z</time>
      </trkpt>
      <trkpt lat="44.06855" lon="3.17806">
        <ele>788.9</ele>
        <time>2019-05-31T10:14:55Z</time>
      </trkpt>
      <trkpt lat="44.06861" lon="3.17807">
        <ele>789.1</ele>
        <time>2019-05-31T10:14:56Z</time>
      </trkpt>
      <trkpt lat="44.06867" lon="3.17807">
        <ele>789.3</ele>
        <time>2019-05-31T10:14:57Z</time>
      </trkpt>
      <trkpt lat="44.06872" lon="3.17804">
        <ele>789.5</ele>
        <time>2019-05-31T10:14:58Z</time>
      </trkpt>
      <trkpt lat="44.06877" lon="3.17805">
        <ele>789.7</ele>
        <time>2019-05-31T10:14:59Z</time>
      </trkpt>
      <trkpt lat="44.06883" lon="3.17807">
        <ele>789.8</ele>
        <time>2019-05-31T10:15:00Z</time>
      </trkpt>
      <trkpt lat="44.06888" lon="3.17808">
        <ele>790</ele>
        <time>2019-05-31T10:15:01Z</time>
      </trkpt>
      <trkpt lat="44.06892" lon="3.17809">
        <ele>790.1</ele>
        <time>2019-05-31T10:15:02Z</time>
      </trkpt>
      <trkpt lat="44.06896" lon="3.17809">
        <ele>790.4</ele>
        <time>2019-05-31T10:15:03Z</time>
      </trkpt>
      <trkpt lat="44.06902" lon="3.1781">
        <ele>790.6</ele>
        <time>2019-05-31T10:15:04Z</time>
      </trkpt>
      <trkpt lat="44.06908" lon="3.17811">
        <ele>790.8</ele>
        <time>2019-05-31T10:15:05Z</time>
      </trkpt>
      <trkpt lat="44.06912" lon="3.17812">
        <ele>790.9</ele>
        <time>2019-05-31T10:15:06Z</time>
      </trkpt>
      <trkpt lat="44.06917" lon="3.17815">
        <ele>791.1</ele>
        <time>2019-05-31T10:15:07Z</time>
      </trkpt>
      <trkpt lat="44.06922" lon="3.17816">
        <ele>791.1</ele>
        <time>2019-05-31T10:15:08Z</time>
      </trkpt>
      <trkpt lat="44.06927" lon="3.17817">
        <ele>791.2</ele>
        <time>2019-05-31T10:15:09Z</time>
      </trkpt>
      <trkpt lat="44.06932" lon="3.17818">
        <ele>791.3</ele>
        <time>2019-05-31T10:15:10Z</time>
      </trkpt>
      <trkpt lat="44.06937" lon="3.17819">
        <ele>791.4</ele>
        <time>2019-05-31T10:15:11Z</time>
      </trkpt>
      <trkpt lat="44.06941" lon="3.17819">
        <ele>791.4</ele>
        <time>2019-05-31T10:15:12Z</time>
      </trkpt>
      <trkpt lat="44.06946" lon="3.1782">
        <ele>791.4</ele>
        <time>2019-05-31T10:15:13Z</time>
      </trkpt>
      <trkpt lat="44.06951" lon="3.1782">
        <ele>791.4</ele>
        <time>2019-05-31T10:15:14Z</time>
      </trkpt>
      <trkpt lat="44.06956" lon="3.17821">
        <ele>791.3</ele>
        <time>2019-05-31T10:15:15Z</time>
      </trkpt>
      <trkpt lat="44.0696" lon="3.17821">
        <ele>791.3</ele>
        <time>2019-05-31T10:15:16Z</time>
      </trkpt>
      <trkpt lat="44.06964" lon="3.17822">
        <ele>791.2</ele>
        <time>2019-05-31T10:15:17Z</time>
      </trkpt>
      <trkpt lat="44.06969" lon="3.1782">
        <ele>791.1</ele>
        <time>2019-05-31T10:15:18Z</time>
      </trkpt>
      <trkpt lat="44.06973" lon="3.17819">
        <ele>791.1</ele>
        <time>2019-05-31T10:15:19Z</time>
      </trkpt>
      <trkpt lat="44.06977" lon="3.17819">
        <ele>791</ele>
        <time>2019-05-31T10:15:20Z</time>
      </trkpt>
      <trkpt lat="44.06982" lon="3.17818">
        <ele>791</ele>
        <time>2019-05-31T10:15:21Z</time>
      </trkpt>
      <trkpt lat="44.06986" lon="3.17819">
        <ele>791</ele>
        <time>2019-05-31T10:15:22Z</time>
      </trkpt>
      <trkpt lat="44.06991" lon="3.1782">
        <ele>791.1</ele>
        <time>2019-05-31T10:15:23Z</time>
      </trkpt>
      <trkpt lat="44.06998" lon="3.1782">
        <ele>791.4</ele>
        <time>2019-05-31T10:15:24Z</time>
      </trkpt>
      <trkpt lat="44.07004" lon="3.17823">
        <ele>791.7</ele>
        <time>2019-05-31T10:15:25Z</time>
      </trkpt>
      <trkpt lat="44.07008" lon="3.17828">
        <ele>792</ele>
        <time>2019-05-31T10:15:26Z</time>
      </trkpt>
      <trkpt lat="44.07013" lon="3.17834">
        <ele>792.4</ele>
        <time>2019-05-31T10:15:27Z</time>
      </trkpt>
      <trkpt lat="44.07017" lon="3.17841">
        <ele>792.8</ele>
        <time>2019-05-31T10:15:28Z</time>
      </trkpt>
      <trkpt lat="44.0702" lon="3.17849">
        <ele>793.3</ele>
        <time>2019-05-31T10:15:29Z</time>
      </trkpt>
      <trkpt lat="44.07025" lon="3.17856">
        <ele>793.8</ele>
        <time>2019-05-31T10:15:30Z</time>
      </trkpt>
      <trkpt lat="44.07031" lon="3.17861">
        <ele>794.2</ele>
        <time>2019-05-31T10:15:31Z</time>
      </trkpt>
      <trkpt lat="44.07037" lon="3.17862">
        <ele>794</ele>
        <time>2019-05-31T10:15:32Z</time>
      </trkpt>
      <trkpt lat="44.07044" lon="3.17859">
        <ele>793.9</ele>
        <time>2019-05-31T10:15:33Z</time>
      </trkpt>
      <trkpt lat="44.0705" lon="3.17855">
        <ele>793.6</ele>
        <time>2019-05-31T10:15:34Z</time>
      </trkpt>
      <trkpt lat="44.07055" lon="3.1785">
        <ele>793.2</ele>
        <time>2019-05-31T10:15:35Z</time>
      </trkpt>
      <trkpt lat="44.0706" lon="3.17845">
        <ele>792.9</ele>
        <time>2019-05-31T10:15:36Z</time>
      </trkpt>
      <trkpt lat="44.07066" lon="3.1784">
        <ele>792.8</ele>
        <time>2019-05-31T10:15:37Z</time>
      </trkpt>
      <trkpt lat="44.07071" lon="3.17836">
        <ele>792.5</ele>
        <time>2019-05-31T10:15:38Z</time>
      </trkpt>
      <trkpt lat="44.07074" lon="3.17831">
        <ele>792.3</ele>
        <time>2019-05-31T10:15:39Z</time>
      </trkpt>
      <trkpt lat="44.0708" lon="3.17828">
        <ele>792</ele>
        <time>2019-05-31T10:15:40Z</time>
      </trkpt>
      <trkpt lat="44.07085" lon="3.17822">
        <ele>791.8</ele>
        <time>2019-05-31T10:15:41Z</time>
      </trkpt>
      <trkpt lat="44.07089" lon="3.17818">
        <ele>791.8</ele>
        <time>2019-05-31T10:15:42Z</time>
      </trkpt>
      <trkpt lat="44.07093" lon="3.17812">
        <ele>791.6</ele>
        <time>2019-05-31T10:15:43Z</time>
      </trkpt>
      <trkpt lat="44.07095" lon="3.17804">
        <ele>791.4</ele>
        <time>2019-05-31T10:15:44Z</time>
      </trkpt>
      <trkpt lat="44.071" lon="3.17796">
        <ele>791.1</ele>
        <time>2019-05-31T10:15:45Z</time>
      </trkpt>
      <trkpt lat="44.07102" lon="3.17791">
        <ele>791</ele>
        <time>2019-05-31T10:15:46Z</time>
      </trkpt>
      <trkpt lat="44.07105" lon="3.17786">
        <ele>790.8</ele>
        <time>2019-05-31T10:15:47Z</time>
      </trkpt>
      <trkpt lat="44.07107" lon="3.17781">
        <ele>790.7</ele>
        <time>2019-05-31T10:15:48Z</time>
      </trkpt>
      <trkpt lat="44.07108" lon="3.17777">
        <ele>790.6</ele>
        <time>2019-05-31T10:15:49Z</time>
      </trkpt>
      <trkpt lat="44.0711" lon="3.17772">
        <ele>790.5</ele>
        <time>2019-05-31T10:15:50Z</time>
      </trkpt>
      <trkpt lat="44.07114" lon="3.17766">
        <ele>790.3</ele>
        <time>2019-05-31T10:15:51Z</time>
      </trkpt>
      <trkpt lat="44.07117" lon="3.17761">
        <ele>790.2</ele>
        <time>2019-05-31T10:15:52Z</time>
      </trkpt>
      <trkpt lat="44.07121" lon="3.17759">
        <ele>790.3</ele>
        <time>2019-05-31T10:15:54Z</time>
      </trkpt>
      <trkpt lat="44.07125" lon="3.17758">
        <ele>790.5</ele>
        <time>2019-05-31T10:15:56Z</time>
      </trkpt>
      <trkpt lat="44.07127" lon="3.17753">
        <ele>790.5</ele>
        <time>2019-05-31T10:15:58Z</time>
      </trkpt>
      <trkpt lat="44.07127" lon="3.17746">
        <ele>790.6</ele>
        <time>2019-05-31T10:16:00Z</time>
      </trkpt>
      <trkpt lat="44.07127" lon="3.1774">
        <ele>790.6</ele>
        <time>2019-05-31T10:16:02Z</time>
      </trkpt>
      <trkpt lat="44.07127" lon="3.17733">
        <ele>790.6</ele>
        <time>2019-05-31T10:16:04Z</time>
      </trkpt>
      <trkpt lat="44.07128" lon="3.17729">
        <ele>790.6</ele>
        <time>2019-05-31T10:16:05Z</time>
      </trkpt>
      <trkpt lat="44.07129" lon="3.17725">
        <ele>790.6</ele>
        <time>2019-05-31T10:16:06Z</time>
      </trkpt>
      <trkpt lat="44.0713" lon="3.17719">
        <ele>790.7</ele>
        <time>2019-05-31T10:16:07Z</time>
      </trkpt>
      <trkpt lat="44.07132" lon="3.17714">
        <ele>790.7</ele>
        <time>2019-05-31T10:16:08Z</time>
      </trkpt>
      <trkpt lat="44.07133" lon="3.17706">
        <ele>790.7</ele>
        <time>2019-05-31T10:16:09Z</time>
      </trkpt>
      <trkpt lat="44.07133" lon="3.17702">
        <ele>790.7</ele>
        <time>2019-05-31T10:16:10Z</time>
      </trkpt>
      <trkpt lat="44.07135" lon="3.17695">
        <ele>790.7</ele>
        <time>2019-05-31T10:16:11Z</time>
      </trkpt>
      <trkpt lat="44.07136" lon="3.1769">
        <ele>790.7</ele>
        <time>2019-05-31T10:16:12Z</time>
      </trkpt>
      <trkpt lat="44.07137" lon="3.17685">
        <ele>790.7</ele>
        <time>2019-05-31T10:16:13Z</time>
      </trkpt>
      <trkpt lat="44.0714" lon="3.17678">
        <ele>790.8</ele>
        <time>2019-05-31T10:16:14Z</time>
      </trkpt>
      <trkpt lat="44.07142" lon="3.17671">
        <ele>790.8</ele>
        <time>2019-05-31T10:16:15Z</time>
      </trkpt>
      <trkpt lat="44.07144" lon="3.17666">
        <ele>790.8</ele>
        <time>2019-05-31T10:16:16Z</time>
      </trkpt>
      <trkpt lat="44.07147" lon="3.1766">
        <ele>790.8</ele>
        <time>2019-05-31T10:16:17Z</time>
      </trkpt>
      <trkpt lat="44.07149" lon="3.17653">
        <ele>790.8</ele>
        <time>2019-05-31T10:16:18Z</time>
      </trkpt>
      <trkpt lat="44.07151" lon="3.17647">
        <ele>790.8</ele>
        <time>2019-05-31T10:16:19Z</time>
      </trkpt>
      <trkpt lat="44.07151" lon="3.1764">
        <ele>790.8</ele>
        <time>2019-05-31T10:16:20Z</time>
      </trkpt>
      <trkpt lat="44.07152" lon="3.17634">
        <ele>790.8</ele>
        <time>2019-05-31T10:16:21Z</time>
      </trkpt>
      <trkpt lat="44.07154" lon="3.17628">
        <ele>790.8</ele>
        <time>2019-05-31T10:16:22Z</time>
      </trkpt>
      <trkpt lat="44.07154" lon="3.17621">
        <ele>790.8</ele>
        <time>2019-05-31T10:16:23Z</time>
      </trkpt>
      <trkpt lat="44.07155" lon="3.17615">
        <ele>790.8</ele>
        <time>2019-05-31T10:16:24Z</time>
      </trkpt>
      <trkpt lat="44.07156" lon="3.17608">
        <ele>790.8</ele>
        <time>2019-05-31T10:16:25Z</time>
      </trkpt>
      <trkpt lat="44.07159" lon="3.17603">
        <ele>790.8</ele>
        <time>2019-05-31T10:16:26Z</time>
      </trkpt>
      <trkpt lat="44.0716" lon="3.17594">
        <ele>790.8</ele>
        <time>2019-05-31T10:16:27Z</time>
      </trkpt>
      <trkpt lat="44.07162" lon="3.17588">
        <ele>790.8</ele>
        <time>2019-05-31T10:16:28Z</time>
      </trkpt>
      <trkpt lat="44.07164" lon="3.17581">
        <ele>790.8</ele>
        <time>2019-05-31T10:16:29Z</time>
      </trkpt>
      <trkpt lat="44.07167" lon="3.17575">
        <ele>790.8</ele>
        <time>2019-05-31T10:16:30Z</time>
      </trkpt>
      <trkpt lat="44.07171" lon="3.17568">
        <ele>790.8</ele>
        <time>2019-05-31T10:16:31Z</time>
      </trkpt>
      <trkpt lat="44.07174" lon="3.17562">
        <ele>790.8</ele>
        <time>2019-05-31T10:16:32Z</time>
      </trkpt>
      <trkpt lat="44.07178" lon="3.17558">
        <ele>790.8</ele>
        <time>2019-05-31T10:16:33Z</time>
      </trkpt>
      <trkpt lat="44.07181" lon="3.17554">
        <ele>790.8</ele>
        <time>2019-05-31T10:16:34Z</time>
      </trkpt>
      <trkpt lat="44.07181" lon="3.17546">
        <ele>790.8</ele>
        <time>2019-05-31T10:16:35Z</time>
      </trkpt>
      <trkpt lat="44.07182" lon="3.17538">
        <ele>790.7</ele>
        <time>2019-05-31T10:16:36Z</time>
      </trkpt>
      <trkpt lat="44.07183" lon="3.1753">
        <ele>790.7</ele>
        <time>2019-05-31T10:16:37Z</time>
      </trkpt>
      <trkpt lat="44.07185" lon="3.17516">
        <ele>790.7</ele>
        <time>2019-05-31T10:16:38Z</time>
      </trkpt>
      <trkpt lat="44.07187" lon="3.1751">
        <ele>790.7</ele>
        <time>2019-05-31T10:16:39Z</time>
      </trkpt>
      <trkpt lat="44.0719" lon="3.17504">
        <ele>790.7</ele>
        <time>2019-05-31T10:16:40Z</time>
      </trkpt>
      <trkpt lat="44.07193" lon="3.17497">
        <ele>790.7</ele>
        <time>2019-05-31T10:16:41Z</time>
      </trkpt>
      <trkpt lat="44.07199" lon="3.17491">
        <ele>790.7</ele>
        <time>2019-05-31T10:16:42Z</time>
      </trkpt>
      <trkpt lat="44.07199" lon="3.17484">
        <ele>790.7</ele>
        <time>2019-05-31T10:16:43Z</time>
      </trkpt>
      <trkpt lat="44.07201" lon="3.17478">
        <ele>790.7</ele>
        <time>2019-05-31T10:16:44Z</time>
      </trkpt>
      <trkpt lat="44.07201" lon="3.1747">
        <ele>790.7</ele>
        <time>2019-05-31T10:16:45Z</time>
      </trkpt>
      <trkpt lat="44.07203" lon="3.17465">
        <ele>790.7</ele>
        <time>2019-05-31T10:16:46Z</time>
      </trkpt>
      <trkpt lat="44.07204" lon="3.17457">
        <ele>790.7</ele>
        <time>2019-05-31T10:16:47Z</time>
      </trkpt>
      <trkpt lat="44.07207" lon="3.1745">
        <ele>790.7</ele>
        <time>2019-05-31T10:16:48Z</time>
      </trkpt>
      <trkpt lat="44.0721" lon="3.17446">
        <ele>790.7</ele>
        <time>2019-05-31T10:16:49Z</time>
      </trkpt>
      <trkpt lat="44.07212" lon="3.17438">
        <ele>790.7</ele>
        <time>2019-05-31T10:16:50Z</time>
      </trkpt>
      <trkpt lat="44.07214" lon="3.1743">
        <ele>790.8</ele>
        <time>2019-05-31T10:16:51Z</time>
      </trkpt>
      <trkpt lat="44.07215" lon="3.17424">
        <ele>790.8</ele>
        <time>2019-05-31T10:16:52Z</time>
      </trkpt>
      <trkpt lat="44.07217" lon="3.17418">
        <ele>790.8</ele>
        <time>2019-05-31T10:16:53Z</time>
      </trkpt>
      <trkpt lat="44.07218" lon="3.17412">
        <ele>790.8</ele>
        <time>2019-05-31T10:16:54Z</time>
      </trkpt>
      <trkpt lat="44.07219" lon="3.17407">
        <ele>790.8</ele>
        <time>2019-05-31T10:16:56Z</time>
      </trkpt>
      <trkpt lat="44.0722" lon="3.17403">
        <ele>790.9</ele>
        <time>2019-05-31T10:16:57Z</time>
      </trkpt>
      <trkpt lat="44.07221" lon="3.17399">
        <ele>790.9</ele>
        <time>2019-05-31T10:16:58Z</time>
      </trkpt>
      <trkpt lat="44.07221" lon="3.17395">
        <ele>790.9</ele>
        <time>2019-05-31T10:16:59Z</time>
      </trkpt>
      <trkpt lat="44.07221" lon="3.17388">
        <ele>790.9</ele>
        <time>2019-05-31T10:17:01Z</time>
      </trkpt>
      <trkpt lat="44.07223" lon="3.17378">
        <ele>791</ele>
        <time>2019-05-31T10:17:03Z</time>
      </trkpt>
      <trkpt lat="44.07224" lon="3.17375">
        <ele>791</ele>
        <time>2019-05-31T10:17:05Z</time>
      </trkpt>
      <trkpt lat="44.07225" lon="3.1737">
        <ele>791</ele>
        <time>2019-05-31T10:17:07Z</time>
      </trkpt>
      <trkpt lat="44.07226" lon="3.17363">
        <ele>791</ele>
        <time>2019-05-31T10:17:09Z</time>
      </trkpt>
      <trkpt lat="44.07226" lon="3.1736">
        <ele>791.1</ele>
        <time>2019-05-31T10:17:10Z</time>
      </trkpt>
      <trkpt lat="44.07227" lon="3.17356">
        <ele>791.1</ele>
        <time>2019-05-31T10:17:11Z</time>
      </trkpt>
      <trkpt lat="44.07228" lon="3.17352">
        <ele>791.1</ele>
        <time>2019-05-31T10:17:12Z</time>
      </trkpt>
      <trkpt lat="44.07228" lon="3.17348">
        <ele>791.1</ele>
        <time>2019-05-31T10:17:13Z</time>
      </trkpt>
      <trkpt lat="44.07228" lon="3.17342">
        <ele>791.2</ele>
        <time>2019-05-31T10:17:15Z</time>
      </trkpt>
      <trkpt lat="44.07228" lon="3.17337">
        <ele>791.2</ele>
        <time>2019-05-31T10:17:16Z</time>
      </trkpt>
      <trkpt lat="44.07229" lon="3.17333">
        <ele>791.2</ele>
        <time>2019-05-31T10:17:17Z</time>
      </trkpt>
      <trkpt lat="44.07229" lon="3.1733">
        <ele>791.2</ele>
        <time>2019-05-31T10:17:18Z</time>
      </trkpt>
      <trkpt lat="44.07229" lon="3.17323">
        <ele>791.2</ele>
        <time>2019-05-31T10:17:20Z</time>
      </trkpt>
      <trkpt lat="44.07231" lon="3.17317">
        <ele>791.3</ele>
        <time>2019-05-31T10:17:22Z</time>
      </trkpt>
      <trkpt lat="44.07234" lon="3.17319">
        <ele>791.3</ele>
        <time>2019-05-31T10:17:25Z</time>
      </trkpt>
      <trkpt lat="44.07235" lon="3.17323">
        <ele>791.3</ele>
        <time>2019-05-31T10:17:33Z</time>
      </trkpt>
      <trkpt lat="44.07235" lon="3.17327">
        <ele>791.3</ele>
        <time>2019-05-31T10:17:37Z</time>
      </trkpt>
      <trkpt lat="44.07238" lon="3.1733">
        <ele>791.4</ele>
        <time>2019-05-31T10:17:51Z</time>
      </trkpt>
      <trkpt lat="44.07239" lon="3.17334">
        <ele>791.4</ele>
        <time>2019-05-31T10:17:54Z</time>
      </trkpt>
      <trkpt lat="44.0724" lon="3.17338">
        <ele>791.4</ele>
        <time>2019-05-31T10:17:56Z</time>
      </trkpt>
      <trkpt lat="44.07241" lon="3.17344">
        <ele>791.3</ele>
        <time>2019-05-31T10:17:59Z</time>
      </trkpt>
      <trkpt lat="44.07242" lon="3.1735">
        <ele>791.2</ele>
        <time>2019-05-31T10:18:01Z</time>
      </trkpt>
      <trkpt lat="44.07243" lon="3.17354">
        <ele>791.2</ele>
        <time>2019-05-31T10:18:02Z</time>
      </trkpt>
      <trkpt lat="44.07244" lon="3.17359">
        <ele>791.1</ele>
        <time>2019-05-31T10:18:03Z</time>
      </trkpt>
      <trkpt lat="44.07245" lon="3.17364">
        <ele>791</ele>
        <time>2019-05-31T10:18:04Z</time>
      </trkpt>
      <trkpt lat="44.07245" lon="3.17369">
        <ele>790.9</ele>
        <time>2019-05-31T10:18:05Z</time>
      </trkpt>
      <trkpt lat="44.07247" lon="3.17374">
        <ele>790.8</ele>
        <time>2019-05-31T10:18:06Z</time>
      </trkpt>
      <trkpt lat="44.07248" lon="3.1738">
        <ele>790.7</ele>
        <time>2019-05-31T10:18:07Z</time>
      </trkpt>
      <trkpt lat="44.0725" lon="3.17384">
        <ele>790.6</ele>
        <time>2019-05-31T10:18:08Z</time>
      </trkpt>
      <trkpt lat="44.07255" lon="3.17394">
        <ele>790.3</ele>
        <time>2019-05-31T10:18:09Z</time>
      </trkpt>
      <trkpt lat="44.07261" lon="3.17399">
        <ele>790.1</ele>
        <time>2019-05-31T10:18:10Z</time>
      </trkpt>
      <trkpt lat="44.07264" lon="3.17405">
        <ele>790</ele>
        <time>2019-05-31T10:18:11Z</time>
      </trkpt>
      <trkpt lat="44.07268" lon="3.17411">
        <ele>789.8</ele>
        <time>2019-05-31T10:18:12Z</time>
      </trkpt>
      <trkpt lat="44.07274" lon="3.17423">
        <ele>789.5</ele>
        <time>2019-05-31T10:18:13Z</time>
      </trkpt>
      <trkpt lat="44.07277" lon="3.17435">
        <ele>789.3</ele>
        <time>2019-05-31T10:18:14Z</time>
      </trkpt>
      <trkpt lat="44.07279" lon="3.17444">
        <ele>789.1</ele>
        <time>2019-05-31T10:18:15Z</time>
      </trkpt>
      <trkpt lat="44.07284" lon="3.17453">
        <ele>788.8</ele>
        <time>2019-05-31T10:18:16Z</time>
      </trkpt>
      <trkpt lat="44.07287" lon="3.1746">
        <ele>788.6</ele>
        <time>2019-05-31T10:18:17Z</time>
      </trkpt>
      <trkpt lat="44.07289" lon="3.17468">
        <ele>788.4</ele>
        <time>2019-05-31T10:18:18Z</time>
      </trkpt>
      <trkpt lat="44.07294" lon="3.17474">
        <ele>788.2</ele>
        <time>2019-05-31T10:18:19Z</time>
      </trkpt>
      <trkpt lat="44.07297" lon="3.17479">
        <ele>788.1</ele>
        <time>2019-05-31T10:18:20Z</time>
      </trkpt>
      <trkpt lat="44.07307" lon="3.17482">
        <ele>787.9</ele>
        <time>2019-05-31T10:18:21Z</time>
      </trkpt>
      <trkpt lat="44.0731" lon="3.17485">
        <ele>787.9</ele>
        <time>2019-05-31T10:18:22Z</time>
      </trkpt>
      <trkpt lat="44.07317" lon="3.17494">
        <ele>787.8</ele>
        <time>2019-05-31T10:18:24Z</time>
      </trkpt>
      <trkpt lat="44.07322" lon="3.17496">
        <ele>787.9</ele>
        <time>2019-05-31T10:18:25Z</time>
      </trkpt>
      <trkpt lat="44.07325" lon="3.17495">
        <ele>788</ele>
        <time>2019-05-31T10:18:26Z</time>
      </trkpt>
      <trkpt lat="44.07329" lon="3.17499">
        <ele>788.1</ele>
        <time>2019-05-31T10:18:27Z</time>
      </trkpt>
      <trkpt lat="44.07331" lon="3.17506">
        <ele>788.3</ele>
        <time>2019-05-31T10:18:30Z</time>
      </trkpt>
      <trkpt lat="44.07333" lon="3.1751">
        <ele>788.4</ele>
        <time>2019-05-31T10:18:33Z</time>
      </trkpt>
      <trkpt lat="44.07334" lon="3.17515">
        <ele>788.5</ele>
        <time>2019-05-31T10:18:37Z</time>
      </trkpt>
      <trkpt lat="44.07336" lon="3.1752">
        <ele>788.6</ele>
        <time>2019-05-31T10:18:40Z</time>
      </trkpt>
      <trkpt lat="44.07337" lon="3.17525">
        <ele>788.8</ele>
        <time>2019-05-31T10:18:43Z</time>
      </trkpt>
      <trkpt lat="44.07339" lon="3.17529">
        <ele>788.9</ele>
        <time>2019-05-31T10:18:45Z</time>
      </trkpt>
      <trkpt lat="44.0734" lon="3.17532">
        <ele>789.1</ele>
        <time>2019-05-31T10:18:47Z</time>
      </trkpt>
      <trkpt lat="44.07343" lon="3.17536">
        <ele>789.2</ele>
        <time>2019-05-31T10:18:49Z</time>
      </trkpt>
      <trkpt lat="44.07346" lon="3.17539">
        <ele>789.3</ele>
        <time>2019-05-31T10:18:51Z</time>
      </trkpt>
      <trkpt lat="44.07348" lon="3.17542">
        <ele>789.4</ele>
        <time>2019-05-31T10:18:53Z</time>
      </trkpt>
      <trkpt lat="44.0735" lon="3.17546">
        <ele>789.5</ele>
        <time>2019-05-31T10:18:55Z</time>
      </trkpt>
      <trkpt lat="44.07352" lon="3.1755">
        <ele>789.6</ele>
        <time>2019-05-31T10:18:57Z</time>
      </trkpt>
      <trkpt lat="44.07354" lon="3.17553">
        <ele>789.7</ele>
        <time>2019-05-31T10:18:59Z</time>
      </trkpt>
      <trkpt lat="44.07357" lon="3.17556">
        <ele>789.9</ele>
        <time>2019-05-31T10:19:02Z</time>
      </trkpt>
      <trkpt lat="44.0736" lon="3.17559">
        <ele>790</ele>
        <time>2019-05-31T10:19:05Z</time>
      </trkpt>
      <trkpt lat="44.07363" lon="3.17563">
        <ele>790.1</ele>
        <time>2019-05-31T10:19:07Z</time>
      </trkpt>
      <trkpt lat="44.07365" lon="3.17567">
        <ele>790.3</ele>
        <time>2019-05-31T10:19:09Z</time>
      </trkpt>
      <trkpt lat="44.07367" lon="3.17569">
        <ele>790.4</ele>
        <time>2019-05-31T10:19:14Z</time>
      </trkpt>
      <trkpt lat="44.0737" lon="3.17572">
        <ele>790.5</ele>
        <time>2019-05-31T10:20:17Z</time>
      </trkpt>
      <trkpt lat="44.07372" lon="3.17576">
        <ele>790.7</ele>
        <time>2019-05-31T10:20:19Z</time>
      </trkpt>
      <trkpt lat="44.07375" lon="3.17581">
        <ele>790.9</ele>
        <time>2019-05-31T10:20:21Z</time>
      </trkpt>
      <trkpt lat="44.07379" lon="3.17586">
        <ele>791.1</ele>
        <time>2019-05-31T10:20:23Z</time>
      </trkpt>
      <trkpt lat="44.07381" lon="3.17589">
        <ele>791.2</ele>
        <time>2019-05-31T10:20:24Z</time>
      </trkpt>
      <trkpt lat="44.07384" lon="3.17593">
        <ele>791.4</ele>
        <time>2019-05-31T10:20:25Z</time>
      </trkpt>
      <trkpt lat="44.07387" lon="3.17597">
        <ele>791.5</ele>
        <time>2019-05-31T10:20:26Z</time>
      </trkpt>
      <trkpt lat="44.07397" lon="3.17609">
        <ele>792</ele>
        <time>2019-05-31T10:20:27Z</time>
      </trkpt>
      <trkpt lat="44.07401" lon="3.17615">
        <ele>792.1</ele>
        <time>2019-05-31T10:20:28Z</time>
      </trkpt>
      <trkpt lat="44.07406" lon="3.17618">
        <ele>792.2</ele>
        <time>2019-05-31T10:20:29Z</time>
      </trkpt>
      <trkpt lat="44.0741" lon="3.17625">
        <ele>792.3</ele>
        <time>2019-05-31T10:20:30Z</time>
      </trkpt>
      <trkpt lat="44.07414" lon="3.17629">
        <ele>792.3</ele>
        <time>2019-05-31T10:20:31Z</time>
      </trkpt>
      <trkpt lat="44.07417" lon="3.1763">
        <ele>792.3</ele>
        <time>2019-05-31T10:20:32Z</time>
      </trkpt>
      <trkpt lat="44.07423" lon="3.17634">
        <ele>792.4</ele>
        <time>2019-05-31T10:20:33Z</time>
      </trkpt>
      <trkpt lat="44.07426" lon="3.17642">
        <ele>792.4</ele>
        <time>2019-05-31T10:20:34Z</time>
      </trkpt>
      <trkpt lat="44.07429" lon="3.17648">
        <ele>792.4</ele>
        <time>2019-05-31T10:20:35Z</time>
      </trkpt>
      <trkpt lat="44.07435" lon="3.17652">
        <ele>792.4</ele>
        <time>2019-05-31T10:20:36Z</time>
      </trkpt>
      <trkpt lat="44.0744" lon="3.17655">
        <ele>792.4</ele>
        <time>2019-05-31T10:20:37Z</time>
      </trkpt>
      <trkpt lat="44.07444" lon="3.17659">
        <ele>792.4</ele>
        <time>2019-05-31T10:20:38Z</time>
      </trkpt>
      <trkpt lat="44.07449" lon="3.17661">
        <ele>792.3</ele>
        <time>2019-05-31T10:20:39Z</time>
      </trkpt>
      <trkpt lat="44.07452" lon="3.17663">
        <ele>792.3</ele>
        <time>2019-05-31T10:20:40Z</time>
      </trkpt>
      <trkpt lat="44.07456" lon="3.17668">
        <ele>792.2</ele>
        <time>2019-05-31T10:20:42Z</time>
      </trkpt>
      <trkpt lat="44.07457" lon="3.17674">
        <ele>792.2</ele>
        <time>2019-05-31T10:20:43Z</time>
      </trkpt>
      <trkpt lat="44.0746" lon="3.17678">
        <ele>792.1</ele>
        <time>2019-05-31T10:20:44Z</time>
      </trkpt>
      <trkpt lat="44.07463" lon="3.17683">
        <ele>792</ele>
        <time>2019-05-31T10:20:45Z</time>
      </trkpt>
      <trkpt lat="44.07465" lon="3.17688">
        <ele>791.8</ele>
        <time>2019-05-31T10:20:46Z</time>
      </trkpt>
      <trkpt lat="44.07468" lon="3.17692">
        <ele>791.6</ele>
        <time>2019-05-31T10:20:47Z</time>
      </trkpt>
      <trkpt lat="44.07469" lon="3.17697">
        <ele>791.5</ele>
        <time>2019-05-31T10:20:48Z</time>
      </trkpt>
      <trkpt lat="44.07471" lon="3.17702">
        <ele>791.3</ele>
        <time>2019-05-31T10:20:49Z</time>
      </trkpt>
      <trkpt lat="44.07473" lon="3.17708">
        <ele>791.1</ele>
        <time>2019-05-31T10:20:50Z</time>
      </trkpt>
      <trkpt lat="44.07475" lon="3.17713">
        <ele>791</ele>
        <time>2019-05-31T10:20:51Z</time>
      </trkpt>
      <trkpt lat="44.07476" lon="3.17722">
        <ele>790.7</ele>
        <time>2019-05-31T10:20:52Z</time>
      </trkpt>
      <trkpt lat="44.07478" lon="3.17728">
        <ele>790.6</ele>
        <time>2019-05-31T10:20:53Z</time>
      </trkpt>
      <trkpt lat="44.0748" lon="3.17734">
        <ele>790.4</ele>
        <time>2019-05-31T10:20:54Z</time>
      </trkpt>
      <trkpt lat="44.07483" lon="3.17742">
        <ele>790.2</ele>
        <time>2019-05-31T10:20:55Z</time>
      </trkpt>
      <trkpt lat="44.07485" lon="3.17748">
        <ele>790</ele>
        <time>2019-05-31T10:20:56Z</time>
      </trkpt>
      <trkpt lat="44.07487" lon="3.17754">
        <ele>789.8</ele>
        <time>2019-05-31T10:20:57Z</time>
      </trkpt>
      <trkpt lat="44.07489" lon="3.17759">
        <ele>789.6</ele>
        <time>2019-05-31T10:20:58Z</time>
      </trkpt>
      <trkpt lat="44.07491" lon="3.17763">
        <ele>789.4</ele>
        <time>2019-05-31T10:20:59Z</time>
      </trkpt>
      <trkpt lat="44.07493" lon="3.17767">
        <ele>789.2</ele>
        <time>2019-05-31T10:21:00Z</time>
      </trkpt>
      <trkpt lat="44.07499" lon="3.1777">
        <ele>788.8</ele>
        <time>2019-05-31T10:21:01Z</time>
      </trkpt>
      <trkpt lat="44.07503" lon="3.17774">
        <ele>788.5</ele>
        <time>2019-05-31T10:21:02Z</time>
      </trkpt>
      <trkpt lat="44.07506" lon="3.17779">
        <ele>788.2</ele>
        <time>2019-05-31T10:21:03Z</time>
      </trkpt>
      <trkpt lat="44.07512" lon="3.17785">
        <ele>787.7</ele>
        <time>2019-05-31T10:21:04Z</time>
      </trkpt>
      <trkpt lat="44.07519" lon="3.17789">
        <ele>787.2</ele>
        <time>2019-05-31T10:21:05Z</time>
      </trkpt>
      <trkpt lat="44.07525" lon="3.17796">
        <ele>786.7</ele>
        <time>2019-05-31T10:21:06Z</time>
      </trkpt>
      <trkpt lat="44.0753" lon="3.17802">
        <ele>786.1</ele>
        <time>2019-05-31T10:21:07Z</time>
      </trkpt>
      <trkpt lat="44.07533" lon="3.17811">
        <ele>785.6</ele>
        <time>2019-05-31T10:21:08Z</time>
      </trkpt>
      <trkpt lat="44.07538" lon="3.17818">
        <ele>785.1</ele>
        <time>2019-05-31T10:21:09Z</time>
      </trkpt>
      <trkpt lat="44.07544" lon="3.17824">
        <ele>784.7</ele>
        <time>2019-05-31T10:21:10Z</time>
      </trkpt>
      <trkpt lat="44.07548" lon="3.17829">
        <ele>784.3</ele>
        <time>2019-05-31T10:21:11Z</time>
      </trkpt>
      <trkpt lat="44.07553" lon="3.17836">
        <ele>783.9</ele>
        <time>2019-05-31T10:21:12Z</time>
      </trkpt>
      <trkpt lat="44.07556" lon="3.17838">
        <ele>783.7</ele>
        <time>2019-05-31T10:21:13Z</time>
      </trkpt>
      <trkpt lat="44.07558" lon="3.17848">
        <ele>783.2</ele>
        <time>2019-05-31T10:21:15Z</time>
      </trkpt>
      <trkpt lat="44.0756" lon="3.17853">
        <ele>783</ele>
        <time>2019-05-31T10:21:16Z</time>
      </trkpt>
      <trkpt lat="44.07562" lon="3.17858">
        <ele>782.5</ele>
        <time>2019-05-31T10:21:17Z</time>
      </trkpt>
      <trkpt lat="44.07566" lon="3.17862">
        <ele>781.9</ele>
        <time>2019-05-31T10:21:18Z</time>
      </trkpt>
      <trkpt lat="44.0757" lon="3.17868">
        <ele>781.3</ele>
        <time>2019-05-31T10:21:19Z</time>
      </trkpt>
      <trkpt lat="44.07576" lon="3.17875">
        <ele>780.6</ele>
        <time>2019-05-31T10:21:20Z</time>
      </trkpt>
      <trkpt lat="44.07582" lon="3.17881">
        <ele>779.8</ele>
        <time>2019-05-31T10:21:21Z</time>
      </trkpt>
      <trkpt lat="44.07587" lon="3.1789">
        <ele>779</ele>
        <time>2019-05-31T10:21:22Z</time>
      </trkpt>
      <trkpt lat="44.07592" lon="3.17899">
        <ele>778</ele>
        <time>2019-05-31T10:21:23Z</time>
      </trkpt>
      <trkpt lat="44.07596" lon="3.17907">
        <ele>777</ele>
        <time>2019-05-31T10:21:24Z</time>
      </trkpt>
      <trkpt lat="44.07599" lon="3.17913">
        <ele>776.2</ele>
        <time>2019-05-31T10:21:25Z</time>
      </trkpt>
      <trkpt lat="44.07603" lon="3.17919">
        <ele>775.5</ele>
        <time>2019-05-31T10:21:26Z</time>
      </trkpt>
      <trkpt lat="44.07607" lon="3.17925">
        <ele>774.9</ele>
        <time>2019-05-31T10:21:27Z</time>
      </trkpt>
      <trkpt lat="44.07612" lon="3.17933">
        <ele>774.1</ele>
        <time>2019-05-31T10:21:28Z</time>
      </trkpt>
      <trkpt lat="44.07616" lon="3.1794">
        <ele>773.5</ele>
        <time>2019-05-31T10:21:29Z</time>
      </trkpt>
      <trkpt lat="44.07619" lon="3.17946">
        <ele>773</ele>
        <time>2019-05-31T10:21:30Z</time>
      </trkpt>
      <trkpt lat="44.07624" lon="3.17953">
        <ele>772.4</ele>
        <time>2019-05-31T10:21:31Z</time>
      </trkpt>
      <trkpt lat="44.07627" lon="3.17956">
        <ele>772.1</ele>
        <time>2019-05-31T10:21:32Z</time>
      </trkpt>
      <trkpt lat="44.07631" lon="3.17963">
        <ele>771.5</ele>
        <time>2019-05-31T10:21:33Z</time>
      </trkpt>
      <trkpt lat="44.07635" lon="3.17969">
        <ele>770.9</ele>
        <time>2019-05-31T10:21:34Z</time>
      </trkpt>
      <trkpt lat="44.0764" lon="3.17973">
        <ele>770.4</ele>
        <time>2019-05-31T10:21:35Z</time>
      </trkpt>
      <trkpt lat="44.07643" lon="3.17978">
        <ele>770</ele>
        <time>2019-05-31T10:21:36Z</time>
      </trkpt>
      <trkpt lat="44.07648" lon="3.17985">
        <ele>769.5</ele>
        <time>2019-05-31T10:21:37Z</time>
      </trkpt>
      <trkpt lat="44.07652" lon="3.17989">
        <ele>769</ele>
        <time>2019-05-31T10:21:38Z</time>
      </trkpt>
      <trkpt lat="44.07659" lon="3.17998">
        <ele>768.2</ele>
        <time>2019-05-31T10:21:39Z</time>
      </trkpt>
      <trkpt lat="44.07664" lon="3.18004">
        <ele>767.6</ele>
        <time>2019-05-31T10:21:40Z</time>
      </trkpt>
      <trkpt lat="44.0767" lon="3.18008">
        <ele>767.2</ele>
        <time>2019-05-31T10:21:41Z</time>
      </trkpt>
      <trkpt lat="44.07676" lon="3.18013">
        <ele>766.7</ele>
        <time>2019-05-31T10:21:42Z</time>
      </trkpt>
      <trkpt lat="44.07681" lon="3.18018">
        <ele>766.4</ele>
        <time>2019-05-31T10:21:43Z</time>
      </trkpt>
      <trkpt lat="44.07684" lon="3.18023">
        <ele>766.2</ele>
        <time>2019-05-31T10:21:44Z</time>
      </trkpt>
      <trkpt lat="44.07687" lon="3.18027">
        <ele>766</ele>
        <time>2019-05-31T10:21:45Z</time>
      </trkpt>
      <trkpt lat="44.0769" lon="3.18032">
        <ele>765.9</ele>
        <time>2019-05-31T10:21:46Z</time>
      </trkpt>
      <trkpt lat="44.07692" lon="3.18037">
        <ele>765.8</ele>
        <time>2019-05-31T10:21:47Z</time>
      </trkpt>
      <trkpt lat="44.07694" lon="3.1804">
        <ele>765.7</ele>
        <time>2019-05-31T10:21:48Z</time>
      </trkpt>
      <trkpt lat="44.07697" lon="3.18045">
        <ele>765.6</ele>
        <time>2019-05-31T10:21:49Z</time>
      </trkpt>
      <trkpt lat="44.077" lon="3.18048">
        <ele>765.7</ele>
        <time>2019-05-31T10:21:50Z</time>
      </trkpt>
      <trkpt lat="44.07702" lon="3.18053">
        <ele>765.9</ele>
        <time>2019-05-31T10:21:51Z</time>
      </trkpt>
      <trkpt lat="44.07704" lon="3.18059">
        <ele>766.1</ele>
        <time>2019-05-31T10:21:53Z</time>
      </trkpt>
      <trkpt lat="44.07707" lon="3.18064">
        <ele>766.3</ele>
        <time>2019-05-31T10:21:55Z</time>
      </trkpt>
      <trkpt lat="44.07709" lon="3.18069">
        <ele>766.7</ele>
        <time>2019-05-31T10:21:57Z</time>
      </trkpt>
      <trkpt lat="44.07712" lon="3.18074">
        <ele>767</ele>
        <time>2019-05-31T10:21:59Z</time>
      </trkpt>
      <trkpt lat="44.07716" lon="3.18077">
        <ele>767.3</ele>
        <time>2019-05-31T10:22:01Z</time>
      </trkpt>
      <trkpt lat="44.07719" lon="3.1808">
        <ele>767.5</ele>
        <time>2019-05-31T10:22:03Z</time>
      </trkpt>
      <trkpt lat="44.07722" lon="3.18084">
        <ele>767.9</ele>
        <time>2019-05-31T10:22:05Z</time>
      </trkpt>
      <trkpt lat="44.07725" lon="3.18086">
        <ele>768.2</ele>
        <time>2019-05-31T10:22:07Z</time>
      </trkpt>
      <trkpt lat="44.07727" lon="3.18088">
        <ele>768.5</ele>
        <time>2019-05-31T10:22:09Z</time>
      </trkpt>
      <trkpt lat="44.07729" lon="3.18092">
        <ele>768.8</ele>
        <time>2019-05-31T10:22:11Z</time>
      </trkpt>
      <trkpt lat="44.07731" lon="3.18097">
        <ele>769.3</ele>
        <time>2019-05-31T10:22:13Z</time>
      </trkpt>
      <trkpt lat="44.07733" lon="3.18101">
        <ele>769.6</ele>
        <time>2019-05-31T10:22:15Z</time>
      </trkpt>
      <trkpt lat="44.07736" lon="3.18106">
        <ele>770.2</ele>
        <time>2019-05-31T10:22:17Z</time>
      </trkpt>
      <trkpt lat="44.07739" lon="3.18111">
        <ele>770.7</ele>
        <time>2019-05-31T10:22:19Z</time>
      </trkpt>
      <trkpt lat="44.07742" lon="3.18115">
        <ele>771.1</ele>
        <time>2019-05-31T10:22:21Z</time>
      </trkpt>
      <trkpt lat="44.07745" lon="3.18119">
        <ele>771.1</ele>
        <time>2019-05-31T10:22:23Z</time>
      </trkpt>
      <trkpt lat="44.07749" lon="3.18124">
        <ele>771.2</ele>
        <time>2019-05-31T10:22:25Z</time>
      </trkpt>
      <trkpt lat="44.07752" lon="3.18127">
        <ele>771.2</ele>
        <time>2019-05-31T10:22:27Z</time>
      </trkpt>
      <trkpt lat="44.07756" lon="3.18129">
        <ele>771.2</ele>
        <time>2019-05-31T10:22:29Z</time>
      </trkpt>
      <trkpt lat="44.0776" lon="3.18131">
        <ele>771.2</ele>
        <time>2019-05-31T10:22:32Z</time>
      </trkpt>
      <trkpt lat="44.07765" lon="3.18132">
        <ele>771.1</ele>
        <time>2019-05-31T10:22:34Z</time>
      </trkpt>
      <trkpt lat="44.07769" lon="3.18131">
        <ele>771.1</ele>
        <time>2019-05-31T10:22:35Z</time>
      </trkpt>
      <trkpt lat="44.07773" lon="3.18131">
        <ele>771</ele>
        <time>2019-05-31T10:22:36Z</time>
      </trkpt>
      <trkpt lat="44.07777" lon="3.1813">
        <ele>770.9</ele>
        <time>2019-05-31T10:22:37Z</time>
      </trkpt>
      <trkpt lat="44.07781" lon="3.18129">
        <ele>770.9</ele>
        <time>2019-05-31T10:22:38Z</time>
      </trkpt>
      <trkpt lat="44.07784" lon="3.18129">
        <ele>770.8</ele>
        <time>2019-05-31T10:22:39Z</time>
      </trkpt>
      <trkpt lat="44.07787" lon="3.18128">
        <ele>770.7</ele>
        <time>2019-05-31T10:22:40Z</time>
      </trkpt>
      <trkpt lat="44.0779" lon="3.18129">
        <ele>770.7</ele>
        <time>2019-05-31T10:22:41Z</time>
      </trkpt>
      <trkpt lat="44.07793" lon="3.1813">
        <ele>770.6</ele>
        <time>2019-05-31T10:22:42Z</time>
      </trkpt>
      <trkpt lat="44.07797" lon="3.1813">
        <ele>770.5</ele>
        <time>2019-05-31T10:22:43Z</time>
      </trkpt>
      <trkpt lat="44.07802" lon="3.1813">
        <ele>770.4</ele>
        <time>2019-05-31T10:22:44Z</time>
      </trkpt>
      <trkpt lat="44.07806" lon="3.1813">
        <ele>770.3</ele>
        <time>2019-05-31T10:22:45Z</time>
      </trkpt>
      <trkpt lat="44.07811" lon="3.18129">
        <ele>770.3</ele>
        <time>2019-05-31T10:22:46Z</time>
      </trkpt>
      <trkpt lat="44.07815" lon="3.18129">
        <ele>770.2</ele>
        <time>2019-05-31T10:22:47Z</time>
      </trkpt>
      <trkpt lat="44.07819" lon="3.18128">
        <ele>770.2</ele>
        <time>2019-05-31T10:22:48Z</time>
      </trkpt>
      <trkpt lat="44.07823" lon="3.18128">
        <ele>770.2</ele>
        <time>2019-05-31T10:22:49Z</time>
      </trkpt>
      <trkpt lat="44.07827" lon="3.18128">
        <ele>770.2</ele>
        <time>2019-05-31T10:22:50Z</time>
      </trkpt>
      <trkpt lat="44.07831" lon="3.18128">
        <ele>770.3</ele>
        <time>2019-05-31T10:22:51Z</time>
      </trkpt>
      <trkpt lat="44.07835" lon="3.18128">
        <ele>770.3</ele>
        <time>2019-05-31T10:22:52Z</time>
      </trkpt>
      <trkpt lat="44.07839" lon="3.18127">
        <ele>770.3</ele>
        <time>2019-05-31T10:22:53Z</time>
      </trkpt>
      <trkpt lat="44.07844" lon="3.18126">
        <ele>770.4</ele>
        <time>2019-05-31T10:22:54Z</time>
      </trkpt>
      <trkpt lat="44.07848" lon="3.18125">
        <ele>770.4</ele>
        <time>2019-05-31T10:22:55Z</time>
      </trkpt>
      <trkpt lat="44.07852" lon="3.18125">
        <ele>770.5</ele>
        <time>2019-05-31T10:22:56Z</time>
      </trkpt>
      <trkpt lat="44.07856" lon="3.18126">
        <ele>770.5</ele>
        <time>2019-05-31T10:22:57Z</time>
      </trkpt>
      <trkpt lat="44.0786" lon="3.18128">
        <ele>770.6</ele>
        <time>2019-05-31T10:22:58Z</time>
      </trkpt>
      <trkpt lat="44.07864" lon="3.18129">
        <ele>770.6</ele>
        <time>2019-05-31T10:22:59Z</time>
      </trkpt>
      <trkpt lat="44.07868" lon="3.18131">
        <ele>770.6</ele>
        <time>2019-05-31T10:23:00Z</time>
      </trkpt>
      <trkpt lat="44.07874" lon="3.18134">
        <ele>770.8</ele>
        <time>2019-05-31T10:23:01Z</time>
      </trkpt>
      <trkpt lat="44.07878" lon="3.18134">
        <ele>770.8</ele>
        <time>2019-05-31T10:23:02Z</time>
      </trkpt>
      <trkpt lat="44.07882" lon="3.18133">
        <ele>770.9</ele>
        <time>2019-05-31T10:23:03Z</time>
      </trkpt>
      <trkpt lat="44.07887" lon="3.18131">
        <ele>771</ele>
        <time>2019-05-31T10:23:04Z</time>
      </trkpt>
      <trkpt lat="44.07892" lon="3.1813">
        <ele>771.1</ele>
        <time>2019-05-31T10:23:05Z</time>
      </trkpt>
      <trkpt lat="44.07897" lon="3.18129">
        <ele>771.3</ele>
        <time>2019-05-31T10:23:06Z</time>
      </trkpt>
      <trkpt lat="44.079" lon="3.18129">
        <ele>771.3</ele>
        <time>2019-05-31T10:23:07Z</time>
      </trkpt>
      <trkpt lat="44.07905" lon="3.18127">
        <ele>771.5</ele>
        <time>2019-05-31T10:23:08Z</time>
      </trkpt>
      <trkpt lat="44.07909" lon="3.18127">
        <ele>771.6</ele>
        <time>2019-05-31T10:23:09Z</time>
      </trkpt>
      <trkpt lat="44.07916" lon="3.18125">
        <ele>771.8</ele>
        <time>2019-05-31T10:23:11Z</time>
      </trkpt>
      <trkpt lat="44.07919" lon="3.18124">
        <ele>772</ele>
        <time>2019-05-31T10:23:12Z</time>
      </trkpt>
      <trkpt lat="44.07924" lon="3.18124">
        <ele>772.1</ele>
        <time>2019-05-31T10:23:13Z</time>
      </trkpt>
      <trkpt lat="44.07927" lon="3.18124">
        <ele>772.3</ele>
        <time>2019-05-31T10:23:14Z</time>
      </trkpt>
      <trkpt lat="44.0793" lon="3.18123">
        <ele>772.4</ele>
        <time>2019-05-31T10:23:15Z</time>
      </trkpt>
      <trkpt lat="44.07933" lon="3.18122">
        <ele>772.5</ele>
        <time>2019-05-31T10:23:17Z</time>
      </trkpt>
      <trkpt lat="44.07937" lon="3.18121">
        <ele>772.8</ele>
        <time>2019-05-31T10:23:19Z</time>
      </trkpt>
      <trkpt lat="44.07943" lon="3.18121">
        <ele>773.2</ele>
        <time>2019-05-31T10:23:21Z</time>
      </trkpt>
      <trkpt lat="44.07946" lon="3.1812">
        <ele>773.4</ele>
        <time>2019-05-31T10:23:22Z</time>
      </trkpt>
      <trkpt lat="44.0795" lon="3.18119">
        <ele>773.6</ele>
        <time>2019-05-31T10:23:23Z</time>
      </trkpt>
      <trkpt lat="44.07954" lon="3.18118">
        <ele>773.8</ele>
        <time>2019-05-31T10:23:24Z</time>
      </trkpt>
      <trkpt lat="44.07957" lon="3.18117">
        <ele>774</ele>
        <time>2019-05-31T10:23:25Z</time>
      </trkpt>
      <trkpt lat="44.07961" lon="3.18116">
        <ele>774.3</ele>
        <time>2019-05-31T10:23:26Z</time>
      </trkpt>
      <trkpt lat="44.07965" lon="3.18115">
        <ele>774.5</ele>
        <time>2019-05-31T10:23:27Z</time>
      </trkpt>
      <trkpt lat="44.07968" lon="3.18115">
        <ele>774.7</ele>
        <time>2019-05-31T10:23:28Z</time>
      </trkpt>
      <trkpt lat="44.07971" lon="3.18114">
        <ele>774.9</ele>
        <time>2019-05-31T10:23:29Z</time>
      </trkpt>
      <trkpt lat="44.07974" lon="3.18113">
        <ele>775.1</ele>
        <time>2019-05-31T10:23:30Z</time>
      </trkpt>
      <trkpt lat="44.07978" lon="3.18112">
        <ele>775.3</ele>
        <time>2019-05-31T10:23:31Z</time>
      </trkpt>
      <trkpt lat="44.07981" lon="3.18111">
        <ele>775.4</ele>
        <time>2019-05-31T10:23:32Z</time>
      </trkpt>
      <trkpt lat="44.07985" lon="3.1811">
        <ele>775.6</ele>
        <time>2019-05-31T10:23:33Z</time>
      </trkpt>
      <trkpt lat="44.07988" lon="3.18109">
        <ele>775.7</ele>
        <time>2019-05-31T10:23:34Z</time>
      </trkpt>
      <trkpt lat="44.07991" lon="3.18109">
        <ele>775.9</ele>
        <time>2019-05-31T10:23:35Z</time>
      </trkpt>
      <trkpt lat="44.07997" lon="3.18108">
        <ele>776.3</ele>
        <time>2019-05-31T10:23:37Z</time>
      </trkpt>
      <trkpt lat="44.08" lon="3.18108">
        <ele>776.4</ele>
        <time>2019-05-31T10:23:38Z</time>
      </trkpt>
      <trkpt lat="44.08003" lon="3.18108">
        <ele>776.6</ele>
        <time>2019-05-31T10:23:39Z</time>
      </trkpt>
      <trkpt lat="44.08005" lon="3.18107">
        <ele>776.7</ele>
        <time>2019-05-31T10:23:40Z</time>
      </trkpt>
      <trkpt lat="44.0801" lon="3.18107">
        <ele>777</ele>
        <time>2019-05-31T10:23:42Z</time>
      </trkpt>
      <trkpt lat="44.08013" lon="3.18109">
        <ele>777.3</ele>
        <time>2019-05-31T10:23:44Z</time>
      </trkpt>
      <trkpt lat="44.08016" lon="3.18111">
        <ele>777.5</ele>
        <time>2019-05-31T10:23:46Z</time>
      </trkpt>
      <trkpt lat="44.08017" lon="3.18116">
        <ele>777.7</ele>
        <time>2019-05-31T10:23:48Z</time>
      </trkpt>
      <trkpt lat="44.08016" lon="3.18122">
        <ele>778</ele>
        <time>2019-05-31T10:23:50Z</time>
      </trkpt>
      <trkpt lat="44.08014" lon="3.18129">
        <ele>778.2</ele>
        <time>2019-05-31T10:23:52Z</time>
      </trkpt>
      <trkpt lat="44.08013" lon="3.18133">
        <ele>778.3</ele>
        <time>2019-05-31T10:23:53Z</time>
      </trkpt>
      <trkpt lat="44.08012" lon="3.18137">
        <ele>778.5</ele>
        <time>2019-05-31T10:23:54Z</time>
      </trkpt>
      <trkpt lat="44.08012" lon="3.18142">
        <ele>778.6</ele>
        <time>2019-05-31T10:23:56Z</time>
      </trkpt>
      <trkpt lat="44.08013" lon="3.18147">
        <ele>778.6</ele>
        <time>2019-05-31T10:23:58Z</time>
      </trkpt>
      <trkpt lat="44.08016" lon="3.18151">
        <ele>778.6</ele>
        <time>2019-05-31T10:24:00Z</time>
      </trkpt>
      <trkpt lat="44.08019" lon="3.18154">
        <ele>778.6</ele>
        <time>2019-05-31T10:24:02Z</time>
      </trkpt>
      <trkpt lat="44.08022" lon="3.1816">
        <ele>778.5</ele>
        <time>2019-05-31T10:24:04Z</time>
      </trkpt>
      <trkpt lat="44.08025" lon="3.18164">
        <ele>778.5</ele>
        <time>2019-05-31T10:24:05Z</time>
      </trkpt>
      <trkpt lat="44.08028" lon="3.18168">
        <ele>778.4</ele>
        <time>2019-05-31T10:24:06Z</time>
      </trkpt>
      <trkpt lat="44.0803" lon="3.18173">
        <ele>778.4</ele>
        <time>2019-05-31T10:24:07Z</time>
      </trkpt>
      <trkpt lat="44.08031" lon="3.18177">
        <ele>778.3</ele>
        <time>2019-05-31T10:24:08Z</time>
      </trkpt>
      <trkpt lat="44.08033" lon="3.18181">
        <ele>778.3</ele>
        <time>2019-05-31T10:24:09Z</time>
      </trkpt>
      <trkpt lat="44.08036" lon="3.18185">
        <ele>778.3</ele>
        <time>2019-05-31T10:24:10Z</time>
      </trkpt>
      <trkpt lat="44.08038" lon="3.18189">
        <ele>778.2</ele>
        <time>2019-05-31T10:24:11Z</time>
      </trkpt>
      <trkpt lat="44.0804" lon="3.18193">
        <ele>778.2</ele>
        <time>2019-05-31T10:24:12Z</time>
      </trkpt>
      <trkpt lat="44.08044" lon="3.18197">
        <ele>778.1</ele>
        <time>2019-05-31T10:24:13Z</time>
      </trkpt>
      <trkpt lat="44.08048" lon="3.18199">
        <ele>778</ele>
        <time>2019-05-31T10:24:14Z</time>
      </trkpt>
      <trkpt lat="44.08054" lon="3.182">
        <ele>777.9</ele>
        <time>2019-05-31T10:24:15Z</time>
      </trkpt>
      <trkpt lat="44.08058" lon="3.182">
        <ele>777.8</ele>
        <time>2019-05-31T10:24:16Z</time>
      </trkpt>
      <trkpt lat="44.08061" lon="3.182">
        <ele>777.8</ele>
        <time>2019-05-31T10:24:17Z</time>
      </trkpt>
      <trkpt lat="44.08064" lon="3.18201">
        <ele>777.7</ele>
        <time>2019-05-31T10:24:18Z</time>
      </trkpt>
      <trkpt lat="44.08067" lon="3.18202">
        <ele>777.7</ele>
        <time>2019-05-31T10:24:19Z</time>
      </trkpt>
      <trkpt lat="44.0807" lon="3.18203">
        <ele>777.6</ele>
        <time>2019-05-31T10:24:20Z</time>
      </trkpt>
      <trkpt lat="44.08073" lon="3.18203">
        <ele>777.6</ele>
        <time>2019-05-31T10:24:21Z</time>
      </trkpt>
      <trkpt lat="44.08075" lon="3.18205">
        <ele>777.6</ele>
        <time>2019-05-31T10:24:22Z</time>
      </trkpt>
      <trkpt lat="44.08078" lon="3.18206">
        <ele>777.5</ele>
        <time>2019-05-31T10:24:23Z</time>
      </trkpt>
      <trkpt lat="44.08083" lon="3.18209">
        <ele>777.5</ele>
        <time>2019-05-31T10:24:25Z</time>
      </trkpt>
      <trkpt lat="44.08086" lon="3.18209">
        <ele>777.5</ele>
        <time>2019-05-31T10:24:26Z</time>
      </trkpt>
      <trkpt lat="44.08091" lon="3.18207">
        <ele>777.4</ele>
        <time>2019-05-31T10:24:27Z</time>
      </trkpt>
      <trkpt lat="44.08095" lon="3.18203">
        <ele>777.4</ele>
        <time>2019-05-31T10:24:28Z</time>
      </trkpt>
      <trkpt lat="44.081" lon="3.18199">
        <ele>777.3</ele>
        <time>2019-05-31T10:24:29Z</time>
      </trkpt>
      <trkpt lat="44.08105" lon="3.18195">
        <ele>777.3</ele>
        <time>2019-05-31T10:24:30Z</time>
      </trkpt>
      <trkpt lat="44.08114" lon="3.18183">
        <ele>777.1</ele>
        <time>2019-05-31T10:24:31Z</time>
      </trkpt>
      <trkpt lat="44.08118" lon="3.18181">
        <ele>777.1</ele>
        <time>2019-05-31T10:24:32Z</time>
      </trkpt>
      <trkpt lat="44.08123" lon="3.18178">
        <ele>777</ele>
        <time>2019-05-31T10:24:33Z</time>
      </trkpt>
      <trkpt lat="44.08128" lon="3.18174">
        <ele>777</ele>
        <time>2019-05-31T10:24:34Z</time>
      </trkpt>
      <trkpt lat="44.08133" lon="3.18173">
        <ele>777</ele>
        <time>2019-05-31T10:24:35Z</time>
      </trkpt>
      <trkpt lat="44.08137" lon="3.18172">
        <ele>777.1</ele>
        <time>2019-05-31T10:24:36Z</time>
      </trkpt>
      <trkpt lat="44.08142" lon="3.1817">
        <ele>777.2</ele>
        <time>2019-05-31T10:24:37Z</time>
      </trkpt>
      <trkpt lat="44.08147" lon="3.18171">
        <ele>777.4</ele>
        <time>2019-05-31T10:24:39Z</time>
      </trkpt>
      <trkpt lat="44.08153" lon="3.18172">
        <ele>777.7</ele>
        <time>2019-05-31T10:24:40Z</time>
      </trkpt>
      <trkpt lat="44.08157" lon="3.18173">
        <ele>777.8</ele>
        <time>2019-05-31T10:24:41Z</time>
      </trkpt>
      <trkpt lat="44.0816" lon="3.18174">
        <ele>778</ele>
        <time>2019-05-31T10:24:42Z</time>
      </trkpt>
      <trkpt lat="44.08163" lon="3.18176">
        <ele>778.2</ele>
        <time>2019-05-31T10:24:43Z</time>
      </trkpt>
      <trkpt lat="44.08167" lon="3.18178">
        <ele>778.5</ele>
        <time>2019-05-31T10:24:44Z</time>
      </trkpt>
      <trkpt lat="44.08169" lon="3.1818">
        <ele>778.7</ele>
        <time>2019-05-31T10:24:45Z</time>
      </trkpt>
      <trkpt lat="44.08173" lon="3.18183">
        <ele>779</ele>
        <time>2019-05-31T10:24:46Z</time>
      </trkpt>
      <trkpt lat="44.08175" lon="3.18185">
        <ele>779.3</ele>
        <time>2019-05-31T10:24:47Z</time>
      </trkpt>
      <trkpt lat="44.0818" lon="3.18188">
        <ele>779.8</ele>
        <time>2019-05-31T10:24:49Z</time>
      </trkpt>
      <trkpt lat="44.08184" lon="3.1819">
        <ele>780.2</ele>
        <time>2019-05-31T10:24:51Z</time>
      </trkpt>
      <trkpt lat="44.08187" lon="3.18192">
        <ele>780.5</ele>
        <time>2019-05-31T10:24:53Z</time>
      </trkpt>
      <trkpt lat="44.08191" lon="3.18193">
        <ele>781</ele>
        <time>2019-05-31T10:24:55Z</time>
      </trkpt>
      <trkpt lat="44.08195" lon="3.18192">
        <ele>781.4</ele>
        <time>2019-05-31T10:24:57Z</time>
      </trkpt>
      <trkpt lat="44.08199" lon="3.18193">
        <ele>781.8</ele>
        <time>2019-05-31T10:24:59Z</time>
      </trkpt>
      <trkpt lat="44.08203" lon="3.18195">
        <ele>782.2</ele>
        <time>2019-05-31T10:25:01Z</time>
      </trkpt>
      <trkpt lat="44.08209" lon="3.18197">
        <ele>782.6</ele>
        <time>2019-05-31T10:25:03Z</time>
      </trkpt>
      <trkpt lat="44.08212" lon="3.18199">
        <ele>782.8</ele>
        <time>2019-05-31T10:25:04Z</time>
      </trkpt>
      <trkpt lat="44.08215" lon="3.18199">
        <ele>783</ele>
        <time>2019-05-31T10:25:05Z</time>
      </trkpt>
      <trkpt lat="44.08218" lon="3.18199">
        <ele>783.2</ele>
        <time>2019-05-31T10:25:06Z</time>
      </trkpt>
      <trkpt lat="44.08222" lon="3.18198">
        <ele>783.4</ele>
        <time>2019-05-31T10:25:07Z</time>
      </trkpt>
      <trkpt lat="44.08226" lon="3.18197">
        <ele>783.6</ele>
        <time>2019-05-31T10:25:08Z</time>
      </trkpt>
      <trkpt lat="44.0823" lon="3.18197">
        <ele>783.8</ele>
        <time>2019-05-31T10:25:10Z</time>
      </trkpt>
      <trkpt lat="44.08233" lon="3.18196">
        <ele>783.9</ele>
        <time>2019-05-31T10:25:11Z</time>
      </trkpt>
      <trkpt lat="44.08236" lon="3.18196">
        <ele>784.1</ele>
        <time>2019-05-31T10:25:12Z</time>
      </trkpt>
      <trkpt lat="44.08239" lon="3.18195">
        <ele>784.2</ele>
        <time>2019-05-31T10:25:13Z</time>
      </trkpt>
      <trkpt lat="44.08244" lon="3.18197">
        <ele>784.5</ele>
        <time>2019-05-31T10:25:15Z</time>
      </trkpt>
      <trkpt lat="44.08246" lon="3.18199">
        <ele>784.7</ele>
        <time>2019-05-31T10:25:16Z</time>
      </trkpt>
      <trkpt lat="44.08252" lon="3.18202">
        <ele>785</ele>
        <time>2019-05-31T10:25:18Z</time>
      </trkpt>
      <trkpt lat="44.08255" lon="3.18204">
        <ele>785.1</ele>
        <time>2019-05-31T10:25:19Z</time>
      </trkpt>
      <trkpt lat="44.08258" lon="3.18206">
        <ele>785.3</ele>
        <time>2019-05-31T10:25:20Z</time>
      </trkpt>
      <trkpt lat="44.08261" lon="3.18206">
        <ele>785.5</ele>
        <time>2019-05-31T10:25:21Z</time>
      </trkpt>
      <trkpt lat="44.08266" lon="3.18206">
        <ele>785.9</ele>
        <time>2019-05-31T10:25:23Z</time>
      </trkpt>
      <trkpt lat="44.0827" lon="3.18206">
        <ele>786.1</ele>
        <time>2019-05-31T10:25:25Z</time>
      </trkpt>
      <trkpt lat="44.08274" lon="3.18209">
        <ele>786.5</ele>
        <time>2019-05-31T10:25:27Z</time>
      </trkpt>
      <trkpt lat="44.08278" lon="3.18213">
        <ele>787.1</ele>
        <time>2019-05-31T10:25:29Z</time>
      </trkpt>
      <trkpt lat="44.0828" lon="3.18218">
        <ele>787.5</ele>
        <time>2019-05-31T10:25:31Z</time>
      </trkpt>
      <trkpt lat="44.08283" lon="3.18221">
        <ele>787.9</ele>
        <time>2019-05-31T10:25:34Z</time>
      </trkpt>
      <trkpt lat="44.08287" lon="3.18223">
        <ele>788.3</ele>
        <time>2019-05-31T10:25:36Z</time>
      </trkpt>
      <trkpt lat="44.08291" lon="3.18226">
        <ele>788.7</ele>
        <time>2019-05-31T10:25:38Z</time>
      </trkpt>
      <trkpt lat="44.08295" lon="3.18228">
        <ele>789.1</ele>
        <time>2019-05-31T10:25:40Z</time>
      </trkpt>
      <trkpt lat="44.08299" lon="3.1823">
        <ele>789.4</ele>
        <time>2019-05-31T10:25:42Z</time>
      </trkpt>
      <trkpt lat="44.08302" lon="3.18232">
        <ele>789.7</ele>
        <time>2019-05-31T10:25:44Z</time>
      </trkpt>
      <trkpt lat="44.08306" lon="3.18232">
        <ele>790</ele>
        <time>2019-05-31T10:25:46Z</time>
      </trkpt>
      <trkpt lat="44.08309" lon="3.18233">
        <ele>790.2</ele>
        <time>2019-05-31T10:25:48Z</time>
      </trkpt>
      <trkpt lat="44.08312" lon="3.18235">
        <ele>790.4</ele>
        <time>2019-05-31T10:25:50Z</time>
      </trkpt>
      <trkpt lat="44.08315" lon="3.18237">
        <ele>790.7</ele>
        <time>2019-05-31T10:25:52Z</time>
      </trkpt>
      <trkpt lat="44.08319" lon="3.18239">
        <ele>790.9</ele>
        <time>2019-05-31T10:25:53Z</time>
      </trkpt>
      <trkpt lat="44.08324" lon="3.1824">
        <ele>791.3</ele>
        <time>2019-05-31T10:25:55Z</time>
      </trkpt>
      <trkpt lat="44.08327" lon="3.1824">
        <ele>791.5</ele>
        <time>2019-05-31T10:25:56Z</time>
      </trkpt>
      <trkpt lat="44.0833" lon="3.18241">
        <ele>791.8</ele>
        <time>2019-05-31T10:25:57Z</time>
      </trkpt>
      <trkpt lat="44.08333" lon="3.18242">
        <ele>792.1</ele>
        <time>2019-05-31T10:25:58Z</time>
      </trkpt>
      <trkpt lat="44.08337" lon="3.18242">
        <ele>792.4</ele>
        <time>2019-05-31T10:25:59Z</time>
      </trkpt>
      <trkpt lat="44.0834" lon="3.18243">
        <ele>792.7</ele>
        <time>2019-05-31T10:26:00Z</time>
      </trkpt>
      <trkpt lat="44.08345" lon="3.18244">
        <ele>793.1</ele>
        <time>2019-05-31T10:26:02Z</time>
      </trkpt>
      <trkpt lat="44.08348" lon="3.18244">
        <ele>793.4</ele>
        <time>2019-05-31T10:26:03Z</time>
      </trkpt>
      <trkpt lat="44.08351" lon="3.18244">
        <ele>793.5</ele>
        <time>2019-05-31T10:26:04Z</time>
      </trkpt>
      <trkpt lat="44.08355" lon="3.18245">
        <ele>793.7</ele>
        <time>2019-05-31T10:26:06Z</time>
      </trkpt>
      <trkpt lat="44.08359" lon="3.18244">
        <ele>793.9</ele>
        <time>2019-05-31T10:26:08Z</time>
      </trkpt>
      <trkpt lat="44.08364" lon="3.18243">
        <ele>794.1</ele>
        <time>2019-05-31T10:26:10Z</time>
      </trkpt>
      <trkpt lat="44.08369" lon="3.18244">
        <ele>794.3</ele>
        <time>2019-05-31T10:26:12Z</time>
      </trkpt>
      <trkpt lat="44.08374" lon="3.18243">
        <ele>794.4</ele>
        <time>2019-05-31T10:26:14Z</time>
      </trkpt>
      <trkpt lat="44.08378" lon="3.18243">
        <ele>794.4</ele>
        <time>2019-05-31T10:26:15Z</time>
      </trkpt>
      <trkpt lat="44.08382" lon="3.18242">
        <ele>794.4</ele>
        <time>2019-05-31T10:26:16Z</time>
      </trkpt>
      <trkpt lat="44.08386" lon="3.18241">
        <ele>794.4</ele>
        <time>2019-05-31T10:26:17Z</time>
      </trkpt>
      <trkpt lat="44.0839" lon="3.18241">
        <ele>794.3</ele>
        <time>2019-05-31T10:26:18Z</time>
      </trkpt>
      <trkpt lat="44.08394" lon="3.18241">
        <ele>794.2</ele>
        <time>2019-05-31T10:26:19Z</time>
      </trkpt>
      <trkpt lat="44.08397" lon="3.18242">
        <ele>794.2</ele>
        <time>2019-05-31T10:26:20Z</time>
      </trkpt>
      <trkpt lat="44.08401" lon="3.18244">
        <ele>794.1</ele>
        <time>2019-05-31T10:26:21Z</time>
      </trkpt>
      <trkpt lat="44.08405" lon="3.18245">
        <ele>794</ele>
        <time>2019-05-31T10:26:22Z</time>
      </trkpt>
      <trkpt lat="44.0841" lon="3.18246">
        <ele>793.8</ele>
        <time>2019-05-31T10:26:23Z</time>
      </trkpt>
      <trkpt lat="44.08422" lon="3.18247">
        <ele>793.4</ele>
        <time>2019-05-31T10:26:24Z</time>
      </trkpt>
      <trkpt lat="44.08427" lon="3.18247">
        <ele>793.1</ele>
        <time>2019-05-31T10:26:25Z</time>
      </trkpt>
      <trkpt lat="44.08431" lon="3.18249">
        <ele>793</ele>
        <time>2019-05-31T10:26:26Z</time>
      </trkpt>
      <trkpt lat="44.08436" lon="3.18253">
        <ele>792.7</ele>
        <time>2019-05-31T10:26:27Z</time>
      </trkpt>
      <trkpt lat="44.08442" lon="3.18259">
        <ele>792.3</ele>
        <time>2019-05-31T10:26:29Z</time>
      </trkpt>
      <trkpt lat="44.08447" lon="3.18263">
        <ele>791.7</ele>
        <time>2019-05-31T10:26:30Z</time>
      </trkpt>
      <trkpt lat="44.0845" lon="3.18267">
        <ele>791.3</ele>
        <time>2019-05-31T10:26:31Z</time>
      </trkpt>
      <trkpt lat="44.08454" lon="3.18268">
        <ele>790.8</ele>
        <time>2019-05-31T10:26:32Z</time>
      </trkpt>
      <trkpt lat="44.0846" lon="3.18271">
        <ele>790.4</ele>
        <time>2019-05-31T10:26:33Z</time>
      </trkpt>
      <trkpt lat="44.08464" lon="3.18274">
        <ele>790.1</ele>
        <time>2019-05-31T10:26:34Z</time>
      </trkpt>
      <trkpt lat="44.0847" lon="3.18276">
        <ele>789.5</ele>
        <time>2019-05-31T10:26:35Z</time>
      </trkpt>
      <trkpt lat="44.08477" lon="3.18281">
        <ele>789.3</ele>
        <time>2019-05-31T10:26:36Z</time>
      </trkpt>
      <trkpt lat="44.08488" lon="3.18284">
        <ele>788.9</ele>
        <time>2019-05-31T10:26:37Z</time>
      </trkpt>
      <trkpt lat="44.08489" lon="3.1829">
        <ele>788.8</ele>
        <time>2019-05-31T10:26:38Z</time>
      </trkpt>
      <trkpt lat="44.08498" lon="3.18293">
        <ele>788.5</ele>
        <time>2019-05-31T10:26:39Z</time>
      </trkpt>
      <trkpt lat="44.08505" lon="3.18296">
        <ele>788.4</ele>
        <time>2019-05-31T10:26:40Z</time>
      </trkpt>
      <trkpt lat="44.0851" lon="3.18299">
        <ele>788.3</ele>
        <time>2019-05-31T10:26:41Z</time>
      </trkpt>
      <trkpt lat="44.08517" lon="3.183">
        <ele>788.1</ele>
        <time>2019-05-31T10:26:42Z</time>
      </trkpt>
      <trkpt lat="44.08524" lon="3.18306">
        <ele>787.8</ele>
        <time>2019-05-31T10:26:43Z</time>
      </trkpt>
      <trkpt lat="44.08532" lon="3.1831">
        <ele>787.4</ele>
        <time>2019-05-31T10:26:44Z</time>
      </trkpt>
      <trkpt lat="44.08538" lon="3.18314">
        <ele>787.1</ele>
        <time>2019-05-31T10:26:45Z</time>
      </trkpt>
      <trkpt lat="44.08545" lon="3.18318">
        <ele>786.7</ele>
        <time>2019-05-31T10:26:46Z</time>
      </trkpt>
      <trkpt lat="44.08551" lon="3.1832">
        <ele>786.4</ele>
        <time>2019-05-31T10:26:47Z</time>
      </trkpt>
      <trkpt lat="44.08555" lon="3.18324">
        <ele>786.2</ele>
        <time>2019-05-31T10:26:48Z</time>
      </trkpt>
      <trkpt lat="44.0856" lon="3.18328">
        <ele>785.9</ele>
        <time>2019-05-31T10:26:49Z</time>
      </trkpt>
      <trkpt lat="44.08567" lon="3.1833">
        <ele>785.7</ele>
        <time>2019-05-31T10:26:50Z</time>
      </trkpt>
      <trkpt lat="44.0857" lon="3.18335">
        <ele>785.5</ele>
        <time>2019-05-31T10:26:51Z</time>
      </trkpt>
      <trkpt lat="44.08577" lon="3.18339">
        <ele>785.1</ele>
        <time>2019-05-31T10:26:52Z</time>
      </trkpt>
      <trkpt lat="44.08582" lon="3.18343">
        <ele>784.8</ele>
        <time>2019-05-31T10:26:53Z</time>
      </trkpt>
      <trkpt lat="44.08588" lon="3.18347">
        <ele>784.6</ele>
        <time>2019-05-31T10:26:54Z</time>
      </trkpt>
      <trkpt lat="44.08591" lon="3.18356">
        <ele>784.4</ele>
        <time>2019-05-31T10:26:55Z</time>
      </trkpt>
      <trkpt lat="44.08596" lon="3.1836">
        <ele>784.2</ele>
        <time>2019-05-31T10:26:56Z</time>
      </trkpt>
      <trkpt lat="44.08602" lon="3.18364">
        <ele>783.9</ele>
        <time>2019-05-31T10:26:57Z</time>
      </trkpt>
      <trkpt lat="44.08607" lon="3.18367">
        <ele>783.8</ele>
        <time>2019-05-31T10:26:58Z</time>
      </trkpt>
      <trkpt lat="44.08612" lon="3.1837">
        <ele>783.6</ele>
        <time>2019-05-31T10:26:59Z</time>
      </trkpt>
      <trkpt lat="44.08617" lon="3.18374">
        <ele>783.4</ele>
        <time>2019-05-31T10:27:00Z</time>
      </trkpt>
      <trkpt lat="44.08622" lon="3.1838">
        <ele>783.2</ele>
        <time>2019-05-31T10:27:01Z</time>
      </trkpt>
      <trkpt lat="44.08627" lon="3.18388">
        <ele>783.1</ele>
        <time>2019-05-31T10:27:02Z</time>
      </trkpt>
      <trkpt lat="44.0863" lon="3.18395">
        <ele>783.1</ele>
        <time>2019-05-31T10:27:03Z</time>
      </trkpt>
      <trkpt lat="44.08633" lon="3.18403">
        <ele>783.1</ele>
        <time>2019-05-31T10:27:04Z</time>
      </trkpt>
      <trkpt lat="44.08636" lon="3.18408">
        <ele>783.1</ele>
        <time>2019-05-31T10:27:05Z</time>
      </trkpt>
      <trkpt lat="44.08641" lon="3.18414">
        <ele>783.1</ele>
        <time>2019-05-31T10:27:06Z</time>
      </trkpt>
      <trkpt lat="44.08645" lon="3.1842">
        <ele>783.1</ele>
        <time>2019-05-31T10:27:07Z</time>
      </trkpt>
      <trkpt lat="44.08649" lon="3.18423">
        <ele>783.1</ele>
        <time>2019-05-31T10:27:08Z</time>
      </trkpt>
      <trkpt lat="44.08654" lon="3.18426">
        <ele>783.2</ele>
        <time>2019-05-31T10:27:09Z</time>
      </trkpt>
      <trkpt lat="44.08659" lon="3.18429">
        <ele>783.3</ele>
        <time>2019-05-31T10:27:10Z</time>
      </trkpt>
      <trkpt lat="44.08664" lon="3.18431">
        <ele>783.4</ele>
        <time>2019-05-31T10:27:11Z</time>
      </trkpt>
      <trkpt lat="44.08669" lon="3.18432">
        <ele>783.5</ele>
        <time>2019-05-31T10:27:12Z</time>
      </trkpt>
      <trkpt lat="44.08674" lon="3.18434">
        <ele>783.6</ele>
        <time>2019-05-31T10:27:13Z</time>
      </trkpt>
      <trkpt lat="44.08679" lon="3.18436">
        <ele>783.6</ele>
        <time>2019-05-31T10:27:14Z</time>
      </trkpt>
      <trkpt lat="44.08685" lon="3.18437">
        <ele>783.7</ele>
        <time>2019-05-31T10:27:15Z</time>
      </trkpt>
      <trkpt lat="44.08689" lon="3.1844">
        <ele>783.8</ele>
        <time>2019-05-31T10:27:16Z</time>
      </trkpt>
      <trkpt lat="44.08693" lon="3.18444">
        <ele>783.8</ele>
        <time>2019-05-31T10:27:17Z</time>
      </trkpt>
      <trkpt lat="44.08697" lon="3.18448">
        <ele>783.8</ele>
        <time>2019-05-31T10:27:18Z</time>
      </trkpt>
      <trkpt lat="44.08701" lon="3.1845">
        <ele>783.9</ele>
        <time>2019-05-31T10:27:19Z</time>
      </trkpt>
      <trkpt lat="44.08706" lon="3.18454">
        <ele>783.9</ele>
        <time>2019-05-31T10:27:20Z</time>
      </trkpt>
      <trkpt lat="44.08709" lon="3.18458">
        <ele>783.9</ele>
        <time>2019-05-31T10:27:21Z</time>
      </trkpt>
      <trkpt lat="44.08716" lon="3.1846">
        <ele>783.9</ele>
        <time>2019-05-31T10:27:22Z</time>
      </trkpt>
      <trkpt lat="44.08722" lon="3.1846">
        <ele>784</ele>
        <time>2019-05-31T10:27:23Z</time>
      </trkpt>
      <trkpt lat="44.08726" lon="3.18463">
        <ele>784</ele>
        <time>2019-05-31T10:27:24Z</time>
      </trkpt>
      <trkpt lat="44.0873" lon="3.18466">
        <ele>784.2</ele>
        <time>2019-05-31T10:27:25Z</time>
      </trkpt>
      <trkpt lat="44.08734" lon="3.18468">
        <ele>784.3</ele>
        <time>2019-05-31T10:27:26Z</time>
      </trkpt>
      <trkpt lat="44.08739" lon="3.18469">
        <ele>784.5</ele>
        <time>2019-05-31T10:27:27Z</time>
      </trkpt>
      <trkpt lat="44.08744" lon="3.18471">
        <ele>784.7</ele>
        <time>2019-05-31T10:27:28Z</time>
      </trkpt>
      <trkpt lat="44.08747" lon="3.18476">
        <ele>784.9</ele>
        <time>2019-05-31T10:27:30Z</time>
      </trkpt>
      <trkpt lat="44.08751" lon="3.18476">
        <ele>785.1</ele>
        <time>2019-05-31T10:27:31Z</time>
      </trkpt>
      <trkpt lat="44.08754" lon="3.18478">
        <ele>785.2</ele>
        <time>2019-05-31T10:27:32Z</time>
      </trkpt>
      <trkpt lat="44.08758" lon="3.1848">
        <ele>785.4</ele>
        <time>2019-05-31T10:27:33Z</time>
      </trkpt>
      <trkpt lat="44.08763" lon="3.18487">
        <ele>785.7</ele>
        <time>2019-05-31T10:27:35Z</time>
      </trkpt>
      <trkpt lat="44.08767" lon="3.18489">
        <ele>785.9</ele>
        <time>2019-05-31T10:27:36Z</time>
      </trkpt>
      <trkpt lat="44.0877" lon="3.18492">
        <ele>786.1</ele>
        <time>2019-05-31T10:27:37Z</time>
      </trkpt>
      <trkpt lat="44.08772" lon="3.18495">
        <ele>786.1</ele>
        <time>2019-05-31T10:27:38Z</time>
      </trkpt>
      <trkpt lat="44.08773" lon="3.18499">
        <ele>786.2</ele>
        <time>2019-05-31T10:27:39Z</time>
      </trkpt>
      <trkpt lat="44.08774" lon="3.18504">
        <ele>786.2</ele>
        <time>2019-05-31T10:27:40Z</time>
      </trkpt>
      <trkpt lat="44.08776" lon="3.18509">
        <ele>786.3</ele>
        <time>2019-05-31T10:27:41Z</time>
      </trkpt>
      <trkpt lat="44.08778" lon="3.18512">
        <ele>786.3</ele>
        <time>2019-05-31T10:27:42Z</time>
      </trkpt>
      <trkpt lat="44.0878" lon="3.18515">
        <ele>786.4</ele>
        <time>2019-05-31T10:27:43Z</time>
      </trkpt>
      <trkpt lat="44.08783" lon="3.18517">
        <ele>786.4</ele>
        <time>2019-05-31T10:27:44Z</time>
      </trkpt>
      <trkpt lat="44.08787" lon="3.1852">
        <ele>786.5</ele>
        <time>2019-05-31T10:27:45Z</time>
      </trkpt>
      <trkpt lat="44.08792" lon="3.18523">
        <ele>786.5</ele>
        <time>2019-05-31T10:27:46Z</time>
      </trkpt>
      <trkpt lat="44.08798" lon="3.18529">
        <ele>786.5</ele>
        <time>2019-05-31T10:27:47Z</time>
      </trkpt>
      <trkpt lat="44.08801" lon="3.18532">
        <ele>786.5</ele>
        <time>2019-05-31T10:27:48Z</time>
      </trkpt>
      <trkpt lat="44.08806" lon="3.18534">
        <ele>786.5</ele>
        <time>2019-05-31T10:27:49Z</time>
      </trkpt>
      <trkpt lat="44.08811" lon="3.18536">
        <ele>786.5</ele>
        <time>2019-05-31T10:27:50Z</time>
      </trkpt>
      <trkpt lat="44.08816" lon="3.18536">
        <ele>786.4</ele>
        <time>2019-05-31T10:27:51Z</time>
      </trkpt>
      <trkpt lat="44.0882" lon="3.18535">
        <ele>786.4</ele>
        <time>2019-05-31T10:27:52Z</time>
      </trkpt>
      <trkpt lat="44.08823" lon="3.18534">
        <ele>786.3</ele>
        <time>2019-05-31T10:27:53Z</time>
      </trkpt>
      <trkpt lat="44.0883" lon="3.18533">
        <ele>786.3</ele>
        <time>2019-05-31T10:27:54Z</time>
      </trkpt>
      <trkpt lat="44.08837" lon="3.18532">
        <ele>786.2</ele>
        <time>2019-05-31T10:27:55Z</time>
      </trkpt>
      <trkpt lat="44.08843" lon="3.18534">
        <ele>786.2</ele>
        <time>2019-05-31T10:27:56Z</time>
      </trkpt>
      <trkpt lat="44.08847" lon="3.18536">
        <ele>786.2</ele>
        <time>2019-05-31T10:27:57Z</time>
      </trkpt>
      <trkpt lat="44.08853" lon="3.18536">
        <ele>786.3</ele>
        <time>2019-05-31T10:27:58Z</time>
      </trkpt>
      <trkpt lat="44.08857" lon="3.18536">
        <ele>786.3</ele>
        <time>2019-05-31T10:27:59Z</time>
      </trkpt>
      <trkpt lat="44.08861" lon="3.18535">
        <ele>786.4</ele>
        <time>2019-05-31T10:28:00Z</time>
      </trkpt>
      <trkpt lat="44.08865" lon="3.18535">
        <ele>786.4</ele>
        <time>2019-05-31T10:28:01Z</time>
      </trkpt>
      <trkpt lat="44.08869" lon="3.18533">
        <ele>786.5</ele>
        <time>2019-05-31T10:28:02Z</time>
      </trkpt>
      <trkpt lat="44.08872" lon="3.18533">
        <ele>786.6</ele>
        <time>2019-05-31T10:28:03Z</time>
      </trkpt>
      <trkpt lat="44.08877" lon="3.18533">
        <ele>786.7</ele>
        <time>2019-05-31T10:28:04Z</time>
      </trkpt>
      <trkpt lat="44.0888" lon="3.18535">
        <ele>786.7</ele>
        <time>2019-05-31T10:28:05Z</time>
      </trkpt>
      <trkpt lat="44.08886" lon="3.18535">
        <ele>786.7</ele>
        <time>2019-05-31T10:28:06Z</time>
      </trkpt>
      <trkpt lat="44.0889" lon="3.18535">
        <ele>786.6</ele>
        <time>2019-05-31T10:28:07Z</time>
      </trkpt>
      <trkpt lat="44.08895" lon="3.18533">
        <ele>786.5</ele>
        <time>2019-05-31T10:28:08Z</time>
      </trkpt>
      <trkpt lat="44.08901" lon="3.18532">
        <ele>786.4</ele>
        <time>2019-05-31T10:28:09Z</time>
      </trkpt>
      <trkpt lat="44.08906" lon="3.1853">
        <ele>786.1</ele>
        <time>2019-05-31T10:28:10Z</time>
      </trkpt>
      <trkpt lat="44.0891" lon="3.18528">
        <ele>785.9</ele>
        <time>2019-05-31T10:28:11Z</time>
      </trkpt>
      <trkpt lat="44.08917" lon="3.18525">
        <ele>785.6</ele>
        <time>2019-05-31T10:28:12Z</time>
      </trkpt>
      <trkpt lat="44.08925" lon="3.18521">
        <ele>785.3</ele>
        <time>2019-05-31T10:28:13Z</time>
      </trkpt>
      <trkpt lat="44.08932" lon="3.18517">
        <ele>785</ele>
        <time>2019-05-31T10:28:14Z</time>
      </trkpt>
      <trkpt lat="44.08939" lon="3.18514">
        <ele>784.5</ele>
        <time>2019-05-31T10:28:15Z</time>
      </trkpt>
      <trkpt lat="44.08945" lon="3.18508">
        <ele>784.1</ele>
        <time>2019-05-31T10:28:16Z</time>
      </trkpt>
      <trkpt lat="44.08953" lon="3.18506">
        <ele>783.6</ele>
        <time>2019-05-31T10:28:17Z</time>
      </trkpt>
      <trkpt lat="44.08961" lon="3.18505">
        <ele>783</ele>
        <time>2019-05-31T10:28:18Z</time>
      </trkpt>
      <trkpt lat="44.08965" lon="3.18513">
        <ele>782.7</ele>
        <time>2019-05-31T10:28:19Z</time>
      </trkpt>
      <trkpt lat="44.0897" lon="3.1852">
        <ele>782.4</ele>
        <time>2019-05-31T10:28:20Z</time>
      </trkpt>
      <trkpt lat="44.08973" lon="3.18529">
        <ele>782.1</ele>
        <time>2019-05-31T10:28:21Z</time>
      </trkpt>
      <trkpt lat="44.08978" lon="3.18539">
        <ele>781.7</ele>
        <time>2019-05-31T10:28:22Z</time>
      </trkpt>
      <trkpt lat="44.08983" lon="3.18547">
        <ele>781.3</ele>
        <time>2019-05-31T10:28:23Z</time>
      </trkpt>
      <trkpt lat="44.08988" lon="3.18554">
        <ele>780.8</ele>
        <time>2019-05-31T10:28:24Z</time>
      </trkpt>
      <trkpt lat="44.08992" lon="3.18563">
        <ele>780.4</ele>
        <time>2019-05-31T10:28:25Z</time>
      </trkpt>
      <trkpt lat="44.08997" lon="3.1857">
        <ele>780.1</ele>
        <time>2019-05-31T10:28:26Z</time>
      </trkpt>
      <trkpt lat="44.09003" lon="3.18577">
        <ele>779.4</ele>
        <time>2019-05-31T10:28:27Z</time>
      </trkpt>
      <trkpt lat="44.09012" lon="3.18583">
        <ele>778.3</ele>
        <time>2019-05-31T10:28:28Z</time>
      </trkpt>
      <trkpt lat="44.09018" lon="3.1859">
        <ele>777.5</ele>
        <time>2019-05-31T10:28:29Z</time>
      </trkpt>
      <trkpt lat="44.09023" lon="3.186">
        <ele>776.4</ele>
        <time>2019-05-31T10:28:30Z</time>
      </trkpt>
      <trkpt lat="44.09026" lon="3.18613">
        <ele>775</ele>
        <time>2019-05-31T10:28:31Z</time>
      </trkpt>
      <trkpt lat="44.09029" lon="3.18626">
        <ele>773.4</ele>
        <time>2019-05-31T10:28:32Z</time>
      </trkpt>
      <trkpt lat="44.09029" lon="3.18639">
        <ele>772</ele>
        <time>2019-05-31T10:28:33Z</time>
      </trkpt>
      <trkpt lat="44.09027" lon="3.18651">
        <ele>771.1</ele>
        <time>2019-05-31T10:28:34Z</time>
      </trkpt>
      <trkpt lat="44.09025" lon="3.18664">
        <ele>770.6</ele>
        <time>2019-05-31T10:28:35Z</time>
      </trkpt>
      <trkpt lat="44.09021" lon="3.18675">
        <ele>770.1</ele>
        <time>2019-05-31T10:28:36Z</time>
      </trkpt>
      <trkpt lat="44.09016" lon="3.18685">
        <ele>769.6</ele>
        <time>2019-05-31T10:28:37Z</time>
      </trkpt>
      <trkpt lat="44.0901" lon="3.18698">
        <ele>769.3</ele>
        <time>2019-05-31T10:28:38Z</time>
      </trkpt>
      <trkpt lat="44.09005" lon="3.18708">
        <ele>769</ele>
        <time>2019-05-31T10:28:39Z</time>
      </trkpt>
      <trkpt lat="44.09002" lon="3.18718">
        <ele>768.6</ele>
        <time>2019-05-31T10:28:40Z</time>
      </trkpt>
      <trkpt lat="44.08998" lon="3.18727">
        <ele>768.4</ele>
        <time>2019-05-31T10:28:41Z</time>
      </trkpt>
      <trkpt lat="44.08993" lon="3.18738">
        <ele>768.2</ele>
        <time>2019-05-31T10:28:42Z</time>
      </trkpt>
      <trkpt lat="44.0899" lon="3.18748">
        <ele>768</ele>
        <time>2019-05-31T10:28:43Z</time>
      </trkpt>
      <trkpt lat="44.08986" lon="3.18758">
        <ele>767.7</ele>
        <time>2019-05-31T10:28:44Z</time>
      </trkpt>
      <trkpt lat="44.08984" lon="3.18769">
        <ele>767.5</ele>
        <time>2019-05-31T10:28:45Z</time>
      </trkpt>
      <trkpt lat="44.0898" lon="3.18779">
        <ele>767.3</ele>
        <time>2019-05-31T10:28:46Z</time>
      </trkpt>
      <trkpt lat="44.08978" lon="3.18788">
        <ele>767.1</ele>
        <time>2019-05-31T10:28:47Z</time>
      </trkpt>
      <trkpt lat="44.08975" lon="3.18797">
        <ele>767</ele>
        <time>2019-05-31T10:28:48Z</time>
      </trkpt>
      <trkpt lat="44.08971" lon="3.18805">
        <ele>766.7</ele>
        <time>2019-05-31T10:28:49Z</time>
      </trkpt>
      <trkpt lat="44.08963" lon="3.18814">
        <ele>766.2</ele>
        <time>2019-05-31T10:28:50Z</time>
      </trkpt>
      <trkpt lat="44.08957" lon="3.18819">
        <ele>765.9</ele>
        <time>2019-05-31T10:28:51Z</time>
      </trkpt>
      <trkpt lat="44.08951" lon="3.18826">
        <ele>765.5</ele>
        <time>2019-05-31T10:28:52Z</time>
      </trkpt>
      <trkpt lat="44.08946" lon="3.18836">
        <ele>764.7</ele>
        <time>2019-05-31T10:28:53Z</time>
      </trkpt>
      <trkpt lat="44.08943" lon="3.18848">
        <ele>763.5</ele>
        <time>2019-05-31T10:28:54Z</time>
      </trkpt>
      <trkpt lat="44.0894" lon="3.1886">
        <ele>762.1</ele>
        <time>2019-05-31T10:28:55Z</time>
      </trkpt>
      <trkpt lat="44.08936" lon="3.1887">
        <ele>761.2</ele>
        <time>2019-05-31T10:28:56Z</time>
      </trkpt>
      <trkpt lat="44.08933" lon="3.18876">
        <ele>760.7</ele>
        <time>2019-05-31T10:28:57Z</time>
      </trkpt>
      <trkpt lat="44.08932" lon="3.18884">
        <ele>760.2</ele>
        <time>2019-05-31T10:28:58Z</time>
      </trkpt>
      <trkpt lat="44.08932" lon="3.18889">
        <ele>759.9</ele>
        <time>2019-05-31T10:28:59Z</time>
      </trkpt>
      <trkpt lat="44.08929" lon="3.18896">
        <ele>759.7</ele>
        <time>2019-05-31T10:29:00Z</time>
      </trkpt>
      <trkpt lat="44.08929" lon="3.18902">
        <ele>759.5</ele>
        <time>2019-05-31T10:29:01Z</time>
      </trkpt>
      <trkpt lat="44.08931" lon="3.18907">
        <ele>759.4</ele>
        <time>2019-05-31T10:29:02Z</time>
      </trkpt>
      <trkpt lat="44.08931" lon="3.18911">
        <ele>759.3</ele>
        <time>2019-05-31T10:29:04Z</time>
      </trkpt>
      <trkpt lat="44.08933" lon="3.18917">
        <ele>759.3</ele>
        <time>2019-05-31T10:29:35Z</time>
      </trkpt>
      <trkpt lat="44.08935" lon="3.1892">
        <ele>759.2</ele>
        <time>2019-05-31T10:29:37Z</time>
      </trkpt>
      <trkpt lat="44.08941" lon="3.18922">
        <ele>759.2</ele>
        <time>2019-05-31T10:29:39Z</time>
      </trkpt>
      <trkpt lat="44.08944" lon="3.18923">
        <ele>759.2</ele>
        <time>2019-05-31T10:29:40Z</time>
      </trkpt>
      <trkpt lat="44.08947" lon="3.18923">
        <ele>759.2</ele>
        <time>2019-05-31T10:29:41Z</time>
      </trkpt>
      <trkpt lat="44.0895" lon="3.18924">
        <ele>759.1</ele>
        <time>2019-05-31T10:29:43Z</time>
      </trkpt>
      <trkpt lat="44.08952" lon="3.18926">
        <ele>759.1</ele>
        <time>2019-05-31T10:29:46Z</time>
      </trkpt>
      <trkpt lat="44.08957" lon="3.18929">
        <ele>759.1</ele>
        <time>2019-05-31T10:30:28Z</time>
      </trkpt>
      <trkpt lat="44.08962" lon="3.18935">
        <ele>759</ele>
        <time>2019-05-31T10:30:30Z</time>
      </trkpt>
      <trkpt lat="44.08965" lon="3.18938">
        <ele>759</ele>
        <time>2019-05-31T10:30:31Z</time>
      </trkpt>
      <trkpt lat="44.08968" lon="3.18942">
        <ele>758.9</ele>
        <time>2019-05-31T10:30:32Z</time>
      </trkpt>
      <trkpt lat="44.08973" lon="3.18947">
        <ele>758.7</ele>
        <time>2019-05-31T10:30:33Z</time>
      </trkpt>
      <trkpt lat="44.08976" lon="3.18953">
        <ele>758.6</ele>
        <time>2019-05-31T10:30:34Z</time>
      </trkpt>
      <trkpt lat="44.0898" lon="3.18956">
        <ele>758.5</ele>
        <time>2019-05-31T10:30:35Z</time>
      </trkpt>
      <trkpt lat="44.08986" lon="3.18955">
        <ele>758.4</ele>
        <time>2019-05-31T10:30:36Z</time>
      </trkpt>
      <trkpt lat="44.08989" lon="3.18957">
        <ele>758.3</ele>
        <time>2019-05-31T10:30:37Z</time>
      </trkpt>
      <trkpt lat="44.08991" lon="3.18959">
        <ele>758.2</ele>
        <time>2019-05-31T10:30:38Z</time>
      </trkpt>
      <trkpt lat="44.08998" lon="3.1896">
        <ele>758</ele>
        <time>2019-05-31T10:30:39Z</time>
      </trkpt>
      <trkpt lat="44.09003" lon="3.18961">
        <ele>757.7</ele>
        <time>2019-05-31T10:30:40Z</time>
      </trkpt>
      <trkpt lat="44.09006" lon="3.18963">
        <ele>757.6</ele>
        <time>2019-05-31T10:30:41Z</time>
      </trkpt>
      <trkpt lat="44.09012" lon="3.18968">
        <ele>757.4</ele>
        <time>2019-05-31T10:30:42Z</time>
      </trkpt>
      <trkpt lat="44.09017" lon="3.18975">
        <ele>757.1</ele>
        <time>2019-05-31T10:30:43Z</time>
      </trkpt>
      <trkpt lat="44.09025" lon="3.1898">
        <ele>756.6</ele>
        <time>2019-05-31T10:30:44Z</time>
      </trkpt>
      <trkpt lat="44.09029" lon="3.18986">
        <ele>756.2</ele>
        <time>2019-05-31T10:30:45Z</time>
      </trkpt>
      <trkpt lat="44.09032" lon="3.18988">
        <ele>755.9</ele>
        <time>2019-05-31T10:30:46Z</time>
      </trkpt>
      <trkpt lat="44.09038" lon="3.19">
        <ele>755.3</ele>
        <time>2019-05-31T10:30:47Z</time>
      </trkpt>
      <trkpt lat="44.0904" lon="3.19012">
        <ele>754.6</ele>
        <time>2019-05-31T10:30:48Z</time>
      </trkpt>
      <trkpt lat="44.09044" lon="3.19018">
        <ele>754.2</ele>
        <time>2019-05-31T10:30:49Z</time>
      </trkpt>
      <trkpt lat="44.09052" lon="3.19026">
        <ele>753.3</ele>
        <time>2019-05-31T10:30:50Z</time>
      </trkpt>
      <trkpt lat="44.09058" lon="3.19034">
        <ele>752.8</ele>
        <time>2019-05-31T10:30:51Z</time>
      </trkpt>
      <trkpt lat="44.09064" lon="3.19038">
        <ele>752.2</ele>
        <time>2019-05-31T10:30:52Z</time>
      </trkpt>
      <trkpt lat="44.09075" lon="3.19031">
        <ele>751.4</ele>
        <time>2019-05-31T10:30:53Z</time>
      </trkpt>
      <trkpt lat="44.09081" lon="3.19031">
        <ele>751.1</ele>
        <time>2019-05-31T10:30:54Z</time>
      </trkpt>
      <trkpt lat="44.09089" lon="3.19028">
        <ele>750.5</ele>
        <time>2019-05-31T10:30:55Z</time>
      </trkpt>
      <trkpt lat="44.09092" lon="3.19028">
        <ele>750.3</ele>
        <time>2019-05-31T10:30:56Z</time>
      </trkpt>
      <trkpt lat="44.09095" lon="3.19027">
        <ele>750.2</ele>
        <time>2019-05-31T10:30:57Z</time>
      </trkpt>
      <trkpt lat="44.091" lon="3.19029">
        <ele>749.9</ele>
        <time>2019-05-31T10:30:58Z</time>
      </trkpt>
      <trkpt lat="44.09104" lon="3.19029">
        <ele>749.8</ele>
        <time>2019-05-31T10:30:59Z</time>
      </trkpt>
      <trkpt lat="44.09109" lon="3.19032">
        <ele>749.5</ele>
        <time>2019-05-31T10:31:00Z</time>
      </trkpt>
      <trkpt lat="44.09113" lon="3.19032">
        <ele>749.3</ele>
        <time>2019-05-31T10:31:01Z</time>
      </trkpt>
      <trkpt lat="44.09117" lon="3.19032">
        <ele>749.1</ele>
        <time>2019-05-31T10:31:02Z</time>
      </trkpt>
      <trkpt lat="44.0912" lon="3.19033">
        <ele>749</ele>
        <time>2019-05-31T10:31:04Z</time>
      </trkpt>
      <trkpt lat="44.09124" lon="3.19033">
        <ele>748.8</ele>
        <time>2019-05-31T10:31:05Z</time>
      </trkpt>
      <trkpt lat="44.09128" lon="3.19033">
        <ele>748.5</ele>
        <time>2019-05-31T10:31:07Z</time>
      </trkpt>
      <trkpt lat="44.09133" lon="3.19035">
        <ele>748.3</ele>
        <time>2019-05-31T10:31:09Z</time>
      </trkpt>
      <trkpt lat="44.09136" lon="3.19035">
        <ele>748.2</ele>
        <time>2019-05-31T10:31:10Z</time>
      </trkpt>
      <trkpt lat="44.09139" lon="3.19036">
        <ele>747.9</ele>
        <time>2019-05-31T10:31:11Z</time>
      </trkpt>
      <trkpt lat="44.09142" lon="3.19036">
        <ele>747.7</ele>
        <time>2019-05-31T10:31:12Z</time>
      </trkpt>
      <trkpt lat="44.09145" lon="3.19036">
        <ele>747.6</ele>
        <time>2019-05-31T10:31:13Z</time>
      </trkpt>
      <trkpt lat="44.0915" lon="3.19036">
        <ele>747.5</ele>
        <time>2019-05-31T10:31:15Z</time>
      </trkpt>
      <trkpt lat="44.09154" lon="3.19035">
        <ele>747.3</ele>
        <time>2019-05-31T10:31:16Z</time>
      </trkpt>
      <trkpt lat="44.09159" lon="3.19033">
        <ele>747</ele>
        <time>2019-05-31T10:31:17Z</time>
      </trkpt>
      <trkpt lat="44.09163" lon="3.19031">
        <ele>746.8</ele>
        <time>2019-05-31T10:31:18Z</time>
      </trkpt>
      <trkpt lat="44.09167" lon="3.19029">
        <ele>746.6</ele>
        <time>2019-05-31T10:31:19Z</time>
      </trkpt>
      <trkpt lat="44.09171" lon="3.19028">
        <ele>746.3</ele>
        <time>2019-05-31T10:31:20Z</time>
      </trkpt>
      <trkpt lat="44.09176" lon="3.19026">
        <ele>746</ele>
        <time>2019-05-31T10:31:21Z</time>
      </trkpt>
      <trkpt lat="44.0918" lon="3.19023">
        <ele>746</ele>
        <time>2019-05-31T10:31:22Z</time>
      </trkpt>
      <trkpt lat="44.09184" lon="3.1902">
        <ele>746.1</ele>
        <time>2019-05-31T10:31:23Z</time>
      </trkpt>
      <trkpt lat="44.09187" lon="3.19017">
        <ele>746</ele>
        <time>2019-05-31T10:31:24Z</time>
      </trkpt>
      <trkpt lat="44.0919" lon="3.19014">
        <ele>746</ele>
        <time>2019-05-31T10:31:25Z</time>
      </trkpt>
      <trkpt lat="44.09193" lon="3.19009">
        <ele>746</ele>
        <time>2019-05-31T10:31:27Z</time>
      </trkpt>
      <trkpt lat="44.09196" lon="3.19006">
        <ele>746</ele>
        <time>2019-05-31T10:31:29Z</time>
      </trkpt>
      <trkpt lat="44.09198" lon="3.19004">
        <ele>746</ele>
        <time>2019-05-31T10:31:33Z</time>
      </trkpt>
      <trkpt lat="44.092" lon="3.19001">
        <ele>746</ele>
        <time>2019-05-31T10:31:36Z</time>
      </trkpt>
      <trkpt lat="44.09203" lon="3.18997">
        <ele>746</ele>
        <time>2019-05-31T10:31:42Z</time>
      </trkpt>
      <trkpt lat="44.09206" lon="3.18992">
        <ele>746.1</ele>
        <time>2019-05-31T10:31:44Z</time>
      </trkpt>
      <trkpt lat="44.0921" lon="3.18988">
        <ele>746.6</ele>
        <time>2019-05-31T10:31:46Z</time>
      </trkpt>
      <trkpt lat="44.09212" lon="3.18985">
        <ele>746.9</ele>
        <time>2019-05-31T10:31:47Z</time>
      </trkpt>
      <trkpt lat="44.09215" lon="3.18982">
        <ele>747.1</ele>
        <time>2019-05-31T10:31:48Z</time>
      </trkpt>
      <trkpt lat="44.09219" lon="3.18978">
        <ele>747.2</ele>
        <time>2019-05-31T10:31:50Z</time>
      </trkpt>
      <trkpt lat="44.09222" lon="3.18977">
        <ele>747.3</ele>
        <time>2019-05-31T10:31:51Z</time>
      </trkpt>
      <trkpt lat="44.09225" lon="3.18976">
        <ele>747.1</ele>
        <time>2019-05-31T10:31:52Z</time>
      </trkpt>
      <trkpt lat="44.09229" lon="3.18975">
        <ele>746.9</ele>
        <time>2019-05-31T10:31:53Z</time>
      </trkpt>
      <trkpt lat="44.09232" lon="3.18975">
        <ele>746.7</ele>
        <time>2019-05-31T10:31:54Z</time>
      </trkpt>
      <trkpt lat="44.09235" lon="3.18976">
        <ele>746.5</ele>
        <time>2019-05-31T10:31:55Z</time>
      </trkpt>
      <trkpt lat="44.09239" lon="3.18978">
        <ele>746.4</ele>
        <time>2019-05-31T10:31:56Z</time>
      </trkpt>
      <trkpt lat="44.09243" lon="3.18981">
        <ele>746.2</ele>
        <time>2019-05-31T10:31:57Z</time>
      </trkpt>
      <trkpt lat="44.09247" lon="3.18982">
        <ele>745.9</ele>
        <time>2019-05-31T10:31:58Z</time>
      </trkpt>
      <trkpt lat="44.09251" lon="3.18984">
        <ele>745.6</ele>
        <time>2019-05-31T10:31:59Z</time>
      </trkpt>
      <trkpt lat="44.09255" lon="3.18985">
        <ele>745.4</ele>
        <time>2019-05-31T10:32:00Z</time>
      </trkpt>
      <trkpt lat="44.0926" lon="3.18986">
        <ele>745.3</ele>
        <time>2019-05-31T10:32:01Z</time>
      </trkpt>
      <trkpt lat="44.09264" lon="3.18988">
        <ele>745.2</ele>
        <time>2019-05-31T10:32:02Z</time>
      </trkpt>
      <trkpt lat="44.09268" lon="3.18989">
        <ele>745</ele>
        <time>2019-05-31T10:32:03Z</time>
      </trkpt>
      <trkpt lat="44.09273" lon="3.18989">
        <ele>744.9</ele>
        <time>2019-05-31T10:32:04Z</time>
      </trkpt>
      <trkpt lat="44.09277" lon="3.18989">
        <ele>744.6</ele>
        <time>2019-05-31T10:32:05Z</time>
      </trkpt>
      <trkpt lat="44.09282" lon="3.18988">
        <ele>744.4</ele>
        <time>2019-05-31T10:32:06Z</time>
      </trkpt>
      <trkpt lat="44.09285" lon="3.18986">
        <ele>744.3</ele>
        <time>2019-05-31T10:32:07Z</time>
      </trkpt>
      <trkpt lat="44.09289" lon="3.18984">
        <ele>744.3</ele>
        <time>2019-05-31T10:32:08Z</time>
      </trkpt>
      <trkpt lat="44.09293" lon="3.18982">
        <ele>744.5</ele>
        <time>2019-05-31T10:32:09Z</time>
      </trkpt>
      <trkpt lat="44.09297" lon="3.1898">
        <ele>744.5</ele>
        <time>2019-05-31T10:32:10Z</time>
      </trkpt>
      <trkpt lat="44.09301" lon="3.18979">
        <ele>744.5</ele>
        <time>2019-05-31T10:32:11Z</time>
      </trkpt>
      <trkpt lat="44.09305" lon="3.18977">
        <ele>744.6</ele>
        <time>2019-05-31T10:32:12Z</time>
      </trkpt>
      <trkpt lat="44.09308" lon="3.18976">
        <ele>744.7</ele>
        <time>2019-05-31T10:32:13Z</time>
      </trkpt>
      <trkpt lat="44.09312" lon="3.18975">
        <ele>744.8</ele>
        <time>2019-05-31T10:32:14Z</time>
      </trkpt>
      <trkpt lat="44.09315" lon="3.18974">
        <ele>744.8</ele>
        <time>2019-05-31T10:32:15Z</time>
      </trkpt>
      <trkpt lat="44.09318" lon="3.18974">
        <ele>744.8</ele>
        <time>2019-05-31T10:32:16Z</time>
      </trkpt>
      <trkpt lat="44.09321" lon="3.18973">
        <ele>744.9</ele>
        <time>2019-05-31T10:32:17Z</time>
      </trkpt>
      <trkpt lat="44.09325" lon="3.18973">
        <ele>745</ele>
        <time>2019-05-31T10:32:18Z</time>
      </trkpt>
      <trkpt lat="44.09329" lon="3.18972">
        <ele>745</ele>
        <time>2019-05-31T10:32:19Z</time>
      </trkpt>
      <trkpt lat="44.09332" lon="3.18971">
        <ele>744.9</ele>
        <time>2019-05-31T10:32:20Z</time>
      </trkpt>
      <trkpt lat="44.09336" lon="3.1897">
        <ele>744.7</ele>
        <time>2019-05-31T10:32:21Z</time>
      </trkpt>
      <trkpt lat="44.09342" lon="3.18967">
        <ele>744.8</ele>
        <time>2019-05-31T10:32:22Z</time>
      </trkpt>
      <trkpt lat="44.09346" lon="3.18965">
        <ele>744.6</ele>
        <time>2019-05-31T10:32:23Z</time>
      </trkpt>
      <trkpt lat="44.0935" lon="3.18962">
        <ele>744.3</ele>
        <time>2019-05-31T10:32:24Z</time>
      </trkpt>
      <trkpt lat="44.09354" lon="3.1896">
        <ele>744.2</ele>
        <time>2019-05-31T10:32:25Z</time>
      </trkpt>
      <trkpt lat="44.09359" lon="3.18957">
        <ele>744.1</ele>
        <time>2019-05-31T10:32:26Z</time>
      </trkpt>
      <trkpt lat="44.09363" lon="3.18954">
        <ele>744</ele>
        <time>2019-05-31T10:32:27Z</time>
      </trkpt>
      <trkpt lat="44.09366" lon="3.18952">
        <ele>744</ele>
        <time>2019-05-31T10:32:28Z</time>
      </trkpt>
      <trkpt lat="44.09369" lon="3.18949">
        <ele>744</ele>
        <time>2019-05-31T10:32:29Z</time>
      </trkpt>
      <trkpt lat="44.09373" lon="3.18946">
        <ele>744.1</ele>
        <time>2019-05-31T10:32:30Z</time>
      </trkpt>
      <trkpt lat="44.09376" lon="3.18945">
        <ele>744.3</ele>
        <time>2019-05-31T10:32:31Z</time>
      </trkpt>
      <trkpt lat="44.0938" lon="3.18942">
        <ele>744.4</ele>
        <time>2019-05-31T10:32:32Z</time>
      </trkpt>
      <trkpt lat="44.09383" lon="3.1894">
        <ele>744.4</ele>
        <time>2019-05-31T10:32:33Z</time>
      </trkpt>
      <trkpt lat="44.09386" lon="3.18938">
        <ele>744.5</ele>
        <time>2019-05-31T10:32:34Z</time>
      </trkpt>
      <trkpt lat="44.0939" lon="3.18936">
        <ele>744.5</ele>
        <time>2019-05-31T10:32:35Z</time>
      </trkpt>
      <trkpt lat="44.09393" lon="3.18935">
        <ele>744.4</ele>
        <time>2019-05-31T10:32:36Z</time>
      </trkpt>
      <trkpt lat="44.09396" lon="3.18933">
        <ele>744.4</ele>
        <time>2019-05-31T10:32:37Z</time>
      </trkpt>
      <trkpt lat="44.094" lon="3.18931">
        <ele>744.3</ele>
        <time>2019-05-31T10:32:38Z</time>
      </trkpt>
      <trkpt lat="44.09404" lon="3.18929">
        <ele>744.1</ele>
        <time>2019-05-31T10:32:39Z</time>
      </trkpt>
      <trkpt lat="44.09408" lon="3.18927">
        <ele>743.7</ele>
        <time>2019-05-31T10:32:40Z</time>
      </trkpt>
      <trkpt lat="44.09412" lon="3.18926">
        <ele>743.4</ele>
        <time>2019-05-31T10:32:41Z</time>
      </trkpt>
      <trkpt lat="44.09417" lon="3.18925">
        <ele>743.2</ele>
        <time>2019-05-31T10:32:42Z</time>
      </trkpt>
      <trkpt lat="44.09424" lon="3.18923">
        <ele>742.6</ele>
        <time>2019-05-31T10:32:43Z</time>
      </trkpt>
      <trkpt lat="44.09429" lon="3.18922">
        <ele>742.2</ele>
        <time>2019-05-31T10:32:44Z</time>
      </trkpt>
      <trkpt lat="44.09434" lon="3.18922">
        <ele>742</ele>
        <time>2019-05-31T10:32:45Z</time>
      </trkpt>
      <trkpt lat="44.09439" lon="3.18919">
        <ele>741.7</ele>
        <time>2019-05-31T10:32:46Z</time>
      </trkpt>
      <trkpt lat="44.09446" lon="3.18917">
        <ele>741.4</ele>
        <time>2019-05-31T10:32:47Z</time>
      </trkpt>
      <trkpt lat="44.09453" lon="3.18915">
        <ele>741</ele>
        <time>2019-05-31T10:32:48Z</time>
      </trkpt>
      <trkpt lat="44.0946" lon="3.18913">
        <ele>740.5</ele>
        <time>2019-05-31T10:32:49Z</time>
      </trkpt>
      <trkpt lat="44.09467" lon="3.18912">
        <ele>740.1</ele>
        <time>2019-05-31T10:32:50Z</time>
      </trkpt>
      <trkpt lat="44.09474" lon="3.18912">
        <ele>739.7</ele>
        <time>2019-05-31T10:32:51Z</time>
      </trkpt>
      <trkpt lat="44.0948" lon="3.18912">
        <ele>739.5</ele>
        <time>2019-05-31T10:32:52Z</time>
      </trkpt>
      <trkpt lat="44.09486" lon="3.1891">
        <ele>739.4</ele>
        <time>2019-05-31T10:32:53Z</time>
      </trkpt>
      <trkpt lat="44.09491" lon="3.18911">
        <ele>739</ele>
        <time>2019-05-31T10:32:54Z</time>
      </trkpt>
      <trkpt lat="44.09497" lon="3.18909">
        <ele>738.5</ele>
        <time>2019-05-31T10:32:55Z</time>
      </trkpt>
      <trkpt lat="44.09502" lon="3.18912">
        <ele>738.2</ele>
        <time>2019-05-31T10:32:56Z</time>
      </trkpt>
      <trkpt lat="44.09508" lon="3.18915">
        <ele>737.8</ele>
        <time>2019-05-31T10:32:57Z</time>
      </trkpt>
      <trkpt lat="44.09514" lon="3.18917">
        <ele>737.4</ele>
        <time>2019-05-31T10:32:58Z</time>
      </trkpt>
      <trkpt lat="44.09519" lon="3.18921">
        <ele>737.2</ele>
        <time>2019-05-31T10:32:59Z</time>
      </trkpt>
      <trkpt lat="44.09524" lon="3.18925">
        <ele>736.9</ele>
        <time>2019-05-31T10:33:00Z</time>
      </trkpt>
      <trkpt lat="44.09529" lon="3.18928">
        <ele>736.7</ele>
        <time>2019-05-31T10:33:01Z</time>
      </trkpt>
      <trkpt lat="44.09535" lon="3.18931">
        <ele>736.5</ele>
        <time>2019-05-31T10:33:02Z</time>
      </trkpt>
      <trkpt lat="44.0954" lon="3.18933">
        <ele>736.4</ele>
        <time>2019-05-31T10:33:03Z</time>
      </trkpt>
      <trkpt lat="44.09546" lon="3.18935">
        <ele>736.4</ele>
        <time>2019-05-31T10:33:04Z</time>
      </trkpt>
      <trkpt lat="44.0955" lon="3.18937">
        <ele>736.2</ele>
        <time>2019-05-31T10:33:05Z</time>
      </trkpt>
      <trkpt lat="44.09554" lon="3.1894">
        <ele>736.1</ele>
        <time>2019-05-31T10:33:06Z</time>
      </trkpt>
      <trkpt lat="44.09559" lon="3.18942">
        <ele>735.9</ele>
        <time>2019-05-31T10:33:07Z</time>
      </trkpt>
      <trkpt lat="44.09562" lon="3.18945">
        <ele>735.7</ele>
        <time>2019-05-31T10:33:08Z</time>
      </trkpt>
      <trkpt lat="44.09568" lon="3.18949">
        <ele>735.4</ele>
        <time>2019-05-31T10:33:09Z</time>
      </trkpt>
      <trkpt lat="44.09572" lon="3.18951">
        <ele>735.2</ele>
        <time>2019-05-31T10:33:10Z</time>
      </trkpt>
      <trkpt lat="44.09578" lon="3.1895">
        <ele>734.9</ele>
        <time>2019-05-31T10:33:11Z</time>
      </trkpt>
      <trkpt lat="44.09581" lon="3.1895">
        <ele>734.7</ele>
        <time>2019-05-31T10:33:12Z</time>
      </trkpt>
      <trkpt lat="44.09587" lon="3.18949">
        <ele>734.4</ele>
        <time>2019-05-31T10:33:13Z</time>
      </trkpt>
      <trkpt lat="44.09593" lon="3.18948">
        <ele>734.2</ele>
        <time>2019-05-31T10:33:14Z</time>
      </trkpt>
      <trkpt lat="44.09598" lon="3.18949">
        <ele>734.1</ele>
        <time>2019-05-31T10:33:15Z</time>
      </trkpt>
      <trkpt lat="44.09603" lon="3.18948">
        <ele>734</ele>
        <time>2019-05-31T10:33:16Z</time>
      </trkpt>
      <trkpt lat="44.09608" lon="3.18948">
        <ele>733.9</ele>
        <time>2019-05-31T10:33:17Z</time>
      </trkpt>
      <trkpt lat="44.09612" lon="3.18947">
        <ele>733.8</ele>
        <time>2019-05-31T10:33:18Z</time>
      </trkpt>
      <trkpt lat="44.09617" lon="3.18946">
        <ele>733.7</ele>
        <time>2019-05-31T10:33:19Z</time>
      </trkpt>
      <trkpt lat="44.09621" lon="3.18946">
        <ele>733.6</ele>
        <time>2019-05-31T10:33:20Z</time>
      </trkpt>
      <trkpt lat="44.09624" lon="3.18945">
        <ele>733.5</ele>
        <time>2019-05-31T10:33:21Z</time>
      </trkpt>
      <trkpt lat="44.09627" lon="3.18951">
        <ele>733.4</ele>
        <time>2019-05-31T10:33:23Z</time>
      </trkpt>
      <trkpt lat="44.09632" lon="3.18954">
        <ele>733.3</ele>
        <time>2019-05-31T10:33:24Z</time>
      </trkpt>
      <trkpt lat="44.09639" lon="3.18958">
        <ele>733.1</ele>
        <time>2019-05-31T10:33:25Z</time>
      </trkpt>
      <trkpt lat="44.09643" lon="3.18963">
        <ele>733</ele>
        <time>2019-05-31T10:33:26Z</time>
      </trkpt>
      <trkpt lat="44.09646" lon="3.18967">
        <ele>732.9</ele>
        <time>2019-05-31T10:33:27Z</time>
      </trkpt>
      <trkpt lat="44.09651" lon="3.18971">
        <ele>732.8</ele>
        <time>2019-05-31T10:33:28Z</time>
      </trkpt>
      <trkpt lat="44.09654" lon="3.18983">
        <ele>732.3</ele>
        <time>2019-05-31T10:33:29Z</time>
      </trkpt>
      <trkpt lat="44.09655" lon="3.18989">
        <ele>731.9</ele>
        <time>2019-05-31T10:33:30Z</time>
      </trkpt>
      <trkpt lat="44.09656" lon="3.18998">
        <ele>731.2</ele>
        <time>2019-05-31T10:33:31Z</time>
      </trkpt>
      <trkpt lat="44.09661" lon="3.19008">
        <ele>730.7</ele>
        <time>2019-05-31T10:33:32Z</time>
      </trkpt>
      <trkpt lat="44.09663" lon="3.19015">
        <ele>730.4</ele>
        <time>2019-05-31T10:33:33Z</time>
      </trkpt>
      <trkpt lat="44.09667" lon="3.19026">
        <ele>730.2</ele>
        <time>2019-05-31T10:33:34Z</time>
      </trkpt>
      <trkpt lat="44.09671" lon="3.19033">
        <ele>730.1</ele>
        <time>2019-05-31T10:33:35Z</time>
      </trkpt>
      <trkpt lat="44.09676" lon="3.19039">
        <ele>730.2</ele>
        <time>2019-05-31T10:33:36Z</time>
      </trkpt>
      <trkpt lat="44.09682" lon="3.19043">
        <ele>730.3</ele>
        <time>2019-05-31T10:33:37Z</time>
      </trkpt>
      <trkpt lat="44.09688" lon="3.19046">
        <ele>730.5</ele>
        <time>2019-05-31T10:33:38Z</time>
      </trkpt>
      <trkpt lat="44.09691" lon="3.19049">
        <ele>730.6</ele>
        <time>2019-05-31T10:33:39Z</time>
      </trkpt>
      <trkpt lat="44.09695" lon="3.19053">
        <ele>730.7</ele>
        <time>2019-05-31T10:33:40Z</time>
      </trkpt>
      <trkpt lat="44.09698" lon="3.19056">
        <ele>730.9</ele>
        <time>2019-05-31T10:33:41Z</time>
      </trkpt>
      <trkpt lat="44.09702" lon="3.19059">
        <ele>731.2</ele>
        <time>2019-05-31T10:33:42Z</time>
      </trkpt>
      <trkpt lat="44.09705" lon="3.19063">
        <ele>731.4</ele>
        <time>2019-05-31T10:33:43Z</time>
      </trkpt>
      <trkpt lat="44.09708" lon="3.19067">
        <ele>731.6</ele>
        <time>2019-05-31T10:33:44Z</time>
      </trkpt>
      <trkpt lat="44.0971" lon="3.1907">
        <ele>731.7</ele>
        <time>2019-05-31T10:33:45Z</time>
      </trkpt>
      <trkpt lat="44.09713" lon="3.19074">
        <ele>732</ele>
        <time>2019-05-31T10:33:46Z</time>
      </trkpt>
      <trkpt lat="44.09717" lon="3.19076">
        <ele>732.4</ele>
        <time>2019-05-31T10:33:47Z</time>
      </trkpt>
      <trkpt lat="44.09722" lon="3.19078">
        <ele>732.9</ele>
        <time>2019-05-31T10:33:48Z</time>
      </trkpt>
      <trkpt lat="44.09724" lon="3.19081">
        <ele>733.2</ele>
        <time>2019-05-31T10:33:49Z</time>
      </trkpt>
      <trkpt lat="44.09726" lon="3.19084">
        <ele>733.3</ele>
        <time>2019-05-31T10:33:50Z</time>
      </trkpt>
      <trkpt lat="44.09729" lon="3.19087">
        <ele>733.5</ele>
        <time>2019-05-31T10:33:51Z</time>
      </trkpt>
      <trkpt lat="44.09731" lon="3.1909">
        <ele>733.5</ele>
        <time>2019-05-31T10:33:52Z</time>
      </trkpt>
      <trkpt lat="44.09735" lon="3.19095">
        <ele>733.3</ele>
        <time>2019-05-31T10:33:54Z</time>
      </trkpt>
      <trkpt lat="44.0974" lon="3.19097">
        <ele>733</ele>
        <time>2019-05-31T10:33:56Z</time>
      </trkpt>
      <trkpt lat="44.09743" lon="3.19094">
        <ele>732.8</ele>
        <time>2019-05-31T10:33:57Z</time>
      </trkpt>
      <trkpt lat="44.09746" lon="3.19089">
        <ele>732.3</ele>
        <time>2019-05-31T10:33:58Z</time>
      </trkpt>
      <trkpt lat="44.09748" lon="3.19084">
        <ele>731.8</ele>
        <time>2019-05-31T10:33:59Z</time>
      </trkpt>
      <trkpt lat="44.09751" lon="3.19078">
        <ele>731.1</ele>
        <time>2019-05-31T10:34:00Z</time>
      </trkpt>
      <trkpt lat="44.09754" lon="3.19076">
        <ele>730.9</ele>
        <time>2019-05-31T10:34:01Z</time>
      </trkpt>
      <trkpt lat="44.0976" lon="3.19071">
        <ele>730.5</ele>
        <time>2019-05-31T10:34:02Z</time>
      </trkpt>
      <trkpt lat="44.09765" lon="3.19067">
        <ele>730</ele>
        <time>2019-05-31T10:34:03Z</time>
      </trkpt>
      <trkpt lat="44.0977" lon="3.19064">
        <ele>729.6</ele>
        <time>2019-05-31T10:34:04Z</time>
      </trkpt>
      <trkpt lat="44.09775" lon="3.19059">
        <ele>729.1</ele>
        <time>2019-05-31T10:34:05Z</time>
      </trkpt>
      <trkpt lat="44.09782" lon="3.19053">
        <ele>728.2</ele>
        <time>2019-05-31T10:34:06Z</time>
      </trkpt>
      <trkpt lat="44.09787" lon="3.1905">
        <ele>727.7</ele>
        <time>2019-05-31T10:34:07Z</time>
      </trkpt>
      <trkpt lat="44.09792" lon="3.19049">
        <ele>727.3</ele>
        <time>2019-05-31T10:34:08Z</time>
      </trkpt>
      <trkpt lat="44.09796" lon="3.19045">
        <ele>726.8</ele>
        <time>2019-05-31T10:34:09Z</time>
      </trkpt>
      <trkpt lat="44.09803" lon="3.19042">
        <ele>726.1</ele>
        <time>2019-05-31T10:34:10Z</time>
      </trkpt>
      <trkpt lat="44.09808" lon="3.19036">
        <ele>725.5</ele>
        <time>2019-05-31T10:34:11Z</time>
      </trkpt>
      <trkpt lat="44.09809" lon="3.19029">
        <ele>725.2</ele>
        <time>2019-05-31T10:34:12Z</time>
      </trkpt>
      <trkpt lat="44.09817" lon="3.19023">
        <ele>724.6</ele>
        <time>2019-05-31T10:34:13Z</time>
      </trkpt>
      <trkpt lat="44.09822" lon="3.19018">
        <ele>724.2</ele>
        <time>2019-05-31T10:34:14Z</time>
      </trkpt>
      <trkpt lat="44.0983" lon="3.19014">
        <ele>723.5</ele>
        <time>2019-05-31T10:34:15Z</time>
      </trkpt>
      <trkpt lat="44.09836" lon="3.19008">
        <ele>723</ele>
        <time>2019-05-31T10:34:16Z</time>
      </trkpt>
      <trkpt lat="44.09844" lon="3.19008">
        <ele>722.5</ele>
        <time>2019-05-31T10:34:17Z</time>
      </trkpt>
      <trkpt lat="44.09851" lon="3.19008">
        <ele>722.1</ele>
        <time>2019-05-31T10:34:18Z</time>
      </trkpt>
      <trkpt lat="44.09856" lon="3.19003">
        <ele>721.9</ele>
        <time>2019-05-31T10:34:19Z</time>
      </trkpt>
      <trkpt lat="44.09863" lon="3.19001">
        <ele>722</ele>
        <time>2019-05-31T10:34:20Z</time>
      </trkpt>
      <trkpt lat="44.0987" lon="3.19001">
        <ele>721.7</ele>
        <time>2019-05-31T10:34:21Z</time>
      </trkpt>
      <trkpt lat="44.09878" lon="3.18997">
        <ele>721.8</ele>
        <time>2019-05-31T10:34:22Z</time>
      </trkpt>
      <trkpt lat="44.09884" lon="3.18996">
        <ele>721.5</ele>
        <time>2019-05-31T10:34:23Z</time>
      </trkpt>
      <trkpt lat="44.09889" lon="3.18992">
        <ele>721.2</ele>
        <time>2019-05-31T10:34:24Z</time>
      </trkpt>
      <trkpt lat="44.09896" lon="3.18989">
        <ele>720.9</ele>
        <time>2019-05-31T10:34:25Z</time>
      </trkpt>
      <trkpt lat="44.09899" lon="3.18983">
        <ele>720.6</ele>
        <time>2019-05-31T10:34:26Z</time>
      </trkpt>
      <trkpt lat="44.09907" lon="3.18979">
        <ele>720.1</ele>
        <time>2019-05-31T10:34:27Z</time>
      </trkpt>
      <trkpt lat="44.09912" lon="3.18975">
        <ele>719.8</ele>
        <time>2019-05-31T10:34:28Z</time>
      </trkpt>
      <trkpt lat="44.09919" lon="3.1897">
        <ele>719.8</ele>
        <time>2019-05-31T10:34:29Z</time>
      </trkpt>
      <trkpt lat="44.09925" lon="3.18966">
        <ele>720</ele>
        <time>2019-05-31T10:34:30Z</time>
      </trkpt>
      <trkpt lat="44.09929" lon="3.18958">
        <ele>719.8</ele>
        <time>2019-05-31T10:34:31Z</time>
      </trkpt>
      <trkpt lat="44.09933" lon="3.18952">
        <ele>719.4</ele>
        <time>2019-05-31T10:34:32Z</time>
      </trkpt>
      <trkpt lat="44.09938" lon="3.18947">
        <ele>719.2</ele>
        <time>2019-05-31T10:34:33Z</time>
      </trkpt>
      <trkpt lat="44.09945" lon="3.18944">
        <ele>718.6</ele>
        <time>2019-05-31T10:34:34Z</time>
      </trkpt>
      <trkpt lat="44.09951" lon="3.18943">
        <ele>718.2</ele>
        <time>2019-05-31T10:34:35Z</time>
      </trkpt>
      <trkpt lat="44.09958" lon="3.18939">
        <ele>718</ele>
        <time>2019-05-31T10:34:36Z</time>
      </trkpt>
      <trkpt lat="44.09964" lon="3.18938">
        <ele>718</ele>
        <time>2019-05-31T10:34:37Z</time>
      </trkpt>
      <trkpt lat="44.0997" lon="3.18932">
        <ele>717.5</ele>
        <time>2019-05-31T10:34:38Z</time>
      </trkpt>
      <trkpt lat="44.09975" lon="3.18928">
        <ele>717.3</ele>
        <time>2019-05-31T10:34:39Z</time>
      </trkpt>
      <trkpt lat="44.0998" lon="3.18924">
        <ele>717.4</ele>
        <time>2019-05-31T10:34:40Z</time>
      </trkpt>
      <trkpt lat="44.09986" lon="3.1892">
        <ele>717.3</ele>
        <time>2019-05-31T10:34:41Z</time>
      </trkpt>
      <trkpt lat="44.09991" lon="3.18919">
        <ele>717.5</ele>
        <time>2019-05-31T10:34:42Z</time>
      </trkpt>
      <trkpt lat="44.09998" lon="3.18917">
        <ele>718.3</ele>
        <time>2019-05-31T10:34:43Z</time>
      </trkpt>
      <trkpt lat="44.10005" lon="3.18918">
        <ele>718.4</ele>
        <time>2019-05-31T10:34:44Z</time>
      </trkpt>
      <trkpt lat="44.10015" lon="3.18914">
        <ele>719.5</ele>
        <time>2019-05-31T10:34:45Z</time>
      </trkpt>
      <trkpt lat="44.10022" lon="3.1891">
        <ele>719.6</ele>
        <time>2019-05-31T10:34:46Z</time>
      </trkpt>
      <trkpt lat="44.10029" lon="3.18903">
        <ele>720</ele>
        <time>2019-05-31T10:34:47Z</time>
      </trkpt>
      <trkpt lat="44.10034" lon="3.18897">
        <ele>720.3</ele>
        <time>2019-05-31T10:34:48Z</time>
      </trkpt>
      <trkpt lat="44.10041" lon="3.1889">
        <ele>720.6</ele>
        <time>2019-05-31T10:34:49Z</time>
      </trkpt>
      <trkpt lat="44.10049" lon="3.18884">
        <ele>721.6</ele>
        <time>2019-05-31T10:34:50Z</time>
      </trkpt>
      <trkpt lat="44.1006" lon="3.18882">
        <ele>723.1</ele>
        <time>2019-05-31T10:34:51Z</time>
      </trkpt>
      <trkpt lat="44.10065" lon="3.1888">
        <ele>724</ele>
        <time>2019-05-31T10:34:52Z</time>
      </trkpt>
      <trkpt lat="44.10067" lon="3.18875">
        <ele>724</ele>
        <time>2019-05-31T10:34:53Z</time>
      </trkpt>
      <trkpt lat="44.10065" lon="3.1887">
        <ele>724.2</ele>
        <time>2019-05-31T10:34:54Z</time>
      </trkpt>
      <trkpt lat="44.10063" lon="3.18864">
        <ele>724.4</ele>
        <time>2019-05-31T10:34:55Z</time>
      </trkpt>
      <trkpt lat="44.10061" lon="3.1886">
        <ele>724.6</ele>
        <time>2019-05-31T10:34:56Z</time>
      </trkpt>
      <trkpt lat="44.10059" lon="3.18854">
        <ele>724.8</ele>
        <time>2019-05-31T10:34:57Z</time>
      </trkpt>
      <trkpt lat="44.10055" lon="3.18851">
        <ele>724.9</ele>
        <time>2019-05-31T10:34:58Z</time>
      </trkpt>
      <trkpt lat="44.10052" lon="3.18845">
        <ele>725</ele>
        <time>2019-05-31T10:34:59Z</time>
      </trkpt>
      <trkpt lat="44.10052" lon="3.18841">
        <ele>725.1</ele>
        <time>2019-05-31T10:35:00Z</time>
      </trkpt>
      <trkpt lat="44.10047" lon="3.18839">
        <ele>725.2</ele>
        <time>2019-05-31T10:35:01Z</time>
      </trkpt>
      <trkpt lat="44.10046" lon="3.18834">
        <ele>725.3</ele>
        <time>2019-05-31T10:35:02Z</time>
      </trkpt>
      <trkpt lat="44.10045" lon="3.1883">
        <ele>725.4</ele>
        <time>2019-05-31T10:35:03Z</time>
      </trkpt>
      <trkpt lat="44.10043" lon="3.18824">
        <ele>725.5</ele>
        <time>2019-05-31T10:35:05Z</time>
      </trkpt>
      <trkpt lat="44.1004" lon="3.18821">
        <ele>725.6</ele>
        <time>2019-05-31T10:35:06Z</time>
      </trkpt>
      <trkpt lat="44.10038" lon="3.18817">
        <ele>725.7</ele>
        <time>2019-05-31T10:35:07Z</time>
      </trkpt>
      <trkpt lat="44.10035" lon="3.18814">
        <ele>725.7</ele>
        <time>2019-05-31T10:35:08Z</time>
      </trkpt>
      <trkpt lat="44.10033" lon="3.1881">
        <ele>725.8</ele>
        <time>2019-05-31T10:35:09Z</time>
      </trkpt>
      <trkpt lat="44.10031" lon="3.18805">
        <ele>726</ele>
        <time>2019-05-31T10:35:10Z</time>
      </trkpt>
      <trkpt lat="44.10028" lon="3.188">
        <ele>726.1</ele>
        <time>2019-05-31T10:35:11Z</time>
      </trkpt>
      <trkpt lat="44.10026" lon="3.18795">
        <ele>726.3</ele>
        <time>2019-05-31T10:35:12Z</time>
      </trkpt>
      <trkpt lat="44.10024" lon="3.18789">
        <ele>726.5</ele>
        <time>2019-05-31T10:35:13Z</time>
      </trkpt>
      <trkpt lat="44.10023" lon="3.18784">
        <ele>726.8</ele>
        <time>2019-05-31T10:35:14Z</time>
      </trkpt>
      <trkpt lat="44.10022" lon="3.18781">
        <ele>727</ele>
        <time>2019-05-31T10:35:15Z</time>
      </trkpt>
      <trkpt lat="44.10021" lon="3.18777">
        <ele>727.2</ele>
        <time>2019-05-31T10:35:16Z</time>
      </trkpt>
      <trkpt lat="44.1002" lon="3.18773">
        <ele>727.4</ele>
        <time>2019-05-31T10:35:17Z</time>
      </trkpt>
      <trkpt lat="44.10019" lon="3.18769">
        <ele>727.6</ele>
        <time>2019-05-31T10:35:18Z</time>
      </trkpt>
      <trkpt lat="44.10018" lon="3.18765">
        <ele>727.8</ele>
        <time>2019-05-31T10:35:19Z</time>
      </trkpt>
      <trkpt lat="44.10017" lon="3.1876">
        <ele>728.1</ele>
        <time>2019-05-31T10:35:20Z</time>
      </trkpt>
      <trkpt lat="44.10016" lon="3.18756">
        <ele>728.3</ele>
        <time>2019-05-31T10:35:21Z</time>
      </trkpt>
      <trkpt lat="44.10016" lon="3.18752">
        <ele>728.5</ele>
        <time>2019-05-31T10:35:22Z</time>
      </trkpt>
      <trkpt lat="44.10014" lon="3.18745">
        <ele>728.8</ele>
        <time>2019-05-31T10:35:24Z</time>
      </trkpt>
      <trkpt lat="44.10013" lon="3.18742">
        <ele>728.9</ele>
        <time>2019-05-31T10:35:25Z</time>
      </trkpt>
      <trkpt lat="44.10011" lon="3.18738">
        <ele>729.1</ele>
        <time>2019-05-31T10:35:26Z</time>
      </trkpt>
      <trkpt lat="44.1001" lon="3.18734">
        <ele>729.2</ele>
        <time>2019-05-31T10:35:27Z</time>
      </trkpt>
      <trkpt lat="44.10008" lon="3.18731">
        <ele>729.3</ele>
        <time>2019-05-31T10:35:28Z</time>
      </trkpt>
      <trkpt lat="44.10006" lon="3.18724">
        <ele>729.4</ele>
        <time>2019-05-31T10:35:30Z</time>
      </trkpt>
      <trkpt lat="44.10005" lon="3.1872">
        <ele>729.5</ele>
        <time>2019-05-31T10:35:31Z</time>
      </trkpt>
      <trkpt lat="44.10003" lon="3.18714">
        <ele>729.6</ele>
        <time>2019-05-31T10:35:33Z</time>
      </trkpt>
      <trkpt lat="44.10001" lon="3.18707">
        <ele>729.7</ele>
        <time>2019-05-31T10:35:35Z</time>
      </trkpt>
      <trkpt lat="44.09999" lon="3.18704">
        <ele>729.7</ele>
        <time>2019-05-31T10:35:36Z</time>
      </trkpt>
      <trkpt lat="44.09997" lon="3.18697">
        <ele>729.8</ele>
        <time>2019-05-31T10:35:38Z</time>
      </trkpt>
      <trkpt lat="44.09996" lon="3.18693">
        <ele>729.8</ele>
        <time>2019-05-31T10:35:39Z</time>
      </trkpt>
      <trkpt lat="44.09995" lon="3.18688">
        <ele>729.9</ele>
        <time>2019-05-31T10:35:40Z</time>
      </trkpt>
      <trkpt lat="44.09995" lon="3.18683">
        <ele>729.9</ele>
        <time>2019-05-31T10:35:41Z</time>
      </trkpt>
      <trkpt lat="44.09995" lon="3.18676">
        <ele>730</ele>
        <time>2019-05-31T10:35:43Z</time>
      </trkpt>
      <trkpt lat="44.09995" lon="3.18673">
        <ele>730</ele>
        <time>2019-05-31T10:35:44Z</time>
      </trkpt>
      <trkpt lat="44.09994" lon="3.18668">
        <ele>730.1</ele>
        <time>2019-05-31T10:35:45Z</time>
      </trkpt>
      <trkpt lat="44.09994" lon="3.18661">
        <ele>730.2</ele>
        <time>2019-05-31T10:35:47Z</time>
      </trkpt>
      <trkpt lat="44.09994" lon="3.18655">
        <ele>730.3</ele>
        <time>2019-05-31T10:35:49Z</time>
      </trkpt>
      <trkpt lat="44.09996" lon="3.18651">
        <ele>730.4</ele>
        <time>2019-05-31T10:35:51Z</time>
      </trkpt>
      <trkpt lat="44.1" lon="3.18645">
        <ele>730.5</ele>
        <time>2019-05-31T10:35:53Z</time>
      </trkpt>
      <trkpt lat="44.10002" lon="3.18642">
        <ele>730.7</ele>
        <time>2019-05-31T10:35:54Z</time>
      </trkpt>
      <trkpt lat="44.10004" lon="3.18639">
        <ele>730.8</ele>
        <time>2019-05-31T10:35:55Z</time>
      </trkpt>
      <trkpt lat="44.10006" lon="3.18636">
        <ele>730.9</ele>
        <time>2019-05-31T10:35:56Z</time>
      </trkpt>
      <trkpt lat="44.10008" lon="3.18633">
        <ele>731</ele>
        <time>2019-05-31T10:35:57Z</time>
      </trkpt>
      <trkpt lat="44.1001" lon="3.18627">
        <ele>731.2</ele>
        <time>2019-05-31T10:35:59Z</time>
      </trkpt>
      <trkpt lat="44.10013" lon="3.1862">
        <ele>731.4</ele>
        <time>2019-05-31T10:36:01Z</time>
      </trkpt>
      <trkpt lat="44.10014" lon="3.18617">
        <ele>731.5</ele>
        <time>2019-05-31T10:36:02Z</time>
      </trkpt>
      <trkpt lat="44.10016" lon="3.18612">
        <ele>731.6</ele>
        <time>2019-05-31T10:36:03Z</time>
      </trkpt>
      <trkpt lat="44.10018" lon="3.18608">
        <ele>731.8</ele>
        <time>2019-05-31T10:36:04Z</time>
      </trkpt>
      <trkpt lat="44.10021" lon="3.18603">
        <ele>732</ele>
        <time>2019-05-31T10:36:06Z</time>
      </trkpt>
      <trkpt lat="44.10024" lon="3.18597">
        <ele>732.2</ele>
        <time>2019-05-31T10:36:08Z</time>
      </trkpt>
      <trkpt lat="44.10026" lon="3.18593">
        <ele>732.4</ele>
        <time>2019-05-31T10:36:09Z</time>
      </trkpt>
      <trkpt lat="44.10028" lon="3.1859">
        <ele>732.5</ele>
        <time>2019-05-31T10:36:10Z</time>
      </trkpt>
      <trkpt lat="44.10029" lon="3.18587">
        <ele>732.6</ele>
        <time>2019-05-31T10:36:11Z</time>
      </trkpt>
      <trkpt lat="44.10031" lon="3.18584">
        <ele>732.7</ele>
        <time>2019-05-31T10:36:12Z</time>
      </trkpt>
      <trkpt lat="44.10034" lon="3.18579">
        <ele>732.9</ele>
        <time>2019-05-31T10:36:14Z</time>
      </trkpt>
      <trkpt lat="44.10036" lon="3.18575">
        <ele>733</ele>
        <time>2019-05-31T10:36:15Z</time>
      </trkpt>
      <trkpt lat="44.10038" lon="3.1857">
        <ele>733.2</ele>
        <time>2019-05-31T10:36:17Z</time>
      </trkpt>
      <trkpt lat="44.1004" lon="3.18567">
        <ele>733.3</ele>
        <time>2019-05-31T10:36:18Z</time>
      </trkpt>
      <trkpt lat="44.10043" lon="3.18562">
        <ele>733.6</ele>
        <time>2019-05-31T10:36:20Z</time>
      </trkpt>
      <trkpt lat="44.10046" lon="3.18558">
        <ele>734</ele>
        <time>2019-05-31T10:36:22Z</time>
      </trkpt>
      <trkpt lat="44.1005" lon="3.18554">
        <ele>734.3</ele>
        <time>2019-05-31T10:36:24Z</time>
      </trkpt>
      <trkpt lat="44.10053" lon="3.1855">
        <ele>734.6</ele>
        <time>2019-05-31T10:36:26Z</time>
      </trkpt>
      <trkpt lat="44.10057" lon="3.18548">
        <ele>734.9</ele>
        <time>2019-05-31T10:36:28Z</time>
      </trkpt>
      <trkpt lat="44.10061" lon="3.18546">
        <ele>735.2</ele>
        <time>2019-05-31T10:36:30Z</time>
      </trkpt>
      <trkpt lat="44.10065" lon="3.18549">
        <ele>735.6</ele>
        <time>2019-05-31T10:36:36Z</time>
      </trkpt>
      <trkpt lat="44.10068" lon="3.18555">
        <ele>736.1</ele>
        <time>2019-05-31T10:36:38Z</time>
      </trkpt>
      <trkpt lat="44.1007" lon="3.18561">
        <ele>736.6</ele>
        <time>2019-05-31T10:36:40Z</time>
      </trkpt>
      <trkpt lat="44.10071" lon="3.18565">
        <ele>737</ele>
        <time>2019-05-31T10:36:42Z</time>
      </trkpt>
      <trkpt lat="44.10071" lon="3.1857">
        <ele>737.3</ele>
        <time>2019-05-31T10:36:44Z</time>
      </trkpt>
      <trkpt lat="44.10071" lon="3.18575">
        <ele>737.6</ele>
        <time>2019-05-31T10:36:46Z</time>
      </trkpt>
      <trkpt lat="44.10071" lon="3.18582">
        <ele>738</ele>
        <time>2019-05-31T10:36:48Z</time>
      </trkpt>
      <trkpt lat="44.10073" lon="3.18588">
        <ele>738.3</ele>
        <time>2019-05-31T10:36:50Z</time>
      </trkpt>
      <trkpt lat="44.10075" lon="3.18592">
        <ele>738.6</ele>
        <time>2019-05-31T10:36:52Z</time>
      </trkpt>
      <trkpt lat="44.10077" lon="3.18597">
        <ele>738.8</ele>
        <time>2019-05-31T10:36:54Z</time>
      </trkpt>
      <trkpt lat="44.10079" lon="3.18601">
        <ele>739</ele>
        <time>2019-05-31T10:36:56Z</time>
      </trkpt>
      <trkpt lat="44.10081" lon="3.18607">
        <ele>739.2</ele>
        <time>2019-05-31T10:36:58Z</time>
      </trkpt>
      <trkpt lat="44.10082" lon="3.18611">
        <ele>739.4</ele>
        <time>2019-05-31T10:37:01Z</time>
      </trkpt>
      <trkpt lat="44.10083" lon="3.18616">
        <ele>739.6</ele>
        <time>2019-05-31T10:37:04Z</time>
      </trkpt>
      <trkpt lat="44.10086" lon="3.1862">
        <ele>739.8</ele>
        <time>2019-05-31T10:37:06Z</time>
      </trkpt>
      <trkpt lat="44.10089" lon="3.18622">
        <ele>740</ele>
        <time>2019-05-31T10:37:08Z</time>
      </trkpt>
      <trkpt lat="44.10092" lon="3.18623">
        <ele>740.2</ele>
        <time>2019-05-31T10:37:10Z</time>
      </trkpt>
      <trkpt lat="44.10096" lon="3.18622">
        <ele>740.5</ele>
        <time>2019-05-31T10:37:12Z</time>
      </trkpt>
      <trkpt lat="44.101" lon="3.18621">
        <ele>740.6</ele>
        <time>2019-05-31T10:37:14Z</time>
      </trkpt>
      <trkpt lat="44.10104" lon="3.18623">
        <ele>740.8</ele>
        <time>2019-05-31T10:37:16Z</time>
      </trkpt>
      <trkpt lat="44.10108" lon="3.18626">
        <ele>741</ele>
        <time>2019-05-31T10:37:18Z</time>
      </trkpt>
      <trkpt lat="44.1011" lon="3.18629">
        <ele>741.1</ele>
        <time>2019-05-31T10:37:20Z</time>
      </trkpt>
      <trkpt lat="44.10113" lon="3.18634">
        <ele>741.3</ele>
        <time>2019-05-31T10:37:22Z</time>
      </trkpt>
      <trkpt lat="44.10114" lon="3.1864">
        <ele>741.5</ele>
        <time>2019-05-31T10:37:24Z</time>
      </trkpt>
      <trkpt lat="44.10115" lon="3.18646">
        <ele>741.6</ele>
        <time>2019-05-31T10:37:26Z</time>
      </trkpt>
      <trkpt lat="44.10116" lon="3.18649">
        <ele>741.8</ele>
        <time>2019-05-31T10:37:28Z</time>
      </trkpt>
      <trkpt lat="44.10118" lon="3.18653">
        <ele>741.9</ele>
        <time>2019-05-31T10:37:30Z</time>
      </trkpt>
      <trkpt lat="44.1012" lon="3.18657">
        <ele>742</ele>
        <time>2019-05-31T10:37:32Z</time>
      </trkpt>
      <trkpt lat="44.10122" lon="3.18663">
        <ele>742.1</ele>
        <time>2019-05-31T10:37:34Z</time>
      </trkpt>
      <trkpt lat="44.10123" lon="3.1867">
        <ele>742.3</ele>
        <time>2019-05-31T10:37:36Z</time>
      </trkpt>
      <trkpt lat="44.10123" lon="3.18678">
        <ele>742.4</ele>
        <time>2019-05-31T10:37:38Z</time>
      </trkpt>
      <trkpt lat="44.10124" lon="3.18682">
        <ele>742.4</ele>
        <time>2019-05-31T10:37:39Z</time>
      </trkpt>
      <trkpt lat="44.10125" lon="3.18686">
        <ele>742.4</ele>
        <time>2019-05-31T10:37:40Z</time>
      </trkpt>
      <trkpt lat="44.10126" lon="3.1869">
        <ele>742.4</ele>
        <time>2019-05-31T10:37:41Z</time>
      </trkpt>
      <trkpt lat="44.10127" lon="3.18694">
        <ele>742.4</ele>
        <time>2019-05-31T10:37:42Z</time>
      </trkpt>
      <trkpt lat="44.10128" lon="3.18699">
        <ele>742.4</ele>
        <time>2019-05-31T10:37:43Z</time>
      </trkpt>
      <trkpt lat="44.10129" lon="3.18703">
        <ele>742.4</ele>
        <time>2019-05-31T10:37:44Z</time>
      </trkpt>
      <trkpt lat="44.1013" lon="3.18708">
        <ele>742.4</ele>
        <time>2019-05-31T10:37:45Z</time>
      </trkpt>
      <trkpt lat="44.10132" lon="3.18713">
        <ele>742.3</ele>
        <time>2019-05-31T10:37:46Z</time>
      </trkpt>
      <trkpt lat="44.10133" lon="3.18717">
        <ele>742.3</ele>
        <time>2019-05-31T10:37:47Z</time>
      </trkpt>
      <trkpt lat="44.10136" lon="3.18722">
        <ele>742.2</ele>
        <time>2019-05-31T10:37:48Z</time>
      </trkpt>
      <trkpt lat="44.10139" lon="3.18726">
        <ele>742.2</ele>
        <time>2019-05-31T10:37:49Z</time>
      </trkpt>
      <trkpt lat="44.10142" lon="3.18728">
        <ele>742.1</ele>
        <time>2019-05-31T10:37:50Z</time>
      </trkpt>
      <trkpt lat="44.10145" lon="3.18732">
        <ele>742</ele>
        <time>2019-05-31T10:37:51Z</time>
      </trkpt>
      <trkpt lat="44.10148" lon="3.18735">
        <ele>741.9</ele>
        <time>2019-05-31T10:37:52Z</time>
      </trkpt>
      <trkpt lat="44.1015" lon="3.18738">
        <ele>741.8</ele>
        <time>2019-05-31T10:37:53Z</time>
      </trkpt>
      <trkpt lat="44.10152" lon="3.18742">
        <ele>741.7</ele>
        <time>2019-05-31T10:37:54Z</time>
      </trkpt>
      <trkpt lat="44.10154" lon="3.18746">
        <ele>741.6</ele>
        <time>2019-05-31T10:37:55Z</time>
      </trkpt>
      <trkpt lat="44.10156" lon="3.1875">
        <ele>741.5</ele>
        <time>2019-05-31T10:37:56Z</time>
      </trkpt>
      <trkpt lat="44.10159" lon="3.18754">
        <ele>741.5</ele>
        <time>2019-05-31T10:37:57Z</time>
      </trkpt>
      <trkpt lat="44.10163" lon="3.18756">
        <ele>741.4</ele>
        <time>2019-05-31T10:37:58Z</time>
      </trkpt>
      <trkpt lat="44.10166" lon="3.18758">
        <ele>741.3</ele>
        <time>2019-05-31T10:37:59Z</time>
      </trkpt>
      <trkpt lat="44.10169" lon="3.1876">
        <ele>741.2</ele>
        <time>2019-05-31T10:38:00Z</time>
      </trkpt>
      <trkpt lat="44.10172" lon="3.18761">
        <ele>741.3</ele>
        <time>2019-05-31T10:38:01Z</time>
      </trkpt>
      <trkpt lat="44.10175" lon="3.18762">
        <ele>741.5</ele>
        <time>2019-05-31T10:38:02Z</time>
      </trkpt>
      <trkpt lat="44.10177" lon="3.18762">
        <ele>741.6</ele>
        <time>2019-05-31T10:38:03Z</time>
      </trkpt>
      <trkpt lat="44.10183" lon="3.18761">
        <ele>741.7</ele>
        <time>2019-05-31T10:38:05Z</time>
      </trkpt>
      <trkpt lat="44.10188" lon="3.18762">
        <ele>741.9</ele>
        <time>2019-05-31T10:38:07Z</time>
      </trkpt>
      <trkpt lat="44.10191" lon="3.18763">
        <ele>742</ele>
        <time>2019-05-31T10:38:08Z</time>
      </trkpt>
      <trkpt lat="44.10195" lon="3.18763">
        <ele>742.2</ele>
        <time>2019-05-31T10:38:10Z</time>
      </trkpt>
      <trkpt lat="44.102" lon="3.18763">
        <ele>742.5</ele>
        <time>2019-05-31T10:38:12Z</time>
      </trkpt>
      <trkpt lat="44.10203" lon="3.18763">
        <ele>742.6</ele>
        <time>2019-05-31T10:38:13Z</time>
      </trkpt>
      <trkpt lat="44.10206" lon="3.18764">
        <ele>742.7</ele>
        <time>2019-05-31T10:38:14Z</time>
      </trkpt>
      <trkpt lat="44.10209" lon="3.18764">
        <ele>742.8</ele>
        <time>2019-05-31T10:38:15Z</time>
      </trkpt>
      <trkpt lat="44.10214" lon="3.18764">
        <ele>742.9</ele>
        <time>2019-05-31T10:38:17Z</time>
      </trkpt>
      <trkpt lat="44.10217" lon="3.18765">
        <ele>742.9</ele>
        <time>2019-05-31T10:38:18Z</time>
      </trkpt>
      <trkpt lat="44.10221" lon="3.18764">
        <ele>743</ele>
        <time>2019-05-31T10:38:20Z</time>
      </trkpt>
      <trkpt lat="44.10224" lon="3.18762">
        <ele>743.1</ele>
        <time>2019-05-31T10:38:21Z</time>
      </trkpt>
      <trkpt lat="44.10228" lon="3.1876">
        <ele>742.9</ele>
        <time>2019-05-31T10:38:22Z</time>
      </trkpt>
      <trkpt lat="44.10231" lon="3.18758">
        <ele>742.6</ele>
        <time>2019-05-31T10:38:23Z</time>
      </trkpt>
      <trkpt lat="44.10234" lon="3.18756">
        <ele>742.6</ele>
        <time>2019-05-31T10:38:24Z</time>
      </trkpt>
      <trkpt lat="44.10239" lon="3.18754">
        <ele>742.4</ele>
        <time>2019-05-31T10:38:26Z</time>
      </trkpt>
      <trkpt lat="44.10242" lon="3.18752">
        <ele>742</ele>
        <time>2019-05-31T10:38:27Z</time>
      </trkpt>
      <trkpt lat="44.10247" lon="3.1875">
        <ele>741.5</ele>
        <time>2019-05-31T10:38:28Z</time>
      </trkpt>
      <trkpt lat="44.10251" lon="3.18749">
        <ele>741</ele>
        <time>2019-05-31T10:38:29Z</time>
      </trkpt>
      <trkpt lat="44.10254" lon="3.18747">
        <ele>740.7</ele>
        <time>2019-05-31T10:38:30Z</time>
      </trkpt>
      <trkpt lat="44.10257" lon="3.18747">
        <ele>740.5</ele>
        <time>2019-05-31T10:38:31Z</time>
      </trkpt>
      <trkpt lat="44.10261" lon="3.18747">
        <ele>740.3</ele>
        <time>2019-05-31T10:38:32Z</time>
      </trkpt>
      <trkpt lat="44.10266" lon="3.18747">
        <ele>740.1</ele>
        <time>2019-05-31T10:38:33Z</time>
      </trkpt>
      <trkpt lat="44.1027" lon="3.18747">
        <ele>739.9</ele>
        <time>2019-05-31T10:38:34Z</time>
      </trkpt>
      <trkpt lat="44.10273" lon="3.18748">
        <ele>739.7</ele>
        <time>2019-05-31T10:38:35Z</time>
      </trkpt>
      <trkpt lat="44.10278" lon="3.1875">
        <ele>739.5</ele>
        <time>2019-05-31T10:38:37Z</time>
      </trkpt>
      <trkpt lat="44.10281" lon="3.18751">
        <ele>739.4</ele>
        <time>2019-05-31T10:38:38Z</time>
      </trkpt>
      <trkpt lat="44.10285" lon="3.18752">
        <ele>739.3</ele>
        <time>2019-05-31T10:38:39Z</time>
      </trkpt>
      <trkpt lat="44.10288" lon="3.18752">
        <ele>739.2</ele>
        <time>2019-05-31T10:38:40Z</time>
      </trkpt>
      <trkpt lat="44.10292" lon="3.18751">
        <ele>739.1</ele>
        <time>2019-05-31T10:38:41Z</time>
      </trkpt>
      <trkpt lat="44.10296" lon="3.18749">
        <ele>739</ele>
        <time>2019-05-31T10:38:42Z</time>
      </trkpt>
      <trkpt lat="44.10301" lon="3.18748">
        <ele>739</ele>
        <time>2019-05-31T10:38:43Z</time>
      </trkpt>
      <trkpt lat="44.10305" lon="3.18748">
        <ele>739</ele>
        <time>2019-05-31T10:38:44Z</time>
      </trkpt>
      <trkpt lat="44.10308" lon="3.18748">
        <ele>739</ele>
        <time>2019-05-31T10:38:45Z</time>
      </trkpt>
      <trkpt lat="44.10313" lon="3.18749">
        <ele>739</ele>
        <time>2019-05-31T10:38:47Z</time>
      </trkpt>
      <trkpt lat="44.10317" lon="3.18749">
        <ele>739</ele>
        <time>2019-05-31T10:38:49Z</time>
      </trkpt>
      <trkpt lat="44.10327" lon="3.18752">
        <ele>739.1</ele>
        <time>2019-05-31T10:38:51Z</time>
      </trkpt>
      <trkpt lat="44.10334" lon="3.18752">
        <ele>739.1</ele>
        <time>2019-05-31T10:38:52Z</time>
      </trkpt>
      <trkpt lat="44.10341" lon="3.18752">
        <ele>739.1</ele>
        <time>2019-05-31T10:38:53Z</time>
      </trkpt>
      <trkpt lat="44.10345" lon="3.18752">
        <ele>739.1</ele>
        <time>2019-05-31T10:38:54Z</time>
      </trkpt>
      <trkpt lat="44.10349" lon="3.18754">
        <ele>739.1</ele>
        <time>2019-05-31T10:38:55Z</time>
      </trkpt>
      <trkpt lat="44.10353" lon="3.18755">
        <ele>739.1</ele>
        <time>2019-05-31T10:38:56Z</time>
      </trkpt>
      <trkpt lat="44.10357" lon="3.18757">
        <ele>739.1</ele>
        <time>2019-05-31T10:38:57Z</time>
      </trkpt>
      <trkpt lat="44.10365" lon="3.18756">
        <ele>739.3</ele>
        <time>2019-05-31T10:38:59Z</time>
      </trkpt>
      <trkpt lat="44.10369" lon="3.18758">
        <ele>739.3</ele>
        <time>2019-05-31T10:39:00Z</time>
      </trkpt>
      <trkpt lat="44.10374" lon="3.18757">
        <ele>739.4</ele>
        <time>2019-05-31T10:39:01Z</time>
      </trkpt>
      <trkpt lat="44.10384" lon="3.18756">
        <ele>739.6</ele>
        <time>2019-05-31T10:39:02Z</time>
      </trkpt>
      <trkpt lat="44.10387" lon="3.18757">
        <ele>739.8</ele>
        <time>2019-05-31T10:39:03Z</time>
      </trkpt>
      <trkpt lat="44.10391" lon="3.18759">
        <ele>739.9</ele>
        <time>2019-05-31T10:39:04Z</time>
      </trkpt>
      <trkpt lat="44.10397" lon="3.18756">
        <ele>740.2</ele>
        <time>2019-05-31T10:39:05Z</time>
      </trkpt>
      <trkpt lat="44.10401" lon="3.18756">
        <ele>740.4</ele>
        <time>2019-05-31T10:39:06Z</time>
      </trkpt>
      <trkpt lat="44.10405" lon="3.18756">
        <ele>740.7</ele>
        <time>2019-05-31T10:39:07Z</time>
      </trkpt>
      <trkpt lat="44.10409" lon="3.18756">
        <ele>740.9</ele>
        <time>2019-05-31T10:39:08Z</time>
      </trkpt>
      <trkpt lat="44.10412" lon="3.18757">
        <ele>741.1</ele>
        <time>2019-05-31T10:39:09Z</time>
      </trkpt>
      <trkpt lat="44.10415" lon="3.18756">
        <ele>741.3</ele>
        <time>2019-05-31T10:39:10Z</time>
      </trkpt>
      <trkpt lat="44.10419" lon="3.18756">
        <ele>741.5</ele>
        <time>2019-05-31T10:39:11Z</time>
      </trkpt>
      <trkpt lat="44.10423" lon="3.18757">
        <ele>741.8</ele>
        <time>2019-05-31T10:39:12Z</time>
      </trkpt>
      <trkpt lat="44.10427" lon="3.18758">
        <ele>742.1</ele>
        <time>2019-05-31T10:39:13Z</time>
      </trkpt>
      <trkpt lat="44.1043" lon="3.18759">
        <ele>742.4</ele>
        <time>2019-05-31T10:39:14Z</time>
      </trkpt>
      <trkpt lat="44.10433" lon="3.1876">
        <ele>742.6</ele>
        <time>2019-05-31T10:39:15Z</time>
      </trkpt>
      <trkpt lat="44.10439" lon="3.18758">
        <ele>743</ele>
        <time>2019-05-31T10:39:17Z</time>
      </trkpt>
      <trkpt lat="44.10443" lon="3.18756">
        <ele>743.4</ele>
        <time>2019-05-31T10:39:19Z</time>
      </trkpt>
      <trkpt lat="44.10446" lon="3.18754">
        <ele>743.6</ele>
        <time>2019-05-31T10:39:20Z</time>
      </trkpt>
      <trkpt lat="44.10451" lon="3.18753">
        <ele>743.8</ele>
        <time>2019-05-31T10:39:21Z</time>
      </trkpt>
      <trkpt lat="44.10456" lon="3.18752">
        <ele>744</ele>
        <time>2019-05-31T10:39:22Z</time>
      </trkpt>
      <trkpt lat="44.10465" lon="3.18751">
        <ele>743.6</ele>
        <time>2019-05-31T10:39:23Z</time>
      </trkpt>
      <trkpt lat="44.1047" lon="3.18749">
        <ele>743.8</ele>
        <time>2019-05-31T10:39:24Z</time>
      </trkpt>
      <trkpt lat="44.10475" lon="3.18746">
        <ele>744.1</ele>
        <time>2019-05-31T10:39:25Z</time>
      </trkpt>
      <trkpt lat="44.10478" lon="3.18748">
        <ele>744.2</ele>
        <time>2019-05-31T10:39:26Z</time>
      </trkpt>
      <trkpt lat="44.10482" lon="3.1875">
        <ele>744.3</ele>
        <time>2019-05-31T10:39:28Z</time>
      </trkpt>
      <trkpt lat="44.10488" lon="3.1875">
        <ele>744.1</ele>
        <time>2019-05-31T10:39:29Z</time>
      </trkpt>
      <trkpt lat="44.10492" lon="3.1875">
        <ele>744.2</ele>
        <time>2019-05-31T10:39:30Z</time>
      </trkpt>
      <trkpt lat="44.10498" lon="3.18749">
        <ele>744.6</ele>
        <time>2019-05-31T10:39:31Z</time>
      </trkpt>
      <trkpt lat="44.10503" lon="3.18749">
        <ele>745.1</ele>
        <time>2019-05-31T10:39:32Z</time>
      </trkpt>
      <trkpt lat="44.10508" lon="3.1875">
        <ele>745.5</ele>
        <time>2019-05-31T10:39:33Z</time>
      </trkpt>
      <trkpt lat="44.10514" lon="3.18752">
        <ele>745.6</ele>
        <time>2019-05-31T10:39:34Z</time>
      </trkpt>
      <trkpt lat="44.10521" lon="3.18749">
        <ele>746.1</ele>
        <time>2019-05-31T10:39:35Z</time>
      </trkpt>
      <trkpt lat="44.10525" lon="3.1875">
        <ele>746.3</ele>
        <time>2019-05-31T10:39:36Z</time>
      </trkpt>
      <trkpt lat="44.10531" lon="3.18753">
        <ele>746.3</ele>
        <time>2019-05-31T10:39:37Z</time>
      </trkpt>
      <trkpt lat="44.10536" lon="3.18753">
        <ele>746.4</ele>
        <time>2019-05-31T10:39:38Z</time>
      </trkpt>
      <trkpt lat="44.10541" lon="3.18755">
        <ele>746.6</ele>
        <time>2019-05-31T10:39:39Z</time>
      </trkpt>
      <trkpt lat="44.10544" lon="3.18757">
        <ele>746.6</ele>
        <time>2019-05-31T10:39:40Z</time>
      </trkpt>
      <trkpt lat="44.10549" lon="3.18759">
        <ele>746.5</ele>
        <time>2019-05-31T10:39:41Z</time>
      </trkpt>
      <trkpt lat="44.10553" lon="3.1876">
        <ele>746.4</ele>
        <time>2019-05-31T10:39:42Z</time>
      </trkpt>
      <trkpt lat="44.10556" lon="3.1876">
        <ele>746.4</ele>
        <time>2019-05-31T10:39:43Z</time>
      </trkpt>
      <trkpt lat="44.1056" lon="3.18762">
        <ele>746.4</ele>
        <time>2019-05-31T10:39:44Z</time>
      </trkpt>
      <trkpt lat="44.10564" lon="3.18765">
        <ele>746.5</ele>
        <time>2019-05-31T10:39:46Z</time>
      </trkpt>
      <trkpt lat="44.10567" lon="3.18767">
        <ele>746.5</ele>
        <time>2019-05-31T10:39:47Z</time>
      </trkpt>
      <trkpt lat="44.10572" lon="3.18768">
        <ele>746.4</ele>
        <time>2019-05-31T10:39:48Z</time>
      </trkpt>
      <trkpt lat="44.10576" lon="3.18768">
        <ele>746.4</ele>
        <time>2019-05-31T10:39:49Z</time>
      </trkpt>
      <trkpt lat="44.10581" lon="3.18768">
        <ele>746.6</ele>
        <time>2019-05-31T10:39:50Z</time>
      </trkpt>
      <trkpt lat="44.10585" lon="3.18767">
        <ele>746.7</ele>
        <time>2019-05-31T10:39:51Z</time>
      </trkpt>
      <trkpt lat="44.1059" lon="3.18766">
        <ele>746.7</ele>
        <time>2019-05-31T10:39:52Z</time>
      </trkpt>
      <trkpt lat="44.10595" lon="3.18765">
        <ele>746.6</ele>
        <time>2019-05-31T10:39:53Z</time>
      </trkpt>
      <trkpt lat="44.10599" lon="3.18765">
        <ele>746.5</ele>
        <time>2019-05-31T10:39:54Z</time>
      </trkpt>
      <trkpt lat="44.10603" lon="3.18765">
        <ele>746.6</ele>
        <time>2019-05-31T10:39:55Z</time>
      </trkpt>
      <trkpt lat="44.10607" lon="3.18765">
        <ele>746.7</ele>
        <time>2019-05-31T10:39:56Z</time>
      </trkpt>
      <trkpt lat="44.10611" lon="3.18766">
        <ele>747</ele>
        <time>2019-05-31T10:39:57Z</time>
      </trkpt>
      <trkpt lat="44.10614" lon="3.18767">
        <ele>747.2</ele>
        <time>2019-05-31T10:39:58Z</time>
      </trkpt>
      <trkpt lat="44.10618" lon="3.18769">
        <ele>747.5</ele>
        <time>2019-05-31T10:39:59Z</time>
      </trkpt>
      <trkpt lat="44.10621" lon="3.18771">
        <ele>747.7</ele>
        <time>2019-05-31T10:40:00Z</time>
      </trkpt>
      <trkpt lat="44.10624" lon="3.18773">
        <ele>748</ele>
        <time>2019-05-31T10:40:01Z</time>
      </trkpt>
      <trkpt lat="44.10627" lon="3.18775">
        <ele>748.4</ele>
        <time>2019-05-31T10:40:02Z</time>
      </trkpt>
      <trkpt lat="44.10631" lon="3.18777">
        <ele>748.7</ele>
        <time>2019-05-31T10:40:03Z</time>
      </trkpt>
      <trkpt lat="44.10635" lon="3.18777">
        <ele>748.9</ele>
        <time>2019-05-31T10:40:04Z</time>
      </trkpt>
      <trkpt lat="44.10639" lon="3.18778">
        <ele>749.2</ele>
        <time>2019-05-31T10:40:05Z</time>
      </trkpt>
      <trkpt lat="44.10644" lon="3.18777">
        <ele>749.8</ele>
        <time>2019-05-31T10:40:06Z</time>
      </trkpt>
      <trkpt lat="44.10653" lon="3.1877">
        <ele>750.8</ele>
        <time>2019-05-31T10:40:07Z</time>
      </trkpt>
      <trkpt lat="44.10655" lon="3.18761">
        <ele>750.8</ele>
        <time>2019-05-31T10:40:09Z</time>
      </trkpt>
      <trkpt lat="44.10653" lon="3.18756">
        <ele>750.7</ele>
        <time>2019-05-31T10:40:10Z</time>
      </trkpt>
      <trkpt lat="44.10656" lon="3.18751">
        <ele>750.7</ele>
        <time>2019-05-31T10:40:12Z</time>
      </trkpt>
      <trkpt lat="44.10655" lon="3.18746">
        <ele>750.9</ele>
        <time>2019-05-31T10:40:14Z</time>
      </trkpt>
      <trkpt lat="44.10659" lon="3.18739">
        <ele>751.3</ele>
        <time>2019-05-31T10:40:16Z</time>
      </trkpt>
      <trkpt lat="44.10659" lon="3.18735">
        <ele>751.3</ele>
        <time>2019-05-31T10:40:17Z</time>
      </trkpt>
      <trkpt lat="44.1066" lon="3.1873">
        <ele>751.5</ele>
        <time>2019-05-31T10:40:19Z</time>
      </trkpt>
      <trkpt lat="44.10662" lon="3.18724">
        <ele>751.9</ele>
        <time>2019-05-31T10:40:21Z</time>
      </trkpt>
      <trkpt lat="44.10663" lon="3.18719">
        <ele>752.2</ele>
        <time>2019-05-31T10:40:23Z</time>
      </trkpt>
      <trkpt lat="44.10664" lon="3.18715">
        <ele>752.5</ele>
        <time>2019-05-31T10:40:26Z</time>
      </trkpt>
      <trkpt lat="44.10665" lon="3.1871">
        <ele>752.9</ele>
        <time>2019-05-31T10:40:28Z</time>
      </trkpt>
      <trkpt lat="44.10666" lon="3.18704">
        <ele>753.7</ele>
        <time>2019-05-31T10:40:30Z</time>
      </trkpt>
      <trkpt lat="44.10667" lon="3.18697">
        <ele>754.7</ele>
        <time>2019-05-31T10:40:32Z</time>
      </trkpt>
      <trkpt lat="44.10666" lon="3.18693">
        <ele>755.2</ele>
        <time>2019-05-31T10:40:34Z</time>
      </trkpt>
      <trkpt lat="44.10667" lon="3.18688">
        <ele>755.6</ele>
        <time>2019-05-31T10:40:36Z</time>
      </trkpt>
      <trkpt lat="44.10668" lon="3.18681">
        <ele>756.3</ele>
        <time>2019-05-31T10:40:38Z</time>
      </trkpt>
      <trkpt lat="44.10668" lon="3.18675">
        <ele>757</ele>
        <time>2019-05-31T10:40:40Z</time>
      </trkpt>
      <trkpt lat="44.10668" lon="3.18669">
        <ele>757.5</ele>
        <time>2019-05-31T10:40:42Z</time>
      </trkpt>
      <trkpt lat="44.10667" lon="3.18663">
        <ele>758</ele>
        <time>2019-05-31T10:40:44Z</time>
      </trkpt>
      <trkpt lat="44.10667" lon="3.1866">
        <ele>758.4</ele>
        <time>2019-05-31T10:40:45Z</time>
      </trkpt>
      <trkpt lat="44.10665" lon="3.18654">
        <ele>759</ele>
        <time>2019-05-31T10:40:47Z</time>
      </trkpt>
      <trkpt lat="44.10664" lon="3.18648">
        <ele>759.6</ele>
        <time>2019-05-31T10:40:49Z</time>
      </trkpt>
      <trkpt lat="44.10663" lon="3.18642">
        <ele>760.1</ele>
        <time>2019-05-31T10:40:51Z</time>
      </trkpt>
      <trkpt lat="44.10661" lon="3.18637">
        <ele>760.2</ele>
        <time>2019-05-31T10:40:53Z</time>
      </trkpt>
      <trkpt lat="44.10658" lon="3.18631">
        <ele>760.3</ele>
        <time>2019-05-31T10:40:55Z</time>
      </trkpt>
      <trkpt lat="44.10655" lon="3.18626">
        <ele>760.4</ele>
        <time>2019-05-31T10:40:57Z</time>
      </trkpt>
      <trkpt lat="44.10652" lon="3.1862">
        <ele>760.6</ele>
        <time>2019-05-31T10:40:59Z</time>
      </trkpt>
      <trkpt lat="44.10649" lon="3.18614">
        <ele>760.5</ele>
        <time>2019-05-31T10:41:01Z</time>
      </trkpt>
      <trkpt lat="44.10648" lon="3.18609">
        <ele>760.6</ele>
        <time>2019-05-31T10:41:03Z</time>
      </trkpt>
      <trkpt lat="44.10646" lon="3.18603">
        <ele>760.9</ele>
        <time>2019-05-31T10:41:05Z</time>
      </trkpt>
      <trkpt lat="44.10645" lon="3.18599">
        <ele>761</ele>
        <time>2019-05-31T10:41:07Z</time>
      </trkpt>
      <trkpt lat="44.10644" lon="3.18595">
        <ele>761.1</ele>
        <time>2019-05-31T10:41:09Z</time>
      </trkpt>
      <trkpt lat="44.10644" lon="3.18591">
        <ele>761.1</ele>
        <time>2019-05-31T10:41:11Z</time>
      </trkpt>
      <trkpt lat="44.10643" lon="3.18587">
        <ele>761.2</ele>
        <time>2019-05-31T10:41:13Z</time>
      </trkpt>
      <trkpt lat="44.10642" lon="3.18582">
        <ele>761.4</ele>
        <time>2019-05-31T10:41:15Z</time>
      </trkpt>
      <trkpt lat="44.10642" lon="3.18578">
        <ele>761.5</ele>
        <time>2019-05-31T10:41:19Z</time>
      </trkpt>
      <trkpt lat="44.10641" lon="3.18575">
        <ele>761.5</ele>
        <time>2019-05-31T10:42:08Z</time>
      </trkpt>
      <trkpt lat="44.10638" lon="3.18574">
        <ele>761.4</ele>
        <time>2019-05-31T10:47:04Z</time>
      </trkpt>
      <trkpt lat="44.10636" lon="3.18571">
        <ele>761.4</ele>
        <time>2019-05-31T11:03:55Z</time>
      </trkpt>
      <trkpt lat="44.10634" lon="3.18568">
        <ele>761.5</ele>
        <time>2019-05-31T11:03:57Z</time>
      </trkpt>
      <trkpt lat="44.10633" lon="3.18562">
        <ele>761.6</ele>
        <time>2019-05-31T11:03:59Z</time>
      </trkpt>
      <trkpt lat="44.10631" lon="3.18558">
        <ele>761.8</ele>
        <time>2019-05-31T11:04:01Z</time>
      </trkpt>
      <trkpt lat="44.10628" lon="3.18553">
        <ele>761.9</ele>
        <time>2019-05-31T11:04:03Z</time>
      </trkpt>
      <trkpt lat="44.10626" lon="3.18548">
        <ele>762.1</ele>
        <time>2019-05-31T11:04:05Z</time>
      </trkpt>
      <trkpt lat="44.10623" lon="3.18544">
        <ele>762.2</ele>
        <time>2019-05-31T11:04:07Z</time>
      </trkpt>
      <trkpt lat="44.1062" lon="3.1854">
        <ele>762.3</ele>
        <time>2019-05-31T11:04:09Z</time>
      </trkpt>
      <trkpt lat="44.10617" lon="3.18535">
        <ele>762.2</ele>
        <time>2019-05-31T11:04:11Z</time>
      </trkpt>
      <trkpt lat="44.10613" lon="3.1853">
        <ele>762.1</ele>
        <time>2019-05-31T11:04:13Z</time>
      </trkpt>
      <trkpt lat="44.10611" lon="3.18526">
        <ele>762.2</ele>
        <time>2019-05-31T11:04:15Z</time>
      </trkpt>
      <trkpt lat="44.10609" lon="3.18521">
        <ele>762.4</ele>
        <time>2019-05-31T11:04:17Z</time>
      </trkpt>
      <trkpt lat="44.10607" lon="3.18514">
        <ele>762.8</ele>
        <time>2019-05-31T11:04:19Z</time>
      </trkpt>
      <trkpt lat="44.10606" lon="3.18509">
        <ele>763.2</ele>
        <time>2019-05-31T11:04:21Z</time>
      </trkpt>
      <trkpt lat="44.10606" lon="3.18503">
        <ele>763.7</ele>
        <time>2019-05-31T11:04:23Z</time>
      </trkpt>
      <trkpt lat="44.10607" lon="3.18497">
        <ele>764.2</ele>
        <time>2019-05-31T11:04:25Z</time>
      </trkpt>
      <trkpt lat="44.1061" lon="3.18492">
        <ele>764.6</ele>
        <time>2019-05-31T11:04:27Z</time>
      </trkpt>
      <trkpt lat="44.10613" lon="3.18488">
        <ele>764.9</ele>
        <time>2019-05-31T11:04:29Z</time>
      </trkpt>
      <trkpt lat="44.10616" lon="3.18483">
        <ele>765.3</ele>
        <time>2019-05-31T11:04:31Z</time>
      </trkpt>
      <trkpt lat="44.10619" lon="3.18479">
        <ele>765.7</ele>
        <time>2019-05-31T11:04:33Z</time>
      </trkpt>
      <trkpt lat="44.10622" lon="3.18476">
        <ele>766.1</ele>
        <time>2019-05-31T11:04:35Z</time>
      </trkpt>
      <trkpt lat="44.10626" lon="3.18474">
        <ele>766.5</ele>
        <time>2019-05-31T11:04:37Z</time>
      </trkpt>
      <trkpt lat="44.1063" lon="3.18472">
        <ele>766.8</ele>
        <time>2019-05-31T11:04:39Z</time>
      </trkpt>
      <trkpt lat="44.10635" lon="3.18469">
        <ele>767.2</ele>
        <time>2019-05-31T11:04:41Z</time>
      </trkpt>
      <trkpt lat="44.10639" lon="3.18467">
        <ele>767.7</ele>
        <time>2019-05-31T11:04:43Z</time>
      </trkpt>
      <trkpt lat="44.10643" lon="3.18465">
        <ele>768.2</ele>
        <time>2019-05-31T11:04:45Z</time>
      </trkpt>
      <trkpt lat="44.10646" lon="3.18462">
        <ele>768.5</ele>
        <time>2019-05-31T11:04:47Z</time>
      </trkpt>
      <trkpt lat="44.1065" lon="3.18458">
        <ele>768.7</ele>
        <time>2019-05-31T11:04:49Z</time>
      </trkpt>
      <trkpt lat="44.10653" lon="3.18456">
        <ele>768.8</ele>
        <time>2019-05-31T11:04:51Z</time>
      </trkpt>
      <trkpt lat="44.10657" lon="3.18451">
        <ele>769</ele>
        <time>2019-05-31T11:04:53Z</time>
      </trkpt>
      <trkpt lat="44.10659" lon="3.18448">
        <ele>769</ele>
        <time>2019-05-31T11:04:54Z</time>
      </trkpt>
      <trkpt lat="44.10662" lon="3.18445">
        <ele>769.1</ele>
        <time>2019-05-31T11:04:55Z</time>
      </trkpt>
      <trkpt lat="44.10666" lon="3.1844">
        <ele>769.3</ele>
        <time>2019-05-31T11:04:57Z</time>
      </trkpt>
      <trkpt lat="44.10668" lon="3.18437">
        <ele>769.4</ele>
        <time>2019-05-31T11:04:58Z</time>
      </trkpt>
      <trkpt lat="44.10671" lon="3.18432">
        <ele>769.6</ele>
        <time>2019-05-31T11:05:00Z</time>
      </trkpt>
      <trkpt lat="44.10675" lon="3.18428">
        <ele>769.5</ele>
        <time>2019-05-31T11:05:02Z</time>
      </trkpt>
      <trkpt lat="44.10678" lon="3.18425">
        <ele>769.5</ele>
        <time>2019-05-31T11:05:04Z</time>
      </trkpt>
      <trkpt lat="44.10681" lon="3.18421">
        <ele>769.4</ele>
        <time>2019-05-31T11:05:06Z</time>
      </trkpt>
      <trkpt lat="44.10684" lon="3.18417">
        <ele>769.4</ele>
        <time>2019-05-31T11:05:08Z</time>
      </trkpt>
      <trkpt lat="44.10687" lon="3.18412">
        <ele>769.3</ele>
        <time>2019-05-31T11:05:10Z</time>
      </trkpt>
      <trkpt lat="44.10691" lon="3.18407">
        <ele>769.2</ele>
        <time>2019-05-31T11:05:12Z</time>
      </trkpt>
      <trkpt lat="44.10693" lon="3.18404">
        <ele>769.2</ele>
        <time>2019-05-31T11:05:13Z</time>
      </trkpt>
      <trkpt lat="44.10696" lon="3.18398">
        <ele>768.8</ele>
        <time>2019-05-31T11:05:15Z</time>
      </trkpt>
      <trkpt lat="44.10699" lon="3.18394">
        <ele>768.5</ele>
        <time>2019-05-31T11:05:17Z</time>
      </trkpt>
      <trkpt lat="44.10702" lon="3.18389">
        <ele>768.1</ele>
        <time>2019-05-31T11:05:19Z</time>
      </trkpt>
      <trkpt lat="44.10704" lon="3.18387">
        <ele>767.9</ele>
        <time>2019-05-31T11:05:20Z</time>
      </trkpt>
      <trkpt lat="44.10708" lon="3.18382">
        <ele>767.6</ele>
        <time>2019-05-31T11:05:22Z</time>
      </trkpt>
      <trkpt lat="44.1071" lon="3.18378">
        <ele>767.3</ele>
        <time>2019-05-31T11:05:24Z</time>
      </trkpt>
      <trkpt lat="44.10714" lon="3.18374">
        <ele>766.9</ele>
        <time>2019-05-31T11:05:26Z</time>
      </trkpt>
      <trkpt lat="44.10718" lon="3.1837">
        <ele>766.8</ele>
        <time>2019-05-31T11:05:28Z</time>
      </trkpt>
      <trkpt lat="44.10722" lon="3.18368">
        <ele>766.7</ele>
        <time>2019-05-31T11:05:30Z</time>
      </trkpt>
      <trkpt lat="44.10726" lon="3.18365">
        <ele>766.6</ele>
        <time>2019-05-31T11:05:32Z</time>
      </trkpt>
      <trkpt lat="44.1073" lon="3.18364">
        <ele>766.5</ele>
        <time>2019-05-31T11:05:34Z</time>
      </trkpt>
      <trkpt lat="44.10735" lon="3.18365">
        <ele>766.4</ele>
        <time>2019-05-31T11:05:36Z</time>
      </trkpt>
      <trkpt lat="44.10739" lon="3.18364">
        <ele>766.3</ele>
        <time>2019-05-31T11:05:38Z</time>
      </trkpt>
      <trkpt lat="44.10742" lon="3.18362">
        <ele>766.2</ele>
        <time>2019-05-31T11:05:39Z</time>
      </trkpt>
      <trkpt lat="44.10745" lon="3.18361">
        <ele>766.1</ele>
        <time>2019-05-31T11:05:40Z</time>
      </trkpt>
      <trkpt lat="44.10749" lon="3.1836">
        <ele>766.2</ele>
        <time>2019-05-31T11:05:42Z</time>
      </trkpt>
      <trkpt lat="44.10752" lon="3.18363">
        <ele>766.4</ele>
        <time>2019-05-31T11:05:44Z</time>
      </trkpt>
      <trkpt lat="44.10755" lon="3.18368">
        <ele>766.5</ele>
        <time>2019-05-31T11:05:46Z</time>
      </trkpt>
      <trkpt lat="44.10757" lon="3.18372">
        <ele>766.6</ele>
        <time>2019-05-31T11:05:48Z</time>
      </trkpt>
      <trkpt lat="44.1076" lon="3.18375">
        <ele>766.8</ele>
        <time>2019-05-31T11:05:50Z</time>
      </trkpt>
      <trkpt lat="44.10763" lon="3.18379">
        <ele>766.9</ele>
        <time>2019-05-31T11:05:52Z</time>
      </trkpt>
      <trkpt lat="44.10766" lon="3.18383">
        <ele>767</ele>
        <time>2019-05-31T11:05:54Z</time>
      </trkpt>
      <trkpt lat="44.10768" lon="3.18387">
        <ele>767.1</ele>
        <time>2019-05-31T11:05:56Z</time>
      </trkpt>
      <trkpt lat="44.10771" lon="3.18391">
        <ele>767.2</ele>
        <time>2019-05-31T11:05:58Z</time>
      </trkpt>
      <trkpt lat="44.10774" lon="3.18392">
        <ele>767.2</ele>
        <time>2019-05-31T11:05:59Z</time>
      </trkpt>
      <trkpt lat="44.10778" lon="3.18391">
        <ele>767.3</ele>
        <time>2019-05-31T11:06:01Z</time>
      </trkpt>
      <trkpt lat="44.10782" lon="3.18391">
        <ele>767.4</ele>
        <time>2019-05-31T11:06:03Z</time>
      </trkpt>
      <trkpt lat="44.10786" lon="3.18391">
        <ele>767.5</ele>
        <time>2019-05-31T11:06:05Z</time>
      </trkpt>
      <trkpt lat="44.1079" lon="3.18392">
        <ele>767.5</ele>
        <time>2019-05-31T11:06:07Z</time>
      </trkpt>
      <trkpt lat="44.10796" lon="3.18394">
        <ele>767.6</ele>
        <time>2019-05-31T11:06:09Z</time>
      </trkpt>
      <trkpt lat="44.10799" lon="3.18394">
        <ele>767.7</ele>
        <time>2019-05-31T11:06:10Z</time>
      </trkpt>
      <trkpt lat="44.10803" lon="3.18395">
        <ele>767.8</ele>
        <time>2019-05-31T11:06:12Z</time>
      </trkpt>
      <trkpt lat="44.10807" lon="3.18394">
        <ele>767.8</ele>
        <time>2019-05-31T11:06:14Z</time>
      </trkpt>
      <trkpt lat="44.10812" lon="3.18393">
        <ele>767.9</ele>
        <time>2019-05-31T11:06:16Z</time>
      </trkpt>
      <trkpt lat="44.10814" lon="3.1839">
        <ele>767.9</ele>
        <time>2019-05-31T11:06:18Z</time>
      </trkpt>
      <trkpt lat="44.10819" lon="3.18389">
        <ele>768</ele>
        <time>2019-05-31T11:06:20Z</time>
      </trkpt>
      <trkpt lat="44.10821" lon="3.18388">
        <ele>768</ele>
        <time>2019-05-31T11:06:21Z</time>
      </trkpt>
      <trkpt lat="44.10824" lon="3.18387">
        <ele>768</ele>
        <time>2019-05-31T11:06:22Z</time>
      </trkpt>
      <trkpt lat="44.10827" lon="3.18386">
        <ele>768.1</ele>
        <time>2019-05-31T11:06:23Z</time>
      </trkpt>
      <trkpt lat="44.1083" lon="3.18384">
        <ele>768.1</ele>
        <time>2019-05-31T11:06:24Z</time>
      </trkpt>
      <trkpt lat="44.10835" lon="3.18382">
        <ele>768.1</ele>
        <time>2019-05-31T11:06:26Z</time>
      </trkpt>
      <trkpt lat="44.10838" lon="3.18382">
        <ele>768.2</ele>
        <time>2019-05-31T11:06:27Z</time>
      </trkpt>
      <trkpt lat="44.10841" lon="3.18381">
        <ele>768.2</ele>
        <time>2019-05-31T11:06:28Z</time>
      </trkpt>
      <trkpt lat="44.10846" lon="3.1838">
        <ele>768.2</ele>
        <time>2019-05-31T11:06:30Z</time>
      </trkpt>
      <trkpt lat="44.10849" lon="3.18379">
        <ele>768.2</ele>
        <time>2019-05-31T11:06:32Z</time>
      </trkpt>
      <trkpt lat="44.10852" lon="3.18378">
        <ele>768.3</ele>
        <time>2019-05-31T11:06:34Z</time>
      </trkpt>
      <trkpt lat="44.10856" lon="3.18376">
        <ele>768.3</ele>
        <time>2019-05-31T11:06:36Z</time>
      </trkpt>
      <trkpt lat="44.1086" lon="3.18375">
        <ele>768.3</ele>
        <time>2019-05-31T11:06:38Z</time>
      </trkpt>
      <trkpt lat="44.10865" lon="3.18374">
        <ele>768.3</ele>
        <time>2019-05-31T11:06:40Z</time>
      </trkpt>
      <trkpt lat="44.1087" lon="3.18374">
        <ele>768.4</ele>
        <time>2019-05-31T11:06:42Z</time>
      </trkpt>
      <trkpt lat="44.10875" lon="3.18373">
        <ele>768.4</ele>
        <time>2019-05-31T11:06:44Z</time>
      </trkpt>
      <trkpt lat="44.10879" lon="3.18372">
        <ele>768.4</ele>
        <time>2019-05-31T11:06:46Z</time>
      </trkpt>
      <trkpt lat="44.10883" lon="3.1837">
        <ele>768.4</ele>
        <time>2019-05-31T11:06:48Z</time>
      </trkpt>
      <trkpt lat="44.10886" lon="3.18367">
        <ele>768.4</ele>
        <time>2019-05-31T11:06:50Z</time>
      </trkpt>
      <trkpt lat="44.10889" lon="3.18366">
        <ele>768.4</ele>
        <time>2019-05-31T11:06:52Z</time>
      </trkpt>
      <trkpt lat="44.10893" lon="3.18365">
        <ele>768.4</ele>
        <time>2019-05-31T11:06:54Z</time>
      </trkpt>
      <trkpt lat="44.10897" lon="3.18366">
        <ele>768.4</ele>
        <time>2019-05-31T11:06:56Z</time>
      </trkpt>
      <trkpt lat="44.10901" lon="3.18369">
        <ele>768.4</ele>
        <time>2019-05-31T11:06:58Z</time>
      </trkpt>
      <trkpt lat="44.10905" lon="3.18369">
        <ele>768.4</ele>
        <time>2019-05-31T11:07:00Z</time>
      </trkpt>
      <trkpt lat="44.10908" lon="3.18368">
        <ele>768.4</ele>
        <time>2019-05-31T11:07:01Z</time>
      </trkpt>
      <trkpt lat="44.10911" lon="3.18368">
        <ele>768.4</ele>
        <time>2019-05-31T11:07:02Z</time>
      </trkpt>
      <trkpt lat="44.10914" lon="3.18366">
        <ele>768.4</ele>
        <time>2019-05-31T11:07:03Z</time>
      </trkpt>
      <trkpt lat="44.10917" lon="3.18365">
        <ele>768.4</ele>
        <time>2019-05-31T11:07:04Z</time>
      </trkpt>
      <trkpt lat="44.1092" lon="3.18365">
        <ele>768.4</ele>
        <time>2019-05-31T11:07:05Z</time>
      </trkpt>
      <trkpt lat="44.10923" lon="3.18365">
        <ele>768.3</ele>
        <time>2019-05-31T11:07:06Z</time>
      </trkpt>
      <trkpt lat="44.10926" lon="3.18365">
        <ele>768.3</ele>
        <time>2019-05-31T11:07:07Z</time>
      </trkpt>
      <trkpt lat="44.10929" lon="3.18365">
        <ele>768.3</ele>
        <time>2019-05-31T11:07:08Z</time>
      </trkpt>
      <trkpt lat="44.10932" lon="3.18364">
        <ele>768.2</ele>
        <time>2019-05-31T11:07:09Z</time>
      </trkpt>
      <trkpt lat="44.10935" lon="3.18363">
        <ele>768.2</ele>
        <time>2019-05-31T11:07:10Z</time>
      </trkpt>
      <trkpt lat="44.10938" lon="3.18362">
        <ele>768.2</ele>
        <time>2019-05-31T11:07:11Z</time>
      </trkpt>
      <trkpt lat="44.10941" lon="3.1836">
        <ele>768.2</ele>
        <time>2019-05-31T11:07:12Z</time>
      </trkpt>
      <trkpt lat="44.10945" lon="3.18357">
        <ele>768.1</ele>
        <time>2019-05-31T11:07:14Z</time>
      </trkpt>
      <trkpt lat="44.1095" lon="3.18356">
        <ele>768</ele>
        <time>2019-05-31T11:07:16Z</time>
      </trkpt>
      <trkpt lat="44.10954" lon="3.18356">
        <ele>768</ele>
        <time>2019-05-31T11:07:17Z</time>
      </trkpt>
      <trkpt lat="44.10957" lon="3.18357">
        <ele>768</ele>
        <time>2019-05-31T11:07:18Z</time>
      </trkpt>
      <trkpt lat="44.10961" lon="3.18358">
        <ele>767.9</ele>
        <time>2019-05-31T11:07:19Z</time>
      </trkpt>
      <trkpt lat="44.10964" lon="3.18362">
        <ele>767.9</ele>
        <time>2019-05-31T11:07:20Z</time>
      </trkpt>
      <trkpt lat="44.10968" lon="3.18365">
        <ele>767.8</ele>
        <time>2019-05-31T11:07:21Z</time>
      </trkpt>
      <trkpt lat="44.10972" lon="3.18367">
        <ele>767.8</ele>
        <time>2019-05-31T11:07:22Z</time>
      </trkpt>
      <trkpt lat="44.10976" lon="3.18369">
        <ele>767.8</ele>
        <time>2019-05-31T11:07:23Z</time>
      </trkpt>
      <trkpt lat="44.1098" lon="3.18369">
        <ele>767.8</ele>
        <time>2019-05-31T11:07:24Z</time>
      </trkpt>
      <trkpt lat="44.10984" lon="3.18369">
        <ele>767.7</ele>
        <time>2019-05-31T11:07:25Z</time>
      </trkpt>
      <trkpt lat="44.10988" lon="3.18369">
        <ele>767.7</ele>
        <time>2019-05-31T11:07:26Z</time>
      </trkpt>
      <trkpt lat="44.10991" lon="3.18369">
        <ele>767.7</ele>
        <time>2019-05-31T11:07:27Z</time>
      </trkpt>
      <trkpt lat="44.10994" lon="3.1837">
        <ele>767.7</ele>
        <time>2019-05-31T11:07:28Z</time>
      </trkpt>
      <trkpt lat="44.10997" lon="3.18371">
        <ele>767.7</ele>
        <time>2019-05-31T11:07:29Z</time>
      </trkpt>
      <trkpt lat="44.11001" lon="3.18375">
        <ele>767.7</ele>
        <time>2019-05-31T11:07:31Z</time>
      </trkpt>
      <trkpt lat="44.11004" lon="3.1838">
        <ele>767.6</ele>
        <time>2019-05-31T11:07:33Z</time>
      </trkpt>
      <trkpt lat="44.11007" lon="3.18384">
        <ele>767.5</ele>
        <time>2019-05-31T11:07:35Z</time>
      </trkpt>
      <trkpt lat="44.11009" lon="3.18388">
        <ele>767.4</ele>
        <time>2019-05-31T11:07:37Z</time>
      </trkpt>
      <trkpt lat="44.11012" lon="3.18393">
        <ele>767.2</ele>
        <time>2019-05-31T11:07:39Z</time>
      </trkpt>
      <trkpt lat="44.11015" lon="3.18399">
        <ele>766.9</ele>
        <time>2019-05-31T11:07:41Z</time>
      </trkpt>
      <trkpt lat="44.11017" lon="3.18404">
        <ele>766.6</ele>
        <time>2019-05-31T11:07:43Z</time>
      </trkpt>
      <trkpt lat="44.11016" lon="3.18411">
        <ele>766.2</ele>
        <time>2019-05-31T11:07:45Z</time>
      </trkpt>
      <trkpt lat="44.11014" lon="3.18416">
        <ele>765.8</ele>
        <time>2019-05-31T11:07:46Z</time>
      </trkpt>
      <trkpt lat="44.11012" lon="3.1842">
        <ele>765.4</ele>
        <time>2019-05-31T11:07:47Z</time>
      </trkpt>
      <trkpt lat="44.11008" lon="3.18424">
        <ele>765</ele>
        <time>2019-05-31T11:07:48Z</time>
      </trkpt>
      <trkpt lat="44.11006" lon="3.1843">
        <ele>764.6</ele>
        <time>2019-05-31T11:07:49Z</time>
      </trkpt>
      <trkpt lat="44.11006" lon="3.18435">
        <ele>764.3</ele>
        <time>2019-05-31T11:07:50Z</time>
      </trkpt>
      <trkpt lat="44.11015" lon="3.18436">
        <ele>763.7</ele>
        <time>2019-05-31T11:07:51Z</time>
      </trkpt>
      <trkpt lat="44.11018" lon="3.18438">
        <ele>763.5</ele>
        <time>2019-05-31T11:07:52Z</time>
      </trkpt>
      <trkpt lat="44.11022" lon="3.18442">
        <ele>763.2</ele>
        <time>2019-05-31T11:07:53Z</time>
      </trkpt>
      <trkpt lat="44.11025" lon="3.18445">
        <ele>763</ele>
        <time>2019-05-31T11:07:54Z</time>
      </trkpt>
      <trkpt lat="44.11026" lon="3.1845">
        <ele>762.7</ele>
        <time>2019-05-31T11:07:55Z</time>
      </trkpt>
      <trkpt lat="44.11027" lon="3.18454">
        <ele>762.4</ele>
        <time>2019-05-31T11:07:56Z</time>
      </trkpt>
      <trkpt lat="44.11031" lon="3.18459">
        <ele>762</ele>
        <time>2019-05-31T11:07:57Z</time>
      </trkpt>
      <trkpt lat="44.1103" lon="3.18465">
        <ele>761.7</ele>
        <time>2019-05-31T11:07:58Z</time>
      </trkpt>
      <trkpt lat="44.11031" lon="3.18475">
        <ele>761.4</ele>
        <time>2019-05-31T11:07:59Z</time>
      </trkpt>
      <trkpt lat="44.11036" lon="3.18481">
        <ele>761.1</ele>
        <time>2019-05-31T11:08:00Z</time>
      </trkpt>
      <trkpt lat="44.11039" lon="3.18487">
        <ele>760.8</ele>
        <time>2019-05-31T11:08:01Z</time>
      </trkpt>
      <trkpt lat="44.11041" lon="3.18492">
        <ele>760.7</ele>
        <time>2019-05-31T11:08:02Z</time>
      </trkpt>
      <trkpt lat="44.11043" lon="3.18496">
        <ele>760.6</ele>
        <time>2019-05-31T11:08:03Z</time>
      </trkpt>
      <trkpt lat="44.11045" lon="3.185">
        <ele>760.4</ele>
        <time>2019-05-31T11:08:04Z</time>
      </trkpt>
      <trkpt lat="44.11047" lon="3.18504">
        <ele>760.3</ele>
        <time>2019-05-31T11:08:05Z</time>
      </trkpt>
      <trkpt lat="44.11049" lon="3.18507">
        <ele>760.2</ele>
        <time>2019-05-31T11:08:06Z</time>
      </trkpt>
      <trkpt lat="44.11051" lon="3.18512">
        <ele>760.1</ele>
        <time>2019-05-31T11:08:07Z</time>
      </trkpt>
      <trkpt lat="44.11052" lon="3.18519">
        <ele>760</ele>
        <time>2019-05-31T11:08:08Z</time>
      </trkpt>
      <trkpt lat="44.11054" lon="3.18525">
        <ele>759.8</ele>
        <time>2019-05-31T11:08:09Z</time>
      </trkpt>
      <trkpt lat="44.11057" lon="3.18524">
        <ele>759.8</ele>
        <time>2019-05-31T11:08:10Z</time>
      </trkpt>
      <trkpt lat="44.11063" lon="3.18529">
        <ele>759.6</ele>
        <time>2019-05-31T11:08:11Z</time>
      </trkpt>
      <trkpt lat="44.11066" lon="3.18534">
        <ele>759.4</ele>
        <time>2019-05-31T11:08:12Z</time>
      </trkpt>
      <trkpt lat="44.11068" lon="3.18539">
        <ele>759.2</ele>
        <time>2019-05-31T11:08:13Z</time>
      </trkpt>
      <trkpt lat="44.11071" lon="3.18543">
        <ele>759</ele>
        <time>2019-05-31T11:08:14Z</time>
      </trkpt>
      <trkpt lat="44.11073" lon="3.18546">
        <ele>758.8</ele>
        <time>2019-05-31T11:08:15Z</time>
      </trkpt>
      <trkpt lat="44.11076" lon="3.18548">
        <ele>758.7</ele>
        <time>2019-05-31T11:08:16Z</time>
      </trkpt>
      <trkpt lat="44.1108" lon="3.18549">
        <ele>758.5</ele>
        <time>2019-05-31T11:08:17Z</time>
      </trkpt>
      <trkpt lat="44.11089" lon="3.1855">
        <ele>758</ele>
        <time>2019-05-31T11:08:18Z</time>
      </trkpt>
      <trkpt lat="44.11095" lon="3.18553">
        <ele>757.8</ele>
        <time>2019-05-31T11:08:19Z</time>
      </trkpt>
      <trkpt lat="44.11099" lon="3.18556">
        <ele>757.5</ele>
        <time>2019-05-31T11:08:20Z</time>
      </trkpt>
      <trkpt lat="44.11106" lon="3.18558">
        <ele>757.3</ele>
        <time>2019-05-31T11:08:21Z</time>
      </trkpt>
      <trkpt lat="44.1111" lon="3.1856">
        <ele>757.2</ele>
        <time>2019-05-31T11:08:22Z</time>
      </trkpt>
      <trkpt lat="44.11115" lon="3.18562">
        <ele>757.3</ele>
        <time>2019-05-31T11:08:23Z</time>
      </trkpt>
      <trkpt lat="44.11119" lon="3.1856">
        <ele>757.4</ele>
        <time>2019-05-31T11:08:24Z</time>
      </trkpt>
      <trkpt lat="44.11124" lon="3.1856">
        <ele>757.6</ele>
        <time>2019-05-31T11:08:25Z</time>
      </trkpt>
      <trkpt lat="44.11129" lon="3.18558">
        <ele>757.8</ele>
        <time>2019-05-31T11:08:29Z</time>
      </trkpt>
      <trkpt lat="44.11132" lon="3.18558">
        <ele>758.1</ele>
        <time>2019-05-31T11:08:31Z</time>
      </trkpt>
      <trkpt lat="44.11136" lon="3.18558">
        <ele>758.5</ele>
        <time>2019-05-31T11:08:33Z</time>
      </trkpt>
      <trkpt lat="44.11139" lon="3.1856">
        <ele>758.9</ele>
        <time>2019-05-31T11:08:35Z</time>
      </trkpt>
      <trkpt lat="44.11143" lon="3.18559">
        <ele>759.4</ele>
        <time>2019-05-31T11:08:38Z</time>
      </trkpt>
      <trkpt lat="44.11147" lon="3.18559">
        <ele>759.8</ele>
        <time>2019-05-31T11:08:40Z</time>
      </trkpt>
      <trkpt lat="44.1115" lon="3.18559">
        <ele>760.2</ele>
        <time>2019-05-31T11:08:42Z</time>
      </trkpt>
      <trkpt lat="44.11154" lon="3.18561">
        <ele>760.8</ele>
        <time>2019-05-31T11:08:44Z</time>
      </trkpt>
      <trkpt lat="44.11158" lon="3.18564">
        <ele>761.2</ele>
        <time>2019-05-31T11:08:46Z</time>
      </trkpt>
      <trkpt lat="44.11162" lon="3.18566">
        <ele>761.6</ele>
        <time>2019-05-31T11:08:48Z</time>
      </trkpt>
      <trkpt lat="44.11166" lon="3.18569">
        <ele>762</ele>
        <time>2019-05-31T11:08:50Z</time>
      </trkpt>
      <trkpt lat="44.11171" lon="3.18572">
        <ele>762.2</ele>
        <time>2019-05-31T11:08:52Z</time>
      </trkpt>
      <trkpt lat="44.11173" lon="3.18575">
        <ele>762.4</ele>
        <time>2019-05-31T11:08:53Z</time>
      </trkpt>
      <trkpt lat="44.11176" lon="3.18577">
        <ele>762.5</ele>
        <time>2019-05-31T11:08:54Z</time>
      </trkpt>
      <trkpt lat="44.11179" lon="3.18581">
        <ele>762.5</ele>
        <time>2019-05-31T11:08:55Z</time>
      </trkpt>
      <trkpt lat="44.11183" lon="3.18585">
        <ele>762.6</ele>
        <time>2019-05-31T11:08:56Z</time>
      </trkpt>
      <trkpt lat="44.11186" lon="3.18588">
        <ele>762.6</ele>
        <time>2019-05-31T11:08:57Z</time>
      </trkpt>
      <trkpt lat="44.11188" lon="3.18592">
        <ele>762.5</ele>
        <time>2019-05-31T11:08:58Z</time>
      </trkpt>
      <trkpt lat="44.1119" lon="3.18594">
        <ele>762.5</ele>
        <time>2019-05-31T11:08:59Z</time>
      </trkpt>
      <trkpt lat="44.11193" lon="3.18596">
        <ele>762.5</ele>
        <time>2019-05-31T11:09:00Z</time>
      </trkpt>
      <trkpt lat="44.11196" lon="3.18599">
        <ele>762.5</ele>
        <time>2019-05-31T11:09:02Z</time>
      </trkpt>
      <trkpt lat="44.11198" lon="3.18601">
        <ele>762.5</ele>
        <time>2019-05-31T11:09:04Z</time>
      </trkpt>
      <trkpt lat="44.11202" lon="3.18598">
        <ele>762.4</ele>
        <time>2019-05-31T11:09:06Z</time>
      </trkpt>
      <trkpt lat="44.11205" lon="3.18596">
        <ele>762.4</ele>
        <time>2019-05-31T11:09:07Z</time>
      </trkpt>
      <trkpt lat="44.11211" lon="3.18594">
        <ele>762.4</ele>
        <time>2019-05-31T11:09:08Z</time>
      </trkpt>
      <trkpt lat="44.11215" lon="3.18592">
        <ele>762.5</ele>
        <time>2019-05-31T11:09:09Z</time>
      </trkpt>
      <trkpt lat="44.11219" lon="3.18591">
        <ele>762.5</ele>
        <time>2019-05-31T11:09:10Z</time>
      </trkpt>
      <trkpt lat="44.11222" lon="3.18591">
        <ele>762.5</ele>
        <time>2019-05-31T11:09:11Z</time>
      </trkpt>
      <trkpt lat="44.11226" lon="3.1859">
        <ele>762.6</ele>
        <time>2019-05-31T11:09:13Z</time>
      </trkpt>
      <trkpt lat="44.11229" lon="3.18589">
        <ele>762.6</ele>
        <time>2019-05-31T11:09:14Z</time>
      </trkpt>
      <trkpt lat="44.11232" lon="3.18589">
        <ele>762.7</ele>
        <time>2019-05-31T11:09:15Z</time>
      </trkpt>
      <trkpt lat="44.11237" lon="3.18587">
        <ele>762.8</ele>
        <time>2019-05-31T11:09:17Z</time>
      </trkpt>
      <trkpt lat="44.11242" lon="3.18586">
        <ele>762.9</ele>
        <time>2019-05-31T11:09:19Z</time>
      </trkpt>
      <trkpt lat="44.11246" lon="3.18584">
        <ele>763.1</ele>
        <time>2019-05-31T11:09:21Z</time>
      </trkpt>
      <trkpt lat="44.1125" lon="3.18584">
        <ele>763.2</ele>
        <time>2019-05-31T11:09:23Z</time>
      </trkpt>
      <trkpt lat="44.11253" lon="3.18583">
        <ele>763.3</ele>
        <time>2019-05-31T11:09:25Z</time>
      </trkpt>
      <trkpt lat="44.11257" lon="3.18581">
        <ele>763.4</ele>
        <time>2019-05-31T11:09:27Z</time>
      </trkpt>
      <trkpt lat="44.11261" lon="3.18578">
        <ele>763.6</ele>
        <time>2019-05-31T11:09:29Z</time>
      </trkpt>
      <trkpt lat="44.11266" lon="3.18579">
        <ele>763.7</ele>
        <time>2019-05-31T11:09:31Z</time>
      </trkpt>
      <trkpt lat="44.11269" lon="3.1858">
        <ele>763.9</ele>
        <time>2019-05-31T11:09:32Z</time>
      </trkpt>
      <trkpt lat="44.11272" lon="3.18581">
        <ele>764</ele>
        <time>2019-05-31T11:09:33Z</time>
      </trkpt>
      <trkpt lat="44.11277" lon="3.18581">
        <ele>764.3</ele>
        <time>2019-05-31T11:09:35Z</time>
      </trkpt>
      <trkpt lat="44.11281" lon="3.18581">
        <ele>764.5</ele>
        <time>2019-05-31T11:09:37Z</time>
      </trkpt>
      <trkpt lat="44.11285" lon="3.1858">
        <ele>764.8</ele>
        <time>2019-05-31T11:09:39Z</time>
      </trkpt>
      <trkpt lat="44.11289" lon="3.18579">
        <ele>765</ele>
        <time>2019-05-31T11:09:41Z</time>
      </trkpt>
      <trkpt lat="44.11293" lon="3.18576">
        <ele>765.2</ele>
        <time>2019-05-31T11:09:43Z</time>
      </trkpt>
      <trkpt lat="44.11296" lon="3.18574">
        <ele>765.4</ele>
        <time>2019-05-31T11:09:45Z</time>
      </trkpt>
      <trkpt lat="44.113" lon="3.18574">
        <ele>765.7</ele>
        <time>2019-05-31T11:09:47Z</time>
      </trkpt>
      <trkpt lat="44.11302" lon="3.18573">
        <ele>766</ele>
        <time>2019-05-31T11:09:49Z</time>
      </trkpt>
      <trkpt lat="44.11307" lon="3.18576">
        <ele>766.1</ele>
        <time>2019-05-31T11:09:51Z</time>
      </trkpt>
      <trkpt lat="44.1131" lon="3.18578">
        <ele>766.2</ele>
        <time>2019-05-31T11:09:53Z</time>
      </trkpt>
      <trkpt lat="44.11315" lon="3.18581">
        <ele>766.3</ele>
        <time>2019-05-31T11:09:55Z</time>
      </trkpt>
      <trkpt lat="44.11318" lon="3.18584">
        <ele>766.3</ele>
        <time>2019-05-31T11:09:56Z</time>
      </trkpt>
      <trkpt lat="44.11321" lon="3.18587">
        <ele>766.3</ele>
        <time>2019-05-31T11:09:58Z</time>
      </trkpt>
      <trkpt lat="44.11324" lon="3.18592">
        <ele>766.3</ele>
        <time>2019-05-31T11:10:00Z</time>
      </trkpt>
      <trkpt lat="44.11325" lon="3.18595">
        <ele>766.2</ele>
        <time>2019-05-31T11:10:08Z</time>
      </trkpt>
      <trkpt lat="44.11325" lon="3.18597">
        <ele>766.2</ele>
        <time>2019-05-31T11:10:50Z</time>
      </trkpt>
      <trkpt lat="44.11326" lon="3.18599">
        <ele>766.2</ele>
        <time>2019-05-31T11:11:24Z</time>
      </trkpt>
      <trkpt lat="44.11327" lon="3.18601">
        <ele>766.1</ele>
        <time>2019-05-31T11:11:25Z</time>
      </trkpt>
      <trkpt lat="44.11324" lon="3.18606">
        <ele>766</ele>
        <time>2019-05-31T11:11:26Z</time>
      </trkpt>
      <trkpt lat="44.11321" lon="3.1861">
        <ele>766</ele>
        <time>2019-05-31T11:11:27Z</time>
      </trkpt>
      <trkpt lat="44.1132" lon="3.18615">
        <ele>766.1</ele>
        <time>2019-05-31T11:11:28Z</time>
      </trkpt>
      <trkpt lat="44.11319" lon="3.1862">
        <ele>766.2</ele>
        <time>2019-05-31T11:11:29Z</time>
      </trkpt>
      <trkpt lat="44.1132" lon="3.18626">
        <ele>766.4</ele>
        <time>2019-05-31T11:11:30Z</time>
      </trkpt>
      <trkpt lat="44.11322" lon="3.1863">
        <ele>766.6</ele>
        <time>2019-05-31T11:11:31Z</time>
      </trkpt>
      <trkpt lat="44.11324" lon="3.18633">
        <ele>766.8</ele>
        <time>2019-05-31T11:11:32Z</time>
      </trkpt>
      <trkpt lat="44.11328" lon="3.18637">
        <ele>767.1</ele>
        <time>2019-05-31T11:11:34Z</time>
      </trkpt>
      <trkpt lat="44.1133" lon="3.18639">
        <ele>767.3</ele>
        <time>2019-05-31T11:11:35Z</time>
      </trkpt>
      <trkpt lat="44.11333" lon="3.18641">
        <ele>767.4</ele>
        <time>2019-05-31T11:11:36Z</time>
      </trkpt>
      <trkpt lat="44.11335" lon="3.18646">
        <ele>767.7</ele>
        <time>2019-05-31T11:11:38Z</time>
      </trkpt>
      <trkpt lat="44.11337" lon="3.18652">
        <ele>768</ele>
        <time>2019-05-31T11:11:40Z</time>
      </trkpt>
      <trkpt lat="44.1134" lon="3.18658">
        <ele>768.6</ele>
        <time>2019-05-31T11:11:42Z</time>
      </trkpt>
      <trkpt lat="44.11342" lon="3.1866">
        <ele>768.8</ele>
        <time>2019-05-31T11:11:43Z</time>
      </trkpt>
      <trkpt lat="44.11348" lon="3.18664">
        <ele>769.2</ele>
        <time>2019-05-31T11:11:45Z</time>
      </trkpt>
      <trkpt lat="44.11351" lon="3.18666">
        <ele>769.5</ele>
        <time>2019-05-31T11:11:46Z</time>
      </trkpt>
      <trkpt lat="44.11354" lon="3.18668">
        <ele>769.7</ele>
        <time>2019-05-31T11:11:47Z</time>
      </trkpt>
      <trkpt lat="44.11358" lon="3.1867">
        <ele>770.1</ele>
        <time>2019-05-31T11:11:48Z</time>
      </trkpt>
      <trkpt lat="44.11361" lon="3.18672">
        <ele>770.4</ele>
        <time>2019-05-31T11:11:49Z</time>
      </trkpt>
      <trkpt lat="44.11365" lon="3.18675">
        <ele>771.1</ele>
        <time>2019-05-31T11:11:50Z</time>
      </trkpt>
      <trkpt lat="44.1137" lon="3.18676">
        <ele>771.6</ele>
        <time>2019-05-31T11:11:51Z</time>
      </trkpt>
      <trkpt lat="44.11373" lon="3.18678">
        <ele>772</ele>
        <time>2019-05-31T11:11:52Z</time>
      </trkpt>
      <trkpt lat="44.11377" lon="3.1868">
        <ele>772.4</ele>
        <time>2019-05-31T11:11:54Z</time>
      </trkpt>
      <trkpt lat="44.11382" lon="3.18679">
        <ele>773.2</ele>
        <time>2019-05-31T11:11:56Z</time>
      </trkpt>
      <trkpt lat="44.11386" lon="3.18677">
        <ele>774</ele>
        <time>2019-05-31T11:11:58Z</time>
      </trkpt>
      <trkpt lat="44.11391" lon="3.18674">
        <ele>774.9</ele>
        <time>2019-05-31T11:12:00Z</time>
      </trkpt>
      <trkpt lat="44.11393" lon="3.18668">
        <ele>775.6</ele>
        <time>2019-05-31T11:12:02Z</time>
      </trkpt>
      <trkpt lat="44.11391" lon="3.18662">
        <ele>776.5</ele>
        <time>2019-05-31T11:12:04Z</time>
      </trkpt>
      <trkpt lat="44.11393" lon="3.18659">
        <ele>777.2</ele>
        <time>2019-05-31T11:12:15Z</time>
      </trkpt>
      <trkpt lat="44.11396" lon="3.18655">
        <ele>777.9</ele>
        <time>2019-05-31T11:12:18Z</time>
      </trkpt>
      <trkpt lat="44.11398" lon="3.18653">
        <ele>778.5</ele>
        <time>2019-05-31T11:12:20Z</time>
      </trkpt>
      <trkpt lat="44.11401" lon="3.1865">
        <ele>779.2</ele>
        <time>2019-05-31T11:12:22Z</time>
      </trkpt>
      <trkpt lat="44.11405" lon="3.18649">
        <ele>780</ele>
        <time>2019-05-31T11:12:24Z</time>
      </trkpt>
      <trkpt lat="44.11409" lon="3.18651">
        <ele>780.9</ele>
        <time>2019-05-31T11:12:26Z</time>
      </trkpt>
      <trkpt lat="44.11412" lon="3.18652">
        <ele>781.3</ele>
        <time>2019-05-31T11:12:27Z</time>
      </trkpt>
      <trkpt lat="44.11415" lon="3.18654">
        <ele>781.8</ele>
        <time>2019-05-31T11:12:28Z</time>
      </trkpt>
      <trkpt lat="44.11418" lon="3.18657">
        <ele>782.3</ele>
        <time>2019-05-31T11:12:29Z</time>
      </trkpt>
      <trkpt lat="44.11422" lon="3.18662">
        <ele>783.3</ele>
        <time>2019-05-31T11:12:30Z</time>
      </trkpt>
      <trkpt lat="44.11426" lon="3.18665">
        <ele>784.1</ele>
        <time>2019-05-31T11:12:31Z</time>
      </trkpt>
      <trkpt lat="44.11427" lon="3.18671">
        <ele>785</ele>
        <time>2019-05-31T11:12:32Z</time>
      </trkpt>
      <trkpt lat="44.11431" lon="3.18669">
        <ele>786</ele>
        <time>2019-05-31T11:12:33Z</time>
      </trkpt>
      <trkpt lat="44.11434" lon="3.1867">
        <ele>786.4</ele>
        <time>2019-05-31T11:12:35Z</time>
      </trkpt>
      <trkpt lat="44.11437" lon="3.18671">
        <ele>786.8</ele>
        <time>2019-05-31T11:12:37Z</time>
      </trkpt>
      <trkpt lat="44.11442" lon="3.18674">
        <ele>787.5</ele>
        <time>2019-05-31T11:12:39Z</time>
      </trkpt>
      <trkpt lat="44.11446" lon="3.18676">
        <ele>788.2</ele>
        <time>2019-05-31T11:12:41Z</time>
      </trkpt>
      <trkpt lat="44.1145" lon="3.18678">
        <ele>788.9</ele>
        <time>2019-05-31T11:12:43Z</time>
      </trkpt>
      <trkpt lat="44.11455" lon="3.18678">
        <ele>789.7</ele>
        <time>2019-05-31T11:12:45Z</time>
      </trkpt>
      <trkpt lat="44.11458" lon="3.18678">
        <ele>790.2</ele>
        <time>2019-05-31T11:12:46Z</time>
      </trkpt>
      <trkpt lat="44.11461" lon="3.18679">
        <ele>790.7</ele>
        <time>2019-05-31T11:12:47Z</time>
      </trkpt>
      <trkpt lat="44.11465" lon="3.18681">
        <ele>791.2</ele>
        <time>2019-05-31T11:12:49Z</time>
      </trkpt>
      <trkpt lat="44.1147" lon="3.18684">
        <ele>791.7</ele>
        <time>2019-05-31T11:12:51Z</time>
      </trkpt>
      <trkpt lat="44.11473" lon="3.18686">
        <ele>792</ele>
        <time>2019-05-31T11:12:52Z</time>
      </trkpt>
      <trkpt lat="44.11474" lon="3.18692">
        <ele>792.2</ele>
        <time>2019-05-31T11:12:54Z</time>
      </trkpt>
      <trkpt lat="44.11471" lon="3.18697">
        <ele>792.2</ele>
        <time>2019-05-31T11:12:56Z</time>
      </trkpt>
      <trkpt lat="44.1147" lon="3.18701">
        <ele>792.3</ele>
        <time>2019-05-31T11:12:58Z</time>
      </trkpt>
      <trkpt lat="44.11468" lon="3.18705">
        <ele>792.2</ele>
        <time>2019-05-31T11:13:00Z</time>
      </trkpt>
      <trkpt lat="44.11465" lon="3.18711">
        <ele>792</ele>
        <time>2019-05-31T11:13:02Z</time>
      </trkpt>
      <trkpt lat="44.11465" lon="3.18722">
        <ele>791.4</ele>
        <time>2019-05-31T11:13:03Z</time>
      </trkpt>
      <trkpt lat="44.11467" lon="3.18729">
        <ele>791.2</ele>
        <time>2019-05-31T11:13:04Z</time>
      </trkpt>
      <trkpt lat="44.1147" lon="3.18737">
        <ele>790.9</ele>
        <time>2019-05-31T11:13:05Z</time>
      </trkpt>
      <trkpt lat="44.11472" lon="3.18743">
        <ele>790.7</ele>
        <time>2019-05-31T11:13:06Z</time>
      </trkpt>
      <trkpt lat="44.11476" lon="3.18748">
        <ele>790.6</ele>
        <time>2019-05-31T11:13:07Z</time>
      </trkpt>
      <trkpt lat="44.11478" lon="3.18753">
        <ele>790.5</ele>
        <time>2019-05-31T11:13:08Z</time>
      </trkpt>
      <trkpt lat="44.11486" lon="3.18754">
        <ele>790.5</ele>
        <time>2019-05-31T11:13:09Z</time>
      </trkpt>
      <trkpt lat="44.11489" lon="3.18758">
        <ele>790.5</ele>
        <time>2019-05-31T11:13:10Z</time>
      </trkpt>
      <trkpt lat="44.11495" lon="3.18755">
        <ele>790.6</ele>
        <time>2019-05-31T11:13:12Z</time>
      </trkpt>
      <trkpt lat="44.11498" lon="3.18749">
        <ele>790.8</ele>
        <time>2019-05-31T11:13:13Z</time>
      </trkpt>
      <trkpt lat="44.115" lon="3.18747">
        <ele>790.9</ele>
        <time>2019-05-31T11:13:14Z</time>
      </trkpt>
      <trkpt lat="44.11505" lon="3.18746">
        <ele>791.2</ele>
        <time>2019-05-31T11:13:16Z</time>
      </trkpt>
      <trkpt lat="44.11509" lon="3.18745">
        <ele>791.5</ele>
        <time>2019-05-31T11:13:17Z</time>
      </trkpt>
      <trkpt lat="44.11513" lon="3.18742">
        <ele>791.8</ele>
        <time>2019-05-31T11:13:19Z</time>
      </trkpt>
      <trkpt lat="44.11517" lon="3.18743">
        <ele>792.3</ele>
        <time>2019-05-31T11:13:21Z</time>
      </trkpt>
      <trkpt lat="44.11522" lon="3.18744">
        <ele>792.8</ele>
        <time>2019-05-31T11:13:23Z</time>
      </trkpt>
      <trkpt lat="44.11524" lon="3.18743">
        <ele>793.3</ele>
        <time>2019-05-31T11:13:27Z</time>
      </trkpt>
      <trkpt lat="44.11527" lon="3.18742">
        <ele>793.7</ele>
        <time>2019-05-31T11:13:32Z</time>
      </trkpt>
      <trkpt lat="44.11529" lon="3.1874">
        <ele>794.2</ele>
        <time>2019-05-31T11:14:19Z</time>
      </trkpt>
      <trkpt lat="44.1153" lon="3.18736">
        <ele>794.6</ele>
        <time>2019-05-31T11:14:25Z</time>
      </trkpt>
      <trkpt lat="44.1153" lon="3.1874">
        <ele>795</ele>
        <time>2019-05-31T11:14:44Z</time>
      </trkpt>
      <trkpt lat="44.11527" lon="3.18737">
        <ele>795.5</ele>
        <time>2019-05-31T11:16:57Z</time>
      </trkpt>
      <trkpt lat="44.11529" lon="3.18737">
        <ele>795.9</ele>
        <time>2019-05-31T11:17:11Z</time>
      </trkpt>
      <trkpt lat="44.11529" lon="3.18746">
        <ele>796.9</ele>
        <time>2019-05-31T11:19:17Z</time>
      </trkpt>
      <trkpt lat="44.1153" lon="3.18752">
        <ele>797.5</ele>
        <time>2019-05-31T11:19:19Z</time>
      </trkpt>
      <trkpt lat="44.11533" lon="3.18757">
        <ele>798.2</ele>
        <time>2019-05-31T11:19:21Z</time>
      </trkpt>
      <trkpt lat="44.11533" lon="3.18763">
        <ele>798.8</ele>
        <time>2019-05-31T11:19:23Z</time>
      </trkpt>
      <trkpt lat="44.11531" lon="3.18766">
        <ele>799.3</ele>
        <time>2019-05-31T11:19:25Z</time>
      </trkpt>
      <trkpt lat="44.11528" lon="3.18768">
        <ele>799.8</ele>
        <time>2019-05-31T11:19:27Z</time>
      </trkpt>
      <trkpt lat="44.11526" lon="3.18772">
        <ele>800.4</ele>
        <time>2019-05-31T11:19:29Z</time>
      </trkpt>
      <trkpt lat="44.11527" lon="3.18778">
        <ele>801.2</ele>
        <time>2019-05-31T11:19:31Z</time>
      </trkpt>
      <trkpt lat="44.11527" lon="3.18785">
        <ele>801.9</ele>
        <time>2019-05-31T11:19:33Z</time>
      </trkpt>
      <trkpt lat="44.11527" lon="3.1879">
        <ele>802.5</ele>
        <time>2019-05-31T11:19:35Z</time>
      </trkpt>
      <trkpt lat="44.11526" lon="3.18794">
        <ele>803</ele>
        <time>2019-05-31T11:19:38Z</time>
      </trkpt>
      <trkpt lat="44.11524" lon="3.18798">
        <ele>803.5</ele>
        <time>2019-05-31T11:19:40Z</time>
      </trkpt>
      <trkpt lat="44.11521" lon="3.18801">
        <ele>803.9</ele>
        <time>2019-05-31T11:19:41Z</time>
      </trkpt>
      <trkpt lat="44.11515" lon="3.18806">
        <ele>804.8</ele>
        <time>2019-05-31T11:19:42Z</time>
      </trkpt>
      <trkpt lat="44.11505" lon="3.18806">
        <ele>805.8</ele>
        <time>2019-05-31T11:19:43Z</time>
      </trkpt>
      <trkpt lat="44.11499" lon="3.18808">
        <ele>806.5</ele>
        <time>2019-05-31T11:19:45Z</time>
      </trkpt>
      <trkpt lat="44.11495" lon="3.1881">
        <ele>807.1</ele>
        <time>2019-05-31T11:19:46Z</time>
      </trkpt>
      <trkpt lat="44.11491" lon="3.18811">
        <ele>807.9</ele>
        <time>2019-05-31T11:19:47Z</time>
      </trkpt>
      <trkpt lat="44.11487" lon="3.18811">
        <ele>808.4</ele>
        <time>2019-05-31T11:19:48Z</time>
      </trkpt>
      <trkpt lat="44.11484" lon="3.18814">
        <ele>809</ele>
        <time>2019-05-31T11:19:50Z</time>
      </trkpt>
      <trkpt lat="44.11482" lon="3.18822">
        <ele>809.9</ele>
        <time>2019-05-31T11:19:51Z</time>
      </trkpt>
      <trkpt lat="44.1148" lon="3.18825">
        <ele>810.5</ele>
        <time>2019-05-31T11:19:52Z</time>
      </trkpt>
      <trkpt lat="44.11481" lon="3.1883">
        <ele>811</ele>
        <time>2019-05-31T11:19:53Z</time>
      </trkpt>
      <trkpt lat="44.11477" lon="3.18834">
        <ele>811.5</ele>
        <time>2019-05-31T11:19:54Z</time>
      </trkpt>
      <trkpt lat="44.11475" lon="3.18838">
        <ele>811.8</ele>
        <time>2019-05-31T11:19:55Z</time>
      </trkpt>
      <trkpt lat="44.11472" lon="3.18841">
        <ele>812</ele>
        <time>2019-05-31T11:19:57Z</time>
      </trkpt>
      <trkpt lat="44.11469" lon="3.18843">
        <ele>812.1</ele>
        <time>2019-05-31T11:19:58Z</time>
      </trkpt>
      <trkpt lat="44.11466" lon="3.18845">
        <ele>812.1</ele>
        <time>2019-05-31T11:19:59Z</time>
      </trkpt>
      <trkpt lat="44.11461" lon="3.18848">
        <ele>812</ele>
        <time>2019-05-31T11:20:00Z</time>
      </trkpt>
      <trkpt lat="44.11458" lon="3.1885">
        <ele>811.8</ele>
        <time>2019-05-31T11:20:01Z</time>
      </trkpt>
      <trkpt lat="44.11454" lon="3.18852">
        <ele>811.4</ele>
        <time>2019-05-31T11:20:03Z</time>
      </trkpt>
      <trkpt lat="44.11452" lon="3.18854">
        <ele>811</ele>
        <time>2019-05-31T11:20:05Z</time>
      </trkpt>
      <trkpt lat="44.11453" lon="3.18857">
        <ele>810.5</ele>
        <time>2019-05-31T11:20:10Z</time>
      </trkpt>
      <trkpt lat="44.11453" lon="3.18862">
        <ele>809.8</ele>
        <time>2019-05-31T11:20:12Z</time>
      </trkpt>
      <trkpt lat="44.11452" lon="3.18866">
        <ele>809.2</ele>
        <time>2019-05-31T11:20:13Z</time>
      </trkpt>
      <trkpt lat="44.11449" lon="3.18871">
        <ele>808.1</ele>
        <time>2019-05-31T11:20:14Z</time>
      </trkpt>
      <trkpt lat="44.11447" lon="3.18876">
        <ele>806.9</ele>
        <time>2019-05-31T11:20:16Z</time>
      </trkpt>
      <trkpt lat="44.11445" lon="3.1888">
        <ele>806.2</ele>
        <time>2019-05-31T11:20:17Z</time>
      </trkpt>
      <trkpt lat="44.11444" lon="3.18884">
        <ele>805.4</ele>
        <time>2019-05-31T11:20:18Z</time>
      </trkpt>
      <trkpt lat="44.11443" lon="3.18888">
        <ele>804.7</ele>
        <time>2019-05-31T11:20:19Z</time>
      </trkpt>
      <trkpt lat="44.11443" lon="3.18893">
        <ele>804</ele>
        <time>2019-05-31T11:20:20Z</time>
      </trkpt>
      <trkpt lat="44.11442" lon="3.18896">
        <ele>803.3</ele>
        <time>2019-05-31T11:20:21Z</time>
      </trkpt>
      <trkpt lat="44.11443" lon="3.18901">
        <ele>802.4</ele>
        <time>2019-05-31T11:20:22Z</time>
      </trkpt>
      <trkpt lat="44.11445" lon="3.18904">
        <ele>801.5</ele>
        <time>2019-05-31T11:20:23Z</time>
      </trkpt>
      <trkpt lat="44.11447" lon="3.18908">
        <ele>801.2</ele>
        <time>2019-05-31T11:20:24Z</time>
      </trkpt>
      <trkpt lat="44.11449" lon="3.18912">
        <ele>801.7</ele>
        <time>2019-05-31T11:20:25Z</time>
      </trkpt>
      <trkpt lat="44.11453" lon="3.18916">
        <ele>802.2</ele>
        <time>2019-05-31T11:20:26Z</time>
      </trkpt>
      <trkpt lat="44.11456" lon="3.1892">
        <ele>802.7</ele>
        <time>2019-05-31T11:20:27Z</time>
      </trkpt>
      <trkpt lat="44.11459" lon="3.18923">
        <ele>803.1</ele>
        <time>2019-05-31T11:20:28Z</time>
      </trkpt>
      <trkpt lat="44.11463" lon="3.18924">
        <ele>803.5</ele>
        <time>2019-05-31T11:20:29Z</time>
      </trkpt>
      <trkpt lat="44.11466" lon="3.18926">
        <ele>803.8</ele>
        <time>2019-05-31T11:20:30Z</time>
      </trkpt>
      <trkpt lat="44.1147" lon="3.1893">
        <ele>804.1</ele>
        <time>2019-05-31T11:20:32Z</time>
      </trkpt>
      <trkpt lat="44.11471" lon="3.18933">
        <ele>804.3</ele>
        <time>2019-05-31T11:20:33Z</time>
      </trkpt>
      <trkpt lat="44.11472" lon="3.18937">
        <ele>804.4</ele>
        <time>2019-05-31T11:20:34Z</time>
      </trkpt>
      <trkpt lat="44.11473" lon="3.18941">
        <ele>804.5</ele>
        <time>2019-05-31T11:20:35Z</time>
      </trkpt>
      <trkpt lat="44.11474" lon="3.18945">
        <ele>804.6</ele>
        <time>2019-05-31T11:20:36Z</time>
      </trkpt>
      <trkpt lat="44.11475" lon="3.18949">
        <ele>804.6</ele>
        <time>2019-05-31T11:20:37Z</time>
      </trkpt>
      <trkpt lat="44.11477" lon="3.18952">
        <ele>804.7</ele>
        <time>2019-05-31T11:20:38Z</time>
      </trkpt>
      <trkpt lat="44.11481" lon="3.18957">
        <ele>804.8</ele>
        <time>2019-05-31T11:20:40Z</time>
      </trkpt>
      <trkpt lat="44.11483" lon="3.1896">
        <ele>804.8</ele>
        <time>2019-05-31T11:20:41Z</time>
      </trkpt>
      <trkpt lat="44.11485" lon="3.18963">
        <ele>804.8</ele>
        <time>2019-05-31T11:20:42Z</time>
      </trkpt>
      <trkpt lat="44.11485" lon="3.18969">
        <ele>804.8</ele>
        <time>2019-05-31T11:20:44Z</time>
      </trkpt>
      <trkpt lat="44.11483" lon="3.18973">
        <ele>804.7</ele>
        <time>2019-05-31T11:20:46Z</time>
      </trkpt>
      <trkpt lat="44.1148" lon="3.18975">
        <ele>804.7</ele>
        <time>2019-05-31T11:20:47Z</time>
      </trkpt>
      <trkpt lat="44.11479" lon="3.1898">
        <ele>804.6</ele>
        <time>2019-05-31T11:20:49Z</time>
      </trkpt>
      <trkpt lat="44.11481" lon="3.18986">
        <ele>804.5</ele>
        <time>2019-05-31T11:20:51Z</time>
      </trkpt>
      <trkpt lat="44.11483" lon="3.18989">
        <ele>804.4</ele>
        <time>2019-05-31T11:20:52Z</time>
      </trkpt>
      <trkpt lat="44.11486" lon="3.18995">
        <ele>804.3</ele>
        <time>2019-05-31T11:20:54Z</time>
      </trkpt>
      <trkpt lat="44.11487" lon="3.18999">
        <ele>804.2</ele>
        <time>2019-05-31T11:20:55Z</time>
      </trkpt>
      <trkpt lat="44.11489" lon="3.19004">
        <ele>804.1</ele>
        <time>2019-05-31T11:20:57Z</time>
      </trkpt>
      <trkpt lat="44.11489" lon="3.1901">
        <ele>803.9</ele>
        <time>2019-05-31T11:20:59Z</time>
      </trkpt>
      <trkpt lat="44.11487" lon="3.19017">
        <ele>803.7</ele>
        <time>2019-05-31T11:21:01Z</time>
      </trkpt>
      <trkpt lat="44.11485" lon="3.1902">
        <ele>803.6</ele>
        <time>2019-05-31T11:21:02Z</time>
      </trkpt>
      <trkpt lat="44.11482" lon="3.19026">
        <ele>803.3</ele>
        <time>2019-05-31T11:21:04Z</time>
      </trkpt>
      <trkpt lat="44.1148" lon="3.19029">
        <ele>803.2</ele>
        <time>2019-05-31T11:21:05Z</time>
      </trkpt>
      <trkpt lat="44.11478" lon="3.19031">
        <ele>803</ele>
        <time>2019-05-31T11:21:06Z</time>
      </trkpt>
      <trkpt lat="44.11473" lon="3.19033">
        <ele>802.6</ele>
        <time>2019-05-31T11:21:08Z</time>
      </trkpt>
      <trkpt lat="44.1147" lon="3.19034">
        <ele>802.4</ele>
        <time>2019-05-31T11:21:09Z</time>
      </trkpt>
      <trkpt lat="44.11467" lon="3.19036">
        <ele>802.1</ele>
        <time>2019-05-31T11:21:10Z</time>
      </trkpt>
      <trkpt lat="44.11464" lon="3.19038">
        <ele>801.9</ele>
        <time>2019-05-31T11:21:11Z</time>
      </trkpt>
      <trkpt lat="44.1146" lon="3.1904">
        <ele>801.5</ele>
        <time>2019-05-31T11:21:12Z</time>
      </trkpt>
      <trkpt lat="44.11456" lon="3.19042">
        <ele>801.1</ele>
        <time>2019-05-31T11:21:13Z</time>
      </trkpt>
      <trkpt lat="44.11453" lon="3.19044">
        <ele>800.8</ele>
        <time>2019-05-31T11:21:14Z</time>
      </trkpt>
      <trkpt lat="44.11451" lon="3.19049">
        <ele>800.4</ele>
        <time>2019-05-31T11:21:16Z</time>
      </trkpt>
      <trkpt lat="44.11451" lon="3.19053">
        <ele>800.2</ele>
        <time>2019-05-31T11:21:18Z</time>
      </trkpt>
      <trkpt lat="44.11451" lon="3.19057">
        <ele>800</ele>
        <time>2019-05-31T11:21:20Z</time>
      </trkpt>
      <trkpt lat="44.11448" lon="3.1906">
        <ele>799.8</ele>
        <time>2019-05-31T11:21:22Z</time>
      </trkpt>
      <trkpt lat="44.11443" lon="3.19063">
        <ele>799.5</ele>
        <time>2019-05-31T11:21:24Z</time>
      </trkpt>
      <trkpt lat="44.1144" lon="3.19065">
        <ele>799.4</ele>
        <time>2019-05-31T11:21:25Z</time>
      </trkpt>
      <trkpt lat="44.11437" lon="3.19066">
        <ele>799.2</ele>
        <time>2019-05-31T11:21:27Z</time>
      </trkpt>
      <trkpt lat="44.11434" lon="3.19067">
        <ele>799.1</ele>
        <time>2019-05-31T11:21:29Z</time>
      </trkpt>
      <trkpt lat="44.1143" lon="3.1907">
        <ele>799</ele>
        <time>2019-05-31T11:21:31Z</time>
      </trkpt>
      <trkpt lat="44.11428" lon="3.19074">
        <ele>798.8</ele>
        <time>2019-05-31T11:21:34Z</time>
      </trkpt>
      <trkpt lat="44.11425" lon="3.19075">
        <ele>798.7</ele>
        <time>2019-05-31T11:21:38Z</time>
      </trkpt>
      <trkpt lat="44.11423" lon="3.19078">
        <ele>798.6</ele>
        <time>2019-05-31T11:21:42Z</time>
      </trkpt>
      <trkpt lat="44.11421" lon="3.19082">
        <ele>798.5</ele>
        <time>2019-05-31T11:21:47Z</time>
      </trkpt>
      <trkpt lat="44.11421" lon="3.19086">
        <ele>798.4</ele>
        <time>2019-05-31T11:21:50Z</time>
      </trkpt>
      <trkpt lat="44.1142" lon="3.19089">
        <ele>798.3</ele>
        <time>2019-05-31T11:21:52Z</time>
      </trkpt>
      <trkpt lat="44.11419" lon="3.19094">
        <ele>798.3</ele>
        <time>2019-05-31T11:21:54Z</time>
      </trkpt>
      <trkpt lat="44.11418" lon="3.19097">
        <ele>798.2</ele>
        <time>2019-05-31T11:21:56Z</time>
      </trkpt>
      <trkpt lat="44.11416" lon="3.19105">
        <ele>798.1</ele>
        <time>2019-05-31T11:22:07Z</time>
      </trkpt>
      <trkpt lat="44.11417" lon="3.1911">
        <ele>798</ele>
        <time>2019-05-31T11:22:09Z</time>
      </trkpt>
      <trkpt lat="44.11418" lon="3.19114">
        <ele>798</ele>
        <time>2019-05-31T11:22:10Z</time>
      </trkpt>
      <trkpt lat="44.11419" lon="3.19119">
        <ele>797.9</ele>
        <time>2019-05-31T11:22:11Z</time>
      </trkpt>
      <trkpt lat="44.1142" lon="3.19124">
        <ele>797.7</ele>
        <time>2019-05-31T11:22:12Z</time>
      </trkpt>
      <trkpt lat="44.11419" lon="3.19129">
        <ele>797.6</ele>
        <time>2019-05-31T11:22:13Z</time>
      </trkpt>
      <trkpt lat="44.11417" lon="3.19135">
        <ele>797.3</ele>
        <time>2019-05-31T11:22:14Z</time>
      </trkpt>
      <trkpt lat="44.11415" lon="3.19139">
        <ele>797.1</ele>
        <time>2019-05-31T11:22:15Z</time>
      </trkpt>
      <trkpt lat="44.11412" lon="3.19142">
        <ele>797</ele>
        <time>2019-05-31T11:22:16Z</time>
      </trkpt>
      <trkpt lat="44.11407" lon="3.19144">
        <ele>796.7</ele>
        <time>2019-05-31T11:22:18Z</time>
      </trkpt>
      <trkpt lat="44.11402" lon="3.19142">
        <ele>796.4</ele>
        <time>2019-05-31T11:22:20Z</time>
      </trkpt>
      <trkpt lat="44.114" lon="3.19141">
        <ele>796.3</ele>
        <time>2019-05-31T11:22:21Z</time>
      </trkpt>
      <trkpt lat="44.11394" lon="3.19141">
        <ele>796</ele>
        <time>2019-05-31T11:22:23Z</time>
      </trkpt>
      <trkpt lat="44.11391" lon="3.19143">
        <ele>795.9</ele>
        <time>2019-05-31T11:22:24Z</time>
      </trkpt>
      <trkpt lat="44.11388" lon="3.19145">
        <ele>795.6</ele>
        <time>2019-05-31T11:22:26Z</time>
      </trkpt>
      <trkpt lat="44.11385" lon="3.19146">
        <ele>795.5</ele>
        <time>2019-05-31T11:22:28Z</time>
      </trkpt>
      <trkpt lat="44.11378" lon="3.19148">
        <ele>795.1</ele>
        <time>2019-05-31T11:23:14Z</time>
      </trkpt>
      <trkpt lat="44.11376" lon="3.19151">
        <ele>795</ele>
        <time>2019-05-31T11:23:17Z</time>
      </trkpt>
      <trkpt lat="44.11374" lon="3.19154">
        <ele>794.9</ele>
        <time>2019-05-31T11:23:21Z</time>
      </trkpt>
      <trkpt lat="44.1137" lon="3.19157">
        <ele>794.9</ele>
        <time>2019-05-31T11:23:23Z</time>
      </trkpt>
      <trkpt lat="44.11368" lon="3.19159">
        <ele>794.9</ele>
        <time>2019-05-31T11:23:24Z</time>
      </trkpt>
      <trkpt lat="44.11364" lon="3.19163">
        <ele>795.1</ele>
        <time>2019-05-31T11:23:26Z</time>
      </trkpt>
      <trkpt lat="44.11361" lon="3.19165">
        <ele>795.3</ele>
        <time>2019-05-31T11:23:27Z</time>
      </trkpt>
      <trkpt lat="44.11357" lon="3.19166">
        <ele>795.7</ele>
        <time>2019-05-31T11:23:29Z</time>
      </trkpt>
      <trkpt lat="44.11354" lon="3.19167">
        <ele>796</ele>
        <time>2019-05-31T11:23:31Z</time>
      </trkpt>
      <trkpt lat="44.1135" lon="3.19173">
        <ele>796.7</ele>
        <time>2019-05-31T11:23:43Z</time>
      </trkpt>
      <trkpt lat="44.11348" lon="3.19177">
        <ele>797</ele>
        <time>2019-05-31T11:23:44Z</time>
      </trkpt>
      <trkpt lat="44.11346" lon="3.1918">
        <ele>797.2</ele>
        <time>2019-05-31T11:23:45Z</time>
      </trkpt>
      <trkpt lat="44.11345" lon="3.19184">
        <ele>797.3</ele>
        <time>2019-05-31T11:23:46Z</time>
      </trkpt>
      <trkpt lat="44.11342" lon="3.1919">
        <ele>797.4</ele>
        <time>2019-05-31T11:23:48Z</time>
      </trkpt>
      <trkpt lat="44.11338" lon="3.19194">
        <ele>797.5</ele>
        <time>2019-05-31T11:23:50Z</time>
      </trkpt>
      <trkpt lat="44.11334" lon="3.19195">
        <ele>797.4</ele>
        <time>2019-05-31T11:23:52Z</time>
      </trkpt>
      <trkpt lat="44.11331" lon="3.19198">
        <ele>797.1</ele>
        <time>2019-05-31T11:24:11Z</time>
      </trkpt>
      <trkpt lat="44.11328" lon="3.192">
        <ele>796.8</ele>
        <time>2019-05-31T11:24:12Z</time>
      </trkpt>
      <trkpt lat="44.11326" lon="3.19202">
        <ele>796.5</ele>
        <time>2019-05-31T11:24:13Z</time>
      </trkpt>
      <trkpt lat="44.11323" lon="3.19204">
        <ele>796</ele>
        <time>2019-05-31T11:24:15Z</time>
      </trkpt>
      <trkpt lat="44.1132" lon="3.19208">
        <ele>795.2</ele>
        <time>2019-05-31T11:24:17Z</time>
      </trkpt>
      <trkpt lat="44.11318" lon="3.19211">
        <ele>794.7</ele>
        <time>2019-05-31T11:24:18Z</time>
      </trkpt>
      <trkpt lat="44.11315" lon="3.19214">
        <ele>794.1</ele>
        <time>2019-05-31T11:24:19Z</time>
      </trkpt>
      <trkpt lat="44.11311" lon="3.19217">
        <ele>793.4</ele>
        <time>2019-05-31T11:24:20Z</time>
      </trkpt>
      <trkpt lat="44.11309" lon="3.19219">
        <ele>792.9</ele>
        <time>2019-05-31T11:24:21Z</time>
      </trkpt>
      <trkpt lat="44.11306" lon="3.19222">
        <ele>792.2</ele>
        <time>2019-05-31T11:24:23Z</time>
      </trkpt>
      <trkpt lat="44.11305" lon="3.19228">
        <ele>791.2</ele>
        <time>2019-05-31T11:24:25Z</time>
      </trkpt>
      <trkpt lat="44.11303" lon="3.19231">
        <ele>790.6</ele>
        <time>2019-05-31T11:24:26Z</time>
      </trkpt>
      <trkpt lat="44.11301" lon="3.19239">
        <ele>788.9</ele>
        <time>2019-05-31T11:24:28Z</time>
      </trkpt>
      <trkpt lat="44.11301" lon="3.19244">
        <ele>787.6</ele>
        <time>2019-05-31T11:24:29Z</time>
      </trkpt>
      <trkpt lat="44.11301" lon="3.19249">
        <ele>786.1</ele>
        <time>2019-05-31T11:24:30Z</time>
      </trkpt>
      <trkpt lat="44.11301" lon="3.19253">
        <ele>784.8</ele>
        <time>2019-05-31T11:24:31Z</time>
      </trkpt>
      <trkpt lat="44.11301" lon="3.1926">
        <ele>782.5</ele>
        <time>2019-05-31T11:24:33Z</time>
      </trkpt>
      <trkpt lat="44.11302" lon="3.19266">
        <ele>780.2</ele>
        <time>2019-05-31T11:24:35Z</time>
      </trkpt>
      <trkpt lat="44.11302" lon="3.19271">
        <ele>778.7</ele>
        <time>2019-05-31T11:24:36Z</time>
      </trkpt>
      <trkpt lat="44.11302" lon="3.19277">
        <ele>776.5</ele>
        <time>2019-05-31T11:24:37Z</time>
      </trkpt>
      <trkpt lat="44.11301" lon="3.19284">
        <ele>774.1</ele>
        <time>2019-05-31T11:24:38Z</time>
      </trkpt>
      <trkpt lat="44.11301" lon="3.19291">
        <ele>771.7</ele>
        <time>2019-05-31T11:24:39Z</time>
      </trkpt>
      <trkpt lat="44.11303" lon="3.19298">
        <ele>769.4</ele>
        <time>2019-05-31T11:24:40Z</time>
      </trkpt>
      <trkpt lat="44.11305" lon="3.19303">
        <ele>767.6</ele>
        <time>2019-05-31T11:24:41Z</time>
      </trkpt>
      <trkpt lat="44.11307" lon="3.19307">
        <ele>766.2</ele>
        <time>2019-05-31T11:24:42Z</time>
      </trkpt>
      <trkpt lat="44.1131" lon="3.19309">
        <ele>764.5</ele>
        <time>2019-05-31T11:24:44Z</time>
      </trkpt>
      <trkpt lat="44.11313" lon="3.1931">
        <ele>763.2</ele>
        <time>2019-05-31T11:24:46Z</time>
      </trkpt>
      <trkpt lat="44.11317" lon="3.19314">
        <ele>761.8</ele>
        <time>2019-05-31T11:24:48Z</time>
      </trkpt>
      <trkpt lat="44.11321" lon="3.19322">
        <ele>759.9</ele>
        <time>2019-05-31T11:24:50Z</time>
      </trkpt>
      <trkpt lat="44.11323" lon="3.19328">
        <ele>758.8</ele>
        <time>2019-05-31T11:24:51Z</time>
      </trkpt>
      <trkpt lat="44.11326" lon="3.19334">
        <ele>757.8</ele>
        <time>2019-05-31T11:24:52Z</time>
      </trkpt>
      <trkpt lat="44.11336" lon="3.1935">
        <ele>754.9</ele>
        <time>2019-05-31T11:24:53Z</time>
      </trkpt>
      <trkpt lat="44.11338" lon="3.1936">
        <ele>753.3</ele>
        <time>2019-05-31T11:24:54Z</time>
      </trkpt>
      <trkpt lat="44.11346" lon="3.19381">
        <ele>750.2</ele>
        <time>2019-05-31T11:24:55Z</time>
      </trkpt>
      <trkpt lat="44.11353" lon="3.19394">
        <ele>748.3</ele>
        <time>2019-05-31T11:24:56Z</time>
      </trkpt>
      <trkpt lat="44.11359" lon="3.1941">
        <ele>746.4</ele>
        <time>2019-05-31T11:24:57Z</time>
      </trkpt>
      <trkpt lat="44.11364" lon="3.19426">
        <ele>744.5</ele>
        <time>2019-05-31T11:24:58Z</time>
      </trkpt>
      <trkpt lat="44.11372" lon="3.19436">
        <ele>742.9</ele>
        <time>2019-05-31T11:24:59Z</time>
      </trkpt>
      <trkpt lat="44.11378" lon="3.19451">
        <ele>741.2</ele>
        <time>2019-05-31T11:25:00Z</time>
      </trkpt>
      <trkpt lat="44.11383" lon="3.19464">
        <ele>739.8</ele>
        <time>2019-05-31T11:25:01Z</time>
      </trkpt>
      <trkpt lat="44.11384" lon="3.19471">
        <ele>739.1</ele>
        <time>2019-05-31T11:25:02Z</time>
      </trkpt>
      <trkpt lat="44.11376" lon="3.1947">
        <ele>738.4</ele>
        <time>2019-05-31T11:25:03Z</time>
      </trkpt>
      <trkpt lat="44.11374" lon="3.19475">
        <ele>738.2</ele>
        <time>2019-05-31T11:25:04Z</time>
      </trkpt>
      <trkpt lat="44.11371" lon="3.19481">
        <ele>738.1</ele>
        <time>2019-05-31T11:25:05Z</time>
      </trkpt>
      <trkpt lat="44.11371" lon="3.19492">
        <ele>737.9</ele>
        <time>2019-05-31T11:25:06Z</time>
      </trkpt>
      <trkpt lat="44.11368" lon="3.19497">
        <ele>737.9</ele>
        <time>2019-05-31T11:25:07Z</time>
      </trkpt>
      <trkpt lat="44.11365" lon="3.19504">
        <ele>737.9</ele>
        <time>2019-05-31T11:25:08Z</time>
      </trkpt>
      <trkpt lat="44.11363" lon="3.19511">
        <ele>738</ele>
        <time>2019-05-31T11:25:09Z</time>
      </trkpt>
      <trkpt lat="44.11363" lon="3.19518">
        <ele>738.1</ele>
        <time>2019-05-31T11:25:10Z</time>
      </trkpt>
      <trkpt lat="44.11362" lon="3.19525">
        <ele>738.3</ele>
        <time>2019-05-31T11:25:11Z</time>
      </trkpt>
      <trkpt lat="44.11359" lon="3.19535">
        <ele>738.6</ele>
        <time>2019-05-31T11:25:12Z</time>
      </trkpt>
      <trkpt lat="44.11358" lon="3.19543">
        <ele>738.9</ele>
        <time>2019-05-31T11:25:13Z</time>
      </trkpt>
      <trkpt lat="44.11362" lon="3.19549">
        <ele>739.3</ele>
        <time>2019-05-31T11:25:14Z</time>
      </trkpt>
      <trkpt lat="44.11361" lon="3.19555">
        <ele>739.5</ele>
        <time>2019-05-31T11:25:15Z</time>
      </trkpt>
      <trkpt lat="44.11359" lon="3.1956">
        <ele>739.7</ele>
        <time>2019-05-31T11:25:16Z</time>
      </trkpt>
      <trkpt lat="44.1136" lon="3.19567">
        <ele>739.8</ele>
        <time>2019-05-31T11:25:17Z</time>
      </trkpt>
      <trkpt lat="44.11359" lon="3.19572">
        <ele>739.9</ele>
        <time>2019-05-31T11:25:18Z</time>
      </trkpt>
      <trkpt lat="44.11359" lon="3.19578">
        <ele>740</ele>
        <time>2019-05-31T11:25:19Z</time>
      </trkpt>
      <trkpt lat="44.11356" lon="3.19585">
        <ele>740</ele>
        <time>2019-05-31T11:25:21Z</time>
      </trkpt>
      <trkpt lat="44.11356" lon="3.1959">
        <ele>740</ele>
        <time>2019-05-31T11:25:22Z</time>
      </trkpt>
      <trkpt lat="44.11354" lon="3.19595">
        <ele>740</ele>
        <time>2019-05-31T11:25:23Z</time>
      </trkpt>
      <trkpt lat="44.11352" lon="3.196">
        <ele>740</ele>
        <time>2019-05-31T11:25:24Z</time>
      </trkpt>
      <trkpt lat="44.1135" lon="3.19604">
        <ele>740</ele>
        <time>2019-05-31T11:25:25Z</time>
      </trkpt>
      <trkpt lat="44.11348" lon="3.19608">
        <ele>739.9</ele>
        <time>2019-05-31T11:25:26Z</time>
      </trkpt>
      <trkpt lat="44.11347" lon="3.19613">
        <ele>739.9</ele>
        <time>2019-05-31T11:25:27Z</time>
      </trkpt>
      <trkpt lat="44.11346" lon="3.19618">
        <ele>739.9</ele>
        <time>2019-05-31T11:25:28Z</time>
      </trkpt>
      <trkpt lat="44.11344" lon="3.19622">
        <ele>739.8</ele>
        <time>2019-05-31T11:25:29Z</time>
      </trkpt>
      <trkpt lat="44.11343" lon="3.19627">
        <ele>739.7</ele>
        <time>2019-05-31T11:25:30Z</time>
      </trkpt>
      <trkpt lat="44.11341" lon="3.19633">
        <ele>739.5</ele>
        <time>2019-05-31T11:25:31Z</time>
      </trkpt>
      <trkpt lat="44.11339" lon="3.19638">
        <ele>739.3</ele>
        <time>2019-05-31T11:25:32Z</time>
      </trkpt>
      <trkpt lat="44.11338" lon="3.19644">
        <ele>739</ele>
        <time>2019-05-31T11:25:33Z</time>
      </trkpt>
      <trkpt lat="44.11338" lon="3.19652">
        <ele>738.7</ele>
        <time>2019-05-31T11:25:34Z</time>
      </trkpt>
      <trkpt lat="44.11339" lon="3.1966">
        <ele>738.5</ele>
        <time>2019-05-31T11:25:35Z</time>
      </trkpt>
      <trkpt lat="44.1134" lon="3.19667">
        <ele>738.2</ele>
        <time>2019-05-31T11:25:36Z</time>
      </trkpt>
      <trkpt lat="44.1134" lon="3.19674">
        <ele>738</ele>
        <time>2019-05-31T11:25:37Z</time>
      </trkpt>
      <trkpt lat="44.1134" lon="3.19681">
        <ele>737.8</ele>
        <time>2019-05-31T11:25:38Z</time>
      </trkpt>
      <trkpt lat="44.11339" lon="3.19687">
        <ele>737.5</ele>
        <time>2019-05-31T11:25:39Z</time>
      </trkpt>
      <trkpt lat="44.11338" lon="3.19692">
        <ele>737.3</ele>
        <time>2019-05-31T11:25:40Z</time>
      </trkpt>
      <trkpt lat="44.11337" lon="3.19698">
        <ele>737.1</ele>
        <time>2019-05-31T11:25:41Z</time>
      </trkpt>
      <trkpt lat="44.11336" lon="3.19704">
        <ele>736.9</ele>
        <time>2019-05-31T11:25:42Z</time>
      </trkpt>
      <trkpt lat="44.11334" lon="3.19711">
        <ele>736.4</ele>
        <time>2019-05-31T11:25:43Z</time>
      </trkpt>
      <trkpt lat="44.1133" lon="3.19725">
        <ele>735.7</ele>
        <time>2019-05-31T11:25:44Z</time>
      </trkpt>
      <trkpt lat="44.1133" lon="3.19732">
        <ele>735.4</ele>
        <time>2019-05-31T11:25:45Z</time>
      </trkpt>
      <trkpt lat="44.11328" lon="3.19736">
        <ele>735.2</ele>
        <time>2019-05-31T11:25:46Z</time>
      </trkpt>
      <trkpt lat="44.11327" lon="3.19741">
        <ele>735</ele>
        <time>2019-05-31T11:25:47Z</time>
      </trkpt>
      <trkpt lat="44.11327" lon="3.19744">
        <ele>734.7</ele>
        <time>2019-05-31T11:25:48Z</time>
      </trkpt>
      <trkpt lat="44.11326" lon="3.1975">
        <ele>734.2</ele>
        <time>2019-05-31T11:25:49Z</time>
      </trkpt>
      <trkpt lat="44.11326" lon="3.19758">
        <ele>733.8</ele>
        <time>2019-05-31T11:25:50Z</time>
      </trkpt>
      <trkpt lat="44.11326" lon="3.19765">
        <ele>733.3</ele>
        <time>2019-05-31T11:25:51Z</time>
      </trkpt>
      <trkpt lat="44.11326" lon="3.19771">
        <ele>732.9</ele>
        <time>2019-05-31T11:25:52Z</time>
      </trkpt>
      <trkpt lat="44.11323" lon="3.19777">
        <ele>732.2</ele>
        <time>2019-05-31T11:25:53Z</time>
      </trkpt>
      <trkpt lat="44.1132" lon="3.19784">
        <ele>731.5</ele>
        <time>2019-05-31T11:25:54Z</time>
      </trkpt>
      <trkpt lat="44.11316" lon="3.19789">
        <ele>731</ele>
        <time>2019-05-31T11:25:55Z</time>
      </trkpt>
      <trkpt lat="44.11315" lon="3.19799">
        <ele>730.4</ele>
        <time>2019-05-31T11:25:56Z</time>
      </trkpt>
      <trkpt lat="44.11315" lon="3.19807">
        <ele>729.8</ele>
        <time>2019-05-31T11:25:57Z</time>
      </trkpt>
      <trkpt lat="44.11316" lon="3.19812">
        <ele>729.4</ele>
        <time>2019-05-31T11:25:58Z</time>
      </trkpt>
      <trkpt lat="44.11316" lon="3.19817">
        <ele>728.9</ele>
        <time>2019-05-31T11:25:59Z</time>
      </trkpt>
      <trkpt lat="44.11317" lon="3.19824">
        <ele>728.3</ele>
        <time>2019-05-31T11:26:00Z</time>
      </trkpt>
      <trkpt lat="44.1132" lon="3.19833">
        <ele>727.9</ele>
        <time>2019-05-31T11:26:01Z</time>
      </trkpt>
      <trkpt lat="44.11323" lon="3.19839">
        <ele>727.7</ele>
        <time>2019-05-31T11:26:02Z</time>
      </trkpt>
      <trkpt lat="44.11327" lon="3.19843">
        <ele>727.4</ele>
        <time>2019-05-31T11:26:03Z</time>
      </trkpt>
      <trkpt lat="44.11329" lon="3.1985">
        <ele>727.1</ele>
        <time>2019-05-31T11:26:04Z</time>
      </trkpt>
      <trkpt lat="44.11332" lon="3.19854">
        <ele>726.9</ele>
        <time>2019-05-31T11:26:05Z</time>
      </trkpt>
      <trkpt lat="44.11335" lon="3.19858">
        <ele>726.9</ele>
        <time>2019-05-31T11:26:06Z</time>
      </trkpt>
      <trkpt lat="44.11337" lon="3.19861">
        <ele>726.8</ele>
        <time>2019-05-31T11:26:07Z</time>
      </trkpt>
      <trkpt lat="44.11339" lon="3.19864">
        <ele>726.7</ele>
        <time>2019-05-31T11:26:08Z</time>
      </trkpt>
      <trkpt lat="44.11342" lon="3.19867">
        <ele>726.6</ele>
        <time>2019-05-31T11:26:09Z</time>
      </trkpt>
      <trkpt lat="44.11344" lon="3.19871">
        <ele>726.5</ele>
        <time>2019-05-31T11:26:10Z</time>
      </trkpt>
      <trkpt lat="44.11348" lon="3.19874">
        <ele>726.4</ele>
        <time>2019-05-31T11:26:11Z</time>
      </trkpt>
      <trkpt lat="44.11351" lon="3.19877">
        <ele>726.3</ele>
        <time>2019-05-31T11:26:12Z</time>
      </trkpt>
      <trkpt lat="44.11354" lon="3.19879">
        <ele>726.2</ele>
        <time>2019-05-31T11:26:13Z</time>
      </trkpt>
      <trkpt lat="44.11357" lon="3.19882">
        <ele>726.2</ele>
        <time>2019-05-31T11:26:14Z</time>
      </trkpt>
      <trkpt lat="44.11361" lon="3.19884">
        <ele>726.1</ele>
        <time>2019-05-31T11:26:15Z</time>
      </trkpt>
      <trkpt lat="44.11364" lon="3.19886">
        <ele>726</ele>
        <time>2019-05-31T11:26:16Z</time>
      </trkpt>
      <trkpt lat="44.11368" lon="3.19888">
        <ele>725.9</ele>
        <time>2019-05-31T11:26:17Z</time>
      </trkpt>
      <trkpt lat="44.11372" lon="3.1989">
        <ele>725.9</ele>
        <time>2019-05-31T11:26:18Z</time>
      </trkpt>
      <trkpt lat="44.11375" lon="3.19892">
        <ele>725.9</ele>
        <time>2019-05-31T11:26:19Z</time>
      </trkpt>
      <trkpt lat="44.11378" lon="3.19895">
        <ele>725.9</ele>
        <time>2019-05-31T11:26:20Z</time>
      </trkpt>
      <trkpt lat="44.11381" lon="3.19898">
        <ele>725.9</ele>
        <time>2019-05-31T11:26:21Z</time>
      </trkpt>
      <trkpt lat="44.11384" lon="3.19901">
        <ele>725.8</ele>
        <time>2019-05-31T11:26:22Z</time>
      </trkpt>
      <trkpt lat="44.11388" lon="3.19902">
        <ele>725.8</ele>
        <time>2019-05-31T11:26:23Z</time>
      </trkpt>
      <trkpt lat="44.11391" lon="3.19903">
        <ele>725.8</ele>
        <time>2019-05-31T11:26:24Z</time>
      </trkpt>
      <trkpt lat="44.11394" lon="3.19904">
        <ele>725.8</ele>
        <time>2019-05-31T11:26:25Z</time>
      </trkpt>
      <trkpt lat="44.11398" lon="3.19905">
        <ele>725.8</ele>
        <time>2019-05-31T11:26:27Z</time>
      </trkpt>
      <trkpt lat="44.11401" lon="3.19908">
        <ele>725.8</ele>
        <time>2019-05-31T11:26:28Z</time>
      </trkpt>
      <trkpt lat="44.11404" lon="3.19912">
        <ele>725.7</ele>
        <time>2019-05-31T11:26:29Z</time>
      </trkpt>
      <trkpt lat="44.11407" lon="3.19916">
        <ele>725.6</ele>
        <time>2019-05-31T11:26:30Z</time>
      </trkpt>
      <trkpt lat="44.1141" lon="3.1992">
        <ele>725.5</ele>
        <time>2019-05-31T11:26:31Z</time>
      </trkpt>
      <trkpt lat="44.11412" lon="3.19925">
        <ele>725.3</ele>
        <time>2019-05-31T11:26:32Z</time>
      </trkpt>
      <trkpt lat="44.11415" lon="3.19929">
        <ele>725.2</ele>
        <time>2019-05-31T11:26:33Z</time>
      </trkpt>
      <trkpt lat="44.11417" lon="3.19934">
        <ele>725</ele>
        <time>2019-05-31T11:26:34Z</time>
      </trkpt>
      <trkpt lat="44.1142" lon="3.19938">
        <ele>724.8</ele>
        <time>2019-05-31T11:26:35Z</time>
      </trkpt>
      <trkpt lat="44.11421" lon="3.19944">
        <ele>724.5</ele>
        <time>2019-05-31T11:26:36Z</time>
      </trkpt>
      <trkpt lat="44.11422" lon="3.19949">
        <ele>724.3</ele>
        <time>2019-05-31T11:26:37Z</time>
      </trkpt>
      <trkpt lat="44.11422" lon="3.19955">
        <ele>724.1</ele>
        <time>2019-05-31T11:26:38Z</time>
      </trkpt>
      <trkpt lat="44.11423" lon="3.19961">
        <ele>723.9</ele>
        <time>2019-05-31T11:26:39Z</time>
      </trkpt>
      <trkpt lat="44.11428" lon="3.19967">
        <ele>723.5</ele>
        <time>2019-05-31T11:26:40Z</time>
      </trkpt>
      <trkpt lat="44.1143" lon="3.19974">
        <ele>723</ele>
        <time>2019-05-31T11:26:41Z</time>
      </trkpt>
      <trkpt lat="44.11431" lon="3.19979">
        <ele>722.6</ele>
        <time>2019-05-31T11:26:42Z</time>
      </trkpt>
      <trkpt lat="44.1143" lon="3.19986">
        <ele>722.3</ele>
        <time>2019-05-31T11:26:43Z</time>
      </trkpt>
      <trkpt lat="44.1143" lon="3.19991">
        <ele>722</ele>
        <time>2019-05-31T11:26:45Z</time>
      </trkpt>
      <trkpt lat="44.11426" lon="3.19991">
        <ele>721.6</ele>
        <time>2019-05-31T11:26:46Z</time>
      </trkpt>
      <trkpt lat="44.11423" lon="3.19991">
        <ele>721.4</ele>
        <time>2019-05-31T11:26:47Z</time>
      </trkpt>
      <trkpt lat="44.1142" lon="3.19994">
        <ele>721</ele>
        <time>2019-05-31T11:26:48Z</time>
      </trkpt>
      <trkpt lat="44.11414" lon="3.19994">
        <ele>720.4</ele>
        <time>2019-05-31T11:26:50Z</time>
      </trkpt>
      <trkpt lat="44.11407" lon="3.19998">
        <ele>719.7</ele>
        <time>2019-05-31T11:26:52Z</time>
      </trkpt>
      <trkpt lat="44.11402" lon="3.20003">
        <ele>719.3</ele>
        <time>2019-05-31T11:26:53Z</time>
      </trkpt>
      <trkpt lat="44.11399" lon="3.20008">
        <ele>718.8</ele>
        <time>2019-05-31T11:26:54Z</time>
      </trkpt>
      <trkpt lat="44.11392" lon="3.20016">
        <ele>717.7</ele>
        <time>2019-05-31T11:26:55Z</time>
      </trkpt>
      <trkpt lat="44.11386" lon="3.2002">
        <ele>717.1</ele>
        <time>2019-05-31T11:26:56Z</time>
      </trkpt>
      <trkpt lat="44.11381" lon="3.20026">
        <ele>716.3</ele>
        <time>2019-05-31T11:26:57Z</time>
      </trkpt>
      <trkpt lat="44.11376" lon="3.2003">
        <ele>715.7</ele>
        <time>2019-05-31T11:26:58Z</time>
      </trkpt>
      <trkpt lat="44.11368" lon="3.20038">
        <ele>714.5</ele>
        <time>2019-05-31T11:26:59Z</time>
      </trkpt>
      <trkpt lat="44.11363" lon="3.20046">
        <ele>713.6</ele>
        <time>2019-05-31T11:27:00Z</time>
      </trkpt>
      <trkpt lat="44.11358" lon="3.20055">
        <ele>712.7</ele>
        <time>2019-05-31T11:27:01Z</time>
      </trkpt>
      <trkpt lat="44.11352" lon="3.20064">
        <ele>711.6</ele>
        <time>2019-05-31T11:27:02Z</time>
      </trkpt>
      <trkpt lat="44.11344" lon="3.20075">
        <ele>710.2</ele>
        <time>2019-05-31T11:27:03Z</time>
      </trkpt>
      <trkpt lat="44.1134" lon="3.2008">
        <ele>709.5</ele>
        <time>2019-05-31T11:27:04Z</time>
      </trkpt>
      <trkpt lat="44.11335" lon="3.20087">
        <ele>708.6</ele>
        <time>2019-05-31T11:27:05Z</time>
      </trkpt>
      <trkpt lat="44.11327" lon="3.20096">
        <ele>707.3</ele>
        <time>2019-05-31T11:27:06Z</time>
      </trkpt>
      <trkpt lat="44.11323" lon="3.20105">
        <ele>706.3</ele>
        <time>2019-05-31T11:27:07Z</time>
      </trkpt>
      <trkpt lat="44.11315" lon="3.20114">
        <ele>705.2</ele>
        <time>2019-05-31T11:27:08Z</time>
      </trkpt>
      <trkpt lat="44.11309" lon="3.20122">
        <ele>704.2</ele>
        <time>2019-05-31T11:27:09Z</time>
      </trkpt>
      <trkpt lat="44.11302" lon="3.20135">
        <ele>702.8</ele>
        <time>2019-05-31T11:27:10Z</time>
      </trkpt>
      <trkpt lat="44.11295" lon="3.2015">
        <ele>701.4</ele>
        <time>2019-05-31T11:27:11Z</time>
      </trkpt>
      <trkpt lat="44.11288" lon="3.2016">
        <ele>700.1</ele>
        <time>2019-05-31T11:27:12Z</time>
      </trkpt>
      <trkpt lat="44.1128" lon="3.20166">
        <ele>698.6</ele>
        <time>2019-05-31T11:27:13Z</time>
      </trkpt>
      <trkpt lat="44.11273" lon="3.20177">
        <ele>696.9</ele>
        <time>2019-05-31T11:27:14Z</time>
      </trkpt>
      <trkpt lat="44.11268" lon="3.20178">
        <ele>696.2</ele>
        <time>2019-05-31T11:27:16Z</time>
      </trkpt>
      <trkpt lat="44.11266" lon="3.20174">
        <ele>695.7</ele>
        <time>2019-05-31T11:27:17Z</time>
      </trkpt>
      <trkpt lat="44.11264" lon="3.20172">
        <ele>695.2</ele>
        <time>2019-05-31T11:27:18Z</time>
      </trkpt>
      <trkpt lat="44.11262" lon="3.20168">
        <ele>694.5</ele>
        <time>2019-05-31T11:27:19Z</time>
      </trkpt>
      <trkpt lat="44.11258" lon="3.20167">
        <ele>693.8</ele>
        <time>2019-05-31T11:27:20Z</time>
      </trkpt>
      <trkpt lat="44.11255" lon="3.20166">
        <ele>693.2</ele>
        <time>2019-05-31T11:27:21Z</time>
      </trkpt>
      <trkpt lat="44.11252" lon="3.20165">
        <ele>692.4</ele>
        <time>2019-05-31T11:27:22Z</time>
      </trkpt>
      <trkpt lat="44.11247" lon="3.20164">
        <ele>691.4</ele>
        <time>2019-05-31T11:27:24Z</time>
      </trkpt>
      <trkpt lat="44.11243" lon="3.20164">
        <ele>690.6</ele>
        <time>2019-05-31T11:27:26Z</time>
      </trkpt>
      <trkpt lat="44.1124" lon="3.20164">
        <ele>690</ele>
        <time>2019-05-31T11:27:27Z</time>
      </trkpt>
      <trkpt lat="44.11236" lon="3.20163">
        <ele>689.2</ele>
        <time>2019-05-31T11:27:28Z</time>
      </trkpt>
      <trkpt lat="44.1123" lon="3.20164">
        <ele>688</ele>
        <time>2019-05-31T11:27:29Z</time>
      </trkpt>
      <trkpt lat="44.11225" lon="3.20161">
        <ele>686.9</ele>
        <time>2019-05-31T11:27:30Z</time>
      </trkpt>
      <trkpt lat="44.11219" lon="3.20155">
        <ele>685.6</ele>
        <time>2019-05-31T11:27:31Z</time>
      </trkpt>
      <trkpt lat="44.11213" lon="3.2015">
        <ele>684.3</ele>
        <time>2019-05-31T11:27:32Z</time>
      </trkpt>
      <trkpt lat="44.1122" lon="3.20146">
        <ele>682.9</ele>
        <time>2019-05-31T11:27:33Z</time>
      </trkpt>
      <trkpt lat="44.11223" lon="3.2014">
        <ele>681.7</ele>
        <time>2019-05-31T11:27:34Z</time>
      </trkpt>
      <trkpt lat="44.11224" lon="3.20134">
        <ele>680.8</ele>
        <time>2019-05-31T11:27:35Z</time>
      </trkpt>
      <trkpt lat="44.11226" lon="3.20128">
        <ele>679.8</ele>
        <time>2019-05-31T11:27:36Z</time>
      </trkpt>
      <trkpt lat="44.11216" lon="3.20127">
        <ele>677.6</ele>
        <time>2019-05-31T11:27:38Z</time>
      </trkpt>
      <trkpt lat="44.11207" lon="3.20126">
        <ele>675.8</ele>
        <time>2019-05-31T11:27:40Z</time>
      </trkpt>
      <trkpt lat="44.11202" lon="3.20122">
        <ele>674.4</ele>
        <time>2019-05-31T11:27:41Z</time>
      </trkpt>
      <trkpt lat="44.11191" lon="3.20118">
        <ele>672.7</ele>
        <time>2019-05-31T11:27:42Z</time>
      </trkpt>
      <trkpt lat="44.11185" lon="3.20115">
        <ele>671.6</ele>
        <time>2019-05-31T11:27:43Z</time>
      </trkpt>
      <trkpt lat="44.11177" lon="3.20112">
        <ele>670.3</ele>
        <time>2019-05-31T11:27:44Z</time>
      </trkpt>
      <trkpt lat="44.11171" lon="3.2011">
        <ele>669.2</ele>
        <time>2019-05-31T11:27:45Z</time>
      </trkpt>
      <trkpt lat="44.11163" lon="3.20112">
        <ele>668.2</ele>
        <time>2019-05-31T11:27:46Z</time>
      </trkpt>
      <trkpt lat="44.11159" lon="3.20119">
        <ele>667.5</ele>
        <time>2019-05-31T11:27:47Z</time>
      </trkpt>
      <trkpt lat="44.11155" lon="3.20126">
        <ele>667</ele>
        <time>2019-05-31T11:27:48Z</time>
      </trkpt>
      <trkpt lat="44.1115" lon="3.20128">
        <ele>666.5</ele>
        <time>2019-05-31T11:27:49Z</time>
      </trkpt>
      <trkpt lat="44.11146" lon="3.20132">
        <ele>666.1</ele>
        <time>2019-05-31T11:27:50Z</time>
      </trkpt>
      <trkpt lat="44.11142" lon="3.20135">
        <ele>665.7</ele>
        <time>2019-05-31T11:27:51Z</time>
      </trkpt>
      <trkpt lat="44.11137" lon="3.20138">
        <ele>665.2</ele>
        <time>2019-05-31T11:27:52Z</time>
      </trkpt>
      <trkpt lat="44.11132" lon="3.20141">
        <ele>664.7</ele>
        <time>2019-05-31T11:27:53Z</time>
      </trkpt>
      <trkpt lat="44.1112" lon="3.20151">
        <ele>663.2</ele>
        <time>2019-05-31T11:27:54Z</time>
      </trkpt>
      <trkpt lat="44.11117" lon="3.20157">
        <ele>662.7</ele>
        <time>2019-05-31T11:27:55Z</time>
      </trkpt>
      <trkpt lat="44.11116" lon="3.20165">
        <ele>662.3</ele>
        <time>2019-05-31T11:27:56Z</time>
      </trkpt>
      <trkpt lat="44.11113" lon="3.20175">
        <ele>661.8</ele>
        <time>2019-05-31T11:27:57Z</time>
      </trkpt>
      <trkpt lat="44.11107" lon="3.20182">
        <ele>661.6</ele>
        <time>2019-05-31T11:27:58Z</time>
      </trkpt>
      <trkpt lat="44.11105" lon="3.20191">
        <ele>661.4</ele>
        <time>2019-05-31T11:27:59Z</time>
      </trkpt>
      <trkpt lat="44.11102" lon="3.20198">
        <ele>661.2</ele>
        <time>2019-05-31T11:28:00Z</time>
      </trkpt>
      <trkpt lat="44.11105" lon="3.20206">
        <ele>661.2</ele>
        <time>2019-05-31T11:28:01Z</time>
      </trkpt>
      <trkpt lat="44.11108" lon="3.20213">
        <ele>661.1</ele>
        <time>2019-05-31T11:28:02Z</time>
      </trkpt>
      <trkpt lat="44.1111" lon="3.20218">
        <ele>661.1</ele>
        <time>2019-05-31T11:28:03Z</time>
      </trkpt>
      <trkpt lat="44.1111" lon="3.20224">
        <ele>661.1</ele>
        <time>2019-05-31T11:28:04Z</time>
      </trkpt>
      <trkpt lat="44.1111" lon="3.2023">
        <ele>661.1</ele>
        <time>2019-05-31T11:28:05Z</time>
      </trkpt>
      <trkpt lat="44.11111" lon="3.20236">
        <ele>661.2</ele>
        <time>2019-05-31T11:28:06Z</time>
      </trkpt>
      <trkpt lat="44.11113" lon="3.20243">
        <ele>661.3</ele>
        <time>2019-05-31T11:28:07Z</time>
      </trkpt>
      <trkpt lat="44.11114" lon="3.20251">
        <ele>661.4</ele>
        <time>2019-05-31T11:28:08Z</time>
      </trkpt>
      <trkpt lat="44.11115" lon="3.20257">
        <ele>661.5</ele>
        <time>2019-05-31T11:28:09Z</time>
      </trkpt>
      <trkpt lat="44.11116" lon="3.20264">
        <ele>661.7</ele>
        <time>2019-05-31T11:28:10Z</time>
      </trkpt>
      <trkpt lat="44.11116" lon="3.20272">
        <ele>661.9</ele>
        <time>2019-05-31T11:28:11Z</time>
      </trkpt>
      <trkpt lat="44.11117" lon="3.20279">
        <ele>662.1</ele>
        <time>2019-05-31T11:28:12Z</time>
      </trkpt>
      <trkpt lat="44.11118" lon="3.20286">
        <ele>662.3</ele>
        <time>2019-05-31T11:28:13Z</time>
      </trkpt>
      <trkpt lat="44.11119" lon="3.20291">
        <ele>662.4</ele>
        <time>2019-05-31T11:28:14Z</time>
      </trkpt>
      <trkpt lat="44.11119" lon="3.20296">
        <ele>662.5</ele>
        <time>2019-05-31T11:28:16Z</time>
      </trkpt>
      <trkpt lat="44.1112" lon="3.20304">
        <ele>662.7</ele>
        <time>2019-05-31T11:28:18Z</time>
      </trkpt>
      <trkpt lat="44.1112" lon="3.2031">
        <ele>662.9</ele>
        <time>2019-05-31T11:28:19Z</time>
      </trkpt>
      <trkpt lat="44.1112" lon="3.20316">
        <ele>663</ele>
        <time>2019-05-31T11:28:20Z</time>
      </trkpt>
      <trkpt lat="44.1112" lon="3.20323">
        <ele>663.2</ele>
        <time>2019-05-31T11:28:21Z</time>
      </trkpt>
      <trkpt lat="44.11119" lon="3.2033">
        <ele>663.3</ele>
        <time>2019-05-31T11:28:22Z</time>
      </trkpt>
      <trkpt lat="44.11119" lon="3.20337">
        <ele>663.4</ele>
        <time>2019-05-31T11:28:23Z</time>
      </trkpt>
      <trkpt lat="44.11117" lon="3.20343">
        <ele>663.5</ele>
        <time>2019-05-31T11:28:24Z</time>
      </trkpt>
      <trkpt lat="44.11116" lon="3.20348">
        <ele>663.6</ele>
        <time>2019-05-31T11:28:25Z</time>
      </trkpt>
      <trkpt lat="44.11115" lon="3.20353">
        <ele>663.6</ele>
        <time>2019-05-31T11:28:26Z</time>
      </trkpt>
      <trkpt lat="44.11113" lon="3.20357">
        <ele>663.6</ele>
        <time>2019-05-31T11:28:27Z</time>
      </trkpt>
      <trkpt lat="44.11111" lon="3.20362">
        <ele>663.7</ele>
        <time>2019-05-31T11:28:28Z</time>
      </trkpt>
      <trkpt lat="44.11109" lon="3.20366">
        <ele>663.7</ele>
        <time>2019-05-31T11:28:29Z</time>
      </trkpt>
      <trkpt lat="44.11106" lon="3.20373">
        <ele>663.7</ele>
        <time>2019-05-31T11:28:31Z</time>
      </trkpt>
      <trkpt lat="44.11102" lon="3.20378">
        <ele>663.7</ele>
        <time>2019-05-31T11:28:32Z</time>
      </trkpt>
      <trkpt lat="44.11101" lon="3.20385">
        <ele>663.7</ele>
        <time>2019-05-31T11:28:33Z</time>
      </trkpt>
      <trkpt lat="44.11099" lon="3.20391">
        <ele>663.7</ele>
        <time>2019-05-31T11:28:34Z</time>
      </trkpt>
      <trkpt lat="44.11097" lon="3.20399">
        <ele>663.7</ele>
        <time>2019-05-31T11:28:35Z</time>
      </trkpt>
      <trkpt lat="44.11095" lon="3.20405">
        <ele>663.7</ele>
        <time>2019-05-31T11:28:36Z</time>
      </trkpt>
      <trkpt lat="44.11092" lon="3.2041">
        <ele>663.7</ele>
        <time>2019-05-31T11:28:37Z</time>
      </trkpt>
      <trkpt lat="44.11089" lon="3.20414">
        <ele>663.7</ele>
        <time>2019-05-31T11:28:38Z</time>
      </trkpt>
      <trkpt lat="44.11087" lon="3.2042">
        <ele>663.7</ele>
        <time>2019-05-31T11:28:39Z</time>
      </trkpt>
      <trkpt lat="44.11084" lon="3.20427">
        <ele>663.7</ele>
        <time>2019-05-31T11:28:40Z</time>
      </trkpt>
      <trkpt lat="44.11082" lon="3.20434">
        <ele>663.7</ele>
        <time>2019-05-31T11:28:41Z</time>
      </trkpt>
      <trkpt lat="44.11082" lon="3.20441">
        <ele>663.7</ele>
        <time>2019-05-31T11:28:42Z</time>
      </trkpt>
      <trkpt lat="44.11081" lon="3.20449">
        <ele>663.7</ele>
        <time>2019-05-31T11:28:43Z</time>
      </trkpt>
      <trkpt lat="44.1108" lon="3.20455">
        <ele>663.7</ele>
        <time>2019-05-31T11:28:44Z</time>
      </trkpt>
      <trkpt lat="44.11077" lon="3.20461">
        <ele>663.7</ele>
        <time>2019-05-31T11:28:45Z</time>
      </trkpt>
      <trkpt lat="44.11074" lon="3.20466">
        <ele>663.8</ele>
        <time>2019-05-31T11:28:46Z</time>
      </trkpt>
      <trkpt lat="44.11073" lon="3.20471">
        <ele>663.8</ele>
        <time>2019-05-31T11:28:47Z</time>
      </trkpt>
      <trkpt lat="44.11071" lon="3.20475">
        <ele>663.8</ele>
        <time>2019-05-31T11:28:48Z</time>
      </trkpt>
      <trkpt lat="44.11069" lon="3.2048">
        <ele>663.8</ele>
        <time>2019-05-31T11:28:49Z</time>
      </trkpt>
      <trkpt lat="44.11067" lon="3.20485">
        <ele>663.8</ele>
        <time>2019-05-31T11:28:50Z</time>
      </trkpt>
      <trkpt lat="44.11066" lon="3.20491">
        <ele>663.8</ele>
        <time>2019-05-31T11:28:51Z</time>
      </trkpt>
      <trkpt lat="44.11065" lon="3.20497">
        <ele>663.9</ele>
        <time>2019-05-31T11:28:52Z</time>
      </trkpt>
      <trkpt lat="44.11064" lon="3.20501">
        <ele>663.8</ele>
        <time>2019-05-31T11:28:53Z</time>
      </trkpt>
      <trkpt lat="44.11062" lon="3.20508">
        <ele>663.8</ele>
        <time>2019-05-31T11:28:55Z</time>
      </trkpt>
      <trkpt lat="44.11058" lon="3.20513">
        <ele>663.8</ele>
        <time>2019-05-31T11:28:57Z</time>
      </trkpt>
      <trkpt lat="44.11055" lon="3.20517">
        <ele>663.8</ele>
        <time>2019-05-31T11:28:58Z</time>
      </trkpt>
      <trkpt lat="44.11051" lon="3.20522">
        <ele>663.7</ele>
        <time>2019-05-31T11:28:59Z</time>
      </trkpt>
      <trkpt lat="44.11047" lon="3.20527">
        <ele>663.6</ele>
        <time>2019-05-31T11:29:00Z</time>
      </trkpt>
      <trkpt lat="44.11044" lon="3.20531">
        <ele>663.6</ele>
        <time>2019-05-31T11:29:01Z</time>
      </trkpt>
      <trkpt lat="44.1104" lon="3.20535">
        <ele>663.5</ele>
        <time>2019-05-31T11:29:02Z</time>
      </trkpt>
      <trkpt lat="44.11037" lon="3.20538">
        <ele>663.4</ele>
        <time>2019-05-31T11:29:03Z</time>
      </trkpt>
      <trkpt lat="44.11034" lon="3.20542">
        <ele>663.3</ele>
        <time>2019-05-31T11:29:04Z</time>
      </trkpt>
      <trkpt lat="44.11029" lon="3.20544">
        <ele>663.2</ele>
        <time>2019-05-31T11:29:05Z</time>
      </trkpt>
      <trkpt lat="44.11024" lon="3.20547">
        <ele>663</ele>
        <time>2019-05-31T11:29:06Z</time>
      </trkpt>
      <trkpt lat="44.1102" lon="3.2055">
        <ele>662.8</ele>
        <time>2019-05-31T11:29:07Z</time>
      </trkpt>
      <trkpt lat="44.11017" lon="3.20552">
        <ele>662.7</ele>
        <time>2019-05-31T11:29:08Z</time>
      </trkpt>
      <trkpt lat="44.11014" lon="3.20554">
        <ele>662.5</ele>
        <time>2019-05-31T11:29:09Z</time>
      </trkpt>
      <trkpt lat="44.11011" lon="3.20556">
        <ele>662.4</ele>
        <time>2019-05-31T11:29:10Z</time>
      </trkpt>
      <trkpt lat="44.11007" lon="3.2056">
        <ele>662.2</ele>
        <time>2019-05-31T11:29:11Z</time>
      </trkpt>
      <trkpt lat="44.11003" lon="3.20566">
        <ele>661.9</ele>
        <time>2019-05-31T11:29:12Z</time>
      </trkpt>
      <trkpt lat="44.10992" lon="3.20581">
        <ele>660.9</ele>
        <time>2019-05-31T11:29:13Z</time>
      </trkpt>
      <trkpt lat="44.10985" lon="3.20587">
        <ele>660.6</ele>
        <time>2019-05-31T11:29:14Z</time>
      </trkpt>
      <trkpt lat="44.1098" lon="3.20591">
        <ele>660.4</ele>
        <time>2019-05-31T11:29:15Z</time>
      </trkpt>
      <trkpt lat="44.10977" lon="3.20597">
        <ele>660.1</ele>
        <time>2019-05-31T11:29:16Z</time>
      </trkpt>
      <trkpt lat="44.10976" lon="3.20601">
        <ele>660</ele>
        <time>2019-05-31T11:29:17Z</time>
      </trkpt>
      <trkpt lat="44.10974" lon="3.20605">
        <ele>659.9</ele>
        <time>2019-05-31T11:29:18Z</time>
      </trkpt>
      <trkpt lat="44.10972" lon="3.2061">
        <ele>659.7</ele>
        <time>2019-05-31T11:29:19Z</time>
      </trkpt>
      <trkpt lat="44.10971" lon="3.20617">
        <ele>659.6</ele>
        <time>2019-05-31T11:29:20Z</time>
      </trkpt>
      <trkpt lat="44.10966" lon="3.20626">
        <ele>659.5</ele>
        <time>2019-05-31T11:29:21Z</time>
      </trkpt>
      <trkpt lat="44.10961" lon="3.20635">
        <ele>659.4</ele>
        <time>2019-05-31T11:29:22Z</time>
      </trkpt>
      <trkpt lat="44.10959" lon="3.20644">
        <ele>659.4</ele>
        <time>2019-05-31T11:29:23Z</time>
      </trkpt>
      <trkpt lat="44.10952" lon="3.20652">
        <ele>659.3</ele>
        <time>2019-05-31T11:29:24Z</time>
      </trkpt>
      <trkpt lat="44.1095" lon="3.2066">
        <ele>659.3</ele>
        <time>2019-05-31T11:29:25Z</time>
      </trkpt>
      <trkpt lat="44.10947" lon="3.2067">
        <ele>659.2</ele>
        <time>2019-05-31T11:29:26Z</time>
      </trkpt>
      <trkpt lat="44.10944" lon="3.20678">
        <ele>659.2</ele>
        <time>2019-05-31T11:29:27Z</time>
      </trkpt>
      <trkpt lat="44.10948" lon="3.20689">
        <ele>659.1</ele>
        <time>2019-05-31T11:29:28Z</time>
      </trkpt>
      <trkpt lat="44.10944" lon="3.20698">
        <ele>659.1</ele>
        <time>2019-05-31T11:29:29Z</time>
      </trkpt>
      <trkpt lat="44.10941" lon="3.20706">
        <ele>659</ele>
        <time>2019-05-31T11:29:30Z</time>
      </trkpt>
      <trkpt lat="44.1094" lon="3.20717">
        <ele>659</ele>
        <time>2019-05-31T11:29:31Z</time>
      </trkpt>
      <trkpt lat="44.10934" lon="3.20725">
        <ele>658.9</ele>
        <time>2019-05-31T11:29:32Z</time>
      </trkpt>
      <trkpt lat="44.10933" lon="3.20732">
        <ele>658.9</ele>
        <time>2019-05-31T11:29:33Z</time>
      </trkpt>
      <trkpt lat="44.10923" lon="3.20732">
        <ele>658.8</ele>
        <time>2019-05-31T11:29:34Z</time>
      </trkpt>
      <trkpt lat="44.10921" lon="3.20736">
        <ele>658.8</ele>
        <time>2019-05-31T11:29:35Z</time>
      </trkpt>
      <trkpt lat="44.10916" lon="3.20743">
        <ele>658.7</ele>
        <time>2019-05-31T11:29:36Z</time>
      </trkpt>
      <trkpt lat="44.10911" lon="3.20745">
        <ele>658.7</ele>
        <time>2019-05-31T11:29:37Z</time>
      </trkpt>
      <trkpt lat="44.10908" lon="3.2075">
        <ele>658.7</ele>
        <time>2019-05-31T11:29:38Z</time>
      </trkpt>
      <trkpt lat="44.10905" lon="3.20754">
        <ele>658.6</ele>
        <time>2019-05-31T11:29:39Z</time>
      </trkpt>
      <trkpt lat="44.109" lon="3.20758">
        <ele>658.6</ele>
        <time>2019-05-31T11:29:40Z</time>
      </trkpt>
      <trkpt lat="44.10899" lon="3.20764">
        <ele>658.6</ele>
        <time>2019-05-31T11:29:41Z</time>
      </trkpt>
      <trkpt lat="44.10897" lon="3.20771">
        <ele>658.6</ele>
        <time>2019-05-31T11:29:42Z</time>
      </trkpt>
      <trkpt lat="44.10893" lon="3.20777">
        <ele>658.5</ele>
        <time>2019-05-31T11:29:43Z</time>
      </trkpt>
      <trkpt lat="44.10888" lon="3.20782">
        <ele>658.5</ele>
        <time>2019-05-31T11:29:44Z</time>
      </trkpt>
      <trkpt lat="44.10884" lon="3.20791">
        <ele>658.4</ele>
        <time>2019-05-31T11:29:45Z</time>
      </trkpt>
      <trkpt lat="44.1088" lon="3.20795">
        <ele>658.4</ele>
        <time>2019-05-31T11:29:46Z</time>
      </trkpt>
      <trkpt lat="44.10883" lon="3.208">
        <ele>658.4</ele>
        <time>2019-05-31T11:29:47Z</time>
      </trkpt>
      <trkpt lat="44.10876" lon="3.20807">
        <ele>658.3</ele>
        <time>2019-05-31T11:29:48Z</time>
      </trkpt>
      <trkpt lat="44.10871" lon="3.20811">
        <ele>658.2</ele>
        <time>2019-05-31T11:29:49Z</time>
      </trkpt>
      <trkpt lat="44.10867" lon="3.20817">
        <ele>658.1</ele>
        <time>2019-05-31T11:29:50Z</time>
      </trkpt>
      <trkpt lat="44.10859" lon="3.20822">
        <ele>657.9</ele>
        <time>2019-05-31T11:29:51Z</time>
      </trkpt>
      <trkpt lat="44.10856" lon="3.20826">
        <ele>658</ele>
        <time>2019-05-31T11:29:52Z</time>
      </trkpt>
      <trkpt lat="44.10852" lon="3.2083">
        <ele>658.1</ele>
        <time>2019-05-31T11:29:53Z</time>
      </trkpt>
      <trkpt lat="44.10847" lon="3.20829">
        <ele>658.2</ele>
        <time>2019-05-31T11:29:54Z</time>
      </trkpt>
      <trkpt lat="44.10843" lon="3.20833">
        <ele>658.4</ele>
        <time>2019-05-31T11:29:55Z</time>
      </trkpt>
      <trkpt lat="44.10839" lon="3.20835">
        <ele>658.5</ele>
        <time>2019-05-31T11:29:56Z</time>
      </trkpt>
      <trkpt lat="44.10833" lon="3.20836">
        <ele>658.6</ele>
        <time>2019-05-31T11:29:57Z</time>
      </trkpt>
      <trkpt lat="44.10829" lon="3.20838">
        <ele>658.7</ele>
        <time>2019-05-31T11:29:58Z</time>
      </trkpt>
      <trkpt lat="44.10826" lon="3.20843">
        <ele>658.9</ele>
        <time>2019-05-31T11:29:59Z</time>
      </trkpt>
      <trkpt lat="44.10824" lon="3.20851">
        <ele>659</ele>
        <time>2019-05-31T11:30:01Z</time>
      </trkpt>
      <trkpt lat="44.10826" lon="3.20861">
        <ele>659.4</ele>
        <time>2019-05-31T11:30:02Z</time>
      </trkpt>
      <trkpt lat="44.10832" lon="3.20864">
        <ele>659.8</ele>
        <time>2019-05-31T11:30:03Z</time>
      </trkpt>
      <trkpt lat="44.10836" lon="3.2087">
        <ele>660.3</ele>
        <time>2019-05-31T11:30:06Z</time>
      </trkpt>
      <trkpt lat="44.10838" lon="3.20873">
        <ele>660.5</ele>
        <time>2019-05-31T11:30:07Z</time>
      </trkpt>
      <trkpt lat="44.1084" lon="3.20877">
        <ele>660.7</ele>
        <time>2019-05-31T11:30:08Z</time>
      </trkpt>
      <trkpt lat="44.10843" lon="3.20881">
        <ele>661.1</ele>
        <time>2019-05-31T11:30:10Z</time>
      </trkpt>
      <trkpt lat="44.10846" lon="3.20884">
        <ele>661.4</ele>
        <time>2019-05-31T11:30:12Z</time>
      </trkpt>
      <trkpt lat="44.10848" lon="3.20888">
        <ele>661.7</ele>
        <time>2019-05-31T11:30:14Z</time>
      </trkpt>
      <trkpt lat="44.10851" lon="3.20889">
        <ele>662.1</ele>
        <time>2019-05-31T11:30:16Z</time>
      </trkpt>
      <trkpt lat="44.10853" lon="3.20893">
        <ele>662.3</ele>
        <time>2019-05-31T11:30:19Z</time>
      </trkpt>
      <trkpt lat="44.10855" lon="3.20897">
        <ele>662.8</ele>
        <time>2019-05-31T11:30:22Z</time>
      </trkpt>
      <trkpt lat="44.10857" lon="3.209">
        <ele>663.1</ele>
        <time>2019-05-31T11:30:24Z</time>
      </trkpt>
      <trkpt lat="44.10859" lon="3.20905">
        <ele>663.3</ele>
        <time>2019-05-31T11:30:27Z</time>
      </trkpt>
      <trkpt lat="44.1086" lon="3.20909">
        <ele>663.5</ele>
        <time>2019-05-31T11:30:29Z</time>
      </trkpt>
      <trkpt lat="44.10861" lon="3.20914">
        <ele>663.7</ele>
        <time>2019-05-31T11:30:31Z</time>
      </trkpt>
      <trkpt lat="44.10864" lon="3.20919">
        <ele>664</ele>
        <time>2019-05-31T11:30:33Z</time>
      </trkpt>
      <trkpt lat="44.10866" lon="3.20923">
        <ele>664.3</ele>
        <time>2019-05-31T11:30:35Z</time>
      </trkpt>
      <trkpt lat="44.10869" lon="3.20928">
        <ele>664.7</ele>
        <time>2019-05-31T11:30:37Z</time>
      </trkpt>
      <trkpt lat="44.1087" lon="3.20932">
        <ele>664.9</ele>
        <time>2019-05-31T11:30:39Z</time>
      </trkpt>
      <trkpt lat="44.10871" lon="3.20936">
        <ele>665.2</ele>
        <time>2019-05-31T11:30:41Z</time>
      </trkpt>
      <trkpt lat="44.10872" lon="3.2094">
        <ele>665.5</ele>
        <time>2019-05-31T11:30:43Z</time>
      </trkpt>
      <trkpt lat="44.10874" lon="3.20946">
        <ele>665.9</ele>
        <time>2019-05-31T11:30:46Z</time>
      </trkpt>
      <trkpt lat="44.10875" lon="3.20951">
        <ele>666.3</ele>
        <time>2019-05-31T11:30:49Z</time>
      </trkpt>
      <trkpt lat="44.10876" lon="3.20956">
        <ele>666.7</ele>
        <time>2019-05-31T11:30:51Z</time>
      </trkpt>
      <trkpt lat="44.10877" lon="3.20961">
        <ele>667.1</ele>
        <time>2019-05-31T11:30:53Z</time>
      </trkpt>
      <trkpt lat="44.10879" lon="3.20967">
        <ele>667.4</ele>
        <time>2019-05-31T11:30:55Z</time>
      </trkpt>
      <trkpt lat="44.10881" lon="3.20973">
        <ele>667.7</ele>
        <time>2019-05-31T11:30:57Z</time>
      </trkpt>
      <trkpt lat="44.10883" lon="3.20979">
        <ele>668.1</ele>
        <time>2019-05-31T11:30:59Z</time>
      </trkpt>
      <trkpt lat="44.10884" lon="3.20984">
        <ele>668.5</ele>
        <time>2019-05-31T11:31:01Z</time>
      </trkpt>
      <trkpt lat="44.10886" lon="3.20989">
        <ele>668.8</ele>
        <time>2019-05-31T11:31:03Z</time>
      </trkpt>
      <trkpt lat="44.10888" lon="3.20992">
        <ele>669</ele>
        <time>2019-05-31T11:31:05Z</time>
      </trkpt>
      <trkpt lat="44.1089" lon="3.20996">
        <ele>669.2</ele>
        <time>2019-05-31T11:31:07Z</time>
      </trkpt>
      <trkpt lat="44.10892" lon="3.20999">
        <ele>669.4</ele>
        <time>2019-05-31T11:31:10Z</time>
      </trkpt>
      <trkpt lat="44.10893" lon="3.21003">
        <ele>669.6</ele>
        <time>2019-05-31T11:31:12Z</time>
      </trkpt>
      <trkpt lat="44.10896" lon="3.21008">
        <ele>669.8</ele>
        <time>2019-05-31T11:31:14Z</time>
      </trkpt>
      <trkpt lat="44.10898" lon="3.21012">
        <ele>670.1</ele>
        <time>2019-05-31T11:31:16Z</time>
      </trkpt>
      <trkpt lat="44.10899" lon="3.21016">
        <ele>670.3</ele>
        <time>2019-05-31T11:31:18Z</time>
      </trkpt>
      <trkpt lat="44.10901" lon="3.21021">
        <ele>670.5</ele>
        <time>2019-05-31T11:31:21Z</time>
      </trkpt>
      <trkpt lat="44.10902" lon="3.21024">
        <ele>670.7</ele>
        <time>2019-05-31T11:31:23Z</time>
      </trkpt>
      <trkpt lat="44.10902" lon="3.21029">
        <ele>670.9</ele>
        <time>2019-05-31T11:31:25Z</time>
      </trkpt>
      <trkpt lat="44.10902" lon="3.21035">
        <ele>671.1</ele>
        <time>2019-05-31T11:31:27Z</time>
      </trkpt>
      <trkpt lat="44.10902" lon="3.21039">
        <ele>671.3</ele>
        <time>2019-05-31T11:31:29Z</time>
      </trkpt>
      <trkpt lat="44.10904" lon="3.21045">
        <ele>671.5</ele>
        <time>2019-05-31T11:31:31Z</time>
      </trkpt>
      <trkpt lat="44.10905" lon="3.21052">
        <ele>671.8</ele>
        <time>2019-05-31T11:31:33Z</time>
      </trkpt>
      <trkpt lat="44.10906" lon="3.21057">
        <ele>672.1</ele>
        <time>2019-05-31T11:31:35Z</time>
      </trkpt>
      <trkpt lat="44.10906" lon="3.21061">
        <ele>672.3</ele>
        <time>2019-05-31T11:31:37Z</time>
      </trkpt>
      <trkpt lat="44.10905" lon="3.21065">
        <ele>672.5</ele>
        <time>2019-05-31T11:31:40Z</time>
      </trkpt>
      <trkpt lat="44.10905" lon="3.21071">
        <ele>672.8</ele>
        <time>2019-05-31T11:31:43Z</time>
      </trkpt>
      <trkpt lat="44.10904" lon="3.21075">
        <ele>673.1</ele>
        <time>2019-05-31T11:31:45Z</time>
      </trkpt>
      <trkpt lat="44.10902" lon="3.2108">
        <ele>673.4</ele>
        <time>2019-05-31T11:31:47Z</time>
      </trkpt>
      <trkpt lat="44.10901" lon="3.21084">
        <ele>673.6</ele>
        <time>2019-05-31T11:31:49Z</time>
      </trkpt>
      <trkpt lat="44.10899" lon="3.21088">
        <ele>673.9</ele>
        <time>2019-05-31T11:31:52Z</time>
      </trkpt>
      <trkpt lat="44.10897" lon="3.21091">
        <ele>674.4</ele>
        <time>2019-05-31T11:31:55Z</time>
      </trkpt>
      <trkpt lat="44.10895" lon="3.21095">
        <ele>674.8</ele>
        <time>2019-05-31T11:31:57Z</time>
      </trkpt>
      <trkpt lat="44.10895" lon="3.21099">
        <ele>675.3</ele>
        <time>2019-05-31T11:31:59Z</time>
      </trkpt>
      <trkpt lat="44.10894" lon="3.21103">
        <ele>675.6</ele>
        <time>2019-05-31T11:32:01Z</time>
      </trkpt>
      <trkpt lat="44.10893" lon="3.21106">
        <ele>676</ele>
        <time>2019-05-31T11:32:03Z</time>
      </trkpt>
      <trkpt lat="44.10893" lon="3.21113">
        <ele>676.6</ele>
        <time>2019-05-31T11:32:05Z</time>
      </trkpt>
      <trkpt lat="44.10893" lon="3.2112">
        <ele>677.2</ele>
        <time>2019-05-31T11:32:07Z</time>
      </trkpt>
      <trkpt lat="44.10893" lon="3.21124">
        <ele>677.5</ele>
        <time>2019-05-31T11:32:08Z</time>
      </trkpt>
      <trkpt lat="44.10893" lon="3.21127">
        <ele>677.9</ele>
        <time>2019-05-31T11:32:09Z</time>
      </trkpt>
      <trkpt lat="44.10893" lon="3.21134">
        <ele>678.3</ele>
        <time>2019-05-31T11:32:11Z</time>
      </trkpt>
      <trkpt lat="44.10893" lon="3.21139">
        <ele>678.8</ele>
        <time>2019-05-31T11:32:13Z</time>
      </trkpt>
      <trkpt lat="44.10895" lon="3.21144">
        <ele>679.1</ele>
        <time>2019-05-31T11:32:15Z</time>
      </trkpt>
      <trkpt lat="44.10897" lon="3.2115">
        <ele>679.6</ele>
        <time>2019-05-31T11:32:17Z</time>
      </trkpt>
      <trkpt lat="44.10899" lon="3.21157">
        <ele>680.1</ele>
        <time>2019-05-31T11:32:19Z</time>
      </trkpt>
      <trkpt lat="44.109" lon="3.21163">
        <ele>680.5</ele>
        <time>2019-05-31T11:32:21Z</time>
      </trkpt>
      <trkpt lat="44.109" lon="3.2117">
        <ele>681.2</ele>
        <time>2019-05-31T11:32:23Z</time>
      </trkpt>
      <trkpt lat="44.10901" lon="3.21174">
        <ele>681.5</ele>
        <time>2019-05-31T11:32:24Z</time>
      </trkpt>
      <trkpt lat="44.10901" lon="3.21179">
        <ele>681.9</ele>
        <time>2019-05-31T11:32:26Z</time>
      </trkpt>
      <trkpt lat="44.109" lon="3.21186">
        <ele>682.3</ele>
        <time>2019-05-31T11:32:28Z</time>
      </trkpt>
      <trkpt lat="44.10901" lon="3.21193">
        <ele>682.8</ele>
        <time>2019-05-31T11:32:30Z</time>
      </trkpt>
      <trkpt lat="44.10901" lon="3.21198">
        <ele>683.2</ele>
        <time>2019-05-31T11:32:32Z</time>
      </trkpt>
      <trkpt lat="44.10901" lon="3.21204">
        <ele>683.7</ele>
        <time>2019-05-31T11:32:34Z</time>
      </trkpt>
      <trkpt lat="44.10901" lon="3.2121">
        <ele>684.2</ele>
        <time>2019-05-31T11:32:36Z</time>
      </trkpt>
      <trkpt lat="44.10901" lon="3.21215">
        <ele>684.7</ele>
        <time>2019-05-31T11:32:38Z</time>
      </trkpt>
      <trkpt lat="44.10902" lon="3.21222">
        <ele>685.3</ele>
        <time>2019-05-31T11:32:40Z</time>
      </trkpt>
      <trkpt lat="44.10903" lon="3.21228">
        <ele>685.8</ele>
        <time>2019-05-31T11:32:42Z</time>
      </trkpt>
      <trkpt lat="44.10903" lon="3.21234">
        <ele>686.2</ele>
        <time>2019-05-31T11:32:44Z</time>
      </trkpt>
      <trkpt lat="44.10904" lon="3.21239">
        <ele>686.6</ele>
        <time>2019-05-31T11:32:46Z</time>
      </trkpt>
      <trkpt lat="44.10905" lon="3.21244">
        <ele>686.9</ele>
        <time>2019-05-31T11:32:48Z</time>
      </trkpt>
      <trkpt lat="44.10905" lon="3.2125">
        <ele>687.3</ele>
        <time>2019-05-31T11:32:50Z</time>
      </trkpt>
      <trkpt lat="44.10905" lon="3.21256">
        <ele>687.5</ele>
        <time>2019-05-31T11:32:52Z</time>
      </trkpt>
      <trkpt lat="44.10906" lon="3.21261">
        <ele>687.6</ele>
        <time>2019-05-31T11:32:54Z</time>
      </trkpt>
      <trkpt lat="44.10907" lon="3.21267">
        <ele>687.8</ele>
        <time>2019-05-31T11:32:56Z</time>
      </trkpt>
      <trkpt lat="44.10907" lon="3.21272">
        <ele>687.9</ele>
        <time>2019-05-31T11:32:58Z</time>
      </trkpt>
      <trkpt lat="44.10905" lon="3.21275">
        <ele>687.9</ele>
        <time>2019-05-31T11:33:00Z</time>
      </trkpt>
      <trkpt lat="44.10905" lon="3.2128">
        <ele>687.9</ele>
        <time>2019-05-31T11:33:02Z</time>
      </trkpt>
      <trkpt lat="44.10906" lon="3.21287">
        <ele>688</ele>
        <time>2019-05-31T11:33:04Z</time>
      </trkpt>
      <trkpt lat="44.10905" lon="3.21292">
        <ele>688</ele>
        <time>2019-05-31T11:33:06Z</time>
      </trkpt>
      <trkpt lat="44.10905" lon="3.21298">
        <ele>687.9</ele>
        <time>2019-05-31T11:33:08Z</time>
      </trkpt>
      <trkpt lat="44.10905" lon="3.21305">
        <ele>687.9</ele>
        <time>2019-05-31T11:33:10Z</time>
      </trkpt>
      <trkpt lat="44.10904" lon="3.21313">
        <ele>687.9</ele>
        <time>2019-05-31T11:33:12Z</time>
      </trkpt>
      <trkpt lat="44.10904" lon="3.21317">
        <ele>687.8</ele>
        <time>2019-05-31T11:33:13Z</time>
      </trkpt>
      <trkpt lat="44.10903" lon="3.21321">
        <ele>687.8</ele>
        <time>2019-05-31T11:33:14Z</time>
      </trkpt>
      <trkpt lat="44.10902" lon="3.21326">
        <ele>687.7</ele>
        <time>2019-05-31T11:33:15Z</time>
      </trkpt>
      <trkpt lat="44.10901" lon="3.21331">
        <ele>687.7</ele>
        <time>2019-05-31T11:33:16Z</time>
      </trkpt>
      <trkpt lat="44.10899" lon="3.21335">
        <ele>687.6</ele>
        <time>2019-05-31T11:33:17Z</time>
      </trkpt>
      <trkpt lat="44.10898" lon="3.21339">
        <ele>687.6</ele>
        <time>2019-05-31T11:33:18Z</time>
      </trkpt>
      <trkpt lat="44.10896" lon="3.21343">
        <ele>687.5</ele>
        <time>2019-05-31T11:33:19Z</time>
      </trkpt>
      <trkpt lat="44.10895" lon="3.21347">
        <ele>687.4</ele>
        <time>2019-05-31T11:33:20Z</time>
      </trkpt>
      <trkpt lat="44.10894" lon="3.2135">
        <ele>687.4</ele>
        <time>2019-05-31T11:33:21Z</time>
      </trkpt>
      <trkpt lat="44.10893" lon="3.21354">
        <ele>687.3</ele>
        <time>2019-05-31T11:33:22Z</time>
      </trkpt>
      <trkpt lat="44.10891" lon="3.21358">
        <ele>687.2</ele>
        <time>2019-05-31T11:33:23Z</time>
      </trkpt>
      <trkpt lat="44.10889" lon="3.21362">
        <ele>687.1</ele>
        <time>2019-05-31T11:33:24Z</time>
      </trkpt>
      <trkpt lat="44.10887" lon="3.21367">
        <ele>686.9</ele>
        <time>2019-05-31T11:33:25Z</time>
      </trkpt>
      <trkpt lat="44.10885" lon="3.2137">
        <ele>686.8</ele>
        <time>2019-05-31T11:33:26Z</time>
      </trkpt>
      <trkpt lat="44.10883" lon="3.21374">
        <ele>686.6</ele>
        <time>2019-05-31T11:33:27Z</time>
      </trkpt>
      <trkpt lat="44.1088" lon="3.21377">
        <ele>686.5</ele>
        <time>2019-05-31T11:33:28Z</time>
      </trkpt>
      <trkpt lat="44.10878" lon="3.2138">
        <ele>686.3</ele>
        <time>2019-05-31T11:33:29Z</time>
      </trkpt>
      <trkpt lat="44.10876" lon="3.21384">
        <ele>686</ele>
        <time>2019-05-31T11:33:30Z</time>
      </trkpt>
      <trkpt lat="44.10874" lon="3.21388">
        <ele>685.8</ele>
        <time>2019-05-31T11:33:31Z</time>
      </trkpt>
      <trkpt lat="44.10871" lon="3.21392">
        <ele>685.6</ele>
        <time>2019-05-31T11:33:32Z</time>
      </trkpt>
      <trkpt lat="44.10869" lon="3.21395">
        <ele>685.4</ele>
        <time>2019-05-31T11:33:33Z</time>
      </trkpt>
      <trkpt lat="44.10867" lon="3.21398">
        <ele>685.3</ele>
        <time>2019-05-31T11:33:34Z</time>
      </trkpt>
      <trkpt lat="44.10865" lon="3.21401">
        <ele>685.1</ele>
        <time>2019-05-31T11:33:35Z</time>
      </trkpt>
      <trkpt lat="44.10863" lon="3.21405">
        <ele>685</ele>
        <time>2019-05-31T11:33:36Z</time>
      </trkpt>
      <trkpt lat="44.10861" lon="3.21409">
        <ele>684.9</ele>
        <time>2019-05-31T11:33:37Z</time>
      </trkpt>
      <trkpt lat="44.10858" lon="3.21412">
        <ele>684.7</ele>
        <time>2019-05-31T11:33:38Z</time>
      </trkpt>
      <trkpt lat="44.10856" lon="3.21414">
        <ele>684.6</ele>
        <time>2019-05-31T11:33:39Z</time>
      </trkpt>
      <trkpt lat="44.10851" lon="3.21418">
        <ele>684.4</ele>
        <time>2019-05-31T11:33:41Z</time>
      </trkpt>
      <trkpt lat="44.10848" lon="3.21421">
        <ele>684.3</ele>
        <time>2019-05-31T11:33:42Z</time>
      </trkpt>
      <trkpt lat="44.10846" lon="3.21424">
        <ele>684.2</ele>
        <time>2019-05-31T11:33:43Z</time>
      </trkpt>
      <trkpt lat="44.10841" lon="3.2143">
        <ele>684</ele>
        <time>2019-05-31T11:33:45Z</time>
      </trkpt>
      <trkpt lat="44.10839" lon="3.21433">
        <ele>684</ele>
        <time>2019-05-31T11:33:46Z</time>
      </trkpt>
      <trkpt lat="44.10836" lon="3.21436">
        <ele>683.8</ele>
        <time>2019-05-31T11:33:47Z</time>
      </trkpt>
      <trkpt lat="44.10833" lon="3.21439">
        <ele>683.7</ele>
        <time>2019-05-31T11:33:48Z</time>
      </trkpt>
      <trkpt lat="44.1083" lon="3.21441">
        <ele>683.6</ele>
        <time>2019-05-31T11:33:49Z</time>
      </trkpt>
      <trkpt lat="44.10827" lon="3.21445">
        <ele>683.5</ele>
        <time>2019-05-31T11:33:50Z</time>
      </trkpt>
      <trkpt lat="44.10825" lon="3.21448">
        <ele>683.3</ele>
        <time>2019-05-31T11:33:51Z</time>
      </trkpt>
      <trkpt lat="44.10822" lon="3.21453">
        <ele>683.2</ele>
        <time>2019-05-31T11:33:52Z</time>
      </trkpt>
      <trkpt lat="44.10819" lon="3.21458">
        <ele>683</ele>
        <time>2019-05-31T11:33:53Z</time>
      </trkpt>
      <trkpt lat="44.10817" lon="3.21462">
        <ele>682.9</ele>
        <time>2019-05-31T11:33:54Z</time>
      </trkpt>
      <trkpt lat="44.10815" lon="3.21466">
        <ele>682.8</ele>
        <time>2019-05-31T11:33:55Z</time>
      </trkpt>
      <trkpt lat="44.10813" lon="3.2147">
        <ele>682.8</ele>
        <time>2019-05-31T11:33:56Z</time>
      </trkpt>
      <trkpt lat="44.10811" lon="3.21473">
        <ele>682.8</ele>
        <time>2019-05-31T11:33:57Z</time>
      </trkpt>
      <trkpt lat="44.10808" lon="3.21475">
        <ele>682.8</ele>
        <time>2019-05-31T11:33:58Z</time>
      </trkpt>
      <trkpt lat="44.10804" lon="3.21477">
        <ele>682.8</ele>
        <time>2019-05-31T11:33:59Z</time>
      </trkpt>
      <trkpt lat="44.10802" lon="3.21479">
        <ele>682.9</ele>
        <time>2019-05-31T11:34:00Z</time>
      </trkpt>
      <trkpt lat="44.10798" lon="3.2148">
        <ele>682.9</ele>
        <time>2019-05-31T11:34:02Z</time>
      </trkpt>
      <trkpt lat="44.10795" lon="3.21481">
        <ele>683</ele>
        <time>2019-05-31T11:34:03Z</time>
      </trkpt>
      <trkpt lat="44.10791" lon="3.21482">
        <ele>683.2</ele>
        <time>2019-05-31T11:34:05Z</time>
      </trkpt>
      <trkpt lat="44.10787" lon="3.21483">
        <ele>683.5</ele>
        <time>2019-05-31T11:34:07Z</time>
      </trkpt>
      <trkpt lat="44.10784" lon="3.21486">
        <ele>683.7</ele>
        <time>2019-05-31T11:34:09Z</time>
      </trkpt>
      <trkpt lat="44.10782" lon="3.21488">
        <ele>684.1</ele>
        <time>2019-05-31T11:34:11Z</time>
      </trkpt>
      <trkpt lat="44.10779" lon="3.21489">
        <ele>684.4</ele>
        <time>2019-05-31T11:34:13Z</time>
      </trkpt>
      <trkpt lat="44.10775" lon="3.21488">
        <ele>685</ele>
        <time>2019-05-31T11:34:15Z</time>
      </trkpt>
      <trkpt lat="44.1077" lon="3.21487">
        <ele>685.7</ele>
        <time>2019-05-31T11:34:17Z</time>
      </trkpt>
      <trkpt lat="44.10767" lon="3.21487">
        <ele>686.3</ele>
        <time>2019-05-31T11:34:19Z</time>
      </trkpt>
      <trkpt lat="44.10764" lon="3.21488">
        <ele>686.7</ele>
        <time>2019-05-31T11:34:22Z</time>
      </trkpt>
      <trkpt lat="44.10761" lon="3.21488">
        <ele>687.1</ele>
        <time>2019-05-31T11:34:24Z</time>
      </trkpt>
      <trkpt lat="44.10757" lon="3.21487">
        <ele>687.6</ele>
        <time>2019-05-31T11:34:26Z</time>
      </trkpt>
      <trkpt lat="44.10754" lon="3.21485">
        <ele>688.2</ele>
        <time>2019-05-31T11:34:29Z</time>
      </trkpt>
      <trkpt lat="44.1075" lon="3.21483">
        <ele>688.5</ele>
        <time>2019-05-31T11:34:31Z</time>
      </trkpt>
      <trkpt lat="44.10746" lon="3.21482">
        <ele>688.8</ele>
        <time>2019-05-31T11:34:33Z</time>
      </trkpt>
      <trkpt lat="44.10743" lon="3.21482">
        <ele>689.1</ele>
        <time>2019-05-31T11:34:35Z</time>
      </trkpt>
      <trkpt lat="44.10737" lon="3.21483">
        <ele>689.5</ele>
        <time>2019-05-31T11:34:37Z</time>
      </trkpt>
      <trkpt lat="44.10732" lon="3.21484">
        <ele>690.1</ele>
        <time>2019-05-31T11:34:39Z</time>
      </trkpt>
      <trkpt lat="44.10728" lon="3.21485">
        <ele>690.5</ele>
        <time>2019-05-31T11:34:41Z</time>
      </trkpt>
      <trkpt lat="44.10723" lon="3.21485">
        <ele>691</ele>
        <time>2019-05-31T11:34:43Z</time>
      </trkpt>
      <trkpt lat="44.10718" lon="3.21486">
        <ele>691.5</ele>
        <time>2019-05-31T11:34:45Z</time>
      </trkpt>
      <trkpt lat="44.10712" lon="3.21487">
        <ele>692.1</ele>
        <time>2019-05-31T11:34:47Z</time>
      </trkpt>
      <trkpt lat="44.10708" lon="3.21488">
        <ele>692.4</ele>
        <time>2019-05-31T11:34:48Z</time>
      </trkpt>
      <trkpt lat="44.10705" lon="3.21488">
        <ele>692.6</ele>
        <time>2019-05-31T11:34:49Z</time>
      </trkpt>
      <trkpt lat="44.10701" lon="3.21488">
        <ele>692.9</ele>
        <time>2019-05-31T11:34:51Z</time>
      </trkpt>
      <trkpt lat="44.10697" lon="3.21489">
        <ele>693.2</ele>
        <time>2019-05-31T11:34:53Z</time>
      </trkpt>
      <trkpt lat="44.10694" lon="3.21489">
        <ele>693.6</ele>
        <time>2019-05-31T11:34:55Z</time>
      </trkpt>
      <trkpt lat="44.10689" lon="3.21488">
        <ele>694</ele>
        <time>2019-05-31T11:34:57Z</time>
      </trkpt>
      <trkpt lat="44.10686" lon="3.21485">
        <ele>694.2</ele>
        <time>2019-05-31T11:34:59Z</time>
      </trkpt>
      <trkpt lat="44.10682" lon="3.21484">
        <ele>694.4</ele>
        <time>2019-05-31T11:35:03Z</time>
      </trkpt>
      <trkpt lat="44.10679" lon="3.21484">
        <ele>694.6</ele>
        <time>2019-05-31T11:35:05Z</time>
      </trkpt>
      <trkpt lat="44.10675" lon="3.21483">
        <ele>694.8</ele>
        <time>2019-05-31T11:35:07Z</time>
      </trkpt>
      <trkpt lat="44.10672" lon="3.21484">
        <ele>695</ele>
        <time>2019-05-31T11:35:09Z</time>
      </trkpt>
      <trkpt lat="44.10666" lon="3.21485">
        <ele>695.3</ele>
        <time>2019-05-31T11:35:11Z</time>
      </trkpt>
      <trkpt lat="44.10645" lon="3.21495">
        <ele>692</ele>
      </trkpt>
      <trkpt lat="44.10647" lon="3.21519">
        <ele>690.4</ele>
      </trkpt>
      <trkpt lat="44.10653" lon="3.21553">
        <ele>688.1</ele>
      </trkpt>
      <trkpt lat="44.10676" lon="3.21612">
        <ele>685.7</ele>
      </trkpt>
      <trkpt lat="44.10729" lon="3.21693">
        <ele>689.2</ele>
      </trkpt>
      <trkpt lat="44.1077" lon="3.21706">
        <ele>690.4</ele>
      </trkpt>
      <trkpt lat="44.10782" lon="3.21719">
        <ele>691.7</ele>
      </trkpt>
      <trkpt lat="44.10783" lon="3.21745">
        <ele>693.5</ele>
      </trkpt>
      <trkpt lat="44.10796" lon="3.21752">
        <ele>693.3</ele>
      </trkpt>
      <trkpt lat="44.10801" lon="3.21793">
        <ele>691.7</ele>
      </trkpt>
      <trkpt lat="44.10822" lon="3.21811">
        <ele>689.6</ele>
      </trkpt>
      <trkpt lat="44.10831" lon="3.21834">
        <ele>686.9</ele>
      </trkpt>
      <trkpt lat="44.10834" lon="3.21853">
        <ele>684.9</ele>
      </trkpt>
      <trkpt lat="44.10837" lon="3.21863">
        <ele>684</ele>
      </trkpt>
      <trkpt lat="44.10923" lon="3.21939">
        <ele>688.8</ele>
      </trkpt>
      <trkpt lat="44.10959" lon="3.21994">
        <ele>692.6</ele>
      </trkpt>
      <trkpt lat="44.10972" lon="3.22027">
        <ele>693.1</ele>
      </trkpt>
      <trkpt lat="44.11017" lon="3.22053">
        <ele>695.8</ele>
      </trkpt>
      <trkpt lat="44.11029" lon="3.22081">
        <ele>695.3</ele>
      </trkpt>
      <trkpt lat="44.11028" lon="3.221">
        <ele>695.6</ele>
      </trkpt>
      <trkpt lat="44.11022" lon="3.22125">
        <ele>696.7</ele>
      </trkpt>
      <trkpt lat="44.1102" lon="3.22178">
        <ele>702</ele>
      </trkpt>
      <trkpt lat="44.11015" lon="3.222">
        <ele>703.2</ele>
      </trkpt>
      <trkpt lat="44.11015" lon="3.22221">
        <ele>705.6</ele>
      </trkpt>
      <trkpt lat="44.10989" lon="3.22442">
        <ele>723.3</ele>
      </trkpt>
      <trkpt lat="44.10984" lon="3.22566">
        <ele>735.3</ele>
      </trkpt>
      <trkpt lat="44.10966" lon="3.22639">
        <ele>736.8</ele>
      </trkpt>
      <trkpt lat="44.10969" lon="3.22675">
        <ele>738.2</ele>
      </trkpt>
      <trkpt lat="44.10964" lon="3.22694">
        <ele>741.1</ele>
      </trkpt>
      <trkpt lat="44.10935" lon="3.22745">
        <ele>743.1</ele>
      </trkpt>
      <trkpt lat="44.10893" lon="3.22778">
        <ele>747.4</ele>
      </trkpt>
      <trkpt lat="44.10856" lon="3.22859">
        <ele>743.4</ele>
      </trkpt>
      <trkpt lat="44.1085" lon="3.22893">
        <ele>741.5</ele>
      </trkpt>
      <trkpt lat="44.10851" lon="3.23006">
        <ele>740.5</ele>
      </trkpt>
      <trkpt lat="44.10842" lon="3.23025">
        <ele>741.6</ele>
      </trkpt>
      <trkpt lat="44.10814" lon="3.23125">
        <ele>745.8</ele>
      </trkpt>
      <trkpt lat="44.10806" lon="3.23203">
        <ele>754.9</ele>
      </trkpt>
      <trkpt lat="44.10794" lon="3.23275">
        <ele>761.9</ele>
      </trkpt>
      <trkpt lat="44.108" lon="3.23371">
        <ele>768.5</ele>
      </trkpt>
      <trkpt lat="44.10801" lon="3.23492">
        <ele>778.5</ele>
      </trkpt>
      <trkpt lat="44.1082" lon="3.23489">
        <ele>777</ele>
      </trkpt>
      <trkpt lat="44.10833" lon="3.235">
        <ele>777</ele>
      </trkpt>
      <trkpt lat="44.10853" lon="3.23532">
        <ele>776.2</ele>
      </trkpt>
      <trkpt lat="44.10908" lon="3.23532">
        <ele>772.5</ele>
      </trkpt>
      <trkpt lat="44.10925" lon="3.23527">
        <ele>771.1</ele>
      </trkpt>
      <trkpt lat="44.10948" lon="3.23616">
        <ele>765.6</ele>
      </trkpt>
      <trkpt lat="44.10962" lon="3.23708">
        <ele>765.1</ele>
      </trkpt>
      <trkpt lat="44.10945" lon="3.23771">
        <ele>766.7</ele>
      </trkpt>
      <trkpt lat="44.10926" lon="3.23918">
        <ele>773.3</ele>
      </trkpt>
      <trkpt lat="44.10901" lon="3.24007">
        <ele>773.4</ele>
      </trkpt>
      <trkpt lat="44.10927" lon="3.24104">
        <ele>771.6</ele>
      </trkpt>
      <trkpt lat="44.10915" lon="3.24155">
        <ele>767.6</ele>
      </trkpt>
      <trkpt lat="44.10905" lon="3.2417">
        <ele>765.7</ele>
      </trkpt>
      <trkpt lat="44.10903" lon="3.24213">
        <ele>764.8</ele>
      </trkpt>
      <trkpt lat="44.10909" lon="3.24238">
        <ele>765</ele>
      </trkpt>
      <trkpt lat="44.10899" lon="3.24266">
        <ele>764.2</ele>
      </trkpt>
      <trkpt lat="44.10899" lon="3.24279">
        <ele>763.9</ele>
      </trkpt>
      <trkpt lat="44.10906" lon="3.2429">
        <ele>762.3</ele>
      </trkpt>
      <trkpt lat="44.10925" lon="3.24284">
        <ele>763.3</ele>
      </trkpt>
      <trkpt lat="44.10942" lon="3.2429">
        <ele>763.5</ele>
      </trkpt>
      <trkpt lat="44.10957" lon="3.24306">
        <ele>763.3</ele>
      </trkpt>
      <trkpt lat="44.10967" lon="3.24309">
        <ele>763.8</ele>
      </trkpt>
      <trkpt lat="44.11005" lon="3.24289">
        <ele>767.6</ele>
      </trkpt>
      <trkpt lat="44.11044" lon="3.24273">
        <ele>770.3</ele>
      </trkpt>
      <trkpt lat="44.11081" lon="3.24259">
        <ele>770</ele>
      </trkpt>
      <trkpt lat="44.11111" lon="3.24264">
        <ele>767.5</ele>
      </trkpt>
      <trkpt lat="44.11133" lon="3.24278">
        <ele>764.1</ele>
      </trkpt>
      <trkpt lat="44.1115" lon="3.24281">
        <ele>760.3</ele>
      </trkpt>
      <trkpt lat="44.11156" lon="3.24287">
        <ele>757.1</ele>
      </trkpt>
      <trkpt lat="44.1119" lon="3.24305">
        <ele>747.5</ele>
      </trkpt>
      <trkpt lat="44.112" lon="3.2433">
        <ele>739.3</ele>
      </trkpt>
      <trkpt lat="44.11211" lon="3.24324">
        <ele>737.5</ele>
      </trkpt>
      <trkpt lat="44.11277" lon="3.24247">
        <ele>735.8</ele>
      </trkpt>
      <trkpt lat="44.11311" lon="3.24233">
        <ele>726</ele>
      </trkpt>
      <trkpt lat="44.11317" lon="3.24232">
        <ele>723.1</ele>
      </trkpt>
      <trkpt lat="44.11338" lon="3.24209">
        <ele>717.3</ele>
      </trkpt>
      <trkpt lat="44.11333" lon="3.24243">
        <ele>709.9</ele>
      </trkpt>
      <trkpt lat="44.1136" lon="3.24218">
        <ele>701.1</ele>
      </trkpt>
      <trkpt lat="44.11358" lon="3.24234">
        <ele>698.7</ele>
      </trkpt>
      <trkpt lat="44.11358" lon="3.24251">
        <ele>693.5</ele>
      </trkpt>
      <trkpt lat="44.11377" lon="3.24212">
        <ele>689.6</ele>
      </trkpt>
      <trkpt lat="44.11378" lon="3.24245">
        <ele>683.2</ele>
      </trkpt>
      <trkpt lat="44.11373" lon="3.24269">
        <ele>679.7</ele>
      </trkpt>
      <trkpt lat="44.11395" lon="3.24234">
        <ele>674.6</ele>
      </trkpt>
      <trkpt lat="44.11403" lon="3.24239">
        <ele>668.6</ele>
      </trkpt>
      <trkpt lat="44.11419" lon="3.24232">
        <ele>660.9</ele>
      </trkpt>
      <trkpt lat="44.11422" lon="3.24243">
        <ele>656.5</ele>
      </trkpt>
      <trkpt lat="44.11418" lon="3.2432">
        <ele>645.8</ele>
      </trkpt>
      <trkpt lat="44.11442" lon="3.24274">
        <ele>634.1</ele>
      </trkpt>
      <trkpt lat="44.11448" lon="3.24288">
        <ele>627.9</ele>
      </trkpt>
      <trkpt lat="44.11464" lon="3.2428">
        <ele>620.6</ele>
      </trkpt>
      <trkpt lat="44.11462" lon="3.24291">
        <ele>618.9</ele>
      </trkpt>
      <trkpt lat="44.1151" lon="3.24274">
        <ele>607</ele>
      </trkpt>
      <trkpt lat="44.11542" lon="3.24267">
        <ele>598.5</ele>
      </trkpt>
      <trkpt lat="44.11541" lon="3.24252">
        <ele>598.1</ele>
      </trkpt>
      <trkpt lat="44.11572" lon="3.24273">
        <ele>588.9</ele>
      </trkpt>
      <trkpt lat="44.11608" lon="3.24303">
        <ele>580</ele>
      </trkpt>
      <trkpt lat="44.11638" lon="3.24309">
        <ele>572.3</ele>
      </trkpt>
      <trkpt lat="44.11645" lon="3.24306">
        <ele>569.3</ele>
      </trkpt>
      <trkpt lat="44.1165" lon="3.24317">
        <ele>565</ele>
      </trkpt>
      <trkpt lat="44.11644" lon="3.24328">
        <ele>565.3</ele>
      </trkpt>
      <trkpt lat="44.11663" lon="3.24323">
        <ele>558.4</ele>
      </trkpt>
      <trkpt lat="44.1166" lon="3.24298">
        <ele>557.2</ele>
      </trkpt>
      <trkpt lat="44.1167" lon="3.24295">
        <ele>550.2</ele>
      </trkpt>
      <trkpt lat="44.1168" lon="3.24319">
        <ele>549.3</ele>
      </trkpt>
      <trkpt lat="44.11688" lon="3.24323">
        <ele>545</ele>
      </trkpt>
      <trkpt lat="44.11683" lon="3.24286">
        <ele>538.7</ele>
      </trkpt>
      <trkpt lat="44.1173" lon="3.24325">
        <ele>525.1</ele>
      </trkpt>
      <trkpt lat="44.11747" lon="3.24349">
        <ele>519.2</ele>
      </trkpt>
      <trkpt lat="44.11745" lon="3.24362">
        <ele>518.6</ele>
      </trkpt>
      <trkpt lat="44.11743" lon="3.24363">
        <ele>518.7</ele>
      </trkpt>
      <trkpt lat="44.11762" lon="3.24354">
        <ele>511.8</ele>
      </trkpt>
      <trkpt lat="44.11765" lon="3.24364">
        <ele>509.2</ele>
      </trkpt>
      <trkpt lat="44.11757" lon="3.24391">
        <ele>503.9</ele>
      </trkpt>
      <trkpt lat="44.11763" lon="3.2439">
        <ele>502.6</ele>
      </trkpt>
      <trkpt lat="44.11803" lon="3.24363">
        <ele>492.9</ele>
      </trkpt>
      <trkpt lat="44.11808" lon="3.24346">
        <ele>491.6</ele>
      </trkpt>
      <trkpt lat="44.11804" lon="3.24322">
        <ele>490.7</ele>
      </trkpt>
      <trkpt lat="44.11791" lon="3.2429">
        <ele>486</ele>
      </trkpt>
      <trkpt lat="44.11797" lon="3.24282">
        <ele>480.9</ele>
      </trkpt>
      <trkpt lat="44.11843" lon="3.24308">
        <ele>474.8</ele>
      </trkpt>
      <trkpt lat="44.11854" lon="3.24308">
        <ele>472.7</ele>
      </trkpt>
      <trkpt lat="44.11864" lon="3.24316">
        <ele>469</ele>
      </trkpt>
      <trkpt lat="44.11867" lon="3.24338">
        <ele>467.3</ele>
      </trkpt>
      <trkpt lat="44.11869" lon="3.24352">
        <ele>463.4</ele>
      </trkpt>
      <trkpt lat="44.1186" lon="3.24383">
        <ele>465</ele>
      </trkpt>
      <trkpt lat="44.11856" lon="3.24414">
        <ele>457.4</ele>
      </trkpt>
      <trkpt lat="44.11881" lon="3.24393">
        <ele>451.4</ele>
      </trkpt>
      <trkpt lat="44.11887" lon="3.24405">
        <ele>445.1</ele>
      </trkpt>
      <trkpt lat="44.11881" lon="3.2442">
        <ele>443.2</ele>
      </trkpt>
      <trkpt lat="44.11891" lon="3.24416">
        <ele>438.5</ele>
      </trkpt>
      <trkpt lat="44.11892" lon="3.24423">
        <ele>434.9</ele>
      </trkpt>
      <trkpt lat="44.11876" lon="3.24459">
        <ele>430.3</ele>
      </trkpt>
      <trkpt lat="44.11889" lon="3.24448">
        <ele>425.9</ele>
      </trkpt>
      <trkpt lat="44.11901" lon="3.24424">
        <ele>425.9</ele>
      </trkpt>
      <trkpt lat="44.11907" lon="3.24424">
        <ele>420.9</ele>
      </trkpt>
      <trkpt lat="44.11915" lon="3.24446">
        <ele>411.3</ele>
      </trkpt>
      <trkpt lat="44.11908" lon="3.24474">
        <ele>407.6</ele>
      </trkpt>
      <trkpt lat="44.11924" lon="3.24489">
        <ele>404.7</ele>
      </trkpt>
      <trkpt lat="44.11952" lon="3.24504">
        <ele>411.1</ele>
      </trkpt>
      <trkpt lat="44.11962" lon="3.24562">
        <ele>420.6</ele>
        <time>2021-10-14T11:50:29Z</time>
      </trkpt>
      <trkpt lat="44.11954" lon="3.24574">
        <ele>420.6</ele>
        <time>2021-10-14T11:50:31Z</time>
      </trkpt>
      <trkpt lat="44.1195" lon="3.24579">
        <ele>420.6</ele>
        <time>2021-10-14T11:50:32Z</time>
      </trkpt>
      <trkpt lat="44.11945" lon="3.24583">
        <ele>420.6</ele>
        <time>2021-10-14T11:50:33Z</time>
      </trkpt>
      <trkpt lat="44.11935" lon="3.24591">
        <ele>420.6</ele>
        <time>2021-10-14T11:50:35Z</time>
      </trkpt>
      <trkpt lat="44.1193" lon="3.24594">
        <ele>420.6</ele>
        <time>2021-10-14T11:50:36Z</time>
      </trkpt>
      <trkpt lat="44.11922" lon="3.24595">
        <ele>420.6</ele>
        <time>2021-10-14T11:50:38Z</time>
      </trkpt>
      <trkpt lat="44.11917" lon="3.24597">
        <ele>420.7</ele>
        <time>2021-10-14T11:50:39Z</time>
      </trkpt>
      <trkpt lat="44.11906" lon="3.24599">
        <ele>420.7</ele>
        <time>2021-10-14T11:50:41Z</time>
      </trkpt>
      <trkpt lat="44.11901" lon="3.24602">
        <ele>420.7</ele>
        <time>2021-10-14T11:50:42Z</time>
      </trkpt>
      <trkpt lat="44.11897" lon="3.24603">
        <ele>420.7</ele>
        <time>2021-10-14T11:50:43Z</time>
      </trkpt>
      <trkpt lat="44.11891" lon="3.24605">
        <ele>420.7</ele>
        <time>2021-10-14T11:50:44Z</time>
      </trkpt>
      <trkpt lat="44.11886" lon="3.24606">
        <ele>420.8</ele>
        <time>2021-10-14T11:50:45Z</time>
      </trkpt>
      <trkpt lat="44.11876" lon="3.24609">
        <ele>420.8</ele>
        <time>2021-10-14T11:50:47Z</time>
      </trkpt>
      <trkpt lat="44.11865" lon="3.2461">
        <ele>420.9</ele>
        <time>2021-10-14T11:50:49Z</time>
      </trkpt>
      <trkpt lat="44.1186" lon="3.24611">
        <ele>420.9</ele>
        <time>2021-10-14T11:50:50Z</time>
      </trkpt>
      <trkpt lat="44.11851" lon="3.24615">
        <ele>420.9</ele>
        <time>2021-10-14T11:50:52Z</time>
      </trkpt>
      <trkpt lat="44.11843" lon="3.24618">
        <ele>420.9</ele>
        <time>2021-10-14T11:50:54Z</time>
      </trkpt>
      <trkpt lat="44.1184" lon="3.24621">
        <ele>420.9</ele>
        <time>2021-10-14T11:50:56Z</time>
      </trkpt>
      <trkpt lat="44.11835" lon="3.24623">
        <ele>421.2</ele>
        <time>2021-10-14T11:50:57Z</time>
      </trkpt>
      <trkpt lat="44.11835" lon="3.24626">
        <ele>421.3</ele>
        <time>2021-10-14T11:50:58Z</time>
      </trkpt>
      <trkpt lat="44.11835" lon="3.24627">
        <ele>421.4</ele>
        <time>2021-10-14T11:50:59Z</time>
      </trkpt>
      <trkpt lat="44.11831" lon="3.24627">
        <ele>421.5</ele>
        <time>2021-10-14T11:51:00Z</time>
      </trkpt>
      <trkpt lat="44.11828" lon="3.24627">
        <ele>421.8</ele>
        <time>2021-10-14T11:51:01Z</time>
      </trkpt>
      <trkpt lat="44.11823" lon="3.24626">
        <ele>422.1</ele>
        <time>2021-10-14T11:51:03Z</time>
      </trkpt>
      <trkpt lat="44.11818" lon="3.24627">
        <ele>422.5</ele>
        <time>2021-10-14T11:51:04Z</time>
      </trkpt>
      <trkpt lat="44.11813" lon="3.24628">
        <ele>422.9</ele>
        <time>2021-10-14T11:51:06Z</time>
      </trkpt>
      <trkpt lat="44.11811" lon="3.24629">
        <ele>423.1</ele>
        <time>2021-10-14T11:51:07Z</time>
      </trkpt>
      <trkpt lat="44.1181" lon="3.2463">
        <ele>423.3</ele>
        <time>2021-10-14T11:51:08Z</time>
      </trkpt>
      <trkpt lat="44.11807" lon="3.2463">
        <ele>423.5</ele>
        <time>2021-10-14T11:51:09Z</time>
      </trkpt>
      <trkpt lat="44.11805" lon="3.24629">
        <ele>423.7</ele>
        <time>2021-10-14T11:51:10Z</time>
      </trkpt>
      <trkpt lat="44.11803" lon="3.24629">
        <ele>423.9</ele>
        <time>2021-10-14T11:51:11Z</time>
      </trkpt>
      <trkpt lat="44.11801" lon="3.24629">
        <ele>424.1</ele>
        <time>2021-10-14T11:51:13Z</time>
      </trkpt>
      <trkpt lat="44.118" lon="3.2463">
        <ele>424.2</ele>
        <time>2021-10-14T11:51:14Z</time>
      </trkpt>
      <trkpt lat="44.11797" lon="3.24631">
        <ele>424.5</ele>
        <time>2021-10-14T11:51:15Z</time>
      </trkpt>
      <trkpt lat="44.11796" lon="3.24632">
        <ele>424.6</ele>
        <time>2021-10-14T11:51:16Z</time>
      </trkpt>
      <trkpt lat="44.11794" lon="3.24632">
        <ele>424.8</ele>
        <time>2021-10-14T11:51:17Z</time>
      </trkpt>
      <trkpt lat="44.11791" lon="3.24633">
        <ele>425.1</ele>
        <time>2021-10-14T11:51:19Z</time>
      </trkpt>
      <trkpt lat="44.11789" lon="3.24633">
        <ele>425.2</ele>
        <time>2021-10-14T11:51:20Z</time>
      </trkpt>
      <trkpt lat="44.11788" lon="3.24633">
        <ele>425.4</ele>
        <time>2021-10-14T11:51:21Z</time>
      </trkpt>
      <trkpt lat="44.11785" lon="3.24635">
        <ele>425.7</ele>
        <time>2021-10-14T11:51:22Z</time>
      </trkpt>
      <trkpt lat="44.11784" lon="3.24636">
        <ele>425.8</ele>
        <time>2021-10-14T11:51:23Z</time>
      </trkpt>
      <trkpt lat="44.11782" lon="3.24638">
        <ele>426</ele>
        <time>2021-10-14T11:51:24Z</time>
      </trkpt>
      <trkpt lat="44.11781" lon="3.2464">
        <ele>426.2</ele>
        <time>2021-10-14T11:51:26Z</time>
      </trkpt>
      <trkpt lat="44.11778" lon="3.24642">
        <ele>426.5</ele>
        <time>2021-10-14T11:51:27Z</time>
      </trkpt>
      <trkpt lat="44.11777" lon="3.24642">
        <ele>426.6</ele>
        <time>2021-10-14T11:51:28Z</time>
      </trkpt>
      <trkpt lat="44.11774" lon="3.24644">
        <ele>426.9</ele>
        <time>2021-10-14T11:51:29Z</time>
      </trkpt>
      <trkpt lat="44.11772" lon="3.24645">
        <ele>427.1</ele>
        <time>2021-10-14T11:51:31Z</time>
      </trkpt>
      <trkpt lat="44.1177" lon="3.24647">
        <ele>427.3</ele>
        <time>2021-10-14T11:51:32Z</time>
      </trkpt>
      <trkpt lat="44.11767" lon="3.2465">
        <ele>427.7</ele>
        <time>2021-10-14T11:51:34Z</time>
      </trkpt>
      <trkpt lat="44.11765" lon="3.24652">
        <ele>427.9</ele>
        <time>2021-10-14T11:51:35Z</time>
      </trkpt>
      <trkpt lat="44.11762" lon="3.24654">
        <ele>428.1</ele>
        <time>2021-10-14T11:51:37Z</time>
      </trkpt>
      <trkpt lat="44.1176" lon="3.24656">
        <ele>428.3</ele>
        <time>2021-10-14T11:51:38Z</time>
      </trkpt>
      <trkpt lat="44.11759" lon="3.24658">
        <ele>428.5</ele>
        <time>2021-10-14T11:51:40Z</time>
      </trkpt>
      <trkpt lat="44.11756" lon="3.24659">
        <ele>428.7</ele>
        <time>2021-10-14T11:51:41Z</time>
      </trkpt>
      <trkpt lat="44.11755" lon="3.2466">
        <ele>428.8</ele>
        <time>2021-10-14T11:51:42Z</time>
      </trkpt>
      <trkpt lat="44.11753" lon="3.24661">
        <ele>429</ele>
        <time>2021-10-14T11:51:43Z</time>
      </trkpt>
      <trkpt lat="44.11751" lon="3.24662">
        <ele>429.2</ele>
        <time>2021-10-14T11:51:45Z</time>
      </trkpt>
      <trkpt lat="44.11749" lon="3.24665">
        <ele>429.4</ele>
        <time>2021-10-14T11:51:46Z</time>
      </trkpt>
      <trkpt lat="44.11748" lon="3.24666">
        <ele>429.5</ele>
        <time>2021-10-14T11:51:47Z</time>
      </trkpt>
      <trkpt lat="44.11746" lon="3.24669">
        <ele>429.8</ele>
        <time>2021-10-14T11:51:48Z</time>
      </trkpt>
      <trkpt lat="44.11745" lon="3.2467">
        <ele>429.9</ele>
        <time>2021-10-14T11:51:49Z</time>
      </trkpt>
      <trkpt lat="44.11743" lon="3.24673">
        <ele>430.1</ele>
        <time>2021-10-14T11:51:50Z</time>
      </trkpt>
      <trkpt lat="44.11742" lon="3.24674">
        <ele>430.2</ele>
        <time>2021-10-14T11:51:51Z</time>
      </trkpt>
      <trkpt lat="44.1174" lon="3.24677">
        <ele>430.5</ele>
        <time>2021-10-14T11:51:53Z</time>
      </trkpt>
      <trkpt lat="44.11739" lon="3.24677">
        <ele>430.5</ele>
        <time>2021-10-14T11:51:54Z</time>
      </trkpt>
      <trkpt lat="44.11737" lon="3.2468">
        <ele>430.8</ele>
        <time>2021-10-14T11:51:55Z</time>
      </trkpt>
      <trkpt lat="44.11736" lon="3.24681">
        <ele>430.9</ele>
        <time>2021-10-14T11:51:56Z</time>
      </trkpt>
      <trkpt lat="44.11735" lon="3.24683">
        <ele>431.1</ele>
        <time>2021-10-14T11:51:58Z</time>
      </trkpt>
      <trkpt lat="44.11734" lon="3.24684">
        <ele>431.2</ele>
        <time>2021-10-14T11:51:59Z</time>
      </trkpt>
      <trkpt lat="44.11733" lon="3.24686">
        <ele>431.3</ele>
        <time>2021-10-14T11:52:00Z</time>
      </trkpt>
      <trkpt lat="44.11732" lon="3.24687">
        <ele>431.4</ele>
        <time>2021-10-14T11:52:01Z</time>
      </trkpt>
      <trkpt lat="44.11729" lon="3.2469">
        <ele>431.6</ele>
        <time>2021-10-14T11:52:03Z</time>
      </trkpt>
      <trkpt lat="44.11729" lon="3.24691">
        <ele>431.7</ele>
        <time>2021-10-14T11:52:04Z</time>
      </trkpt>
      <trkpt lat="44.11728" lon="3.24693">
        <ele>431.8</ele>
        <time>2021-10-14T11:52:05Z</time>
      </trkpt>
      <trkpt lat="44.11727" lon="3.24694">
        <ele>431.9</ele>
        <time>2021-10-14T11:52:06Z</time>
      </trkpt>
      <trkpt lat="44.11725" lon="3.24698">
        <ele>432.2</ele>
        <time>2021-10-14T11:52:08Z</time>
      </trkpt>
      <trkpt lat="44.11724" lon="3.24699">
        <ele>432.3</ele>
        <time>2021-10-14T11:52:09Z</time>
      </trkpt>
      <trkpt lat="44.11723" lon="3.247">
        <ele>432.4</ele>
        <time>2021-10-14T11:52:10Z</time>
      </trkpt>
      <trkpt lat="44.11721" lon="3.24702">
        <ele>432.5</ele>
        <time>2021-10-14T11:52:12Z</time>
      </trkpt>
      <trkpt lat="44.1172" lon="3.24704">
        <ele>432.7</ele>
        <time>2021-10-14T11:52:13Z</time>
      </trkpt>
      <trkpt lat="44.11718" lon="3.24708">
        <ele>432.9</ele>
        <time>2021-10-14T11:52:15Z</time>
      </trkpt>
      <trkpt lat="44.11716" lon="3.24711">
        <ele>433.1</ele>
        <time>2021-10-14T11:52:16Z</time>
      </trkpt>
      <trkpt lat="44.11716" lon="3.24712">
        <ele>433.2</ele>
        <time>2021-10-14T11:52:17Z</time>
      </trkpt>
      <trkpt lat="44.11714" lon="3.24716">
        <ele>433.5</ele>
        <time>2021-10-14T11:52:18Z</time>
      </trkpt>
      <trkpt lat="44.11713" lon="3.24717">
        <ele>433.6</ele>
        <time>2021-10-14T11:52:19Z</time>
      </trkpt>
      <trkpt lat="44.1171" lon="3.24721">
        <ele>433.9</ele>
        <time>2021-10-14T11:52:21Z</time>
      </trkpt>
      <trkpt lat="44.11709" lon="3.24722">
        <ele>434</ele>
        <time>2021-10-14T11:52:22Z</time>
      </trkpt>
      <trkpt lat="44.11708" lon="3.24724">
        <ele>434.1</ele>
        <time>2021-10-14T11:52:23Z</time>
      </trkpt>
      <trkpt lat="44.11705" lon="3.24726">
        <ele>434.4</ele>
        <time>2021-10-14T11:52:25Z</time>
      </trkpt>
      <trkpt lat="44.11704" lon="3.24726">
        <ele>434.5</ele>
        <time>2021-10-14T11:52:26Z</time>
      </trkpt>
      <trkpt lat="44.11703" lon="3.24728">
        <ele>434.7</ele>
        <time>2021-10-14T11:52:27Z</time>
      </trkpt>
      <trkpt lat="44.11703" lon="3.24729">
        <ele>434.8</ele>
        <time>2021-10-14T11:52:28Z</time>
      </trkpt>
      <trkpt lat="44.11705" lon="3.24731">
        <ele>435.1</ele>
        <time>2021-10-14T11:52:30Z</time>
      </trkpt>
      <trkpt lat="44.11707" lon="3.24731">
        <ele>435.2</ele>
        <time>2021-10-14T11:52:31Z</time>
      </trkpt>
      <trkpt lat="44.1171" lon="3.24729">
        <ele>435.5</ele>
        <time>2021-10-14T11:52:33Z</time>
      </trkpt>
      <trkpt lat="44.11711" lon="3.24728">
        <ele>435.7</ele>
        <time>2021-10-14T11:52:34Z</time>
      </trkpt>
      <trkpt lat="44.11716" lon="3.24728">
        <ele>436.2</ele>
        <time>2021-10-14T11:52:36Z</time>
      </trkpt>
      <trkpt lat="44.11718" lon="3.24728">
        <ele>436.3</ele>
        <time>2021-10-14T11:52:37Z</time>
      </trkpt>
      <trkpt lat="44.1172" lon="3.24728">
        <ele>436.5</ele>
        <time>2021-10-14T11:52:38Z</time>
      </trkpt>
      <trkpt lat="44.11723" lon="3.24727">
        <ele>436.8</ele>
        <time>2021-10-14T11:52:39Z</time>
      </trkpt>
      <trkpt lat="44.11723" lon="3.24727">
        <ele>436.9</ele>
        <time>2021-10-14T11:52:40Z</time>
      </trkpt>
      <trkpt lat="44.11725" lon="3.24726">
        <ele>437</ele>
        <time>2021-10-14T11:52:41Z</time>
      </trkpt>
      <trkpt lat="44.11726" lon="3.24725">
        <ele>437.1</ele>
        <time>2021-10-14T11:52:42Z</time>
      </trkpt>
      <trkpt lat="44.11728" lon="3.24724">
        <ele>437.4</ele>
        <time>2021-10-14T11:52:44Z</time>
      </trkpt>
      <trkpt lat="44.11729" lon="3.24723">
        <ele>437.5</ele>
        <time>2021-10-14T11:52:45Z</time>
      </trkpt>
      <trkpt lat="44.1173" lon="3.24723">
        <ele>437.5</ele>
        <time>2021-10-14T11:52:46Z</time>
      </trkpt>
      <trkpt lat="44.11732" lon="3.24721">
        <ele>437.8</ele>
        <time>2021-10-14T11:52:48Z</time>
      </trkpt>
      <trkpt lat="44.11734" lon="3.24721">
        <ele>437.9</ele>
        <time>2021-10-14T11:52:50Z</time>
      </trkpt>
      <trkpt lat="44.11735" lon="3.2472">
        <ele>438</ele>
        <time>2021-10-14T11:52:51Z</time>
      </trkpt>
      <trkpt lat="44.11737" lon="3.24719">
        <ele>438.2</ele>
        <time>2021-10-14T11:52:53Z</time>
      </trkpt>
      <trkpt lat="44.11738" lon="3.24718">
        <ele>438.3</ele>
        <time>2021-10-14T11:52:54Z</time>
      </trkpt>
      <trkpt lat="44.11739" lon="3.24718">
        <ele>438.3</ele>
        <time>2021-10-14T11:52:56Z</time>
      </trkpt>
      <trkpt lat="44.1174" lon="3.24717">
        <ele>438.4</ele>
        <time>2021-10-14T11:52:57Z</time>
      </trkpt>
      <trkpt lat="44.11741" lon="3.24717">
        <ele>438.5</ele>
        <time>2021-10-14T11:52:58Z</time>
      </trkpt>
      <trkpt lat="44.11743" lon="3.24716">
        <ele>438.7</ele>
        <time>2021-10-14T11:52:59Z</time>
      </trkpt>
      <trkpt lat="44.11744" lon="3.24714">
        <ele>438.8</ele>
        <time>2021-10-14T11:53:00Z</time>
      </trkpt>
      <trkpt lat="44.11745" lon="3.24713">
        <ele>438.9</ele>
        <time>2021-10-14T11:53:01Z</time>
      </trkpt>
      <trkpt lat="44.11747" lon="3.24711">
        <ele>439.1</ele>
        <time>2021-10-14T11:53:03Z</time>
      </trkpt>
      <trkpt lat="44.11748" lon="3.2471">
        <ele>439.2</ele>
        <time>2021-10-14T11:53:04Z</time>
      </trkpt>
      <trkpt lat="44.11749" lon="3.24708">
        <ele>439.3</ele>
        <time>2021-10-14T11:53:05Z</time>
      </trkpt>
      <trkpt lat="44.1175" lon="3.24707">
        <ele>439.4</ele>
        <time>2021-10-14T11:53:06Z</time>
      </trkpt>
      <trkpt lat="44.11754" lon="3.24704">
        <ele>439.7</ele>
        <time>2021-10-14T11:53:08Z</time>
      </trkpt>
      <trkpt lat="44.11755" lon="3.24703">
        <ele>439.8</ele>
        <time>2021-10-14T11:53:10Z</time>
      </trkpt>
      <trkpt lat="44.11756" lon="3.24702">
        <ele>439.8</ele>
        <time>2021-10-14T11:53:11Z</time>
      </trkpt>
      <trkpt lat="44.11759" lon="3.24701">
        <ele>439.1</ele>
        <time>2021-10-14T11:53:12Z</time>
      </trkpt>
      <trkpt lat="44.11762" lon="3.24702">
        <ele>439.8</ele>
        <time>2021-10-14T11:53:14Z</time>
      </trkpt>
      <trkpt lat="44.11762" lon="3.24702">
        <ele>441.4</ele>
        <time>2021-10-14T11:53:15Z</time>
      </trkpt>
      <trkpt lat="44.11766" lon="3.24702">
        <ele>442.8</ele>
        <time>2021-10-14T11:53:17Z</time>
      </trkpt>
      <trkpt lat="44.11768" lon="3.24702">
        <ele>442.8</ele>
        <time>2021-10-14T11:53:19Z</time>
      </trkpt>
      <trkpt lat="44.11769" lon="3.24702">
        <ele>442.8</ele>
        <time>2021-10-14T11:53:20Z</time>
      </trkpt>
      <trkpt lat="44.11771" lon="3.24702">
        <ele>441.9</ele>
        <time>2021-10-14T11:53:21Z</time>
      </trkpt>
      <trkpt lat="44.11773" lon="3.24702">
        <ele>442.5</ele>
        <time>2021-10-14T11:53:22Z</time>
      </trkpt>
      <trkpt lat="44.11774" lon="3.24701">
        <ele>442.5</ele>
        <time>2021-10-14T11:53:23Z</time>
      </trkpt>
      <trkpt lat="44.11776" lon="3.24701">
        <ele>443.2</ele>
        <time>2021-10-14T11:53:24Z</time>
      </trkpt>
      <trkpt lat="44.11778" lon="3.247">
        <ele>443.2</ele>
        <time>2021-10-14T11:53:26Z</time>
      </trkpt>
      <trkpt lat="44.11779" lon="3.247">
        <ele>443.9</ele>
        <time>2021-10-14T11:53:28Z</time>
      </trkpt>
      <trkpt lat="44.1178" lon="3.247">
        <ele>443.9</ele>
        <time>2021-10-14T11:53:29Z</time>
      </trkpt>
      <trkpt lat="44.11782" lon="3.24701">
        <ele>443.9</ele>
        <time>2021-10-14T11:53:30Z</time>
      </trkpt>
      <trkpt lat="44.11784" lon="3.247">
        <ele>444.5</ele>
        <time>2021-10-14T11:53:32Z</time>
      </trkpt>
      <trkpt lat="44.11785" lon="3.247">
        <ele>445.1</ele>
        <time>2021-10-14T11:53:33Z</time>
      </trkpt>
      <trkpt lat="44.11787" lon="3.24698">
        <ele>445.1</ele>
        <time>2021-10-14T11:53:34Z</time>
      </trkpt>
      <trkpt lat="44.11788" lon="3.24697">
        <ele>443.4</ele>
        <time>2021-10-14T11:53:35Z</time>
      </trkpt>
      <trkpt lat="44.11791" lon="3.24695">
        <ele>443.9</ele>
        <time>2021-10-14T11:53:37Z</time>
      </trkpt>
      <trkpt lat="44.11791" lon="3.24695">
        <ele>444.3</ele>
        <time>2021-10-14T11:53:38Z</time>
      </trkpt>
      <trkpt lat="44.11793" lon="3.24693">
        <ele>442.6</ele>
        <time>2021-10-14T11:53:39Z</time>
      </trkpt>
      <trkpt lat="44.11795" lon="3.2469">
        <ele>443</ele>
        <time>2021-10-14T11:53:41Z</time>
      </trkpt>
      <trkpt lat="44.11798" lon="3.24687">
        <ele>441.8</ele>
        <time>2021-10-14T11:53:42Z</time>
      </trkpt>
      <trkpt lat="44.11799" lon="3.24687">
        <ele>441.8</ele>
        <time>2021-10-14T11:53:43Z</time>
      </trkpt>
      <trkpt lat="44.118" lon="3.24686">
        <ele>441.8</ele>
        <time>2021-10-14T11:53:45Z</time>
      </trkpt>
      <trkpt lat="44.11802" lon="3.24684">
        <ele>440.7</ele>
        <time>2021-10-14T11:53:46Z</time>
      </trkpt>
      <trkpt lat="44.11805" lon="3.24683">
        <ele>441.1</ele>
        <time>2021-10-14T11:53:48Z</time>
      </trkpt>
      <trkpt lat="44.11806" lon="3.24683">
        <ele>441.1</ele>
        <time>2021-10-14T11:53:49Z</time>
      </trkpt>
      <trkpt lat="44.11807" lon="3.24686">
        <ele>442.8</ele>
        <time>2021-10-14T11:53:50Z</time>
      </trkpt>
      <trkpt lat="44.11806" lon="3.24687">
        <ele>442.6</ele>
        <time>2021-10-14T11:53:52Z</time>
      </trkpt>
      <trkpt lat="44.11806" lon="3.24689">
        <ele>442.6</ele>
        <time>2021-10-14T11:53:53Z</time>
      </trkpt>
      <trkpt lat="44.11803" lon="3.24692">
        <ele>443.8</ele>
        <time>2021-10-14T11:53:55Z</time>
      </trkpt>
      <trkpt lat="44.11802" lon="3.24694">
        <ele>445.5</ele>
        <time>2021-10-14T11:53:56Z</time>
      </trkpt>
      <trkpt lat="44.118" lon="3.24696">
        <ele>445.5</ele>
        <time>2021-10-14T11:53:58Z</time>
      </trkpt>
      <trkpt lat="44.11799" lon="3.24697">
        <ele>445.1</ele>
        <time>2021-10-14T11:53:59Z</time>
      </trkpt>
      <trkpt lat="44.11798" lon="3.24699">
        <ele>446.9</ele>
        <time>2021-10-14T11:54:00Z</time>
      </trkpt>
      <trkpt lat="44.11795" lon="3.24702">
        <ele>446.5</ele>
        <time>2021-10-14T11:54:02Z</time>
      </trkpt>
      <trkpt lat="44.11794" lon="3.24703">
        <ele>448.2</ele>
        <time>2021-10-14T11:54:03Z</time>
      </trkpt>
      <trkpt lat="44.11792" lon="3.24705">
        <ele>447.8</ele>
        <time>2021-10-14T11:54:05Z</time>
      </trkpt>
      <trkpt lat="44.11791" lon="3.24706">
        <ele>447.3</ele>
        <time>2021-10-14T11:54:06Z</time>
      </trkpt>
      <trkpt lat="44.11789" lon="3.24706">
        <ele>449.1</ele>
        <time>2021-10-14T11:54:07Z</time>
      </trkpt>
      <trkpt lat="44.11788" lon="3.24706">
        <ele>449.1</ele>
        <time>2021-10-14T11:54:08Z</time>
      </trkpt>
      <trkpt lat="44.11787" lon="3.24707">
        <ele>448.5</ele>
        <time>2021-10-14T11:54:09Z</time>
      </trkpt>
      <trkpt lat="44.11786" lon="3.24708">
        <ele>448.5</ele>
        <time>2021-10-14T11:54:11Z</time>
      </trkpt>
      <trkpt lat="44.11784" lon="3.2471">
        <ele>447.9</ele>
        <time>2021-10-14T11:54:13Z</time>
      </trkpt>
      <trkpt lat="44.11783" lon="3.24711">
        <ele>449.6</ele>
        <time>2021-10-14T11:54:14Z</time>
      </trkpt>
      <trkpt lat="44.11782" lon="3.24712">
        <ele>449.6</ele>
        <time>2021-10-14T11:54:15Z</time>
      </trkpt>
      <trkpt lat="44.11781" lon="3.24712">
        <ele>448.9</ele>
        <time>2021-10-14T11:54:16Z</time>
      </trkpt>
      <trkpt lat="44.11778" lon="3.24713">
        <ele>448.2</ele>
        <time>2021-10-14T11:54:18Z</time>
      </trkpt>
      <trkpt lat="44.11777" lon="3.24713">
        <ele>448.2</ele>
        <time>2021-10-14T11:54:19Z</time>
      </trkpt>
      <trkpt lat="44.11776" lon="3.24714">
        <ele>448.2</ele>
        <time>2021-10-14T11:54:20Z</time>
      </trkpt>
      <trkpt lat="44.11775" lon="3.24715">
        <ele>449</ele>
        <time>2021-10-14T11:54:21Z</time>
      </trkpt>
      <trkpt lat="44.11774" lon="3.24716">
        <ele>449</ele>
        <time>2021-10-14T11:54:23Z</time>
      </trkpt>
      <trkpt lat="44.11772" lon="3.24716">
        <ele>448.3</ele>
        <time>2021-10-14T11:54:24Z</time>
      </trkpt>
      <trkpt lat="44.11771" lon="3.24717">
        <ele>448.3</ele>
        <time>2021-10-14T11:54:25Z</time>
      </trkpt>
      <trkpt lat="44.11769" lon="3.24717">
        <ele>447.6</ele>
        <time>2021-10-14T11:54:27Z</time>
      </trkpt>
      <trkpt lat="44.11768" lon="3.24719">
        <ele>447.6</ele>
        <time>2021-10-14T11:54:28Z</time>
      </trkpt>
      <trkpt lat="44.11766" lon="3.2472">
        <ele>448.4</ele>
        <time>2021-10-14T11:54:29Z</time>
      </trkpt>
      <trkpt lat="44.11765" lon="3.2472">
        <ele>448.4</ele>
        <time>2021-10-14T11:54:31Z</time>
      </trkpt>
      <trkpt lat="44.11763" lon="3.24721">
        <ele>447.6</ele>
        <time>2021-10-14T11:54:32Z</time>
      </trkpt>
      <trkpt lat="44.11762" lon="3.24723">
        <ele>447.6</ele>
        <time>2021-10-14T11:54:33Z</time>
      </trkpt>
      <trkpt lat="44.11761" lon="3.24724">
        <ele>449.1</ele>
        <time>2021-10-14T11:54:34Z</time>
      </trkpt>
      <trkpt lat="44.11761" lon="3.24725">
        <ele>449.1</ele>
        <time>2021-10-14T11:54:35Z</time>
      </trkpt>
      <trkpt lat="44.1176" lon="3.24726">
        <ele>448.2</ele>
        <time>2021-10-14T11:54:36Z</time>
      </trkpt>
      <trkpt lat="44.11759" lon="3.24728">
        <ele>449.7</ele>
        <time>2021-10-14T11:54:38Z</time>
      </trkpt>
      <trkpt lat="44.11758" lon="3.24729">
        <ele>449.7</ele>
        <time>2021-10-14T11:54:39Z</time>
      </trkpt>
      <trkpt lat="44.11757" lon="3.24731">
        <ele>449.7</ele>
        <time>2021-10-14T11:54:41Z</time>
      </trkpt>
      <trkpt lat="44.11757" lon="3.24733">
        <ele>450.3</ele>
        <time>2021-10-14T11:54:43Z</time>
      </trkpt>
      <trkpt lat="44.11756" lon="3.24735">
        <ele>450.3</ele>
        <time>2021-10-14T11:54:44Z</time>
      </trkpt>
      <trkpt lat="44.11755" lon="3.24737">
        <ele>451.9</ele>
        <time>2021-10-14T11:54:45Z</time>
      </trkpt>
      <trkpt lat="44.11754" lon="3.24739">
        <ele>451.9</ele>
        <time>2021-10-14T11:54:46Z</time>
      </trkpt>
      <trkpt lat="44.11754" lon="3.24741">
        <ele>453.6</ele>
        <time>2021-10-14T11:54:47Z</time>
      </trkpt>
      <trkpt lat="44.11754" lon="3.24744">
        <ele>452.6</ele>
        <time>2021-10-14T11:54:49Z</time>
      </trkpt>
      <trkpt lat="44.11753" lon="3.24745">
        <ele>454.4</ele>
        <time>2021-10-14T11:54:50Z</time>
      </trkpt>
      <trkpt lat="44.11753" lon="3.24747">
        <ele>454.4</ele>
        <time>2021-10-14T11:54:51Z</time>
      </trkpt>
      <trkpt lat="44.11752" lon="3.24749">
        <ele>456.2</ele>
        <time>2021-10-14T11:54:52Z</time>
      </trkpt>
      <trkpt lat="44.11751" lon="3.24752">
        <ele>455.2</ele>
        <time>2021-10-14T11:54:54Z</time>
      </trkpt>
      <trkpt lat="44.1175" lon="3.24754">
        <ele>457</ele>
        <time>2021-10-14T11:54:56Z</time>
      </trkpt>
      <trkpt lat="44.11749" lon="3.24755">
        <ele>457</ele>
        <time>2021-10-14T11:54:57Z</time>
      </trkpt>
      <trkpt lat="44.11748" lon="3.24757">
        <ele>457</ele>
        <time>2021-10-14T11:54:58Z</time>
      </trkpt>
      <trkpt lat="44.11747" lon="3.24759">
        <ele>457.7</ele>
        <time>2021-10-14T11:55:00Z</time>
      </trkpt>
      <trkpt lat="44.11746" lon="3.24761">
        <ele>457.7</ele>
        <time>2021-10-14T11:55:01Z</time>
      </trkpt>
      <trkpt lat="44.11745" lon="3.24763">
        <ele>459.4</ele>
        <time>2021-10-14T11:55:02Z</time>
      </trkpt>
      <trkpt lat="44.11744" lon="3.24765">
        <ele>458.4</ele>
        <time>2021-10-14T11:55:03Z</time>
      </trkpt>
      <trkpt lat="44.11743" lon="3.24767">
        <ele>460.1</ele>
        <time>2021-10-14T11:55:05Z</time>
      </trkpt>
      <trkpt lat="44.11743" lon="3.24768">
        <ele>460.1</ele>
        <time>2021-10-14T11:55:06Z</time>
      </trkpt>
      <trkpt lat="44.11742" lon="3.2477">
        <ele>460.1</ele>
        <time>2021-10-14T11:55:07Z</time>
      </trkpt>
      <trkpt lat="44.11741" lon="3.24771">
        <ele>460.7</ele>
        <time>2021-10-14T11:55:08Z</time>
      </trkpt>
      <trkpt lat="44.1174" lon="3.24773">
        <ele>460.7</ele>
        <time>2021-10-14T11:55:10Z</time>
      </trkpt>
      <trkpt lat="44.11739" lon="3.24774">
        <ele>460.7</ele>
        <time>2021-10-14T11:55:11Z</time>
      </trkpt>
      <trkpt lat="44.11738" lon="3.24776">
        <ele>461.4</ele>
        <time>2021-10-14T11:55:12Z</time>
      </trkpt>
      <trkpt lat="44.11737" lon="3.24778">
        <ele>461.4</ele>
        <time>2021-10-14T11:55:13Z</time>
      </trkpt>
      <trkpt lat="44.11735" lon="3.24779">
        <ele>460.3</ele>
        <time>2021-10-14T11:55:14Z</time>
      </trkpt>
      <trkpt lat="44.11732" lon="3.2478">
        <ele>462.1</ele>
        <time>2021-10-14T11:55:15Z</time>
      </trkpt>
      <trkpt lat="44.11731" lon="3.2478">
        <ele>461</ele>
        <time>2021-10-14T11:55:17Z</time>
      </trkpt>
      <trkpt lat="44.1173" lon="3.2478">
        <ele>461</ele>
        <time>2021-10-14T11:55:18Z</time>
      </trkpt>
      <trkpt lat="44.11728" lon="3.2478">
        <ele>459.9</ele>
        <time>2021-10-14T11:55:19Z</time>
      </trkpt>
      <trkpt lat="44.11726" lon="3.2478">
        <ele>458.7</ele>
        <time>2021-10-14T11:55:20Z</time>
      </trkpt>
      <trkpt lat="44.11724" lon="3.24779">
        <ele>458.7</ele>
        <time>2021-10-14T11:55:22Z</time>
      </trkpt>
      <trkpt lat="44.11722" lon="3.24779">
        <ele>457.5</ele>
        <time>2021-10-14T11:55:23Z</time>
      </trkpt>
      <trkpt lat="44.1172" lon="3.2478">
        <ele>457.5</ele>
        <time>2021-10-14T11:55:24Z</time>
      </trkpt>
      <trkpt lat="44.11719" lon="3.24781">
        <ele>456.3</ele>
        <time>2021-10-14T11:55:25Z</time>
      </trkpt>
      <trkpt lat="44.11718" lon="3.24784">
        <ele>458.1</ele>
        <time>2021-10-14T11:55:27Z</time>
      </trkpt>
      <trkpt lat="44.11718" lon="3.24786">
        <ele>458.1</ele>
        <time>2021-10-14T11:55:28Z</time>
      </trkpt>
      <trkpt lat="44.1172" lon="3.24788">
        <ele>460</ele>
        <time>2021-10-14T11:55:29Z</time>
      </trkpt>
      <trkpt lat="44.11723" lon="3.24789">
        <ele>461.3</ele>
        <time>2021-10-14T11:55:31Z</time>
      </trkpt>
      <trkpt lat="44.11724" lon="3.24789">
        <ele>462.5</ele>
        <time>2021-10-14T11:55:32Z</time>
      </trkpt>
      <trkpt lat="44.11726" lon="3.24788">
        <ele>462.5</ele>
        <time>2021-10-14T11:55:33Z</time>
      </trkpt>
      <trkpt lat="44.11727" lon="3.24788">
        <ele>463.6</ele>
        <time>2021-10-14T11:55:35Z</time>
      </trkpt>
      <trkpt lat="44.11728" lon="3.24787">
        <ele>461.7</ele>
        <time>2021-10-14T11:55:36Z</time>
      </trkpt>
      <trkpt lat="44.11729" lon="3.24787">
        <ele>462.9</ele>
        <time>2021-10-14T11:55:37Z</time>
      </trkpt>
      <trkpt lat="44.1173" lon="3.24786">
        <ele>462.9</ele>
        <time>2021-10-14T11:55:38Z</time>
      </trkpt>
      <trkpt lat="44.11732" lon="3.24786">
        <ele>462.9</ele>
        <time>2021-10-14T11:55:39Z</time>
      </trkpt>
      <trkpt lat="44.11734" lon="3.24786">
        <ele>464</ele>
        <time>2021-10-14T11:55:41Z</time>
      </trkpt>
      <trkpt lat="44.11736" lon="3.24787">
        <ele>465.1</ele>
        <time>2021-10-14T11:55:42Z</time>
      </trkpt>
      <trkpt lat="44.11737" lon="3.24787">
        <ele>465.1</ele>
        <time>2021-10-14T11:55:43Z</time>
      </trkpt>
      <trkpt lat="44.1174" lon="3.24786">
        <ele>466.2</ele>
        <time>2021-10-14T11:55:44Z</time>
      </trkpt>
      <trkpt lat="44.11741" lon="3.24785">
        <ele>466.2</ele>
        <time>2021-10-14T11:55:46Z</time>
      </trkpt>
      <trkpt lat="44.11742" lon="3.24785">
        <ele>466.2</ele>
        <time>2021-10-14T11:55:47Z</time>
      </trkpt>
      <trkpt lat="44.11742" lon="3.24784">
        <ele>467.2</ele>
        <time>2021-10-14T11:55:48Z</time>
      </trkpt>
      <trkpt lat="44.11743" lon="3.24783">
        <ele>465.4</ele>
        <time>2021-10-14T11:55:49Z</time>
      </trkpt>
      <trkpt lat="44.11745" lon="3.24781">
        <ele>466.4</ele>
        <time>2021-10-14T11:55:51Z</time>
      </trkpt>
      <trkpt lat="44.11746" lon="3.24779">
        <ele>466.4</ele>
        <time>2021-10-14T11:55:53Z</time>
      </trkpt>
      <trkpt lat="44.11748" lon="3.24777">
        <ele>465.7</ele>
        <time>2021-10-14T11:55:54Z</time>
      </trkpt>
      <trkpt lat="44.1175" lon="3.24776">
        <ele>465.7</ele>
        <time>2021-10-14T11:55:56Z</time>
      </trkpt>
      <trkpt lat="44.11751" lon="3.24773">
        <ele>465.1</ele>
        <time>2021-10-14T11:55:57Z</time>
      </trkpt>
      <trkpt lat="44.11752" lon="3.24771">
        <ele>465.1</ele>
        <time>2021-10-14T11:55:58Z</time>
      </trkpt>
      <trkpt lat="44.11754" lon="3.24768">
        <ele>464.5</ele>
        <time>2021-10-14T11:56:00Z</time>
      </trkpt>
      <trkpt lat="44.11755" lon="3.24767">
        <ele>464.5</ele>
        <time>2021-10-14T11:56:01Z</time>
      </trkpt>
      <trkpt lat="44.11756" lon="3.24766">
        <ele>462.7</ele>
        <time>2021-10-14T11:56:02Z</time>
      </trkpt>
      <trkpt lat="44.11757" lon="3.24765">
        <ele>463.8</ele>
        <time>2021-10-14T11:56:04Z</time>
      </trkpt>
      <trkpt lat="44.11759" lon="3.24765">
        <ele>463.8</ele>
        <time>2021-10-14T11:56:05Z</time>
      </trkpt>
      <trkpt lat="44.11761" lon="3.24764">
        <ele>464.8</ele>
        <time>2021-10-14T11:56:06Z</time>
      </trkpt>
      <trkpt lat="44.11764" lon="3.24763">
        <ele>465.7</ele>
        <time>2021-10-14T11:56:08Z</time>
      </trkpt>
      <trkpt lat="44.11765" lon="3.24763">
        <ele>465.7</ele>
        <time>2021-10-14T11:56:09Z</time>
      </trkpt>
      <trkpt lat="44.11767" lon="3.24763">
        <ele>466.5</ele>
        <time>2021-10-14T11:56:10Z</time>
      </trkpt>
      <trkpt lat="44.11768" lon="3.24764">
        <ele>466.5</ele>
        <time>2021-10-14T11:56:11Z</time>
      </trkpt>
      <trkpt lat="44.11769" lon="3.24764">
        <ele>466.5</ele>
        <time>2021-10-14T11:56:12Z</time>
      </trkpt>
      <trkpt lat="44.1177" lon="3.24764">
        <ele>467.4</ele>
        <time>2021-10-14T11:56:14Z</time>
      </trkpt>
      <trkpt lat="44.11772" lon="3.24764">
        <ele>467.4</ele>
        <time>2021-10-14T11:56:15Z</time>
      </trkpt>
      <trkpt lat="44.11773" lon="3.24763">
        <ele>468.2</ele>
        <time>2021-10-14T11:56:17Z</time>
      </trkpt>
      <trkpt lat="44.11775" lon="3.24763">
        <ele>468.1</ele>
        <time>2021-10-14T11:56:18Z</time>
      </trkpt>
      <trkpt lat="44.11777" lon="3.24762">
        <ele>467.9</ele>
        <time>2021-10-14T11:56:19Z</time>
      </trkpt>
      <trkpt lat="44.11778" lon="3.24761">
        <ele>467.8</ele>
        <time>2021-10-14T11:56:20Z</time>
      </trkpt>
      <trkpt lat="44.1178" lon="3.2476">
        <ele>467.6</ele>
        <time>2021-10-14T11:56:21Z</time>
      </trkpt>
      <trkpt lat="44.11781" lon="3.24758">
        <ele>467.5</ele>
        <time>2021-10-14T11:56:23Z</time>
      </trkpt>
      <trkpt lat="44.11782" lon="3.24757">
        <ele>467.4</ele>
        <time>2021-10-14T11:56:24Z</time>
      </trkpt>
      <trkpt lat="44.11783" lon="3.24755">
        <ele>467.3</ele>
        <time>2021-10-14T11:56:25Z</time>
      </trkpt>
      <trkpt lat="44.11784" lon="3.24755">
        <ele>467.2</ele>
        <time>2021-10-14T11:56:26Z</time>
      </trkpt>
      <trkpt lat="44.11786" lon="3.24753">
        <ele>467</ele>
        <time>2021-10-14T11:56:28Z</time>
      </trkpt>
      <trkpt lat="44.11787" lon="3.24751">
        <ele>466.9</ele>
        <time>2021-10-14T11:56:29Z</time>
      </trkpt>
      <trkpt lat="44.11789" lon="3.2475">
        <ele>466.8</ele>
        <time>2021-10-14T11:56:30Z</time>
      </trkpt>
      <trkpt lat="44.1179" lon="3.24749">
        <ele>466.7</ele>
        <time>2021-10-14T11:56:31Z</time>
      </trkpt>
      <trkpt lat="44.11792" lon="3.24748">
        <ele>466.5</ele>
        <time>2021-10-14T11:56:33Z</time>
      </trkpt>
      <trkpt lat="44.11794" lon="3.24748">
        <ele>466.4</ele>
        <time>2021-10-14T11:56:34Z</time>
      </trkpt>
      <trkpt lat="44.11795" lon="3.24747">
        <ele>466.2</ele>
        <time>2021-10-14T11:56:35Z</time>
      </trkpt>
      <trkpt lat="44.11798" lon="3.24746">
        <ele>466</ele>
        <time>2021-10-14T11:56:37Z</time>
      </trkpt>
      <trkpt lat="44.11799" lon="3.24745">
        <ele>465.9</ele>
        <time>2021-10-14T11:56:38Z</time>
      </trkpt>
      <trkpt lat="44.118" lon="3.24744">
        <ele>465.8</ele>
        <time>2021-10-14T11:56:39Z</time>
      </trkpt>
      <trkpt lat="44.11802" lon="3.24744">
        <ele>465.7</ele>
        <time>2021-10-14T11:56:41Z</time>
      </trkpt>
      <trkpt lat="44.11803" lon="3.24744">
        <ele>465.6</ele>
        <time>2021-10-14T11:56:42Z</time>
      </trkpt>
      <trkpt lat="44.11804" lon="3.24743">
        <ele>465.4</ele>
        <time>2021-10-14T11:56:43Z</time>
      </trkpt>
      <trkpt lat="44.11806" lon="3.24742">
        <ele>465.3</ele>
        <time>2021-10-14T11:56:44Z</time>
      </trkpt>
      <trkpt lat="44.11807" lon="3.24743">
        <ele>465.2</ele>
        <time>2021-10-14T11:56:45Z</time>
      </trkpt>
      <trkpt lat="44.11808" lon="3.24743">
        <ele>465.1</ele>
        <time>2021-10-14T11:56:46Z</time>
      </trkpt>
      <trkpt lat="44.1181" lon="3.24744">
        <ele>465.2</ele>
        <time>2021-10-14T11:56:48Z</time>
      </trkpt>
      <trkpt lat="44.1181" lon="3.24745">
        <ele>465.3</ele>
        <time>2021-10-14T11:56:49Z</time>
      </trkpt>
      <trkpt lat="44.11809" lon="3.24747">
        <ele>465.4</ele>
        <time>2021-10-14T11:56:50Z</time>
      </trkpt>
      <trkpt lat="44.11808" lon="3.24748">
        <ele>465.5</ele>
        <time>2021-10-14T11:56:51Z</time>
      </trkpt>
      <trkpt lat="44.11807" lon="3.24748">
        <ele>465.6</ele>
        <time>2021-10-14T11:56:52Z</time>
      </trkpt>
      <trkpt lat="44.11805" lon="3.24749">
        <ele>465.7</ele>
        <time>2021-10-14T11:56:54Z</time>
      </trkpt>
      <trkpt lat="44.11804" lon="3.2475">
        <ele>465.8</ele>
        <time>2021-10-14T11:56:55Z</time>
      </trkpt>
      <trkpt lat="44.11803" lon="3.2475">
        <ele>465.9</ele>
        <time>2021-10-14T11:56:56Z</time>
      </trkpt>
      <trkpt lat="44.118" lon="3.24752">
        <ele>466.1</ele>
        <time>2021-10-14T11:56:58Z</time>
      </trkpt>
      <trkpt lat="44.11799" lon="3.24752">
        <ele>466.2</ele>
        <time>2021-10-14T11:57:00Z</time>
      </trkpt>
      <trkpt lat="44.11798" lon="3.24752">
        <ele>466.3</ele>
        <time>2021-10-14T11:57:01Z</time>
      </trkpt>
      <trkpt lat="44.11797" lon="3.24753">
        <ele>466.4</ele>
        <time>2021-10-14T11:57:02Z</time>
      </trkpt>
      <trkpt lat="44.11795" lon="3.24754">
        <ele>466.5</ele>
        <time>2021-10-14T11:57:03Z</time>
      </trkpt>
      <trkpt lat="44.11794" lon="3.24755">
        <ele>466.6</ele>
        <time>2021-10-14T11:57:05Z</time>
      </trkpt>
      <trkpt lat="44.11793" lon="3.24756">
        <ele>466.8</ele>
        <time>2021-10-14T11:57:06Z</time>
      </trkpt>
      <trkpt lat="44.11791" lon="3.24757">
        <ele>466.9</ele>
        <time>2021-10-14T11:57:07Z</time>
      </trkpt>
      <trkpt lat="44.1179" lon="3.24758">
        <ele>467</ele>
        <time>2021-10-14T11:57:08Z</time>
      </trkpt>
      <trkpt lat="44.1179" lon="3.24758">
        <ele>467</ele>
        <time>2021-10-14T11:57:09Z</time>
      </trkpt>
      <trkpt lat="44.11788" lon="3.24759">
        <ele>467.1</ele>
        <time>2021-10-14T11:57:10Z</time>
      </trkpt>
      <trkpt lat="44.11787" lon="3.2476">
        <ele>467.2</ele>
        <time>2021-10-14T11:57:11Z</time>
      </trkpt>
      <trkpt lat="44.11785" lon="3.2476">
        <ele>467.4</ele>
        <time>2021-10-14T11:57:13Z</time>
      </trkpt>
      <trkpt lat="44.11784" lon="3.2476">
        <ele>467.5</ele>
        <time>2021-10-14T11:57:14Z</time>
      </trkpt>
      <trkpt lat="44.11782" lon="3.24761">
        <ele>467.7</ele>
        <time>2021-10-14T11:57:16Z</time>
      </trkpt>
      <trkpt lat="44.11781" lon="3.24763">
        <ele>467.8</ele>
        <time>2021-10-14T11:57:17Z</time>
      </trkpt>
      <trkpt lat="44.11779" lon="3.24767">
        <ele>468</ele>
        <time>2021-10-14T11:57:19Z</time>
      </trkpt>
      <trkpt lat="44.11779" lon="3.24769">
        <ele>468.2</ele>
        <time>2021-10-14T11:57:20Z</time>
      </trkpt>
      <trkpt lat="44.11777" lon="3.24772">
        <ele>468.4</ele>
        <time>2021-10-14T11:57:22Z</time>
      </trkpt>
      <trkpt lat="44.11776" lon="3.24774">
        <ele>468.5</ele>
        <time>2021-10-14T11:57:23Z</time>
      </trkpt>
      <trkpt lat="44.11775" lon="3.24775">
        <ele>468.7</ele>
        <time>2021-10-14T11:57:25Z</time>
      </trkpt>
      <trkpt lat="44.11774" lon="3.24776">
        <ele>468.8</ele>
        <time>2021-10-14T11:57:26Z</time>
      </trkpt>
      <trkpt lat="44.11772" lon="3.24777">
        <ele>468.9</ele>
        <time>2021-10-14T11:57:27Z</time>
      </trkpt>
      <trkpt lat="44.1177" lon="3.24779">
        <ele>469.1</ele>
        <time>2021-10-14T11:57:29Z</time>
      </trkpt>
      <trkpt lat="44.11769" lon="3.24779">
        <ele>469.2</ele>
        <time>2021-10-14T11:57:30Z</time>
      </trkpt>
      <trkpt lat="44.11767" lon="3.24781">
        <ele>469.4</ele>
        <time>2021-10-14T11:57:31Z</time>
      </trkpt>
      <trkpt lat="44.11766" lon="3.24781">
        <ele>469.4</ele>
        <time>2021-10-14T11:57:33Z</time>
      </trkpt>
      <trkpt lat="44.11765" lon="3.24782">
        <ele>469.5</ele>
        <time>2021-10-14T11:57:34Z</time>
      </trkpt>
      <trkpt lat="44.11764" lon="3.24784">
        <ele>469.7</ele>
        <time>2021-10-14T11:57:35Z</time>
      </trkpt>
      <trkpt lat="44.11763" lon="3.24786">
        <ele>469.8</ele>
        <time>2021-10-14T11:57:37Z</time>
      </trkpt>
      <trkpt lat="44.11762" lon="3.24788">
        <ele>469.9</ele>
        <time>2021-10-14T11:57:38Z</time>
      </trkpt>
      <trkpt lat="44.1176" lon="3.24789">
        <ele>470.1</ele>
        <time>2021-10-14T11:57:40Z</time>
      </trkpt>
      <trkpt lat="44.11759" lon="3.24791">
        <ele>470.1</ele>
        <time>2021-10-14T11:57:41Z</time>
      </trkpt>
      <trkpt lat="44.11759" lon="3.24792">
        <ele>470.2</ele>
        <time>2021-10-14T11:57:42Z</time>
      </trkpt>
      <trkpt lat="44.11758" lon="3.24793">
        <ele>470.3</ele>
        <time>2021-10-14T11:57:43Z</time>
      </trkpt>
      <trkpt lat="44.11757" lon="3.24795">
        <ele>470.4</ele>
        <time>2021-10-14T11:57:44Z</time>
      </trkpt>
      <trkpt lat="44.11755" lon="3.24796">
        <ele>470.6</ele>
        <time>2021-10-14T11:57:45Z</time>
      </trkpt>
      <trkpt lat="44.11753" lon="3.24797">
        <ele>470.7</ele>
        <time>2021-10-14T11:57:47Z</time>
      </trkpt>
      <trkpt lat="44.11752" lon="3.24798">
        <ele>470.8</ele>
        <time>2021-10-14T11:57:48Z</time>
      </trkpt>
      <trkpt lat="44.11751" lon="3.248">
        <ele>470.9</ele>
        <time>2021-10-14T11:57:49Z</time>
      </trkpt>
      <trkpt lat="44.11749" lon="3.24801">
        <ele>471</ele>
        <time>2021-10-14T11:57:50Z</time>
      </trkpt>
      <trkpt lat="44.11747" lon="3.24804">
        <ele>471.2</ele>
        <time>2021-10-14T11:57:52Z</time>
      </trkpt>
      <trkpt lat="44.11747" lon="3.24805">
        <ele>471.3</ele>
        <time>2021-10-14T11:57:53Z</time>
      </trkpt>
      <trkpt lat="44.11745" lon="3.24808">
        <ele>471.5</ele>
        <time>2021-10-14T11:57:55Z</time>
      </trkpt>
      <trkpt lat="44.11743" lon="3.24811">
        <ele>471.8</ele>
        <time>2021-10-14T11:57:56Z</time>
      </trkpt>
      <trkpt lat="44.11742" lon="3.24813">
        <ele>471.9</ele>
        <time>2021-10-14T11:57:57Z</time>
      </trkpt>
      <trkpt lat="44.11739" lon="3.24815">
        <ele>472.2</ele>
        <time>2021-10-14T11:57:59Z</time>
      </trkpt>
      <trkpt lat="44.11738" lon="3.24816">
        <ele>472.3</ele>
        <time>2021-10-14T11:58:00Z</time>
      </trkpt>
      <trkpt lat="44.11736" lon="3.24817">
        <ele>472.4</ele>
        <time>2021-10-14T11:58:02Z</time>
      </trkpt>
      <trkpt lat="44.11735" lon="3.24818">
        <ele>472.6</ele>
        <time>2021-10-14T11:58:03Z</time>
      </trkpt>
      <trkpt lat="44.11734" lon="3.2482">
        <ele>472.7</ele>
        <time>2021-10-14T11:58:04Z</time>
      </trkpt>
      <trkpt lat="44.11733" lon="3.24821">
        <ele>472.8</ele>
        <time>2021-10-14T11:58:06Z</time>
      </trkpt>
      <trkpt lat="44.11733" lon="3.24822">
        <ele>472.9</ele>
        <time>2021-10-14T11:58:07Z</time>
      </trkpt>
      <trkpt lat="44.11731" lon="3.24824">
        <ele>473</ele>
        <time>2021-10-14T11:58:08Z</time>
      </trkpt>
      <trkpt lat="44.1173" lon="3.24824">
        <ele>473.1</ele>
        <time>2021-10-14T11:58:09Z</time>
      </trkpt>
      <trkpt lat="44.11727" lon="3.24825">
        <ele>473.4</ele>
        <time>2021-10-14T11:58:11Z</time>
      </trkpt>
      <trkpt lat="44.11726" lon="3.24825">
        <ele>473.5</ele>
        <time>2021-10-14T11:58:12Z</time>
      </trkpt>
      <trkpt lat="44.11724" lon="3.24824">
        <ele>473.7</ele>
        <time>2021-10-14T11:58:14Z</time>
      </trkpt>
      <trkpt lat="44.11723" lon="3.24824">
        <ele>473.8</ele>
        <time>2021-10-14T11:58:15Z</time>
      </trkpt>
      <trkpt lat="44.1172" lon="3.24823">
        <ele>474</ele>
        <time>2021-10-14T11:58:17Z</time>
      </trkpt>
      <trkpt lat="44.11719" lon="3.24824">
        <ele>474.1</ele>
        <time>2021-10-14T11:58:18Z</time>
      </trkpt>
      <trkpt lat="44.11718" lon="3.24824">
        <ele>474.2</ele>
        <time>2021-10-14T11:58:19Z</time>
      </trkpt>
      <trkpt lat="44.11717" lon="3.24824">
        <ele>474.3</ele>
        <time>2021-10-14T11:58:20Z</time>
      </trkpt>
      <trkpt lat="44.11715" lon="3.24823">
        <ele>474.5</ele>
        <time>2021-10-14T11:58:22Z</time>
      </trkpt>
      <trkpt lat="44.11715" lon="3.2482">
        <ele>474.7</ele>
        <time>2021-10-14T11:58:24Z</time>
      </trkpt>
      <trkpt lat="44.11714" lon="3.2482">
        <ele>474.7</ele>
        <time>2021-10-14T11:58:25Z</time>
      </trkpt>
      <trkpt lat="44.11712" lon="3.24821">
        <ele>474.9</ele>
        <time>2021-10-14T11:58:26Z</time>
      </trkpt>
      <trkpt lat="44.1171" lon="3.24822">
        <ele>475.1</ele>
        <time>2021-10-14T11:58:28Z</time>
      </trkpt>
      <trkpt lat="44.11709" lon="3.24823">
        <ele>475.2</ele>
        <time>2021-10-14T11:58:29Z</time>
      </trkpt>
      <trkpt lat="44.11708" lon="3.24824">
        <ele>475.3</ele>
        <time>2021-10-14T11:58:31Z</time>
      </trkpt>
      <trkpt lat="44.11706" lon="3.24826">
        <ele>475.5</ele>
        <time>2021-10-14T11:58:32Z</time>
      </trkpt>
      <trkpt lat="44.11704" lon="3.24828">
        <ele>475.7</ele>
        <time>2021-10-14T11:58:34Z</time>
      </trkpt>
      <trkpt lat="44.11703" lon="3.2483">
        <ele>475.8</ele>
        <time>2021-10-14T11:58:35Z</time>
      </trkpt>
      <trkpt lat="44.11702" lon="3.24832">
        <ele>477.5</ele>
        <time>2021-10-14T11:58:37Z</time>
      </trkpt>
      <trkpt lat="44.11701" lon="3.24834">
        <ele>476.1</ele>
        <time>2021-10-14T11:58:38Z</time>
      </trkpt>
      <trkpt lat="44.117" lon="3.24836">
        <ele>477.9</ele>
        <time>2021-10-14T11:58:39Z</time>
      </trkpt>
      <trkpt lat="44.11699" lon="3.24839">
        <ele>477.7</ele>
        <time>2021-10-14T11:58:41Z</time>
      </trkpt>
      <trkpt lat="44.11698" lon="3.2484">
        <ele>478.1</ele>
        <time>2021-10-14T11:58:42Z</time>
      </trkpt>
      <trkpt lat="44.11696" lon="3.24844">
        <ele>479.9</ele>
        <time>2021-10-14T11:58:44Z</time>
      </trkpt>
      <trkpt lat="44.11696" lon="3.24845">
        <ele>479.7</ele>
        <time>2021-10-14T11:58:45Z</time>
      </trkpt>
      <trkpt lat="44.11695" lon="3.24846">
        <ele>478.1</ele>
        <time>2021-10-14T11:58:46Z</time>
      </trkpt>
      <trkpt lat="44.11694" lon="3.2485">
        <ele>479.7</ele>
        <time>2021-10-14T11:58:48Z</time>
      </trkpt>
      <trkpt lat="44.11695" lon="3.24851">
        <ele>479.5</ele>
        <time>2021-10-14T11:58:49Z</time>
      </trkpt>
      <trkpt lat="44.11695" lon="3.24851">
        <ele>479.3</ele>
        <time>2021-10-14T11:58:50Z</time>
      </trkpt>
      <trkpt lat="44.11695" lon="3.2485">
        <ele>479.1</ele>
        <time>2021-10-14T11:58:52Z</time>
      </trkpt>
      <trkpt lat="44.11694" lon="3.2485">
        <ele>478.9</ele>
        <time>2021-10-14T11:58:53Z</time>
      </trkpt>
      <trkpt lat="44.11694" lon="3.24851">
        <ele>478.7</ele>
        <time>2021-10-14T11:58:55Z</time>
      </trkpt>
      <trkpt lat="44.11693" lon="3.24851">
        <ele>478.5</ele>
        <time>2021-10-14T11:58:57Z</time>
      </trkpt>
      <trkpt lat="44.11693" lon="3.24852">
        <ele>478.3</ele>
        <time>2021-10-14T11:58:58Z</time>
      </trkpt>
      <trkpt lat="44.11693" lon="3.24854">
        <ele>479.8</ele>
        <time>2021-10-14T11:59:00Z</time>
      </trkpt>
      <trkpt lat="44.11692" lon="3.24856">
        <ele>479.6</ele>
        <time>2021-10-14T11:59:01Z</time>
      </trkpt>
      <trkpt lat="44.11693" lon="3.24856">
        <ele>479.7</ele>
        <time>2021-10-14T11:59:02Z</time>
      </trkpt>
      <trkpt lat="44.11693" lon="3.24857">
        <ele>479.7</ele>
        <time>2021-10-14T11:59:04Z</time>
      </trkpt>
      <trkpt lat="44.11694" lon="3.24857">
        <ele>479.8</ele>
        <time>2021-10-14T11:59:05Z</time>
      </trkpt>
      <trkpt lat="44.11694" lon="3.24857">
        <ele>479.8</ele>
        <time>2021-10-14T11:59:07Z</time>
      </trkpt>
      <trkpt lat="44.11694" lon="3.24857">
        <ele>479.8</ele>
        <time>2021-10-14T11:59:08Z</time>
      </trkpt>
      <trkpt lat="44.11694" lon="3.24857">
        <ele>479.8</ele>
        <time>2021-10-14T11:59:09Z</time>
      </trkpt>
      <trkpt lat="44.11694" lon="3.24857">
        <ele>479.8</ele>
        <time>2021-10-14T11:59:11Z</time>
      </trkpt>
      <trkpt lat="44.11694" lon="3.24857">
        <ele>479.8</ele>
        <time>2021-10-14T11:59:12Z</time>
      </trkpt>
      <trkpt lat="44.11695" lon="3.24857">
        <ele>479.8</ele>
        <time>2021-10-14T11:59:14Z</time>
      </trkpt>
      <trkpt lat="44.11695" lon="3.24858">
        <ele>479.9</ele>
        <time>2021-10-14T11:59:16Z</time>
      </trkpt>
      <trkpt lat="44.11696" lon="3.24858">
        <ele>479.9</ele>
        <time>2021-10-14T11:59:18Z</time>
      </trkpt>
      <trkpt lat="44.11696" lon="3.24859">
        <ele>480</ele>
        <time>2021-10-14T11:59:20Z</time>
      </trkpt>
      <trkpt lat="44.11696" lon="3.24859">
        <ele>480</ele>
        <time>2021-10-14T11:59:22Z</time>
      </trkpt>
      <trkpt lat="44.11696" lon="3.24859">
        <ele>480</ele>
        <time>2021-10-14T11:59:23Z</time>
      </trkpt>
      <trkpt lat="44.11697" lon="3.2486">
        <ele>480</ele>
        <time>2021-10-14T11:59:25Z</time>
      </trkpt>
      <trkpt lat="44.11698" lon="3.2486">
        <ele>480.1</ele>
        <time>2021-10-14T11:59:26Z</time>
      </trkpt>
      <trkpt lat="44.11699" lon="3.2486">
        <ele>480.2</ele>
        <time>2021-10-14T11:59:27Z</time>
      </trkpt>
      <trkpt lat="44.11702" lon="3.2486">
        <ele>480.4</ele>
        <time>2021-10-14T11:59:28Z</time>
      </trkpt>
      <trkpt lat="44.11703" lon="3.2486">
        <ele>480.5</ele>
        <time>2021-10-14T11:59:29Z</time>
      </trkpt>
      <trkpt lat="44.11705" lon="3.24858">
        <ele>480.6</ele>
        <time>2021-10-14T11:59:30Z</time>
      </trkpt>
      <trkpt lat="44.11707" lon="3.24855">
        <ele>480.9</ele>
        <time>2021-10-14T11:59:32Z</time>
      </trkpt>
      <trkpt lat="44.1171" lon="3.24853">
        <ele>481.1</ele>
        <time>2021-10-14T11:59:34Z</time>
      </trkpt>
      <trkpt lat="44.11711" lon="3.24853">
        <ele>481.2</ele>
        <time>2021-10-14T11:59:35Z</time>
      </trkpt>
      <trkpt lat="44.11713" lon="3.24852">
        <ele>481.3</ele>
        <time>2021-10-14T11:59:36Z</time>
      </trkpt>
      <trkpt lat="44.11714" lon="3.24851">
        <ele>481.4</ele>
        <time>2021-10-14T11:59:37Z</time>
      </trkpt>
      <trkpt lat="44.11717" lon="3.24852">
        <ele>481.7</ele>
        <time>2021-10-14T11:59:39Z</time>
      </trkpt>
      <trkpt lat="44.11719" lon="3.24852">
        <ele>481.8</ele>
        <time>2021-10-14T11:59:40Z</time>
      </trkpt>
      <trkpt lat="44.11721" lon="3.24852">
        <ele>481.9</ele>
        <time>2021-10-14T11:59:42Z</time>
      </trkpt>
      <trkpt lat="44.11722" lon="3.24851">
        <ele>482</ele>
        <time>2021-10-14T11:59:43Z</time>
      </trkpt>
      <trkpt lat="44.11724" lon="3.2485">
        <ele>482.2</ele>
        <time>2021-10-14T11:59:44Z</time>
      </trkpt>
      <trkpt lat="44.11727" lon="3.2485">
        <ele>482.4</ele>
        <time>2021-10-14T11:59:46Z</time>
      </trkpt>
      <trkpt lat="44.1173" lon="3.24852">
        <ele>482.6</ele>
        <time>2021-10-14T11:59:47Z</time>
      </trkpt>
      <trkpt lat="44.1173" lon="3.24853">
        <ele>482.7</ele>
        <time>2021-10-14T11:59:48Z</time>
      </trkpt>
      <trkpt lat="44.11732" lon="3.24854">
        <ele>482.9</ele>
        <time>2021-10-14T11:59:49Z</time>
      </trkpt>
      <trkpt lat="44.11734" lon="3.24854">
        <ele>483</ele>
        <time>2021-10-14T11:59:51Z</time>
      </trkpt>
      <trkpt lat="44.11736" lon="3.24853">
        <ele>483.2</ele>
        <time>2021-10-14T11:59:52Z</time>
      </trkpt>
      <trkpt lat="44.11737" lon="3.24855">
        <ele>483.3</ele>
        <time>2021-10-14T11:59:53Z</time>
      </trkpt>
      <trkpt lat="44.11739" lon="3.24857">
        <ele>483.5</ele>
        <time>2021-10-14T11:59:55Z</time>
      </trkpt>
      <trkpt lat="44.1174" lon="3.24857">
        <ele>483.6</ele>
        <time>2021-10-14T11:59:56Z</time>
      </trkpt>
      <trkpt lat="44.11744" lon="3.24857">
        <ele>483.9</ele>
        <time>2021-10-14T11:59:58Z</time>
      </trkpt>
      <trkpt lat="44.11745" lon="3.24857">
        <ele>484</ele>
        <time>2021-10-14T11:59:59Z</time>
      </trkpt>
      <trkpt lat="44.11748" lon="3.24857">
        <ele>484.3</ele>
        <time>2021-10-14T12:00:01Z</time>
      </trkpt>
      <trkpt lat="44.11749" lon="3.24857">
        <ele>484.4</ele>
        <time>2021-10-14T12:00:02Z</time>
      </trkpt>
      <trkpt lat="44.11751" lon="3.24858">
        <ele>484.6</ele>
        <time>2021-10-14T12:00:03Z</time>
      </trkpt>
      <trkpt lat="44.11753" lon="3.24859">
        <ele>484.8</ele>
        <time>2021-10-14T12:00:05Z</time>
      </trkpt>
      <trkpt lat="44.11756" lon="3.24859">
        <ele>485</ele>
        <time>2021-10-14T12:00:06Z</time>
      </trkpt>
      <trkpt lat="44.11757" lon="3.24859">
        <ele>485.1</ele>
        <time>2021-10-14T12:00:07Z</time>
      </trkpt>
      <trkpt lat="44.11759" lon="3.24858">
        <ele>485.3</ele>
        <time>2021-10-14T12:00:08Z</time>
      </trkpt>
      <trkpt lat="44.11761" lon="3.24858">
        <ele>485.5</ele>
        <time>2021-10-14T12:00:10Z</time>
      </trkpt>
      <trkpt lat="44.11764" lon="3.24857">
        <ele>485.7</ele>
        <time>2021-10-14T12:00:11Z</time>
      </trkpt>
      <trkpt lat="44.11765" lon="3.24857">
        <ele>485.8</ele>
        <time>2021-10-14T12:00:12Z</time>
      </trkpt>
      <trkpt lat="44.11767" lon="3.24855">
        <ele>486</ele>
        <time>2021-10-14T12:00:13Z</time>
      </trkpt>
      <trkpt lat="44.11768" lon="3.24853">
        <ele>486.1</ele>
        <time>2021-10-14T12:00:15Z</time>
      </trkpt>
      <trkpt lat="44.1177" lon="3.24851">
        <ele>486.3</ele>
        <time>2021-10-14T12:00:16Z</time>
      </trkpt>
      <trkpt lat="44.11771" lon="3.24848">
        <ele>486.5</ele>
        <time>2021-10-14T12:00:18Z</time>
      </trkpt>
      <trkpt lat="44.11772" lon="3.24844">
        <ele>486.8</ele>
        <time>2021-10-14T12:00:19Z</time>
      </trkpt>
      <trkpt lat="44.11775" lon="3.24838">
        <ele>487.2</ele>
        <time>2021-10-14T12:00:21Z</time>
      </trkpt>
      <trkpt lat="44.11776" lon="3.24837">
        <ele>487.3</ele>
        <time>2021-10-14T12:00:23Z</time>
      </trkpt>
      <trkpt lat="44.11777" lon="3.24835">
        <ele>487.4</ele>
        <time>2021-10-14T12:00:24Z</time>
      </trkpt>
      <trkpt lat="44.11778" lon="3.24834">
        <ele>487.6</ele>
        <time>2021-10-14T12:00:26Z</time>
      </trkpt>
      <trkpt lat="44.11779" lon="3.24833">
        <ele>487.7</ele>
        <time>2021-10-14T12:00:27Z</time>
      </trkpt>
      <trkpt lat="44.1178" lon="3.24832">
        <ele>487.8</ele>
        <time>2021-10-14T12:00:29Z</time>
      </trkpt>
      <trkpt lat="44.11782" lon="3.24831">
        <ele>487.9</ele>
        <time>2021-10-14T12:00:30Z</time>
      </trkpt>
      <trkpt lat="44.11783" lon="3.24831">
        <ele>488</ele>
        <time>2021-10-14T12:00:32Z</time>
      </trkpt>
      <trkpt lat="44.11785" lon="3.2483">
        <ele>488.2</ele>
        <time>2021-10-14T12:00:33Z</time>
      </trkpt>
      <trkpt lat="44.11786" lon="3.24829">
        <ele>488.3</ele>
        <time>2021-10-14T12:00:35Z</time>
      </trkpt>
      <trkpt lat="44.11788" lon="3.24828">
        <ele>488.5</ele>
        <time>2021-10-14T12:00:36Z</time>
      </trkpt>
      <trkpt lat="44.11789" lon="3.24828">
        <ele>488.6</ele>
        <time>2021-10-14T12:00:37Z</time>
      </trkpt>
      <trkpt lat="44.11791" lon="3.24828">
        <ele>488.7</ele>
        <time>2021-10-14T12:00:38Z</time>
      </trkpt>
      <trkpt lat="44.11792" lon="3.24829">
        <ele>488.8</ele>
        <time>2021-10-14T12:00:39Z</time>
      </trkpt>
      <trkpt lat="44.11794" lon="3.24829">
        <ele>489</ele>
        <time>2021-10-14T12:00:41Z</time>
      </trkpt>
      <trkpt lat="44.11796" lon="3.24828">
        <ele>489.1</ele>
        <time>2021-10-14T12:00:42Z</time>
      </trkpt>
      <trkpt lat="44.11797" lon="3.24828">
        <ele>489.2</ele>
        <time>2021-10-14T12:00:43Z</time>
      </trkpt>
      <trkpt lat="44.11799" lon="3.24827">
        <ele>489.3</ele>
        <time>2021-10-14T12:00:44Z</time>
      </trkpt>
      <trkpt lat="44.118" lon="3.24826">
        <ele>489.5</ele>
        <time>2021-10-14T12:00:46Z</time>
      </trkpt>
      <trkpt lat="44.11802" lon="3.24825">
        <ele>489.6</ele>
        <time>2021-10-14T12:00:47Z</time>
      </trkpt>
      <trkpt lat="44.11805" lon="3.24824">
        <ele>489.8</ele>
        <time>2021-10-14T12:00:49Z</time>
      </trkpt>
      <trkpt lat="44.11808" lon="3.24824">
        <ele>490</ele>
        <time>2021-10-14T12:00:50Z</time>
      </trkpt>
      <trkpt lat="44.11809" lon="3.24824">
        <ele>490.1</ele>
        <time>2021-10-14T12:00:51Z</time>
      </trkpt>
      <trkpt lat="44.11811" lon="3.24824">
        <ele>490.2</ele>
        <time>2021-10-14T12:00:53Z</time>
      </trkpt>
      <trkpt lat="44.11813" lon="3.24824">
        <ele>490.4</ele>
        <time>2021-10-14T12:00:55Z</time>
      </trkpt>
      <trkpt lat="44.11815" lon="3.24824">
        <ele>490.6</ele>
        <time>2021-10-14T12:00:56Z</time>
      </trkpt>
      <trkpt lat="44.11817" lon="3.24823">
        <ele>490.7</ele>
        <time>2021-10-14T12:00:58Z</time>
      </trkpt>
      <trkpt lat="44.1182" lon="3.24822">
        <ele>490.9</ele>
        <time>2021-10-14T12:00:59Z</time>
      </trkpt>
      <trkpt lat="44.11821" lon="3.24822">
        <ele>491</ele>
        <time>2021-10-14T12:01:00Z</time>
      </trkpt>
      <trkpt lat="44.11825" lon="3.2482">
        <ele>491.4</ele>
        <time>2021-10-14T12:01:02Z</time>
      </trkpt>
      <trkpt lat="44.11827" lon="3.2482">
        <ele>491.5</ele>
        <time>2021-10-14T12:01:03Z</time>
      </trkpt>
      <trkpt lat="44.11828" lon="3.24819">
        <ele>491.6</ele>
        <time>2021-10-14T12:01:04Z</time>
      </trkpt>
      <trkpt lat="44.11831" lon="3.24818">
        <ele>491.9</ele>
        <time>2021-10-14T12:01:06Z</time>
      </trkpt>
      <trkpt lat="44.11832" lon="3.24818">
        <ele>491.9</ele>
        <time>2021-10-14T12:01:07Z</time>
      </trkpt>
      <trkpt lat="44.11834" lon="3.24817">
        <ele>492.1</ele>
        <time>2021-10-14T12:01:08Z</time>
      </trkpt>
      <trkpt lat="44.11836" lon="3.24816">
        <ele>492.3</ele>
        <time>2021-10-14T12:01:10Z</time>
      </trkpt>
      <trkpt lat="44.11839" lon="3.24816">
        <ele>492.5</ele>
        <time>2021-10-14T12:01:11Z</time>
      </trkpt>
      <trkpt lat="44.1184" lon="3.24815">
        <ele>492.6</ele>
        <time>2021-10-14T12:01:12Z</time>
      </trkpt>
      <trkpt lat="44.11843" lon="3.24813">
        <ele>492.9</ele>
        <time>2021-10-14T12:01:14Z</time>
      </trkpt>
      <trkpt lat="44.11844" lon="3.24813">
        <ele>493</ele>
        <time>2021-10-14T12:01:15Z</time>
      </trkpt>
      <trkpt lat="44.11846" lon="3.24812">
        <ele>493.1</ele>
        <time>2021-10-14T12:01:16Z</time>
      </trkpt>
      <trkpt lat="44.11847" lon="3.24811">
        <ele>493.2</ele>
        <time>2021-10-14T12:01:17Z</time>
      </trkpt>
      <trkpt lat="44.1185" lon="3.24809">
        <ele>493.5</ele>
        <time>2021-10-14T12:01:19Z</time>
      </trkpt>
      <trkpt lat="44.1185" lon="3.24809">
        <ele>493.6</ele>
        <time>2021-10-14T12:01:20Z</time>
      </trkpt>
      <trkpt lat="44.11851" lon="3.24808">
        <ele>493.7</ele>
        <time>2021-10-14T12:01:21Z</time>
      </trkpt>
      <trkpt lat="44.11853" lon="3.24807">
        <ele>493.8</ele>
        <time>2021-10-14T12:01:23Z</time>
      </trkpt>
      <trkpt lat="44.11855" lon="3.24806">
        <ele>494</ele>
        <time>2021-10-14T12:01:24Z</time>
      </trkpt>
      <trkpt lat="44.11856" lon="3.24805">
        <ele>494.1</ele>
        <time>2021-10-14T12:01:25Z</time>
      </trkpt>
      <trkpt lat="44.11858" lon="3.24805">
        <ele>494.2</ele>
        <time>2021-10-14T12:01:26Z</time>
      </trkpt>
      <trkpt lat="44.1186" lon="3.24804">
        <ele>494.4</ele>
        <time>2021-10-14T12:01:28Z</time>
      </trkpt>
      <trkpt lat="44.11861" lon="3.24804">
        <ele>494.5</ele>
        <time>2021-10-14T12:01:29Z</time>
      </trkpt>
      <trkpt lat="44.11863" lon="3.24804">
        <ele>494.7</ele>
        <time>2021-10-14T12:01:30Z</time>
      </trkpt>
      <trkpt lat="44.11866" lon="3.24803">
        <ele>494.9</ele>
        <time>2021-10-14T12:01:32Z</time>
      </trkpt>
      <trkpt lat="44.11867" lon="3.24803">
        <ele>495</ele>
        <time>2021-10-14T12:01:33Z</time>
      </trkpt>
      <trkpt lat="44.11868" lon="3.24803">
        <ele>495.1</ele>
        <time>2021-10-14T12:01:34Z</time>
      </trkpt>
      <trkpt lat="44.1187" lon="3.24802">
        <ele>495.3</ele>
        <time>2021-10-14T12:01:36Z</time>
      </trkpt>
      <trkpt lat="44.11872" lon="3.24801">
        <ele>495.5</ele>
        <time>2021-10-14T12:01:37Z</time>
      </trkpt>
      <trkpt lat="44.11874" lon="3.248">
        <ele>495.7</ele>
        <time>2021-10-14T12:01:39Z</time>
      </trkpt>
      <trkpt lat="44.11877" lon="3.248">
        <ele>495.9</ele>
        <time>2021-10-14T12:01:41Z</time>
      </trkpt>
      <trkpt lat="44.11878" lon="3.248">
        <ele>496</ele>
        <time>2021-10-14T12:01:42Z</time>
      </trkpt>
      <trkpt lat="44.1188" lon="3.24799">
        <ele>496.1</ele>
        <time>2021-10-14T12:01:43Z</time>
      </trkpt>
      <trkpt lat="44.11881" lon="3.24799">
        <ele>496.2</ele>
        <time>2021-10-14T12:01:44Z</time>
      </trkpt>
      <trkpt lat="44.11883" lon="3.24799">
        <ele>496.3</ele>
        <time>2021-10-14T12:01:46Z</time>
      </trkpt>
      <trkpt lat="44.11884" lon="3.24799">
        <ele>496.4</ele>
        <time>2021-10-14T12:01:47Z</time>
      </trkpt>
      <trkpt lat="44.11887" lon="3.24799">
        <ele>496.7</ele>
        <time>2021-10-14T12:01:49Z</time>
      </trkpt>
      <trkpt lat="44.11888" lon="3.24799">
        <ele>496.7</ele>
        <time>2021-10-14T12:01:50Z</time>
      </trkpt>
      <trkpt lat="44.1189" lon="3.248">
        <ele>496.9</ele>
        <time>2021-10-14T12:01:51Z</time>
      </trkpt>
      <trkpt lat="44.11892" lon="3.24801">
        <ele>497</ele>
        <time>2021-10-14T12:01:53Z</time>
      </trkpt>
      <trkpt lat="44.11893" lon="3.24801">
        <ele>497.1</ele>
        <time>2021-10-14T12:01:54Z</time>
      </trkpt>
      <trkpt lat="44.11894" lon="3.24801">
        <ele>497.2</ele>
        <time>2021-10-14T12:01:55Z</time>
      </trkpt>
      <trkpt lat="44.11895" lon="3.24801">
        <ele>497.3</ele>
        <time>2021-10-14T12:01:56Z</time>
      </trkpt>
      <trkpt lat="44.11897" lon="3.24801">
        <ele>497.5</ele>
        <time>2021-10-14T12:01:58Z</time>
      </trkpt>
      <trkpt lat="44.11899" lon="3.24801">
        <ele>497.6</ele>
        <time>2021-10-14T12:01:59Z</time>
      </trkpt>
      <trkpt lat="44.119" lon="3.24801">
        <ele>497.7</ele>
        <time>2021-10-14T12:02:01Z</time>
      </trkpt>
      <trkpt lat="44.11902" lon="3.24801">
        <ele>498.3</ele>
        <time>2021-10-14T12:02:02Z</time>
      </trkpt>
      <trkpt lat="44.11903" lon="3.248">
        <ele>498.5</ele>
        <time>2021-10-14T12:02:03Z</time>
      </trkpt>
      <trkpt lat="44.11905" lon="3.248">
        <ele>498.7</ele>
        <time>2021-10-14T12:02:04Z</time>
      </trkpt>
      <trkpt lat="44.11906" lon="3.24799">
        <ele>498.9</ele>
        <time>2021-10-14T12:02:06Z</time>
      </trkpt>
      <trkpt lat="44.11908" lon="3.24799">
        <ele>499.1</ele>
        <time>2021-10-14T12:02:07Z</time>
      </trkpt>
      <trkpt lat="44.1191" lon="3.24799">
        <ele>499.4</ele>
        <time>2021-10-14T12:02:08Z</time>
      </trkpt>
      <trkpt lat="44.11912" lon="3.24799">
        <ele>499.5</ele>
        <time>2021-10-14T12:02:10Z</time>
      </trkpt>
      <trkpt lat="44.11913" lon="3.24799">
        <ele>499.7</ele>
        <time>2021-10-14T12:02:11Z</time>
      </trkpt>
      <trkpt lat="44.11914" lon="3.24799">
        <ele>499.9</ele>
        <time>2021-10-14T12:02:13Z</time>
      </trkpt>
      <trkpt lat="44.11915" lon="3.24799">
        <ele>500</ele>
        <time>2021-10-14T12:02:14Z</time>
      </trkpt>
      <trkpt lat="44.11916" lon="3.24799">
        <ele>500.1</ele>
        <time>2021-10-14T12:02:15Z</time>
      </trkpt>
      <trkpt lat="44.11917" lon="3.248">
        <ele>500.3</ele>
        <time>2021-10-14T12:02:17Z</time>
      </trkpt>
      <trkpt lat="44.11919" lon="3.248">
        <ele>500.5</ele>
        <time>2021-10-14T12:02:18Z</time>
      </trkpt>
      <trkpt lat="44.1192" lon="3.24801">
        <ele>500.6</ele>
        <time>2021-10-14T12:02:19Z</time>
      </trkpt>
      <trkpt lat="44.11922" lon="3.24802">
        <ele>500.9</ele>
        <time>2021-10-14T12:02:21Z</time>
      </trkpt>
      <trkpt lat="44.11923" lon="3.24802">
        <ele>501.1</ele>
        <time>2021-10-14T12:02:22Z</time>
      </trkpt>
      <trkpt lat="44.11924" lon="3.24803">
        <ele>501.3</ele>
        <time>2021-10-14T12:02:24Z</time>
      </trkpt>
      <trkpt lat="44.11926" lon="3.24805">
        <ele>501.5</ele>
        <time>2021-10-14T12:02:25Z</time>
      </trkpt>
      <trkpt lat="44.11927" lon="3.24806">
        <ele>501.7</ele>
        <time>2021-10-14T12:02:26Z</time>
      </trkpt>
      <trkpt lat="44.11929" lon="3.24807">
        <ele>502</ele>
        <time>2021-10-14T12:02:27Z</time>
      </trkpt>
      <trkpt lat="44.11931" lon="3.24809">
        <ele>502.3</ele>
        <time>2021-10-14T12:02:29Z</time>
      </trkpt>
      <trkpt lat="44.11933" lon="3.24811">
        <ele>502.6</ele>
        <time>2021-10-14T12:02:30Z</time>
      </trkpt>
      <trkpt lat="44.11935" lon="3.24813">
        <ele>503</ele>
        <time>2021-10-14T12:02:32Z</time>
      </trkpt>
      <trkpt lat="44.11937" lon="3.24816">
        <ele>503.3</ele>
        <time>2021-10-14T12:02:33Z</time>
      </trkpt>
      <trkpt lat="44.11938" lon="3.24817">
        <ele>503.5</ele>
        <time>2021-10-14T12:02:34Z</time>
      </trkpt>
      <trkpt lat="44.1194" lon="3.24819">
        <ele>503.7</ele>
        <time>2021-10-14T12:02:35Z</time>
      </trkpt>
      <trkpt lat="44.11942" lon="3.24821">
        <ele>504</ele>
        <time>2021-10-14T12:02:37Z</time>
      </trkpt>
      <trkpt lat="44.11943" lon="3.24823">
        <ele>504.2</ele>
        <time>2021-10-14T12:02:38Z</time>
      </trkpt>
      <trkpt lat="44.11944" lon="3.24824">
        <ele>504.4</ele>
        <time>2021-10-14T12:02:39Z</time>
      </trkpt>
      <trkpt lat="44.11945" lon="3.24828">
        <ele>504.7</ele>
        <time>2021-10-14T12:02:41Z</time>
      </trkpt>
      <trkpt lat="44.11946" lon="3.24829">
        <ele>504.8</ele>
        <time>2021-10-14T12:02:42Z</time>
      </trkpt>
      <trkpt lat="44.11946" lon="3.24831">
        <ele>505</ele>
        <time>2021-10-14T12:02:43Z</time>
      </trkpt>
      <trkpt lat="44.11947" lon="3.24833">
        <ele>505.2</ele>
        <time>2021-10-14T12:02:44Z</time>
      </trkpt>
      <trkpt lat="44.11947" lon="3.24837">
        <ele>505.4</ele>
        <time>2021-10-14T12:02:45Z</time>
      </trkpt>
      <trkpt lat="44.11947" lon="3.24839">
        <ele>505.6</ele>
        <time>2021-10-14T12:02:47Z</time>
      </trkpt>
      <trkpt lat="44.11948" lon="3.2484">
        <ele>505.7</ele>
        <time>2021-10-14T12:02:48Z</time>
      </trkpt>
      <trkpt lat="44.11948" lon="3.24843">
        <ele>505.9</ele>
        <time>2021-10-14T12:02:49Z</time>
      </trkpt>
      <trkpt lat="44.11949" lon="3.24845">
        <ele>506</ele>
        <time>2021-10-14T12:02:50Z</time>
      </trkpt>
      <trkpt lat="44.11949" lon="3.24847">
        <ele>506.2</ele>
        <time>2021-10-14T12:02:51Z</time>
      </trkpt>
      <trkpt lat="44.11949" lon="3.24848">
        <ele>506.3</ele>
        <time>2021-10-14T12:02:52Z</time>
      </trkpt>
      <trkpt lat="44.1195" lon="3.24851">
        <ele>506.5</ele>
        <time>2021-10-14T12:02:54Z</time>
      </trkpt>
      <trkpt lat="44.1195" lon="3.24854">
        <ele>506.8</ele>
        <time>2021-10-14T12:02:55Z</time>
      </trkpt>
      <trkpt lat="44.1195" lon="3.24854">
        <ele>506.8</ele>
        <time>2021-10-14T12:02:56Z</time>
      </trkpt>
      <trkpt lat="44.1195" lon="3.24855">
        <ele>506.9</ele>
        <time>2021-10-14T12:02:57Z</time>
      </trkpt>
      <trkpt lat="44.1195" lon="3.24859">
        <ele>507.1</ele>
        <time>2021-10-14T12:02:59Z</time>
      </trkpt>
      <trkpt lat="44.1195" lon="3.2486">
        <ele>507.3</ele>
        <time>2021-10-14T12:03:00Z</time>
      </trkpt>
      <trkpt lat="44.1195" lon="3.24864">
        <ele>507.6</ele>
        <time>2021-10-14T12:03:02Z</time>
      </trkpt>
      <trkpt lat="44.1195" lon="3.24866">
        <ele>507.7</ele>
        <time>2021-10-14T12:03:03Z</time>
      </trkpt>
      <trkpt lat="44.1195" lon="3.24868">
        <ele>507.9</ele>
        <time>2021-10-14T12:03:04Z</time>
      </trkpt>
      <trkpt lat="44.11951" lon="3.2487">
        <ele>508.1</ele>
        <time>2021-10-14T12:03:05Z</time>
      </trkpt>
      <trkpt lat="44.11951" lon="3.24873">
        <ele>508.3</ele>
        <time>2021-10-14T12:03:06Z</time>
      </trkpt>
      <trkpt lat="44.11952" lon="3.24876">
        <ele>508.6</ele>
        <time>2021-10-14T12:03:08Z</time>
      </trkpt>
      <trkpt lat="44.11952" lon="3.24878">
        <ele>508.7</ele>
        <time>2021-10-14T12:03:09Z</time>
      </trkpt>
      <trkpt lat="44.11953" lon="3.24879">
        <ele>508.9</ele>
        <time>2021-10-14T12:03:10Z</time>
      </trkpt>
      <trkpt lat="44.11954" lon="3.24881">
        <ele>509</ele>
        <time>2021-10-14T12:03:11Z</time>
      </trkpt>
      <trkpt lat="44.11956" lon="3.24883">
        <ele>509.3</ele>
        <time>2021-10-14T12:03:13Z</time>
      </trkpt>
      <trkpt lat="44.11957" lon="3.24884">
        <ele>509.4</ele>
        <time>2021-10-14T12:03:14Z</time>
      </trkpt>
      <trkpt lat="44.11958" lon="3.24886">
        <ele>509.6</ele>
        <time>2021-10-14T12:03:15Z</time>
      </trkpt>
      <trkpt lat="44.11959" lon="3.24888">
        <ele>509.7</ele>
        <time>2021-10-14T12:03:17Z</time>
      </trkpt>
      <trkpt lat="44.1196" lon="3.24888">
        <ele>509.8</ele>
        <time>2021-10-14T12:03:18Z</time>
      </trkpt>
      <trkpt lat="44.11962" lon="3.24888">
        <ele>509.9</ele>
        <time>2021-10-14T12:03:19Z</time>
      </trkpt>
      <trkpt lat="44.11963" lon="3.24888">
        <ele>510</ele>
        <time>2021-10-14T12:03:20Z</time>
      </trkpt>
      <trkpt lat="44.11965" lon="3.24888">
        <ele>510.1</ele>
        <time>2021-10-14T12:03:21Z</time>
      </trkpt>
      <trkpt lat="44.11966" lon="3.24888">
        <ele>510.2</ele>
        <time>2021-10-14T12:03:22Z</time>
      </trkpt>
      <trkpt lat="44.11967" lon="3.24887">
        <ele>510.3</ele>
        <time>2021-10-14T12:03:24Z</time>
      </trkpt>
      <trkpt lat="44.1197" lon="3.24887">
        <ele>510.5</ele>
        <time>2021-10-14T12:03:25Z</time>
      </trkpt>
      <trkpt lat="44.11971" lon="3.24887">
        <ele>510.6</ele>
        <time>2021-10-14T12:03:26Z</time>
      </trkpt>
      <trkpt lat="44.11974" lon="3.24886">
        <ele>510.8</ele>
        <time>2021-10-14T12:03:28Z</time>
      </trkpt>
      <trkpt lat="44.11974" lon="3.24886">
        <ele>510.8</ele>
        <time>2021-10-14T12:03:29Z</time>
      </trkpt>
      <trkpt lat="44.11975" lon="3.24886">
        <ele>510.8</ele>
        <time>2021-10-14T12:03:30Z</time>
      </trkpt>
      <trkpt lat="44.11978" lon="3.24883">
        <ele>511.1</ele>
        <time>2021-10-14T12:03:32Z</time>
      </trkpt>
      <trkpt lat="44.1198" lon="3.24879">
        <ele>511.3</ele>
        <time>2021-10-14T12:03:33Z</time>
      </trkpt>
      <trkpt lat="44.11981" lon="3.24878">
        <ele>511.5</ele>
        <time>2021-10-14T12:03:34Z</time>
      </trkpt>
      <trkpt lat="44.11984" lon="3.24875">
        <ele>511.7</ele>
        <time>2021-10-14T12:03:36Z</time>
      </trkpt>
      <trkpt lat="44.11987" lon="3.24872">
        <ele>512</ele>
        <time>2021-10-14T12:03:37Z</time>
      </trkpt>
      <trkpt lat="44.1199" lon="3.2487">
        <ele>512.3</ele>
        <time>2021-10-14T12:03:39Z</time>
      </trkpt>
      <trkpt lat="44.11992" lon="3.24869">
        <ele>512.5</ele>
        <time>2021-10-14T12:03:40Z</time>
      </trkpt>
      <trkpt lat="44.11996" lon="3.24868">
        <ele>512.9</ele>
        <time>2021-10-14T12:03:42Z</time>
      </trkpt>
      <trkpt lat="44.11999" lon="3.24867">
        <ele>513.1</ele>
        <time>2021-10-14T12:03:43Z</time>
      </trkpt>
      <trkpt lat="44.12003" lon="3.24867">
        <ele>513.5</ele>
        <time>2021-10-14T12:03:45Z</time>
      </trkpt>
      <trkpt lat="44.12006" lon="3.24866">
        <ele>513.8</ele>
        <time>2021-10-14T12:03:46Z</time>
      </trkpt>
      <trkpt lat="44.12009" lon="3.24866">
        <ele>513.9</ele>
        <time>2021-10-14T12:03:47Z</time>
      </trkpt>
      <trkpt lat="44.12012" lon="3.24865">
        <ele>514.2</ele>
        <time>2021-10-14T12:03:49Z</time>
      </trkpt>
      <trkpt lat="44.12016" lon="3.24864">
        <ele>514.5</ele>
        <time>2021-10-14T12:03:50Z</time>
      </trkpt>
      <trkpt lat="44.12017" lon="3.24863">
        <ele>514.6</ele>
        <time>2021-10-14T12:03:51Z</time>
      </trkpt>
      <trkpt lat="44.12021" lon="3.24863">
        <ele>514.8</ele>
        <time>2021-10-14T12:03:53Z</time>
      </trkpt>
      <trkpt lat="44.12024" lon="3.24863">
        <ele>514.9</ele>
        <time>2021-10-14T12:03:54Z</time>
      </trkpt>
      <trkpt lat="44.12028" lon="3.24863">
        <ele>515</ele>
        <time>2021-10-14T12:03:55Z</time>
      </trkpt>
      <trkpt lat="44.12032" lon="3.24864">
        <ele>515.2</ele>
        <time>2021-10-14T12:03:56Z</time>
      </trkpt>
      <trkpt lat="44.12037" lon="3.24866">
        <ele>515.4</ele>
        <time>2021-10-14T12:03:58Z</time>
      </trkpt>
      <trkpt lat="44.12041" lon="3.24867">
        <ele>515.5</ele>
        <time>2021-10-14T12:03:59Z</time>
      </trkpt>
      <trkpt lat="44.12046" lon="3.24868">
        <ele>515.6</ele>
        <time>2021-10-14T12:04:01Z</time>
      </trkpt>
      <trkpt lat="44.12049" lon="3.24869">
        <ele>515.7</ele>
        <time>2021-10-14T12:04:02Z</time>
      </trkpt>
      <trkpt lat="44.12053" lon="3.24871">
        <ele>515.9</ele>
        <time>2021-10-14T12:04:03Z</time>
      </trkpt>
      <trkpt lat="44.12056" lon="3.24871">
        <ele>516</ele>
        <time>2021-10-14T12:04:04Z</time>
      </trkpt>
      <trkpt lat="44.12059" lon="3.24872">
        <ele>516.1</ele>
        <time>2021-10-14T12:04:06Z</time>
      </trkpt>
      <trkpt lat="44.12062" lon="3.24873">
        <ele>516.2</ele>
        <time>2021-10-14T12:04:07Z</time>
      </trkpt>
      <trkpt lat="44.12064" lon="3.24873">
        <ele>516.3</ele>
        <time>2021-10-14T12:04:08Z</time>
      </trkpt>
      <trkpt lat="44.12067" lon="3.24873">
        <ele>516.5</ele>
        <time>2021-10-14T12:04:10Z</time>
      </trkpt>
      <trkpt lat="44.12071" lon="3.24873">
        <ele>516.6</ele>
        <time>2021-10-14T12:04:11Z</time>
      </trkpt>
      <trkpt lat="44.12072" lon="3.24873">
        <ele>516.7</ele>
        <time>2021-10-14T12:04:12Z</time>
      </trkpt>
      <trkpt lat="44.12077" lon="3.24872">
        <ele>517</ele>
        <time>2021-10-14T12:04:14Z</time>
      </trkpt>
      <trkpt lat="44.12079" lon="3.24872">
        <ele>517.2</ele>
        <time>2021-10-14T12:04:15Z</time>
      </trkpt>
      <trkpt lat="44.12081" lon="3.24872">
        <ele>517.3</ele>
        <time>2021-10-14T12:04:16Z</time>
      </trkpt>
      <trkpt lat="44.12085" lon="3.24872">
        <ele>517.8</ele>
        <time>2021-10-14T12:04:18Z</time>
      </trkpt>
      <trkpt lat="44.12087" lon="3.24872">
        <ele>518</ele>
        <time>2021-10-14T12:04:19Z</time>
      </trkpt>
      <trkpt lat="44.12089" lon="3.24871">
        <ele>518.2</ele>
        <time>2021-10-14T12:04:20Z</time>
      </trkpt>
      <trkpt lat="44.12093" lon="3.2487">
        <ele>518.6</ele>
        <time>2021-10-14T12:04:22Z</time>
      </trkpt>
      <trkpt lat="44.12094" lon="3.24869">
        <ele>518.7</ele>
        <time>2021-10-14T12:04:23Z</time>
      </trkpt>
      <trkpt lat="44.12096" lon="3.24866">
        <ele>519</ele>
        <time>2021-10-14T12:04:24Z</time>
      </trkpt>
      <trkpt lat="44.12099" lon="3.24863">
        <ele>519.4</ele>
        <time>2021-10-14T12:04:25Z</time>
      </trkpt>
      <trkpt lat="44.121" lon="3.24863">
        <ele>519.5</ele>
        <time>2021-10-14T12:04:26Z</time>
      </trkpt>
      <trkpt lat="44.12102" lon="3.2486">
        <ele>519.8</ele>
        <time>2021-10-14T12:04:27Z</time>
      </trkpt>
      <trkpt lat="44.12104" lon="3.24858">
        <ele>520.2</ele>
        <time>2021-10-14T12:04:29Z</time>
      </trkpt>
      <trkpt lat="44.12107" lon="3.24855">
        <ele>520.6</ele>
        <time>2021-10-14T12:04:30Z</time>
      </trkpt>
      <trkpt lat="44.12108" lon="3.24854">
        <ele>520.7</ele>
        <time>2021-10-14T12:04:31Z</time>
      </trkpt>
      <trkpt lat="44.1211" lon="3.24851">
        <ele>521.1</ele>
        <time>2021-10-14T12:04:33Z</time>
      </trkpt>
      <trkpt lat="44.12111" lon="3.2485">
        <ele>521.2</ele>
        <time>2021-10-14T12:04:34Z</time>
      </trkpt>
      <trkpt lat="44.12112" lon="3.24848">
        <ele>521.5</ele>
        <time>2021-10-14T12:04:35Z</time>
      </trkpt>
      <trkpt lat="44.12113" lon="3.24847">
        <ele>521.6</ele>
        <time>2021-10-14T12:04:36Z</time>
      </trkpt>
      <trkpt lat="44.12114" lon="3.24846">
        <ele>521.7</ele>
        <time>2021-10-14T12:04:37Z</time>
      </trkpt>
      <trkpt lat="44.12115" lon="3.24844">
        <ele>521.9</ele>
        <time>2021-10-14T12:04:39Z</time>
      </trkpt>
      <trkpt lat="44.12116" lon="3.24842">
        <ele>522.2</ele>
        <time>2021-10-14T12:04:40Z</time>
      </trkpt>
      <trkpt lat="44.12118" lon="3.24837">
        <ele>522.7</ele>
        <time>2021-10-14T12:04:42Z</time>
      </trkpt>
      <trkpt lat="44.12118" lon="3.24835">
        <ele>522.9</ele>
        <time>2021-10-14T12:04:43Z</time>
      </trkpt>
      <trkpt lat="44.12119" lon="3.24833">
        <ele>523.1</ele>
        <time>2021-10-14T12:04:44Z</time>
      </trkpt>
      <trkpt lat="44.1212" lon="3.2483">
        <ele>523.5</ele>
        <time>2021-10-14T12:04:45Z</time>
      </trkpt>
      <trkpt lat="44.1212" lon="3.24829">
        <ele>523.7</ele>
        <time>2021-10-14T12:04:46Z</time>
      </trkpt>
      <trkpt lat="44.12121" lon="3.24825">
        <ele>524.1</ele>
        <time>2021-10-14T12:04:48Z</time>
      </trkpt>
      <trkpt lat="44.12121" lon="3.24823">
        <ele>524.2</ele>
        <time>2021-10-14T12:04:49Z</time>
      </trkpt>
      <trkpt lat="44.12121" lon="3.24821">
        <ele>524.5</ele>
        <time>2021-10-14T12:04:50Z</time>
      </trkpt>
      <trkpt lat="44.12121" lon="3.24819">
        <ele>524.7</ele>
        <time>2021-10-14T12:04:51Z</time>
      </trkpt>
      <trkpt lat="44.12121" lon="3.24816">
        <ele>525</ele>
        <time>2021-10-14T12:04:52Z</time>
      </trkpt>
      <trkpt lat="44.12121" lon="3.24812">
        <ele>525.3</ele>
        <time>2021-10-14T12:04:54Z</time>
      </trkpt>
      <trkpt lat="44.12121" lon="3.24808">
        <ele>525.8</ele>
        <time>2021-10-14T12:04:55Z</time>
      </trkpt>
      <trkpt lat="44.12121" lon="3.24806">
        <ele>525.9</ele>
        <time>2021-10-14T12:04:56Z</time>
      </trkpt>
      <trkpt lat="44.12121" lon="3.24804">
        <ele>526.2</ele>
        <time>2021-10-14T12:04:57Z</time>
      </trkpt>
      <trkpt lat="44.12121" lon="3.24802">
        <ele>526.4</ele>
        <time>2021-10-14T12:04:58Z</time>
      </trkpt>
      <trkpt lat="44.12121" lon="3.24799">
        <ele>526.7</ele>
        <time>2021-10-14T12:05:00Z</time>
      </trkpt>
      <trkpt lat="44.12121" lon="3.24796">
        <ele>526.9</ele>
        <time>2021-10-14T12:05:01Z</time>
      </trkpt>
      <trkpt lat="44.1212" lon="3.24793">
        <ele>527.2</ele>
        <time>2021-10-14T12:05:02Z</time>
      </trkpt>
      <trkpt lat="44.1212" lon="3.24788">
        <ele>527.6</ele>
        <time>2021-10-14T12:05:04Z</time>
      </trkpt>
      <trkpt lat="44.1212" lon="3.24783">
        <ele>528</ele>
        <time>2021-10-14T12:05:05Z</time>
      </trkpt>
      <trkpt lat="44.12119" lon="3.24781">
        <ele>528.1</ele>
        <time>2021-10-14T12:05:06Z</time>
      </trkpt>
      <trkpt lat="44.12118" lon="3.24777">
        <ele>528.5</ele>
        <time>2021-10-14T12:05:08Z</time>
      </trkpt>
      <trkpt lat="44.12118" lon="3.24774">
        <ele>528.7</ele>
        <time>2021-10-14T12:05:09Z</time>
      </trkpt>
      <trkpt lat="44.12118" lon="3.2477">
        <ele>529</ele>
        <time>2021-10-14T12:05:11Z</time>
      </trkpt>
      <trkpt lat="44.12119" lon="3.24765">
        <ele>529.4</ele>
        <time>2021-10-14T12:05:12Z</time>
      </trkpt>
      <trkpt lat="44.12119" lon="3.24763">
        <ele>529.6</ele>
        <time>2021-10-14T12:05:13Z</time>
      </trkpt>
      <trkpt lat="44.12119" lon="3.24758">
        <ele>529.9</ele>
        <time>2021-10-14T12:05:15Z</time>
      </trkpt>
      <trkpt lat="44.12119" lon="3.24754">
        <ele>530.2</ele>
        <time>2021-10-14T12:05:16Z</time>
      </trkpt>
      <trkpt lat="44.12118" lon="3.24749">
        <ele>530.4</ele>
        <time>2021-10-14T12:05:17Z</time>
      </trkpt>
      <trkpt lat="44.12118" lon="3.24747">
        <ele>530.5</ele>
        <time>2021-10-14T12:05:18Z</time>
      </trkpt>
      <trkpt lat="44.12117" lon="3.24742">
        <ele>530.8</ele>
        <time>2021-10-14T12:05:20Z</time>
      </trkpt>
      <trkpt lat="44.12116" lon="3.24737">
        <ele>531.1</ele>
        <time>2021-10-14T12:05:21Z</time>
      </trkpt>
      <trkpt lat="44.12115" lon="3.24731">
        <ele>531.3</ele>
        <time>2021-10-14T12:05:23Z</time>
      </trkpt>
      <trkpt lat="44.12114" lon="3.24727">
        <ele>531.5</ele>
        <time>2021-10-14T12:05:24Z</time>
      </trkpt>
      <trkpt lat="44.12114" lon="3.24723">
        <ele>531.7</ele>
        <time>2021-10-14T12:05:25Z</time>
      </trkpt>
      <trkpt lat="44.12114" lon="3.24718">
        <ele>531.9</ele>
        <time>2021-10-14T12:05:27Z</time>
      </trkpt>
      <trkpt lat="44.12114" lon="3.24713">
        <ele>532.2</ele>
        <time>2021-10-14T12:05:29Z</time>
      </trkpt>
      <trkpt lat="44.12114" lon="3.24708">
        <ele>532.4</ele>
        <time>2021-10-14T12:05:30Z</time>
      </trkpt>
      <trkpt lat="44.12114" lon="3.24702">
        <ele>532.7</ele>
        <time>2021-10-14T12:05:32Z</time>
      </trkpt>
      <trkpt lat="44.12115" lon="3.24697">
        <ele>533</ele>
        <time>2021-10-14T12:05:33Z</time>
      </trkpt>
      <trkpt lat="44.12116" lon="3.24694">
        <ele>533.2</ele>
        <time>2021-10-14T12:05:34Z</time>
      </trkpt>
      <trkpt lat="44.12117" lon="3.24689">
        <ele>533.5</ele>
        <time>2021-10-14T12:05:36Z</time>
      </trkpt>
      <trkpt lat="44.12118" lon="3.24684">
        <ele>533.9</ele>
        <time>2021-10-14T12:05:37Z</time>
      </trkpt>
      <trkpt lat="44.1212" lon="3.24679">
        <ele>534.3</ele>
        <time>2021-10-14T12:05:39Z</time>
      </trkpt>
      <trkpt lat="44.12122" lon="3.24675">
        <ele>534.6</ele>
        <time>2021-10-14T12:05:40Z</time>
      </trkpt>
      <trkpt lat="44.12123" lon="3.24673">
        <ele>534.8</ele>
        <time>2021-10-14T12:05:41Z</time>
      </trkpt>
      <trkpt lat="44.12126" lon="3.2467">
        <ele>535.1</ele>
        <time>2021-10-14T12:05:43Z</time>
      </trkpt>
      <trkpt lat="44.12129" lon="3.24667">
        <ele>535.4</ele>
        <time>2021-10-14T12:05:44Z</time>
      </trkpt>
      <trkpt lat="44.1213" lon="3.24667">
        <ele>535.5</ele>
        <time>2021-10-14T12:05:45Z</time>
      </trkpt>
      <trkpt lat="44.12132" lon="3.24665">
        <ele>535.7</ele>
        <time>2021-10-14T12:05:46Z</time>
      </trkpt>
      <trkpt lat="44.12134" lon="3.24664">
        <ele>536</ele>
        <time>2021-10-14T12:05:48Z</time>
      </trkpt>
      <trkpt lat="44.12137" lon="3.24662">
        <ele>536.3</ele>
        <time>2021-10-14T12:05:49Z</time>
      </trkpt>
      <trkpt lat="44.12138" lon="3.24661">
        <ele>536.4</ele>
        <time>2021-10-14T12:05:50Z</time>
      </trkpt>
      <trkpt lat="44.1214" lon="3.24659">
        <ele>536.6</ele>
        <time>2021-10-14T12:05:51Z</time>
      </trkpt>
      <trkpt lat="44.12142" lon="3.24657">
        <ele>536.8</ele>
        <time>2021-10-14T12:05:53Z</time>
      </trkpt>
      <trkpt lat="44.12145" lon="3.24656">
        <ele>537.1</ele>
        <time>2021-10-14T12:05:54Z</time>
      </trkpt>
      <trkpt lat="44.12147" lon="3.24655">
        <ele>537.3</ele>
        <time>2021-10-14T12:05:56Z</time>
      </trkpt>
      <trkpt lat="44.1215" lon="3.24652">
        <ele>537.6</ele>
        <time>2021-10-14T12:05:57Z</time>
      </trkpt>
      <trkpt lat="44.12151" lon="3.24652">
        <ele>537.7</ele>
        <time>2021-10-14T12:05:58Z</time>
      </trkpt>
      <trkpt lat="44.12153" lon="3.2465">
        <ele>537.9</ele>
        <time>2021-10-14T12:05:59Z</time>
      </trkpt>
      <trkpt lat="44.12154" lon="3.2465">
        <ele>538</ele>
        <time>2021-10-14T12:06:01Z</time>
      </trkpt>
      <trkpt lat="44.12157" lon="3.24648">
        <ele>538.3</ele>
        <time>2021-10-14T12:06:02Z</time>
      </trkpt>
      <trkpt lat="44.12158" lon="3.24648">
        <ele>538.4</ele>
        <time>2021-10-14T12:06:03Z</time>
      </trkpt>
      <trkpt lat="44.1216" lon="3.24646">
        <ele>538.6</ele>
        <time>2021-10-14T12:06:04Z</time>
      </trkpt>
      <trkpt lat="44.12162" lon="3.24644">
        <ele>538.9</ele>
        <time>2021-10-14T12:06:06Z</time>
      </trkpt>
      <trkpt lat="44.12164" lon="3.24642">
        <ele>539.1</ele>
        <time>2021-10-14T12:06:07Z</time>
      </trkpt>
      <trkpt lat="44.12165" lon="3.24642">
        <ele>539.3</ele>
        <time>2021-10-14T12:06:08Z</time>
      </trkpt>
      <trkpt lat="44.12168" lon="3.24641">
        <ele>539.6</ele>
        <time>2021-10-14T12:06:10Z</time>
      </trkpt>
      <trkpt lat="44.12171" lon="3.24641">
        <ele>539.9</ele>
        <time>2021-10-14T12:06:11Z</time>
      </trkpt>
      <trkpt lat="44.12172" lon="3.24641">
        <ele>540.1</ele>
        <time>2021-10-14T12:06:12Z</time>
      </trkpt>
      <trkpt lat="44.12174" lon="3.2464">
        <ele>540.3</ele>
        <time>2021-10-14T12:06:13Z</time>
      </trkpt>
      <trkpt lat="44.12177" lon="3.2464">
        <ele>540.7</ele>
        <time>2021-10-14T12:06:15Z</time>
      </trkpt>
      <trkpt lat="44.12178" lon="3.24639">
        <ele>540.8</ele>
        <time>2021-10-14T12:06:16Z</time>
      </trkpt>
      <trkpt lat="44.12181" lon="3.24638">
        <ele>541.3</ele>
        <time>2021-10-14T12:06:17Z</time>
      </trkpt>
      <trkpt lat="44.12183" lon="3.24637">
        <ele>541.4</ele>
        <time>2021-10-14T12:06:19Z</time>
      </trkpt>
      <trkpt lat="44.12184" lon="3.24636">
        <ele>541.6</ele>
        <time>2021-10-14T12:06:20Z</time>
      </trkpt>
      <trkpt lat="44.12185" lon="3.24636">
        <ele>541.8</ele>
        <time>2021-10-14T12:06:21Z</time>
      </trkpt>
      <trkpt lat="44.12186" lon="3.24634">
        <ele>542</ele>
        <time>2021-10-14T12:06:22Z</time>
      </trkpt>
      <trkpt lat="44.12188" lon="3.24633">
        <ele>542.3</ele>
        <time>2021-10-14T12:06:23Z</time>
      </trkpt>
      <trkpt lat="44.12189" lon="3.24632">
        <ele>542.5</ele>
        <time>2021-10-14T12:06:24Z</time>
      </trkpt>
      <trkpt lat="44.12191" lon="3.2463">
        <ele>542.7</ele>
        <time>2021-10-14T12:06:26Z</time>
      </trkpt>
      <trkpt lat="44.12194" lon="3.24629">
        <ele>543.2</ele>
        <time>2021-10-14T12:06:27Z</time>
      </trkpt>
      <trkpt lat="44.12195" lon="3.24629">
        <ele>543.3</ele>
        <time>2021-10-14T12:06:28Z</time>
      </trkpt>
      <trkpt lat="44.12197" lon="3.24628">
        <ele>543.7</ele>
        <time>2021-10-14T12:06:30Z</time>
      </trkpt>
      <trkpt lat="44.12198" lon="3.24627">
        <ele>543.8</ele>
        <time>2021-10-14T12:06:31Z</time>
      </trkpt>
      <trkpt lat="44.12201" lon="3.24626">
        <ele>544.2</ele>
        <time>2021-10-14T12:06:32Z</time>
      </trkpt>
      <trkpt lat="44.12202" lon="3.24626">
        <ele>544.4</ele>
        <time>2021-10-14T12:06:33Z</time>
      </trkpt>
      <trkpt lat="44.12205" lon="3.24625">
        <ele>544.8</ele>
        <time>2021-10-14T12:06:35Z</time>
      </trkpt>
      <trkpt lat="44.12207" lon="3.24624">
        <ele>545.1</ele>
        <time>2021-10-14T12:06:36Z</time>
      </trkpt>
      <trkpt lat="44.12209" lon="3.24622">
        <ele>545.4</ele>
        <time>2021-10-14T12:06:38Z</time>
      </trkpt>
      <trkpt lat="44.1221" lon="3.24621">
        <ele>545.6</ele>
        <time>2021-10-14T12:06:39Z</time>
      </trkpt>
      <trkpt lat="44.12211" lon="3.2462">
        <ele>545.8</ele>
        <time>2021-10-14T12:06:40Z</time>
      </trkpt>
      <trkpt lat="44.12212" lon="3.24619">
        <ele>546</ele>
        <time>2021-10-14T12:06:41Z</time>
      </trkpt>
      <trkpt lat="44.12213" lon="3.24617">
        <ele>546.2</ele>
        <time>2021-10-14T12:06:43Z</time>
      </trkpt>
      <trkpt lat="44.12214" lon="3.24616">
        <ele>546.4</ele>
        <time>2021-10-14T12:06:44Z</time>
      </trkpt>
      <trkpt lat="44.12216" lon="3.24616">
        <ele>546.6</ele>
        <time>2021-10-14T12:06:45Z</time>
      </trkpt>
      <trkpt lat="44.12219" lon="3.24616">
        <ele>547</ele>
        <time>2021-10-14T12:06:47Z</time>
      </trkpt>
      <trkpt lat="44.1222" lon="3.24615">
        <ele>547.1</ele>
        <time>2021-10-14T12:06:48Z</time>
      </trkpt>
      <trkpt lat="44.12222" lon="3.24614">
        <ele>547.4</ele>
        <time>2021-10-14T12:06:49Z</time>
      </trkpt>
      <trkpt lat="44.12224" lon="3.24614">
        <ele>547.7</ele>
        <time>2021-10-14T12:06:51Z</time>
      </trkpt>
      <trkpt lat="44.12229" lon="3.24612">
        <ele>548.3</ele>
        <time>2021-10-14T12:06:53Z</time>
      </trkpt>
      <trkpt lat="44.1223" lon="3.24612">
        <ele>548.5</ele>
        <time>2021-10-14T12:06:54Z</time>
      </trkpt>
      <trkpt lat="44.12231" lon="3.24612">
        <ele>548.7</ele>
        <time>2021-10-14T12:06:55Z</time>
      </trkpt>
      <trkpt lat="44.12235" lon="3.24611">
        <ele>549.2</ele>
        <time>2021-10-14T12:06:57Z</time>
      </trkpt>
      <trkpt lat="44.12236" lon="3.24611">
        <ele>549.4</ele>
        <time>2021-10-14T12:06:58Z</time>
      </trkpt>
      <trkpt lat="44.12239" lon="3.24611">
        <ele>549.8</ele>
        <time>2021-10-14T12:07:00Z</time>
      </trkpt>
      <trkpt lat="44.12242" lon="3.24611">
        <ele>550.2</ele>
        <time>2021-10-14T12:07:01Z</time>
      </trkpt>
      <trkpt lat="44.12244" lon="3.24611">
        <ele>550.5</ele>
        <time>2021-10-14T12:07:02Z</time>
      </trkpt>
      <trkpt lat="44.12246" lon="3.24611">
        <ele>550.8</ele>
        <time>2021-10-14T12:07:04Z</time>
      </trkpt>
      <trkpt lat="44.12248" lon="3.24611">
        <ele>551.2</ele>
        <time>2021-10-14T12:07:05Z</time>
      </trkpt>
      <trkpt lat="44.12251" lon="3.24611">
        <ele>551.6</ele>
        <time>2021-10-14T12:07:07Z</time>
      </trkpt>
      <trkpt lat="44.12254" lon="3.24612">
        <ele>552.2</ele>
        <time>2021-10-14T12:07:08Z</time>
      </trkpt>
      <trkpt lat="44.12255" lon="3.24612">
        <ele>552.3</ele>
        <time>2021-10-14T12:07:09Z</time>
      </trkpt>
      <trkpt lat="44.12257" lon="3.24613">
        <ele>552.7</ele>
        <time>2021-10-14T12:07:11Z</time>
      </trkpt>
      <trkpt lat="44.12258" lon="3.24614">
        <ele>552.9</ele>
        <time>2021-10-14T12:07:12Z</time>
      </trkpt>
      <trkpt lat="44.12262" lon="3.24615">
        <ele>553.5</ele>
        <time>2021-10-14T12:07:13Z</time>
      </trkpt>
      <trkpt lat="44.12262" lon="3.24615">
        <ele>553.6</ele>
        <time>2021-10-14T12:07:14Z</time>
      </trkpt>
      <trkpt lat="44.12264" lon="3.24616">
        <ele>554</ele>
        <time>2021-10-14T12:07:16Z</time>
      </trkpt>
      <trkpt lat="44.12265" lon="3.24616">
        <ele>554.2</ele>
        <time>2021-10-14T12:07:17Z</time>
      </trkpt>
      <trkpt lat="44.12266" lon="3.24616">
        <ele>554.3</ele>
        <time>2021-10-14T12:07:18Z</time>
      </trkpt>
      <trkpt lat="44.12268" lon="3.24616">
        <ele>554.7</ele>
        <time>2021-10-14T12:07:19Z</time>
      </trkpt>
      <trkpt lat="44.12269" lon="3.24616">
        <ele>554.9</ele>
        <time>2021-10-14T12:07:21Z</time>
      </trkpt>
      <trkpt lat="44.1227" lon="3.24616">
        <ele>555</ele>
        <time>2021-10-14T12:07:22Z</time>
      </trkpt>
      <trkpt lat="44.12271" lon="3.24617">
        <ele>555.4</ele>
        <time>2021-10-14T12:07:23Z</time>
      </trkpt>
      <trkpt lat="44.12273" lon="3.24617">
        <ele>555.6</ele>
        <time>2021-10-14T12:07:24Z</time>
      </trkpt>
      <trkpt lat="44.12274" lon="3.24618">
        <ele>556</ele>
        <time>2021-10-14T12:07:26Z</time>
      </trkpt>
      <trkpt lat="44.12276" lon="3.24619">
        <ele>556.2</ele>
        <time>2021-10-14T12:07:27Z</time>
      </trkpt>
      <trkpt lat="44.12277" lon="3.24619">
        <ele>556.4</ele>
        <time>2021-10-14T12:07:28Z</time>
      </trkpt>
      <trkpt lat="44.12278" lon="3.24621">
        <ele>556.8</ele>
        <time>2021-10-14T12:07:30Z</time>
      </trkpt>
      <trkpt lat="44.1228" lon="3.24622">
        <ele>557.1</ele>
        <time>2021-10-14T12:07:31Z</time>
      </trkpt>
      <trkpt lat="44.12281" lon="3.24623">
        <ele>557.4</ele>
        <time>2021-10-14T12:07:32Z</time>
      </trkpt>
      <trkpt lat="44.12282" lon="3.24624">
        <ele>557.6</ele>
        <time>2021-10-14T12:07:34Z</time>
      </trkpt>
      <trkpt lat="44.12284" lon="3.24625">
        <ele>558</ele>
        <time>2021-10-14T12:07:35Z</time>
      </trkpt>
      <trkpt lat="44.12286" lon="3.24626">
        <ele>558.2</ele>
        <time>2021-10-14T12:07:36Z</time>
      </trkpt>
      <trkpt lat="44.12287" lon="3.24627">
        <ele>558.5</ele>
        <time>2021-10-14T12:07:37Z</time>
      </trkpt>
      <trkpt lat="44.12289" lon="3.24628">
        <ele>558.8</ele>
        <time>2021-10-14T12:07:39Z</time>
      </trkpt>
      <trkpt lat="44.1229" lon="3.24628">
        <ele>559.1</ele>
        <time>2021-10-14T12:07:40Z</time>
      </trkpt>
      <trkpt lat="44.12292" lon="3.24628">
        <ele>559.3</ele>
        <time>2021-10-14T12:07:41Z</time>
      </trkpt>
      <trkpt lat="44.12293" lon="3.24628">
        <ele>559.5</ele>
        <time>2021-10-14T12:07:42Z</time>
      </trkpt>
      <trkpt lat="44.12295" lon="3.24629">
        <ele>559.8</ele>
        <time>2021-10-14T12:07:44Z</time>
      </trkpt>
      <trkpt lat="44.12296" lon="3.24629">
        <ele>560</ele>
        <time>2021-10-14T12:07:45Z</time>
      </trkpt>
      <trkpt lat="44.12298" lon="3.2463">
        <ele>560.3</ele>
        <time>2021-10-14T12:07:46Z</time>
      </trkpt>
      <trkpt lat="44.12299" lon="3.24631">
        <ele>560.6</ele>
        <time>2021-10-14T12:07:48Z</time>
      </trkpt>
      <trkpt lat="44.12301" lon="3.24632">
        <ele>561</ele>
        <time>2021-10-14T12:07:49Z</time>
      </trkpt>
      <trkpt lat="44.12305" lon="3.24633">
        <ele>561.7</ele>
        <time>2021-10-14T12:07:51Z</time>
      </trkpt>
      <trkpt lat="44.12308" lon="3.24633">
        <ele>562.5</ele>
        <time>2021-10-14T12:07:52Z</time>
      </trkpt>
      <trkpt lat="44.1231" lon="3.24632">
        <ele>562.7</ele>
        <time>2021-10-14T12:07:53Z</time>
      </trkpt>
      <trkpt lat="44.12313" lon="3.24631">
        <ele>563.5</ele>
        <time>2021-10-14T12:07:55Z</time>
      </trkpt>
      <trkpt lat="44.12313" lon="3.24631">
        <ele>563.6</ele>
        <time>2021-10-14T12:07:56Z</time>
      </trkpt>
      <trkpt lat="44.12314" lon="3.2463">
        <ele>563.9</ele>
        <time>2021-10-14T12:07:57Z</time>
      </trkpt>
      <trkpt lat="44.12315" lon="3.2463">
        <ele>564.1</ele>
        <time>2021-10-14T12:07:58Z</time>
      </trkpt>
      <trkpt lat="44.12316" lon="3.24629">
        <ele>564.4</ele>
        <time>2021-10-14T12:07:59Z</time>
      </trkpt>
      <trkpt lat="44.12318" lon="3.24628">
        <ele>564.8</ele>
        <time>2021-10-14T12:08:01Z</time>
      </trkpt>
      <trkpt lat="44.12319" lon="3.24628">
        <ele>565</ele>
        <time>2021-10-14T12:08:02Z</time>
      </trkpt>
      <trkpt lat="44.1232" lon="3.24627">
        <ele>565.5</ele>
        <time>2021-10-14T12:08:04Z</time>
      </trkpt>
      <trkpt lat="44.12321" lon="3.24627">
        <ele>565.6</ele>
        <time>2021-10-14T12:08:05Z</time>
      </trkpt>
      <trkpt lat="44.12323" lon="3.24627">
        <ele>566</ele>
        <time>2021-10-14T12:08:07Z</time>
      </trkpt>
      <trkpt lat="44.12323" lon="3.24627">
        <ele>566.1</ele>
        <time>2021-10-14T12:08:08Z</time>
      </trkpt>
      <trkpt lat="44.12323" lon="3.24627">
        <ele>566.2</ele>
        <time>2021-10-14T12:08:10Z</time>
      </trkpt>
      <trkpt lat="44.12324" lon="3.24626">
        <ele>566.3</ele>
        <time>2021-10-14T12:08:12Z</time>
      </trkpt>
      <trkpt lat="44.12324" lon="3.24625">
        <ele>566.4</ele>
        <time>2021-10-14T12:08:13Z</time>
      </trkpt>
      <trkpt lat="44.12324" lon="3.24624">
        <ele>566.6</ele>
        <time>2021-10-14T12:08:15Z</time>
      </trkpt>
      <trkpt lat="44.12324" lon="3.24623">
        <ele>566.7</ele>
        <time>2021-10-14T12:08:17Z</time>
      </trkpt>
      <trkpt lat="44.12327" lon="3.24628">
        <ele>567.4</ele>
        <time>2021-10-14T12:08:56Z</time>
      </trkpt>
      <trkpt lat="44.1233" lon="3.24627">
        <ele>568</ele>
        <time>2021-10-14T12:08:58Z</time>
      </trkpt>
      <trkpt lat="44.12334" lon="3.24627">
        <ele>568</ele>
        <time>2021-10-14T12:08:59Z</time>
      </trkpt>
      <trkpt lat="44.12337" lon="3.24626">
        <ele>568</ele>
        <time>2021-10-14T12:09:00Z</time>
      </trkpt>
      <trkpt lat="44.1234" lon="3.24626">
        <ele>568.1</ele>
        <time>2021-10-14T12:09:01Z</time>
      </trkpt>
      <trkpt lat="44.12344" lon="3.24625">
        <ele>568.2</ele>
        <time>2021-10-14T12:09:03Z</time>
      </trkpt>
      <trkpt lat="44.12347" lon="3.24623">
        <ele>568.3</ele>
        <time>2021-10-14T12:09:04Z</time>
      </trkpt>
      <trkpt lat="44.12347" lon="3.24623">
        <ele>568.3</ele>
        <time>2021-10-14T12:09:05Z</time>
      </trkpt>
      <trkpt lat="44.12349" lon="3.24621">
        <ele>568.4</ele>
        <time>2021-10-14T12:09:06Z</time>
      </trkpt>
      <trkpt lat="44.12351" lon="3.24619">
        <ele>568.6</ele>
        <time>2021-10-14T12:09:08Z</time>
      </trkpt>
      <trkpt lat="44.12354" lon="3.24615">
        <ele>568.8</ele>
        <time>2021-10-14T12:09:09Z</time>
      </trkpt>
      <trkpt lat="44.12354" lon="3.24614">
        <ele>568.9</ele>
        <time>2021-10-14T12:09:10Z</time>
      </trkpt>
      <trkpt lat="44.12357" lon="3.24608">
        <ele>569.1</ele>
        <time>2021-10-14T12:09:12Z</time>
      </trkpt>
      <trkpt lat="44.12357" lon="3.24607">
        <ele>569.1</ele>
        <time>2021-10-14T12:09:13Z</time>
      </trkpt>
      <trkpt lat="44.12358" lon="3.24605">
        <ele>569.2</ele>
        <time>2021-10-14T12:09:14Z</time>
      </trkpt>
      <trkpt lat="44.12359" lon="3.24603">
        <ele>569.3</ele>
        <time>2021-10-14T12:09:15Z</time>
      </trkpt>
      <trkpt lat="44.1236" lon="3.246">
        <ele>569.4</ele>
        <time>2021-10-14T12:09:17Z</time>
      </trkpt>
      <trkpt lat="44.12362" lon="3.24596">
        <ele>569.5</ele>
        <time>2021-10-14T12:09:18Z</time>
      </trkpt>
      <trkpt lat="44.12362" lon="3.24595">
        <ele>569.6</ele>
        <time>2021-10-14T12:09:19Z</time>
      </trkpt>
      <trkpt lat="44.12363" lon="3.24593">
        <ele>569.7</ele>
        <time>2021-10-14T12:09:20Z</time>
      </trkpt>
      <trkpt lat="44.12364" lon="3.24592">
        <ele>569.8</ele>
        <time>2021-10-14T12:09:22Z</time>
      </trkpt>
      <trkpt lat="44.12366" lon="3.2459">
        <ele>569.9</ele>
        <time>2021-10-14T12:09:23Z</time>
      </trkpt>
      <trkpt lat="44.12368" lon="3.24587">
        <ele>570.2</ele>
        <time>2021-10-14T12:09:25Z</time>
      </trkpt>
      <trkpt lat="44.1237" lon="3.24586">
        <ele>570.3</ele>
        <time>2021-10-14T12:09:26Z</time>
      </trkpt>
      <trkpt lat="44.12372" lon="3.24584">
        <ele>570.5</ele>
        <time>2021-10-14T12:09:28Z</time>
      </trkpt>
      <trkpt lat="44.12374" lon="3.24582">
        <ele>570.8</ele>
        <time>2021-10-14T12:09:29Z</time>
      </trkpt>
      <trkpt lat="44.12377" lon="3.2458">
        <ele>571.2</ele>
        <time>2021-10-14T12:09:31Z</time>
      </trkpt>
      <trkpt lat="44.12378" lon="3.24579">
        <ele>571.4</ele>
        <time>2021-10-14T12:09:32Z</time>
      </trkpt>
      <trkpt lat="44.1238" lon="3.24577">
        <ele>571.7</ele>
        <time>2021-10-14T12:09:33Z</time>
      </trkpt>
      <trkpt lat="44.12381" lon="3.24576">
        <ele>571.8</ele>
        <time>2021-10-14T12:09:34Z</time>
      </trkpt>
      <trkpt lat="44.12382" lon="3.24575">
        <ele>572</ele>
        <time>2021-10-14T12:09:35Z</time>
      </trkpt>
      <trkpt lat="44.12384" lon="3.24574">
        <ele>572.2</ele>
        <time>2021-10-14T12:09:36Z</time>
      </trkpt>
      <trkpt lat="44.12385" lon="3.24572">
        <ele>572.4</ele>
        <time>2021-10-14T12:09:37Z</time>
      </trkpt>
      <trkpt lat="44.12387" lon="3.24571">
        <ele>572.6</ele>
        <time>2021-10-14T12:09:39Z</time>
      </trkpt>
      <trkpt lat="44.12388" lon="3.2457">
        <ele>572.8</ele>
        <time>2021-10-14T12:09:41Z</time>
      </trkpt>
      <trkpt lat="44.12389" lon="3.24569">
        <ele>572.9</ele>
        <time>2021-10-14T12:09:42Z</time>
      </trkpt>
      <trkpt lat="44.12389" lon="3.24568">
        <ele>573</ele>
        <time>2021-10-14T12:09:43Z</time>
      </trkpt>
      <trkpt lat="44.12389" lon="3.24568">
        <ele>573.1</ele>
        <time>2021-10-14T12:09:45Z</time>
      </trkpt>
      <trkpt lat="44.12389" lon="3.24568">
        <ele>573.1</ele>
        <time>2021-10-14T12:09:46Z</time>
      </trkpt>
      <trkpt lat="44.12389" lon="3.24568">
        <ele>573.1</ele>
        <time>2021-10-14T12:09:48Z</time>
      </trkpt>
      <trkpt lat="44.12392" lon="3.24565">
        <ele>573.5</ele>
        <time>2021-10-14T12:09:50Z</time>
      </trkpt>
      <trkpt lat="44.12395" lon="3.24564">
        <ele>573.8</ele>
        <time>2021-10-14T12:09:51Z</time>
      </trkpt>
      <trkpt lat="44.12396" lon="3.24563">
        <ele>574</ele>
        <time>2021-10-14T12:09:53Z</time>
      </trkpt>
      <trkpt lat="44.12398" lon="3.24563">
        <ele>574.1</ele>
        <time>2021-10-14T12:09:54Z</time>
      </trkpt>
      <trkpt lat="44.12399" lon="3.24562">
        <ele>574.2</ele>
        <time>2021-10-14T12:09:55Z</time>
      </trkpt>
      <trkpt lat="44.12402" lon="3.2456">
        <ele>574.5</ele>
        <time>2021-10-14T12:09:57Z</time>
      </trkpt>
      <trkpt lat="44.12405" lon="3.24558">
        <ele>574.7</ele>
        <time>2021-10-14T12:09:58Z</time>
      </trkpt>
      <trkpt lat="44.12406" lon="3.24557">
        <ele>574.8</ele>
        <time>2021-10-14T12:09:59Z</time>
      </trkpt>
      <trkpt lat="44.1241" lon="3.24556">
        <ele>575</ele>
        <time>2021-10-14T12:10:01Z</time>
      </trkpt>
      <trkpt lat="44.12411" lon="3.24556">
        <ele>575.1</ele>
        <time>2021-10-14T12:10:02Z</time>
      </trkpt>
      <trkpt lat="44.12414" lon="3.24555">
        <ele>575.2</ele>
        <time>2021-10-14T12:10:03Z</time>
      </trkpt>
      <trkpt lat="44.12417" lon="3.24553">
        <ele>575.4</ele>
        <time>2021-10-14T12:10:05Z</time>
      </trkpt>
      <trkpt lat="44.12421" lon="3.24551">
        <ele>575.6</ele>
        <time>2021-10-14T12:10:06Z</time>
      </trkpt>
      <trkpt lat="44.12422" lon="3.2455">
        <ele>575.7</ele>
        <time>2021-10-14T12:10:07Z</time>
      </trkpt>
      <trkpt lat="44.12424" lon="3.24549">
        <ele>575.8</ele>
        <time>2021-10-14T12:10:08Z</time>
      </trkpt>
      <trkpt lat="44.12426" lon="3.24547">
        <ele>576</ele>
        <time>2021-10-14T12:10:10Z</time>
      </trkpt>
      <trkpt lat="44.12429" lon="3.24545">
        <ele>576.2</ele>
        <time>2021-10-14T12:10:11Z</time>
      </trkpt>
      <trkpt lat="44.12432" lon="3.24543">
        <ele>576.4</ele>
        <time>2021-10-14T12:10:12Z</time>
      </trkpt>
      <trkpt lat="44.12432" lon="3.24542">
        <ele>576.4</ele>
        <time>2021-10-14T12:10:13Z</time>
      </trkpt>
      <trkpt lat="44.12436" lon="3.24541">
        <ele>576.7</ele>
        <time>2021-10-14T12:10:15Z</time>
      </trkpt>
      <trkpt lat="44.12436" lon="3.2454">
        <ele>576.8</ele>
        <time>2021-10-14T12:10:16Z</time>
      </trkpt>
      <trkpt lat="44.1244" lon="3.2454">
        <ele>577</ele>
        <time>2021-10-14T12:10:18Z</time>
      </trkpt>
      <trkpt lat="44.12441" lon="3.2454">
        <ele>577.1</ele>
        <time>2021-10-14T12:10:19Z</time>
      </trkpt>
      <trkpt lat="44.12442" lon="3.24539">
        <ele>577.2</ele>
        <time>2021-10-14T12:10:20Z</time>
      </trkpt>
      <trkpt lat="44.12444" lon="3.24538">
        <ele>577.3</ele>
        <time>2021-10-14T12:10:21Z</time>
      </trkpt>
      <trkpt lat="44.12445" lon="3.24537">
        <ele>577.4</ele>
        <time>2021-10-14T12:10:22Z</time>
      </trkpt>
      <trkpt lat="44.12447" lon="3.24537">
        <ele>577.6</ele>
        <time>2021-10-14T12:10:24Z</time>
      </trkpt>
      <trkpt lat="44.1245" lon="3.24536">
        <ele>577.8</ele>
        <time>2021-10-14T12:10:25Z</time>
      </trkpt>
      <trkpt lat="44.12451" lon="3.24535">
        <ele>577.9</ele>
        <time>2021-10-14T12:10:26Z</time>
      </trkpt>
      <trkpt lat="44.12454" lon="3.24534">
        <ele>578.1</ele>
        <time>2021-10-14T12:10:28Z</time>
      </trkpt>
      <trkpt lat="44.12455" lon="3.24534">
        <ele>578.2</ele>
        <time>2021-10-14T12:10:29Z</time>
      </trkpt>
      <trkpt lat="44.12457" lon="3.24533">
        <ele>578.4</ele>
        <time>2021-10-14T12:10:30Z</time>
      </trkpt>
      <trkpt lat="44.12459" lon="3.24532">
        <ele>578.6</ele>
        <time>2021-10-14T12:10:32Z</time>
      </trkpt>
      <trkpt lat="44.12462" lon="3.24531">
        <ele>578.9</ele>
        <time>2021-10-14T12:10:33Z</time>
      </trkpt>
      <trkpt lat="44.12465" lon="3.2453">
        <ele>579.2</ele>
        <time>2021-10-14T12:10:35Z</time>
      </trkpt>
      <trkpt lat="44.12468" lon="3.24529">
        <ele>579.5</ele>
        <time>2021-10-14T12:10:36Z</time>
      </trkpt>
      <trkpt lat="44.12469" lon="3.24529">
        <ele>579.6</ele>
        <time>2021-10-14T12:10:37Z</time>
      </trkpt>
      <trkpt lat="44.12473" lon="3.24528">
        <ele>580</ele>
        <time>2021-10-14T12:10:39Z</time>
      </trkpt>
      <trkpt lat="44.12475" lon="3.24527">
        <ele>580.1</ele>
        <time>2021-10-14T12:10:40Z</time>
      </trkpt>
      <trkpt lat="44.12479" lon="3.24525">
        <ele>580.5</ele>
        <time>2021-10-14T12:10:42Z</time>
      </trkpt>
      <trkpt lat="44.12482" lon="3.24523">
        <ele>580.8</ele>
        <time>2021-10-14T12:10:44Z</time>
      </trkpt>
      <trkpt lat="44.12483" lon="3.24522">
        <ele>580.9</ele>
        <time>2021-10-14T12:10:45Z</time>
      </trkpt>
      <trkpt lat="44.12485" lon="3.24519">
        <ele>581.2</ele>
        <time>2021-10-14T12:10:47Z</time>
      </trkpt>
      <trkpt lat="44.12486" lon="3.24518">
        <ele>581.3</ele>
        <time>2021-10-14T12:10:48Z</time>
      </trkpt>
      <trkpt lat="44.12487" lon="3.24516">
        <ele>581.4</ele>
        <time>2021-10-14T12:10:49Z</time>
      </trkpt>
      <trkpt lat="44.12488" lon="3.24515">
        <ele>581.6</ele>
        <time>2021-10-14T12:10:50Z</time>
      </trkpt>
      <trkpt lat="44.1249" lon="3.24514">
        <ele>581.7</ele>
        <time>2021-10-14T12:10:52Z</time>
      </trkpt>
      <trkpt lat="44.12491" lon="3.24513">
        <ele>581.9</ele>
        <time>2021-10-14T12:10:53Z</time>
      </trkpt>
      <trkpt lat="44.12493" lon="3.24513">
        <ele>582</ele>
        <time>2021-10-14T12:10:55Z</time>
      </trkpt>
      <trkpt lat="44.12495" lon="3.24513">
        <ele>582.2</ele>
        <time>2021-10-14T12:10:56Z</time>
      </trkpt>
      <trkpt lat="44.12496" lon="3.24513">
        <ele>582.3</ele>
        <time>2021-10-14T12:10:58Z</time>
      </trkpt>
      <trkpt lat="44.12497" lon="3.24512">
        <ele>582.4</ele>
        <time>2021-10-14T12:10:59Z</time>
      </trkpt>
      <trkpt lat="44.12499" lon="3.24511">
        <ele>582.5</ele>
        <time>2021-10-14T12:11:00Z</time>
      </trkpt>
      <trkpt lat="44.125" lon="3.2451">
        <ele>582.7</ele>
        <time>2021-10-14T12:11:02Z</time>
      </trkpt>
      <trkpt lat="44.12501" lon="3.24509">
        <ele>582.8</ele>
        <time>2021-10-14T12:11:03Z</time>
      </trkpt>
      <trkpt lat="44.12502" lon="3.24507">
        <ele>582.9</ele>
        <time>2021-10-14T12:11:04Z</time>
      </trkpt>
      <trkpt lat="44.12503" lon="3.24506">
        <ele>583</ele>
        <time>2021-10-14T12:11:05Z</time>
      </trkpt>
      <trkpt lat="44.12505" lon="3.24505">
        <ele>583.2</ele>
        <time>2021-10-14T12:11:07Z</time>
      </trkpt>
      <trkpt lat="44.12506" lon="3.24504">
        <ele>583.4</ele>
        <time>2021-10-14T12:11:08Z</time>
      </trkpt>
      <trkpt lat="44.12508" lon="3.24503">
        <ele>583.6</ele>
        <time>2021-10-14T12:11:10Z</time>
      </trkpt>
      <trkpt lat="44.1251" lon="3.24502">
        <ele>583.8</ele>
        <time>2021-10-14T12:11:11Z</time>
      </trkpt>
      <trkpt lat="44.12511" lon="3.24501">
        <ele>584</ele>
        <time>2021-10-14T12:11:12Z</time>
      </trkpt>
      <trkpt lat="44.12515" lon="3.24501">
        <ele>584.3</ele>
        <time>2021-10-14T12:11:14Z</time>
      </trkpt>
      <trkpt lat="44.12515" lon="3.24501">
        <ele>584.4</ele>
        <time>2021-10-14T12:11:15Z</time>
      </trkpt>
      <trkpt lat="44.12517" lon="3.24501">
        <ele>584.7</ele>
        <time>2021-10-14T12:11:16Z</time>
      </trkpt>
      <trkpt lat="44.12519" lon="3.245">
        <ele>584.9</ele>
        <time>2021-10-14T12:11:18Z</time>
      </trkpt>
      <trkpt lat="44.12521" lon="3.24499">
        <ele>585.2</ele>
        <time>2021-10-14T12:11:19Z</time>
      </trkpt>
      <trkpt lat="44.12522" lon="3.24499">
        <ele>585.3</ele>
        <time>2021-10-14T12:11:20Z</time>
      </trkpt>
      <trkpt lat="44.12523" lon="3.24498">
        <ele>585.4</ele>
        <time>2021-10-14T12:11:21Z</time>
      </trkpt>
      <trkpt lat="44.12526" lon="3.24498">
        <ele>585.8</ele>
        <time>2021-10-14T12:11:23Z</time>
      </trkpt>
      <trkpt lat="44.12527" lon="3.24498">
        <ele>585.8</ele>
        <time>2021-10-14T12:11:24Z</time>
      </trkpt>
      <trkpt lat="44.12528" lon="3.24498">
        <ele>586</ele>
        <time>2021-10-14T12:11:25Z</time>
      </trkpt>
      <trkpt lat="44.12529" lon="3.24497">
        <ele>586.1</ele>
        <time>2021-10-14T12:11:26Z</time>
      </trkpt>
      <trkpt lat="44.1253" lon="3.24497">
        <ele>586.3</ele>
        <time>2021-10-14T12:11:27Z</time>
      </trkpt>
      <trkpt lat="44.12532" lon="3.24496">
        <ele>586.4</ele>
        <time>2021-10-14T12:11:28Z</time>
      </trkpt>
      <trkpt lat="44.12533" lon="3.24496">
        <ele>586.6</ele>
        <time>2021-10-14T12:11:29Z</time>
      </trkpt>
      <trkpt lat="44.12535" lon="3.24496">
        <ele>586.8</ele>
        <time>2021-10-14T12:11:31Z</time>
      </trkpt>
      <trkpt lat="44.12536" lon="3.24496">
        <ele>587</ele>
        <time>2021-10-14T12:11:32Z</time>
      </trkpt>
      <trkpt lat="44.12537" lon="3.24496">
        <ele>587.1</ele>
        <time>2021-10-14T12:11:33Z</time>
      </trkpt>
      <trkpt lat="44.1254" lon="3.24497">
        <ele>587.4</ele>
        <time>2021-10-14T12:11:35Z</time>
      </trkpt>
      <trkpt lat="44.12541" lon="3.24497">
        <ele>587.5</ele>
        <time>2021-10-14T12:11:36Z</time>
      </trkpt>
      <trkpt lat="44.12542" lon="3.24496">
        <ele>587.6</ele>
        <time>2021-10-14T12:11:37Z</time>
      </trkpt>
      <trkpt lat="44.12544" lon="3.24496">
        <ele>587.9</ele>
        <time>2021-10-14T12:11:38Z</time>
      </trkpt>
      <trkpt lat="44.12545" lon="3.24496">
        <ele>588</ele>
        <time>2021-10-14T12:11:39Z</time>
      </trkpt>
      <trkpt lat="44.12547" lon="3.24496">
        <ele>588.1</ele>
        <time>2021-10-14T12:11:41Z</time>
      </trkpt>
      <trkpt lat="44.12548" lon="3.24497">
        <ele>588.2</ele>
        <time>2021-10-14T12:11:42Z</time>
      </trkpt>
      <trkpt lat="44.1255" lon="3.24498">
        <ele>588.5</ele>
        <time>2021-10-14T12:11:44Z</time>
      </trkpt>
      <trkpt lat="44.12551" lon="3.24498">
        <ele>588.6</ele>
        <time>2021-10-14T12:11:45Z</time>
      </trkpt>
      <trkpt lat="44.12552" lon="3.24498">
        <ele>588.7</ele>
        <time>2021-10-14T12:11:46Z</time>
      </trkpt>
      <trkpt lat="44.12553" lon="3.24499">
        <ele>588.9</ele>
        <time>2021-10-14T12:11:48Z</time>
      </trkpt>
      <trkpt lat="44.12554" lon="3.24498">
        <ele>588.9</ele>
        <time>2021-10-14T12:11:49Z</time>
      </trkpt>
      <trkpt lat="44.12554" lon="3.24497">
        <ele>589</ele>
        <time>2021-10-14T12:11:51Z</time>
      </trkpt>
      <trkpt lat="44.12554" lon="3.24497">
        <ele>589</ele>
        <time>2021-10-14T12:11:52Z</time>
      </trkpt>
      <trkpt lat="44.12553" lon="3.24496">
        <ele>589.1</ele>
        <time>2021-10-14T12:11:54Z</time>
      </trkpt>
      <trkpt lat="44.12553" lon="3.24496">
        <ele>589.1</ele>
        <time>2021-10-14T12:11:55Z</time>
      </trkpt>
      <trkpt lat="44.12554" lon="3.24496">
        <ele>589.1</ele>
        <time>2021-10-14T12:11:56Z</time>
      </trkpt>
      <trkpt lat="44.12554" lon="3.24495">
        <ele>589.2</ele>
        <time>2021-10-14T12:11:57Z</time>
      </trkpt>
      <trkpt lat="44.12556" lon="3.24496">
        <ele>589.4</ele>
        <time>2021-10-14T12:11:59Z</time>
      </trkpt>
      <trkpt lat="44.12557" lon="3.24497">
        <ele>589.6</ele>
        <time>2021-10-14T12:12:00Z</time>
      </trkpt>
      <trkpt lat="44.12559" lon="3.24498">
        <ele>589.8</ele>
        <time>2021-10-14T12:12:02Z</time>
      </trkpt>
      <trkpt lat="44.1256" lon="3.24499">
        <ele>589.9</ele>
        <time>2021-10-14T12:12:03Z</time>
      </trkpt>
      <trkpt lat="44.12561" lon="3.24501">
        <ele>590.1</ele>
        <time>2021-10-14T12:12:04Z</time>
      </trkpt>
      <trkpt lat="44.12562" lon="3.24503">
        <ele>590.3</ele>
        <time>2021-10-14T12:12:06Z</time>
      </trkpt>
      <trkpt lat="44.12563" lon="3.24504">
        <ele>590.5</ele>
        <time>2021-10-14T12:12:07Z</time>
      </trkpt>
      <trkpt lat="44.12565" lon="3.24505">
        <ele>590.7</ele>
        <time>2021-10-14T12:12:08Z</time>
      </trkpt>
      <trkpt lat="44.12566" lon="3.24507">
        <ele>590.9</ele>
        <time>2021-10-14T12:12:09Z</time>
      </trkpt>
      <trkpt lat="44.12567" lon="3.24508">
        <ele>591.1</ele>
        <time>2021-10-14T12:12:11Z</time>
      </trkpt>
      <trkpt lat="44.12568" lon="3.2451">
        <ele>591.2</ele>
        <time>2021-10-14T12:12:12Z</time>
      </trkpt>
      <trkpt lat="44.12569" lon="3.24511">
        <ele>591.4</ele>
        <time>2021-10-14T12:12:13Z</time>
      </trkpt>
      <trkpt lat="44.1257" lon="3.24512">
        <ele>591.6</ele>
        <time>2021-10-14T12:12:14Z</time>
      </trkpt>
      <trkpt lat="44.12572" lon="3.24514">
        <ele>591.8</ele>
        <time>2021-10-14T12:12:16Z</time>
      </trkpt>
      <trkpt lat="44.12573" lon="3.24515">
        <ele>591.9</ele>
        <time>2021-10-14T12:12:17Z</time>
      </trkpt>
      <trkpt lat="44.12574" lon="3.24516">
        <ele>592.1</ele>
        <time>2021-10-14T12:12:18Z</time>
      </trkpt>
      <trkpt lat="44.12574" lon="3.24517">
        <ele>592.2</ele>
        <time>2021-10-14T12:12:19Z</time>
      </trkpt>
      <trkpt lat="44.12575" lon="3.24519">
        <ele>592.4</ele>
        <time>2021-10-14T12:12:21Z</time>
      </trkpt>
      <trkpt lat="44.12577" lon="3.24521">
        <ele>592.6</ele>
        <time>2021-10-14T12:12:22Z</time>
      </trkpt>
      <trkpt lat="44.12578" lon="3.24522">
        <ele>592.8</ele>
        <time>2021-10-14T12:12:23Z</time>
      </trkpt>
      <trkpt lat="44.12578" lon="3.24524">
        <ele>592.9</ele>
        <time>2021-10-14T12:12:24Z</time>
      </trkpt>
      <trkpt lat="44.12579" lon="3.24526">
        <ele>593.1</ele>
        <time>2021-10-14T12:12:26Z</time>
      </trkpt>
      <trkpt lat="44.12581" lon="3.24527">
        <ele>593.3</ele>
        <time>2021-10-14T12:12:27Z</time>
      </trkpt>
      <trkpt lat="44.12582" lon="3.2453">
        <ele>593.6</ele>
        <time>2021-10-14T12:12:28Z</time>
      </trkpt>
      <trkpt lat="44.12583" lon="3.24531">
        <ele>593.8</ele>
        <time>2021-10-14T12:12:30Z</time>
      </trkpt>
      <trkpt lat="44.12585" lon="3.24535">
        <ele>594.1</ele>
        <time>2021-10-14T12:12:31Z</time>
      </trkpt>
      <trkpt lat="44.12586" lon="3.24536">
        <ele>594.3</ele>
        <time>2021-10-14T12:12:32Z</time>
      </trkpt>
      <trkpt lat="44.12586" lon="3.24537">
        <ele>594.4</ele>
        <time>2021-10-14T12:12:33Z</time>
      </trkpt>
      <trkpt lat="44.12588" lon="3.2454">
        <ele>594.6</ele>
        <time>2021-10-14T12:12:35Z</time>
      </trkpt>
      <trkpt lat="44.12589" lon="3.24541">
        <ele>594.8</ele>
        <time>2021-10-14T12:12:36Z</time>
      </trkpt>
      <trkpt lat="44.1259" lon="3.24543">
        <ele>595</ele>
        <time>2021-10-14T12:12:38Z</time>
      </trkpt>
      <trkpt lat="44.12591" lon="3.24544">
        <ele>595.1</ele>
        <time>2021-10-14T12:12:39Z</time>
      </trkpt>
      <trkpt lat="44.12592" lon="3.24546">
        <ele>595.4</ele>
        <time>2021-10-14T12:12:41Z</time>
      </trkpt>
      <trkpt lat="44.12593" lon="3.24547">
        <ele>595.5</ele>
        <time>2021-10-14T12:12:42Z</time>
      </trkpt>
      <trkpt lat="44.12593" lon="3.24548">
        <ele>595.6</ele>
        <time>2021-10-14T12:12:43Z</time>
      </trkpt>
      <trkpt lat="44.12593" lon="3.24548">
        <ele>595.6</ele>
        <time>2021-10-14T12:12:44Z</time>
      </trkpt>
      <trkpt lat="44.12595" lon="3.2455">
        <ele>595.8</ele>
        <time>2021-10-14T12:12:46Z</time>
      </trkpt>
      <trkpt lat="44.12595" lon="3.24552">
        <ele>595.9</ele>
        <time>2021-10-14T12:12:47Z</time>
      </trkpt>
      <trkpt lat="44.12595" lon="3.24552">
        <ele>596</ele>
        <time>2021-10-14T12:12:48Z</time>
      </trkpt>
      <trkpt lat="44.12596" lon="3.24553">
        <ele>596.1</ele>
        <time>2021-10-14T12:12:49Z</time>
      </trkpt>
      <trkpt lat="44.12596" lon="3.24554">
        <ele>596.2</ele>
        <time>2021-10-14T12:12:50Z</time>
      </trkpt>
      <trkpt lat="44.12597" lon="3.24555">
        <ele>596.2</ele>
        <time>2021-10-14T12:12:51Z</time>
      </trkpt>
      <trkpt lat="44.12598" lon="3.24555">
        <ele>596.3</ele>
        <time>2021-10-14T12:12:52Z</time>
      </trkpt>
      <trkpt lat="44.12598" lon="3.24556">
        <ele>596.4</ele>
        <time>2021-10-14T12:12:54Z</time>
      </trkpt>
      <trkpt lat="44.12599" lon="3.24557">
        <ele>596.5</ele>
        <time>2021-10-14T12:12:55Z</time>
      </trkpt>
      <trkpt lat="44.126" lon="3.2456">
        <ele>596.8</ele>
        <time>2021-10-14T12:12:57Z</time>
      </trkpt>
      <trkpt lat="44.126" lon="3.24561">
        <ele>596.9</ele>
        <time>2021-10-14T12:12:58Z</time>
      </trkpt>
      <trkpt lat="44.126" lon="3.24563">
        <ele>597</ele>
        <time>2021-10-14T12:12:59Z</time>
      </trkpt>
      <trkpt lat="44.12602" lon="3.24566">
        <ele>597.3</ele>
        <time>2021-10-14T12:13:01Z</time>
      </trkpt>
      <trkpt lat="44.12602" lon="3.24567">
        <ele>597.4</ele>
        <time>2021-10-14T12:13:02Z</time>
      </trkpt>
      <trkpt lat="44.12604" lon="3.2457">
        <ele>597.7</ele>
        <time>2021-10-14T12:13:04Z</time>
      </trkpt>
      <trkpt lat="44.12605" lon="3.24571">
        <ele>597.7</ele>
        <time>2021-10-14T12:13:05Z</time>
      </trkpt>
      <trkpt lat="44.12606" lon="3.24574">
        <ele>597.9</ele>
        <time>2021-10-14T12:13:06Z</time>
      </trkpt>
      <trkpt lat="44.12607" lon="3.24576">
        <ele>598.2</ele>
        <time>2021-10-14T12:13:08Z</time>
      </trkpt>
      <trkpt lat="44.1261" lon="3.24579">
        <ele>598.4</ele>
        <time>2021-10-14T12:13:09Z</time>
      </trkpt>
      <trkpt lat="44.1261" lon="3.2458">
        <ele>598.5</ele>
        <time>2021-10-14T12:13:10Z</time>
      </trkpt>
      <trkpt lat="44.12612" lon="3.24582">
        <ele>598.8</ele>
        <time>2021-10-14T12:13:12Z</time>
      </trkpt>
      <trkpt lat="44.12613" lon="3.24583">
        <ele>598.8</ele>
        <time>2021-10-14T12:13:13Z</time>
      </trkpt>
      <trkpt lat="44.12615" lon="3.24586">
        <ele>599.1</ele>
        <time>2021-10-14T12:13:14Z</time>
      </trkpt>
      <trkpt lat="44.12616" lon="3.24587">
        <ele>599.2</ele>
        <time>2021-10-14T12:13:15Z</time>
      </trkpt>
      <trkpt lat="44.12618" lon="3.2459">
        <ele>599.5</ele>
        <time>2021-10-14T12:13:17Z</time>
      </trkpt>
      <trkpt lat="44.12618" lon="3.24591">
        <ele>599.6</ele>
        <time>2021-10-14T12:13:18Z</time>
      </trkpt>
      <trkpt lat="44.12619" lon="3.24593">
        <ele>599.8</ele>
        <time>2021-10-14T12:13:19Z</time>
      </trkpt>
      <trkpt lat="44.12621" lon="3.24597">
        <ele>600.1</ele>
        <time>2021-10-14T12:13:21Z</time>
      </trkpt>
      <trkpt lat="44.12623" lon="3.24599">
        <ele>600.3</ele>
        <time>2021-10-14T12:13:22Z</time>
      </trkpt>
      <trkpt lat="44.12624" lon="3.24601">
        <ele>600.5</ele>
        <time>2021-10-14T12:13:24Z</time>
      </trkpt>
      <trkpt lat="44.12625" lon="3.24604">
        <ele>600.7</ele>
        <time>2021-10-14T12:13:25Z</time>
      </trkpt>
      <trkpt lat="44.12627" lon="3.24607">
        <ele>601</ele>
        <time>2021-10-14T12:13:27Z</time>
      </trkpt>
      <trkpt lat="44.12628" lon="3.24609">
        <ele>601.2</ele>
        <time>2021-10-14T12:13:28Z</time>
      </trkpt>
      <trkpt lat="44.12629" lon="3.24611">
        <ele>601.4</ele>
        <time>2021-10-14T12:13:30Z</time>
      </trkpt>
      <trkpt lat="44.1263" lon="3.24612">
        <ele>601.5</ele>
        <time>2021-10-14T12:13:31Z</time>
      </trkpt>
      <trkpt lat="44.12631" lon="3.24613">
        <ele>601.7</ele>
        <time>2021-10-14T12:13:33Z</time>
      </trkpt>
      <trkpt lat="44.12632" lon="3.24614">
        <ele>601.8</ele>
        <time>2021-10-14T12:13:34Z</time>
      </trkpt>
      <trkpt lat="44.12632" lon="3.24614">
        <ele>601.8</ele>
        <time>2021-10-14T12:13:35Z</time>
      </trkpt>
      <trkpt lat="44.12632" lon="3.24616">
        <ele>601.9</ele>
        <time>2021-10-14T12:13:37Z</time>
      </trkpt>
      <trkpt lat="44.12633" lon="3.24617">
        <ele>602</ele>
        <time>2021-10-14T12:13:38Z</time>
      </trkpt>
      <trkpt lat="44.12634" lon="3.24619">
        <ele>602.2</ele>
        <time>2021-10-14T12:13:39Z</time>
      </trkpt>
      <trkpt lat="44.12635" lon="3.24619">
        <ele>602.3</ele>
        <time>2021-10-14T12:13:40Z</time>
      </trkpt>
      <trkpt lat="44.12635" lon="3.24619">
        <ele>602.3</ele>
        <time>2021-10-14T12:13:42Z</time>
      </trkpt>
      <trkpt lat="44.12636" lon="3.24619">
        <ele>602.4</ele>
        <time>2021-10-14T12:13:43Z</time>
      </trkpt>
      <trkpt lat="44.12637" lon="3.2462">
        <ele>602.5</ele>
        <time>2021-10-14T12:13:44Z</time>
      </trkpt>
      <trkpt lat="44.12639" lon="3.2462">
        <ele>602.7</ele>
        <time>2021-10-14T12:13:45Z</time>
      </trkpt>
      <trkpt lat="44.1264" lon="3.24621">
        <ele>602.8</ele>
        <time>2021-10-14T12:13:46Z</time>
      </trkpt>
      <trkpt lat="44.12642" lon="3.24623">
        <ele>603.1</ele>
        <time>2021-10-14T12:13:48Z</time>
      </trkpt>
      <trkpt lat="44.12644" lon="3.24627">
        <ele>603.4</ele>
        <time>2021-10-14T12:13:50Z</time>
      </trkpt>
      <trkpt lat="44.12645" lon="3.24632">
        <ele>603.7</ele>
        <time>2021-10-14T12:13:51Z</time>
      </trkpt>
      <trkpt lat="44.12645" lon="3.24635">
        <ele>603.9</ele>
        <time>2021-10-14T12:13:52Z</time>
      </trkpt>
      <trkpt lat="44.12647" lon="3.24638">
        <ele>604.1</ele>
        <time>2021-10-14T12:13:54Z</time>
      </trkpt>
      <trkpt lat="44.12648" lon="3.24641">
        <ele>604.2</ele>
        <time>2021-10-14T12:13:55Z</time>
      </trkpt>
      <trkpt lat="44.12648" lon="3.24645">
        <ele>604.5</ele>
        <time>2021-10-14T12:13:57Z</time>
      </trkpt>
      <trkpt lat="44.1265" lon="3.2465">
        <ele>604.7</ele>
        <time>2021-10-14T12:13:58Z</time>
      </trkpt>
      <trkpt lat="44.1265" lon="3.24651">
        <ele>606.6</ele>
        <time>2021-10-14T12:13:59Z</time>
      </trkpt>
      <trkpt lat="44.12652" lon="3.24653">
        <ele>605.4</ele>
        <time>2021-10-14T12:14:00Z</time>
      </trkpt>
      <trkpt lat="44.12653" lon="3.24654">
        <ele>605.3</ele>
        <time>2021-10-14T12:14:02Z</time>
      </trkpt>
      <trkpt lat="44.12654" lon="3.24655">
        <ele>606.2</ele>
        <time>2021-10-14T12:14:03Z</time>
      </trkpt>
      <trkpt lat="44.12656" lon="3.24657">
        <ele>606.1</ele>
        <time>2021-10-14T12:14:04Z</time>
      </trkpt>
      <trkpt lat="44.12657" lon="3.24658">
        <ele>605.1</ele>
        <time>2021-10-14T12:14:05Z</time>
      </trkpt>
      <trkpt lat="44.1266" lon="3.2466">
        <ele>606.1</ele>
        <time>2021-10-14T12:14:07Z</time>
      </trkpt>
      <trkpt lat="44.12663" lon="3.2466">
        <ele>605</ele>
        <time>2021-10-14T12:14:08Z</time>
      </trkpt>
      <trkpt lat="44.12664" lon="3.2466">
        <ele>604.9</ele>
        <time>2021-10-14T12:14:09Z</time>
      </trkpt>
      <trkpt lat="44.12666" lon="3.24661">
        <ele>604.8</ele>
        <time>2021-10-14T12:14:11Z</time>
      </trkpt>
      <trkpt lat="44.12667" lon="3.24662">
        <ele>603.8</ele>
        <time>2021-10-14T12:14:12Z</time>
      </trkpt>
      <trkpt lat="44.12669" lon="3.24665">
        <ele>604.9</ele>
        <time>2021-10-14T12:14:13Z</time>
      </trkpt>
      <trkpt lat="44.1267" lon="3.24666">
        <ele>604.8</ele>
        <time>2021-10-14T12:14:15Z</time>
      </trkpt>
      <trkpt lat="44.12672" lon="3.24667">
        <ele>604.7</ele>
        <time>2021-10-14T12:14:16Z</time>
      </trkpt>
      <trkpt lat="44.12673" lon="3.24668">
        <ele>605.8</ele>
        <time>2021-10-14T12:14:17Z</time>
      </trkpt>
      <trkpt lat="44.12675" lon="3.24671">
        <ele>605.7</ele>
        <time>2021-10-14T12:14:19Z</time>
      </trkpt>
      <trkpt lat="44.12676" lon="3.24672">
        <ele>606.8</ele>
        <time>2021-10-14T12:14:20Z</time>
      </trkpt>
      <trkpt lat="44.12677" lon="3.24675">
        <ele>606.7</ele>
        <time>2021-10-14T12:14:21Z</time>
      </trkpt>
      <trkpt lat="44.12678" lon="3.24677">
        <ele>608.5</ele>
        <time>2021-10-14T12:14:22Z</time>
      </trkpt>
      <trkpt lat="44.1268" lon="3.2468">
        <ele>607.7</ele>
        <time>2021-10-14T12:14:24Z</time>
      </trkpt>
      <trkpt lat="44.12681" lon="3.24681">
        <ele>609.4</ele>
        <time>2021-10-14T12:14:25Z</time>
      </trkpt>
      <trkpt lat="44.12683" lon="3.24682">
        <ele>608.7</ele>
        <time>2021-10-14T12:14:26Z</time>
      </trkpt>
      <trkpt lat="44.12684" lon="3.24683">
        <ele>608.1</ele>
        <time>2021-10-14T12:14:27Z</time>
      </trkpt>
      <trkpt lat="44.12686" lon="3.24684">
        <ele>608</ele>
        <time>2021-10-14T12:14:29Z</time>
      </trkpt>
      <trkpt lat="44.12687" lon="3.24686">
        <ele>609.6</ele>
        <time>2021-10-14T12:14:30Z</time>
      </trkpt>
      <trkpt lat="44.12688" lon="3.24688">
        <ele>609</ele>
        <time>2021-10-14T12:14:31Z</time>
      </trkpt>
      <trkpt lat="44.12689" lon="3.2469">
        <ele>610.7</ele>
        <time>2021-10-14T12:14:32Z</time>
      </trkpt>
      <trkpt lat="44.1269" lon="3.24692">
        <ele>610.6</ele>
        <time>2021-10-14T12:14:33Z</time>
      </trkpt>
      <trkpt lat="44.12692" lon="3.24695">
        <ele>611.8</ele>
        <time>2021-10-14T12:14:35Z</time>
      </trkpt>
      <trkpt lat="44.12695" lon="3.24698">
        <ele>613</ele>
        <time>2021-10-14T12:14:36Z</time>
      </trkpt>
      <trkpt lat="44.12696" lon="3.247">
        <ele>612.9</ele>
        <time>2021-10-14T12:14:37Z</time>
      </trkpt>
      <trkpt lat="44.12698" lon="3.24702">
        <ele>612.9</ele>
        <time>2021-10-14T12:14:39Z</time>
      </trkpt>
      <trkpt lat="44.12701" lon="3.24704">
        <ele>612.9</ele>
        <time>2021-10-14T12:14:40Z</time>
      </trkpt>
      <trkpt lat="44.12703" lon="3.24705">
        <ele>612.9</ele>
        <time>2021-10-14T12:14:41Z</time>
      </trkpt>
      <trkpt lat="44.12705" lon="3.24707">
        <ele>612.8</ele>
        <time>2021-10-14T12:14:43Z</time>
      </trkpt>
      <trkpt lat="44.12707" lon="3.24707">
        <ele>612.8</ele>
        <time>2021-10-14T12:14:44Z</time>
      </trkpt>
      <trkpt lat="44.1271" lon="3.24708">
        <ele>612.8</ele>
        <time>2021-10-14T12:14:46Z</time>
      </trkpt>
      <trkpt lat="44.12711" lon="3.24709">
        <ele>612.8</ele>
        <time>2021-10-14T12:14:47Z</time>
      </trkpt>
      <trkpt lat="44.12713" lon="3.2471">
        <ele>612.8</ele>
        <time>2021-10-14T12:14:48Z</time>
      </trkpt>
      <trkpt lat="44.12716" lon="3.24712">
        <ele>612.8</ele>
        <time>2021-10-14T12:14:50Z</time>
      </trkpt>
      <trkpt lat="44.12717" lon="3.24713">
        <ele>612.8</ele>
        <time>2021-10-14T12:14:51Z</time>
      </trkpt>
      <trkpt lat="44.1272" lon="3.24716">
        <ele>612.7</ele>
        <time>2021-10-14T12:14:53Z</time>
      </trkpt>
      <trkpt lat="44.12722" lon="3.24718">
        <ele>612.7</ele>
        <time>2021-10-14T12:14:54Z</time>
      </trkpt>
      <trkpt lat="44.12725" lon="3.24719">
        <ele>612.6</ele>
        <time>2021-10-14T12:14:56Z</time>
      </trkpt>
      <trkpt lat="44.12728" lon="3.24721">
        <ele>612.5</ele>
        <time>2021-10-14T12:14:57Z</time>
      </trkpt>
      <trkpt lat="44.12729" lon="3.24722">
        <ele>612.4</ele>
        <time>2021-10-14T12:14:58Z</time>
      </trkpt>
      <trkpt lat="44.1273" lon="3.24723">
        <ele>612.4</ele>
        <time>2021-10-14T12:14:59Z</time>
      </trkpt>
      <trkpt lat="44.12732" lon="3.24724">
        <ele>612.2</ele>
        <time>2021-10-14T12:15:01Z</time>
      </trkpt>
      <trkpt lat="44.12734" lon="3.24727">
        <ele>612</ele>
        <time>2021-10-14T12:15:02Z</time>
      </trkpt>
      <trkpt lat="44.12736" lon="3.24728">
        <ele>612.1</ele>
        <time>2021-10-14T12:15:03Z</time>
      </trkpt>
      <trkpt lat="44.12737" lon="3.24729">
        <ele>612.2</ele>
        <time>2021-10-14T12:15:04Z</time>
      </trkpt>
      <trkpt lat="44.1274" lon="3.24732">
        <ele>612.4</ele>
        <time>2021-10-14T12:15:06Z</time>
      </trkpt>
      <trkpt lat="44.1274" lon="3.24735">
        <ele>612.5</ele>
        <time>2021-10-14T12:15:08Z</time>
      </trkpt>
      <trkpt lat="44.12738" lon="3.24736">
        <ele>612.5</ele>
        <time>2021-10-14T12:15:09Z</time>
      </trkpt>
      <trkpt lat="44.12737" lon="3.24735">
        <ele>612.6</ele>
        <time>2021-10-14T12:15:10Z</time>
      </trkpt>
      <trkpt lat="44.12737" lon="3.24734">
        <ele>612.6</ele>
        <time>2021-10-14T12:15:11Z</time>
      </trkpt>
      <trkpt lat="44.12733" lon="3.24732">
        <ele>612.7</ele>
        <time>2021-10-14T12:15:13Z</time>
      </trkpt>
      <trkpt lat="44.1273" lon="3.2473">
        <ele>612.7</ele>
        <time>2021-10-14T12:15:14Z</time>
      </trkpt>
      <trkpt lat="44.12729" lon="3.24729">
        <ele>612.7</ele>
        <time>2021-10-14T12:15:15Z</time>
      </trkpt>
      <trkpt lat="44.12727" lon="3.24727">
        <ele>612.8</ele>
        <time>2021-10-14T12:15:16Z</time>
      </trkpt>
      <trkpt lat="44.12726" lon="3.24726">
        <ele>612.8</ele>
        <time>2021-10-14T12:15:17Z</time>
      </trkpt>
      <trkpt lat="44.12724" lon="3.24725">
        <ele>612.8</ele>
        <time>2021-10-14T12:15:19Z</time>
      </trkpt>
      <trkpt lat="44.12723" lon="3.24724">
        <ele>612.8</ele>
        <time>2021-10-14T12:15:20Z</time>
      </trkpt>
      <trkpt lat="44.12723" lon="3.24723">
        <ele>612.8</ele>
        <time>2021-10-14T12:15:21Z</time>
      </trkpt>
      <trkpt lat="44.12719" lon="3.24721">
        <ele>612.8</ele>
        <time>2021-10-14T12:15:23Z</time>
      </trkpt>
      <trkpt lat="44.12716" lon="3.2472">
        <ele>612.8</ele>
        <time>2021-10-14T12:15:24Z</time>
      </trkpt>
      <trkpt lat="44.12715" lon="3.2472">
        <ele>612.8</ele>
        <time>2021-10-14T12:15:25Z</time>
      </trkpt>
      <trkpt lat="44.12711" lon="3.24718">
        <ele>612.9</ele>
        <time>2021-10-14T12:15:27Z</time>
      </trkpt>
      <trkpt lat="44.1271" lon="3.24717">
        <ele>612.9</ele>
        <time>2021-10-14T12:15:28Z</time>
      </trkpt>
      <trkpt lat="44.12707" lon="3.24716">
        <ele>612.9</ele>
        <time>2021-10-14T12:15:29Z</time>
      </trkpt>
      <trkpt lat="44.12706" lon="3.24716">
        <ele>612.9</ele>
        <time>2021-10-14T12:15:30Z</time>
      </trkpt>
      <trkpt lat="44.12704" lon="3.24714">
        <ele>612.9</ele>
        <time>2021-10-14T12:15:32Z</time>
      </trkpt>
      <trkpt lat="44.12702" lon="3.24714">
        <ele>612.9</ele>
        <time>2021-10-14T12:15:33Z</time>
      </trkpt>
      <trkpt lat="44.12701" lon="3.24713">
        <ele>613</ele>
        <time>2021-10-14T12:15:34Z</time>
      </trkpt>
      <trkpt lat="44.12699" lon="3.24714">
        <ele>613</ele>
        <time>2021-10-14T12:15:36Z</time>
      </trkpt>
      <trkpt lat="44.12698" lon="3.24714">
        <ele>613</ele>
        <time>2021-10-14T12:15:37Z</time>
      </trkpt>
      <trkpt lat="44.12695" lon="3.24714">
        <ele>613</ele>
        <time>2021-10-14T12:15:38Z</time>
      </trkpt>
      <trkpt lat="44.12691" lon="3.24712">
        <ele>613</ele>
        <time>2021-10-14T12:15:40Z</time>
      </trkpt>
      <trkpt lat="44.1269" lon="3.24712">
        <ele>613.1</ele>
        <time>2021-10-14T12:15:41Z</time>
      </trkpt>
      <trkpt lat="44.12689" lon="3.24711">
        <ele>613.1</ele>
        <time>2021-10-14T12:15:42Z</time>
      </trkpt>
      <trkpt lat="44.12687" lon="3.2471">
        <ele>613.1</ele>
        <time>2021-10-14T12:15:44Z</time>
      </trkpt>
      <trkpt lat="44.12686" lon="3.24709">
        <ele>613.1</ele>
        <time>2021-10-14T12:15:45Z</time>
      </trkpt>
      <trkpt lat="44.12685" lon="3.24708">
        <ele>613.1</ele>
        <time>2021-10-14T12:15:46Z</time>
      </trkpt>
      <trkpt lat="44.12684" lon="3.24706">
        <ele>613.1</ele>
        <time>2021-10-14T12:15:47Z</time>
      </trkpt>
      <trkpt lat="44.12683" lon="3.24704">
        <ele>613.1</ele>
        <time>2021-10-14T12:15:48Z</time>
      </trkpt>
      <trkpt lat="44.12681" lon="3.24701">
        <ele>613.1</ele>
        <time>2021-10-14T12:15:50Z</time>
      </trkpt>
      <trkpt lat="44.12679" lon="3.24698">
        <ele>613.1</ele>
        <time>2021-10-14T12:15:51Z</time>
      </trkpt>
      <trkpt lat="44.12676" lon="3.24694">
        <ele>613.1</ele>
        <time>2021-10-14T12:15:52Z</time>
      </trkpt>
      <trkpt lat="44.12673" lon="3.2469">
        <ele>613.1</ele>
        <time>2021-10-14T12:15:53Z</time>
      </trkpt>
      <trkpt lat="44.12671" lon="3.24688">
        <ele>613.1</ele>
        <time>2021-10-14T12:15:54Z</time>
      </trkpt>
      <trkpt lat="44.12668" lon="3.24685">
        <ele>613.1</ele>
        <time>2021-10-14T12:15:55Z</time>
      </trkpt>
      <trkpt lat="44.12666" lon="3.24681">
        <ele>613.1</ele>
        <time>2021-10-14T12:15:57Z</time>
      </trkpt>
      <trkpt lat="44.12662" lon="3.24677">
        <ele>613.1</ele>
        <time>2021-10-14T12:15:58Z</time>
      </trkpt>
      <trkpt lat="44.12659" lon="3.24674">
        <ele>613.2</ele>
        <time>2021-10-14T12:15:59Z</time>
      </trkpt>
      <trkpt lat="44.12656" lon="3.24671">
        <ele>613.2</ele>
        <time>2021-10-14T12:16:01Z</time>
      </trkpt>
      <trkpt lat="44.12654" lon="3.24669">
        <ele>613.2</ele>
        <time>2021-10-14T12:16:02Z</time>
      </trkpt>
      <trkpt lat="44.12651" lon="3.24666">
        <ele>613.2</ele>
        <time>2021-10-14T12:16:03Z</time>
      </trkpt>
      <trkpt lat="44.12647" lon="3.24663">
        <ele>613.3</ele>
        <time>2021-10-14T12:16:04Z</time>
      </trkpt>
      <trkpt lat="44.12643" lon="3.24661">
        <ele>613.3</ele>
        <time>2021-10-14T12:16:06Z</time>
      </trkpt>
      <trkpt lat="44.1264" lon="3.24657">
        <ele>613.4</ele>
        <time>2021-10-14T12:16:08Z</time>
      </trkpt>
      <trkpt lat="44.12638" lon="3.24655">
        <ele>613.5</ele>
        <time>2021-10-14T12:16:09Z</time>
      </trkpt>
      <trkpt lat="44.12636" lon="3.24652">
        <ele>613.5</ele>
        <time>2021-10-14T12:16:10Z</time>
      </trkpt>
      <trkpt lat="44.12633" lon="3.2465">
        <ele>613.6</ele>
        <time>2021-10-14T12:16:11Z</time>
      </trkpt>
      <trkpt lat="44.1263" lon="3.24648">
        <ele>613.6</ele>
        <time>2021-10-14T12:16:12Z</time>
      </trkpt>
      <trkpt lat="44.12627" lon="3.24645">
        <ele>613.7</ele>
        <time>2021-10-14T12:16:13Z</time>
      </trkpt>
      <trkpt lat="44.12626" lon="3.24644">
        <ele>613.7</ele>
        <time>2021-10-14T12:16:14Z</time>
      </trkpt>
      <trkpt lat="44.12623" lon="3.24641">
        <ele>613.8</ele>
        <time>2021-10-14T12:16:15Z</time>
      </trkpt>
      <trkpt lat="44.12618" lon="3.24638">
        <ele>613.9</ele>
        <time>2021-10-14T12:16:17Z</time>
      </trkpt>
      <trkpt lat="44.12615" lon="3.24636">
        <ele>613.9</ele>
        <time>2021-10-14T12:16:18Z</time>
      </trkpt>
      <trkpt lat="44.12612" lon="3.24633">
        <ele>613.9</ele>
        <time>2021-10-14T12:16:19Z</time>
      </trkpt>
      <trkpt lat="44.1261" lon="3.2463">
        <ele>613.9</ele>
        <time>2021-10-14T12:16:20Z</time>
      </trkpt>
      <trkpt lat="44.12605" lon="3.24627">
        <ele>614</ele>
        <time>2021-10-14T12:16:22Z</time>
      </trkpt>
      <trkpt lat="44.12602" lon="3.24624">
        <ele>613.9</ele>
        <time>2021-10-14T12:16:23Z</time>
      </trkpt>
      <trkpt lat="44.12598" lon="3.24621">
        <ele>613.9</ele>
        <time>2021-10-14T12:16:24Z</time>
      </trkpt>
      <trkpt lat="44.12594" lon="3.24618">
        <ele>613.9</ele>
        <time>2021-10-14T12:16:26Z</time>
      </trkpt>
      <trkpt lat="44.12591" lon="3.24615">
        <ele>613.9</ele>
        <time>2021-10-14T12:16:27Z</time>
      </trkpt>
      <trkpt lat="44.12588" lon="3.24613">
        <ele>613.9</ele>
        <time>2021-10-14T12:16:28Z</time>
      </trkpt>
      <trkpt lat="44.12585" lon="3.2461">
        <ele>613.9</ele>
        <time>2021-10-14T12:16:29Z</time>
      </trkpt>
      <trkpt lat="44.12583" lon="3.24607">
        <ele>613.9</ele>
        <time>2021-10-14T12:16:31Z</time>
      </trkpt>
      <trkpt lat="44.12581" lon="3.24604">
        <ele>613.9</ele>
        <time>2021-10-14T12:16:32Z</time>
      </trkpt>
      <trkpt lat="44.12578" lon="3.246">
        <ele>613.9</ele>
        <time>2021-10-14T12:16:33Z</time>
      </trkpt>
      <trkpt lat="44.12574" lon="3.24596">
        <ele>613.9</ele>
        <time>2021-10-14T12:16:35Z</time>
      </trkpt>
      <trkpt lat="44.12571" lon="3.24593">
        <ele>613.9</ele>
        <time>2021-10-14T12:16:36Z</time>
      </trkpt>
      <trkpt lat="44.12569" lon="3.24592">
        <ele>613.9</ele>
        <time>2021-10-14T12:16:37Z</time>
      </trkpt>
      <trkpt lat="44.12565" lon="3.24592">
        <ele>613.9</ele>
        <time>2021-10-14T12:16:39Z</time>
      </trkpt>
      <trkpt lat="44.12562" lon="3.24594">
        <ele>614</ele>
        <time>2021-10-14T12:16:40Z</time>
      </trkpt>
      <trkpt lat="44.12561" lon="3.24595">
        <ele>615.6</ele>
        <time>2021-10-14T12:16:41Z</time>
      </trkpt>
      <trkpt lat="44.12561" lon="3.24599">
        <ele>616</ele>
        <time>2021-10-14T12:16:42Z</time>
      </trkpt>
      <trkpt lat="44.12562" lon="3.24601">
        <ele>616.4</ele>
        <time>2021-10-14T12:16:44Z</time>
      </trkpt>
      <trkpt lat="44.12563" lon="3.24605">
        <ele>616.9</ele>
        <time>2021-10-14T12:16:45Z</time>
      </trkpt>
      <trkpt lat="44.12564" lon="3.24607">
        <ele>617.1</ele>
        <time>2021-10-14T12:16:46Z</time>
      </trkpt>
      <trkpt lat="44.12565" lon="3.24611">
        <ele>617.6</ele>
        <time>2021-10-14T12:16:48Z</time>
      </trkpt>
      <trkpt lat="44.12566" lon="3.24613">
        <ele>617.9</ele>
        <time>2021-10-14T12:16:50Z</time>
      </trkpt>
      <trkpt lat="44.12567" lon="3.24615">
        <ele>618.2</ele>
        <time>2021-10-14T12:16:51Z</time>
      </trkpt>
      <trkpt lat="44.12568" lon="3.24618">
        <ele>618.5</ele>
        <time>2021-10-14T12:16:52Z</time>
      </trkpt>
      <trkpt lat="44.12569" lon="3.24621">
        <ele>618.9</ele>
        <time>2021-10-14T12:16:54Z</time>
      </trkpt>
      <trkpt lat="44.1257" lon="3.24622">
        <ele>619.1</ele>
        <time>2021-10-14T12:16:55Z</time>
      </trkpt>
      <trkpt lat="44.12572" lon="3.24624">
        <ele>619.5</ele>
        <time>2021-10-14T12:16:56Z</time>
      </trkpt>
      <trkpt lat="44.12573" lon="3.24626">
        <ele>619.8</ele>
        <time>2021-10-14T12:16:58Z</time>
      </trkpt>
      <trkpt lat="44.12575" lon="3.24627">
        <ele>620</ele>
        <time>2021-10-14T12:16:59Z</time>
      </trkpt>
      <trkpt lat="44.12576" lon="3.24628">
        <ele>620.4</ele>
        <time>2021-10-14T12:17:00Z</time>
      </trkpt>
      <trkpt lat="44.1258" lon="3.24631">
        <ele>621</ele>
        <time>2021-10-14T12:17:02Z</time>
      </trkpt>
      <trkpt lat="44.12581" lon="3.24635">
        <ele>621.5</ele>
        <time>2021-10-14T12:17:04Z</time>
      </trkpt>
      <trkpt lat="44.12582" lon="3.24637">
        <ele>621.7</ele>
        <time>2021-10-14T12:17:05Z</time>
      </trkpt>
      <trkpt lat="44.12584" lon="3.24639">
        <ele>622.1</ele>
        <time>2021-10-14T12:17:06Z</time>
      </trkpt>
      <trkpt lat="44.12586" lon="3.24642">
        <ele>622.5</ele>
        <time>2021-10-14T12:17:08Z</time>
      </trkpt>
      <trkpt lat="44.12588" lon="3.24645">
        <ele>623.1</ele>
        <time>2021-10-14T12:17:09Z</time>
      </trkpt>
      <trkpt lat="44.12589" lon="3.24647">
        <ele>623.3</ele>
        <time>2021-10-14T12:17:10Z</time>
      </trkpt>
      <trkpt lat="44.12593" lon="3.24651">
        <ele>624.2</ele>
        <time>2021-10-14T12:17:12Z</time>
      </trkpt>
      <trkpt lat="44.12595" lon="3.24653">
        <ele>624.6</ele>
        <time>2021-10-14T12:17:14Z</time>
      </trkpt>
      <trkpt lat="44.12596" lon="3.24654">
        <ele>624.9</ele>
        <time>2021-10-14T12:17:15Z</time>
      </trkpt>
      <trkpt lat="44.12598" lon="3.24656">
        <ele>625.2</ele>
        <time>2021-10-14T12:17:16Z</time>
      </trkpt>
      <trkpt lat="44.12601" lon="3.24659">
        <ele>626</ele>
        <time>2021-10-14T12:17:18Z</time>
      </trkpt>
      <trkpt lat="44.12602" lon="3.24661">
        <ele>626.2</ele>
        <time>2021-10-14T12:17:19Z</time>
      </trkpt>
      <trkpt lat="44.12606" lon="3.24663">
        <ele>626.8</ele>
        <time>2021-10-14T12:17:21Z</time>
      </trkpt>
      <trkpt lat="44.12607" lon="3.24663">
        <ele>627</ele>
        <time>2021-10-14T12:17:22Z</time>
      </trkpt>
      <trkpt lat="44.1261" lon="3.24665">
        <ele>627.6</ele>
        <time>2021-10-14T12:17:23Z</time>
      </trkpt>
      <trkpt lat="44.12611" lon="3.24665">
        <ele>627.9</ele>
        <time>2021-10-14T12:17:24Z</time>
      </trkpt>
      <trkpt lat="44.12613" lon="3.24666">
        <ele>628.2</ele>
        <time>2021-10-14T12:17:25Z</time>
      </trkpt>
      <trkpt lat="44.12614" lon="3.24667">
        <ele>628.4</ele>
        <time>2021-10-14T12:17:26Z</time>
      </trkpt>
      <trkpt lat="44.12615" lon="3.24668">
        <ele>628.6</ele>
        <time>2021-10-14T12:17:28Z</time>
      </trkpt>
      <trkpt lat="44.12616" lon="3.2467">
        <ele>628.9</ele>
        <time>2021-10-14T12:17:29Z</time>
      </trkpt>
      <trkpt lat="44.12618" lon="3.24673">
        <ele>629.4</ele>
        <time>2021-10-14T12:17:31Z</time>
      </trkpt>
      <trkpt lat="44.12619" lon="3.24674">
        <ele>629.6</ele>
        <time>2021-10-14T12:17:33Z</time>
      </trkpt>
      <trkpt lat="44.1262" lon="3.24676">
        <ele>629.9</ele>
        <time>2021-10-14T12:17:34Z</time>
      </trkpt>
      <trkpt lat="44.12621" lon="3.24678">
        <ele>630.2</ele>
        <time>2021-10-14T12:17:35Z</time>
      </trkpt>
      <trkpt lat="44.12622" lon="3.24679">
        <ele>630.5</ele>
        <time>2021-10-14T12:17:36Z</time>
      </trkpt>
      <trkpt lat="44.12623" lon="3.24681">
        <ele>630.7</ele>
        <time>2021-10-14T12:17:38Z</time>
      </trkpt>
      <trkpt lat="44.12625" lon="3.24683">
        <ele>631.1</ele>
        <time>2021-10-14T12:17:39Z</time>
      </trkpt>
      <trkpt lat="44.12627" lon="3.24685">
        <ele>631.5</ele>
        <time>2021-10-14T12:17:40Z</time>
      </trkpt>
      <trkpt lat="44.12628" lon="3.24687">
        <ele>631.9</ele>
        <time>2021-10-14T12:17:42Z</time>
      </trkpt>
      <trkpt lat="44.1263" lon="3.24689">
        <ele>632.3</ele>
        <time>2021-10-14T12:17:43Z</time>
      </trkpt>
      <trkpt lat="44.12632" lon="3.24691">
        <ele>632.7</ele>
        <time>2021-10-14T12:17:45Z</time>
      </trkpt>
      <trkpt lat="44.12634" lon="3.24693">
        <ele>633.2</ele>
        <time>2021-10-14T12:17:46Z</time>
      </trkpt>
      <trkpt lat="44.12637" lon="3.24697">
        <ele>634</ele>
        <time>2021-10-14T12:17:48Z</time>
      </trkpt>
      <trkpt lat="44.12638" lon="3.24699">
        <ele>634.3</ele>
        <time>2021-10-14T12:17:50Z</time>
      </trkpt>
      <trkpt lat="44.12639" lon="3.247">
        <ele>634.5</ele>
        <time>2021-10-14T12:17:51Z</time>
      </trkpt>
      <trkpt lat="44.12641" lon="3.24702">
        <ele>635</ele>
        <time>2021-10-14T12:17:52Z</time>
      </trkpt>
      <trkpt lat="44.12643" lon="3.24705">
        <ele>635.5</ele>
        <time>2021-10-14T12:17:54Z</time>
      </trkpt>
      <trkpt lat="44.12645" lon="3.24707">
        <ele>635.9</ele>
        <time>2021-10-14T12:17:55Z</time>
      </trkpt>
      <trkpt lat="44.12646" lon="3.24709">
        <ele>636.2</ele>
        <time>2021-10-14T12:17:57Z</time>
      </trkpt>
      <trkpt lat="44.12646" lon="3.2471">
        <ele>636.3</ele>
        <time>2021-10-14T12:17:58Z</time>
      </trkpt>
      <trkpt lat="44.12648" lon="3.24711">
        <ele>636.6</ele>
        <time>2021-10-14T12:17:59Z</time>
      </trkpt>
      <trkpt lat="44.12648" lon="3.24711">
        <ele>636.7</ele>
        <time>2021-10-14T12:18:01Z</time>
      </trkpt>
      <trkpt lat="44.12649" lon="3.24712">
        <ele>636.9</ele>
        <time>2021-10-14T12:18:02Z</time>
      </trkpt>
      <trkpt lat="44.1265" lon="3.24713">
        <ele>637.2</ele>
        <time>2021-10-14T12:18:03Z</time>
      </trkpt>
      <trkpt lat="44.12651" lon="3.24714">
        <ele>637.4</ele>
        <time>2021-10-14T12:18:04Z</time>
      </trkpt>
      <trkpt lat="44.12653" lon="3.24716">
        <ele>637.7</ele>
        <time>2021-10-14T12:18:06Z</time>
      </trkpt>
      <trkpt lat="44.12653" lon="3.24716">
        <ele>637.9</ele>
        <time>2021-10-14T12:18:07Z</time>
      </trkpt>
      <trkpt lat="44.12654" lon="3.24717">
        <ele>638.1</ele>
        <time>2021-10-14T12:18:08Z</time>
      </trkpt>
      <trkpt lat="44.12657" lon="3.24719">
        <ele>638.6</ele>
        <time>2021-10-14T12:18:09Z</time>
      </trkpt>
      <trkpt lat="44.12657" lon="3.2472">
        <ele>638.8</ele>
        <time>2021-10-14T12:18:10Z</time>
      </trkpt>
      <trkpt lat="44.12658" lon="3.24722">
        <ele>639</ele>
        <time>2021-10-14T12:18:11Z</time>
      </trkpt>
      <trkpt lat="44.1266" lon="3.24723">
        <ele>639.5</ele>
        <time>2021-10-14T12:18:13Z</time>
      </trkpt>
      <trkpt lat="44.12661" lon="3.24728">
        <ele>640.2</ele>
        <time>2021-10-14T12:18:15Z</time>
      </trkpt>
      <trkpt lat="44.12661" lon="3.2473">
        <ele>640.5</ele>
        <time>2021-10-14T12:18:16Z</time>
      </trkpt>
      <trkpt lat="44.12661" lon="3.24734">
        <ele>640.9</ele>
        <time>2021-10-14T12:18:17Z</time>
      </trkpt>
      <trkpt lat="44.12662" lon="3.24738">
        <ele>641.4</ele>
        <time>2021-10-14T12:18:19Z</time>
      </trkpt>
      <trkpt lat="44.12665" lon="3.2474">
        <ele>641.9</ele>
        <time>2021-10-14T12:18:20Z</time>
      </trkpt>
      <trkpt lat="44.12665" lon="3.24742">
        <ele>642.1</ele>
        <time>2021-10-14T12:18:21Z</time>
      </trkpt>
      <trkpt lat="44.12667" lon="3.24742">
        <ele>642.3</ele>
        <time>2021-10-14T12:18:22Z</time>
      </trkpt>
      <trkpt lat="44.1267" lon="3.24743">
        <ele>642.7</ele>
        <time>2021-10-14T12:18:24Z</time>
      </trkpt>
      <trkpt lat="44.12671" lon="3.24744">
        <ele>642.9</ele>
        <time>2021-10-14T12:18:25Z</time>
      </trkpt>
      <trkpt lat="44.12673" lon="3.24745">
        <ele>643.2</ele>
        <time>2021-10-14T12:18:26Z</time>
      </trkpt>
      <trkpt lat="44.12676" lon="3.24746">
        <ele>643.6</ele>
        <time>2021-10-14T12:18:28Z</time>
      </trkpt>
      <trkpt lat="44.12677" lon="3.24748">
        <ele>643.9</ele>
        <time>2021-10-14T12:18:29Z</time>
      </trkpt>
      <trkpt lat="44.12679" lon="3.24749">
        <ele>644.2</ele>
        <time>2021-10-14T12:18:30Z</time>
      </trkpt>
      <trkpt lat="44.12683" lon="3.24751">
        <ele>644.8</ele>
        <time>2021-10-14T12:18:32Z</time>
      </trkpt>
      <trkpt lat="44.12687" lon="3.24752">
        <ele>645.5</ele>
        <time>2021-10-14T12:18:33Z</time>
      </trkpt>
      <trkpt lat="44.1269" lon="3.24753">
        <ele>645.9</ele>
        <time>2021-10-14T12:18:34Z</time>
      </trkpt>
      <trkpt lat="44.12692" lon="3.24755">
        <ele>646.5</ele>
        <time>2021-10-14T12:18:35Z</time>
      </trkpt>
      <trkpt lat="44.12693" lon="3.24756">
        <ele>646.6</ele>
        <time>2021-10-14T12:18:36Z</time>
      </trkpt>
      <trkpt lat="44.12696" lon="3.24758">
        <ele>647.1</ele>
        <time>2021-10-14T12:18:38Z</time>
      </trkpt>
      <trkpt lat="44.12697" lon="3.24759">
        <ele>647.5</ele>
        <time>2021-10-14T12:18:39Z</time>
      </trkpt>
      <trkpt lat="44.12699" lon="3.24762">
        <ele>647.8</ele>
        <time>2021-10-14T12:18:41Z</time>
      </trkpt>
      <trkpt lat="44.127" lon="3.24765">
        <ele>648.3</ele>
        <time>2021-10-14T12:18:42Z</time>
      </trkpt>
      <trkpt lat="44.12701" lon="3.24766">
        <ele>648.5</ele>
        <time>2021-10-14T12:18:43Z</time>
      </trkpt>
      <trkpt lat="44.12702" lon="3.2477">
        <ele>649</ele>
        <time>2021-10-14T12:18:44Z</time>
      </trkpt>
      <trkpt lat="44.12702" lon="3.24772">
        <ele>649.3</ele>
        <time>2021-10-14T12:18:45Z</time>
      </trkpt>
      <trkpt lat="44.12704" lon="3.24775">
        <ele>649.8</ele>
        <time>2021-10-14T12:18:47Z</time>
      </trkpt>
      <trkpt lat="44.12705" lon="3.24779">
        <ele>650.5</ele>
        <time>2021-10-14T12:18:48Z</time>
      </trkpt>
      <trkpt lat="44.12706" lon="3.2478">
        <ele>650.7</ele>
        <time>2021-10-14T12:18:49Z</time>
      </trkpt>
      <trkpt lat="44.12707" lon="3.24783">
        <ele>651.1</ele>
        <time>2021-10-14T12:18:50Z</time>
      </trkpt>
      <trkpt lat="44.12708" lon="3.24784">
        <ele>651.4</ele>
        <time>2021-10-14T12:18:52Z</time>
      </trkpt>
      <trkpt lat="44.1271" lon="3.24787">
        <ele>652</ele>
        <time>2021-10-14T12:18:53Z</time>
      </trkpt>
      <trkpt lat="44.12711" lon="3.24789">
        <ele>652.3</ele>
        <time>2021-10-14T12:18:54Z</time>
      </trkpt>
      <trkpt lat="44.12713" lon="3.24792">
        <ele>653</ele>
        <time>2021-10-14T12:18:56Z</time>
      </trkpt>
      <trkpt lat="44.12715" lon="3.24794">
        <ele>653.4</ele>
        <time>2021-10-14T12:18:57Z</time>
      </trkpt>
      <trkpt lat="44.12716" lon="3.24796">
        <ele>653.8</ele>
        <time>2021-10-14T12:18:59Z</time>
      </trkpt>
      <trkpt lat="44.12719" lon="3.24798">
        <ele>654.5</ele>
        <time>2021-10-14T12:19:01Z</time>
      </trkpt>
      <trkpt lat="44.1272" lon="3.24799">
        <ele>654.7</ele>
        <time>2021-10-14T12:19:02Z</time>
      </trkpt>
      <trkpt lat="44.12721" lon="3.248">
        <ele>655</ele>
        <time>2021-10-14T12:19:03Z</time>
      </trkpt>
      <trkpt lat="44.12722" lon="3.24801">
        <ele>655.3</ele>
        <time>2021-10-14T12:19:04Z</time>
      </trkpt>
      <trkpt lat="44.12724" lon="3.24801">
        <ele>655.6</ele>
        <time>2021-10-14T12:19:05Z</time>
      </trkpt>
      <trkpt lat="44.12726" lon="3.24802">
        <ele>656</ele>
        <time>2021-10-14T12:19:07Z</time>
      </trkpt>
      <trkpt lat="44.12727" lon="3.24802">
        <ele>656.3</ele>
        <time>2021-10-14T12:19:08Z</time>
      </trkpt>
      <trkpt lat="44.12729" lon="3.24803">
        <ele>656.6</ele>
        <time>2021-10-14T12:19:09Z</time>
      </trkpt>
      <trkpt lat="44.12732" lon="3.24804">
        <ele>657.2</ele>
        <time>2021-10-14T12:19:11Z</time>
      </trkpt>
      <trkpt lat="44.12733" lon="3.24804">
        <ele>657.3</ele>
        <time>2021-10-14T12:19:12Z</time>
      </trkpt>
      <trkpt lat="44.12734" lon="3.24805">
        <ele>657.6</ele>
        <time>2021-10-14T12:19:13Z</time>
      </trkpt>
      <trkpt lat="44.12736" lon="3.24805">
        <ele>657.8</ele>
        <time>2021-10-14T12:19:14Z</time>
      </trkpt>
      <trkpt lat="44.12737" lon="3.24806">
        <ele>658.1</ele>
        <time>2021-10-14T12:19:15Z</time>
      </trkpt>
      <trkpt lat="44.12739" lon="3.24806">
        <ele>658.4</ele>
        <time>2021-10-14T12:19:16Z</time>
      </trkpt>
      <trkpt lat="44.12741" lon="3.24807">
        <ele>658.7</ele>
        <time>2021-10-14T12:19:17Z</time>
      </trkpt>
      <trkpt lat="44.12743" lon="3.24808">
        <ele>659.2</ele>
        <time>2021-10-14T12:19:19Z</time>
      </trkpt>
      <trkpt lat="44.12746" lon="3.2481">
        <ele>659.7</ele>
        <time>2021-10-14T12:19:20Z</time>
      </trkpt>
      <trkpt lat="44.12746" lon="3.24811">
        <ele>659.8</ele>
        <time>2021-10-14T12:19:21Z</time>
      </trkpt>
      <trkpt lat="44.12748" lon="3.24812">
        <ele>660.1</ele>
        <time>2021-10-14T12:19:22Z</time>
      </trkpt>
      <trkpt lat="44.1275" lon="3.24814">
        <ele>660.5</ele>
        <time>2021-10-14T12:19:24Z</time>
      </trkpt>
      <trkpt lat="44.12752" lon="3.24816">
        <ele>661</ele>
        <time>2021-10-14T12:19:25Z</time>
      </trkpt>
      <trkpt lat="44.12754" lon="3.24816">
        <ele>661.3</ele>
        <time>2021-10-14T12:19:26Z</time>
      </trkpt>
      <trkpt lat="44.12755" lon="3.24817">
        <ele>661.5</ele>
        <time>2021-10-14T12:19:27Z</time>
      </trkpt>
      <trkpt lat="44.12757" lon="3.24817">
        <ele>661.8</ele>
        <time>2021-10-14T12:19:28Z</time>
      </trkpt>
      <trkpt lat="44.12759" lon="3.24818">
        <ele>662.2</ele>
        <time>2021-10-14T12:19:30Z</time>
      </trkpt>
      <trkpt lat="44.12762" lon="3.24818">
        <ele>662.9</ele>
        <time>2021-10-14T12:19:32Z</time>
      </trkpt>
      <trkpt lat="44.12764" lon="3.24818">
        <ele>663.1</ele>
        <time>2021-10-14T12:19:33Z</time>
      </trkpt>
      <trkpt lat="44.12765" lon="3.24819">
        <ele>663.4</ele>
        <time>2021-10-14T12:19:34Z</time>
      </trkpt>
      <trkpt lat="44.12768" lon="3.2482">
        <ele>663.9</ele>
        <time>2021-10-14T12:19:36Z</time>
      </trkpt>
      <trkpt lat="44.1277" lon="3.24822">
        <ele>664.4</ele>
        <time>2021-10-14T12:19:37Z</time>
      </trkpt>
      <trkpt lat="44.12771" lon="3.24823">
        <ele>664.7</ele>
        <time>2021-10-14T12:19:38Z</time>
      </trkpt>
      <trkpt lat="44.12773" lon="3.24824">
        <ele>665</ele>
        <time>2021-10-14T12:19:39Z</time>
      </trkpt>
      <trkpt lat="44.12774" lon="3.24824">
        <ele>665.1</ele>
        <time>2021-10-14T12:19:40Z</time>
      </trkpt>
      <trkpt lat="44.12775" lon="3.24823">
        <ele>665.2</ele>
        <time>2021-10-14T12:19:42Z</time>
      </trkpt>
      <trkpt lat="44.12776" lon="3.24823">
        <ele>665.4</ele>
        <time>2021-10-14T12:19:43Z</time>
      </trkpt>
      <trkpt lat="44.1278" lon="3.24822">
        <ele>665.7</ele>
        <time>2021-10-14T12:19:45Z</time>
      </trkpt>
      <trkpt lat="44.12781" lon="3.24822">
        <ele>665.7</ele>
        <time>2021-10-14T12:19:46Z</time>
      </trkpt>
      <trkpt lat="44.12783" lon="3.24822">
        <ele>665.9</ele>
        <time>2021-10-14T12:19:47Z</time>
      </trkpt>
      <trkpt lat="44.12784" lon="3.24822">
        <ele>666</ele>
        <time>2021-10-14T12:19:48Z</time>
      </trkpt>
      <trkpt lat="44.12786" lon="3.24822">
        <ele>666.1</ele>
        <time>2021-10-14T12:19:50Z</time>
      </trkpt>
      <trkpt lat="44.12787" lon="3.24822">
        <ele>666.2</ele>
        <time>2021-10-14T12:19:51Z</time>
      </trkpt>
      <trkpt lat="44.12789" lon="3.24822">
        <ele>666.3</ele>
        <time>2021-10-14T12:19:52Z</time>
      </trkpt>
      <trkpt lat="44.12791" lon="3.24822">
        <ele>666.4</ele>
        <time>2021-10-14T12:19:53Z</time>
      </trkpt>
      <trkpt lat="44.12794" lon="3.24823">
        <ele>666.6</ele>
        <time>2021-10-14T12:19:54Z</time>
      </trkpt>
      <trkpt lat="44.12795" lon="3.24824">
        <ele>666.7</ele>
        <time>2021-10-14T12:19:55Z</time>
      </trkpt>
      <trkpt lat="44.12797" lon="3.24825">
        <ele>666.9</ele>
        <time>2021-10-14T12:19:56Z</time>
      </trkpt>
      <trkpt lat="44.12799" lon="3.24826">
        <ele>667</ele>
        <time>2021-10-14T12:19:58Z</time>
      </trkpt>
      <trkpt lat="44.12802" lon="3.24828">
        <ele>667.3</ele>
        <time>2021-10-14T12:19:59Z</time>
      </trkpt>
      <trkpt lat="44.12803" lon="3.24828">
        <ele>667.4</ele>
        <time>2021-10-14T12:20:00Z</time>
      </trkpt>
      <trkpt lat="44.12804" lon="3.2483">
        <ele>667.6</ele>
        <time>2021-10-14T12:20:01Z</time>
      </trkpt>
      <trkpt lat="44.12806" lon="3.2483">
        <ele>667.8</ele>
        <time>2021-10-14T12:20:03Z</time>
      </trkpt>
      <trkpt lat="44.12808" lon="3.24831">
        <ele>668</ele>
        <time>2021-10-14T12:20:04Z</time>
      </trkpt>
      <trkpt lat="44.12811" lon="3.24832">
        <ele>668.3</ele>
        <time>2021-10-14T12:20:06Z</time>
      </trkpt>
      <trkpt lat="44.12813" lon="3.24832">
        <ele>668.4</ele>
        <time>2021-10-14T12:20:07Z</time>
      </trkpt>
      <trkpt lat="44.12815" lon="3.24833">
        <ele>668.7</ele>
        <time>2021-10-14T12:20:09Z</time>
      </trkpt>
      <trkpt lat="44.12817" lon="3.24833">
        <ele>668.9</ele>
        <time>2021-10-14T12:20:10Z</time>
      </trkpt>
      <trkpt lat="44.12819" lon="3.24833">
        <ele>669.1</ele>
        <time>2021-10-14T12:20:12Z</time>
      </trkpt>
      <trkpt lat="44.12821" lon="3.24833">
        <ele>669.2</ele>
        <time>2021-10-14T12:20:13Z</time>
      </trkpt>
      <trkpt lat="44.12822" lon="3.24833">
        <ele>669.3</ele>
        <time>2021-10-14T12:20:14Z</time>
      </trkpt>
      <trkpt lat="44.12823" lon="3.24832">
        <ele>669.4</ele>
        <time>2021-10-14T12:20:15Z</time>
      </trkpt>
      <trkpt lat="44.12826" lon="3.24832">
        <ele>669.6</ele>
        <time>2021-10-14T12:20:17Z</time>
      </trkpt>
      <trkpt lat="44.12827" lon="3.24832">
        <ele>669.7</ele>
        <time>2021-10-14T12:20:18Z</time>
      </trkpt>
      <trkpt lat="44.12828" lon="3.24831">
        <ele>669.8</ele>
        <time>2021-10-14T12:20:19Z</time>
      </trkpt>
      <trkpt lat="44.12829" lon="3.24831">
        <ele>669.9</ele>
        <time>2021-10-14T12:20:20Z</time>
      </trkpt>
      <trkpt lat="44.12831" lon="3.2483">
        <ele>670.1</ele>
        <time>2021-10-14T12:20:22Z</time>
      </trkpt>
      <trkpt lat="44.12832" lon="3.24829">
        <ele>670.2</ele>
        <time>2021-10-14T12:20:23Z</time>
      </trkpt>
      <trkpt lat="44.12834" lon="3.24829">
        <ele>670.4</ele>
        <time>2021-10-14T12:20:25Z</time>
      </trkpt>
      <trkpt lat="44.12836" lon="3.24828">
        <ele>670.5</ele>
        <time>2021-10-14T12:20:26Z</time>
      </trkpt>
      <trkpt lat="44.12837" lon="3.24828">
        <ele>670.7</ele>
        <time>2021-10-14T12:20:27Z</time>
      </trkpt>
      <trkpt lat="44.12839" lon="3.24828">
        <ele>670.8</ele>
        <time>2021-10-14T12:20:28Z</time>
      </trkpt>
      <trkpt lat="44.12842" lon="3.24828">
        <ele>671.1</ele>
        <time>2021-10-14T12:20:30Z</time>
      </trkpt>
      <trkpt lat="44.12843" lon="3.24828">
        <ele>671.2</ele>
        <time>2021-10-14T12:20:31Z</time>
      </trkpt>
      <trkpt lat="44.12844" lon="3.24828">
        <ele>671.3</ele>
        <time>2021-10-14T12:20:32Z</time>
      </trkpt>
      <trkpt lat="44.12845" lon="3.24828">
        <ele>671.4</ele>
        <time>2021-10-14T12:20:33Z</time>
      </trkpt>
      <trkpt lat="44.12847" lon="3.24828">
        <ele>671.6</ele>
        <time>2021-10-14T12:20:35Z</time>
      </trkpt>
      <trkpt lat="44.12849" lon="3.24828">
        <ele>671.8</ele>
        <time>2021-10-14T12:20:36Z</time>
      </trkpt>
      <trkpt lat="44.12851" lon="3.24828">
        <ele>672</ele>
        <time>2021-10-14T12:20:37Z</time>
      </trkpt>
      <trkpt lat="44.12852" lon="3.24829">
        <ele>672.1</ele>
        <time>2021-10-14T12:20:39Z</time>
      </trkpt>
      <trkpt lat="44.12854" lon="3.24829">
        <ele>672.3</ele>
        <time>2021-10-14T12:20:40Z</time>
      </trkpt>
      <trkpt lat="44.12855" lon="3.24829">
        <ele>672.4</ele>
        <time>2021-10-14T12:20:41Z</time>
      </trkpt>
      <trkpt lat="44.12857" lon="3.24829">
        <ele>672.6</ele>
        <time>2021-10-14T12:20:43Z</time>
      </trkpt>
      <trkpt lat="44.12859" lon="3.24828">
        <ele>672.8</ele>
        <time>2021-10-14T12:20:44Z</time>
      </trkpt>
      <trkpt lat="44.1286" lon="3.24828">
        <ele>672.9</ele>
        <time>2021-10-14T12:20:45Z</time>
      </trkpt>
      <trkpt lat="44.12862" lon="3.24827">
        <ele>673.1</ele>
        <time>2021-10-14T12:20:47Z</time>
      </trkpt>
      <trkpt lat="44.12864" lon="3.24826">
        <ele>673.4</ele>
        <time>2021-10-14T12:20:48Z</time>
      </trkpt>
      <trkpt lat="44.12866" lon="3.24825">
        <ele>673.6</ele>
        <time>2021-10-14T12:20:50Z</time>
      </trkpt>
      <trkpt lat="44.12869" lon="3.24824">
        <ele>673.9</ele>
        <time>2021-10-14T12:20:51Z</time>
      </trkpt>
      <trkpt lat="44.12871" lon="3.24824">
        <ele>674.1</ele>
        <time>2021-10-14T12:20:53Z</time>
      </trkpt>
      <trkpt lat="44.12874" lon="3.24823">
        <ele>674.4</ele>
        <time>2021-10-14T12:20:54Z</time>
      </trkpt>
      <trkpt lat="44.12875" lon="3.24823">
        <ele>674.6</ele>
        <time>2021-10-14T12:20:55Z</time>
      </trkpt>
      <trkpt lat="44.12878" lon="3.24823">
        <ele>674.9</ele>
        <time>2021-10-14T12:20:57Z</time>
      </trkpt>
      <trkpt lat="44.12879" lon="3.24823">
        <ele>675</ele>
        <time>2021-10-14T12:20:58Z</time>
      </trkpt>
      <trkpt lat="44.12882" lon="3.24823">
        <ele>675.3</ele>
        <time>2021-10-14T12:20:59Z</time>
      </trkpt>
      <trkpt lat="44.12883" lon="3.24823">
        <ele>675.4</ele>
        <time>2021-10-14T12:21:00Z</time>
      </trkpt>
      <trkpt lat="44.12884" lon="3.24823">
        <ele>675.6</ele>
        <time>2021-10-14T12:21:01Z</time>
      </trkpt>
      <trkpt lat="44.12886" lon="3.24823">
        <ele>675.8</ele>
        <time>2021-10-14T12:21:02Z</time>
      </trkpt>
      <trkpt lat="44.12888" lon="3.24822">
        <ele>675.9</ele>
        <time>2021-10-14T12:21:03Z</time>
      </trkpt>
      <trkpt lat="44.12889" lon="3.24821">
        <ele>676.2</ele>
        <time>2021-10-14T12:21:05Z</time>
      </trkpt>
      <trkpt lat="44.12892" lon="3.24819">
        <ele>676.5</ele>
        <time>2021-10-14T12:21:06Z</time>
      </trkpt>
      <trkpt lat="44.12893" lon="3.24819">
        <ele>676.5</ele>
        <time>2021-10-14T12:21:07Z</time>
      </trkpt>
      <trkpt lat="44.12894" lon="3.24818">
        <ele>676.7</ele>
        <time>2021-10-14T12:21:08Z</time>
      </trkpt>
      <trkpt lat="44.12896" lon="3.24817">
        <ele>676.9</ele>
        <time>2021-10-14T12:21:10Z</time>
      </trkpt>
      <trkpt lat="44.12897" lon="3.24816">
        <ele>677.1</ele>
        <time>2021-10-14T12:21:11Z</time>
      </trkpt>
      <trkpt lat="44.12898" lon="3.24815">
        <ele>677.2</ele>
        <time>2021-10-14T12:21:12Z</time>
      </trkpt>
      <trkpt lat="44.129" lon="3.24814">
        <ele>677.4</ele>
        <time>2021-10-14T12:21:14Z</time>
      </trkpt>
      <trkpt lat="44.12901" lon="3.24812">
        <ele>677.5</ele>
        <time>2021-10-14T12:21:15Z</time>
      </trkpt>
      <trkpt lat="44.12902" lon="3.24811">
        <ele>677.8</ele>
        <time>2021-10-14T12:21:17Z</time>
      </trkpt>
      <trkpt lat="44.12903" lon="3.2481">
        <ele>677.9</ele>
        <time>2021-10-14T12:21:18Z</time>
      </trkpt>
      <trkpt lat="44.12904" lon="3.2481">
        <ele>678</ele>
        <time>2021-10-14T12:21:19Z</time>
      </trkpt>
      <trkpt lat="44.12907" lon="3.24809">
        <ele>678.3</ele>
        <time>2021-10-14T12:21:21Z</time>
      </trkpt>
      <trkpt lat="44.12908" lon="3.24809">
        <ele>678.4</ele>
        <time>2021-10-14T12:21:22Z</time>
      </trkpt>
      <trkpt lat="44.12911" lon="3.24808">
        <ele>678.7</ele>
        <time>2021-10-14T12:21:24Z</time>
      </trkpt>
      <trkpt lat="44.12912" lon="3.24808">
        <ele>678.8</ele>
        <time>2021-10-14T12:21:25Z</time>
      </trkpt>
      <trkpt lat="44.12913" lon="3.24807">
        <ele>679</ele>
        <time>2021-10-14T12:21:26Z</time>
      </trkpt>
      <trkpt lat="44.12915" lon="3.24806">
        <ele>679.1</ele>
        <time>2021-10-14T12:21:28Z</time>
      </trkpt>
      <trkpt lat="44.12917" lon="3.24805">
        <ele>679.4</ele>
        <time>2021-10-14T12:21:30Z</time>
      </trkpt>
      <trkpt lat="44.12918" lon="3.24804">
        <ele>679.5</ele>
        <time>2021-10-14T12:21:31Z</time>
      </trkpt>
      <trkpt lat="44.12919" lon="3.24804">
        <ele>679.6</ele>
        <time>2021-10-14T12:21:33Z</time>
      </trkpt>
      <trkpt lat="44.12921" lon="3.24803">
        <ele>679.7</ele>
        <time>2021-10-14T12:21:34Z</time>
      </trkpt>
      <trkpt lat="44.12923" lon="3.24803">
        <ele>679.9</ele>
        <time>2021-10-14T12:21:36Z</time>
      </trkpt>
      <trkpt lat="44.12924" lon="3.24803">
        <ele>680</ele>
        <time>2021-10-14T12:21:37Z</time>
      </trkpt>
      <trkpt lat="44.12925" lon="3.24803">
        <ele>680.1</ele>
        <time>2021-10-14T12:21:38Z</time>
      </trkpt>
      <trkpt lat="44.12926" lon="3.24804">
        <ele>680.2</ele>
        <time>2021-10-14T12:21:40Z</time>
      </trkpt>
      <trkpt lat="44.12927" lon="3.24804">
        <ele>680.3</ele>
        <time>2021-10-14T12:21:41Z</time>
      </trkpt>
      <trkpt lat="44.12929" lon="3.24805">
        <ele>680.4</ele>
        <time>2021-10-14T12:21:43Z</time>
      </trkpt>
      <trkpt lat="44.12931" lon="3.24806">
        <ele>680.5</ele>
        <time>2021-10-14T12:21:44Z</time>
      </trkpt>
      <trkpt lat="44.12932" lon="3.24807">
        <ele>680.6</ele>
        <time>2021-10-14T12:21:45Z</time>
      </trkpt>
      <trkpt lat="44.12933" lon="3.24808">
        <ele>680.7</ele>
        <time>2021-10-14T12:21:46Z</time>
      </trkpt>
      <trkpt lat="44.12934" lon="3.24808">
        <ele>680.8</ele>
        <time>2021-10-14T12:21:47Z</time>
      </trkpt>
      <trkpt lat="44.12935" lon="3.24809">
        <ele>680.8</ele>
        <time>2021-10-14T12:21:49Z</time>
      </trkpt>
      <trkpt lat="44.12937" lon="3.24811">
        <ele>681</ele>
        <time>2021-10-14T12:21:50Z</time>
      </trkpt>
      <trkpt lat="44.12938" lon="3.24811">
        <ele>681.1</ele>
        <time>2021-10-14T12:21:51Z</time>
      </trkpt>
      <trkpt lat="44.1294" lon="3.24812">
        <ele>681.2</ele>
        <time>2021-10-14T12:21:52Z</time>
      </trkpt>
      <trkpt lat="44.12942" lon="3.24813">
        <ele>681.3</ele>
        <time>2021-10-14T12:21:53Z</time>
      </trkpt>
      <trkpt lat="44.12943" lon="3.24813">
        <ele>681.4</ele>
        <time>2021-10-14T12:21:55Z</time>
      </trkpt>
      <trkpt lat="44.12944" lon="3.24813">
        <ele>681.4</ele>
        <time>2021-10-14T12:21:56Z</time>
      </trkpt>
      <trkpt lat="44.12946" lon="3.24813">
        <ele>681.6</ele>
        <time>2021-10-14T12:21:58Z</time>
      </trkpt>
      <trkpt lat="44.12948" lon="3.24813">
        <ele>681.7</ele>
        <time>2021-10-14T12:22:00Z</time>
      </trkpt>
      <trkpt lat="44.12949" lon="3.24813">
        <ele>681.9</ele>
        <time>2021-10-14T12:22:01Z</time>
      </trkpt>
      <trkpt lat="44.12951" lon="3.24812">
        <ele>682</ele>
        <time>2021-10-14T12:22:02Z</time>
      </trkpt>
      <trkpt lat="44.12952" lon="3.24811">
        <ele>682.1</ele>
        <time>2021-10-14T12:22:03Z</time>
      </trkpt>
      <trkpt lat="44.12954" lon="3.24811">
        <ele>682.3</ele>
        <time>2021-10-14T12:22:05Z</time>
      </trkpt>
      <trkpt lat="44.12956" lon="3.24811">
        <ele>682.4</ele>
        <time>2021-10-14T12:22:06Z</time>
      </trkpt>
      <trkpt lat="44.12957" lon="3.24811">
        <ele>682.6</ele>
        <time>2021-10-14T12:22:07Z</time>
      </trkpt>
      <trkpt lat="44.1296" lon="3.24811">
        <ele>682.8</ele>
        <time>2021-10-14T12:22:09Z</time>
      </trkpt>
      <trkpt lat="44.12961" lon="3.24811">
        <ele>682.9</ele>
        <time>2021-10-14T12:22:10Z</time>
      </trkpt>
      <trkpt lat="44.12962" lon="3.24811">
        <ele>683.1</ele>
        <time>2021-10-14T12:22:11Z</time>
      </trkpt>
      <trkpt lat="44.12964" lon="3.24811">
        <ele>683.3</ele>
        <time>2021-10-14T12:22:12Z</time>
      </trkpt>
      <trkpt lat="44.12968" lon="3.24811">
        <ele>683.7</ele>
        <time>2021-10-14T12:22:14Z</time>
      </trkpt>
      <trkpt lat="44.12969" lon="3.24811">
        <ele>683.8</ele>
        <time>2021-10-14T12:22:15Z</time>
      </trkpt>
      <trkpt lat="44.12971" lon="3.24811">
        <ele>684</ele>
        <time>2021-10-14T12:22:16Z</time>
      </trkpt>
      <trkpt lat="44.12973" lon="3.24811">
        <ele>684.3</ele>
        <time>2021-10-14T12:22:18Z</time>
      </trkpt>
      <trkpt lat="44.12975" lon="3.24811">
        <ele>684.5</ele>
        <time>2021-10-14T12:22:19Z</time>
      </trkpt>
      <trkpt lat="44.12976" lon="3.24811">
        <ele>684.7</ele>
        <time>2021-10-14T12:22:20Z</time>
      </trkpt>
      <trkpt lat="44.12979" lon="3.2481">
        <ele>685</ele>
        <time>2021-10-14T12:22:22Z</time>
      </trkpt>
      <trkpt lat="44.1298" lon="3.2481">
        <ele>685.2</ele>
        <time>2021-10-14T12:22:23Z</time>
      </trkpt>
      <trkpt lat="44.12982" lon="3.24809">
        <ele>685.4</ele>
        <time>2021-10-14T12:22:24Z</time>
      </trkpt>
      <trkpt lat="44.12983" lon="3.24809">
        <ele>685.5</ele>
        <time>2021-10-14T12:22:25Z</time>
      </trkpt>
      <trkpt lat="44.12986" lon="3.24808">
        <ele>685.9</ele>
        <time>2021-10-14T12:22:26Z</time>
      </trkpt>
      <trkpt lat="44.12988" lon="3.24807">
        <ele>686</ele>
        <time>2021-10-14T12:22:28Z</time>
      </trkpt>
      <trkpt lat="44.12989" lon="3.24807">
        <ele>686.2</ele>
        <time>2021-10-14T12:22:29Z</time>
      </trkpt>
      <trkpt lat="44.1299" lon="3.24806">
        <ele>686.3</ele>
        <time>2021-10-14T12:22:30Z</time>
      </trkpt>
      <trkpt lat="44.12993" lon="3.24805">
        <ele>686.7</ele>
        <time>2021-10-14T12:22:32Z</time>
      </trkpt>
      <trkpt lat="44.12994" lon="3.24805">
        <ele>686.8</ele>
        <time>2021-10-14T12:22:33Z</time>
      </trkpt>
      <trkpt lat="44.12997" lon="3.24803">
        <ele>687.2</ele>
        <time>2021-10-14T12:22:35Z</time>
      </trkpt>
      <trkpt lat="44.12998" lon="3.24802">
        <ele>687.4</ele>
        <time>2021-10-14T12:22:36Z</time>
      </trkpt>
      <trkpt lat="44.13" lon="3.24802">
        <ele>687.6</ele>
        <time>2021-10-14T12:22:37Z</time>
      </trkpt>
      <trkpt lat="44.13002" lon="3.248">
        <ele>687.8</ele>
        <time>2021-10-14T12:22:39Z</time>
      </trkpt>
      <trkpt lat="44.13005" lon="3.24799">
        <ele>688.2</ele>
        <time>2021-10-14T12:22:40Z</time>
      </trkpt>
      <trkpt lat="44.13005" lon="3.24799">
        <ele>688.3</ele>
        <time>2021-10-14T12:22:41Z</time>
      </trkpt>
      <trkpt lat="44.13007" lon="3.24799">
        <ele>688.5</ele>
        <time>2021-10-14T12:22:43Z</time>
      </trkpt>
      <trkpt lat="44.13008" lon="3.24799">
        <ele>688.7</ele>
        <time>2021-10-14T12:22:44Z</time>
      </trkpt>
      <trkpt lat="44.1301" lon="3.24798">
        <ele>688.9</ele>
        <time>2021-10-14T12:22:45Z</time>
      </trkpt>
      <trkpt lat="44.13012" lon="3.24797">
        <ele>689.2</ele>
        <time>2021-10-14T12:22:47Z</time>
      </trkpt>
      <trkpt lat="44.13015" lon="3.24796">
        <ele>689.5</ele>
        <time>2021-10-14T12:22:48Z</time>
      </trkpt>
      <trkpt lat="44.13015" lon="3.24795">
        <ele>689.6</ele>
        <time>2021-10-14T12:22:49Z</time>
      </trkpt>
      <trkpt lat="44.13017" lon="3.24794">
        <ele>689.9</ele>
        <time>2021-10-14T12:22:51Z</time>
      </trkpt>
      <trkpt lat="44.13018" lon="3.24793">
        <ele>690.1</ele>
        <time>2021-10-14T12:22:52Z</time>
      </trkpt>
      <trkpt lat="44.1302" lon="3.24792">
        <ele>690.3</ele>
        <time>2021-10-14T12:22:53Z</time>
      </trkpt>
      <trkpt lat="44.13022" lon="3.24791">
        <ele>690.5</ele>
        <time>2021-10-14T12:22:55Z</time>
      </trkpt>
      <trkpt lat="44.13024" lon="3.2479">
        <ele>690.8</ele>
        <time>2021-10-14T12:22:56Z</time>
      </trkpt>
      <trkpt lat="44.13025" lon="3.2479">
        <ele>690.9</ele>
        <time>2021-10-14T12:22:57Z</time>
      </trkpt>
      <trkpt lat="44.13027" lon="3.24789">
        <ele>691.2</ele>
        <time>2021-10-14T12:22:58Z</time>
      </trkpt>
      <trkpt lat="44.13028" lon="3.2479">
        <ele>691.3</ele>
        <time>2021-10-14T12:23:00Z</time>
      </trkpt>
      <trkpt lat="44.13029" lon="3.2479">
        <ele>691.4</ele>
        <time>2021-10-14T12:23:01Z</time>
      </trkpt>
      <trkpt lat="44.1303" lon="3.2479">
        <ele>691.6</ele>
        <time>2021-10-14T12:23:02Z</time>
      </trkpt>
      <trkpt lat="44.13032" lon="3.2479">
        <ele>691.7</ele>
        <time>2021-10-14T12:23:03Z</time>
      </trkpt>
      <trkpt lat="44.13034" lon="3.24791">
        <ele>692.1</ele>
        <time>2021-10-14T12:23:05Z</time>
      </trkpt>
      <trkpt lat="44.13035" lon="3.24792">
        <ele>692.2</ele>
        <time>2021-10-14T12:23:06Z</time>
      </trkpt>
      <trkpt lat="44.13036" lon="3.24792">
        <ele>692.3</ele>
        <time>2021-10-14T12:23:07Z</time>
      </trkpt>
      <trkpt lat="44.13037" lon="3.24792">
        <ele>692.5</ele>
        <time>2021-10-14T12:23:09Z</time>
      </trkpt>
      <trkpt lat="44.13039" lon="3.24792">
        <ele>692.6</ele>
        <time>2021-10-14T12:23:10Z</time>
      </trkpt>
      <trkpt lat="44.13039" lon="3.24792">
        <ele>692.7</ele>
        <time>2021-10-14T12:23:11Z</time>
      </trkpt>
      <trkpt lat="44.13041" lon="3.24792">
        <ele>692.8</ele>
        <time>2021-10-14T12:23:13Z</time>
      </trkpt>
      <trkpt lat="44.13042" lon="3.24792">
        <ele>692.9</ele>
        <time>2021-10-14T12:23:14Z</time>
      </trkpt>
      <trkpt lat="44.13043" lon="3.24792">
        <ele>693.1</ele>
        <time>2021-10-14T12:23:15Z</time>
      </trkpt>
      <trkpt lat="44.13044" lon="3.24792">
        <ele>693.2</ele>
        <time>2021-10-14T12:23:17Z</time>
      </trkpt>
      <trkpt lat="44.13045" lon="3.24793">
        <ele>693.3</ele>
        <time>2021-10-14T12:23:18Z</time>
      </trkpt>
      <trkpt lat="44.13046" lon="3.24794">
        <ele>693.4</ele>
        <time>2021-10-14T12:23:19Z</time>
      </trkpt>
      <trkpt lat="44.13047" lon="3.24796">
        <ele>693.7</ele>
        <time>2021-10-14T12:23:21Z</time>
      </trkpt>
      <trkpt lat="44.13049" lon="3.24798">
        <ele>693.9</ele>
        <time>2021-10-14T12:23:23Z</time>
      </trkpt>
      <trkpt lat="44.13049" lon="3.248">
        <ele>694.1</ele>
        <time>2021-10-14T12:23:24Z</time>
      </trkpt>
      <trkpt lat="44.1305" lon="3.248">
        <ele>694.2</ele>
        <time>2021-10-14T12:23:25Z</time>
      </trkpt>
      <trkpt lat="44.13051" lon="3.24801">
        <ele>694.4</ele>
        <time>2021-10-14T12:23:27Z</time>
      </trkpt>
      <trkpt lat="44.13052" lon="3.24802">
        <ele>694.5</ele>
        <time>2021-10-14T12:23:28Z</time>
      </trkpt>
      <trkpt lat="44.13053" lon="3.24803">
        <ele>694.6</ele>
        <time>2021-10-14T12:23:30Z</time>
      </trkpt>
      <trkpt lat="44.13054" lon="3.24804">
        <ele>694.8</ele>
        <time>2021-10-14T12:23:31Z</time>
      </trkpt>
      <trkpt lat="44.13055" lon="3.24805">
        <ele>695</ele>
        <time>2021-10-14T12:23:33Z</time>
      </trkpt>
      <trkpt lat="44.13057" lon="3.24807">
        <ele>695.3</ele>
        <time>2021-10-14T12:23:34Z</time>
      </trkpt>
      <trkpt lat="44.13058" lon="3.24807">
        <ele>695.4</ele>
        <time>2021-10-14T12:23:36Z</time>
      </trkpt>
      <trkpt lat="44.13059" lon="3.24808">
        <ele>695.5</ele>
        <time>2021-10-14T12:23:37Z</time>
      </trkpt>
      <trkpt lat="44.1306" lon="3.24809">
        <ele>695.7</ele>
        <time>2021-10-14T12:23:38Z</time>
      </trkpt>
      <trkpt lat="44.1306" lon="3.2481">
        <ele>695.8</ele>
        <time>2021-10-14T12:23:39Z</time>
      </trkpt>
      <trkpt lat="44.13061" lon="3.24811">
        <ele>695.9</ele>
        <time>2021-10-14T12:23:40Z</time>
      </trkpt>
      <trkpt lat="44.13064" lon="3.24813">
        <ele>696.4</ele>
        <time>2021-10-14T12:23:42Z</time>
      </trkpt>
      <trkpt lat="44.13064" lon="3.24814">
        <ele>696.6</ele>
        <time>2021-10-14T12:23:44Z</time>
      </trkpt>
      <trkpt lat="44.13065" lon="3.24815">
        <ele>696.7</ele>
        <time>2021-10-14T12:23:45Z</time>
      </trkpt>
      <trkpt lat="44.13066" lon="3.24817">
        <ele>696.9</ele>
        <time>2021-10-14T12:23:46Z</time>
      </trkpt>
      <trkpt lat="44.13067" lon="3.24818">
        <ele>697.1</ele>
        <time>2021-10-14T12:23:47Z</time>
      </trkpt>
      <trkpt lat="44.13068" lon="3.2482">
        <ele>697.5</ele>
        <time>2021-10-14T12:23:49Z</time>
      </trkpt>
      <trkpt lat="44.13071" lon="3.24822">
        <ele>697.9</ele>
        <time>2021-10-14T12:23:51Z</time>
      </trkpt>
      <trkpt lat="44.13073" lon="3.24825">
        <ele>698.4</ele>
        <time>2021-10-14T12:23:53Z</time>
      </trkpt>
      <trkpt lat="44.13074" lon="3.24826">
        <ele>698.5</ele>
        <time>2021-10-14T12:23:54Z</time>
      </trkpt>
      <trkpt lat="44.13075" lon="3.24827">
        <ele>698.8</ele>
        <time>2021-10-14T12:23:55Z</time>
      </trkpt>
      <trkpt lat="44.13076" lon="3.24828">
        <ele>699.1</ele>
        <time>2021-10-14T12:23:56Z</time>
      </trkpt>
      <trkpt lat="44.13077" lon="3.24829">
        <ele>699.3</ele>
        <time>2021-10-14T12:23:57Z</time>
      </trkpt>
      <trkpt lat="44.13079" lon="3.24831">
        <ele>699.6</ele>
        <time>2021-10-14T12:23:58Z</time>
      </trkpt>
      <trkpt lat="44.13081" lon="3.24832">
        <ele>700</ele>
        <time>2021-10-14T12:24:00Z</time>
      </trkpt>
      <trkpt lat="44.13082" lon="3.24833">
        <ele>700.2</ele>
        <time>2021-10-14T12:24:01Z</time>
      </trkpt>
      <trkpt lat="44.13084" lon="3.24834">
        <ele>700.5</ele>
        <time>2021-10-14T12:24:03Z</time>
      </trkpt>
      <trkpt lat="44.13086" lon="3.24835">
        <ele>700.8</ele>
        <time>2021-10-14T12:24:05Z</time>
      </trkpt>
      <trkpt lat="44.13087" lon="3.24836">
        <ele>701</ele>
        <time>2021-10-14T12:24:06Z</time>
      </trkpt>
      <trkpt lat="44.13088" lon="3.24836">
        <ele>701.2</ele>
        <time>2021-10-14T12:24:07Z</time>
      </trkpt>
      <trkpt lat="44.1309" lon="3.24836">
        <ele>701.5</ele>
        <time>2021-10-14T12:24:09Z</time>
      </trkpt>
      <trkpt lat="44.13091" lon="3.24836">
        <ele>701.6</ele>
        <time>2021-10-14T12:24:10Z</time>
      </trkpt>
      <trkpt lat="44.13092" lon="3.24836">
        <ele>701.9</ele>
        <time>2021-10-14T12:24:12Z</time>
      </trkpt>
      <trkpt lat="44.13093" lon="3.24836">
        <ele>702</ele>
        <time>2021-10-14T12:24:13Z</time>
      </trkpt>
      <trkpt lat="44.13095" lon="3.24836">
        <ele>702.3</ele>
        <time>2021-10-14T12:24:15Z</time>
      </trkpt>
      <trkpt lat="44.13096" lon="3.24836">
        <ele>702.4</ele>
        <time>2021-10-14T12:24:16Z</time>
      </trkpt>
      <trkpt lat="44.13097" lon="3.24836">
        <ele>702.6</ele>
        <time>2021-10-14T12:24:18Z</time>
      </trkpt>
      <trkpt lat="44.13099" lon="3.24837">
        <ele>702.9</ele>
        <time>2021-10-14T12:24:19Z</time>
      </trkpt>
      <trkpt lat="44.13101" lon="3.24838">
        <ele>703.3</ele>
        <time>2021-10-14T12:24:20Z</time>
      </trkpt>
      <trkpt lat="44.13102" lon="3.24839">
        <ele>703.5</ele>
        <time>2021-10-14T12:24:21Z</time>
      </trkpt>
      <trkpt lat="44.13103" lon="3.24839">
        <ele>703.7</ele>
        <time>2021-10-14T12:24:23Z</time>
      </trkpt>
      <trkpt lat="44.13105" lon="3.2484">
        <ele>703.9</ele>
        <time>2021-10-14T12:24:25Z</time>
      </trkpt>
      <trkpt lat="44.13106" lon="3.2484">
        <ele>704.1</ele>
        <time>2021-10-14T12:24:26Z</time>
      </trkpt>
      <trkpt lat="44.13107" lon="3.24841">
        <ele>704.4</ele>
        <time>2021-10-14T12:24:27Z</time>
      </trkpt>
      <trkpt lat="44.13109" lon="3.24842">
        <ele>704.7</ele>
        <time>2021-10-14T12:24:29Z</time>
      </trkpt>
      <trkpt lat="44.13111" lon="3.24844">
        <ele>705.1</ele>
        <time>2021-10-14T12:24:30Z</time>
      </trkpt>
      <trkpt lat="44.13112" lon="3.24845">
        <ele>705.3</ele>
        <time>2021-10-14T12:24:31Z</time>
      </trkpt>
      <trkpt lat="44.13115" lon="3.24846">
        <ele>705.7</ele>
        <time>2021-10-14T12:24:33Z</time>
      </trkpt>
      <trkpt lat="44.13116" lon="3.24847">
        <ele>706</ele>
        <time>2021-10-14T12:24:34Z</time>
      </trkpt>
      <trkpt lat="44.13118" lon="3.24848">
        <ele>706.3</ele>
        <time>2021-10-14T12:24:35Z</time>
      </trkpt>
      <trkpt lat="44.13119" lon="3.24849">
        <ele>706.5</ele>
        <time>2021-10-14T12:24:36Z</time>
      </trkpt>
      <trkpt lat="44.1312" lon="3.2485">
        <ele>706.7</ele>
        <time>2021-10-14T12:24:37Z</time>
      </trkpt>
      <trkpt lat="44.13122" lon="3.24851">
        <ele>707.1</ele>
        <time>2021-10-14T12:24:39Z</time>
      </trkpt>
      <trkpt lat="44.13124" lon="3.24853">
        <ele>707.4</ele>
        <time>2021-10-14T12:24:40Z</time>
      </trkpt>
      <trkpt lat="44.13125" lon="3.24854">
        <ele>707.6</ele>
        <time>2021-10-14T12:24:42Z</time>
      </trkpt>
      <trkpt lat="44.13125" lon="3.24855">
        <ele>707.8</ele>
        <time>2021-10-14T12:24:43Z</time>
      </trkpt>
      <trkpt lat="44.13128" lon="3.24857">
        <ele>708.2</ele>
        <time>2021-10-14T12:24:45Z</time>
      </trkpt>
      <trkpt lat="44.13128" lon="3.24858">
        <ele>708.3</ele>
        <time>2021-10-14T12:24:46Z</time>
      </trkpt>
      <trkpt lat="44.13129" lon="3.24859">
        <ele>708.5</ele>
        <time>2021-10-14T12:24:47Z</time>
      </trkpt>
      <trkpt lat="44.1313" lon="3.2486">
        <ele>708.7</ele>
        <time>2021-10-14T12:24:49Z</time>
      </trkpt>
      <trkpt lat="44.13131" lon="3.24861">
        <ele>708.8</ele>
        <time>2021-10-14T12:24:50Z</time>
      </trkpt>
      <trkpt lat="44.13131" lon="3.24862">
        <ele>709</ele>
        <time>2021-10-14T12:24:51Z</time>
      </trkpt>
      <trkpt lat="44.13131" lon="3.24863">
        <ele>709.1</ele>
        <time>2021-10-14T12:24:52Z</time>
      </trkpt>
      <trkpt lat="44.13132" lon="3.24864">
        <ele>709.2</ele>
        <time>2021-10-14T12:24:54Z</time>
      </trkpt>
      <trkpt lat="44.13131" lon="3.24865">
        <ele>709.3</ele>
        <time>2021-10-14T12:24:55Z</time>
      </trkpt>
      <trkpt lat="44.13129" lon="3.24865">
        <ele>709.7</ele>
        <time>2021-10-14T12:24:57Z</time>
      </trkpt>
      <trkpt lat="44.13127" lon="3.24865">
        <ele>709.9</ele>
        <time>2021-10-14T12:24:58Z</time>
      </trkpt>
      <trkpt lat="44.13128" lon="3.24866">
        <ele>710.1</ele>
        <time>2021-10-14T12:24:59Z</time>
      </trkpt>
      <trkpt lat="44.13128" lon="3.24865">
        <ele>710.2</ele>
        <time>2021-10-14T12:25:01Z</time>
      </trkpt>
      <trkpt lat="44.13127" lon="3.24864">
        <ele>710.4</ele>
        <time>2021-10-14T12:25:02Z</time>
      </trkpt>
      <trkpt lat="44.13127" lon="3.24863">
        <ele>710.5</ele>
        <time>2021-10-14T12:25:03Z</time>
      </trkpt>
      <trkpt lat="44.13126" lon="3.24861">
        <ele>710.7</ele>
        <time>2021-10-14T12:25:05Z</time>
      </trkpt>
      <trkpt lat="44.13124" lon="3.2486">
        <ele>711</ele>
        <time>2021-10-14T12:25:06Z</time>
      </trkpt>
      <trkpt lat="44.13122" lon="3.2486">
        <ele>711.2</ele>
        <time>2021-10-14T12:25:07Z</time>
      </trkpt>
      <trkpt lat="44.13119" lon="3.2486">
        <ele>711.6</ele>
        <time>2021-10-14T12:25:09Z</time>
      </trkpt>
      <trkpt lat="44.13118" lon="3.2486">
        <ele>711.7</ele>
        <time>2021-10-14T12:25:10Z</time>
      </trkpt>
      <trkpt lat="44.13116" lon="3.2486">
        <ele>712</ele>
        <time>2021-10-14T12:25:11Z</time>
      </trkpt>
      <trkpt lat="44.13114" lon="3.2486">
        <ele>712.2</ele>
        <time>2021-10-14T12:25:13Z</time>
      </trkpt>
      <trkpt lat="44.13111" lon="3.24859">
        <ele>712.5</ele>
        <time>2021-10-14T12:25:15Z</time>
      </trkpt>
      <trkpt lat="44.13109" lon="3.24859">
        <ele>712.7</ele>
        <time>2021-10-14T12:25:16Z</time>
      </trkpt>
      <trkpt lat="44.13106" lon="3.24859">
        <ele>712.9</ele>
        <time>2021-10-14T12:25:18Z</time>
      </trkpt>
      <trkpt lat="44.13104" lon="3.24859">
        <ele>713.1</ele>
        <time>2021-10-14T12:25:19Z</time>
      </trkpt>
      <trkpt lat="44.13103" lon="3.24859">
        <ele>713.1</ele>
        <time>2021-10-14T12:25:20Z</time>
      </trkpt>
      <trkpt lat="44.13101" lon="3.24859">
        <ele>713.3</ele>
        <time>2021-10-14T12:25:21Z</time>
      </trkpt>
      <trkpt lat="44.131" lon="3.24859">
        <ele>713.4</ele>
        <time>2021-10-14T12:25:23Z</time>
      </trkpt>
      <trkpt lat="44.13098" lon="3.24859">
        <ele>713.5</ele>
        <time>2021-10-14T12:25:24Z</time>
      </trkpt>
      <trkpt lat="44.13096" lon="3.24859">
        <ele>713.7</ele>
        <time>2021-10-14T12:25:25Z</time>
      </trkpt>
      <trkpt lat="44.13095" lon="3.24859">
        <ele>713.8</ele>
        <time>2021-10-14T12:25:26Z</time>
      </trkpt>
      <trkpt lat="44.13092" lon="3.24859">
        <ele>714</ele>
        <time>2021-10-14T12:25:28Z</time>
      </trkpt>
      <trkpt lat="44.13089" lon="3.24858">
        <ele>714.3</ele>
        <time>2021-10-14T12:25:29Z</time>
      </trkpt>
      <trkpt lat="44.13087" lon="3.24858">
        <ele>714.4</ele>
        <time>2021-10-14T12:25:30Z</time>
      </trkpt>
      <trkpt lat="44.13084" lon="3.24858">
        <ele>714.7</ele>
        <time>2021-10-14T12:25:32Z</time>
      </trkpt>
      <trkpt lat="44.13082" lon="3.24858">
        <ele>714.9</ele>
        <time>2021-10-14T12:25:33Z</time>
      </trkpt>
      <trkpt lat="44.13081" lon="3.24858">
        <ele>715</ele>
        <time>2021-10-14T12:25:34Z</time>
      </trkpt>
      <trkpt lat="44.13077" lon="3.24858">
        <ele>715.4</ele>
        <time>2021-10-14T12:25:36Z</time>
      </trkpt>
      <trkpt lat="44.13075" lon="3.24858">
        <ele>715.5</ele>
        <time>2021-10-14T12:25:37Z</time>
      </trkpt>
      <trkpt lat="44.13074" lon="3.24858">
        <ele>715.6</ele>
        <time>2021-10-14T12:25:38Z</time>
      </trkpt>
      <trkpt lat="44.13072" lon="3.24858">
        <ele>715.7</ele>
        <time>2021-10-14T12:25:40Z</time>
      </trkpt>
      <trkpt lat="44.1307" lon="3.24859">
        <ele>715.9</ele>
        <time>2021-10-14T12:25:41Z</time>
      </trkpt>
      <trkpt lat="44.13068" lon="3.24859">
        <ele>716.1</ele>
        <time>2021-10-14T12:25:42Z</time>
      </trkpt>
      <trkpt lat="44.13067" lon="3.24859">
        <ele>716.2</ele>
        <time>2021-10-14T12:25:44Z</time>
      </trkpt>
      <trkpt lat="44.13066" lon="3.24859">
        <ele>716.3</ele>
        <time>2021-10-14T12:25:45Z</time>
      </trkpt>
      <trkpt lat="44.13065" lon="3.2486">
        <ele>716.4</ele>
        <time>2021-10-14T12:25:47Z</time>
      </trkpt>
      <trkpt lat="44.13064" lon="3.2486">
        <ele>716.5</ele>
        <time>2021-10-14T12:25:48Z</time>
      </trkpt>
      <trkpt lat="44.13062" lon="3.2486">
        <ele>716.7</ele>
        <time>2021-10-14T12:25:50Z</time>
      </trkpt>
      <trkpt lat="44.13061" lon="3.2486">
        <ele>716.8</ele>
        <time>2021-10-14T12:25:51Z</time>
      </trkpt>
      <trkpt lat="44.1306" lon="3.2486">
        <ele>716.9</ele>
        <time>2021-10-14T12:25:52Z</time>
      </trkpt>
      <trkpt lat="44.13059" lon="3.24861">
        <ele>717</ele>
        <time>2021-10-14T12:25:54Z</time>
      </trkpt>
      <trkpt lat="44.13057" lon="3.24861">
        <ele>717.1</ele>
        <time>2021-10-14T12:25:55Z</time>
      </trkpt>
      <trkpt lat="44.13056" lon="3.24861">
        <ele>717.3</ele>
        <time>2021-10-14T12:25:56Z</time>
      </trkpt>
      <trkpt lat="44.13054" lon="3.24862">
        <ele>717.5</ele>
        <time>2021-10-14T12:25:58Z</time>
      </trkpt>
      <trkpt lat="44.13051" lon="3.24863">
        <ele>717.8</ele>
        <time>2021-10-14T12:25:59Z</time>
      </trkpt>
      <trkpt lat="44.13046" lon="3.24863">
        <ele>718.2</ele>
        <time>2021-10-14T12:26:01Z</time>
      </trkpt>
      <trkpt lat="44.13045" lon="3.24863">
        <ele>718.4</ele>
        <time>2021-10-14T12:26:02Z</time>
      </trkpt>
      <trkpt lat="44.13044" lon="3.24863">
        <ele>718.5</ele>
        <time>2021-10-14T12:26:03Z</time>
      </trkpt>
      <trkpt lat="44.13042" lon="3.24863">
        <ele>718.7</ele>
        <time>2021-10-14T12:26:04Z</time>
      </trkpt>
      <trkpt lat="44.1304" lon="3.24863">
        <ele>718.9</ele>
        <time>2021-10-14T12:26:06Z</time>
      </trkpt>
      <trkpt lat="44.13036" lon="3.24863">
        <ele>719.3</ele>
        <time>2021-10-14T12:26:07Z</time>
      </trkpt>
      <trkpt lat="44.13035" lon="3.24864">
        <ele>719.4</ele>
        <time>2021-10-14T12:26:08Z</time>
      </trkpt>
      <trkpt lat="44.13032" lon="3.24864">
        <ele>719.7</ele>
        <time>2021-10-14T12:26:09Z</time>
      </trkpt>
      <trkpt lat="44.1303" lon="3.24864">
        <ele>719.8</ele>
        <time>2021-10-14T12:26:10Z</time>
      </trkpt>
      <trkpt lat="44.13027" lon="3.24864">
        <ele>720.1</ele>
        <time>2021-10-14T12:26:11Z</time>
      </trkpt>
      <trkpt lat="44.13026" lon="3.24864">
        <ele>720.2</ele>
        <time>2021-10-14T12:26:12Z</time>
      </trkpt>
      <trkpt lat="44.13024" lon="3.24865">
        <ele>720.4</ele>
        <time>2021-10-14T12:26:13Z</time>
      </trkpt>
      <trkpt lat="44.13023" lon="3.24866">
        <ele>720.5</ele>
        <time>2021-10-14T12:26:14Z</time>
      </trkpt>
      <trkpt lat="44.1302" lon="3.24869">
        <ele>723.5</ele>
        <time>2021-10-14T12:26:16Z</time>
      </trkpt>
      <trkpt lat="44.13019" lon="3.2487">
        <ele>723.5</ele>
        <time>2021-10-14T12:26:17Z</time>
      </trkpt>
      <trkpt lat="44.13019" lon="3.24874">
        <ele>723.5</ele>
        <time>2021-10-14T12:26:18Z</time>
      </trkpt>
      <trkpt lat="44.13019" lon="3.24876">
        <ele>723.5</ele>
        <time>2021-10-14T12:26:20Z</time>
      </trkpt>
      <trkpt lat="44.13019" lon="3.24878">
        <ele>723.5</ele>
        <time>2021-10-14T12:26:21Z</time>
      </trkpt>
      <trkpt lat="44.13019" lon="3.2488">
        <ele>723.5</ele>
        <time>2021-10-14T12:26:22Z</time>
      </trkpt>
      <trkpt lat="44.1302" lon="3.24882">
        <ele>723.5</ele>
        <time>2021-10-14T12:26:23Z</time>
      </trkpt>
      <trkpt lat="44.1302" lon="3.24884">
        <ele>724.7</ele>
        <time>2021-10-14T12:26:24Z</time>
      </trkpt>
      <trkpt lat="44.13021" lon="3.24886">
        <ele>724.8</ele>
        <time>2021-10-14T12:26:25Z</time>
      </trkpt>
      <trkpt lat="44.13023" lon="3.24887">
        <ele>725</ele>
        <time>2021-10-14T12:26:27Z</time>
      </trkpt>
      <trkpt lat="44.13027" lon="3.24887">
        <ele>725.2</ele>
        <time>2021-10-14T12:26:28Z</time>
      </trkpt>
      <trkpt lat="44.13028" lon="3.24888">
        <ele>725.3</ele>
        <time>2021-10-14T12:26:29Z</time>
      </trkpt>
      <trkpt lat="44.1303" lon="3.24887">
        <ele>725.4</ele>
        <time>2021-10-14T12:26:30Z</time>
      </trkpt>
      <trkpt lat="44.13031" lon="3.24888">
        <ele>725.6</ele>
        <time>2021-10-14T12:26:32Z</time>
      </trkpt>
      <trkpt lat="44.13032" lon="3.24888">
        <ele>725.6</ele>
        <time>2021-10-14T12:26:33Z</time>
      </trkpt>
      <trkpt lat="44.13034" lon="3.24889">
        <ele>725.8</ele>
        <time>2021-10-14T12:26:34Z</time>
      </trkpt>
      <trkpt lat="44.13035" lon="3.24889">
        <ele>725.9</ele>
        <time>2021-10-14T12:26:35Z</time>
      </trkpt>
      <trkpt lat="44.13038" lon="3.2489">
        <ele>726.1</ele>
        <time>2021-10-14T12:26:37Z</time>
      </trkpt>
      <trkpt lat="44.1304" lon="3.2489">
        <ele>726.3</ele>
        <time>2021-10-14T12:26:38Z</time>
      </trkpt>
      <trkpt lat="44.13043" lon="3.24891">
        <ele>726.5</ele>
        <time>2021-10-14T12:26:40Z</time>
      </trkpt>
      <trkpt lat="44.13044" lon="3.24891">
        <ele>726.6</ele>
        <time>2021-10-14T12:26:41Z</time>
      </trkpt>
      <trkpt lat="44.13047" lon="3.24891">
        <ele>726.9</ele>
        <time>2021-10-14T12:26:43Z</time>
      </trkpt>
      <trkpt lat="44.13049" lon="3.24891">
        <ele>727</ele>
        <time>2021-10-14T12:26:44Z</time>
      </trkpt>
      <trkpt lat="44.13052" lon="3.24893">
        <ele>727.3</ele>
        <time>2021-10-14T12:26:46Z</time>
      </trkpt>
      <trkpt lat="44.13053" lon="3.24894">
        <ele>727.4</ele>
        <time>2021-10-14T12:26:47Z</time>
      </trkpt>
      <trkpt lat="44.13055" lon="3.24896">
        <ele>727.7</ele>
        <time>2021-10-14T12:26:49Z</time>
      </trkpt>
      <trkpt lat="44.13057" lon="3.24897">
        <ele>727.8</ele>
        <time>2021-10-14T12:26:50Z</time>
      </trkpt>
      <trkpt lat="44.13059" lon="3.24898">
        <ele>728.1</ele>
        <time>2021-10-14T12:26:52Z</time>
      </trkpt>
      <trkpt lat="44.13061" lon="3.24899">
        <ele>728.3</ele>
        <time>2021-10-14T12:26:53Z</time>
      </trkpt>
      <trkpt lat="44.13063" lon="3.249">
        <ele>728.4</ele>
        <time>2021-10-14T12:26:54Z</time>
      </trkpt>
      <trkpt lat="44.13067" lon="3.24902">
        <ele>728.9</ele>
        <time>2021-10-14T12:26:56Z</time>
      </trkpt>
      <trkpt lat="44.13068" lon="3.24903">
        <ele>729</ele>
        <time>2021-10-14T12:26:57Z</time>
      </trkpt>
      <trkpt lat="44.13071" lon="3.24906">
        <ele>729.4</ele>
        <time>2021-10-14T12:26:59Z</time>
      </trkpt>
      <trkpt lat="44.13073" lon="3.24906">
        <ele>729.5</ele>
        <time>2021-10-14T12:27:00Z</time>
      </trkpt>
      <trkpt lat="44.13076" lon="3.24908">
        <ele>729.8</ele>
        <time>2021-10-14T12:27:02Z</time>
      </trkpt>
      <trkpt lat="44.13079" lon="3.24912">
        <ele>730.2</ele>
        <time>2021-10-14T12:27:04Z</time>
      </trkpt>
      <trkpt lat="44.13083" lon="3.24915">
        <ele>730.6</ele>
        <time>2021-10-14T12:27:06Z</time>
      </trkpt>
      <trkpt lat="44.13084" lon="3.24916">
        <ele>730.8</ele>
        <time>2021-10-14T12:27:07Z</time>
      </trkpt>
      <trkpt lat="44.13085" lon="3.24917">
        <ele>730.9</ele>
        <time>2021-10-14T12:27:08Z</time>
      </trkpt>
      <trkpt lat="44.13088" lon="3.24919">
        <ele>731.2</ele>
        <time>2021-10-14T12:27:09Z</time>
      </trkpt>
      <trkpt lat="44.1309" lon="3.24921">
        <ele>731.5</ele>
        <time>2021-10-14T12:27:11Z</time>
      </trkpt>
      <trkpt lat="44.13093" lon="3.24924">
        <ele>731.9</ele>
        <time>2021-10-14T12:27:12Z</time>
      </trkpt>
      <trkpt lat="44.13097" lon="3.24927">
        <ele>732.3</ele>
        <time>2021-10-14T12:27:14Z</time>
      </trkpt>
      <trkpt lat="44.13098" lon="3.24928">
        <ele>732.5</ele>
        <time>2021-10-14T12:27:15Z</time>
      </trkpt>
      <trkpt lat="44.13101" lon="3.24931">
        <ele>732.9</ele>
        <time>2021-10-14T12:27:17Z</time>
      </trkpt>
      <trkpt lat="44.13103" lon="3.24933">
        <ele>733</ele>
        <time>2021-10-14T12:27:18Z</time>
      </trkpt>
      <trkpt lat="44.13105" lon="3.24935">
        <ele>733.3</ele>
        <time>2021-10-14T12:27:20Z</time>
      </trkpt>
      <trkpt lat="44.13107" lon="3.24938">
        <ele>733.6</ele>
        <time>2021-10-14T12:27:21Z</time>
      </trkpt>
      <trkpt lat="44.13108" lon="3.24939">
        <ele>733.8</ele>
        <time>2021-10-14T12:27:22Z</time>
      </trkpt>
      <trkpt lat="44.1311" lon="3.24941">
        <ele>734</ele>
        <time>2021-10-14T12:27:23Z</time>
      </trkpt>
      <trkpt lat="44.13113" lon="3.24944">
        <ele>734.3</ele>
        <time>2021-10-14T12:27:25Z</time>
      </trkpt>
      <trkpt lat="44.13115" lon="3.24947">
        <ele>734.7</ele>
        <time>2021-10-14T12:27:26Z</time>
      </trkpt>
      <trkpt lat="44.13116" lon="3.24949">
        <ele>734.8</ele>
        <time>2021-10-14T12:27:28Z</time>
      </trkpt>
      <trkpt lat="44.13117" lon="3.24951">
        <ele>735</ele>
        <time>2021-10-14T12:27:29Z</time>
      </trkpt>
      <trkpt lat="44.13118" lon="3.24952">
        <ele>735.1</ele>
        <time>2021-10-14T12:27:30Z</time>
      </trkpt>
      <trkpt lat="44.13121" lon="3.24955">
        <ele>735.5</ele>
        <time>2021-10-14T12:27:32Z</time>
      </trkpt>
      <trkpt lat="44.13122" lon="3.24956">
        <ele>735.6</ele>
        <time>2021-10-14T12:27:33Z</time>
      </trkpt>
      <trkpt lat="44.13124" lon="3.24957">
        <ele>735.8</ele>
        <time>2021-10-14T12:27:34Z</time>
      </trkpt>
      <trkpt lat="44.13125" lon="3.24957">
        <ele>735.9</ele>
        <time>2021-10-14T12:27:36Z</time>
      </trkpt>
      <trkpt lat="44.13127" lon="3.24958">
        <ele>736.1</ele>
        <time>2021-10-14T12:27:37Z</time>
      </trkpt>
      <trkpt lat="44.13128" lon="3.24959">
        <ele>736.2</ele>
        <time>2021-10-14T12:27:38Z</time>
      </trkpt>
      <trkpt lat="44.1313" lon="3.24962">
        <ele>736.5</ele>
        <time>2021-10-14T12:27:40Z</time>
      </trkpt>
      <trkpt lat="44.13132" lon="3.24963">
        <ele>736.7</ele>
        <time>2021-10-14T12:27:41Z</time>
      </trkpt>
      <trkpt lat="44.13133" lon="3.24964">
        <ele>736.8</ele>
        <time>2021-10-14T12:27:43Z</time>
      </trkpt>
      <trkpt lat="44.13134" lon="3.24964">
        <ele>736.9</ele>
        <time>2021-10-14T12:27:44Z</time>
      </trkpt>
      <trkpt lat="44.13136" lon="3.24967">
        <ele>737.2</ele>
        <time>2021-10-14T12:27:45Z</time>
      </trkpt>
      <trkpt lat="44.13137" lon="3.24967">
        <ele>737.3</ele>
        <time>2021-10-14T12:27:46Z</time>
      </trkpt>
      <trkpt lat="44.13138" lon="3.24968">
        <ele>737.4</ele>
        <time>2021-10-14T12:27:47Z</time>
      </trkpt>
      <trkpt lat="44.1314" lon="3.2497">
        <ele>737.7</ele>
        <time>2021-10-14T12:27:49Z</time>
      </trkpt>
      <trkpt lat="44.13142" lon="3.24971">
        <ele>737.9</ele>
        <time>2021-10-14T12:27:50Z</time>
      </trkpt>
      <trkpt lat="44.13143" lon="3.24972">
        <ele>738</ele>
        <time>2021-10-14T12:27:51Z</time>
      </trkpt>
      <trkpt lat="44.13146" lon="3.24975">
        <ele>738.4</ele>
        <time>2021-10-14T12:27:53Z</time>
      </trkpt>
      <trkpt lat="44.13147" lon="3.24977">
        <ele>738.6</ele>
        <time>2021-10-14T12:27:54Z</time>
      </trkpt>
      <trkpt lat="44.13149" lon="3.24979">
        <ele>738.8</ele>
        <time>2021-10-14T12:27:56Z</time>
      </trkpt>
      <trkpt lat="44.13152" lon="3.24982">
        <ele>739.2</ele>
        <time>2021-10-14T12:27:57Z</time>
      </trkpt>
      <trkpt lat="44.13154" lon="3.24984">
        <ele>739.4</ele>
        <time>2021-10-14T12:27:58Z</time>
      </trkpt>
      <trkpt lat="44.13156" lon="3.24987">
        <ele>739.7</ele>
        <time>2021-10-14T12:28:00Z</time>
      </trkpt>
      <trkpt lat="44.13159" lon="3.24991">
        <ele>740.1</ele>
        <time>2021-10-14T12:28:01Z</time>
      </trkpt>
      <trkpt lat="44.13161" lon="3.24993">
        <ele>740.3</ele>
        <time>2021-10-14T12:28:02Z</time>
      </trkpt>
      <trkpt lat="44.13164" lon="3.24996">
        <ele>740.7</ele>
        <time>2021-10-14T12:28:04Z</time>
      </trkpt>
      <trkpt lat="44.13167" lon="3.24999">
        <ele>741.1</ele>
        <time>2021-10-14T12:28:05Z</time>
      </trkpt>
      <trkpt lat="44.13169" lon="3.25001">
        <ele>741.3</ele>
        <time>2021-10-14T12:28:06Z</time>
      </trkpt>
      <trkpt lat="44.13172" lon="3.25004">
        <ele>741.7</ele>
        <time>2021-10-14T12:28:08Z</time>
      </trkpt>
      <trkpt lat="44.13175" lon="3.25008">
        <ele>742.1</ele>
        <time>2021-10-14T12:28:10Z</time>
      </trkpt>
      <trkpt lat="44.13177" lon="3.2501">
        <ele>742.4</ele>
        <time>2021-10-14T12:28:11Z</time>
      </trkpt>
      <trkpt lat="44.13178" lon="3.25011">
        <ele>742.5</ele>
        <time>2021-10-14T12:28:12Z</time>
      </trkpt>
      <trkpt lat="44.13181" lon="3.25015">
        <ele>743</ele>
        <time>2021-10-14T12:28:14Z</time>
      </trkpt>
      <trkpt lat="44.13182" lon="3.25017">
        <ele>743.1</ele>
        <time>2021-10-14T12:28:15Z</time>
      </trkpt>
      <trkpt lat="44.13183" lon="3.25018">
        <ele>743.2</ele>
        <time>2021-10-14T12:28:16Z</time>
      </trkpt>
      <trkpt lat="44.13185" lon="3.25021">
        <ele>743.5</ele>
        <time>2021-10-14T12:28:18Z</time>
      </trkpt>
      <trkpt lat="44.13186" lon="3.25021">
        <ele>743.6</ele>
        <time>2021-10-14T12:28:19Z</time>
      </trkpt>
      <trkpt lat="44.13189" lon="3.25024">
        <ele>743.9</ele>
        <time>2021-10-14T12:28:20Z</time>
      </trkpt>
      <trkpt lat="44.13189" lon="3.25024">
        <ele>744</ele>
        <time>2021-10-14T12:28:21Z</time>
      </trkpt>
      <trkpt lat="44.1319" lon="3.25026">
        <ele>744.2</ele>
        <time>2021-10-14T12:28:22Z</time>
      </trkpt>
      <trkpt lat="44.13191" lon="3.25027">
        <ele>744.3</ele>
        <time>2021-10-14T12:28:23Z</time>
      </trkpt>
      <trkpt lat="44.13193" lon="3.25031">
        <ele>744.6</ele>
        <time>2021-10-14T12:28:25Z</time>
      </trkpt>
      <trkpt lat="44.13195" lon="3.25032">
        <ele>744.8</ele>
        <time>2021-10-14T12:28:26Z</time>
      </trkpt>
      <trkpt lat="44.13196" lon="3.25036">
        <ele>745.1</ele>
        <time>2021-10-14T12:28:28Z</time>
      </trkpt>
      <trkpt lat="44.13198" lon="3.25038">
        <ele>745.3</ele>
        <time>2021-10-14T12:28:29Z</time>
      </trkpt>
      <trkpt lat="44.13199" lon="3.2504">
        <ele>745.5</ele>
        <time>2021-10-14T12:28:31Z</time>
      </trkpt>
      <trkpt lat="44.13201" lon="3.25043">
        <ele>745.8</ele>
        <time>2021-10-14T12:28:32Z</time>
      </trkpt>
      <trkpt lat="44.13203" lon="3.25047">
        <ele>746.2</ele>
        <time>2021-10-14T12:28:34Z</time>
      </trkpt>
      <trkpt lat="44.13204" lon="3.25049">
        <ele>746.3</ele>
        <time>2021-10-14T12:28:35Z</time>
      </trkpt>
      <trkpt lat="44.13205" lon="3.25051">
        <ele>746.5</ele>
        <time>2021-10-14T12:28:36Z</time>
      </trkpt>
      <trkpt lat="44.13208" lon="3.25055">
        <ele>746.9</ele>
        <time>2021-10-14T12:28:38Z</time>
      </trkpt>
      <trkpt lat="44.13209" lon="3.25057">
        <ele>747.1</ele>
        <time>2021-10-14T12:28:39Z</time>
      </trkpt>
      <trkpt lat="44.13212" lon="3.2506">
        <ele>747.4</ele>
        <time>2021-10-14T12:28:41Z</time>
      </trkpt>
      <trkpt lat="44.13213" lon="3.25061">
        <ele>747.5</ele>
        <time>2021-10-14T12:28:42Z</time>
      </trkpt>
      <trkpt lat="44.13216" lon="3.25065">
        <ele>747.9</ele>
        <time>2021-10-14T12:28:44Z</time>
      </trkpt>
      <trkpt lat="44.13218" lon="3.25069">
        <ele>748.3</ele>
        <time>2021-10-14T12:28:46Z</time>
      </trkpt>
      <trkpt lat="44.13221" lon="3.25072">
        <ele>748.6</ele>
        <time>2021-10-14T12:28:47Z</time>
      </trkpt>
      <trkpt lat="44.13221" lon="3.25073">
        <ele>748.7</ele>
        <time>2021-10-14T12:28:48Z</time>
      </trkpt>
      <trkpt lat="44.13223" lon="3.25075">
        <ele>748.9</ele>
        <time>2021-10-14T12:28:49Z</time>
      </trkpt>
      <trkpt lat="44.13225" lon="3.25077">
        <ele>749.1</ele>
        <time>2021-10-14T12:28:51Z</time>
      </trkpt>
      <trkpt lat="44.13227" lon="3.25079">
        <ele>749.4</ele>
        <time>2021-10-14T12:28:52Z</time>
      </trkpt>
      <trkpt lat="44.1323" lon="3.25083">
        <ele>749.8</ele>
        <time>2021-10-14T12:28:54Z</time>
      </trkpt>
      <trkpt lat="44.13232" lon="3.25084">
        <ele>750</ele>
        <time>2021-10-14T12:28:55Z</time>
      </trkpt>
      <trkpt lat="44.13236" lon="3.25086">
        <ele>750.4</ele>
        <time>2021-10-14T12:28:57Z</time>
      </trkpt>
      <trkpt lat="44.13238" lon="3.25088">
        <ele>750.7</ele>
        <time>2021-10-14T12:28:58Z</time>
      </trkpt>
      <trkpt lat="44.13239" lon="3.25089">
        <ele>750.8</ele>
        <time>2021-10-14T12:28:59Z</time>
      </trkpt>
      <trkpt lat="44.13244" lon="3.25091">
        <ele>751.3</ele>
        <time>2021-10-14T12:29:01Z</time>
      </trkpt>
      <trkpt lat="44.13246" lon="3.25092">
        <ele>751.5</ele>
        <time>2021-10-14T12:29:03Z</time>
      </trkpt>
      <trkpt lat="44.13247" lon="3.25093">
        <ele>751.6</ele>
        <time>2021-10-14T12:29:04Z</time>
      </trkpt>
      <trkpt lat="44.13252" lon="3.25094">
        <ele>752.2</ele>
        <time>2021-10-14T12:29:06Z</time>
      </trkpt>
      <trkpt lat="44.13255" lon="3.25094">
        <ele>752.4</ele>
        <time>2021-10-14T12:29:08Z</time>
      </trkpt>
      <trkpt lat="44.13257" lon="3.25094">
        <ele>752.6</ele>
        <time>2021-10-14T12:29:10Z</time>
      </trkpt>
      <trkpt lat="44.13259" lon="3.25095">
        <ele>752.8</ele>
        <time>2021-10-14T12:29:11Z</time>
      </trkpt>
      <trkpt lat="44.13261" lon="3.25095">
        <ele>753</ele>
        <time>2021-10-14T12:29:12Z</time>
      </trkpt>
      <trkpt lat="44.13263" lon="3.25094">
        <ele>753.2</ele>
        <time>2021-10-14T12:29:13Z</time>
      </trkpt>
      <trkpt lat="44.13265" lon="3.25094">
        <ele>753.4</ele>
        <time>2021-10-14T12:29:14Z</time>
      </trkpt>
      <trkpt lat="44.13266" lon="3.25094">
        <ele>753.5</ele>
        <time>2021-10-14T12:29:15Z</time>
      </trkpt>
      <trkpt lat="44.13268" lon="3.25093">
        <ele>753.7</ele>
        <time>2021-10-14T12:29:16Z</time>
      </trkpt>
      <trkpt lat="44.13271" lon="3.25093">
        <ele>754</ele>
        <time>2021-10-14T12:29:18Z</time>
      </trkpt>
      <trkpt lat="44.13272" lon="3.25092">
        <ele>754.1</ele>
        <time>2021-10-14T12:29:19Z</time>
      </trkpt>
      <trkpt lat="44.13276" lon="3.25092">
        <ele>754.4</ele>
        <time>2021-10-14T12:29:20Z</time>
      </trkpt>
      <trkpt lat="44.13277" lon="3.25092">
        <ele>754.5</ele>
        <time>2021-10-14T12:29:21Z</time>
      </trkpt>
      <trkpt lat="44.1328" lon="3.25092">
        <ele>754.9</ele>
        <time>2021-10-14T12:29:23Z</time>
      </trkpt>
      <trkpt lat="44.13282" lon="3.25092">
        <ele>755</ele>
        <time>2021-10-14T12:29:24Z</time>
      </trkpt>
      <trkpt lat="44.13284" lon="3.25093">
        <ele>755.2</ele>
        <time>2021-10-14T12:29:26Z</time>
      </trkpt>
      <trkpt lat="44.13288" lon="3.25095">
        <ele>755.6</ele>
        <time>2021-10-14T12:29:27Z</time>
      </trkpt>
      <trkpt lat="44.13289" lon="3.25095">
        <ele>755.7</ele>
        <time>2021-10-14T12:29:28Z</time>
      </trkpt>
      <trkpt lat="44.13291" lon="3.25096">
        <ele>755.9</ele>
        <time>2021-10-14T12:29:29Z</time>
      </trkpt>
      <trkpt lat="44.13295" lon="3.25097">
        <ele>756.2</ele>
        <time>2021-10-14T12:29:31Z</time>
      </trkpt>
      <trkpt lat="44.13297" lon="3.25098">
        <ele>756.4</ele>
        <time>2021-10-14T12:29:32Z</time>
      </trkpt>
      <trkpt lat="44.13301" lon="3.251">
        <ele>756.7</ele>
        <time>2021-10-14T12:29:34Z</time>
      </trkpt>
      <trkpt lat="44.13303" lon="3.251">
        <ele>756.9</ele>
        <time>2021-10-14T12:29:35Z</time>
      </trkpt>
      <trkpt lat="44.13307" lon="3.25101">
        <ele>757.1</ele>
        <time>2021-10-14T12:29:37Z</time>
      </trkpt>
      <trkpt lat="44.1331" lon="3.25102">
        <ele>757.3</ele>
        <time>2021-10-14T12:29:38Z</time>
      </trkpt>
      <trkpt lat="44.1331" lon="3.25103">
        <ele>757.4</ele>
        <time>2021-10-14T12:29:39Z</time>
      </trkpt>
      <trkpt lat="44.13312" lon="3.25104">
        <ele>757.5</ele>
        <time>2021-10-14T12:29:40Z</time>
      </trkpt>
      <trkpt lat="44.13316" lon="3.25107">
        <ele>757.8</ele>
        <time>2021-10-14T12:29:42Z</time>
      </trkpt>
      <trkpt lat="44.13319" lon="3.25109">
        <ele>758.1</ele>
        <time>2021-10-14T12:29:44Z</time>
      </trkpt>
      <trkpt lat="44.1332" lon="3.2511">
        <ele>758.2</ele>
        <time>2021-10-14T12:29:45Z</time>
      </trkpt>
      <trkpt lat="44.13323" lon="3.25113">
        <ele>758.4</ele>
        <time>2021-10-14T12:29:46Z</time>
      </trkpt>
      <trkpt lat="44.13323" lon="3.25113">
        <ele>758.4</ele>
        <time>2021-10-14T12:29:47Z</time>
      </trkpt>
      <trkpt lat="44.13325" lon="3.25115">
        <ele>758.6</ele>
        <time>2021-10-14T12:29:48Z</time>
      </trkpt>
      <trkpt lat="44.13327" lon="3.25115">
        <ele>758.7</ele>
        <time>2021-10-14T12:29:49Z</time>
      </trkpt>
      <trkpt lat="44.13331" lon="3.25119">
        <ele>759</ele>
        <time>2021-10-14T12:29:52Z</time>
      </trkpt>
      <trkpt lat="44.13333" lon="3.25121">
        <ele>759.2</ele>
        <time>2021-10-14T12:29:53Z</time>
      </trkpt>
      <trkpt lat="44.13335" lon="3.25122">
        <ele>759.3</ele>
        <time>2021-10-14T12:29:54Z</time>
      </trkpt>
      <trkpt lat="44.13338" lon="3.25124">
        <ele>759.6</ele>
        <time>2021-10-14T12:29:56Z</time>
      </trkpt>
      <trkpt lat="44.13341" lon="3.25127">
        <ele>759.8</ele>
        <time>2021-10-14T12:29:58Z</time>
      </trkpt>
      <trkpt lat="44.13343" lon="3.25129">
        <ele>760</ele>
        <time>2021-10-14T12:30:00Z</time>
      </trkpt>
      <trkpt lat="44.13346" lon="3.25132">
        <ele>760.3</ele>
        <time>2021-10-14T12:30:01Z</time>
      </trkpt>
      <trkpt lat="44.13348" lon="3.25135">
        <ele>760.5</ele>
        <time>2021-10-14T12:30:02Z</time>
      </trkpt>
      <trkpt lat="44.13348" lon="3.25136">
        <ele>760.5</ele>
        <time>2021-10-14T12:30:03Z</time>
      </trkpt>
      <trkpt lat="44.13351" lon="3.2514">
        <ele>760.8</ele>
        <time>2021-10-14T12:30:05Z</time>
      </trkpt>
      <trkpt lat="44.13355" lon="3.25142">
        <ele>761</ele>
        <time>2021-10-14T12:30:07Z</time>
      </trkpt>
      <trkpt lat="44.13358" lon="3.25144">
        <ele>761.3</ele>
        <time>2021-10-14T12:30:08Z</time>
      </trkpt>
      <trkpt lat="44.13362" lon="3.25147">
        <ele>761.5</ele>
        <time>2021-10-14T12:30:10Z</time>
      </trkpt>
      <trkpt lat="44.13365" lon="3.25149">
        <ele>761.8</ele>
        <time>2021-10-14T12:30:11Z</time>
      </trkpt>
      <trkpt lat="44.13366" lon="3.2515">
        <ele>761.8</ele>
        <time>2021-10-14T12:30:12Z</time>
      </trkpt>
      <trkpt lat="44.13369" lon="3.25152">
        <ele>762.1</ele>
        <time>2021-10-14T12:30:13Z</time>
      </trkpt>
      <trkpt lat="44.1337" lon="3.25153">
        <ele>762.1</ele>
        <time>2021-10-14T12:30:14Z</time>
      </trkpt>
      <trkpt lat="44.13373" lon="3.25156">
        <ele>762.3</ele>
        <time>2021-10-14T12:30:16Z</time>
      </trkpt>
      <trkpt lat="44.13376" lon="3.25159">
        <ele>762.5</ele>
        <time>2021-10-14T12:30:17Z</time>
      </trkpt>
      <trkpt lat="44.13379" lon="3.25161">
        <ele>762.7</ele>
        <time>2021-10-14T12:30:18Z</time>
      </trkpt>
      <trkpt lat="44.13383" lon="3.25165">
        <ele>763.1</ele>
        <time>2021-10-14T12:30:20Z</time>
      </trkpt>
      <trkpt lat="44.13385" lon="3.25166">
        <ele>763.2</ele>
        <time>2021-10-14T12:30:21Z</time>
      </trkpt>
      <trkpt lat="44.13389" lon="3.25169">
        <ele>763.4</ele>
        <time>2021-10-14T12:30:23Z</time>
      </trkpt>
      <trkpt lat="44.13391" lon="3.25171">
        <ele>763.6</ele>
        <time>2021-10-14T12:30:24Z</time>
      </trkpt>
      <trkpt lat="44.13394" lon="3.25173">
        <ele>763.8</ele>
        <time>2021-10-14T12:30:26Z</time>
      </trkpt>
      <trkpt lat="44.13397" lon="3.25176">
        <ele>764</ele>
        <time>2021-10-14T12:30:27Z</time>
      </trkpt>
      <trkpt lat="44.134" lon="3.25178">
        <ele>764.2</ele>
        <time>2021-10-14T12:30:28Z</time>
      </trkpt>
      <trkpt lat="44.13401" lon="3.25179">
        <ele>764.2</ele>
        <time>2021-10-14T12:30:29Z</time>
      </trkpt>
      <trkpt lat="44.13403" lon="3.25181">
        <ele>764.4</ele>
        <time>2021-10-14T12:30:30Z</time>
      </trkpt>
      <trkpt lat="44.13406" lon="3.25184">
        <ele>764.6</ele>
        <time>2021-10-14T12:30:32Z</time>
      </trkpt>
      <trkpt lat="44.13408" lon="3.25186">
        <ele>764.7</ele>
        <time>2021-10-14T12:30:33Z</time>
      </trkpt>
      <trkpt lat="44.13412" lon="3.25189">
        <ele>764.9</ele>
        <time>2021-10-14T12:30:35Z</time>
      </trkpt>
      <trkpt lat="44.13414" lon="3.25191">
        <ele>765.1</ele>
        <time>2021-10-14T12:30:36Z</time>
      </trkpt>
      <trkpt lat="44.13417" lon="3.25194">
        <ele>765.3</ele>
        <time>2021-10-14T12:30:38Z</time>
      </trkpt>
      <trkpt lat="44.13419" lon="3.25196">
        <ele>765.5</ele>
        <time>2021-10-14T12:30:39Z</time>
      </trkpt>
      <trkpt lat="44.13423" lon="3.25198">
        <ele>765.7</ele>
        <time>2021-10-14T12:30:41Z</time>
      </trkpt>
      <trkpt lat="44.13426" lon="3.252">
        <ele>765.9</ele>
        <time>2021-10-14T12:30:42Z</time>
      </trkpt>
      <trkpt lat="44.1343" lon="3.25203">
        <ele>766.2</ele>
        <time>2021-10-14T12:30:44Z</time>
      </trkpt>
      <trkpt lat="44.13434" lon="3.25206">
        <ele>766.4</ele>
        <time>2021-10-14T12:30:46Z</time>
      </trkpt>
      <trkpt lat="44.13436" lon="3.25207">
        <ele>766.6</ele>
        <time>2021-10-14T12:30:47Z</time>
      </trkpt>
      <trkpt lat="44.1344" lon="3.25211">
        <ele>766.9</ele>
        <time>2021-10-14T12:30:49Z</time>
      </trkpt>
      <trkpt lat="44.13442" lon="3.25213">
        <ele>767</ele>
        <time>2021-10-14T12:30:50Z</time>
      </trkpt>
      <trkpt lat="44.13445" lon="3.25217">
        <ele>767.2</ele>
        <time>2021-10-14T12:30:52Z</time>
      </trkpt>
      <trkpt lat="44.1345" lon="3.2522">
        <ele>767.5</ele>
        <time>2021-10-14T12:30:54Z</time>
      </trkpt>
      <trkpt lat="44.13452" lon="3.25222">
        <ele>767.6</ele>
        <time>2021-10-14T12:30:55Z</time>
      </trkpt>
      <trkpt lat="44.13455" lon="3.25225">
        <ele>767.9</ele>
        <time>2021-10-14T12:30:57Z</time>
      </trkpt>
      <trkpt lat="44.13459" lon="3.25229">
        <ele>768.2</ele>
        <time>2021-10-14T12:30:59Z</time>
      </trkpt>
      <trkpt lat="44.13462" lon="3.25234">
        <ele>768.4</ele>
        <time>2021-10-14T12:31:01Z</time>
      </trkpt>
      <trkpt lat="44.13466" lon="3.25237">
        <ele>768.7</ele>
        <time>2021-10-14T12:31:03Z</time>
      </trkpt>
      <trkpt lat="44.13468" lon="3.2524">
        <ele>768.8</ele>
        <time>2021-10-14T12:31:05Z</time>
      </trkpt>
      <trkpt lat="44.1347" lon="3.25241">
        <ele>769</ele>
        <time>2021-10-14T12:31:06Z</time>
      </trkpt>
      <trkpt lat="44.13472" lon="3.25245">
        <ele>769.1</ele>
        <time>2021-10-14T12:31:08Z</time>
      </trkpt>
      <trkpt lat="44.13474" lon="3.25246">
        <ele>769.2</ele>
        <time>2021-10-14T12:31:09Z</time>
      </trkpt>
      <trkpt lat="44.13477" lon="3.2525">
        <ele>769.5</ele>
        <time>2021-10-14T12:31:11Z</time>
      </trkpt>
      <trkpt lat="44.13479" lon="3.25252">
        <ele>769.6</ele>
        <time>2021-10-14T12:31:12Z</time>
      </trkpt>
      <trkpt lat="44.13483" lon="3.25255">
        <ele>769.8</ele>
        <time>2021-10-14T12:31:14Z</time>
      </trkpt>
      <trkpt lat="44.13485" lon="3.25258">
        <ele>770</ele>
        <time>2021-10-14T12:31:15Z</time>
      </trkpt>
      <trkpt lat="44.13486" lon="3.25258">
        <ele>770</ele>
        <time>2021-10-14T12:31:16Z</time>
      </trkpt>
      <trkpt lat="44.13489" lon="3.25261">
        <ele>770.2</ele>
        <time>2021-10-14T12:31:18Z</time>
      </trkpt>
      <trkpt lat="44.13491" lon="3.25263">
        <ele>770.3</ele>
        <time>2021-10-14T12:31:19Z</time>
      </trkpt>
      <trkpt lat="44.13493" lon="3.25266">
        <ele>770.5</ele>
        <time>2021-10-14T12:31:21Z</time>
      </trkpt>
      <trkpt lat="44.13494" lon="3.25267">
        <ele>770.5</ele>
        <time>2021-10-14T12:31:22Z</time>
      </trkpt>
      <trkpt lat="44.13497" lon="3.25271">
        <ele>770.7</ele>
        <time>2021-10-14T12:31:24Z</time>
      </trkpt>
      <trkpt lat="44.135" lon="3.25274">
        <ele>770.9</ele>
        <time>2021-10-14T12:31:26Z</time>
      </trkpt>
      <trkpt lat="44.13503" lon="3.25277">
        <ele>771.1</ele>
        <time>2021-10-14T12:31:27Z</time>
      </trkpt>
      <trkpt lat="44.13504" lon="3.25278">
        <ele>771.1</ele>
        <time>2021-10-14T12:31:28Z</time>
      </trkpt>
      <trkpt lat="44.13505" lon="3.25282">
        <ele>771.3</ele>
        <time>2021-10-14T12:31:30Z</time>
      </trkpt>
      <trkpt lat="44.13507" lon="3.25285">
        <ele>771.4</ele>
        <time>2021-10-14T12:31:31Z</time>
      </trkpt>
      <trkpt lat="44.1351" lon="3.25288">
        <ele>771.6</ele>
        <time>2021-10-14T12:31:32Z</time>
      </trkpt>
      <trkpt lat="44.13512" lon="3.25291">
        <ele>771.7</ele>
        <time>2021-10-14T12:31:33Z</time>
      </trkpt>
      <trkpt lat="44.13515" lon="3.25295">
        <ele>771.9</ele>
        <time>2021-10-14T12:31:35Z</time>
      </trkpt>
      <trkpt lat="44.13518" lon="3.25299">
        <ele>772.1</ele>
        <time>2021-10-14T12:31:36Z</time>
      </trkpt>
      <trkpt lat="44.13519" lon="3.25301">
        <ele>772.2</ele>
        <time>2021-10-14T12:31:37Z</time>
      </trkpt>
      <trkpt lat="44.13523" lon="3.25305">
        <ele>772.4</ele>
        <time>2021-10-14T12:31:39Z</time>
      </trkpt>
      <trkpt lat="44.13525" lon="3.25307">
        <ele>772.5</ele>
        <time>2021-10-14T12:31:40Z</time>
      </trkpt>
      <trkpt lat="44.13528" lon="3.25311">
        <ele>772.8</ele>
        <time>2021-10-14T12:31:42Z</time>
      </trkpt>
      <trkpt lat="44.13531" lon="3.25314">
        <ele>772.9</ele>
        <time>2021-10-14T12:31:43Z</time>
      </trkpt>
      <trkpt lat="44.13532" lon="3.25315">
        <ele>773</ele>
        <time>2021-10-14T12:31:44Z</time>
      </trkpt>
      <trkpt lat="44.13535" lon="3.25319">
        <ele>773.2</ele>
        <time>2021-10-14T12:31:46Z</time>
      </trkpt>
      <trkpt lat="44.13538" lon="3.25323">
        <ele>773.3</ele>
        <time>2021-10-14T12:31:48Z</time>
      </trkpt>
      <trkpt lat="44.1354" lon="3.25325">
        <ele>773.4</ele>
        <time>2021-10-14T12:31:49Z</time>
      </trkpt>
      <trkpt lat="44.13544" lon="3.25329">
        <ele>773.7</ele>
        <time>2021-10-14T12:31:51Z</time>
      </trkpt>
      <trkpt lat="44.13547" lon="3.25333">
        <ele>773.8</ele>
        <time>2021-10-14T12:31:53Z</time>
      </trkpt>
      <trkpt lat="44.13549" lon="3.25335">
        <ele>773.9</ele>
        <time>2021-10-14T12:31:54Z</time>
      </trkpt>
      <trkpt lat="44.13552" lon="3.25339">
        <ele>774.1</ele>
        <time>2021-10-14T12:31:56Z</time>
      </trkpt>
      <trkpt lat="44.13554" lon="3.25341">
        <ele>774.2</ele>
        <time>2021-10-14T12:31:57Z</time>
      </trkpt>
      <trkpt lat="44.13558" lon="3.25346">
        <ele>774.4</ele>
        <time>2021-10-14T12:31:59Z</time>
      </trkpt>
      <trkpt lat="44.13561" lon="3.25349">
        <ele>774.5</ele>
        <time>2021-10-14T12:32:00Z</time>
      </trkpt>
      <trkpt lat="44.13564" lon="3.25354">
        <ele>774.7</ele>
        <time>2021-10-14T12:32:02Z</time>
      </trkpt>
      <trkpt lat="44.13568" lon="3.25359">
        <ele>774.8</ele>
        <time>2021-10-14T12:32:04Z</time>
      </trkpt>
      <trkpt lat="44.13571" lon="3.25361">
        <ele>774.7</ele>
        <time>2021-10-14T12:32:06Z</time>
      </trkpt>
      <trkpt lat="44.13574" lon="3.25363">
        <ele>774.5</ele>
        <time>2021-10-14T12:32:07Z</time>
      </trkpt>
      <trkpt lat="44.13576" lon="3.25364">
        <ele>774.3</ele>
        <time>2021-10-14T12:32:08Z</time>
      </trkpt>
      <trkpt lat="44.13581" lon="3.25366">
        <ele>774.1</ele>
        <time>2021-10-14T12:32:10Z</time>
      </trkpt>
      <trkpt lat="44.13585" lon="3.25367">
        <ele>773.8</ele>
        <time>2021-10-14T12:32:11Z</time>
      </trkpt>
      <trkpt lat="44.13594" lon="3.25369">
        <ele>773.5</ele>
        <time>2021-10-14T12:32:12Z</time>
      </trkpt>
      <trkpt lat="44.13598" lon="3.25366">
        <ele>773.4</ele>
        <time>2021-10-14T12:32:14Z</time>
      </trkpt>
      <trkpt lat="44.13603" lon="3.25366">
        <ele>773.5</ele>
        <time>2021-10-14T12:32:15Z</time>
      </trkpt>
      <trkpt lat="44.13607" lon="3.25367">
        <ele>773.6</ele>
        <time>2021-10-14T12:32:16Z</time>
      </trkpt>
      <trkpt lat="44.13613" lon="3.25367">
        <ele>773.9</ele>
        <time>2021-10-14T12:32:17Z</time>
      </trkpt>
      <trkpt lat="44.13618" lon="3.25366">
        <ele>774.2</ele>
        <time>2021-10-14T12:32:18Z</time>
      </trkpt>
      <trkpt lat="44.13623" lon="3.25365">
        <ele>774.7</ele>
        <time>2021-10-14T12:32:20Z</time>
      </trkpt>
      <trkpt lat="44.13627" lon="3.25364">
        <ele>775.1</ele>
        <time>2021-10-14T12:32:21Z</time>
      </trkpt>
      <trkpt lat="44.13631" lon="3.25363">
        <ele>775.5</ele>
        <time>2021-10-14T12:32:23Z</time>
      </trkpt>
      <trkpt lat="44.13633" lon="3.25361">
        <ele>775.8</ele>
        <time>2021-10-14T12:32:24Z</time>
      </trkpt>
      <trkpt lat="44.13637" lon="3.25359">
        <ele>776.2</ele>
        <time>2021-10-14T12:32:26Z</time>
      </trkpt>
      <trkpt lat="44.13638" lon="3.25358">
        <ele>776.4</ele>
        <time>2021-10-14T12:32:27Z</time>
      </trkpt>
      <trkpt lat="44.13641" lon="3.25357">
        <ele>776.7</ele>
        <time>2021-10-14T12:32:28Z</time>
      </trkpt>
      <trkpt lat="44.13642" lon="3.25357">
        <ele>776.9</ele>
        <time>2021-10-14T12:32:30Z</time>
      </trkpt>
      <trkpt lat="44.13644" lon="3.25357">
        <ele>777.1</ele>
        <time>2021-10-14T12:32:31Z</time>
      </trkpt>
      <trkpt lat="44.13645" lon="3.25357">
        <ele>777.3</ele>
        <time>2021-10-14T12:32:32Z</time>
      </trkpt>
      <trkpt lat="44.13647" lon="3.25356">
        <ele>777.5</ele>
        <time>2021-10-14T12:32:34Z</time>
      </trkpt>
      <trkpt lat="44.13648" lon="3.25355">
        <ele>777.6</ele>
        <time>2021-10-14T12:32:35Z</time>
      </trkpt>
      <trkpt lat="44.13649" lon="3.25355">
        <ele>777.8</ele>
        <time>2021-10-14T12:32:36Z</time>
      </trkpt>
      <trkpt lat="44.13651" lon="3.25354">
        <ele>777.9</ele>
        <time>2021-10-14T12:32:37Z</time>
      </trkpt>
      <trkpt lat="44.13654" lon="3.25353">
        <ele>778.2</ele>
        <time>2021-10-14T12:32:39Z</time>
      </trkpt>
      <trkpt lat="44.13656" lon="3.25355">
        <ele>778.5</ele>
        <time>2021-10-14T12:32:40Z</time>
      </trkpt>
      <trkpt lat="44.13657" lon="3.25356">
        <ele>778.6</ele>
        <time>2021-10-14T12:32:41Z</time>
      </trkpt>
      <trkpt lat="44.1366" lon="3.25357">
        <ele>778.9</ele>
        <time>2021-10-14T12:32:43Z</time>
      </trkpt>
      <trkpt lat="44.13661" lon="3.25357">
        <ele>778.9</ele>
        <time>2021-10-14T12:32:44Z</time>
      </trkpt>
      <trkpt lat="44.13663" lon="3.25357">
        <ele>779.1</ele>
        <time>2021-10-14T12:32:45Z</time>
      </trkpt>
      <trkpt lat="44.13665" lon="3.25357">
        <ele>779.3</ele>
        <time>2021-10-14T12:32:47Z</time>
      </trkpt>
      <trkpt lat="44.13666" lon="3.25357">
        <ele>779.4</ele>
        <time>2021-10-14T12:32:48Z</time>
      </trkpt>
      <trkpt lat="44.13668" lon="3.25357">
        <ele>779.5</ele>
        <time>2021-10-14T12:32:49Z</time>
      </trkpt>
      <trkpt lat="44.1367" lon="3.25357">
        <ele>779.6</ele>
        <time>2021-10-14T12:32:50Z</time>
      </trkpt>
      <trkpt lat="44.13672" lon="3.25356">
        <ele>779.7</ele>
        <time>2021-10-14T12:32:52Z</time>
      </trkpt>
      <trkpt lat="44.13674" lon="3.25357">
        <ele>779.9</ele>
        <time>2021-10-14T12:32:53Z</time>
      </trkpt>
      <trkpt lat="44.13675" lon="3.25357">
        <ele>780</ele>
        <time>2021-10-14T12:32:55Z</time>
      </trkpt>
      <trkpt lat="44.13677" lon="3.25357">
        <ele>780.1</ele>
        <time>2021-10-14T12:32:56Z</time>
      </trkpt>
      <trkpt lat="44.1368" lon="3.25356">
        <ele>780.3</ele>
        <time>2021-10-14T12:32:58Z</time>
      </trkpt>
      <trkpt lat="44.13684" lon="3.25356">
        <ele>780.6</ele>
        <time>2021-10-14T12:32:59Z</time>
      </trkpt>
      <trkpt lat="44.13685" lon="3.25356">
        <ele>780.7</ele>
        <time>2021-10-14T12:33:00Z</time>
      </trkpt>
      <trkpt lat="44.13689" lon="3.25357">
        <ele>781</ele>
        <time>2021-10-14T12:33:02Z</time>
      </trkpt>
      <trkpt lat="44.13691" lon="3.25356">
        <ele>781.2</ele>
        <time>2021-10-14T12:33:03Z</time>
      </trkpt>
      <trkpt lat="44.13693" lon="3.25356">
        <ele>781.3</ele>
        <time>2021-10-14T12:33:04Z</time>
      </trkpt>
      <trkpt lat="44.13695" lon="3.25355">
        <ele>781.5</ele>
        <time>2021-10-14T12:33:05Z</time>
      </trkpt>
      <trkpt lat="44.13699" lon="3.25353">
        <ele>781.8</ele>
        <time>2021-10-14T12:33:06Z</time>
      </trkpt>
      <trkpt lat="44.13702" lon="3.25353">
        <ele>782.1</ele>
        <time>2021-10-14T12:33:08Z</time>
      </trkpt>
      <trkpt lat="44.13703" lon="3.25353">
        <ele>782.1</ele>
        <time>2021-10-14T12:33:09Z</time>
      </trkpt>
      <trkpt lat="44.13707" lon="3.25353">
        <ele>782.4</ele>
        <time>2021-10-14T12:33:10Z</time>
      </trkpt>
      <trkpt lat="44.13708" lon="3.25353">
        <ele>782.5</ele>
        <time>2021-10-14T12:33:11Z</time>
      </trkpt>
      <trkpt lat="44.1371" lon="3.25352">
        <ele>782.7</ele>
        <time>2021-10-14T12:33:12Z</time>
      </trkpt>
      <trkpt lat="44.13712" lon="3.25352">
        <ele>782.8</ele>
        <time>2021-10-14T12:33:14Z</time>
      </trkpt>
      <trkpt lat="44.13715" lon="3.25352">
        <ele>783</ele>
        <time>2021-10-14T12:33:15Z</time>
      </trkpt>
      <trkpt lat="44.13716" lon="3.25352">
        <ele>783.1</ele>
        <time>2021-10-14T12:33:16Z</time>
      </trkpt>
      <trkpt lat="44.13719" lon="3.25352">
        <ele>783.4</ele>
        <time>2021-10-14T12:33:18Z</time>
      </trkpt>
      <trkpt lat="44.13721" lon="3.25352">
        <ele>783.5</ele>
        <time>2021-10-14T12:33:19Z</time>
      </trkpt>
      <trkpt lat="44.13724" lon="3.25352">
        <ele>783.7</ele>
        <time>2021-10-14T12:33:21Z</time>
      </trkpt>
      <trkpt lat="44.13726" lon="3.25351">
        <ele>783.9</ele>
        <time>2021-10-14T12:33:22Z</time>
      </trkpt>
      <trkpt lat="44.13729" lon="3.2535">
        <ele>784.1</ele>
        <time>2021-10-14T12:33:23Z</time>
      </trkpt>
      <trkpt lat="44.13731" lon="3.2535">
        <ele>784.2</ele>
        <time>2021-10-14T12:33:25Z</time>
      </trkpt>
      <trkpt lat="44.13734" lon="3.2535">
        <ele>784.4</ele>
        <time>2021-10-14T12:33:26Z</time>
      </trkpt>
      <trkpt lat="44.13735" lon="3.2535">
        <ele>784.5</ele>
        <time>2021-10-14T12:33:27Z</time>
      </trkpt>
      <trkpt lat="44.13738" lon="3.25349">
        <ele>784.7</ele>
        <time>2021-10-14T12:33:28Z</time>
      </trkpt>
      <trkpt lat="44.13742" lon="3.25349">
        <ele>784.9</ele>
        <time>2021-10-14T12:33:30Z</time>
      </trkpt>
      <trkpt lat="44.13744" lon="3.25349">
        <ele>785.1</ele>
        <time>2021-10-14T12:33:31Z</time>
      </trkpt>
      <trkpt lat="44.13745" lon="3.25349">
        <ele>785.2</ele>
        <time>2021-10-14T12:33:32Z</time>
      </trkpt>
      <trkpt lat="44.13748" lon="3.25349">
        <ele>785.4</ele>
        <time>2021-10-14T12:33:33Z</time>
      </trkpt>
      <trkpt lat="44.13749" lon="3.25349">
        <ele>785.4</ele>
        <time>2021-10-14T12:33:34Z</time>
      </trkpt>
      <trkpt lat="44.13751" lon="3.25349">
        <ele>785.6</ele>
        <time>2021-10-14T12:33:35Z</time>
      </trkpt>
      <trkpt lat="44.13752" lon="3.25349">
        <ele>785.7</ele>
        <time>2021-10-14T12:33:37Z</time>
      </trkpt>
      <trkpt lat="44.13754" lon="3.25348">
        <ele>785.8</ele>
        <time>2021-10-14T12:33:38Z</time>
      </trkpt>
      <trkpt lat="44.13756" lon="3.25348">
        <ele>786</ele>
        <time>2021-10-14T12:33:40Z</time>
      </trkpt>
      <trkpt lat="44.13759" lon="3.25347">
        <ele>786.2</ele>
        <time>2021-10-14T12:33:41Z</time>
      </trkpt>
      <trkpt lat="44.1376" lon="3.25347">
        <ele>786.3</ele>
        <time>2021-10-14T12:33:42Z</time>
      </trkpt>
      <trkpt lat="44.13764" lon="3.25347">
        <ele>786.5</ele>
        <time>2021-10-14T12:33:44Z</time>
      </trkpt>
      <trkpt lat="44.13765" lon="3.25347">
        <ele>786.6</ele>
        <time>2021-10-14T12:33:45Z</time>
      </trkpt>
      <trkpt lat="44.13768" lon="3.25347">
        <ele>786.9</ele>
        <time>2021-10-14T12:33:47Z</time>
      </trkpt>
      <trkpt lat="44.13772" lon="3.25346">
        <ele>787.1</ele>
        <time>2021-10-14T12:33:49Z</time>
      </trkpt>
      <trkpt lat="44.13775" lon="3.25345">
        <ele>787.4</ele>
        <time>2021-10-14T12:33:50Z</time>
      </trkpt>
      <trkpt lat="44.13778" lon="3.25345">
        <ele>787.6</ele>
        <time>2021-10-14T12:33:52Z</time>
      </trkpt>
      <trkpt lat="44.13781" lon="3.25343">
        <ele>787.9</ele>
        <time>2021-10-14T12:33:53Z</time>
      </trkpt>
      <trkpt lat="44.13784" lon="3.25342">
        <ele>788.1</ele>
        <time>2021-10-14T12:33:54Z</time>
      </trkpt>
      <trkpt lat="44.13788" lon="3.2534">
        <ele>788.5</ele>
        <time>2021-10-14T12:33:56Z</time>
      </trkpt>
      <trkpt lat="44.13791" lon="3.25339">
        <ele>788.8</ele>
        <time>2021-10-14T12:33:57Z</time>
      </trkpt>
      <trkpt lat="44.13792" lon="3.25339">
        <ele>788.8</ele>
        <time>2021-10-14T12:33:58Z</time>
      </trkpt>
      <trkpt lat="44.13793" lon="3.25339">
        <ele>789</ele>
        <time>2021-10-14T12:33:59Z</time>
      </trkpt>
      <trkpt lat="44.13796" lon="3.2534">
        <ele>789.3</ele>
        <time>2021-10-14T12:34:01Z</time>
      </trkpt>
      <trkpt lat="44.13799" lon="3.2534">
        <ele>789.5</ele>
        <time>2021-10-14T12:34:02Z</time>
      </trkpt>
      <trkpt lat="44.138" lon="3.25339">
        <ele>789.6</ele>
        <time>2021-10-14T12:34:03Z</time>
      </trkpt>
      <trkpt lat="44.13804" lon="3.25338">
        <ele>790</ele>
        <time>2021-10-14T12:34:05Z</time>
      </trkpt>
      <trkpt lat="44.13806" lon="3.25337">
        <ele>790.1</ele>
        <time>2021-10-14T12:34:06Z</time>
      </trkpt>
      <trkpt lat="44.13807" lon="3.25337">
        <ele>790.2</ele>
        <time>2021-10-14T12:34:07Z</time>
      </trkpt>
      <trkpt lat="44.13809" lon="3.25337">
        <ele>790.4</ele>
        <time>2021-10-14T12:34:08Z</time>
      </trkpt>
      <trkpt lat="44.13811" lon="3.25335">
        <ele>790.6</ele>
        <time>2021-10-14T12:34:10Z</time>
      </trkpt>
      <trkpt lat="44.13813" lon="3.25334">
        <ele>790.8</ele>
        <time>2021-10-14T12:34:12Z</time>
      </trkpt>
      <trkpt lat="44.13814" lon="3.25333">
        <ele>790.9</ele>
        <time>2021-10-14T12:34:13Z</time>
      </trkpt>
      <trkpt lat="44.13818" lon="3.25332">
        <ele>791.3</ele>
        <time>2021-10-14T12:34:15Z</time>
      </trkpt>
      <trkpt lat="44.13818" lon="3.25332">
        <ele>791.3</ele>
        <time>2021-10-14T12:34:16Z</time>
      </trkpt>
      <trkpt lat="44.1382" lon="3.25332">
        <ele>791.5</ele>
        <time>2021-10-14T12:34:17Z</time>
      </trkpt>
      <trkpt lat="44.13822" lon="3.25332">
        <ele>791.7</ele>
        <time>2021-10-14T12:34:18Z</time>
      </trkpt>
      <trkpt lat="44.13824" lon="3.25331">
        <ele>791.8</ele>
        <time>2021-10-14T12:34:19Z</time>
      </trkpt>
      <trkpt lat="44.13826" lon="3.2533">
        <ele>792.1</ele>
        <time>2021-10-14T12:34:21Z</time>
      </trkpt>
      <trkpt lat="44.13829" lon="3.25329">
        <ele>792.4</ele>
        <time>2021-10-14T12:34:22Z</time>
      </trkpt>
      <trkpt lat="44.1383" lon="3.25329">
        <ele>792.5</ele>
        <time>2021-10-14T12:34:23Z</time>
      </trkpt>
      <trkpt lat="44.13832" lon="3.25328">
        <ele>792.6</ele>
        <time>2021-10-14T12:34:25Z</time>
      </trkpt>
      <trkpt lat="44.13834" lon="3.25328">
        <ele>792.8</ele>
        <time>2021-10-14T12:34:26Z</time>
      </trkpt>
      <trkpt lat="44.13837" lon="3.25326">
        <ele>793.1</ele>
        <time>2021-10-14T12:34:27Z</time>
      </trkpt>
      <trkpt lat="44.13838" lon="3.25326">
        <ele>793.2</ele>
        <time>2021-10-14T12:34:28Z</time>
      </trkpt>
      <trkpt lat="44.13841" lon="3.25324">
        <ele>793.4</ele>
        <time>2021-10-14T12:34:29Z</time>
      </trkpt>
      <trkpt lat="44.13842" lon="3.25323">
        <ele>793.5</ele>
        <time>2021-10-14T12:34:30Z</time>
      </trkpt>
      <trkpt lat="44.13844" lon="3.25322">
        <ele>793.7</ele>
        <time>2021-10-14T12:34:32Z</time>
      </trkpt>
      <trkpt lat="44.13845" lon="3.25321">
        <ele>793.8</ele>
        <time>2021-10-14T12:34:33Z</time>
      </trkpt>
      <trkpt lat="44.13848" lon="3.25319">
        <ele>794</ele>
        <time>2021-10-14T12:34:34Z</time>
      </trkpt>
      <trkpt lat="44.13849" lon="3.25319">
        <ele>794.1</ele>
        <time>2021-10-14T12:34:35Z</time>
      </trkpt>
      <trkpt lat="44.13853" lon="3.25317">
        <ele>794.5</ele>
        <time>2021-10-14T12:34:37Z</time>
      </trkpt>
      <trkpt lat="44.13855" lon="3.25316">
        <ele>794.5</ele>
        <time>2021-10-14T12:34:39Z</time>
      </trkpt>
      <trkpt lat="44.13856" lon="3.25315">
        <ele>794.5</ele>
        <time>2021-10-14T12:34:40Z</time>
      </trkpt>
      <trkpt lat="44.13857" lon="3.25314">
        <ele>794.6</ele>
        <time>2021-10-14T12:34:41Z</time>
      </trkpt>
      <trkpt lat="44.13858" lon="3.25311">
        <ele>794.6</ele>
        <time>2021-10-14T12:34:43Z</time>
      </trkpt>
      <trkpt lat="44.13859" lon="3.25309">
        <ele>794.7</ele>
        <time>2021-10-14T12:34:44Z</time>
      </trkpt>
      <trkpt lat="44.13859" lon="3.25307">
        <ele>794.7</ele>
        <time>2021-10-14T12:34:45Z</time>
      </trkpt>
      <trkpt lat="44.1386" lon="3.25305">
        <ele>794.8</ele>
        <time>2021-10-14T12:34:46Z</time>
      </trkpt>
      <trkpt lat="44.13861" lon="3.25301">
        <ele>794.9</ele>
        <time>2021-10-14T12:34:48Z</time>
      </trkpt>
      <trkpt lat="44.13862" lon="3.25297">
        <ele>795</ele>
        <time>2021-10-14T12:34:49Z</time>
      </trkpt>
      <trkpt lat="44.13862" lon="3.25295">
        <ele>795</ele>
        <time>2021-10-14T12:34:50Z</time>
      </trkpt>
      <trkpt lat="44.13863" lon="3.25292">
        <ele>795.1</ele>
        <time>2021-10-14T12:34:52Z</time>
      </trkpt>
      <trkpt lat="44.13865" lon="3.25288">
        <ele>795.2</ele>
        <time>2021-10-14T12:34:53Z</time>
      </trkpt>
      <trkpt lat="44.13866" lon="3.25284">
        <ele>795.3</ele>
        <time>2021-10-14T12:34:54Z</time>
      </trkpt>
      <trkpt lat="44.13867" lon="3.2528">
        <ele>795.3</ele>
        <time>2021-10-14T12:34:55Z</time>
      </trkpt>
      <trkpt lat="44.13868" lon="3.25278">
        <ele>795.4</ele>
        <time>2021-10-14T12:34:56Z</time>
      </trkpt>
      <trkpt lat="44.13869" lon="3.25274">
        <ele>795.4</ele>
        <time>2021-10-14T12:34:57Z</time>
      </trkpt>
      <trkpt lat="44.1387" lon="3.25273">
        <ele>795.4</ele>
        <time>2021-10-14T12:34:58Z</time>
      </trkpt>
      <trkpt lat="44.13871" lon="3.25268">
        <ele>795.4</ele>
        <time>2021-10-14T12:35:00Z</time>
      </trkpt>
      <trkpt lat="44.13872" lon="3.25264">
        <ele>795.5</ele>
        <time>2021-10-14T12:35:01Z</time>
      </trkpt>
      <trkpt lat="44.13873" lon="3.2526">
        <ele>795.5</ele>
        <time>2021-10-14T12:35:02Z</time>
      </trkpt>
      <trkpt lat="44.13873" lon="3.25256">
        <ele>795.4</ele>
        <time>2021-10-14T12:35:03Z</time>
      </trkpt>
      <trkpt lat="44.13874" lon="3.25252">
        <ele>795.4</ele>
        <time>2021-10-14T12:35:04Z</time>
      </trkpt>
      <trkpt lat="44.13874" lon="3.25247">
        <ele>795.4</ele>
        <time>2021-10-14T12:35:06Z</time>
      </trkpt>
      <trkpt lat="44.13874" lon="3.25241">
        <ele>795.3</ele>
        <time>2021-10-14T12:35:07Z</time>
      </trkpt>
      <trkpt lat="44.13875" lon="3.25237">
        <ele>795.2</ele>
        <time>2021-10-14T12:35:08Z</time>
      </trkpt>
      <trkpt lat="44.13875" lon="3.25233">
        <ele>795.2</ele>
        <time>2021-10-14T12:35:10Z</time>
      </trkpt>
      <trkpt lat="44.13876" lon="3.25229">
        <ele>795.1</ele>
        <time>2021-10-14T12:35:11Z</time>
      </trkpt>
      <trkpt lat="44.13877" lon="3.25224">
        <ele>795</ele>
        <time>2021-10-14T12:35:12Z</time>
      </trkpt>
      <trkpt lat="44.13878" lon="3.25221">
        <ele>795</ele>
        <time>2021-10-14T12:35:13Z</time>
      </trkpt>
      <trkpt lat="44.13879" lon="3.25215">
        <ele>795</ele>
        <time>2021-10-14T12:35:15Z</time>
      </trkpt>
      <trkpt lat="44.1388" lon="3.25211">
        <ele>794.9</ele>
        <time>2021-10-14T12:35:16Z</time>
      </trkpt>
      <trkpt lat="44.1388" lon="3.25205">
        <ele>794.9</ele>
        <time>2021-10-14T12:35:17Z</time>
      </trkpt>
      <trkpt lat="44.13881" lon="3.25201">
        <ele>794.9</ele>
        <time>2021-10-14T12:35:18Z</time>
      </trkpt>
      <trkpt lat="44.13882" lon="3.25196">
        <ele>794.9</ele>
        <time>2021-10-14T12:35:19Z</time>
      </trkpt>
      <trkpt lat="44.13883" lon="3.25191">
        <ele>794.9</ele>
        <time>2021-10-14T12:35:20Z</time>
      </trkpt>
      <trkpt lat="44.13884" lon="3.25186">
        <ele>795</ele>
        <time>2021-10-14T12:35:21Z</time>
      </trkpt>
      <trkpt lat="44.13884" lon="3.2518">
        <ele>795</ele>
        <time>2021-10-14T12:35:23Z</time>
      </trkpt>
      <trkpt lat="44.13885" lon="3.25175">
        <ele>795.1</ele>
        <time>2021-10-14T12:35:24Z</time>
      </trkpt>
      <trkpt lat="44.13885" lon="3.25169">
        <ele>795.2</ele>
        <time>2021-10-14T12:35:25Z</time>
      </trkpt>
      <trkpt lat="44.13885" lon="3.2516">
        <ele>795.5</ele>
        <time>2021-10-14T12:35:27Z</time>
      </trkpt>
      <trkpt lat="44.13884" lon="3.25154">
        <ele>795.7</ele>
        <time>2021-10-14T12:35:29Z</time>
      </trkpt>
      <trkpt lat="44.13884" lon="3.2515">
        <ele>795.9</ele>
        <time>2021-10-14T12:35:30Z</time>
      </trkpt>
      <trkpt lat="44.13884" lon="3.25148">
        <ele>796</ele>
        <time>2021-10-14T12:35:31Z</time>
      </trkpt>
      <trkpt lat="44.13884" lon="3.25146">
        <ele>796.1</ele>
        <time>2021-10-14T12:35:32Z</time>
      </trkpt>
      <trkpt lat="44.13883" lon="3.25144">
        <ele>796.3</ele>
        <time>2021-10-14T12:35:34Z</time>
      </trkpt>
      <trkpt lat="44.13883" lon="3.25142">
        <ele>796.4</ele>
        <time>2021-10-14T12:35:35Z</time>
      </trkpt>
      <trkpt lat="44.13883" lon="3.2514">
        <ele>796.4</ele>
        <time>2021-10-14T12:35:36Z</time>
      </trkpt>
      <trkpt lat="44.13883" lon="3.25138">
        <ele>796.6</ele>
        <time>2021-10-14T12:35:38Z</time>
      </trkpt>
      <trkpt lat="44.13884" lon="3.25135">
        <ele>796.8</ele>
        <time>2021-10-14T12:35:39Z</time>
      </trkpt>
      <trkpt lat="44.13884" lon="3.25134">
        <ele>796.8</ele>
        <time>2021-10-14T12:35:40Z</time>
      </trkpt>
      <trkpt lat="44.13884" lon="3.25132">
        <ele>797</ele>
        <time>2021-10-14T12:35:42Z</time>
      </trkpt>
      <trkpt lat="44.13883" lon="3.2513">
        <ele>797.1</ele>
        <time>2021-10-14T12:35:43Z</time>
      </trkpt>
      <trkpt lat="44.13882" lon="3.25126">
        <ele>797.4</ele>
        <time>2021-10-14T12:35:44Z</time>
      </trkpt>
      <trkpt lat="44.13881" lon="3.25125">
        <ele>797.5</ele>
        <time>2021-10-14T12:35:45Z</time>
      </trkpt>
      <trkpt lat="44.1388" lon="3.25122">
        <ele>797.8</ele>
        <time>2021-10-14T12:35:47Z</time>
      </trkpt>
      <trkpt lat="44.13879" lon="3.2512">
        <ele>798</ele>
        <time>2021-10-14T12:35:48Z</time>
      </trkpt>
      <trkpt lat="44.13877" lon="3.25116">
        <ele>798.4</ele>
        <time>2021-10-14T12:35:50Z</time>
      </trkpt>
      <trkpt lat="44.13877" lon="3.25112">
        <ele>798.7</ele>
        <time>2021-10-14T12:35:51Z</time>
      </trkpt>
      <trkpt lat="44.13877" lon="3.25111">
        <ele>798.8</ele>
        <time>2021-10-14T12:35:52Z</time>
      </trkpt>
      <trkpt lat="44.13877" lon="3.25108">
        <ele>799</ele>
        <time>2021-10-14T12:35:53Z</time>
      </trkpt>
      <trkpt lat="44.13877" lon="3.25104">
        <ele>799.3</ele>
        <time>2021-10-14T12:35:55Z</time>
      </trkpt>
      <trkpt lat="44.13878" lon="3.251">
        <ele>799.6</ele>
        <time>2021-10-14T12:35:56Z</time>
      </trkpt>
      <trkpt lat="44.13879" lon="3.25097">
        <ele>799.8</ele>
        <time>2021-10-14T12:35:57Z</time>
      </trkpt>
      <trkpt lat="44.1388" lon="3.25094">
        <ele>800</ele>
        <time>2021-10-14T12:35:59Z</time>
      </trkpt>
      <trkpt lat="44.13881" lon="3.2509">
        <ele>800.3</ele>
        <time>2021-10-14T12:36:00Z</time>
      </trkpt>
      <trkpt lat="44.13882" lon="3.25088">
        <ele>800.4</ele>
        <time>2021-10-14T12:36:01Z</time>
      </trkpt>
      <trkpt lat="44.13884" lon="3.25082">
        <ele>800.8</ele>
        <time>2021-10-14T12:36:03Z</time>
      </trkpt>
      <trkpt lat="44.13885" lon="3.2508">
        <ele>800.9</ele>
        <time>2021-10-14T12:36:04Z</time>
      </trkpt>
      <trkpt lat="44.13886" lon="3.25078">
        <ele>801.1</ele>
        <time>2021-10-14T12:36:05Z</time>
      </trkpt>
      <trkpt lat="44.13887" lon="3.25074">
        <ele>801.3</ele>
        <time>2021-10-14T12:36:06Z</time>
      </trkpt>
      <trkpt lat="44.13889" lon="3.2507">
        <ele>801.5</ele>
        <time>2021-10-14T12:36:07Z</time>
      </trkpt>
      <trkpt lat="44.1389" lon="3.25067">
        <ele>801.7</ele>
        <time>2021-10-14T12:36:08Z</time>
      </trkpt>
      <trkpt lat="44.13891" lon="3.25061">
        <ele>801.9</ele>
        <time>2021-10-14T12:36:10Z</time>
      </trkpt>
      <trkpt lat="44.13892" lon="3.2506">
        <ele>802</ele>
        <time>2021-10-14T12:36:11Z</time>
      </trkpt>
      <trkpt lat="44.13893" lon="3.25058">
        <ele>802</ele>
        <time>2021-10-14T12:36:12Z</time>
      </trkpt>
      <trkpt lat="44.13895" lon="3.25056">
        <ele>802.2</ele>
        <time>2021-10-14T12:36:13Z</time>
      </trkpt>
      <trkpt lat="44.13897" lon="3.25052">
        <ele>802.3</ele>
        <time>2021-10-14T12:36:15Z</time>
      </trkpt>
      <trkpt lat="44.13899" lon="3.2505">
        <ele>802.4</ele>
        <time>2021-10-14T12:36:16Z</time>
      </trkpt>
      <trkpt lat="44.139" lon="3.25049">
        <ele>802.5</ele>
        <time>2021-10-14T12:36:17Z</time>
      </trkpt>
      <trkpt lat="44.13904" lon="3.25048">
        <ele>802.7</ele>
        <time>2021-10-14T12:36:19Z</time>
      </trkpt>
      <trkpt lat="44.13905" lon="3.25047">
        <ele>802.8</ele>
        <time>2021-10-14T12:36:20Z</time>
      </trkpt>
      <trkpt lat="44.13907" lon="3.25046">
        <ele>802.9</ele>
        <time>2021-10-14T12:36:21Z</time>
      </trkpt>
      <trkpt lat="44.13909" lon="3.25045">
        <ele>803</ele>
        <time>2021-10-14T12:36:23Z</time>
      </trkpt>
      <trkpt lat="44.13913" lon="3.25044">
        <ele>803.2</ele>
        <time>2021-10-14T12:36:24Z</time>
      </trkpt>
      <trkpt lat="44.13913" lon="3.25044">
        <ele>803.3</ele>
        <time>2021-10-14T12:36:25Z</time>
      </trkpt>
      <trkpt lat="44.13915" lon="3.25043">
        <ele>803.4</ele>
        <time>2021-10-14T12:36:26Z</time>
      </trkpt>
      <trkpt lat="44.13917" lon="3.25041">
        <ele>803.5</ele>
        <time>2021-10-14T12:36:27Z</time>
      </trkpt>
      <trkpt lat="44.13919" lon="3.25038">
        <ele>803.7</ele>
        <time>2021-10-14T12:36:29Z</time>
      </trkpt>
      <trkpt lat="44.1392" lon="3.25037">
        <ele>803.8</ele>
        <time>2021-10-14T12:36:30Z</time>
      </trkpt>
      <trkpt lat="44.13922" lon="3.25032">
        <ele>804</ele>
        <time>2021-10-14T12:36:31Z</time>
      </trkpt>
      <trkpt lat="44.13923" lon="3.25031">
        <ele>804.1</ele>
        <time>2021-10-14T12:36:32Z</time>
      </trkpt>
      <trkpt lat="44.13924" lon="3.25028">
        <ele>804.2</ele>
        <time>2021-10-14T12:36:33Z</time>
      </trkpt>
      <trkpt lat="44.13926" lon="3.25025">
        <ele>804.4</ele>
        <time>2021-10-14T12:36:35Z</time>
      </trkpt>
      <trkpt lat="44.13927" lon="3.25021">
        <ele>804.5</ele>
        <time>2021-10-14T12:36:36Z</time>
      </trkpt>
      <trkpt lat="44.13929" lon="3.25017">
        <ele>804.7</ele>
        <time>2021-10-14T12:36:38Z</time>
      </trkpt>
      <trkpt lat="44.13931" lon="3.25013">
        <ele>804.9</ele>
        <time>2021-10-14T12:36:39Z</time>
      </trkpt>
      <trkpt lat="44.13932" lon="3.25009">
        <ele>805</ele>
        <time>2021-10-14T12:36:40Z</time>
      </trkpt>
      <trkpt lat="44.13934" lon="3.25006">
        <ele>805.1</ele>
        <time>2021-10-14T12:36:42Z</time>
      </trkpt>
      <trkpt lat="44.13937" lon="3.25004">
        <ele>805.3</ele>
        <time>2021-10-14T12:36:43Z</time>
      </trkpt>
      <trkpt lat="44.13938" lon="3.25003">
        <ele>805.4</ele>
        <time>2021-10-14T12:36:44Z</time>
      </trkpt>
      <trkpt lat="44.13939" lon="3.25">
        <ele>805.5</ele>
        <time>2021-10-14T12:36:45Z</time>
      </trkpt>
      <trkpt lat="44.13942" lon="3.24998">
        <ele>805.6</ele>
        <time>2021-10-14T12:36:47Z</time>
      </trkpt>
      <trkpt lat="44.13944" lon="3.24994">
        <ele>805.8</ele>
        <time>2021-10-14T12:36:48Z</time>
      </trkpt>
      <trkpt lat="44.13945" lon="3.24993">
        <ele>805.8</ele>
        <time>2021-10-14T12:36:49Z</time>
      </trkpt>
      <trkpt lat="44.13947" lon="3.2499">
        <ele>806</ele>
        <time>2021-10-14T12:36:50Z</time>
      </trkpt>
      <trkpt lat="44.13951" lon="3.24986">
        <ele>806.2</ele>
        <time>2021-10-14T12:36:52Z</time>
      </trkpt>
      <trkpt lat="44.13953" lon="3.24984">
        <ele>806.3</ele>
        <time>2021-10-14T12:36:53Z</time>
      </trkpt>
      <trkpt lat="44.13957" lon="3.2498">
        <ele>806.5</ele>
        <time>2021-10-14T12:36:55Z</time>
      </trkpt>
      <trkpt lat="44.13959" lon="3.24977">
        <ele>806.7</ele>
        <time>2021-10-14T12:36:56Z</time>
      </trkpt>
      <trkpt lat="44.13961" lon="3.24975">
        <ele>806.8</ele>
        <time>2021-10-14T12:36:57Z</time>
      </trkpt>
      <trkpt lat="44.13964" lon="3.24972">
        <ele>807.1</ele>
        <time>2021-10-14T12:36:59Z</time>
      </trkpt>
      <trkpt lat="44.13969" lon="3.24969">
        <ele>807.4</ele>
        <time>2021-10-14T12:37:01Z</time>
      </trkpt>
      <trkpt lat="44.1397" lon="3.24967">
        <ele>807.6</ele>
        <time>2021-10-14T12:37:02Z</time>
      </trkpt>
      <trkpt lat="44.13972" lon="3.24966">
        <ele>807.7</ele>
        <time>2021-10-14T12:37:03Z</time>
      </trkpt>
      <trkpt lat="44.13974" lon="3.24963">
        <ele>807.9</ele>
        <time>2021-10-14T12:37:04Z</time>
      </trkpt>
      <trkpt lat="44.13977" lon="3.24961">
        <ele>808.2</ele>
        <time>2021-10-14T12:37:05Z</time>
      </trkpt>
      <trkpt lat="44.13978" lon="3.2496">
        <ele>808.2</ele>
        <time>2021-10-14T12:37:06Z</time>
      </trkpt>
      <trkpt lat="44.13979" lon="3.24958">
        <ele>808.4</ele>
        <time>2021-10-14T12:37:07Z</time>
      </trkpt>
      <trkpt lat="44.13982" lon="3.24954">
        <ele>808.7</ele>
        <time>2021-10-14T12:37:09Z</time>
      </trkpt>
      <trkpt lat="44.13985" lon="3.2495">
        <ele>808.9</ele>
        <time>2021-10-14T12:37:10Z</time>
      </trkpt>
      <trkpt lat="44.13986" lon="3.24949">
        <ele>809</ele>
        <time>2021-10-14T12:37:11Z</time>
      </trkpt>
      <trkpt lat="44.13988" lon="3.24946">
        <ele>809.1</ele>
        <time>2021-10-14T12:37:13Z</time>
      </trkpt>
      <trkpt lat="44.13991" lon="3.24943">
        <ele>809.2</ele>
        <time>2021-10-14T12:37:14Z</time>
      </trkpt>
      <trkpt lat="44.13993" lon="3.2494">
        <ele>809.3</ele>
        <time>2021-10-14T12:37:15Z</time>
      </trkpt>
      <trkpt lat="44.13994" lon="3.24939">
        <ele>809.3</ele>
        <time>2021-10-14T12:37:16Z</time>
      </trkpt>
      <trkpt lat="44.13997" lon="3.24937">
        <ele>809.4</ele>
        <time>2021-10-14T12:37:18Z</time>
      </trkpt>
      <trkpt lat="44.13999" lon="3.24933">
        <ele>809.5</ele>
        <time>2021-10-14T12:37:19Z</time>
      </trkpt>
      <trkpt lat="44.14001" lon="3.24929">
        <ele>809.6</ele>
        <time>2021-10-14T12:37:20Z</time>
      </trkpt>
      <trkpt lat="44.14002" lon="3.24928">
        <ele>809.6</ele>
        <time>2021-10-14T12:37:21Z</time>
      </trkpt>
      <trkpt lat="44.14005" lon="3.24923">
        <ele>809.8</ele>
        <time>2021-10-14T12:37:23Z</time>
      </trkpt>
      <trkpt lat="44.14007" lon="3.24918">
        <ele>809.9</ele>
        <time>2021-10-14T12:37:24Z</time>
      </trkpt>
      <trkpt lat="44.14008" lon="3.24916">
        <ele>810</ele>
        <time>2021-10-14T12:37:25Z</time>
      </trkpt>
      <trkpt lat="44.14009" lon="3.24912">
        <ele>810.1</ele>
        <time>2021-10-14T12:37:27Z</time>
      </trkpt>
      <trkpt lat="44.14012" lon="3.24908">
        <ele>810.2</ele>
        <time>2021-10-14T12:37:28Z</time>
      </trkpt>
      <trkpt lat="44.14013" lon="3.24903">
        <ele>810.4</ele>
        <time>2021-10-14T12:37:29Z</time>
      </trkpt>
      <trkpt lat="44.14014" lon="3.24902">
        <ele>810.4</ele>
        <time>2021-10-14T12:37:30Z</time>
      </trkpt>
      <trkpt lat="44.14015" lon="3.24898">
        <ele>810.6</ele>
        <time>2021-10-14T12:37:31Z</time>
      </trkpt>
      <trkpt lat="44.14016" lon="3.24894">
        <ele>810.7</ele>
        <time>2021-10-14T12:37:32Z</time>
      </trkpt>
      <trkpt lat="44.14017" lon="3.24889">
        <ele>810.8</ele>
        <time>2021-10-14T12:37:34Z</time>
      </trkpt>
      <trkpt lat="44.14017" lon="3.24884">
        <ele>811</ele>
        <time>2021-10-14T12:37:35Z</time>
      </trkpt>
      <trkpt lat="44.14018" lon="3.24879">
        <ele>811.2</ele>
        <time>2021-10-14T12:37:36Z</time>
      </trkpt>
      <trkpt lat="44.14019" lon="3.24875">
        <ele>811.3</ele>
        <time>2021-10-14T12:37:37Z</time>
      </trkpt>
      <trkpt lat="44.14019" lon="3.24869">
        <ele>811.5</ele>
        <time>2021-10-14T12:37:38Z</time>
      </trkpt>
      <trkpt lat="44.14019" lon="3.24863">
        <ele>811.7</ele>
        <time>2021-10-14T12:37:40Z</time>
      </trkpt>
      <trkpt lat="44.14019" lon="3.24857">
        <ele>811.8</ele>
        <time>2021-10-14T12:37:41Z</time>
      </trkpt>
      <trkpt lat="44.14018" lon="3.24852">
        <ele>811.9</ele>
        <time>2021-10-14T12:37:42Z</time>
      </trkpt>
      <trkpt lat="44.14017" lon="3.24848">
        <ele>811.9</ele>
        <time>2021-10-14T12:37:43Z</time>
      </trkpt>
      <trkpt lat="44.14016" lon="3.24844">
        <ele>811.9</ele>
        <time>2021-10-14T12:37:44Z</time>
      </trkpt>
      <trkpt lat="44.14011" lon="3.2484">
        <ele>812</ele>
        <time>2021-10-14T12:37:46Z</time>
      </trkpt>
      <trkpt lat="44.14009" lon="3.24839">
        <ele>812</ele>
        <time>2021-10-14T12:37:47Z</time>
      </trkpt>
      <trkpt lat="44.14007" lon="3.24839">
        <ele>812</ele>
        <time>2021-10-14T12:37:48Z</time>
      </trkpt>
      <trkpt lat="44.14004" lon="3.24838">
        <ele>812</ele>
        <time>2021-10-14T12:37:49Z</time>
      </trkpt>
      <trkpt lat="44.14001" lon="3.24839">
        <ele>812</ele>
        <time>2021-10-14T12:37:50Z</time>
      </trkpt>
      <trkpt lat="44.13998" lon="3.24839">
        <ele>812</ele>
        <time>2021-10-14T12:37:51Z</time>
      </trkpt>
      <trkpt lat="44.13994" lon="3.24837">
        <ele>811.9</ele>
        <time>2021-10-14T12:37:53Z</time>
      </trkpt>
      <trkpt lat="44.13989" lon="3.24836">
        <ele>811.9</ele>
        <time>2021-10-14T12:37:54Z</time>
      </trkpt>
      <trkpt lat="44.13985" lon="3.24834">
        <ele>811.9</ele>
        <time>2021-10-14T12:37:55Z</time>
      </trkpt>
      <trkpt lat="44.13976" lon="3.24831">
        <ele>811.7</ele>
        <time>2021-10-14T12:37:57Z</time>
      </trkpt>
      <trkpt lat="44.13972" lon="3.24833">
        <ele>811.5</ele>
        <time>2021-10-14T12:37:59Z</time>
      </trkpt>
      <trkpt lat="44.13963" lon="3.24829">
        <ele>811.2</ele>
        <time>2021-10-14T12:38:00Z</time>
      </trkpt>
      <trkpt lat="44.13958" lon="3.2483">
        <ele>811</ele>
        <time>2021-10-14T12:38:02Z</time>
      </trkpt>
      <trkpt lat="44.13953" lon="3.24824">
        <ele>810.8</ele>
        <time>2021-10-14T12:38:03Z</time>
      </trkpt>
      <trkpt lat="44.13949" lon="3.24822">
        <ele>810.7</ele>
        <time>2021-10-14T12:38:04Z</time>
      </trkpt>
      <trkpt lat="44.13948" lon="3.24819">
        <ele>810.7</ele>
        <time>2021-10-14T12:38:05Z</time>
      </trkpt>
      <trkpt lat="44.13945" lon="3.24816">
        <ele>810.7</ele>
        <time>2021-10-14T12:38:07Z</time>
      </trkpt>
      <trkpt lat="44.1394" lon="3.24811">
        <ele>810.6</ele>
        <time>2021-10-14T12:38:08Z</time>
      </trkpt>
      <trkpt lat="44.13935" lon="3.24807">
        <ele>810.6</ele>
        <time>2021-10-14T12:38:10Z</time>
      </trkpt>
      <trkpt lat="44.13931" lon="3.24803">
        <ele>810.5</ele>
        <time>2021-10-14T12:38:11Z</time>
      </trkpt>
      <trkpt lat="44.13927" lon="3.24799">
        <ele>810.4</ele>
        <time>2021-10-14T12:38:12Z</time>
      </trkpt>
      <trkpt lat="44.13922" lon="3.24794">
        <ele>810.3</ele>
        <time>2021-10-14T12:38:13Z</time>
      </trkpt>
      <trkpt lat="44.13917" lon="3.24787">
        <ele>810.1</ele>
        <time>2021-10-14T12:38:15Z</time>
      </trkpt>
      <trkpt lat="44.13912" lon="3.24781">
        <ele>810.1</ele>
        <time>2021-10-14T12:38:16Z</time>
      </trkpt>
      <trkpt lat="44.13905" lon="3.24774">
        <ele>809.9</ele>
        <time>2021-10-14T12:38:17Z</time>
      </trkpt>
      <trkpt lat="44.13901" lon="3.24766">
        <ele>809.8</ele>
        <time>2021-10-14T12:38:19Z</time>
      </trkpt>
      <trkpt lat="44.13901" lon="3.24759">
        <ele>809.6</ele>
        <time>2021-10-14T12:38:20Z</time>
      </trkpt>
      <trkpt lat="44.139" lon="3.24751">
        <ele>809.5</ele>
        <time>2021-10-14T12:38:21Z</time>
      </trkpt>
      <trkpt lat="44.13901" lon="3.24742">
        <ele>809.3</ele>
        <time>2021-10-14T12:38:23Z</time>
      </trkpt>
      <trkpt lat="44.13904" lon="3.24733">
        <ele>809.2</ele>
        <time>2021-10-14T12:38:24Z</time>
      </trkpt>
      <trkpt lat="44.13907" lon="3.24726">
        <ele>809.1</ele>
        <time>2021-10-14T12:38:26Z</time>
      </trkpt>
      <trkpt lat="44.13908" lon="3.24721">
        <ele>809.1</ele>
        <time>2021-10-14T12:38:27Z</time>
      </trkpt>
      <trkpt lat="44.1391" lon="3.24716">
        <ele>809.1</ele>
        <time>2021-10-14T12:38:28Z</time>
      </trkpt>
      <trkpt lat="44.13911" lon="3.2471">
        <ele>809.1</ele>
        <time>2021-10-14T12:38:29Z</time>
      </trkpt>
      <trkpt lat="44.13913" lon="3.24703">
        <ele>809.1</ele>
        <time>2021-10-14T12:38:31Z</time>
      </trkpt>
      <trkpt lat="44.13913" lon="3.24699">
        <ele>809.1</ele>
        <time>2021-10-14T12:38:32Z</time>
      </trkpt>
      <trkpt lat="44.13914" lon="3.24694">
        <ele>809.1</ele>
        <time>2021-10-14T12:38:33Z</time>
      </trkpt>
      <trkpt lat="44.13914" lon="3.24689">
        <ele>809.1</ele>
        <time>2021-10-14T12:38:34Z</time>
      </trkpt>
      <trkpt lat="44.13916" lon="3.24683">
        <ele>809</ele>
        <time>2021-10-14T12:38:36Z</time>
      </trkpt>
      <trkpt lat="44.13917" lon="3.24679">
        <ele>809</ele>
        <time>2021-10-14T12:38:37Z</time>
      </trkpt>
      <trkpt lat="44.1392" lon="3.24674">
        <ele>808.9</ele>
        <time>2021-10-14T12:38:38Z</time>
      </trkpt>
      <trkpt lat="44.13924" lon="3.24671">
        <ele>808.8</ele>
        <time>2021-10-14T12:38:39Z</time>
      </trkpt>
      <trkpt lat="44.13928" lon="3.24669">
        <ele>808.7</ele>
        <time>2021-10-14T12:38:41Z</time>
      </trkpt>
      <trkpt lat="44.13934" lon="3.2467">
        <ele>808.6</ele>
        <time>2021-10-14T12:38:42Z</time>
      </trkpt>
      <trkpt lat="44.13937" lon="3.24672">
        <ele>808.4</ele>
        <time>2021-10-14T12:38:43Z</time>
      </trkpt>
      <trkpt lat="44.1394" lon="3.24677">
        <ele>808.3</ele>
        <time>2021-10-14T12:38:45Z</time>
      </trkpt>
      <trkpt lat="44.13945" lon="3.24682">
        <ele>808</ele>
        <time>2021-10-14T12:38:46Z</time>
      </trkpt>
      <trkpt lat="44.13948" lon="3.24685">
        <ele>807.8</ele>
        <time>2021-10-14T12:38:47Z</time>
      </trkpt>
      <trkpt lat="44.13952" lon="3.24689">
        <ele>807.6</ele>
        <time>2021-10-14T12:38:49Z</time>
      </trkpt>
      <trkpt lat="44.13955" lon="3.24692">
        <ele>807.4</ele>
        <time>2021-10-14T12:38:50Z</time>
      </trkpt>
      <trkpt lat="44.13959" lon="3.24696">
        <ele>807.1</ele>
        <time>2021-10-14T12:38:51Z</time>
      </trkpt>
      <trkpt lat="44.13964" lon="3.247">
        <ele>806.9</ele>
        <time>2021-10-14T12:38:52Z</time>
      </trkpt>
      <trkpt lat="44.13977" lon="3.24706">
        <ele>806.5</ele>
        <time>2021-10-14T12:38:54Z</time>
      </trkpt>
      <trkpt lat="44.13983" lon="3.2471">
        <ele>806.4</ele>
        <time>2021-10-14T12:38:55Z</time>
      </trkpt>
      <trkpt lat="44.13994" lon="3.24709">
        <ele>806.4</ele>
        <time>2021-10-14T12:38:57Z</time>
      </trkpt>
      <trkpt lat="44.14003" lon="3.24701">
        <ele>806.5</ele>
        <time>2021-10-14T12:38:59Z</time>
      </trkpt>
      <trkpt lat="44.14006" lon="3.24695">
        <ele>806.6</ele>
        <time>2021-10-14T12:39:00Z</time>
      </trkpt>
      <trkpt lat="44.14012" lon="3.24682">
        <ele>806.8</ele>
        <time>2021-10-14T12:39:02Z</time>
      </trkpt>
      <trkpt lat="44.14014" lon="3.24675">
        <ele>806.9</ele>
        <time>2021-10-14T12:39:03Z</time>
      </trkpt>
      <trkpt lat="44.14018" lon="3.24667">
        <ele>807</ele>
        <time>2021-10-14T12:39:05Z</time>
      </trkpt>
      <trkpt lat="44.14023" lon="3.2466">
        <ele>807.2</ele>
        <time>2021-10-14T12:39:07Z</time>
      </trkpt>
      <trkpt lat="44.14026" lon="3.24655">
        <ele>807.4</ele>
        <time>2021-10-14T12:39:08Z</time>
      </trkpt>
      <trkpt lat="44.14029" lon="3.2465">
        <ele>807.5</ele>
        <time>2021-10-14T12:39:09Z</time>
      </trkpt>
      <trkpt lat="44.14033" lon="3.24645">
        <ele>807.7</ele>
        <time>2021-10-14T12:39:11Z</time>
      </trkpt>
      <trkpt lat="44.14032" lon="3.2465">
        <ele>807.8</ele>
        <time>2021-10-14T12:39:12Z</time>
      </trkpt>
      <trkpt lat="44.14038" lon="3.24644">
        <ele>808</ele>
        <time>2021-10-14T12:39:14Z</time>
      </trkpt>
      <trkpt lat="44.14043" lon="3.2464">
        <ele>808.2</ele>
        <time>2021-10-14T12:39:16Z</time>
      </trkpt>
      <trkpt lat="44.14047" lon="3.24637">
        <ele>808.4</ele>
        <time>2021-10-14T12:39:17Z</time>
      </trkpt>
      <trkpt lat="44.14051" lon="3.24634">
        <ele>808.5</ele>
        <time>2021-10-14T12:39:18Z</time>
      </trkpt>
      <trkpt lat="44.14055" lon="3.24631">
        <ele>808.6</ele>
        <time>2021-10-14T12:39:19Z</time>
      </trkpt>
      <trkpt lat="44.14059" lon="3.24628">
        <ele>808.7</ele>
        <time>2021-10-14T12:39:21Z</time>
      </trkpt>
      <trkpt lat="44.14064" lon="3.24624">
        <ele>808.8</ele>
        <time>2021-10-14T12:39:22Z</time>
      </trkpt>
      <trkpt lat="44.14067" lon="3.24621">
        <ele>808.8</ele>
        <time>2021-10-14T12:39:23Z</time>
      </trkpt>
      <trkpt lat="44.14073" lon="3.24617">
        <ele>808.9</ele>
        <time>2021-10-14T12:39:25Z</time>
      </trkpt>
      <trkpt lat="44.14077" lon="3.24613">
        <ele>809.1</ele>
        <time>2021-10-14T12:39:26Z</time>
      </trkpt>
      <trkpt lat="44.14082" lon="3.24606">
        <ele>809.3</ele>
        <time>2021-10-14T12:39:28Z</time>
      </trkpt>
      <trkpt lat="44.14087" lon="3.24598">
        <ele>809.5</ele>
        <time>2021-10-14T12:39:30Z</time>
      </trkpt>
      <trkpt lat="44.14091" lon="3.2459">
        <ele>809.7</ele>
        <time>2021-10-14T12:39:32Z</time>
      </trkpt>
      <trkpt lat="44.14096" lon="3.24584">
        <ele>809.8</ele>
        <time>2021-10-14T12:39:33Z</time>
      </trkpt>
      <trkpt lat="44.14098" lon="3.2458">
        <ele>809.8</ele>
        <time>2021-10-14T12:39:34Z</time>
      </trkpt>
      <trkpt lat="44.14101" lon="3.24576">
        <ele>809.8</ele>
        <time>2021-10-14T12:39:36Z</time>
      </trkpt>
      <trkpt lat="44.14103" lon="3.24571">
        <ele>809.9</ele>
        <time>2021-10-14T12:39:37Z</time>
      </trkpt>
      <trkpt lat="44.14109" lon="3.24564">
        <ele>809.9</ele>
        <time>2021-10-14T12:39:39Z</time>
      </trkpt>
      <trkpt lat="44.14114" lon="3.24557">
        <ele>809.9</ele>
        <time>2021-10-14T12:39:41Z</time>
      </trkpt>
      <trkpt lat="44.14119" lon="3.24552">
        <ele>809.9</ele>
        <time>2021-10-14T12:39:42Z</time>
      </trkpt>
      <trkpt lat="44.14122" lon="3.24549">
        <ele>809.8</ele>
        <time>2021-10-14T12:39:43Z</time>
      </trkpt>
      <trkpt lat="44.14125" lon="3.24546">
        <ele>809.8</ele>
        <time>2021-10-14T12:39:44Z</time>
      </trkpt>
      <trkpt lat="44.14129" lon="3.24542">
        <ele>809.8</ele>
        <time>2021-10-14T12:39:46Z</time>
      </trkpt>
      <trkpt lat="44.14136" lon="3.24536">
        <ele>809.7</ele>
        <time>2021-10-14T12:39:48Z</time>
      </trkpt>
      <trkpt lat="44.14139" lon="3.24533">
        <ele>809.7</ele>
        <time>2021-10-14T12:39:49Z</time>
      </trkpt>
      <trkpt lat="44.14143" lon="3.24528">
        <ele>809.7</ele>
        <time>2021-10-14T12:39:50Z</time>
      </trkpt>
      <trkpt lat="44.14147" lon="3.24524">
        <ele>809.7</ele>
        <time>2021-10-14T12:39:51Z</time>
      </trkpt>
      <trkpt lat="44.14152" lon="3.2452">
        <ele>809.7</ele>
        <time>2021-10-14T12:39:52Z</time>
      </trkpt>
      <trkpt lat="44.14157" lon="3.24515">
        <ele>809.7</ele>
        <time>2021-10-14T12:39:54Z</time>
      </trkpt>
      <trkpt lat="44.14163" lon="3.24508">
        <ele>809.9</ele>
        <time>2021-10-14T12:39:56Z</time>
      </trkpt>
      <trkpt lat="44.14167" lon="3.24504">
        <ele>810</ele>
        <time>2021-10-14T12:39:57Z</time>
      </trkpt>
      <trkpt lat="44.14171" lon="3.245">
        <ele>810.2</ele>
        <time>2021-10-14T12:39:58Z</time>
      </trkpt>
      <trkpt lat="44.14176" lon="3.24496">
        <ele>810.4</ele>
        <time>2021-10-14T12:40:00Z</time>
      </trkpt>
      <trkpt lat="44.14182" lon="3.2449">
        <ele>810.7</ele>
        <time>2021-10-14T12:40:02Z</time>
      </trkpt>
      <trkpt lat="44.14186" lon="3.24486">
        <ele>810.9</ele>
        <time>2021-10-14T12:40:03Z</time>
      </trkpt>
      <trkpt lat="44.14191" lon="3.24481">
        <ele>811.1</ele>
        <time>2021-10-14T12:40:05Z</time>
      </trkpt>
      <trkpt lat="44.14193" lon="3.24478">
        <ele>811.2</ele>
        <time>2021-10-14T12:40:06Z</time>
      </trkpt>
      <trkpt lat="44.14198" lon="3.24474">
        <ele>811.4</ele>
        <time>2021-10-14T12:40:07Z</time>
      </trkpt>
      <trkpt lat="44.14201" lon="3.2447">
        <ele>811.5</ele>
        <time>2021-10-14T12:40:09Z</time>
      </trkpt>
      <trkpt lat="44.14207" lon="3.24464">
        <ele>811.8</ele>
        <time>2021-10-14T12:40:11Z</time>
      </trkpt>
      <trkpt lat="44.14213" lon="3.24458">
        <ele>812.1</ele>
        <time>2021-10-14T12:40:13Z</time>
      </trkpt>
      <trkpt lat="44.14219" lon="3.24452">
        <ele>812.4</ele>
        <time>2021-10-14T12:40:14Z</time>
      </trkpt>
      <trkpt lat="44.14222" lon="3.24448">
        <ele>812.6</ele>
        <time>2021-10-14T12:40:16Z</time>
      </trkpt>
      <trkpt lat="44.14225" lon="3.24445">
        <ele>812.8</ele>
        <time>2021-10-14T12:40:17Z</time>
      </trkpt>
      <trkpt lat="44.14228" lon="3.24442">
        <ele>813</ele>
        <time>2021-10-14T12:40:18Z</time>
      </trkpt>
      <trkpt lat="44.14231" lon="3.24439">
        <ele>813.2</ele>
        <time>2021-10-14T12:40:19Z</time>
      </trkpt>
      <trkpt lat="44.14234" lon="3.24434">
        <ele>813.5</ele>
        <time>2021-10-14T12:40:20Z</time>
      </trkpt>
      <trkpt lat="44.14238" lon="3.2443">
        <ele>813.8</ele>
        <time>2021-10-14T12:40:22Z</time>
      </trkpt>
      <trkpt lat="44.14241" lon="3.24427">
        <ele>814</ele>
        <time>2021-10-14T12:40:23Z</time>
      </trkpt>
      <trkpt lat="44.14245" lon="3.24423">
        <ele>814.3</ele>
        <time>2021-10-14T12:40:25Z</time>
      </trkpt>
      <trkpt lat="44.14249" lon="3.24419">
        <ele>814.6</ele>
        <time>2021-10-14T12:40:26Z</time>
      </trkpt>
      <trkpt lat="44.14252" lon="3.24416">
        <ele>814.9</ele>
        <time>2021-10-14T12:40:28Z</time>
      </trkpt>
      <trkpt lat="44.14255" lon="3.24414">
        <ele>815.1</ele>
        <time>2021-10-14T12:40:30Z</time>
      </trkpt>
      <trkpt lat="44.14258" lon="3.24412">
        <ele>815.3</ele>
        <time>2021-10-14T12:40:31Z</time>
      </trkpt>
      <trkpt lat="44.14262" lon="3.24408">
        <ele>815.6</ele>
        <time>2021-10-14T12:40:33Z</time>
      </trkpt>
      <trkpt lat="44.14265" lon="3.24406">
        <ele>815.7</ele>
        <time>2021-10-14T12:40:34Z</time>
      </trkpt>
      <trkpt lat="44.14267" lon="3.24403">
        <ele>815.9</ele>
        <time>2021-10-14T12:40:35Z</time>
      </trkpt>
      <trkpt lat="44.1427" lon="3.24401">
        <ele>816.2</ele>
        <time>2021-10-14T12:40:37Z</time>
      </trkpt>
      <trkpt lat="44.14271" lon="3.24399">
        <ele>816.2</ele>
        <time>2021-10-14T12:40:38Z</time>
      </trkpt>
      <trkpt lat="44.14275" lon="3.24395">
        <ele>816.5</ele>
        <time>2021-10-14T12:40:39Z</time>
      </trkpt>
      <trkpt lat="44.14278" lon="3.24392">
        <ele>816.7</ele>
        <time>2021-10-14T12:40:41Z</time>
      </trkpt>
      <trkpt lat="44.14281" lon="3.24387">
        <ele>816.9</ele>
        <time>2021-10-14T12:40:42Z</time>
      </trkpt>
      <trkpt lat="44.14284" lon="3.24385">
        <ele>817.1</ele>
        <time>2021-10-14T12:40:43Z</time>
      </trkpt>
      <trkpt lat="44.14286" lon="3.24381">
        <ele>817.3</ele>
        <time>2021-10-14T12:40:45Z</time>
      </trkpt>
      <trkpt lat="44.1429" lon="3.24376">
        <ele>817.5</ele>
        <time>2021-10-14T12:40:46Z</time>
      </trkpt>
      <trkpt lat="44.14293" lon="3.24372">
        <ele>817.7</ele>
        <time>2021-10-14T12:40:47Z</time>
      </trkpt>
      <trkpt lat="44.14296" lon="3.24368">
        <ele>818</ele>
        <time>2021-10-14T12:40:49Z</time>
      </trkpt>
      <trkpt lat="44.14299" lon="3.24365">
        <ele>818.2</ele>
        <time>2021-10-14T12:40:50Z</time>
      </trkpt>
      <trkpt lat="44.14303" lon="3.24359">
        <ele>818.5</ele>
        <time>2021-10-14T12:40:51Z</time>
      </trkpt>
      <trkpt lat="44.14306" lon="3.24356">
        <ele>818.8</ele>
        <time>2021-10-14T12:40:53Z</time>
      </trkpt>
      <trkpt lat="44.14308" lon="3.24354">
        <ele>819</ele>
        <time>2021-10-14T12:40:54Z</time>
      </trkpt>
      <trkpt lat="44.14312" lon="3.2435">
        <ele>819.3</ele>
        <time>2021-10-14T12:40:56Z</time>
      </trkpt>
      <trkpt lat="44.14315" lon="3.24347">
        <ele>819.6</ele>
        <time>2021-10-14T12:40:57Z</time>
      </trkpt>
      <trkpt lat="44.14318" lon="3.24346">
        <ele>819.9</ele>
        <time>2021-10-14T12:40:59Z</time>
      </trkpt>
      <trkpt lat="44.1432" lon="3.24345">
        <ele>820</ele>
        <time>2021-10-14T12:41:00Z</time>
      </trkpt>
      <trkpt lat="44.14323" lon="3.24344">
        <ele>820.3</ele>
        <time>2021-10-14T12:41:02Z</time>
      </trkpt>
      <trkpt lat="44.14327" lon="3.24343">
        <ele>820.7</ele>
        <time>2021-10-14T12:41:03Z</time>
      </trkpt>
      <trkpt lat="44.14328" lon="3.24342">
        <ele>820.8</ele>
        <time>2021-10-14T12:41:04Z</time>
      </trkpt>
      <trkpt lat="44.14331" lon="3.2434">
        <ele>821.1</ele>
        <time>2021-10-14T12:41:05Z</time>
      </trkpt>
      <trkpt lat="44.14333" lon="3.24338">
        <ele>821.3</ele>
        <time>2021-10-14T12:41:07Z</time>
      </trkpt>
      <trkpt lat="44.14336" lon="3.24336">
        <ele>821.6</ele>
        <time>2021-10-14T12:41:08Z</time>
      </trkpt>
      <trkpt lat="44.14338" lon="3.24334">
        <ele>821.8</ele>
        <time>2021-10-14T12:41:09Z</time>
      </trkpt>
      <trkpt lat="44.14341" lon="3.24332">
        <ele>822</ele>
        <time>2021-10-14T12:41:11Z</time>
      </trkpt>
      <trkpt lat="44.14344" lon="3.24331">
        <ele>822.3</ele>
        <time>2021-10-14T12:41:13Z</time>
      </trkpt>
      <trkpt lat="44.14347" lon="3.24331">
        <ele>822.5</ele>
        <time>2021-10-14T12:41:14Z</time>
      </trkpt>
      <trkpt lat="44.14348" lon="3.24331">
        <ele>822.6</ele>
        <time>2021-10-14T12:41:15Z</time>
      </trkpt>
      <trkpt lat="44.14352" lon="3.24329">
        <ele>822.9</ele>
        <time>2021-10-14T12:41:17Z</time>
      </trkpt>
      <trkpt lat="44.14354" lon="3.24327">
        <ele>823.1</ele>
        <time>2021-10-14T12:41:18Z</time>
      </trkpt>
      <trkpt lat="44.14357" lon="3.24324">
        <ele>823.5</ele>
        <time>2021-10-14T12:41:20Z</time>
      </trkpt>
      <trkpt lat="44.1436" lon="3.24321">
        <ele>823.8</ele>
        <time>2021-10-14T12:41:21Z</time>
      </trkpt>
      <trkpt lat="44.14361" lon="3.2432">
        <ele>823.9</ele>
        <time>2021-10-14T12:41:22Z</time>
      </trkpt>
      <trkpt lat="44.14364" lon="3.24317">
        <ele>824.2</ele>
        <time>2021-10-14T12:41:23Z</time>
      </trkpt>
      <trkpt lat="44.14367" lon="3.24315">
        <ele>824.5</ele>
        <time>2021-10-14T12:41:24Z</time>
      </trkpt>
      <trkpt lat="44.14369" lon="3.24312">
        <ele>824.8</ele>
        <time>2021-10-14T12:41:25Z</time>
      </trkpt>
      <trkpt lat="44.14371" lon="3.2431">
        <ele>825</ele>
        <time>2021-10-14T12:41:27Z</time>
      </trkpt>
      <trkpt lat="44.14375" lon="3.24305">
        <ele>825.5</ele>
        <time>2021-10-14T12:41:28Z</time>
      </trkpt>
      <trkpt lat="44.14377" lon="3.24302">
        <ele>825.8</ele>
        <time>2021-10-14T12:41:30Z</time>
      </trkpt>
      <trkpt lat="44.1438" lon="3.24298">
        <ele>826.2</ele>
        <time>2021-10-14T12:41:31Z</time>
      </trkpt>
      <trkpt lat="44.14383" lon="3.24294">
        <ele>826.6</ele>
        <time>2021-10-14T12:41:33Z</time>
      </trkpt>
      <trkpt lat="44.14387" lon="3.24289">
        <ele>827</ele>
        <time>2021-10-14T12:41:35Z</time>
      </trkpt>
      <trkpt lat="44.14389" lon="3.24286">
        <ele>827.3</ele>
        <time>2021-10-14T12:41:36Z</time>
      </trkpt>
      <trkpt lat="44.14392" lon="3.24284">
        <ele>827.5</ele>
        <time>2021-10-14T12:41:37Z</time>
      </trkpt>
      <trkpt lat="44.14394" lon="3.24281">
        <ele>827.8</ele>
        <time>2021-10-14T12:41:38Z</time>
      </trkpt>
      <trkpt lat="44.14397" lon="3.24277">
        <ele>828.1</ele>
        <time>2021-10-14T12:41:39Z</time>
      </trkpt>
      <trkpt lat="44.144" lon="3.24272">
        <ele>828.4</ele>
        <time>2021-10-14T12:41:41Z</time>
      </trkpt>
      <trkpt lat="44.14403" lon="3.24269">
        <ele>828.7</ele>
        <time>2021-10-14T12:41:42Z</time>
      </trkpt>
      <trkpt lat="44.14407" lon="3.24265">
        <ele>829.1</ele>
        <time>2021-10-14T12:41:44Z</time>
      </trkpt>
      <trkpt lat="44.1441" lon="3.24261">
        <ele>829.4</ele>
        <time>2021-10-14T12:41:45Z</time>
      </trkpt>
      <trkpt lat="44.14414" lon="3.24258">
        <ele>829.7</ele>
        <time>2021-10-14T12:41:47Z</time>
      </trkpt>
      <trkpt lat="44.14416" lon="3.24255">
        <ele>829.9</ele>
        <time>2021-10-14T12:41:48Z</time>
      </trkpt>
      <trkpt lat="44.14418" lon="3.24252">
        <ele>830.1</ele>
        <time>2021-10-14T12:41:49Z</time>
      </trkpt>
      <trkpt lat="44.14421" lon="3.24248">
        <ele>830.4</ele>
        <time>2021-10-14T12:41:50Z</time>
      </trkpt>
      <trkpt lat="44.14423" lon="3.24246">
        <ele>830.6</ele>
        <time>2021-10-14T12:41:51Z</time>
      </trkpt>
      <trkpt lat="44.14426" lon="3.24243">
        <ele>830.8</ele>
        <time>2021-10-14T12:41:53Z</time>
      </trkpt>
      <trkpt lat="44.1443" lon="3.24239">
        <ele>831.1</ele>
        <time>2021-10-14T12:41:54Z</time>
      </trkpt>
      <trkpt lat="44.14435" lon="3.24235">
        <ele>831.5</ele>
        <time>2021-10-14T12:41:56Z</time>
      </trkpt>
      <trkpt lat="44.14439" lon="3.24231">
        <ele>831.8</ele>
        <time>2021-10-14T12:41:58Z</time>
      </trkpt>
      <trkpt lat="44.1444" lon="3.24229">
        <ele>832</ele>
        <time>2021-10-14T12:41:59Z</time>
      </trkpt>
      <trkpt lat="44.14442" lon="3.24227">
        <ele>832.1</ele>
        <time>2021-10-14T12:42:00Z</time>
      </trkpt>
      <trkpt lat="44.14445" lon="3.24225">
        <ele>832.3</ele>
        <time>2021-10-14T12:42:01Z</time>
      </trkpt>
      <trkpt lat="44.14448" lon="3.24223">
        <ele>832.6</ele>
        <time>2021-10-14T12:42:02Z</time>
      </trkpt>
      <trkpt lat="44.14451" lon="3.24221">
        <ele>832.8</ele>
        <time>2021-10-14T12:42:04Z</time>
      </trkpt>
      <trkpt lat="44.14453" lon="3.2422">
        <ele>833</ele>
        <time>2021-10-14T12:42:05Z</time>
      </trkpt>
      <trkpt lat="44.14458" lon="3.24217">
        <ele>833.4</ele>
        <time>2021-10-14T12:42:07Z</time>
      </trkpt>
      <trkpt lat="44.14462" lon="3.24216">
        <ele>833.7</ele>
        <time>2021-10-14T12:42:08Z</time>
      </trkpt>
      <trkpt lat="44.14465" lon="3.24216">
        <ele>833.9</ele>
        <time>2021-10-14T12:42:09Z</time>
      </trkpt>
      <trkpt lat="44.14468" lon="3.24216">
        <ele>834.1</ele>
        <time>2021-10-14T12:42:11Z</time>
      </trkpt>
      <trkpt lat="44.14471" lon="3.24218">
        <ele>834.3</ele>
        <time>2021-10-14T12:42:12Z</time>
      </trkpt>
      <trkpt lat="44.14472" lon="3.24218">
        <ele>834.4</ele>
        <time>2021-10-14T12:42:13Z</time>
      </trkpt>
      <trkpt lat="44.14476" lon="3.2422">
        <ele>834.6</ele>
        <time>2021-10-14T12:42:14Z</time>
      </trkpt>
      <trkpt lat="44.1448" lon="3.24221">
        <ele>834.9</ele>
        <time>2021-10-14T12:42:16Z</time>
      </trkpt>
      <trkpt lat="44.14485" lon="3.24223">
        <ele>835.1</ele>
        <time>2021-10-14T12:42:17Z</time>
      </trkpt>
      <trkpt lat="44.14488" lon="3.24224">
        <ele>835.3</ele>
        <time>2021-10-14T12:42:19Z</time>
      </trkpt>
      <trkpt lat="44.14491" lon="3.24225">
        <ele>835.4</ele>
        <time>2021-10-14T12:42:20Z</time>
      </trkpt>
      <trkpt lat="44.14495" lon="3.24225">
        <ele>835.5</ele>
        <time>2021-10-14T12:42:21Z</time>
      </trkpt>
      <trkpt lat="44.14499" lon="3.24225">
        <ele>835.6</ele>
        <time>2021-10-14T12:42:23Z</time>
      </trkpt>
      <trkpt lat="44.14502" lon="3.24224">
        <ele>835.7</ele>
        <time>2021-10-14T12:42:24Z</time>
      </trkpt>
      <trkpt lat="44.14505" lon="3.24222">
        <ele>835.7</ele>
        <time>2021-10-14T12:42:25Z</time>
      </trkpt>
      <trkpt lat="44.14508" lon="3.24219">
        <ele>836.1</ele>
        <time>2021-10-14T12:42:26Z</time>
      </trkpt>
      <trkpt lat="44.14508" lon="3.24218">
        <ele>836.1</ele>
        <time>2021-10-14T12:42:27Z</time>
      </trkpt>
      <trkpt lat="44.14509" lon="3.24215">
        <ele>836.1</ele>
        <time>2021-10-14T12:42:28Z</time>
      </trkpt>
      <trkpt lat="44.1451" lon="3.24211">
        <ele>836.2</ele>
        <time>2021-10-14T12:42:30Z</time>
      </trkpt>
      <trkpt lat="44.1451" lon="3.24207">
        <ele>836.3</ele>
        <time>2021-10-14T12:42:31Z</time>
      </trkpt>
      <trkpt lat="44.14509" lon="3.242">
        <ele>836.4</ele>
        <time>2021-10-14T12:42:32Z</time>
      </trkpt>
      <trkpt lat="44.14509" lon="3.24193">
        <ele>836.5</ele>
        <time>2021-10-14T12:42:34Z</time>
      </trkpt>
      <trkpt lat="44.14508" lon="3.24185">
        <ele>836.7</ele>
        <time>2021-10-14T12:42:35Z</time>
      </trkpt>
      <trkpt lat="44.14507" lon="3.24178">
        <ele>836.8</ele>
        <time>2021-10-14T12:42:37Z</time>
      </trkpt>
      <trkpt lat="44.14508" lon="3.24169">
        <ele>836.9</ele>
        <time>2021-10-14T12:42:38Z</time>
      </trkpt>
      <trkpt lat="44.14508" lon="3.24162">
        <ele>837.1</ele>
        <time>2021-10-14T12:42:39Z</time>
      </trkpt>
      <trkpt lat="44.14508" lon="3.24155">
        <ele>837.1</ele>
        <time>2021-10-14T12:42:41Z</time>
      </trkpt>
      <trkpt lat="44.14509" lon="3.24145">
        <ele>837.3</ele>
        <time>2021-10-14T12:42:43Z</time>
      </trkpt>
      <trkpt lat="44.14509" lon="3.2414">
        <ele>837.3</ele>
        <time>2021-10-14T12:42:44Z</time>
      </trkpt>
      <trkpt lat="44.1451" lon="3.2413">
        <ele>837.6</ele>
        <time>2021-10-14T12:42:46Z</time>
      </trkpt>
      <trkpt lat="44.1451" lon="3.24125">
        <ele>837.7</ele>
        <time>2021-10-14T12:42:47Z</time>
      </trkpt>
      <trkpt lat="44.14511" lon="3.2412">
        <ele>837.9</ele>
        <time>2021-10-14T12:42:48Z</time>
      </trkpt>
      <trkpt lat="44.14511" lon="3.24112">
        <ele>838.1</ele>
        <time>2021-10-14T12:42:49Z</time>
      </trkpt>
      <trkpt lat="44.14512" lon="3.24105">
        <ele>838.2</ele>
        <time>2021-10-14T12:42:50Z</time>
      </trkpt>
      <trkpt lat="44.14513" lon="3.24099">
        <ele>838.3</ele>
        <time>2021-10-14T12:42:51Z</time>
      </trkpt>
      <trkpt lat="44.14513" lon="3.24094">
        <ele>838.4</ele>
        <time>2021-10-14T12:42:52Z</time>
      </trkpt>
      <trkpt lat="44.14514" lon="3.24088">
        <ele>838.4</ele>
        <time>2021-10-14T12:42:54Z</time>
      </trkpt>
      <trkpt lat="44.14515" lon="3.24081">
        <ele>838.4</ele>
        <time>2021-10-14T12:42:55Z</time>
      </trkpt>
      <trkpt lat="44.14516" lon="3.24075">
        <ele>838.4</ele>
        <time>2021-10-14T12:42:56Z</time>
      </trkpt>
      <trkpt lat="44.14519" lon="3.24058">
        <ele>838.5</ele>
        <time>2021-10-14T12:42:58Z</time>
      </trkpt>
      <trkpt lat="44.1452" lon="3.2405">
        <ele>838.6</ele>
        <time>2021-10-14T12:42:59Z</time>
      </trkpt>
      <trkpt lat="44.1452" lon="3.24035">
        <ele>838.7</ele>
        <time>2021-10-14T12:43:01Z</time>
      </trkpt>
      <trkpt lat="44.1452" lon="3.24028">
        <ele>838.8</ele>
        <time>2021-10-14T12:43:02Z</time>
      </trkpt>
      <trkpt lat="44.14521" lon="3.24012">
        <ele>838.9</ele>
        <time>2021-10-14T12:43:04Z</time>
      </trkpt>
      <trkpt lat="44.14525" lon="3.24004">
        <ele>838.9</ele>
        <time>2021-10-14T12:43:05Z</time>
      </trkpt>
      <trkpt lat="44.14526" lon="3.23996">
        <ele>839</ele>
        <time>2021-10-14T12:43:07Z</time>
      </trkpt>
      <trkpt lat="44.14526" lon="3.23986">
        <ele>839</ele>
        <time>2021-10-14T12:43:08Z</time>
      </trkpt>
      <trkpt lat="44.14526" lon="3.23978">
        <ele>839.1</ele>
        <time>2021-10-14T12:43:10Z</time>
      </trkpt>
      <trkpt lat="44.14526" lon="3.23957">
        <ele>839.6</ele>
        <time>2021-10-14T12:43:12Z</time>
      </trkpt>
      <trkpt lat="44.14527" lon="3.23949">
        <ele>839.8</ele>
        <time>2021-10-14T12:43:13Z</time>
      </trkpt>
      <trkpt lat="44.14528" lon="3.23933">
        <ele>840.2</ele>
        <time>2021-10-14T12:43:15Z</time>
      </trkpt>
      <trkpt lat="44.14527" lon="3.23928">
        <ele>840.4</ele>
        <time>2021-10-14T12:43:16Z</time>
      </trkpt>
      <trkpt lat="44.14528" lon="3.23925">
        <ele>840.6</ele>
        <time>2021-10-14T12:43:17Z</time>
      </trkpt>
      <trkpt lat="44.14528" lon="3.23918">
        <ele>840.8</ele>
        <time>2021-10-14T12:43:18Z</time>
      </trkpt>
      <trkpt lat="44.14529" lon="3.23912">
        <ele>841.1</ele>
        <time>2021-10-14T12:43:20Z</time>
      </trkpt>
      <trkpt lat="44.14529" lon="3.23902">
        <ele>841.5</ele>
        <time>2021-10-14T12:43:22Z</time>
      </trkpt>
      <trkpt lat="44.1453" lon="3.23896">
        <ele>841.8</ele>
        <time>2021-10-14T12:43:23Z</time>
      </trkpt>
      <trkpt lat="44.14533" lon="3.23889">
        <ele>842.2</ele>
        <time>2021-10-14T12:43:25Z</time>
      </trkpt>
      <trkpt lat="44.14534" lon="3.23885">
        <ele>842.4</ele>
        <time>2021-10-14T12:43:26Z</time>
      </trkpt>
      <trkpt lat="44.14536" lon="3.23878">
        <ele>842.7</ele>
        <time>2021-10-14T12:43:28Z</time>
      </trkpt>
      <trkpt lat="44.14539" lon="3.2387">
        <ele>843.1</ele>
        <time>2021-10-14T12:43:30Z</time>
      </trkpt>
      <trkpt lat="44.14542" lon="3.23863">
        <ele>843.4</ele>
        <time>2021-10-14T12:43:31Z</time>
      </trkpt>
      <trkpt lat="44.14544" lon="3.23856">
        <ele>843.7</ele>
        <time>2021-10-14T12:43:33Z</time>
      </trkpt>
      <trkpt lat="44.14547" lon="3.23849">
        <ele>844</ele>
        <time>2021-10-14T12:43:34Z</time>
      </trkpt>
      <trkpt lat="44.1455" lon="3.23842">
        <ele>844.3</ele>
        <time>2021-10-14T12:43:35Z</time>
      </trkpt>
      <trkpt lat="44.14551" lon="3.23837">
        <ele>844.5</ele>
        <time>2021-10-14T12:43:37Z</time>
      </trkpt>
      <trkpt lat="44.14554" lon="3.2383">
        <ele>844.8</ele>
        <time>2021-10-14T12:43:38Z</time>
      </trkpt>
      <trkpt lat="44.14557" lon="3.23823">
        <ele>845.1</ele>
        <time>2021-10-14T12:43:40Z</time>
      </trkpt>
      <trkpt lat="44.14559" lon="3.23819">
        <ele>845.3</ele>
        <time>2021-10-14T12:43:41Z</time>
      </trkpt>
      <trkpt lat="44.14562" lon="3.23813">
        <ele>845.5</ele>
        <time>2021-10-14T12:43:42Z</time>
      </trkpt>
      <trkpt lat="44.14566" lon="3.23806">
        <ele>845.7</ele>
        <time>2021-10-14T12:43:44Z</time>
      </trkpt>
      <trkpt lat="44.14568" lon="3.238">
        <ele>845.8</ele>
        <time>2021-10-14T12:43:45Z</time>
      </trkpt>
      <trkpt lat="44.1457" lon="3.23794">
        <ele>845.9</ele>
        <time>2021-10-14T12:43:46Z</time>
      </trkpt>
      <trkpt lat="44.14572" lon="3.23789">
        <ele>846</ele>
        <time>2021-10-14T12:43:47Z</time>
      </trkpt>
      <trkpt lat="44.14575" lon="3.23783">
        <ele>846</ele>
        <time>2021-10-14T12:43:48Z</time>
      </trkpt>
      <trkpt lat="44.14577" lon="3.23778">
        <ele>846</ele>
        <time>2021-10-14T12:43:50Z</time>
      </trkpt>
      <trkpt lat="44.14581" lon="3.23773">
        <ele>846</ele>
        <time>2021-10-14T12:43:51Z</time>
      </trkpt>
      <trkpt lat="44.14588" lon="3.23762">
        <ele>845.9</ele>
        <time>2021-10-14T12:43:53Z</time>
      </trkpt>
      <trkpt lat="44.14595" lon="3.2375">
        <ele>845.7</ele>
        <time>2021-10-14T12:43:55Z</time>
      </trkpt>
      <trkpt lat="44.14602" lon="3.23735">
        <ele>845.3</ele>
        <time>2021-10-14T12:43:57Z</time>
      </trkpt>
      <trkpt lat="44.14605" lon="3.23728">
        <ele>845.1</ele>
        <time>2021-10-14T12:43:58Z</time>
      </trkpt>
      <trkpt lat="44.14611" lon="3.23712">
        <ele>844.5</ele>
        <time>2021-10-14T12:44:00Z</time>
      </trkpt>
      <trkpt lat="44.14619" lon="3.23699">
        <ele>844</ele>
        <time>2021-10-14T12:44:02Z</time>
      </trkpt>
      <trkpt lat="44.14624" lon="3.23692">
        <ele>843.7</ele>
        <time>2021-10-14T12:44:03Z</time>
      </trkpt>
      <trkpt lat="44.14629" lon="3.23688">
        <ele>843.5</ele>
        <time>2021-10-14T12:44:04Z</time>
      </trkpt>
      <trkpt lat="44.14641" lon="3.23678">
        <ele>843</ele>
        <time>2021-10-14T12:44:06Z</time>
      </trkpt>
      <trkpt lat="44.14651" lon="3.23667">
        <ele>842.6</ele>
        <time>2021-10-14T12:44:08Z</time>
      </trkpt>
      <trkpt lat="44.14653" lon="3.23659">
        <ele>842.2</ele>
        <time>2021-10-14T12:44:09Z</time>
      </trkpt>
      <trkpt lat="44.14649" lon="3.23638">
        <ele>841.2</ele>
        <time>2021-10-14T12:44:11Z</time>
      </trkpt>
      <trkpt lat="44.14645" lon="3.2363">
        <ele>840.8</ele>
        <time>2021-10-14T12:44:12Z</time>
      </trkpt>
      <trkpt lat="44.14639" lon="3.23618">
        <ele>840.6</ele>
        <time>2021-10-14T12:44:14Z</time>
      </trkpt>
      <trkpt lat="44.14631" lon="3.23604">
        <ele>840.3</ele>
        <time>2021-10-14T12:44:16Z</time>
      </trkpt>
      <trkpt lat="44.14626" lon="3.23597">
        <ele>840.1</ele>
        <time>2021-10-14T12:44:17Z</time>
      </trkpt>
      <trkpt lat="44.1462" lon="3.23591">
        <ele>839.8</ele>
        <time>2021-10-14T12:44:18Z</time>
      </trkpt>
      <trkpt lat="44.14614" lon="3.23587">
        <ele>839.6</ele>
        <time>2021-10-14T12:44:19Z</time>
      </trkpt>
      <trkpt lat="44.146" lon="3.23582">
        <ele>838.8</ele>
        <time>2021-10-14T12:44:21Z</time>
      </trkpt>
      <trkpt lat="44.14584" lon="3.23578">
        <ele>837.5</ele>
        <time>2021-10-14T12:44:23Z</time>
      </trkpt>
      <trkpt lat="44.14576" lon="3.23576">
        <ele>836.7</ele>
        <time>2021-10-14T12:44:24Z</time>
      </trkpt>
      <trkpt lat="44.14568" lon="3.23575">
        <ele>835.7</ele>
        <time>2021-10-14T12:44:25Z</time>
      </trkpt>
      <trkpt lat="44.14546" lon="3.23575">
        <ele>833</ele>
        <time>2021-10-14T12:44:27Z</time>
      </trkpt>
      <trkpt lat="44.14535" lon="3.23573">
        <ele>831.6</ele>
        <time>2021-10-14T12:44:28Z</time>
      </trkpt>
      <trkpt lat="44.14524" lon="3.23569">
        <ele>830.3</ele>
        <time>2021-10-14T12:44:29Z</time>
      </trkpt>
      <trkpt lat="44.14512" lon="3.23564">
        <ele>829.1</ele>
        <time>2021-10-14T12:44:30Z</time>
      </trkpt>
      <trkpt lat="44.14494" lon="3.23556">
        <ele>827.4</ele>
        <time>2021-10-14T12:44:32Z</time>
      </trkpt>
      <trkpt lat="44.14485" lon="3.23552">
        <ele>826.8</ele>
        <time>2021-10-14T12:44:33Z</time>
      </trkpt>
      <trkpt lat="44.14465" lon="3.23548">
        <ele>825.9</ele>
        <time>2021-10-14T12:44:35Z</time>
      </trkpt>
      <trkpt lat="44.14447" lon="3.23547">
        <ele>825</ele>
        <time>2021-10-14T12:44:37Z</time>
      </trkpt>
      <trkpt lat="44.14426" lon="3.23543">
        <ele>823.6</ele>
        <time>2021-10-14T12:44:39Z</time>
      </trkpt>
      <trkpt lat="44.14417" lon="3.23538">
        <ele>822.9</ele>
        <time>2021-10-14T12:44:40Z</time>
      </trkpt>
      <trkpt lat="44.14397" lon="3.23532">
        <ele>821.6</ele>
        <time>2021-10-14T12:44:42Z</time>
      </trkpt>
      <trkpt lat="44.14378" lon="3.23531">
        <ele>820.8</ele>
        <time>2021-10-14T12:44:44Z</time>
      </trkpt>
      <trkpt lat="44.14368" lon="3.23531">
        <ele>820.6</ele>
        <time>2021-10-14T12:44:45Z</time>
      </trkpt>
      <trkpt lat="44.14361" lon="3.23532">
        <ele>820.5</ele>
        <time>2021-10-14T12:44:46Z</time>
      </trkpt>
      <trkpt lat="44.14347" lon="3.23532">
        <ele>820.5</ele>
        <time>2021-10-14T12:44:48Z</time>
      </trkpt>
      <trkpt lat="44.14341" lon="3.23531">
        <ele>820.6</ele>
        <time>2021-10-14T12:44:49Z</time>
      </trkpt>
      <trkpt lat="44.14329" lon="3.23527">
        <ele>821</ele>
        <time>2021-10-14T12:44:51Z</time>
      </trkpt>
      <trkpt lat="44.14318" lon="3.23523">
        <ele>821.6</ele>
        <time>2021-10-14T12:44:53Z</time>
      </trkpt>
      <trkpt lat="44.14309" lon="3.23519">
        <ele>822.2</ele>
        <time>2021-10-14T12:44:55Z</time>
      </trkpt>
      <trkpt lat="44.14304" lon="3.23517">
        <ele>822.6</ele>
        <time>2021-10-14T12:44:56Z</time>
      </trkpt>
      <trkpt lat="44.143" lon="3.23515">
        <ele>822.8</ele>
        <time>2021-10-14T12:44:57Z</time>
      </trkpt>
      <trkpt lat="44.14297" lon="3.23512">
        <ele>823.1</ele>
        <time>2021-10-14T12:44:58Z</time>
      </trkpt>
      <trkpt lat="44.14294" lon="3.2351">
        <ele>823.3</ele>
        <time>2021-10-14T12:44:59Z</time>
      </trkpt>
      <trkpt lat="44.14288" lon="3.23507">
        <ele>823.9</ele>
        <time>2021-10-14T12:45:01Z</time>
      </trkpt>
      <trkpt lat="44.14281" lon="3.23505">
        <ele>824.4</ele>
        <time>2021-10-14T12:45:03Z</time>
      </trkpt>
      <trkpt lat="44.14278" lon="3.2351">
        <ele>824.8</ele>
        <time>2021-10-14T12:45:04Z</time>
      </trkpt>
      <trkpt lat="44.14274" lon="3.2351">
        <ele>825.1</ele>
        <time>2021-10-14T12:45:06Z</time>
      </trkpt>
      <trkpt lat="44.14269" lon="3.23508">
        <ele>825.5</ele>
        <time>2021-10-14T12:45:07Z</time>
      </trkpt>
      <trkpt lat="44.14263" lon="3.23506">
        <ele>826</ele>
        <time>2021-10-14T12:45:09Z</time>
      </trkpt>
      <trkpt lat="44.14258" lon="3.23505">
        <ele>826.5</ele>
        <time>2021-10-14T12:45:10Z</time>
      </trkpt>
      <trkpt lat="44.14254" lon="3.23503">
        <ele>826.9</ele>
        <time>2021-10-14T12:45:11Z</time>
      </trkpt>
      <trkpt lat="44.1425" lon="3.23503">
        <ele>827.2</ele>
        <time>2021-10-14T12:45:13Z</time>
      </trkpt>
      <trkpt lat="44.14247" lon="3.23502">
        <ele>827.5</ele>
        <time>2021-10-14T12:45:14Z</time>
      </trkpt>
      <trkpt lat="44.14243" lon="3.23501">
        <ele>827.8</ele>
        <time>2021-10-14T12:45:15Z</time>
      </trkpt>
      <trkpt lat="44.14238" lon="3.23501">
        <ele>828.2</ele>
        <time>2021-10-14T12:45:16Z</time>
      </trkpt>
      <trkpt lat="44.14234" lon="3.23501">
        <ele>828.6</ele>
        <time>2021-10-14T12:45:18Z</time>
      </trkpt>
      <trkpt lat="44.1423" lon="3.23502">
        <ele>828.9</ele>
        <time>2021-10-14T12:45:19Z</time>
      </trkpt>
      <trkpt lat="44.14224" lon="3.23503">
        <ele>829.4</ele>
        <time>2021-10-14T12:45:21Z</time>
      </trkpt>
      <trkpt lat="44.14217" lon="3.23505">
        <ele>829.9</ele>
        <time>2021-10-14T12:45:23Z</time>
      </trkpt>
      <trkpt lat="44.14211" lon="3.23506">
        <ele>830.2</ele>
        <time>2021-10-14T12:45:24Z</time>
      </trkpt>
      <trkpt lat="44.14207" lon="3.23507">
        <ele>830.4</ele>
        <time>2021-10-14T12:45:25Z</time>
      </trkpt>
      <trkpt lat="44.14203" lon="3.23508">
        <ele>830.7</ele>
        <time>2021-10-14T12:45:27Z</time>
      </trkpt>
      <trkpt lat="44.142" lon="3.23509">
        <ele>830.8</ele>
        <time>2021-10-14T12:45:28Z</time>
      </trkpt>
      <trkpt lat="44.14196" lon="3.2351">
        <ele>831</ele>
        <time>2021-10-14T12:45:29Z</time>
      </trkpt>
      <trkpt lat="44.14191" lon="3.23512">
        <ele>831.2</ele>
        <time>2021-10-14T12:45:30Z</time>
      </trkpt>
      <trkpt lat="44.14187" lon="3.23513">
        <ele>831.4</ele>
        <time>2021-10-14T12:45:31Z</time>
      </trkpt>
      <trkpt lat="44.14183" lon="3.23514">
        <ele>831.6</ele>
        <time>2021-10-14T12:45:33Z</time>
      </trkpt>
      <trkpt lat="44.14179" lon="3.23515">
        <ele>831.8</ele>
        <time>2021-10-14T12:45:34Z</time>
      </trkpt>
      <trkpt lat="44.14176" lon="3.23515">
        <ele>831.9</ele>
        <time>2021-10-14T12:45:36Z</time>
      </trkpt>
      <trkpt lat="44.14173" lon="3.23515">
        <ele>832.1</ele>
        <time>2021-10-14T12:45:37Z</time>
      </trkpt>
      <trkpt lat="44.1417" lon="3.23514">
        <ele>832.3</ele>
        <time>2021-10-14T12:45:38Z</time>
      </trkpt>
      <trkpt lat="44.14167" lon="3.23511">
        <ele>832.6</ele>
        <time>2021-10-14T12:45:40Z</time>
      </trkpt>
      <trkpt lat="44.14166" lon="3.2351">
        <ele>832.7</ele>
        <time>2021-10-14T12:45:41Z</time>
      </trkpt>
      <trkpt lat="44.14163" lon="3.23507">
        <ele>832.9</ele>
        <time>2021-10-14T12:45:43Z</time>
      </trkpt>
      <trkpt lat="44.14161" lon="3.23506">
        <ele>833.1</ele>
        <time>2021-10-14T12:45:44Z</time>
      </trkpt>
      <trkpt lat="44.14157" lon="3.23503">
        <ele>833.4</ele>
        <time>2021-10-14T12:45:46Z</time>
      </trkpt>
      <trkpt lat="44.14154" lon="3.235">
        <ele>833.7</ele>
        <time>2021-10-14T12:45:47Z</time>
      </trkpt>
      <trkpt lat="44.14151" lon="3.23498">
        <ele>833.9</ele>
        <time>2021-10-14T12:45:49Z</time>
      </trkpt>
      <trkpt lat="44.14147" lon="3.23496">
        <ele>834.2</ele>
        <time>2021-10-14T12:45:50Z</time>
      </trkpt>
      <trkpt lat="44.14144" lon="3.23494">
        <ele>834.5</ele>
        <time>2021-10-14T12:45:51Z</time>
      </trkpt>
      <trkpt lat="44.14141" lon="3.23492">
        <ele>834.7</ele>
        <time>2021-10-14T12:45:52Z</time>
      </trkpt>
      <trkpt lat="44.14135" lon="3.23489">
        <ele>835.1</ele>
        <time>2021-10-14T12:45:54Z</time>
      </trkpt>
      <trkpt lat="44.14133" lon="3.23488">
        <ele>835.2</ele>
        <time>2021-10-14T12:45:55Z</time>
      </trkpt>
      <trkpt lat="44.14128" lon="3.23485">
        <ele>835.5</ele>
        <time>2021-10-14T12:45:57Z</time>
      </trkpt>
      <trkpt lat="44.14127" lon="3.23484">
        <ele>835.6</ele>
        <time>2021-10-14T12:45:58Z</time>
      </trkpt>
      <trkpt lat="44.14125" lon="3.23483">
        <ele>835.7</ele>
        <time>2021-10-14T12:45:59Z</time>
      </trkpt>
      <trkpt lat="44.14122" lon="3.23481">
        <ele>835.9</ele>
        <time>2021-10-14T12:46:00Z</time>
      </trkpt>
      <trkpt lat="44.14118" lon="3.23478">
        <ele>836.2</ele>
        <time>2021-10-14T12:46:02Z</time>
      </trkpt>
      <trkpt lat="44.14114" lon="3.23476">
        <ele>836.5</ele>
        <time>2021-10-14T12:46:03Z</time>
      </trkpt>
      <trkpt lat="44.14113" lon="3.23475">
        <ele>836.6</ele>
        <time>2021-10-14T12:46:04Z</time>
      </trkpt>
      <trkpt lat="44.1411" lon="3.23474">
        <ele>836.8</ele>
        <time>2021-10-14T12:46:05Z</time>
      </trkpt>
      <trkpt lat="44.14108" lon="3.23473">
        <ele>837</ele>
        <time>2021-10-14T12:46:07Z</time>
      </trkpt>
      <trkpt lat="44.14102" lon="3.23473">
        <ele>837.4</ele>
        <time>2021-10-14T12:46:08Z</time>
      </trkpt>
      <trkpt lat="44.14099" lon="3.23474">
        <ele>837.6</ele>
        <time>2021-10-14T12:46:09Z</time>
      </trkpt>
      <trkpt lat="44.14095" lon="3.23475">
        <ele>837.9</ele>
        <time>2021-10-14T12:46:11Z</time>
      </trkpt>
      <trkpt lat="44.1409" lon="3.23476">
        <ele>838.3</ele>
        <time>2021-10-14T12:46:12Z</time>
      </trkpt>
      <trkpt lat="44.14087" lon="3.23476">
        <ele>838.5</ele>
        <time>2021-10-14T12:46:14Z</time>
      </trkpt>
      <trkpt lat="44.14082" lon="3.23476">
        <ele>838.8</ele>
        <time>2021-10-14T12:46:15Z</time>
      </trkpt>
      <trkpt lat="44.14079" lon="3.23476">
        <ele>839</ele>
        <time>2021-10-14T12:46:17Z</time>
      </trkpt>
      <trkpt lat="44.14075" lon="3.23475">
        <ele>839.3</ele>
        <time>2021-10-14T12:46:18Z</time>
      </trkpt>
      <trkpt lat="44.1407" lon="3.23475">
        <ele>839.5</ele>
        <time>2021-10-14T12:46:20Z</time>
      </trkpt>
      <trkpt lat="44.14066" lon="3.23474">
        <ele>839.8</ele>
        <time>2021-10-14T12:46:21Z</time>
      </trkpt>
      <trkpt lat="44.14063" lon="3.23473">
        <ele>840</ele>
        <time>2021-10-14T12:46:23Z</time>
      </trkpt>
      <trkpt lat="44.14059" lon="3.23472">
        <ele>840.2</ele>
        <time>2021-10-14T12:46:24Z</time>
      </trkpt>
      <trkpt lat="44.14055" lon="3.23471">
        <ele>840.6</ele>
        <time>2021-10-14T12:46:26Z</time>
      </trkpt>
      <trkpt lat="44.14052" lon="3.23471">
        <ele>840.8</ele>
        <time>2021-10-14T12:46:27Z</time>
      </trkpt>
      <trkpt lat="44.14049" lon="3.2347">
        <ele>841</ele>
        <time>2021-10-14T12:46:28Z</time>
      </trkpt>
      <trkpt lat="44.14046" lon="3.2347">
        <ele>841.2</ele>
        <time>2021-10-14T12:46:30Z</time>
      </trkpt>
      <trkpt lat="44.14042" lon="3.2347">
        <ele>841.6</ele>
        <time>2021-10-14T12:46:32Z</time>
      </trkpt>
      <trkpt lat="44.14039" lon="3.2347">
        <ele>841.8</ele>
        <time>2021-10-14T12:46:33Z</time>
      </trkpt>
      <trkpt lat="44.14038" lon="3.2347">
        <ele>841.9</ele>
        <time>2021-10-14T12:46:34Z</time>
      </trkpt>
      <trkpt lat="44.14034" lon="3.2347">
        <ele>842.2</ele>
        <time>2021-10-14T12:46:35Z</time>
      </trkpt>
      <trkpt lat="44.14033" lon="3.2347">
        <ele>842.3</ele>
        <time>2021-10-14T12:46:36Z</time>
      </trkpt>
      <trkpt lat="44.1403" lon="3.2347">
        <ele>842.4</ele>
        <time>2021-10-14T12:46:38Z</time>
      </trkpt>
      <trkpt lat="44.14026" lon="3.23469">
        <ele>842.7</ele>
        <time>2021-10-14T12:46:40Z</time>
      </trkpt>
      <trkpt lat="44.14024" lon="3.23469">
        <ele>842.8</ele>
        <time>2021-10-14T12:46:41Z</time>
      </trkpt>
      <trkpt lat="44.14017" lon="3.23468">
        <ele>843.1</ele>
        <time>2021-10-14T12:46:43Z</time>
      </trkpt>
      <trkpt lat="44.1401" lon="3.23466">
        <ele>843.2</ele>
        <time>2021-10-14T12:46:44Z</time>
      </trkpt>
      <trkpt lat="44.14005" lon="3.23463">
        <ele>843.1</ele>
        <time>2021-10-14T12:46:46Z</time>
      </trkpt>
      <trkpt lat="44.13998" lon="3.23461">
        <ele>842.8</ele>
        <time>2021-10-14T12:46:47Z</time>
      </trkpt>
      <trkpt lat="44.13992" lon="3.23459">
        <ele>842.4</ele>
        <time>2021-10-14T12:46:48Z</time>
      </trkpt>
      <trkpt lat="44.13983" lon="3.23453">
        <ele>841.7</ele>
        <time>2021-10-14T12:46:50Z</time>
      </trkpt>
      <trkpt lat="44.13978" lon="3.23451">
        <ele>841.3</ele>
        <time>2021-10-14T12:46:51Z</time>
      </trkpt>
      <trkpt lat="44.13967" lon="3.2345">
        <ele>840.5</ele>
        <time>2021-10-14T12:46:53Z</time>
      </trkpt>
      <trkpt lat="44.13961" lon="3.23449">
        <ele>840.1</ele>
        <time>2021-10-14T12:46:54Z</time>
      </trkpt>
      <trkpt lat="44.13955" lon="3.23448">
        <ele>839.7</ele>
        <time>2021-10-14T12:46:55Z</time>
      </trkpt>
      <trkpt lat="44.13945" lon="3.23442">
        <ele>838.9</ele>
        <time>2021-10-14T12:46:57Z</time>
      </trkpt>
      <trkpt lat="44.1394" lon="3.23439">
        <ele>838.5</ele>
        <time>2021-10-14T12:46:58Z</time>
      </trkpt>
      <trkpt lat="44.13943" lon="3.23422">
        <ele>837.6</ele>
        <time>2021-10-14T12:47:00Z</time>
      </trkpt>
      <trkpt lat="44.13946" lon="3.23412">
        <ele>837.1</ele>
        <time>2021-10-14T12:47:01Z</time>
      </trkpt>
      <trkpt lat="44.13948" lon="3.23402">
        <ele>836.8</ele>
        <time>2021-10-14T12:47:02Z</time>
      </trkpt>
      <trkpt lat="44.13949" lon="3.23392">
        <ele>836.6</ele>
        <time>2021-10-14T12:47:03Z</time>
      </trkpt>
      <trkpt lat="44.13945" lon="3.23373">
        <ele>836.3</ele>
        <time>2021-10-14T12:47:05Z</time>
      </trkpt>
      <trkpt lat="44.1394" lon="3.23365">
        <ele>836.1</ele>
        <time>2021-10-14T12:47:06Z</time>
      </trkpt>
      <trkpt lat="44.13935" lon="3.2336">
        <ele>835.7</ele>
        <time>2021-10-14T12:47:07Z</time>
      </trkpt>
      <trkpt lat="44.13931" lon="3.23355">
        <ele>835.8</ele>
        <time>2021-10-14T12:47:08Z</time>
      </trkpt>
      <trkpt lat="44.13928" lon="3.23342">
        <ele>836.1</ele>
        <time>2021-10-14T12:47:10Z</time>
      </trkpt>
      <trkpt lat="44.13928" lon="3.23336">
        <ele>836.3</ele>
        <time>2021-10-14T12:47:12Z</time>
      </trkpt>
      <trkpt lat="44.13932" lon="3.23327">
        <ele>836.6</ele>
        <time>2021-10-14T12:47:14Z</time>
      </trkpt>
      <trkpt lat="44.13934" lon="3.23322">
        <ele>836.7</ele>
        <time>2021-10-14T12:47:15Z</time>
      </trkpt>
      <trkpt lat="44.13936" lon="3.23317">
        <ele>836.8</ele>
        <time>2021-10-14T12:47:16Z</time>
      </trkpt>
      <trkpt lat="44.13938" lon="3.23311">
        <ele>836.8</ele>
        <time>2021-10-14T12:47:17Z</time>
      </trkpt>
      <trkpt lat="44.13942" lon="3.23304">
        <ele>836.8</ele>
        <time>2021-10-14T12:47:19Z</time>
      </trkpt>
      <trkpt lat="44.13941" lon="3.23291">
        <ele>836.8</ele>
        <time>2021-10-14T12:47:20Z</time>
      </trkpt>
      <trkpt lat="44.13941" lon="3.23283">
        <ele>836.7</ele>
        <time>2021-10-14T12:47:21Z</time>
      </trkpt>
      <trkpt lat="44.13943" lon="3.23275">
        <ele>836.7</ele>
        <time>2021-10-14T12:47:22Z</time>
      </trkpt>
      <trkpt lat="44.13944" lon="3.23266">
        <ele>836.7</ele>
        <time>2021-10-14T12:47:23Z</time>
      </trkpt>
      <trkpt lat="44.13947" lon="3.23255">
        <ele>836.6</ele>
        <time>2021-10-14T12:47:25Z</time>
      </trkpt>
      <trkpt lat="44.13951" lon="3.23243">
        <ele>836.5</ele>
        <time>2021-10-14T12:47:27Z</time>
      </trkpt>
      <trkpt lat="44.13954" lon="3.23237">
        <ele>836.4</ele>
        <time>2021-10-14T12:47:28Z</time>
      </trkpt>
      <trkpt lat="44.13959" lon="3.23224">
        <ele>836.2</ele>
        <time>2021-10-14T12:47:30Z</time>
      </trkpt>
      <trkpt lat="44.13965" lon="3.23211">
        <ele>835.9</ele>
        <time>2021-10-14T12:47:32Z</time>
      </trkpt>
      <trkpt lat="44.13972" lon="3.23201">
        <ele>835.8</ele>
        <time>2021-10-14T12:47:34Z</time>
      </trkpt>
      <trkpt lat="44.13978" lon="3.23191">
        <ele>835.8</ele>
        <time>2021-10-14T12:47:36Z</time>
      </trkpt>
      <trkpt lat="44.13984" lon="3.23181">
        <ele>835.9</ele>
        <time>2021-10-14T12:47:38Z</time>
      </trkpt>
      <trkpt lat="44.13989" lon="3.23174">
        <ele>836.1</ele>
        <time>2021-10-14T12:47:40Z</time>
      </trkpt>
      <trkpt lat="44.13993" lon="3.23167">
        <ele>836.3</ele>
        <time>2021-10-14T12:47:42Z</time>
      </trkpt>
      <trkpt lat="44.13996" lon="3.23165">
        <ele>836.3</ele>
        <time>2021-10-14T12:47:43Z</time>
      </trkpt>
      <trkpt lat="44.13999" lon="3.23169">
        <ele>836.4</ele>
        <time>2021-10-14T12:47:44Z</time>
      </trkpt>
      <trkpt lat="44.14003" lon="3.23165">
        <ele>836.5</ele>
        <time>2021-10-14T12:47:46Z</time>
      </trkpt>
      <trkpt lat="44.14007" lon="3.23158">
        <ele>836.6</ele>
        <time>2021-10-14T12:47:47Z</time>
      </trkpt>
      <trkpt lat="44.1401" lon="3.2315">
        <ele>836.6</ele>
        <time>2021-10-14T12:47:49Z</time>
      </trkpt>
      <trkpt lat="44.14013" lon="3.23137">
        <ele>836.4</ele>
        <time>2021-10-14T12:47:51Z</time>
      </trkpt>
      <trkpt lat="44.14011" lon="3.23122">
        <ele>835.9</ele>
        <time>2021-10-14T12:47:52Z</time>
      </trkpt>
      <trkpt lat="44.14007" lon="3.23106">
        <ele>835.3</ele>
        <time>2021-10-14T12:47:54Z</time>
      </trkpt>
      <trkpt lat="44.14004" lon="3.23089">
        <ele>834.6</ele>
        <time>2021-10-14T12:47:56Z</time>
      </trkpt>
      <trkpt lat="44.14" lon="3.23069">
        <ele>833.9</ele>
        <time>2021-10-14T12:47:58Z</time>
      </trkpt>
      <trkpt lat="44.13999" lon="3.2306">
        <ele>833.7</ele>
        <time>2021-10-14T12:47:59Z</time>
      </trkpt>
      <trkpt lat="44.13997" lon="3.2304">
        <ele>833.2</ele>
        <time>2021-10-14T12:48:01Z</time>
      </trkpt>
      <trkpt lat="44.13993" lon="3.23031">
        <ele>833</ele>
        <time>2021-10-14T12:48:02Z</time>
      </trkpt>
      <trkpt lat="44.1399" lon="3.23014">
        <ele>832.7</ele>
        <time>2021-10-14T12:48:04Z</time>
      </trkpt>
      <trkpt lat="44.13995" lon="3.22997">
        <ele>833.6</ele>
        <time>2021-10-14T12:48:06Z</time>
      </trkpt>
      <trkpt lat="44.14" lon="3.22986">
        <ele>834.1</ele>
        <time>2021-10-14T12:48:08Z</time>
      </trkpt>
      <trkpt lat="44.14002" lon="3.22982">
        <ele>834.1</ele>
        <time>2021-10-14T12:48:09Z</time>
      </trkpt>
      <trkpt lat="44.14006" lon="3.22974">
        <ele>834.3</ele>
        <time>2021-10-14T12:48:11Z</time>
      </trkpt>
      <trkpt lat="44.14007" lon="3.22969">
        <ele>834.4</ele>
        <time>2021-10-14T12:48:12Z</time>
      </trkpt>
      <trkpt lat="44.14007" lon="3.22964">
        <ele>834.6</ele>
        <time>2021-10-14T12:48:13Z</time>
      </trkpt>
      <trkpt lat="44.14003" lon="3.2296">
        <ele>834.9</ele>
        <time>2021-10-14T12:48:14Z</time>
      </trkpt>
      <trkpt lat="44.14001" lon="3.22958">
        <ele>835.1</ele>
        <time>2021-10-14T12:48:15Z</time>
      </trkpt>
      <trkpt lat="44.13998" lon="3.22957">
        <ele>835.2</ele>
        <time>2021-10-14T12:48:16Z</time>
      </trkpt>
      <trkpt lat="44.13998" lon="3.22956">
        <ele>835.3</ele>
        <time>2021-10-14T12:48:17Z</time>
      </trkpt>
      <trkpt lat="44.13993" lon="3.22955">
        <ele>835.5</ele>
        <time>2021-10-14T12:48:19Z</time>
      </trkpt>
      <trkpt lat="44.13991" lon="3.22955">
        <ele>835.6</ele>
        <time>2021-10-14T12:48:20Z</time>
      </trkpt>
      <trkpt lat="44.13988" lon="3.22954">
        <ele>835.7</ele>
        <time>2021-10-14T12:48:21Z</time>
      </trkpt>
      <trkpt lat="44.13984" lon="3.22955">
        <ele>835.7</ele>
        <time>2021-10-14T12:48:23Z</time>
      </trkpt>
      <trkpt lat="44.13979" lon="3.22957">
        <ele>835.8</ele>
        <time>2021-10-14T12:48:24Z</time>
      </trkpt>
      <trkpt lat="44.13975" lon="3.22959">
        <ele>835.7</ele>
        <time>2021-10-14T12:48:26Z</time>
      </trkpt>
      <trkpt lat="44.13972" lon="3.2296">
        <ele>835.7</ele>
        <time>2021-10-14T12:48:27Z</time>
      </trkpt>
      <trkpt lat="44.13967" lon="3.2296">
        <ele>835.5</ele>
        <time>2021-10-14T12:48:28Z</time>
      </trkpt>
      <trkpt lat="44.1396" lon="3.22958">
        <ele>835.4</ele>
        <time>2021-10-14T12:48:30Z</time>
      </trkpt>
      <trkpt lat="44.13956" lon="3.22952">
        <ele>835.2</ele>
        <time>2021-10-14T12:48:31Z</time>
      </trkpt>
      <trkpt lat="44.13951" lon="3.22946">
        <ele>835.1</ele>
        <time>2021-10-14T12:48:32Z</time>
      </trkpt>
      <trkpt lat="44.13949" lon="3.22941">
        <ele>835.1</ele>
        <time>2021-10-14T12:48:34Z</time>
      </trkpt>
      <trkpt lat="44.13949" lon="3.22936">
        <ele>835</ele>
        <time>2021-10-14T12:48:35Z</time>
      </trkpt>
      <trkpt lat="44.13948" lon="3.22926">
        <ele>835.1</ele>
        <time>2021-10-14T12:48:37Z</time>
      </trkpt>
      <trkpt lat="44.13947" lon="3.22919">
        <ele>835.2</ele>
        <time>2021-10-14T12:48:38Z</time>
      </trkpt>
      <trkpt lat="44.13946" lon="3.22912">
        <ele>835.3</ele>
        <time>2021-10-14T12:48:39Z</time>
      </trkpt>
      <trkpt lat="44.13944" lon="3.22906">
        <ele>835.4</ele>
        <time>2021-10-14T12:48:40Z</time>
      </trkpt>
      <trkpt lat="44.13941" lon="3.229">
        <ele>835.6</ele>
        <time>2021-10-14T12:48:41Z</time>
      </trkpt>
      <trkpt lat="44.13937" lon="3.22895">
        <ele>835.8</ele>
        <time>2021-10-14T12:48:43Z</time>
      </trkpt>
      <trkpt lat="44.13933" lon="3.22893">
        <ele>836</ele>
        <time>2021-10-14T12:48:44Z</time>
      </trkpt>
      <trkpt lat="44.13929" lon="3.22892">
        <ele>836.1</ele>
        <time>2021-10-14T12:48:46Z</time>
      </trkpt>
      <trkpt lat="44.13923" lon="3.22893">
        <ele>836.4</ele>
        <time>2021-10-14T12:48:47Z</time>
      </trkpt>
      <trkpt lat="44.13918" lon="3.22894">
        <ele>836.7</ele>
        <time>2021-10-14T12:48:49Z</time>
      </trkpt>
      <trkpt lat="44.13914" lon="3.22897">
        <ele>837</ele>
        <time>2021-10-14T12:48:50Z</time>
      </trkpt>
      <trkpt lat="44.1391" lon="3.22898">
        <ele>837.2</ele>
        <time>2021-10-14T12:48:51Z</time>
      </trkpt>
      <trkpt lat="44.13905" lon="3.22901">
        <ele>837.5</ele>
        <time>2021-10-14T12:48:53Z</time>
      </trkpt>
      <trkpt lat="44.13902" lon="3.22903">
        <ele>837.7</ele>
        <time>2021-10-14T12:48:54Z</time>
      </trkpt>
      <trkpt lat="44.13897" lon="3.22906">
        <ele>837.8</ele>
        <time>2021-10-14T12:48:55Z</time>
      </trkpt>
      <trkpt lat="44.13894" lon="3.22908">
        <ele>837.9</ele>
        <time>2021-10-14T12:48:56Z</time>
      </trkpt>
      <trkpt lat="44.1389" lon="3.22911">
        <ele>838</ele>
        <time>2021-10-14T12:48:57Z</time>
      </trkpt>
      <trkpt lat="44.13887" lon="3.22914">
        <ele>838</ele>
        <time>2021-10-14T12:48:59Z</time>
      </trkpt>
      <trkpt lat="44.13883" lon="3.2292">
        <ele>838.1</ele>
        <time>2021-10-14T12:49:00Z</time>
      </trkpt>
      <trkpt lat="44.1388" lon="3.22926">
        <ele>838.1</ele>
        <time>2021-10-14T12:49:01Z</time>
      </trkpt>
      <trkpt lat="44.13878" lon="3.22931">
        <ele>838.1</ele>
        <time>2021-10-14T12:49:02Z</time>
      </trkpt>
      <trkpt lat="44.13876" lon="3.22937">
        <ele>838.1</ele>
        <time>2021-10-14T12:49:03Z</time>
      </trkpt>
      <trkpt lat="44.13875" lon="3.22942">
        <ele>838.1</ele>
        <time>2021-10-14T12:49:05Z</time>
      </trkpt>
      <trkpt lat="44.13873" lon="3.22948">
        <ele>838.1</ele>
        <time>2021-10-14T12:49:06Z</time>
      </trkpt>
      <trkpt lat="44.13871" lon="3.22953">
        <ele>838</ele>
        <time>2021-10-14T12:49:07Z</time>
      </trkpt>
      <trkpt lat="44.13869" lon="3.22959">
        <ele>838</ele>
        <time>2021-10-14T12:49:08Z</time>
      </trkpt>
      <trkpt lat="44.13867" lon="3.22967">
        <ele>837.8</ele>
        <time>2021-10-14T12:49:10Z</time>
      </trkpt>
      <trkpt lat="44.13865" lon="3.22972">
        <ele>837.8</ele>
        <time>2021-10-14T12:49:11Z</time>
      </trkpt>
      <trkpt lat="44.1386" lon="3.22976">
        <ele>837.7</ele>
        <time>2021-10-14T12:49:12Z</time>
      </trkpt>
      <trkpt lat="44.13856" lon="3.22979">
        <ele>837.7</ele>
        <time>2021-10-14T12:49:13Z</time>
      </trkpt>
      <trkpt lat="44.13852" lon="3.2298">
        <ele>837.7</ele>
        <time>2021-10-14T12:49:14Z</time>
      </trkpt>
      <trkpt lat="44.13849" lon="3.22981">
        <ele>837.7</ele>
        <time>2021-10-14T12:49:15Z</time>
      </trkpt>
      <trkpt lat="44.13845" lon="3.22981">
        <ele>837.7</ele>
        <time>2021-10-14T12:49:17Z</time>
      </trkpt>
      <trkpt lat="44.13842" lon="3.22982">
        <ele>837.7</ele>
        <time>2021-10-14T12:49:18Z</time>
      </trkpt>
      <trkpt lat="44.13838" lon="3.22984">
        <ele>837.6</ele>
        <time>2021-10-14T12:49:19Z</time>
      </trkpt>
      <trkpt lat="44.13833" lon="3.22986">
        <ele>837.6</ele>
        <time>2021-10-14T12:49:20Z</time>
      </trkpt>
      <trkpt lat="44.13827" lon="3.22989">
        <ele>837.7</ele>
        <time>2021-10-14T12:49:22Z</time>
      </trkpt>
      <trkpt lat="44.1382" lon="3.22994">
        <ele>837.7</ele>
        <time>2021-10-14T12:49:23Z</time>
      </trkpt>
      <trkpt lat="44.13817" lon="3.22999">
        <ele>837.7</ele>
        <time>2021-10-14T12:49:24Z</time>
      </trkpt>
      <trkpt lat="44.13814" lon="3.23003">
        <ele>837.7</ele>
        <time>2021-10-14T12:49:26Z</time>
      </trkpt>
      <trkpt lat="44.13811" lon="3.23007">
        <ele>837.6</ele>
        <time>2021-10-14T12:49:27Z</time>
      </trkpt>
      <trkpt lat="44.13808" lon="3.23012">
        <ele>837.4</ele>
        <time>2021-10-14T12:49:28Z</time>
      </trkpt>
      <trkpt lat="44.13804" lon="3.23014">
        <ele>837.1</ele>
        <time>2021-10-14T12:49:30Z</time>
      </trkpt>
      <trkpt lat="44.1379" lon="3.23002">
        <ele>836.2</ele>
        <time>2021-10-14T14:19:08Z</time>
      </trkpt>
      <trkpt lat="44.13786" lon="3.22998">
        <ele>836.2</ele>
        <time>2021-10-14T14:19:09Z</time>
      </trkpt>
      <trkpt lat="44.13783" lon="3.22995">
        <ele>836.3</ele>
        <time>2021-10-14T14:19:10Z</time>
      </trkpt>
      <trkpt lat="44.1378" lon="3.2299">
        <ele>836.3</ele>
        <time>2021-10-14T14:19:11Z</time>
      </trkpt>
      <trkpt lat="44.13775" lon="3.22984">
        <ele>836.2</ele>
        <time>2021-10-14T14:19:14Z</time>
      </trkpt>
      <trkpt lat="44.13772" lon="3.22982">
        <ele>836.1</ele>
        <time>2021-10-14T14:19:15Z</time>
      </trkpt>
      <trkpt lat="44.13771" lon="3.22982">
        <ele>836</ele>
        <time>2021-10-14T14:19:16Z</time>
      </trkpt>
      <trkpt lat="44.13764" lon="3.22974">
        <ele>835.4</ele>
        <time>2021-10-14T14:19:18Z</time>
      </trkpt>
      <trkpt lat="44.1376" lon="3.22968">
        <ele>835</ele>
        <time>2021-10-14T14:19:19Z</time>
      </trkpt>
      <trkpt lat="44.13757" lon="3.22962">
        <ele>834.4</ele>
        <time>2021-10-14T14:19:20Z</time>
      </trkpt>
      <trkpt lat="44.13755" lon="3.22956">
        <ele>833.9</ele>
        <time>2021-10-14T14:19:21Z</time>
      </trkpt>
      <trkpt lat="44.13749" lon="3.22944">
        <ele>832.3</ele>
        <time>2021-10-14T14:19:23Z</time>
      </trkpt>
      <trkpt lat="44.13746" lon="3.22931">
        <ele>831.1</ele>
        <time>2021-10-14T14:19:25Z</time>
      </trkpt>
      <trkpt lat="44.13748" lon="3.22926">
        <ele>831.4</ele>
        <time>2021-10-14T14:19:26Z</time>
      </trkpt>
      <trkpt lat="44.13748" lon="3.22919">
        <ele>830.9</ele>
        <time>2021-10-14T14:19:27Z</time>
      </trkpt>
      <trkpt lat="44.1375" lon="3.22911">
        <ele>830.5</ele>
        <time>2021-10-14T14:19:28Z</time>
      </trkpt>
      <trkpt lat="44.13755" lon="3.229">
        <ele>830.9</ele>
        <time>2021-10-14T14:19:30Z</time>
      </trkpt>
      <trkpt lat="44.13756" lon="3.22897">
        <ele>830.8</ele>
        <time>2021-10-14T14:19:31Z</time>
      </trkpt>
      <trkpt lat="44.13755" lon="3.2289">
        <ele>830.2</ele>
        <time>2021-10-14T14:19:33Z</time>
      </trkpt>
      <trkpt lat="44.1375" lon="3.22887">
        <ele>829.9</ele>
        <time>2021-10-14T14:19:35Z</time>
      </trkpt>
      <trkpt lat="44.13747" lon="3.22884">
        <ele>828.8</ele>
        <time>2021-10-14T14:19:37Z</time>
      </trkpt>
      <trkpt lat="44.13746" lon="3.22883">
        <ele>829</ele>
        <time>2021-10-14T14:19:38Z</time>
      </trkpt>
      <trkpt lat="44.13747" lon="3.2288">
        <ele>829.2</ele>
        <time>2021-10-14T14:19:40Z</time>
      </trkpt>
      <trkpt lat="44.13748" lon="3.22879">
        <ele>829.4</ele>
        <time>2021-10-14T14:19:41Z</time>
      </trkpt>
      <trkpt lat="44.13748" lon="3.22879">
        <ele>829.5</ele>
        <time>2021-10-14T14:19:43Z</time>
      </trkpt>
      <trkpt lat="44.13748" lon="3.22877">
        <ele>829.3</ele>
        <time>2021-10-14T14:19:45Z</time>
      </trkpt>
      <trkpt lat="44.13747" lon="3.22877">
        <ele>829.4</ele>
        <time>2021-10-14T14:19:47Z</time>
      </trkpt>
      <trkpt lat="44.13747" lon="3.22876">
        <ele>829.1</ele>
        <time>2021-10-14T14:19:48Z</time>
      </trkpt>
      <trkpt lat="44.13747" lon="3.22875">
        <ele>829.3</ele>
        <time>2021-10-14T14:19:49Z</time>
      </trkpt>
      <trkpt lat="44.13747" lon="3.22874">
        <ele>829.4</ele>
        <time>2021-10-14T14:19:50Z</time>
      </trkpt>
      <trkpt lat="44.13747" lon="3.22873">
        <ele>829.4</ele>
        <time>2021-10-14T14:19:51Z</time>
      </trkpt>
      <trkpt lat="44.13746" lon="3.22873">
        <ele>829.5</ele>
        <time>2021-10-14T14:19:52Z</time>
      </trkpt>
      <trkpt lat="44.13746" lon="3.22872">
        <ele>829.5</ele>
        <time>2021-10-14T14:19:54Z</time>
      </trkpt>
      <trkpt lat="44.13746" lon="3.22872">
        <ele>829.5</ele>
        <time>2021-10-14T14:19:55Z</time>
      </trkpt>
      <trkpt lat="44.13746" lon="3.22871">
        <ele>829.6</ele>
        <time>2021-10-14T14:19:56Z</time>
      </trkpt>
      <trkpt lat="44.13746" lon="3.2287">
        <ele>829.6</ele>
        <time>2021-10-14T14:19:58Z</time>
      </trkpt>
      <trkpt lat="44.13746" lon="3.2287">
        <ele>829.6</ele>
        <time>2021-10-14T14:19:59Z</time>
      </trkpt>
      <trkpt lat="44.13746" lon="3.22869">
        <ele>829.7</ele>
        <time>2021-10-14T14:20:00Z</time>
      </trkpt>
      <trkpt lat="44.13746" lon="3.22868">
        <ele>829.7</ele>
        <time>2021-10-14T14:20:02Z</time>
      </trkpt>
      <trkpt lat="44.13745" lon="3.22868">
        <ele>829.7</ele>
        <time>2021-10-14T14:20:03Z</time>
      </trkpt>
      <trkpt lat="44.13745" lon="3.22867">
        <ele>829.7</ele>
        <time>2021-10-14T14:20:04Z</time>
      </trkpt>
      <trkpt lat="44.13745" lon="3.22867">
        <ele>829.7</ele>
        <time>2021-10-14T14:20:06Z</time>
      </trkpt>
      <trkpt lat="44.13745" lon="3.22866">
        <ele>829.7</ele>
        <time>2021-10-14T14:21:18Z</time>
      </trkpt>
      <trkpt lat="44.13745" lon="3.22865">
        <ele>829.7</ele>
        <time>2021-10-14T14:21:20Z</time>
      </trkpt>
      <trkpt lat="44.13745" lon="3.22865">
        <ele>829.7</ele>
        <time>2021-10-14T14:21:21Z</time>
      </trkpt>
      <trkpt lat="44.13745" lon="3.22864">
        <ele>829.7</ele>
        <time>2021-10-14T14:21:23Z</time>
      </trkpt>
      <trkpt lat="44.13745" lon="3.22863">
        <ele>829.7</ele>
        <time>2021-10-14T14:21:24Z</time>
      </trkpt>
      <trkpt lat="44.13744" lon="3.22863">
        <ele>829.7</ele>
        <time>2021-10-14T14:21:26Z</time>
      </trkpt>
      <trkpt lat="44.13744" lon="3.22862">
        <ele>829.6</ele>
        <time>2021-10-14T14:21:28Z</time>
      </trkpt>
      <trkpt lat="44.13744" lon="3.22862">
        <ele>829.6</ele>
        <time>2021-10-14T14:21:29Z</time>
      </trkpt>
      <trkpt lat="44.13744" lon="3.22861">
        <ele>829.5</ele>
        <time>2021-10-14T14:21:30Z</time>
      </trkpt>
      <trkpt lat="44.13744" lon="3.2286">
        <ele>829.4</ele>
        <time>2021-10-14T14:21:31Z</time>
      </trkpt>
      <trkpt lat="44.13744" lon="3.2286">
        <ele>829.4</ele>
        <time>2021-10-14T14:21:32Z</time>
      </trkpt>
      <trkpt lat="44.13744" lon="3.22859">
        <ele>829.3</ele>
        <time>2021-10-14T14:25:25Z</time>
      </trkpt>
      <trkpt lat="44.13743" lon="3.22858">
        <ele>829.3</ele>
        <time>2021-10-14T14:25:27Z</time>
      </trkpt>
      <trkpt lat="44.13743" lon="3.22858">
        <ele>829.2</ele>
        <time>2021-10-14T14:25:28Z</time>
      </trkpt>
      <trkpt lat="44.1374" lon="3.22853">
        <ele>828.2</ele>
        <time>2021-10-14T14:25:29Z</time>
      </trkpt>
      <trkpt lat="44.13737" lon="3.22849">
        <ele>826.8</ele>
        <time>2021-10-14T14:25:31Z</time>
      </trkpt>
      <trkpt lat="44.13734" lon="3.22846">
        <ele>825.4</ele>
        <time>2021-10-14T14:25:32Z</time>
      </trkpt>
      <trkpt lat="44.13729" lon="3.22843">
        <ele>823.5</ele>
        <time>2021-10-14T14:25:33Z</time>
      </trkpt>
      <trkpt lat="44.1372" lon="3.22839">
        <ele>820.8</ele>
        <time>2021-10-14T14:25:35Z</time>
      </trkpt>
      <trkpt lat="44.13715" lon="3.22834">
        <ele>819.4</ele>
        <time>2021-10-14T14:25:36Z</time>
      </trkpt>
      <trkpt lat="44.13709" lon="3.2282">
        <ele>817</ele>
        <time>2021-10-14T14:25:38Z</time>
      </trkpt>
      <trkpt lat="44.13703" lon="3.22802">
        <ele>814.6</ele>
        <time>2021-10-14T14:25:40Z</time>
      </trkpt>
      <trkpt lat="44.13694" lon="3.22784">
        <ele>813.4</ele>
        <time>2021-10-14T14:25:42Z</time>
      </trkpt>
      <trkpt lat="44.1369" lon="3.22776">
        <ele>813</ele>
        <time>2021-10-14T14:25:43Z</time>
      </trkpt>
      <trkpt lat="44.13685" lon="3.22761">
        <ele>812.3</ele>
        <time>2021-10-14T14:25:45Z</time>
      </trkpt>
      <trkpt lat="44.13685" lon="3.22757">
        <ele>812.1</ele>
        <time>2021-10-14T14:25:46Z</time>
      </trkpt>
      <trkpt lat="44.13687" lon="3.22757">
        <ele>811.9</ele>
        <time>2021-10-14T14:25:47Z</time>
      </trkpt>
      <trkpt lat="44.13691" lon="3.22752">
        <ele>811.4</ele>
        <time>2021-10-14T14:25:49Z</time>
      </trkpt>
      <trkpt lat="44.13696" lon="3.22738">
        <ele>810.3</ele>
        <time>2021-10-14T14:25:51Z</time>
      </trkpt>
      <trkpt lat="44.13701" lon="3.22716">
        <ele>808.9</ele>
        <time>2021-10-14T14:25:53Z</time>
      </trkpt>
      <trkpt lat="44.13701" lon="3.22706">
        <ele>808.5</ele>
        <time>2021-10-14T14:25:54Z</time>
      </trkpt>
      <trkpt lat="44.13699" lon="3.22697">
        <ele>808.4</ele>
        <time>2021-10-14T14:25:55Z</time>
      </trkpt>
      <trkpt lat="44.13696" lon="3.22688">
        <ele>808.4</ele>
        <time>2021-10-14T14:25:57Z</time>
      </trkpt>
      <trkpt lat="44.13695" lon="3.22684">
        <ele>808.4</ele>
        <time>2021-10-14T14:25:58Z</time>
      </trkpt>
      <trkpt lat="44.13693" lon="3.22677">
        <ele>808.5</ele>
        <time>2021-10-14T14:25:59Z</time>
      </trkpt>
      <trkpt lat="44.13692" lon="3.2267">
        <ele>808.6</ele>
        <time>2021-10-14T14:26:01Z</time>
      </trkpt>
      <trkpt lat="44.13692" lon="3.22665">
        <ele>808.6</ele>
        <time>2021-10-14T14:26:02Z</time>
      </trkpt>
      <trkpt lat="44.13691" lon="3.22663">
        <ele>808.6</ele>
        <time>2021-10-14T14:26:03Z</time>
      </trkpt>
      <trkpt lat="44.13689" lon="3.22659">
        <ele>808.6</ele>
        <time>2021-10-14T14:26:04Z</time>
      </trkpt>
      <trkpt lat="44.13687" lon="3.22656">
        <ele>808.5</ele>
        <time>2021-10-14T14:26:05Z</time>
      </trkpt>
      <trkpt lat="44.13685" lon="3.22652">
        <ele>808.4</ele>
        <time>2021-10-14T14:26:07Z</time>
      </trkpt>
      <trkpt lat="44.13684" lon="3.22648">
        <ele>808.4</ele>
        <time>2021-10-14T14:26:08Z</time>
      </trkpt>
      <trkpt lat="44.13683" lon="3.22641">
        <ele>808.2</ele>
        <time>2021-10-14T14:26:10Z</time>
      </trkpt>
      <trkpt lat="44.13683" lon="3.22637">
        <ele>808</ele>
        <time>2021-10-14T14:26:11Z</time>
      </trkpt>
      <trkpt lat="44.13686" lon="3.22628">
        <ele>807.6</ele>
        <time>2021-10-14T14:26:13Z</time>
      </trkpt>
      <trkpt lat="44.13688" lon="3.22622">
        <ele>807.3</ele>
        <time>2021-10-14T14:26:14Z</time>
      </trkpt>
      <trkpt lat="44.1369" lon="3.22612">
        <ele>806.7</ele>
        <time>2021-10-14T14:26:16Z</time>
      </trkpt>
      <trkpt lat="44.13694" lon="3.22601">
        <ele>806</ele>
        <time>2021-10-14T14:26:18Z</time>
      </trkpt>
      <trkpt lat="44.13696" lon="3.22593">
        <ele>805.5</ele>
        <time>2021-10-14T14:26:19Z</time>
      </trkpt>
      <trkpt lat="44.13702" lon="3.2258">
        <ele>804.6</ele>
        <time>2021-10-14T14:26:20Z</time>
      </trkpt>
      <trkpt lat="44.13704" lon="3.22571">
        <ele>804.2</ele>
        <time>2021-10-14T14:26:21Z</time>
      </trkpt>
      <trkpt lat="44.1371" lon="3.22557">
        <ele>803.3</ele>
        <time>2021-10-14T14:26:23Z</time>
      </trkpt>
      <trkpt lat="44.13712" lon="3.22548">
        <ele>802.8</ele>
        <time>2021-10-14T14:26:24Z</time>
      </trkpt>
      <trkpt lat="44.13713" lon="3.22539">
        <ele>802.4</ele>
        <time>2021-10-14T14:26:25Z</time>
      </trkpt>
      <trkpt lat="44.13715" lon="3.2252">
        <ele>801.5</ele>
        <time>2021-10-14T14:26:27Z</time>
      </trkpt>
      <trkpt lat="44.13714" lon="3.22501">
        <ele>801.3</ele>
        <time>2021-10-14T14:26:29Z</time>
      </trkpt>
      <trkpt lat="44.13712" lon="3.22496">
        <ele>801.3</ele>
        <time>2021-10-14T14:26:30Z</time>
      </trkpt>
      <trkpt lat="44.13708" lon="3.22491">
        <ele>801.3</ele>
        <time>2021-10-14T14:26:32Z</time>
      </trkpt>
      <trkpt lat="44.13705" lon="3.22486">
        <ele>801.3</ele>
        <time>2021-10-14T14:26:33Z</time>
      </trkpt>
      <trkpt lat="44.13702" lon="3.22482">
        <ele>801.1</ele>
        <time>2021-10-14T14:26:35Z</time>
      </trkpt>
      <trkpt lat="44.13699" lon="3.22479">
        <ele>800.8</ele>
        <time>2021-10-14T14:26:36Z</time>
      </trkpt>
      <trkpt lat="44.13697" lon="3.22476">
        <ele>800.3</ele>
        <time>2021-10-14T14:26:37Z</time>
      </trkpt>
      <trkpt lat="44.13696" lon="3.22471">
        <ele>799.1</ele>
        <time>2021-10-14T14:26:38Z</time>
      </trkpt>
      <trkpt lat="44.13697" lon="3.22465">
        <ele>797.9</ele>
        <time>2021-10-14T14:26:39Z</time>
      </trkpt>
      <trkpt lat="44.137" lon="3.22457">
        <ele>796</ele>
        <time>2021-10-14T14:26:40Z</time>
      </trkpt>
      <trkpt lat="44.13704" lon="3.22446">
        <ele>793.3</ele>
        <time>2021-10-14T14:26:42Z</time>
      </trkpt>
      <trkpt lat="44.13707" lon="3.22438">
        <ele>791.3</ele>
        <time>2021-10-14T14:26:43Z</time>
      </trkpt>
      <trkpt lat="44.13711" lon="3.22422">
        <ele>788.1</ele>
        <time>2021-10-14T14:26:45Z</time>
      </trkpt>
      <trkpt lat="44.13713" lon="3.22415">
        <ele>786.7</ele>
        <time>2021-10-14T14:26:46Z</time>
      </trkpt>
      <trkpt lat="44.1372" lon="3.22403">
        <ele>784</ele>
        <time>2021-10-14T14:26:48Z</time>
      </trkpt>
      <trkpt lat="44.13729" lon="3.2239">
        <ele>781</ele>
        <time>2021-10-14T14:26:50Z</time>
      </trkpt>
      <trkpt lat="44.13732" lon="3.22384">
        <ele>779.7</ele>
        <time>2021-10-14T14:26:51Z</time>
      </trkpt>
      <trkpt lat="44.13736" lon="3.22382">
        <ele>778.8</ele>
        <time>2021-10-14T14:26:52Z</time>
      </trkpt>
      <trkpt lat="44.13739" lon="3.2238">
        <ele>777.8</ele>
        <time>2021-10-14T14:26:53Z</time>
      </trkpt>
      <trkpt lat="44.13744" lon="3.22375">
        <ele>776.2</ele>
        <time>2021-10-14T14:26:55Z</time>
      </trkpt>
      <trkpt lat="44.13746" lon="3.22373">
        <ele>775.5</ele>
        <time>2021-10-14T14:26:56Z</time>
      </trkpt>
      <trkpt lat="44.13749" lon="3.2237">
        <ele>774.8</ele>
        <time>2021-10-14T14:26:57Z</time>
      </trkpt>
      <trkpt lat="44.13755" lon="3.22359">
        <ele>772.7</ele>
        <time>2021-10-14T14:26:59Z</time>
      </trkpt>
      <trkpt lat="44.13757" lon="3.22354">
        <ele>771.9</ele>
        <time>2021-10-14T14:27:00Z</time>
      </trkpt>
      <trkpt lat="44.13761" lon="3.22352">
        <ele>770.7</ele>
        <time>2021-10-14T14:27:01Z</time>
      </trkpt>
      <trkpt lat="44.13762" lon="3.22351">
        <ele>770.1</ele>
        <time>2021-10-14T14:27:02Z</time>
      </trkpt>
      <trkpt lat="44.13766" lon="3.2235">
        <ele>768.7</ele>
        <time>2021-10-14T14:27:04Z</time>
      </trkpt>
      <trkpt lat="44.13769" lon="3.22346">
        <ele>767.2</ele>
        <time>2021-10-14T14:27:05Z</time>
      </trkpt>
      <trkpt lat="44.13772" lon="3.22346">
        <ele>765.9</ele>
        <time>2021-10-14T14:27:07Z</time>
      </trkpt>
      <trkpt lat="44.13774" lon="3.22346">
        <ele>765.5</ele>
        <time>2021-10-14T14:27:08Z</time>
      </trkpt>
      <trkpt lat="44.13776" lon="3.22351">
        <ele>763.7</ele>
        <time>2021-10-14T14:27:09Z</time>
      </trkpt>
      <trkpt lat="44.13779" lon="3.22351">
        <ele>762.5</ele>
        <time>2021-10-14T14:27:11Z</time>
      </trkpt>
      <trkpt lat="44.13782" lon="3.22349">
        <ele>761.2</ele>
        <time>2021-10-14T14:27:12Z</time>
      </trkpt>
      <trkpt lat="44.13784" lon="3.22347">
        <ele>760</ele>
        <time>2021-10-14T14:27:13Z</time>
      </trkpt>
      <trkpt lat="44.13786" lon="3.22345">
        <ele>759.1</ele>
        <time>2021-10-14T14:27:14Z</time>
      </trkpt>
      <trkpt lat="44.13788" lon="3.22345">
        <ele>758.4</ele>
        <time>2021-10-14T14:27:16Z</time>
      </trkpt>
      <trkpt lat="44.13791" lon="3.2235">
        <ele>756.8</ele>
        <time>2021-10-14T14:27:17Z</time>
      </trkpt>
      <trkpt lat="44.13792" lon="3.22352">
        <ele>756.1</ele>
        <time>2021-10-14T14:27:18Z</time>
      </trkpt>
      <trkpt lat="44.13793" lon="3.22358">
        <ele>754.8</ele>
        <time>2021-10-14T14:27:20Z</time>
      </trkpt>
      <trkpt lat="44.13795" lon="3.22363">
        <ele>753.4</ele>
        <time>2021-10-14T14:27:21Z</time>
      </trkpt>
      <trkpt lat="44.13796" lon="3.22368">
        <ele>752.4</ele>
        <time>2021-10-14T14:27:23Z</time>
      </trkpt>
      <trkpt lat="44.13797" lon="3.22371">
        <ele>751.7</ele>
        <time>2021-10-14T14:27:24Z</time>
      </trkpt>
      <trkpt lat="44.13798" lon="3.22376">
        <ele>750.5</ele>
        <time>2021-10-14T14:27:26Z</time>
      </trkpt>
      <trkpt lat="44.13799" lon="3.22381">
        <ele>749.5</ele>
        <time>2021-10-14T14:27:27Z</time>
      </trkpt>
      <trkpt lat="44.13799" lon="3.22387">
        <ele>748.3</ele>
        <time>2021-10-14T14:27:28Z</time>
      </trkpt>
      <trkpt lat="44.13798" lon="3.22391">
        <ele>747.3</ele>
        <time>2021-10-14T14:27:29Z</time>
      </trkpt>
      <trkpt lat="44.13798" lon="3.22393">
        <ele>746.7</ele>
        <time>2021-10-14T14:27:31Z</time>
      </trkpt>
      <trkpt lat="44.13801" lon="3.22398">
        <ele>745.2</ele>
        <time>2021-10-14T14:27:33Z</time>
      </trkpt>
      <trkpt lat="44.13807" lon="3.22398">
        <ele>742.8</ele>
        <time>2021-10-14T14:27:35Z</time>
      </trkpt>
      <trkpt lat="44.13817" lon="3.22397">
        <ele>738.5</ele>
        <time>2021-10-14T14:27:36Z</time>
      </trkpt>
      <trkpt lat="44.13824" lon="3.22395">
        <ele>735.5</ele>
        <time>2021-10-14T14:27:38Z</time>
      </trkpt>
      <trkpt lat="44.13826" lon="3.22396">
        <ele>734.4</ele>
        <time>2021-10-14T14:27:39Z</time>
      </trkpt>
      <trkpt lat="44.13831" lon="3.22399">
        <ele>732.5</ele>
        <time>2021-10-14T14:27:40Z</time>
      </trkpt>
      <trkpt lat="44.13835" lon="3.22399">
        <ele>731.1</ele>
        <time>2021-10-14T14:27:42Z</time>
      </trkpt>
      <trkpt lat="44.1384" lon="3.224">
        <ele>729</ele>
        <time>2021-10-14T14:27:43Z</time>
      </trkpt>
      <trkpt lat="44.13845" lon="3.22399">
        <ele>727.4</ele>
        <time>2021-10-14T14:27:45Z</time>
      </trkpt>
      <trkpt lat="44.13846" lon="3.22394">
        <ele>726.1</ele>
        <time>2021-10-14T14:27:46Z</time>
      </trkpt>
      <trkpt lat="44.1385" lon="3.22387">
        <ele>724.3</ele>
        <time>2021-10-14T14:27:47Z</time>
      </trkpt>
      <trkpt lat="44.13855" lon="3.22378">
        <ele>722.1</ele>
        <time>2021-10-14T14:27:48Z</time>
      </trkpt>
      <trkpt lat="44.13864" lon="3.22359">
        <ele>717.9</ele>
        <time>2021-10-14T14:27:50Z</time>
      </trkpt>
      <trkpt lat="44.13874" lon="3.22343">
        <ele>714.2</ele>
        <time>2021-10-14T14:27:52Z</time>
      </trkpt>
      <trkpt lat="44.13884" lon="3.22333">
        <ele>711.5</ele>
        <time>2021-10-14T14:27:54Z</time>
      </trkpt>
      <trkpt lat="44.13888" lon="3.2233">
        <ele>710.4</ele>
        <time>2021-10-14T14:27:55Z</time>
      </trkpt>
      <trkpt lat="44.13892" lon="3.22326">
        <ele>709.5</ele>
        <time>2021-10-14T14:27:56Z</time>
      </trkpt>
      <trkpt lat="44.13896" lon="3.22323">
        <ele>708.6</ele>
        <time>2021-10-14T14:27:57Z</time>
      </trkpt>
      <trkpt lat="44.13901" lon="3.2232">
        <ele>707.4</ele>
        <time>2021-10-14T14:27:59Z</time>
      </trkpt>
      <trkpt lat="44.13904" lon="3.22319">
        <ele>706.8</ele>
        <time>2021-10-14T14:28:00Z</time>
      </trkpt>
      <trkpt lat="44.13915" lon="3.22307">
        <ele>703.9</ele>
        <time>2021-10-14T14:28:02Z</time>
      </trkpt>
      <trkpt lat="44.13919" lon="3.223">
        <ele>702.4</ele>
        <time>2021-10-14T14:28:03Z</time>
      </trkpt>
      <trkpt lat="44.13929" lon="3.22291">
        <ele>699.6</ele>
        <time>2021-10-14T14:28:05Z</time>
      </trkpt>
      <trkpt lat="44.13938" lon="3.22277">
        <ele>696.3</ele>
        <time>2021-10-14T14:28:07Z</time>
      </trkpt>
      <trkpt lat="44.13946" lon="3.22263">
        <ele>693.2</ele>
        <time>2021-10-14T14:28:09Z</time>
      </trkpt>
      <trkpt lat="44.13949" lon="3.22257">
        <ele>692</ele>
        <time>2021-10-14T14:28:11Z</time>
      </trkpt>
      <trkpt lat="44.13949" lon="3.22257">
        <ele>691.9</ele>
        <time>2021-10-14T14:28:12Z</time>
      </trkpt>
      <trkpt lat="44.13947" lon="3.22256">
        <ele>691.5</ele>
        <time>2021-10-14T14:28:13Z</time>
      </trkpt>
      <trkpt lat="44.13943" lon="3.2225">
        <ele>690.4</ele>
        <time>2021-10-14T14:28:15Z</time>
      </trkpt>
      <trkpt lat="44.13941" lon="3.22247">
        <ele>690</ele>
        <time>2021-10-14T14:28:16Z</time>
      </trkpt>
      <trkpt lat="44.1394" lon="3.22243">
        <ele>689.6</ele>
        <time>2021-10-14T14:28:17Z</time>
      </trkpt>
      <trkpt lat="44.13939" lon="3.2224">
        <ele>689.2</ele>
        <time>2021-10-14T14:28:18Z</time>
      </trkpt>
      <trkpt lat="44.13936" lon="3.22236">
        <ele>688.8</ele>
        <time>2021-10-14T14:28:19Z</time>
      </trkpt>
      <trkpt lat="44.13933" lon="3.22231">
        <ele>688.4</ele>
        <time>2021-10-14T14:28:20Z</time>
      </trkpt>
      <trkpt lat="44.1393" lon="3.22226">
        <ele>687.9</ele>
        <time>2021-10-14T14:28:21Z</time>
      </trkpt>
      <trkpt lat="44.13925" lon="3.22208">
        <ele>686.6</ele>
        <time>2021-10-14T14:28:23Z</time>
      </trkpt>
      <trkpt lat="44.13926" lon="3.22197">
        <ele>685.9</ele>
        <time>2021-10-14T14:28:24Z</time>
      </trkpt>
      <trkpt lat="44.13924" lon="3.22181">
        <ele>684.4</ele>
        <time>2021-10-14T14:28:26Z</time>
      </trkpt>
      <trkpt lat="44.13922" lon="3.22173">
        <ele>683.4</ele>
        <time>2021-10-14T14:28:27Z</time>
      </trkpt>
      <trkpt lat="44.13921" lon="3.22167">
        <ele>682.7</ele>
        <time>2021-10-14T14:28:28Z</time>
      </trkpt>
      <trkpt lat="44.1392" lon="3.22161">
        <ele>681.8</ele>
        <time>2021-10-14T14:28:30Z</time>
      </trkpt>
      <trkpt lat="44.13915" lon="3.22149">
        <ele>680</ele>
        <time>2021-10-14T14:28:32Z</time>
      </trkpt>
      <trkpt lat="44.13911" lon="3.22139">
        <ele>678.6</ele>
        <time>2021-10-14T14:28:34Z</time>
      </trkpt>
      <trkpt lat="44.13907" lon="3.22135">
        <ele>677.8</ele>
        <time>2021-10-14T14:28:35Z</time>
      </trkpt>
      <trkpt lat="44.13902" lon="3.22117">
        <ele>675.5</ele>
        <time>2021-10-14T14:28:37Z</time>
      </trkpt>
      <trkpt lat="44.139" lon="3.22102">
        <ele>673.6</ele>
        <time>2021-10-14T14:28:38Z</time>
      </trkpt>
      <trkpt lat="44.13898" lon="3.22076">
        <ele>670</ele>
        <time>2021-10-14T14:28:40Z</time>
      </trkpt>
      <trkpt lat="44.13897" lon="3.22066">
        <ele>668.3</ele>
        <time>2021-10-14T14:28:41Z</time>
      </trkpt>
      <trkpt lat="44.13892" lon="3.2205">
        <ele>665.5</ele>
        <time>2021-10-14T14:28:43Z</time>
      </trkpt>
      <trkpt lat="44.13888" lon="3.22046">
        <ele>664.3</ele>
        <time>2021-10-14T14:28:44Z</time>
      </trkpt>
      <trkpt lat="44.13885" lon="3.22041">
        <ele>663.2</ele>
        <time>2021-10-14T14:28:46Z</time>
      </trkpt>
      <trkpt lat="44.13885" lon="3.22036">
        <ele>662.4</ele>
        <time>2021-10-14T14:28:47Z</time>
      </trkpt>
      <trkpt lat="44.13885" lon="3.22034">
        <ele>662.1</ele>
        <time>2021-10-14T14:28:48Z</time>
      </trkpt>
      <trkpt lat="44.13884" lon="3.22028">
        <ele>661</ele>
        <time>2021-10-14T14:28:49Z</time>
      </trkpt>
      <trkpt lat="44.13881" lon="3.22024">
        <ele>660.2</ele>
        <time>2021-10-14T14:28:50Z</time>
      </trkpt>
      <trkpt lat="44.13873" lon="3.22013">
        <ele>658</ele>
        <time>2021-10-14T14:28:52Z</time>
      </trkpt>
      <trkpt lat="44.13865" lon="3.22002">
        <ele>656.3</ele>
        <time>2021-10-14T14:28:54Z</time>
      </trkpt>
      <trkpt lat="44.13853" lon="3.21992">
        <ele>654.1</ele>
        <time>2021-10-14T14:28:56Z</time>
      </trkpt>
      <trkpt lat="44.13843" lon="3.21981">
        <ele>651.8</ele>
        <time>2021-10-14T14:28:58Z</time>
      </trkpt>
      <trkpt lat="44.13838" lon="3.21975">
        <ele>650.5</ele>
        <time>2021-10-14T14:28:59Z</time>
      </trkpt>
      <trkpt lat="44.13826" lon="3.21966">
        <ele>647.7</ele>
        <time>2021-10-14T14:29:01Z</time>
      </trkpt>
      <trkpt lat="44.1382" lon="3.21964">
        <ele>646.3</ele>
        <time>2021-10-14T14:29:02Z</time>
      </trkpt>
      <trkpt lat="44.1381" lon="3.21959">
        <ele>643.7</ele>
        <time>2021-10-14T14:29:04Z</time>
      </trkpt>
      <trkpt lat="44.13805" lon="3.2196">
        <ele>642.5</ele>
        <time>2021-10-14T14:29:05Z</time>
      </trkpt>
      <trkpt lat="44.13803" lon="3.21961">
        <ele>641.9</ele>
        <time>2021-10-14T14:29:06Z</time>
      </trkpt>
      <trkpt lat="44.13796" lon="3.21964">
        <ele>640.1</ele>
        <time>2021-10-14T14:29:08Z</time>
      </trkpt>
      <trkpt lat="44.13792" lon="3.21967">
        <ele>638.9</ele>
        <time>2021-10-14T14:29:09Z</time>
      </trkpt>
      <trkpt lat="44.13789" lon="3.2197">
        <ele>637.7</ele>
        <time>2021-10-14T14:29:10Z</time>
      </trkpt>
      <trkpt lat="44.13784" lon="3.21972">
        <ele>636.3</ele>
        <time>2021-10-14T14:29:12Z</time>
      </trkpt>
      <trkpt lat="44.13777" lon="3.2197">
        <ele>634.1</ele>
        <time>2021-10-14T14:29:13Z</time>
      </trkpt>
      <trkpt lat="44.13771" lon="3.21971">
        <ele>633.3</ele>
        <time>2021-10-14T14:29:15Z</time>
      </trkpt>
      <trkpt lat="44.13767" lon="3.2197">
        <ele>632.9</ele>
        <time>2021-10-14T14:29:16Z</time>
      </trkpt>
      <trkpt lat="44.13765" lon="3.21967">
        <ele>632.6</ele>
        <time>2021-10-14T14:29:17Z</time>
      </trkpt>
      <trkpt lat="44.13765" lon="3.21965">
        <ele>632.5</ele>
        <time>2021-10-14T14:29:19Z</time>
      </trkpt>
      <trkpt lat="44.13766" lon="3.21963">
        <ele>632.2</ele>
        <time>2021-10-14T14:29:21Z</time>
      </trkpt>
      <trkpt lat="44.13768" lon="3.21961">
        <ele>632</ele>
        <time>2021-10-14T14:29:22Z</time>
      </trkpt>
      <trkpt lat="44.13767" lon="3.21959">
        <ele>631.8</ele>
        <time>2021-10-14T14:29:24Z</time>
      </trkpt>
      <trkpt lat="44.13764" lon="3.21958">
        <ele>631.1</ele>
        <time>2021-10-14T14:29:25Z</time>
      </trkpt>
      <trkpt lat="44.13759" lon="3.21956">
        <ele>630.1</ele>
        <time>2021-10-14T14:29:26Z</time>
      </trkpt>
      <trkpt lat="44.13757" lon="3.21952">
        <ele>628.2</ele>
        <time>2021-10-14T14:29:28Z</time>
      </trkpt>
      <trkpt lat="44.13757" lon="3.21949">
        <ele>626.3</ele>
        <time>2021-10-14T14:29:29Z</time>
      </trkpt>
      <trkpt lat="44.13759" lon="3.21943">
        <ele>624.5</ele>
        <time>2021-10-14T14:29:31Z</time>
      </trkpt>
      <trkpt lat="44.13761" lon="3.21939">
        <ele>623.1</ele>
        <time>2021-10-14T14:29:33Z</time>
      </trkpt>
      <trkpt lat="44.13763" lon="3.21934">
        <ele>621.6</ele>
        <time>2021-10-14T14:29:34Z</time>
      </trkpt>
      <trkpt lat="44.13764" lon="3.2193">
        <ele>619.8</ele>
        <time>2021-10-14T14:29:35Z</time>
      </trkpt>
      <trkpt lat="44.13762" lon="3.21927">
        <ele>617.7</ele>
        <time>2021-10-14T14:29:37Z</time>
      </trkpt>
      <trkpt lat="44.13761" lon="3.21925">
        <ele>617.4</ele>
        <time>2021-10-14T14:29:38Z</time>
      </trkpt>
      <trkpt lat="44.13753" lon="3.21926">
        <ele>615.8</ele>
        <time>2021-10-14T14:29:39Z</time>
      </trkpt>
      <trkpt lat="44.13748" lon="3.21925">
        <ele>613.6</ele>
        <time>2021-10-14T14:29:40Z</time>
      </trkpt>
      <trkpt lat="44.13746" lon="3.21923">
        <ele>612.7</ele>
        <time>2021-10-14T14:29:41Z</time>
      </trkpt>
      <trkpt lat="44.13744" lon="3.21919">
        <ele>610.9</ele>
        <time>2021-10-14T14:29:42Z</time>
      </trkpt>
      <trkpt lat="44.13744" lon="3.21917">
        <ele>610.1</ele>
        <time>2021-10-14T14:29:43Z</time>
      </trkpt>
      <trkpt lat="44.13744" lon="3.21913">
        <ele>608.3</ele>
        <time>2021-10-14T14:29:45Z</time>
      </trkpt>
      <trkpt lat="44.13747" lon="3.2191">
        <ele>607.3</ele>
        <time>2021-10-14T14:29:46Z</time>
      </trkpt>
      <trkpt lat="44.1375" lon="3.21901">
        <ele>604.6</ele>
        <time>2021-10-14T14:29:47Z</time>
      </trkpt>
      <trkpt lat="44.1376" lon="3.21889">
        <ele>601.1</ele>
        <time>2021-10-14T14:29:49Z</time>
      </trkpt>
      <trkpt lat="44.13768" lon="3.21874">
        <ele>598.5</ele>
        <time>2021-10-14T14:29:51Z</time>
      </trkpt>
      <trkpt lat="44.13772" lon="3.21868">
        <ele>597.3</ele>
        <time>2021-10-14T14:29:52Z</time>
      </trkpt>
      <trkpt lat="44.13776" lon="3.2186">
        <ele>596.1</ele>
        <time>2021-10-14T14:29:53Z</time>
      </trkpt>
      <trkpt lat="44.1378" lon="3.21843">
        <ele>594.4</ele>
        <time>2021-10-14T14:29:55Z</time>
      </trkpt>
      <trkpt lat="44.13782" lon="3.21834">
        <ele>593.9</ele>
        <time>2021-10-14T14:29:56Z</time>
      </trkpt>
      <trkpt lat="44.13784" lon="3.21829">
        <ele>593.3</ele>
        <time>2021-10-14T14:29:57Z</time>
      </trkpt>
      <trkpt lat="44.13782" lon="3.21827">
        <ele>592.9</ele>
        <time>2021-10-14T14:29:59Z</time>
      </trkpt>
      <trkpt lat="44.13781" lon="3.21829">
        <ele>592.5</ele>
        <time>2021-10-14T14:30:00Z</time>
      </trkpt>
      <trkpt lat="44.1378" lon="3.21831">
        <ele>591.9</ele>
        <time>2021-10-14T14:30:01Z</time>
      </trkpt>
      <trkpt lat="44.13778" lon="3.21837">
        <ele>591.3</ele>
        <time>2021-10-14T14:30:02Z</time>
      </trkpt>
      <trkpt lat="44.13772" lon="3.21846">
        <ele>591</ele>
        <time>2021-10-14T14:30:04Z</time>
      </trkpt>
      <trkpt lat="44.13771" lon="3.21845">
        <ele>590.1</ele>
        <time>2021-10-14T14:30:05Z</time>
      </trkpt>
      <trkpt lat="44.13771" lon="3.21843">
        <ele>589.4</ele>
        <time>2021-10-14T14:30:07Z</time>
      </trkpt>
      <trkpt lat="44.1377" lon="3.21841">
        <ele>589</ele>
        <time>2021-10-14T14:30:08Z</time>
      </trkpt>
      <trkpt lat="44.13768" lon="3.21833">
        <ele>587.6</ele>
        <time>2021-10-14T14:30:09Z</time>
      </trkpt>
      <trkpt lat="44.13766" lon="3.21829">
        <ele>587</ele>
        <time>2021-10-14T14:30:10Z</time>
      </trkpt>
      <trkpt lat="44.13763" lon="3.21826">
        <ele>586.1</ele>
        <time>2021-10-14T14:30:11Z</time>
      </trkpt>
      <trkpt lat="44.13759" lon="3.21824">
        <ele>585.3</ele>
        <time>2021-10-14T14:30:13Z</time>
      </trkpt>
      <trkpt lat="44.13758" lon="3.21824">
        <ele>585</ele>
        <time>2021-10-14T14:30:14Z</time>
      </trkpt>
      <trkpt lat="44.13757" lon="3.21825">
        <ele>584.7</ele>
        <time>2021-10-14T14:30:15Z</time>
      </trkpt>
      <trkpt lat="44.13754" lon="3.21827">
        <ele>584.1</ele>
        <time>2021-10-14T14:30:16Z</time>
      </trkpt>
      <trkpt lat="44.13751" lon="3.2183">
        <ele>583.5</ele>
        <time>2021-10-14T14:30:18Z</time>
      </trkpt>
      <trkpt lat="44.13739" lon="3.21832">
        <ele>581.4</ele>
        <time>2021-10-14T14:30:20Z</time>
      </trkpt>
      <trkpt lat="44.13733" lon="3.21834">
        <ele>580.4</ele>
        <time>2021-10-14T14:30:21Z</time>
      </trkpt>
      <trkpt lat="44.1373" lon="3.21832">
        <ele>579.9</ele>
        <time>2021-10-14T14:30:23Z</time>
      </trkpt>
      <trkpt lat="44.13727" lon="3.21826">
        <ele>579</ele>
        <time>2021-10-14T14:30:24Z</time>
      </trkpt>
      <trkpt lat="44.13727" lon="3.21823">
        <ele>578.6</ele>
        <time>2021-10-14T14:30:26Z</time>
      </trkpt>
      <trkpt lat="44.13727" lon="3.21822">
        <ele>578.5</ele>
        <time>2021-10-14T14:30:27Z</time>
      </trkpt>
      <trkpt lat="44.13727" lon="3.21823">
        <ele>578.5</ele>
        <time>2021-10-14T14:30:29Z</time>
      </trkpt>
      <trkpt lat="44.13727" lon="3.21823">
        <ele>578.4</ele>
        <time>2021-10-14T14:30:31Z</time>
      </trkpt>
      <trkpt lat="44.13727" lon="3.21823">
        <ele>578.4</ele>
        <time>2021-10-14T14:30:33Z</time>
      </trkpt>
      <trkpt lat="44.13726" lon="3.21822">
        <ele>578.3</ele>
        <time>2021-10-14T14:30:36Z</time>
      </trkpt>
      <trkpt lat="44.13724" lon="3.21825">
        <ele>577.7</ele>
        <time>2021-10-14T14:30:38Z</time>
      </trkpt>
      <trkpt lat="44.1372" lon="3.2183">
        <ele>576.7</ele>
        <time>2021-10-14T14:30:39Z</time>
      </trkpt>
      <trkpt lat="44.13713" lon="3.21835">
        <ele>575</ele>
        <time>2021-10-14T14:30:41Z</time>
      </trkpt>
      <trkpt lat="44.1371" lon="3.21837">
        <ele>574.2</ele>
        <time>2021-10-14T14:30:42Z</time>
      </trkpt>
      <trkpt lat="44.13707" lon="3.21839">
        <ele>573.7</ele>
        <time>2021-10-14T14:30:43Z</time>
      </trkpt>
      <trkpt lat="44.13688" lon="3.21827">
        <ele>570.7</ele>
        <time>2021-10-14T14:30:45Z</time>
      </trkpt>
      <trkpt lat="44.13675" lon="3.21822">
        <ele>568.2</ele>
        <time>2021-10-14T14:30:47Z</time>
      </trkpt>
      <trkpt lat="44.13671" lon="3.21821">
        <ele>567.1</ele>
        <time>2021-10-14T14:30:48Z</time>
      </trkpt>
      <trkpt lat="44.13665" lon="3.21821">
        <ele>565.9</ele>
        <time>2021-10-14T14:30:49Z</time>
      </trkpt>
      <trkpt lat="44.13658" lon="3.21821">
        <ele>565.2</ele>
        <time>2021-10-14T14:30:51Z</time>
      </trkpt>
      <trkpt lat="44.13652" lon="3.21816">
        <ele>564.7</ele>
        <time>2021-10-14T14:30:52Z</time>
      </trkpt>
      <trkpt lat="44.13651" lon="3.21813">
        <ele>564.5</ele>
        <time>2021-10-14T14:30:54Z</time>
      </trkpt>
      <trkpt lat="44.1365" lon="3.2181">
        <ele>564.4</ele>
        <time>2021-10-14T14:30:55Z</time>
      </trkpt>
      <trkpt lat="44.13649" lon="3.2181">
        <ele>564.3</ele>
        <time>2021-10-14T14:30:56Z</time>
      </trkpt>
      <trkpt lat="44.13646" lon="3.21811">
        <ele>564.1</ele>
        <time>2021-10-14T14:30:57Z</time>
      </trkpt>
      <trkpt lat="44.13642" lon="3.21814">
        <ele>563.7</ele>
        <time>2021-10-14T14:30:59Z</time>
      </trkpt>
      <trkpt lat="44.13637" lon="3.21817">
        <ele>563.3</ele>
        <time>2021-10-14T14:31:01Z</time>
      </trkpt>
      <trkpt lat="44.13634" lon="3.21817">
        <ele>563.1</ele>
        <time>2021-10-14T14:31:02Z</time>
      </trkpt>
      <trkpt lat="44.13631" lon="3.21818">
        <ele>562.8</ele>
        <time>2021-10-14T14:31:03Z</time>
      </trkpt>
      <trkpt lat="44.13627" lon="3.21818">
        <ele>562.5</ele>
        <time>2021-10-14T14:31:04Z</time>
      </trkpt>
      <trkpt lat="44.13622" lon="3.21819">
        <ele>562.1</ele>
        <time>2021-10-14T14:31:06Z</time>
      </trkpt>
      <trkpt lat="44.13618" lon="3.2182">
        <ele>561.8</ele>
        <time>2021-10-14T14:31:07Z</time>
      </trkpt>
      <trkpt lat="44.13616" lon="3.2182">
        <ele>561.6</ele>
        <time>2021-10-14T14:31:09Z</time>
      </trkpt>
      <trkpt lat="44.13615" lon="3.21819">
        <ele>561.5</ele>
        <time>2021-10-14T14:31:10Z</time>
      </trkpt>
      <trkpt lat="44.13612" lon="3.2182">
        <ele>561.3</ele>
        <time>2021-10-14T14:31:11Z</time>
      </trkpt>
      <trkpt lat="44.13611" lon="3.2182">
        <ele>561.2</ele>
        <time>2021-10-14T14:31:12Z</time>
      </trkpt>
      <trkpt lat="44.13607" lon="3.21822">
        <ele>560.8</ele>
        <time>2021-10-14T14:31:14Z</time>
      </trkpt>
      <trkpt lat="44.13603" lon="3.21823">
        <ele>560.5</ele>
        <time>2021-10-14T14:31:15Z</time>
      </trkpt>
      <trkpt lat="44.13601" lon="3.21823">
        <ele>560.3</ele>
        <time>2021-10-14T14:31:16Z</time>
      </trkpt>
      <trkpt lat="44.13599" lon="3.21822">
        <ele>560.2</ele>
        <time>2021-10-14T14:31:17Z</time>
      </trkpt>
      <trkpt lat="44.13597" lon="3.2182">
        <ele>559.9</ele>
        <time>2021-10-14T14:31:19Z</time>
      </trkpt>
      <trkpt lat="44.13594" lon="3.21819">
        <ele>559.7</ele>
        <time>2021-10-14T14:31:20Z</time>
      </trkpt>
      <trkpt lat="44.13593" lon="3.21818">
        <ele>559.6</ele>
        <time>2021-10-14T14:31:21Z</time>
      </trkpt>
      <trkpt lat="44.13589" lon="3.21818">
        <ele>559.3</ele>
        <time>2021-10-14T14:31:23Z</time>
      </trkpt>
      <trkpt lat="44.13588" lon="3.21817">
        <ele>559.1</ele>
        <time>2021-10-14T14:31:24Z</time>
      </trkpt>
      <trkpt lat="44.13586" lon="3.21816">
        <ele>559</ele>
        <time>2021-10-14T14:31:25Z</time>
      </trkpt>
      <trkpt lat="44.13585" lon="3.21816">
        <ele>558.9</ele>
        <time>2021-10-14T14:31:26Z</time>
      </trkpt>
      <trkpt lat="44.13583" lon="3.21815">
        <ele>558.7</ele>
        <time>2021-10-14T14:31:27Z</time>
      </trkpt>
      <trkpt lat="44.13579" lon="3.21813">
        <ele>558.4</ele>
        <time>2021-10-14T14:31:29Z</time>
      </trkpt>
      <trkpt lat="44.13578" lon="3.21812">
        <ele>558.3</ele>
        <time>2021-10-14T14:31:30Z</time>
      </trkpt>
      <trkpt lat="44.13574" lon="3.21808">
        <ele>557.8</ele>
        <time>2021-10-14T14:31:32Z</time>
      </trkpt>
      <trkpt lat="44.13571" lon="3.21804">
        <ele>557.5</ele>
        <time>2021-10-14T14:31:33Z</time>
      </trkpt>
      <trkpt lat="44.13569" lon="3.21801">
        <ele>557.2</ele>
        <time>2021-10-14T14:31:34Z</time>
      </trkpt>
      <trkpt lat="44.13565" lon="3.21799">
        <ele>557</ele>
        <time>2021-10-14T14:31:35Z</time>
      </trkpt>
      <trkpt lat="44.13563" lon="3.21799">
        <ele>556.7</ele>
        <time>2021-10-14T14:31:37Z</time>
      </trkpt>
      <trkpt lat="44.13559" lon="3.21801">
        <ele>556.4</ele>
        <time>2021-10-14T14:31:39Z</time>
      </trkpt>
      <trkpt lat="44.13556" lon="3.21803">
        <ele>556.1</ele>
        <time>2021-10-14T14:31:40Z</time>
      </trkpt>
      <trkpt lat="44.13553" lon="3.21805">
        <ele>555.9</ele>
        <time>2021-10-14T14:31:41Z</time>
      </trkpt>
      <trkpt lat="44.13549" lon="3.21809">
        <ele>555.4</ele>
        <time>2021-10-14T14:31:42Z</time>
      </trkpt>
      <trkpt lat="44.13539" lon="3.21813">
        <ele>552.1</ele>
        <time>2021-10-14T14:31:44Z</time>
      </trkpt>
      <trkpt lat="44.13524" lon="3.21812">
        <ele>550.5</ele>
        <time>2021-10-14T14:31:46Z</time>
      </trkpt>
      <trkpt lat="44.13521" lon="3.21812">
        <ele>550.1</ele>
        <time>2021-10-14T14:31:47Z</time>
      </trkpt>
      <trkpt lat="44.13512" lon="3.2181">
        <ele>549</ele>
        <time>2021-10-14T14:31:48Z</time>
      </trkpt>
      <trkpt lat="44.13504" lon="3.21809">
        <ele>547.7</ele>
        <time>2021-10-14T14:31:50Z</time>
      </trkpt>
      <trkpt lat="44.13489" lon="3.2181">
        <ele>545</ele>
        <time>2021-10-14T14:31:52Z</time>
      </trkpt>
      <trkpt lat="44.13481" lon="3.21811">
        <ele>543.5</ele>
        <time>2021-10-14T14:31:53Z</time>
      </trkpt>
      <trkpt lat="44.13473" lon="3.21814">
        <ele>542.3</ele>
        <time>2021-10-14T14:31:54Z</time>
      </trkpt>
      <trkpt lat="44.13461" lon="3.21825">
        <ele>540.7</ele>
        <time>2021-10-14T14:31:56Z</time>
      </trkpt>
      <trkpt lat="44.13456" lon="3.2183">
        <ele>540</ele>
        <time>2021-10-14T14:31:57Z</time>
      </trkpt>
      <trkpt lat="44.13451" lon="3.21836">
        <ele>539.1</ele>
        <time>2021-10-14T14:31:59Z</time>
      </trkpt>
      <trkpt lat="44.13452" lon="3.21833">
        <ele>538.8</ele>
        <time>2021-10-14T14:32:00Z</time>
      </trkpt>
      <trkpt lat="44.13449" lon="3.21827">
        <ele>537.8</ele>
        <time>2021-10-14T14:32:02Z</time>
      </trkpt>
      <trkpt lat="44.13449" lon="3.21825">
        <ele>537.5</ele>
        <time>2021-10-14T14:32:03Z</time>
      </trkpt>
      <trkpt lat="44.13447" lon="3.21823">
        <ele>537.1</ele>
        <time>2021-10-14T14:32:04Z</time>
      </trkpt>
      <trkpt lat="44.13444" lon="3.21824">
        <ele>536.4</ele>
        <time>2021-10-14T14:32:06Z</time>
      </trkpt>
      <trkpt lat="44.13441" lon="3.21825">
        <ele>535.8</ele>
        <time>2021-10-14T14:32:07Z</time>
      </trkpt>
      <trkpt lat="44.13436" lon="3.21829">
        <ele>535</ele>
        <time>2021-10-14T14:32:08Z</time>
      </trkpt>
      <trkpt lat="44.13433" lon="3.21832">
        <ele>534.4</ele>
        <time>2021-10-14T14:32:09Z</time>
      </trkpt>
      <trkpt lat="44.1343" lon="3.21833">
        <ele>534.2</ele>
        <time>2021-10-14T14:32:10Z</time>
      </trkpt>
      <trkpt lat="44.13428" lon="3.21834">
        <ele>534</ele>
        <time>2021-10-14T14:32:12Z</time>
      </trkpt>
      <trkpt lat="44.13422" lon="3.21837">
        <ele>533.6</ele>
        <time>2021-10-14T14:32:14Z</time>
      </trkpt>
      <trkpt lat="44.13415" lon="3.2184">
        <ele>532.9</ele>
        <time>2021-10-14T14:32:16Z</time>
      </trkpt>
      <trkpt lat="44.13411" lon="3.21842">
        <ele>532.3</ele>
        <time>2021-10-14T14:32:17Z</time>
      </trkpt>
      <trkpt lat="44.13404" lon="3.21843">
        <ele>531.1</ele>
        <time>2021-10-14T14:32:19Z</time>
      </trkpt>
      <trkpt lat="44.13398" lon="3.21841">
        <ele>529.7</ele>
        <time>2021-10-14T14:32:21Z</time>
      </trkpt>
      <trkpt lat="44.13392" lon="3.21839">
        <ele>528</ele>
        <time>2021-10-14T14:32:23Z</time>
      </trkpt>
      <trkpt lat="44.13384" lon="3.21839">
        <ele>526.1</ele>
        <time>2021-10-14T14:32:24Z</time>
      </trkpt>
      <trkpt lat="44.13379" lon="3.2184">
        <ele>524.7</ele>
        <time>2021-10-14T14:32:26Z</time>
      </trkpt>
      <trkpt lat="44.13375" lon="3.21842">
        <ele>523.6</ele>
        <time>2021-10-14T14:32:27Z</time>
      </trkpt>
      <trkpt lat="44.13374" lon="3.21843">
        <ele>523.2</ele>
        <time>2021-10-14T14:32:28Z</time>
      </trkpt>
      <trkpt lat="44.1337" lon="3.21846">
        <ele>522.2</ele>
        <time>2021-10-14T14:32:30Z</time>
      </trkpt>
      <trkpt lat="44.13367" lon="3.2185">
        <ele>520.9</ele>
        <time>2021-10-14T14:32:32Z</time>
      </trkpt>
      <trkpt lat="44.13365" lon="3.21852">
        <ele>520.2</ele>
        <time>2021-10-14T14:32:33Z</time>
      </trkpt>
      <trkpt lat="44.13359" lon="3.21854">
        <ele>518.3</ele>
        <time>2021-10-14T14:32:35Z</time>
      </trkpt>
      <trkpt lat="44.13356" lon="3.21855">
        <ele>517.3</ele>
        <time>2021-10-14T14:32:36Z</time>
      </trkpt>
      <trkpt lat="44.13353" lon="3.21856">
        <ele>516.7</ele>
        <time>2021-10-14T14:32:37Z</time>
      </trkpt>
      <trkpt lat="44.1335" lon="3.21858">
        <ele>516</ele>
        <time>2021-10-14T14:32:39Z</time>
      </trkpt>
      <trkpt lat="44.13348" lon="3.21861">
        <ele>515.4</ele>
        <time>2021-10-14T14:32:40Z</time>
      </trkpt>
      <trkpt lat="44.13346" lon="3.21864">
        <ele>514.9</ele>
        <time>2021-10-14T14:32:42Z</time>
      </trkpt>
      <trkpt lat="44.13344" lon="3.21871">
        <ele>514.2</ele>
        <time>2021-10-14T14:32:43Z</time>
      </trkpt>
      <trkpt lat="44.13341" lon="3.21878">
        <ele>513.6</ele>
        <time>2021-10-14T14:32:44Z</time>
      </trkpt>
      <trkpt lat="44.13338" lon="3.21883">
        <ele>513.3</ele>
        <time>2021-10-14T14:32:45Z</time>
      </trkpt>
      <trkpt lat="44.13336" lon="3.21886">
        <ele>513</ele>
        <time>2021-10-14T14:32:47Z</time>
      </trkpt>
      <trkpt lat="44.13335" lon="3.21888">
        <ele>512.8</ele>
        <time>2021-10-14T14:32:48Z</time>
      </trkpt>
      <trkpt lat="44.13331" lon="3.21893">
        <ele>512.5</ele>
        <time>2021-10-14T14:32:50Z</time>
      </trkpt>
      <trkpt lat="44.13328" lon="3.21895">
        <ele>512.3</ele>
        <time>2021-10-14T14:32:51Z</time>
      </trkpt>
      <trkpt lat="44.13328" lon="3.21896">
        <ele>512.2</ele>
        <time>2021-10-14T14:32:52Z</time>
      </trkpt>
      <trkpt lat="44.13324" lon="3.21904">
        <ele>511.8</ele>
        <time>2021-10-14T14:32:54Z</time>
      </trkpt>
      <trkpt lat="44.13321" lon="3.21908">
        <ele>511.6</ele>
        <time>2021-10-14T14:32:55Z</time>
      </trkpt>
      <trkpt lat="44.13319" lon="3.21911">
        <ele>511.5</ele>
        <time>2021-10-14T14:32:56Z</time>
      </trkpt>
      <trkpt lat="44.13317" lon="3.21915">
        <ele>511.3</ele>
        <time>2021-10-14T14:32:57Z</time>
      </trkpt>
      <trkpt lat="44.13314" lon="3.21918">
        <ele>511.2</ele>
        <time>2021-10-14T14:32:59Z</time>
      </trkpt>
      <trkpt lat="44.13311" lon="3.2192">
        <ele>511.1</ele>
        <time>2021-10-14T14:33:00Z</time>
      </trkpt>
      <trkpt lat="44.13308" lon="3.21925">
        <ele>510.9</ele>
        <time>2021-10-14T14:33:01Z</time>
      </trkpt>
      <trkpt lat="44.13303" lon="3.21929">
        <ele>510.5</ele>
        <time>2021-10-14T14:33:03Z</time>
      </trkpt>
      <trkpt lat="44.13298" lon="3.21933">
        <ele>509.9</ele>
        <time>2021-10-14T14:33:04Z</time>
      </trkpt>
      <trkpt lat="44.13291" lon="3.21935">
        <ele>509.1</ele>
        <time>2021-10-14T14:33:06Z</time>
      </trkpt>
      <trkpt lat="44.13287" lon="3.21935">
        <ele>508.6</ele>
        <time>2021-10-14T14:33:07Z</time>
      </trkpt>
      <trkpt lat="44.13278" lon="3.21935">
        <ele>507.5</ele>
        <time>2021-10-14T14:33:09Z</time>
      </trkpt>
      <trkpt lat="44.13273" lon="3.21933">
        <ele>506.9</ele>
        <time>2021-10-14T14:33:10Z</time>
      </trkpt>
      <trkpt lat="44.1327" lon="3.21932">
        <ele>506.6</ele>
        <time>2021-10-14T14:33:11Z</time>
      </trkpt>
      <trkpt lat="44.13267" lon="3.21934">
        <ele>506.2</ele>
        <time>2021-10-14T14:33:13Z</time>
      </trkpt>
      <trkpt lat="44.13262" lon="3.21933">
        <ele>505.7</ele>
        <time>2021-10-14T14:33:15Z</time>
      </trkpt>
      <trkpt lat="44.1326" lon="3.21936">
        <ele>505.3</ele>
        <time>2021-10-14T14:33:16Z</time>
      </trkpt>
      <trkpt lat="44.13256" lon="3.21937">
        <ele>504.8</ele>
        <time>2021-10-14T14:33:17Z</time>
      </trkpt>
      <trkpt lat="44.13252" lon="3.21936">
        <ele>504.3</ele>
        <time>2021-10-14T14:33:18Z</time>
      </trkpt>
      <trkpt lat="44.13248" lon="3.21937">
        <ele>503.9</ele>
        <time>2021-10-14T14:33:20Z</time>
      </trkpt>
      <trkpt lat="44.13245" lon="3.21938">
        <ele>503.6</ele>
        <time>2021-10-14T14:33:21Z</time>
      </trkpt>
      <trkpt lat="44.13239" lon="3.21937">
        <ele>503.2</ele>
        <time>2021-10-14T14:33:22Z</time>
      </trkpt>
      <trkpt lat="44.13226" lon="3.21933">
        <ele>502.3</ele>
        <time>2021-10-14T14:33:24Z</time>
      </trkpt>
      <trkpt lat="44.13216" lon="3.2193">
        <ele>501.6</ele>
        <time>2021-10-14T14:33:25Z</time>
      </trkpt>
      <trkpt lat="44.13211" lon="3.2193">
        <ele>501.1</ele>
        <time>2021-10-14T14:33:27Z</time>
      </trkpt>
      <trkpt lat="44.13207" lon="3.21929">
        <ele>500.7</ele>
        <time>2021-10-14T14:33:28Z</time>
      </trkpt>
      <trkpt lat="44.13204" lon="3.2193">
        <ele>500.4</ele>
        <time>2021-10-14T14:33:29Z</time>
      </trkpt>
      <trkpt lat="44.13201" lon="3.21932">
        <ele>500</ele>
        <time>2021-10-14T14:33:30Z</time>
      </trkpt>
      <trkpt lat="44.13197" lon="3.21934">
        <ele>499.6</ele>
        <time>2021-10-14T14:33:31Z</time>
      </trkpt>
      <trkpt lat="44.13191" lon="3.21937">
        <ele>499</ele>
        <time>2021-10-14T14:33:32Z</time>
      </trkpt>
      <trkpt lat="44.13187" lon="3.21939">
        <ele>498.5</ele>
        <time>2021-10-14T14:33:34Z</time>
      </trkpt>
      <trkpt lat="44.13183" lon="3.21943">
        <ele>498</ele>
        <time>2021-10-14T14:33:35Z</time>
      </trkpt>
      <trkpt lat="44.13178" lon="3.21946">
        <ele>497.5</ele>
        <time>2021-10-14T14:33:36Z</time>
      </trkpt>
      <trkpt lat="44.13174" lon="3.21949">
        <ele>497.1</ele>
        <time>2021-10-14T14:33:38Z</time>
      </trkpt>
      <trkpt lat="44.13171" lon="3.21951">
        <ele>496.8</ele>
        <time>2021-10-14T14:33:39Z</time>
      </trkpt>
      <trkpt lat="44.13168" lon="3.21955">
        <ele>496.4</ele>
        <time>2021-10-14T14:33:40Z</time>
      </trkpt>
      <trkpt lat="44.13167" lon="3.21957">
        <ele>496.3</ele>
        <time>2021-10-14T14:33:41Z</time>
      </trkpt>
      <trkpt lat="44.13166" lon="3.21964">
        <ele>495.8</ele>
        <time>2021-10-14T14:33:43Z</time>
      </trkpt>
      <trkpt lat="44.13166" lon="3.21967">
        <ele>495.7</ele>
        <time>2021-10-14T14:33:44Z</time>
      </trkpt>
      <trkpt lat="44.13166" lon="3.2197">
        <ele>495.5</ele>
        <time>2021-10-14T14:33:45Z</time>
      </trkpt>
      <trkpt lat="44.13166" lon="3.21975">
        <ele>495.1</ele>
        <time>2021-10-14T14:33:46Z</time>
      </trkpt>
      <trkpt lat="44.13166" lon="3.21981">
        <ele>494.8</ele>
        <time>2021-10-14T14:33:47Z</time>
      </trkpt>
      <trkpt lat="44.13165" lon="3.21989">
        <ele>494.4</ele>
        <time>2021-10-14T14:33:50Z</time>
      </trkpt>
      <trkpt lat="44.13163" lon="3.21991">
        <ele>494.2</ele>
        <time>2021-10-14T14:33:51Z</time>
      </trkpt>
      <trkpt lat="44.13162" lon="3.21996">
        <ele>493.9</ele>
        <time>2021-10-14T14:33:52Z</time>
      </trkpt>
      <trkpt lat="44.13161" lon="3.22">
        <ele>493.7</ele>
        <time>2021-10-14T14:33:54Z</time>
      </trkpt>
      <trkpt lat="44.13158" lon="3.22003">
        <ele>493.5</ele>
        <time>2021-10-14T14:33:55Z</time>
      </trkpt>
      <trkpt lat="44.13153" lon="3.22007">
        <ele>493.1</ele>
        <time>2021-10-14T14:33:57Z</time>
      </trkpt>
      <trkpt lat="44.13148" lon="3.2201">
        <ele>492.7</ele>
        <time>2021-10-14T14:33:59Z</time>
      </trkpt>
      <trkpt lat="44.13145" lon="3.22014">
        <ele>492.4</ele>
        <time>2021-10-14T14:34:00Z</time>
      </trkpt>
      <trkpt lat="44.13141" lon="3.22016">
        <ele>492.2</ele>
        <time>2021-10-14T14:34:01Z</time>
      </trkpt>
      <trkpt lat="44.1314" lon="3.22017">
        <ele>492.1</ele>
        <time>2021-10-14T14:34:02Z</time>
      </trkpt>
      <trkpt lat="44.13137" lon="3.22018">
        <ele>491.9</ele>
        <time>2021-10-14T14:34:03Z</time>
      </trkpt>
      <trkpt lat="44.13134" lon="3.22019">
        <ele>491.7</ele>
        <time>2021-10-14T14:34:05Z</time>
      </trkpt>
      <trkpt lat="44.13117" lon="3.22026">
        <ele>489.6</ele>
        <time>2021-10-14T14:34:07Z</time>
      </trkpt>
      <trkpt lat="44.13111" lon="3.22032">
        <ele>488.5</ele>
        <time>2021-10-14T14:34:08Z</time>
      </trkpt>
      <trkpt lat="44.13108" lon="3.22037">
        <ele>487.7</ele>
        <time>2021-10-14T14:34:09Z</time>
      </trkpt>
      <trkpt lat="44.13104" lon="3.2204">
        <ele>487</ele>
        <time>2021-10-14T14:34:10Z</time>
      </trkpt>
      <trkpt lat="44.13098" lon="3.22043">
        <ele>486.2</ele>
        <time>2021-10-14T14:34:12Z</time>
      </trkpt>
      <trkpt lat="44.13094" lon="3.22041">
        <ele>485.5</ele>
        <time>2021-10-14T14:34:14Z</time>
      </trkpt>
      <trkpt lat="44.13091" lon="3.22039">
        <ele>485.1</ele>
        <time>2021-10-14T14:34:15Z</time>
      </trkpt>
      <trkpt lat="44.13088" lon="3.22037">
        <ele>484.7</ele>
        <time>2021-10-14T14:34:16Z</time>
      </trkpt>
      <trkpt lat="44.13085" lon="3.22038">
        <ele>484.3</ele>
        <time>2021-10-14T14:34:17Z</time>
      </trkpt>
      <trkpt lat="44.1308" lon="3.2204">
        <ele>483.8</ele>
        <time>2021-10-14T14:34:19Z</time>
      </trkpt>
      <trkpt lat="44.13079" lon="3.22039">
        <ele>483.7</ele>
        <time>2021-10-14T14:34:20Z</time>
      </trkpt>
      <trkpt lat="44.13078" lon="3.22039">
        <ele>483.6</ele>
        <time>2021-10-14T14:34:22Z</time>
      </trkpt>
      <trkpt lat="44.13077" lon="3.2204">
        <ele>483.5</ele>
        <time>2021-10-14T14:34:23Z</time>
      </trkpt>
      <trkpt lat="44.13075" lon="3.2204">
        <ele>483.4</ele>
        <time>2021-10-14T14:34:24Z</time>
      </trkpt>
      <trkpt lat="44.13069" lon="3.22045">
        <ele>482.9</ele>
        <time>2021-10-14T14:34:26Z</time>
      </trkpt>
      <trkpt lat="44.13064" lon="3.2205">
        <ele>482.6</ele>
        <time>2021-10-14T14:34:28Z</time>
      </trkpt>
      <trkpt lat="44.1306" lon="3.22054">
        <ele>482.3</ele>
        <time>2021-10-14T14:34:29Z</time>
      </trkpt>
      <trkpt lat="44.13057" lon="3.22056">
        <ele>482.1</ele>
        <time>2021-10-14T14:34:30Z</time>
      </trkpt>
      <trkpt lat="44.13054" lon="3.22058">
        <ele>482</ele>
        <time>2021-10-14T14:34:31Z</time>
      </trkpt>
      <trkpt lat="44.13049" lon="3.22058">
        <ele>481.7</ele>
        <time>2021-10-14T14:34:33Z</time>
      </trkpt>
      <trkpt lat="44.13046" lon="3.22061">
        <ele>481.6</ele>
        <time>2021-10-14T14:34:34Z</time>
      </trkpt>
      <trkpt lat="44.13042" lon="3.22063">
        <ele>481.3</ele>
        <time>2021-10-14T14:34:35Z</time>
      </trkpt>
      <trkpt lat="44.13036" lon="3.22066">
        <ele>481</ele>
        <time>2021-10-14T14:34:36Z</time>
      </trkpt>
      <trkpt lat="44.13033" lon="3.22069">
        <ele>480.8</ele>
        <time>2021-10-14T14:34:38Z</time>
      </trkpt>
      <trkpt lat="44.1303" lon="3.22071">
        <ele>480.6</ele>
        <time>2021-10-14T14:34:39Z</time>
      </trkpt>
      <trkpt lat="44.13027" lon="3.22073">
        <ele>480.4</ele>
        <time>2021-10-14T14:34:41Z</time>
      </trkpt>
      <trkpt lat="44.13026" lon="3.22073">
        <ele>480.3</ele>
        <time>2021-10-14T14:34:42Z</time>
      </trkpt>
      <trkpt lat="44.13026" lon="3.22074">
        <ele>480.3</ele>
        <time>2021-10-14T14:34:43Z</time>
      </trkpt>
      <trkpt lat="44.13026" lon="3.22075">
        <ele>480.3</ele>
        <time>2021-10-14T14:34:45Z</time>
      </trkpt>
      <trkpt lat="44.13026" lon="3.22075">
        <ele>480.3</ele>
        <time>2021-10-14T14:34:46Z</time>
      </trkpt>
      <trkpt lat="44.13026" lon="3.22074">
        <ele>480.2</ele>
        <time>2021-10-14T14:34:47Z</time>
      </trkpt>
      <trkpt lat="44.13026" lon="3.22074">
        <ele>480.2</ele>
        <time>2021-10-14T14:34:49Z</time>
      </trkpt>
      <trkpt lat="44.13026" lon="3.22075">
        <ele>480.2</ele>
        <time>2021-10-14T14:34:50Z</time>
      </trkpt>
      <trkpt lat="44.13025" lon="3.22078">
        <ele>480</ele>
        <time>2021-10-14T14:34:52Z</time>
      </trkpt>
      <trkpt lat="44.13024" lon="3.22081">
        <ele>479.8</ele>
        <time>2021-10-14T14:34:53Z</time>
      </trkpt>
      <trkpt lat="44.13022" lon="3.22084">
        <ele>479.7</ele>
        <time>2021-10-14T14:34:55Z</time>
      </trkpt>
      <trkpt lat="44.13021" lon="3.22087">
        <ele>479.5</ele>
        <time>2021-10-14T14:34:56Z</time>
      </trkpt>
      <trkpt lat="44.13021" lon="3.22092">
        <ele>479.3</ele>
        <time>2021-10-14T14:34:58Z</time>
      </trkpt>
      <trkpt lat="44.1302" lon="3.22097">
        <ele>479</ele>
        <time>2021-10-14T14:35:00Z</time>
      </trkpt>
      <trkpt lat="44.1302" lon="3.22099">
        <ele>478.9</ele>
        <time>2021-10-14T14:35:01Z</time>
      </trkpt>
      <trkpt lat="44.13018" lon="3.22104">
        <ele>478.6</ele>
        <time>2021-10-14T14:35:02Z</time>
      </trkpt>
      <trkpt lat="44.13016" lon="3.22106">
        <ele>478.5</ele>
        <time>2021-10-14T14:35:03Z</time>
      </trkpt>
      <trkpt lat="44.13014" lon="3.22109">
        <ele>478.2</ele>
        <time>2021-10-14T14:35:05Z</time>
      </trkpt>
      <trkpt lat="44.13012" lon="3.22112">
        <ele>478</ele>
        <time>2021-10-14T14:35:06Z</time>
      </trkpt>
      <trkpt lat="44.13008" lon="3.22118">
        <ele>477.6</ele>
        <time>2021-10-14T14:35:07Z</time>
      </trkpt>
      <trkpt lat="44.13005" lon="3.22125">
        <ele>477.1</ele>
        <time>2021-10-14T14:35:08Z</time>
      </trkpt>
      <trkpt lat="44.13003" lon="3.22132">
        <ele>476.6</ele>
        <time>2021-10-14T14:35:10Z</time>
      </trkpt>
      <trkpt lat="44.13001" lon="3.22138">
        <ele>476.1</ele>
        <time>2021-10-14T14:35:11Z</time>
      </trkpt>
      <trkpt lat="44.13" lon="3.22143">
        <ele>475.8</ele>
        <time>2021-10-14T14:35:12Z</time>
      </trkpt>
      <trkpt lat="44.12998" lon="3.22147">
        <ele>475.4</ele>
        <time>2021-10-14T14:35:14Z</time>
      </trkpt>
      <trkpt lat="44.12996" lon="3.22156">
        <ele>474.5</ele>
        <time>2021-10-14T14:35:16Z</time>
      </trkpt>
      <trkpt lat="44.12991" lon="3.22165">
        <ele>473.3</ele>
        <time>2021-10-14T14:35:18Z</time>
      </trkpt>
      <trkpt lat="44.12987" lon="3.22168">
        <ele>472.6</ele>
        <time>2021-10-14T14:35:19Z</time>
      </trkpt>
      <trkpt lat="44.12981" lon="3.22169">
        <ele>471.6</ele>
        <time>2021-10-14T14:35:20Z</time>
      </trkpt>
      <trkpt lat="44.12976" lon="3.22168">
        <ele>470.9</ele>
        <time>2021-10-14T14:35:22Z</time>
      </trkpt>
      <trkpt lat="44.12974" lon="3.22168">
        <ele>470.6</ele>
        <time>2021-10-14T14:35:23Z</time>
      </trkpt>
      <trkpt lat="44.12973" lon="3.22168">
        <ele>470.5</ele>
        <time>2021-10-14T14:35:25Z</time>
      </trkpt>
      <trkpt lat="44.12973" lon="3.22168">
        <ele>470.4</ele>
        <time>2021-10-14T14:35:26Z</time>
      </trkpt>
      <trkpt lat="44.12972" lon="3.22167">
        <ele>470.3</ele>
        <time>2021-10-14T14:35:27Z</time>
      </trkpt>
      <trkpt lat="44.12969" lon="3.22167">
        <ele>469.9</ele>
        <time>2021-10-14T14:35:29Z</time>
      </trkpt>
      <trkpt lat="44.12968" lon="3.22166">
        <ele>469.7</ele>
        <time>2021-10-14T14:35:31Z</time>
      </trkpt>
      <trkpt lat="44.12968" lon="3.22167">
        <ele>469.6</ele>
        <time>2021-10-14T14:35:32Z</time>
      </trkpt>
      <trkpt lat="44.12968" lon="3.22167">
        <ele>469.6</ele>
        <time>2021-10-14T14:35:34Z</time>
      </trkpt>
      <trkpt lat="44.12968" lon="3.22167">
        <ele>469.6</ele>
        <time>2021-10-14T14:35:35Z</time>
      </trkpt>
      <trkpt lat="44.12967" lon="3.22167">
        <ele>469.6</ele>
        <time>2021-10-14T14:35:36Z</time>
      </trkpt>
      <trkpt lat="44.12968" lon="3.22167">
        <ele>469.6</ele>
        <time>2021-10-14T14:35:38Z</time>
      </trkpt>
      <trkpt lat="44.12968" lon="3.22167">
        <ele>469.5</ele>
        <time>2021-10-14T14:35:39Z</time>
      </trkpt>
      <trkpt lat="44.12967" lon="3.22167">
        <ele>469.4</ele>
        <time>2021-10-14T14:35:40Z</time>
      </trkpt>
      <trkpt lat="44.12967" lon="3.22167">
        <ele>469.4</ele>
        <time>2021-10-14T14:35:41Z</time>
      </trkpt>
      <trkpt lat="44.12966" lon="3.22167">
        <ele>469.3</ele>
        <time>2021-10-14T14:35:43Z</time>
      </trkpt>
      <trkpt lat="44.12966" lon="3.22167">
        <ele>469.3</ele>
        <time>2021-10-14T14:35:44Z</time>
      </trkpt>
      <trkpt lat="44.12965" lon="3.22166">
        <ele>469.1</ele>
        <time>2021-10-14T14:35:45Z</time>
      </trkpt>
      <trkpt lat="44.12964" lon="3.22166">
        <ele>469</ele>
        <time>2021-10-14T14:35:47Z</time>
      </trkpt>
      <trkpt lat="44.12963" lon="3.22166">
        <ele>468.9</ele>
        <time>2021-10-14T14:35:48Z</time>
      </trkpt>
      <trkpt lat="44.12961" lon="3.22167">
        <ele>468.6</ele>
        <time>2021-10-14T14:35:50Z</time>
      </trkpt>
      <trkpt lat="44.1296" lon="3.22168">
        <ele>468.5</ele>
        <time>2021-10-14T14:35:51Z</time>
      </trkpt>
      <trkpt lat="44.12959" lon="3.22168">
        <ele>468.3</ele>
        <time>2021-10-14T14:35:52Z</time>
      </trkpt>
      <trkpt lat="44.12958" lon="3.22168">
        <ele>468.2</ele>
        <time>2021-10-14T14:35:53Z</time>
      </trkpt>
      <trkpt lat="44.12956" lon="3.22168">
        <ele>468</ele>
        <time>2021-10-14T14:35:55Z</time>
      </trkpt>
      <trkpt lat="44.12955" lon="3.22168">
        <ele>467.8</ele>
        <time>2021-10-14T14:35:56Z</time>
      </trkpt>
      <trkpt lat="44.12951" lon="3.22167">
        <ele>467.4</ele>
        <time>2021-10-14T14:35:57Z</time>
      </trkpt>
      <trkpt lat="44.1295" lon="3.22167">
        <ele>467.3</ele>
        <time>2021-10-14T14:35:58Z</time>
      </trkpt>
      <trkpt lat="44.12945" lon="3.22165">
        <ele>466.7</ele>
        <time>2021-10-14T14:36:00Z</time>
      </trkpt>
      <trkpt lat="44.12942" lon="3.22164">
        <ele>466.4</ele>
        <time>2021-10-14T14:36:01Z</time>
      </trkpt>
      <trkpt lat="44.12939" lon="3.22163">
        <ele>466</ele>
        <time>2021-10-14T14:36:03Z</time>
      </trkpt>
      <trkpt lat="44.12932" lon="3.22161">
        <ele>465.3</ele>
        <time>2021-10-14T14:36:04Z</time>
      </trkpt>
      <trkpt lat="44.12927" lon="3.22159">
        <ele>464.9</ele>
        <time>2021-10-14T14:36:06Z</time>
      </trkpt>
      <trkpt lat="44.12923" lon="3.22158">
        <ele>464.4</ele>
        <time>2021-10-14T14:36:07Z</time>
      </trkpt>
      <trkpt lat="44.12916" lon="3.22156">
        <ele>463.8</ele>
        <time>2021-10-14T14:36:09Z</time>
      </trkpt>
      <trkpt lat="44.1291" lon="3.22156">
        <ele>463.3</ele>
        <time>2021-10-14T14:36:11Z</time>
      </trkpt>
      <trkpt lat="44.12906" lon="3.22154">
        <ele>463</ele>
        <time>2021-10-14T14:36:12Z</time>
      </trkpt>
      <trkpt lat="44.12902" lon="3.22153">
        <ele>462.7</ele>
        <time>2021-10-14T14:36:13Z</time>
      </trkpt>
      <trkpt lat="44.12898" lon="3.2215">
        <ele>462.2</ele>
        <time>2021-10-14T14:36:15Z</time>
      </trkpt>
      <trkpt lat="44.12895" lon="3.22148">
        <ele>461.7</ele>
        <time>2021-10-14T14:36:16Z</time>
      </trkpt>
      <trkpt lat="44.1289" lon="3.22145">
        <ele>461</ele>
        <time>2021-10-14T14:36:17Z</time>
      </trkpt>
      <trkpt lat="44.12886" lon="3.22144">
        <ele>460.4</ele>
        <time>2021-10-14T14:36:19Z</time>
      </trkpt>
      <trkpt lat="44.12882" lon="3.22144">
        <ele>459.8</ele>
        <time>2021-10-14T14:36:20Z</time>
      </trkpt>
      <trkpt lat="44.1288" lon="3.22146">
        <ele>459.4</ele>
        <time>2021-10-14T14:36:21Z</time>
      </trkpt>
      <trkpt lat="44.12877" lon="3.22148">
        <ele>458.9</ele>
        <time>2021-10-14T14:36:23Z</time>
      </trkpt>
      <trkpt lat="44.12875" lon="3.22148">
        <ele>458.5</ele>
        <time>2021-10-14T14:36:24Z</time>
      </trkpt>
      <trkpt lat="44.1287" lon="3.22145">
        <ele>457.9</ele>
        <time>2021-10-14T14:36:26Z</time>
      </trkpt>
      <trkpt lat="44.12869" lon="3.22143">
        <ele>457.7</ele>
        <time>2021-10-14T14:36:27Z</time>
      </trkpt>
      <trkpt lat="44.12867" lon="3.22142">
        <ele>457.5</ele>
        <time>2021-10-14T14:36:28Z</time>
      </trkpt>
      <trkpt lat="44.12864" lon="3.22139">
        <ele>457.1</ele>
        <time>2021-10-14T14:36:29Z</time>
      </trkpt>
      <trkpt lat="44.12862" lon="3.22136">
        <ele>456.7</ele>
        <time>2021-10-14T14:36:31Z</time>
      </trkpt>
      <trkpt lat="44.12858" lon="3.22133">
        <ele>456.3</ele>
        <time>2021-10-14T14:36:32Z</time>
      </trkpt>
      <trkpt lat="44.12856" lon="3.22129">
        <ele>456</ele>
        <time>2021-10-14T14:36:34Z</time>
      </trkpt>
      <trkpt lat="44.12855" lon="3.22125">
        <ele>455.7</ele>
        <time>2021-10-14T14:36:35Z</time>
      </trkpt>
      <trkpt lat="44.12852" lon="3.22122">
        <ele>455.3</ele>
        <time>2021-10-14T14:36:36Z</time>
      </trkpt>
      <trkpt lat="44.12848" lon="3.22117">
        <ele>454.6</ele>
        <time>2021-10-14T14:36:37Z</time>
      </trkpt>
      <trkpt lat="44.12843" lon="3.22112">
        <ele>453.9</ele>
        <time>2021-10-14T14:36:39Z</time>
      </trkpt>
      <trkpt lat="44.12837" lon="3.22106">
        <ele>453.2</ele>
        <time>2021-10-14T14:36:41Z</time>
      </trkpt>
      <trkpt lat="44.12831" lon="3.22102">
        <ele>452.6</ele>
        <time>2021-10-14T14:36:42Z</time>
      </trkpt>
      <trkpt lat="44.12825" lon="3.22099">
        <ele>452.2</ele>
        <time>2021-10-14T14:36:44Z</time>
      </trkpt>
      <trkpt lat="44.12817" lon="3.22095">
        <ele>451.8</ele>
        <time>2021-10-14T14:36:46Z</time>
      </trkpt>
      <trkpt lat="44.12811" lon="3.22092">
        <ele>451.3</ele>
        <time>2021-10-14T14:36:48Z</time>
      </trkpt>
      <trkpt lat="44.12808" lon="3.22092">
        <ele>451</ele>
        <time>2021-10-14T14:36:49Z</time>
      </trkpt>
      <trkpt lat="44.12803" lon="3.22096">
        <ele>450.5</ele>
        <time>2021-10-14T14:36:50Z</time>
      </trkpt>
      <trkpt lat="44.12798" lon="3.22101">
        <ele>449.7</ele>
        <time>2021-10-14T14:36:52Z</time>
      </trkpt>
      <trkpt lat="44.12796" lon="3.22105">
        <ele>449.2</ele>
        <time>2021-10-14T14:36:53Z</time>
      </trkpt>
      <trkpt lat="44.12793" lon="3.22108">
        <ele>448.8</ele>
        <time>2021-10-14T14:36:54Z</time>
      </trkpt>
      <trkpt lat="44.12789" lon="3.22114">
        <ele>448.1</ele>
        <time>2021-10-14T14:36:55Z</time>
      </trkpt>
      <trkpt lat="44.12785" lon="3.22118">
        <ele>447.5</ele>
        <time>2021-10-14T14:36:56Z</time>
      </trkpt>
      <trkpt lat="44.12782" lon="3.22122">
        <ele>447</ele>
        <time>2021-10-14T14:36:57Z</time>
      </trkpt>
      <trkpt lat="44.1277" lon="3.22123">
        <ele>445.6</ele>
        <time>2021-10-14T14:36:59Z</time>
      </trkpt>
      <trkpt lat="44.12764" lon="3.22126">
        <ele>444.7</ele>
        <time>2021-10-14T14:37:00Z</time>
      </trkpt>
      <trkpt lat="44.1276" lon="3.22128">
        <ele>444</ele>
        <time>2021-10-14T14:37:01Z</time>
      </trkpt>
      <trkpt lat="44.12755" lon="3.22136">
        <ele>443</ele>
        <time>2021-10-14T14:37:03Z</time>
      </trkpt>
      <trkpt lat="44.12751" lon="3.22138">
        <ele>442.6</ele>
        <time>2021-10-14T14:37:04Z</time>
      </trkpt>
      <trkpt lat="44.12748" lon="3.22142">
        <ele>442.1</ele>
        <time>2021-10-14T14:37:05Z</time>
      </trkpt>
      <trkpt lat="44.12746" lon="3.22142">
        <ele>441.9</ele>
        <time>2021-10-14T14:37:06Z</time>
      </trkpt>
      <trkpt lat="44.12741" lon="3.22144">
        <ele>441.4</ele>
        <time>2021-10-14T14:37:07Z</time>
      </trkpt>
      <trkpt lat="44.12736" lon="3.22147">
        <ele>441</ele>
        <time>2021-10-14T14:37:09Z</time>
      </trkpt>
      <trkpt lat="44.12734" lon="3.22151">
        <ele>440.7</ele>
        <time>2021-10-14T14:37:10Z</time>
      </trkpt>
      <trkpt lat="44.1273" lon="3.22154">
        <ele>440.3</ele>
        <time>2021-10-14T14:37:11Z</time>
      </trkpt>
      <trkpt lat="44.12725" lon="3.22157">
        <ele>439.8</ele>
        <time>2021-10-14T14:37:12Z</time>
      </trkpt>
      <trkpt lat="44.12717" lon="3.22161">
        <ele>439.1</ele>
        <time>2021-10-14T14:37:14Z</time>
      </trkpt>
      <trkpt lat="44.12707" lon="3.22167">
        <ele>438.3</ele>
        <time>2021-10-14T14:37:16Z</time>
      </trkpt>
      <trkpt lat="44.12702" lon="3.22172">
        <ele>437.9</ele>
        <time>2021-10-14T14:37:17Z</time>
      </trkpt>
      <trkpt lat="44.12694" lon="3.22185">
        <ele>437.1</ele>
        <time>2021-10-14T14:37:19Z</time>
      </trkpt>
      <trkpt lat="44.12691" lon="3.22203">
        <ele>436</ele>
        <time>2021-10-14T14:37:21Z</time>
      </trkpt>
      <trkpt lat="44.1269" lon="3.22215">
        <ele>435.1</ele>
        <time>2021-10-14T14:37:23Z</time>
      </trkpt>
      <trkpt lat="44.12693" lon="3.22219">
        <ele>434.7</ele>
        <time>2021-10-14T14:37:24Z</time>
      </trkpt>
      <trkpt lat="44.12689" lon="3.22228">
        <ele>433.9</ele>
        <time>2021-10-14T14:37:25Z</time>
      </trkpt>
      <trkpt lat="44.12686" lon="3.22245">
        <ele>432.6</ele>
        <time>2021-10-14T14:37:27Z</time>
      </trkpt>
      <trkpt lat="44.12684" lon="3.22253">
        <ele>431.9</ele>
        <time>2021-10-14T14:37:28Z</time>
      </trkpt>
      <trkpt lat="44.12681" lon="3.2226">
        <ele>431.3</ele>
        <time>2021-10-14T14:37:29Z</time>
      </trkpt>
      <trkpt lat="44.12669" lon="3.2227">
        <ele>430.1</ele>
        <time>2021-10-14T14:37:31Z</time>
      </trkpt>
      <trkpt lat="44.12662" lon="3.22271">
        <ele>429.6</ele>
        <time>2021-10-14T14:37:32Z</time>
      </trkpt>
      <trkpt lat="44.12657" lon="3.2227">
        <ele>429.4</ele>
        <time>2021-10-14T14:37:34Z</time>
      </trkpt>
      <trkpt lat="44.1265" lon="3.22268">
        <ele>429.1</ele>
        <time>2021-10-14T14:37:36Z</time>
      </trkpt>
      <trkpt lat="44.12647" lon="3.22267">
        <ele>429</ele>
        <time>2021-10-14T14:37:37Z</time>
      </trkpt>
      <trkpt lat="44.12643" lon="3.22268">
        <ele>428.8</ele>
        <time>2021-10-14T14:37:38Z</time>
      </trkpt>
      <trkpt lat="44.12637" lon="3.22268">
        <ele>428.6</ele>
        <time>2021-10-14T14:37:40Z</time>
      </trkpt>
      <trkpt lat="44.1263" lon="3.22267">
        <ele>428.3</ele>
        <time>2021-10-14T14:37:41Z</time>
      </trkpt>
      <trkpt lat="44.12624" lon="3.22265">
        <ele>427.9</ele>
        <time>2021-10-14T14:37:43Z</time>
      </trkpt>
      <trkpt lat="44.12617" lon="3.22264">
        <ele>427.5</ele>
        <time>2021-10-14T14:37:44Z</time>
      </trkpt>
      <trkpt lat="44.12605" lon="3.22268">
        <ele>426.4</ele>
        <time>2021-10-14T14:37:46Z</time>
      </trkpt>
      <trkpt lat="44.1259" lon="3.22277">
        <ele>424.5</ele>
        <time>2021-10-14T14:37:48Z</time>
      </trkpt>
      <trkpt lat="44.12574" lon="3.22284">
        <ele>422.8</ele>
        <time>2021-10-14T14:37:50Z</time>
      </trkpt>
      <trkpt lat="44.12559" lon="3.22285">
        <ele>421.6</ele>
        <time>2021-10-14T14:37:52Z</time>
      </trkpt>
      <trkpt lat="44.12552" lon="3.22283">
        <ele>421.1</ele>
        <time>2021-10-14T14:37:53Z</time>
      </trkpt>
      <trkpt lat="44.12544" lon="3.2228">
        <ele>420.6</ele>
        <time>2021-10-14T14:37:54Z</time>
      </trkpt>
      <trkpt lat="44.12533" lon="3.22269">
        <ele>419.6</ele>
        <time>2021-10-14T14:37:56Z</time>
      </trkpt>
      <trkpt lat="44.12527" lon="3.22261">
        <ele>419.1</ele>
        <time>2021-10-14T14:37:57Z</time>
      </trkpt>
      <trkpt lat="44.12523" lon="3.22252">
        <ele>418.4</ele>
        <time>2021-10-14T14:37:58Z</time>
      </trkpt>
      <trkpt lat="44.12514" lon="3.22235">
        <ele>418</ele>
        <time>2021-10-14T14:38:00Z</time>
      </trkpt>
      <trkpt lat="44.12509" lon="3.22226">
        <ele>417.8</ele>
        <time>2021-10-14T14:38:01Z</time>
      </trkpt>
      <trkpt lat="44.12504" lon="3.22218">
        <ele>417.6</ele>
        <time>2021-10-14T14:38:02Z</time>
      </trkpt>
      <trkpt lat="44.12499" lon="3.22211">
        <ele>416.9</ele>
        <time>2021-10-14T14:38:03Z</time>
      </trkpt>
      <trkpt lat="44.12486" lon="3.22201">
        <ele>415.8</ele>
        <time>2021-10-14T14:38:05Z</time>
      </trkpt>
      <trkpt lat="44.12478" lon="3.222">
        <ele>415.3</ele>
        <time>2021-10-14T14:38:06Z</time>
      </trkpt>
      <trkpt lat="44.12471" lon="3.222">
        <ele>414.7</ele>
        <time>2021-10-14T14:38:07Z</time>
      </trkpt>
      <trkpt lat="44.12457" lon="3.22203">
        <ele>414.2</ele>
        <time>2021-10-14T14:38:09Z</time>
      </trkpt>
      <trkpt lat="44.12444" lon="3.22212">
        <ele>414.6</ele>
        <time>2021-10-14T14:38:11Z</time>
      </trkpt>
      <trkpt lat="44.12432" lon="3.22224">
        <ele>414.9</ele>
        <time>2021-10-14T14:38:13Z</time>
      </trkpt>
      <trkpt lat="44.12426" lon="3.22231">
        <ele>414.9</ele>
        <time>2021-10-14T14:38:14Z</time>
      </trkpt>
      <trkpt lat="44.1242" lon="3.22237">
        <ele>414.3</ele>
        <time>2021-10-14T14:38:15Z</time>
      </trkpt>
      <trkpt lat="44.12416" lon="3.22245">
        <ele>412.7</ele>
        <time>2021-10-14T14:38:16Z</time>
      </trkpt>
      <trkpt lat="44.12412" lon="3.22259">
        <ele>411.1</ele>
        <time>2021-10-14T14:38:18Z</time>
      </trkpt>
      <trkpt lat="44.12414" lon="3.22264">
        <ele>411</ele>
        <time>2021-10-14T14:38:20Z</time>
      </trkpt>
      <trkpt lat="44.1241" lon="3.22265">
        <ele>411</ele>
        <time>2021-10-14T14:38:21Z</time>
      </trkpt>
      <trkpt lat="44.12409" lon="3.22265">
        <ele>410.9</ele>
        <time>2021-10-14T14:38:22Z</time>
      </trkpt>
      <trkpt lat="44.12404" lon="3.22263">
        <ele>410.9</ele>
        <time>2021-10-14T14:38:23Z</time>
      </trkpt>
      <trkpt lat="44.12396" lon="3.22261">
        <ele>410.7</ele>
        <time>2021-10-14T14:38:25Z</time>
      </trkpt>
      <trkpt lat="44.12392" lon="3.2226">
        <ele>410.7</ele>
        <time>2021-10-14T14:38:26Z</time>
      </trkpt>
      <trkpt lat="44.12387" lon="3.22259">
        <ele>410.6</ele>
        <time>2021-10-14T14:38:27Z</time>
      </trkpt>
      <trkpt lat="44.12376" lon="3.22256">
        <ele>410.4</ele>
        <time>2021-10-14T14:38:29Z</time>
      </trkpt>
      <trkpt lat="44.12366" lon="3.22254">
        <ele>410.3</ele>
        <time>2021-10-14T14:38:31Z</time>
      </trkpt>
      <trkpt lat="44.12362" lon="3.22251">
        <ele>410.2</ele>
        <time>2021-10-14T14:38:32Z</time>
      </trkpt>
      <trkpt lat="44.12358" lon="3.22247">
        <ele>410.2</ele>
        <time>2021-10-14T14:38:33Z</time>
      </trkpt>
      <trkpt lat="44.12354" lon="3.22244">
        <ele>410.1</ele>
        <time>2021-10-14T14:38:34Z</time>
      </trkpt>
      <trkpt lat="44.12349" lon="3.2224">
        <ele>410.1</ele>
        <time>2021-10-14T14:38:35Z</time>
      </trkpt>
      <trkpt lat="44.12343" lon="3.22231">
        <ele>410</ele>
        <time>2021-10-14T14:38:37Z</time>
      </trkpt>
      <trkpt lat="44.12337" lon="3.22226">
        <ele>409.9</ele>
        <time>2021-10-14T14:38:39Z</time>
      </trkpt>
      <trkpt lat="44.12335" lon="3.22225">
        <ele>409.9</ele>
        <time>2021-10-14T14:38:40Z</time>
      </trkpt>
      <trkpt lat="44.12334" lon="3.22224">
        <ele>409.8</ele>
        <time>2021-10-14T14:38:41Z</time>
      </trkpt>
      <trkpt lat="44.12333" lon="3.22224">
        <ele>409.8</ele>
        <time>2021-10-14T14:38:42Z</time>
      </trkpt>
      <trkpt lat="44.12333" lon="3.22223">
        <ele>409.8</ele>
        <time>2021-10-14T14:38:44Z</time>
      </trkpt>
      <trkpt lat="44.12333" lon="3.22223">
        <ele>409.8</ele>
        <time>2021-10-14T14:38:45Z</time>
      </trkpt>
      <trkpt lat="44.12332" lon="3.22223">
        <ele>409.8</ele>
        <time>2021-10-14T14:38:47Z</time>
      </trkpt>
      <trkpt lat="44.12333" lon="3.22223">
        <ele>409.8</ele>
        <time>2021-10-14T14:38:48Z</time>
      </trkpt>
      <trkpt lat="44.12332" lon="3.22223">
        <ele>409.8</ele>
        <time>2021-10-14T14:38:50Z</time>
      </trkpt>
      <trkpt lat="44.12332" lon="3.22222">
        <ele>409.8</ele>
        <time>2021-10-14T14:38:51Z</time>
      </trkpt>
      <trkpt lat="44.12332" lon="3.22222">
        <ele>409.8</ele>
        <time>2021-10-14T14:38:52Z</time>
      </trkpt>
      <trkpt lat="44.12332" lon="3.22222">
        <ele>409.8</ele>
        <time>2021-10-14T14:38:53Z</time>
      </trkpt>
      <trkpt lat="44.12333" lon="3.22223">
        <ele>409.8</ele>
        <time>2021-10-14T14:38:55Z</time>
      </trkpt>
      <trkpt lat="44.12333" lon="3.22223">
        <ele>409.8</ele>
        <time>2021-10-14T14:38:56Z</time>
      </trkpt>
      <trkpt lat="44.12333" lon="3.22222">
        <ele>409.8</ele>
        <time>2021-10-14T14:38:59Z</time>
      </trkpt>
      <trkpt lat="44.12333" lon="3.22221">
        <ele>409.8</ele>
        <time>2021-10-14T14:39:00Z</time>
      </trkpt>
      <trkpt lat="44.12333" lon="3.22221">
        <ele>409.8</ele>
        <time>2021-10-14T14:39:01Z</time>
      </trkpt>
      <trkpt lat="44.12333" lon="3.22221">
        <ele>409.8</ele>
        <time>2021-10-14T14:39:03Z</time>
      </trkpt>
      <trkpt lat="44.12332" lon="3.2222">
        <ele>409.8</ele>
        <time>2021-10-14T14:39:04Z</time>
      </trkpt>
      <trkpt lat="44.12332" lon="3.2222">
        <ele>409.8</ele>
        <time>2021-10-14T14:39:06Z</time>
      </trkpt>
      <trkpt lat="44.12331" lon="3.22216">
        <ele>409.7</ele>
        <time>2021-10-14T14:39:31Z</time>
      </trkpt>
      <trkpt lat="44.12331" lon="3.22215">
        <ele>409.7</ele>
        <time>2021-10-14T14:39:32Z</time>
      </trkpt>
      <trkpt lat="44.12331" lon="3.22215">
        <ele>409.7</ele>
        <time>2021-10-14T14:39:33Z</time>
      </trkpt>
      <trkpt lat="44.1233" lon="3.22215">
        <ele>409.7</ele>
        <time>2021-10-14T14:39:35Z</time>
      </trkpt>
      <trkpt lat="44.1233" lon="3.22215">
        <ele>409.7</ele>
        <time>2021-10-14T14:39:36Z</time>
      </trkpt>
      <trkpt lat="44.1233" lon="3.22215">
        <ele>409.7</ele>
        <time>2021-10-14T14:39:38Z</time>
      </trkpt>
      <trkpt lat="44.12331" lon="3.22215">
        <ele>409.7</ele>
        <time>2021-10-14T14:39:40Z</time>
      </trkpt>
      <trkpt lat="44.12331" lon="3.22216">
        <ele>409.7</ele>
        <time>2021-10-14T14:39:41Z</time>
      </trkpt>
      <trkpt lat="44.12331" lon="3.22216">
        <ele>409.7</ele>
        <time>2021-10-14T14:39:43Z</time>
      </trkpt>
      <trkpt lat="44.12331" lon="3.22216">
        <ele>409.7</ele>
        <time>2021-10-14T14:39:44Z</time>
      </trkpt>
      <trkpt lat="44.12331" lon="3.22216">
        <ele>409.7</ele>
        <time>2021-10-14T14:39:46Z</time>
      </trkpt>
      <trkpt lat="44.12331" lon="3.22217">
        <ele>409.7</ele>
        <time>2021-10-14T14:40:12Z</time>
      </trkpt>
      <trkpt lat="44.12331" lon="3.22219">
        <ele>409.7</ele>
        <time>2021-10-14T14:40:14Z</time>
      </trkpt>
      <trkpt lat="44.1233" lon="3.22219">
        <ele>409.7</ele>
        <time>2021-10-14T14:40:15Z</time>
      </trkpt>
      <trkpt lat="44.1233" lon="3.22219">
        <ele>409.7</ele>
        <time>2021-10-14T14:40:16Z</time>
      </trkpt>
      <trkpt lat="44.1233" lon="3.22218">
        <ele>409.7</ele>
        <time>2021-10-14T14:40:18Z</time>
      </trkpt>
      <trkpt lat="44.1233" lon="3.22217">
        <ele>409.6</ele>
        <time>2021-10-14T14:40:19Z</time>
      </trkpt>
      <trkpt lat="44.1233" lon="3.22217">
        <ele>409.6</ele>
        <time>2021-10-14T14:40:21Z</time>
      </trkpt>
      <trkpt lat="44.1233" lon="3.22217">
        <ele>409.6</ele>
        <time>2021-10-14T14:40:22Z</time>
      </trkpt>
      <trkpt lat="44.1233" lon="3.22217">
        <ele>409.6</ele>
        <time>2021-10-14T14:40:24Z</time>
      </trkpt>
      <trkpt lat="44.1233" lon="3.22217">
        <ele>409.6</ele>
        <time>2021-10-14T14:40:25Z</time>
      </trkpt>
      <trkpt lat="44.12331" lon="3.22217">
        <ele>409.6</ele>
        <time>2021-10-14T14:40:26Z</time>
      </trkpt>
    </trkseg>
  </trk>
  <trk>
    <name><![CDATA[Trace 5]]></name>
    <desc><![CDATA[Larzac: buissières, pied, hameau troglodyte, retour Millau.]]></desc>
    <extensions>
      <line xmlns="http://www.topografix.com/GPX/gpx_style/0/2">
        <color>0000FF</color>
        <width>4</width>
          <extensions>
            <sens>1</sens>
          </extensions>
      </line>
    </extensions>
    <trkseg>
      <trkpt lat="44.07211" lon="3.06413">
        <ele>725.4</ele>
        <time>2019-05-31T08:50:47Z</time>
      </trkpt>
      <trkpt lat="44.07213" lon="3.06412">
        <ele>725.4</ele>
        <time>2019-05-31T08:51:08Z</time>
      </trkpt>
      <trkpt lat="44.07213" lon="3.06416">
        <ele>725.4</ele>
        <time>2019-05-31T08:52:41Z</time>
      </trkpt>
      <trkpt lat="44.07213" lon="3.06423">
        <ele>725.4</ele>
        <time>2019-05-31T08:52:43Z</time>
      </trkpt>
      <trkpt lat="44.07215" lon="3.06426">
        <ele>725.3</ele>
        <time>2019-05-31T08:52:45Z</time>
      </trkpt>
      <trkpt lat="44.07218" lon="3.0643">
        <ele>725.3</ele>
        <time>2019-05-31T08:52:48Z</time>
      </trkpt>
      <trkpt lat="44.0722" lon="3.06433">
        <ele>725.3</ele>
        <time>2019-05-31T08:52:50Z</time>
      </trkpt>
      <trkpt lat="44.07223" lon="3.06438">
        <ele>725</ele>
        <time>2019-05-31T08:52:52Z</time>
      </trkpt>
      <trkpt lat="44.07226" lon="3.06444">
        <ele>724.6</ele>
        <time>2019-05-31T08:52:54Z</time>
      </trkpt>
      <trkpt lat="44.07228" lon="3.06447">
        <ele>724.4</ele>
        <time>2019-05-31T08:52:55Z</time>
      </trkpt>
      <trkpt lat="44.0723" lon="3.0645">
        <ele>724.2</ele>
        <time>2019-05-31T08:52:56Z</time>
      </trkpt>
      <trkpt lat="44.07232" lon="3.06453">
        <ele>724</ele>
        <time>2019-05-31T08:52:57Z</time>
      </trkpt>
      <trkpt lat="44.07234" lon="3.06456">
        <ele>723.8</ele>
        <time>2019-05-31T08:52:58Z</time>
      </trkpt>
      <trkpt lat="44.07236" lon="3.06459">
        <ele>723.5</ele>
        <time>2019-05-31T08:52:59Z</time>
      </trkpt>
      <trkpt lat="44.07238" lon="3.06462">
        <ele>723.3</ele>
        <time>2019-05-31T08:53:00Z</time>
      </trkpt>
      <trkpt lat="44.0724" lon="3.06464">
        <ele>723</ele>
        <time>2019-05-31T08:53:01Z</time>
      </trkpt>
      <trkpt lat="44.07242" lon="3.06467">
        <ele>722.8</ele>
        <time>2019-05-31T08:53:02Z</time>
      </trkpt>
      <trkpt lat="44.07245" lon="3.06469">
        <ele>722.4</ele>
        <time>2019-05-31T08:53:03Z</time>
      </trkpt>
      <trkpt lat="44.07247" lon="3.06472">
        <ele>722.1</ele>
        <time>2019-05-31T08:53:04Z</time>
      </trkpt>
      <trkpt lat="44.0725" lon="3.06475">
        <ele>721.7</ele>
        <time>2019-05-31T08:53:05Z</time>
      </trkpt>
      <trkpt lat="44.07254" lon="3.06477">
        <ele>721.2</ele>
        <time>2019-05-31T08:53:06Z</time>
      </trkpt>
      <trkpt lat="44.07257" lon="3.0648">
        <ele>720.8</ele>
        <time>2019-05-31T08:53:07Z</time>
      </trkpt>
      <trkpt lat="44.0726" lon="3.06483">
        <ele>720.3</ele>
        <time>2019-05-31T08:53:08Z</time>
      </trkpt>
      <trkpt lat="44.07263" lon="3.06486">
        <ele>719.8</ele>
        <time>2019-05-31T08:53:09Z</time>
      </trkpt>
      <trkpt lat="44.07266" lon="3.06489">
        <ele>719.3</ele>
        <time>2019-05-31T08:53:10Z</time>
      </trkpt>
      <trkpt lat="44.07269" lon="3.06493">
        <ele>718.8</ele>
        <time>2019-05-31T08:53:11Z</time>
      </trkpt>
      <trkpt lat="44.07272" lon="3.06498">
        <ele>718.4</ele>
        <time>2019-05-31T08:53:12Z</time>
      </trkpt>
      <trkpt lat="44.07275" lon="3.06504">
        <ele>718</ele>
        <time>2019-05-31T08:53:13Z</time>
      </trkpt>
      <trkpt lat="44.07279" lon="3.0651">
        <ele>717.6</ele>
        <time>2019-05-31T08:53:14Z</time>
      </trkpt>
      <trkpt lat="44.07283" lon="3.06515">
        <ele>717.2</ele>
        <time>2019-05-31T08:53:15Z</time>
      </trkpt>
      <trkpt lat="44.07288" lon="3.0652">
        <ele>716.9</ele>
        <time>2019-05-31T08:53:16Z</time>
      </trkpt>
      <trkpt lat="44.07292" lon="3.06526">
        <ele>716.6</ele>
        <time>2019-05-31T08:53:17Z</time>
      </trkpt>
      <trkpt lat="44.07298" lon="3.06533">
        <ele>716</ele>
        <time>2019-05-31T08:53:18Z</time>
      </trkpt>
      <trkpt lat="44.07304" lon="3.0654">
        <ele>715.5</ele>
        <time>2019-05-31T08:53:19Z</time>
      </trkpt>
      <trkpt lat="44.07309" lon="3.0655">
        <ele>714.9</ele>
        <time>2019-05-31T08:53:20Z</time>
      </trkpt>
      <trkpt lat="44.07313" lon="3.06559">
        <ele>714.6</ele>
        <time>2019-05-31T08:53:21Z</time>
      </trkpt>
      <trkpt lat="44.07315" lon="3.0657">
        <ele>714.1</ele>
        <time>2019-05-31T08:53:22Z</time>
      </trkpt>
      <trkpt lat="44.07316" lon="3.06582">
        <ele>713.7</ele>
        <time>2019-05-31T08:53:23Z</time>
      </trkpt>
      <trkpt lat="44.07317" lon="3.06595">
        <ele>713.2</ele>
        <time>2019-05-31T08:53:24Z</time>
      </trkpt>
      <trkpt lat="44.07315" lon="3.06607">
        <ele>712.7</ele>
        <time>2019-05-31T08:53:25Z</time>
      </trkpt>
      <trkpt lat="44.07314" lon="3.06619">
        <ele>712.2</ele>
        <time>2019-05-31T08:53:26Z</time>
      </trkpt>
      <trkpt lat="44.07315" lon="3.06631">
        <ele>711.8</ele>
        <time>2019-05-31T08:53:27Z</time>
      </trkpt>
      <trkpt lat="44.07317" lon="3.06642">
        <ele>711.4</ele>
        <time>2019-05-31T08:53:28Z</time>
      </trkpt>
      <trkpt lat="44.07319" lon="3.06653">
        <ele>711.1</ele>
        <time>2019-05-31T08:53:29Z</time>
      </trkpt>
      <trkpt lat="44.07322" lon="3.06665">
        <ele>710.9</ele>
        <time>2019-05-31T08:53:30Z</time>
      </trkpt>
      <trkpt lat="44.07324" lon="3.06676">
        <ele>710.8</ele>
        <time>2019-05-31T08:53:31Z</time>
      </trkpt>
      <trkpt lat="44.07326" lon="3.06686">
        <ele>710.8</ele>
        <time>2019-05-31T08:53:32Z</time>
      </trkpt>
      <trkpt lat="44.07328" lon="3.06698">
        <ele>710.8</ele>
        <time>2019-05-31T08:53:33Z</time>
      </trkpt>
      <trkpt lat="44.07329" lon="3.0671">
        <ele>710.8</ele>
        <time>2019-05-31T08:53:34Z</time>
      </trkpt>
      <trkpt lat="44.07329" lon="3.0672">
        <ele>710.8</ele>
        <time>2019-05-31T08:53:35Z</time>
      </trkpt>
      <trkpt lat="44.07331" lon="3.06729">
        <ele>710.7</ele>
        <time>2019-05-31T08:53:36Z</time>
      </trkpt>
      <trkpt lat="44.07335" lon="3.06736">
        <ele>710.6</ele>
        <time>2019-05-31T08:53:37Z</time>
      </trkpt>
      <trkpt lat="44.07338" lon="3.06742">
        <ele>710.6</ele>
        <time>2019-05-31T08:53:38Z</time>
      </trkpt>
      <trkpt lat="44.07342" lon="3.06746">
        <ele>710.5</ele>
        <time>2019-05-31T08:53:39Z</time>
      </trkpt>
      <trkpt lat="44.07346" lon="3.0675">
        <ele>710.6</ele>
        <time>2019-05-31T08:53:40Z</time>
      </trkpt>
      <trkpt lat="44.0735" lon="3.06755">
        <ele>710.6</ele>
        <time>2019-05-31T08:53:41Z</time>
      </trkpt>
      <trkpt lat="44.07354" lon="3.0676">
        <ele>710.7</ele>
        <time>2019-05-31T08:53:42Z</time>
      </trkpt>
      <trkpt lat="44.07356" lon="3.06764">
        <ele>710.8</ele>
        <time>2019-05-31T08:53:43Z</time>
      </trkpt>
      <trkpt lat="44.07359" lon="3.06769">
        <ele>710.8</ele>
        <time>2019-05-31T08:53:44Z</time>
      </trkpt>
      <trkpt lat="44.07362" lon="3.06774">
        <ele>710.9</ele>
        <time>2019-05-31T08:53:45Z</time>
      </trkpt>
      <trkpt lat="44.07363" lon="3.06778">
        <ele>710.9</ele>
        <time>2019-05-31T08:53:46Z</time>
      </trkpt>
      <trkpt lat="44.07365" lon="3.06783">
        <ele>710.9</ele>
        <time>2019-05-31T08:53:47Z</time>
      </trkpt>
      <trkpt lat="44.07368" lon="3.06787">
        <ele>710.9</ele>
        <time>2019-05-31T08:53:48Z</time>
      </trkpt>
      <trkpt lat="44.0737" lon="3.06791">
        <ele>711</ele>
        <time>2019-05-31T08:53:49Z</time>
      </trkpt>
      <trkpt lat="44.07372" lon="3.06796">
        <ele>711</ele>
        <time>2019-05-31T08:53:50Z</time>
      </trkpt>
      <trkpt lat="44.07375" lon="3.06801">
        <ele>711</ele>
        <time>2019-05-31T08:53:51Z</time>
      </trkpt>
      <trkpt lat="44.07378" lon="3.06804">
        <ele>710.9</ele>
        <time>2019-05-31T08:53:52Z</time>
      </trkpt>
      <trkpt lat="44.0738" lon="3.06808">
        <ele>710.9</ele>
        <time>2019-05-31T08:53:53Z</time>
      </trkpt>
      <trkpt lat="44.07384" lon="3.06812">
        <ele>710.9</ele>
        <time>2019-05-31T08:53:54Z</time>
      </trkpt>
      <trkpt lat="44.07387" lon="3.06816">
        <ele>710.8</ele>
        <time>2019-05-31T08:53:55Z</time>
      </trkpt>
      <trkpt lat="44.0739" lon="3.06818">
        <ele>710.7</ele>
        <time>2019-05-31T08:53:56Z</time>
      </trkpt>
      <trkpt lat="44.07393" lon="3.06823">
        <ele>710.6</ele>
        <time>2019-05-31T08:53:58Z</time>
      </trkpt>
      <trkpt lat="44.07396" lon="3.06828">
        <ele>710.4</ele>
        <time>2019-05-31T08:54:00Z</time>
      </trkpt>
      <trkpt lat="44.07398" lon="3.06831">
        <ele>710.3</ele>
        <time>2019-05-31T08:54:01Z</time>
      </trkpt>
      <trkpt lat="44.074" lon="3.06834">
        <ele>710.1</ele>
        <time>2019-05-31T08:54:02Z</time>
      </trkpt>
      <trkpt lat="44.07404" lon="3.06838">
        <ele>709.9</ele>
        <time>2019-05-31T08:54:04Z</time>
      </trkpt>
      <trkpt lat="44.07406" lon="3.06841">
        <ele>709.8</ele>
        <time>2019-05-31T08:54:05Z</time>
      </trkpt>
      <trkpt lat="44.07409" lon="3.06844">
        <ele>709.7</ele>
        <time>2019-05-31T08:54:06Z</time>
      </trkpt>
      <trkpt lat="44.07412" lon="3.06847">
        <ele>709.5</ele>
        <time>2019-05-31T08:54:07Z</time>
      </trkpt>
      <trkpt lat="44.07417" lon="3.06852">
        <ele>709.3</ele>
        <time>2019-05-31T08:54:08Z</time>
      </trkpt>
      <trkpt lat="44.07421" lon="3.06858">
        <ele>709.1</ele>
        <time>2019-05-31T08:54:09Z</time>
      </trkpt>
      <trkpt lat="44.07425" lon="3.06862">
        <ele>708.9</ele>
        <time>2019-05-31T08:54:10Z</time>
      </trkpt>
      <trkpt lat="44.07428" lon="3.06867">
        <ele>708.8</ele>
        <time>2019-05-31T08:54:11Z</time>
      </trkpt>
      <trkpt lat="44.07432" lon="3.06872">
        <ele>708.6</ele>
        <time>2019-05-31T08:54:12Z</time>
      </trkpt>
      <trkpt lat="44.07436" lon="3.06878">
        <ele>708.4</ele>
        <time>2019-05-31T08:54:13Z</time>
      </trkpt>
      <trkpt lat="44.07439" lon="3.06884">
        <ele>708.2</ele>
        <time>2019-05-31T08:54:14Z</time>
      </trkpt>
      <trkpt lat="44.07442" lon="3.0689">
        <ele>708</ele>
        <time>2019-05-31T08:54:15Z</time>
      </trkpt>
      <trkpt lat="44.07444" lon="3.06896">
        <ele>707.8</ele>
        <time>2019-05-31T08:54:16Z</time>
      </trkpt>
      <trkpt lat="44.07446" lon="3.06906">
        <ele>707.6</ele>
        <time>2019-05-31T08:54:17Z</time>
      </trkpt>
      <trkpt lat="44.07448" lon="3.06914">
        <ele>707.5</ele>
        <time>2019-05-31T08:54:18Z</time>
      </trkpt>
      <trkpt lat="44.07452" lon="3.0692">
        <ele>707.4</ele>
        <time>2019-05-31T08:54:19Z</time>
      </trkpt>
      <trkpt lat="44.07456" lon="3.06923">
        <ele>707.4</ele>
        <time>2019-05-31T08:54:20Z</time>
      </trkpt>
      <trkpt lat="44.07459" lon="3.06926">
        <ele>707.5</ele>
        <time>2019-05-31T08:54:21Z</time>
      </trkpt>
      <trkpt lat="44.07468" lon="3.06929">
        <ele>707.7</ele>
        <time>2019-05-31T08:54:22Z</time>
      </trkpt>
      <trkpt lat="44.07472" lon="3.06925">
        <ele>707.8</ele>
        <time>2019-05-31T08:54:23Z</time>
      </trkpt>
      <trkpt lat="44.07478" lon="3.0692">
        <ele>708.1</ele>
        <time>2019-05-31T08:54:24Z</time>
      </trkpt>
      <trkpt lat="44.07482" lon="3.06917">
        <ele>708.3</ele>
        <time>2019-05-31T08:54:25Z</time>
      </trkpt>
      <trkpt lat="44.07485" lon="3.06915">
        <ele>707.6</ele>
        <time>2019-05-31T08:54:26Z</time>
      </trkpt>
      <trkpt lat="44.07487" lon="3.06914">
        <ele>707.2</ele>
        <time>2019-05-31T08:54:28Z</time>
      </trkpt>
      <trkpt lat="44.07492" lon="3.06912">
        <ele>706.6</ele>
        <time>2019-05-31T08:54:30Z</time>
      </trkpt>
      <trkpt lat="44.07497" lon="3.06909">
        <ele>705.8</ele>
        <time>2019-05-31T08:54:32Z</time>
      </trkpt>
      <trkpt lat="44.075" lon="3.06904">
        <ele>705.1</ele>
        <time>2019-05-31T08:54:34Z</time>
      </trkpt>
      <trkpt lat="44.07502" lon="3.06898">
        <ele>704.3</ele>
        <time>2019-05-31T08:54:36Z</time>
      </trkpt>
      <trkpt lat="44.07504" lon="3.06891">
        <ele>703.6</ele>
        <time>2019-05-31T08:54:38Z</time>
      </trkpt>
      <trkpt lat="44.07505" lon="3.06887">
        <ele>703.2</ele>
        <time>2019-05-31T08:54:39Z</time>
      </trkpt>
      <trkpt lat="44.07505" lon="3.06883">
        <ele>702.7</ele>
        <time>2019-05-31T08:54:40Z</time>
      </trkpt>
      <trkpt lat="44.07507" lon="3.06877">
        <ele>701.9</ele>
        <time>2019-05-31T08:54:42Z</time>
      </trkpt>
      <trkpt lat="44.07507" lon="3.06873">
        <ele>701.4</ele>
        <time>2019-05-31T08:54:43Z</time>
      </trkpt>
      <trkpt lat="44.07508" lon="3.06869">
        <ele>700.9</ele>
        <time>2019-05-31T08:54:44Z</time>
      </trkpt>
      <trkpt lat="44.07508" lon="3.06865">
        <ele>700.5</ele>
        <time>2019-05-31T08:54:45Z</time>
      </trkpt>
      <trkpt lat="44.07509" lon="3.06861">
        <ele>700</ele>
        <time>2019-05-31T08:54:46Z</time>
      </trkpt>
      <trkpt lat="44.0751" lon="3.06857">
        <ele>699.5</ele>
        <time>2019-05-31T08:54:47Z</time>
      </trkpt>
      <trkpt lat="44.0751" lon="3.06853">
        <ele>699</ele>
        <time>2019-05-31T08:54:48Z</time>
      </trkpt>
      <trkpt lat="44.07511" lon="3.06849">
        <ele>698.5</ele>
        <time>2019-05-31T08:54:49Z</time>
      </trkpt>
      <trkpt lat="44.07511" lon="3.06844">
        <ele>698</ele>
        <time>2019-05-31T08:54:50Z</time>
      </trkpt>
      <trkpt lat="44.07512" lon="3.0684">
        <ele>697.6</ele>
        <time>2019-05-31T08:54:51Z</time>
      </trkpt>
      <trkpt lat="44.07513" lon="3.06835">
        <ele>697.1</ele>
        <time>2019-05-31T08:54:52Z</time>
      </trkpt>
      <trkpt lat="44.07513" lon="3.0683">
        <ele>696.6</ele>
        <time>2019-05-31T08:54:53Z</time>
      </trkpt>
      <trkpt lat="44.07514" lon="3.06825">
        <ele>696.3</ele>
        <time>2019-05-31T08:54:54Z</time>
      </trkpt>
      <trkpt lat="44.07513" lon="3.06821">
        <ele>696</ele>
        <time>2019-05-31T08:54:55Z</time>
      </trkpt>
      <trkpt lat="44.07513" lon="3.06813">
        <ele>695.4</ele>
        <time>2019-05-31T08:54:57Z</time>
      </trkpt>
      <trkpt lat="44.07514" lon="3.06806">
        <ele>696</ele>
        <time>2019-05-31T08:54:59Z</time>
      </trkpt>
      <trkpt lat="44.07515" lon="3.06802">
        <ele>696.3</ele>
        <time>2019-05-31T08:55:00Z</time>
      </trkpt>
      <trkpt lat="44.07517" lon="3.06799">
        <ele>696.5</ele>
        <time>2019-05-31T08:55:01Z</time>
      </trkpt>
      <trkpt lat="44.07519" lon="3.06795">
        <ele>696.7</ele>
        <time>2019-05-31T08:55:02Z</time>
      </trkpt>
      <trkpt lat="44.07521" lon="3.06792">
        <ele>696.9</ele>
        <time>2019-05-31T08:55:03Z</time>
      </trkpt>
      <trkpt lat="44.07525" lon="3.06788">
        <ele>697.2</ele>
        <time>2019-05-31T08:55:05Z</time>
      </trkpt>
      <trkpt lat="44.07529" lon="3.06786">
        <ele>697.4</ele>
        <time>2019-05-31T08:55:07Z</time>
      </trkpt>
      <trkpt lat="44.07532" lon="3.06785">
        <ele>697.4</ele>
        <time>2019-05-31T08:55:09Z</time>
      </trkpt>
      <trkpt lat="44.07535" lon="3.06784">
        <ele>697.3</ele>
        <time>2019-05-31T08:55:12Z</time>
      </trkpt>
      <trkpt lat="44.07537" lon="3.06792">
        <ele>697.2</ele>
        <time>2019-05-31T08:56:18Z</time>
      </trkpt>
      <trkpt lat="44.07538" lon="3.06788">
        <ele>697</ele>
        <time>2019-05-31T08:59:44Z</time>
      </trkpt>
      <trkpt lat="44.07541" lon="3.06785">
        <ele>696.6</ele>
        <time>2019-05-31T08:59:59Z</time>
      </trkpt>
      <trkpt lat="44.07544" lon="3.06783">
        <ele>696.3</ele>
        <time>2019-05-31T09:00:02Z</time>
      </trkpt>
      <trkpt lat="44.07547" lon="3.06782">
        <ele>696.1</ele>
        <time>2019-05-31T09:00:05Z</time>
      </trkpt>
      <trkpt lat="44.0755" lon="3.06781">
        <ele>695.8</ele>
        <time>2019-05-31T09:00:08Z</time>
      </trkpt>
      <trkpt lat="44.07553" lon="3.0678">
        <ele>695.5</ele>
        <time>2019-05-31T09:00:11Z</time>
      </trkpt>
      <trkpt lat="44.07557" lon="3.06779">
        <ele>695.2</ele>
        <time>2019-05-31T09:00:14Z</time>
      </trkpt>
      <trkpt lat="44.07561" lon="3.06779">
        <ele>694.9</ele>
        <time>2019-05-31T09:00:16Z</time>
      </trkpt>
      <trkpt lat="44.07566" lon="3.06779">
        <ele>694.7</ele>
        <time>2019-05-31T09:00:18Z</time>
      </trkpt>
      <trkpt lat="44.0757" lon="3.06779">
        <ele>694.6</ele>
        <time>2019-05-31T09:00:19Z</time>
      </trkpt>
      <trkpt lat="44.07573" lon="3.06779">
        <ele>694.5</ele>
        <time>2019-05-31T09:00:20Z</time>
      </trkpt>
      <trkpt lat="44.07577" lon="3.06779">
        <ele>694.4</ele>
        <time>2019-05-31T09:00:21Z</time>
      </trkpt>
      <trkpt lat="44.07581" lon="3.06779">
        <ele>694.4</ele>
        <time>2019-05-31T09:00:22Z</time>
      </trkpt>
      <trkpt lat="44.07585" lon="3.06779">
        <ele>694.3</ele>
        <time>2019-05-31T09:00:23Z</time>
      </trkpt>
      <trkpt lat="44.07591" lon="3.06782">
        <ele>694.2</ele>
        <time>2019-05-31T09:00:24Z</time>
      </trkpt>
      <trkpt lat="44.07595" lon="3.06784">
        <ele>694.1</ele>
        <time>2019-05-31T09:00:25Z</time>
      </trkpt>
      <trkpt lat="44.07601" lon="3.06786">
        <ele>693.9</ele>
        <time>2019-05-31T09:00:26Z</time>
      </trkpt>
      <trkpt lat="44.07606" lon="3.06789">
        <ele>693.7</ele>
        <time>2019-05-31T09:00:27Z</time>
      </trkpt>
      <trkpt lat="44.07612" lon="3.06793">
        <ele>693.5</ele>
        <time>2019-05-31T09:00:28Z</time>
      </trkpt>
      <trkpt lat="44.07616" lon="3.06798">
        <ele>693.3</ele>
        <time>2019-05-31T09:00:29Z</time>
      </trkpt>
      <trkpt lat="44.0762" lon="3.06803">
        <ele>693.2</ele>
        <time>2019-05-31T09:00:30Z</time>
      </trkpt>
      <trkpt lat="44.07624" lon="3.06807">
        <ele>693</ele>
        <time>2019-05-31T09:00:31Z</time>
      </trkpt>
      <trkpt lat="44.07628" lon="3.06809">
        <ele>692.9</ele>
        <time>2019-05-31T09:00:32Z</time>
      </trkpt>
      <trkpt lat="44.07633" lon="3.06812">
        <ele>692.9</ele>
        <time>2019-05-31T09:00:33Z</time>
      </trkpt>
      <trkpt lat="44.07637" lon="3.06814">
        <ele>692.8</ele>
        <time>2019-05-31T09:00:34Z</time>
      </trkpt>
      <trkpt lat="44.07642" lon="3.06816">
        <ele>692.7</ele>
        <time>2019-05-31T09:00:35Z</time>
      </trkpt>
      <trkpt lat="44.07645" lon="3.06818">
        <ele>692.7</ele>
        <time>2019-05-31T09:00:36Z</time>
      </trkpt>
      <trkpt lat="44.07649" lon="3.06819">
        <ele>692.7</ele>
        <time>2019-05-31T09:00:37Z</time>
      </trkpt>
      <trkpt lat="44.07653" lon="3.0682">
        <ele>692.7</ele>
        <time>2019-05-31T09:00:38Z</time>
      </trkpt>
      <trkpt lat="44.07657" lon="3.06821">
        <ele>692.8</ele>
        <time>2019-05-31T09:00:39Z</time>
      </trkpt>
      <trkpt lat="44.0766" lon="3.06819">
        <ele>692.9</ele>
        <time>2019-05-31T09:00:40Z</time>
      </trkpt>
      <trkpt lat="44.07664" lon="3.06818">
        <ele>693</ele>
        <time>2019-05-31T09:00:41Z</time>
      </trkpt>
      <trkpt lat="44.07667" lon="3.06817">
        <ele>693.2</ele>
        <time>2019-05-31T09:00:42Z</time>
      </trkpt>
      <trkpt lat="44.07672" lon="3.06816">
        <ele>693.4</ele>
        <time>2019-05-31T09:00:44Z</time>
      </trkpt>
      <trkpt lat="44.07675" lon="3.06814">
        <ele>693.7</ele>
        <time>2019-05-31T09:00:45Z</time>
      </trkpt>
      <trkpt lat="44.07679" lon="3.06809">
        <ele>694.2</ele>
        <time>2019-05-31T09:00:47Z</time>
      </trkpt>
      <trkpt lat="44.07681" lon="3.06806">
        <ele>694.6</ele>
        <time>2019-05-31T09:00:48Z</time>
      </trkpt>
      <trkpt lat="44.07684" lon="3.06802">
        <ele>695</ele>
        <time>2019-05-31T09:00:50Z</time>
      </trkpt>
      <trkpt lat="44.07688" lon="3.06797">
        <ele>695.6</ele>
        <time>2019-05-31T09:00:52Z</time>
      </trkpt>
      <trkpt lat="44.07692" lon="3.06793">
        <ele>695.9</ele>
        <time>2019-05-31T09:00:54Z</time>
      </trkpt>
      <trkpt lat="44.07695" lon="3.06787">
        <ele>696.3</ele>
        <time>2019-05-31T09:00:56Z</time>
      </trkpt>
      <trkpt lat="44.07697" lon="3.06784">
        <ele>696.6</ele>
        <time>2019-05-31T09:00:57Z</time>
      </trkpt>
      <trkpt lat="44.077" lon="3.06779">
        <ele>697.1</ele>
        <time>2019-05-31T09:00:59Z</time>
      </trkpt>
      <trkpt lat="44.07702" lon="3.06776">
        <ele>697.3</ele>
        <time>2019-05-31T09:01:00Z</time>
      </trkpt>
      <trkpt lat="44.07705" lon="3.06774">
        <ele>697.6</ele>
        <time>2019-05-31T09:01:01Z</time>
      </trkpt>
      <trkpt lat="44.07709" lon="3.0677">
        <ele>698</ele>
        <time>2019-05-31T09:01:03Z</time>
      </trkpt>
      <trkpt lat="44.07712" lon="3.06765">
        <ele>698.4</ele>
        <time>2019-05-31T09:01:05Z</time>
      </trkpt>
      <trkpt lat="44.07715" lon="3.06762">
        <ele>698.7</ele>
        <time>2019-05-31T09:01:07Z</time>
      </trkpt>
      <trkpt lat="44.0772" lon="3.06759">
        <ele>699.3</ele>
        <time>2019-05-31T09:01:09Z</time>
      </trkpt>
      <trkpt lat="44.07725" lon="3.06758">
        <ele>699.9</ele>
        <time>2019-05-31T09:01:11Z</time>
      </trkpt>
      <trkpt lat="44.07729" lon="3.06758">
        <ele>700.4</ele>
        <time>2019-05-31T09:01:13Z</time>
      </trkpt>
      <trkpt lat="44.07734" lon="3.06757">
        <ele>700.9</ele>
        <time>2019-05-31T09:01:15Z</time>
      </trkpt>
      <trkpt lat="44.07737" lon="3.06756">
        <ele>701.2</ele>
        <time>2019-05-31T09:01:16Z</time>
      </trkpt>
      <trkpt lat="44.07739" lon="3.06754">
        <ele>701.5</ele>
        <time>2019-05-31T09:01:17Z</time>
      </trkpt>
      <trkpt lat="44.07744" lon="3.06752">
        <ele>702.1</ele>
        <time>2019-05-31T09:01:19Z</time>
      </trkpt>
      <trkpt lat="44.0775" lon="3.0675">
        <ele>702.7</ele>
        <time>2019-05-31T09:01:21Z</time>
      </trkpt>
      <trkpt lat="44.07755" lon="3.06748">
        <ele>703</ele>
        <time>2019-05-31T09:01:23Z</time>
      </trkpt>
      <trkpt lat="44.07759" lon="3.06745">
        <ele>703.3</ele>
        <time>2019-05-31T09:01:25Z</time>
      </trkpt>
      <trkpt lat="44.07763" lon="3.06743">
        <ele>703.5</ele>
        <time>2019-05-31T09:01:27Z</time>
      </trkpt>
      <trkpt lat="44.07766" lon="3.0674">
        <ele>703.7</ele>
        <time>2019-05-31T09:01:29Z</time>
      </trkpt>
      <trkpt lat="44.07769" lon="3.06739">
        <ele>704</ele>
        <time>2019-05-31T09:01:31Z</time>
      </trkpt>
      <trkpt lat="44.07774" lon="3.06738">
        <ele>704.3</ele>
        <time>2019-05-31T09:01:33Z</time>
      </trkpt>
      <trkpt lat="44.07778" lon="3.06739">
        <ele>704.6</ele>
        <time>2019-05-31T09:01:35Z</time>
      </trkpt>
      <trkpt lat="44.07782" lon="3.06742">
        <ele>704.8</ele>
        <time>2019-05-31T09:01:37Z</time>
      </trkpt>
      <trkpt lat="44.07786" lon="3.06745">
        <ele>705.1</ele>
        <time>2019-05-31T09:01:39Z</time>
      </trkpt>
      <trkpt lat="44.07788" lon="3.06751">
        <ele>705.3</ele>
        <time>2019-05-31T09:01:41Z</time>
      </trkpt>
      <trkpt lat="44.07791" lon="3.06755">
        <ele>705.5</ele>
        <time>2019-05-31T09:01:43Z</time>
      </trkpt>
      <trkpt lat="44.07794" lon="3.06757">
        <ele>705.6</ele>
        <time>2019-05-31T09:01:45Z</time>
      </trkpt>
      <trkpt lat="44.07797" lon="3.06759">
        <ele>705.8</ele>
        <time>2019-05-31T09:01:47Z</time>
      </trkpt>
      <trkpt lat="44.07801" lon="3.0676">
        <ele>706</ele>
        <time>2019-05-31T09:01:50Z</time>
      </trkpt>
      <trkpt lat="44.07804" lon="3.06762">
        <ele>706.2</ele>
        <time>2019-05-31T09:01:52Z</time>
      </trkpt>
      <trkpt lat="44.07807" lon="3.06764">
        <ele>706.4</ele>
        <time>2019-05-31T09:01:54Z</time>
      </trkpt>
      <trkpt lat="44.07811" lon="3.06765">
        <ele>706.9</ele>
        <time>2019-05-31T09:01:56Z</time>
      </trkpt>
      <trkpt lat="44.07815" lon="3.06765">
        <ele>707.4</ele>
        <time>2019-05-31T09:01:58Z</time>
      </trkpt>
      <trkpt lat="44.07818" lon="3.06765">
        <ele>707.9</ele>
        <time>2019-05-31T09:02:00Z</time>
      </trkpt>
      <trkpt lat="44.07821" lon="3.06763">
        <ele>708.4</ele>
        <time>2019-05-31T09:02:02Z</time>
      </trkpt>
      <trkpt lat="44.07825" lon="3.06764">
        <ele>709</ele>
        <time>2019-05-31T09:02:04Z</time>
      </trkpt>
      <trkpt lat="44.07828" lon="3.06765">
        <ele>709.6</ele>
        <time>2019-05-31T09:02:06Z</time>
      </trkpt>
      <trkpt lat="44.07832" lon="3.06766">
        <ele>710.1</ele>
        <time>2019-05-31T09:02:09Z</time>
      </trkpt>
      <trkpt lat="44.07836" lon="3.06766">
        <ele>710.7</ele>
        <time>2019-05-31T09:02:11Z</time>
      </trkpt>
      <trkpt lat="44.0784" lon="3.06767">
        <ele>711.2</ele>
        <time>2019-05-31T09:02:13Z</time>
      </trkpt>
      <trkpt lat="44.07843" lon="3.06769">
        <ele>711.6</ele>
        <time>2019-05-31T09:02:15Z</time>
      </trkpt>
      <trkpt lat="44.07847" lon="3.06772">
        <ele>712</ele>
        <time>2019-05-31T09:02:17Z</time>
      </trkpt>
      <trkpt lat="44.0785" lon="3.06777">
        <ele>712.3</ele>
        <time>2019-05-31T09:02:19Z</time>
      </trkpt>
      <trkpt lat="44.07853" lon="3.0678">
        <ele>712.4</ele>
        <time>2019-05-31T09:02:21Z</time>
      </trkpt>
      <trkpt lat="44.07857" lon="3.06782">
        <ele>712.6</ele>
        <time>2019-05-31T09:02:23Z</time>
      </trkpt>
      <trkpt lat="44.0786" lon="3.06784">
        <ele>712.7</ele>
        <time>2019-05-31T09:02:25Z</time>
      </trkpt>
      <trkpt lat="44.07863" lon="3.06786">
        <ele>712.8</ele>
        <time>2019-05-31T09:02:27Z</time>
      </trkpt>
      <trkpt lat="44.07866" lon="3.06789">
        <ele>712.9</ele>
        <time>2019-05-31T09:02:29Z</time>
      </trkpt>
      <trkpt lat="44.0787" lon="3.06792">
        <ele>713</ele>
        <time>2019-05-31T09:02:31Z</time>
      </trkpt>
      <trkpt lat="44.07873" lon="3.06796">
        <ele>713.2</ele>
        <time>2019-05-31T09:02:33Z</time>
      </trkpt>
      <trkpt lat="44.07876" lon="3.06799">
        <ele>713.3</ele>
        <time>2019-05-31T09:02:35Z</time>
      </trkpt>
      <trkpt lat="44.07879" lon="3.06804">
        <ele>713.5</ele>
        <time>2019-05-31T09:02:37Z</time>
      </trkpt>
      <trkpt lat="44.07882" lon="3.06811">
        <ele>713.6</ele>
        <time>2019-05-31T09:02:39Z</time>
      </trkpt>
      <trkpt lat="44.07883" lon="3.06817">
        <ele>713.8</ele>
        <time>2019-05-31T09:02:41Z</time>
      </trkpt>
      <trkpt lat="44.07886" lon="3.06823">
        <ele>714</ele>
        <time>2019-05-31T09:02:43Z</time>
      </trkpt>
      <trkpt lat="44.07888" lon="3.06829">
        <ele>714.2</ele>
        <time>2019-05-31T09:02:45Z</time>
      </trkpt>
      <trkpt lat="44.0789" lon="3.06833">
        <ele>714.4</ele>
        <time>2019-05-31T09:02:47Z</time>
      </trkpt>
      <trkpt lat="44.07892" lon="3.06839">
        <ele>714.5</ele>
        <time>2019-05-31T09:02:49Z</time>
      </trkpt>
      <trkpt lat="44.07893" lon="3.06844">
        <ele>714.6</ele>
        <time>2019-05-31T09:02:51Z</time>
      </trkpt>
      <trkpt lat="44.07891" lon="3.06851">
        <ele>714.7</ele>
        <time>2019-05-31T09:02:53Z</time>
      </trkpt>
      <trkpt lat="44.07888" lon="3.06857">
        <ele>714.9</ele>
        <time>2019-05-31T09:02:55Z</time>
      </trkpt>
      <trkpt lat="44.07887" lon="3.06861">
        <ele>714.9</ele>
        <time>2019-05-31T09:02:56Z</time>
      </trkpt>
      <trkpt lat="44.07885" lon="3.06865">
        <ele>714.9</ele>
        <time>2019-05-31T09:02:57Z</time>
      </trkpt>
      <trkpt lat="44.07884" lon="3.06868">
        <ele>715</ele>
        <time>2019-05-31T09:02:58Z</time>
      </trkpt>
      <trkpt lat="44.07884" lon="3.06872">
        <ele>715</ele>
        <time>2019-05-31T09:02:59Z</time>
      </trkpt>
      <trkpt lat="44.07884" lon="3.06877">
        <ele>715</ele>
        <time>2019-05-31T09:03:00Z</time>
      </trkpt>
      <trkpt lat="44.07883" lon="3.06882">
        <ele>715</ele>
        <time>2019-05-31T09:03:01Z</time>
      </trkpt>
      <trkpt lat="44.07883" lon="3.06887">
        <ele>715.1</ele>
        <time>2019-05-31T09:03:02Z</time>
      </trkpt>
      <trkpt lat="44.07883" lon="3.06891">
        <ele>715.1</ele>
        <time>2019-05-31T09:03:03Z</time>
      </trkpt>
      <trkpt lat="44.07883" lon="3.06896">
        <ele>715.3</ele>
        <time>2019-05-31T09:03:04Z</time>
      </trkpt>
      <trkpt lat="44.07883" lon="3.06902">
        <ele>715.4</ele>
        <time>2019-05-31T09:03:05Z</time>
      </trkpt>
      <trkpt lat="44.07883" lon="3.06907">
        <ele>715.5</ele>
        <time>2019-05-31T09:03:06Z</time>
      </trkpt>
      <trkpt lat="44.07884" lon="3.06911">
        <ele>715.6</ele>
        <time>2019-05-31T09:03:07Z</time>
      </trkpt>
      <trkpt lat="44.07884" lon="3.06916">
        <ele>715.8</ele>
        <time>2019-05-31T09:03:08Z</time>
      </trkpt>
      <trkpt lat="44.07884" lon="3.06921">
        <ele>716</ele>
        <time>2019-05-31T09:03:09Z</time>
      </trkpt>
      <trkpt lat="44.07884" lon="3.06926">
        <ele>716.2</ele>
        <time>2019-05-31T09:03:10Z</time>
      </trkpt>
      <trkpt lat="44.07884" lon="3.06931">
        <ele>716.3</ele>
        <time>2019-05-31T09:03:11Z</time>
      </trkpt>
      <trkpt lat="44.07884" lon="3.06936">
        <ele>716.5</ele>
        <time>2019-05-31T09:03:12Z</time>
      </trkpt>
      <trkpt lat="44.07884" lon="3.0694">
        <ele>716.7</ele>
        <time>2019-05-31T09:03:13Z</time>
      </trkpt>
      <trkpt lat="44.07884" lon="3.06945">
        <ele>716.9</ele>
        <time>2019-05-31T09:03:14Z</time>
      </trkpt>
      <trkpt lat="44.07883" lon="3.06949">
        <ele>717</ele>
        <time>2019-05-31T09:03:15Z</time>
      </trkpt>
      <trkpt lat="44.07883" lon="3.06953">
        <ele>717.1</ele>
        <time>2019-05-31T09:03:16Z</time>
      </trkpt>
      <trkpt lat="44.07883" lon="3.06958">
        <ele>717.3</ele>
        <time>2019-05-31T09:03:17Z</time>
      </trkpt>
      <trkpt lat="44.07883" lon="3.06964">
        <ele>717.6</ele>
        <time>2019-05-31T09:03:18Z</time>
      </trkpt>
      <trkpt lat="44.07886" lon="3.06972">
        <ele>717.9</ele>
        <time>2019-05-31T09:03:19Z</time>
      </trkpt>
      <trkpt lat="44.07887" lon="3.06981">
        <ele>718.3</ele>
        <time>2019-05-31T09:03:20Z</time>
      </trkpt>
      <trkpt lat="44.07887" lon="3.06988">
        <ele>718.7</ele>
        <time>2019-05-31T09:03:21Z</time>
      </trkpt>
      <trkpt lat="44.07887" lon="3.06997">
        <ele>719.2</ele>
        <time>2019-05-31T09:03:22Z</time>
      </trkpt>
      <trkpt lat="44.07888" lon="3.07005">
        <ele>719.9</ele>
        <time>2019-05-31T09:03:23Z</time>
      </trkpt>
      <trkpt lat="44.0789" lon="3.07015">
        <ele>720.5</ele>
        <time>2019-05-31T09:03:24Z</time>
      </trkpt>
      <trkpt lat="44.07891" lon="3.07021">
        <ele>720.9</ele>
        <time>2019-05-31T09:03:25Z</time>
      </trkpt>
      <trkpt lat="44.07893" lon="3.0703">
        <ele>721.4</ele>
        <time>2019-05-31T09:03:26Z</time>
      </trkpt>
      <trkpt lat="44.07894" lon="3.07038">
        <ele>721.8</ele>
        <time>2019-05-31T09:03:27Z</time>
      </trkpt>
      <trkpt lat="44.07896" lon="3.07047">
        <ele>722.2</ele>
        <time>2019-05-31T09:03:28Z</time>
      </trkpt>
      <trkpt lat="44.07898" lon="3.07055">
        <ele>722.5</ele>
        <time>2019-05-31T09:03:29Z</time>
      </trkpt>
      <trkpt lat="44.079" lon="3.07063">
        <ele>723</ele>
        <time>2019-05-31T09:03:30Z</time>
      </trkpt>
      <trkpt lat="44.07901" lon="3.07071">
        <ele>723.7</ele>
        <time>2019-05-31T09:03:31Z</time>
      </trkpt>
      <trkpt lat="44.07902" lon="3.07079">
        <ele>724.3</ele>
        <time>2019-05-31T09:03:32Z</time>
      </trkpt>
      <trkpt lat="44.07902" lon="3.07086">
        <ele>724.9</ele>
        <time>2019-05-31T09:03:33Z</time>
      </trkpt>
      <trkpt lat="44.07904" lon="3.07094">
        <ele>725.6</ele>
        <time>2019-05-31T09:03:34Z</time>
      </trkpt>
      <trkpt lat="44.07905" lon="3.07101">
        <ele>726.2</ele>
        <time>2019-05-31T09:03:35Z</time>
      </trkpt>
      <trkpt lat="44.07908" lon="3.07108">
        <ele>726.8</ele>
        <time>2019-05-31T09:03:36Z</time>
      </trkpt>
      <trkpt lat="44.0791" lon="3.07115">
        <ele>727.5</ele>
        <time>2019-05-31T09:03:37Z</time>
      </trkpt>
      <trkpt lat="44.07911" lon="3.07122">
        <ele>728.1</ele>
        <time>2019-05-31T09:03:38Z</time>
      </trkpt>
      <trkpt lat="44.07914" lon="3.07128">
        <ele>728.7</ele>
        <time>2019-05-31T09:03:39Z</time>
      </trkpt>
      <trkpt lat="44.07916" lon="3.07134">
        <ele>729.7</ele>
        <time>2019-05-31T09:03:40Z</time>
      </trkpt>
      <trkpt lat="44.07918" lon="3.07141">
        <ele>729.8</ele>
        <time>2019-05-31T09:03:41Z</time>
      </trkpt>
      <trkpt lat="44.07919" lon="3.07145">
        <ele>729.9</ele>
        <time>2019-05-31T09:03:42Z</time>
      </trkpt>
      <trkpt lat="44.0792" lon="3.07148">
        <ele>729.9</ele>
        <time>2019-05-31T09:03:43Z</time>
      </trkpt>
      <trkpt lat="44.07922" lon="3.07153">
        <ele>730</ele>
        <time>2019-05-31T09:03:44Z</time>
      </trkpt>
      <trkpt lat="44.07923" lon="3.07158">
        <ele>730.1</ele>
        <time>2019-05-31T09:03:45Z</time>
      </trkpt>
      <trkpt lat="44.07926" lon="3.07164">
        <ele>730.2</ele>
        <time>2019-05-31T09:03:47Z</time>
      </trkpt>
      <trkpt lat="44.07929" lon="3.07169">
        <ele>730.3</ele>
        <time>2019-05-31T09:03:48Z</time>
      </trkpt>
      <trkpt lat="44.07931" lon="3.07175">
        <ele>730.4</ele>
        <time>2019-05-31T09:03:49Z</time>
      </trkpt>
      <trkpt lat="44.07934" lon="3.07178">
        <ele>730.6</ele>
        <time>2019-05-31T09:03:50Z</time>
      </trkpt>
      <trkpt lat="44.07938" lon="3.07183">
        <ele>730.7</ele>
        <time>2019-05-31T09:03:51Z</time>
      </trkpt>
      <trkpt lat="44.07939" lon="3.07187">
        <ele>730.8</ele>
        <time>2019-05-31T09:03:52Z</time>
      </trkpt>
      <trkpt lat="44.07942" lon="3.07191">
        <ele>730.9</ele>
        <time>2019-05-31T09:03:53Z</time>
      </trkpt>
      <trkpt lat="44.07943" lon="3.07194">
        <ele>731</ele>
        <time>2019-05-31T09:03:54Z</time>
      </trkpt>
      <trkpt lat="44.07945" lon="3.07199">
        <ele>731.2</ele>
        <time>2019-05-31T09:03:55Z</time>
      </trkpt>
      <trkpt lat="44.07947" lon="3.07203">
        <ele>731.3</ele>
        <time>2019-05-31T09:03:56Z</time>
      </trkpt>
      <trkpt lat="44.07949" lon="3.07207">
        <ele>731.4</ele>
        <time>2019-05-31T09:03:57Z</time>
      </trkpt>
      <trkpt lat="44.07951" lon="3.0721">
        <ele>731.6</ele>
        <time>2019-05-31T09:03:58Z</time>
      </trkpt>
      <trkpt lat="44.07953" lon="3.07214">
        <ele>731.7</ele>
        <time>2019-05-31T09:03:59Z</time>
      </trkpt>
      <trkpt lat="44.07956" lon="3.07217">
        <ele>731.8</ele>
        <time>2019-05-31T09:04:00Z</time>
      </trkpt>
      <trkpt lat="44.07957" lon="3.0722">
        <ele>731.9</ele>
        <time>2019-05-31T09:04:01Z</time>
      </trkpt>
      <trkpt lat="44.0796" lon="3.07224">
        <ele>732.1</ele>
        <time>2019-05-31T09:04:02Z</time>
      </trkpt>
      <trkpt lat="44.07963" lon="3.07228">
        <ele>732.2</ele>
        <time>2019-05-31T09:04:03Z</time>
      </trkpt>
      <trkpt lat="44.07965" lon="3.0723">
        <ele>732.3</ele>
        <time>2019-05-31T09:04:04Z</time>
      </trkpt>
      <trkpt lat="44.07968" lon="3.07233">
        <ele>732.4</ele>
        <time>2019-05-31T09:04:05Z</time>
      </trkpt>
      <trkpt lat="44.0797" lon="3.07236">
        <ele>732.6</ele>
        <time>2019-05-31T09:04:06Z</time>
      </trkpt>
      <trkpt lat="44.07972" lon="3.07239">
        <ele>732.7</ele>
        <time>2019-05-31T09:04:07Z</time>
      </trkpt>
      <trkpt lat="44.07974" lon="3.07242">
        <ele>732.8</ele>
        <time>2019-05-31T09:04:08Z</time>
      </trkpt>
      <trkpt lat="44.07976" lon="3.07244">
        <ele>732.9</ele>
        <time>2019-05-31T09:04:09Z</time>
      </trkpt>
      <trkpt lat="44.07979" lon="3.07247">
        <ele>733</ele>
        <time>2019-05-31T09:04:10Z</time>
      </trkpt>
      <trkpt lat="44.07981" lon="3.07249">
        <ele>733.1</ele>
        <time>2019-05-31T09:04:11Z</time>
      </trkpt>
      <trkpt lat="44.07984" lon="3.07251">
        <ele>733.3</ele>
        <time>2019-05-31T09:04:12Z</time>
      </trkpt>
      <trkpt lat="44.07988" lon="3.07256">
        <ele>733.5</ele>
        <time>2019-05-31T09:04:14Z</time>
      </trkpt>
      <trkpt lat="44.07992" lon="3.0726">
        <ele>733.7</ele>
        <time>2019-05-31T09:04:16Z</time>
      </trkpt>
      <trkpt lat="44.07996" lon="3.07265">
        <ele>733.9</ele>
        <time>2019-05-31T09:04:18Z</time>
      </trkpt>
      <trkpt lat="44.07998" lon="3.07268">
        <ele>734</ele>
        <time>2019-05-31T09:04:19Z</time>
      </trkpt>
      <trkpt lat="44.07999" lon="3.07272">
        <ele>734.2</ele>
        <time>2019-05-31T09:04:20Z</time>
      </trkpt>
      <trkpt lat="44.08" lon="3.07277">
        <ele>734.3</ele>
        <time>2019-05-31T09:04:21Z</time>
      </trkpt>
      <trkpt lat="44.08" lon="3.07282">
        <ele>734.4</ele>
        <time>2019-05-31T09:04:22Z</time>
      </trkpt>
      <trkpt lat="44.08" lon="3.07286">
        <ele>734.5</ele>
        <time>2019-05-31T09:04:23Z</time>
      </trkpt>
      <trkpt lat="44.07999" lon="3.0729">
        <ele>734.5</ele>
        <time>2019-05-31T09:04:24Z</time>
      </trkpt>
      <trkpt lat="44.07999" lon="3.07296">
        <ele>734.6</ele>
        <time>2019-05-31T09:04:26Z</time>
      </trkpt>
      <trkpt lat="44.07999" lon="3.07302">
        <ele>734.7</ele>
        <time>2019-05-31T09:04:28Z</time>
      </trkpt>
      <trkpt lat="44.08" lon="3.07306">
        <ele>734.7</ele>
        <time>2019-05-31T09:04:29Z</time>
      </trkpt>
      <trkpt lat="44.08" lon="3.0731">
        <ele>734.7</ele>
        <time>2019-05-31T09:04:30Z</time>
      </trkpt>
      <trkpt lat="44.08001" lon="3.07314">
        <ele>734.7</ele>
        <time>2019-05-31T09:04:31Z</time>
      </trkpt>
      <trkpt lat="44.08001" lon="3.07318">
        <ele>734.7</ele>
        <time>2019-05-31T09:04:32Z</time>
      </trkpt>
      <trkpt lat="44.08003" lon="3.07324">
        <ele>734.6</ele>
        <time>2019-05-31T09:04:34Z</time>
      </trkpt>
      <trkpt lat="44.08004" lon="3.07327">
        <ele>734.6</ele>
        <time>2019-05-31T09:04:35Z</time>
      </trkpt>
      <trkpt lat="44.08006" lon="3.07331">
        <ele>734.6</ele>
        <time>2019-05-31T09:04:36Z</time>
      </trkpt>
      <trkpt lat="44.08008" lon="3.07333">
        <ele>734.6</ele>
        <time>2019-05-31T09:04:37Z</time>
      </trkpt>
      <trkpt lat="44.08011" lon="3.07338">
        <ele>734.7</ele>
        <time>2019-05-31T09:04:39Z</time>
      </trkpt>
      <trkpt lat="44.08014" lon="3.07341">
        <ele>734.8</ele>
        <time>2019-05-31T09:04:41Z</time>
      </trkpt>
      <trkpt lat="44.08018" lon="3.07344">
        <ele>734.8</ele>
        <time>2019-05-31T09:04:43Z</time>
      </trkpt>
      <trkpt lat="44.08021" lon="3.07346">
        <ele>734.9</ele>
        <time>2019-05-31T09:04:45Z</time>
      </trkpt>
      <trkpt lat="44.08024" lon="3.07348">
        <ele>734.9</ele>
        <time>2019-05-31T09:04:47Z</time>
      </trkpt>
      <trkpt lat="44.08028" lon="3.07351">
        <ele>734.9</ele>
        <time>2019-05-31T09:04:49Z</time>
      </trkpt>
      <trkpt lat="44.08031" lon="3.07353">
        <ele>734.9</ele>
        <time>2019-05-31T09:04:51Z</time>
      </trkpt>
      <trkpt lat="44.08034" lon="3.07356">
        <ele>735</ele>
        <time>2019-05-31T09:04:52Z</time>
      </trkpt>
      <trkpt lat="44.08036" lon="3.07358">
        <ele>735</ele>
        <time>2019-05-31T09:04:53Z</time>
      </trkpt>
      <trkpt lat="44.0804" lon="3.07362">
        <ele>735</ele>
        <time>2019-05-31T09:04:55Z</time>
      </trkpt>
      <trkpt lat="44.08042" lon="3.07365">
        <ele>735</ele>
        <time>2019-05-31T09:04:56Z</time>
      </trkpt>
      <trkpt lat="44.08045" lon="3.0737">
        <ele>734.9</ele>
        <time>2019-05-31T09:04:58Z</time>
      </trkpt>
      <trkpt lat="44.08049" lon="3.07375">
        <ele>734.9</ele>
        <time>2019-05-31T09:05:00Z</time>
      </trkpt>
      <trkpt lat="44.08051" lon="3.07378">
        <ele>734.9</ele>
        <time>2019-05-31T09:05:01Z</time>
      </trkpt>
      <trkpt lat="44.08053" lon="3.07383">
        <ele>734.8</ele>
        <time>2019-05-31T09:05:02Z</time>
      </trkpt>
      <trkpt lat="44.08054" lon="3.07388">
        <ele>734.8</ele>
        <time>2019-05-31T09:05:03Z</time>
      </trkpt>
      <trkpt lat="44.08056" lon="3.07393">
        <ele>734.7</ele>
        <time>2019-05-31T09:05:04Z</time>
      </trkpt>
      <trkpt lat="44.08057" lon="3.07398">
        <ele>734.6</ele>
        <time>2019-05-31T09:05:05Z</time>
      </trkpt>
      <trkpt lat="44.08058" lon="3.07402">
        <ele>734.6</ele>
        <time>2019-05-31T09:05:06Z</time>
      </trkpt>
      <trkpt lat="44.0806" lon="3.07406">
        <ele>734.6</ele>
        <time>2019-05-31T09:05:07Z</time>
      </trkpt>
      <trkpt lat="44.08063" lon="3.07411">
        <ele>734.5</ele>
        <time>2019-05-31T09:05:08Z</time>
      </trkpt>
      <trkpt lat="44.08065" lon="3.07415">
        <ele>734.5</ele>
        <time>2019-05-31T09:05:09Z</time>
      </trkpt>
      <trkpt lat="44.08067" lon="3.07419">
        <ele>734.5</ele>
        <time>2019-05-31T09:05:10Z</time>
      </trkpt>
      <trkpt lat="44.08069" lon="3.07424">
        <ele>734.6</ele>
        <time>2019-05-31T09:05:11Z</time>
      </trkpt>
      <trkpt lat="44.0807" lon="3.0743">
        <ele>734.7</ele>
        <time>2019-05-31T09:05:12Z</time>
      </trkpt>
      <trkpt lat="44.08068" lon="3.07437">
        <ele>734.8</ele>
        <time>2019-05-31T09:05:13Z</time>
      </trkpt>
      <trkpt lat="44.0807" lon="3.07443">
        <ele>735</ele>
        <time>2019-05-31T09:05:14Z</time>
      </trkpt>
      <trkpt lat="44.08073" lon="3.07449">
        <ele>735.2</ele>
        <time>2019-05-31T09:05:15Z</time>
      </trkpt>
      <trkpt lat="44.08075" lon="3.07457">
        <ele>735.8</ele>
        <time>2019-05-31T09:05:16Z</time>
      </trkpt>
      <trkpt lat="44.08077" lon="3.07464">
        <ele>736.4</ele>
        <time>2019-05-31T09:05:17Z</time>
      </trkpt>
      <trkpt lat="44.08079" lon="3.07471">
        <ele>737.1</ele>
        <time>2019-05-31T09:05:18Z</time>
      </trkpt>
      <trkpt lat="44.0808" lon="3.07475">
        <ele>737.5</ele>
        <time>2019-05-31T09:05:19Z</time>
      </trkpt>
      <trkpt lat="44.08083" lon="3.0748">
        <ele>737.9</ele>
        <time>2019-05-31T09:05:20Z</time>
      </trkpt>
      <trkpt lat="44.08085" lon="3.07486">
        <ele>738.5</ele>
        <time>2019-05-31T09:05:22Z</time>
      </trkpt>
      <trkpt lat="44.08086" lon="3.07491">
        <ele>738.8</ele>
        <time>2019-05-31T09:05:23Z</time>
      </trkpt>
      <trkpt lat="44.08087" lon="3.07498">
        <ele>739.3</ele>
        <time>2019-05-31T09:05:25Z</time>
      </trkpt>
      <trkpt lat="44.08088" lon="3.07502">
        <ele>739.6</ele>
        <time>2019-05-31T09:05:26Z</time>
      </trkpt>
      <trkpt lat="44.0809" lon="3.07507">
        <ele>739.9</ele>
        <time>2019-05-31T09:05:27Z</time>
      </trkpt>
      <trkpt lat="44.08089" lon="3.07514">
        <ele>740.4</ele>
        <time>2019-05-31T09:05:29Z</time>
      </trkpt>
      <trkpt lat="44.0809" lon="3.0752">
        <ele>740.8</ele>
        <time>2019-05-31T09:05:31Z</time>
      </trkpt>
      <trkpt lat="44.08091" lon="3.07524">
        <ele>741.1</ele>
        <time>2019-05-31T09:05:32Z</time>
      </trkpt>
      <trkpt lat="44.08092" lon="3.07527">
        <ele>741.4</ele>
        <time>2019-05-31T09:05:33Z</time>
      </trkpt>
      <trkpt lat="44.08095" lon="3.07533">
        <ele>741.7</ele>
        <time>2019-05-31T09:05:35Z</time>
      </trkpt>
      <trkpt lat="44.08097" lon="3.07536">
        <ele>741.9</ele>
        <time>2019-05-31T09:05:36Z</time>
      </trkpt>
      <trkpt lat="44.081" lon="3.07541">
        <ele>742.3</ele>
        <time>2019-05-31T09:05:38Z</time>
      </trkpt>
      <trkpt lat="44.08102" lon="3.07544">
        <ele>742.5</ele>
        <time>2019-05-31T09:05:39Z</time>
      </trkpt>
      <trkpt lat="44.08103" lon="3.07551">
        <ele>742.8</ele>
        <time>2019-05-31T09:05:41Z</time>
      </trkpt>
      <trkpt lat="44.08105" lon="3.07558">
        <ele>743.1</ele>
        <time>2019-05-31T09:05:43Z</time>
      </trkpt>
      <trkpt lat="44.08105" lon="3.07562">
        <ele>743.3</ele>
        <time>2019-05-31T09:05:44Z</time>
      </trkpt>
      <trkpt lat="44.08105" lon="3.07568">
        <ele>743.6</ele>
        <time>2019-05-31T09:05:46Z</time>
      </trkpt>
      <trkpt lat="44.08106" lon="3.07572">
        <ele>743.7</ele>
        <time>2019-05-31T09:05:47Z</time>
      </trkpt>
      <trkpt lat="44.08106" lon="3.07578">
        <ele>744</ele>
        <time>2019-05-31T09:05:49Z</time>
      </trkpt>
      <trkpt lat="44.08108" lon="3.07585">
        <ele>744.5</ele>
        <time>2019-05-31T09:05:51Z</time>
      </trkpt>
      <trkpt lat="44.0811" lon="3.07591">
        <ele>745.1</ele>
        <time>2019-05-31T09:05:53Z</time>
      </trkpt>
      <trkpt lat="44.08112" lon="3.07596">
        <ele>745.6</ele>
        <time>2019-05-31T09:05:55Z</time>
      </trkpt>
      <trkpt lat="44.08114" lon="3.07603">
        <ele>746.1</ele>
        <time>2019-05-31T09:05:57Z</time>
      </trkpt>
      <trkpt lat="44.08115" lon="3.07607">
        <ele>746.4</ele>
        <time>2019-05-31T09:05:58Z</time>
      </trkpt>
      <trkpt lat="44.08115" lon="3.07612">
        <ele>746.8</ele>
        <time>2019-05-31T09:06:00Z</time>
      </trkpt>
      <trkpt lat="44.08115" lon="3.07617">
        <ele>747.1</ele>
        <time>2019-05-31T09:06:02Z</time>
      </trkpt>
      <trkpt lat="44.08116" lon="3.07621">
        <ele>747.7</ele>
        <time>2019-05-31T09:06:04Z</time>
      </trkpt>
      <trkpt lat="44.08118" lon="3.07624">
        <ele>748.4</ele>
        <time>2019-05-31T09:06:06Z</time>
      </trkpt>
      <trkpt lat="44.0812" lon="3.07628">
        <ele>748.9</ele>
        <time>2019-05-31T09:06:08Z</time>
      </trkpt>
      <trkpt lat="44.0812" lon="3.07633">
        <ele>749.8</ele>
        <time>2019-05-31T09:06:10Z</time>
      </trkpt>
      <trkpt lat="44.08119" lon="3.07639">
        <ele>750.6</ele>
        <time>2019-05-31T09:06:12Z</time>
      </trkpt>
      <trkpt lat="44.0812" lon="3.07646">
        <ele>751.4</ele>
        <time>2019-05-31T09:06:14Z</time>
      </trkpt>
      <trkpt lat="44.08122" lon="3.07651">
        <ele>752</ele>
        <time>2019-05-31T09:06:16Z</time>
      </trkpt>
      <trkpt lat="44.08123" lon="3.07654">
        <ele>752.4</ele>
        <time>2019-05-31T09:06:18Z</time>
      </trkpt>
      <trkpt lat="44.08126" lon="3.07658">
        <ele>752.9</ele>
        <time>2019-05-31T09:06:20Z</time>
      </trkpt>
      <trkpt lat="44.08129" lon="3.07662">
        <ele>753.4</ele>
        <time>2019-05-31T09:06:22Z</time>
      </trkpt>
      <trkpt lat="44.08132" lon="3.07668">
        <ele>753.8</ele>
        <time>2019-05-31T09:06:24Z</time>
      </trkpt>
      <trkpt lat="44.08133" lon="3.07673">
        <ele>754.2</ele>
        <time>2019-05-31T09:06:26Z</time>
      </trkpt>
      <trkpt lat="44.08134" lon="3.07679">
        <ele>754.6</ele>
        <time>2019-05-31T09:06:28Z</time>
      </trkpt>
      <trkpt lat="44.08136" lon="3.07684">
        <ele>754.9</ele>
        <time>2019-05-31T09:06:30Z</time>
      </trkpt>
      <trkpt lat="44.08138" lon="3.07689">
        <ele>755.2</ele>
        <time>2019-05-31T09:06:32Z</time>
      </trkpt>
      <trkpt lat="44.08139" lon="3.07695">
        <ele>755.6</ele>
        <time>2019-05-31T09:06:34Z</time>
      </trkpt>
      <trkpt lat="44.0814" lon="3.077">
        <ele>755.9</ele>
        <time>2019-05-31T09:06:36Z</time>
      </trkpt>
      <trkpt lat="44.08141" lon="3.07706">
        <ele>756.3</ele>
        <time>2019-05-31T09:06:38Z</time>
      </trkpt>
      <trkpt lat="44.08142" lon="3.07711">
        <ele>756.5</ele>
        <time>2019-05-31T09:06:40Z</time>
      </trkpt>
      <trkpt lat="44.08144" lon="3.07716">
        <ele>756.8</ele>
        <time>2019-05-31T09:06:42Z</time>
      </trkpt>
      <trkpt lat="44.08145" lon="3.0772">
        <ele>757.1</ele>
        <time>2019-05-31T09:06:44Z</time>
      </trkpt>
      <trkpt lat="44.08146" lon="3.07725">
        <ele>757.3</ele>
        <time>2019-05-31T09:06:46Z</time>
      </trkpt>
      <trkpt lat="44.08149" lon="3.07729">
        <ele>757.6</ele>
        <time>2019-05-31T09:06:48Z</time>
      </trkpt>
      <trkpt lat="44.08152" lon="3.07732">
        <ele>757.8</ele>
        <time>2019-05-31T09:06:50Z</time>
      </trkpt>
      <trkpt lat="44.08155" lon="3.07736">
        <ele>758.1</ele>
        <time>2019-05-31T09:06:52Z</time>
      </trkpt>
      <trkpt lat="44.08157" lon="3.07742">
        <ele>758.3</ele>
        <time>2019-05-31T09:06:54Z</time>
      </trkpt>
      <trkpt lat="44.0816" lon="3.07748">
        <ele>758.6</ele>
        <time>2019-05-31T09:06:56Z</time>
      </trkpt>
      <trkpt lat="44.08161" lon="3.07753">
        <ele>758.9</ele>
        <time>2019-05-31T09:06:58Z</time>
      </trkpt>
      <trkpt lat="44.08162" lon="3.07759">
        <ele>759.2</ele>
        <time>2019-05-31T09:07:00Z</time>
      </trkpt>
      <trkpt lat="44.08163" lon="3.07764">
        <ele>759.5</ele>
        <time>2019-05-31T09:07:02Z</time>
      </trkpt>
      <trkpt lat="44.08164" lon="3.07768">
        <ele>759.7</ele>
        <time>2019-05-31T09:07:04Z</time>
      </trkpt>
      <trkpt lat="44.08164" lon="3.07773">
        <ele>759.9</ele>
        <time>2019-05-31T09:07:06Z</time>
      </trkpt>
      <trkpt lat="44.08165" lon="3.07778">
        <ele>760.1</ele>
        <time>2019-05-31T09:07:08Z</time>
      </trkpt>
      <trkpt lat="44.08166" lon="3.07784">
        <ele>760.5</ele>
        <time>2019-05-31T09:07:10Z</time>
      </trkpt>
      <trkpt lat="44.08167" lon="3.0779">
        <ele>760.8</ele>
        <time>2019-05-31T09:07:12Z</time>
      </trkpt>
      <trkpt lat="44.08169" lon="3.07795">
        <ele>761.1</ele>
        <time>2019-05-31T09:07:14Z</time>
      </trkpt>
      <trkpt lat="44.08172" lon="3.078">
        <ele>761.4</ele>
        <time>2019-05-31T09:07:16Z</time>
      </trkpt>
      <trkpt lat="44.08174" lon="3.07803">
        <ele>761.7</ele>
        <time>2019-05-31T09:07:18Z</time>
      </trkpt>
      <trkpt lat="44.08177" lon="3.07807">
        <ele>762.1</ele>
        <time>2019-05-31T09:07:20Z</time>
      </trkpt>
      <trkpt lat="44.08179" lon="3.07811">
        <ele>762.3</ele>
        <time>2019-05-31T09:07:22Z</time>
      </trkpt>
      <trkpt lat="44.08182" lon="3.07816">
        <ele>762.5</ele>
        <time>2019-05-31T09:07:24Z</time>
      </trkpt>
      <trkpt lat="44.08184" lon="3.07821">
        <ele>762.7</ele>
        <time>2019-05-31T09:07:26Z</time>
      </trkpt>
      <trkpt lat="44.08185" lon="3.07825">
        <ele>762.9</ele>
        <time>2019-05-31T09:07:28Z</time>
      </trkpt>
      <trkpt lat="44.08187" lon="3.07831">
        <ele>763.1</ele>
        <time>2019-05-31T09:07:30Z</time>
      </trkpt>
      <trkpt lat="44.08189" lon="3.07836">
        <ele>763.4</ele>
        <time>2019-05-31T09:07:32Z</time>
      </trkpt>
      <trkpt lat="44.08192" lon="3.07842">
        <ele>763.5</ele>
        <time>2019-05-31T09:07:34Z</time>
      </trkpt>
      <trkpt lat="44.08194" lon="3.07845">
        <ele>763.6</ele>
        <time>2019-05-31T09:07:35Z</time>
      </trkpt>
      <trkpt lat="44.08195" lon="3.07849">
        <ele>763.7</ele>
        <time>2019-05-31T09:07:36Z</time>
      </trkpt>
      <trkpt lat="44.08197" lon="3.07853">
        <ele>763.8</ele>
        <time>2019-05-31T09:07:37Z</time>
      </trkpt>
      <trkpt lat="44.08199" lon="3.07856">
        <ele>763.9</ele>
        <time>2019-05-31T09:07:38Z</time>
      </trkpt>
      <trkpt lat="44.08202" lon="3.07862">
        <ele>764.1</ele>
        <time>2019-05-31T09:07:40Z</time>
      </trkpt>
      <trkpt lat="44.08204" lon="3.07868">
        <ele>764.2</ele>
        <time>2019-05-31T09:07:42Z</time>
      </trkpt>
      <trkpt lat="44.08207" lon="3.07875">
        <ele>764.4</ele>
        <time>2019-05-31T09:07:44Z</time>
      </trkpt>
      <trkpt lat="44.08209" lon="3.07881">
        <ele>764.5</ele>
        <time>2019-05-31T09:07:46Z</time>
      </trkpt>
      <trkpt lat="44.0821" lon="3.07884">
        <ele>764.6</ele>
        <time>2019-05-31T09:07:47Z</time>
      </trkpt>
      <trkpt lat="44.08213" lon="3.07891">
        <ele>764.7</ele>
        <time>2019-05-31T09:07:49Z</time>
      </trkpt>
      <trkpt lat="44.08214" lon="3.07895">
        <ele>764.8</ele>
        <time>2019-05-31T09:07:50Z</time>
      </trkpt>
      <trkpt lat="44.08216" lon="3.07902">
        <ele>764.9</ele>
        <time>2019-05-31T09:07:52Z</time>
      </trkpt>
      <trkpt lat="44.08217" lon="3.07906">
        <ele>765</ele>
        <time>2019-05-31T09:07:53Z</time>
      </trkpt>
      <trkpt lat="44.08219" lon="3.07909">
        <ele>765.1</ele>
        <time>2019-05-31T09:07:54Z</time>
      </trkpt>
      <trkpt lat="44.0822" lon="3.07913">
        <ele>765.3</ele>
        <time>2019-05-31T09:07:55Z</time>
      </trkpt>
      <trkpt lat="44.08222" lon="3.07917">
        <ele>765.7</ele>
        <time>2019-05-31T09:07:56Z</time>
      </trkpt>
      <trkpt lat="44.08224" lon="3.07921">
        <ele>766.1</ele>
        <time>2019-05-31T09:07:57Z</time>
      </trkpt>
      <trkpt lat="44.08225" lon="3.07925">
        <ele>766.5</ele>
        <time>2019-05-31T09:07:58Z</time>
      </trkpt>
      <trkpt lat="44.08225" lon="3.07929">
        <ele>766.8</ele>
        <time>2019-05-31T09:07:59Z</time>
      </trkpt>
      <trkpt lat="44.08226" lon="3.07934">
        <ele>767.2</ele>
        <time>2019-05-31T09:08:00Z</time>
      </trkpt>
      <trkpt lat="44.08226" lon="3.07938">
        <ele>767.6</ele>
        <time>2019-05-31T09:08:01Z</time>
      </trkpt>
      <trkpt lat="44.08227" lon="3.07942">
        <ele>767.9</ele>
        <time>2019-05-31T09:08:02Z</time>
      </trkpt>
      <trkpt lat="44.08227" lon="3.07946">
        <ele>768.2</ele>
        <time>2019-05-31T09:08:03Z</time>
      </trkpt>
      <trkpt lat="44.08226" lon="3.0795">
        <ele>768.5</ele>
        <time>2019-05-31T09:08:04Z</time>
      </trkpt>
      <trkpt lat="44.08225" lon="3.07956">
        <ele>768.9</ele>
        <time>2019-05-31T09:08:06Z</time>
      </trkpt>
      <trkpt lat="44.08225" lon="3.07962">
        <ele>769.3</ele>
        <time>2019-05-31T09:08:08Z</time>
      </trkpt>
      <trkpt lat="44.08221" lon="3.07966">
        <ele>769.7</ele>
        <time>2019-05-31T09:08:11Z</time>
      </trkpt>
      <trkpt lat="44.08218" lon="3.07968">
        <ele>770.1</ele>
        <time>2019-05-31T09:08:13Z</time>
      </trkpt>
      <trkpt lat="44.08215" lon="3.07973">
        <ele>770.5</ele>
        <time>2019-05-31T09:08:15Z</time>
      </trkpt>
      <trkpt lat="44.08216" lon="3.07979">
        <ele>770.9</ele>
        <time>2019-05-31T09:08:17Z</time>
      </trkpt>
      <trkpt lat="44.08217" lon="3.07984">
        <ele>771.2</ele>
        <time>2019-05-31T09:08:18Z</time>
      </trkpt>
      <trkpt lat="44.08217" lon="3.07989">
        <ele>771.4</ele>
        <time>2019-05-31T09:08:19Z</time>
      </trkpt>
      <trkpt lat="44.08218" lon="3.07993">
        <ele>771.7</ele>
        <time>2019-05-31T09:08:20Z</time>
      </trkpt>
      <trkpt lat="44.08218" lon="3.07997">
        <ele>771.9</ele>
        <time>2019-05-31T09:08:21Z</time>
      </trkpt>
      <trkpt lat="44.08219" lon="3.08003">
        <ele>772.3</ele>
        <time>2019-05-31T09:08:22Z</time>
      </trkpt>
      <trkpt lat="44.08219" lon="3.08008">
        <ele>772.6</ele>
        <time>2019-05-31T09:08:23Z</time>
      </trkpt>
      <trkpt lat="44.08219" lon="3.08012">
        <ele>772.9</ele>
        <time>2019-05-31T09:08:24Z</time>
      </trkpt>
      <trkpt lat="44.08218" lon="3.08016">
        <ele>773.2</ele>
        <time>2019-05-31T09:08:25Z</time>
      </trkpt>
      <trkpt lat="44.08217" lon="3.0802">
        <ele>773.6</ele>
        <time>2019-05-31T09:08:26Z</time>
      </trkpt>
      <trkpt lat="44.08216" lon="3.08027">
        <ele>774.2</ele>
        <time>2019-05-31T09:08:28Z</time>
      </trkpt>
      <trkpt lat="44.08215" lon="3.08031">
        <ele>774.6</ele>
        <time>2019-05-31T09:08:29Z</time>
      </trkpt>
      <trkpt lat="44.08215" lon="3.08037">
        <ele>775.4</ele>
        <time>2019-05-31T09:08:31Z</time>
      </trkpt>
      <trkpt lat="44.08216" lon="3.08041">
        <ele>775.9</ele>
        <time>2019-05-31T09:08:32Z</time>
      </trkpt>
      <trkpt lat="44.08216" lon="3.08046">
        <ele>776.5</ele>
        <time>2019-05-31T09:08:33Z</time>
      </trkpt>
      <trkpt lat="44.08217" lon="3.08052">
        <ele>777.5</ele>
        <time>2019-05-31T09:08:35Z</time>
      </trkpt>
      <trkpt lat="44.08217" lon="3.08059">
        <ele>778.5</ele>
        <time>2019-05-31T09:08:37Z</time>
      </trkpt>
      <trkpt lat="44.08216" lon="3.08065">
        <ele>779.5</ele>
        <time>2019-05-31T09:08:39Z</time>
      </trkpt>
      <trkpt lat="44.08212" lon="3.08068">
        <ele>780.2</ele>
        <time>2019-05-31T09:08:41Z</time>
      </trkpt>
      <trkpt lat="44.08209" lon="3.08071">
        <ele>780.8</ele>
        <time>2019-05-31T09:08:43Z</time>
      </trkpt>
      <trkpt lat="44.08206" lon="3.08077">
        <ele>781.6</ele>
        <time>2019-05-31T09:08:45Z</time>
      </trkpt>
      <trkpt lat="44.08205" lon="3.08081">
        <ele>782</ele>
        <time>2019-05-31T09:08:47Z</time>
      </trkpt>
      <trkpt lat="44.08203" lon="3.08086">
        <ele>782.7</ele>
        <time>2019-05-31T09:08:50Z</time>
      </trkpt>
      <trkpt lat="44.082" lon="3.08088">
        <ele>783.2</ele>
        <time>2019-05-31T09:08:52Z</time>
      </trkpt>
      <trkpt lat="44.08198" lon="3.0809">
        <ele>783.7</ele>
        <time>2019-05-31T09:08:53Z</time>
      </trkpt>
      <trkpt lat="44.08194" lon="3.08093">
        <ele>784.4</ele>
        <time>2019-05-31T09:08:55Z</time>
      </trkpt>
      <trkpt lat="44.0819" lon="3.08096">
        <ele>785</ele>
        <time>2019-05-31T09:08:57Z</time>
      </trkpt>
      <trkpt lat="44.08187" lon="3.081">
        <ele>785.7</ele>
        <time>2019-05-31T09:08:59Z</time>
      </trkpt>
      <trkpt lat="44.08184" lon="3.08106">
        <ele>786.3</ele>
        <time>2019-05-31T09:09:01Z</time>
      </trkpt>
      <trkpt lat="44.08184" lon="3.08109">
        <ele>787.3</ele>
        <time>2019-05-31T09:09:02Z</time>
      </trkpt>
      <trkpt lat="44.08184" lon="3.08114">
        <ele>787.6</ele>
        <time>2019-05-31T09:09:03Z</time>
      </trkpt>
      <trkpt lat="44.08184" lon="3.08118">
        <ele>787.8</ele>
        <time>2019-05-31T09:09:04Z</time>
      </trkpt>
      <trkpt lat="44.08184" lon="3.08122">
        <ele>788.1</ele>
        <time>2019-05-31T09:09:05Z</time>
      </trkpt>
      <trkpt lat="44.08182" lon="3.08129">
        <ele>788.5</ele>
        <time>2019-05-31T09:09:07Z</time>
      </trkpt>
      <trkpt lat="44.0818" lon="3.08132">
        <ele>788.7</ele>
        <time>2019-05-31T09:09:08Z</time>
      </trkpt>
      <trkpt lat="44.08176" lon="3.08137">
        <ele>789.2</ele>
        <time>2019-05-31T09:09:10Z</time>
      </trkpt>
      <trkpt lat="44.08175" lon="3.08141">
        <ele>789.4</ele>
        <time>2019-05-31T09:09:11Z</time>
      </trkpt>
      <trkpt lat="44.08174" lon="3.08145">
        <ele>789.6</ele>
        <time>2019-05-31T09:09:12Z</time>
      </trkpt>
      <trkpt lat="44.08174" lon="3.0815">
        <ele>789.8</ele>
        <time>2019-05-31T09:09:13Z</time>
      </trkpt>
      <trkpt lat="44.08174" lon="3.08154">
        <ele>790</ele>
        <time>2019-05-31T09:09:14Z</time>
      </trkpt>
      <trkpt lat="44.08175" lon="3.08158">
        <ele>790.1</ele>
        <time>2019-05-31T09:09:15Z</time>
      </trkpt>
      <trkpt lat="44.08177" lon="3.08165">
        <ele>790.3</ele>
        <time>2019-05-31T09:09:17Z</time>
      </trkpt>
      <trkpt lat="44.08178" lon="3.08169">
        <ele>790.4</ele>
        <time>2019-05-31T09:09:18Z</time>
      </trkpt>
      <trkpt lat="44.08179" lon="3.08173">
        <ele>790.5</ele>
        <time>2019-05-31T09:09:19Z</time>
      </trkpt>
      <trkpt lat="44.08179" lon="3.08179">
        <ele>790.7</ele>
        <time>2019-05-31T09:09:21Z</time>
      </trkpt>
      <trkpt lat="44.08178" lon="3.08183">
        <ele>790.8</ele>
        <time>2019-05-31T09:09:22Z</time>
      </trkpt>
      <trkpt lat="44.08175" lon="3.08189">
        <ele>791</ele>
        <time>2019-05-31T09:09:24Z</time>
      </trkpt>
      <trkpt lat="44.08174" lon="3.08195">
        <ele>791.1</ele>
        <time>2019-05-31T09:09:26Z</time>
      </trkpt>
      <trkpt lat="44.08175" lon="3.082">
        <ele>791.2</ele>
        <time>2019-05-31T09:09:28Z</time>
      </trkpt>
      <trkpt lat="44.08175" lon="3.08206">
        <ele>791.4</ele>
        <time>2019-05-31T09:09:30Z</time>
      </trkpt>
      <trkpt lat="44.08176" lon="3.08212">
        <ele>791.4</ele>
        <time>2019-05-31T09:09:32Z</time>
      </trkpt>
      <trkpt lat="44.08176" lon="3.08217">
        <ele>791.5</ele>
        <time>2019-05-31T09:09:34Z</time>
      </trkpt>
      <trkpt lat="44.08176" lon="3.08221">
        <ele>791.5</ele>
        <time>2019-05-31T09:09:36Z</time>
      </trkpt>
      <trkpt lat="44.08177" lon="3.08225">
        <ele>791.6</ele>
        <time>2019-05-31T09:09:38Z</time>
      </trkpt>
      <trkpt lat="44.08176" lon="3.08222">
        <ele>791.6</ele>
        <time>2019-05-31T09:09:47Z</time>
      </trkpt>
      <trkpt lat="44.08174" lon="3.08226">
        <ele>791.7</ele>
        <time>2019-05-31T09:10:05Z</time>
      </trkpt>
      <trkpt lat="44.08171" lon="3.08232">
        <ele>791.8</ele>
        <time>2019-05-31T09:10:07Z</time>
      </trkpt>
      <trkpt lat="44.08168" lon="3.08237">
        <ele>791.8</ele>
        <time>2019-05-31T09:10:09Z</time>
      </trkpt>
      <trkpt lat="44.08165" lon="3.0824">
        <ele>791.8</ele>
        <time>2019-05-31T09:10:10Z</time>
      </trkpt>
      <trkpt lat="44.08163" lon="3.08242">
        <ele>791.9</ele>
        <time>2019-05-31T09:10:11Z</time>
      </trkpt>
      <trkpt lat="44.0816" lon="3.08244">
        <ele>791.9</ele>
        <time>2019-05-31T09:10:12Z</time>
      </trkpt>
      <trkpt lat="44.08156" lon="3.08244">
        <ele>791.9</ele>
        <time>2019-05-31T09:10:13Z</time>
      </trkpt>
      <trkpt lat="44.08153" lon="3.08246">
        <ele>791.9</ele>
        <time>2019-05-31T09:10:14Z</time>
      </trkpt>
      <trkpt lat="44.0815" lon="3.08249">
        <ele>791.8</ele>
        <time>2019-05-31T09:10:15Z</time>
      </trkpt>
      <trkpt lat="44.08148" lon="3.08254">
        <ele>791.8</ele>
        <time>2019-05-31T09:10:16Z</time>
      </trkpt>
      <trkpt lat="44.08148" lon="3.0827">
        <ele>791.7</ele>
        <time>2019-05-31T09:10:17Z</time>
      </trkpt>
      <trkpt lat="44.08147" lon="3.08283">
        <ele>791.6</ele>
        <time>2019-05-31T09:10:18Z</time>
      </trkpt>
      <trkpt lat="44.08146" lon="3.0829">
        <ele>791.5</ele>
        <time>2019-05-31T09:10:19Z</time>
      </trkpt>
      <trkpt lat="44.08144" lon="3.08298">
        <ele>791.4</ele>
        <time>2019-05-31T09:10:20Z</time>
      </trkpt>
      <trkpt lat="44.0814" lon="3.08305">
        <ele>791.3</ele>
        <time>2019-05-31T09:10:21Z</time>
      </trkpt>
      <trkpt lat="44.08137" lon="3.08315">
        <ele>791.1</ele>
        <time>2019-05-31T09:10:22Z</time>
      </trkpt>
      <trkpt lat="44.08132" lon="3.08321">
        <ele>791</ele>
        <time>2019-05-31T09:10:23Z</time>
      </trkpt>
      <trkpt lat="44.08128" lon="3.08329">
        <ele>790.9</ele>
        <time>2019-05-31T09:10:24Z</time>
      </trkpt>
      <trkpt lat="44.08123" lon="3.08336">
        <ele>790.4</ele>
        <time>2019-05-31T09:10:25Z</time>
      </trkpt>
      <trkpt lat="44.08118" lon="3.08351">
        <ele>789.8</ele>
        <time>2019-05-31T09:10:26Z</time>
      </trkpt>
      <trkpt lat="44.08115" lon="3.08358">
        <ele>789.5</ele>
        <time>2019-05-31T09:10:27Z</time>
      </trkpt>
      <trkpt lat="44.08111" lon="3.08363">
        <ele>789.1</ele>
        <time>2019-05-31T09:10:28Z</time>
      </trkpt>
      <trkpt lat="44.08107" lon="3.08369">
        <ele>788.8</ele>
        <time>2019-05-31T09:10:29Z</time>
      </trkpt>
      <trkpt lat="44.08104" lon="3.08375">
        <ele>788.4</ele>
        <time>2019-05-31T09:10:30Z</time>
      </trkpt>
      <trkpt lat="44.081" lon="3.08385">
        <ele>787.9</ele>
        <time>2019-05-31T09:10:31Z</time>
      </trkpt>
      <trkpt lat="44.08098" lon="3.08394">
        <ele>787.4</ele>
        <time>2019-05-31T09:10:32Z</time>
      </trkpt>
      <trkpt lat="44.08095" lon="3.08405">
        <ele>786.9</ele>
        <time>2019-05-31T09:10:33Z</time>
      </trkpt>
      <trkpt lat="44.08093" lon="3.08415">
        <ele>786.4</ele>
        <time>2019-05-31T09:10:34Z</time>
      </trkpt>
      <trkpt lat="44.08088" lon="3.08422">
        <ele>786</ele>
        <time>2019-05-31T09:10:35Z</time>
      </trkpt>
      <trkpt lat="44.08083" lon="3.08428">
        <ele>785.6</ele>
        <time>2019-05-31T09:10:36Z</time>
      </trkpt>
      <trkpt lat="44.08081" lon="3.08436">
        <ele>785.3</ele>
        <time>2019-05-31T09:10:37Z</time>
      </trkpt>
      <trkpt lat="44.08077" lon="3.08445">
        <ele>784.9</ele>
        <time>2019-05-31T09:10:38Z</time>
      </trkpt>
      <trkpt lat="44.08074" lon="3.08454">
        <ele>784.5</ele>
        <time>2019-05-31T09:10:39Z</time>
      </trkpt>
      <trkpt lat="44.08069" lon="3.08461">
        <ele>784.2</ele>
        <time>2019-05-31T09:10:40Z</time>
      </trkpt>
      <trkpt lat="44.08067" lon="3.08469">
        <ele>784</ele>
        <time>2019-05-31T09:10:41Z</time>
      </trkpt>
      <trkpt lat="44.08065" lon="3.08477">
        <ele>783.7</ele>
        <time>2019-05-31T09:10:42Z</time>
      </trkpt>
      <trkpt lat="44.08062" lon="3.08485">
        <ele>783.5</ele>
        <time>2019-05-31T09:10:43Z</time>
      </trkpt>
      <trkpt lat="44.08061" lon="3.08493">
        <ele>783.2</ele>
        <time>2019-05-31T09:10:44Z</time>
      </trkpt>
      <trkpt lat="44.08062" lon="3.08502">
        <ele>783</ele>
        <time>2019-05-31T09:10:45Z</time>
      </trkpt>
      <trkpt lat="44.08061" lon="3.08512">
        <ele>782.9</ele>
        <time>2019-05-31T09:10:46Z</time>
      </trkpt>
      <trkpt lat="44.0806" lon="3.08521">
        <ele>782.7</ele>
        <time>2019-05-31T09:10:47Z</time>
      </trkpt>
      <trkpt lat="44.08059" lon="3.08533">
        <ele>782.5</ele>
        <time>2019-05-31T09:10:48Z</time>
      </trkpt>
      <trkpt lat="44.08059" lon="3.08545">
        <ele>782.1</ele>
        <time>2019-05-31T09:10:49Z</time>
      </trkpt>
      <trkpt lat="44.08058" lon="3.08557">
        <ele>781.8</ele>
        <time>2019-05-31T09:10:50Z</time>
      </trkpt>
      <trkpt lat="44.08058" lon="3.08567">
        <ele>781.5</ele>
        <time>2019-05-31T09:10:51Z</time>
      </trkpt>
      <trkpt lat="44.08059" lon="3.08576">
        <ele>781.2</ele>
        <time>2019-05-31T09:10:52Z</time>
      </trkpt>
      <trkpt lat="44.08061" lon="3.08583">
        <ele>780.9</ele>
        <time>2019-05-31T09:10:53Z</time>
      </trkpt>
      <trkpt lat="44.08062" lon="3.08592">
        <ele>780.6</ele>
        <time>2019-05-31T09:10:54Z</time>
      </trkpt>
      <trkpt lat="44.08063" lon="3.08602">
        <ele>780.3</ele>
        <time>2019-05-31T09:10:55Z</time>
      </trkpt>
      <trkpt lat="44.08063" lon="3.08612">
        <ele>779.8</ele>
        <time>2019-05-31T09:10:56Z</time>
      </trkpt>
      <trkpt lat="44.08064" lon="3.08622">
        <ele>779.3</ele>
        <time>2019-05-31T09:10:57Z</time>
      </trkpt>
      <trkpt lat="44.08066" lon="3.08631">
        <ele>778.9</ele>
        <time>2019-05-31T09:10:58Z</time>
      </trkpt>
      <trkpt lat="44.08063" lon="3.0864">
        <ele>778.5</ele>
        <time>2019-05-31T09:10:59Z</time>
      </trkpt>
      <trkpt lat="44.08062" lon="3.0865">
        <ele>778</ele>
        <time>2019-05-31T09:11:00Z</time>
      </trkpt>
      <trkpt lat="44.08058" lon="3.08657">
        <ele>777.6</ele>
        <time>2019-05-31T09:11:01Z</time>
      </trkpt>
      <trkpt lat="44.08056" lon="3.08666">
        <ele>777.2</ele>
        <time>2019-05-31T09:11:02Z</time>
      </trkpt>
      <trkpt lat="44.08052" lon="3.08675">
        <ele>776.7</ele>
        <time>2019-05-31T09:11:03Z</time>
      </trkpt>
      <trkpt lat="44.0805" lon="3.08689">
        <ele>776</ele>
        <time>2019-05-31T09:11:04Z</time>
      </trkpt>
      <trkpt lat="44.08047" lon="3.08698">
        <ele>775.5</ele>
        <time>2019-05-31T09:11:05Z</time>
      </trkpt>
      <trkpt lat="44.08046" lon="3.08705">
        <ele>774.9</ele>
        <time>2019-05-31T09:11:06Z</time>
      </trkpt>
      <trkpt lat="44.08045" lon="3.08713">
        <ele>774.4</ele>
        <time>2019-05-31T09:11:07Z</time>
      </trkpt>
      <trkpt lat="44.08043" lon="3.0872">
        <ele>773.9</ele>
        <time>2019-05-31T09:11:08Z</time>
      </trkpt>
      <trkpt lat="44.0804" lon="3.08728">
        <ele>773.3</ele>
        <time>2019-05-31T09:11:09Z</time>
      </trkpt>
      <trkpt lat="44.08037" lon="3.08737">
        <ele>772.8</ele>
        <time>2019-05-31T09:11:10Z</time>
      </trkpt>
      <trkpt lat="44.08032" lon="3.08745">
        <ele>772.2</ele>
        <time>2019-05-31T09:11:11Z</time>
      </trkpt>
      <trkpt lat="44.08026" lon="3.08748">
        <ele>771.7</ele>
        <time>2019-05-31T09:11:12Z</time>
      </trkpt>
      <trkpt lat="44.08023" lon="3.08759">
        <ele>771</ele>
        <time>2019-05-31T09:11:13Z</time>
      </trkpt>
      <trkpt lat="44.0802" lon="3.08768">
        <ele>770.4</ele>
        <time>2019-05-31T09:11:14Z</time>
      </trkpt>
      <trkpt lat="44.08017" lon="3.08774">
        <ele>769.9</ele>
        <time>2019-05-31T09:11:15Z</time>
      </trkpt>
      <trkpt lat="44.08015" lon="3.08779">
        <ele>769.6</ele>
        <time>2019-05-31T09:11:16Z</time>
      </trkpt>
      <trkpt lat="44.08013" lon="3.08783">
        <ele>769.2</ele>
        <time>2019-05-31T09:11:17Z</time>
      </trkpt>
      <trkpt lat="44.08012" lon="3.08788">
        <ele>768.9</ele>
        <time>2019-05-31T09:11:18Z</time>
      </trkpt>
      <trkpt lat="44.08012" lon="3.08795">
        <ele>768.4</ele>
        <time>2019-05-31T09:11:19Z</time>
      </trkpt>
      <trkpt lat="44.08013" lon="3.08803">
        <ele>767.8</ele>
        <time>2019-05-31T09:11:20Z</time>
      </trkpt>
      <trkpt lat="44.08012" lon="3.08809">
        <ele>767.3</ele>
        <time>2019-05-31T09:11:21Z</time>
      </trkpt>
      <trkpt lat="44.08011" lon="3.08816">
        <ele>766.7</ele>
        <time>2019-05-31T09:11:22Z</time>
      </trkpt>
      <trkpt lat="44.08011" lon="3.08823">
        <ele>766.1</ele>
        <time>2019-05-31T09:11:23Z</time>
      </trkpt>
      <trkpt lat="44.0801" lon="3.08829">
        <ele>765.5</ele>
        <time>2019-05-31T09:11:24Z</time>
      </trkpt>
      <trkpt lat="44.0801" lon="3.08837">
        <ele>764.8</ele>
        <time>2019-05-31T09:11:25Z</time>
      </trkpt>
      <trkpt lat="44.08009" lon="3.08844">
        <ele>764.3</ele>
        <time>2019-05-31T09:11:26Z</time>
      </trkpt>
      <trkpt lat="44.0801" lon="3.0885">
        <ele>763.8</ele>
        <time>2019-05-31T09:11:27Z</time>
      </trkpt>
      <trkpt lat="44.0801" lon="3.08857">
        <ele>763.1</ele>
        <time>2019-05-31T09:11:28Z</time>
      </trkpt>
      <trkpt lat="44.08009" lon="3.08862">
        <ele>762.4</ele>
        <time>2019-05-31T09:11:29Z</time>
      </trkpt>
      <trkpt lat="44.08008" lon="3.08866">
        <ele>762</ele>
        <time>2019-05-31T09:11:30Z</time>
      </trkpt>
      <trkpt lat="44.08007" lon="3.0887">
        <ele>761.5</ele>
        <time>2019-05-31T09:11:34Z</time>
      </trkpt>
      <trkpt lat="44.08009" lon="3.08874">
        <ele>760.8</ele>
        <time>2019-05-31T09:11:36Z</time>
      </trkpt>
      <trkpt lat="44.08007" lon="3.08878">
        <ele>760.1</ele>
        <time>2019-05-31T09:12:01Z</time>
      </trkpt>
      <trkpt lat="44.08004" lon="3.08882">
        <ele>759</ele>
        <time>2019-05-31T09:12:03Z</time>
      </trkpt>
      <trkpt lat="44.07999" lon="3.08887">
        <ele>757.7</ele>
        <time>2019-05-31T09:12:05Z</time>
      </trkpt>
      <trkpt lat="44.07997" lon="3.0889">
        <ele>756.8</ele>
        <time>2019-05-31T09:12:06Z</time>
      </trkpt>
      <trkpt lat="44.07992" lon="3.08898">
        <ele>754.8</ele>
        <time>2019-05-31T09:12:07Z</time>
      </trkpt>
      <trkpt lat="44.07988" lon="3.08906">
        <ele>752.9</ele>
        <time>2019-05-31T09:12:08Z</time>
      </trkpt>
      <trkpt lat="44.07984" lon="3.08913">
        <ele>751.1</ele>
        <time>2019-05-31T09:12:09Z</time>
      </trkpt>
      <trkpt lat="44.0798" lon="3.08924">
        <ele>749.4</ele>
        <time>2019-05-31T09:12:10Z</time>
      </trkpt>
      <trkpt lat="44.07976" lon="3.08934">
        <ele>748.4</ele>
        <time>2019-05-31T09:12:11Z</time>
      </trkpt>
      <trkpt lat="44.07971" lon="3.08942">
        <ele>747.5</ele>
        <time>2019-05-31T09:12:12Z</time>
      </trkpt>
      <trkpt lat="44.07967" lon="3.08952">
        <ele>746.8</ele>
        <time>2019-05-31T09:12:13Z</time>
      </trkpt>
      <trkpt lat="44.07962" lon="3.08961">
        <ele>746.1</ele>
        <time>2019-05-31T09:12:14Z</time>
      </trkpt>
      <trkpt lat="44.07959" lon="3.08972">
        <ele>745.5</ele>
        <time>2019-05-31T09:12:15Z</time>
      </trkpt>
      <trkpt lat="44.07955" lon="3.08982">
        <ele>745</ele>
        <time>2019-05-31T09:12:16Z</time>
      </trkpt>
      <trkpt lat="44.07952" lon="3.08991">
        <ele>744.5</ele>
        <time>2019-05-31T09:12:17Z</time>
      </trkpt>
      <trkpt lat="44.07948" lon="3.09">
        <ele>743.9</ele>
        <time>2019-05-31T09:12:18Z</time>
      </trkpt>
      <trkpt lat="44.07945" lon="3.09011">
        <ele>743.4</ele>
        <time>2019-05-31T09:12:19Z</time>
      </trkpt>
      <trkpt lat="44.07942" lon="3.09026">
        <ele>742.5</ele>
        <time>2019-05-31T09:12:20Z</time>
      </trkpt>
      <trkpt lat="44.07938" lon="3.09037">
        <ele>741.9</ele>
        <time>2019-05-31T09:12:21Z</time>
      </trkpt>
      <trkpt lat="44.07934" lon="3.09046">
        <ele>741.2</ele>
        <time>2019-05-31T09:12:22Z</time>
      </trkpt>
      <trkpt lat="44.0793" lon="3.0906">
        <ele>740.6</ele>
        <time>2019-05-31T09:12:23Z</time>
      </trkpt>
      <trkpt lat="44.07927" lon="3.09071">
        <ele>740.2</ele>
        <time>2019-05-31T09:12:24Z</time>
      </trkpt>
      <trkpt lat="44.07923" lon="3.09083">
        <ele>739.8</ele>
        <time>2019-05-31T09:12:25Z</time>
      </trkpt>
      <trkpt lat="44.07918" lon="3.09093">
        <ele>739.2</ele>
        <time>2019-05-31T09:12:26Z</time>
      </trkpt>
      <trkpt lat="44.07913" lon="3.09102">
        <ele>738.6</ele>
        <time>2019-05-31T09:12:27Z</time>
      </trkpt>
      <trkpt lat="44.07907" lon="3.09112">
        <ele>738</ele>
        <time>2019-05-31T09:12:28Z</time>
      </trkpt>
      <trkpt lat="44.07902" lon="3.09122">
        <ele>737.3</ele>
        <time>2019-05-31T09:12:29Z</time>
      </trkpt>
      <trkpt lat="44.07897" lon="3.0913">
        <ele>736.5</ele>
        <time>2019-05-31T09:12:30Z</time>
      </trkpt>
      <trkpt lat="44.07891" lon="3.09136">
        <ele>735.6</ele>
        <time>2019-05-31T09:12:31Z</time>
      </trkpt>
      <trkpt lat="44.07886" lon="3.09144">
        <ele>734.6</ele>
        <time>2019-05-31T09:12:32Z</time>
      </trkpt>
      <trkpt lat="44.07882" lon="3.09148">
        <ele>734.2</ele>
        <time>2019-05-31T09:12:33Z</time>
      </trkpt>
      <trkpt lat="44.07877" lon="3.09145">
        <ele>733.7</ele>
        <time>2019-05-31T09:12:35Z</time>
      </trkpt>
      <trkpt lat="44.07873" lon="3.09143">
        <ele>733.3</ele>
        <time>2019-05-31T09:12:38Z</time>
      </trkpt>
      <trkpt lat="44.0787" lon="3.09139">
        <ele>733</ele>
        <time>2019-05-31T09:12:39Z</time>
      </trkpt>
      <trkpt lat="44.07864" lon="3.0914">
        <ele>732.4</ele>
        <time>2019-05-31T09:12:40Z</time>
      </trkpt>
      <trkpt lat="44.07859" lon="3.09143">
        <ele>732.1</ele>
        <time>2019-05-31T09:12:41Z</time>
      </trkpt>
      <trkpt lat="44.07856" lon="3.09145">
        <ele>731.9</ele>
        <time>2019-05-31T09:12:42Z</time>
      </trkpt>
      <trkpt lat="44.07853" lon="3.09149">
        <ele>731.7</ele>
        <time>2019-05-31T09:12:44Z</time>
      </trkpt>
      <trkpt lat="44.07849" lon="3.09145">
        <ele>731.4</ele>
        <time>2019-05-31T09:12:46Z</time>
      </trkpt>
      <trkpt lat="44.07846" lon="3.09146">
        <ele>731.1</ele>
        <time>2019-05-31T09:12:48Z</time>
      </trkpt>
      <trkpt lat="44.07844" lon="3.0915">
        <ele>731</ele>
        <time>2019-05-31T09:12:54Z</time>
      </trkpt>
      <trkpt lat="44.07844" lon="3.09153">
        <ele>730.8</ele>
        <time>2019-05-31T09:12:57Z</time>
      </trkpt>
      <trkpt lat="44.07844" lon="3.09161">
        <ele>730.5</ele>
        <time>2019-05-31T09:13:38Z</time>
      </trkpt>
      <trkpt lat="44.07846" lon="3.09165">
        <ele>730.4</ele>
        <time>2019-05-31T09:13:40Z</time>
      </trkpt>
      <trkpt lat="44.07847" lon="3.09169">
        <ele>730.3</ele>
        <time>2019-05-31T09:13:42Z</time>
      </trkpt>
      <trkpt lat="44.07848" lon="3.09176">
        <ele>730.1</ele>
        <time>2019-05-31T09:13:44Z</time>
      </trkpt>
      <trkpt lat="44.07847" lon="3.09181">
        <ele>730</ele>
        <time>2019-05-31T09:13:45Z</time>
      </trkpt>
      <trkpt lat="44.07846" lon="3.09187">
        <ele>729.9</ele>
        <time>2019-05-31T09:13:46Z</time>
      </trkpt>
      <trkpt lat="44.07846" lon="3.09191">
        <ele>729.8</ele>
        <time>2019-05-31T09:13:47Z</time>
      </trkpt>
      <trkpt lat="44.07846" lon="3.09195">
        <ele>729.7</ele>
        <time>2019-05-31T09:13:48Z</time>
      </trkpt>
      <trkpt lat="44.07849" lon="3.09199">
        <ele>729.6</ele>
        <time>2019-05-31T09:13:49Z</time>
      </trkpt>
      <trkpt lat="44.07859" lon="3.09202">
        <ele>729.3</ele>
        <time>2019-05-31T09:13:50Z</time>
      </trkpt>
      <trkpt lat="44.07862" lon="3.09206">
        <ele>729.2</ele>
        <time>2019-05-31T09:13:51Z</time>
      </trkpt>
      <trkpt lat="44.07865" lon="3.09212">
        <ele>729</ele>
        <time>2019-05-31T09:13:52Z</time>
      </trkpt>
      <trkpt lat="44.07869" lon="3.09219">
        <ele>728.8</ele>
        <time>2019-05-31T09:13:53Z</time>
      </trkpt>
      <trkpt lat="44.07875" lon="3.09227">
        <ele>728.5</ele>
        <time>2019-05-31T09:13:54Z</time>
      </trkpt>
      <trkpt lat="44.07881" lon="3.09235">
        <ele>728.2</ele>
        <time>2019-05-31T09:13:55Z</time>
      </trkpt>
      <trkpt lat="44.07886" lon="3.09241">
        <ele>727.9</ele>
        <time>2019-05-31T09:13:56Z</time>
      </trkpt>
      <trkpt lat="44.07892" lon="3.09248">
        <ele>726.6</ele>
        <time>2019-05-31T09:13:57Z</time>
      </trkpt>
      <trkpt lat="44.07897" lon="3.09251">
        <ele>726.4</ele>
        <time>2019-05-31T09:13:58Z</time>
      </trkpt>
      <trkpt lat="44.07902" lon="3.09255">
        <ele>725.7</ele>
        <time>2019-05-31T09:13:59Z</time>
      </trkpt>
      <trkpt lat="44.07909" lon="3.09254">
        <ele>725.1</ele>
        <time>2019-05-31T09:14:00Z</time>
      </trkpt>
      <trkpt lat="44.07912" lon="3.09256">
        <ele>724.8</ele>
        <time>2019-05-31T09:14:01Z</time>
      </trkpt>
      <trkpt lat="44.07917" lon="3.09258">
        <ele>724.3</ele>
        <time>2019-05-31T09:14:02Z</time>
      </trkpt>
      <trkpt lat="44.07922" lon="3.09259">
        <ele>723.8</ele>
        <time>2019-05-31T09:14:03Z</time>
      </trkpt>
      <trkpt lat="44.07926" lon="3.0926">
        <ele>723.5</ele>
        <time>2019-05-31T09:14:04Z</time>
      </trkpt>
      <trkpt lat="44.0793" lon="3.09261">
        <ele>723.1</ele>
        <time>2019-05-31T09:14:05Z</time>
      </trkpt>
      <trkpt lat="44.07935" lon="3.09262">
        <ele>722.6</ele>
        <time>2019-05-31T09:14:06Z</time>
      </trkpt>
      <trkpt lat="44.07939" lon="3.09263">
        <ele>722.2</ele>
        <time>2019-05-31T09:14:07Z</time>
      </trkpt>
      <trkpt lat="44.07943" lon="3.09265">
        <ele>721.8</ele>
        <time>2019-05-31T09:14:08Z</time>
      </trkpt>
      <trkpt lat="44.07947" lon="3.09266">
        <ele>721.4</ele>
        <time>2019-05-31T09:14:09Z</time>
      </trkpt>
      <trkpt lat="44.07951" lon="3.09268">
        <ele>721</ele>
        <time>2019-05-31T09:14:10Z</time>
      </trkpt>
      <trkpt lat="44.07954" lon="3.09269">
        <ele>720.7</ele>
        <time>2019-05-31T09:14:11Z</time>
      </trkpt>
      <trkpt lat="44.07958" lon="3.09271">
        <ele>720.3</ele>
        <time>2019-05-31T09:14:12Z</time>
      </trkpt>
      <trkpt lat="44.0796" lon="3.09273">
        <ele>720.1</ele>
        <time>2019-05-31T09:14:13Z</time>
      </trkpt>
      <trkpt lat="44.07964" lon="3.09275">
        <ele>719.8</ele>
        <time>2019-05-31T09:14:14Z</time>
      </trkpt>
      <trkpt lat="44.07967" lon="3.09275">
        <ele>719.5</ele>
        <time>2019-05-31T09:14:15Z</time>
      </trkpt>
      <trkpt lat="44.07972" lon="3.09278">
        <ele>719</ele>
        <time>2019-05-31T09:14:17Z</time>
      </trkpt>
      <trkpt lat="44.07975" lon="3.09282">
        <ele>719.3</ele>
        <time>2019-05-31T09:14:19Z</time>
      </trkpt>
      <trkpt lat="44.0798" lon="3.09285">
        <ele>719.6</ele>
        <time>2019-05-31T09:14:21Z</time>
      </trkpt>
      <trkpt lat="44.07982" lon="3.09286">
        <ele>719.8</ele>
        <time>2019-05-31T09:14:22Z</time>
      </trkpt>
      <trkpt lat="44.07985" lon="3.09287">
        <ele>719.9</ele>
        <time>2019-05-31T09:14:23Z</time>
      </trkpt>
      <trkpt lat="44.07988" lon="3.09288">
        <ele>720.1</ele>
        <time>2019-05-31T09:14:24Z</time>
      </trkpt>
      <trkpt lat="44.07991" lon="3.09288">
        <ele>720.2</ele>
        <time>2019-05-31T09:14:25Z</time>
      </trkpt>
      <trkpt lat="44.07994" lon="3.09289">
        <ele>720.4</ele>
        <time>2019-05-31T09:14:26Z</time>
      </trkpt>
      <trkpt lat="44.07997" lon="3.0929">
        <ele>720.5</ele>
        <time>2019-05-31T09:14:27Z</time>
      </trkpt>
      <trkpt lat="44.08" lon="3.0929">
        <ele>720.6</ele>
        <time>2019-05-31T09:14:28Z</time>
      </trkpt>
      <trkpt lat="44.08003" lon="3.0929">
        <ele>720.8</ele>
        <time>2019-05-31T09:14:29Z</time>
      </trkpt>
      <trkpt lat="44.08006" lon="3.0929">
        <ele>720.9</ele>
        <time>2019-05-31T09:14:30Z</time>
      </trkpt>
      <trkpt lat="44.08009" lon="3.0929">
        <ele>721</ele>
        <time>2019-05-31T09:14:31Z</time>
      </trkpt>
      <trkpt lat="44.08011" lon="3.09289">
        <ele>721.1</ele>
        <time>2019-05-31T09:14:32Z</time>
      </trkpt>
      <trkpt lat="44.08014" lon="3.0929">
        <ele>721.2</ele>
        <time>2019-05-31T09:14:33Z</time>
      </trkpt>
      <trkpt lat="44.0802" lon="3.0929">
        <ele>721.4</ele>
        <time>2019-05-31T09:14:35Z</time>
      </trkpt>
      <trkpt lat="44.08025" lon="3.0929">
        <ele>721.5</ele>
        <time>2019-05-31T09:14:37Z</time>
      </trkpt>
      <trkpt lat="44.0803" lon="3.09291">
        <ele>721.7</ele>
        <time>2019-05-31T09:14:39Z</time>
      </trkpt>
      <trkpt lat="44.08035" lon="3.09293">
        <ele>721.8</ele>
        <time>2019-05-31T09:14:41Z</time>
      </trkpt>
      <trkpt lat="44.08039" lon="3.09295">
        <ele>721.9</ele>
        <time>2019-05-31T09:14:43Z</time>
      </trkpt>
      <trkpt lat="44.08044" lon="3.09297">
        <ele>722</ele>
        <time>2019-05-31T09:14:45Z</time>
      </trkpt>
      <trkpt lat="44.08047" lon="3.09298">
        <ele>722.1</ele>
        <time>2019-05-31T09:14:46Z</time>
      </trkpt>
      <trkpt lat="44.0805" lon="3.09297">
        <ele>722.2</ele>
        <time>2019-05-31T09:14:47Z</time>
      </trkpt>
      <trkpt lat="44.08053" lon="3.09296">
        <ele>722.3</ele>
        <time>2019-05-31T09:14:48Z</time>
      </trkpt>
      <trkpt lat="44.08056" lon="3.09295">
        <ele>722.3</ele>
        <time>2019-05-31T09:14:49Z</time>
      </trkpt>
      <trkpt lat="44.08059" lon="3.09292">
        <ele>722.4</ele>
        <time>2019-05-31T09:14:50Z</time>
      </trkpt>
      <trkpt lat="44.08061" lon="3.0929">
        <ele>722.4</ele>
        <time>2019-05-31T09:14:51Z</time>
      </trkpt>
      <trkpt lat="44.08065" lon="3.09288">
        <ele>722.5</ele>
        <time>2019-05-31T09:14:52Z</time>
      </trkpt>
      <trkpt lat="44.08068" lon="3.09286">
        <ele>722.6</ele>
        <time>2019-05-31T09:14:53Z</time>
      </trkpt>
      <trkpt lat="44.08072" lon="3.09285">
        <ele>722.7</ele>
        <time>2019-05-31T09:14:54Z</time>
      </trkpt>
      <trkpt lat="44.08076" lon="3.09284">
        <ele>722.8</ele>
        <time>2019-05-31T09:14:55Z</time>
      </trkpt>
      <trkpt lat="44.0808" lon="3.09283">
        <ele>722.9</ele>
        <time>2019-05-31T09:14:56Z</time>
      </trkpt>
      <trkpt lat="44.08084" lon="3.09282">
        <ele>723.1</ele>
        <time>2019-05-31T09:14:57Z</time>
      </trkpt>
      <trkpt lat="44.08087" lon="3.09282">
        <ele>723.2</ele>
        <time>2019-05-31T09:14:58Z</time>
      </trkpt>
      <trkpt lat="44.0809" lon="3.09281">
        <ele>723.3</ele>
        <time>2019-05-31T09:14:59Z</time>
      </trkpt>
      <trkpt lat="44.08093" lon="3.09281">
        <ele>723.5</ele>
        <time>2019-05-31T09:15:00Z</time>
      </trkpt>
      <trkpt lat="44.08098" lon="3.09281">
        <ele>723.6</ele>
        <time>2019-05-31T09:15:01Z</time>
      </trkpt>
      <trkpt lat="44.08101" lon="3.09279">
        <ele>723.8</ele>
        <time>2019-05-31T09:15:02Z</time>
      </trkpt>
      <trkpt lat="44.08104" lon="3.09278">
        <ele>723.9</ele>
        <time>2019-05-31T09:15:03Z</time>
      </trkpt>
      <trkpt lat="44.08107" lon="3.09276">
        <ele>724</ele>
        <time>2019-05-31T09:15:04Z</time>
      </trkpt>
      <trkpt lat="44.0811" lon="3.09274">
        <ele>724.2</ele>
        <time>2019-05-31T09:15:05Z</time>
      </trkpt>
      <trkpt lat="44.08113" lon="3.09272">
        <ele>724.4</ele>
        <time>2019-05-31T09:15:06Z</time>
      </trkpt>
      <trkpt lat="44.08116" lon="3.09271">
        <ele>724.6</ele>
        <time>2019-05-31T09:15:07Z</time>
      </trkpt>
      <trkpt lat="44.08119" lon="3.09269">
        <ele>724.9</ele>
        <time>2019-05-31T09:15:08Z</time>
      </trkpt>
      <trkpt lat="44.08123" lon="3.09266">
        <ele>725.4</ele>
        <time>2019-05-31T09:15:10Z</time>
      </trkpt>
      <trkpt lat="44.08128" lon="3.09263">
        <ele>726</ele>
        <time>2019-05-31T09:15:12Z</time>
      </trkpt>
      <trkpt lat="44.08131" lon="3.09261">
        <ele>726.5</ele>
        <time>2019-05-31T09:15:14Z</time>
      </trkpt>
      <trkpt lat="44.08134" lon="3.09257">
        <ele>727</ele>
        <time>2019-05-31T09:15:17Z</time>
      </trkpt>
      <trkpt lat="44.08136" lon="3.09254">
        <ele>727.5</ele>
        <time>2019-05-31T09:15:42Z</time>
      </trkpt>
      <trkpt lat="44.08138" lon="3.09251">
        <ele>727.9</ele>
        <time>2019-05-31T09:16:02Z</time>
      </trkpt>
      <trkpt lat="44.0814" lon="3.0925">
        <ele>728.4</ele>
        <time>2019-05-31T09:16:06Z</time>
      </trkpt>
      <trkpt lat="44.08144" lon="3.09248">
        <ele>729</ele>
        <time>2019-05-31T09:16:10Z</time>
      </trkpt>
      <trkpt lat="44.08143" lon="3.09252">
        <ele>729.4</ele>
        <time>2019-05-31T09:18:31Z</time>
      </trkpt>
      <trkpt lat="44.08141" lon="3.09255">
        <ele>729.9</ele>
        <time>2019-05-31T09:18:34Z</time>
      </trkpt>
      <trkpt lat="44.0814" lon="3.09259">
        <ele>730.3</ele>
        <time>2019-05-31T09:18:38Z</time>
      </trkpt>
      <trkpt lat="44.08143" lon="3.09259">
        <ele>730.7</ele>
        <time>2019-05-31T09:19:13Z</time>
      </trkpt>
      <trkpt lat="44.08143" lon="3.09263">
        <ele>731.1</ele>
        <time>2019-05-31T09:19:22Z</time>
      </trkpt>
      <trkpt lat="44.08142" lon="3.09266">
        <ele>731.4</ele>
        <time>2019-05-31T09:19:24Z</time>
      </trkpt>
      <trkpt lat="44.0814" lon="3.09271">
        <ele>731.9</ele>
        <time>2019-05-31T09:19:26Z</time>
      </trkpt>
      <trkpt lat="44.08138" lon="3.09275">
        <ele>732.3</ele>
        <time>2019-05-31T09:19:28Z</time>
      </trkpt>
      <trkpt lat="44.08137" lon="3.09279">
        <ele>732.7</ele>
        <time>2019-05-31T09:19:30Z</time>
      </trkpt>
      <trkpt lat="44.08137" lon="3.09285">
        <ele>733.2</ele>
        <time>2019-05-31T09:19:32Z</time>
      </trkpt>
      <trkpt lat="44.08138" lon="3.0929">
        <ele>733.6</ele>
        <time>2019-05-31T09:19:34Z</time>
      </trkpt>
      <trkpt lat="44.08139" lon="3.09295">
        <ele>733.9</ele>
        <time>2019-05-31T09:19:36Z</time>
      </trkpt>
      <trkpt lat="44.08141" lon="3.093">
        <ele>734.3</ele>
        <time>2019-05-31T09:19:38Z</time>
      </trkpt>
      <trkpt lat="44.08142" lon="3.09306">
        <ele>734.6</ele>
        <time>2019-05-31T09:19:40Z</time>
      </trkpt>
      <trkpt lat="44.08141" lon="3.09311">
        <ele>734.9</ele>
        <time>2019-05-31T09:19:42Z</time>
      </trkpt>
      <trkpt lat="44.0814" lon="3.09316">
        <ele>735.1</ele>
        <time>2019-05-31T09:19:44Z</time>
      </trkpt>
      <trkpt lat="44.08139" lon="3.09321">
        <ele>735.4</ele>
        <time>2019-05-31T09:19:47Z</time>
      </trkpt>
      <trkpt lat="44.08138" lon="3.09325">
        <ele>735.6</ele>
        <time>2019-05-31T09:19:49Z</time>
      </trkpt>
      <trkpt lat="44.08138" lon="3.0933">
        <ele>735.9</ele>
        <time>2019-05-31T09:19:51Z</time>
      </trkpt>
      <trkpt lat="44.08138" lon="3.09335">
        <ele>736.2</ele>
        <time>2019-05-31T09:19:54Z</time>
      </trkpt>
      <trkpt lat="44.08138" lon="3.0934">
        <ele>736.5</ele>
        <time>2019-05-31T09:19:56Z</time>
      </trkpt>
      <trkpt lat="44.08137" lon="3.09345">
        <ele>736.7</ele>
        <time>2019-05-31T09:19:58Z</time>
      </trkpt>
      <trkpt lat="44.08136" lon="3.0935">
        <ele>737</ele>
        <time>2019-05-31T09:20:00Z</time>
      </trkpt>
      <trkpt lat="44.08136" lon="3.09355">
        <ele>737.3</ele>
        <time>2019-05-31T09:20:02Z</time>
      </trkpt>
      <trkpt lat="44.08137" lon="3.09359">
        <ele>737.5</ele>
        <time>2019-05-31T09:20:04Z</time>
      </trkpt>
      <trkpt lat="44.08136" lon="3.09365">
        <ele>737.8</ele>
        <time>2019-05-31T09:20:07Z</time>
      </trkpt>
      <trkpt lat="44.08136" lon="3.09369">
        <ele>738</ele>
        <time>2019-05-31T09:20:09Z</time>
      </trkpt>
      <trkpt lat="44.08137" lon="3.09374">
        <ele>738.2</ele>
        <time>2019-05-31T09:20:12Z</time>
      </trkpt>
      <trkpt lat="44.08138" lon="3.09378">
        <ele>738.4</ele>
        <time>2019-05-31T09:20:14Z</time>
      </trkpt>
      <trkpt lat="44.08138" lon="3.09383">
        <ele>738.6</ele>
        <time>2019-05-31T09:20:16Z</time>
      </trkpt>
      <trkpt lat="44.08137" lon="3.09387">
        <ele>738.7</ele>
        <time>2019-05-31T09:20:18Z</time>
      </trkpt>
      <trkpt lat="44.08137" lon="3.09392">
        <ele>738.9</ele>
        <time>2019-05-31T09:20:20Z</time>
      </trkpt>
      <trkpt lat="44.08136" lon="3.09396">
        <ele>739</ele>
        <time>2019-05-31T09:20:22Z</time>
      </trkpt>
      <trkpt lat="44.08136" lon="3.094">
        <ele>739.1</ele>
        <time>2019-05-31T09:20:25Z</time>
      </trkpt>
      <trkpt lat="44.08137" lon="3.09403">
        <ele>739.2</ele>
        <time>2019-05-31T09:20:27Z</time>
      </trkpt>
      <trkpt lat="44.08138" lon="3.09408">
        <ele>739.3</ele>
        <time>2019-05-31T09:20:29Z</time>
      </trkpt>
      <trkpt lat="44.0814" lon="3.09412">
        <ele>739.4</ele>
        <time>2019-05-31T09:20:31Z</time>
      </trkpt>
      <trkpt lat="44.08141" lon="3.09416">
        <ele>739.4</ele>
        <time>2019-05-31T09:20:33Z</time>
      </trkpt>
      <trkpt lat="44.08142" lon="3.09421">
        <ele>739.4</ele>
        <time>2019-05-31T09:20:35Z</time>
      </trkpt>
      <trkpt lat="44.08142" lon="3.09426">
        <ele>739.4</ele>
        <time>2019-05-31T09:20:37Z</time>
      </trkpt>
      <trkpt lat="44.08143" lon="3.09431">
        <ele>739.4</ele>
        <time>2019-05-31T09:20:39Z</time>
      </trkpt>
      <trkpt lat="44.08144" lon="3.09437">
        <ele>739.3</ele>
        <time>2019-05-31T09:20:41Z</time>
      </trkpt>
      <trkpt lat="44.08144" lon="3.09442">
        <ele>739.2</ele>
        <time>2019-05-31T09:20:43Z</time>
      </trkpt>
      <trkpt lat="44.08144" lon="3.09446">
        <ele>739.1</ele>
        <time>2019-05-31T09:20:45Z</time>
      </trkpt>
      <trkpt lat="44.08143" lon="3.09452">
        <ele>739</ele>
        <time>2019-05-31T09:20:47Z</time>
      </trkpt>
      <trkpt lat="44.08142" lon="3.09457">
        <ele>738.9</ele>
        <time>2019-05-31T09:20:49Z</time>
      </trkpt>
      <trkpt lat="44.0814" lon="3.09463">
        <ele>738.8</ele>
        <time>2019-05-31T09:20:51Z</time>
      </trkpt>
      <trkpt lat="44.08139" lon="3.09468">
        <ele>738.7</ele>
        <time>2019-05-31T09:20:53Z</time>
      </trkpt>
      <trkpt lat="44.08138" lon="3.09475">
        <ele>738.7</ele>
        <time>2019-05-31T09:20:55Z</time>
      </trkpt>
      <trkpt lat="44.08138" lon="3.09481">
        <ele>738.7</ele>
        <time>2019-05-31T09:20:57Z</time>
      </trkpt>
      <trkpt lat="44.08138" lon="3.09485">
        <ele>738.7</ele>
        <time>2019-05-31T09:20:58Z</time>
      </trkpt>
      <trkpt lat="44.08137" lon="3.09489">
        <ele>738.7</ele>
        <time>2019-05-31T09:20:59Z</time>
      </trkpt>
      <trkpt lat="44.08136" lon="3.09493">
        <ele>738.7</ele>
        <time>2019-05-31T09:21:00Z</time>
      </trkpt>
      <trkpt lat="44.08136" lon="3.09498">
        <ele>738.7</ele>
        <time>2019-05-31T09:21:01Z</time>
      </trkpt>
      <trkpt lat="44.08135" lon="3.09502">
        <ele>738.7</ele>
        <time>2019-05-31T09:21:02Z</time>
      </trkpt>
      <trkpt lat="44.08133" lon="3.09506">
        <ele>738.7</ele>
        <time>2019-05-31T09:21:03Z</time>
      </trkpt>
      <trkpt lat="44.08132" lon="3.09511">
        <ele>738.7</ele>
        <time>2019-05-31T09:21:04Z</time>
      </trkpt>
      <trkpt lat="44.08129" lon="3.09516">
        <ele>738.7</ele>
        <time>2019-05-31T09:21:05Z</time>
      </trkpt>
      <trkpt lat="44.08127" lon="3.09519">
        <ele>738.7</ele>
        <time>2019-05-31T09:21:06Z</time>
      </trkpt>
      <trkpt lat="44.08124" lon="3.09524">
        <ele>738.7</ele>
        <time>2019-05-31T09:21:07Z</time>
      </trkpt>
      <trkpt lat="44.08122" lon="3.0953">
        <ele>738.7</ele>
        <time>2019-05-31T09:21:08Z</time>
      </trkpt>
      <trkpt lat="44.08121" lon="3.09535">
        <ele>738.7</ele>
        <time>2019-05-31T09:21:09Z</time>
      </trkpt>
      <trkpt lat="44.08119" lon="3.0954">
        <ele>738.6</ele>
        <time>2019-05-31T09:21:10Z</time>
      </trkpt>
      <trkpt lat="44.08118" lon="3.09547">
        <ele>738.6</ele>
        <time>2019-05-31T09:21:11Z</time>
      </trkpt>
      <trkpt lat="44.08117" lon="3.09553">
        <ele>738.5</ele>
        <time>2019-05-31T09:21:12Z</time>
      </trkpt>
      <trkpt lat="44.08115" lon="3.0956">
        <ele>738.5</ele>
        <time>2019-05-31T09:21:14Z</time>
      </trkpt>
      <trkpt lat="44.08115" lon="3.09567">
        <ele>738.5</ele>
        <time>2019-05-31T09:21:15Z</time>
      </trkpt>
      <trkpt lat="44.08114" lon="3.09572">
        <ele>738.5</ele>
        <time>2019-05-31T09:21:16Z</time>
      </trkpt>
      <trkpt lat="44.08114" lon="3.09578">
        <ele>738.5</ele>
        <time>2019-05-31T09:21:17Z</time>
      </trkpt>
      <trkpt lat="44.08112" lon="3.09583">
        <ele>738.6</ele>
        <time>2019-05-31T09:21:18Z</time>
      </trkpt>
      <trkpt lat="44.0811" lon="3.09589">
        <ele>738.6</ele>
        <time>2019-05-31T09:21:19Z</time>
      </trkpt>
      <trkpt lat="44.08109" lon="3.09595">
        <ele>738.7</ele>
        <time>2019-05-31T09:21:20Z</time>
      </trkpt>
      <trkpt lat="44.08108" lon="3.096">
        <ele>738.8</ele>
        <time>2019-05-31T09:21:21Z</time>
      </trkpt>
      <trkpt lat="44.08107" lon="3.09605">
        <ele>738.8</ele>
        <time>2019-05-31T09:21:22Z</time>
      </trkpt>
      <trkpt lat="44.08107" lon="3.09609">
        <ele>738.8</ele>
        <time>2019-05-31T09:21:23Z</time>
      </trkpt>
      <trkpt lat="44.08106" lon="3.09615">
        <ele>738.8</ele>
        <time>2019-05-31T09:21:24Z</time>
      </trkpt>
      <trkpt lat="44.08106" lon="3.0962">
        <ele>738.8</ele>
        <time>2019-05-31T09:21:25Z</time>
      </trkpt>
      <trkpt lat="44.08107" lon="3.09624">
        <ele>738.9</ele>
        <time>2019-05-31T09:21:26Z</time>
      </trkpt>
      <trkpt lat="44.08106" lon="3.09629">
        <ele>738.9</ele>
        <time>2019-05-31T09:21:27Z</time>
      </trkpt>
      <trkpt lat="44.08106" lon="3.09634">
        <ele>738.9</ele>
        <time>2019-05-31T09:21:28Z</time>
      </trkpt>
      <trkpt lat="44.08105" lon="3.09639">
        <ele>738.9</ele>
        <time>2019-05-31T09:21:29Z</time>
      </trkpt>
      <trkpt lat="44.08104" lon="3.09644">
        <ele>738.9</ele>
        <time>2019-05-31T09:21:30Z</time>
      </trkpt>
      <trkpt lat="44.08103" lon="3.09648">
        <ele>738.9</ele>
        <time>2019-05-31T09:21:31Z</time>
      </trkpt>
      <trkpt lat="44.08102" lon="3.09654">
        <ele>738.9</ele>
        <time>2019-05-31T09:21:32Z</time>
      </trkpt>
      <trkpt lat="44.08102" lon="3.09659">
        <ele>738.9</ele>
        <time>2019-05-31T09:21:33Z</time>
      </trkpt>
      <trkpt lat="44.08102" lon="3.09664">
        <ele>738.9</ele>
        <time>2019-05-31T09:21:34Z</time>
      </trkpt>
      <trkpt lat="44.08103" lon="3.09669">
        <ele>738.9</ele>
        <time>2019-05-31T09:21:35Z</time>
      </trkpt>
      <trkpt lat="44.08103" lon="3.09673">
        <ele>738.9</ele>
        <time>2019-05-31T09:21:36Z</time>
      </trkpt>
      <trkpt lat="44.08104" lon="3.09678">
        <ele>738.9</ele>
        <time>2019-05-31T09:21:37Z</time>
      </trkpt>
      <trkpt lat="44.08104" lon="3.09683">
        <ele>739</ele>
        <time>2019-05-31T09:21:38Z</time>
      </trkpt>
      <trkpt lat="44.08104" lon="3.09687">
        <ele>739</ele>
        <time>2019-05-31T09:21:39Z</time>
      </trkpt>
      <trkpt lat="44.08104" lon="3.09693">
        <ele>739</ele>
        <time>2019-05-31T09:21:40Z</time>
      </trkpt>
      <trkpt lat="44.08103" lon="3.09699">
        <ele>739</ele>
        <time>2019-05-31T09:21:41Z</time>
      </trkpt>
      <trkpt lat="44.08103" lon="3.09706">
        <ele>739.1</ele>
        <time>2019-05-31T09:21:42Z</time>
      </trkpt>
      <trkpt lat="44.08103" lon="3.09712">
        <ele>739.1</ele>
        <time>2019-05-31T09:21:43Z</time>
      </trkpt>
      <trkpt lat="44.08103" lon="3.09718">
        <ele>739.2</ele>
        <time>2019-05-31T09:21:44Z</time>
      </trkpt>
      <trkpt lat="44.08104" lon="3.09724">
        <ele>739.3</ele>
        <time>2019-05-31T09:21:45Z</time>
      </trkpt>
      <trkpt lat="44.08105" lon="3.09729">
        <ele>739.4</ele>
        <time>2019-05-31T09:21:46Z</time>
      </trkpt>
      <trkpt lat="44.08106" lon="3.09735">
        <ele>739.5</ele>
        <time>2019-05-31T09:21:47Z</time>
      </trkpt>
      <trkpt lat="44.08106" lon="3.09742">
        <ele>739.6</ele>
        <time>2019-05-31T09:21:48Z</time>
      </trkpt>
      <trkpt lat="44.08105" lon="3.09747">
        <ele>739.7</ele>
        <time>2019-05-31T09:21:49Z</time>
      </trkpt>
      <trkpt lat="44.08104" lon="3.09752">
        <ele>739.8</ele>
        <time>2019-05-31T09:21:50Z</time>
      </trkpt>
      <trkpt lat="44.08105" lon="3.09759">
        <ele>739.9</ele>
        <time>2019-05-31T09:21:51Z</time>
      </trkpt>
      <trkpt lat="44.08105" lon="3.09764">
        <ele>740</ele>
        <time>2019-05-31T09:21:52Z</time>
      </trkpt>
      <trkpt lat="44.08106" lon="3.09768">
        <ele>740.1</ele>
        <time>2019-05-31T09:21:53Z</time>
      </trkpt>
      <trkpt lat="44.08109" lon="3.09775">
        <ele>740.2</ele>
        <time>2019-05-31T09:21:55Z</time>
      </trkpt>
      <trkpt lat="44.08111" lon="3.09782">
        <ele>740.4</ele>
        <time>2019-05-31T09:21:57Z</time>
      </trkpt>
      <trkpt lat="44.08111" lon="3.09789">
        <ele>740.5</ele>
        <time>2019-05-31T09:21:59Z</time>
      </trkpt>
      <trkpt lat="44.08113" lon="3.09795">
        <ele>740.6</ele>
        <time>2019-05-31T09:22:01Z</time>
      </trkpt>
      <trkpt lat="44.08115" lon="3.09802">
        <ele>740.7</ele>
        <time>2019-05-31T09:22:03Z</time>
      </trkpt>
      <trkpt lat="44.08116" lon="3.09808">
        <ele>740.8</ele>
        <time>2019-05-31T09:22:05Z</time>
      </trkpt>
      <trkpt lat="44.08117" lon="3.09812">
        <ele>740.9</ele>
        <time>2019-05-31T09:22:06Z</time>
      </trkpt>
      <trkpt lat="44.08117" lon="3.09817">
        <ele>741</ele>
        <time>2019-05-31T09:22:08Z</time>
      </trkpt>
      <trkpt lat="44.08117" lon="3.09822">
        <ele>741</ele>
        <time>2019-05-31T09:22:10Z</time>
      </trkpt>
      <trkpt lat="44.08118" lon="3.09828">
        <ele>741.1</ele>
        <time>2019-05-31T09:22:12Z</time>
      </trkpt>
      <trkpt lat="44.0812" lon="3.09834">
        <ele>741.1</ele>
        <time>2019-05-31T09:22:14Z</time>
      </trkpt>
      <trkpt lat="44.08122" lon="3.0984">
        <ele>741.1</ele>
        <time>2019-05-31T09:22:16Z</time>
      </trkpt>
      <trkpt lat="44.08124" lon="3.09845">
        <ele>741.1</ele>
        <time>2019-05-31T09:22:18Z</time>
      </trkpt>
      <trkpt lat="44.08125" lon="3.09852">
        <ele>741.1</ele>
        <time>2019-05-31T09:22:20Z</time>
      </trkpt>
      <trkpt lat="44.08127" lon="3.09859">
        <ele>742.2</ele>
        <time>2019-05-31T09:22:22Z</time>
      </trkpt>
      <trkpt lat="44.08129" lon="3.09865">
        <ele>742.8</ele>
        <time>2019-05-31T09:22:24Z</time>
      </trkpt>
      <trkpt lat="44.08131" lon="3.09871">
        <ele>743.5</ele>
        <time>2019-05-31T09:22:26Z</time>
      </trkpt>
      <trkpt lat="44.08133" lon="3.09874">
        <ele>743.8</ele>
        <time>2019-05-31T09:22:27Z</time>
      </trkpt>
      <trkpt lat="44.08135" lon="3.09879">
        <ele>744.3</ele>
        <time>2019-05-31T09:22:29Z</time>
      </trkpt>
      <trkpt lat="44.08136" lon="3.09885">
        <ele>744.7</ele>
        <time>2019-05-31T09:22:31Z</time>
      </trkpt>
      <trkpt lat="44.08137" lon="3.09891">
        <ele>745.1</ele>
        <time>2019-05-31T09:22:33Z</time>
      </trkpt>
      <trkpt lat="44.08137" lon="3.09896">
        <ele>745.5</ele>
        <time>2019-05-31T09:22:35Z</time>
      </trkpt>
      <trkpt lat="44.08138" lon="3.099">
        <ele>745.8</ele>
        <time>2019-05-31T09:22:37Z</time>
      </trkpt>
      <trkpt lat="44.08138" lon="3.09904">
        <ele>746</ele>
        <time>2019-05-31T09:22:39Z</time>
      </trkpt>
      <trkpt lat="44.08139" lon="3.09908">
        <ele>746.2</ele>
        <time>2019-05-31T09:22:41Z</time>
      </trkpt>
      <trkpt lat="44.0814" lon="3.09913">
        <ele>746.5</ele>
        <time>2019-05-31T09:22:44Z</time>
      </trkpt>
      <trkpt lat="44.08141" lon="3.09918">
        <ele>746.7</ele>
        <time>2019-05-31T09:22:46Z</time>
      </trkpt>
      <trkpt lat="44.08143" lon="3.09922">
        <ele>746.9</ele>
        <time>2019-05-31T09:22:48Z</time>
      </trkpt>
      <trkpt lat="44.08144" lon="3.09928">
        <ele>747</ele>
        <time>2019-05-31T09:22:50Z</time>
      </trkpt>
      <trkpt lat="44.08145" lon="3.09932">
        <ele>747.1</ele>
        <time>2019-05-31T09:22:52Z</time>
      </trkpt>
      <trkpt lat="44.08145" lon="3.09937">
        <ele>747.2</ele>
        <time>2019-05-31T09:22:54Z</time>
      </trkpt>
      <trkpt lat="44.08145" lon="3.09943">
        <ele>747.2</ele>
        <time>2019-05-31T09:22:56Z</time>
      </trkpt>
      <trkpt lat="44.08147" lon="3.09948">
        <ele>747.3</ele>
        <time>2019-05-31T09:22:58Z</time>
      </trkpt>
      <trkpt lat="44.08149" lon="3.09952">
        <ele>747.3</ele>
        <time>2019-05-31T09:23:00Z</time>
      </trkpt>
      <trkpt lat="44.08151" lon="3.09958">
        <ele>747.3</ele>
        <time>2019-05-31T09:23:02Z</time>
      </trkpt>
      <trkpt lat="44.08152" lon="3.09964">
        <ele>747.4</ele>
        <time>2019-05-31T09:23:04Z</time>
      </trkpt>
      <trkpt lat="44.08153" lon="3.0997">
        <ele>747.5</ele>
        <time>2019-05-31T09:23:06Z</time>
      </trkpt>
      <trkpt lat="44.08154" lon="3.09977">
        <ele>747.5</ele>
        <time>2019-05-31T09:23:08Z</time>
      </trkpt>
      <trkpt lat="44.08156" lon="3.09983">
        <ele>747.6</ele>
        <time>2019-05-31T09:23:10Z</time>
      </trkpt>
      <trkpt lat="44.08157" lon="3.0999">
        <ele>747.6</ele>
        <time>2019-05-31T09:23:12Z</time>
      </trkpt>
      <trkpt lat="44.08159" lon="3.09996">
        <ele>747.5</ele>
        <time>2019-05-31T09:23:14Z</time>
      </trkpt>
      <trkpt lat="44.08159" lon="3.1">
        <ele>747.4</ele>
        <time>2019-05-31T09:23:15Z</time>
      </trkpt>
      <trkpt lat="44.0816" lon="3.10005">
        <ele>747.3</ele>
        <time>2019-05-31T09:23:17Z</time>
      </trkpt>
      <trkpt lat="44.08161" lon="3.10011">
        <ele>747.2</ele>
        <time>2019-05-31T09:23:19Z</time>
      </trkpt>
      <trkpt lat="44.08161" lon="3.10015">
        <ele>747.1</ele>
        <time>2019-05-31T09:23:20Z</time>
      </trkpt>
      <trkpt lat="44.08162" lon="3.10019">
        <ele>747</ele>
        <time>2019-05-31T09:23:21Z</time>
      </trkpt>
      <trkpt lat="44.08163" lon="3.10027">
        <ele>746.8</ele>
        <time>2019-05-31T09:23:23Z</time>
      </trkpt>
      <trkpt lat="44.08164" lon="3.10031">
        <ele>746.7</ele>
        <time>2019-05-31T09:23:24Z</time>
      </trkpt>
      <trkpt lat="44.08164" lon="3.10036">
        <ele>746.7</ele>
        <time>2019-05-31T09:23:25Z</time>
      </trkpt>
      <trkpt lat="44.08165" lon="3.1004">
        <ele>746.6</ele>
        <time>2019-05-31T09:23:26Z</time>
      </trkpt>
      <trkpt lat="44.08166" lon="3.10046">
        <ele>746.5</ele>
        <time>2019-05-31T09:23:27Z</time>
      </trkpt>
      <trkpt lat="44.08167" lon="3.10051">
        <ele>746.4</ele>
        <time>2019-05-31T09:23:28Z</time>
      </trkpt>
      <trkpt lat="44.08168" lon="3.10057">
        <ele>746.3</ele>
        <time>2019-05-31T09:23:29Z</time>
      </trkpt>
      <trkpt lat="44.08168" lon="3.10062">
        <ele>746.3</ele>
        <time>2019-05-31T09:23:30Z</time>
      </trkpt>
      <trkpt lat="44.08169" lon="3.10067">
        <ele>746.3</ele>
        <time>2019-05-31T09:23:31Z</time>
      </trkpt>
      <trkpt lat="44.0817" lon="3.10072">
        <ele>746.4</ele>
        <time>2019-05-31T09:23:32Z</time>
      </trkpt>
      <trkpt lat="44.08171" lon="3.10077">
        <ele>746.4</ele>
        <time>2019-05-31T09:23:33Z</time>
      </trkpt>
      <trkpt lat="44.08172" lon="3.10081">
        <ele>746.4</ele>
        <time>2019-05-31T09:23:34Z</time>
      </trkpt>
      <trkpt lat="44.08174" lon="3.10086">
        <ele>746.4</ele>
        <time>2019-05-31T09:23:35Z</time>
      </trkpt>
      <trkpt lat="44.08177" lon="3.10091">
        <ele>746.4</ele>
        <time>2019-05-31T09:23:36Z</time>
      </trkpt>
      <trkpt lat="44.08179" lon="3.10095">
        <ele>746.3</ele>
        <time>2019-05-31T09:23:37Z</time>
      </trkpt>
      <trkpt lat="44.08181" lon="3.101">
        <ele>746.2</ele>
        <time>2019-05-31T09:23:38Z</time>
      </trkpt>
      <trkpt lat="44.08183" lon="3.10105">
        <ele>746.1</ele>
        <time>2019-05-31T09:23:39Z</time>
      </trkpt>
      <trkpt lat="44.08185" lon="3.10111">
        <ele>745.9</ele>
        <time>2019-05-31T09:23:40Z</time>
      </trkpt>
      <trkpt lat="44.08187" lon="3.10116">
        <ele>745.8</ele>
        <time>2019-05-31T09:23:41Z</time>
      </trkpt>
      <trkpt lat="44.08188" lon="3.10122">
        <ele>745.7</ele>
        <time>2019-05-31T09:23:42Z</time>
      </trkpt>
      <trkpt lat="44.0819" lon="3.10128">
        <ele>745.6</ele>
        <time>2019-05-31T09:23:43Z</time>
      </trkpt>
      <trkpt lat="44.08192" lon="3.10136">
        <ele>745.5</ele>
        <time>2019-05-31T09:23:44Z</time>
      </trkpt>
      <trkpt lat="44.0819" lon="3.10141">
        <ele>745.5</ele>
        <time>2019-05-31T09:23:45Z</time>
      </trkpt>
      <trkpt lat="44.08189" lon="3.10146">
        <ele>745.4</ele>
        <time>2019-05-31T09:23:46Z</time>
      </trkpt>
      <trkpt lat="44.08189" lon="3.10151">
        <ele>745.4</ele>
        <time>2019-05-31T09:23:47Z</time>
      </trkpt>
      <trkpt lat="44.08191" lon="3.10156">
        <ele>745.3</ele>
        <time>2019-05-31T09:23:48Z</time>
      </trkpt>
      <trkpt lat="44.08192" lon="3.10163">
        <ele>745.3</ele>
        <time>2019-05-31T09:23:49Z</time>
      </trkpt>
      <trkpt lat="44.08192" lon="3.10168">
        <ele>745.2</ele>
        <time>2019-05-31T09:23:50Z</time>
      </trkpt>
      <trkpt lat="44.08194" lon="3.10174">
        <ele>745.1</ele>
        <time>2019-05-31T09:23:51Z</time>
      </trkpt>
      <trkpt lat="44.08195" lon="3.10179">
        <ele>745.1</ele>
        <time>2019-05-31T09:23:52Z</time>
      </trkpt>
      <trkpt lat="44.08195" lon="3.10184">
        <ele>744.9</ele>
        <time>2019-05-31T09:23:53Z</time>
      </trkpt>
      <trkpt lat="44.08194" lon="3.1019">
        <ele>744.8</ele>
        <time>2019-05-31T09:23:54Z</time>
      </trkpt>
      <trkpt lat="44.08195" lon="3.10195">
        <ele>744.7</ele>
        <time>2019-05-31T09:23:55Z</time>
      </trkpt>
      <trkpt lat="44.08196" lon="3.10203">
        <ele>744.5</ele>
        <time>2019-05-31T09:23:56Z</time>
      </trkpt>
      <trkpt lat="44.08198" lon="3.1021">
        <ele>744.5</ele>
        <time>2019-05-31T09:23:57Z</time>
      </trkpt>
      <trkpt lat="44.08199" lon="3.10217">
        <ele>744.4</ele>
        <time>2019-05-31T09:23:58Z</time>
      </trkpt>
      <trkpt lat="44.082" lon="3.10222">
        <ele>744.4</ele>
        <time>2019-05-31T09:23:59Z</time>
      </trkpt>
      <trkpt lat="44.08201" lon="3.10229">
        <ele>744.5</ele>
        <time>2019-05-31T09:24:00Z</time>
      </trkpt>
      <trkpt lat="44.08201" lon="3.10237">
        <ele>744.6</ele>
        <time>2019-05-31T09:24:01Z</time>
      </trkpt>
      <trkpt lat="44.08201" lon="3.10243">
        <ele>744.7</ele>
        <time>2019-05-31T09:24:02Z</time>
      </trkpt>
      <trkpt lat="44.08201" lon="3.1025">
        <ele>744.7</ele>
        <time>2019-05-31T09:24:03Z</time>
      </trkpt>
      <trkpt lat="44.08204" lon="3.10258">
        <ele>744.7</ele>
        <time>2019-05-31T09:24:04Z</time>
      </trkpt>
      <trkpt lat="44.08204" lon="3.10266">
        <ele>744.7</ele>
        <time>2019-05-31T09:24:05Z</time>
      </trkpt>
      <trkpt lat="44.08205" lon="3.10274">
        <ele>744.6</ele>
        <time>2019-05-31T09:24:06Z</time>
      </trkpt>
      <trkpt lat="44.08206" lon="3.10281">
        <ele>744.4</ele>
        <time>2019-05-31T09:24:07Z</time>
      </trkpt>
      <trkpt lat="44.08208" lon="3.10289">
        <ele>744.1</ele>
        <time>2019-05-31T09:24:08Z</time>
      </trkpt>
      <trkpt lat="44.08209" lon="3.10295">
        <ele>743.9</ele>
        <time>2019-05-31T09:24:09Z</time>
      </trkpt>
      <trkpt lat="44.08209" lon="3.10304">
        <ele>743.5</ele>
        <time>2019-05-31T09:24:10Z</time>
      </trkpt>
      <trkpt lat="44.08207" lon="3.10309">
        <ele>743.3</ele>
        <time>2019-05-31T09:24:11Z</time>
      </trkpt>
      <trkpt lat="44.08208" lon="3.10318">
        <ele>743.1</ele>
        <time>2019-05-31T09:24:12Z</time>
      </trkpt>
      <trkpt lat="44.08208" lon="3.10325">
        <ele>742.9</ele>
        <time>2019-05-31T09:24:13Z</time>
      </trkpt>
      <trkpt lat="44.08209" lon="3.10333">
        <ele>742.8</ele>
        <time>2019-05-31T09:24:14Z</time>
      </trkpt>
      <trkpt lat="44.0821" lon="3.1034">
        <ele>742.7</ele>
        <time>2019-05-31T09:24:15Z</time>
      </trkpt>
      <trkpt lat="44.0821" lon="3.10347">
        <ele>742.7</ele>
        <time>2019-05-31T09:24:16Z</time>
      </trkpt>
      <trkpt lat="44.0821" lon="3.10355">
        <ele>742.7</ele>
        <time>2019-05-31T09:24:17Z</time>
      </trkpt>
      <trkpt lat="44.08211" lon="3.10362">
        <ele>742.7</ele>
        <time>2019-05-31T09:24:18Z</time>
      </trkpt>
      <trkpt lat="44.08211" lon="3.1037">
        <ele>742.7</ele>
        <time>2019-05-31T09:24:19Z</time>
      </trkpt>
      <trkpt lat="44.08212" lon="3.10377">
        <ele>742.6</ele>
        <time>2019-05-31T09:24:20Z</time>
      </trkpt>
      <trkpt lat="44.08213" lon="3.10385">
        <ele>742.6</ele>
        <time>2019-05-31T09:24:21Z</time>
      </trkpt>
      <trkpt lat="44.08214" lon="3.10392">
        <ele>742.6</ele>
        <time>2019-05-31T09:24:22Z</time>
      </trkpt>
      <trkpt lat="44.08214" lon="3.104">
        <ele>742.5</ele>
        <time>2019-05-31T09:24:23Z</time>
      </trkpt>
      <trkpt lat="44.08215" lon="3.10406">
        <ele>742.4</ele>
        <time>2019-05-31T09:24:24Z</time>
      </trkpt>
      <trkpt lat="44.08216" lon="3.10413">
        <ele>742.3</ele>
        <time>2019-05-31T09:24:25Z</time>
      </trkpt>
      <trkpt lat="44.08219" lon="3.1042">
        <ele>742.2</ele>
        <time>2019-05-31T09:24:27Z</time>
      </trkpt>
      <trkpt lat="44.0822" lon="3.10424">
        <ele>742.1</ele>
        <time>2019-05-31T09:24:28Z</time>
      </trkpt>
      <trkpt lat="44.08221" lon="3.10431">
        <ele>742.1</ele>
        <time>2019-05-31T09:24:30Z</time>
      </trkpt>
      <trkpt lat="44.08223" lon="3.10437">
        <ele>742.1</ele>
        <time>2019-05-31T09:24:32Z</time>
      </trkpt>
      <trkpt lat="44.08225" lon="3.10443">
        <ele>742.1</ele>
        <time>2019-05-31T09:24:34Z</time>
      </trkpt>
      <trkpt lat="44.08226" lon="3.10449">
        <ele>742.1</ele>
        <time>2019-05-31T09:24:36Z</time>
      </trkpt>
      <trkpt lat="44.08227" lon="3.10452">
        <ele>742</ele>
        <time>2019-05-31T09:24:37Z</time>
      </trkpt>
      <trkpt lat="44.08229" lon="3.10456">
        <ele>742</ele>
        <time>2019-05-31T09:24:38Z</time>
      </trkpt>
      <trkpt lat="44.0823" lon="3.1046">
        <ele>742</ele>
        <time>2019-05-31T09:24:39Z</time>
      </trkpt>
      <trkpt lat="44.08231" lon="3.10464">
        <ele>741.9</ele>
        <time>2019-05-31T09:24:40Z</time>
      </trkpt>
      <trkpt lat="44.08233" lon="3.10469">
        <ele>741.9</ele>
        <time>2019-05-31T09:24:41Z</time>
      </trkpt>
      <trkpt lat="44.08234" lon="3.10475">
        <ele>741.8</ele>
        <time>2019-05-31T09:24:42Z</time>
      </trkpt>
      <trkpt lat="44.08237" lon="3.10483">
        <ele>741.8</ele>
        <time>2019-05-31T09:24:43Z</time>
      </trkpt>
      <trkpt lat="44.08239" lon="3.10489">
        <ele>741.9</ele>
        <time>2019-05-31T09:24:44Z</time>
      </trkpt>
      <trkpt lat="44.0824" lon="3.10495">
        <ele>742.1</ele>
        <time>2019-05-31T09:24:45Z</time>
      </trkpt>
      <trkpt lat="44.08244" lon="3.10501">
        <ele>742.4</ele>
        <time>2019-05-31T09:24:46Z</time>
      </trkpt>
      <trkpt lat="44.08245" lon="3.10508">
        <ele>742.6</ele>
        <time>2019-05-31T09:24:47Z</time>
      </trkpt>
      <trkpt lat="44.08248" lon="3.10515">
        <ele>742.8</ele>
        <time>2019-05-31T09:24:48Z</time>
      </trkpt>
      <trkpt lat="44.08249" lon="3.10522">
        <ele>743</ele>
        <time>2019-05-31T09:24:49Z</time>
      </trkpt>
      <trkpt lat="44.08251" lon="3.1053">
        <ele>743.1</ele>
        <time>2019-05-31T09:24:50Z</time>
      </trkpt>
      <trkpt lat="44.08252" lon="3.10536">
        <ele>743.1</ele>
        <time>2019-05-31T09:24:51Z</time>
      </trkpt>
      <trkpt lat="44.08253" lon="3.10543">
        <ele>743.1</ele>
        <time>2019-05-31T09:24:52Z</time>
      </trkpt>
      <trkpt lat="44.08253" lon="3.10548">
        <ele>743.1</ele>
        <time>2019-05-31T09:24:53Z</time>
      </trkpt>
      <trkpt lat="44.08257" lon="3.10553">
        <ele>743.1</ele>
        <time>2019-05-31T09:24:54Z</time>
      </trkpt>
      <trkpt lat="44.08258" lon="3.10558">
        <ele>743.1</ele>
        <time>2019-05-31T09:24:55Z</time>
      </trkpt>
      <trkpt lat="44.08259" lon="3.10562">
        <ele>743.7</ele>
        <time>2019-05-31T09:24:56Z</time>
      </trkpt>
      <trkpt lat="44.0826" lon="3.10568">
        <ele>744.1</ele>
        <time>2019-05-31T09:24:57Z</time>
      </trkpt>
      <trkpt lat="44.0826" lon="3.10573">
        <ele>744.4</ele>
        <time>2019-05-31T09:24:58Z</time>
      </trkpt>
      <trkpt lat="44.08261" lon="3.10578">
        <ele>744.7</ele>
        <time>2019-05-31T09:24:59Z</time>
      </trkpt>
      <trkpt lat="44.08262" lon="3.10583">
        <ele>745</ele>
        <time>2019-05-31T09:25:00Z</time>
      </trkpt>
      <trkpt lat="44.08263" lon="3.10587">
        <ele>745.2</ele>
        <time>2019-05-31T09:25:01Z</time>
      </trkpt>
      <trkpt lat="44.08265" lon="3.10593">
        <ele>745.5</ele>
        <time>2019-05-31T09:25:03Z</time>
      </trkpt>
      <trkpt lat="44.08269" lon="3.10598">
        <ele>745.7</ele>
        <time>2019-05-31T09:25:05Z</time>
      </trkpt>
      <trkpt lat="44.08274" lon="3.10601">
        <ele>746</ele>
        <time>2019-05-31T09:25:07Z</time>
      </trkpt>
      <trkpt lat="44.08276" lon="3.10602">
        <ele>746.2</ele>
        <time>2019-05-31T09:25:08Z</time>
      </trkpt>
      <trkpt lat="44.08279" lon="3.10604">
        <ele>746.3</ele>
        <time>2019-05-31T09:25:09Z</time>
      </trkpt>
      <trkpt lat="44.08281" lon="3.10606">
        <ele>746.4</ele>
        <time>2019-05-31T09:25:10Z</time>
      </trkpt>
      <trkpt lat="44.08285" lon="3.10611">
        <ele>746.6</ele>
        <time>2019-05-31T09:25:12Z</time>
      </trkpt>
      <trkpt lat="44.08287" lon="3.10616">
        <ele>746.9</ele>
        <time>2019-05-31T09:25:14Z</time>
      </trkpt>
      <trkpt lat="44.08289" lon="3.1062">
        <ele>747</ele>
        <time>2019-05-31T09:25:15Z</time>
      </trkpt>
      <trkpt lat="44.0829" lon="3.10624">
        <ele>747.2</ele>
        <time>2019-05-31T09:25:16Z</time>
      </trkpt>
      <trkpt lat="44.08291" lon="3.10628">
        <ele>747.4</ele>
        <time>2019-05-31T09:25:17Z</time>
      </trkpt>
      <trkpt lat="44.08293" lon="3.10635">
        <ele>747.6</ele>
        <time>2019-05-31T09:25:19Z</time>
      </trkpt>
      <trkpt lat="44.08295" lon="3.10638">
        <ele>747.7</ele>
        <time>2019-05-31T09:25:21Z</time>
      </trkpt>
      <trkpt lat="44.08298" lon="3.10639">
        <ele>747.8</ele>
        <time>2019-05-31T09:25:24Z</time>
      </trkpt>
      <trkpt lat="44.08299" lon="3.10644">
        <ele>747.9</ele>
        <time>2019-05-31T09:25:48Z</time>
      </trkpt>
      <trkpt lat="44.08299" lon="3.10649">
        <ele>749.4</ele>
        <time>2019-05-31T09:25:50Z</time>
      </trkpt>
      <trkpt lat="44.08298" lon="3.10654">
        <ele>752.1</ele>
        <time>2019-05-31T09:25:52Z</time>
      </trkpt>
      <trkpt lat="44.08296" lon="3.10658">
        <ele>754.3</ele>
        <time>2019-05-31T09:25:53Z</time>
      </trkpt>
      <trkpt lat="44.08294" lon="3.10661">
        <ele>755.3</ele>
        <time>2019-05-31T09:25:54Z</time>
      </trkpt>
      <trkpt lat="44.0829" lon="3.10666">
        <ele>757.1</ele>
        <time>2019-05-31T09:25:56Z</time>
      </trkpt>
      <trkpt lat="44.08286" lon="3.1067">
        <ele>759.3</ele>
        <time>2019-05-31T09:25:58Z</time>
      </trkpt>
      <trkpt lat="44.08282" lon="3.10674">
        <ele>762.1</ele>
        <time>2019-05-31T09:26:00Z</time>
      </trkpt>
      <trkpt lat="44.08279" lon="3.10676">
        <ele>763</ele>
        <time>2019-05-31T09:26:01Z</time>
      </trkpt>
      <trkpt lat="44.08275" lon="3.1068">
        <ele>764.3</ele>
        <time>2019-05-31T09:26:03Z</time>
      </trkpt>
      <trkpt lat="44.08273" lon="3.10684">
        <ele>765.3</ele>
        <time>2019-05-31T09:26:04Z</time>
      </trkpt>
      <trkpt lat="44.08271" lon="3.10689">
        <ele>766.3</ele>
        <time>2019-05-31T09:26:05Z</time>
      </trkpt>
      <trkpt lat="44.08269" lon="3.10693">
        <ele>766.8</ele>
        <time>2019-05-31T09:26:06Z</time>
      </trkpt>
      <trkpt lat="44.08267" lon="3.10696">
        <ele>766.9</ele>
        <time>2019-05-31T09:26:07Z</time>
      </trkpt>
      <trkpt lat="44.08265" lon="3.10699">
        <ele>767.1</ele>
        <time>2019-05-31T09:26:08Z</time>
      </trkpt>
      <trkpt lat="44.08263" lon="3.10702">
        <ele>767</ele>
        <time>2019-05-31T09:26:09Z</time>
      </trkpt>
      <trkpt lat="44.08261" lon="3.10705">
        <ele>766.8</ele>
        <time>2019-05-31T09:26:10Z</time>
      </trkpt>
      <trkpt lat="44.08258" lon="3.10711">
        <ele>766.4</ele>
        <time>2019-05-31T09:26:11Z</time>
      </trkpt>
      <trkpt lat="44.08257" lon="3.10716">
        <ele>765.9</ele>
        <time>2019-05-31T09:26:12Z</time>
      </trkpt>
      <trkpt lat="44.08254" lon="3.10722">
        <ele>765.5</ele>
        <time>2019-05-31T09:26:13Z</time>
      </trkpt>
      <trkpt lat="44.08252" lon="3.10727">
        <ele>765.1</ele>
        <time>2019-05-31T09:26:14Z</time>
      </trkpt>
      <trkpt lat="44.08248" lon="3.10732">
        <ele>764.8</ele>
        <time>2019-05-31T09:26:15Z</time>
      </trkpt>
      <trkpt lat="44.08245" lon="3.10735">
        <ele>764.6</ele>
        <time>2019-05-31T09:26:16Z</time>
      </trkpt>
      <trkpt lat="44.08242" lon="3.10738">
        <ele>764.4</ele>
        <time>2019-05-31T09:26:17Z</time>
      </trkpt>
      <trkpt lat="44.0824" lon="3.10741">
        <ele>764.4</ele>
        <time>2019-05-31T09:26:18Z</time>
      </trkpt>
      <trkpt lat="44.08237" lon="3.10745">
        <ele>764.3</ele>
        <time>2019-05-31T09:26:19Z</time>
      </trkpt>
      <trkpt lat="44.08235" lon="3.10748">
        <ele>764.2</ele>
        <time>2019-05-31T09:26:20Z</time>
      </trkpt>
      <trkpt lat="44.08233" lon="3.10751">
        <ele>764.2</ele>
        <time>2019-05-31T09:26:22Z</time>
      </trkpt>
      <trkpt lat="44.0823" lon="3.10756">
        <ele>764.2</ele>
        <time>2019-05-31T09:26:24Z</time>
      </trkpt>
      <trkpt lat="44.08227" lon="3.1076">
        <ele>764.2</ele>
        <time>2019-05-31T09:26:26Z</time>
      </trkpt>
      <trkpt lat="44.08225" lon="3.10763">
        <ele>764.2</ele>
        <time>2019-05-31T09:26:29Z</time>
      </trkpt>
      <trkpt lat="44.08223" lon="3.10768">
        <ele>764.3</ele>
        <time>2019-05-31T09:26:35Z</time>
      </trkpt>
      <trkpt lat="44.08221" lon="3.10771">
        <ele>764.3</ele>
        <time>2019-05-31T09:26:38Z</time>
      </trkpt>
      <trkpt lat="44.08221" lon="3.10775">
        <ele>764.3</ele>
        <time>2019-05-31T09:26:41Z</time>
      </trkpt>
      <trkpt lat="44.08219" lon="3.10777">
        <ele>764.3</ele>
        <time>2019-05-31T09:26:45Z</time>
      </trkpt>
      <trkpt lat="44.08216" lon="3.10779">
        <ele>764.4</ele>
        <time>2019-05-31T09:26:48Z</time>
      </trkpt>
      <trkpt lat="44.08213" lon="3.10781">
        <ele>764.4</ele>
        <time>2019-05-31T09:26:53Z</time>
      </trkpt>
      <trkpt lat="44.08207" lon="3.10784">
        <ele>764.4</ele>
        <time>2019-05-31T09:27:13Z</time>
      </trkpt>
      <trkpt lat="44.08204" lon="3.10787">
        <ele>764.4</ele>
        <time>2019-05-31T09:27:14Z</time>
      </trkpt>
      <trkpt lat="44.08201" lon="3.10788">
        <ele>764.4</ele>
        <time>2019-05-31T09:27:16Z</time>
      </trkpt>
      <trkpt lat="44.08198" lon="3.1079">
        <ele>764.4</ele>
        <time>2019-05-31T09:27:21Z</time>
      </trkpt>
      <trkpt lat="44.08195" lon="3.10791">
        <ele>764.4</ele>
        <time>2019-05-31T09:27:30Z</time>
      </trkpt>
      <trkpt lat="44.08192" lon="3.10792">
        <ele>764.4</ele>
        <time>2019-05-31T09:27:34Z</time>
      </trkpt>
      <trkpt lat="44.08189" lon="3.10793">
        <ele>764.4</ele>
        <time>2019-05-31T09:27:37Z</time>
      </trkpt>
      <trkpt lat="44.08186" lon="3.10793">
        <ele>764.4</ele>
        <time>2019-05-31T09:27:42Z</time>
      </trkpt>
      <trkpt lat="44.08184" lon="3.1079">
        <ele>764.4</ele>
        <time>2019-05-31T09:27:44Z</time>
      </trkpt>
      <trkpt lat="44.08181" lon="3.10789">
        <ele>764.4</ele>
        <time>2019-05-31T09:27:46Z</time>
      </trkpt>
      <trkpt lat="44.08178" lon="3.1079">
        <ele>764.4</ele>
        <time>2019-05-31T09:27:47Z</time>
      </trkpt>
      <trkpt lat="44.08173" lon="3.10793">
        <ele>764.4</ele>
        <time>2019-05-31T09:27:49Z</time>
      </trkpt>
      <trkpt lat="44.08168" lon="3.10795">
        <ele>764.4</ele>
        <time>2019-05-31T09:27:50Z</time>
      </trkpt>
      <trkpt lat="44.08164" lon="3.10797">
        <ele>764.3</ele>
        <time>2019-05-31T09:27:51Z</time>
      </trkpt>
      <trkpt lat="44.08158" lon="3.10802">
        <ele>764.2</ele>
        <time>2019-05-31T09:27:52Z</time>
      </trkpt>
      <trkpt lat="44.08153" lon="3.10803">
        <ele>764.2</ele>
        <time>2019-05-31T09:27:53Z</time>
      </trkpt>
      <trkpt lat="44.08149" lon="3.10807">
        <ele>764.1</ele>
        <time>2019-05-31T09:27:54Z</time>
      </trkpt>
      <trkpt lat="44.08143" lon="3.1081">
        <ele>764</ele>
        <time>2019-05-31T09:27:55Z</time>
      </trkpt>
      <trkpt lat="44.08137" lon="3.1081">
        <ele>763.9</ele>
        <time>2019-05-31T09:27:56Z</time>
      </trkpt>
      <trkpt lat="44.08132" lon="3.10811">
        <ele>763.9</ele>
        <time>2019-05-31T09:27:57Z</time>
      </trkpt>
      <trkpt lat="44.08127" lon="3.10813">
        <ele>763.8</ele>
        <time>2019-05-31T09:27:58Z</time>
      </trkpt>
      <trkpt lat="44.08124" lon="3.10818">
        <ele>763.8</ele>
        <time>2019-05-31T09:27:59Z</time>
      </trkpt>
      <trkpt lat="44.08123" lon="3.10823">
        <ele>763.8</ele>
        <time>2019-05-31T09:28:00Z</time>
      </trkpt>
      <trkpt lat="44.08123" lon="3.10828">
        <ele>763.8</ele>
        <time>2019-05-31T09:28:01Z</time>
      </trkpt>
      <trkpt lat="44.08121" lon="3.10833">
        <ele>763.3</ele>
        <time>2019-05-31T09:28:02Z</time>
      </trkpt>
      <trkpt lat="44.08119" lon="3.10837">
        <ele>763.2</ele>
        <time>2019-05-31T09:28:03Z</time>
      </trkpt>
      <trkpt lat="44.08117" lon="3.10841">
        <ele>763.1</ele>
        <time>2019-05-31T09:28:05Z</time>
      </trkpt>
      <trkpt lat="44.08116" lon="3.10845">
        <ele>763</ele>
        <time>2019-05-31T09:28:07Z</time>
      </trkpt>
      <trkpt lat="44.08115" lon="3.1085">
        <ele>762.8</ele>
        <time>2019-05-31T09:28:09Z</time>
      </trkpt>
      <trkpt lat="44.08112" lon="3.10855">
        <ele>762.7</ele>
        <time>2019-05-31T09:28:11Z</time>
      </trkpt>
      <trkpt lat="44.0811" lon="3.10858">
        <ele>762.7</ele>
        <time>2019-05-31T09:28:13Z</time>
      </trkpt>
      <trkpt lat="44.08108" lon="3.10861">
        <ele>762.6</ele>
        <time>2019-05-31T09:28:15Z</time>
      </trkpt>
      <trkpt lat="44.08107" lon="3.10865">
        <ele>762.5</ele>
        <time>2019-05-31T09:28:16Z</time>
      </trkpt>
      <trkpt lat="44.08106" lon="3.1087">
        <ele>762.5</ele>
        <time>2019-05-31T09:28:17Z</time>
      </trkpt>
      <trkpt lat="44.08106" lon="3.10875">
        <ele>762.4</ele>
        <time>2019-05-31T09:28:18Z</time>
      </trkpt>
      <trkpt lat="44.08106" lon="3.1088">
        <ele>762.3</ele>
        <time>2019-05-31T09:28:19Z</time>
      </trkpt>
      <trkpt lat="44.08106" lon="3.10885">
        <ele>762.3</ele>
        <time>2019-05-31T09:28:20Z</time>
      </trkpt>
      <trkpt lat="44.08107" lon="3.10891">
        <ele>762.2</ele>
        <time>2019-05-31T09:28:21Z</time>
      </trkpt>
      <trkpt lat="44.08107" lon="3.10898">
        <ele>762.1</ele>
        <time>2019-05-31T09:28:22Z</time>
      </trkpt>
      <trkpt lat="44.08107" lon="3.10904">
        <ele>762</ele>
        <time>2019-05-31T09:28:23Z</time>
      </trkpt>
      <trkpt lat="44.08106" lon="3.1091">
        <ele>761.9</ele>
        <time>2019-05-31T09:28:24Z</time>
      </trkpt>
      <trkpt lat="44.08104" lon="3.10916">
        <ele>761.8</ele>
        <time>2019-05-31T09:28:25Z</time>
      </trkpt>
      <trkpt lat="44.08102" lon="3.1092">
        <ele>761.8</ele>
        <time>2019-05-31T09:28:26Z</time>
      </trkpt>
      <trkpt lat="44.081" lon="3.10923">
        <ele>761.8</ele>
        <time>2019-05-31T09:28:27Z</time>
      </trkpt>
      <trkpt lat="44.08098" lon="3.10926">
        <ele>761.7</ele>
        <time>2019-05-31T09:28:28Z</time>
      </trkpt>
      <trkpt lat="44.08096" lon="3.10928">
        <ele>761.6</ele>
        <time>2019-05-31T09:28:29Z</time>
      </trkpt>
      <trkpt lat="44.08092" lon="3.1093">
        <ele>761.6</ele>
        <time>2019-05-31T09:28:31Z</time>
      </trkpt>
      <trkpt lat="44.08087" lon="3.10931">
        <ele>761.5</ele>
        <time>2019-05-31T09:28:33Z</time>
      </trkpt>
      <trkpt lat="44.08083" lon="3.10933">
        <ele>761.5</ele>
        <time>2019-05-31T09:28:35Z</time>
      </trkpt>
      <trkpt lat="44.0808" lon="3.10938">
        <ele>761.5</ele>
        <time>2019-05-31T09:28:37Z</time>
      </trkpt>
      <trkpt lat="44.08078" lon="3.10942">
        <ele>761.5</ele>
        <time>2019-05-31T09:28:39Z</time>
      </trkpt>
      <trkpt lat="44.08076" lon="3.10945">
        <ele>761.3</ele>
        <time>2019-05-31T09:28:41Z</time>
      </trkpt>
      <trkpt lat="44.08073" lon="3.10944">
        <ele>761.3</ele>
        <time>2019-05-31T09:28:50Z</time>
      </trkpt>
      <trkpt lat="44.08069" lon="3.10947">
        <ele>761.3</ele>
        <time>2019-05-31T09:28:52Z</time>
      </trkpt>
      <trkpt lat="44.08067" lon="3.10951">
        <ele>761.2</ele>
        <time>2019-05-31T09:28:53Z</time>
      </trkpt>
      <trkpt lat="44.08066" lon="3.10955">
        <ele>761.1</ele>
        <time>2019-05-31T09:28:54Z</time>
      </trkpt>
      <trkpt lat="44.08066" lon="3.1096">
        <ele>761</ele>
        <time>2019-05-31T09:28:55Z</time>
      </trkpt>
      <trkpt lat="44.08065" lon="3.10966">
        <ele>761</ele>
        <time>2019-05-31T09:28:56Z</time>
      </trkpt>
      <trkpt lat="44.08067" lon="3.10983">
        <ele>760.7</ele>
        <time>2019-05-31T09:28:57Z</time>
      </trkpt>
      <trkpt lat="44.08065" lon="3.10987">
        <ele>760.7</ele>
        <time>2019-05-31T09:28:58Z</time>
      </trkpt>
      <trkpt lat="44.08065" lon="3.10994">
        <ele>760.6</ele>
        <time>2019-05-31T09:28:59Z</time>
      </trkpt>
      <trkpt lat="44.08065" lon="3.11">
        <ele>760.5</ele>
        <time>2019-05-31T09:29:00Z</time>
      </trkpt>
      <trkpt lat="44.08064" lon="3.11005">
        <ele>760.4</ele>
        <time>2019-05-31T09:29:01Z</time>
      </trkpt>
      <trkpt lat="44.08063" lon="3.1101">
        <ele>760.3</ele>
        <time>2019-05-31T09:29:03Z</time>
      </trkpt>
      <trkpt lat="44.08064" lon="3.11014">
        <ele>760.2</ele>
        <time>2019-05-31T09:29:04Z</time>
      </trkpt>
      <trkpt lat="44.08065" lon="3.11021">
        <ele>760</ele>
        <time>2019-05-31T09:29:05Z</time>
      </trkpt>
      <trkpt lat="44.08064" lon="3.11027">
        <ele>759.8</ele>
        <time>2019-05-31T09:29:06Z</time>
      </trkpt>
      <trkpt lat="44.08064" lon="3.11037">
        <ele>759.6</ele>
        <time>2019-05-31T09:29:07Z</time>
      </trkpt>
      <trkpt lat="44.08063" lon="3.11042">
        <ele>759.6</ele>
        <time>2019-05-31T09:29:08Z</time>
      </trkpt>
      <trkpt lat="44.08062" lon="3.11046">
        <ele>759.4</ele>
        <time>2019-05-31T09:29:09Z</time>
      </trkpt>
      <trkpt lat="44.0806" lon="3.11052">
        <ele>759.3</ele>
        <time>2019-05-31T09:29:11Z</time>
      </trkpt>
      <trkpt lat="44.08059" lon="3.11056">
        <ele>759.2</ele>
        <time>2019-05-31T09:29:12Z</time>
      </trkpt>
      <trkpt lat="44.08059" lon="3.1106">
        <ele>759.1</ele>
        <time>2019-05-31T09:29:13Z</time>
      </trkpt>
      <trkpt lat="44.08059" lon="3.11065">
        <ele>759</ele>
        <time>2019-05-31T09:29:14Z</time>
      </trkpt>
      <trkpt lat="44.08058" lon="3.1107">
        <ele>758.9</ele>
        <time>2019-05-31T09:29:15Z</time>
      </trkpt>
      <trkpt lat="44.08058" lon="3.11075">
        <ele>758.7</ele>
        <time>2019-05-31T09:29:16Z</time>
      </trkpt>
      <trkpt lat="44.08058" lon="3.1108">
        <ele>758.7</ele>
        <time>2019-05-31T09:29:17Z</time>
      </trkpt>
      <trkpt lat="44.08058" lon="3.11085">
        <ele>758.6</ele>
        <time>2019-05-31T09:29:18Z</time>
      </trkpt>
      <trkpt lat="44.08058" lon="3.11091">
        <ele>758.5</ele>
        <time>2019-05-31T09:29:19Z</time>
      </trkpt>
      <trkpt lat="44.08059" lon="3.11098">
        <ele>758.4</ele>
        <time>2019-05-31T09:29:20Z</time>
      </trkpt>
      <trkpt lat="44.08059" lon="3.11103">
        <ele>758.3</ele>
        <time>2019-05-31T09:29:21Z</time>
      </trkpt>
      <trkpt lat="44.0806" lon="3.11108">
        <ele>758.2</ele>
        <time>2019-05-31T09:29:22Z</time>
      </trkpt>
      <trkpt lat="44.08061" lon="3.11112">
        <ele>758.1</ele>
        <time>2019-05-31T09:29:23Z</time>
      </trkpt>
      <trkpt lat="44.08061" lon="3.11117">
        <ele>758.1</ele>
        <time>2019-05-31T09:29:24Z</time>
      </trkpt>
      <trkpt lat="44.0806" lon="3.11121">
        <ele>758</ele>
        <time>2019-05-31T09:29:25Z</time>
      </trkpt>
      <trkpt lat="44.08057" lon="3.11129">
        <ele>757.9</ele>
        <time>2019-05-31T09:29:27Z</time>
      </trkpt>
      <trkpt lat="44.08056" lon="3.11134">
        <ele>757.8</ele>
        <time>2019-05-31T09:29:28Z</time>
      </trkpt>
      <trkpt lat="44.08055" lon="3.1114">
        <ele>757.7</ele>
        <time>2019-05-31T09:29:29Z</time>
      </trkpt>
      <trkpt lat="44.08054" lon="3.11146">
        <ele>757.7</ele>
        <time>2019-05-31T09:29:30Z</time>
      </trkpt>
      <trkpt lat="44.08053" lon="3.11152">
        <ele>757.6</ele>
        <time>2019-05-31T09:29:31Z</time>
      </trkpt>
      <trkpt lat="44.08051" lon="3.11157">
        <ele>757.5</ele>
        <time>2019-05-31T09:29:32Z</time>
      </trkpt>
      <trkpt lat="44.08049" lon="3.11161">
        <ele>757.5</ele>
        <time>2019-05-31T09:29:33Z</time>
      </trkpt>
      <trkpt lat="44.08046" lon="3.11166">
        <ele>757.4</ele>
        <time>2019-05-31T09:29:34Z</time>
      </trkpt>
      <trkpt lat="44.08043" lon="3.11171">
        <ele>757.3</ele>
        <time>2019-05-31T09:29:35Z</time>
      </trkpt>
      <trkpt lat="44.08041" lon="3.11178">
        <ele>757.1</ele>
        <time>2019-05-31T09:29:36Z</time>
      </trkpt>
      <trkpt lat="44.08036" lon="3.11193">
        <ele>756.9</ele>
        <time>2019-05-31T09:29:37Z</time>
      </trkpt>
      <trkpt lat="44.08036" lon="3.11199">
        <ele>756.9</ele>
        <time>2019-05-31T09:29:38Z</time>
      </trkpt>
      <trkpt lat="44.08035" lon="3.11204">
        <ele>756.8</ele>
        <time>2019-05-31T09:29:39Z</time>
      </trkpt>
      <trkpt lat="44.08033" lon="3.11207">
        <ele>756.7</ele>
        <time>2019-05-31T09:29:40Z</time>
      </trkpt>
      <trkpt lat="44.0803" lon="3.11212">
        <ele>756.6</ele>
        <time>2019-05-31T09:29:41Z</time>
      </trkpt>
      <trkpt lat="44.08028" lon="3.11216">
        <ele>756.5</ele>
        <time>2019-05-31T09:29:42Z</time>
      </trkpt>
      <trkpt lat="44.08028" lon="3.11222">
        <ele>756.5</ele>
        <time>2019-05-31T09:29:43Z</time>
      </trkpt>
      <trkpt lat="44.08028" lon="3.11226">
        <ele>756.4</ele>
        <time>2019-05-31T09:29:44Z</time>
      </trkpt>
      <trkpt lat="44.08023" lon="3.11229">
        <ele>756.4</ele>
        <time>2019-05-31T09:29:45Z</time>
      </trkpt>
      <trkpt lat="44.08024" lon="3.11238">
        <ele>756.3</ele>
        <time>2019-05-31T09:29:46Z</time>
      </trkpt>
      <trkpt lat="44.08021" lon="3.11242">
        <ele>756.3</ele>
        <time>2019-05-31T09:29:47Z</time>
      </trkpt>
      <trkpt lat="44.08018" lon="3.11247">
        <ele>756.3</ele>
        <time>2019-05-31T09:29:48Z</time>
      </trkpt>
      <trkpt lat="44.08016" lon="3.11252">
        <ele>756.3</ele>
        <time>2019-05-31T09:29:49Z</time>
      </trkpt>
      <trkpt lat="44.08013" lon="3.11254">
        <ele>756.2</ele>
        <time>2019-05-31T09:29:50Z</time>
      </trkpt>
      <trkpt lat="44.08011" lon="3.1126">
        <ele>756.2</ele>
        <time>2019-05-31T09:29:51Z</time>
      </trkpt>
      <trkpt lat="44.08007" lon="3.11269">
        <ele>756.2</ele>
        <time>2019-05-31T09:29:52Z</time>
      </trkpt>
      <trkpt lat="44.08002" lon="3.11272">
        <ele>756.1</ele>
        <time>2019-05-31T09:29:53Z</time>
      </trkpt>
      <trkpt lat="44.08" lon="3.11276">
        <ele>756.1</ele>
        <time>2019-05-31T09:29:54Z</time>
      </trkpt>
      <trkpt lat="44.07997" lon="3.11279">
        <ele>756.1</ele>
        <time>2019-05-31T09:29:55Z</time>
      </trkpt>
      <trkpt lat="44.07993" lon="3.11284">
        <ele>756</ele>
        <time>2019-05-31T09:29:56Z</time>
      </trkpt>
      <trkpt lat="44.07989" lon="3.11289">
        <ele>756</ele>
        <time>2019-05-31T09:29:57Z</time>
      </trkpt>
      <trkpt lat="44.07987" lon="3.11305">
        <ele>755.8</ele>
        <time>2019-05-31T09:29:58Z</time>
      </trkpt>
      <trkpt lat="44.07984" lon="3.1131">
        <ele>755.7</ele>
        <time>2019-05-31T09:29:59Z</time>
      </trkpt>
      <trkpt lat="44.07979" lon="3.11316">
        <ele>755.6</ele>
        <time>2019-05-31T09:30:00Z</time>
      </trkpt>
      <trkpt lat="44.07973" lon="3.11322">
        <ele>755.4</ele>
        <time>2019-05-31T09:30:01Z</time>
      </trkpt>
      <trkpt lat="44.07967" lon="3.11325">
        <ele>755.2</ele>
        <time>2019-05-31T09:30:02Z</time>
      </trkpt>
      <trkpt lat="44.0796" lon="3.11329">
        <ele>755.1</ele>
        <time>2019-05-31T09:30:03Z</time>
      </trkpt>
      <trkpt lat="44.07956" lon="3.11333">
        <ele>754.9</ele>
        <time>2019-05-31T09:30:04Z</time>
      </trkpt>
      <trkpt lat="44.07953" lon="3.11338">
        <ele>754.8</ele>
        <time>2019-05-31T09:30:05Z</time>
      </trkpt>
      <trkpt lat="44.0795" lon="3.11341">
        <ele>754.7</ele>
        <time>2019-05-31T09:30:06Z</time>
      </trkpt>
      <trkpt lat="44.07946" lon="3.11346">
        <ele>754.7</ele>
        <time>2019-05-31T09:30:07Z</time>
      </trkpt>
      <trkpt lat="44.07944" lon="3.1135">
        <ele>754.6</ele>
        <time>2019-05-31T09:30:08Z</time>
      </trkpt>
      <trkpt lat="44.07943" lon="3.11356">
        <ele>754.6</ele>
        <time>2019-05-31T09:30:09Z</time>
      </trkpt>
      <trkpt lat="44.07942" lon="3.11361">
        <ele>754.5</ele>
        <time>2019-05-31T09:30:10Z</time>
      </trkpt>
      <trkpt lat="44.0794" lon="3.11366">
        <ele>754.5</ele>
        <time>2019-05-31T09:30:11Z</time>
      </trkpt>
      <trkpt lat="44.07938" lon="3.11373">
        <ele>754.5</ele>
        <time>2019-05-31T09:30:12Z</time>
      </trkpt>
      <trkpt lat="44.07936" lon="3.11381">
        <ele>754.5</ele>
        <time>2019-05-31T09:30:13Z</time>
      </trkpt>
      <trkpt lat="44.07934" lon="3.11386">
        <ele>754.5</ele>
        <time>2019-05-31T09:30:14Z</time>
      </trkpt>
      <trkpt lat="44.07932" lon="3.11393">
        <ele>754.5</ele>
        <time>2019-05-31T09:30:15Z</time>
      </trkpt>
      <trkpt lat="44.07931" lon="3.11402">
        <ele>754.6</ele>
        <time>2019-05-31T09:30:16Z</time>
      </trkpt>
      <trkpt lat="44.07932" lon="3.11408">
        <ele>754.6</ele>
        <time>2019-05-31T09:30:17Z</time>
      </trkpt>
      <trkpt lat="44.07927" lon="3.11413">
        <ele>754.6</ele>
        <time>2019-05-31T09:30:18Z</time>
      </trkpt>
      <trkpt lat="44.07926" lon="3.11417">
        <ele>754.6</ele>
        <time>2019-05-31T09:30:19Z</time>
      </trkpt>
      <trkpt lat="44.07926" lon="3.11422">
        <ele>754.6</ele>
        <time>2019-05-31T09:30:20Z</time>
      </trkpt>
      <trkpt lat="44.07925" lon="3.11425">
        <ele>754.6</ele>
        <time>2019-05-31T09:30:21Z</time>
      </trkpt>
      <trkpt lat="44.07925" lon="3.11432">
        <ele>754.7</ele>
        <time>2019-05-31T09:30:22Z</time>
      </trkpt>
      <trkpt lat="44.07925" lon="3.11436">
        <ele>754.7</ele>
        <time>2019-05-31T09:30:23Z</time>
      </trkpt>
      <trkpt lat="44.07924" lon="3.1144">
        <ele>754.7</ele>
        <time>2019-05-31T09:30:24Z</time>
      </trkpt>
      <trkpt lat="44.07924" lon="3.11445">
        <ele>754.6</ele>
        <time>2019-05-31T09:30:25Z</time>
      </trkpt>
      <trkpt lat="44.07923" lon="3.1145">
        <ele>754.6</ele>
        <time>2019-05-31T09:30:26Z</time>
      </trkpt>
      <trkpt lat="44.07922" lon="3.11455">
        <ele>754.6</ele>
        <time>2019-05-31T09:30:27Z</time>
      </trkpt>
      <trkpt lat="44.0792" lon="3.11459">
        <ele>754.6</ele>
        <time>2019-05-31T09:30:28Z</time>
      </trkpt>
      <trkpt lat="44.07918" lon="3.11463">
        <ele>754.5</ele>
        <time>2019-05-31T09:30:29Z</time>
      </trkpt>
      <trkpt lat="44.07916" lon="3.11467">
        <ele>754.5</ele>
        <time>2019-05-31T09:30:30Z</time>
      </trkpt>
      <trkpt lat="44.07915" lon="3.1147">
        <ele>754.5</ele>
        <time>2019-05-31T09:30:31Z</time>
      </trkpt>
      <trkpt lat="44.07912" lon="3.11474">
        <ele>754.5</ele>
        <time>2019-05-31T09:30:33Z</time>
      </trkpt>
      <trkpt lat="44.07911" lon="3.11477">
        <ele>754.5</ele>
        <time>2019-05-31T09:30:35Z</time>
      </trkpt>
      <trkpt lat="44.07912" lon="3.11481">
        <ele>754.4</ele>
        <time>2019-05-31T09:30:38Z</time>
      </trkpt>
      <trkpt lat="44.07913" lon="3.11484">
        <ele>754.4</ele>
        <time>2019-05-31T09:31:13Z</time>
      </trkpt>
      <trkpt lat="44.07915" lon="3.11488">
        <ele>754.4</ele>
        <time>2019-05-31T09:31:15Z</time>
      </trkpt>
      <trkpt lat="44.07918" lon="3.11494">
        <ele>754.3</ele>
        <time>2019-05-31T09:31:17Z</time>
      </trkpt>
      <trkpt lat="44.07919" lon="3.11498">
        <ele>754.3</ele>
        <time>2019-05-31T09:31:18Z</time>
      </trkpt>
      <trkpt lat="44.0792" lon="3.11501">
        <ele>754.3</ele>
        <time>2019-05-31T09:31:19Z</time>
      </trkpt>
      <trkpt lat="44.07922" lon="3.11505">
        <ele>754.3</ele>
        <time>2019-05-31T09:31:20Z</time>
      </trkpt>
      <trkpt lat="44.07923" lon="3.11508">
        <ele>754.2</ele>
        <time>2019-05-31T09:31:21Z</time>
      </trkpt>
      <trkpt lat="44.07925" lon="3.11512">
        <ele>754.2</ele>
        <time>2019-05-31T09:31:22Z</time>
      </trkpt>
      <trkpt lat="44.07926" lon="3.11516">
        <ele>754.2</ele>
        <time>2019-05-31T09:31:23Z</time>
      </trkpt>
      <trkpt lat="44.07928" lon="3.1152">
        <ele>754.2</ele>
        <time>2019-05-31T09:31:24Z</time>
      </trkpt>
      <trkpt lat="44.07929" lon="3.11525">
        <ele>754.1</ele>
        <time>2019-05-31T09:31:25Z</time>
      </trkpt>
      <trkpt lat="44.0793" lon="3.11531">
        <ele>754</ele>
        <time>2019-05-31T09:31:26Z</time>
      </trkpt>
      <trkpt lat="44.07931" lon="3.11538">
        <ele>753.9</ele>
        <time>2019-05-31T09:31:27Z</time>
      </trkpt>
      <trkpt lat="44.07929" lon="3.11547">
        <ele>753.7</ele>
        <time>2019-05-31T09:31:28Z</time>
      </trkpt>
      <trkpt lat="44.0793" lon="3.11553">
        <ele>753.6</ele>
        <time>2019-05-31T09:31:29Z</time>
      </trkpt>
      <trkpt lat="44.07931" lon="3.11559">
        <ele>753.5</ele>
        <time>2019-05-31T09:31:30Z</time>
      </trkpt>
      <trkpt lat="44.07932" lon="3.11567">
        <ele>753.3</ele>
        <time>2019-05-31T09:31:31Z</time>
      </trkpt>
      <trkpt lat="44.07933" lon="3.11574">
        <ele>753.1</ele>
        <time>2019-05-31T09:31:32Z</time>
      </trkpt>
      <trkpt lat="44.07934" lon="3.11581">
        <ele>752.9</ele>
        <time>2019-05-31T09:31:33Z</time>
      </trkpt>
      <trkpt lat="44.07937" lon="3.11589">
        <ele>752.6</ele>
        <time>2019-05-31T09:31:34Z</time>
      </trkpt>
      <trkpt lat="44.07939" lon="3.11597">
        <ele>752.4</ele>
        <time>2019-05-31T09:31:35Z</time>
      </trkpt>
      <trkpt lat="44.07941" lon="3.11605">
        <ele>752.2</ele>
        <time>2019-05-31T09:31:36Z</time>
      </trkpt>
      <trkpt lat="44.07943" lon="3.11614">
        <ele>752</ele>
        <time>2019-05-31T09:31:37Z</time>
      </trkpt>
      <trkpt lat="44.07947" lon="3.11623">
        <ele>751.9</ele>
        <time>2019-05-31T09:31:38Z</time>
      </trkpt>
      <trkpt lat="44.07951" lon="3.11633">
        <ele>751.7</ele>
        <time>2019-05-31T09:31:39Z</time>
      </trkpt>
      <trkpt lat="44.07953" lon="3.11643">
        <ele>751.6</ele>
        <time>2019-05-31T09:31:40Z</time>
      </trkpt>
      <trkpt lat="44.07954" lon="3.11651">
        <ele>751.5</ele>
        <time>2019-05-31T09:31:41Z</time>
      </trkpt>
      <trkpt lat="44.07956" lon="3.1166">
        <ele>751.3</ele>
        <time>2019-05-31T09:31:42Z</time>
      </trkpt>
      <trkpt lat="44.07958" lon="3.11671">
        <ele>751.2</ele>
        <time>2019-05-31T09:31:43Z</time>
      </trkpt>
      <trkpt lat="44.07959" lon="3.11679">
        <ele>751.1</ele>
        <time>2019-05-31T09:31:44Z</time>
      </trkpt>
      <trkpt lat="44.0796" lon="3.1169">
        <ele>751</ele>
        <time>2019-05-31T09:31:45Z</time>
      </trkpt>
      <trkpt lat="44.07962" lon="3.117">
        <ele>750.9</ele>
        <time>2019-05-31T09:31:46Z</time>
      </trkpt>
      <trkpt lat="44.07964" lon="3.11709">
        <ele>750.7</ele>
        <time>2019-05-31T09:31:47Z</time>
      </trkpt>
      <trkpt lat="44.07964" lon="3.11717">
        <ele>750.6</ele>
        <time>2019-05-31T09:31:48Z</time>
      </trkpt>
      <trkpt lat="44.07965" lon="3.11727">
        <ele>750.5</ele>
        <time>2019-05-31T09:31:49Z</time>
      </trkpt>
      <trkpt lat="44.07966" lon="3.11735">
        <ele>750.4</ele>
        <time>2019-05-31T09:31:50Z</time>
      </trkpt>
      <trkpt lat="44.07966" lon="3.11743">
        <ele>750.3</ele>
        <time>2019-05-31T09:31:51Z</time>
      </trkpt>
      <trkpt lat="44.07967" lon="3.11751">
        <ele>750.2</ele>
        <time>2019-05-31T09:31:52Z</time>
      </trkpt>
      <trkpt lat="44.0797" lon="3.1176">
        <ele>750.1</ele>
        <time>2019-05-31T09:31:53Z</time>
      </trkpt>
      <trkpt lat="44.07972" lon="3.11768">
        <ele>750.1</ele>
        <time>2019-05-31T09:31:54Z</time>
      </trkpt>
      <trkpt lat="44.07975" lon="3.11776">
        <ele>750</ele>
        <time>2019-05-31T09:31:55Z</time>
      </trkpt>
      <trkpt lat="44.07976" lon="3.11784">
        <ele>749.9</ele>
        <time>2019-05-31T09:31:56Z</time>
      </trkpt>
      <trkpt lat="44.07977" lon="3.11793">
        <ele>749.8</ele>
        <time>2019-05-31T09:31:57Z</time>
      </trkpt>
      <trkpt lat="44.07979" lon="3.11802">
        <ele>749.8</ele>
        <time>2019-05-31T09:31:58Z</time>
      </trkpt>
      <trkpt lat="44.07979" lon="3.11811">
        <ele>749.7</ele>
        <time>2019-05-31T09:31:59Z</time>
      </trkpt>
      <trkpt lat="44.07981" lon="3.11819">
        <ele>749.7</ele>
        <time>2019-05-31T09:32:00Z</time>
      </trkpt>
      <trkpt lat="44.07981" lon="3.11826">
        <ele>749.7</ele>
        <time>2019-05-31T09:32:01Z</time>
      </trkpt>
      <trkpt lat="44.07982" lon="3.11835">
        <ele>749.6</ele>
        <time>2019-05-31T09:32:02Z</time>
      </trkpt>
      <trkpt lat="44.07983" lon="3.11843">
        <ele>749.6</ele>
        <time>2019-05-31T09:32:03Z</time>
      </trkpt>
      <trkpt lat="44.07985" lon="3.1185">
        <ele>749.6</ele>
        <time>2019-05-31T09:32:04Z</time>
      </trkpt>
      <trkpt lat="44.07986" lon="3.11859">
        <ele>749.5</ele>
        <time>2019-05-31T09:32:05Z</time>
      </trkpt>
      <trkpt lat="44.07986" lon="3.11867">
        <ele>749.5</ele>
        <time>2019-05-31T09:32:06Z</time>
      </trkpt>
      <trkpt lat="44.07987" lon="3.11875">
        <ele>749.4</ele>
        <time>2019-05-31T09:32:07Z</time>
      </trkpt>
      <trkpt lat="44.07989" lon="3.11883">
        <ele>749.4</ele>
        <time>2019-05-31T09:32:08Z</time>
      </trkpt>
      <trkpt lat="44.07991" lon="3.1189">
        <ele>749.3</ele>
        <time>2019-05-31T09:32:09Z</time>
      </trkpt>
      <trkpt lat="44.07994" lon="3.119">
        <ele>749.2</ele>
        <time>2019-05-31T09:32:10Z</time>
      </trkpt>
      <trkpt lat="44.07996" lon="3.11907">
        <ele>749.2</ele>
        <time>2019-05-31T09:32:11Z</time>
      </trkpt>
      <trkpt lat="44.07998" lon="3.11916">
        <ele>749.1</ele>
        <time>2019-05-31T09:32:12Z</time>
      </trkpt>
      <trkpt lat="44.07998" lon="3.11922">
        <ele>749</ele>
        <time>2019-05-31T09:32:13Z</time>
      </trkpt>
      <trkpt lat="44.07998" lon="3.11929">
        <ele>749</ele>
        <time>2019-05-31T09:32:14Z</time>
      </trkpt>
      <trkpt lat="44.08" lon="3.11937">
        <ele>749</ele>
        <time>2019-05-31T09:32:15Z</time>
      </trkpt>
      <trkpt lat="44.08" lon="3.11945">
        <ele>748.9</ele>
        <time>2019-05-31T09:32:16Z</time>
      </trkpt>
      <trkpt lat="44.08" lon="3.11954">
        <ele>748.9</ele>
        <time>2019-05-31T09:32:17Z</time>
      </trkpt>
      <trkpt lat="44.08001" lon="3.11962">
        <ele>748.9</ele>
        <time>2019-05-31T09:32:18Z</time>
      </trkpt>
      <trkpt lat="44.08002" lon="3.11969">
        <ele>748.9</ele>
        <time>2019-05-31T09:32:19Z</time>
      </trkpt>
      <trkpt lat="44.08003" lon="3.11977">
        <ele>748.8</ele>
        <time>2019-05-31T09:32:20Z</time>
      </trkpt>
      <trkpt lat="44.08003" lon="3.11983">
        <ele>748.8</ele>
        <time>2019-05-31T09:32:21Z</time>
      </trkpt>
      <trkpt lat="44.08003" lon="3.11992">
        <ele>748.8</ele>
        <time>2019-05-31T09:32:22Z</time>
      </trkpt>
      <trkpt lat="44.08003" lon="3.11999">
        <ele>748.8</ele>
        <time>2019-05-31T09:32:23Z</time>
      </trkpt>
      <trkpt lat="44.08005" lon="3.12006">
        <ele>748.8</ele>
        <time>2019-05-31T09:32:24Z</time>
      </trkpt>
      <trkpt lat="44.08005" lon="3.12014">
        <ele>748.8</ele>
        <time>2019-05-31T09:32:25Z</time>
      </trkpt>
      <trkpt lat="44.08006" lon="3.12021">
        <ele>748.8</ele>
        <time>2019-05-31T09:32:26Z</time>
      </trkpt>
      <trkpt lat="44.08006" lon="3.12029">
        <ele>748.7</ele>
        <time>2019-05-31T09:32:27Z</time>
      </trkpt>
      <trkpt lat="44.08008" lon="3.12037">
        <ele>748.7</ele>
        <time>2019-05-31T09:32:28Z</time>
      </trkpt>
      <trkpt lat="44.0801" lon="3.12045">
        <ele>748.7</ele>
        <time>2019-05-31T09:32:29Z</time>
      </trkpt>
      <trkpt lat="44.08011" lon="3.12053">
        <ele>748.7</ele>
        <time>2019-05-31T09:32:30Z</time>
      </trkpt>
      <trkpt lat="44.08012" lon="3.1206">
        <ele>748.7</ele>
        <time>2019-05-31T09:32:31Z</time>
      </trkpt>
      <trkpt lat="44.08013" lon="3.12067">
        <ele>748.7</ele>
        <time>2019-05-31T09:32:32Z</time>
      </trkpt>
      <trkpt lat="44.08013" lon="3.12072">
        <ele>748.8</ele>
        <time>2019-05-31T09:32:33Z</time>
      </trkpt>
      <trkpt lat="44.08016" lon="3.1208">
        <ele>748.8</ele>
        <time>2019-05-31T09:32:34Z</time>
      </trkpt>
      <trkpt lat="44.08017" lon="3.12088">
        <ele>748.8</ele>
        <time>2019-05-31T09:32:35Z</time>
      </trkpt>
      <trkpt lat="44.08017" lon="3.12094">
        <ele>748.9</ele>
        <time>2019-05-31T09:32:36Z</time>
      </trkpt>
      <trkpt lat="44.08019" lon="3.12101">
        <ele>749</ele>
        <time>2019-05-31T09:32:37Z</time>
      </trkpt>
      <trkpt lat="44.08022" lon="3.1211">
        <ele>749</ele>
        <time>2019-05-31T09:32:38Z</time>
      </trkpt>
      <trkpt lat="44.08022" lon="3.12117">
        <ele>749.1</ele>
        <time>2019-05-31T09:32:39Z</time>
      </trkpt>
      <trkpt lat="44.08023" lon="3.12125">
        <ele>749</ele>
        <time>2019-05-31T09:32:40Z</time>
      </trkpt>
      <trkpt lat="44.08023" lon="3.12131">
        <ele>748.9</ele>
        <time>2019-05-31T09:32:41Z</time>
      </trkpt>
      <trkpt lat="44.08025" lon="3.12137">
        <ele>748.8</ele>
        <time>2019-05-31T09:32:42Z</time>
      </trkpt>
      <trkpt lat="44.08027" lon="3.12142">
        <ele>748.6</ele>
        <time>2019-05-31T09:32:43Z</time>
      </trkpt>
      <trkpt lat="44.08026" lon="3.12148">
        <ele>748.5</ele>
        <time>2019-05-31T09:32:45Z</time>
      </trkpt>
      <trkpt lat="44.08025" lon="3.12153">
        <ele>748.4</ele>
        <time>2019-05-31T09:32:47Z</time>
      </trkpt>
      <trkpt lat="44.08029" lon="3.12155">
        <ele>748.3</ele>
        <time>2019-05-31T09:32:50Z</time>
      </trkpt>
      <trkpt lat="44.08029" lon="3.1215">
        <ele>748.2</ele>
        <time>2019-05-31T09:32:53Z</time>
      </trkpt>
      <trkpt lat="44.08027" lon="3.12148">
        <ele>748.2</ele>
        <time>2019-05-31T09:32:56Z</time>
      </trkpt>
      <trkpt lat="44.08024" lon="3.12147">
        <ele>748.1</ele>
        <time>2019-05-31T09:32:59Z</time>
      </trkpt>
      <trkpt lat="44.08023" lon="3.12151">
        <ele>748</ele>
        <time>2019-05-31T09:33:03Z</time>
      </trkpt>
      <trkpt lat="44.08023" lon="3.12155">
        <ele>748</ele>
        <time>2019-05-31T09:33:36Z</time>
      </trkpt>
      <trkpt lat="44.08025" lon="3.12159">
        <ele>747.9</ele>
        <time>2019-05-31T09:33:38Z</time>
      </trkpt>
      <trkpt lat="44.08026" lon="3.12165">
        <ele>747.8</ele>
        <time>2019-05-31T09:33:40Z</time>
      </trkpt>
      <trkpt lat="44.08027" lon="3.12169">
        <ele>747.7</ele>
        <time>2019-05-31T09:33:41Z</time>
      </trkpt>
      <trkpt lat="44.08027" lon="3.12174">
        <ele>747.7</ele>
        <time>2019-05-31T09:33:42Z</time>
      </trkpt>
      <trkpt lat="44.08027" lon="3.1218">
        <ele>747.6</ele>
        <time>2019-05-31T09:33:43Z</time>
      </trkpt>
      <trkpt lat="44.08028" lon="3.12188">
        <ele>747.5</ele>
        <time>2019-05-31T09:33:44Z</time>
      </trkpt>
      <trkpt lat="44.08029" lon="3.12196">
        <ele>747.4</ele>
        <time>2019-05-31T09:33:45Z</time>
      </trkpt>
      <trkpt lat="44.0803" lon="3.12204">
        <ele>747.2</ele>
        <time>2019-05-31T09:33:46Z</time>
      </trkpt>
      <trkpt lat="44.08032" lon="3.12212">
        <ele>747.1</ele>
        <time>2019-05-31T09:33:47Z</time>
      </trkpt>
      <trkpt lat="44.08033" lon="3.12222">
        <ele>746.8</ele>
        <time>2019-05-31T09:33:48Z</time>
      </trkpt>
      <trkpt lat="44.08035" lon="3.12231">
        <ele>746.6</ele>
        <time>2019-05-31T09:33:49Z</time>
      </trkpt>
      <trkpt lat="44.08038" lon="3.12241">
        <ele>746.3</ele>
        <time>2019-05-31T09:33:50Z</time>
      </trkpt>
      <trkpt lat="44.08041" lon="3.12251">
        <ele>746.1</ele>
        <time>2019-05-31T09:33:51Z</time>
      </trkpt>
      <trkpt lat="44.08044" lon="3.1226">
        <ele>745.5</ele>
        <time>2019-05-31T09:33:52Z</time>
      </trkpt>
      <trkpt lat="44.08045" lon="3.1227">
        <ele>745.5</ele>
        <time>2019-05-31T09:33:53Z</time>
      </trkpt>
      <trkpt lat="44.08042" lon="3.12277">
        <ele>745.3</ele>
        <time>2019-05-31T09:33:54Z</time>
      </trkpt>
      <trkpt lat="44.08039" lon="3.12284">
        <ele>745.1</ele>
        <time>2019-05-31T09:33:55Z</time>
      </trkpt>
      <trkpt lat="44.08036" lon="3.12291">
        <ele>744.8</ele>
        <time>2019-05-31T09:33:56Z</time>
      </trkpt>
      <trkpt lat="44.08033" lon="3.12299">
        <ele>744.6</ele>
        <time>2019-05-31T09:33:57Z</time>
      </trkpt>
      <trkpt lat="44.0803" lon="3.12307">
        <ele>744.4</ele>
        <time>2019-05-31T09:33:58Z</time>
      </trkpt>
      <trkpt lat="44.08018" lon="3.12302">
        <ele>744.1</ele>
        <time>2019-05-31T09:33:59Z</time>
      </trkpt>
      <trkpt lat="44.08011" lon="3.12302">
        <ele>743.9</ele>
        <time>2019-05-31T09:34:00Z</time>
      </trkpt>
      <trkpt lat="44.08005" lon="3.12302">
        <ele>743.6</ele>
        <time>2019-05-31T09:34:01Z</time>
      </trkpt>
      <trkpt lat="44.08001" lon="3.12303">
        <ele>743.4</ele>
        <time>2019-05-31T09:34:02Z</time>
      </trkpt>
      <trkpt lat="44.07997" lon="3.12303">
        <ele>743.2</ele>
        <time>2019-05-31T09:34:03Z</time>
      </trkpt>
      <trkpt lat="44.07992" lon="3.12302">
        <ele>742.9</ele>
        <time>2019-05-31T09:34:04Z</time>
      </trkpt>
      <trkpt lat="44.07987" lon="3.12301">
        <ele>742.7</ele>
        <time>2019-05-31T09:34:05Z</time>
      </trkpt>
      <trkpt lat="44.07984" lon="3.12302">
        <ele>742.5</ele>
        <time>2019-05-31T09:34:06Z</time>
      </trkpt>
      <trkpt lat="44.07981" lon="3.12302">
        <ele>742.4</ele>
        <time>2019-05-31T09:34:07Z</time>
      </trkpt>
      <trkpt lat="44.07978" lon="3.12303">
        <ele>742.2</ele>
        <time>2019-05-31T09:34:08Z</time>
      </trkpt>
      <trkpt lat="44.07974" lon="3.12305">
        <ele>742</ele>
        <time>2019-05-31T09:34:10Z</time>
      </trkpt>
      <trkpt lat="44.0797" lon="3.12306">
        <ele>741.8</ele>
        <time>2019-05-31T09:34:12Z</time>
      </trkpt>
      <trkpt lat="44.07967" lon="3.12307">
        <ele>741.6</ele>
        <time>2019-05-31T09:34:13Z</time>
      </trkpt>
      <trkpt lat="44.07962" lon="3.12309">
        <ele>741.4</ele>
        <time>2019-05-31T09:34:15Z</time>
      </trkpt>
      <trkpt lat="44.07959" lon="3.1231">
        <ele>741.2</ele>
        <time>2019-05-31T09:34:16Z</time>
      </trkpt>
      <trkpt lat="44.07957" lon="3.12311">
        <ele>741.1</ele>
        <time>2019-05-31T09:34:17Z</time>
      </trkpt>
      <trkpt lat="44.07954" lon="3.12312">
        <ele>740.9</ele>
        <time>2019-05-31T09:34:18Z</time>
      </trkpt>
      <trkpt lat="44.07951" lon="3.12312">
        <ele>740.7</ele>
        <time>2019-05-31T09:34:19Z</time>
      </trkpt>
      <trkpt lat="44.07947" lon="3.12313">
        <ele>740.4</ele>
        <time>2019-05-31T09:34:20Z</time>
      </trkpt>
      <trkpt lat="44.07944" lon="3.12314">
        <ele>740.2</ele>
        <time>2019-05-31T09:34:21Z</time>
      </trkpt>
      <trkpt lat="44.07941" lon="3.12314">
        <ele>740</ele>
        <time>2019-05-31T09:34:22Z</time>
      </trkpt>
      <trkpt lat="44.07937" lon="3.12314">
        <ele>739.7</ele>
        <time>2019-05-31T09:34:23Z</time>
      </trkpt>
      <trkpt lat="44.07933" lon="3.12315">
        <ele>739.4</ele>
        <time>2019-05-31T09:34:24Z</time>
      </trkpt>
      <trkpt lat="44.07929" lon="3.12315">
        <ele>739.1</ele>
        <time>2019-05-31T09:34:25Z</time>
      </trkpt>
      <trkpt lat="44.07925" lon="3.12316">
        <ele>739.2</ele>
        <time>2019-05-31T09:34:26Z</time>
      </trkpt>
      <trkpt lat="44.07921" lon="3.12317">
        <ele>739.3</ele>
        <time>2019-05-31T09:34:27Z</time>
      </trkpt>
      <trkpt lat="44.07918" lon="3.12319">
        <ele>739.4</ele>
        <time>2019-05-31T09:34:28Z</time>
      </trkpt>
      <trkpt lat="44.07915" lon="3.12322">
        <ele>739.4</ele>
        <time>2019-05-31T09:34:29Z</time>
      </trkpt>
      <trkpt lat="44.07912" lon="3.12325">
        <ele>739.5</ele>
        <time>2019-05-31T09:34:30Z</time>
      </trkpt>
      <trkpt lat="44.07908" lon="3.12328">
        <ele>739.6</ele>
        <time>2019-05-31T09:34:31Z</time>
      </trkpt>
      <trkpt lat="44.07904" lon="3.12332">
        <ele>739.7</ele>
        <time>2019-05-31T09:34:32Z</time>
      </trkpt>
      <trkpt lat="44.07899" lon="3.12335">
        <ele>739.8</ele>
        <time>2019-05-31T09:34:33Z</time>
      </trkpt>
      <trkpt lat="44.07895" lon="3.12339">
        <ele>739.9</ele>
        <time>2019-05-31T09:34:34Z</time>
      </trkpt>
      <trkpt lat="44.0789" lon="3.12341">
        <ele>740</ele>
        <time>2019-05-31T09:34:35Z</time>
      </trkpt>
      <trkpt lat="44.07887" lon="3.12344">
        <ele>740.1</ele>
        <time>2019-05-31T09:34:36Z</time>
      </trkpt>
      <trkpt lat="44.07883" lon="3.12347">
        <ele>740.2</ele>
        <time>2019-05-31T09:34:37Z</time>
      </trkpt>
      <trkpt lat="44.07881" lon="3.12351">
        <ele>740.3</ele>
        <time>2019-05-31T09:34:38Z</time>
      </trkpt>
      <trkpt lat="44.07876" lon="3.12354">
        <ele>740.4</ele>
        <time>2019-05-31T09:34:39Z</time>
      </trkpt>
      <trkpt lat="44.07872" lon="3.12357">
        <ele>740.5</ele>
        <time>2019-05-31T09:34:40Z</time>
      </trkpt>
      <trkpt lat="44.07869" lon="3.12361">
        <ele>740.7</ele>
        <time>2019-05-31T09:34:41Z</time>
      </trkpt>
      <trkpt lat="44.07864" lon="3.12365">
        <ele>740.9</ele>
        <time>2019-05-31T09:34:42Z</time>
      </trkpt>
      <trkpt lat="44.0786" lon="3.12368">
        <ele>741.1</ele>
        <time>2019-05-31T09:34:43Z</time>
      </trkpt>
      <trkpt lat="44.07855" lon="3.12372">
        <ele>741.3</ele>
        <time>2019-05-31T09:34:44Z</time>
      </trkpt>
      <trkpt lat="44.07851" lon="3.12375">
        <ele>741.6</ele>
        <time>2019-05-31T09:34:45Z</time>
      </trkpt>
      <trkpt lat="44.07847" lon="3.12379">
        <ele>741.8</ele>
        <time>2019-05-31T09:34:46Z</time>
      </trkpt>
      <trkpt lat="44.07842" lon="3.12385">
        <ele>742.1</ele>
        <time>2019-05-31T09:34:47Z</time>
      </trkpt>
      <trkpt lat="44.07838" lon="3.12386">
        <ele>742.3</ele>
        <time>2019-05-31T09:34:48Z</time>
      </trkpt>
      <trkpt lat="44.07833" lon="3.12388">
        <ele>742.4</ele>
        <time>2019-05-31T09:34:49Z</time>
      </trkpt>
      <trkpt lat="44.07829" lon="3.1239">
        <ele>742.5</ele>
        <time>2019-05-31T09:34:50Z</time>
      </trkpt>
      <trkpt lat="44.07824" lon="3.12392">
        <ele>742.6</ele>
        <time>2019-05-31T09:34:51Z</time>
      </trkpt>
      <trkpt lat="44.07819" lon="3.12393">
        <ele>742.8</ele>
        <time>2019-05-31T09:34:52Z</time>
      </trkpt>
      <trkpt lat="44.07814" lon="3.12395">
        <ele>742.9</ele>
        <time>2019-05-31T09:34:53Z</time>
      </trkpt>
      <trkpt lat="44.07809" lon="3.12393">
        <ele>743</ele>
        <time>2019-05-31T09:34:54Z</time>
      </trkpt>
      <trkpt lat="44.07804" lon="3.12392">
        <ele>743.1</ele>
        <time>2019-05-31T09:34:55Z</time>
      </trkpt>
      <trkpt lat="44.07798" lon="3.12391">
        <ele>743.2</ele>
        <time>2019-05-31T09:34:56Z</time>
      </trkpt>
      <trkpt lat="44.07794" lon="3.12391">
        <ele>743.3</ele>
        <time>2019-05-31T09:34:57Z</time>
      </trkpt>
      <trkpt lat="44.0779" lon="3.1239">
        <ele>743.5</ele>
        <time>2019-05-31T09:34:58Z</time>
      </trkpt>
      <trkpt lat="44.07785" lon="3.1239">
        <ele>743.7</ele>
        <time>2019-05-31T09:34:59Z</time>
      </trkpt>
      <trkpt lat="44.07779" lon="3.12391">
        <ele>744</ele>
        <time>2019-05-31T09:35:00Z</time>
      </trkpt>
      <trkpt lat="44.07774" lon="3.12392">
        <ele>744.4</ele>
        <time>2019-05-31T09:35:01Z</time>
      </trkpt>
      <trkpt lat="44.0777" lon="3.12395">
        <ele>744.7</ele>
        <time>2019-05-31T09:35:02Z</time>
      </trkpt>
      <trkpt lat="44.07765" lon="3.12399">
        <ele>744.9</ele>
        <time>2019-05-31T09:35:03Z</time>
      </trkpt>
      <trkpt lat="44.0776" lon="3.12403">
        <ele>744.9</ele>
        <time>2019-05-31T09:35:04Z</time>
      </trkpt>
      <trkpt lat="44.07756" lon="3.12406">
        <ele>744.9</ele>
        <time>2019-05-31T09:35:05Z</time>
      </trkpt>
      <trkpt lat="44.07752" lon="3.1241">
        <ele>744.9</ele>
        <time>2019-05-31T09:35:06Z</time>
      </trkpt>
      <trkpt lat="44.07747" lon="3.12415">
        <ele>744.9</ele>
        <time>2019-05-31T09:35:07Z</time>
      </trkpt>
      <trkpt lat="44.07744" lon="3.12419">
        <ele>745</ele>
        <time>2019-05-31T09:35:08Z</time>
      </trkpt>
      <trkpt lat="44.07741" lon="3.12422">
        <ele>745</ele>
        <time>2019-05-31T09:35:09Z</time>
      </trkpt>
      <trkpt lat="44.07738" lon="3.12427">
        <ele>745</ele>
        <time>2019-05-31T09:35:10Z</time>
      </trkpt>
      <trkpt lat="44.07734" lon="3.12431">
        <ele>745.1</ele>
        <time>2019-05-31T09:35:11Z</time>
      </trkpt>
      <trkpt lat="44.07729" lon="3.12434">
        <ele>745.1</ele>
        <time>2019-05-31T09:35:12Z</time>
      </trkpt>
      <trkpt lat="44.07724" lon="3.12443">
        <ele>745.2</ele>
        <time>2019-05-31T09:35:13Z</time>
      </trkpt>
      <trkpt lat="44.07722" lon="3.12447">
        <ele>745.2</ele>
        <time>2019-05-31T09:35:14Z</time>
      </trkpt>
      <trkpt lat="44.07717" lon="3.12451">
        <ele>745.3</ele>
        <time>2019-05-31T09:35:15Z</time>
      </trkpt>
      <trkpt lat="44.07713" lon="3.12456">
        <ele>745.3</ele>
        <time>2019-05-31T09:35:16Z</time>
      </trkpt>
      <trkpt lat="44.0771" lon="3.12458">
        <ele>745.3</ele>
        <time>2019-05-31T09:35:17Z</time>
      </trkpt>
      <trkpt lat="44.07706" lon="3.12461">
        <ele>745.4</ele>
        <time>2019-05-31T09:35:18Z</time>
      </trkpt>
      <trkpt lat="44.07703" lon="3.12469">
        <ele>745.5</ele>
        <time>2019-05-31T09:35:19Z</time>
      </trkpt>
      <trkpt lat="44.07699" lon="3.12473">
        <ele>745.5</ele>
        <time>2019-05-31T09:35:20Z</time>
      </trkpt>
      <trkpt lat="44.07697" lon="3.1248">
        <ele>745.6</ele>
        <time>2019-05-31T09:35:21Z</time>
      </trkpt>
      <trkpt lat="44.07692" lon="3.12485">
        <ele>745.6</ele>
        <time>2019-05-31T09:35:22Z</time>
      </trkpt>
      <trkpt lat="44.07688" lon="3.12489">
        <ele>745.7</ele>
        <time>2019-05-31T09:35:23Z</time>
      </trkpt>
      <trkpt lat="44.07684" lon="3.12495">
        <ele>745.7</ele>
        <time>2019-05-31T09:35:24Z</time>
      </trkpt>
      <trkpt lat="44.07681" lon="3.125">
        <ele>745.7</ele>
        <time>2019-05-31T09:35:25Z</time>
      </trkpt>
      <trkpt lat="44.07678" lon="3.12505">
        <ele>745.7</ele>
        <time>2019-05-31T09:35:26Z</time>
      </trkpt>
      <trkpt lat="44.07674" lon="3.12511">
        <ele>745.8</ele>
        <time>2019-05-31T09:35:27Z</time>
      </trkpt>
      <trkpt lat="44.07671" lon="3.1252">
        <ele>745.8</ele>
        <time>2019-05-31T09:35:28Z</time>
      </trkpt>
      <trkpt lat="44.07668" lon="3.12525">
        <ele>745.8</ele>
        <time>2019-05-31T09:35:29Z</time>
      </trkpt>
      <trkpt lat="44.07664" lon="3.12532">
        <ele>745.8</ele>
        <time>2019-05-31T09:35:30Z</time>
      </trkpt>
      <trkpt lat="44.0766" lon="3.12537">
        <ele>745.8</ele>
        <time>2019-05-31T09:35:31Z</time>
      </trkpt>
      <trkpt lat="44.07658" lon="3.12542">
        <ele>745.8</ele>
        <time>2019-05-31T09:35:32Z</time>
      </trkpt>
      <trkpt lat="44.07654" lon="3.12547">
        <ele>745.8</ele>
        <time>2019-05-31T09:35:33Z</time>
      </trkpt>
      <trkpt lat="44.0765" lon="3.12552">
        <ele>745.8</ele>
        <time>2019-05-31T09:35:34Z</time>
      </trkpt>
      <trkpt lat="44.07648" lon="3.12559">
        <ele>745.8</ele>
        <time>2019-05-31T09:35:35Z</time>
      </trkpt>
      <trkpt lat="44.07646" lon="3.12564">
        <ele>745.8</ele>
        <time>2019-05-31T09:35:36Z</time>
      </trkpt>
      <trkpt lat="44.07645" lon="3.12571">
        <ele>745.8</ele>
        <time>2019-05-31T09:35:37Z</time>
      </trkpt>
      <trkpt lat="44.07643" lon="3.1258">
        <ele>745.8</ele>
        <time>2019-05-31T09:35:38Z</time>
      </trkpt>
      <trkpt lat="44.07644" lon="3.12587">
        <ele>745.8</ele>
        <time>2019-05-31T09:35:39Z</time>
      </trkpt>
      <trkpt lat="44.07646" lon="3.12595">
        <ele>745.8</ele>
        <time>2019-05-31T09:35:40Z</time>
      </trkpt>
      <trkpt lat="44.07648" lon="3.12602">
        <ele>745.8</ele>
        <time>2019-05-31T09:35:41Z</time>
      </trkpt>
      <trkpt lat="44.07651" lon="3.12607">
        <ele>745.8</ele>
        <time>2019-05-31T09:35:42Z</time>
      </trkpt>
      <trkpt lat="44.07655" lon="3.12614">
        <ele>745.9</ele>
        <time>2019-05-31T09:35:43Z</time>
      </trkpt>
      <trkpt lat="44.07658" lon="3.12619">
        <ele>746</ele>
        <time>2019-05-31T09:35:44Z</time>
      </trkpt>
      <trkpt lat="44.07662" lon="3.12625">
        <ele>746</ele>
        <time>2019-05-31T09:35:45Z</time>
      </trkpt>
      <trkpt lat="44.07665" lon="3.12632">
        <ele>746.1</ele>
        <time>2019-05-31T09:35:46Z</time>
      </trkpt>
      <trkpt lat="44.07669" lon="3.1264">
        <ele>746.2</ele>
        <time>2019-05-31T09:35:47Z</time>
      </trkpt>
      <trkpt lat="44.07672" lon="3.12646">
        <ele>746.3</ele>
        <time>2019-05-31T09:35:48Z</time>
      </trkpt>
      <trkpt lat="44.07674" lon="3.12653">
        <ele>746.4</ele>
        <time>2019-05-31T09:35:49Z</time>
      </trkpt>
      <trkpt lat="44.07677" lon="3.12659">
        <ele>746.5</ele>
        <time>2019-05-31T09:35:50Z</time>
      </trkpt>
      <trkpt lat="44.0768" lon="3.12667">
        <ele>746.6</ele>
        <time>2019-05-31T09:35:51Z</time>
      </trkpt>
      <trkpt lat="44.07682" lon="3.12674">
        <ele>746.7</ele>
        <time>2019-05-31T09:35:52Z</time>
      </trkpt>
      <trkpt lat="44.07684" lon="3.1268">
        <ele>746.7</ele>
        <time>2019-05-31T09:35:53Z</time>
      </trkpt>
      <trkpt lat="44.07686" lon="3.12686">
        <ele>746.8</ele>
        <time>2019-05-31T09:35:54Z</time>
      </trkpt>
      <trkpt lat="44.07692" lon="3.12694">
        <ele>746.9</ele>
        <time>2019-05-31T09:35:55Z</time>
      </trkpt>
      <trkpt lat="44.07696" lon="3.12701">
        <ele>746.9</ele>
        <time>2019-05-31T09:35:56Z</time>
      </trkpt>
      <trkpt lat="44.07698" lon="3.12708">
        <ele>747</ele>
        <time>2019-05-31T09:35:57Z</time>
      </trkpt>
      <trkpt lat="44.077" lon="3.12711">
        <ele>747</ele>
        <time>2019-05-31T09:35:58Z</time>
      </trkpt>
      <trkpt lat="44.07705" lon="3.12719">
        <ele>747.1</ele>
        <time>2019-05-31T09:35:59Z</time>
      </trkpt>
      <trkpt lat="44.07706" lon="3.12727">
        <ele>747.2</ele>
        <time>2019-05-31T09:36:00Z</time>
      </trkpt>
      <trkpt lat="44.07707" lon="3.12734">
        <ele>747.3</ele>
        <time>2019-05-31T09:36:01Z</time>
      </trkpt>
      <trkpt lat="44.0771" lon="3.12744">
        <ele>747.4</ele>
        <time>2019-05-31T09:36:02Z</time>
      </trkpt>
      <trkpt lat="44.0771" lon="3.12751">
        <ele>747.5</ele>
        <time>2019-05-31T09:36:03Z</time>
      </trkpt>
      <trkpt lat="44.07709" lon="3.12761">
        <ele>747.6</ele>
        <time>2019-05-31T09:36:04Z</time>
      </trkpt>
      <trkpt lat="44.07706" lon="3.1277">
        <ele>747.8</ele>
        <time>2019-05-31T09:36:05Z</time>
      </trkpt>
      <trkpt lat="44.07705" lon="3.12777">
        <ele>748</ele>
        <time>2019-05-31T09:36:06Z</time>
      </trkpt>
      <trkpt lat="44.07702" lon="3.12785">
        <ele>748.2</ele>
        <time>2019-05-31T09:36:07Z</time>
      </trkpt>
      <trkpt lat="44.07701" lon="3.12792">
        <ele>748.3</ele>
        <time>2019-05-31T09:36:08Z</time>
      </trkpt>
      <trkpt lat="44.07698" lon="3.12798">
        <ele>748.5</ele>
        <time>2019-05-31T09:36:09Z</time>
      </trkpt>
      <trkpt lat="44.07694" lon="3.12804">
        <ele>748.7</ele>
        <time>2019-05-31T09:36:10Z</time>
      </trkpt>
      <trkpt lat="44.07691" lon="3.12808">
        <ele>748.9</ele>
        <time>2019-05-31T09:36:11Z</time>
      </trkpt>
      <trkpt lat="44.07686" lon="3.12813">
        <ele>749</ele>
        <time>2019-05-31T09:36:12Z</time>
      </trkpt>
      <trkpt lat="44.07682" lon="3.12817">
        <ele>749.2</ele>
        <time>2019-05-31T09:36:13Z</time>
      </trkpt>
      <trkpt lat="44.07677" lon="3.1282">
        <ele>749.3</ele>
        <time>2019-05-31T09:36:14Z</time>
      </trkpt>
      <trkpt lat="44.07673" lon="3.12822">
        <ele>749.4</ele>
        <time>2019-05-31T09:36:15Z</time>
      </trkpt>
      <trkpt lat="44.07668" lon="3.12826">
        <ele>749.5</ele>
        <time>2019-05-31T09:36:16Z</time>
      </trkpt>
      <trkpt lat="44.07665" lon="3.12828">
        <ele>749.6</ele>
        <time>2019-05-31T09:36:17Z</time>
      </trkpt>
      <trkpt lat="44.07661" lon="3.1283">
        <ele>749.7</ele>
        <time>2019-05-31T09:36:18Z</time>
      </trkpt>
      <trkpt lat="44.07656" lon="3.12833">
        <ele>749.8</ele>
        <time>2019-05-31T09:36:19Z</time>
      </trkpt>
      <trkpt lat="44.07652" lon="3.12836">
        <ele>749.9</ele>
        <time>2019-05-31T09:36:20Z</time>
      </trkpt>
      <trkpt lat="44.07647" lon="3.1284">
        <ele>750</ele>
        <time>2019-05-31T09:36:21Z</time>
      </trkpt>
      <trkpt lat="44.07643" lon="3.12843">
        <ele>750.1</ele>
        <time>2019-05-31T09:36:22Z</time>
      </trkpt>
      <trkpt lat="44.0764" lon="3.12848">
        <ele>750.2</ele>
        <time>2019-05-31T09:36:23Z</time>
      </trkpt>
      <trkpt lat="44.07635" lon="3.12853">
        <ele>750.4</ele>
        <time>2019-05-31T09:36:24Z</time>
      </trkpt>
      <trkpt lat="44.07633" lon="3.12858">
        <ele>750.4</ele>
        <time>2019-05-31T09:36:25Z</time>
      </trkpt>
      <trkpt lat="44.07629" lon="3.12862">
        <ele>750.5</ele>
        <time>2019-05-31T09:36:26Z</time>
      </trkpt>
      <trkpt lat="44.07627" lon="3.12866">
        <ele>750.6</ele>
        <time>2019-05-31T09:36:27Z</time>
      </trkpt>
      <trkpt lat="44.07625" lon="3.12871">
        <ele>750.6</ele>
        <time>2019-05-31T09:36:28Z</time>
      </trkpt>
      <trkpt lat="44.07621" lon="3.12876">
        <ele>750.7</ele>
        <time>2019-05-31T09:36:29Z</time>
      </trkpt>
      <trkpt lat="44.0762" lon="3.12882">
        <ele>750.8</ele>
        <time>2019-05-31T09:36:30Z</time>
      </trkpt>
      <trkpt lat="44.07618" lon="3.12888">
        <ele>750.9</ele>
        <time>2019-05-31T09:36:31Z</time>
      </trkpt>
      <trkpt lat="44.07617" lon="3.12894">
        <ele>751</ele>
        <time>2019-05-31T09:36:32Z</time>
      </trkpt>
      <trkpt lat="44.07617" lon="3.12902">
        <ele>751.1</ele>
        <time>2019-05-31T09:36:33Z</time>
      </trkpt>
      <trkpt lat="44.07617" lon="3.12911">
        <ele>751.2</ele>
        <time>2019-05-31T09:36:34Z</time>
      </trkpt>
      <trkpt lat="44.07618" lon="3.12919">
        <ele>751.3</ele>
        <time>2019-05-31T09:36:35Z</time>
      </trkpt>
      <trkpt lat="44.07618" lon="3.12926">
        <ele>751.4</ele>
        <time>2019-05-31T09:36:36Z</time>
      </trkpt>
      <trkpt lat="44.07619" lon="3.12933">
        <ele>751.5</ele>
        <time>2019-05-31T09:36:37Z</time>
      </trkpt>
      <trkpt lat="44.07619" lon="3.12941">
        <ele>751.7</ele>
        <time>2019-05-31T09:36:38Z</time>
      </trkpt>
      <trkpt lat="44.0762" lon="3.12947">
        <ele>751.9</ele>
        <time>2019-05-31T09:36:39Z</time>
      </trkpt>
      <trkpt lat="44.0762" lon="3.12953">
        <ele>752</ele>
        <time>2019-05-31T09:36:40Z</time>
      </trkpt>
      <trkpt lat="44.0762" lon="3.12959">
        <ele>752.2</ele>
        <time>2019-05-31T09:36:41Z</time>
      </trkpt>
      <trkpt lat="44.0762" lon="3.12965">
        <ele>752.4</ele>
        <time>2019-05-31T09:36:42Z</time>
      </trkpt>
      <trkpt lat="44.07623" lon="3.12971">
        <ele>752.6</ele>
        <time>2019-05-31T09:36:43Z</time>
      </trkpt>
      <trkpt lat="44.07625" lon="3.12978">
        <ele>752.9</ele>
        <time>2019-05-31T09:36:44Z</time>
      </trkpt>
      <trkpt lat="44.07626" lon="3.12983">
        <ele>753.1</ele>
        <time>2019-05-31T09:36:45Z</time>
      </trkpt>
      <trkpt lat="44.07627" lon="3.12988">
        <ele>753.3</ele>
        <time>2019-05-31T09:36:46Z</time>
      </trkpt>
      <trkpt lat="44.07627" lon="3.12994">
        <ele>753.6</ele>
        <time>2019-05-31T09:36:47Z</time>
      </trkpt>
      <trkpt lat="44.07627" lon="3.12999">
        <ele>753.8</ele>
        <time>2019-05-31T09:36:48Z</time>
      </trkpt>
      <trkpt lat="44.07627" lon="3.13004">
        <ele>754.2</ele>
        <time>2019-05-31T09:36:49Z</time>
      </trkpt>
      <trkpt lat="44.07627" lon="3.13009">
        <ele>754.3</ele>
        <time>2019-05-31T09:36:50Z</time>
      </trkpt>
      <trkpt lat="44.07623" lon="3.13013">
        <ele>754.5</ele>
        <time>2019-05-31T09:36:52Z</time>
      </trkpt>
      <trkpt lat="44.07619" lon="3.13013">
        <ele>754.7</ele>
        <time>2019-05-31T09:36:54Z</time>
      </trkpt>
      <trkpt lat="44.07614" lon="3.13015">
        <ele>755</ele>
        <time>2019-05-31T09:36:56Z</time>
      </trkpt>
      <trkpt lat="44.0761" lon="3.13017">
        <ele>755.3</ele>
        <time>2019-05-31T09:36:57Z</time>
      </trkpt>
      <trkpt lat="44.07607" lon="3.13019">
        <ele>755.6</ele>
        <time>2019-05-31T09:36:58Z</time>
      </trkpt>
      <trkpt lat="44.07604" lon="3.1302">
        <ele>755.8</ele>
        <time>2019-05-31T09:36:59Z</time>
      </trkpt>
      <trkpt lat="44.07599" lon="3.13022">
        <ele>756</ele>
        <time>2019-05-31T09:37:01Z</time>
      </trkpt>
      <trkpt lat="44.07596" lon="3.13025">
        <ele>756.2</ele>
        <time>2019-05-31T09:37:03Z</time>
      </trkpt>
      <trkpt lat="44.07593" lon="3.13028">
        <ele>756.4</ele>
        <time>2019-05-31T09:37:05Z</time>
      </trkpt>
      <trkpt lat="44.07591" lon="3.13032">
        <ele>756.7</ele>
        <time>2019-05-31T09:37:07Z</time>
      </trkpt>
      <trkpt lat="44.07587" lon="3.13037">
        <ele>756.9</ele>
        <time>2019-05-31T09:37:09Z</time>
      </trkpt>
      <trkpt lat="44.07584" lon="3.13041">
        <ele>757.2</ele>
        <time>2019-05-31T09:37:11Z</time>
      </trkpt>
      <trkpt lat="44.0758" lon="3.13045">
        <ele>757.5</ele>
        <time>2019-05-31T09:37:13Z</time>
      </trkpt>
      <trkpt lat="44.07576" lon="3.13047">
        <ele>757.7</ele>
        <time>2019-05-31T09:37:15Z</time>
      </trkpt>
      <trkpt lat="44.07573" lon="3.13048">
        <ele>757.8</ele>
        <time>2019-05-31T09:37:16Z</time>
      </trkpt>
      <trkpt lat="44.07569" lon="3.13049">
        <ele>758</ele>
        <time>2019-05-31T09:37:18Z</time>
      </trkpt>
      <trkpt lat="44.07566" lon="3.13052">
        <ele>758.1</ele>
        <time>2019-05-31T09:37:20Z</time>
      </trkpt>
      <trkpt lat="44.07564" lon="3.13055">
        <ele>758.3</ele>
        <time>2019-05-31T09:37:22Z</time>
      </trkpt>
      <trkpt lat="44.0756" lon="3.13059">
        <ele>758.4</ele>
        <time>2019-05-31T09:37:24Z</time>
      </trkpt>
      <trkpt lat="44.07556" lon="3.13061">
        <ele>758.7</ele>
        <time>2019-05-31T09:37:26Z</time>
      </trkpt>
      <trkpt lat="44.07551" lon="3.13062">
        <ele>759</ele>
        <time>2019-05-31T09:37:28Z</time>
      </trkpt>
      <trkpt lat="44.07547" lon="3.13061">
        <ele>759.2</ele>
        <time>2019-05-31T09:37:30Z</time>
      </trkpt>
      <trkpt lat="44.07542" lon="3.13062">
        <ele>759.4</ele>
        <time>2019-05-31T09:37:32Z</time>
      </trkpt>
      <trkpt lat="44.07538" lon="3.13062">
        <ele>759.5</ele>
        <time>2019-05-31T09:37:34Z</time>
      </trkpt>
      <trkpt lat="44.07534" lon="3.1306">
        <ele>759.7</ele>
        <time>2019-05-31T09:37:36Z</time>
      </trkpt>
      <trkpt lat="44.0753" lon="3.13059">
        <ele>759.9</ele>
        <time>2019-05-31T09:37:38Z</time>
      </trkpt>
      <trkpt lat="44.07528" lon="3.13059">
        <ele>760.2</ele>
        <time>2019-05-31T09:37:40Z</time>
      </trkpt>
      <trkpt lat="44.07524" lon="3.13059">
        <ele>760.4</ele>
        <time>2019-05-31T09:37:43Z</time>
      </trkpt>
      <trkpt lat="44.07519" lon="3.13058">
        <ele>760.8</ele>
        <time>2019-05-31T09:37:45Z</time>
      </trkpt>
      <trkpt lat="44.07515" lon="3.13058">
        <ele>761.1</ele>
        <time>2019-05-31T09:37:47Z</time>
      </trkpt>
      <trkpt lat="44.07509" lon="3.13058">
        <ele>761.5</ele>
        <time>2019-05-31T09:37:49Z</time>
      </trkpt>
      <trkpt lat="44.07506" lon="3.13058">
        <ele>761.8</ele>
        <time>2019-05-31T09:37:50Z</time>
      </trkpt>
      <trkpt lat="44.07502" lon="3.13058">
        <ele>762.1</ele>
        <time>2019-05-31T09:37:52Z</time>
      </trkpt>
      <trkpt lat="44.07499" lon="3.13058">
        <ele>762.3</ele>
        <time>2019-05-31T09:37:53Z</time>
      </trkpt>
      <trkpt lat="44.07494" lon="3.13058">
        <ele>762.7</ele>
        <time>2019-05-31T09:37:55Z</time>
      </trkpt>
      <trkpt lat="44.07489" lon="3.1306">
        <ele>763.1</ele>
        <time>2019-05-31T09:37:57Z</time>
      </trkpt>
      <trkpt lat="44.07486" lon="3.13062">
        <ele>763.3</ele>
        <time>2019-05-31T09:37:58Z</time>
      </trkpt>
      <trkpt lat="44.07481" lon="3.13064">
        <ele>763.7</ele>
        <time>2019-05-31T09:38:00Z</time>
      </trkpt>
      <trkpt lat="44.07477" lon="3.13066">
        <ele>764.2</ele>
        <time>2019-05-31T09:38:02Z</time>
      </trkpt>
      <trkpt lat="44.07473" lon="3.13067">
        <ele>764.5</ele>
        <time>2019-05-31T09:38:03Z</time>
      </trkpt>
      <trkpt lat="44.0747" lon="3.13069">
        <ele>764.7</ele>
        <time>2019-05-31T09:38:04Z</time>
      </trkpt>
      <trkpt lat="44.07467" lon="3.13071">
        <ele>764.9</ele>
        <time>2019-05-31T09:38:05Z</time>
      </trkpt>
      <trkpt lat="44.07464" lon="3.13073">
        <ele>765.1</ele>
        <time>2019-05-31T09:38:06Z</time>
      </trkpt>
      <trkpt lat="44.07461" lon="3.13075">
        <ele>765.3</ele>
        <time>2019-05-31T09:38:07Z</time>
      </trkpt>
      <trkpt lat="44.07457" lon="3.13076">
        <ele>765.5</ele>
        <time>2019-05-31T09:38:08Z</time>
      </trkpt>
      <trkpt lat="44.07454" lon="3.13077">
        <ele>765.7</ele>
        <time>2019-05-31T09:38:09Z</time>
      </trkpt>
      <trkpt lat="44.07451" lon="3.13078">
        <ele>765.9</ele>
        <time>2019-05-31T09:38:10Z</time>
      </trkpt>
      <trkpt lat="44.07449" lon="3.1308">
        <ele>766</ele>
        <time>2019-05-31T09:38:11Z</time>
      </trkpt>
      <trkpt lat="44.07446" lon="3.13081">
        <ele>766.2</ele>
        <time>2019-05-31T09:38:12Z</time>
      </trkpt>
      <trkpt lat="44.07443" lon="3.13084">
        <ele>766.3</ele>
        <time>2019-05-31T09:38:13Z</time>
      </trkpt>
      <trkpt lat="44.0744" lon="3.13086">
        <ele>766.6</ele>
        <time>2019-05-31T09:38:14Z</time>
      </trkpt>
      <trkpt lat="44.07436" lon="3.13089">
        <ele>766.8</ele>
        <time>2019-05-31T09:38:15Z</time>
      </trkpt>
      <trkpt lat="44.07433" lon="3.13092">
        <ele>767.2</ele>
        <time>2019-05-31T09:38:16Z</time>
      </trkpt>
      <trkpt lat="44.0743" lon="3.13094">
        <ele>767.4</ele>
        <time>2019-05-31T09:38:17Z</time>
      </trkpt>
      <trkpt lat="44.07425" lon="3.13093">
        <ele>767.7</ele>
        <time>2019-05-31T09:38:18Z</time>
      </trkpt>
      <trkpt lat="44.0742" lon="3.13096">
        <ele>768</ele>
        <time>2019-05-31T09:38:19Z</time>
      </trkpt>
      <trkpt lat="44.07416" lon="3.13101">
        <ele>768.3</ele>
        <time>2019-05-31T09:38:20Z</time>
      </trkpt>
      <trkpt lat="44.07412" lon="3.13105">
        <ele>768.7</ele>
        <time>2019-05-31T09:38:21Z</time>
      </trkpt>
      <trkpt lat="44.07407" lon="3.13108">
        <ele>769.1</ele>
        <time>2019-05-31T09:38:22Z</time>
      </trkpt>
      <trkpt lat="44.07404" lon="3.13111">
        <ele>769.4</ele>
        <time>2019-05-31T09:38:23Z</time>
      </trkpt>
      <trkpt lat="44.074" lon="3.13114">
        <ele>769.7</ele>
        <time>2019-05-31T09:38:24Z</time>
      </trkpt>
      <trkpt lat="44.07396" lon="3.13116">
        <ele>770</ele>
        <time>2019-05-31T09:38:25Z</time>
      </trkpt>
      <trkpt lat="44.07391" lon="3.13118">
        <ele>770.4</ele>
        <time>2019-05-31T09:38:26Z</time>
      </trkpt>
      <trkpt lat="44.07388" lon="3.13122">
        <ele>770.6</ele>
        <time>2019-05-31T09:38:27Z</time>
      </trkpt>
      <trkpt lat="44.07384" lon="3.13124">
        <ele>770.7</ele>
        <time>2019-05-31T09:38:28Z</time>
      </trkpt>
      <trkpt lat="44.07379" lon="3.13128">
        <ele>770.7</ele>
        <time>2019-05-31T09:38:29Z</time>
      </trkpt>
      <trkpt lat="44.07373" lon="3.13132">
        <ele>770.9</ele>
        <time>2019-05-31T09:38:30Z</time>
      </trkpt>
      <trkpt lat="44.07369" lon="3.13134">
        <ele>771</ele>
        <time>2019-05-31T09:38:31Z</time>
      </trkpt>
      <trkpt lat="44.07365" lon="3.13136">
        <ele>771.1</ele>
        <time>2019-05-31T09:38:32Z</time>
      </trkpt>
      <trkpt lat="44.07361" lon="3.1314">
        <ele>771.3</ele>
        <time>2019-05-31T09:38:33Z</time>
      </trkpt>
      <trkpt lat="44.07359" lon="3.13142">
        <ele>771.4</ele>
        <time>2019-05-31T09:38:34Z</time>
      </trkpt>
      <trkpt lat="44.07356" lon="3.13144">
        <ele>771.4</ele>
        <time>2019-05-31T09:38:35Z</time>
      </trkpt>
      <trkpt lat="44.07353" lon="3.13148">
        <ele>771.5</ele>
        <time>2019-05-31T09:38:37Z</time>
      </trkpt>
      <trkpt lat="44.07349" lon="3.13153">
        <ele>771.6</ele>
        <time>2019-05-31T09:38:39Z</time>
      </trkpt>
      <trkpt lat="44.07346" lon="3.13158">
        <ele>771.8</ele>
        <time>2019-05-31T09:38:41Z</time>
      </trkpt>
      <trkpt lat="44.07343" lon="3.13163">
        <ele>771.9</ele>
        <time>2019-05-31T09:38:43Z</time>
      </trkpt>
      <trkpt lat="44.07339" lon="3.13165">
        <ele>772</ele>
        <time>2019-05-31T09:38:45Z</time>
      </trkpt>
      <trkpt lat="44.07335" lon="3.13166">
        <ele>772</ele>
        <time>2019-05-31T09:38:47Z</time>
      </trkpt>
      <trkpt lat="44.07331" lon="3.13167">
        <ele>772.1</ele>
        <time>2019-05-31T09:38:49Z</time>
      </trkpt>
      <trkpt lat="44.07326" lon="3.13168">
        <ele>772.1</ele>
        <time>2019-05-31T09:38:51Z</time>
      </trkpt>
      <trkpt lat="44.07322" lon="3.13169">
        <ele>772.2</ele>
        <time>2019-05-31T09:38:53Z</time>
      </trkpt>
      <trkpt lat="44.07317" lon="3.1317">
        <ele>772.3</ele>
        <time>2019-05-31T09:38:55Z</time>
      </trkpt>
      <trkpt lat="44.07312" lon="3.13169">
        <ele>772.3</ele>
        <time>2019-05-31T09:38:57Z</time>
      </trkpt>
      <trkpt lat="44.07309" lon="3.13169">
        <ele>772.3</ele>
        <time>2019-05-31T09:38:58Z</time>
      </trkpt>
      <trkpt lat="44.07305" lon="3.13169">
        <ele>772.4</ele>
        <time>2019-05-31T09:38:59Z</time>
      </trkpt>
      <trkpt lat="44.07302" lon="3.13168">
        <ele>772.4</ele>
        <time>2019-05-31T09:39:00Z</time>
      </trkpt>
      <trkpt lat="44.07298" lon="3.13166">
        <ele>772.4</ele>
        <time>2019-05-31T09:39:01Z</time>
      </trkpt>
      <trkpt lat="44.07294" lon="3.13164">
        <ele>772.4</ele>
        <time>2019-05-31T09:39:02Z</time>
      </trkpt>
      <trkpt lat="44.07291" lon="3.13162">
        <ele>772.4</ele>
        <time>2019-05-31T09:39:03Z</time>
      </trkpt>
      <trkpt lat="44.07288" lon="3.13159">
        <ele>772.4</ele>
        <time>2019-05-31T09:39:04Z</time>
      </trkpt>
      <trkpt lat="44.07285" lon="3.13156">
        <ele>772.4</ele>
        <time>2019-05-31T09:39:05Z</time>
      </trkpt>
      <trkpt lat="44.07283" lon="3.13153">
        <ele>772.4</ele>
        <time>2019-05-31T09:39:06Z</time>
      </trkpt>
      <trkpt lat="44.07281" lon="3.1315">
        <ele>772.5</ele>
        <time>2019-05-31T09:39:07Z</time>
      </trkpt>
      <trkpt lat="44.07275" lon="3.13146">
        <ele>772.5</ele>
        <time>2019-05-31T09:39:08Z</time>
      </trkpt>
      <trkpt lat="44.0727" lon="3.13142">
        <ele>772.6</ele>
        <time>2019-05-31T09:39:09Z</time>
      </trkpt>
      <trkpt lat="44.07267" lon="3.1314">
        <ele>772.7</ele>
        <time>2019-05-31T09:39:10Z</time>
      </trkpt>
      <trkpt lat="44.07263" lon="3.13139">
        <ele>772.8</ele>
        <time>2019-05-31T09:39:11Z</time>
      </trkpt>
      <trkpt lat="44.07259" lon="3.13137">
        <ele>772.9</ele>
        <time>2019-05-31T09:39:12Z</time>
      </trkpt>
      <trkpt lat="44.07255" lon="3.13136">
        <ele>773</ele>
        <time>2019-05-31T09:39:13Z</time>
      </trkpt>
      <trkpt lat="44.07252" lon="3.13135">
        <ele>773.1</ele>
        <time>2019-05-31T09:39:14Z</time>
      </trkpt>
      <trkpt lat="44.07248" lon="3.13133">
        <ele>773.2</ele>
        <time>2019-05-31T09:39:15Z</time>
      </trkpt>
      <trkpt lat="44.07242" lon="3.13131">
        <ele>773.4</ele>
        <time>2019-05-31T09:39:16Z</time>
      </trkpt>
      <trkpt lat="44.07236" lon="3.13128">
        <ele>773.5</ele>
        <time>2019-05-31T09:39:17Z</time>
      </trkpt>
      <trkpt lat="44.0723" lon="3.13126">
        <ele>773.7</ele>
        <time>2019-05-31T09:39:18Z</time>
      </trkpt>
      <trkpt lat="44.07225" lon="3.13126">
        <ele>773.8</ele>
        <time>2019-05-31T09:39:19Z</time>
      </trkpt>
      <trkpt lat="44.0722" lon="3.13122">
        <ele>773.9</ele>
        <time>2019-05-31T09:39:20Z</time>
      </trkpt>
      <trkpt lat="44.07214" lon="3.13118">
        <ele>774.1</ele>
        <time>2019-05-31T09:39:21Z</time>
      </trkpt>
      <trkpt lat="44.07208" lon="3.13116">
        <ele>774.2</ele>
        <time>2019-05-31T09:39:22Z</time>
      </trkpt>
      <trkpt lat="44.07203" lon="3.13116">
        <ele>774.4</ele>
        <time>2019-05-31T09:39:23Z</time>
      </trkpt>
      <trkpt lat="44.07198" lon="3.13114">
        <ele>774.5</ele>
        <time>2019-05-31T09:39:24Z</time>
      </trkpt>
      <trkpt lat="44.07194" lon="3.13113">
        <ele>774.6</ele>
        <time>2019-05-31T09:39:25Z</time>
      </trkpt>
      <trkpt lat="44.0719" lon="3.13113">
        <ele>774.8</ele>
        <time>2019-05-31T09:39:26Z</time>
      </trkpt>
      <trkpt lat="44.07185" lon="3.13114">
        <ele>775</ele>
        <time>2019-05-31T09:39:27Z</time>
      </trkpt>
      <trkpt lat="44.07178" lon="3.13115">
        <ele>775.2</ele>
        <time>2019-05-31T09:39:28Z</time>
      </trkpt>
      <trkpt lat="44.07173" lon="3.13115">
        <ele>775.5</ele>
        <time>2019-05-31T09:39:29Z</time>
      </trkpt>
      <trkpt lat="44.07166" lon="3.13114">
        <ele>775.8</ele>
        <time>2019-05-31T09:39:30Z</time>
      </trkpt>
      <trkpt lat="44.07163" lon="3.13116">
        <ele>775.9</ele>
        <time>2019-05-31T09:39:31Z</time>
      </trkpt>
      <trkpt lat="44.07159" lon="3.13117">
        <ele>776.1</ele>
        <time>2019-05-31T09:39:32Z</time>
      </trkpt>
      <trkpt lat="44.07155" lon="3.13119">
        <ele>776.3</ele>
        <time>2019-05-31T09:39:33Z</time>
      </trkpt>
      <trkpt lat="44.0715" lon="3.1312">
        <ele>776.6</ele>
        <time>2019-05-31T09:39:34Z</time>
      </trkpt>
      <trkpt lat="44.07146" lon="3.13122">
        <ele>776.8</ele>
        <time>2019-05-31T09:39:35Z</time>
      </trkpt>
      <trkpt lat="44.0714" lon="3.13122">
        <ele>777.1</ele>
        <time>2019-05-31T09:39:37Z</time>
      </trkpt>
      <trkpt lat="44.07135" lon="3.13121">
        <ele>777.3</ele>
        <time>2019-05-31T09:39:38Z</time>
      </trkpt>
      <trkpt lat="44.0713" lon="3.13121">
        <ele>777.4</ele>
        <time>2019-05-31T09:39:39Z</time>
      </trkpt>
      <trkpt lat="44.07125" lon="3.1312">
        <ele>777.4</ele>
        <time>2019-05-31T09:39:40Z</time>
      </trkpt>
      <trkpt lat="44.0712" lon="3.13121">
        <ele>777.5</ele>
        <time>2019-05-31T09:39:41Z</time>
      </trkpt>
      <trkpt lat="44.07116" lon="3.13122">
        <ele>777.6</ele>
        <time>2019-05-31T09:39:42Z</time>
      </trkpt>
      <trkpt lat="44.07113" lon="3.13121">
        <ele>777.7</ele>
        <time>2019-05-31T09:39:43Z</time>
      </trkpt>
      <trkpt lat="44.0711" lon="3.13123">
        <ele>777.8</ele>
        <time>2019-05-31T09:39:44Z</time>
      </trkpt>
      <trkpt lat="44.07105" lon="3.13121">
        <ele>778</ele>
        <time>2019-05-31T09:39:45Z</time>
      </trkpt>
      <trkpt lat="44.07102" lon="3.1312">
        <ele>778.1</ele>
        <time>2019-05-31T09:39:46Z</time>
      </trkpt>
      <trkpt lat="44.07099" lon="3.13119">
        <ele>778.2</ele>
        <time>2019-05-31T09:39:47Z</time>
      </trkpt>
      <trkpt lat="44.07095" lon="3.13118">
        <ele>778.3</ele>
        <time>2019-05-31T09:39:48Z</time>
      </trkpt>
      <trkpt lat="44.07091" lon="3.13118">
        <ele>778.3</ele>
        <time>2019-05-31T09:39:49Z</time>
      </trkpt>
      <trkpt lat="44.07088" lon="3.1312">
        <ele>778.4</ele>
        <time>2019-05-31T09:39:50Z</time>
      </trkpt>
      <trkpt lat="44.07084" lon="3.13119">
        <ele>778.5</ele>
        <time>2019-05-31T09:39:51Z</time>
      </trkpt>
      <trkpt lat="44.07081" lon="3.13118">
        <ele>778.6</ele>
        <time>2019-05-31T09:39:52Z</time>
      </trkpt>
      <trkpt lat="44.07077" lon="3.13117">
        <ele>778.7</ele>
        <time>2019-05-31T09:39:53Z</time>
      </trkpt>
      <trkpt lat="44.07074" lon="3.13116">
        <ele>778.8</ele>
        <time>2019-05-31T09:39:54Z</time>
      </trkpt>
      <trkpt lat="44.07071" lon="3.13115">
        <ele>778.9</ele>
        <time>2019-05-31T09:39:55Z</time>
      </trkpt>
      <trkpt lat="44.07067" lon="3.13114">
        <ele>779</ele>
        <time>2019-05-31T09:39:57Z</time>
      </trkpt>
      <trkpt lat="44.07064" lon="3.13113">
        <ele>779</ele>
        <time>2019-05-31T09:39:59Z</time>
      </trkpt>
      <trkpt lat="44.07059" lon="3.13112">
        <ele>779.1</ele>
        <time>2019-05-31T09:40:02Z</time>
      </trkpt>
      <trkpt lat="44.07056" lon="3.13113">
        <ele>779.2</ele>
        <time>2019-05-31T09:40:03Z</time>
      </trkpt>
      <trkpt lat="44.07053" lon="3.13113">
        <ele>779.2</ele>
        <time>2019-05-31T09:40:04Z</time>
      </trkpt>
      <trkpt lat="44.0705" lon="3.13114">
        <ele>779.2</ele>
        <time>2019-05-31T09:40:05Z</time>
      </trkpt>
      <trkpt lat="44.07047" lon="3.13116">
        <ele>779.2</ele>
        <time>2019-05-31T09:40:06Z</time>
      </trkpt>
      <trkpt lat="44.07044" lon="3.13117">
        <ele>779.2</ele>
        <time>2019-05-31T09:40:07Z</time>
      </trkpt>
      <trkpt lat="44.07041" lon="3.13118">
        <ele>779.2</ele>
        <time>2019-05-31T09:40:08Z</time>
      </trkpt>
      <trkpt lat="44.07037" lon="3.13119">
        <ele>779.2</ele>
        <time>2019-05-31T09:40:09Z</time>
      </trkpt>
      <trkpt lat="44.07034" lon="3.1312">
        <ele>779.2</ele>
        <time>2019-05-31T09:40:10Z</time>
      </trkpt>
      <trkpt lat="44.07028" lon="3.13121">
        <ele>779.2</ele>
        <time>2019-05-31T09:40:11Z</time>
      </trkpt>
      <trkpt lat="44.07024" lon="3.13123">
        <ele>779.2</ele>
        <time>2019-05-31T09:40:12Z</time>
      </trkpt>
      <trkpt lat="44.07019" lon="3.13125">
        <ele>779.2</ele>
        <time>2019-05-31T09:40:13Z</time>
      </trkpt>
      <trkpt lat="44.07013" lon="3.13131">
        <ele>779.3</ele>
        <time>2019-05-31T09:40:14Z</time>
      </trkpt>
      <trkpt lat="44.07011" lon="3.13135">
        <ele>779.3</ele>
        <time>2019-05-31T09:40:15Z</time>
      </trkpt>
      <trkpt lat="44.0701" lon="3.13141">
        <ele>779.4</ele>
        <time>2019-05-31T09:40:16Z</time>
      </trkpt>
      <trkpt lat="44.0701" lon="3.13145">
        <ele>779.4</ele>
        <time>2019-05-31T09:40:17Z</time>
      </trkpt>
      <trkpt lat="44.07008" lon="3.13149">
        <ele>779.5</ele>
        <time>2019-05-31T09:40:18Z</time>
      </trkpt>
      <trkpt lat="44.07006" lon="3.13154">
        <ele>779.5</ele>
        <time>2019-05-31T09:40:19Z</time>
      </trkpt>
      <trkpt lat="44.07005" lon="3.13159">
        <ele>779.6</ele>
        <time>2019-05-31T09:40:20Z</time>
      </trkpt>
      <trkpt lat="44.07001" lon="3.13163">
        <ele>779.7</ele>
        <time>2019-05-31T09:40:22Z</time>
      </trkpt>
      <trkpt lat="44.06999" lon="3.13168">
        <ele>779.8</ele>
        <time>2019-05-31T09:40:24Z</time>
      </trkpt>
      <trkpt lat="44.06998" lon="3.13174">
        <ele>780</ele>
        <time>2019-05-31T09:40:26Z</time>
      </trkpt>
      <trkpt lat="44.06996" lon="3.13178">
        <ele>780.1</ele>
        <time>2019-05-31T09:40:27Z</time>
      </trkpt>
      <trkpt lat="44.06995" lon="3.13182">
        <ele>780.2</ele>
        <time>2019-05-31T09:40:28Z</time>
      </trkpt>
      <trkpt lat="44.06993" lon="3.13188">
        <ele>780.5</ele>
        <time>2019-05-31T09:40:30Z</time>
      </trkpt>
      <trkpt lat="44.06991" lon="3.13195">
        <ele>780.8</ele>
        <time>2019-05-31T09:40:32Z</time>
      </trkpt>
      <trkpt lat="44.0699" lon="3.13201">
        <ele>781.1</ele>
        <time>2019-05-31T09:40:34Z</time>
      </trkpt>
      <trkpt lat="44.0699" lon="3.13206">
        <ele>781.2</ele>
        <time>2019-05-31T09:40:35Z</time>
      </trkpt>
      <trkpt lat="44.06989" lon="3.1321">
        <ele>781.5</ele>
        <time>2019-05-31T09:40:36Z</time>
      </trkpt>
      <trkpt lat="44.06989" lon="3.13214">
        <ele>781.6</ele>
        <time>2019-05-31T09:40:37Z</time>
      </trkpt>
      <trkpt lat="44.0699" lon="3.13218">
        <ele>781.9</ele>
        <time>2019-05-31T09:40:38Z</time>
      </trkpt>
      <trkpt lat="44.06991" lon="3.13222">
        <ele>782.1</ele>
        <time>2019-05-31T09:40:39Z</time>
      </trkpt>
      <trkpt lat="44.06993" lon="3.13226">
        <ele>782.4</ele>
        <time>2019-05-31T09:40:40Z</time>
      </trkpt>
      <trkpt lat="44.06994" lon="3.1323">
        <ele>782.6</ele>
        <time>2019-05-31T09:40:41Z</time>
      </trkpt>
      <trkpt lat="44.06994" lon="3.13234">
        <ele>782.9</ele>
        <time>2019-05-31T09:40:42Z</time>
      </trkpt>
      <trkpt lat="44.06994" lon="3.13238">
        <ele>783.2</ele>
        <time>2019-05-31T09:40:43Z</time>
      </trkpt>
      <trkpt lat="44.06992" lon="3.13244">
        <ele>783.6</ele>
        <time>2019-05-31T09:40:45Z</time>
      </trkpt>
      <trkpt lat="44.0699" lon="3.1325">
        <ele>784</ele>
        <time>2019-05-31T09:40:47Z</time>
      </trkpt>
      <trkpt lat="44.06989" lon="3.13254">
        <ele>784.2</ele>
        <time>2019-05-31T09:40:49Z</time>
      </trkpt>
      <trkpt lat="44.06988" lon="3.13258">
        <ele>784.4</ele>
        <time>2019-05-31T09:40:50Z</time>
      </trkpt>
      <trkpt lat="44.06987" lon="3.13262">
        <ele>784.6</ele>
        <time>2019-05-31T09:40:51Z</time>
      </trkpt>
      <trkpt lat="44.06986" lon="3.13266">
        <ele>784.8</ele>
        <time>2019-05-31T09:40:52Z</time>
      </trkpt>
      <trkpt lat="44.06985" lon="3.13271">
        <ele>784.9</ele>
        <time>2019-05-31T09:40:53Z</time>
      </trkpt>
      <trkpt lat="44.06985" lon="3.13275">
        <ele>785.1</ele>
        <time>2019-05-31T09:40:54Z</time>
      </trkpt>
      <trkpt lat="44.06985" lon="3.13281">
        <ele>785.4</ele>
        <time>2019-05-31T09:40:56Z</time>
      </trkpt>
      <trkpt lat="44.06986" lon="3.13286">
        <ele>785.6</ele>
        <time>2019-05-31T09:40:58Z</time>
      </trkpt>
      <trkpt lat="44.06985" lon="3.13292">
        <ele>785.8</ele>
        <time>2019-05-31T09:41:00Z</time>
      </trkpt>
      <trkpt lat="44.06982" lon="3.13298">
        <ele>786</ele>
        <time>2019-05-31T09:41:02Z</time>
      </trkpt>
      <trkpt lat="44.0698" lon="3.13301">
        <ele>786</ele>
        <time>2019-05-31T09:41:03Z</time>
      </trkpt>
      <trkpt lat="44.06979" lon="3.13304">
        <ele>786</ele>
        <time>2019-05-31T09:41:04Z</time>
      </trkpt>
      <trkpt lat="44.06977" lon="3.13308">
        <ele>786</ele>
        <time>2019-05-31T09:41:05Z</time>
      </trkpt>
      <trkpt lat="44.06976" lon="3.13312">
        <ele>786.1</ele>
        <time>2019-05-31T09:41:06Z</time>
      </trkpt>
      <trkpt lat="44.06975" lon="3.13316">
        <ele>786.1</ele>
        <time>2019-05-31T09:41:07Z</time>
      </trkpt>
      <trkpt lat="44.06975" lon="3.13323">
        <ele>786.2</ele>
        <time>2019-05-31T09:41:09Z</time>
      </trkpt>
      <trkpt lat="44.06975" lon="3.13329">
        <ele>786.3</ele>
        <time>2019-05-31T09:41:11Z</time>
      </trkpt>
      <trkpt lat="44.06975" lon="3.13336">
        <ele>786.4</ele>
        <time>2019-05-31T09:41:13Z</time>
      </trkpt>
      <trkpt lat="44.06972" lon="3.13338">
        <ele>786.4</ele>
        <time>2019-05-31T09:41:15Z</time>
      </trkpt>
      <trkpt lat="44.06968" lon="3.13339">
        <ele>786.5</ele>
        <time>2019-05-31T09:41:17Z</time>
      </trkpt>
      <trkpt lat="44.06965" lon="3.13339">
        <ele>786.6</ele>
        <time>2019-05-31T09:41:19Z</time>
      </trkpt>
      <trkpt lat="44.06962" lon="3.13339">
        <ele>786.7</ele>
        <time>2019-05-31T09:41:25Z</time>
      </trkpt>
      <trkpt lat="44.06957" lon="3.13342">
        <ele>786.8</ele>
        <time>2019-05-31T09:41:27Z</time>
      </trkpt>
      <trkpt lat="44.06955" lon="3.13345">
        <ele>786.9</ele>
        <time>2019-05-31T09:41:28Z</time>
      </trkpt>
      <trkpt lat="44.06953" lon="3.13348">
        <ele>787</ele>
        <time>2019-05-31T09:41:29Z</time>
      </trkpt>
      <trkpt lat="44.0695" lon="3.13353">
        <ele>787.1</ele>
        <time>2019-05-31T09:41:31Z</time>
      </trkpt>
      <trkpt lat="44.06947" lon="3.13355">
        <ele>787.2</ele>
        <time>2019-05-31T09:41:32Z</time>
      </trkpt>
      <trkpt lat="44.06944" lon="3.13358">
        <ele>787.3</ele>
        <time>2019-05-31T09:41:33Z</time>
      </trkpt>
      <trkpt lat="44.06942" lon="3.13361">
        <ele>787.4</ele>
        <time>2019-05-31T09:41:34Z</time>
      </trkpt>
      <trkpt lat="44.0694" lon="3.13364">
        <ele>787.5</ele>
        <time>2019-05-31T09:41:35Z</time>
      </trkpt>
      <trkpt lat="44.06938" lon="3.13367">
        <ele>787.6</ele>
        <time>2019-05-31T09:41:36Z</time>
      </trkpt>
      <trkpt lat="44.06936" lon="3.13371">
        <ele>787.7</ele>
        <time>2019-05-31T09:41:37Z</time>
      </trkpt>
      <trkpt lat="44.06935" lon="3.13375">
        <ele>787.8</ele>
        <time>2019-05-31T09:41:38Z</time>
      </trkpt>
      <trkpt lat="44.06934" lon="3.13378">
        <ele>787.9</ele>
        <time>2019-05-31T09:41:39Z</time>
      </trkpt>
      <trkpt lat="44.06933" lon="3.13382">
        <ele>788</ele>
        <time>2019-05-31T09:41:40Z</time>
      </trkpt>
      <trkpt lat="44.06932" lon="3.13386">
        <ele>788.1</ele>
        <time>2019-05-31T09:41:41Z</time>
      </trkpt>
      <trkpt lat="44.06931" lon="3.1339">
        <ele>788.2</ele>
        <time>2019-05-31T09:41:42Z</time>
      </trkpt>
      <trkpt lat="44.06929" lon="3.13393">
        <ele>788.3</ele>
        <time>2019-05-31T09:41:43Z</time>
      </trkpt>
      <trkpt lat="44.06928" lon="3.13397">
        <ele>788.4</ele>
        <time>2019-05-31T09:41:44Z</time>
      </trkpt>
      <trkpt lat="44.06927" lon="3.13401">
        <ele>788.5</ele>
        <time>2019-05-31T09:41:45Z</time>
      </trkpt>
      <trkpt lat="44.06926" lon="3.13404">
        <ele>788.6</ele>
        <time>2019-05-31T09:41:46Z</time>
      </trkpt>
      <trkpt lat="44.06924" lon="3.13408">
        <ele>788.6</ele>
        <time>2019-05-31T09:41:47Z</time>
      </trkpt>
      <trkpt lat="44.06923" lon="3.13412">
        <ele>788.7</ele>
        <time>2019-05-31T09:41:48Z</time>
      </trkpt>
      <trkpt lat="44.0692" lon="3.13419">
        <ele>788.9</ele>
        <time>2019-05-31T09:41:50Z</time>
      </trkpt>
      <trkpt lat="44.06919" lon="3.13422">
        <ele>789</ele>
        <time>2019-05-31T09:41:51Z</time>
      </trkpt>
      <trkpt lat="44.06918" lon="3.13426">
        <ele>789.1</ele>
        <time>2019-05-31T09:41:52Z</time>
      </trkpt>
      <trkpt lat="44.06916" lon="3.1343">
        <ele>789.2</ele>
        <time>2019-05-31T09:41:53Z</time>
      </trkpt>
      <trkpt lat="44.06914" lon="3.13434">
        <ele>789.3</ele>
        <time>2019-05-31T09:41:54Z</time>
      </trkpt>
      <trkpt lat="44.06912" lon="3.13438">
        <ele>789.4</ele>
        <time>2019-05-31T09:41:55Z</time>
      </trkpt>
      <trkpt lat="44.06911" lon="3.13442">
        <ele>789.5</ele>
        <time>2019-05-31T09:41:56Z</time>
      </trkpt>
      <trkpt lat="44.06909" lon="3.13445">
        <ele>789.6</ele>
        <time>2019-05-31T09:41:57Z</time>
      </trkpt>
      <trkpt lat="44.06908" lon="3.1345">
        <ele>789.8</ele>
        <time>2019-05-31T09:41:58Z</time>
      </trkpt>
      <trkpt lat="44.06906" lon="3.13453">
        <ele>789.9</ele>
        <time>2019-05-31T09:41:59Z</time>
      </trkpt>
      <trkpt lat="44.06904" lon="3.13457">
        <ele>790</ele>
        <time>2019-05-31T09:42:00Z</time>
      </trkpt>
      <trkpt lat="44.06902" lon="3.1346">
        <ele>790.1</ele>
        <time>2019-05-31T09:42:01Z</time>
      </trkpt>
      <trkpt lat="44.069" lon="3.13463">
        <ele>790.3</ele>
        <time>2019-05-31T09:42:02Z</time>
      </trkpt>
      <trkpt lat="44.06896" lon="3.13467">
        <ele>790.4</ele>
        <time>2019-05-31T09:42:04Z</time>
      </trkpt>
      <trkpt lat="44.06892" lon="3.13469">
        <ele>790.6</ele>
        <time>2019-05-31T09:42:06Z</time>
      </trkpt>
      <trkpt lat="44.0689" lon="3.13471">
        <ele>790.7</ele>
        <time>2019-05-31T09:42:07Z</time>
      </trkpt>
      <trkpt lat="44.06887" lon="3.13472">
        <ele>790.8</ele>
        <time>2019-05-31T09:42:08Z</time>
      </trkpt>
      <trkpt lat="44.06884" lon="3.13473">
        <ele>791</ele>
        <time>2019-05-31T09:42:09Z</time>
      </trkpt>
      <trkpt lat="44.0688" lon="3.13474">
        <ele>791.1</ele>
        <time>2019-05-31T09:42:10Z</time>
      </trkpt>
      <trkpt lat="44.06877" lon="3.13475">
        <ele>791.2</ele>
        <time>2019-05-31T09:42:11Z</time>
      </trkpt>
      <trkpt lat="44.06874" lon="3.13476">
        <ele>791.3</ele>
        <time>2019-05-31T09:42:12Z</time>
      </trkpt>
      <trkpt lat="44.0687" lon="3.1348">
        <ele>791.4</ele>
        <time>2019-05-31T09:42:14Z</time>
      </trkpt>
      <trkpt lat="44.06868" lon="3.13483">
        <ele>791.5</ele>
        <time>2019-05-31T09:42:15Z</time>
      </trkpt>
      <trkpt lat="44.06865" lon="3.13485">
        <ele>791.7</ele>
        <time>2019-05-31T09:42:16Z</time>
      </trkpt>
      <trkpt lat="44.06862" lon="3.13487">
        <ele>791.8</ele>
        <time>2019-05-31T09:42:17Z</time>
      </trkpt>
      <trkpt lat="44.0686" lon="3.1349">
        <ele>791.9</ele>
        <time>2019-05-31T09:42:18Z</time>
      </trkpt>
      <trkpt lat="44.06857" lon="3.13492">
        <ele>792.1</ele>
        <time>2019-05-31T09:42:19Z</time>
      </trkpt>
      <trkpt lat="44.06855" lon="3.13495">
        <ele>792.2</ele>
        <time>2019-05-31T09:42:20Z</time>
      </trkpt>
      <trkpt lat="44.06852" lon="3.13497">
        <ele>792.3</ele>
        <time>2019-05-31T09:42:21Z</time>
      </trkpt>
      <trkpt lat="44.06848" lon="3.13501">
        <ele>792.6</ele>
        <time>2019-05-31T09:42:23Z</time>
      </trkpt>
      <trkpt lat="44.06845" lon="3.13504">
        <ele>792.8</ele>
        <time>2019-05-31T09:42:24Z</time>
      </trkpt>
      <trkpt lat="44.06842" lon="3.13506">
        <ele>793</ele>
        <time>2019-05-31T09:42:25Z</time>
      </trkpt>
      <trkpt lat="44.06839" lon="3.13508">
        <ele>793.3</ele>
        <time>2019-05-31T09:42:26Z</time>
      </trkpt>
      <trkpt lat="44.06836" lon="3.1351">
        <ele>793.6</ele>
        <time>2019-05-31T09:42:27Z</time>
      </trkpt>
      <trkpt lat="44.06833" lon="3.13511">
        <ele>793.8</ele>
        <time>2019-05-31T09:42:28Z</time>
      </trkpt>
      <trkpt lat="44.06829" lon="3.13512">
        <ele>794.2</ele>
        <time>2019-05-31T09:42:30Z</time>
      </trkpt>
      <trkpt lat="44.06824" lon="3.13513">
        <ele>794.5</ele>
        <time>2019-05-31T09:42:32Z</time>
      </trkpt>
      <trkpt lat="44.0682" lon="3.13515">
        <ele>794.8</ele>
        <time>2019-05-31T09:42:34Z</time>
      </trkpt>
      <trkpt lat="44.06816" lon="3.13517">
        <ele>795.1</ele>
        <time>2019-05-31T09:42:36Z</time>
      </trkpt>
      <trkpt lat="44.06812" lon="3.1352">
        <ele>795.4</ele>
        <time>2019-05-31T09:42:38Z</time>
      </trkpt>
      <trkpt lat="44.06808" lon="3.13523">
        <ele>795.7</ele>
        <time>2019-05-31T09:42:40Z</time>
      </trkpt>
      <trkpt lat="44.06804" lon="3.13526">
        <ele>795.9</ele>
        <time>2019-05-31T09:42:42Z</time>
      </trkpt>
      <trkpt lat="44.06802" lon="3.13528">
        <ele>796</ele>
        <time>2019-05-31T09:42:43Z</time>
      </trkpt>
      <trkpt lat="44.06798" lon="3.13533">
        <ele>796.3</ele>
        <time>2019-05-31T09:42:45Z</time>
      </trkpt>
      <trkpt lat="44.06796" lon="3.13536">
        <ele>796.4</ele>
        <time>2019-05-31T09:42:46Z</time>
      </trkpt>
      <trkpt lat="44.06793" lon="3.13539">
        <ele>796.6</ele>
        <time>2019-05-31T09:42:47Z</time>
      </trkpt>
      <trkpt lat="44.06791" lon="3.13542">
        <ele>796.7</ele>
        <time>2019-05-31T09:42:48Z</time>
      </trkpt>
      <trkpt lat="44.06785" lon="3.13544">
        <ele>797.1</ele>
        <time>2019-05-31T09:42:50Z</time>
      </trkpt>
      <trkpt lat="44.06781" lon="3.13545">
        <ele>797.3</ele>
        <time>2019-05-31T09:42:51Z</time>
      </trkpt>
      <trkpt lat="44.06778" lon="3.13545">
        <ele>797.5</ele>
        <time>2019-05-31T09:42:52Z</time>
      </trkpt>
      <trkpt lat="44.06774" lon="3.13546">
        <ele>797.7</ele>
        <time>2019-05-31T09:42:53Z</time>
      </trkpt>
      <trkpt lat="44.06771" lon="3.13548">
        <ele>797.8</ele>
        <time>2019-05-31T09:42:54Z</time>
      </trkpt>
      <trkpt lat="44.06768" lon="3.1355">
        <ele>798</ele>
        <time>2019-05-31T09:42:56Z</time>
      </trkpt>
      <trkpt lat="44.06765" lon="3.13551">
        <ele>798.2</ele>
        <time>2019-05-31T09:42:57Z</time>
      </trkpt>
      <trkpt lat="44.06761" lon="3.13551">
        <ele>798.4</ele>
        <time>2019-05-31T09:42:58Z</time>
      </trkpt>
      <trkpt lat="44.06758" lon="3.13551">
        <ele>798.6</ele>
        <time>2019-05-31T09:42:59Z</time>
      </trkpt>
      <trkpt lat="44.06754" lon="3.13553">
        <ele>798.8</ele>
        <time>2019-05-31T09:43:00Z</time>
      </trkpt>
      <trkpt lat="44.06751" lon="3.13555">
        <ele>799</ele>
        <time>2019-05-31T09:43:01Z</time>
      </trkpt>
      <trkpt lat="44.06748" lon="3.13557">
        <ele>799.1</ele>
        <time>2019-05-31T09:43:02Z</time>
      </trkpt>
      <trkpt lat="44.06746" lon="3.1356">
        <ele>799.3</ele>
        <time>2019-05-31T09:43:03Z</time>
      </trkpt>
      <trkpt lat="44.06744" lon="3.13563">
        <ele>799.5</ele>
        <time>2019-05-31T09:43:04Z</time>
      </trkpt>
      <trkpt lat="44.06742" lon="3.13567">
        <ele>799.7</ele>
        <time>2019-05-31T09:43:05Z</time>
      </trkpt>
      <trkpt lat="44.06739" lon="3.1357">
        <ele>799.9</ele>
        <time>2019-05-31T09:43:06Z</time>
      </trkpt>
      <trkpt lat="44.06737" lon="3.13573">
        <ele>800.1</ele>
        <time>2019-05-31T09:43:07Z</time>
      </trkpt>
      <trkpt lat="44.06735" lon="3.13576">
        <ele>800.4</ele>
        <time>2019-05-31T09:43:08Z</time>
      </trkpt>
      <trkpt lat="44.06731" lon="3.13581">
        <ele>800.7</ele>
        <time>2019-05-31T09:43:09Z</time>
      </trkpt>
      <trkpt lat="44.06729" lon="3.13584">
        <ele>800.9</ele>
        <time>2019-05-31T09:43:10Z</time>
      </trkpt>
      <trkpt lat="44.06727" lon="3.13588">
        <ele>801.1</ele>
        <time>2019-05-31T09:43:11Z</time>
      </trkpt>
      <trkpt lat="44.06726" lon="3.13592">
        <ele>801.2</ele>
        <time>2019-05-31T09:43:12Z</time>
      </trkpt>
      <trkpt lat="44.06724" lon="3.13596">
        <ele>801.4</ele>
        <time>2019-05-31T09:43:13Z</time>
      </trkpt>
      <trkpt lat="44.06721" lon="3.136">
        <ele>801.6</ele>
        <time>2019-05-31T09:43:14Z</time>
      </trkpt>
      <trkpt lat="44.06718" lon="3.13603">
        <ele>801.8</ele>
        <time>2019-05-31T09:43:15Z</time>
      </trkpt>
      <trkpt lat="44.06715" lon="3.13606">
        <ele>801.9</ele>
        <time>2019-05-31T09:43:16Z</time>
      </trkpt>
      <trkpt lat="44.06712" lon="3.13608">
        <ele>802</ele>
        <time>2019-05-31T09:43:17Z</time>
      </trkpt>
      <trkpt lat="44.06709" lon="3.13609">
        <ele>802.2</ele>
        <time>2019-05-31T09:43:18Z</time>
      </trkpt>
      <trkpt lat="44.06707" lon="3.1361">
        <ele>802.3</ele>
        <time>2019-05-31T09:43:19Z</time>
      </trkpt>
      <trkpt lat="44.06704" lon="3.13612">
        <ele>802.4</ele>
        <time>2019-05-31T09:43:20Z</time>
      </trkpt>
      <trkpt lat="44.06701" lon="3.13614">
        <ele>802.5</ele>
        <time>2019-05-31T09:43:21Z</time>
      </trkpt>
      <trkpt lat="44.06698" lon="3.13617">
        <ele>802.6</ele>
        <time>2019-05-31T09:43:22Z</time>
      </trkpt>
      <trkpt lat="44.06695" lon="3.13622">
        <ele>802.8</ele>
        <time>2019-05-31T09:43:24Z</time>
      </trkpt>
      <trkpt lat="44.06693" lon="3.13625">
        <ele>802.9</ele>
        <time>2019-05-31T09:43:25Z</time>
      </trkpt>
      <trkpt lat="44.06691" lon="3.13628">
        <ele>803</ele>
        <time>2019-05-31T09:43:26Z</time>
      </trkpt>
      <trkpt lat="44.06688" lon="3.13632">
        <ele>803.1</ele>
        <time>2019-05-31T09:43:27Z</time>
      </trkpt>
      <trkpt lat="44.06686" lon="3.13636">
        <ele>803.2</ele>
        <time>2019-05-31T09:43:28Z</time>
      </trkpt>
      <trkpt lat="44.06684" lon="3.13639">
        <ele>803.3</ele>
        <time>2019-05-31T09:43:29Z</time>
      </trkpt>
      <trkpt lat="44.06682" lon="3.13642">
        <ele>803.4</ele>
        <time>2019-05-31T09:43:30Z</time>
      </trkpt>
      <trkpt lat="44.0668" lon="3.13648">
        <ele>803.5</ele>
        <time>2019-05-31T09:43:32Z</time>
      </trkpt>
      <trkpt lat="44.06677" lon="3.13654">
        <ele>803.7</ele>
        <time>2019-05-31T09:43:34Z</time>
      </trkpt>
      <trkpt lat="44.06672" lon="3.13658">
        <ele>803.8</ele>
        <time>2019-05-31T09:43:36Z</time>
      </trkpt>
      <trkpt lat="44.06669" lon="3.13659">
        <ele>803.9</ele>
        <time>2019-05-31T09:43:37Z</time>
      </trkpt>
      <trkpt lat="44.06667" lon="3.13661">
        <ele>804</ele>
        <time>2019-05-31T09:43:38Z</time>
      </trkpt>
      <trkpt lat="44.06664" lon="3.13661">
        <ele>804.1</ele>
        <time>2019-05-31T09:43:39Z</time>
      </trkpt>
      <trkpt lat="44.0666" lon="3.13664">
        <ele>804.2</ele>
        <time>2019-05-31T09:43:41Z</time>
      </trkpt>
      <trkpt lat="44.06658" lon="3.13667">
        <ele>804.3</ele>
        <time>2019-05-31T09:43:42Z</time>
      </trkpt>
      <trkpt lat="44.06656" lon="3.13671">
        <ele>804.4</ele>
        <time>2019-05-31T09:43:43Z</time>
      </trkpt>
      <trkpt lat="44.06653" lon="3.13677">
        <ele>804.6</ele>
        <time>2019-05-31T09:43:45Z</time>
      </trkpt>
      <trkpt lat="44.0665" lon="3.13681">
        <ele>804.7</ele>
        <time>2019-05-31T09:43:47Z</time>
      </trkpt>
      <trkpt lat="44.06647" lon="3.13684">
        <ele>804.9</ele>
        <time>2019-05-31T09:43:49Z</time>
      </trkpt>
      <trkpt lat="44.06644" lon="3.13688">
        <ele>805.1</ele>
        <time>2019-05-31T09:43:51Z</time>
      </trkpt>
      <trkpt lat="44.06641" lon="3.13692">
        <ele>805.4</ele>
        <time>2019-05-31T09:43:53Z</time>
      </trkpt>
      <trkpt lat="44.06637" lon="3.13695">
        <ele>805.7</ele>
        <time>2019-05-31T09:43:55Z</time>
      </trkpt>
      <trkpt lat="44.06633" lon="3.13698">
        <ele>806</ele>
        <time>2019-05-31T09:43:57Z</time>
      </trkpt>
      <trkpt lat="44.06631" lon="3.13699">
        <ele>806.1</ele>
        <time>2019-05-31T09:43:59Z</time>
      </trkpt>
      <trkpt lat="44.06628" lon="3.13703">
        <ele>806.4</ele>
        <time>2019-05-31T09:44:01Z</time>
      </trkpt>
      <trkpt lat="44.06624" lon="3.13708">
        <ele>806.7</ele>
        <time>2019-05-31T09:44:03Z</time>
      </trkpt>
      <trkpt lat="44.06622" lon="3.1371">
        <ele>806.9</ele>
        <time>2019-05-31T09:44:04Z</time>
      </trkpt>
      <trkpt lat="44.06618" lon="3.13715">
        <ele>807.1</ele>
        <time>2019-05-31T09:44:06Z</time>
      </trkpt>
      <trkpt lat="44.06616" lon="3.13717">
        <ele>807.2</ele>
        <time>2019-05-31T09:44:07Z</time>
      </trkpt>
      <trkpt lat="44.06613" lon="3.13722">
        <ele>807.5</ele>
        <time>2019-05-31T09:44:09Z</time>
      </trkpt>
      <trkpt lat="44.06608" lon="3.13726">
        <ele>807.7</ele>
        <time>2019-05-31T09:44:11Z</time>
      </trkpt>
      <trkpt lat="44.06605" lon="3.13729">
        <ele>807.9</ele>
        <time>2019-05-31T09:44:13Z</time>
      </trkpt>
      <trkpt lat="44.06601" lon="3.13732">
        <ele>808.1</ele>
        <time>2019-05-31T09:44:15Z</time>
      </trkpt>
      <trkpt lat="44.06598" lon="3.13735">
        <ele>808.3</ele>
        <time>2019-05-31T09:44:17Z</time>
      </trkpt>
      <trkpt lat="44.06595" lon="3.1374">
        <ele>808.5</ele>
        <time>2019-05-31T09:44:19Z</time>
      </trkpt>
      <trkpt lat="44.06593" lon="3.13745">
        <ele>808.8</ele>
        <time>2019-05-31T09:44:21Z</time>
      </trkpt>
      <trkpt lat="44.0659" lon="3.13749">
        <ele>809.2</ele>
        <time>2019-05-31T09:44:23Z</time>
      </trkpt>
      <trkpt lat="44.06587" lon="3.13754">
        <ele>809.5</ele>
        <time>2019-05-31T09:44:25Z</time>
      </trkpt>
      <trkpt lat="44.06585" lon="3.13757">
        <ele>809.8</ele>
        <time>2019-05-31T09:44:26Z</time>
      </trkpt>
      <trkpt lat="44.06582" lon="3.13762">
        <ele>810.2</ele>
        <time>2019-05-31T09:44:28Z</time>
      </trkpt>
      <trkpt lat="44.06581" lon="3.13765">
        <ele>810.5</ele>
        <time>2019-05-31T09:44:29Z</time>
      </trkpt>
      <trkpt lat="44.06579" lon="3.13769">
        <ele>810.8</ele>
        <time>2019-05-31T09:44:30Z</time>
      </trkpt>
      <trkpt lat="44.06576" lon="3.13773">
        <ele>810.9</ele>
        <time>2019-05-31T09:44:32Z</time>
      </trkpt>
      <trkpt lat="44.06571" lon="3.13775">
        <ele>810.6</ele>
        <time>2019-05-31T09:44:34Z</time>
      </trkpt>
      <trkpt lat="44.06569" lon="3.13778">
        <ele>810.4</ele>
        <time>2019-05-31T09:44:36Z</time>
      </trkpt>
      <trkpt lat="44.06568" lon="3.13783">
        <ele>810.1</ele>
        <time>2019-05-31T09:44:38Z</time>
      </trkpt>
      <trkpt lat="44.06569" lon="3.13787">
        <ele>809.9</ele>
        <time>2019-05-31T09:44:40Z</time>
      </trkpt>
      <trkpt lat="44.06569" lon="3.13792">
        <ele>809.7</ele>
        <time>2019-05-31T09:44:42Z</time>
      </trkpt>
      <trkpt lat="44.0657" lon="3.13797">
        <ele>809.4</ele>
        <time>2019-05-31T09:44:44Z</time>
      </trkpt>
      <trkpt lat="44.06572" lon="3.13802">
        <ele>809.1</ele>
        <time>2019-05-31T09:44:46Z</time>
      </trkpt>
      <trkpt lat="44.06572" lon="3.13807">
        <ele>809.4</ele>
        <time>2019-05-31T09:44:48Z</time>
      </trkpt>
      <trkpt lat="44.06571" lon="3.13813">
        <ele>809.7</ele>
        <time>2019-05-31T09:44:50Z</time>
      </trkpt>
      <trkpt lat="44.06569" lon="3.13816">
        <ele>809.9</ele>
        <time>2019-05-31T09:44:51Z</time>
      </trkpt>
      <trkpt lat="44.06567" lon="3.1382">
        <ele>810.2</ele>
        <time>2019-05-31T09:44:52Z</time>
      </trkpt>
      <trkpt lat="44.06564" lon="3.13824">
        <ele>810.6</ele>
        <time>2019-05-31T09:44:53Z</time>
      </trkpt>
      <trkpt lat="44.0656" lon="3.13827">
        <ele>810.8</ele>
        <time>2019-05-31T09:44:54Z</time>
      </trkpt>
      <trkpt lat="44.06557" lon="3.13831">
        <ele>811.2</ele>
        <time>2019-05-31T09:44:55Z</time>
      </trkpt>
      <trkpt lat="44.06552" lon="3.13834">
        <ele>812</ele>
        <time>2019-05-31T09:44:56Z</time>
      </trkpt>
      <trkpt lat="44.06549" lon="3.13838">
        <ele>812.5</ele>
        <time>2019-05-31T09:44:57Z</time>
      </trkpt>
      <trkpt lat="44.06546" lon="3.13843">
        <ele>812.7</ele>
        <time>2019-05-31T09:44:58Z</time>
      </trkpt>
      <trkpt lat="44.06542" lon="3.13848">
        <ele>812.4</ele>
        <time>2019-05-31T09:44:59Z</time>
      </trkpt>
      <trkpt lat="44.06539" lon="3.13853">
        <ele>812.6</ele>
        <time>2019-05-31T09:45:00Z</time>
      </trkpt>
      <trkpt lat="44.06536" lon="3.13859">
        <ele>813</ele>
        <time>2019-05-31T09:45:01Z</time>
      </trkpt>
      <trkpt lat="44.06532" lon="3.13863">
        <ele>813.8</ele>
        <time>2019-05-31T09:45:02Z</time>
      </trkpt>
      <trkpt lat="44.06528" lon="3.13865">
        <ele>814.5</ele>
        <time>2019-05-31T09:45:03Z</time>
      </trkpt>
      <trkpt lat="44.06525" lon="3.13868">
        <ele>815.1</ele>
        <time>2019-05-31T09:45:04Z</time>
      </trkpt>
      <trkpt lat="44.06523" lon="3.1387">
        <ele>815.6</ele>
        <time>2019-05-31T09:45:05Z</time>
      </trkpt>
      <trkpt lat="44.06519" lon="3.13873">
        <ele>816.1</ele>
        <time>2019-05-31T09:45:07Z</time>
      </trkpt>
      <trkpt lat="44.06516" lon="3.13876">
        <ele>816.2</ele>
        <time>2019-05-31T09:45:09Z</time>
      </trkpt>
      <trkpt lat="44.06512" lon="3.13879">
        <ele>816.4</ele>
        <time>2019-05-31T09:45:11Z</time>
      </trkpt>
      <trkpt lat="44.06509" lon="3.13881">
        <ele>816.5</ele>
        <time>2019-05-31T09:45:13Z</time>
      </trkpt>
      <trkpt lat="44.06505" lon="3.13883">
        <ele>817.2</ele>
        <time>2019-05-31T09:45:15Z</time>
      </trkpt>
      <trkpt lat="44.06502" lon="3.13883">
        <ele>817.8</ele>
        <time>2019-05-31T09:45:17Z</time>
      </trkpt>
      <trkpt lat="44.06499" lon="3.13883">
        <ele>818.2</ele>
        <time>2019-05-31T09:45:19Z</time>
      </trkpt>
      <trkpt lat="44.06496" lon="3.13887">
        <ele>818.8</ele>
        <time>2019-05-31T09:45:21Z</time>
      </trkpt>
      <trkpt lat="44.06494" lon="3.13891">
        <ele>819.2</ele>
        <time>2019-05-31T09:45:23Z</time>
      </trkpt>
      <trkpt lat="44.06491" lon="3.13894">
        <ele>819.4</ele>
        <time>2019-05-31T09:45:25Z</time>
      </trkpt>
      <trkpt lat="44.06488" lon="3.13894">
        <ele>819.9</ele>
        <time>2019-05-31T09:45:27Z</time>
      </trkpt>
      <trkpt lat="44.06486" lon="3.1389">
        <ele>820.5</ele>
        <time>2019-05-31T09:45:29Z</time>
      </trkpt>
      <trkpt lat="44.06484" lon="3.13886">
        <ele>821.3</ele>
        <time>2019-05-31T09:45:31Z</time>
      </trkpt>
      <trkpt lat="44.06481" lon="3.13884">
        <ele>821.5</ele>
        <time>2019-05-31T09:45:33Z</time>
      </trkpt>
      <trkpt lat="44.06477" lon="3.13885">
        <ele>821.5</ele>
        <time>2019-05-31T09:45:36Z</time>
      </trkpt>
      <trkpt lat="44.06474" lon="3.13887">
        <ele>821.7</ele>
        <time>2019-05-31T09:45:38Z</time>
      </trkpt>
      <trkpt lat="44.06471" lon="3.13889">
        <ele>821.8</ele>
        <time>2019-05-31T09:45:40Z</time>
      </trkpt>
      <trkpt lat="44.06467" lon="3.13891">
        <ele>822</ele>
        <time>2019-05-31T09:45:43Z</time>
      </trkpt>
      <trkpt lat="44.06464" lon="3.13891">
        <ele>822.1</ele>
        <time>2019-05-31T09:45:45Z</time>
      </trkpt>
      <trkpt lat="44.06461" lon="3.13892">
        <ele>822.3</ele>
        <time>2019-05-31T09:45:47Z</time>
      </trkpt>
      <trkpt lat="44.06457" lon="3.13893">
        <ele>822.5</ele>
        <time>2019-05-31T09:45:49Z</time>
      </trkpt>
      <trkpt lat="44.06454" lon="3.13893">
        <ele>822.7</ele>
        <time>2019-05-31T09:45:51Z</time>
      </trkpt>
      <trkpt lat="44.06451" lon="3.13895">
        <ele>822.9</ele>
        <time>2019-05-31T09:45:53Z</time>
      </trkpt>
      <trkpt lat="44.06448" lon="3.13893">
        <ele>823.1</ele>
        <time>2019-05-31T09:45:56Z</time>
      </trkpt>
      <trkpt lat="44.06445" lon="3.13891">
        <ele>823.2</ele>
        <time>2019-05-31T09:45:58Z</time>
      </trkpt>
      <trkpt lat="44.06442" lon="3.13892">
        <ele>823.4</ele>
        <time>2019-05-31T09:50:32Z</time>
      </trkpt>
      <trkpt lat="44.0644" lon="3.1389">
        <ele>823.6</ele>
        <time>2019-05-31T09:50:43Z</time>
      </trkpt>
      <trkpt lat="44.0644" lon="3.13894">
        <ele>823.8</ele>
        <time>2019-05-31T09:51:06Z</time>
      </trkpt>
      <trkpt lat="44.06442" lon="3.13897">
        <ele>824</ele>
        <time>2019-05-31T09:51:12Z</time>
      </trkpt>
      <trkpt lat="44.06446" lon="3.13898">
        <ele>824.3</ele>
        <time>2019-05-31T09:51:16Z</time>
      </trkpt>
      <trkpt lat="44.06451" lon="3.13899">
        <ele>823.7</ele>
        <time>2019-05-31T09:51:18Z</time>
      </trkpt>
      <trkpt lat="44.06454" lon="3.139">
        <ele>823.3</ele>
        <time>2019-05-31T09:51:19Z</time>
      </trkpt>
      <trkpt lat="44.0646" lon="3.13898">
        <ele>822.9</ele>
        <time>2019-05-31T09:51:20Z</time>
      </trkpt>
      <trkpt lat="44.06465" lon="3.13896">
        <ele>822.4</ele>
        <time>2019-05-31T09:51:21Z</time>
      </trkpt>
      <trkpt lat="44.0647" lon="3.13894">
        <ele>822</ele>
        <time>2019-05-31T09:51:22Z</time>
      </trkpt>
      <trkpt lat="44.06474" lon="3.13892">
        <ele>821.7</ele>
        <time>2019-05-31T09:51:23Z</time>
      </trkpt>
      <trkpt lat="44.06478" lon="3.13891">
        <ele>821.5</ele>
        <time>2019-05-31T09:51:24Z</time>
      </trkpt>
      <trkpt lat="44.06481" lon="3.13895">
        <ele>820.9</ele>
        <time>2019-05-31T09:51:25Z</time>
      </trkpt>
      <trkpt lat="44.06485" lon="3.13898">
        <ele>820.1</ele>
        <time>2019-05-31T09:51:26Z</time>
      </trkpt>
      <trkpt lat="44.06489" lon="3.13898">
        <ele>819.4</ele>
        <time>2019-05-31T09:51:27Z</time>
      </trkpt>
      <trkpt lat="44.06493" lon="3.13894">
        <ele>819.1</ele>
        <time>2019-05-31T09:51:28Z</time>
      </trkpt>
      <trkpt lat="44.06496" lon="3.13888">
        <ele>818.4</ele>
        <time>2019-05-31T09:51:29Z</time>
      </trkpt>
      <trkpt lat="44.065" lon="3.13885">
        <ele>817.7</ele>
        <time>2019-05-31T09:51:30Z</time>
      </trkpt>
      <trkpt lat="44.06506" lon="3.13882">
        <ele>816.7</ele>
        <time>2019-05-31T09:51:31Z</time>
      </trkpt>
      <trkpt lat="44.06511" lon="3.13876">
        <ele>816.3</ele>
        <time>2019-05-31T09:51:32Z</time>
      </trkpt>
      <trkpt lat="44.06517" lon="3.1387">
        <ele>816.1</ele>
        <time>2019-05-31T09:51:33Z</time>
      </trkpt>
      <trkpt lat="44.06523" lon="3.13867">
        <ele>815.3</ele>
        <time>2019-05-31T09:51:34Z</time>
      </trkpt>
      <trkpt lat="44.06528" lon="3.13865">
        <ele>814.3</ele>
        <time>2019-05-31T09:51:35Z</time>
      </trkpt>
      <trkpt lat="44.06531" lon="3.13862">
        <ele>813.7</ele>
        <time>2019-05-31T09:51:36Z</time>
      </trkpt>
      <trkpt lat="44.06534" lon="3.13859">
        <ele>813.1</ele>
        <time>2019-05-31T09:51:37Z</time>
      </trkpt>
      <trkpt lat="44.06537" lon="3.13855">
        <ele>812.7</ele>
        <time>2019-05-31T09:51:38Z</time>
      </trkpt>
      <trkpt lat="44.06539" lon="3.1385">
        <ele>812.3</ele>
        <time>2019-05-31T09:51:40Z</time>
      </trkpt>
      <trkpt lat="44.0654" lon="3.1384">
        <ele>812.6</ele>
        <time>2019-05-31T09:51:41Z</time>
      </trkpt>
      <trkpt lat="44.06543" lon="3.13838">
        <ele>812.8</ele>
        <time>2019-05-31T09:51:42Z</time>
      </trkpt>
      <trkpt lat="44.06544" lon="3.13835">
        <ele>812.5</ele>
        <time>2019-05-31T09:51:43Z</time>
      </trkpt>
      <trkpt lat="44.06548" lon="3.13832">
        <ele>811.9</ele>
        <time>2019-05-31T09:51:45Z</time>
      </trkpt>
      <trkpt lat="44.06551" lon="3.13829">
        <ele>811.4</ele>
        <time>2019-05-31T09:51:47Z</time>
      </trkpt>
      <trkpt lat="44.06555" lon="3.13825">
        <ele>810.9</ele>
        <time>2019-05-31T09:51:49Z</time>
      </trkpt>
      <trkpt lat="44.06557" lon="3.13822">
        <ele>810.8</ele>
        <time>2019-05-31T09:51:50Z</time>
      </trkpt>
      <trkpt lat="44.0656" lon="3.13816">
        <ele>810.4</ele>
        <time>2019-05-31T09:51:52Z</time>
      </trkpt>
      <trkpt lat="44.06564" lon="3.13813">
        <ele>810</ele>
        <time>2019-05-31T09:51:54Z</time>
      </trkpt>
      <trkpt lat="44.06566" lon="3.1381">
        <ele>809.8</ele>
        <time>2019-05-31T09:51:56Z</time>
      </trkpt>
      <trkpt lat="44.06569" lon="3.13807">
        <ele>809.5</ele>
        <time>2019-05-31T09:51:58Z</time>
      </trkpt>
      <trkpt lat="44.06572" lon="3.13803">
        <ele>809.2</ele>
        <time>2019-05-31T09:52:00Z</time>
      </trkpt>
      <trkpt lat="44.06576" lon="3.13798">
        <ele>809</ele>
        <time>2019-05-31T09:52:02Z</time>
      </trkpt>
      <trkpt lat="44.06579" lon="3.13795">
        <ele>809</ele>
        <time>2019-05-31T09:52:04Z</time>
      </trkpt>
      <trkpt lat="44.06582" lon="3.13792">
        <ele>808.9</ele>
        <time>2019-05-31T09:52:05Z</time>
      </trkpt>
      <trkpt lat="44.06585" lon="3.13788">
        <ele>808.7</ele>
        <time>2019-05-31T09:52:06Z</time>
      </trkpt>
      <trkpt lat="44.0659" lon="3.13781">
        <ele>808.4</ele>
        <time>2019-05-31T09:52:07Z</time>
      </trkpt>
      <trkpt lat="44.06593" lon="3.13778">
        <ele>808.3</ele>
        <time>2019-05-31T09:52:08Z</time>
      </trkpt>
      <trkpt lat="44.06596" lon="3.13773">
        <ele>808.2</ele>
        <time>2019-05-31T09:52:09Z</time>
      </trkpt>
      <trkpt lat="44.06598" lon="3.1377">
        <ele>808.1</ele>
        <time>2019-05-31T09:52:10Z</time>
      </trkpt>
      <trkpt lat="44.06601" lon="3.13768">
        <ele>808</ele>
        <time>2019-05-31T09:52:11Z</time>
      </trkpt>
      <trkpt lat="44.06603" lon="3.13772">
        <ele>807.8</ele>
        <time>2019-05-31T09:52:13Z</time>
      </trkpt>
      <trkpt lat="44.06605" lon="3.13769">
        <ele>807.7</ele>
        <time>2019-05-31T09:52:18Z</time>
      </trkpt>
      <trkpt lat="44.06609" lon="3.13764">
        <ele>807.5</ele>
        <time>2019-05-31T09:52:20Z</time>
      </trkpt>
      <trkpt lat="44.06613" lon="3.13762">
        <ele>807.4</ele>
        <time>2019-05-31T09:52:22Z</time>
      </trkpt>
      <trkpt lat="44.06616" lon="3.1376">
        <ele>807.3</ele>
        <time>2019-05-31T09:52:23Z</time>
      </trkpt>
      <trkpt lat="44.06619" lon="3.13758">
        <ele>807.2</ele>
        <time>2019-05-31T09:52:24Z</time>
      </trkpt>
      <trkpt lat="44.06622" lon="3.13757">
        <ele>807.1</ele>
        <time>2019-05-31T09:52:25Z</time>
      </trkpt>
      <trkpt lat="44.06624" lon="3.13755">
        <ele>807</ele>
        <time>2019-05-31T09:52:26Z</time>
      </trkpt>
      <trkpt lat="44.06628" lon="3.13752">
        <ele>806.8</ele>
        <time>2019-05-31T09:52:27Z</time>
      </trkpt>
      <trkpt lat="44.06632" lon="3.13749">
        <ele>806.7</ele>
        <time>2019-05-31T09:52:28Z</time>
      </trkpt>
      <trkpt lat="44.06635" lon="3.13745">
        <ele>806.4</ele>
        <time>2019-05-31T09:52:29Z</time>
      </trkpt>
      <trkpt lat="44.06639" lon="3.13741">
        <ele>806.1</ele>
        <time>2019-05-31T09:52:30Z</time>
      </trkpt>
      <trkpt lat="44.06643" lon="3.1374">
        <ele>805.8</ele>
        <time>2019-05-31T09:52:31Z</time>
      </trkpt>
      <trkpt lat="44.06647" lon="3.13738">
        <ele>805.5</ele>
        <time>2019-05-31T09:52:32Z</time>
      </trkpt>
      <trkpt lat="44.06652" lon="3.13734">
        <ele>805.2</ele>
        <time>2019-05-31T09:52:33Z</time>
      </trkpt>
      <trkpt lat="44.06656" lon="3.13731">
        <ele>805</ele>
        <time>2019-05-31T09:52:34Z</time>
      </trkpt>
      <trkpt lat="44.0666" lon="3.13728">
        <ele>804.8</ele>
        <time>2019-05-31T09:52:35Z</time>
      </trkpt>
      <trkpt lat="44.06667" lon="3.13725">
        <ele>804.6</ele>
        <time>2019-05-31T09:52:36Z</time>
      </trkpt>
      <trkpt lat="44.06674" lon="3.13723">
        <ele>804.3</ele>
        <time>2019-05-31T09:52:37Z</time>
      </trkpt>
      <trkpt lat="44.0668" lon="3.1372">
        <ele>804.2</ele>
        <time>2019-05-31T09:52:38Z</time>
      </trkpt>
      <trkpt lat="44.06687" lon="3.13715">
        <ele>804.1</ele>
        <time>2019-05-31T09:52:39Z</time>
      </trkpt>
      <trkpt lat="44.06691" lon="3.13711">
        <ele>804</ele>
        <time>2019-05-31T09:52:40Z</time>
      </trkpt>
      <trkpt lat="44.06696" lon="3.1371">
        <ele>803.8</ele>
        <time>2019-05-31T09:52:41Z</time>
      </trkpt>
      <trkpt lat="44.06701" lon="3.13708">
        <ele>803.7</ele>
        <time>2019-05-31T09:52:42Z</time>
      </trkpt>
      <trkpt lat="44.06705" lon="3.13705">
        <ele>803.6</ele>
        <time>2019-05-31T09:52:43Z</time>
      </trkpt>
      <trkpt lat="44.06709" lon="3.13701">
        <ele>803.5</ele>
        <time>2019-05-31T09:52:44Z</time>
      </trkpt>
      <trkpt lat="44.06713" lon="3.13701">
        <ele>803.4</ele>
        <time>2019-05-31T09:52:45Z</time>
      </trkpt>
      <trkpt lat="44.06716" lon="3.137">
        <ele>803.3</ele>
        <time>2019-05-31T09:52:47Z</time>
      </trkpt>
      <trkpt lat="44.06721" lon="3.13695">
        <ele>803.1</ele>
        <time>2019-05-31T09:52:49Z</time>
      </trkpt>
      <trkpt lat="44.06724" lon="3.13692">
        <ele>803.1</ele>
        <time>2019-05-31T09:52:50Z</time>
      </trkpt>
      <trkpt lat="44.06727" lon="3.1369">
        <ele>803</ele>
        <time>2019-05-31T09:52:51Z</time>
      </trkpt>
      <trkpt lat="44.0673" lon="3.13687">
        <ele>802.9</ele>
        <time>2019-05-31T09:52:52Z</time>
      </trkpt>
      <trkpt lat="44.06734" lon="3.13684">
        <ele>802.8</ele>
        <time>2019-05-31T09:52:53Z</time>
      </trkpt>
      <trkpt lat="44.06737" lon="3.13681">
        <ele>802.7</ele>
        <time>2019-05-31T09:52:54Z</time>
      </trkpt>
      <trkpt lat="44.06741" lon="3.13678">
        <ele>802.7</ele>
        <time>2019-05-31T09:52:55Z</time>
      </trkpt>
      <trkpt lat="44.06744" lon="3.13675">
        <ele>802.6</ele>
        <time>2019-05-31T09:52:56Z</time>
      </trkpt>
      <trkpt lat="44.06747" lon="3.13672">
        <ele>802.6</ele>
        <time>2019-05-31T09:52:57Z</time>
      </trkpt>
      <trkpt lat="44.0675" lon="3.13669">
        <ele>802.5</ele>
        <time>2019-05-31T09:52:58Z</time>
      </trkpt>
      <trkpt lat="44.06753" lon="3.13666">
        <ele>802.5</ele>
        <time>2019-05-31T09:52:59Z</time>
      </trkpt>
      <trkpt lat="44.06756" lon="3.13661">
        <ele>802.4</ele>
        <time>2019-05-31T09:53:01Z</time>
      </trkpt>
      <trkpt lat="44.06758" lon="3.13666">
        <ele>802.3</ele>
        <time>2019-05-31T09:53:16Z</time>
      </trkpt>
      <trkpt lat="44.06758" lon="3.13671">
        <ele>802.1</ele>
        <time>2019-05-31T09:53:19Z</time>
      </trkpt>
      <trkpt lat="44.06757" lon="3.13676">
        <ele>801.9</ele>
        <time>2019-05-31T09:53:22Z</time>
      </trkpt>
      <trkpt lat="44.06758" lon="3.13681">
        <ele>801.9</ele>
        <time>2019-05-31T09:53:24Z</time>
      </trkpt>
      <trkpt lat="44.06758" lon="3.13685">
        <ele>801.9</ele>
        <time>2019-05-31T09:53:27Z</time>
      </trkpt>
      <trkpt lat="44.06757" lon="3.13689">
        <ele>801.9</ele>
        <time>2019-05-31T09:53:29Z</time>
      </trkpt>
      <trkpt lat="44.06758" lon="3.13693">
        <ele>801.9</ele>
        <time>2019-05-31T09:53:32Z</time>
      </trkpt>
      <trkpt lat="44.06758" lon="3.13698">
        <ele>801.9</ele>
        <time>2019-05-31T09:53:34Z</time>
      </trkpt>
      <trkpt lat="44.06758" lon="3.13702">
        <ele>801.8</ele>
        <time>2019-05-31T09:53:36Z</time>
      </trkpt>
      <trkpt lat="44.06759" lon="3.13707">
        <ele>801.8</ele>
        <time>2019-05-31T09:53:38Z</time>
      </trkpt>
      <trkpt lat="44.06759" lon="3.13712">
        <ele>801.7</ele>
        <time>2019-05-31T09:53:40Z</time>
      </trkpt>
      <trkpt lat="44.06757" lon="3.13718">
        <ele>801.7</ele>
        <time>2019-05-31T09:53:42Z</time>
      </trkpt>
      <trkpt lat="44.06756" lon="3.13725">
        <ele>801.7</ele>
        <time>2019-05-31T09:53:44Z</time>
      </trkpt>
      <trkpt lat="44.06756" lon="3.13729">
        <ele>801.6</ele>
        <time>2019-05-31T09:53:45Z</time>
      </trkpt>
      <trkpt lat="44.06755" lon="3.13735">
        <ele>801.6</ele>
        <time>2019-05-31T09:53:47Z</time>
      </trkpt>
      <trkpt lat="44.06752" lon="3.1374">
        <ele>801.7</ele>
        <time>2019-05-31T09:53:49Z</time>
      </trkpt>
      <trkpt lat="44.06749" lon="3.13746">
        <ele>801.6</ele>
        <time>2019-05-31T09:53:51Z</time>
      </trkpt>
      <trkpt lat="44.06746" lon="3.13751">
        <ele>801.6</ele>
        <time>2019-05-31T09:53:53Z</time>
      </trkpt>
      <trkpt lat="44.06744" lon="3.13756">
        <ele>801.6</ele>
        <time>2019-05-31T09:53:55Z</time>
      </trkpt>
      <trkpt lat="44.06741" lon="3.1376">
        <ele>801.5</ele>
        <time>2019-05-31T09:53:57Z</time>
      </trkpt>
      <trkpt lat="44.06737" lon="3.13764">
        <ele>801.5</ele>
        <time>2019-05-31T09:53:59Z</time>
      </trkpt>
      <trkpt lat="44.06733" lon="3.13768">
        <ele>801.4</ele>
        <time>2019-05-31T09:54:01Z</time>
      </trkpt>
      <trkpt lat="44.0673" lon="3.13771">
        <ele>801.4</ele>
        <time>2019-05-31T09:54:03Z</time>
      </trkpt>
      <trkpt lat="44.06727" lon="3.13774">
        <ele>801.4</ele>
        <time>2019-05-31T09:54:05Z</time>
      </trkpt>
      <trkpt lat="44.06722" lon="3.13777">
        <ele>801.4</ele>
        <time>2019-05-31T09:54:07Z</time>
      </trkpt>
      <trkpt lat="44.06719" lon="3.13778">
        <ele>801.4</ele>
        <time>2019-05-31T09:54:08Z</time>
      </trkpt>
      <trkpt lat="44.06716" lon="3.13781">
        <ele>801.3</ele>
        <time>2019-05-31T09:54:09Z</time>
      </trkpt>
      <trkpt lat="44.06713" lon="3.13784">
        <ele>801.3</ele>
        <time>2019-05-31T09:54:10Z</time>
      </trkpt>
      <trkpt lat="44.06709" lon="3.13788">
        <ele>801.3</ele>
        <time>2019-05-31T09:54:11Z</time>
      </trkpt>
      <trkpt lat="44.06707" lon="3.13792">
        <ele>801.4</ele>
        <time>2019-05-31T09:54:12Z</time>
      </trkpt>
      <trkpt lat="44.06704" lon="3.13796">
        <ele>801.6</ele>
        <time>2019-05-31T09:54:13Z</time>
      </trkpt>
      <trkpt lat="44.06702" lon="3.13802">
        <ele>801.7</ele>
        <time>2019-05-31T09:54:14Z</time>
      </trkpt>
      <trkpt lat="44.06698" lon="3.13804">
        <ele>801.8</ele>
        <time>2019-05-31T09:54:15Z</time>
      </trkpt>
      <trkpt lat="44.06695" lon="3.13806">
        <ele>801.9</ele>
        <time>2019-05-31T09:54:16Z</time>
      </trkpt>
      <trkpt lat="44.06692" lon="3.1381">
        <ele>802</ele>
        <time>2019-05-31T09:54:17Z</time>
      </trkpt>
      <trkpt lat="44.06688" lon="3.13814">
        <ele>802</ele>
        <time>2019-05-31T09:54:18Z</time>
      </trkpt>
      <trkpt lat="44.06684" lon="3.13819">
        <ele>802</ele>
        <time>2019-05-31T09:54:19Z</time>
      </trkpt>
      <trkpt lat="44.06681" lon="3.13823">
        <ele>802</ele>
        <time>2019-05-31T09:54:20Z</time>
      </trkpt>
      <trkpt lat="44.06677" lon="3.13827">
        <ele>802</ele>
        <time>2019-05-31T09:54:21Z</time>
      </trkpt>
      <trkpt lat="44.06674" lon="3.13831">
        <ele>801.8</ele>
        <time>2019-05-31T09:54:22Z</time>
      </trkpt>
      <trkpt lat="44.06671" lon="3.13838">
        <ele>801.6</ele>
        <time>2019-05-31T09:54:23Z</time>
      </trkpt>
      <trkpt lat="44.06669" lon="3.13843">
        <ele>801.5</ele>
        <time>2019-05-31T09:54:24Z</time>
      </trkpt>
      <trkpt lat="44.06666" lon="3.13849">
        <ele>801.2</ele>
        <time>2019-05-31T09:54:25Z</time>
      </trkpt>
      <trkpt lat="44.06663" lon="3.13852">
        <ele>801.1</ele>
        <time>2019-05-31T09:54:26Z</time>
      </trkpt>
      <trkpt lat="44.06659" lon="3.13858">
        <ele>801</ele>
        <time>2019-05-31T09:54:27Z</time>
      </trkpt>
      <trkpt lat="44.06657" lon="3.13864">
        <ele>800.8</ele>
        <time>2019-05-31T09:54:28Z</time>
      </trkpt>
      <trkpt lat="44.06656" lon="3.13868">
        <ele>800.6</ele>
        <time>2019-05-31T09:54:29Z</time>
      </trkpt>
      <trkpt lat="44.06653" lon="3.13874">
        <ele>800.3</ele>
        <time>2019-05-31T09:54:30Z</time>
      </trkpt>
      <trkpt lat="44.06651" lon="3.13877">
        <ele>800.1</ele>
        <time>2019-05-31T09:54:31Z</time>
      </trkpt>
      <trkpt lat="44.06648" lon="3.13883">
        <ele>799.9</ele>
        <time>2019-05-31T09:54:33Z</time>
      </trkpt>
      <trkpt lat="44.06645" lon="3.13886">
        <ele>799.8</ele>
        <time>2019-05-31T09:54:34Z</time>
      </trkpt>
      <trkpt lat="44.06642" lon="3.13891">
        <ele>799.8</ele>
        <time>2019-05-31T09:54:35Z</time>
      </trkpt>
      <trkpt lat="44.06639" lon="3.13894">
        <ele>799.9</ele>
        <time>2019-05-31T09:54:36Z</time>
      </trkpt>
      <trkpt lat="44.06637" lon="3.13898">
        <ele>799.9</ele>
        <time>2019-05-31T09:54:37Z</time>
      </trkpt>
      <trkpt lat="44.06635" lon="3.13902">
        <ele>800.1</ele>
        <time>2019-05-31T09:54:38Z</time>
      </trkpt>
      <trkpt lat="44.06633" lon="3.13906">
        <ele>800.2</ele>
        <time>2019-05-31T09:54:39Z</time>
      </trkpt>
      <trkpt lat="44.0663" lon="3.13909">
        <ele>800.3</ele>
        <time>2019-05-31T09:54:40Z</time>
      </trkpt>
      <trkpt lat="44.06628" lon="3.13912">
        <ele>800.4</ele>
        <time>2019-05-31T09:54:41Z</time>
      </trkpt>
      <trkpt lat="44.06626" lon="3.13916">
        <ele>800.5</ele>
        <time>2019-05-31T09:54:42Z</time>
      </trkpt>
      <trkpt lat="44.06625" lon="3.13922">
        <ele>800.6</ele>
        <time>2019-05-31T09:54:44Z</time>
      </trkpt>
      <trkpt lat="44.06625" lon="3.13926">
        <ele>800.6</ele>
        <time>2019-05-31T09:54:46Z</time>
      </trkpt>
      <trkpt lat="44.06622" lon="3.13929">
        <ele>800.7</ele>
        <time>2019-05-31T09:54:50Z</time>
      </trkpt>
      <trkpt lat="44.0662" lon="3.13933">
        <ele>800.8</ele>
        <time>2019-05-31T09:55:26Z</time>
      </trkpt>
      <trkpt lat="44.06617" lon="3.13938">
        <ele>800.9</ele>
        <time>2019-05-31T09:55:28Z</time>
      </trkpt>
      <trkpt lat="44.06614" lon="3.13943">
        <ele>800.9</ele>
        <time>2019-05-31T09:55:30Z</time>
      </trkpt>
      <trkpt lat="44.06613" lon="3.13947">
        <ele>800.9</ele>
        <time>2019-05-31T09:55:31Z</time>
      </trkpt>
      <trkpt lat="44.06612" lon="3.1395">
        <ele>800.8</ele>
        <time>2019-05-31T09:55:32Z</time>
      </trkpt>
      <trkpt lat="44.06611" lon="3.13954">
        <ele>800.8</ele>
        <time>2019-05-31T09:55:33Z</time>
      </trkpt>
      <trkpt lat="44.06609" lon="3.13959">
        <ele>800.7</ele>
        <time>2019-05-31T09:55:34Z</time>
      </trkpt>
      <trkpt lat="44.06609" lon="3.13966">
        <ele>800.8</ele>
        <time>2019-05-31T09:55:36Z</time>
      </trkpt>
      <trkpt lat="44.06609" lon="3.13971">
        <ele>800.8</ele>
        <time>2019-05-31T09:55:37Z</time>
      </trkpt>
      <trkpt lat="44.06609" lon="3.13976">
        <ele>800.8</ele>
        <time>2019-05-31T09:55:38Z</time>
      </trkpt>
      <trkpt lat="44.06608" lon="3.1398">
        <ele>800.8</ele>
        <time>2019-05-31T09:55:39Z</time>
      </trkpt>
      <trkpt lat="44.06607" lon="3.13984">
        <ele>800.9</ele>
        <time>2019-05-31T09:55:40Z</time>
      </trkpt>
      <trkpt lat="44.06607" lon="3.13988">
        <ele>800.9</ele>
        <time>2019-05-31T09:55:41Z</time>
      </trkpt>
      <trkpt lat="44.06606" lon="3.13991">
        <ele>801</ele>
        <time>2019-05-31T09:55:42Z</time>
      </trkpt>
      <trkpt lat="44.06605" lon="3.13996">
        <ele>801.1</ele>
        <time>2019-05-31T09:55:43Z</time>
      </trkpt>
      <trkpt lat="44.06605" lon="3.14">
        <ele>801.2</ele>
        <time>2019-05-31T09:55:44Z</time>
      </trkpt>
      <trkpt lat="44.06604" lon="3.14004">
        <ele>801.3</ele>
        <time>2019-05-31T09:55:45Z</time>
      </trkpt>
      <trkpt lat="44.06604" lon="3.14009">
        <ele>801.4</ele>
        <time>2019-05-31T09:55:46Z</time>
      </trkpt>
      <trkpt lat="44.06603" lon="3.14013">
        <ele>801.5</ele>
        <time>2019-05-31T09:55:47Z</time>
      </trkpt>
      <trkpt lat="44.06601" lon="3.14016">
        <ele>801.6</ele>
        <time>2019-05-31T09:55:48Z</time>
      </trkpt>
      <trkpt lat="44.06599" lon="3.1402">
        <ele>801.6</ele>
        <time>2019-05-31T09:55:49Z</time>
      </trkpt>
      <trkpt lat="44.06598" lon="3.14024">
        <ele>801.6</ele>
        <time>2019-05-31T09:55:50Z</time>
      </trkpt>
      <trkpt lat="44.06596" lon="3.14028">
        <ele>801.6</ele>
        <time>2019-05-31T09:55:51Z</time>
      </trkpt>
      <trkpt lat="44.06594" lon="3.14031">
        <ele>801.5</ele>
        <time>2019-05-31T09:55:52Z</time>
      </trkpt>
      <trkpt lat="44.06592" lon="3.14035">
        <ele>801.4</ele>
        <time>2019-05-31T09:55:53Z</time>
      </trkpt>
      <trkpt lat="44.0659" lon="3.14039">
        <ele>801.2</ele>
        <time>2019-05-31T09:55:54Z</time>
      </trkpt>
      <trkpt lat="44.06587" lon="3.14042">
        <ele>801.1</ele>
        <time>2019-05-31T09:55:55Z</time>
      </trkpt>
      <trkpt lat="44.06584" lon="3.14046">
        <ele>800.9</ele>
        <time>2019-05-31T09:55:56Z</time>
      </trkpt>
      <trkpt lat="44.06581" lon="3.14048">
        <ele>800.8</ele>
        <time>2019-05-31T09:55:57Z</time>
      </trkpt>
      <trkpt lat="44.06578" lon="3.14052">
        <ele>800.8</ele>
        <time>2019-05-31T09:55:58Z</time>
      </trkpt>
      <trkpt lat="44.06575" lon="3.14055">
        <ele>800.9</ele>
        <time>2019-05-31T09:55:59Z</time>
      </trkpt>
      <trkpt lat="44.06572" lon="3.14058">
        <ele>801</ele>
        <time>2019-05-31T09:56:00Z</time>
      </trkpt>
      <trkpt lat="44.06568" lon="3.1406">
        <ele>801.1</ele>
        <time>2019-05-31T09:56:01Z</time>
      </trkpt>
      <trkpt lat="44.06564" lon="3.14063">
        <ele>801.1</ele>
        <time>2019-05-31T09:56:02Z</time>
      </trkpt>
      <trkpt lat="44.0656" lon="3.14065">
        <ele>801.2</ele>
        <time>2019-05-31T09:56:03Z</time>
      </trkpt>
      <trkpt lat="44.06557" lon="3.14067">
        <ele>801.2</ele>
        <time>2019-05-31T09:56:04Z</time>
      </trkpt>
      <trkpt lat="44.06553" lon="3.14068">
        <ele>801.2</ele>
        <time>2019-05-31T09:56:05Z</time>
      </trkpt>
      <trkpt lat="44.0655" lon="3.1407">
        <ele>801.3</ele>
        <time>2019-05-31T09:56:06Z</time>
      </trkpt>
      <trkpt lat="44.06546" lon="3.14072">
        <ele>801.4</ele>
        <time>2019-05-31T09:56:07Z</time>
      </trkpt>
      <trkpt lat="44.06542" lon="3.14074">
        <ele>801.6</ele>
        <time>2019-05-31T09:56:08Z</time>
      </trkpt>
      <trkpt lat="44.06539" lon="3.14076">
        <ele>801.8</ele>
        <time>2019-05-31T09:56:09Z</time>
      </trkpt>
      <trkpt lat="44.06535" lon="3.14077">
        <ele>802</ele>
        <time>2019-05-31T09:56:10Z</time>
      </trkpt>
      <trkpt lat="44.0653" lon="3.14078">
        <ele>802.2</ele>
        <time>2019-05-31T09:56:11Z</time>
      </trkpt>
      <trkpt lat="44.06526" lon="3.14078">
        <ele>802.4</ele>
        <time>2019-05-31T09:56:12Z</time>
      </trkpt>
      <trkpt lat="44.06522" lon="3.14077">
        <ele>802.7</ele>
        <time>2019-05-31T09:56:13Z</time>
      </trkpt>
      <trkpt lat="44.06518" lon="3.14077">
        <ele>803</ele>
        <time>2019-05-31T09:56:14Z</time>
      </trkpt>
      <trkpt lat="44.06514" lon="3.14077">
        <ele>803.4</ele>
        <time>2019-05-31T09:56:15Z</time>
      </trkpt>
      <trkpt lat="44.06511" lon="3.14078">
        <ele>803.7</ele>
        <time>2019-05-31T09:56:16Z</time>
      </trkpt>
      <trkpt lat="44.06506" lon="3.1408">
        <ele>804.1</ele>
        <time>2019-05-31T09:56:17Z</time>
      </trkpt>
      <trkpt lat="44.06502" lon="3.14081">
        <ele>804.6</ele>
        <time>2019-05-31T09:56:18Z</time>
      </trkpt>
      <trkpt lat="44.06497" lon="3.14083">
        <ele>805.2</ele>
        <time>2019-05-31T09:56:19Z</time>
      </trkpt>
      <trkpt lat="44.06493" lon="3.14087">
        <ele>805.4</ele>
        <time>2019-05-31T09:56:20Z</time>
      </trkpt>
      <trkpt lat="44.0649" lon="3.1409">
        <ele>805.6</ele>
        <time>2019-05-31T09:56:21Z</time>
      </trkpt>
      <trkpt lat="44.06486" lon="3.14093">
        <ele>805.9</ele>
        <time>2019-05-31T09:56:22Z</time>
      </trkpt>
      <trkpt lat="44.06483" lon="3.14095">
        <ele>806.2</ele>
        <time>2019-05-31T09:56:23Z</time>
      </trkpt>
      <trkpt lat="44.06479" lon="3.14097">
        <ele>806.2</ele>
        <time>2019-05-31T09:56:24Z</time>
      </trkpt>
      <trkpt lat="44.06476" lon="3.14095">
        <ele>806.3</ele>
        <time>2019-05-31T09:56:25Z</time>
      </trkpt>
      <trkpt lat="44.06472" lon="3.14094">
        <ele>806.5</ele>
        <time>2019-05-31T09:56:26Z</time>
      </trkpt>
      <trkpt lat="44.06469" lon="3.14094">
        <ele>806.6</ele>
        <time>2019-05-31T09:56:27Z</time>
      </trkpt>
      <trkpt lat="44.06465" lon="3.14096">
        <ele>806.9</ele>
        <time>2019-05-31T09:56:28Z</time>
      </trkpt>
      <trkpt lat="44.06461" lon="3.14098">
        <ele>807.2</ele>
        <time>2019-05-31T09:56:29Z</time>
      </trkpt>
      <trkpt lat="44.06457" lon="3.14102">
        <ele>807.7</ele>
        <time>2019-05-31T09:56:31Z</time>
      </trkpt>
      <trkpt lat="44.06454" lon="3.14105">
        <ele>807.9</ele>
        <time>2019-05-31T09:56:32Z</time>
      </trkpt>
      <trkpt lat="44.06451" lon="3.14109">
        <ele>808.2</ele>
        <time>2019-05-31T09:56:34Z</time>
      </trkpt>
      <trkpt lat="44.0645" lon="3.14115">
        <ele>808.4</ele>
        <time>2019-05-31T09:56:36Z</time>
      </trkpt>
      <trkpt lat="44.06448" lon="3.14121">
        <ele>808.4</ele>
        <time>2019-05-31T09:56:38Z</time>
      </trkpt>
      <trkpt lat="44.06444" lon="3.14125">
        <ele>808.2</ele>
        <time>2019-05-31T09:56:40Z</time>
      </trkpt>
      <trkpt lat="44.06441" lon="3.14127">
        <ele>808.3</ele>
        <time>2019-05-31T09:56:41Z</time>
      </trkpt>
      <trkpt lat="44.06438" lon="3.14129">
        <ele>808.4</ele>
        <time>2019-05-31T09:56:42Z</time>
      </trkpt>
      <trkpt lat="44.06434" lon="3.14134">
        <ele>808.6</ele>
        <time>2019-05-31T09:56:44Z</time>
      </trkpt>
      <trkpt lat="44.06432" lon="3.14137">
        <ele>808.7</ele>
        <time>2019-05-31T09:56:45Z</time>
      </trkpt>
      <trkpt lat="44.06429" lon="3.1414">
        <ele>808.8</ele>
        <time>2019-05-31T09:56:46Z</time>
      </trkpt>
      <trkpt lat="44.06427" lon="3.14141">
        <ele>809</ele>
        <time>2019-05-31T09:56:47Z</time>
      </trkpt>
      <trkpt lat="44.06424" lon="3.14143">
        <ele>809.2</ele>
        <time>2019-05-31T09:56:48Z</time>
      </trkpt>
      <trkpt lat="44.06421" lon="3.14143">
        <ele>809.3</ele>
        <time>2019-05-31T09:56:49Z</time>
      </trkpt>
      <trkpt lat="44.06417" lon="3.14145">
        <ele>809.4</ele>
        <time>2019-05-31T09:56:51Z</time>
      </trkpt>
      <trkpt lat="44.06412" lon="3.14147">
        <ele>809.6</ele>
        <time>2019-05-31T09:56:53Z</time>
      </trkpt>
      <trkpt lat="44.06409" lon="3.14149">
        <ele>809.7</ele>
        <time>2019-05-31T09:56:54Z</time>
      </trkpt>
      <trkpt lat="44.06406" lon="3.1415">
        <ele>809.8</ele>
        <time>2019-05-31T09:56:55Z</time>
      </trkpt>
      <trkpt lat="44.06402" lon="3.14155">
        <ele>809.9</ele>
        <time>2019-05-31T09:56:57Z</time>
      </trkpt>
      <trkpt lat="44.06399" lon="3.1416">
        <ele>809.9</ele>
        <time>2019-05-31T09:56:58Z</time>
      </trkpt>
      <trkpt lat="44.06397" lon="3.14162">
        <ele>809.8</ele>
        <time>2019-05-31T09:56:59Z</time>
      </trkpt>
      <trkpt lat="44.06394" lon="3.14163">
        <ele>809.8</ele>
        <time>2019-05-31T09:57:01Z</time>
      </trkpt>
      <trkpt lat="44.0639" lon="3.14164">
        <ele>809.8</ele>
        <time>2019-05-31T09:57:03Z</time>
      </trkpt>
      <trkpt lat="44.06387" lon="3.14167">
        <ele>809.8</ele>
        <time>2019-05-31T09:57:05Z</time>
      </trkpt>
      <trkpt lat="44.06384" lon="3.14173">
        <ele>809.8</ele>
        <time>2019-05-31T09:57:07Z</time>
      </trkpt>
      <trkpt lat="44.06381" lon="3.14179">
        <ele>809.8</ele>
        <time>2019-05-31T09:57:09Z</time>
      </trkpt>
      <trkpt lat="44.06379" lon="3.14183">
        <ele>809.8</ele>
        <time>2019-05-31T09:57:10Z</time>
      </trkpt>
      <trkpt lat="44.06377" lon="3.14185">
        <ele>809.8</ele>
        <time>2019-05-31T09:57:11Z</time>
      </trkpt>
      <trkpt lat="44.06375" lon="3.14189">
        <ele>809.8</ele>
        <time>2019-05-31T09:57:12Z</time>
      </trkpt>
      <trkpt lat="44.06373" lon="3.14192">
        <ele>809.8</ele>
        <time>2019-05-31T09:57:13Z</time>
      </trkpt>
      <trkpt lat="44.06371" lon="3.14196">
        <ele>809.8</ele>
        <time>2019-05-31T09:57:14Z</time>
      </trkpt>
      <trkpt lat="44.06369" lon="3.14199">
        <ele>809.8</ele>
        <time>2019-05-31T09:57:15Z</time>
      </trkpt>
      <trkpt lat="44.06367" lon="3.14203">
        <ele>809.8</ele>
        <time>2019-05-31T09:57:16Z</time>
      </trkpt>
      <trkpt lat="44.06364" lon="3.14207">
        <ele>809.7</ele>
        <time>2019-05-31T09:57:17Z</time>
      </trkpt>
      <trkpt lat="44.06361" lon="3.1421">
        <ele>809.7</ele>
        <time>2019-05-31T09:57:18Z</time>
      </trkpt>
      <trkpt lat="44.06358" lon="3.14213">
        <ele>809.6</ele>
        <time>2019-05-31T09:57:19Z</time>
      </trkpt>
      <trkpt lat="44.06355" lon="3.14215">
        <ele>809.5</ele>
        <time>2019-05-31T09:57:20Z</time>
      </trkpt>
      <trkpt lat="44.06351" lon="3.14217">
        <ele>809.4</ele>
        <time>2019-05-31T09:57:21Z</time>
      </trkpt>
      <trkpt lat="44.06344" lon="3.14219">
        <ele>809.1</ele>
        <time>2019-05-31T09:57:22Z</time>
      </trkpt>
      <trkpt lat="44.06338" lon="3.14224">
        <ele>808.9</ele>
        <time>2019-05-31T09:57:23Z</time>
      </trkpt>
      <trkpt lat="44.06334" lon="3.1423">
        <ele>808.8</ele>
        <time>2019-05-31T09:57:24Z</time>
      </trkpt>
      <trkpt lat="44.0633" lon="3.14236">
        <ele>808.8</ele>
        <time>2019-05-31T09:57:25Z</time>
      </trkpt>
      <trkpt lat="44.06326" lon="3.1424">
        <ele>808.7</ele>
        <time>2019-05-31T09:57:26Z</time>
      </trkpt>
      <trkpt lat="44.06323" lon="3.14247">
        <ele>808.6</ele>
        <time>2019-05-31T09:57:27Z</time>
      </trkpt>
      <trkpt lat="44.06317" lon="3.14252">
        <ele>808.5</ele>
        <time>2019-05-31T09:57:28Z</time>
      </trkpt>
      <trkpt lat="44.06312" lon="3.14255">
        <ele>808.4</ele>
        <time>2019-05-31T09:57:29Z</time>
      </trkpt>
      <trkpt lat="44.06307" lon="3.14259">
        <ele>808.2</ele>
        <time>2019-05-31T09:57:30Z</time>
      </trkpt>
      <trkpt lat="44.06301" lon="3.14261">
        <ele>808</ele>
        <time>2019-05-31T09:57:31Z</time>
      </trkpt>
      <trkpt lat="44.06295" lon="3.14266">
        <ele>807.9</ele>
        <time>2019-05-31T09:57:32Z</time>
      </trkpt>
      <trkpt lat="44.06289" lon="3.1427">
        <ele>807.8</ele>
        <time>2019-05-31T09:57:33Z</time>
      </trkpt>
      <trkpt lat="44.06283" lon="3.14276">
        <ele>807.6</ele>
        <time>2019-05-31T09:57:34Z</time>
      </trkpt>
      <trkpt lat="44.06277" lon="3.14278">
        <ele>807.5</ele>
        <time>2019-05-31T09:57:35Z</time>
      </trkpt>
      <trkpt lat="44.06271" lon="3.14282">
        <ele>807.5</ele>
        <time>2019-05-31T09:57:36Z</time>
      </trkpt>
      <trkpt lat="44.06265" lon="3.14286">
        <ele>807.4</ele>
        <time>2019-05-31T09:57:37Z</time>
      </trkpt>
      <trkpt lat="44.0626" lon="3.14292">
        <ele>807.4</ele>
        <time>2019-05-31T09:57:38Z</time>
      </trkpt>
      <trkpt lat="44.06255" lon="3.14299">
        <ele>807.4</ele>
        <time>2019-05-31T09:57:39Z</time>
      </trkpt>
      <trkpt lat="44.06251" lon="3.14306">
        <ele>807.3</ele>
        <time>2019-05-31T09:57:40Z</time>
      </trkpt>
      <trkpt lat="44.06248" lon="3.1431">
        <ele>807.3</ele>
        <time>2019-05-31T09:57:41Z</time>
      </trkpt>
      <trkpt lat="44.06245" lon="3.14313">
        <ele>807.3</ele>
        <time>2019-05-31T09:57:42Z</time>
      </trkpt>
      <trkpt lat="44.06241" lon="3.14316">
        <ele>807.2</ele>
        <time>2019-05-31T09:57:43Z</time>
      </trkpt>
      <trkpt lat="44.06237" lon="3.1432">
        <ele>807.2</ele>
        <time>2019-05-31T09:57:44Z</time>
      </trkpt>
      <trkpt lat="44.06235" lon="3.14325">
        <ele>807.1</ele>
        <time>2019-05-31T09:57:45Z</time>
      </trkpt>
      <trkpt lat="44.06232" lon="3.14328">
        <ele>807.1</ele>
        <time>2019-05-31T09:57:46Z</time>
      </trkpt>
      <trkpt lat="44.06229" lon="3.1433">
        <ele>807</ele>
        <time>2019-05-31T09:57:47Z</time>
      </trkpt>
      <trkpt lat="44.06225" lon="3.14333">
        <ele>807</ele>
        <time>2019-05-31T09:57:48Z</time>
      </trkpt>
      <trkpt lat="44.0622" lon="3.14338">
        <ele>806.9</ele>
        <time>2019-05-31T09:57:49Z</time>
      </trkpt>
      <trkpt lat="44.06217" lon="3.14342">
        <ele>806.8</ele>
        <time>2019-05-31T09:57:50Z</time>
      </trkpt>
      <trkpt lat="44.06215" lon="3.14345">
        <ele>806.8</ele>
        <time>2019-05-31T09:57:51Z</time>
      </trkpt>
      <trkpt lat="44.0621" lon="3.14347">
        <ele>806.6</ele>
        <time>2019-05-31T09:57:52Z</time>
      </trkpt>
      <trkpt lat="44.06206" lon="3.14348">
        <ele>806.5</ele>
        <time>2019-05-31T09:57:53Z</time>
      </trkpt>
      <trkpt lat="44.06201" lon="3.1435">
        <ele>806.4</ele>
        <time>2019-05-31T09:57:54Z</time>
      </trkpt>
      <trkpt lat="44.06197" lon="3.14354">
        <ele>806.3</ele>
        <time>2019-05-31T09:57:55Z</time>
      </trkpt>
      <trkpt lat="44.06194" lon="3.14358">
        <ele>806.2</ele>
        <time>2019-05-31T09:57:56Z</time>
      </trkpt>
      <trkpt lat="44.06191" lon="3.14363">
        <ele>806.1</ele>
        <time>2019-05-31T09:57:57Z</time>
      </trkpt>
      <trkpt lat="44.06187" lon="3.14365">
        <ele>806</ele>
        <time>2019-05-31T09:57:58Z</time>
      </trkpt>
      <trkpt lat="44.06183" lon="3.14368">
        <ele>805.8</ele>
        <time>2019-05-31T09:57:59Z</time>
      </trkpt>
      <trkpt lat="44.06178" lon="3.14373">
        <ele>805.6</ele>
        <time>2019-05-31T09:58:00Z</time>
      </trkpt>
      <trkpt lat="44.06172" lon="3.14377">
        <ele>805.6</ele>
        <time>2019-05-31T09:58:01Z</time>
      </trkpt>
      <trkpt lat="44.06169" lon="3.14382">
        <ele>805.6</ele>
        <time>2019-05-31T09:58:02Z</time>
      </trkpt>
      <trkpt lat="44.06165" lon="3.14388">
        <ele>805.5</ele>
        <time>2019-05-31T09:58:03Z</time>
      </trkpt>
      <trkpt lat="44.06162" lon="3.14391">
        <ele>805.5</ele>
        <time>2019-05-31T09:58:04Z</time>
      </trkpt>
      <trkpt lat="44.06159" lon="3.14396">
        <ele>805.5</ele>
        <time>2019-05-31T09:58:05Z</time>
      </trkpt>
      <trkpt lat="44.06156" lon="3.14399">
        <ele>805.5</ele>
        <time>2019-05-31T09:58:06Z</time>
      </trkpt>
      <trkpt lat="44.06153" lon="3.14403">
        <ele>805.4</ele>
        <time>2019-05-31T09:58:07Z</time>
      </trkpt>
      <trkpt lat="44.06149" lon="3.14407">
        <ele>805.4</ele>
        <time>2019-05-31T09:58:08Z</time>
      </trkpt>
      <trkpt lat="44.06145" lon="3.14408">
        <ele>805.4</ele>
        <time>2019-05-31T09:58:09Z</time>
      </trkpt>
      <trkpt lat="44.06141" lon="3.14411">
        <ele>805.4</ele>
        <time>2019-05-31T09:58:10Z</time>
      </trkpt>
      <trkpt lat="44.06136" lon="3.14415">
        <ele>805.4</ele>
        <time>2019-05-31T09:58:11Z</time>
      </trkpt>
      <trkpt lat="44.06132" lon="3.14421">
        <ele>805.3</ele>
        <time>2019-05-31T09:58:12Z</time>
      </trkpt>
      <trkpt lat="44.06128" lon="3.14426">
        <ele>805.3</ele>
        <time>2019-05-31T09:58:13Z</time>
      </trkpt>
      <trkpt lat="44.06123" lon="3.14429">
        <ele>805.3</ele>
        <time>2019-05-31T09:58:14Z</time>
      </trkpt>
      <trkpt lat="44.06119" lon="3.14434">
        <ele>805.2</ele>
        <time>2019-05-31T09:58:15Z</time>
      </trkpt>
      <trkpt lat="44.06114" lon="3.1444">
        <ele>805.1</ele>
        <time>2019-05-31T09:58:16Z</time>
      </trkpt>
      <trkpt lat="44.06111" lon="3.14445">
        <ele>805</ele>
        <time>2019-05-31T09:58:17Z</time>
      </trkpt>
      <trkpt lat="44.06108" lon="3.14452">
        <ele>804.8</ele>
        <time>2019-05-31T09:58:18Z</time>
      </trkpt>
      <trkpt lat="44.06103" lon="3.14458">
        <ele>804.7</ele>
        <time>2019-05-31T09:58:19Z</time>
      </trkpt>
      <trkpt lat="44.06098" lon="3.14462">
        <ele>804.5</ele>
        <time>2019-05-31T09:58:20Z</time>
      </trkpt>
      <trkpt lat="44.06092" lon="3.14463">
        <ele>804.3</ele>
        <time>2019-05-31T09:58:21Z</time>
      </trkpt>
      <trkpt lat="44.06087" lon="3.14466">
        <ele>804.1</ele>
        <time>2019-05-31T09:58:22Z</time>
      </trkpt>
      <trkpt lat="44.06083" lon="3.14472">
        <ele>804</ele>
        <time>2019-05-31T09:58:23Z</time>
      </trkpt>
      <trkpt lat="44.06079" lon="3.14477">
        <ele>803.9</ele>
        <time>2019-05-31T09:58:24Z</time>
      </trkpt>
      <trkpt lat="44.06076" lon="3.14485">
        <ele>803.9</ele>
        <time>2019-05-31T09:58:25Z</time>
      </trkpt>
      <trkpt lat="44.06076" lon="3.14491">
        <ele>803.8</ele>
        <time>2019-05-31T09:58:26Z</time>
      </trkpt>
      <trkpt lat="44.06074" lon="3.14495">
        <ele>803.7</ele>
        <time>2019-05-31T09:58:27Z</time>
      </trkpt>
      <trkpt lat="44.0607" lon="3.14499">
        <ele>803.7</ele>
        <time>2019-05-31T09:58:29Z</time>
      </trkpt>
      <trkpt lat="44.06068" lon="3.14504">
        <ele>803.6</ele>
        <time>2019-05-31T09:58:30Z</time>
      </trkpt>
      <trkpt lat="44.06065" lon="3.14509">
        <ele>803.5</ele>
        <time>2019-05-31T09:58:31Z</time>
      </trkpt>
      <trkpt lat="44.06061" lon="3.14512">
        <ele>803.4</ele>
        <time>2019-05-31T09:58:32Z</time>
      </trkpt>
      <trkpt lat="44.06057" lon="3.14519">
        <ele>803.3</ele>
        <time>2019-05-31T09:58:33Z</time>
      </trkpt>
      <trkpt lat="44.06053" lon="3.14525">
        <ele>803.1</ele>
        <time>2019-05-31T09:58:34Z</time>
      </trkpt>
      <trkpt lat="44.0605" lon="3.14529">
        <ele>803</ele>
        <time>2019-05-31T09:58:35Z</time>
      </trkpt>
      <trkpt lat="44.06047" lon="3.14532">
        <ele>803</ele>
        <time>2019-05-31T09:58:36Z</time>
      </trkpt>
      <trkpt lat="44.06045" lon="3.14536">
        <ele>803</ele>
        <time>2019-05-31T09:58:37Z</time>
      </trkpt>
      <trkpt lat="44.06042" lon="3.14541">
        <ele>802.8</ele>
        <time>2019-05-31T09:58:38Z</time>
      </trkpt>
      <trkpt lat="44.0604" lon="3.14546">
        <ele>802.7</ele>
        <time>2019-05-31T09:58:39Z</time>
      </trkpt>
      <trkpt lat="44.06039" lon="3.14552">
        <ele>802.6</ele>
        <time>2019-05-31T09:58:40Z</time>
      </trkpt>
      <trkpt lat="44.06037" lon="3.14555">
        <ele>802.5</ele>
        <time>2019-05-31T09:58:41Z</time>
      </trkpt>
      <trkpt lat="44.06033" lon="3.14559">
        <ele>802.2</ele>
        <time>2019-05-31T09:58:42Z</time>
      </trkpt>
      <trkpt lat="44.0603" lon="3.14562">
        <ele>802</ele>
        <time>2019-05-31T09:58:43Z</time>
      </trkpt>
      <trkpt lat="44.06028" lon="3.14565">
        <ele>802</ele>
        <time>2019-05-31T09:58:44Z</time>
      </trkpt>
      <trkpt lat="44.06025" lon="3.14569">
        <ele>801.9</ele>
        <time>2019-05-31T09:58:45Z</time>
      </trkpt>
      <trkpt lat="44.06022" lon="3.14573">
        <ele>801.9</ele>
        <time>2019-05-31T09:58:46Z</time>
      </trkpt>
      <trkpt lat="44.06019" lon="3.14576">
        <ele>801.8</ele>
        <time>2019-05-31T09:58:47Z</time>
      </trkpt>
      <trkpt lat="44.06016" lon="3.14579">
        <ele>801.8</ele>
        <time>2019-05-31T09:58:48Z</time>
      </trkpt>
      <trkpt lat="44.06013" lon="3.14582">
        <ele>801.8</ele>
        <time>2019-05-31T09:58:49Z</time>
      </trkpt>
      <trkpt lat="44.06009" lon="3.14585">
        <ele>801.8</ele>
        <time>2019-05-31T09:58:50Z</time>
      </trkpt>
      <trkpt lat="44.06006" lon="3.14587">
        <ele>801.7</ele>
        <time>2019-05-31T09:58:51Z</time>
      </trkpt>
      <trkpt lat="44.06003" lon="3.1459">
        <ele>801.7</ele>
        <time>2019-05-31T09:58:52Z</time>
      </trkpt>
      <trkpt lat="44.06" lon="3.14593">
        <ele>801.8</ele>
        <time>2019-05-31T09:58:53Z</time>
      </trkpt>
      <trkpt lat="44.05997" lon="3.14595">
        <ele>801.8</ele>
        <time>2019-05-31T09:58:54Z</time>
      </trkpt>
      <trkpt lat="44.05994" lon="3.14598">
        <ele>801.8</ele>
        <time>2019-05-31T09:58:55Z</time>
      </trkpt>
      <trkpt lat="44.05991" lon="3.14601">
        <ele>801.8</ele>
        <time>2019-05-31T09:58:56Z</time>
      </trkpt>
      <trkpt lat="44.05988" lon="3.14604">
        <ele>801.9</ele>
        <time>2019-05-31T09:58:57Z</time>
      </trkpt>
      <trkpt lat="44.05984" lon="3.14606">
        <ele>801.9</ele>
        <time>2019-05-31T09:58:58Z</time>
      </trkpt>
      <trkpt lat="44.05981" lon="3.14609">
        <ele>801.9</ele>
        <time>2019-05-31T09:58:59Z</time>
      </trkpt>
      <trkpt lat="44.05978" lon="3.14611">
        <ele>802</ele>
        <time>2019-05-31T09:59:00Z</time>
      </trkpt>
      <trkpt lat="44.05974" lon="3.14614">
        <ele>802.1</ele>
        <time>2019-05-31T09:59:01Z</time>
      </trkpt>
      <trkpt lat="44.05971" lon="3.14617">
        <ele>802.1</ele>
        <time>2019-05-31T09:59:02Z</time>
      </trkpt>
      <trkpt lat="44.05967" lon="3.1462">
        <ele>802.1</ele>
        <time>2019-05-31T09:59:03Z</time>
      </trkpt>
      <trkpt lat="44.05964" lon="3.14623">
        <ele>802.2</ele>
        <time>2019-05-31T09:59:04Z</time>
      </trkpt>
      <trkpt lat="44.05961" lon="3.14626">
        <ele>802.2</ele>
        <time>2019-05-31T09:59:05Z</time>
      </trkpt>
      <trkpt lat="44.05957" lon="3.14627">
        <ele>802.4</ele>
        <time>2019-05-31T09:59:06Z</time>
      </trkpt>
      <trkpt lat="44.05953" lon="3.14627">
        <ele>802.5</ele>
        <time>2019-05-31T09:59:07Z</time>
      </trkpt>
      <trkpt lat="44.0595" lon="3.14627">
        <ele>802.6</ele>
        <time>2019-05-31T09:59:08Z</time>
      </trkpt>
      <trkpt lat="44.05946" lon="3.14627">
        <ele>802.6</ele>
        <time>2019-05-31T09:59:09Z</time>
      </trkpt>
      <trkpt lat="44.05942" lon="3.14628">
        <ele>802.7</ele>
        <time>2019-05-31T09:59:10Z</time>
      </trkpt>
      <trkpt lat="44.05939" lon="3.14629">
        <ele>802.8</ele>
        <time>2019-05-31T09:59:11Z</time>
      </trkpt>
      <trkpt lat="44.05935" lon="3.14631">
        <ele>802.9</ele>
        <time>2019-05-31T09:59:12Z</time>
      </trkpt>
      <trkpt lat="44.05933" lon="3.14634">
        <ele>803.1</ele>
        <time>2019-05-31T09:59:13Z</time>
      </trkpt>
      <trkpt lat="44.0593" lon="3.14637">
        <ele>803.3</ele>
        <time>2019-05-31T09:59:14Z</time>
      </trkpt>
      <trkpt lat="44.05927" lon="3.1464">
        <ele>803.4</ele>
        <time>2019-05-31T09:59:15Z</time>
      </trkpt>
      <trkpt lat="44.05924" lon="3.14643">
        <ele>803.6</ele>
        <time>2019-05-31T09:59:16Z</time>
      </trkpt>
      <trkpt lat="44.05921" lon="3.14646">
        <ele>803.8</ele>
        <time>2019-05-31T09:59:17Z</time>
      </trkpt>
      <trkpt lat="44.05919" lon="3.1465">
        <ele>804</ele>
        <time>2019-05-31T09:59:18Z</time>
      </trkpt>
      <trkpt lat="44.05918" lon="3.14654">
        <ele>804.3</ele>
        <time>2019-05-31T09:59:19Z</time>
      </trkpt>
      <trkpt lat="44.05916" lon="3.14659">
        <ele>804.4</ele>
        <time>2019-05-31T09:59:20Z</time>
      </trkpt>
      <trkpt lat="44.05915" lon="3.14664">
        <ele>804.6</ele>
        <time>2019-05-31T09:59:21Z</time>
      </trkpt>
      <trkpt lat="44.05914" lon="3.14668">
        <ele>804.8</ele>
        <time>2019-05-31T09:59:22Z</time>
      </trkpt>
      <trkpt lat="44.05913" lon="3.14673">
        <ele>804.9</ele>
        <time>2019-05-31T09:59:23Z</time>
      </trkpt>
      <trkpt lat="44.05911" lon="3.14678">
        <ele>805.1</ele>
        <time>2019-05-31T09:59:24Z</time>
      </trkpt>
      <trkpt lat="44.05909" lon="3.14682">
        <ele>805.3</ele>
        <time>2019-05-31T09:59:25Z</time>
      </trkpt>
      <trkpt lat="44.05907" lon="3.14688">
        <ele>805.4</ele>
        <time>2019-05-31T09:59:26Z</time>
      </trkpt>
      <trkpt lat="44.05906" lon="3.14694">
        <ele>805.6</ele>
        <time>2019-05-31T09:59:27Z</time>
      </trkpt>
      <trkpt lat="44.05905" lon="3.14699">
        <ele>805.8</ele>
        <time>2019-05-31T09:59:28Z</time>
      </trkpt>
      <trkpt lat="44.05903" lon="3.14707">
        <ele>806.1</ele>
        <time>2019-05-31T09:59:29Z</time>
      </trkpt>
      <trkpt lat="44.05902" lon="3.14713">
        <ele>806.2</ele>
        <time>2019-05-31T09:59:30Z</time>
      </trkpt>
      <trkpt lat="44.059" lon="3.14719">
        <ele>806.4</ele>
        <time>2019-05-31T09:59:31Z</time>
      </trkpt>
      <trkpt lat="44.05899" lon="3.14725">
        <ele>806.6</ele>
        <time>2019-05-31T09:59:32Z</time>
      </trkpt>
      <trkpt lat="44.05898" lon="3.14731">
        <ele>806.8</ele>
        <time>2019-05-31T09:59:33Z</time>
      </trkpt>
      <trkpt lat="44.05898" lon="3.14737">
        <ele>807</ele>
        <time>2019-05-31T09:59:34Z</time>
      </trkpt>
      <trkpt lat="44.05897" lon="3.14743">
        <ele>807.3</ele>
        <time>2019-05-31T09:59:35Z</time>
      </trkpt>
      <trkpt lat="44.05896" lon="3.14748">
        <ele>807.4</ele>
        <time>2019-05-31T09:59:36Z</time>
      </trkpt>
      <trkpt lat="44.05895" lon="3.14755">
        <ele>807.7</ele>
        <time>2019-05-31T09:59:37Z</time>
      </trkpt>
      <trkpt lat="44.05894" lon="3.1476">
        <ele>807.8</ele>
        <time>2019-05-31T09:59:38Z</time>
      </trkpt>
      <trkpt lat="44.05894" lon="3.14767">
        <ele>807.8</ele>
        <time>2019-05-31T09:59:39Z</time>
      </trkpt>
      <trkpt lat="44.05894" lon="3.14775">
        <ele>807.9</ele>
        <time>2019-05-31T09:59:40Z</time>
      </trkpt>
      <trkpt lat="44.05893" lon="3.1478">
        <ele>807.9</ele>
        <time>2019-05-31T09:59:41Z</time>
      </trkpt>
      <trkpt lat="44.0589" lon="3.14783">
        <ele>808</ele>
        <time>2019-05-31T09:59:42Z</time>
      </trkpt>
      <trkpt lat="44.05888" lon="3.14787">
        <ele>808.2</ele>
        <time>2019-05-31T09:59:43Z</time>
      </trkpt>
      <trkpt lat="44.05884" lon="3.14791">
        <ele>808.4</ele>
        <time>2019-05-31T09:59:45Z</time>
      </trkpt>
      <trkpt lat="44.0588" lon="3.14794">
        <ele>808.5</ele>
        <time>2019-05-31T09:59:47Z</time>
      </trkpt>
      <trkpt lat="44.05878" lon="3.14796">
        <ele>808.6</ele>
        <time>2019-05-31T10:00:04Z</time>
      </trkpt>
      <trkpt lat="44.05874" lon="3.148">
        <ele>808.7</ele>
        <time>2019-05-31T10:00:06Z</time>
      </trkpt>
      <trkpt lat="44.05871" lon="3.14803">
        <ele>808.8</ele>
        <time>2019-05-31T10:00:07Z</time>
      </trkpt>
      <trkpt lat="44.05869" lon="3.14805">
        <ele>808.9</ele>
        <time>2019-05-31T10:00:08Z</time>
      </trkpt>
      <trkpt lat="44.05866" lon="3.14808">
        <ele>808.9</ele>
        <time>2019-05-31T10:00:09Z</time>
      </trkpt>
      <trkpt lat="44.05863" lon="3.1481">
        <ele>809</ele>
        <time>2019-05-31T10:00:10Z</time>
      </trkpt>
      <trkpt lat="44.0586" lon="3.14812">
        <ele>809.1</ele>
        <time>2019-05-31T10:00:11Z</time>
      </trkpt>
      <trkpt lat="44.05857" lon="3.14814">
        <ele>809.1</ele>
        <time>2019-05-31T10:00:12Z</time>
      </trkpt>
      <trkpt lat="44.05855" lon="3.14816">
        <ele>809.3</ele>
        <time>2019-05-31T10:00:13Z</time>
      </trkpt>
      <trkpt lat="44.05851" lon="3.14819">
        <ele>809.4</ele>
        <time>2019-05-31T10:00:14Z</time>
      </trkpt>
      <trkpt lat="44.05848" lon="3.14822">
        <ele>809.5</ele>
        <time>2019-05-31T10:00:15Z</time>
      </trkpt>
      <trkpt lat="44.05843" lon="3.14824">
        <ele>809.6</ele>
        <time>2019-05-31T10:00:16Z</time>
      </trkpt>
      <trkpt lat="44.05839" lon="3.14826">
        <ele>809.7</ele>
        <time>2019-05-31T10:00:17Z</time>
      </trkpt>
      <trkpt lat="44.05835" lon="3.1483">
        <ele>809.9</ele>
        <time>2019-05-31T10:00:18Z</time>
      </trkpt>
      <trkpt lat="44.05832" lon="3.14833">
        <ele>809.9</ele>
        <time>2019-05-31T10:00:19Z</time>
      </trkpt>
      <trkpt lat="44.05828" lon="3.14837">
        <ele>809.9</ele>
        <time>2019-05-31T10:00:20Z</time>
      </trkpt>
      <trkpt lat="44.05825" lon="3.14843">
        <ele>809.8</ele>
        <time>2019-05-31T10:00:21Z</time>
      </trkpt>
      <trkpt lat="44.05822" lon="3.14849">
        <ele>809.7</ele>
        <time>2019-05-31T10:00:22Z</time>
      </trkpt>
      <trkpt lat="44.05818" lon="3.14855">
        <ele>809.5</ele>
        <time>2019-05-31T10:00:23Z</time>
      </trkpt>
      <trkpt lat="44.05815" lon="3.1486">
        <ele>809.5</ele>
        <time>2019-05-31T10:00:24Z</time>
      </trkpt>
      <trkpt lat="44.0581" lon="3.14863">
        <ele>809.3</ele>
        <time>2019-05-31T10:00:25Z</time>
      </trkpt>
      <trkpt lat="44.05805" lon="3.14867">
        <ele>809.2</ele>
        <time>2019-05-31T10:00:26Z</time>
      </trkpt>
      <trkpt lat="44.05801" lon="3.14872">
        <ele>809</ele>
        <time>2019-05-31T10:00:27Z</time>
      </trkpt>
      <trkpt lat="44.05797" lon="3.14878">
        <ele>808.8</ele>
        <time>2019-05-31T10:00:28Z</time>
      </trkpt>
      <trkpt lat="44.05793" lon="3.14884">
        <ele>808.6</ele>
        <time>2019-05-31T10:00:29Z</time>
      </trkpt>
      <trkpt lat="44.05788" lon="3.1489">
        <ele>808.4</ele>
        <time>2019-05-31T10:00:30Z</time>
      </trkpt>
      <trkpt lat="44.05785" lon="3.14898">
        <ele>808</ele>
        <time>2019-05-31T10:00:31Z</time>
      </trkpt>
      <trkpt lat="44.05781" lon="3.14907">
        <ele>807.7</ele>
        <time>2019-05-31T10:00:32Z</time>
      </trkpt>
      <trkpt lat="44.05778" lon="3.14913">
        <ele>807.5</ele>
        <time>2019-05-31T10:00:33Z</time>
      </trkpt>
      <trkpt lat="44.05775" lon="3.14919">
        <ele>807.3</ele>
        <time>2019-05-31T10:00:34Z</time>
      </trkpt>
      <trkpt lat="44.05772" lon="3.14926">
        <ele>807.1</ele>
        <time>2019-05-31T10:00:35Z</time>
      </trkpt>
      <trkpt lat="44.05769" lon="3.14933">
        <ele>806.8</ele>
        <time>2019-05-31T10:00:36Z</time>
      </trkpt>
      <trkpt lat="44.05767" lon="3.14941">
        <ele>806.6</ele>
        <time>2019-05-31T10:00:37Z</time>
      </trkpt>
      <trkpt lat="44.05764" lon="3.14951">
        <ele>806.4</ele>
        <time>2019-05-31T10:00:38Z</time>
      </trkpt>
      <trkpt lat="44.05763" lon="3.14958">
        <ele>806.3</ele>
        <time>2019-05-31T10:00:39Z</time>
      </trkpt>
      <trkpt lat="44.05761" lon="3.14964">
        <ele>806.2</ele>
        <time>2019-05-31T10:00:40Z</time>
      </trkpt>
      <trkpt lat="44.05758" lon="3.14969">
        <ele>806.1</ele>
        <time>2019-05-31T10:00:41Z</time>
      </trkpt>
      <trkpt lat="44.05757" lon="3.14975">
        <ele>806.1</ele>
        <time>2019-05-31T10:00:42Z</time>
      </trkpt>
      <trkpt lat="44.05755" lon="3.14983">
        <ele>806.2</ele>
        <time>2019-05-31T10:00:43Z</time>
      </trkpt>
      <trkpt lat="44.05753" lon="3.14989">
        <ele>806.2</ele>
        <time>2019-05-31T10:00:44Z</time>
      </trkpt>
      <trkpt lat="44.05751" lon="3.14994">
        <ele>806.3</ele>
        <time>2019-05-31T10:00:45Z</time>
      </trkpt>
      <trkpt lat="44.05748" lon="3.15001">
        <ele>806.4</ele>
        <time>2019-05-31T10:00:46Z</time>
      </trkpt>
      <trkpt lat="44.05744" lon="3.15005">
        <ele>806.4</ele>
        <time>2019-05-31T10:00:47Z</time>
      </trkpt>
      <trkpt lat="44.05742" lon="3.1501">
        <ele>806.5</ele>
        <time>2019-05-31T10:00:48Z</time>
      </trkpt>
      <trkpt lat="44.0574" lon="3.15013">
        <ele>806.5</ele>
        <time>2019-05-31T10:00:49Z</time>
      </trkpt>
      <trkpt lat="44.05737" lon="3.15015">
        <ele>806.6</ele>
        <time>2019-05-31T10:00:50Z</time>
      </trkpt>
      <trkpt lat="44.05733" lon="3.15018">
        <ele>806.7</ele>
        <time>2019-05-31T10:00:52Z</time>
      </trkpt>
      <trkpt lat="44.05728" lon="3.1502">
        <ele>806.8</ele>
        <time>2019-05-31T10:00:54Z</time>
      </trkpt>
      <trkpt lat="44.05723" lon="3.1502">
        <ele>806.9</ele>
        <time>2019-05-31T10:00:56Z</time>
      </trkpt>
      <trkpt lat="44.05718" lon="3.15021">
        <ele>807</ele>
        <time>2019-05-31T10:00:57Z</time>
      </trkpt>
      <trkpt lat="44.05714" lon="3.15024">
        <ele>807.1</ele>
        <time>2019-05-31T10:00:58Z</time>
      </trkpt>
      <trkpt lat="44.05711" lon="3.15026">
        <ele>807.2</ele>
        <time>2019-05-31T10:00:59Z</time>
      </trkpt>
      <trkpt lat="44.05708" lon="3.15029">
        <ele>807.3</ele>
        <time>2019-05-31T10:01:00Z</time>
      </trkpt>
      <trkpt lat="44.05704" lon="3.1503">
        <ele>807.4</ele>
        <time>2019-05-31T10:01:01Z</time>
      </trkpt>
      <trkpt lat="44.05701" lon="3.15032">
        <ele>807.5</ele>
        <time>2019-05-31T10:01:02Z</time>
      </trkpt>
      <trkpt lat="44.05698" lon="3.15034">
        <ele>807.5</ele>
        <time>2019-05-31T10:01:03Z</time>
      </trkpt>
      <trkpt lat="44.05694" lon="3.15036">
        <ele>807.6</ele>
        <time>2019-05-31T10:01:04Z</time>
      </trkpt>
      <trkpt lat="44.05691" lon="3.15038">
        <ele>807.7</ele>
        <time>2019-05-31T10:01:05Z</time>
      </trkpt>
      <trkpt lat="44.05688" lon="3.15039">
        <ele>807.8</ele>
        <time>2019-05-31T10:01:06Z</time>
      </trkpt>
      <trkpt lat="44.05685" lon="3.1504">
        <ele>807.9</ele>
        <time>2019-05-31T10:01:07Z</time>
      </trkpt>
      <trkpt lat="44.05682" lon="3.15041">
        <ele>808</ele>
        <time>2019-05-31T10:01:08Z</time>
      </trkpt>
      <trkpt lat="44.0568" lon="3.15041">
        <ele>808.1</ele>
        <time>2019-05-31T10:01:09Z</time>
      </trkpt>
      <trkpt lat="44.05675" lon="3.15044">
        <ele>808.2</ele>
        <time>2019-05-31T10:01:11Z</time>
      </trkpt>
      <trkpt lat="44.05672" lon="3.15046">
        <ele>808.3</ele>
        <time>2019-05-31T10:01:12Z</time>
      </trkpt>
      <trkpt lat="44.05669" lon="3.15048">
        <ele>808.4</ele>
        <time>2019-05-31T10:01:13Z</time>
      </trkpt>
      <trkpt lat="44.05666" lon="3.1505">
        <ele>808.5</ele>
        <time>2019-05-31T10:01:14Z</time>
      </trkpt>
      <trkpt lat="44.05663" lon="3.15052">
        <ele>808.6</ele>
        <time>2019-05-31T10:01:15Z</time>
      </trkpt>
      <trkpt lat="44.05659" lon="3.15054">
        <ele>808.8</ele>
        <time>2019-05-31T10:01:16Z</time>
      </trkpt>
      <trkpt lat="44.05656" lon="3.15056">
        <ele>808.9</ele>
        <time>2019-05-31T10:01:17Z</time>
      </trkpt>
      <trkpt lat="44.05652" lon="3.15057">
        <ele>809</ele>
        <time>2019-05-31T10:01:18Z</time>
      </trkpt>
      <trkpt lat="44.05649" lon="3.15059">
        <ele>809.2</ele>
        <time>2019-05-31T10:01:19Z</time>
      </trkpt>
      <trkpt lat="44.05646" lon="3.1506">
        <ele>809.3</ele>
        <time>2019-05-31T10:01:20Z</time>
      </trkpt>
      <trkpt lat="44.05642" lon="3.15061">
        <ele>809.4</ele>
        <time>2019-05-31T10:01:21Z</time>
      </trkpt>
      <trkpt lat="44.05639" lon="3.15064">
        <ele>809.6</ele>
        <time>2019-05-31T10:01:22Z</time>
      </trkpt>
      <trkpt lat="44.05636" lon="3.15066">
        <ele>809.7</ele>
        <time>2019-05-31T10:01:23Z</time>
      </trkpt>
      <trkpt lat="44.05632" lon="3.1507">
        <ele>809.9</ele>
        <time>2019-05-31T10:01:24Z</time>
      </trkpt>
      <trkpt lat="44.0563" lon="3.15073">
        <ele>810.1</ele>
        <time>2019-05-31T10:01:25Z</time>
      </trkpt>
      <trkpt lat="44.05626" lon="3.15077">
        <ele>810.3</ele>
        <time>2019-05-31T10:01:26Z</time>
      </trkpt>
      <trkpt lat="44.05624" lon="3.1508">
        <ele>810.4</ele>
        <time>2019-05-31T10:01:27Z</time>
      </trkpt>
      <trkpt lat="44.05619" lon="3.15082">
        <ele>810.6</ele>
        <time>2019-05-31T10:01:28Z</time>
      </trkpt>
      <trkpt lat="44.05617" lon="3.15085">
        <ele>810.8</ele>
        <time>2019-05-31T10:01:29Z</time>
      </trkpt>
      <trkpt lat="44.05615" lon="3.15088">
        <ele>810.9</ele>
        <time>2019-05-31T10:01:30Z</time>
      </trkpt>
      <trkpt lat="44.05611" lon="3.15089">
        <ele>811</ele>
        <time>2019-05-31T10:01:31Z</time>
      </trkpt>
      <trkpt lat="44.05609" lon="3.15092">
        <ele>811.2</ele>
        <time>2019-05-31T10:01:32Z</time>
      </trkpt>
      <trkpt lat="44.05605" lon="3.15096">
        <ele>811.4</ele>
        <time>2019-05-31T10:01:33Z</time>
      </trkpt>
      <trkpt lat="44.05602" lon="3.15098">
        <ele>811.5</ele>
        <time>2019-05-31T10:01:34Z</time>
      </trkpt>
      <trkpt lat="44.05599" lon="3.151">
        <ele>811.8</ele>
        <time>2019-05-31T10:01:35Z</time>
      </trkpt>
      <trkpt lat="44.05595" lon="3.15102">
        <ele>811.9</ele>
        <time>2019-05-31T10:01:36Z</time>
      </trkpt>
      <trkpt lat="44.05593" lon="3.15103">
        <ele>812.1</ele>
        <time>2019-05-31T10:01:37Z</time>
      </trkpt>
      <trkpt lat="44.0559" lon="3.15106">
        <ele>812.2</ele>
        <time>2019-05-31T10:01:38Z</time>
      </trkpt>
      <trkpt lat="44.05588" lon="3.15109">
        <ele>812.3</ele>
        <time>2019-05-31T10:01:39Z</time>
      </trkpt>
      <trkpt lat="44.05586" lon="3.15112">
        <ele>812.4</ele>
        <time>2019-05-31T10:01:40Z</time>
      </trkpt>
      <trkpt lat="44.05584" lon="3.15116">
        <ele>812.6</ele>
        <time>2019-05-31T10:01:41Z</time>
      </trkpt>
      <trkpt lat="44.05582" lon="3.15119">
        <ele>812.8</ele>
        <time>2019-05-31T10:01:42Z</time>
      </trkpt>
      <trkpt lat="44.0558" lon="3.15123">
        <ele>813</ele>
        <time>2019-05-31T10:01:43Z</time>
      </trkpt>
      <trkpt lat="44.05579" lon="3.15127">
        <ele>813.2</ele>
        <time>2019-05-31T10:01:44Z</time>
      </trkpt>
      <trkpt lat="44.05576" lon="3.1513">
        <ele>813.4</ele>
        <time>2019-05-31T10:01:45Z</time>
      </trkpt>
      <trkpt lat="44.05574" lon="3.15134">
        <ele>813.5</ele>
        <time>2019-05-31T10:01:46Z</time>
      </trkpt>
      <trkpt lat="44.05572" lon="3.15138">
        <ele>813.7</ele>
        <time>2019-05-31T10:01:47Z</time>
      </trkpt>
      <trkpt lat="44.05569" lon="3.15141">
        <ele>813.8</ele>
        <time>2019-05-31T10:01:48Z</time>
      </trkpt>
      <trkpt lat="44.05565" lon="3.15146">
        <ele>814.2</ele>
        <time>2019-05-31T10:01:50Z</time>
      </trkpt>
      <trkpt lat="44.05563" lon="3.1515">
        <ele>814.4</ele>
        <time>2019-05-31T10:01:51Z</time>
      </trkpt>
      <trkpt lat="44.05561" lon="3.15154">
        <ele>814.6</ele>
        <time>2019-05-31T10:01:52Z</time>
      </trkpt>
      <trkpt lat="44.05559" lon="3.15159">
        <ele>814.7</ele>
        <time>2019-05-31T10:01:53Z</time>
      </trkpt>
      <trkpt lat="44.05557" lon="3.15164">
        <ele>814.8</ele>
        <time>2019-05-31T10:01:54Z</time>
      </trkpt>
      <trkpt lat="44.05555" lon="3.15168">
        <ele>815.1</ele>
        <time>2019-05-31T10:01:55Z</time>
      </trkpt>
      <trkpt lat="44.05553" lon="3.15172">
        <ele>815.3</ele>
        <time>2019-05-31T10:01:56Z</time>
      </trkpt>
      <trkpt lat="44.05551" lon="3.15176">
        <ele>815.5</ele>
        <time>2019-05-31T10:01:57Z</time>
      </trkpt>
      <trkpt lat="44.05547" lon="3.1518">
        <ele>815.8</ele>
        <time>2019-05-31T10:01:58Z</time>
      </trkpt>
      <trkpt lat="44.05544" lon="3.15184">
        <ele>816</ele>
        <time>2019-05-31T10:01:59Z</time>
      </trkpt>
      <trkpt lat="44.05541" lon="3.15189">
        <ele>816.3</ele>
        <time>2019-05-31T10:02:00Z</time>
      </trkpt>
      <trkpt lat="44.05539" lon="3.15192">
        <ele>816.4</ele>
        <time>2019-05-31T10:02:01Z</time>
      </trkpt>
      <trkpt lat="44.05535" lon="3.15195">
        <ele>816.7</ele>
        <time>2019-05-31T10:02:02Z</time>
      </trkpt>
      <trkpt lat="44.05533" lon="3.15197">
        <ele>816.8</ele>
        <time>2019-05-31T10:02:03Z</time>
      </trkpt>
      <trkpt lat="44.05529" lon="3.152">
        <ele>817.1</ele>
        <time>2019-05-31T10:02:04Z</time>
      </trkpt>
      <trkpt lat="44.05523" lon="3.15205">
        <ele>817.5</ele>
        <time>2019-05-31T10:02:06Z</time>
      </trkpt>
      <trkpt lat="44.05518" lon="3.15207">
        <ele>817.8</ele>
        <time>2019-05-31T10:02:08Z</time>
      </trkpt>
      <trkpt lat="44.05513" lon="3.1521">
        <ele>818.1</ele>
        <time>2019-05-31T10:02:10Z</time>
      </trkpt>
      <trkpt lat="44.0551" lon="3.15211">
        <ele>818.3</ele>
        <time>2019-05-31T10:02:11Z</time>
      </trkpt>
      <trkpt lat="44.05508" lon="3.1521">
        <ele>818.4</ele>
        <time>2019-05-31T10:02:12Z</time>
      </trkpt>
      <trkpt lat="44.05505" lon="3.15212">
        <ele>818.6</ele>
        <time>2019-05-31T10:02:13Z</time>
      </trkpt>
      <trkpt lat="44.05502" lon="3.15215">
        <ele>818.7</ele>
        <time>2019-05-31T10:02:14Z</time>
      </trkpt>
      <trkpt lat="44.05499" lon="3.15218">
        <ele>818.8</ele>
        <time>2019-05-31T10:02:15Z</time>
      </trkpt>
      <trkpt lat="44.05497" lon="3.15221">
        <ele>818.8</ele>
        <time>2019-05-31T10:02:16Z</time>
      </trkpt>
      <trkpt lat="44.05494" lon="3.15225">
        <ele>818.9</ele>
        <time>2019-05-31T10:02:17Z</time>
      </trkpt>
      <trkpt lat="44.05492" lon="3.15229">
        <ele>818.9</ele>
        <time>2019-05-31T10:02:18Z</time>
      </trkpt>
      <trkpt lat="44.05489" lon="3.15233">
        <ele>818.9</ele>
        <time>2019-05-31T10:02:19Z</time>
      </trkpt>
      <trkpt lat="44.05487" lon="3.15236">
        <ele>819</ele>
        <time>2019-05-31T10:02:20Z</time>
      </trkpt>
      <trkpt lat="44.05485" lon="3.1524">
        <ele>819</ele>
        <time>2019-05-31T10:02:21Z</time>
      </trkpt>
      <trkpt lat="44.05481" lon="3.15244">
        <ele>819.1</ele>
        <time>2019-05-31T10:02:23Z</time>
      </trkpt>
      <trkpt lat="44.05476" lon="3.15245">
        <ele>819.1</ele>
        <time>2019-05-31T10:02:25Z</time>
      </trkpt>
      <trkpt lat="44.05471" lon="3.15247">
        <ele>819.2</ele>
        <time>2019-05-31T10:02:27Z</time>
      </trkpt>
      <trkpt lat="44.05469" lon="3.15251">
        <ele>819.2</ele>
        <time>2019-05-31T10:02:29Z</time>
      </trkpt>
      <trkpt lat="44.0547" lon="3.15257">
        <ele>819.3</ele>
        <time>2019-05-31T10:02:31Z</time>
      </trkpt>
      <trkpt lat="44.05471" lon="3.15261">
        <ele>819.4</ele>
        <time>2019-05-31T10:02:33Z</time>
      </trkpt>
      <trkpt lat="44.05471" lon="3.15265">
        <ele>819.5</ele>
        <time>2019-05-31T10:02:35Z</time>
      </trkpt>
      <trkpt lat="44.05471" lon="3.15269">
        <ele>819.6</ele>
        <time>2019-05-31T10:02:37Z</time>
      </trkpt>
      <trkpt lat="44.05471" lon="3.15274">
        <ele>819.7</ele>
        <time>2019-05-31T10:02:39Z</time>
      </trkpt>
      <trkpt lat="44.0547" lon="3.15278">
        <ele>819.8</ele>
        <time>2019-05-31T10:02:41Z</time>
      </trkpt>
      <trkpt lat="44.0547" lon="3.15283">
        <ele>819.9</ele>
        <time>2019-05-31T10:02:43Z</time>
      </trkpt>
      <trkpt lat="44.0547" lon="3.15287">
        <ele>820</ele>
        <time>2019-05-31T10:02:45Z</time>
      </trkpt>
      <trkpt lat="44.0547" lon="3.15291">
        <ele>820.2</ele>
        <time>2019-05-31T10:02:47Z</time>
      </trkpt>
      <trkpt lat="44.0547" lon="3.15295">
        <ele>820.3</ele>
        <time>2019-05-31T10:02:49Z</time>
      </trkpt>
      <trkpt lat="44.05469" lon="3.153">
        <ele>820.5</ele>
        <time>2019-05-31T10:02:51Z</time>
      </trkpt>
      <trkpt lat="44.05468" lon="3.15304">
        <ele>820.7</ele>
        <time>2019-05-31T10:02:54Z</time>
      </trkpt>
      <trkpt lat="44.05465" lon="3.15306">
        <ele>820.8</ele>
        <time>2019-05-31T10:03:27Z</time>
      </trkpt>
      <trkpt lat="44.05464" lon="3.15311">
        <ele>821.1</ele>
        <time>2019-05-31T10:03:29Z</time>
      </trkpt>
      <trkpt lat="44.05462" lon="3.15314">
        <ele>821.2</ele>
        <time>2019-05-31T10:03:30Z</time>
      </trkpt>
      <trkpt lat="44.05461" lon="3.15318">
        <ele>821.3</ele>
        <time>2019-05-31T10:03:31Z</time>
      </trkpt>
      <trkpt lat="44.0546" lon="3.15325">
        <ele>821.4</ele>
        <time>2019-05-31T10:03:33Z</time>
      </trkpt>
      <trkpt lat="44.05458" lon="3.15329">
        <ele>821.5</ele>
        <time>2019-05-31T10:03:34Z</time>
      </trkpt>
      <trkpt lat="44.05457" lon="3.15332">
        <ele>821.6</ele>
        <time>2019-05-31T10:03:35Z</time>
      </trkpt>
      <trkpt lat="44.05456" lon="3.15336">
        <ele>821.7</ele>
        <time>2019-05-31T10:03:36Z</time>
      </trkpt>
      <trkpt lat="44.05455" lon="3.1534">
        <ele>821.8</ele>
        <time>2019-05-31T10:03:37Z</time>
      </trkpt>
      <trkpt lat="44.05453" lon="3.15347">
        <ele>822</ele>
        <time>2019-05-31T10:03:39Z</time>
      </trkpt>
      <trkpt lat="44.05451" lon="3.15351">
        <ele>822.1</ele>
        <time>2019-05-31T10:03:40Z</time>
      </trkpt>
      <trkpt lat="44.0545" lon="3.15357">
        <ele>822.3</ele>
        <time>2019-05-31T10:03:42Z</time>
      </trkpt>
      <trkpt lat="44.05448" lon="3.15363">
        <ele>822.7</ele>
        <time>2019-05-31T10:03:44Z</time>
      </trkpt>
      <trkpt lat="44.05446" lon="3.1537">
        <ele>823</ele>
        <time>2019-05-31T10:03:46Z</time>
      </trkpt>
      <trkpt lat="44.05444" lon="3.15376">
        <ele>823.5</ele>
        <time>2019-05-31T10:03:48Z</time>
      </trkpt>
      <trkpt lat="44.05442" lon="3.15382">
        <ele>823.8</ele>
        <time>2019-05-31T10:03:50Z</time>
      </trkpt>
      <trkpt lat="44.05441" lon="3.15386">
        <ele>824.2</ele>
        <time>2019-05-31T10:03:52Z</time>
      </trkpt>
      <trkpt lat="44.0544" lon="3.15392">
        <ele>824.5</ele>
        <time>2019-05-31T10:03:55Z</time>
      </trkpt>
      <trkpt lat="44.05438" lon="3.15398">
        <ele>824.9</ele>
        <time>2019-05-31T10:03:57Z</time>
      </trkpt>
      <trkpt lat="44.05436" lon="3.15404">
        <ele>825.2</ele>
        <time>2019-05-31T10:03:59Z</time>
      </trkpt>
      <trkpt lat="44.05433" lon="3.1541">
        <ele>825.5</ele>
        <time>2019-05-31T10:04:01Z</time>
      </trkpt>
      <trkpt lat="44.05429" lon="3.15414">
        <ele>825.7</ele>
        <time>2019-05-31T10:04:03Z</time>
      </trkpt>
      <trkpt lat="44.05426" lon="3.15416">
        <ele>825.9</ele>
        <time>2019-05-31T10:04:04Z</time>
      </trkpt>
      <trkpt lat="44.05423" lon="3.15417">
        <ele>826</ele>
        <time>2019-05-31T10:04:05Z</time>
      </trkpt>
      <trkpt lat="44.0542" lon="3.15419">
        <ele>826.1</ele>
        <time>2019-05-31T10:04:06Z</time>
      </trkpt>
      <trkpt lat="44.05417" lon="3.1542">
        <ele>826.1</ele>
        <time>2019-05-31T10:04:07Z</time>
      </trkpt>
      <trkpt lat="44.05414" lon="3.15422">
        <ele>826.1</ele>
        <time>2019-05-31T10:04:08Z</time>
      </trkpt>
      <trkpt lat="44.05409" lon="3.15422">
        <ele>826.1</ele>
        <time>2019-05-31T10:04:10Z</time>
      </trkpt>
      <trkpt lat="44.05404" lon="3.15425">
        <ele>826.4</ele>
        <time>2019-05-31T10:04:12Z</time>
      </trkpt>
      <trkpt lat="44.05402" lon="3.15429">
        <ele>826.5</ele>
        <time>2019-05-31T10:04:13Z</time>
      </trkpt>
      <trkpt lat="44.05401" lon="3.15435">
        <ele>826.6</ele>
        <time>2019-05-31T10:04:14Z</time>
      </trkpt>
      <trkpt lat="44.054" lon="3.1544">
        <ele>826.8</ele>
        <time>2019-05-31T10:04:15Z</time>
      </trkpt>
      <trkpt lat="44.054" lon="3.15446">
        <ele>826.9</ele>
        <time>2019-05-31T10:04:16Z</time>
      </trkpt>
      <trkpt lat="44.054" lon="3.15451">
        <ele>827</ele>
        <time>2019-05-31T10:04:17Z</time>
      </trkpt>
      <trkpt lat="44.054" lon="3.15457">
        <ele>827.1</ele>
        <time>2019-05-31T10:04:18Z</time>
      </trkpt>
      <trkpt lat="44.054" lon="3.15462">
        <ele>827.1</ele>
        <time>2019-05-31T10:04:19Z</time>
      </trkpt>
      <trkpt lat="44.05401" lon="3.15467">
        <ele>827.2</ele>
        <time>2019-05-31T10:04:20Z</time>
      </trkpt>
      <trkpt lat="44.05401" lon="3.15473">
        <ele>827.3</ele>
        <time>2019-05-31T10:04:21Z</time>
      </trkpt>
      <trkpt lat="44.05402" lon="3.15477">
        <ele>827.3</ele>
        <time>2019-05-31T10:04:22Z</time>
      </trkpt>
      <trkpt lat="44.05403" lon="3.15482">
        <ele>827.3</ele>
        <time>2019-05-31T10:04:23Z</time>
      </trkpt>
      <trkpt lat="44.05405" lon="3.15487">
        <ele>827.4</ele>
        <time>2019-05-31T10:04:24Z</time>
      </trkpt>
      <trkpt lat="44.05406" lon="3.15493">
        <ele>827.4</ele>
        <time>2019-05-31T10:04:25Z</time>
      </trkpt>
      <trkpt lat="44.05407" lon="3.15499">
        <ele>827.4</ele>
        <time>2019-05-31T10:04:26Z</time>
      </trkpt>
      <trkpt lat="44.05408" lon="3.15504">
        <ele>827.4</ele>
        <time>2019-05-31T10:04:27Z</time>
      </trkpt>
      <trkpt lat="44.05408" lon="3.15509">
        <ele>827.4</ele>
        <time>2019-05-31T10:04:28Z</time>
      </trkpt>
      <trkpt lat="44.05408" lon="3.15514">
        <ele>827.4</ele>
        <time>2019-05-31T10:04:29Z</time>
      </trkpt>
      <trkpt lat="44.05408" lon="3.15519">
        <ele>827.2</ele>
        <time>2019-05-31T10:04:30Z</time>
      </trkpt>
      <trkpt lat="44.05408" lon="3.15524">
        <ele>827</ele>
        <time>2019-05-31T10:04:31Z</time>
      </trkpt>
      <trkpt lat="44.05408" lon="3.15528">
        <ele>826.8</ele>
        <time>2019-05-31T10:04:32Z</time>
      </trkpt>
      <trkpt lat="44.05408" lon="3.15534">
        <ele>826.5</ele>
        <time>2019-05-31T10:04:33Z</time>
      </trkpt>
      <trkpt lat="44.05409" lon="3.1554">
        <ele>826.3</ele>
        <time>2019-05-31T10:04:34Z</time>
      </trkpt>
      <trkpt lat="44.05409" lon="3.15546">
        <ele>826.1</ele>
        <time>2019-05-31T10:04:35Z</time>
      </trkpt>
      <trkpt lat="44.05409" lon="3.15552">
        <ele>825.8</ele>
        <time>2019-05-31T10:04:36Z</time>
      </trkpt>
      <trkpt lat="44.05408" lon="3.15556">
        <ele>825.6</ele>
        <time>2019-05-31T10:04:37Z</time>
      </trkpt>
      <trkpt lat="44.05408" lon="3.15561">
        <ele>825.4</ele>
        <time>2019-05-31T10:04:38Z</time>
      </trkpt>
      <trkpt lat="44.05406" lon="3.15569">
        <ele>825.1</ele>
        <time>2019-05-31T10:04:40Z</time>
      </trkpt>
      <trkpt lat="44.05407" lon="3.15574">
        <ele>824.9</ele>
        <time>2019-05-31T10:04:41Z</time>
      </trkpt>
      <trkpt lat="44.05406" lon="3.15577">
        <ele>824.7</ele>
        <time>2019-05-31T10:04:42Z</time>
      </trkpt>
      <trkpt lat="44.05406" lon="3.15583">
        <ele>824.5</ele>
        <time>2019-05-31T10:04:43Z</time>
      </trkpt>
      <trkpt lat="44.05405" lon="3.15589">
        <ele>824.2</ele>
        <time>2019-05-31T10:04:44Z</time>
      </trkpt>
      <trkpt lat="44.05404" lon="3.15597">
        <ele>823.8</ele>
        <time>2019-05-31T10:04:45Z</time>
      </trkpt>
      <trkpt lat="44.05406" lon="3.15603">
        <ele>823.5</ele>
        <time>2019-05-31T10:04:46Z</time>
      </trkpt>
      <trkpt lat="44.05407" lon="3.15609">
        <ele>823.2</ele>
        <time>2019-05-31T10:04:47Z</time>
      </trkpt>
      <trkpt lat="44.05407" lon="3.15615">
        <ele>822.9</ele>
        <time>2019-05-31T10:04:48Z</time>
      </trkpt>
      <trkpt lat="44.05406" lon="3.15623">
        <ele>822.5</ele>
        <time>2019-05-31T10:04:49Z</time>
      </trkpt>
      <trkpt lat="44.05406" lon="3.15628">
        <ele>822.2</ele>
        <time>2019-05-31T10:04:50Z</time>
      </trkpt>
      <trkpt lat="44.05405" lon="3.15634">
        <ele>821.9</ele>
        <time>2019-05-31T10:04:51Z</time>
      </trkpt>
      <trkpt lat="44.05405" lon="3.15641">
        <ele>821.6</ele>
        <time>2019-05-31T10:04:52Z</time>
      </trkpt>
      <trkpt lat="44.05407" lon="3.15646">
        <ele>821.2</ele>
        <time>2019-05-31T10:04:53Z</time>
      </trkpt>
      <trkpt lat="44.05409" lon="3.15653">
        <ele>820.8</ele>
        <time>2019-05-31T10:04:54Z</time>
      </trkpt>
      <trkpt lat="44.05411" lon="3.15659">
        <ele>820.4</ele>
        <time>2019-05-31T10:04:55Z</time>
      </trkpt>
      <trkpt lat="44.05413" lon="3.15667">
        <ele>819.9</ele>
        <time>2019-05-31T10:04:56Z</time>
      </trkpt>
      <trkpt lat="44.05414" lon="3.15673">
        <ele>819.5</ele>
        <time>2019-05-31T10:04:57Z</time>
      </trkpt>
      <trkpt lat="44.05416" lon="3.15681">
        <ele>819</ele>
        <time>2019-05-31T10:04:58Z</time>
      </trkpt>
      <trkpt lat="44.05419" lon="3.15688">
        <ele>818.5</ele>
        <time>2019-05-31T10:04:59Z</time>
      </trkpt>
      <trkpt lat="44.05421" lon="3.15695">
        <ele>818</ele>
        <time>2019-05-31T10:05:00Z</time>
      </trkpt>
      <trkpt lat="44.0542" lon="3.15703">
        <ele>817.6</ele>
        <time>2019-05-31T10:05:01Z</time>
      </trkpt>
      <trkpt lat="44.0542" lon="3.15711">
        <ele>817.2</ele>
        <time>2019-05-31T10:05:02Z</time>
      </trkpt>
      <trkpt lat="44.05419" lon="3.15716">
        <ele>817.2</ele>
        <time>2019-05-31T10:05:03Z</time>
      </trkpt>
      <trkpt lat="44.05419" lon="3.15726">
        <ele>816.5</ele>
        <time>2019-05-31T10:05:04Z</time>
      </trkpt>
      <trkpt lat="44.05418" lon="3.15731">
        <ele>816.1</ele>
        <time>2019-05-31T10:05:05Z</time>
      </trkpt>
      <trkpt lat="44.05418" lon="3.15737">
        <ele>815.7</ele>
        <time>2019-05-31T10:05:06Z</time>
      </trkpt>
      <trkpt lat="44.05418" lon="3.15745">
        <ele>815.1</ele>
        <time>2019-05-31T10:05:07Z</time>
      </trkpt>
      <trkpt lat="44.05418" lon="3.15749">
        <ele>814.7</ele>
        <time>2019-05-31T10:05:08Z</time>
      </trkpt>
      <trkpt lat="44.05417" lon="3.15756">
        <ele>814.3</ele>
        <time>2019-05-31T10:05:09Z</time>
      </trkpt>
      <trkpt lat="44.05416" lon="3.15762">
        <ele>814.1</ele>
        <time>2019-05-31T10:05:10Z</time>
      </trkpt>
      <trkpt lat="44.05416" lon="3.15767">
        <ele>814</ele>
        <time>2019-05-31T10:05:11Z</time>
      </trkpt>
      <trkpt lat="44.05415" lon="3.15773">
        <ele>814</ele>
        <time>2019-05-31T10:05:12Z</time>
      </trkpt>
      <trkpt lat="44.05414" lon="3.15779">
        <ele>814.1</ele>
        <time>2019-05-31T10:05:13Z</time>
      </trkpt>
      <trkpt lat="44.05414" lon="3.15783">
        <ele>814.1</ele>
        <time>2019-05-31T10:05:14Z</time>
      </trkpt>
      <trkpt lat="44.05414" lon="3.15789">
        <ele>813.9</ele>
        <time>2019-05-31T10:05:15Z</time>
      </trkpt>
      <trkpt lat="44.05413" lon="3.15793">
        <ele>813.9</ele>
        <time>2019-05-31T10:05:16Z</time>
      </trkpt>
      <trkpt lat="44.05413" lon="3.15797">
        <ele>813.9</ele>
        <time>2019-05-31T10:05:17Z</time>
      </trkpt>
      <trkpt lat="44.05412" lon="3.15803">
        <ele>813.8</ele>
        <time>2019-05-31T10:05:18Z</time>
      </trkpt>
      <trkpt lat="44.05411" lon="3.15809">
        <ele>813.6</ele>
        <time>2019-05-31T10:05:19Z</time>
      </trkpt>
      <trkpt lat="44.0541" lon="3.15816">
        <ele>813.4</ele>
        <time>2019-05-31T10:05:20Z</time>
      </trkpt>
      <trkpt lat="44.0541" lon="3.15823">
        <ele>813.2</ele>
        <time>2019-05-31T10:05:21Z</time>
      </trkpt>
      <trkpt lat="44.05409" lon="3.15831">
        <ele>813</ele>
        <time>2019-05-31T10:05:22Z</time>
      </trkpt>
      <trkpt lat="44.05409" lon="3.15839">
        <ele>812.6</ele>
        <time>2019-05-31T10:05:23Z</time>
      </trkpt>
      <trkpt lat="44.05408" lon="3.15849">
        <ele>812.5</ele>
        <time>2019-05-31T10:05:24Z</time>
      </trkpt>
      <trkpt lat="44.05407" lon="3.15858">
        <ele>812.3</ele>
        <time>2019-05-31T10:05:25Z</time>
      </trkpt>
      <trkpt lat="44.05405" lon="3.15867">
        <ele>812.3</ele>
        <time>2019-05-31T10:05:26Z</time>
      </trkpt>
      <trkpt lat="44.05402" lon="3.15876">
        <ele>812.4</ele>
        <time>2019-05-31T10:05:27Z</time>
      </trkpt>
      <trkpt lat="44.05399" lon="3.15884">
        <ele>812.6</ele>
        <time>2019-05-31T10:05:28Z</time>
      </trkpt>
      <trkpt lat="44.05396" lon="3.15893">
        <ele>812.7</ele>
        <time>2019-05-31T10:05:29Z</time>
      </trkpt>
      <trkpt lat="44.05392" lon="3.15901">
        <ele>812.9</ele>
        <time>2019-05-31T10:05:30Z</time>
      </trkpt>
      <trkpt lat="44.0539" lon="3.15909">
        <ele>813.1</ele>
        <time>2019-05-31T10:05:31Z</time>
      </trkpt>
      <trkpt lat="44.05387" lon="3.15918">
        <ele>813.2</ele>
        <time>2019-05-31T10:05:32Z</time>
      </trkpt>
      <trkpt lat="44.05386" lon="3.15927">
        <ele>813.3</ele>
        <time>2019-05-31T10:05:33Z</time>
      </trkpt>
      <trkpt lat="44.05383" lon="3.15935">
        <ele>813.3</ele>
        <time>2019-05-31T10:05:34Z</time>
      </trkpt>
      <trkpt lat="44.0538" lon="3.15943">
        <ele>813.2</ele>
        <time>2019-05-31T10:05:35Z</time>
      </trkpt>
      <trkpt lat="44.05379" lon="3.15951">
        <ele>813</ele>
        <time>2019-05-31T10:05:36Z</time>
      </trkpt>
      <trkpt lat="44.0538" lon="3.15959">
        <ele>812.8</ele>
        <time>2019-05-31T10:05:37Z</time>
      </trkpt>
      <trkpt lat="44.05381" lon="3.15968">
        <ele>812.6</ele>
        <time>2019-05-31T10:05:38Z</time>
      </trkpt>
      <trkpt lat="44.05381" lon="3.15974">
        <ele>812.5</ele>
        <time>2019-05-31T10:05:39Z</time>
      </trkpt>
      <trkpt lat="44.05381" lon="3.15984">
        <ele>812.3</ele>
        <time>2019-05-31T10:05:40Z</time>
      </trkpt>
      <trkpt lat="44.05382" lon="3.15995">
        <ele>812.1</ele>
        <time>2019-05-31T10:05:41Z</time>
      </trkpt>
      <trkpt lat="44.05381" lon="3.16004">
        <ele>811.9</ele>
        <time>2019-05-31T10:05:42Z</time>
      </trkpt>
      <trkpt lat="44.05382" lon="3.16013">
        <ele>811.8</ele>
        <time>2019-05-31T10:05:43Z</time>
      </trkpt>
      <trkpt lat="44.05382" lon="3.16022">
        <ele>811.6</ele>
        <time>2019-05-31T10:05:44Z</time>
      </trkpt>
      <trkpt lat="44.05381" lon="3.16032">
        <ele>811.3</ele>
        <time>2019-05-31T10:05:45Z</time>
      </trkpt>
      <trkpt lat="44.05381" lon="3.16042">
        <ele>811</ele>
        <time>2019-05-31T10:05:46Z</time>
      </trkpt>
      <trkpt lat="44.05383" lon="3.16052">
        <ele>810.8</ele>
        <time>2019-05-31T10:05:47Z</time>
      </trkpt>
      <trkpt lat="44.05386" lon="3.16063">
        <ele>810.4</ele>
        <time>2019-05-31T10:05:48Z</time>
      </trkpt>
      <trkpt lat="44.05389" lon="3.16073">
        <ele>810.2</ele>
        <time>2019-05-31T10:05:49Z</time>
      </trkpt>
      <trkpt lat="44.05392" lon="3.16081">
        <ele>810</ele>
        <time>2019-05-31T10:05:50Z</time>
      </trkpt>
      <trkpt lat="44.05395" lon="3.16088">
        <ele>809.8</ele>
        <time>2019-05-31T10:05:51Z</time>
      </trkpt>
      <trkpt lat="44.05396" lon="3.16093">
        <ele>809.7</ele>
        <time>2019-05-31T10:05:52Z</time>
      </trkpt>
      <trkpt lat="44.05398" lon="3.16098">
        <ele>809.6</ele>
        <time>2019-05-31T10:05:53Z</time>
      </trkpt>
      <trkpt lat="44.054" lon="3.16107">
        <ele>809.4</ele>
        <time>2019-05-31T10:05:54Z</time>
      </trkpt>
      <trkpt lat="44.05402" lon="3.16113">
        <ele>809.2</ele>
        <time>2019-05-31T10:05:55Z</time>
      </trkpt>
      <trkpt lat="44.05403" lon="3.1612">
        <ele>809.1</ele>
        <time>2019-05-31T10:05:56Z</time>
      </trkpt>
      <trkpt lat="44.05404" lon="3.16126">
        <ele>808.9</ele>
        <time>2019-05-31T10:05:57Z</time>
      </trkpt>
      <trkpt lat="44.05406" lon="3.16133">
        <ele>808.7</ele>
        <time>2019-05-31T10:05:58Z</time>
      </trkpt>
      <trkpt lat="44.05406" lon="3.16139">
        <ele>808.5</ele>
        <time>2019-05-31T10:05:59Z</time>
      </trkpt>
      <trkpt lat="44.05408" lon="3.16148">
        <ele>808.2</ele>
        <time>2019-05-31T10:06:00Z</time>
      </trkpt>
      <trkpt lat="44.05407" lon="3.16155">
        <ele>807.8</ele>
        <time>2019-05-31T10:06:01Z</time>
      </trkpt>
      <trkpt lat="44.0541" lon="3.16164">
        <ele>807.3</ele>
        <time>2019-05-31T10:06:02Z</time>
      </trkpt>
      <trkpt lat="44.05413" lon="3.16173">
        <ele>806.8</ele>
        <time>2019-05-31T10:06:03Z</time>
      </trkpt>
      <trkpt lat="44.05414" lon="3.16183">
        <ele>806.4</ele>
        <time>2019-05-31T10:06:04Z</time>
      </trkpt>
      <trkpt lat="44.05414" lon="3.16193">
        <ele>806</ele>
        <time>2019-05-31T10:06:05Z</time>
      </trkpt>
      <trkpt lat="44.05414" lon="3.16202">
        <ele>805.6</ele>
        <time>2019-05-31T10:06:06Z</time>
      </trkpt>
      <trkpt lat="44.05414" lon="3.16212">
        <ele>805.3</ele>
        <time>2019-05-31T10:06:07Z</time>
      </trkpt>
      <trkpt lat="44.05415" lon="3.16223">
        <ele>804.8</ele>
        <time>2019-05-31T10:06:08Z</time>
      </trkpt>
      <trkpt lat="44.05417" lon="3.16232">
        <ele>804.4</ele>
        <time>2019-05-31T10:06:09Z</time>
      </trkpt>
      <trkpt lat="44.05419" lon="3.16243">
        <ele>804.1</ele>
        <time>2019-05-31T10:06:10Z</time>
      </trkpt>
      <trkpt lat="44.05418" lon="3.16253">
        <ele>803.8</ele>
        <time>2019-05-31T10:06:11Z</time>
      </trkpt>
      <trkpt lat="44.05419" lon="3.16262">
        <ele>803.5</ele>
        <time>2019-05-31T10:06:12Z</time>
      </trkpt>
      <trkpt lat="44.0542" lon="3.16272">
        <ele>803.2</ele>
        <time>2019-05-31T10:06:13Z</time>
      </trkpt>
      <trkpt lat="44.0542" lon="3.16281">
        <ele>803</ele>
        <time>2019-05-31T10:06:14Z</time>
      </trkpt>
      <trkpt lat="44.05421" lon="3.16288">
        <ele>802.8</ele>
        <time>2019-05-31T10:06:15Z</time>
      </trkpt>
      <trkpt lat="44.05422" lon="3.16294">
        <ele>802.7</ele>
        <time>2019-05-31T10:06:16Z</time>
      </trkpt>
      <trkpt lat="44.05424" lon="3.163">
        <ele>802.5</ele>
        <time>2019-05-31T10:06:17Z</time>
      </trkpt>
      <trkpt lat="44.05426" lon="3.16305">
        <ele>802.4</ele>
        <time>2019-05-31T10:06:18Z</time>
      </trkpt>
      <trkpt lat="44.05427" lon="3.16313">
        <ele>802.3</ele>
        <time>2019-05-31T10:06:19Z</time>
      </trkpt>
      <trkpt lat="44.05429" lon="3.16321">
        <ele>802.2</ele>
        <time>2019-05-31T10:06:20Z</time>
      </trkpt>
      <trkpt lat="44.05431" lon="3.16327">
        <ele>802.1</ele>
        <time>2019-05-31T10:06:21Z</time>
      </trkpt>
      <trkpt lat="44.05432" lon="3.16335">
        <ele>802.1</ele>
        <time>2019-05-31T10:06:22Z</time>
      </trkpt>
      <trkpt lat="44.05434" lon="3.16342">
        <ele>802.1</ele>
        <time>2019-05-31T10:06:23Z</time>
      </trkpt>
      <trkpt lat="44.05437" lon="3.16349">
        <ele>802</ele>
        <time>2019-05-31T10:06:24Z</time>
      </trkpt>
      <trkpt lat="44.05438" lon="3.16356">
        <ele>802</ele>
        <time>2019-05-31T10:06:25Z</time>
      </trkpt>
      <trkpt lat="44.05439" lon="3.16365">
        <ele>802</ele>
        <time>2019-05-31T10:06:26Z</time>
      </trkpt>
      <trkpt lat="44.05441" lon="3.16372">
        <ele>802.1</ele>
        <time>2019-05-31T10:06:27Z</time>
      </trkpt>
      <trkpt lat="44.05445" lon="3.1638">
        <ele>802.1</ele>
        <time>2019-05-31T10:06:28Z</time>
      </trkpt>
      <trkpt lat="44.05448" lon="3.16388">
        <ele>802.1</ele>
        <time>2019-05-31T10:06:29Z</time>
      </trkpt>
      <trkpt lat="44.05451" lon="3.16394">
        <ele>802.2</ele>
        <time>2019-05-31T10:06:30Z</time>
      </trkpt>
      <trkpt lat="44.05455" lon="3.16401">
        <ele>802.3</ele>
        <time>2019-05-31T10:06:31Z</time>
      </trkpt>
      <trkpt lat="44.05459" lon="3.16407">
        <ele>802.3</ele>
        <time>2019-05-31T10:06:32Z</time>
      </trkpt>
      <trkpt lat="44.05464" lon="3.16413">
        <ele>802.4</ele>
        <time>2019-05-31T10:06:33Z</time>
      </trkpt>
      <trkpt lat="44.05468" lon="3.16417">
        <ele>802.5</ele>
        <time>2019-05-31T10:06:34Z</time>
      </trkpt>
      <trkpt lat="44.05472" lon="3.16417">
        <ele>802.5</ele>
        <time>2019-05-31T10:06:35Z</time>
      </trkpt>
      <trkpt lat="44.05477" lon="3.16417">
        <ele>802.6</ele>
        <time>2019-05-31T10:06:36Z</time>
      </trkpt>
      <trkpt lat="44.05483" lon="3.16419">
        <ele>802.7</ele>
        <time>2019-05-31T10:06:37Z</time>
      </trkpt>
      <trkpt lat="44.05487" lon="3.16421">
        <ele>802.8</ele>
        <time>2019-05-31T10:06:38Z</time>
      </trkpt>
      <trkpt lat="44.05489" lon="3.16423">
        <ele>802.8</ele>
        <time>2019-05-31T10:06:39Z</time>
      </trkpt>
      <trkpt lat="44.05492" lon="3.16425">
        <ele>802.9</ele>
        <time>2019-05-31T10:06:40Z</time>
      </trkpt>
      <trkpt lat="44.05491" lon="3.16429">
        <ele>802.9</ele>
        <time>2019-05-31T10:06:41Z</time>
      </trkpt>
      <trkpt lat="44.05494" lon="3.16432">
        <ele>803</ele>
        <time>2019-05-31T10:06:42Z</time>
      </trkpt>
      <trkpt lat="44.05494" lon="3.16437">
        <ele>803</ele>
        <time>2019-05-31T10:06:43Z</time>
      </trkpt>
      <trkpt lat="44.05494" lon="3.16441">
        <ele>803.1</ele>
        <time>2019-05-31T10:06:44Z</time>
      </trkpt>
      <trkpt lat="44.05494" lon="3.16444">
        <ele>803.2</ele>
        <time>2019-05-31T10:06:45Z</time>
      </trkpt>
      <trkpt lat="44.05496" lon="3.16449">
        <ele>803.3</ele>
        <time>2019-05-31T10:06:46Z</time>
      </trkpt>
      <trkpt lat="44.05496" lon="3.16455">
        <ele>803.3</ele>
        <time>2019-05-31T10:06:47Z</time>
      </trkpt>
      <trkpt lat="44.05497" lon="3.16459">
        <ele>803.4</ele>
        <time>2019-05-31T10:06:48Z</time>
      </trkpt>
      <trkpt lat="44.05497" lon="3.16464">
        <ele>803.4</ele>
        <time>2019-05-31T10:06:49Z</time>
      </trkpt>
      <trkpt lat="44.05497" lon="3.16469">
        <ele>803.5</ele>
        <time>2019-05-31T10:06:50Z</time>
      </trkpt>
      <trkpt lat="44.05496" lon="3.16474">
        <ele>803.5</ele>
        <time>2019-05-31T10:06:51Z</time>
      </trkpt>
      <trkpt lat="44.05496" lon="3.16479">
        <ele>803.5</ele>
        <time>2019-05-31T10:06:52Z</time>
      </trkpt>
      <trkpt lat="44.05495" lon="3.16484">
        <ele>803.5</ele>
        <time>2019-05-31T10:06:53Z</time>
      </trkpt>
      <trkpt lat="44.05493" lon="3.16489">
        <ele>803.5</ele>
        <time>2019-05-31T10:06:54Z</time>
      </trkpt>
      <trkpt lat="44.05492" lon="3.16494">
        <ele>803.5</ele>
        <time>2019-05-31T10:06:55Z</time>
      </trkpt>
      <trkpt lat="44.05491" lon="3.16498">
        <ele>803.5</ele>
        <time>2019-05-31T10:06:56Z</time>
      </trkpt>
      <trkpt lat="44.05488" lon="3.16499">
        <ele>803.5</ele>
        <time>2019-05-31T10:06:57Z</time>
      </trkpt>
      <trkpt lat="44.05488" lon="3.16505">
        <ele>803.5</ele>
        <time>2019-05-31T10:06:58Z</time>
      </trkpt>
      <trkpt lat="44.05486" lon="3.16512">
        <ele>803.4</ele>
        <time>2019-05-31T10:06:59Z</time>
      </trkpt>
      <trkpt lat="44.05485" lon="3.1652">
        <ele>803.3</ele>
        <time>2019-05-31T10:07:00Z</time>
      </trkpt>
      <trkpt lat="44.05483" lon="3.16528">
        <ele>803.2</ele>
        <time>2019-05-31T10:07:01Z</time>
      </trkpt>
      <trkpt lat="44.05483" lon="3.16535">
        <ele>803</ele>
        <time>2019-05-31T10:07:02Z</time>
      </trkpt>
      <trkpt lat="44.05485" lon="3.16544">
        <ele>802.7</ele>
        <time>2019-05-31T10:07:03Z</time>
      </trkpt>
      <trkpt lat="44.05486" lon="3.16551">
        <ele>802.4</ele>
        <time>2019-05-31T10:07:04Z</time>
      </trkpt>
      <trkpt lat="44.05489" lon="3.16559">
        <ele>802.1</ele>
        <time>2019-05-31T10:07:05Z</time>
      </trkpt>
      <trkpt lat="44.05492" lon="3.16568">
        <ele>801.7</ele>
        <time>2019-05-31T10:07:06Z</time>
      </trkpt>
      <trkpt lat="44.05495" lon="3.16575">
        <ele>801.5</ele>
        <time>2019-05-31T10:07:07Z</time>
      </trkpt>
      <trkpt lat="44.05497" lon="3.16582">
        <ele>801.2</ele>
        <time>2019-05-31T10:07:08Z</time>
      </trkpt>
      <trkpt lat="44.055" lon="3.16588">
        <ele>801</ele>
        <time>2019-05-31T10:07:09Z</time>
      </trkpt>
      <trkpt lat="44.05502" lon="3.16595">
        <ele>800.8</ele>
        <time>2019-05-31T10:07:10Z</time>
      </trkpt>
      <trkpt lat="44.05506" lon="3.166">
        <ele>800.6</ele>
        <time>2019-05-31T10:07:11Z</time>
      </trkpt>
      <trkpt lat="44.05511" lon="3.16605">
        <ele>800.4</ele>
        <time>2019-05-31T10:07:12Z</time>
      </trkpt>
      <trkpt lat="44.05515" lon="3.1661">
        <ele>800.3</ele>
        <time>2019-05-31T10:07:13Z</time>
      </trkpt>
      <trkpt lat="44.0552" lon="3.16615">
        <ele>800.1</ele>
        <time>2019-05-31T10:07:14Z</time>
      </trkpt>
      <trkpt lat="44.05526" lon="3.16619">
        <ele>800</ele>
        <time>2019-05-31T10:07:15Z</time>
      </trkpt>
      <trkpt lat="44.05532" lon="3.16623">
        <ele>799.8</ele>
        <time>2019-05-31T10:07:16Z</time>
      </trkpt>
      <trkpt lat="44.05537" lon="3.16626">
        <ele>799.7</ele>
        <time>2019-05-31T10:07:17Z</time>
      </trkpt>
      <trkpt lat="44.05541" lon="3.1663">
        <ele>799.6</ele>
        <time>2019-05-31T10:07:18Z</time>
      </trkpt>
      <trkpt lat="44.05547" lon="3.16633">
        <ele>799.4</ele>
        <time>2019-05-31T10:07:19Z</time>
      </trkpt>
      <trkpt lat="44.05555" lon="3.16635">
        <ele>799.2</ele>
        <time>2019-05-31T10:07:20Z</time>
      </trkpt>
      <trkpt lat="44.0556" lon="3.16637">
        <ele>799.1</ele>
        <time>2019-05-31T10:07:21Z</time>
      </trkpt>
      <trkpt lat="44.05565" lon="3.16639">
        <ele>799</ele>
        <time>2019-05-31T10:07:22Z</time>
      </trkpt>
      <trkpt lat="44.05571" lon="3.1664">
        <ele>798.9</ele>
        <time>2019-05-31T10:07:23Z</time>
      </trkpt>
      <trkpt lat="44.05576" lon="3.16642">
        <ele>798.8</ele>
        <time>2019-05-31T10:07:24Z</time>
      </trkpt>
      <trkpt lat="44.05581" lon="3.16643">
        <ele>798.6</ele>
        <time>2019-05-31T10:07:25Z</time>
      </trkpt>
      <trkpt lat="44.05586" lon="3.16645">
        <ele>798.5</ele>
        <time>2019-05-31T10:07:26Z</time>
      </trkpt>
      <trkpt lat="44.05591" lon="3.16646">
        <ele>798.4</ele>
        <time>2019-05-31T10:07:27Z</time>
      </trkpt>
      <trkpt lat="44.05597" lon="3.16642">
        <ele>798.2</ele>
        <time>2019-05-31T10:07:28Z</time>
      </trkpt>
      <trkpt lat="44.05602" lon="3.16643">
        <ele>798.1</ele>
        <time>2019-05-31T10:07:29Z</time>
      </trkpt>
      <trkpt lat="44.05607" lon="3.16645">
        <ele>798</ele>
        <time>2019-05-31T10:07:30Z</time>
      </trkpt>
      <trkpt lat="44.05612" lon="3.16647">
        <ele>798</ele>
        <time>2019-05-31T10:07:31Z</time>
      </trkpt>
      <trkpt lat="44.05615" lon="3.16647">
        <ele>797.9</ele>
        <time>2019-05-31T10:07:32Z</time>
      </trkpt>
      <trkpt lat="44.05619" lon="3.16646">
        <ele>797.9</ele>
        <time>2019-05-31T10:07:33Z</time>
      </trkpt>
      <trkpt lat="44.05623" lon="3.16646">
        <ele>797.9</ele>
        <time>2019-05-31T10:07:34Z</time>
      </trkpt>
      <trkpt lat="44.05627" lon="3.1665">
        <ele>797.9</ele>
        <time>2019-05-31T10:07:35Z</time>
      </trkpt>
      <trkpt lat="44.0563" lon="3.1665">
        <ele>797.9</ele>
        <time>2019-05-31T10:07:36Z</time>
      </trkpt>
      <trkpt lat="44.05633" lon="3.16652">
        <ele>797.9</ele>
        <time>2019-05-31T10:07:37Z</time>
      </trkpt>
      <trkpt lat="44.05636" lon="3.16655">
        <ele>797.9</ele>
        <time>2019-05-31T10:07:38Z</time>
      </trkpt>
      <trkpt lat="44.05641" lon="3.16657">
        <ele>797.9</ele>
        <time>2019-05-31T10:07:39Z</time>
      </trkpt>
      <trkpt lat="44.05644" lon="3.16661">
        <ele>797.9</ele>
        <time>2019-05-31T10:07:40Z</time>
      </trkpt>
      <trkpt lat="44.05648" lon="3.16663">
        <ele>798</ele>
        <time>2019-05-31T10:07:41Z</time>
      </trkpt>
      <trkpt lat="44.05652" lon="3.16665">
        <ele>798</ele>
        <time>2019-05-31T10:07:42Z</time>
      </trkpt>
      <trkpt lat="44.05655" lon="3.16667">
        <ele>798.1</ele>
        <time>2019-05-31T10:07:43Z</time>
      </trkpt>
      <trkpt lat="44.05659" lon="3.16669">
        <ele>798.1</ele>
        <time>2019-05-31T10:07:44Z</time>
      </trkpt>
      <trkpt lat="44.05665" lon="3.16671">
        <ele>798.2</ele>
        <time>2019-05-31T10:07:46Z</time>
      </trkpt>
      <trkpt lat="44.0567" lon="3.16673">
        <ele>798.2</ele>
        <time>2019-05-31T10:07:47Z</time>
      </trkpt>
      <trkpt lat="44.05675" lon="3.16675">
        <ele>798.3</ele>
        <time>2019-05-31T10:07:48Z</time>
      </trkpt>
      <trkpt lat="44.05681" lon="3.16676">
        <ele>798.3</ele>
        <time>2019-05-31T10:07:49Z</time>
      </trkpt>
      <trkpt lat="44.05686" lon="3.16678">
        <ele>798.3</ele>
        <time>2019-05-31T10:07:50Z</time>
      </trkpt>
      <trkpt lat="44.05692" lon="3.16676">
        <ele>798.4</ele>
        <time>2019-05-31T10:07:51Z</time>
      </trkpt>
      <trkpt lat="44.05697" lon="3.16677">
        <ele>798.4</ele>
        <time>2019-05-31T10:07:52Z</time>
      </trkpt>
      <trkpt lat="44.05702" lon="3.16679">
        <ele>798.4</ele>
        <time>2019-05-31T10:07:53Z</time>
      </trkpt>
      <trkpt lat="44.05708" lon="3.16682">
        <ele>798.4</ele>
        <time>2019-05-31T10:07:54Z</time>
      </trkpt>
      <trkpt lat="44.05712" lon="3.16683">
        <ele>798.3</ele>
        <time>2019-05-31T10:07:55Z</time>
      </trkpt>
      <trkpt lat="44.05718" lon="3.16684">
        <ele>798.3</ele>
        <time>2019-05-31T10:07:56Z</time>
      </trkpt>
      <trkpt lat="44.05724" lon="3.16686">
        <ele>798.2</ele>
        <time>2019-05-31T10:07:57Z</time>
      </trkpt>
      <trkpt lat="44.05729" lon="3.16688">
        <ele>798.1</ele>
        <time>2019-05-31T10:07:58Z</time>
      </trkpt>
      <trkpt lat="44.05734" lon="3.16689">
        <ele>798.1</ele>
        <time>2019-05-31T10:07:59Z</time>
      </trkpt>
      <trkpt lat="44.05739" lon="3.16691">
        <ele>798</ele>
        <time>2019-05-31T10:08:00Z</time>
      </trkpt>
      <trkpt lat="44.05745" lon="3.16691">
        <ele>797.9</ele>
        <time>2019-05-31T10:08:01Z</time>
      </trkpt>
      <trkpt lat="44.0575" lon="3.16691">
        <ele>797.8</ele>
        <time>2019-05-31T10:08:02Z</time>
      </trkpt>
      <trkpt lat="44.05753" lon="3.16692">
        <ele>797.8</ele>
        <time>2019-05-31T10:08:03Z</time>
      </trkpt>
      <trkpt lat="44.05758" lon="3.16697">
        <ele>797.6</ele>
        <time>2019-05-31T10:08:05Z</time>
      </trkpt>
      <trkpt lat="44.05761" lon="3.16699">
        <ele>797.6</ele>
        <time>2019-05-31T10:08:06Z</time>
      </trkpt>
      <trkpt lat="44.05763" lon="3.16703">
        <ele>797.5</ele>
        <time>2019-05-31T10:08:07Z</time>
      </trkpt>
      <trkpt lat="44.05767" lon="3.16705">
        <ele>797.4</ele>
        <time>2019-05-31T10:08:08Z</time>
      </trkpt>
      <trkpt lat="44.05769" lon="3.16711">
        <ele>797.3</ele>
        <time>2019-05-31T10:08:09Z</time>
      </trkpt>
      <trkpt lat="44.05774" lon="3.16716">
        <ele>797.2</ele>
        <time>2019-05-31T10:08:10Z</time>
      </trkpt>
      <trkpt lat="44.05776" lon="3.16721">
        <ele>797.1</ele>
        <time>2019-05-31T10:08:11Z</time>
      </trkpt>
      <trkpt lat="44.05779" lon="3.16726">
        <ele>797</ele>
        <time>2019-05-31T10:08:12Z</time>
      </trkpt>
      <trkpt lat="44.05783" lon="3.1673">
        <ele>796.9</ele>
        <time>2019-05-31T10:08:13Z</time>
      </trkpt>
      <trkpt lat="44.05785" lon="3.16734">
        <ele>796.8</ele>
        <time>2019-05-31T10:08:14Z</time>
      </trkpt>
      <trkpt lat="44.05788" lon="3.16739">
        <ele>796.7</ele>
        <time>2019-05-31T10:08:15Z</time>
      </trkpt>
      <trkpt lat="44.05789" lon="3.16745">
        <ele>796.6</ele>
        <time>2019-05-31T10:08:17Z</time>
      </trkpt>
      <trkpt lat="44.05794" lon="3.16751">
        <ele>796.5</ele>
        <time>2019-05-31T10:08:18Z</time>
      </trkpt>
      <trkpt lat="44.05795" lon="3.16756">
        <ele>796.4</ele>
        <time>2019-05-31T10:08:19Z</time>
      </trkpt>
      <trkpt lat="44.05797" lon="3.16762">
        <ele>796.4</ele>
        <time>2019-05-31T10:08:20Z</time>
      </trkpt>
      <trkpt lat="44.05797" lon="3.16766">
        <ele>796.3</ele>
        <time>2019-05-31T10:08:21Z</time>
      </trkpt>
      <trkpt lat="44.05799" lon="3.16772">
        <ele>796.3</ele>
        <time>2019-05-31T10:08:22Z</time>
      </trkpt>
      <trkpt lat="44.05804" lon="3.16781">
        <ele>796.1</ele>
        <time>2019-05-31T10:08:23Z</time>
      </trkpt>
      <trkpt lat="44.05805" lon="3.16787">
        <ele>796</ele>
        <time>2019-05-31T10:08:24Z</time>
      </trkpt>
      <trkpt lat="44.05808" lon="3.16795">
        <ele>795.7</ele>
        <time>2019-05-31T10:08:25Z</time>
      </trkpt>
      <trkpt lat="44.05809" lon="3.16804">
        <ele>795.4</ele>
        <time>2019-05-31T10:08:26Z</time>
      </trkpt>
      <trkpt lat="44.05812" lon="3.16813">
        <ele>795.1</ele>
        <time>2019-05-31T10:08:27Z</time>
      </trkpt>
      <trkpt lat="44.05817" lon="3.16823">
        <ele>794.8</ele>
        <time>2019-05-31T10:08:28Z</time>
      </trkpt>
      <trkpt lat="44.0582" lon="3.16831">
        <ele>794.7</ele>
        <time>2019-05-31T10:08:29Z</time>
      </trkpt>
      <trkpt lat="44.05822" lon="3.16839">
        <ele>794.5</ele>
        <time>2019-05-31T10:08:30Z</time>
      </trkpt>
      <trkpt lat="44.05824" lon="3.16846">
        <ele>794.4</ele>
        <time>2019-05-31T10:08:31Z</time>
      </trkpt>
      <trkpt lat="44.05827" lon="3.16854">
        <ele>794.4</ele>
        <time>2019-05-31T10:08:32Z</time>
      </trkpt>
      <trkpt lat="44.05829" lon="3.16861">
        <ele>794.3</ele>
        <time>2019-05-31T10:08:33Z</time>
      </trkpt>
      <trkpt lat="44.05832" lon="3.16867">
        <ele>794.2</ele>
        <time>2019-05-31T10:08:34Z</time>
      </trkpt>
      <trkpt lat="44.05835" lon="3.16875">
        <ele>794.2</ele>
        <time>2019-05-31T10:08:35Z</time>
      </trkpt>
      <trkpt lat="44.05837" lon="3.16883">
        <ele>794.1</ele>
        <time>2019-05-31T10:08:36Z</time>
      </trkpt>
      <trkpt lat="44.05839" lon="3.16889">
        <ele>794.1</ele>
        <time>2019-05-31T10:08:37Z</time>
      </trkpt>
      <trkpt lat="44.05841" lon="3.16895">
        <ele>794.1</ele>
        <time>2019-05-31T10:08:38Z</time>
      </trkpt>
      <trkpt lat="44.05843" lon="3.16904">
        <ele>794</ele>
        <time>2019-05-31T10:08:39Z</time>
      </trkpt>
      <trkpt lat="44.05845" lon="3.16912">
        <ele>794</ele>
        <time>2019-05-31T10:08:40Z</time>
      </trkpt>
      <trkpt lat="44.05848" lon="3.1692">
        <ele>794</ele>
        <time>2019-05-31T10:08:41Z</time>
      </trkpt>
      <trkpt lat="44.05847" lon="3.16926">
        <ele>794</ele>
        <time>2019-05-31T10:08:42Z</time>
      </trkpt>
      <trkpt lat="44.0585" lon="3.16933">
        <ele>794</ele>
        <time>2019-05-31T10:08:43Z</time>
      </trkpt>
      <trkpt lat="44.05851" lon="3.1694">
        <ele>794</ele>
        <time>2019-05-31T10:08:44Z</time>
      </trkpt>
      <trkpt lat="44.05852" lon="3.16948">
        <ele>794.1</ele>
        <time>2019-05-31T10:08:45Z</time>
      </trkpt>
      <trkpt lat="44.05853" lon="3.16954">
        <ele>794.1</ele>
        <time>2019-05-31T10:08:46Z</time>
      </trkpt>
      <trkpt lat="44.05854" lon="3.16961">
        <ele>794.2</ele>
        <time>2019-05-31T10:08:47Z</time>
      </trkpt>
      <trkpt lat="44.05854" lon="3.16969">
        <ele>794.4</ele>
        <time>2019-05-31T10:08:48Z</time>
      </trkpt>
      <trkpt lat="44.05855" lon="3.16975">
        <ele>794.4</ele>
        <time>2019-05-31T10:08:49Z</time>
      </trkpt>
      <trkpt lat="44.05858" lon="3.1698">
        <ele>794.5</ele>
        <time>2019-05-31T10:08:50Z</time>
      </trkpt>
      <trkpt lat="44.05859" lon="3.16986">
        <ele>794.6</ele>
        <time>2019-05-31T10:08:51Z</time>
      </trkpt>
      <trkpt lat="44.05861" lon="3.16992">
        <ele>794.7</ele>
        <time>2019-05-31T10:08:52Z</time>
      </trkpt>
      <trkpt lat="44.05863" lon="3.16998">
        <ele>794.8</ele>
        <time>2019-05-31T10:08:53Z</time>
      </trkpt>
      <trkpt lat="44.05865" lon="3.17005">
        <ele>795</ele>
        <time>2019-05-31T10:08:54Z</time>
      </trkpt>
      <trkpt lat="44.05867" lon="3.17011">
        <ele>795.1</ele>
        <time>2019-05-31T10:08:55Z</time>
      </trkpt>
      <trkpt lat="44.05868" lon="3.1702">
        <ele>795.3</ele>
        <time>2019-05-31T10:08:56Z</time>
      </trkpt>
      <trkpt lat="44.0587" lon="3.17029">
        <ele>795.6</ele>
        <time>2019-05-31T10:08:57Z</time>
      </trkpt>
      <trkpt lat="44.05872" lon="3.17033">
        <ele>795.7</ele>
        <time>2019-05-31T10:08:58Z</time>
      </trkpt>
      <trkpt lat="44.05874" lon="3.17039">
        <ele>795.8</ele>
        <time>2019-05-31T10:08:59Z</time>
      </trkpt>
      <trkpt lat="44.05876" lon="3.17047">
        <ele>796.1</ele>
        <time>2019-05-31T10:09:00Z</time>
      </trkpt>
      <trkpt lat="44.0588" lon="3.17054">
        <ele>796.3</ele>
        <time>2019-05-31T10:09:01Z</time>
      </trkpt>
      <trkpt lat="44.05884" lon="3.17061">
        <ele>796.6</ele>
        <time>2019-05-31T10:09:02Z</time>
      </trkpt>
      <trkpt lat="44.05888" lon="3.17069">
        <ele>796.8</ele>
        <time>2019-05-31T10:09:03Z</time>
      </trkpt>
      <trkpt lat="44.05891" lon="3.17076">
        <ele>797</ele>
        <time>2019-05-31T10:09:04Z</time>
      </trkpt>
      <trkpt lat="44.05895" lon="3.17084">
        <ele>797.2</ele>
        <time>2019-05-31T10:09:05Z</time>
      </trkpt>
      <trkpt lat="44.05899" lon="3.17092">
        <ele>797.3</ele>
        <time>2019-05-31T10:09:06Z</time>
      </trkpt>
      <trkpt lat="44.05904" lon="3.17102">
        <ele>797.5</ele>
        <time>2019-05-31T10:09:07Z</time>
      </trkpt>
      <trkpt lat="44.05907" lon="3.17112">
        <ele>797.5</ele>
        <time>2019-05-31T10:09:08Z</time>
      </trkpt>
      <trkpt lat="44.05909" lon="3.1712">
        <ele>797.6</ele>
        <time>2019-05-31T10:09:09Z</time>
      </trkpt>
      <trkpt lat="44.05911" lon="3.17127">
        <ele>797.6</ele>
        <time>2019-05-31T10:09:10Z</time>
      </trkpt>
      <trkpt lat="44.05908" lon="3.17132">
        <ele>797.6</ele>
        <time>2019-05-31T10:09:11Z</time>
      </trkpt>
      <trkpt lat="44.05908" lon="3.17138">
        <ele>797.5</ele>
        <time>2019-05-31T10:09:12Z</time>
      </trkpt>
      <trkpt lat="44.05909" lon="3.17145">
        <ele>797.5</ele>
        <time>2019-05-31T10:09:13Z</time>
      </trkpt>
      <trkpt lat="44.05911" lon="3.1715">
        <ele>797.4</ele>
        <time>2019-05-31T10:09:14Z</time>
      </trkpt>
      <trkpt lat="44.05912" lon="3.17155">
        <ele>797.4</ele>
        <time>2019-05-31T10:09:15Z</time>
      </trkpt>
      <trkpt lat="44.05916" lon="3.17161">
        <ele>797.2</ele>
        <time>2019-05-31T10:09:16Z</time>
      </trkpt>
      <trkpt lat="44.05918" lon="3.17165">
        <ele>797.1</ele>
        <time>2019-05-31T10:09:17Z</time>
      </trkpt>
      <trkpt lat="44.05919" lon="3.1717">
        <ele>797</ele>
        <time>2019-05-31T10:09:18Z</time>
      </trkpt>
      <trkpt lat="44.05924" lon="3.17175">
        <ele>796.8</ele>
        <time>2019-05-31T10:09:19Z</time>
      </trkpt>
      <trkpt lat="44.0593" lon="3.17179">
        <ele>796.6</ele>
        <time>2019-05-31T10:09:20Z</time>
      </trkpt>
      <trkpt lat="44.05936" lon="3.17183">
        <ele>796.3</ele>
        <time>2019-05-31T10:09:21Z</time>
      </trkpt>
      <trkpt lat="44.0594" lon="3.17186">
        <ele>796.1</ele>
        <time>2019-05-31T10:09:22Z</time>
      </trkpt>
      <trkpt lat="44.05942" lon="3.1719">
        <ele>796</ele>
        <time>2019-05-31T10:09:23Z</time>
      </trkpt>
      <trkpt lat="44.05945" lon="3.17192">
        <ele>795.8</ele>
        <time>2019-05-31T10:09:24Z</time>
      </trkpt>
      <trkpt lat="44.05948" lon="3.17195">
        <ele>795.6</ele>
        <time>2019-05-31T10:09:25Z</time>
      </trkpt>
      <trkpt lat="44.0595" lon="3.17198">
        <ele>795.5</ele>
        <time>2019-05-31T10:09:26Z</time>
      </trkpt>
      <trkpt lat="44.05953" lon="3.17202">
        <ele>795.3</ele>
        <time>2019-05-31T10:09:27Z</time>
      </trkpt>
      <trkpt lat="44.05955" lon="3.17204">
        <ele>795.1</ele>
        <time>2019-05-31T10:09:28Z</time>
      </trkpt>
      <trkpt lat="44.05958" lon="3.17207">
        <ele>795</ele>
        <time>2019-05-31T10:09:29Z</time>
      </trkpt>
      <trkpt lat="44.05961" lon="3.17209">
        <ele>794.8</ele>
        <time>2019-05-31T10:09:30Z</time>
      </trkpt>
      <trkpt lat="44.05964" lon="3.17212">
        <ele>794.7</ele>
        <time>2019-05-31T10:09:31Z</time>
      </trkpt>
      <trkpt lat="44.05967" lon="3.17214">
        <ele>794.6</ele>
        <time>2019-05-31T10:09:32Z</time>
      </trkpt>
      <trkpt lat="44.0597" lon="3.17217">
        <ele>794.4</ele>
        <time>2019-05-31T10:09:33Z</time>
      </trkpt>
      <trkpt lat="44.05973" lon="3.17221">
        <ele>794.3</ele>
        <time>2019-05-31T10:09:34Z</time>
      </trkpt>
      <trkpt lat="44.05976" lon="3.17224">
        <ele>794.3</ele>
        <time>2019-05-31T10:09:35Z</time>
      </trkpt>
      <trkpt lat="44.05979" lon="3.17227">
        <ele>794.2</ele>
        <time>2019-05-31T10:09:36Z</time>
      </trkpt>
      <trkpt lat="44.05982" lon="3.1723">
        <ele>794.2</ele>
        <time>2019-05-31T10:09:37Z</time>
      </trkpt>
      <trkpt lat="44.05984" lon="3.17234">
        <ele>794.2</ele>
        <time>2019-05-31T10:09:38Z</time>
      </trkpt>
      <trkpt lat="44.05987" lon="3.17238">
        <ele>794.1</ele>
        <time>2019-05-31T10:09:39Z</time>
      </trkpt>
      <trkpt lat="44.05989" lon="3.17241">
        <ele>794.2</ele>
        <time>2019-05-31T10:09:40Z</time>
      </trkpt>
      <trkpt lat="44.05991" lon="3.17243">
        <ele>794.2</ele>
        <time>2019-05-31T10:09:41Z</time>
      </trkpt>
      <trkpt lat="44.05994" lon="3.17248">
        <ele>794.2</ele>
        <time>2019-05-31T10:09:43Z</time>
      </trkpt>
      <trkpt lat="44.05996" lon="3.17251">
        <ele>794.3</ele>
        <time>2019-05-31T10:09:44Z</time>
      </trkpt>
      <trkpt lat="44.05999" lon="3.17255">
        <ele>794.3</ele>
        <time>2019-05-31T10:09:45Z</time>
      </trkpt>
      <trkpt lat="44.06001" lon="3.17258">
        <ele>794.3</ele>
        <time>2019-05-31T10:09:46Z</time>
      </trkpt>
      <trkpt lat="44.06004" lon="3.17261">
        <ele>794.4</ele>
        <time>2019-05-31T10:09:47Z</time>
      </trkpt>
      <trkpt lat="44.06006" lon="3.17264">
        <ele>794.5</ele>
        <time>2019-05-31T10:09:48Z</time>
      </trkpt>
      <trkpt lat="44.06008" lon="3.17267">
        <ele>794.6</ele>
        <time>2019-05-31T10:09:49Z</time>
      </trkpt>
      <trkpt lat="44.0601" lon="3.1727">
        <ele>794.7</ele>
        <time>2019-05-31T10:09:50Z</time>
      </trkpt>
      <trkpt lat="44.06012" lon="3.17272">
        <ele>794.8</ele>
        <time>2019-05-31T10:09:51Z</time>
      </trkpt>
      <trkpt lat="44.06014" lon="3.17275">
        <ele>794.9</ele>
        <time>2019-05-31T10:09:52Z</time>
      </trkpt>
      <trkpt lat="44.06017" lon="3.1728">
        <ele>795.1</ele>
        <time>2019-05-31T10:09:54Z</time>
      </trkpt>
      <trkpt lat="44.06019" lon="3.17285">
        <ele>795.2</ele>
        <time>2019-05-31T10:09:56Z</time>
      </trkpt>
      <trkpt lat="44.06023" lon="3.17291">
        <ele>795.4</ele>
        <time>2019-05-31T10:09:58Z</time>
      </trkpt>
      <trkpt lat="44.06025" lon="3.17295">
        <ele>795.5</ele>
        <time>2019-05-31T10:09:59Z</time>
      </trkpt>
      <trkpt lat="44.06027" lon="3.17298">
        <ele>795.7</ele>
        <time>2019-05-31T10:10:00Z</time>
      </trkpt>
      <trkpt lat="44.06029" lon="3.17301">
        <ele>795.8</ele>
        <time>2019-05-31T10:10:01Z</time>
      </trkpt>
      <trkpt lat="44.06032" lon="3.17305">
        <ele>795.9</ele>
        <time>2019-05-31T10:10:02Z</time>
      </trkpt>
      <trkpt lat="44.06033" lon="3.17309">
        <ele>796</ele>
        <time>2019-05-31T10:10:03Z</time>
      </trkpt>
      <trkpt lat="44.06035" lon="3.17312">
        <ele>796.1</ele>
        <time>2019-05-31T10:10:04Z</time>
      </trkpt>
      <trkpt lat="44.06037" lon="3.17317">
        <ele>796.2</ele>
        <time>2019-05-31T10:10:05Z</time>
      </trkpt>
      <trkpt lat="44.06038" lon="3.17321">
        <ele>796.3</ele>
        <time>2019-05-31T10:10:06Z</time>
      </trkpt>
      <trkpt lat="44.06041" lon="3.17327">
        <ele>796.5</ele>
        <time>2019-05-31T10:10:08Z</time>
      </trkpt>
      <trkpt lat="44.06043" lon="3.17333">
        <ele>796.6</ele>
        <time>2019-05-31T10:10:10Z</time>
      </trkpt>
      <trkpt lat="44.06044" lon="3.17337">
        <ele>796.8</ele>
        <time>2019-05-31T10:10:11Z</time>
      </trkpt>
      <trkpt lat="44.06045" lon="3.17343">
        <ele>796.9</ele>
        <time>2019-05-31T10:10:12Z</time>
      </trkpt>
      <trkpt lat="44.06047" lon="3.17349">
        <ele>797.1</ele>
        <time>2019-05-31T10:10:13Z</time>
      </trkpt>
      <trkpt lat="44.06049" lon="3.17354">
        <ele>797.2</ele>
        <time>2019-05-31T10:10:14Z</time>
      </trkpt>
      <trkpt lat="44.06052" lon="3.17359">
        <ele>797.3</ele>
        <time>2019-05-31T10:10:15Z</time>
      </trkpt>
      <trkpt lat="44.06054" lon="3.17364">
        <ele>797.5</ele>
        <time>2019-05-31T10:10:16Z</time>
      </trkpt>
      <trkpt lat="44.06055" lon="3.17369">
        <ele>797.6</ele>
        <time>2019-05-31T10:10:17Z</time>
      </trkpt>
      <trkpt lat="44.06055" lon="3.17375">
        <ele>797.7</ele>
        <time>2019-05-31T10:10:18Z</time>
      </trkpt>
      <trkpt lat="44.06055" lon="3.17379">
        <ele>797.8</ele>
        <time>2019-05-31T10:10:19Z</time>
      </trkpt>
      <trkpt lat="44.06055" lon="3.17384">
        <ele>797.9</ele>
        <time>2019-05-31T10:10:20Z</time>
      </trkpt>
      <trkpt lat="44.06055" lon="3.17391">
        <ele>798.1</ele>
        <time>2019-05-31T10:10:21Z</time>
      </trkpt>
      <trkpt lat="44.06057" lon="3.17398">
        <ele>798.3</ele>
        <time>2019-05-31T10:10:22Z</time>
      </trkpt>
      <trkpt lat="44.06058" lon="3.17405">
        <ele>798.6</ele>
        <time>2019-05-31T10:10:23Z</time>
      </trkpt>
      <trkpt lat="44.06059" lon="3.17411">
        <ele>798.7</ele>
        <time>2019-05-31T10:10:24Z</time>
      </trkpt>
      <trkpt lat="44.06059" lon="3.17425">
        <ele>798.9</ele>
        <time>2019-05-31T10:10:25Z</time>
      </trkpt>
      <trkpt lat="44.06059" lon="3.1743">
        <ele>799</ele>
        <time>2019-05-31T10:10:26Z</time>
      </trkpt>
      <trkpt lat="44.0606" lon="3.17438">
        <ele>799.1</ele>
        <time>2019-05-31T10:10:27Z</time>
      </trkpt>
      <trkpt lat="44.0606" lon="3.17448">
        <ele>799.4</ele>
        <time>2019-05-31T10:10:28Z</time>
      </trkpt>
      <trkpt lat="44.06059" lon="3.17457">
        <ele>799.6</ele>
        <time>2019-05-31T10:10:29Z</time>
      </trkpt>
      <trkpt lat="44.06059" lon="3.17466">
        <ele>799.8</ele>
        <time>2019-05-31T10:10:30Z</time>
      </trkpt>
      <trkpt lat="44.06058" lon="3.17473">
        <ele>800</ele>
        <time>2019-05-31T10:10:31Z</time>
      </trkpt>
      <trkpt lat="44.06058" lon="3.17482">
        <ele>800.1</ele>
        <time>2019-05-31T10:10:32Z</time>
      </trkpt>
      <trkpt lat="44.06058" lon="3.1749">
        <ele>800.3</ele>
        <time>2019-05-31T10:10:33Z</time>
      </trkpt>
      <trkpt lat="44.06057" lon="3.17499">
        <ele>800.5</ele>
        <time>2019-05-31T10:10:34Z</time>
      </trkpt>
      <trkpt lat="44.06057" lon="3.17504">
        <ele>800.5</ele>
        <time>2019-05-31T10:10:35Z</time>
      </trkpt>
      <trkpt lat="44.06055" lon="3.17513">
        <ele>800.7</ele>
        <time>2019-05-31T10:10:36Z</time>
      </trkpt>
      <trkpt lat="44.06056" lon="3.17519">
        <ele>800.8</ele>
        <time>2019-05-31T10:10:37Z</time>
      </trkpt>
      <trkpt lat="44.06056" lon="3.17529">
        <ele>800.9</ele>
        <time>2019-05-31T10:10:38Z</time>
      </trkpt>
      <trkpt lat="44.06056" lon="3.17537">
        <ele>801</ele>
        <time>2019-05-31T10:10:39Z</time>
      </trkpt>
      <trkpt lat="44.06056" lon="3.17545">
        <ele>801.1</ele>
        <time>2019-05-31T10:10:40Z</time>
      </trkpt>
      <trkpt lat="44.06055" lon="3.17553">
        <ele>801.1</ele>
        <time>2019-05-31T10:10:41Z</time>
      </trkpt>
      <trkpt lat="44.06053" lon="3.1756">
        <ele>801.1</ele>
        <time>2019-05-31T10:10:42Z</time>
      </trkpt>
      <trkpt lat="44.06052" lon="3.17571">
        <ele>801.1</ele>
        <time>2019-05-31T10:10:43Z</time>
      </trkpt>
      <trkpt lat="44.06054" lon="3.17578">
        <ele>801.1</ele>
        <time>2019-05-31T10:10:44Z</time>
      </trkpt>
      <trkpt lat="44.06056" lon="3.17588">
        <ele>801</ele>
        <time>2019-05-31T10:10:45Z</time>
      </trkpt>
      <trkpt lat="44.06055" lon="3.17597">
        <ele>801</ele>
        <time>2019-05-31T10:10:46Z</time>
      </trkpt>
      <trkpt lat="44.06056" lon="3.17607">
        <ele>800.8</ele>
        <time>2019-05-31T10:10:47Z</time>
      </trkpt>
      <trkpt lat="44.06052" lon="3.17616">
        <ele>800.7</ele>
        <time>2019-05-31T10:10:48Z</time>
      </trkpt>
      <trkpt lat="44.06051" lon="3.17624">
        <ele>800.6</ele>
        <time>2019-05-31T10:10:49Z</time>
      </trkpt>
      <trkpt lat="44.06051" lon="3.17631">
        <ele>800.5</ele>
        <time>2019-05-31T10:10:50Z</time>
      </trkpt>
      <trkpt lat="44.06051" lon="3.17642">
        <ele>800.3</ele>
        <time>2019-05-31T10:10:51Z</time>
      </trkpt>
      <trkpt lat="44.0605" lon="3.17653">
        <ele>800.2</ele>
        <time>2019-05-31T10:10:52Z</time>
      </trkpt>
      <trkpt lat="44.06048" lon="3.17662">
        <ele>800</ele>
        <time>2019-05-31T10:10:53Z</time>
      </trkpt>
      <trkpt lat="44.06045" lon="3.1767">
        <ele>799.9</ele>
        <time>2019-05-31T10:10:54Z</time>
      </trkpt>
      <trkpt lat="44.06046" lon="3.17678">
        <ele>799.8</ele>
        <time>2019-05-31T10:10:55Z</time>
      </trkpt>
      <trkpt lat="44.06046" lon="3.17687">
        <ele>799.7</ele>
        <time>2019-05-31T10:10:56Z</time>
      </trkpt>
      <trkpt lat="44.06046" lon="3.17696">
        <ele>799.6</ele>
        <time>2019-05-31T10:10:57Z</time>
      </trkpt>
      <trkpt lat="44.06047" lon="3.17705">
        <ele>799.5</ele>
        <time>2019-05-31T10:10:58Z</time>
      </trkpt>
      <trkpt lat="44.06047" lon="3.17714">
        <ele>799.4</ele>
        <time>2019-05-31T10:10:59Z</time>
      </trkpt>
      <trkpt lat="44.06047" lon="3.17725">
        <ele>799.4</ele>
        <time>2019-05-31T10:11:00Z</time>
      </trkpt>
      <trkpt lat="44.06048" lon="3.17737">
        <ele>799.3</ele>
        <time>2019-05-31T10:11:01Z</time>
      </trkpt>
      <trkpt lat="44.0605" lon="3.17749">
        <ele>799.3</ele>
        <time>2019-05-31T10:11:02Z</time>
      </trkpt>
      <trkpt lat="44.06052" lon="3.1776">
        <ele>799.3</ele>
        <time>2019-05-31T10:11:03Z</time>
      </trkpt>
      <trkpt lat="44.06055" lon="3.17767">
        <ele>799.3</ele>
        <time>2019-05-31T10:11:04Z</time>
      </trkpt>
      <trkpt lat="44.06057" lon="3.17776">
        <ele>799.3</ele>
        <time>2019-05-31T10:11:05Z</time>
      </trkpt>
      <trkpt lat="44.0606" lon="3.17784">
        <ele>799.3</ele>
        <time>2019-05-31T10:11:06Z</time>
      </trkpt>
      <trkpt lat="44.06061" lon="3.17794">
        <ele>799.3</ele>
        <time>2019-05-31T10:11:07Z</time>
      </trkpt>
      <trkpt lat="44.06062" lon="3.17804">
        <ele>799.2</ele>
        <time>2019-05-31T10:11:08Z</time>
      </trkpt>
      <trkpt lat="44.06062" lon="3.17812">
        <ele>799.2</ele>
        <time>2019-05-31T10:11:09Z</time>
      </trkpt>
      <trkpt lat="44.06062" lon="3.1782">
        <ele>799.2</ele>
        <time>2019-05-31T10:11:10Z</time>
      </trkpt>
      <trkpt lat="44.06063" lon="3.17827">
        <ele>799.1</ele>
        <time>2019-05-31T10:11:11Z</time>
      </trkpt>
      <trkpt lat="44.06063" lon="3.17832">
        <ele>799.1</ele>
        <time>2019-05-31T10:11:12Z</time>
      </trkpt>
      <trkpt lat="44.06064" lon="3.17838">
        <ele>799</ele>
        <time>2019-05-31T10:11:13Z</time>
      </trkpt>
      <trkpt lat="44.06064" lon="3.17843">
        <ele>799</ele>
        <time>2019-05-31T10:11:14Z</time>
      </trkpt>
      <trkpt lat="44.06068" lon="3.17848">
        <ele>798.9</ele>
        <time>2019-05-31T10:11:15Z</time>
      </trkpt>
      <trkpt lat="44.06069" lon="3.17853">
        <ele>798.9</ele>
        <time>2019-05-31T10:11:16Z</time>
      </trkpt>
      <trkpt lat="44.0607" lon="3.17858">
        <ele>798.8</ele>
        <time>2019-05-31T10:11:17Z</time>
      </trkpt>
      <trkpt lat="44.0607" lon="3.17865">
        <ele>798.7</ele>
        <time>2019-05-31T10:11:18Z</time>
      </trkpt>
      <trkpt lat="44.06069" lon="3.17871">
        <ele>798.6</ele>
        <time>2019-05-31T10:11:19Z</time>
      </trkpt>
      <trkpt lat="44.06068" lon="3.17877">
        <ele>798.6</ele>
        <time>2019-05-31T10:11:20Z</time>
      </trkpt>
      <trkpt lat="44.06066" lon="3.17884">
        <ele>798.5</ele>
        <time>2019-05-31T10:11:21Z</time>
      </trkpt>
      <trkpt lat="44.06065" lon="3.17891">
        <ele>798.4</ele>
        <time>2019-05-31T10:11:22Z</time>
      </trkpt>
      <trkpt lat="44.06065" lon="3.17898">
        <ele>798.3</ele>
        <time>2019-05-31T10:11:23Z</time>
      </trkpt>
      <trkpt lat="44.06064" lon="3.17906">
        <ele>798.2</ele>
        <time>2019-05-31T10:11:24Z</time>
      </trkpt>
      <trkpt lat="44.06064" lon="3.17914">
        <ele>798.1</ele>
        <time>2019-05-31T10:11:25Z</time>
      </trkpt>
      <trkpt lat="44.06064" lon="3.17921">
        <ele>797.9</ele>
        <time>2019-05-31T10:11:26Z</time>
      </trkpt>
      <trkpt lat="44.06065" lon="3.1793">
        <ele>797.8</ele>
        <time>2019-05-31T10:11:27Z</time>
      </trkpt>
      <trkpt lat="44.06066" lon="3.17936">
        <ele>797.6</ele>
        <time>2019-05-31T10:11:28Z</time>
      </trkpt>
      <trkpt lat="44.06067" lon="3.17943">
        <ele>797.5</ele>
        <time>2019-05-31T10:11:29Z</time>
      </trkpt>
      <trkpt lat="44.06068" lon="3.1795">
        <ele>797.3</ele>
        <time>2019-05-31T10:11:30Z</time>
      </trkpt>
      <trkpt lat="44.0607" lon="3.17958">
        <ele>797.1</ele>
        <time>2019-05-31T10:11:31Z</time>
      </trkpt>
      <trkpt lat="44.06071" lon="3.17964">
        <ele>796.9</ele>
        <time>2019-05-31T10:11:32Z</time>
      </trkpt>
      <trkpt lat="44.06071" lon="3.1797">
        <ele>796.8</ele>
        <time>2019-05-31T10:11:33Z</time>
      </trkpt>
      <trkpt lat="44.06072" lon="3.17973">
        <ele>796.7</ele>
        <time>2019-05-31T10:11:34Z</time>
      </trkpt>
      <trkpt lat="44.06073" lon="3.1798">
        <ele>796.5</ele>
        <time>2019-05-31T10:11:36Z</time>
      </trkpt>
      <trkpt lat="44.06075" lon="3.17985">
        <ele>796.4</ele>
        <time>2019-05-31T10:11:39Z</time>
      </trkpt>
      <trkpt lat="44.06077" lon="3.1799">
        <ele>796.2</ele>
        <time>2019-05-31T10:11:40Z</time>
      </trkpt>
      <trkpt lat="44.06077" lon="3.17994">
        <ele>796.1</ele>
        <time>2019-05-31T10:11:41Z</time>
      </trkpt>
      <trkpt lat="44.06079" lon="3.17999">
        <ele>796</ele>
        <time>2019-05-31T10:11:42Z</time>
      </trkpt>
      <trkpt lat="44.06078" lon="3.18004">
        <ele>795.9</ele>
        <time>2019-05-31T10:11:43Z</time>
      </trkpt>
      <trkpt lat="44.06079" lon="3.1801">
        <ele>795.7</ele>
        <time>2019-05-31T10:11:44Z</time>
      </trkpt>
      <trkpt lat="44.06079" lon="3.18016">
        <ele>795.6</ele>
        <time>2019-05-31T10:11:45Z</time>
      </trkpt>
      <trkpt lat="44.0608" lon="3.18022">
        <ele>795.4</ele>
        <time>2019-05-31T10:11:46Z</time>
      </trkpt>
      <trkpt lat="44.06081" lon="3.18028">
        <ele>795.2</ele>
        <time>2019-05-31T10:11:47Z</time>
      </trkpt>
      <trkpt lat="44.06081" lon="3.18033">
        <ele>795.1</ele>
        <time>2019-05-31T10:11:48Z</time>
      </trkpt>
      <trkpt lat="44.06082" lon="3.18039">
        <ele>794.8</ele>
        <time>2019-05-31T10:11:49Z</time>
      </trkpt>
      <trkpt lat="44.06082" lon="3.18044">
        <ele>794.7</ele>
        <time>2019-05-31T10:11:50Z</time>
      </trkpt>
      <trkpt lat="44.06083" lon="3.18049">
        <ele>794.5</ele>
        <time>2019-05-31T10:11:51Z</time>
      </trkpt>
      <trkpt lat="44.06084" lon="3.18055">
        <ele>794.4</ele>
        <time>2019-05-31T10:11:52Z</time>
      </trkpt>
      <trkpt lat="44.06086" lon="3.18059">
        <ele>794.3</ele>
        <time>2019-05-31T10:11:53Z</time>
      </trkpt>
      <trkpt lat="44.06088" lon="3.18063">
        <ele>794.2</ele>
        <time>2019-05-31T10:11:54Z</time>
      </trkpt>
      <trkpt lat="44.0609" lon="3.18066">
        <ele>794.1</ele>
        <time>2019-05-31T10:11:55Z</time>
      </trkpt>
      <trkpt lat="44.06093" lon="3.18068">
        <ele>794</ele>
        <time>2019-05-31T10:11:56Z</time>
      </trkpt>
      <trkpt lat="44.06096" lon="3.1807">
        <ele>793.8</ele>
        <time>2019-05-31T10:11:57Z</time>
      </trkpt>
      <trkpt lat="44.06099" lon="3.18072">
        <ele>793.7</ele>
        <time>2019-05-31T10:11:58Z</time>
      </trkpt>
      <trkpt lat="44.06102" lon="3.18071">
        <ele>793.6</ele>
        <time>2019-05-31T10:11:59Z</time>
      </trkpt>
      <trkpt lat="44.06105" lon="3.18069">
        <ele>793.5</ele>
        <time>2019-05-31T10:12:00Z</time>
      </trkpt>
      <trkpt lat="44.06107" lon="3.18066">
        <ele>793.3</ele>
        <time>2019-05-31T10:12:01Z</time>
      </trkpt>
      <trkpt lat="44.06109" lon="3.18063">
        <ele>793.2</ele>
        <time>2019-05-31T10:12:02Z</time>
      </trkpt>
      <trkpt lat="44.06111" lon="3.1806">
        <ele>793.1</ele>
        <time>2019-05-31T10:12:03Z</time>
      </trkpt>
      <trkpt lat="44.06113" lon="3.18057">
        <ele>793</ele>
        <time>2019-05-31T10:12:04Z</time>
      </trkpt>
      <trkpt lat="44.06118" lon="3.18057">
        <ele>792.7</ele>
        <time>2019-05-31T10:12:06Z</time>
      </trkpt>
      <trkpt lat="44.06122" lon="3.18063">
        <ele>792.5</ele>
        <time>2019-05-31T10:12:08Z</time>
      </trkpt>
      <trkpt lat="44.06123" lon="3.18067">
        <ele>792.4</ele>
        <time>2019-05-31T10:12:09Z</time>
      </trkpt>
      <trkpt lat="44.06124" lon="3.18072">
        <ele>792.3</ele>
        <time>2019-05-31T10:12:10Z</time>
      </trkpt>
      <trkpt lat="44.06125" lon="3.18076">
        <ele>792.2</ele>
        <time>2019-05-31T10:12:11Z</time>
      </trkpt>
      <trkpt lat="44.06127" lon="3.18082">
        <ele>792</ele>
        <time>2019-05-31T10:12:13Z</time>
      </trkpt>
      <trkpt lat="44.06132" lon="3.18085">
        <ele>791.8</ele>
        <time>2019-05-31T10:12:15Z</time>
      </trkpt>
      <trkpt lat="44.06136" lon="3.18084">
        <ele>790.9</ele>
        <time>2019-05-31T10:12:16Z</time>
      </trkpt>
      <trkpt lat="44.06139" lon="3.18082">
        <ele>791</ele>
        <time>2019-05-31T10:12:17Z</time>
      </trkpt>
      <trkpt lat="44.06143" lon="3.18081">
        <ele>791.1</ele>
        <time>2019-05-31T10:12:18Z</time>
      </trkpt>
      <trkpt lat="44.06147" lon="3.1808">
        <ele>791.2</ele>
        <time>2019-05-31T10:12:19Z</time>
      </trkpt>
      <trkpt lat="44.0615" lon="3.1808">
        <ele>791.3</ele>
        <time>2019-05-31T10:12:20Z</time>
      </trkpt>
      <trkpt lat="44.06154" lon="3.1808">
        <ele>791.4</ele>
        <time>2019-05-31T10:12:21Z</time>
      </trkpt>
      <trkpt lat="44.06157" lon="3.1808">
        <ele>791.5</ele>
        <time>2019-05-31T10:12:22Z</time>
      </trkpt>
      <trkpt lat="44.0616" lon="3.1808">
        <ele>791.7</ele>
        <time>2019-05-31T10:12:23Z</time>
      </trkpt>
      <trkpt lat="44.06164" lon="3.18079">
        <ele>791.8</ele>
        <time>2019-05-31T10:12:24Z</time>
      </trkpt>
      <trkpt lat="44.06167" lon="3.18077">
        <ele>792</ele>
        <time>2019-05-31T10:12:25Z</time>
      </trkpt>
      <trkpt lat="44.06171" lon="3.18074">
        <ele>792.1</ele>
        <time>2019-05-31T10:12:26Z</time>
      </trkpt>
      <trkpt lat="44.06175" lon="3.18071">
        <ele>792.3</ele>
        <time>2019-05-31T10:12:27Z</time>
      </trkpt>
      <trkpt lat="44.06179" lon="3.18069">
        <ele>792.5</ele>
        <time>2019-05-31T10:12:28Z</time>
      </trkpt>
      <trkpt lat="44.06182" lon="3.18067">
        <ele>792.6</ele>
        <time>2019-05-31T10:12:29Z</time>
      </trkpt>
      <trkpt lat="44.06186" lon="3.18065">
        <ele>792.7</ele>
        <time>2019-05-31T10:12:30Z</time>
      </trkpt>
      <trkpt lat="44.0619" lon="3.18064">
        <ele>792.8</ele>
        <time>2019-05-31T10:12:31Z</time>
      </trkpt>
      <trkpt lat="44.06193" lon="3.18063">
        <ele>792.9</ele>
        <time>2019-05-31T10:12:32Z</time>
      </trkpt>
      <trkpt lat="44.06196" lon="3.18062">
        <ele>793.1</ele>
        <time>2019-05-31T10:12:33Z</time>
      </trkpt>
      <trkpt lat="44.062" lon="3.18062">
        <ele>793.1</ele>
        <time>2019-05-31T10:12:34Z</time>
      </trkpt>
      <trkpt lat="44.06203" lon="3.18061">
        <ele>793.2</ele>
        <time>2019-05-31T10:12:35Z</time>
      </trkpt>
      <trkpt lat="44.06206" lon="3.18059">
        <ele>793.3</ele>
        <time>2019-05-31T10:12:36Z</time>
      </trkpt>
      <trkpt lat="44.06209" lon="3.18058">
        <ele>793.4</ele>
        <time>2019-05-31T10:12:37Z</time>
      </trkpt>
      <trkpt lat="44.06213" lon="3.18053">
        <ele>793.5</ele>
        <time>2019-05-31T10:12:39Z</time>
      </trkpt>
      <trkpt lat="44.06217" lon="3.18049">
        <ele>793.7</ele>
        <time>2019-05-31T10:12:41Z</time>
      </trkpt>
      <trkpt lat="44.0622" lon="3.18048">
        <ele>793.8</ele>
        <time>2019-05-31T10:12:42Z</time>
      </trkpt>
      <trkpt lat="44.06223" lon="3.18046">
        <ele>793.9</ele>
        <time>2019-05-31T10:12:43Z</time>
      </trkpt>
      <trkpt lat="44.06226" lon="3.18045">
        <ele>794</ele>
        <time>2019-05-31T10:12:44Z</time>
      </trkpt>
      <trkpt lat="44.06229" lon="3.18043">
        <ele>794</ele>
        <time>2019-05-31T10:12:45Z</time>
      </trkpt>
      <trkpt lat="44.06232" lon="3.18041">
        <ele>794.1</ele>
        <time>2019-05-31T10:12:46Z</time>
      </trkpt>
      <trkpt lat="44.06234" lon="3.18038">
        <ele>794.2</ele>
        <time>2019-05-31T10:12:47Z</time>
      </trkpt>
      <trkpt lat="44.06237" lon="3.18037">
        <ele>794.4</ele>
        <time>2019-05-31T10:12:48Z</time>
      </trkpt>
      <trkpt lat="44.06241" lon="3.18035">
        <ele>794.5</ele>
        <time>2019-05-31T10:12:49Z</time>
      </trkpt>
      <trkpt lat="44.06244" lon="3.18033">
        <ele>794.6</ele>
        <time>2019-05-31T10:12:50Z</time>
      </trkpt>
      <trkpt lat="44.06247" lon="3.1803">
        <ele>794.8</ele>
        <time>2019-05-31T10:12:51Z</time>
      </trkpt>
      <trkpt lat="44.0625" lon="3.18028">
        <ele>794.9</ele>
        <time>2019-05-31T10:12:52Z</time>
      </trkpt>
      <trkpt lat="44.06252" lon="3.18025">
        <ele>794.9</ele>
        <time>2019-05-31T10:12:53Z</time>
      </trkpt>
      <trkpt lat="44.06257" lon="3.18021">
        <ele>795.2</ele>
        <time>2019-05-31T10:12:55Z</time>
      </trkpt>
      <trkpt lat="44.0626" lon="3.18018">
        <ele>795.4</ele>
        <time>2019-05-31T10:12:56Z</time>
      </trkpt>
      <trkpt lat="44.06263" lon="3.18016">
        <ele>795.5</ele>
        <time>2019-05-31T10:12:57Z</time>
      </trkpt>
      <trkpt lat="44.06265" lon="3.18013">
        <ele>795.6</ele>
        <time>2019-05-31T10:12:58Z</time>
      </trkpt>
      <trkpt lat="44.06267" lon="3.18011">
        <ele>795.7</ele>
        <time>2019-05-31T10:12:59Z</time>
      </trkpt>
      <trkpt lat="44.0627" lon="3.18008">
        <ele>795.9</ele>
        <time>2019-05-31T10:13:00Z</time>
      </trkpt>
      <trkpt lat="44.06272" lon="3.18005">
        <ele>796.1</ele>
        <time>2019-05-31T10:13:01Z</time>
      </trkpt>
      <trkpt lat="44.06276" lon="3.17999">
        <ele>796.2</ele>
        <time>2019-05-31T10:13:03Z</time>
      </trkpt>
      <trkpt lat="44.06279" lon="3.17996">
        <ele>796.3</ele>
        <time>2019-05-31T10:13:04Z</time>
      </trkpt>
      <trkpt lat="44.06282" lon="3.17993">
        <ele>796.4</ele>
        <time>2019-05-31T10:13:05Z</time>
      </trkpt>
      <trkpt lat="44.06285" lon="3.1799">
        <ele>796.5</ele>
        <time>2019-05-31T10:13:06Z</time>
      </trkpt>
      <trkpt lat="44.06288" lon="3.17987">
        <ele>796.6</ele>
        <time>2019-05-31T10:13:07Z</time>
      </trkpt>
      <trkpt lat="44.06291" lon="3.17984">
        <ele>796.7</ele>
        <time>2019-05-31T10:13:08Z</time>
      </trkpt>
      <trkpt lat="44.06294" lon="3.17982">
        <ele>796.8</ele>
        <time>2019-05-31T10:13:09Z</time>
      </trkpt>
      <trkpt lat="44.06298" lon="3.1798">
        <ele>796.9</ele>
        <time>2019-05-31T10:13:10Z</time>
      </trkpt>
      <trkpt lat="44.06301" lon="3.17978">
        <ele>797</ele>
        <time>2019-05-31T10:13:11Z</time>
      </trkpt>
      <trkpt lat="44.06304" lon="3.17976">
        <ele>797.1</ele>
        <time>2019-05-31T10:13:12Z</time>
      </trkpt>
      <trkpt lat="44.06307" lon="3.17975">
        <ele>797.2</ele>
        <time>2019-05-31T10:13:13Z</time>
      </trkpt>
      <trkpt lat="44.0631" lon="3.17972">
        <ele>797.3</ele>
        <time>2019-05-31T10:13:14Z</time>
      </trkpt>
      <trkpt lat="44.06314" lon="3.1797">
        <ele>797.4</ele>
        <time>2019-05-31T10:13:15Z</time>
      </trkpt>
      <trkpt lat="44.06317" lon="3.17969">
        <ele>797.5</ele>
        <time>2019-05-31T10:13:16Z</time>
      </trkpt>
      <trkpt lat="44.06321" lon="3.17966">
        <ele>797.8</ele>
        <time>2019-05-31T10:13:18Z</time>
      </trkpt>
      <trkpt lat="44.06325" lon="3.17964">
        <ele>797.9</ele>
        <time>2019-05-31T10:13:19Z</time>
      </trkpt>
      <trkpt lat="44.06328" lon="3.17963">
        <ele>798.1</ele>
        <time>2019-05-31T10:13:20Z</time>
      </trkpt>
      <trkpt lat="44.06331" lon="3.17961">
        <ele>798.3</ele>
        <time>2019-05-31T10:13:21Z</time>
      </trkpt>
      <trkpt lat="44.06334" lon="3.1796">
        <ele>798.4</ele>
        <time>2019-05-31T10:13:22Z</time>
      </trkpt>
      <trkpt lat="44.06338" lon="3.17959">
        <ele>798.6</ele>
        <time>2019-05-31T10:13:23Z</time>
      </trkpt>
      <trkpt lat="44.06342" lon="3.17958">
        <ele>798.8</ele>
        <time>2019-05-31T10:13:24Z</time>
      </trkpt>
      <trkpt lat="44.06345" lon="3.17957">
        <ele>798.9</ele>
        <time>2019-05-31T10:13:25Z</time>
      </trkpt>
      <trkpt lat="44.06348" lon="3.17956">
        <ele>798.9</ele>
        <time>2019-05-31T10:13:26Z</time>
      </trkpt>
      <trkpt lat="44.06354" lon="3.17955">
        <ele>799.1</ele>
        <time>2019-05-31T10:13:28Z</time>
      </trkpt>
      <trkpt lat="44.06358" lon="3.17954">
        <ele>799.3</ele>
        <time>2019-05-31T10:13:29Z</time>
      </trkpt>
      <trkpt lat="44.06361" lon="3.17954">
        <ele>799.4</ele>
        <time>2019-05-31T10:13:30Z</time>
      </trkpt>
      <trkpt lat="44.06364" lon="3.17953">
        <ele>799.5</ele>
        <time>2019-05-31T10:13:31Z</time>
      </trkpt>
      <trkpt lat="44.06367" lon="3.17952">
        <ele>799.6</ele>
        <time>2019-05-31T10:13:32Z</time>
      </trkpt>
      <trkpt lat="44.06371" lon="3.17952">
        <ele>799.7</ele>
        <time>2019-05-31T10:13:33Z</time>
      </trkpt>
      <trkpt lat="44.06375" lon="3.17951">
        <ele>799.8</ele>
        <time>2019-05-31T10:13:34Z</time>
      </trkpt>
      <trkpt lat="44.06378" lon="3.17949">
        <ele>799.9</ele>
        <time>2019-05-31T10:13:35Z</time>
      </trkpt>
      <trkpt lat="44.06382" lon="3.17947">
        <ele>800</ele>
        <time>2019-05-31T10:13:36Z</time>
      </trkpt>
      <trkpt lat="44.06386" lon="3.17946">
        <ele>800.1</ele>
        <time>2019-05-31T10:13:37Z</time>
      </trkpt>
      <trkpt lat="44.06389" lon="3.17944">
        <ele>800.3</ele>
        <time>2019-05-31T10:13:38Z</time>
      </trkpt>
      <trkpt lat="44.06393" lon="3.17943">
        <ele>800.4</ele>
        <time>2019-05-31T10:13:39Z</time>
      </trkpt>
      <trkpt lat="44.06396" lon="3.17941">
        <ele>800.5</ele>
        <time>2019-05-31T10:13:40Z</time>
      </trkpt>
      <trkpt lat="44.06399" lon="3.1794">
        <ele>800.6</ele>
        <time>2019-05-31T10:13:41Z</time>
      </trkpt>
      <trkpt lat="44.06403" lon="3.17938">
        <ele>800.8</ele>
        <time>2019-05-31T10:13:42Z</time>
      </trkpt>
      <trkpt lat="44.06406" lon="3.17937">
        <ele>801</ele>
        <time>2019-05-31T10:13:43Z</time>
      </trkpt>
      <trkpt lat="44.06409" lon="3.17935">
        <ele>801.1</ele>
        <time>2019-05-31T10:13:44Z</time>
      </trkpt>
      <trkpt lat="44.06413" lon="3.17934">
        <ele>801.3</ele>
        <time>2019-05-31T10:13:45Z</time>
      </trkpt>
      <trkpt lat="44.06416" lon="3.17932">
        <ele>801.4</ele>
        <time>2019-05-31T10:13:46Z</time>
      </trkpt>
      <trkpt lat="44.0642" lon="3.17931">
        <ele>801.5</ele>
        <time>2019-05-31T10:13:47Z</time>
      </trkpt>
      <trkpt lat="44.06423" lon="3.17929">
        <ele>801.6</ele>
        <time>2019-05-31T10:13:48Z</time>
      </trkpt>
      <trkpt lat="44.06426" lon="3.17927">
        <ele>801.7</ele>
        <time>2019-05-31T10:13:49Z</time>
      </trkpt>
      <trkpt lat="44.0643" lon="3.17925">
        <ele>801.8</ele>
        <time>2019-05-31T10:13:50Z</time>
      </trkpt>
      <trkpt lat="44.06433" lon="3.17923">
        <ele>801.8</ele>
        <time>2019-05-31T10:13:51Z</time>
      </trkpt>
      <trkpt lat="44.06436" lon="3.17922">
        <ele>801.8</ele>
        <time>2019-05-31T10:13:52Z</time>
      </trkpt>
      <trkpt lat="44.06438" lon="3.1792">
        <ele>801.8</ele>
        <time>2019-05-31T10:13:53Z</time>
      </trkpt>
      <trkpt lat="44.06442" lon="3.17918">
        <ele>801.8</ele>
        <time>2019-05-31T10:13:54Z</time>
      </trkpt>
      <trkpt lat="44.06445" lon="3.17917">
        <ele>801.8</ele>
        <time>2019-05-31T10:13:55Z</time>
      </trkpt>
      <trkpt lat="44.06449" lon="3.17915">
        <ele>801.7</ele>
        <time>2019-05-31T10:13:56Z</time>
      </trkpt>
      <trkpt lat="44.06453" lon="3.17913">
        <ele>801.6</ele>
        <time>2019-05-31T10:13:57Z</time>
      </trkpt>
      <trkpt lat="44.06456" lon="3.1791">
        <ele>801.5</ele>
        <time>2019-05-31T10:13:58Z</time>
      </trkpt>
      <trkpt lat="44.0646" lon="3.17908">
        <ele>801.4</ele>
        <time>2019-05-31T10:13:59Z</time>
      </trkpt>
      <trkpt lat="44.06464" lon="3.17906">
        <ele>801.3</ele>
        <time>2019-05-31T10:14:00Z</time>
      </trkpt>
      <trkpt lat="44.06469" lon="3.17906">
        <ele>801</ele>
        <time>2019-05-31T10:14:01Z</time>
      </trkpt>
      <trkpt lat="44.06474" lon="3.17906">
        <ele>800.9</ele>
        <time>2019-05-31T10:14:02Z</time>
      </trkpt>
      <trkpt lat="44.0648" lon="3.17904">
        <ele>800.7</ele>
        <time>2019-05-31T10:14:03Z</time>
      </trkpt>
      <trkpt lat="44.06484" lon="3.17901">
        <ele>800.5</ele>
        <time>2019-05-31T10:14:04Z</time>
      </trkpt>
      <trkpt lat="44.06489" lon="3.17902">
        <ele>800.4</ele>
        <time>2019-05-31T10:14:05Z</time>
      </trkpt>
      <trkpt lat="44.06494" lon="3.17901">
        <ele>800.2</ele>
        <time>2019-05-31T10:14:06Z</time>
      </trkpt>
      <trkpt lat="44.06501" lon="3.179">
        <ele>799.9</ele>
        <time>2019-05-31T10:14:07Z</time>
      </trkpt>
      <trkpt lat="44.06507" lon="3.179">
        <ele>799.7</ele>
        <time>2019-05-31T10:14:08Z</time>
      </trkpt>
      <trkpt lat="44.06515" lon="3.17898">
        <ele>799.4</ele>
        <time>2019-05-31T10:14:09Z</time>
      </trkpt>
      <trkpt lat="44.06521" lon="3.17897">
        <ele>799</ele>
        <time>2019-05-31T10:14:10Z</time>
      </trkpt>
      <trkpt lat="44.06529" lon="3.17893">
        <ele>798.4</ele>
        <time>2019-05-31T10:14:11Z</time>
      </trkpt>
      <trkpt lat="44.06536" lon="3.17891">
        <ele>797.9</ele>
        <time>2019-05-31T10:14:12Z</time>
      </trkpt>
      <trkpt lat="44.06543" lon="3.17889">
        <ele>797.3</ele>
        <time>2019-05-31T10:14:13Z</time>
      </trkpt>
      <trkpt lat="44.06551" lon="3.17886">
        <ele>796.5</ele>
        <time>2019-05-31T10:14:14Z</time>
      </trkpt>
      <trkpt lat="44.06558" lon="3.17884">
        <ele>795.8</ele>
        <time>2019-05-31T10:14:15Z</time>
      </trkpt>
      <trkpt lat="44.06567" lon="3.17882">
        <ele>795.1</ele>
        <time>2019-05-31T10:14:16Z</time>
      </trkpt>
      <trkpt lat="44.06575" lon="3.1788">
        <ele>794.7</ele>
        <time>2019-05-31T10:14:17Z</time>
      </trkpt>
      <trkpt lat="44.06583" lon="3.17878">
        <ele>794.1</ele>
        <time>2019-05-31T10:14:18Z</time>
      </trkpt>
      <trkpt lat="44.06591" lon="3.17874">
        <ele>793.8</ele>
        <time>2019-05-31T10:14:19Z</time>
      </trkpt>
      <trkpt lat="44.06599" lon="3.1787">
        <ele>793.3</ele>
        <time>2019-05-31T10:14:20Z</time>
      </trkpt>
      <trkpt lat="44.06606" lon="3.17865">
        <ele>793</ele>
        <time>2019-05-31T10:14:21Z</time>
      </trkpt>
      <trkpt lat="44.06615" lon="3.17859">
        <ele>792.6</ele>
        <time>2019-05-31T10:14:22Z</time>
      </trkpt>
      <trkpt lat="44.06623" lon="3.17854">
        <ele>792.4</ele>
        <time>2019-05-31T10:14:23Z</time>
      </trkpt>
      <trkpt lat="44.06631" lon="3.1785">
        <ele>791.9</ele>
        <time>2019-05-31T10:14:24Z</time>
      </trkpt>
      <trkpt lat="44.0664" lon="3.17846">
        <ele>791.6</ele>
        <time>2019-05-31T10:14:25Z</time>
      </trkpt>
      <trkpt lat="44.06648" lon="3.17842">
        <ele>791.4</ele>
        <time>2019-05-31T10:14:26Z</time>
      </trkpt>
      <trkpt lat="44.06657" lon="3.17839">
        <ele>791.2</ele>
        <time>2019-05-31T10:14:27Z</time>
      </trkpt>
      <trkpt lat="44.06666" lon="3.17837">
        <ele>790.9</ele>
        <time>2019-05-31T10:14:28Z</time>
      </trkpt>
      <trkpt lat="44.06675" lon="3.17835">
        <ele>790.8</ele>
        <time>2019-05-31T10:14:29Z</time>
      </trkpt>
      <trkpt lat="44.06683" lon="3.17834">
        <ele>790.6</ele>
        <time>2019-05-31T10:14:30Z</time>
      </trkpt>
      <trkpt lat="44.06691" lon="3.17834">
        <ele>790.4</ele>
        <time>2019-05-31T10:14:31Z</time>
      </trkpt>
      <trkpt lat="44.06699" lon="3.17832">
        <ele>790.2</ele>
        <time>2019-05-31T10:14:32Z</time>
      </trkpt>
      <trkpt lat="44.06706" lon="3.17831">
        <ele>790.1</ele>
        <time>2019-05-31T10:14:33Z</time>
      </trkpt>
      <trkpt lat="44.06714" lon="3.1783">
        <ele>789.9</ele>
        <time>2019-05-31T10:14:34Z</time>
      </trkpt>
      <trkpt lat="44.06721" lon="3.17829">
        <ele>789.7</ele>
        <time>2019-05-31T10:14:35Z</time>
      </trkpt>
      <trkpt lat="44.06728" lon="3.17827">
        <ele>789.6</ele>
        <time>2019-05-31T10:14:36Z</time>
      </trkpt>
      <trkpt lat="44.06734" lon="3.17826">
        <ele>789.5</ele>
        <time>2019-05-31T10:14:37Z</time>
      </trkpt>
      <trkpt lat="44.0674" lon="3.17825">
        <ele>789.4</ele>
        <time>2019-05-31T10:14:38Z</time>
      </trkpt>
      <trkpt lat="44.06747" lon="3.17824">
        <ele>789.2</ele>
        <time>2019-05-31T10:14:39Z</time>
      </trkpt>
      <trkpt lat="44.06754" lon="3.17822">
        <ele>789</ele>
        <time>2019-05-31T10:14:40Z</time>
      </trkpt>
      <trkpt lat="44.0676" lon="3.17822">
        <ele>788.9</ele>
        <time>2019-05-31T10:14:41Z</time>
      </trkpt>
      <trkpt lat="44.06767" lon="3.17821">
        <ele>788.8</ele>
        <time>2019-05-31T10:14:42Z</time>
      </trkpt>
      <trkpt lat="44.06775" lon="3.17817">
        <ele>788.5</ele>
        <time>2019-05-31T10:14:43Z</time>
      </trkpt>
      <trkpt lat="44.06782" lon="3.17814">
        <ele>788.4</ele>
        <time>2019-05-31T10:14:44Z</time>
      </trkpt>
      <trkpt lat="44.06788" lon="3.17815">
        <ele>788.3</ele>
        <time>2019-05-31T10:14:45Z</time>
      </trkpt>
      <trkpt lat="44.06795" lon="3.17816">
        <ele>788.2</ele>
        <time>2019-05-31T10:14:46Z</time>
      </trkpt>
      <trkpt lat="44.06803" lon="3.17816">
        <ele>788.1</ele>
        <time>2019-05-31T10:14:47Z</time>
      </trkpt>
      <trkpt lat="44.06812" lon="3.1781">
        <ele>788.1</ele>
        <time>2019-05-31T10:14:48Z</time>
      </trkpt>
      <trkpt lat="44.06818" lon="3.17809">
        <ele>788.1</ele>
        <time>2019-05-31T10:14:49Z</time>
      </trkpt>
      <trkpt lat="44.06825" lon="3.17809">
        <ele>788.1</ele>
        <time>2019-05-31T10:14:50Z</time>
      </trkpt>
      <trkpt lat="44.06832" lon="3.17808">
        <ele>788.2</ele>
        <time>2019-05-31T10:14:51Z</time>
      </trkpt>
      <trkpt lat="44.06838" lon="3.17808">
        <ele>788.3</ele>
        <time>2019-05-31T10:14:52Z</time>
      </trkpt>
      <trkpt lat="44.06844" lon="3.17807">
        <ele>788.5</ele>
        <time>2019-05-31T10:14:53Z</time>
      </trkpt>
      <trkpt lat="44.0685" lon="3.17806">
        <ele>788.7</ele>
        <time>2019-05-31T10:14:54Z</time>
      </trkpt>
      <trkpt lat="44.06855" lon="3.17806">
        <ele>788.9</ele>
        <time>2019-05-31T10:14:55Z</time>
      </trkpt>
      <trkpt lat="44.06861" lon="3.17807">
        <ele>789.1</ele>
        <time>2019-05-31T10:14:56Z</time>
      </trkpt>
      <trkpt lat="44.06867" lon="3.17807">
        <ele>789.3</ele>
        <time>2019-05-31T10:14:57Z</time>
      </trkpt>
      <trkpt lat="44.06872" lon="3.17804">
        <ele>789.5</ele>
        <time>2019-05-31T10:14:58Z</time>
      </trkpt>
      <trkpt lat="44.06877" lon="3.17805">
        <ele>789.7</ele>
        <time>2019-05-31T10:14:59Z</time>
      </trkpt>
      <trkpt lat="44.06883" lon="3.17807">
        <ele>789.8</ele>
        <time>2019-05-31T10:15:00Z</time>
      </trkpt>
      <trkpt lat="44.06888" lon="3.17808">
        <ele>790</ele>
        <time>2019-05-31T10:15:01Z</time>
      </trkpt>
      <trkpt lat="44.06892" lon="3.17809">
        <ele>790.1</ele>
        <time>2019-05-31T10:15:02Z</time>
      </trkpt>
      <trkpt lat="44.06896" lon="3.17809">
        <ele>790.4</ele>
        <time>2019-05-31T10:15:03Z</time>
      </trkpt>
      <trkpt lat="44.06902" lon="3.1781">
        <ele>790.6</ele>
        <time>2019-05-31T10:15:04Z</time>
      </trkpt>
      <trkpt lat="44.06908" lon="3.17811">
        <ele>790.8</ele>
        <time>2019-05-31T10:15:05Z</time>
      </trkpt>
      <trkpt lat="44.06912" lon="3.17812">
        <ele>790.9</ele>
        <time>2019-05-31T10:15:06Z</time>
      </trkpt>
      <trkpt lat="44.06917" lon="3.17815">
        <ele>791.1</ele>
        <time>2019-05-31T10:15:07Z</time>
      </trkpt>
      <trkpt lat="44.06922" lon="3.17816">
        <ele>791.1</ele>
        <time>2019-05-31T10:15:08Z</time>
      </trkpt>
      <trkpt lat="44.06927" lon="3.17817">
        <ele>791.2</ele>
        <time>2019-05-31T10:15:09Z</time>
      </trkpt>
      <trkpt lat="44.06932" lon="3.17818">
        <ele>791.3</ele>
        <time>2019-05-31T10:15:10Z</time>
      </trkpt>
      <trkpt lat="44.06937" lon="3.17819">
        <ele>791.4</ele>
        <time>2019-05-31T10:15:11Z</time>
      </trkpt>
      <trkpt lat="44.06941" lon="3.17819">
        <ele>791.4</ele>
        <time>2019-05-31T10:15:12Z</time>
      </trkpt>
      <trkpt lat="44.06946" lon="3.1782">
        <ele>791.4</ele>
        <time>2019-05-31T10:15:13Z</time>
      </trkpt>
      <trkpt lat="44.06951" lon="3.1782">
        <ele>791.4</ele>
        <time>2019-05-31T10:15:14Z</time>
      </trkpt>
      <trkpt lat="44.06956" lon="3.17821">
        <ele>791.3</ele>
        <time>2019-05-31T10:15:15Z</time>
      </trkpt>
      <trkpt lat="44.0696" lon="3.17821">
        <ele>791.3</ele>
        <time>2019-05-31T10:15:16Z</time>
      </trkpt>
      <trkpt lat="44.06964" lon="3.17822">
        <ele>791.2</ele>
        <time>2019-05-31T10:15:17Z</time>
      </trkpt>
      <trkpt lat="44.06969" lon="3.1782">
        <ele>791.1</ele>
        <time>2019-05-31T10:15:18Z</time>
      </trkpt>
      <trkpt lat="44.06973" lon="3.17819">
        <ele>791.1</ele>
        <time>2019-05-31T10:15:19Z</time>
      </trkpt>
      <trkpt lat="44.06977" lon="3.17819">
        <ele>791</ele>
        <time>2019-05-31T10:15:20Z</time>
      </trkpt>
      <trkpt lat="44.06982" lon="3.17818">
        <ele>791</ele>
        <time>2019-05-31T10:15:21Z</time>
      </trkpt>
      <trkpt lat="44.06986" lon="3.17819">
        <ele>791</ele>
        <time>2019-05-31T10:15:22Z</time>
      </trkpt>
      <trkpt lat="44.06991" lon="3.1782">
        <ele>791.1</ele>
        <time>2019-05-31T10:15:23Z</time>
      </trkpt>
      <trkpt lat="44.06998" lon="3.1782">
        <ele>791.4</ele>
        <time>2019-05-31T10:15:24Z</time>
      </trkpt>
      <trkpt lat="44.07004" lon="3.17823">
        <ele>791.7</ele>
        <time>2019-05-31T10:15:25Z</time>
      </trkpt>
      <trkpt lat="44.07008" lon="3.17828">
        <ele>792</ele>
        <time>2019-05-31T10:15:26Z</time>
      </trkpt>
      <trkpt lat="44.07013" lon="3.17834">
        <ele>792.4</ele>
        <time>2019-05-31T10:15:27Z</time>
      </trkpt>
      <trkpt lat="44.07017" lon="3.17841">
        <ele>792.8</ele>
        <time>2019-05-31T10:15:28Z</time>
      </trkpt>
      <trkpt lat="44.0702" lon="3.17849">
        <ele>793.3</ele>
        <time>2019-05-31T10:15:29Z</time>
      </trkpt>
      <trkpt lat="44.07025" lon="3.17856">
        <ele>793.8</ele>
        <time>2019-05-31T10:15:30Z</time>
      </trkpt>
      <trkpt lat="44.07031" lon="3.17861">
        <ele>794.2</ele>
        <time>2019-05-31T10:15:31Z</time>
      </trkpt>
      <trkpt lat="44.07037" lon="3.17862">
        <ele>794</ele>
        <time>2019-05-31T10:15:32Z</time>
      </trkpt>
      <trkpt lat="44.07044" lon="3.17859">
        <ele>793.9</ele>
        <time>2019-05-31T10:15:33Z</time>
      </trkpt>
      <trkpt lat="44.0705" lon="3.17855">
        <ele>793.6</ele>
        <time>2019-05-31T10:15:34Z</time>
      </trkpt>
      <trkpt lat="44.07055" lon="3.1785">
        <ele>793.2</ele>
        <time>2019-05-31T10:15:35Z</time>
      </trkpt>
      <trkpt lat="44.0706" lon="3.17845">
        <ele>792.9</ele>
        <time>2019-05-31T10:15:36Z</time>
      </trkpt>
      <trkpt lat="44.07066" lon="3.1784">
        <ele>792.8</ele>
        <time>2019-05-31T10:15:37Z</time>
      </trkpt>
      <trkpt lat="44.07071" lon="3.17836">
        <ele>792.5</ele>
        <time>2019-05-31T10:15:38Z</time>
      </trkpt>
      <trkpt lat="44.07074" lon="3.17831">
        <ele>792.3</ele>
        <time>2019-05-31T10:15:39Z</time>
      </trkpt>
      <trkpt lat="44.0708" lon="3.17828">
        <ele>792</ele>
        <time>2019-05-31T10:15:40Z</time>
      </trkpt>
      <trkpt lat="44.07085" lon="3.17822">
        <ele>791.8</ele>
        <time>2019-05-31T10:15:41Z</time>
      </trkpt>
      <trkpt lat="44.07089" lon="3.17818">
        <ele>791.8</ele>
        <time>2019-05-31T10:15:42Z</time>
      </trkpt>
      <trkpt lat="44.07093" lon="3.17812">
        <ele>791.6</ele>
        <time>2019-05-31T10:15:43Z</time>
      </trkpt>
      <trkpt lat="44.07095" lon="3.17804">
        <ele>791.4</ele>
        <time>2019-05-31T10:15:44Z</time>
      </trkpt>
      <trkpt lat="44.071" lon="3.17796">
        <ele>791.1</ele>
        <time>2019-05-31T10:15:45Z</time>
      </trkpt>
      <trkpt lat="44.07102" lon="3.17791">
        <ele>791</ele>
        <time>2019-05-31T10:15:46Z</time>
      </trkpt>
      <trkpt lat="44.07105" lon="3.17786">
        <ele>790.8</ele>
        <time>2019-05-31T10:15:47Z</time>
      </trkpt>
      <trkpt lat="44.07107" lon="3.17781">
        <ele>790.7</ele>
        <time>2019-05-31T10:15:48Z</time>
      </trkpt>
      <trkpt lat="44.07108" lon="3.17777">
        <ele>790.6</ele>
        <time>2019-05-31T10:15:49Z</time>
      </trkpt>
      <trkpt lat="44.0711" lon="3.17772">
        <ele>790.5</ele>
        <time>2019-05-31T10:15:50Z</time>
      </trkpt>
      <trkpt lat="44.07114" lon="3.17766">
        <ele>790.3</ele>
        <time>2019-05-31T10:15:51Z</time>
      </trkpt>
      <trkpt lat="44.07117" lon="3.17761">
        <ele>790.2</ele>
        <time>2019-05-31T10:15:52Z</time>
      </trkpt>
      <trkpt lat="44.07121" lon="3.17759">
        <ele>790.3</ele>
        <time>2019-05-31T10:15:54Z</time>
      </trkpt>
      <trkpt lat="44.07125" lon="3.17758">
        <ele>790.5</ele>
        <time>2019-05-31T10:15:56Z</time>
      </trkpt>
      <trkpt lat="44.07127" lon="3.17753">
        <ele>790.5</ele>
        <time>2019-05-31T10:15:58Z</time>
      </trkpt>
      <trkpt lat="44.07127" lon="3.17746">
        <ele>790.6</ele>
        <time>2019-05-31T10:16:00Z</time>
      </trkpt>
      <trkpt lat="44.07127" lon="3.1774">
        <ele>790.6</ele>
        <time>2019-05-31T10:16:02Z</time>
      </trkpt>
      <trkpt lat="44.07127" lon="3.17733">
        <ele>790.6</ele>
        <time>2019-05-31T10:16:04Z</time>
      </trkpt>
      <trkpt lat="44.07128" lon="3.17729">
        <ele>790.6</ele>
        <time>2019-05-31T10:16:05Z</time>
      </trkpt>
      <trkpt lat="44.07129" lon="3.17725">
        <ele>790.6</ele>
        <time>2019-05-31T10:16:06Z</time>
      </trkpt>
      <trkpt lat="44.0713" lon="3.17719">
        <ele>790.7</ele>
        <time>2019-05-31T10:16:07Z</time>
      </trkpt>
      <trkpt lat="44.07132" lon="3.17714">
        <ele>790.7</ele>
        <time>2019-05-31T10:16:08Z</time>
      </trkpt>
      <trkpt lat="44.07133" lon="3.17706">
        <ele>790.7</ele>
        <time>2019-05-31T10:16:09Z</time>
      </trkpt>
      <trkpt lat="44.07133" lon="3.17702">
        <ele>790.7</ele>
        <time>2019-05-31T10:16:10Z</time>
      </trkpt>
      <trkpt lat="44.07135" lon="3.17695">
        <ele>790.7</ele>
        <time>2019-05-31T10:16:11Z</time>
      </trkpt>
      <trkpt lat="44.07136" lon="3.1769">
        <ele>790.7</ele>
        <time>2019-05-31T10:16:12Z</time>
      </trkpt>
      <trkpt lat="44.07137" lon="3.17685">
        <ele>790.7</ele>
        <time>2019-05-31T10:16:13Z</time>
      </trkpt>
      <trkpt lat="44.0714" lon="3.17678">
        <ele>790.8</ele>
        <time>2019-05-31T10:16:14Z</time>
      </trkpt>
      <trkpt lat="44.07142" lon="3.17671">
        <ele>790.8</ele>
        <time>2019-05-31T10:16:15Z</time>
      </trkpt>
      <trkpt lat="44.07144" lon="3.17666">
        <ele>790.8</ele>
        <time>2019-05-31T10:16:16Z</time>
      </trkpt>
      <trkpt lat="44.07147" lon="3.1766">
        <ele>790.8</ele>
        <time>2019-05-31T10:16:17Z</time>
      </trkpt>
      <trkpt lat="44.07149" lon="3.17653">
        <ele>790.8</ele>
        <time>2019-05-31T10:16:18Z</time>
      </trkpt>
      <trkpt lat="44.07151" lon="3.17647">
        <ele>790.8</ele>
        <time>2019-05-31T10:16:19Z</time>
      </trkpt>
      <trkpt lat="44.07151" lon="3.1764">
        <ele>790.8</ele>
        <time>2019-05-31T10:16:20Z</time>
      </trkpt>
      <trkpt lat="44.07152" lon="3.17634">
        <ele>790.8</ele>
        <time>2019-05-31T10:16:21Z</time>
      </trkpt>
      <trkpt lat="44.07154" lon="3.17628">
        <ele>790.8</ele>
        <time>2019-05-31T10:16:22Z</time>
      </trkpt>
      <trkpt lat="44.07154" lon="3.17621">
        <ele>790.8</ele>
        <time>2019-05-31T10:16:23Z</time>
      </trkpt>
      <trkpt lat="44.07155" lon="3.17615">
        <ele>790.8</ele>
        <time>2019-05-31T10:16:24Z</time>
      </trkpt>
      <trkpt lat="44.07156" lon="3.17608">
        <ele>790.8</ele>
        <time>2019-05-31T10:16:25Z</time>
      </trkpt>
      <trkpt lat="44.07159" lon="3.17603">
        <ele>790.8</ele>
        <time>2019-05-31T10:16:26Z</time>
      </trkpt>
      <trkpt lat="44.0716" lon="3.17594">
        <ele>790.8</ele>
        <time>2019-05-31T10:16:27Z</time>
      </trkpt>
      <trkpt lat="44.07162" lon="3.17588">
        <ele>790.8</ele>
        <time>2019-05-31T10:16:28Z</time>
      </trkpt>
      <trkpt lat="44.07164" lon="3.17581">
        <ele>790.8</ele>
        <time>2019-05-31T10:16:29Z</time>
      </trkpt>
      <trkpt lat="44.07167" lon="3.17575">
        <ele>790.8</ele>
        <time>2019-05-31T10:16:30Z</time>
      </trkpt>
      <trkpt lat="44.07171" lon="3.17568">
        <ele>790.8</ele>
        <time>2019-05-31T10:16:31Z</time>
      </trkpt>
      <trkpt lat="44.07174" lon="3.17562">
        <ele>790.8</ele>
        <time>2019-05-31T10:16:32Z</time>
      </trkpt>
      <trkpt lat="44.07178" lon="3.17558">
        <ele>790.8</ele>
        <time>2019-05-31T10:16:33Z</time>
      </trkpt>
      <trkpt lat="44.07181" lon="3.17554">
        <ele>790.8</ele>
        <time>2019-05-31T10:16:34Z</time>
      </trkpt>
      <trkpt lat="44.07181" lon="3.17546">
        <ele>790.8</ele>
        <time>2019-05-31T10:16:35Z</time>
      </trkpt>
      <trkpt lat="44.07182" lon="3.17538">
        <ele>790.7</ele>
        <time>2019-05-31T10:16:36Z</time>
      </trkpt>
      <trkpt lat="44.07183" lon="3.1753">
        <ele>790.7</ele>
        <time>2019-05-31T10:16:37Z</time>
      </trkpt>
      <trkpt lat="44.07185" lon="3.17516">
        <ele>790.7</ele>
        <time>2019-05-31T10:16:38Z</time>
      </trkpt>
      <trkpt lat="44.07187" lon="3.1751">
        <ele>790.7</ele>
        <time>2019-05-31T10:16:39Z</time>
      </trkpt>
      <trkpt lat="44.0719" lon="3.17504">
        <ele>790.7</ele>
        <time>2019-05-31T10:16:40Z</time>
      </trkpt>
      <trkpt lat="44.07193" lon="3.17497">
        <ele>790.7</ele>
        <time>2019-05-31T10:16:41Z</time>
      </trkpt>
      <trkpt lat="44.07199" lon="3.17491">
        <ele>790.7</ele>
        <time>2019-05-31T10:16:42Z</time>
      </trkpt>
      <trkpt lat="44.07199" lon="3.17484">
        <ele>790.7</ele>
        <time>2019-05-31T10:16:43Z</time>
      </trkpt>
      <trkpt lat="44.07201" lon="3.17478">
        <ele>790.7</ele>
        <time>2019-05-31T10:16:44Z</time>
      </trkpt>
      <trkpt lat="44.07201" lon="3.1747">
        <ele>790.7</ele>
        <time>2019-05-31T10:16:45Z</time>
      </trkpt>
      <trkpt lat="44.07203" lon="3.17465">
        <ele>790.7</ele>
        <time>2019-05-31T10:16:46Z</time>
      </trkpt>
      <trkpt lat="44.07204" lon="3.17457">
        <ele>790.7</ele>
        <time>2019-05-31T10:16:47Z</time>
      </trkpt>
      <trkpt lat="44.07207" lon="3.1745">
        <ele>790.7</ele>
        <time>2019-05-31T10:16:48Z</time>
      </trkpt>
      <trkpt lat="44.0721" lon="3.17446">
        <ele>790.7</ele>
        <time>2019-05-31T10:16:49Z</time>
      </trkpt>
      <trkpt lat="44.07212" lon="3.17438">
        <ele>790.7</ele>
        <time>2019-05-31T10:16:50Z</time>
      </trkpt>
      <trkpt lat="44.07214" lon="3.1743">
        <ele>790.8</ele>
        <time>2019-05-31T10:16:51Z</time>
      </trkpt>
      <trkpt lat="44.07215" lon="3.17424">
        <ele>790.8</ele>
        <time>2019-05-31T10:16:52Z</time>
      </trkpt>
      <trkpt lat="44.07217" lon="3.17418">
        <ele>790.8</ele>
        <time>2019-05-31T10:16:53Z</time>
      </trkpt>
      <trkpt lat="44.07218" lon="3.17412">
        <ele>790.8</ele>
        <time>2019-05-31T10:16:54Z</time>
      </trkpt>
      <trkpt lat="44.07219" lon="3.17407">
        <ele>790.8</ele>
        <time>2019-05-31T10:16:56Z</time>
      </trkpt>
      <trkpt lat="44.0722" lon="3.17403">
        <ele>790.9</ele>
        <time>2019-05-31T10:16:57Z</time>
      </trkpt>
      <trkpt lat="44.07221" lon="3.17399">
        <ele>790.9</ele>
        <time>2019-05-31T10:16:58Z</time>
      </trkpt>
      <trkpt lat="44.07221" lon="3.17395">
        <ele>790.9</ele>
        <time>2019-05-31T10:16:59Z</time>
      </trkpt>
      <trkpt lat="44.07221" lon="3.17388">
        <ele>790.9</ele>
        <time>2019-05-31T10:17:01Z</time>
      </trkpt>
      <trkpt lat="44.07223" lon="3.17378">
        <ele>791</ele>
        <time>2019-05-31T10:17:03Z</time>
      </trkpt>
      <trkpt lat="44.07224" lon="3.17375">
        <ele>791</ele>
        <time>2019-05-31T10:17:05Z</time>
      </trkpt>
      <trkpt lat="44.07225" lon="3.1737">
        <ele>791</ele>
        <time>2019-05-31T10:17:07Z</time>
      </trkpt>
      <trkpt lat="44.07226" lon="3.17363">
        <ele>791</ele>
        <time>2019-05-31T10:17:09Z</time>
      </trkpt>
      <trkpt lat="44.07226" lon="3.1736">
        <ele>791.1</ele>
        <time>2019-05-31T10:17:10Z</time>
      </trkpt>
      <trkpt lat="44.07227" lon="3.17356">
        <ele>791.1</ele>
        <time>2019-05-31T10:17:11Z</time>
      </trkpt>
      <trkpt lat="44.07228" lon="3.17352">
        <ele>791.1</ele>
        <time>2019-05-31T10:17:12Z</time>
      </trkpt>
      <trkpt lat="44.07228" lon="3.17348">
        <ele>791.1</ele>
        <time>2019-05-31T10:17:13Z</time>
      </trkpt>
      <trkpt lat="44.07228" lon="3.17342">
        <ele>791.2</ele>
        <time>2019-05-31T10:17:15Z</time>
      </trkpt>
      <trkpt lat="44.07228" lon="3.17337">
        <ele>791.2</ele>
        <time>2019-05-31T10:17:16Z</time>
      </trkpt>
      <trkpt lat="44.07229" lon="3.17333">
        <ele>791.2</ele>
        <time>2019-05-31T10:17:17Z</time>
      </trkpt>
      <trkpt lat="44.07229" lon="3.1733">
        <ele>791.2</ele>
        <time>2019-05-31T10:17:18Z</time>
      </trkpt>
      <trkpt lat="44.07229" lon="3.17323">
        <ele>791.2</ele>
        <time>2019-05-31T10:17:20Z</time>
      </trkpt>
      <trkpt lat="44.07231" lon="3.17317">
        <ele>791.3</ele>
        <time>2019-05-31T10:17:22Z</time>
      </trkpt>
      <trkpt lat="44.07234" lon="3.17319">
        <ele>791.3</ele>
        <time>2019-05-31T10:17:25Z</time>
      </trkpt>
      <trkpt lat="44.07235" lon="3.17323">
        <ele>791.3</ele>
        <time>2019-05-31T10:17:33Z</time>
      </trkpt>
      <trkpt lat="44.07235" lon="3.17327">
        <ele>791.3</ele>
        <time>2019-05-31T10:17:37Z</time>
      </trkpt>
      <trkpt lat="44.07238" lon="3.1733">
        <ele>791.4</ele>
        <time>2019-05-31T10:17:51Z</time>
      </trkpt>
      <trkpt lat="44.07239" lon="3.17334">
        <ele>791.4</ele>
        <time>2019-05-31T10:17:54Z</time>
      </trkpt>
      <trkpt lat="44.0724" lon="3.17338">
        <ele>791.4</ele>
        <time>2019-05-31T10:17:56Z</time>
      </trkpt>
      <trkpt lat="44.07241" lon="3.17344">
        <ele>791.3</ele>
        <time>2019-05-31T10:17:59Z</time>
      </trkpt>
      <trkpt lat="44.07242" lon="3.1735">
        <ele>791.2</ele>
        <time>2019-05-31T10:18:01Z</time>
      </trkpt>
      <trkpt lat="44.07243" lon="3.17354">
        <ele>791.2</ele>
        <time>2019-05-31T10:18:02Z</time>
      </trkpt>
      <trkpt lat="44.07244" lon="3.17359">
        <ele>791.1</ele>
        <time>2019-05-31T10:18:03Z</time>
      </trkpt>
      <trkpt lat="44.07245" lon="3.17364">
        <ele>791</ele>
        <time>2019-05-31T10:18:04Z</time>
      </trkpt>
      <trkpt lat="44.07245" lon="3.17369">
        <ele>790.9</ele>
        <time>2019-05-31T10:18:05Z</time>
      </trkpt>
      <trkpt lat="44.07247" lon="3.17374">
        <ele>790.8</ele>
        <time>2019-05-31T10:18:06Z</time>
      </trkpt>
      <trkpt lat="44.07248" lon="3.1738">
        <ele>790.7</ele>
        <time>2019-05-31T10:18:07Z</time>
      </trkpt>
      <trkpt lat="44.0725" lon="3.17384">
        <ele>790.6</ele>
        <time>2019-05-31T10:18:08Z</time>
      </trkpt>
      <trkpt lat="44.07255" lon="3.17394">
        <ele>790.3</ele>
        <time>2019-05-31T10:18:09Z</time>
      </trkpt>
      <trkpt lat="44.07261" lon="3.17399">
        <ele>790.1</ele>
        <time>2019-05-31T10:18:10Z</time>
      </trkpt>
      <trkpt lat="44.07264" lon="3.17405">
        <ele>790</ele>
        <time>2019-05-31T10:18:11Z</time>
      </trkpt>
      <trkpt lat="44.07268" lon="3.17411">
        <ele>789.8</ele>
        <time>2019-05-31T10:18:12Z</time>
      </trkpt>
      <trkpt lat="44.07274" lon="3.17423">
        <ele>789.5</ele>
        <time>2019-05-31T10:18:13Z</time>
      </trkpt>
      <trkpt lat="44.07277" lon="3.17435">
        <ele>789.3</ele>
        <time>2019-05-31T10:18:14Z</time>
      </trkpt>
      <trkpt lat="44.07279" lon="3.17444">
        <ele>789.1</ele>
        <time>2019-05-31T10:18:15Z</time>
      </trkpt>
      <trkpt lat="44.07284" lon="3.17453">
        <ele>788.8</ele>
        <time>2019-05-31T10:18:16Z</time>
      </trkpt>
      <trkpt lat="44.07287" lon="3.1746">
        <ele>788.6</ele>
        <time>2019-05-31T10:18:17Z</time>
      </trkpt>
      <trkpt lat="44.07289" lon="3.17468">
        <ele>788.4</ele>
        <time>2019-05-31T10:18:18Z</time>
      </trkpt>
      <trkpt lat="44.07294" lon="3.17474">
        <ele>788.2</ele>
        <time>2019-05-31T10:18:19Z</time>
      </trkpt>
      <trkpt lat="44.07297" lon="3.17479">
        <ele>788.1</ele>
        <time>2019-05-31T10:18:20Z</time>
      </trkpt>
      <trkpt lat="44.07307" lon="3.17482">
        <ele>787.9</ele>
        <time>2019-05-31T10:18:21Z</time>
      </trkpt>
      <trkpt lat="44.0731" lon="3.17485">
        <ele>787.9</ele>
        <time>2019-05-31T10:18:22Z</time>
      </trkpt>
      <trkpt lat="44.07317" lon="3.17494">
        <ele>787.8</ele>
        <time>2019-05-31T10:18:24Z</time>
      </trkpt>
      <trkpt lat="44.07322" lon="3.17496">
        <ele>787.9</ele>
        <time>2019-05-31T10:18:25Z</time>
      </trkpt>
      <trkpt lat="44.07325" lon="3.17495">
        <ele>788</ele>
        <time>2019-05-31T10:18:26Z</time>
      </trkpt>
      <trkpt lat="44.07329" lon="3.17499">
        <ele>788.1</ele>
        <time>2019-05-31T10:18:27Z</time>
      </trkpt>
      <trkpt lat="44.07331" lon="3.17506">
        <ele>788.3</ele>
        <time>2019-05-31T10:18:30Z</time>
      </trkpt>
      <trkpt lat="44.07333" lon="3.1751">
        <ele>788.4</ele>
        <time>2019-05-31T10:18:33Z</time>
      </trkpt>
      <trkpt lat="44.07334" lon="3.17515">
        <ele>788.5</ele>
        <time>2019-05-31T10:18:37Z</time>
      </trkpt>
      <trkpt lat="44.07336" lon="3.1752">
        <ele>788.6</ele>
        <time>2019-05-31T10:18:40Z</time>
      </trkpt>
      <trkpt lat="44.07337" lon="3.17525">
        <ele>788.8</ele>
        <time>2019-05-31T10:18:43Z</time>
      </trkpt>
      <trkpt lat="44.07339" lon="3.17529">
        <ele>788.9</ele>
        <time>2019-05-31T10:18:45Z</time>
      </trkpt>
      <trkpt lat="44.0734" lon="3.17532">
        <ele>789.1</ele>
        <time>2019-05-31T10:18:47Z</time>
      </trkpt>
      <trkpt lat="44.07343" lon="3.17536">
        <ele>789.2</ele>
        <time>2019-05-31T10:18:49Z</time>
      </trkpt>
      <trkpt lat="44.07346" lon="3.17539">
        <ele>789.3</ele>
        <time>2019-05-31T10:18:51Z</time>
      </trkpt>
      <trkpt lat="44.07348" lon="3.17542">
        <ele>789.4</ele>
        <time>2019-05-31T10:18:53Z</time>
      </trkpt>
      <trkpt lat="44.0735" lon="3.17546">
        <ele>789.5</ele>
        <time>2019-05-31T10:18:55Z</time>
      </trkpt>
      <trkpt lat="44.07352" lon="3.1755">
        <ele>789.6</ele>
        <time>2019-05-31T10:18:57Z</time>
      </trkpt>
      <trkpt lat="44.07354" lon="3.17553">
        <ele>789.7</ele>
        <time>2019-05-31T10:18:59Z</time>
      </trkpt>
      <trkpt lat="44.07357" lon="3.17556">
        <ele>789.9</ele>
        <time>2019-05-31T10:19:02Z</time>
      </trkpt>
      <trkpt lat="44.0736" lon="3.17559">
        <ele>790</ele>
        <time>2019-05-31T10:19:05Z</time>
      </trkpt>
      <trkpt lat="44.07363" lon="3.17563">
        <ele>790.1</ele>
        <time>2019-05-31T10:19:07Z</time>
      </trkpt>
      <trkpt lat="44.07365" lon="3.17567">
        <ele>790.3</ele>
        <time>2019-05-31T10:19:09Z</time>
      </trkpt>
      <trkpt lat="44.07367" lon="3.17569">
        <ele>790.4</ele>
        <time>2019-05-31T10:19:14Z</time>
      </trkpt>
      <trkpt lat="44.0737" lon="3.17572">
        <ele>790.5</ele>
        <time>2019-05-31T10:20:17Z</time>
      </trkpt>
      <trkpt lat="44.07372" lon="3.17576">
        <ele>790.7</ele>
        <time>2019-05-31T10:20:19Z</time>
      </trkpt>
      <trkpt lat="44.07375" lon="3.17581">
        <ele>790.9</ele>
        <time>2019-05-31T10:20:21Z</time>
      </trkpt>
      <trkpt lat="44.07379" lon="3.17586">
        <ele>791.1</ele>
        <time>2019-05-31T10:20:23Z</time>
      </trkpt>
      <trkpt lat="44.07381" lon="3.17589">
        <ele>791.2</ele>
        <time>2019-05-31T10:20:24Z</time>
      </trkpt>
      <trkpt lat="44.07384" lon="3.17593">
        <ele>791.4</ele>
        <time>2019-05-31T10:20:25Z</time>
      </trkpt>
      <trkpt lat="44.07387" lon="3.17597">
        <ele>791.5</ele>
        <time>2019-05-31T10:20:26Z</time>
      </trkpt>
      <trkpt lat="44.07397" lon="3.17609">
        <ele>792</ele>
        <time>2019-05-31T10:20:27Z</time>
      </trkpt>
      <trkpt lat="44.07401" lon="3.17615">
        <ele>792.1</ele>
        <time>2019-05-31T10:20:28Z</time>
      </trkpt>
      <trkpt lat="44.07406" lon="3.17618">
        <ele>792.2</ele>
        <time>2019-05-31T10:20:29Z</time>
      </trkpt>
      <trkpt lat="44.0741" lon="3.17625">
        <ele>792.3</ele>
        <time>2019-05-31T10:20:30Z</time>
      </trkpt>
      <trkpt lat="44.07414" lon="3.17629">
        <ele>792.3</ele>
        <time>2019-05-31T10:20:31Z</time>
      </trkpt>
      <trkpt lat="44.07417" lon="3.1763">
        <ele>792.3</ele>
        <time>2019-05-31T10:20:32Z</time>
      </trkpt>
      <trkpt lat="44.07423" lon="3.17634">
        <ele>792.4</ele>
        <time>2019-05-31T10:20:33Z</time>
      </trkpt>
      <trkpt lat="44.07426" lon="3.17642">
        <ele>792.4</ele>
        <time>2019-05-31T10:20:34Z</time>
      </trkpt>
      <trkpt lat="44.07429" lon="3.17648">
        <ele>792.4</ele>
        <time>2019-05-31T10:20:35Z</time>
      </trkpt>
      <trkpt lat="44.07435" lon="3.17652">
        <ele>792.4</ele>
        <time>2019-05-31T10:20:36Z</time>
      </trkpt>
      <trkpt lat="44.0744" lon="3.17655">
        <ele>792.4</ele>
        <time>2019-05-31T10:20:37Z</time>
      </trkpt>
      <trkpt lat="44.07444" lon="3.17659">
        <ele>792.4</ele>
        <time>2019-05-31T10:20:38Z</time>
      </trkpt>
      <trkpt lat="44.07449" lon="3.17661">
        <ele>792.3</ele>
        <time>2019-05-31T10:20:39Z</time>
      </trkpt>
      <trkpt lat="44.07452" lon="3.17663">
        <ele>792.3</ele>
        <time>2019-05-31T10:20:40Z</time>
      </trkpt>
      <trkpt lat="44.07456" lon="3.17668">
        <ele>792.2</ele>
        <time>2019-05-31T10:20:42Z</time>
      </trkpt>
      <trkpt lat="44.07457" lon="3.17674">
        <ele>792.2</ele>
        <time>2019-05-31T10:20:43Z</time>
      </trkpt>
      <trkpt lat="44.0746" lon="3.17678">
        <ele>792.1</ele>
        <time>2019-05-31T10:20:44Z</time>
      </trkpt>
      <trkpt lat="44.07463" lon="3.17683">
        <ele>792</ele>
        <time>2019-05-31T10:20:45Z</time>
      </trkpt>
      <trkpt lat="44.07465" lon="3.17688">
        <ele>791.8</ele>
        <time>2019-05-31T10:20:46Z</time>
      </trkpt>
      <trkpt lat="44.07468" lon="3.17692">
        <ele>791.6</ele>
        <time>2019-05-31T10:20:47Z</time>
      </trkpt>
      <trkpt lat="44.07469" lon="3.17697">
        <ele>791.5</ele>
        <time>2019-05-31T10:20:48Z</time>
      </trkpt>
      <trkpt lat="44.07471" lon="3.17702">
        <ele>791.3</ele>
        <time>2019-05-31T10:20:49Z</time>
      </trkpt>
      <trkpt lat="44.07473" lon="3.17708">
        <ele>791.1</ele>
        <time>2019-05-31T10:20:50Z</time>
      </trkpt>
      <trkpt lat="44.07475" lon="3.17713">
        <ele>791</ele>
        <time>2019-05-31T10:20:51Z</time>
      </trkpt>
      <trkpt lat="44.07476" lon="3.17722">
        <ele>790.7</ele>
        <time>2019-05-31T10:20:52Z</time>
      </trkpt>
      <trkpt lat="44.07478" lon="3.17728">
        <ele>790.6</ele>
        <time>2019-05-31T10:20:53Z</time>
      </trkpt>
      <trkpt lat="44.0748" lon="3.17734">
        <ele>790.4</ele>
        <time>2019-05-31T10:20:54Z</time>
      </trkpt>
      <trkpt lat="44.07483" lon="3.17742">
        <ele>790.2</ele>
        <time>2019-05-31T10:20:55Z</time>
      </trkpt>
      <trkpt lat="44.07485" lon="3.17748">
        <ele>790</ele>
        <time>2019-05-31T10:20:56Z</time>
      </trkpt>
      <trkpt lat="44.07487" lon="3.17754">
        <ele>789.8</ele>
        <time>2019-05-31T10:20:57Z</time>
      </trkpt>
      <trkpt lat="44.07489" lon="3.17759">
        <ele>789.6</ele>
        <time>2019-05-31T10:20:58Z</time>
      </trkpt>
      <trkpt lat="44.07491" lon="3.17763">
        <ele>789.4</ele>
        <time>2019-05-31T10:20:59Z</time>
      </trkpt>
      <trkpt lat="44.07493" lon="3.17767">
        <ele>789.2</ele>
        <time>2019-05-31T10:21:00Z</time>
      </trkpt>
      <trkpt lat="44.07499" lon="3.1777">
        <ele>788.8</ele>
        <time>2019-05-31T10:21:01Z</time>
      </trkpt>
      <trkpt lat="44.07503" lon="3.17774">
        <ele>788.5</ele>
        <time>2019-05-31T10:21:02Z</time>
      </trkpt>
      <trkpt lat="44.07506" lon="3.17779">
        <ele>788.2</ele>
        <time>2019-05-31T10:21:03Z</time>
      </trkpt>
      <trkpt lat="44.07512" lon="3.17785">
        <ele>787.7</ele>
        <time>2019-05-31T10:21:04Z</time>
      </trkpt>
      <trkpt lat="44.07519" lon="3.17789">
        <ele>787.2</ele>
        <time>2019-05-31T10:21:05Z</time>
      </trkpt>
      <trkpt lat="44.07525" lon="3.17796">
        <ele>786.7</ele>
        <time>2019-05-31T10:21:06Z</time>
      </trkpt>
      <trkpt lat="44.0753" lon="3.17802">
        <ele>786.1</ele>
        <time>2019-05-31T10:21:07Z</time>
      </trkpt>
      <trkpt lat="44.07533" lon="3.17811">
        <ele>785.6</ele>
        <time>2019-05-31T10:21:08Z</time>
      </trkpt>
      <trkpt lat="44.07538" lon="3.17818">
        <ele>785.1</ele>
        <time>2019-05-31T10:21:09Z</time>
      </trkpt>
      <trkpt lat="44.07544" lon="3.17824">
        <ele>784.7</ele>
        <time>2019-05-31T10:21:10Z</time>
      </trkpt>
      <trkpt lat="44.07548" lon="3.17829">
        <ele>784.3</ele>
        <time>2019-05-31T10:21:11Z</time>
      </trkpt>
      <trkpt lat="44.07553" lon="3.17836">
        <ele>783.9</ele>
        <time>2019-05-31T10:21:12Z</time>
      </trkpt>
      <trkpt lat="44.07556" lon="3.17838">
        <ele>783.7</ele>
        <time>2019-05-31T10:21:13Z</time>
      </trkpt>
      <trkpt lat="44.07558" lon="3.17848">
        <ele>783.2</ele>
        <time>2019-05-31T10:21:15Z</time>
      </trkpt>
      <trkpt lat="44.0756" lon="3.17853">
        <ele>783</ele>
        <time>2019-05-31T10:21:16Z</time>
      </trkpt>
      <trkpt lat="44.07562" lon="3.17858">
        <ele>782.5</ele>
        <time>2019-05-31T10:21:17Z</time>
      </trkpt>
      <trkpt lat="44.07566" lon="3.17862">
        <ele>781.9</ele>
        <time>2019-05-31T10:21:18Z</time>
      </trkpt>
      <trkpt lat="44.0757" lon="3.17868">
        <ele>781.3</ele>
        <time>2019-05-31T10:21:19Z</time>
      </trkpt>
      <trkpt lat="44.07576" lon="3.17875">
        <ele>780.6</ele>
        <time>2019-05-31T10:21:20Z</time>
      </trkpt>
      <trkpt lat="44.07582" lon="3.17881">
        <ele>779.8</ele>
        <time>2019-05-31T10:21:21Z</time>
      </trkpt>
      <trkpt lat="44.07587" lon="3.1789">
        <ele>779</ele>
        <time>2019-05-31T10:21:22Z</time>
      </trkpt>
      <trkpt lat="44.07592" lon="3.17899">
        <ele>778</ele>
        <time>2019-05-31T10:21:23Z</time>
      </trkpt>
      <trkpt lat="44.07596" lon="3.17907">
        <ele>777</ele>
        <time>2019-05-31T10:21:24Z</time>
      </trkpt>
      <trkpt lat="44.07599" lon="3.17913">
        <ele>776.2</ele>
        <time>2019-05-31T10:21:25Z</time>
      </trkpt>
      <trkpt lat="44.07603" lon="3.17919">
        <ele>775.5</ele>
        <time>2019-05-31T10:21:26Z</time>
      </trkpt>
      <trkpt lat="44.07607" lon="3.17925">
        <ele>774.9</ele>
        <time>2019-05-31T10:21:27Z</time>
      </trkpt>
      <trkpt lat="44.07612" lon="3.17933">
        <ele>774.1</ele>
        <time>2019-05-31T10:21:28Z</time>
      </trkpt>
      <trkpt lat="44.07616" lon="3.1794">
        <ele>773.5</ele>
        <time>2019-05-31T10:21:29Z</time>
      </trkpt>
      <trkpt lat="44.07619" lon="3.17946">
        <ele>773</ele>
        <time>2019-05-31T10:21:30Z</time>
      </trkpt>
      <trkpt lat="44.07624" lon="3.17953">
        <ele>772.4</ele>
        <time>2019-05-31T10:21:31Z</time>
      </trkpt>
      <trkpt lat="44.07627" lon="3.17956">
        <ele>772.1</ele>
        <time>2019-05-31T10:21:32Z</time>
      </trkpt>
      <trkpt lat="44.07631" lon="3.17963">
        <ele>771.5</ele>
        <time>2019-05-31T10:21:33Z</time>
      </trkpt>
      <trkpt lat="44.07635" lon="3.17969">
        <ele>770.9</ele>
        <time>2019-05-31T10:21:34Z</time>
      </trkpt>
      <trkpt lat="44.0764" lon="3.17973">
        <ele>770.4</ele>
        <time>2019-05-31T10:21:35Z</time>
      </trkpt>
      <trkpt lat="44.07643" lon="3.17978">
        <ele>770</ele>
        <time>2019-05-31T10:21:36Z</time>
      </trkpt>
      <trkpt lat="44.07648" lon="3.17985">
        <ele>769.5</ele>
        <time>2019-05-31T10:21:37Z</time>
      </trkpt>
      <trkpt lat="44.07652" lon="3.17989">
        <ele>769</ele>
        <time>2019-05-31T10:21:38Z</time>
      </trkpt>
      <trkpt lat="44.07659" lon="3.17998">
        <ele>768.2</ele>
        <time>2019-05-31T10:21:39Z</time>
      </trkpt>
      <trkpt lat="44.07664" lon="3.18004">
        <ele>767.6</ele>
        <time>2019-05-31T10:21:40Z</time>
      </trkpt>
      <trkpt lat="44.0767" lon="3.18008">
        <ele>767.2</ele>
        <time>2019-05-31T10:21:41Z</time>
      </trkpt>
      <trkpt lat="44.07676" lon="3.18013">
        <ele>766.7</ele>
        <time>2019-05-31T10:21:42Z</time>
      </trkpt>
      <trkpt lat="44.07681" lon="3.18018">
        <ele>766.4</ele>
        <time>2019-05-31T10:21:43Z</time>
      </trkpt>
      <trkpt lat="44.07684" lon="3.18023">
        <ele>766.2</ele>
        <time>2019-05-31T10:21:44Z</time>
      </trkpt>
      <trkpt lat="44.07687" lon="3.18027">
        <ele>766</ele>
        <time>2019-05-31T10:21:45Z</time>
      </trkpt>
      <trkpt lat="44.0769" lon="3.18032">
        <ele>765.9</ele>
        <time>2019-05-31T10:21:46Z</time>
      </trkpt>
      <trkpt lat="44.07692" lon="3.18037">
        <ele>765.8</ele>
        <time>2019-05-31T10:21:47Z</time>
      </trkpt>
      <trkpt lat="44.07694" lon="3.1804">
        <ele>765.7</ele>
        <time>2019-05-31T10:21:48Z</time>
      </trkpt>
      <trkpt lat="44.07697" lon="3.18045">
        <ele>765.6</ele>
        <time>2019-05-31T10:21:49Z</time>
      </trkpt>
      <trkpt lat="44.077" lon="3.18048">
        <ele>765.7</ele>
        <time>2019-05-31T10:21:50Z</time>
      </trkpt>
      <trkpt lat="44.07702" lon="3.18053">
        <ele>765.9</ele>
        <time>2019-05-31T10:21:51Z</time>
      </trkpt>
      <trkpt lat="44.07704" lon="3.18059">
        <ele>766.1</ele>
        <time>2019-05-31T10:21:53Z</time>
      </trkpt>
      <trkpt lat="44.07707" lon="3.18064">
        <ele>766.3</ele>
        <time>2019-05-31T10:21:55Z</time>
      </trkpt>
      <trkpt lat="44.07709" lon="3.18069">
        <ele>766.7</ele>
        <time>2019-05-31T10:21:57Z</time>
      </trkpt>
      <trkpt lat="44.07712" lon="3.18074">
        <ele>767</ele>
        <time>2019-05-31T10:21:59Z</time>
      </trkpt>
      <trkpt lat="44.07716" lon="3.18077">
        <ele>767.3</ele>
        <time>2019-05-31T10:22:01Z</time>
      </trkpt>
      <trkpt lat="44.07719" lon="3.1808">
        <ele>767.5</ele>
        <time>2019-05-31T10:22:03Z</time>
      </trkpt>
      <trkpt lat="44.07722" lon="3.18084">
        <ele>767.9</ele>
        <time>2019-05-31T10:22:05Z</time>
      </trkpt>
      <trkpt lat="44.07725" lon="3.18086">
        <ele>768.2</ele>
        <time>2019-05-31T10:22:07Z</time>
      </trkpt>
      <trkpt lat="44.07727" lon="3.18088">
        <ele>768.5</ele>
        <time>2019-05-31T10:22:09Z</time>
      </trkpt>
      <trkpt lat="44.07729" lon="3.18092">
        <ele>768.8</ele>
        <time>2019-05-31T10:22:11Z</time>
      </trkpt>
      <trkpt lat="44.07731" lon="3.18097">
        <ele>769.3</ele>
        <time>2019-05-31T10:22:13Z</time>
      </trkpt>
      <trkpt lat="44.07733" lon="3.18101">
        <ele>769.6</ele>
        <time>2019-05-31T10:22:15Z</time>
      </trkpt>
      <trkpt lat="44.07736" lon="3.18106">
        <ele>770.2</ele>
        <time>2019-05-31T10:22:17Z</time>
      </trkpt>
      <trkpt lat="44.07739" lon="3.18111">
        <ele>770.7</ele>
        <time>2019-05-31T10:22:19Z</time>
      </trkpt>
      <trkpt lat="44.07742" lon="3.18115">
        <ele>771.1</ele>
        <time>2019-05-31T10:22:21Z</time>
      </trkpt>
      <trkpt lat="44.07745" lon="3.18119">
        <ele>771.1</ele>
        <time>2019-05-31T10:22:23Z</time>
      </trkpt>
      <trkpt lat="44.07749" lon="3.18124">
        <ele>771.2</ele>
        <time>2019-05-31T10:22:25Z</time>
      </trkpt>
      <trkpt lat="44.07752" lon="3.18127">
        <ele>771.2</ele>
        <time>2019-05-31T10:22:27Z</time>
      </trkpt>
      <trkpt lat="44.07756" lon="3.18129">
        <ele>771.2</ele>
        <time>2019-05-31T10:22:29Z</time>
      </trkpt>
      <trkpt lat="44.0776" lon="3.18131">
        <ele>771.2</ele>
        <time>2019-05-31T10:22:32Z</time>
      </trkpt>
      <trkpt lat="44.07765" lon="3.18132">
        <ele>771.1</ele>
        <time>2019-05-31T10:22:34Z</time>
      </trkpt>
      <trkpt lat="44.07769" lon="3.18131">
        <ele>771.1</ele>
        <time>2019-05-31T10:22:35Z</time>
      </trkpt>
      <trkpt lat="44.07773" lon="3.18131">
        <ele>771</ele>
        <time>2019-05-31T10:22:36Z</time>
      </trkpt>
      <trkpt lat="44.07777" lon="3.1813">
        <ele>770.9</ele>
        <time>2019-05-31T10:22:37Z</time>
      </trkpt>
      <trkpt lat="44.07781" lon="3.18129">
        <ele>770.9</ele>
        <time>2019-05-31T10:22:38Z</time>
      </trkpt>
      <trkpt lat="44.07784" lon="3.18129">
        <ele>770.8</ele>
        <time>2019-05-31T10:22:39Z</time>
      </trkpt>
      <trkpt lat="44.07787" lon="3.18128">
        <ele>770.7</ele>
        <time>2019-05-31T10:22:40Z</time>
      </trkpt>
      <trkpt lat="44.0779" lon="3.18129">
        <ele>770.7</ele>
        <time>2019-05-31T10:22:41Z</time>
      </trkpt>
      <trkpt lat="44.07793" lon="3.1813">
        <ele>770.6</ele>
        <time>2019-05-31T10:22:42Z</time>
      </trkpt>
      <trkpt lat="44.07797" lon="3.1813">
        <ele>770.5</ele>
        <time>2019-05-31T10:22:43Z</time>
      </trkpt>
      <trkpt lat="44.07802" lon="3.1813">
        <ele>770.4</ele>
        <time>2019-05-31T10:22:44Z</time>
      </trkpt>
      <trkpt lat="44.07806" lon="3.1813">
        <ele>770.3</ele>
        <time>2019-05-31T10:22:45Z</time>
      </trkpt>
      <trkpt lat="44.07811" lon="3.18129">
        <ele>770.3</ele>
        <time>2019-05-31T10:22:46Z</time>
      </trkpt>
      <trkpt lat="44.07815" lon="3.18129">
        <ele>770.2</ele>
        <time>2019-05-31T10:22:47Z</time>
      </trkpt>
      <trkpt lat="44.07819" lon="3.18128">
        <ele>770.2</ele>
        <time>2019-05-31T10:22:48Z</time>
      </trkpt>
      <trkpt lat="44.07823" lon="3.18128">
        <ele>770.2</ele>
        <time>2019-05-31T10:22:49Z</time>
      </trkpt>
      <trkpt lat="44.07827" lon="3.18128">
        <ele>770.2</ele>
        <time>2019-05-31T10:22:50Z</time>
      </trkpt>
      <trkpt lat="44.07831" lon="3.18128">
        <ele>770.3</ele>
        <time>2019-05-31T10:22:51Z</time>
      </trkpt>
      <trkpt lat="44.07835" lon="3.18128">
        <ele>770.3</ele>
        <time>2019-05-31T10:22:52Z</time>
      </trkpt>
      <trkpt lat="44.07839" lon="3.18127">
        <ele>770.3</ele>
        <time>2019-05-31T10:22:53Z</time>
      </trkpt>
      <trkpt lat="44.07844" lon="3.18126">
        <ele>770.4</ele>
        <time>2019-05-31T10:22:54Z</time>
      </trkpt>
      <trkpt lat="44.07848" lon="3.18125">
        <ele>770.4</ele>
        <time>2019-05-31T10:22:55Z</time>
      </trkpt>
      <trkpt lat="44.07852" lon="3.18125">
        <ele>770.5</ele>
        <time>2019-05-31T10:22:56Z</time>
      </trkpt>
      <trkpt lat="44.07856" lon="3.18126">
        <ele>770.5</ele>
        <time>2019-05-31T10:22:57Z</time>
      </trkpt>
      <trkpt lat="44.0786" lon="3.18128">
        <ele>770.6</ele>
        <time>2019-05-31T10:22:58Z</time>
      </trkpt>
      <trkpt lat="44.07864" lon="3.18129">
        <ele>770.6</ele>
        <time>2019-05-31T10:22:59Z</time>
      </trkpt>
      <trkpt lat="44.07868" lon="3.18131">
        <ele>770.6</ele>
        <time>2019-05-31T10:23:00Z</time>
      </trkpt>
      <trkpt lat="44.07874" lon="3.18134">
        <ele>770.8</ele>
        <time>2019-05-31T10:23:01Z</time>
      </trkpt>
      <trkpt lat="44.07878" lon="3.18134">
        <ele>770.8</ele>
        <time>2019-05-31T10:23:02Z</time>
      </trkpt>
      <trkpt lat="44.07882" lon="3.18133">
        <ele>770.9</ele>
        <time>2019-05-31T10:23:03Z</time>
      </trkpt>
      <trkpt lat="44.07887" lon="3.18131">
        <ele>771</ele>
        <time>2019-05-31T10:23:04Z</time>
      </trkpt>
      <trkpt lat="44.07892" lon="3.1813">
        <ele>771.1</ele>
        <time>2019-05-31T10:23:05Z</time>
      </trkpt>
      <trkpt lat="44.07897" lon="3.18129">
        <ele>771.3</ele>
        <time>2019-05-31T10:23:06Z</time>
      </trkpt>
      <trkpt lat="44.079" lon="3.18129">
        <ele>771.3</ele>
        <time>2019-05-31T10:23:07Z</time>
      </trkpt>
      <trkpt lat="44.07905" lon="3.18127">
        <ele>771.5</ele>
        <time>2019-05-31T10:23:08Z</time>
      </trkpt>
      <trkpt lat="44.07909" lon="3.18127">
        <ele>771.6</ele>
        <time>2019-05-31T10:23:09Z</time>
      </trkpt>
      <trkpt lat="44.07916" lon="3.18125">
        <ele>771.8</ele>
        <time>2019-05-31T10:23:11Z</time>
      </trkpt>
      <trkpt lat="44.07919" lon="3.18124">
        <ele>772</ele>
        <time>2019-05-31T10:23:12Z</time>
      </trkpt>
      <trkpt lat="44.07924" lon="3.18124">
        <ele>772.1</ele>
        <time>2019-05-31T10:23:13Z</time>
      </trkpt>
      <trkpt lat="44.07927" lon="3.18124">
        <ele>772.3</ele>
        <time>2019-05-31T10:23:14Z</time>
      </trkpt>
      <trkpt lat="44.0793" lon="3.18123">
        <ele>772.4</ele>
        <time>2019-05-31T10:23:15Z</time>
      </trkpt>
      <trkpt lat="44.07933" lon="3.18122">
        <ele>772.5</ele>
        <time>2019-05-31T10:23:17Z</time>
      </trkpt>
      <trkpt lat="44.07937" lon="3.18121">
        <ele>772.8</ele>
        <time>2019-05-31T10:23:19Z</time>
      </trkpt>
      <trkpt lat="44.07943" lon="3.18121">
        <ele>773.2</ele>
        <time>2019-05-31T10:23:21Z</time>
      </trkpt>
      <trkpt lat="44.07946" lon="3.1812">
        <ele>773.4</ele>
        <time>2019-05-31T10:23:22Z</time>
      </trkpt>
      <trkpt lat="44.0795" lon="3.18119">
        <ele>773.6</ele>
        <time>2019-05-31T10:23:23Z</time>
      </trkpt>
      <trkpt lat="44.07954" lon="3.18118">
        <ele>773.8</ele>
        <time>2019-05-31T10:23:24Z</time>
      </trkpt>
      <trkpt lat="44.07957" lon="3.18117">
        <ele>774</ele>
        <time>2019-05-31T10:23:25Z</time>
      </trkpt>
      <trkpt lat="44.07961" lon="3.18116">
        <ele>774.3</ele>
        <time>2019-05-31T10:23:26Z</time>
      </trkpt>
      <trkpt lat="44.07965" lon="3.18115">
        <ele>774.5</ele>
        <time>2019-05-31T10:23:27Z</time>
      </trkpt>
      <trkpt lat="44.07968" lon="3.18115">
        <ele>774.7</ele>
        <time>2019-05-31T10:23:28Z</time>
      </trkpt>
      <trkpt lat="44.07971" lon="3.18114">
        <ele>774.9</ele>
        <time>2019-05-31T10:23:29Z</time>
      </trkpt>
      <trkpt lat="44.07974" lon="3.18113">
        <ele>775.1</ele>
        <time>2019-05-31T10:23:30Z</time>
      </trkpt>
      <trkpt lat="44.07978" lon="3.18112">
        <ele>775.3</ele>
        <time>2019-05-31T10:23:31Z</time>
      </trkpt>
      <trkpt lat="44.07981" lon="3.18111">
        <ele>775.4</ele>
        <time>2019-05-31T10:23:32Z</time>
      </trkpt>
      <trkpt lat="44.07985" lon="3.1811">
        <ele>775.6</ele>
        <time>2019-05-31T10:23:33Z</time>
      </trkpt>
      <trkpt lat="44.07988" lon="3.18109">
        <ele>775.7</ele>
        <time>2019-05-31T10:23:34Z</time>
      </trkpt>
      <trkpt lat="44.07991" lon="3.18109">
        <ele>775.9</ele>
        <time>2019-05-31T10:23:35Z</time>
      </trkpt>
      <trkpt lat="44.07997" lon="3.18108">
        <ele>776.3</ele>
        <time>2019-05-31T10:23:37Z</time>
      </trkpt>
      <trkpt lat="44.08" lon="3.18108">
        <ele>776.4</ele>
        <time>2019-05-31T10:23:38Z</time>
      </trkpt>
      <trkpt lat="44.08003" lon="3.18108">
        <ele>776.6</ele>
        <time>2019-05-31T10:23:39Z</time>
      </trkpt>
      <trkpt lat="44.08005" lon="3.18107">
        <ele>776.7</ele>
        <time>2019-05-31T10:23:40Z</time>
      </trkpt>
      <trkpt lat="44.0801" lon="3.18107">
        <ele>777</ele>
        <time>2019-05-31T10:23:42Z</time>
      </trkpt>
      <trkpt lat="44.08013" lon="3.18109">
        <ele>777.3</ele>
        <time>2019-05-31T10:23:44Z</time>
      </trkpt>
      <trkpt lat="44.08016" lon="3.18111">
        <ele>777.5</ele>
        <time>2019-05-31T10:23:46Z</time>
      </trkpt>
      <trkpt lat="44.08017" lon="3.18116">
        <ele>777.7</ele>
        <time>2019-05-31T10:23:48Z</time>
      </trkpt>
      <trkpt lat="44.08016" lon="3.18122">
        <ele>778</ele>
        <time>2019-05-31T10:23:50Z</time>
      </trkpt>
      <trkpt lat="44.08014" lon="3.18129">
        <ele>778.2</ele>
        <time>2019-05-31T10:23:52Z</time>
      </trkpt>
      <trkpt lat="44.08013" lon="3.18133">
        <ele>778.3</ele>
        <time>2019-05-31T10:23:53Z</time>
      </trkpt>
      <trkpt lat="44.08012" lon="3.18137">
        <ele>778.5</ele>
        <time>2019-05-31T10:23:54Z</time>
      </trkpt>
      <trkpt lat="44.08012" lon="3.18142">
        <ele>778.6</ele>
        <time>2019-05-31T10:23:56Z</time>
      </trkpt>
      <trkpt lat="44.08013" lon="3.18147">
        <ele>778.6</ele>
        <time>2019-05-31T10:23:58Z</time>
      </trkpt>
      <trkpt lat="44.08016" lon="3.18151">
        <ele>778.6</ele>
        <time>2019-05-31T10:24:00Z</time>
      </trkpt>
      <trkpt lat="44.08019" lon="3.18154">
        <ele>778.6</ele>
        <time>2019-05-31T10:24:02Z</time>
      </trkpt>
      <trkpt lat="44.08022" lon="3.1816">
        <ele>778.5</ele>
        <time>2019-05-31T10:24:04Z</time>
      </trkpt>
      <trkpt lat="44.08025" lon="3.18164">
        <ele>778.5</ele>
        <time>2019-05-31T10:24:05Z</time>
      </trkpt>
      <trkpt lat="44.08028" lon="3.18168">
        <ele>778.4</ele>
        <time>2019-05-31T10:24:06Z</time>
      </trkpt>
      <trkpt lat="44.0803" lon="3.18173">
        <ele>778.4</ele>
        <time>2019-05-31T10:24:07Z</time>
      </trkpt>
      <trkpt lat="44.08031" lon="3.18177">
        <ele>778.3</ele>
        <time>2019-05-31T10:24:08Z</time>
      </trkpt>
      <trkpt lat="44.08033" lon="3.18181">
        <ele>778.3</ele>
        <time>2019-05-31T10:24:09Z</time>
      </trkpt>
      <trkpt lat="44.08036" lon="3.18185">
        <ele>778.3</ele>
        <time>2019-05-31T10:24:10Z</time>
      </trkpt>
      <trkpt lat="44.08038" lon="3.18189">
        <ele>778.2</ele>
        <time>2019-05-31T10:24:11Z</time>
      </trkpt>
      <trkpt lat="44.0804" lon="3.18193">
        <ele>778.2</ele>
        <time>2019-05-31T10:24:12Z</time>
      </trkpt>
      <trkpt lat="44.08044" lon="3.18197">
        <ele>778.1</ele>
        <time>2019-05-31T10:24:13Z</time>
      </trkpt>
      <trkpt lat="44.08048" lon="3.18199">
        <ele>778</ele>
        <time>2019-05-31T10:24:14Z</time>
      </trkpt>
      <trkpt lat="44.08054" lon="3.182">
        <ele>777.9</ele>
        <time>2019-05-31T10:24:15Z</time>
      </trkpt>
      <trkpt lat="44.08058" lon="3.182">
        <ele>777.8</ele>
        <time>2019-05-31T10:24:16Z</time>
      </trkpt>
      <trkpt lat="44.08061" lon="3.182">
        <ele>777.8</ele>
        <time>2019-05-31T10:24:17Z</time>
      </trkpt>
      <trkpt lat="44.08064" lon="3.18201">
        <ele>777.7</ele>
        <time>2019-05-31T10:24:18Z</time>
      </trkpt>
      <trkpt lat="44.08067" lon="3.18202">
        <ele>777.7</ele>
        <time>2019-05-31T10:24:19Z</time>
      </trkpt>
      <trkpt lat="44.0807" lon="3.18203">
        <ele>777.6</ele>
        <time>2019-05-31T10:24:20Z</time>
      </trkpt>
      <trkpt lat="44.08073" lon="3.18203">
        <ele>777.6</ele>
        <time>2019-05-31T10:24:21Z</time>
      </trkpt>
      <trkpt lat="44.08075" lon="3.18205">
        <ele>777.6</ele>
        <time>2019-05-31T10:24:22Z</time>
      </trkpt>
      <trkpt lat="44.08078" lon="3.18206">
        <ele>777.5</ele>
        <time>2019-05-31T10:24:23Z</time>
      </trkpt>
      <trkpt lat="44.08083" lon="3.18209">
        <ele>777.5</ele>
        <time>2019-05-31T10:24:25Z</time>
      </trkpt>
      <trkpt lat="44.08086" lon="3.18209">
        <ele>777.5</ele>
        <time>2019-05-31T10:24:26Z</time>
      </trkpt>
      <trkpt lat="44.08091" lon="3.18207">
        <ele>777.4</ele>
        <time>2019-05-31T10:24:27Z</time>
      </trkpt>
      <trkpt lat="44.08095" lon="3.18203">
        <ele>777.4</ele>
        <time>2019-05-31T10:24:28Z</time>
      </trkpt>
      <trkpt lat="44.081" lon="3.18199">
        <ele>777.3</ele>
        <time>2019-05-31T10:24:29Z</time>
      </trkpt>
      <trkpt lat="44.08105" lon="3.18195">
        <ele>777.3</ele>
        <time>2019-05-31T10:24:30Z</time>
      </trkpt>
      <trkpt lat="44.08114" lon="3.18183">
        <ele>777.1</ele>
        <time>2019-05-31T10:24:31Z</time>
      </trkpt>
      <trkpt lat="44.08118" lon="3.18181">
        <ele>777.1</ele>
        <time>2019-05-31T10:24:32Z</time>
      </trkpt>
      <trkpt lat="44.08123" lon="3.18178">
        <ele>777</ele>
        <time>2019-05-31T10:24:33Z</time>
      </trkpt>
      <trkpt lat="44.08128" lon="3.18174">
        <ele>777</ele>
        <time>2019-05-31T10:24:34Z</time>
      </trkpt>
      <trkpt lat="44.08133" lon="3.18173">
        <ele>777</ele>
        <time>2019-05-31T10:24:35Z</time>
      </trkpt>
      <trkpt lat="44.08137" lon="3.18172">
        <ele>777.1</ele>
        <time>2019-05-31T10:24:36Z</time>
      </trkpt>
      <trkpt lat="44.08142" lon="3.1817">
        <ele>777.2</ele>
        <time>2019-05-31T10:24:37Z</time>
      </trkpt>
      <trkpt lat="44.08147" lon="3.18171">
        <ele>777.4</ele>
        <time>2019-05-31T10:24:39Z</time>
      </trkpt>
      <trkpt lat="44.08153" lon="3.18172">
        <ele>777.7</ele>
        <time>2019-05-31T10:24:40Z</time>
      </trkpt>
      <trkpt lat="44.08157" lon="3.18173">
        <ele>777.8</ele>
        <time>2019-05-31T10:24:41Z</time>
      </trkpt>
      <trkpt lat="44.0816" lon="3.18174">
        <ele>778</ele>
        <time>2019-05-31T10:24:42Z</time>
      </trkpt>
      <trkpt lat="44.08163" lon="3.18176">
        <ele>778.2</ele>
        <time>2019-05-31T10:24:43Z</time>
      </trkpt>
      <trkpt lat="44.08167" lon="3.18178">
        <ele>778.5</ele>
        <time>2019-05-31T10:24:44Z</time>
      </trkpt>
      <trkpt lat="44.08169" lon="3.1818">
        <ele>778.7</ele>
        <time>2019-05-31T10:24:45Z</time>
      </trkpt>
      <trkpt lat="44.08173" lon="3.18183">
        <ele>779</ele>
        <time>2019-05-31T10:24:46Z</time>
      </trkpt>
      <trkpt lat="44.08175" lon="3.18185">
        <ele>779.3</ele>
        <time>2019-05-31T10:24:47Z</time>
      </trkpt>
      <trkpt lat="44.0818" lon="3.18188">
        <ele>779.8</ele>
        <time>2019-05-31T10:24:49Z</time>
      </trkpt>
      <trkpt lat="44.08184" lon="3.1819">
        <ele>780.2</ele>
        <time>2019-05-31T10:24:51Z</time>
      </trkpt>
      <trkpt lat="44.08187" lon="3.18192">
        <ele>780.5</ele>
        <time>2019-05-31T10:24:53Z</time>
      </trkpt>
      <trkpt lat="44.08191" lon="3.18193">
        <ele>781</ele>
        <time>2019-05-31T10:24:55Z</time>
      </trkpt>
      <trkpt lat="44.08195" lon="3.18192">
        <ele>781.4</ele>
        <time>2019-05-31T10:24:57Z</time>
      </trkpt>
      <trkpt lat="44.08199" lon="3.18193">
        <ele>781.8</ele>
        <time>2019-05-31T10:24:59Z</time>
      </trkpt>
      <trkpt lat="44.08203" lon="3.18195">
        <ele>782.2</ele>
        <time>2019-05-31T10:25:01Z</time>
      </trkpt>
      <trkpt lat="44.08209" lon="3.18197">
        <ele>782.6</ele>
        <time>2019-05-31T10:25:03Z</time>
      </trkpt>
      <trkpt lat="44.08212" lon="3.18199">
        <ele>782.8</ele>
        <time>2019-05-31T10:25:04Z</time>
      </trkpt>
      <trkpt lat="44.08215" lon="3.18199">
        <ele>783</ele>
        <time>2019-05-31T10:25:05Z</time>
      </trkpt>
      <trkpt lat="44.08218" lon="3.18199">
        <ele>783.2</ele>
        <time>2019-05-31T10:25:06Z</time>
      </trkpt>
      <trkpt lat="44.08222" lon="3.18198">
        <ele>783.4</ele>
        <time>2019-05-31T10:25:07Z</time>
      </trkpt>
      <trkpt lat="44.08226" lon="3.18197">
        <ele>783.6</ele>
        <time>2019-05-31T10:25:08Z</time>
      </trkpt>
      <trkpt lat="44.0823" lon="3.18197">
        <ele>783.8</ele>
        <time>2019-05-31T10:25:10Z</time>
      </trkpt>
      <trkpt lat="44.08233" lon="3.18196">
        <ele>783.9</ele>
        <time>2019-05-31T10:25:11Z</time>
      </trkpt>
      <trkpt lat="44.08236" lon="3.18196">
        <ele>784.1</ele>
        <time>2019-05-31T10:25:12Z</time>
      </trkpt>
      <trkpt lat="44.08239" lon="3.18195">
        <ele>784.2</ele>
        <time>2019-05-31T10:25:13Z</time>
      </trkpt>
      <trkpt lat="44.08244" lon="3.18197">
        <ele>784.5</ele>
        <time>2019-05-31T10:25:15Z</time>
      </trkpt>
      <trkpt lat="44.08246" lon="3.18199">
        <ele>784.7</ele>
        <time>2019-05-31T10:25:16Z</time>
      </trkpt>
      <trkpt lat="44.08252" lon="3.18202">
        <ele>785</ele>
        <time>2019-05-31T10:25:18Z</time>
      </trkpt>
      <trkpt lat="44.08255" lon="3.18204">
        <ele>785.1</ele>
        <time>2019-05-31T10:25:19Z</time>
      </trkpt>
      <trkpt lat="44.08258" lon="3.18206">
        <ele>785.3</ele>
        <time>2019-05-31T10:25:20Z</time>
      </trkpt>
      <trkpt lat="44.08261" lon="3.18206">
        <ele>785.5</ele>
        <time>2019-05-31T10:25:21Z</time>
      </trkpt>
      <trkpt lat="44.08266" lon="3.18206">
        <ele>785.9</ele>
        <time>2019-05-31T10:25:23Z</time>
      </trkpt>
      <trkpt lat="44.0827" lon="3.18206">
        <ele>786.1</ele>
        <time>2019-05-31T10:25:25Z</time>
      </trkpt>
      <trkpt lat="44.08274" lon="3.18209">
        <ele>786.5</ele>
        <time>2019-05-31T10:25:27Z</time>
      </trkpt>
      <trkpt lat="44.08278" lon="3.18213">
        <ele>787.1</ele>
        <time>2019-05-31T10:25:29Z</time>
      </trkpt>
      <trkpt lat="44.0828" lon="3.18218">
        <ele>787.5</ele>
        <time>2019-05-31T10:25:31Z</time>
      </trkpt>
      <trkpt lat="44.08283" lon="3.18221">
        <ele>787.9</ele>
        <time>2019-05-31T10:25:34Z</time>
      </trkpt>
      <trkpt lat="44.08287" lon="3.18223">
        <ele>788.3</ele>
        <time>2019-05-31T10:25:36Z</time>
      </trkpt>
      <trkpt lat="44.08291" lon="3.18226">
        <ele>788.7</ele>
        <time>2019-05-31T10:25:38Z</time>
      </trkpt>
      <trkpt lat="44.08295" lon="3.18228">
        <ele>789.1</ele>
        <time>2019-05-31T10:25:40Z</time>
      </trkpt>
      <trkpt lat="44.08299" lon="3.1823">
        <ele>789.4</ele>
        <time>2019-05-31T10:25:42Z</time>
      </trkpt>
      <trkpt lat="44.08302" lon="3.18232">
        <ele>789.7</ele>
        <time>2019-05-31T10:25:44Z</time>
      </trkpt>
      <trkpt lat="44.08306" lon="3.18232">
        <ele>790</ele>
        <time>2019-05-31T10:25:46Z</time>
      </trkpt>
      <trkpt lat="44.08309" lon="3.18233">
        <ele>790.2</ele>
        <time>2019-05-31T10:25:48Z</time>
      </trkpt>
      <trkpt lat="44.08312" lon="3.18235">
        <ele>790.4</ele>
        <time>2019-05-31T10:25:50Z</time>
      </trkpt>
      <trkpt lat="44.08315" lon="3.18237">
        <ele>790.7</ele>
        <time>2019-05-31T10:25:52Z</time>
      </trkpt>
      <trkpt lat="44.08319" lon="3.18239">
        <ele>790.9</ele>
        <time>2019-05-31T10:25:53Z</time>
      </trkpt>
      <trkpt lat="44.08324" lon="3.1824">
        <ele>791.3</ele>
        <time>2019-05-31T10:25:55Z</time>
      </trkpt>
      <trkpt lat="44.08327" lon="3.1824">
        <ele>791.5</ele>
        <time>2019-05-31T10:25:56Z</time>
      </trkpt>
      <trkpt lat="44.0833" lon="3.18241">
        <ele>791.8</ele>
        <time>2019-05-31T10:25:57Z</time>
      </trkpt>
      <trkpt lat="44.08333" lon="3.18242">
        <ele>792.1</ele>
        <time>2019-05-31T10:25:58Z</time>
      </trkpt>
      <trkpt lat="44.08337" lon="3.18242">
        <ele>792.4</ele>
        <time>2019-05-31T10:25:59Z</time>
      </trkpt>
      <trkpt lat="44.0834" lon="3.18243">
        <ele>792.7</ele>
        <time>2019-05-31T10:26:00Z</time>
      </trkpt>
      <trkpt lat="44.08345" lon="3.18244">
        <ele>793.1</ele>
        <time>2019-05-31T10:26:02Z</time>
      </trkpt>
      <trkpt lat="44.08348" lon="3.18244">
        <ele>793.4</ele>
        <time>2019-05-31T10:26:03Z</time>
      </trkpt>
      <trkpt lat="44.08351" lon="3.18244">
        <ele>793.5</ele>
        <time>2019-05-31T10:26:04Z</time>
      </trkpt>
      <trkpt lat="44.08355" lon="3.18245">
        <ele>793.7</ele>
        <time>2019-05-31T10:26:06Z</time>
      </trkpt>
      <trkpt lat="44.08359" lon="3.18244">
        <ele>793.9</ele>
        <time>2019-05-31T10:26:08Z</time>
      </trkpt>
      <trkpt lat="44.08364" lon="3.18243">
        <ele>794.1</ele>
        <time>2019-05-31T10:26:10Z</time>
      </trkpt>
      <trkpt lat="44.08369" lon="3.18244">
        <ele>794.3</ele>
        <time>2019-05-31T10:26:12Z</time>
      </trkpt>
      <trkpt lat="44.08374" lon="3.18243">
        <ele>794.4</ele>
        <time>2019-05-31T10:26:14Z</time>
      </trkpt>
      <trkpt lat="44.08378" lon="3.18243">
        <ele>794.4</ele>
        <time>2019-05-31T10:26:15Z</time>
      </trkpt>
      <trkpt lat="44.08382" lon="3.18242">
        <ele>794.4</ele>
        <time>2019-05-31T10:26:16Z</time>
      </trkpt>
      <trkpt lat="44.08386" lon="3.18241">
        <ele>794.4</ele>
        <time>2019-05-31T10:26:17Z</time>
      </trkpt>
      <trkpt lat="44.0839" lon="3.18241">
        <ele>794.3</ele>
        <time>2019-05-31T10:26:18Z</time>
      </trkpt>
      <trkpt lat="44.08394" lon="3.18241">
        <ele>794.2</ele>
        <time>2019-05-31T10:26:19Z</time>
      </trkpt>
      <trkpt lat="44.08397" lon="3.18242">
        <ele>794.2</ele>
        <time>2019-05-31T10:26:20Z</time>
      </trkpt>
      <trkpt lat="44.08401" lon="3.18244">
        <ele>794.1</ele>
        <time>2019-05-31T10:26:21Z</time>
      </trkpt>
      <trkpt lat="44.08405" lon="3.18245">
        <ele>794</ele>
        <time>2019-05-31T10:26:22Z</time>
      </trkpt>
      <trkpt lat="44.0841" lon="3.18246">
        <ele>793.8</ele>
        <time>2019-05-31T10:26:23Z</time>
      </trkpt>
      <trkpt lat="44.08422" lon="3.18247">
        <ele>793.4</ele>
        <time>2019-05-31T10:26:24Z</time>
      </trkpt>
      <trkpt lat="44.08427" lon="3.18247">
        <ele>793.1</ele>
        <time>2019-05-31T10:26:25Z</time>
      </trkpt>
      <trkpt lat="44.08431" lon="3.18249">
        <ele>793</ele>
        <time>2019-05-31T10:26:26Z</time>
      </trkpt>
      <trkpt lat="44.08436" lon="3.18253">
        <ele>792.7</ele>
        <time>2019-05-31T10:26:27Z</time>
      </trkpt>
      <trkpt lat="44.08442" lon="3.18259">
        <ele>792.3</ele>
        <time>2019-05-31T10:26:29Z</time>
      </trkpt>
      <trkpt lat="44.08447" lon="3.18263">
        <ele>791.7</ele>
        <time>2019-05-31T10:26:30Z</time>
      </trkpt>
      <trkpt lat="44.0845" lon="3.18267">
        <ele>791.3</ele>
        <time>2019-05-31T10:26:31Z</time>
      </trkpt>
      <trkpt lat="44.08454" lon="3.18268">
        <ele>790.8</ele>
        <time>2019-05-31T10:26:32Z</time>
      </trkpt>
      <trkpt lat="44.0846" lon="3.18271">
        <ele>790.4</ele>
        <time>2019-05-31T10:26:33Z</time>
      </trkpt>
      <trkpt lat="44.08464" lon="3.18274">
        <ele>790.1</ele>
        <time>2019-05-31T10:26:34Z</time>
      </trkpt>
      <trkpt lat="44.0847" lon="3.18276">
        <ele>789.5</ele>
        <time>2019-05-31T10:26:35Z</time>
      </trkpt>
      <trkpt lat="44.08477" lon="3.18281">
        <ele>789.3</ele>
        <time>2019-05-31T10:26:36Z</time>
      </trkpt>
      <trkpt lat="44.08488" lon="3.18284">
        <ele>788.9</ele>
        <time>2019-05-31T10:26:37Z</time>
      </trkpt>
      <trkpt lat="44.08489" lon="3.1829">
        <ele>788.8</ele>
        <time>2019-05-31T10:26:38Z</time>
      </trkpt>
      <trkpt lat="44.08498" lon="3.18293">
        <ele>788.5</ele>
        <time>2019-05-31T10:26:39Z</time>
      </trkpt>
      <trkpt lat="44.08505" lon="3.18296">
        <ele>788.4</ele>
        <time>2019-05-31T10:26:40Z</time>
      </trkpt>
      <trkpt lat="44.0851" lon="3.18299">
        <ele>788.3</ele>
        <time>2019-05-31T10:26:41Z</time>
      </trkpt>
      <trkpt lat="44.08517" lon="3.183">
        <ele>788.1</ele>
        <time>2019-05-31T10:26:42Z</time>
      </trkpt>
      <trkpt lat="44.08524" lon="3.18306">
        <ele>787.8</ele>
        <time>2019-05-31T10:26:43Z</time>
      </trkpt>
      <trkpt lat="44.08532" lon="3.1831">
        <ele>787.4</ele>
        <time>2019-05-31T10:26:44Z</time>
      </trkpt>
      <trkpt lat="44.08538" lon="3.18314">
        <ele>787.1</ele>
        <time>2019-05-31T10:26:45Z</time>
      </trkpt>
      <trkpt lat="44.08545" lon="3.18318">
        <ele>786.7</ele>
        <time>2019-05-31T10:26:46Z</time>
      </trkpt>
      <trkpt lat="44.08551" lon="3.1832">
        <ele>786.4</ele>
        <time>2019-05-31T10:26:47Z</time>
      </trkpt>
      <trkpt lat="44.08555" lon="3.18324">
        <ele>786.2</ele>
        <time>2019-05-31T10:26:48Z</time>
      </trkpt>
      <trkpt lat="44.0856" lon="3.18328">
        <ele>785.9</ele>
        <time>2019-05-31T10:26:49Z</time>
      </trkpt>
      <trkpt lat="44.08567" lon="3.1833">
        <ele>785.7</ele>
        <time>2019-05-31T10:26:50Z</time>
      </trkpt>
      <trkpt lat="44.0857" lon="3.18335">
        <ele>785.5</ele>
        <time>2019-05-31T10:26:51Z</time>
      </trkpt>
      <trkpt lat="44.08577" lon="3.18339">
        <ele>785.1</ele>
        <time>2019-05-31T10:26:52Z</time>
      </trkpt>
      <trkpt lat="44.08582" lon="3.18343">
        <ele>784.8</ele>
        <time>2019-05-31T10:26:53Z</time>
      </trkpt>
      <trkpt lat="44.08588" lon="3.18347">
        <ele>784.6</ele>
        <time>2019-05-31T10:26:54Z</time>
      </trkpt>
      <trkpt lat="44.08591" lon="3.18356">
        <ele>784.4</ele>
        <time>2019-05-31T10:26:55Z</time>
      </trkpt>
      <trkpt lat="44.08596" lon="3.1836">
        <ele>784.2</ele>
        <time>2019-05-31T10:26:56Z</time>
      </trkpt>
      <trkpt lat="44.08602" lon="3.18364">
        <ele>783.9</ele>
        <time>2019-05-31T10:26:57Z</time>
      </trkpt>
      <trkpt lat="44.08607" lon="3.18367">
        <ele>783.8</ele>
        <time>2019-05-31T10:26:58Z</time>
      </trkpt>
      <trkpt lat="44.08612" lon="3.1837">
        <ele>783.6</ele>
        <time>2019-05-31T10:26:59Z</time>
      </trkpt>
      <trkpt lat="44.08617" lon="3.18374">
        <ele>783.4</ele>
        <time>2019-05-31T10:27:00Z</time>
      </trkpt>
      <trkpt lat="44.08622" lon="3.1838">
        <ele>783.2</ele>
        <time>2019-05-31T10:27:01Z</time>
      </trkpt>
      <trkpt lat="44.08627" lon="3.18388">
        <ele>783.1</ele>
        <time>2019-05-31T10:27:02Z</time>
      </trkpt>
      <trkpt lat="44.0863" lon="3.18395">
        <ele>783.1</ele>
        <time>2019-05-31T10:27:03Z</time>
      </trkpt>
      <trkpt lat="44.08633" lon="3.18403">
        <ele>783.1</ele>
        <time>2019-05-31T10:27:04Z</time>
      </trkpt>
      <trkpt lat="44.08636" lon="3.18408">
        <ele>783.1</ele>
        <time>2019-05-31T10:27:05Z</time>
      </trkpt>
      <trkpt lat="44.08641" lon="3.18414">
        <ele>783.1</ele>
        <time>2019-05-31T10:27:06Z</time>
      </trkpt>
      <trkpt lat="44.08645" lon="3.1842">
        <ele>783.1</ele>
        <time>2019-05-31T10:27:07Z</time>
      </trkpt>
      <trkpt lat="44.08649" lon="3.18423">
        <ele>783.1</ele>
        <time>2019-05-31T10:27:08Z</time>
      </trkpt>
      <trkpt lat="44.08654" lon="3.18426">
        <ele>783.2</ele>
        <time>2019-05-31T10:27:09Z</time>
      </trkpt>
      <trkpt lat="44.08659" lon="3.18429">
        <ele>783.3</ele>
        <time>2019-05-31T10:27:10Z</time>
      </trkpt>
      <trkpt lat="44.08664" lon="3.18431">
        <ele>783.4</ele>
        <time>2019-05-31T10:27:11Z</time>
      </trkpt>
      <trkpt lat="44.08669" lon="3.18432">
        <ele>783.5</ele>
        <time>2019-05-31T10:27:12Z</time>
      </trkpt>
      <trkpt lat="44.08674" lon="3.18434">
        <ele>783.6</ele>
        <time>2019-05-31T10:27:13Z</time>
      </trkpt>
      <trkpt lat="44.08679" lon="3.18436">
        <ele>783.6</ele>
        <time>2019-05-31T10:27:14Z</time>
      </trkpt>
      <trkpt lat="44.08685" lon="3.18437">
        <ele>783.7</ele>
        <time>2019-05-31T10:27:15Z</time>
      </trkpt>
      <trkpt lat="44.08689" lon="3.1844">
        <ele>783.8</ele>
        <time>2019-05-31T10:27:16Z</time>
      </trkpt>
      <trkpt lat="44.08693" lon="3.18444">
        <ele>783.8</ele>
        <time>2019-05-31T10:27:17Z</time>
      </trkpt>
      <trkpt lat="44.08697" lon="3.18448">
        <ele>783.8</ele>
        <time>2019-05-31T10:27:18Z</time>
      </trkpt>
      <trkpt lat="44.08701" lon="3.1845">
        <ele>783.9</ele>
        <time>2019-05-31T10:27:19Z</time>
      </trkpt>
      <trkpt lat="44.08706" lon="3.18454">
        <ele>783.9</ele>
        <time>2019-05-31T10:27:20Z</time>
      </trkpt>
      <trkpt lat="44.08709" lon="3.18458">
        <ele>783.9</ele>
        <time>2019-05-31T10:27:21Z</time>
      </trkpt>
      <trkpt lat="44.08716" lon="3.1846">
        <ele>783.9</ele>
        <time>2019-05-31T10:27:22Z</time>
      </trkpt>
      <trkpt lat="44.08722" lon="3.1846">
        <ele>784</ele>
        <time>2019-05-31T10:27:23Z</time>
      </trkpt>
      <trkpt lat="44.08726" lon="3.18463">
        <ele>784</ele>
        <time>2019-05-31T10:27:24Z</time>
      </trkpt>
      <trkpt lat="44.0873" lon="3.18466">
        <ele>784.2</ele>
        <time>2019-05-31T10:27:25Z</time>
      </trkpt>
      <trkpt lat="44.08734" lon="3.18468">
        <ele>784.3</ele>
        <time>2019-05-31T10:27:26Z</time>
      </trkpt>
      <trkpt lat="44.08739" lon="3.18469">
        <ele>784.5</ele>
        <time>2019-05-31T10:27:27Z</time>
      </trkpt>
      <trkpt lat="44.08744" lon="3.18471">
        <ele>784.7</ele>
        <time>2019-05-31T10:27:28Z</time>
      </trkpt>
      <trkpt lat="44.08747" lon="3.18476">
        <ele>784.9</ele>
        <time>2019-05-31T10:27:30Z</time>
      </trkpt>
      <trkpt lat="44.08751" lon="3.18476">
        <ele>785.1</ele>
        <time>2019-05-31T10:27:31Z</time>
      </trkpt>
      <trkpt lat="44.08754" lon="3.18478">
        <ele>785.2</ele>
        <time>2019-05-31T10:27:32Z</time>
      </trkpt>
      <trkpt lat="44.08758" lon="3.1848">
        <ele>785.4</ele>
        <time>2019-05-31T10:27:33Z</time>
      </trkpt>
      <trkpt lat="44.08763" lon="3.18487">
        <ele>785.7</ele>
        <time>2019-05-31T10:27:35Z</time>
      </trkpt>
      <trkpt lat="44.08767" lon="3.18489">
        <ele>785.9</ele>
        <time>2019-05-31T10:27:36Z</time>
      </trkpt>
      <trkpt lat="44.0877" lon="3.18492">
        <ele>786.1</ele>
        <time>2019-05-31T10:27:37Z</time>
      </trkpt>
      <trkpt lat="44.08772" lon="3.18495">
        <ele>786.1</ele>
        <time>2019-05-31T10:27:38Z</time>
      </trkpt>
      <trkpt lat="44.08773" lon="3.18499">
        <ele>786.2</ele>
        <time>2019-05-31T10:27:39Z</time>
      </trkpt>
      <trkpt lat="44.08774" lon="3.18504">
        <ele>786.2</ele>
        <time>2019-05-31T10:27:40Z</time>
      </trkpt>
      <trkpt lat="44.08776" lon="3.18509">
        <ele>786.3</ele>
        <time>2019-05-31T10:27:41Z</time>
      </trkpt>
      <trkpt lat="44.08778" lon="3.18512">
        <ele>786.3</ele>
        <time>2019-05-31T10:27:42Z</time>
      </trkpt>
      <trkpt lat="44.0878" lon="3.18515">
        <ele>786.4</ele>
        <time>2019-05-31T10:27:43Z</time>
      </trkpt>
      <trkpt lat="44.08783" lon="3.18517">
        <ele>786.4</ele>
        <time>2019-05-31T10:27:44Z</time>
      </trkpt>
      <trkpt lat="44.08787" lon="3.1852">
        <ele>786.5</ele>
        <time>2019-05-31T10:27:45Z</time>
      </trkpt>
      <trkpt lat="44.08792" lon="3.18523">
        <ele>786.5</ele>
        <time>2019-05-31T10:27:46Z</time>
      </trkpt>
      <trkpt lat="44.08798" lon="3.18529">
        <ele>786.5</ele>
        <time>2019-05-31T10:27:47Z</time>
      </trkpt>
      <trkpt lat="44.08801" lon="3.18532">
        <ele>786.5</ele>
        <time>2019-05-31T10:27:48Z</time>
      </trkpt>
      <trkpt lat="44.08806" lon="3.18534">
        <ele>786.5</ele>
        <time>2019-05-31T10:27:49Z</time>
      </trkpt>
      <trkpt lat="44.08811" lon="3.18536">
        <ele>786.5</ele>
        <time>2019-05-31T10:27:50Z</time>
      </trkpt>
      <trkpt lat="44.08816" lon="3.18536">
        <ele>786.4</ele>
        <time>2019-05-31T10:27:51Z</time>
      </trkpt>
      <trkpt lat="44.0882" lon="3.18535">
        <ele>786.4</ele>
        <time>2019-05-31T10:27:52Z</time>
      </trkpt>
      <trkpt lat="44.08823" lon="3.18534">
        <ele>786.3</ele>
        <time>2019-05-31T10:27:53Z</time>
      </trkpt>
      <trkpt lat="44.0883" lon="3.18533">
        <ele>786.3</ele>
        <time>2019-05-31T10:27:54Z</time>
      </trkpt>
      <trkpt lat="44.08837" lon="3.18532">
        <ele>786.2</ele>
        <time>2019-05-31T10:27:55Z</time>
      </trkpt>
      <trkpt lat="44.08843" lon="3.18534">
        <ele>786.2</ele>
        <time>2019-05-31T10:27:56Z</time>
      </trkpt>
      <trkpt lat="44.08847" lon="3.18536">
        <ele>786.2</ele>
        <time>2019-05-31T10:27:57Z</time>
      </trkpt>
      <trkpt lat="44.08853" lon="3.18536">
        <ele>786.3</ele>
        <time>2019-05-31T10:27:58Z</time>
      </trkpt>
      <trkpt lat="44.08857" lon="3.18536">
        <ele>786.3</ele>
        <time>2019-05-31T10:27:59Z</time>
      </trkpt>
      <trkpt lat="44.08861" lon="3.18535">
        <ele>786.4</ele>
        <time>2019-05-31T10:28:00Z</time>
      </trkpt>
      <trkpt lat="44.08865" lon="3.18535">
        <ele>786.4</ele>
        <time>2019-05-31T10:28:01Z</time>
      </trkpt>
      <trkpt lat="44.08869" lon="3.18533">
        <ele>786.5</ele>
        <time>2019-05-31T10:28:02Z</time>
      </trkpt>
      <trkpt lat="44.08872" lon="3.18533">
        <ele>786.6</ele>
        <time>2019-05-31T10:28:03Z</time>
      </trkpt>
      <trkpt lat="44.08877" lon="3.18533">
        <ele>786.7</ele>
        <time>2019-05-31T10:28:04Z</time>
      </trkpt>
      <trkpt lat="44.0888" lon="3.18535">
        <ele>786.7</ele>
        <time>2019-05-31T10:28:05Z</time>
      </trkpt>
      <trkpt lat="44.08886" lon="3.18535">
        <ele>786.7</ele>
        <time>2019-05-31T10:28:06Z</time>
      </trkpt>
      <trkpt lat="44.0889" lon="3.18535">
        <ele>786.6</ele>
        <time>2019-05-31T10:28:07Z</time>
      </trkpt>
      <trkpt lat="44.08895" lon="3.18533">
        <ele>786.5</ele>
        <time>2019-05-31T10:28:08Z</time>
      </trkpt>
      <trkpt lat="44.08901" lon="3.18532">
        <ele>786.4</ele>
        <time>2019-05-31T10:28:09Z</time>
      </trkpt>
      <trkpt lat="44.08906" lon="3.1853">
        <ele>786.1</ele>
        <time>2019-05-31T10:28:10Z</time>
      </trkpt>
      <trkpt lat="44.0891" lon="3.18528">
        <ele>785.9</ele>
        <time>2019-05-31T10:28:11Z</time>
      </trkpt>
      <trkpt lat="44.08917" lon="3.18525">
        <ele>785.6</ele>
        <time>2019-05-31T10:28:12Z</time>
      </trkpt>
      <trkpt lat="44.08925" lon="3.18521">
        <ele>785.3</ele>
        <time>2019-05-31T10:28:13Z</time>
      </trkpt>
      <trkpt lat="44.08932" lon="3.18517">
        <ele>785</ele>
        <time>2019-05-31T10:28:14Z</time>
      </trkpt>
      <trkpt lat="44.08939" lon="3.18514">
        <ele>784.5</ele>
        <time>2019-05-31T10:28:15Z</time>
      </trkpt>
      <trkpt lat="44.08945" lon="3.18508">
        <ele>784.1</ele>
        <time>2019-05-31T10:28:16Z</time>
      </trkpt>
      <trkpt lat="44.08953" lon="3.18506">
        <ele>783.6</ele>
        <time>2019-05-31T10:28:17Z</time>
      </trkpt>
      <trkpt lat="44.08961" lon="3.18505">
        <ele>783</ele>
        <time>2019-05-31T10:28:18Z</time>
      </trkpt>
      <trkpt lat="44.08965" lon="3.18513">
        <ele>782.7</ele>
        <time>2019-05-31T10:28:19Z</time>
      </trkpt>
      <trkpt lat="44.0897" lon="3.1852">
        <ele>782.4</ele>
        <time>2019-05-31T10:28:20Z</time>
      </trkpt>
      <trkpt lat="44.08973" lon="3.18529">
        <ele>782.1</ele>
        <time>2019-05-31T10:28:21Z</time>
      </trkpt>
      <trkpt lat="44.08978" lon="3.18539">
        <ele>781.7</ele>
        <time>2019-05-31T10:28:22Z</time>
      </trkpt>
      <trkpt lat="44.08983" lon="3.18547">
        <ele>781.3</ele>
        <time>2019-05-31T10:28:23Z</time>
      </trkpt>
      <trkpt lat="44.08988" lon="3.18554">
        <ele>780.8</ele>
        <time>2019-05-31T10:28:24Z</time>
      </trkpt>
      <trkpt lat="44.08992" lon="3.18563">
        <ele>780.4</ele>
        <time>2019-05-31T10:28:25Z</time>
      </trkpt>
      <trkpt lat="44.08997" lon="3.1857">
        <ele>780.1</ele>
        <time>2019-05-31T10:28:26Z</time>
      </trkpt>
      <trkpt lat="44.09003" lon="3.18577">
        <ele>779.4</ele>
        <time>2019-05-31T10:28:27Z</time>
      </trkpt>
      <trkpt lat="44.09012" lon="3.18583">
        <ele>778.3</ele>
        <time>2019-05-31T10:28:28Z</time>
      </trkpt>
      <trkpt lat="44.09018" lon="3.1859">
        <ele>777.5</ele>
        <time>2019-05-31T10:28:29Z</time>
      </trkpt>
      <trkpt lat="44.09023" lon="3.186">
        <ele>776.4</ele>
        <time>2019-05-31T10:28:30Z</time>
      </trkpt>
      <trkpt lat="44.09026" lon="3.18613">
        <ele>775</ele>
        <time>2019-05-31T10:28:31Z</time>
      </trkpt>
      <trkpt lat="44.09029" lon="3.18626">
        <ele>773.4</ele>
        <time>2019-05-31T10:28:32Z</time>
      </trkpt>
      <trkpt lat="44.09029" lon="3.18639">
        <ele>772</ele>
        <time>2019-05-31T10:28:33Z</time>
      </trkpt>
      <trkpt lat="44.09027" lon="3.18651">
        <ele>771.1</ele>
        <time>2019-05-31T10:28:34Z</time>
      </trkpt>
      <trkpt lat="44.09025" lon="3.18664">
        <ele>770.6</ele>
        <time>2019-05-31T10:28:35Z</time>
      </trkpt>
      <trkpt lat="44.09021" lon="3.18675">
        <ele>770.1</ele>
        <time>2019-05-31T10:28:36Z</time>
      </trkpt>
      <trkpt lat="44.09016" lon="3.18685">
        <ele>769.6</ele>
        <time>2019-05-31T10:28:37Z</time>
      </trkpt>
      <trkpt lat="44.0901" lon="3.18698">
        <ele>769.3</ele>
        <time>2019-05-31T10:28:38Z</time>
      </trkpt>
      <trkpt lat="44.09005" lon="3.18708">
        <ele>769</ele>
        <time>2019-05-31T10:28:39Z</time>
      </trkpt>
      <trkpt lat="44.09002" lon="3.18718">
        <ele>768.6</ele>
        <time>2019-05-31T10:28:40Z</time>
      </trkpt>
      <trkpt lat="44.08998" lon="3.18727">
        <ele>768.4</ele>
        <time>2019-05-31T10:28:41Z</time>
      </trkpt>
      <trkpt lat="44.08993" lon="3.18738">
        <ele>768.2</ele>
        <time>2019-05-31T10:28:42Z</time>
      </trkpt>
      <trkpt lat="44.0899" lon="3.18748">
        <ele>768</ele>
        <time>2019-05-31T10:28:43Z</time>
      </trkpt>
      <trkpt lat="44.08986" lon="3.18758">
        <ele>767.7</ele>
        <time>2019-05-31T10:28:44Z</time>
      </trkpt>
      <trkpt lat="44.08984" lon="3.18769">
        <ele>767.5</ele>
        <time>2019-05-31T10:28:45Z</time>
      </trkpt>
      <trkpt lat="44.0898" lon="3.18779">
        <ele>767.3</ele>
        <time>2019-05-31T10:28:46Z</time>
      </trkpt>
      <trkpt lat="44.08978" lon="3.18788">
        <ele>767.1</ele>
        <time>2019-05-31T10:28:47Z</time>
      </trkpt>
      <trkpt lat="44.08975" lon="3.18797">
        <ele>767</ele>
        <time>2019-05-31T10:28:48Z</time>
      </trkpt>
      <trkpt lat="44.08971" lon="3.18805">
        <ele>766.7</ele>
        <time>2019-05-31T10:28:49Z</time>
      </trkpt>
      <trkpt lat="44.08963" lon="3.18814">
        <ele>766.2</ele>
        <time>2019-05-31T10:28:50Z</time>
      </trkpt>
      <trkpt lat="44.08957" lon="3.18819">
        <ele>765.9</ele>
        <time>2019-05-31T10:28:51Z</time>
      </trkpt>
      <trkpt lat="44.08951" lon="3.18826">
        <ele>765.5</ele>
        <time>2019-05-31T10:28:52Z</time>
      </trkpt>
      <trkpt lat="44.08946" lon="3.18836">
        <ele>764.7</ele>
        <time>2019-05-31T10:28:53Z</time>
      </trkpt>
      <trkpt lat="44.08943" lon="3.18848">
        <ele>763.5</ele>
        <time>2019-05-31T10:28:54Z</time>
      </trkpt>
      <trkpt lat="44.0894" lon="3.1886">
        <ele>762.1</ele>
        <time>2019-05-31T10:28:55Z</time>
      </trkpt>
      <trkpt lat="44.08936" lon="3.1887">
        <ele>761.2</ele>
        <time>2019-05-31T10:28:56Z</time>
      </trkpt>
      <trkpt lat="44.08933" lon="3.18876">
        <ele>760.7</ele>
        <time>2019-05-31T10:28:57Z</time>
      </trkpt>
      <trkpt lat="44.08932" lon="3.18884">
        <ele>760.2</ele>
        <time>2019-05-31T10:28:58Z</time>
      </trkpt>
      <trkpt lat="44.08932" lon="3.18889">
        <ele>759.9</ele>
        <time>2019-05-31T10:28:59Z</time>
      </trkpt>
      <trkpt lat="44.08929" lon="3.18896">
        <ele>759.7</ele>
        <time>2019-05-31T10:29:00Z</time>
      </trkpt>
      <trkpt lat="44.08929" lon="3.18902">
        <ele>759.5</ele>
        <time>2019-05-31T10:29:01Z</time>
      </trkpt>
      <trkpt lat="44.08931" lon="3.18907">
        <ele>759.4</ele>
        <time>2019-05-31T10:29:02Z</time>
      </trkpt>
      <trkpt lat="44.08931" lon="3.18911">
        <ele>759.3</ele>
        <time>2019-05-31T10:29:04Z</time>
      </trkpt>
      <trkpt lat="44.08933" lon="3.18917">
        <ele>759.3</ele>
        <time>2019-05-31T10:29:35Z</time>
      </trkpt>
      <trkpt lat="44.08935" lon="3.1892">
        <ele>759.2</ele>
        <time>2019-05-31T10:29:37Z</time>
      </trkpt>
      <trkpt lat="44.08941" lon="3.18922">
        <ele>759.2</ele>
        <time>2019-05-31T10:29:39Z</time>
      </trkpt>
      <trkpt lat="44.08944" lon="3.18923">
        <ele>759.2</ele>
        <time>2019-05-31T10:29:40Z</time>
      </trkpt>
      <trkpt lat="44.08947" lon="3.18923">
        <ele>759.2</ele>
        <time>2019-05-31T10:29:41Z</time>
      </trkpt>
      <trkpt lat="44.0895" lon="3.18924">
        <ele>759.1</ele>
        <time>2019-05-31T10:29:43Z</time>
      </trkpt>
      <trkpt lat="44.08952" lon="3.18926">
        <ele>759.1</ele>
        <time>2019-05-31T10:29:46Z</time>
      </trkpt>
      <trkpt lat="44.08957" lon="3.18929">
        <ele>759.1</ele>
        <time>2019-05-31T10:30:28Z</time>
      </trkpt>
      <trkpt lat="44.08962" lon="3.18935">
        <ele>759</ele>
        <time>2019-05-31T10:30:30Z</time>
      </trkpt>
      <trkpt lat="44.08965" lon="3.18938">
        <ele>759</ele>
        <time>2019-05-31T10:30:31Z</time>
      </trkpt>
      <trkpt lat="44.08968" lon="3.18942">
        <ele>758.9</ele>
        <time>2019-05-31T10:30:32Z</time>
      </trkpt>
      <trkpt lat="44.08973" lon="3.18947">
        <ele>758.7</ele>
        <time>2019-05-31T10:30:33Z</time>
      </trkpt>
      <trkpt lat="44.08976" lon="3.18953">
        <ele>758.6</ele>
        <time>2019-05-31T10:30:34Z</time>
      </trkpt>
      <trkpt lat="44.0898" lon="3.18956">
        <ele>758.5</ele>
        <time>2019-05-31T10:30:35Z</time>
      </trkpt>
      <trkpt lat="44.08986" lon="3.18955">
        <ele>758.4</ele>
        <time>2019-05-31T10:30:36Z</time>
      </trkpt>
      <trkpt lat="44.08989" lon="3.18957">
        <ele>758.3</ele>
        <time>2019-05-31T10:30:37Z</time>
      </trkpt>
      <trkpt lat="44.08991" lon="3.18959">
        <ele>758.2</ele>
        <time>2019-05-31T10:30:38Z</time>
      </trkpt>
      <trkpt lat="44.08998" lon="3.1896">
        <ele>758</ele>
        <time>2019-05-31T10:30:39Z</time>
      </trkpt>
      <trkpt lat="44.09003" lon="3.18961">
        <ele>757.7</ele>
        <time>2019-05-31T10:30:40Z</time>
      </trkpt>
      <trkpt lat="44.09006" lon="3.18963">
        <ele>757.6</ele>
        <time>2019-05-31T10:30:41Z</time>
      </trkpt>
      <trkpt lat="44.09012" lon="3.18968">
        <ele>757.4</ele>
        <time>2019-05-31T10:30:42Z</time>
      </trkpt>
      <trkpt lat="44.09017" lon="3.18975">
        <ele>757.1</ele>
        <time>2019-05-31T10:30:43Z</time>
      </trkpt>
      <trkpt lat="44.09025" lon="3.1898">
        <ele>756.6</ele>
        <time>2019-05-31T10:30:44Z</time>
      </trkpt>
      <trkpt lat="44.09029" lon="3.18986">
        <ele>756.2</ele>
        <time>2019-05-31T10:30:45Z</time>
      </trkpt>
      <trkpt lat="44.09032" lon="3.18988">
        <ele>755.9</ele>
        <time>2019-05-31T10:30:46Z</time>
      </trkpt>
      <trkpt lat="44.09038" lon="3.19">
        <ele>755.3</ele>
        <time>2019-05-31T10:30:47Z</time>
      </trkpt>
      <trkpt lat="44.0904" lon="3.19012">
        <ele>754.6</ele>
        <time>2019-05-31T10:30:48Z</time>
      </trkpt>
      <trkpt lat="44.09044" lon="3.19018">
        <ele>754.2</ele>
        <time>2019-05-31T10:30:49Z</time>
      </trkpt>
      <trkpt lat="44.09052" lon="3.19026">
        <ele>753.3</ele>
        <time>2019-05-31T10:30:50Z</time>
      </trkpt>
      <trkpt lat="44.09058" lon="3.19034">
        <ele>752.8</ele>
        <time>2019-05-31T10:30:51Z</time>
      </trkpt>
      <trkpt lat="44.09064" lon="3.19038">
        <ele>752.2</ele>
        <time>2019-05-31T10:30:52Z</time>
      </trkpt>
      <trkpt lat="44.09075" lon="3.19031">
        <ele>751.4</ele>
        <time>2019-05-31T10:30:53Z</time>
      </trkpt>
      <trkpt lat="44.09081" lon="3.19031">
        <ele>751.1</ele>
        <time>2019-05-31T10:30:54Z</time>
      </trkpt>
      <trkpt lat="44.09089" lon="3.19028">
        <ele>750.5</ele>
        <time>2019-05-31T10:30:55Z</time>
      </trkpt>
      <trkpt lat="44.09092" lon="3.19028">
        <ele>750.3</ele>
        <time>2019-05-31T10:30:56Z</time>
      </trkpt>
      <trkpt lat="44.09095" lon="3.19027">
        <ele>750.2</ele>
        <time>2019-05-31T10:30:57Z</time>
      </trkpt>
      <trkpt lat="44.091" lon="3.19029">
        <ele>749.9</ele>
        <time>2019-05-31T10:30:58Z</time>
      </trkpt>
      <trkpt lat="44.09104" lon="3.19029">
        <ele>749.8</ele>
        <time>2019-05-31T10:30:59Z</time>
      </trkpt>
      <trkpt lat="44.09109" lon="3.19032">
        <ele>749.5</ele>
        <time>2019-05-31T10:31:00Z</time>
      </trkpt>
      <trkpt lat="44.09113" lon="3.19032">
        <ele>749.3</ele>
        <time>2019-05-31T10:31:01Z</time>
      </trkpt>
      <trkpt lat="44.09117" lon="3.19032">
        <ele>749.1</ele>
        <time>2019-05-31T10:31:02Z</time>
      </trkpt>
      <trkpt lat="44.0912" lon="3.19033">
        <ele>749</ele>
        <time>2019-05-31T10:31:04Z</time>
      </trkpt>
      <trkpt lat="44.09124" lon="3.19033">
        <ele>748.8</ele>
        <time>2019-05-31T10:31:05Z</time>
      </trkpt>
      <trkpt lat="44.09128" lon="3.19033">
        <ele>748.5</ele>
        <time>2019-05-31T10:31:07Z</time>
      </trkpt>
      <trkpt lat="44.09133" lon="3.19035">
        <ele>748.3</ele>
        <time>2019-05-31T10:31:09Z</time>
      </trkpt>
      <trkpt lat="44.09136" lon="3.19035">
        <ele>748.2</ele>
        <time>2019-05-31T10:31:10Z</time>
      </trkpt>
      <trkpt lat="44.09139" lon="3.19036">
        <ele>747.9</ele>
        <time>2019-05-31T10:31:11Z</time>
      </trkpt>
      <trkpt lat="44.09142" lon="3.19036">
        <ele>747.7</ele>
        <time>2019-05-31T10:31:12Z</time>
      </trkpt>
      <trkpt lat="44.09145" lon="3.19036">
        <ele>747.6</ele>
        <time>2019-05-31T10:31:13Z</time>
      </trkpt>
      <trkpt lat="44.0915" lon="3.19036">
        <ele>747.5</ele>
        <time>2019-05-31T10:31:15Z</time>
      </trkpt>
      <trkpt lat="44.09154" lon="3.19035">
        <ele>747.3</ele>
        <time>2019-05-31T10:31:16Z</time>
      </trkpt>
      <trkpt lat="44.09159" lon="3.19033">
        <ele>747</ele>
        <time>2019-05-31T10:31:17Z</time>
      </trkpt>
      <trkpt lat="44.09163" lon="3.19031">
        <ele>746.8</ele>
        <time>2019-05-31T10:31:18Z</time>
      </trkpt>
      <trkpt lat="44.09167" lon="3.19029">
        <ele>746.6</ele>
        <time>2019-05-31T10:31:19Z</time>
      </trkpt>
      <trkpt lat="44.09171" lon="3.19028">
        <ele>746.3</ele>
        <time>2019-05-31T10:31:20Z</time>
      </trkpt>
      <trkpt lat="44.09176" lon="3.19026">
        <ele>746</ele>
        <time>2019-05-31T10:31:21Z</time>
      </trkpt>
      <trkpt lat="44.0918" lon="3.19023">
        <ele>746</ele>
        <time>2019-05-31T10:31:22Z</time>
      </trkpt>
      <trkpt lat="44.09184" lon="3.1902">
        <ele>746.1</ele>
        <time>2019-05-31T10:31:23Z</time>
      </trkpt>
      <trkpt lat="44.09187" lon="3.19017">
        <ele>746</ele>
        <time>2019-05-31T10:31:24Z</time>
      </trkpt>
      <trkpt lat="44.0919" lon="3.19014">
        <ele>746</ele>
        <time>2019-05-31T10:31:25Z</time>
      </trkpt>
      <trkpt lat="44.09193" lon="3.19009">
        <ele>746</ele>
        <time>2019-05-31T10:31:27Z</time>
      </trkpt>
      <trkpt lat="44.09196" lon="3.19006">
        <ele>746</ele>
        <time>2019-05-31T10:31:29Z</time>
      </trkpt>
      <trkpt lat="44.09198" lon="3.19004">
        <ele>746</ele>
        <time>2019-05-31T10:31:33Z</time>
      </trkpt>
      <trkpt lat="44.092" lon="3.19001">
        <ele>746</ele>
        <time>2019-05-31T10:31:36Z</time>
      </trkpt>
      <trkpt lat="44.09203" lon="3.18997">
        <ele>746</ele>
        <time>2019-05-31T10:31:42Z</time>
      </trkpt>
      <trkpt lat="44.09206" lon="3.18992">
        <ele>746.1</ele>
        <time>2019-05-31T10:31:44Z</time>
      </trkpt>
      <trkpt lat="44.0921" lon="3.18988">
        <ele>746.6</ele>
        <time>2019-05-31T10:31:46Z</time>
      </trkpt>
      <trkpt lat="44.09212" lon="3.18985">
        <ele>746.9</ele>
        <time>2019-05-31T10:31:47Z</time>
      </trkpt>
      <trkpt lat="44.09215" lon="3.18982">
        <ele>747.1</ele>
        <time>2019-05-31T10:31:48Z</time>
      </trkpt>
      <trkpt lat="44.09219" lon="3.18978">
        <ele>747.2</ele>
        <time>2019-05-31T10:31:50Z</time>
      </trkpt>
      <trkpt lat="44.09222" lon="3.18977">
        <ele>747.3</ele>
        <time>2019-05-31T10:31:51Z</time>
      </trkpt>
      <trkpt lat="44.09225" lon="3.18976">
        <ele>747.1</ele>
        <time>2019-05-31T10:31:52Z</time>
      </trkpt>
      <trkpt lat="44.09229" lon="3.18975">
        <ele>746.9</ele>
        <time>2019-05-31T10:31:53Z</time>
      </trkpt>
      <trkpt lat="44.09232" lon="3.18975">
        <ele>746.7</ele>
        <time>2019-05-31T10:31:54Z</time>
      </trkpt>
      <trkpt lat="44.09235" lon="3.18976">
        <ele>746.5</ele>
        <time>2019-05-31T10:31:55Z</time>
      </trkpt>
      <trkpt lat="44.09239" lon="3.18978">
        <ele>746.4</ele>
        <time>2019-05-31T10:31:56Z</time>
      </trkpt>
      <trkpt lat="44.09243" lon="3.18981">
        <ele>746.2</ele>
        <time>2019-05-31T10:31:57Z</time>
      </trkpt>
      <trkpt lat="44.09247" lon="3.18982">
        <ele>745.9</ele>
        <time>2019-05-31T10:31:58Z</time>
      </trkpt>
      <trkpt lat="44.09251" lon="3.18984">
        <ele>745.6</ele>
        <time>2019-05-31T10:31:59Z</time>
      </trkpt>
      <trkpt lat="44.09255" lon="3.18985">
        <ele>745.4</ele>
        <time>2019-05-31T10:32:00Z</time>
      </trkpt>
      <trkpt lat="44.0926" lon="3.18986">
        <ele>745.3</ele>
        <time>2019-05-31T10:32:01Z</time>
      </trkpt>
      <trkpt lat="44.09264" lon="3.18988">
        <ele>745.2</ele>
        <time>2019-05-31T10:32:02Z</time>
      </trkpt>
      <trkpt lat="44.09268" lon="3.18989">
        <ele>745</ele>
        <time>2019-05-31T10:32:03Z</time>
      </trkpt>
      <trkpt lat="44.09273" lon="3.18989">
        <ele>744.9</ele>
        <time>2019-05-31T10:32:04Z</time>
      </trkpt>
      <trkpt lat="44.09277" lon="3.18989">
        <ele>744.6</ele>
        <time>2019-05-31T10:32:05Z</time>
      </trkpt>
      <trkpt lat="44.09282" lon="3.18988">
        <ele>744.4</ele>
        <time>2019-05-31T10:32:06Z</time>
      </trkpt>
      <trkpt lat="44.09285" lon="3.18986">
        <ele>744.3</ele>
        <time>2019-05-31T10:32:07Z</time>
      </trkpt>
      <trkpt lat="44.09289" lon="3.18984">
        <ele>744.3</ele>
        <time>2019-05-31T10:32:08Z</time>
      </trkpt>
      <trkpt lat="44.09293" lon="3.18982">
        <ele>744.5</ele>
        <time>2019-05-31T10:32:09Z</time>
      </trkpt>
      <trkpt lat="44.09297" lon="3.1898">
        <ele>744.5</ele>
        <time>2019-05-31T10:32:10Z</time>
      </trkpt>
      <trkpt lat="44.09301" lon="3.18979">
        <ele>744.5</ele>
        <time>2019-05-31T10:32:11Z</time>
      </trkpt>
      <trkpt lat="44.09305" lon="3.18977">
        <ele>744.6</ele>
        <time>2019-05-31T10:32:12Z</time>
      </trkpt>
      <trkpt lat="44.09308" lon="3.18976">
        <ele>744.7</ele>
        <time>2019-05-31T10:32:13Z</time>
      </trkpt>
      <trkpt lat="44.09312" lon="3.18975">
        <ele>744.8</ele>
        <time>2019-05-31T10:32:14Z</time>
      </trkpt>
      <trkpt lat="44.09315" lon="3.18974">
        <ele>744.8</ele>
        <time>2019-05-31T10:32:15Z</time>
      </trkpt>
      <trkpt lat="44.09318" lon="3.18974">
        <ele>744.8</ele>
        <time>2019-05-31T10:32:16Z</time>
      </trkpt>
      <trkpt lat="44.09321" lon="3.18973">
        <ele>744.9</ele>
        <time>2019-05-31T10:32:17Z</time>
      </trkpt>
      <trkpt lat="44.09325" lon="3.18973">
        <ele>745</ele>
        <time>2019-05-31T10:32:18Z</time>
      </trkpt>
      <trkpt lat="44.09329" lon="3.18972">
        <ele>745</ele>
        <time>2019-05-31T10:32:19Z</time>
      </trkpt>
      <trkpt lat="44.09332" lon="3.18971">
        <ele>744.9</ele>
        <time>2019-05-31T10:32:20Z</time>
      </trkpt>
      <trkpt lat="44.09336" lon="3.1897">
        <ele>744.7</ele>
        <time>2019-05-31T10:32:21Z</time>
      </trkpt>
      <trkpt lat="44.09342" lon="3.18967">
        <ele>744.8</ele>
        <time>2019-05-31T10:32:22Z</time>
      </trkpt>
      <trkpt lat="44.09346" lon="3.18965">
        <ele>744.6</ele>
        <time>2019-05-31T10:32:23Z</time>
      </trkpt>
      <trkpt lat="44.0935" lon="3.18962">
        <ele>744.3</ele>
        <time>2019-05-31T10:32:24Z</time>
      </trkpt>
      <trkpt lat="44.09354" lon="3.1896">
        <ele>744.2</ele>
        <time>2019-05-31T10:32:25Z</time>
      </trkpt>
      <trkpt lat="44.09359" lon="3.18957">
        <ele>744.1</ele>
        <time>2019-05-31T10:32:26Z</time>
      </trkpt>
      <trkpt lat="44.09363" lon="3.18954">
        <ele>744</ele>
        <time>2019-05-31T10:32:27Z</time>
      </trkpt>
      <trkpt lat="44.09366" lon="3.18952">
        <ele>744</ele>
        <time>2019-05-31T10:32:28Z</time>
      </trkpt>
      <trkpt lat="44.09369" lon="3.18949">
        <ele>744</ele>
        <time>2019-05-31T10:32:29Z</time>
      </trkpt>
      <trkpt lat="44.09373" lon="3.18946">
        <ele>744.1</ele>
        <time>2019-05-31T10:32:30Z</time>
      </trkpt>
      <trkpt lat="44.09376" lon="3.18945">
        <ele>744.3</ele>
        <time>2019-05-31T10:32:31Z</time>
      </trkpt>
      <trkpt lat="44.0938" lon="3.18942">
        <ele>744.4</ele>
        <time>2019-05-31T10:32:32Z</time>
      </trkpt>
      <trkpt lat="44.09383" lon="3.1894">
        <ele>744.4</ele>
        <time>2019-05-31T10:32:33Z</time>
      </trkpt>
      <trkpt lat="44.09386" lon="3.18938">
        <ele>744.5</ele>
        <time>2019-05-31T10:32:34Z</time>
      </trkpt>
      <trkpt lat="44.0939" lon="3.18936">
        <ele>744.5</ele>
        <time>2019-05-31T10:32:35Z</time>
      </trkpt>
      <trkpt lat="44.09393" lon="3.18935">
        <ele>744.4</ele>
        <time>2019-05-31T10:32:36Z</time>
      </trkpt>
      <trkpt lat="44.09396" lon="3.18933">
        <ele>744.4</ele>
        <time>2019-05-31T10:32:37Z</time>
      </trkpt>
      <trkpt lat="44.094" lon="3.18931">
        <ele>744.3</ele>
        <time>2019-05-31T10:32:38Z</time>
      </trkpt>
      <trkpt lat="44.09404" lon="3.18929">
        <ele>744.1</ele>
        <time>2019-05-31T10:32:39Z</time>
      </trkpt>
      <trkpt lat="44.09408" lon="3.18927">
        <ele>743.7</ele>
        <time>2019-05-31T10:32:40Z</time>
      </trkpt>
      <trkpt lat="44.09412" lon="3.18926">
        <ele>743.4</ele>
        <time>2019-05-31T10:32:41Z</time>
      </trkpt>
      <trkpt lat="44.09417" lon="3.18925">
        <ele>743.2</ele>
        <time>2019-05-31T10:32:42Z</time>
      </trkpt>
      <trkpt lat="44.09424" lon="3.18923">
        <ele>742.6</ele>
        <time>2019-05-31T10:32:43Z</time>
      </trkpt>
      <trkpt lat="44.09429" lon="3.18922">
        <ele>742.2</ele>
        <time>2019-05-31T10:32:44Z</time>
      </trkpt>
      <trkpt lat="44.09434" lon="3.18922">
        <ele>742</ele>
        <time>2019-05-31T10:32:45Z</time>
      </trkpt>
      <trkpt lat="44.09439" lon="3.18919">
        <ele>741.7</ele>
        <time>2019-05-31T10:32:46Z</time>
      </trkpt>
      <trkpt lat="44.09446" lon="3.18917">
        <ele>741.4</ele>
        <time>2019-05-31T10:32:47Z</time>
      </trkpt>
      <trkpt lat="44.09453" lon="3.18915">
        <ele>741</ele>
        <time>2019-05-31T10:32:48Z</time>
      </trkpt>
      <trkpt lat="44.0946" lon="3.18913">
        <ele>740.5</ele>
        <time>2019-05-31T10:32:49Z</time>
      </trkpt>
      <trkpt lat="44.09467" lon="3.18912">
        <ele>740.1</ele>
        <time>2019-05-31T10:32:50Z</time>
      </trkpt>
      <trkpt lat="44.09474" lon="3.18912">
        <ele>739.7</ele>
        <time>2019-05-31T10:32:51Z</time>
      </trkpt>
      <trkpt lat="44.0948" lon="3.18912">
        <ele>739.5</ele>
        <time>2019-05-31T10:32:52Z</time>
      </trkpt>
      <trkpt lat="44.09486" lon="3.1891">
        <ele>739.4</ele>
        <time>2019-05-31T10:32:53Z</time>
      </trkpt>
      <trkpt lat="44.09491" lon="3.18911">
        <ele>739</ele>
        <time>2019-05-31T10:32:54Z</time>
      </trkpt>
      <trkpt lat="44.09497" lon="3.18909">
        <ele>738.5</ele>
        <time>2019-05-31T10:32:55Z</time>
      </trkpt>
      <trkpt lat="44.09502" lon="3.18912">
        <ele>738.2</ele>
        <time>2019-05-31T10:32:56Z</time>
      </trkpt>
      <trkpt lat="44.09508" lon="3.18915">
        <ele>737.8</ele>
        <time>2019-05-31T10:32:57Z</time>
      </trkpt>
      <trkpt lat="44.09514" lon="3.18917">
        <ele>737.4</ele>
        <time>2019-05-31T10:32:58Z</time>
      </trkpt>
      <trkpt lat="44.09519" lon="3.18921">
        <ele>737.2</ele>
        <time>2019-05-31T10:32:59Z</time>
      </trkpt>
      <trkpt lat="44.09524" lon="3.18925">
        <ele>736.9</ele>
        <time>2019-05-31T10:33:00Z</time>
      </trkpt>
      <trkpt lat="44.09529" lon="3.18928">
        <ele>736.7</ele>
        <time>2019-05-31T10:33:01Z</time>
      </trkpt>
      <trkpt lat="44.09535" lon="3.18931">
        <ele>736.5</ele>
        <time>2019-05-31T10:33:02Z</time>
      </trkpt>
      <trkpt lat="44.0954" lon="3.18933">
        <ele>736.4</ele>
        <time>2019-05-31T10:33:03Z</time>
      </trkpt>
      <trkpt lat="44.09546" lon="3.18935">
        <ele>736.4</ele>
        <time>2019-05-31T10:33:04Z</time>
      </trkpt>
      <trkpt lat="44.0955" lon="3.18937">
        <ele>736.2</ele>
        <time>2019-05-31T10:33:05Z</time>
      </trkpt>
      <trkpt lat="44.09554" lon="3.1894">
        <ele>736.1</ele>
        <time>2019-05-31T10:33:06Z</time>
      </trkpt>
      <trkpt lat="44.09559" lon="3.18942">
        <ele>735.9</ele>
        <time>2019-05-31T10:33:07Z</time>
      </trkpt>
      <trkpt lat="44.09562" lon="3.18945">
        <ele>735.7</ele>
        <time>2019-05-31T10:33:08Z</time>
      </trkpt>
      <trkpt lat="44.09568" lon="3.18949">
        <ele>735.4</ele>
        <time>2019-05-31T10:33:09Z</time>
      </trkpt>
      <trkpt lat="44.09572" lon="3.18951">
        <ele>735.2</ele>
        <time>2019-05-31T10:33:10Z</time>
      </trkpt>
      <trkpt lat="44.09578" lon="3.1895">
        <ele>734.9</ele>
        <time>2019-05-31T10:33:11Z</time>
      </trkpt>
      <trkpt lat="44.09581" lon="3.1895">
        <ele>734.7</ele>
        <time>2019-05-31T10:33:12Z</time>
      </trkpt>
      <trkpt lat="44.09587" lon="3.18949">
        <ele>734.4</ele>
        <time>2019-05-31T10:33:13Z</time>
      </trkpt>
      <trkpt lat="44.09593" lon="3.18948">
        <ele>734.2</ele>
        <time>2019-05-31T10:33:14Z</time>
      </trkpt>
      <trkpt lat="44.09598" lon="3.18949">
        <ele>734.1</ele>
        <time>2019-05-31T10:33:15Z</time>
      </trkpt>
      <trkpt lat="44.09603" lon="3.18948">
        <ele>734</ele>
        <time>2019-05-31T10:33:16Z</time>
      </trkpt>
      <trkpt lat="44.09608" lon="3.18948">
        <ele>733.9</ele>
        <time>2019-05-31T10:33:17Z</time>
      </trkpt>
      <trkpt lat="44.09612" lon="3.18947">
        <ele>733.8</ele>
        <time>2019-05-31T10:33:18Z</time>
      </trkpt>
      <trkpt lat="44.09617" lon="3.18946">
        <ele>733.7</ele>
        <time>2019-05-31T10:33:19Z</time>
      </trkpt>
      <trkpt lat="44.09621" lon="3.18946">
        <ele>733.6</ele>
        <time>2019-05-31T10:33:20Z</time>
      </trkpt>
      <trkpt lat="44.09624" lon="3.18945">
        <ele>733.5</ele>
        <time>2019-05-31T10:33:21Z</time>
      </trkpt>
      <trkpt lat="44.09627" lon="3.18951">
        <ele>733.4</ele>
        <time>2019-05-31T10:33:23Z</time>
      </trkpt>
      <trkpt lat="44.09632" lon="3.18954">
        <ele>733.3</ele>
        <time>2019-05-31T10:33:24Z</time>
      </trkpt>
      <trkpt lat="44.09639" lon="3.18958">
        <ele>733.1</ele>
        <time>2019-05-31T10:33:25Z</time>
      </trkpt>
      <trkpt lat="44.09643" lon="3.18963">
        <ele>733</ele>
        <time>2019-05-31T10:33:26Z</time>
      </trkpt>
      <trkpt lat="44.09646" lon="3.18967">
        <ele>732.9</ele>
        <time>2019-05-31T10:33:27Z</time>
      </trkpt>
      <trkpt lat="44.09651" lon="3.18971">
        <ele>732.8</ele>
        <time>2019-05-31T10:33:28Z</time>
      </trkpt>
      <trkpt lat="44.09654" lon="3.18983">
        <ele>732.3</ele>
        <time>2019-05-31T10:33:29Z</time>
      </trkpt>
      <trkpt lat="44.09655" lon="3.18989">
        <ele>731.9</ele>
        <time>2019-05-31T10:33:30Z</time>
      </trkpt>
      <trkpt lat="44.09656" lon="3.18998">
        <ele>731.2</ele>
        <time>2019-05-31T10:33:31Z</time>
      </trkpt>
      <trkpt lat="44.09661" lon="3.19008">
        <ele>730.7</ele>
        <time>2019-05-31T10:33:32Z</time>
      </trkpt>
      <trkpt lat="44.09663" lon="3.19015">
        <ele>730.4</ele>
        <time>2019-05-31T10:33:33Z</time>
      </trkpt>
      <trkpt lat="44.09667" lon="3.19026">
        <ele>730.2</ele>
        <time>2019-05-31T10:33:34Z</time>
      </trkpt>
      <trkpt lat="44.09671" lon="3.19033">
        <ele>730.1</ele>
        <time>2019-05-31T10:33:35Z</time>
      </trkpt>
      <trkpt lat="44.09676" lon="3.19039">
        <ele>730.2</ele>
        <time>2019-05-31T10:33:36Z</time>
      </trkpt>
      <trkpt lat="44.09682" lon="3.19043">
        <ele>730.3</ele>
        <time>2019-05-31T10:33:37Z</time>
      </trkpt>
      <trkpt lat="44.09688" lon="3.19046">
        <ele>730.5</ele>
        <time>2019-05-31T10:33:38Z</time>
      </trkpt>
      <trkpt lat="44.09691" lon="3.19049">
        <ele>730.6</ele>
        <time>2019-05-31T10:33:39Z</time>
      </trkpt>
      <trkpt lat="44.09695" lon="3.19053">
        <ele>730.7</ele>
        <time>2019-05-31T10:33:40Z</time>
      </trkpt>
      <trkpt lat="44.09698" lon="3.19056">
        <ele>730.9</ele>
        <time>2019-05-31T10:33:41Z</time>
      </trkpt>
      <trkpt lat="44.09702" lon="3.19059">
        <ele>731.2</ele>
        <time>2019-05-31T10:33:42Z</time>
      </trkpt>
      <trkpt lat="44.09705" lon="3.19063">
        <ele>731.4</ele>
        <time>2019-05-31T10:33:43Z</time>
      </trkpt>
      <trkpt lat="44.09708" lon="3.19067">
        <ele>731.6</ele>
        <time>2019-05-31T10:33:44Z</time>
      </trkpt>
      <trkpt lat="44.0971" lon="3.1907">
        <ele>731.7</ele>
        <time>2019-05-31T10:33:45Z</time>
      </trkpt>
      <trkpt lat="44.09713" lon="3.19074">
        <ele>732</ele>
        <time>2019-05-31T10:33:46Z</time>
      </trkpt>
      <trkpt lat="44.09717" lon="3.19076">
        <ele>732.4</ele>
        <time>2019-05-31T10:33:47Z</time>
      </trkpt>
      <trkpt lat="44.09722" lon="3.19078">
        <ele>732.9</ele>
        <time>2019-05-31T10:33:48Z</time>
      </trkpt>
      <trkpt lat="44.09724" lon="3.19081">
        <ele>733.2</ele>
        <time>2019-05-31T10:33:49Z</time>
      </trkpt>
      <trkpt lat="44.09726" lon="3.19084">
        <ele>733.3</ele>
        <time>2019-05-31T10:33:50Z</time>
      </trkpt>
      <trkpt lat="44.09729" lon="3.19087">
        <ele>733.5</ele>
        <time>2019-05-31T10:33:51Z</time>
      </trkpt>
      <trkpt lat="44.09731" lon="3.1909">
        <ele>733.5</ele>
        <time>2019-05-31T10:33:52Z</time>
      </trkpt>
      <trkpt lat="44.09735" lon="3.19095">
        <ele>733.3</ele>
        <time>2019-05-31T10:33:54Z</time>
      </trkpt>
      <trkpt lat="44.0974" lon="3.19097">
        <ele>733</ele>
        <time>2019-05-31T10:33:56Z</time>
      </trkpt>
      <trkpt lat="44.09743" lon="3.19094">
        <ele>732.8</ele>
        <time>2019-05-31T10:33:57Z</time>
      </trkpt>
      <trkpt lat="44.09746" lon="3.19089">
        <ele>732.3</ele>
        <time>2019-05-31T10:33:58Z</time>
      </trkpt>
      <trkpt lat="44.09748" lon="3.19084">
        <ele>731.8</ele>
        <time>2019-05-31T10:33:59Z</time>
      </trkpt>
      <trkpt lat="44.09751" lon="3.19078">
        <ele>731.1</ele>
        <time>2019-05-31T10:34:00Z</time>
      </trkpt>
      <trkpt lat="44.09754" lon="3.19076">
        <ele>730.9</ele>
        <time>2019-05-31T10:34:01Z</time>
      </trkpt>
      <trkpt lat="44.0976" lon="3.19071">
        <ele>730.5</ele>
        <time>2019-05-31T10:34:02Z</time>
      </trkpt>
      <trkpt lat="44.09765" lon="3.19067">
        <ele>730</ele>
        <time>2019-05-31T10:34:03Z</time>
      </trkpt>
      <trkpt lat="44.0977" lon="3.19064">
        <ele>729.6</ele>
        <time>2019-05-31T10:34:04Z</time>
      </trkpt>
      <trkpt lat="44.09775" lon="3.19059">
        <ele>729.1</ele>
        <time>2019-05-31T10:34:05Z</time>
      </trkpt>
      <trkpt lat="44.09782" lon="3.19053">
        <ele>728.2</ele>
        <time>2019-05-31T10:34:06Z</time>
      </trkpt>
      <trkpt lat="44.09787" lon="3.1905">
        <ele>727.7</ele>
        <time>2019-05-31T10:34:07Z</time>
      </trkpt>
      <trkpt lat="44.09792" lon="3.19049">
        <ele>727.3</ele>
        <time>2019-05-31T10:34:08Z</time>
      </trkpt>
      <trkpt lat="44.09796" lon="3.19045">
        <ele>726.8</ele>
        <time>2019-05-31T10:34:09Z</time>
      </trkpt>
      <trkpt lat="44.09803" lon="3.19042">
        <ele>726.1</ele>
        <time>2019-05-31T10:34:10Z</time>
      </trkpt>
      <trkpt lat="44.09808" lon="3.19036">
        <ele>725.5</ele>
        <time>2019-05-31T10:34:11Z</time>
      </trkpt>
      <trkpt lat="44.09809" lon="3.19029">
        <ele>725.2</ele>
        <time>2019-05-31T10:34:12Z</time>
      </trkpt>
      <trkpt lat="44.09817" lon="3.19023">
        <ele>724.6</ele>
        <time>2019-05-31T10:34:13Z</time>
      </trkpt>
      <trkpt lat="44.09822" lon="3.19018">
        <ele>724.2</ele>
        <time>2019-05-31T10:34:14Z</time>
      </trkpt>
      <trkpt lat="44.0983" lon="3.19014">
        <ele>723.5</ele>
        <time>2019-05-31T10:34:15Z</time>
      </trkpt>
      <trkpt lat="44.09836" lon="3.19008">
        <ele>723</ele>
        <time>2019-05-31T10:34:16Z</time>
      </trkpt>
      <trkpt lat="44.09844" lon="3.19008">
        <ele>722.5</ele>
        <time>2019-05-31T10:34:17Z</time>
      </trkpt>
      <trkpt lat="44.09851" lon="3.19008">
        <ele>722.1</ele>
        <time>2019-05-31T10:34:18Z</time>
      </trkpt>
      <trkpt lat="44.09856" lon="3.19003">
        <ele>721.9</ele>
        <time>2019-05-31T10:34:19Z</time>
      </trkpt>
      <trkpt lat="44.09863" lon="3.19001">
        <ele>722</ele>
        <time>2019-05-31T10:34:20Z</time>
      </trkpt>
      <trkpt lat="44.0987" lon="3.19001">
        <ele>721.7</ele>
        <time>2019-05-31T10:34:21Z</time>
      </trkpt>
      <trkpt lat="44.09878" lon="3.18997">
        <ele>721.8</ele>
        <time>2019-05-31T10:34:22Z</time>
      </trkpt>
      <trkpt lat="44.09884" lon="3.18996">
        <ele>721.5</ele>
        <time>2019-05-31T10:34:23Z</time>
      </trkpt>
      <trkpt lat="44.09889" lon="3.18992">
        <ele>721.2</ele>
        <time>2019-05-31T10:34:24Z</time>
      </trkpt>
      <trkpt lat="44.09896" lon="3.18989">
        <ele>720.9</ele>
        <time>2019-05-31T10:34:25Z</time>
      </trkpt>
      <trkpt lat="44.09899" lon="3.18983">
        <ele>720.6</ele>
        <time>2019-05-31T10:34:26Z</time>
      </trkpt>
      <trkpt lat="44.09907" lon="3.18979">
        <ele>720.1</ele>
        <time>2019-05-31T10:34:27Z</time>
      </trkpt>
      <trkpt lat="44.09912" lon="3.18975">
        <ele>719.8</ele>
        <time>2019-05-31T10:34:28Z</time>
      </trkpt>
      <trkpt lat="44.09919" lon="3.1897">
        <ele>719.8</ele>
        <time>2019-05-31T10:34:29Z</time>
      </trkpt>
      <trkpt lat="44.09925" lon="3.18966">
        <ele>720</ele>
        <time>2019-05-31T10:34:30Z</time>
      </trkpt>
      <trkpt lat="44.09929" lon="3.18958">
        <ele>719.8</ele>
        <time>2019-05-31T10:34:31Z</time>
      </trkpt>
      <trkpt lat="44.09933" lon="3.18952">
        <ele>719.4</ele>
        <time>2019-05-31T10:34:32Z</time>
      </trkpt>
      <trkpt lat="44.09938" lon="3.18947">
        <ele>719.2</ele>
        <time>2019-05-31T10:34:33Z</time>
      </trkpt>
      <trkpt lat="44.09945" lon="3.18944">
        <ele>718.6</ele>
        <time>2019-05-31T10:34:34Z</time>
      </trkpt>
      <trkpt lat="44.09951" lon="3.18943">
        <ele>718.2</ele>
        <time>2019-05-31T10:34:35Z</time>
      </trkpt>
      <trkpt lat="44.09958" lon="3.18939">
        <ele>718</ele>
        <time>2019-05-31T10:34:36Z</time>
      </trkpt>
      <trkpt lat="44.09964" lon="3.18938">
        <ele>718</ele>
        <time>2019-05-31T10:34:37Z</time>
      </trkpt>
      <trkpt lat="44.0997" lon="3.18932">
        <ele>717.5</ele>
        <time>2019-05-31T10:34:38Z</time>
      </trkpt>
      <trkpt lat="44.09975" lon="3.18928">
        <ele>717.3</ele>
        <time>2019-05-31T10:34:39Z</time>
      </trkpt>
      <trkpt lat="44.0998" lon="3.18924">
        <ele>717.4</ele>
        <time>2019-05-31T10:34:40Z</time>
      </trkpt>
      <trkpt lat="44.09986" lon="3.1892">
        <ele>717.3</ele>
        <time>2019-05-31T10:34:41Z</time>
      </trkpt>
      <trkpt lat="44.09991" lon="3.18919">
        <ele>717.5</ele>
        <time>2019-05-31T10:34:42Z</time>
      </trkpt>
      <trkpt lat="44.09998" lon="3.18917">
        <ele>718.3</ele>
        <time>2019-05-31T10:34:43Z</time>
      </trkpt>
      <trkpt lat="44.10005" lon="3.18918">
        <ele>718.4</ele>
        <time>2019-05-31T10:34:44Z</time>
      </trkpt>
      <trkpt lat="44.10015" lon="3.18914">
        <ele>719.5</ele>
        <time>2019-05-31T10:34:45Z</time>
      </trkpt>
      <trkpt lat="44.10022" lon="3.1891">
        <ele>719.6</ele>
        <time>2019-05-31T10:34:46Z</time>
      </trkpt>
      <trkpt lat="44.10029" lon="3.18903">
        <ele>720</ele>
        <time>2019-05-31T10:34:47Z</time>
      </trkpt>
      <trkpt lat="44.10034" lon="3.18897">
        <ele>720.3</ele>
        <time>2019-05-31T10:34:48Z</time>
      </trkpt>
      <trkpt lat="44.10041" lon="3.1889">
        <ele>720.6</ele>
        <time>2019-05-31T10:34:49Z</time>
      </trkpt>
      <trkpt lat="44.10049" lon="3.18884">
        <ele>721.6</ele>
        <time>2019-05-31T10:34:50Z</time>
      </trkpt>
      <trkpt lat="44.1006" lon="3.18882">
        <ele>723.1</ele>
        <time>2019-05-31T10:34:51Z</time>
      </trkpt>
      <trkpt lat="44.10065" lon="3.1888">
        <ele>724</ele>
        <time>2019-05-31T10:34:52Z</time>
      </trkpt>
      <trkpt lat="44.10067" lon="3.18875">
        <ele>724</ele>
        <time>2019-05-31T10:34:53Z</time>
      </trkpt>
      <trkpt lat="44.10065" lon="3.1887">
        <ele>724.2</ele>
        <time>2019-05-31T10:34:54Z</time>
      </trkpt>
      <trkpt lat="44.10063" lon="3.18864">
        <ele>724.4</ele>
        <time>2019-05-31T10:34:55Z</time>
      </trkpt>
      <trkpt lat="44.10061" lon="3.1886">
        <ele>724.6</ele>
        <time>2019-05-31T10:34:56Z</time>
      </trkpt>
      <trkpt lat="44.10059" lon="3.18854">
        <ele>724.8</ele>
        <time>2019-05-31T10:34:57Z</time>
      </trkpt>
      <trkpt lat="44.10055" lon="3.18851">
        <ele>724.9</ele>
        <time>2019-05-31T10:34:58Z</time>
      </trkpt>
      <trkpt lat="44.10052" lon="3.18845">
        <ele>725</ele>
        <time>2019-05-31T10:34:59Z</time>
      </trkpt>
      <trkpt lat="44.10052" lon="3.18841">
        <ele>725.1</ele>
        <time>2019-05-31T10:35:00Z</time>
      </trkpt>
      <trkpt lat="44.10047" lon="3.18839">
        <ele>725.2</ele>
        <time>2019-05-31T10:35:01Z</time>
      </trkpt>
      <trkpt lat="44.10046" lon="3.18834">
        <ele>725.3</ele>
        <time>2019-05-31T10:35:02Z</time>
      </trkpt>
      <trkpt lat="44.10045" lon="3.1883">
        <ele>725.4</ele>
        <time>2019-05-31T10:35:03Z</time>
      </trkpt>
      <trkpt lat="44.10043" lon="3.18824">
        <ele>725.5</ele>
        <time>2019-05-31T10:35:05Z</time>
      </trkpt>
      <trkpt lat="44.1004" lon="3.18821">
        <ele>725.6</ele>
        <time>2019-05-31T10:35:06Z</time>
      </trkpt>
      <trkpt lat="44.10038" lon="3.18817">
        <ele>725.7</ele>
        <time>2019-05-31T10:35:07Z</time>
      </trkpt>
      <trkpt lat="44.10035" lon="3.18814">
        <ele>725.7</ele>
        <time>2019-05-31T10:35:08Z</time>
      </trkpt>
      <trkpt lat="44.10033" lon="3.1881">
        <ele>725.8</ele>
        <time>2019-05-31T10:35:09Z</time>
      </trkpt>
      <trkpt lat="44.10031" lon="3.18805">
        <ele>726</ele>
        <time>2019-05-31T10:35:10Z</time>
      </trkpt>
      <trkpt lat="44.10028" lon="3.188">
        <ele>726.1</ele>
        <time>2019-05-31T10:35:11Z</time>
      </trkpt>
      <trkpt lat="44.10026" lon="3.18795">
        <ele>726.3</ele>
        <time>2019-05-31T10:35:12Z</time>
      </trkpt>
      <trkpt lat="44.10024" lon="3.18789">
        <ele>726.5</ele>
        <time>2019-05-31T10:35:13Z</time>
      </trkpt>
      <trkpt lat="44.10023" lon="3.18784">
        <ele>726.8</ele>
        <time>2019-05-31T10:35:14Z</time>
      </trkpt>
      <trkpt lat="44.10022" lon="3.18781">
        <ele>727</ele>
        <time>2019-05-31T10:35:15Z</time>
      </trkpt>
      <trkpt lat="44.10021" lon="3.18777">
        <ele>727.2</ele>
        <time>2019-05-31T10:35:16Z</time>
      </trkpt>
      <trkpt lat="44.1002" lon="3.18773">
        <ele>727.4</ele>
        <time>2019-05-31T10:35:17Z</time>
      </trkpt>
      <trkpt lat="44.10019" lon="3.18769">
        <ele>727.6</ele>
        <time>2019-05-31T10:35:18Z</time>
      </trkpt>
      <trkpt lat="44.10018" lon="3.18765">
        <ele>727.8</ele>
        <time>2019-05-31T10:35:19Z</time>
      </trkpt>
      <trkpt lat="44.10017" lon="3.1876">
        <ele>728.1</ele>
        <time>2019-05-31T10:35:20Z</time>
      </trkpt>
      <trkpt lat="44.10016" lon="3.18756">
        <ele>728.3</ele>
        <time>2019-05-31T10:35:21Z</time>
      </trkpt>
      <trkpt lat="44.10016" lon="3.18752">
        <ele>728.5</ele>
        <time>2019-05-31T10:35:22Z</time>
      </trkpt>
      <trkpt lat="44.10014" lon="3.18745">
        <ele>728.8</ele>
        <time>2019-05-31T10:35:24Z</time>
      </trkpt>
      <trkpt lat="44.10013" lon="3.18742">
        <ele>728.9</ele>
        <time>2019-05-31T10:35:25Z</time>
      </trkpt>
      <trkpt lat="44.10011" lon="3.18738">
        <ele>729.1</ele>
        <time>2019-05-31T10:35:26Z</time>
      </trkpt>
      <trkpt lat="44.1001" lon="3.18734">
        <ele>729.2</ele>
        <time>2019-05-31T10:35:27Z</time>
      </trkpt>
      <trkpt lat="44.10008" lon="3.18731">
        <ele>729.3</ele>
        <time>2019-05-31T10:35:28Z</time>
      </trkpt>
      <trkpt lat="44.10006" lon="3.18724">
        <ele>729.4</ele>
        <time>2019-05-31T10:35:30Z</time>
      </trkpt>
      <trkpt lat="44.10005" lon="3.1872">
        <ele>729.5</ele>
        <time>2019-05-31T10:35:31Z</time>
      </trkpt>
      <trkpt lat="44.10003" lon="3.18714">
        <ele>729.6</ele>
        <time>2019-05-31T10:35:33Z</time>
      </trkpt>
      <trkpt lat="44.10001" lon="3.18707">
        <ele>729.7</ele>
        <time>2019-05-31T10:35:35Z</time>
      </trkpt>
      <trkpt lat="44.09999" lon="3.18704">
        <ele>729.7</ele>
        <time>2019-05-31T10:35:36Z</time>
      </trkpt>
      <trkpt lat="44.09997" lon="3.18697">
        <ele>729.8</ele>
        <time>2019-05-31T10:35:38Z</time>
      </trkpt>
      <trkpt lat="44.09996" lon="3.18693">
        <ele>729.8</ele>
        <time>2019-05-31T10:35:39Z</time>
      </trkpt>
      <trkpt lat="44.09995" lon="3.18688">
        <ele>729.9</ele>
        <time>2019-05-31T10:35:40Z</time>
      </trkpt>
      <trkpt lat="44.09995" lon="3.18683">
        <ele>729.9</ele>
        <time>2019-05-31T10:35:41Z</time>
      </trkpt>
      <trkpt lat="44.09995" lon="3.18676">
        <ele>730</ele>
        <time>2019-05-31T10:35:43Z</time>
      </trkpt>
      <trkpt lat="44.09995" lon="3.18673">
        <ele>730</ele>
        <time>2019-05-31T10:35:44Z</time>
      </trkpt>
      <trkpt lat="44.09994" lon="3.18668">
        <ele>730.1</ele>
        <time>2019-05-31T10:35:45Z</time>
      </trkpt>
      <trkpt lat="44.09994" lon="3.18661">
        <ele>730.2</ele>
        <time>2019-05-31T10:35:47Z</time>
      </trkpt>
      <trkpt lat="44.09994" lon="3.18655">
        <ele>730.3</ele>
        <time>2019-05-31T10:35:49Z</time>
      </trkpt>
      <trkpt lat="44.09996" lon="3.18651">
        <ele>730.4</ele>
        <time>2019-05-31T10:35:51Z</time>
      </trkpt>
      <trkpt lat="44.1" lon="3.18645">
        <ele>730.5</ele>
        <time>2019-05-31T10:35:53Z</time>
      </trkpt>
      <trkpt lat="44.10002" lon="3.18642">
        <ele>730.7</ele>
        <time>2019-05-31T10:35:54Z</time>
      </trkpt>
      <trkpt lat="44.10004" lon="3.18639">
        <ele>730.8</ele>
        <time>2019-05-31T10:35:55Z</time>
      </trkpt>
      <trkpt lat="44.10006" lon="3.18636">
        <ele>730.9</ele>
        <time>2019-05-31T10:35:56Z</time>
      </trkpt>
      <trkpt lat="44.10008" lon="3.18633">
        <ele>731</ele>
        <time>2019-05-31T10:35:57Z</time>
      </trkpt>
      <trkpt lat="44.1001" lon="3.18627">
        <ele>731.2</ele>
        <time>2019-05-31T10:35:59Z</time>
      </trkpt>
      <trkpt lat="44.10013" lon="3.1862">
        <ele>731.4</ele>
        <time>2019-05-31T10:36:01Z</time>
      </trkpt>
      <trkpt lat="44.10014" lon="3.18617">
        <ele>731.5</ele>
        <time>2019-05-31T10:36:02Z</time>
      </trkpt>
      <trkpt lat="44.10016" lon="3.18612">
        <ele>731.6</ele>
        <time>2019-05-31T10:36:03Z</time>
      </trkpt>
      <trkpt lat="44.10018" lon="3.18608">
        <ele>731.8</ele>
        <time>2019-05-31T10:36:04Z</time>
      </trkpt>
      <trkpt lat="44.10021" lon="3.18603">
        <ele>732</ele>
        <time>2019-05-31T10:36:06Z</time>
      </trkpt>
      <trkpt lat="44.10024" lon="3.18597">
        <ele>732.2</ele>
        <time>2019-05-31T10:36:08Z</time>
      </trkpt>
      <trkpt lat="44.10026" lon="3.18593">
        <ele>732.4</ele>
        <time>2019-05-31T10:36:09Z</time>
      </trkpt>
      <trkpt lat="44.10028" lon="3.1859">
        <ele>732.5</ele>
        <time>2019-05-31T10:36:10Z</time>
      </trkpt>
      <trkpt lat="44.10029" lon="3.18587">
        <ele>732.6</ele>
        <time>2019-05-31T10:36:11Z</time>
      </trkpt>
      <trkpt lat="44.10031" lon="3.18584">
        <ele>732.7</ele>
        <time>2019-05-31T10:36:12Z</time>
      </trkpt>
      <trkpt lat="44.10034" lon="3.18579">
        <ele>732.9</ele>
        <time>2019-05-31T10:36:14Z</time>
      </trkpt>
      <trkpt lat="44.10036" lon="3.18575">
        <ele>733</ele>
        <time>2019-05-31T10:36:15Z</time>
      </trkpt>
      <trkpt lat="44.10038" lon="3.1857">
        <ele>733.2</ele>
        <time>2019-05-31T10:36:17Z</time>
      </trkpt>
      <trkpt lat="44.1004" lon="3.18567">
        <ele>733.3</ele>
        <time>2019-05-31T10:36:18Z</time>
      </trkpt>
      <trkpt lat="44.10043" lon="3.18562">
        <ele>733.6</ele>
        <time>2019-05-31T10:36:20Z</time>
      </trkpt>
      <trkpt lat="44.10046" lon="3.18558">
        <ele>734</ele>
        <time>2019-05-31T10:36:22Z</time>
      </trkpt>
      <trkpt lat="44.1005" lon="3.18554">
        <ele>734.3</ele>
        <time>2019-05-31T10:36:24Z</time>
      </trkpt>
      <trkpt lat="44.10053" lon="3.1855">
        <ele>734.6</ele>
        <time>2019-05-31T10:36:26Z</time>
      </trkpt>
      <trkpt lat="44.10057" lon="3.18548">
        <ele>734.9</ele>
        <time>2019-05-31T10:36:28Z</time>
      </trkpt>
      <trkpt lat="44.10061" lon="3.18546">
        <ele>735.2</ele>
        <time>2019-05-31T10:36:30Z</time>
      </trkpt>
      <trkpt lat="44.10065" lon="3.18549">
        <ele>735.6</ele>
        <time>2019-05-31T10:36:36Z</time>
      </trkpt>
      <trkpt lat="44.10068" lon="3.18555">
        <ele>736.1</ele>
        <time>2019-05-31T10:36:38Z</time>
      </trkpt>
      <trkpt lat="44.1007" lon="3.18561">
        <ele>736.6</ele>
        <time>2019-05-31T10:36:40Z</time>
      </trkpt>
      <trkpt lat="44.10071" lon="3.18565">
        <ele>737</ele>
        <time>2019-05-31T10:36:42Z</time>
      </trkpt>
      <trkpt lat="44.10071" lon="3.1857">
        <ele>737.3</ele>
        <time>2019-05-31T10:36:44Z</time>
      </trkpt>
      <trkpt lat="44.10071" lon="3.18575">
        <ele>737.6</ele>
        <time>2019-05-31T10:36:46Z</time>
      </trkpt>
      <trkpt lat="44.10071" lon="3.18582">
        <ele>738</ele>
        <time>2019-05-31T10:36:48Z</time>
      </trkpt>
      <trkpt lat="44.10073" lon="3.18588">
        <ele>738.3</ele>
        <time>2019-05-31T10:36:50Z</time>
      </trkpt>
      <trkpt lat="44.10075" lon="3.18592">
        <ele>738.6</ele>
        <time>2019-05-31T10:36:52Z</time>
      </trkpt>
      <trkpt lat="44.10077" lon="3.18597">
        <ele>738.8</ele>
        <time>2019-05-31T10:36:54Z</time>
      </trkpt>
      <trkpt lat="44.10079" lon="3.18601">
        <ele>739</ele>
        <time>2019-05-31T10:36:56Z</time>
      </trkpt>
      <trkpt lat="44.10081" lon="3.18607">
        <ele>739.2</ele>
        <time>2019-05-31T10:36:58Z</time>
      </trkpt>
      <trkpt lat="44.10082" lon="3.18611">
        <ele>739.4</ele>
        <time>2019-05-31T10:37:01Z</time>
      </trkpt>
      <trkpt lat="44.10083" lon="3.18616">
        <ele>739.6</ele>
        <time>2019-05-31T10:37:04Z</time>
      </trkpt>
      <trkpt lat="44.10086" lon="3.1862">
        <ele>739.8</ele>
        <time>2019-05-31T10:37:06Z</time>
      </trkpt>
      <trkpt lat="44.10089" lon="3.18622">
        <ele>740</ele>
        <time>2019-05-31T10:37:08Z</time>
      </trkpt>
      <trkpt lat="44.10092" lon="3.18623">
        <ele>740.2</ele>
        <time>2019-05-31T10:37:10Z</time>
      </trkpt>
      <trkpt lat="44.10096" lon="3.18622">
        <ele>740.5</ele>
        <time>2019-05-31T10:37:12Z</time>
      </trkpt>
      <trkpt lat="44.101" lon="3.18621">
        <ele>740.6</ele>
        <time>2019-05-31T10:37:14Z</time>
      </trkpt>
      <trkpt lat="44.10104" lon="3.18623">
        <ele>740.8</ele>
        <time>2019-05-31T10:37:16Z</time>
      </trkpt>
      <trkpt lat="44.10108" lon="3.18626">
        <ele>741</ele>
        <time>2019-05-31T10:37:18Z</time>
      </trkpt>
      <trkpt lat="44.1011" lon="3.18629">
        <ele>741.1</ele>
        <time>2019-05-31T10:37:20Z</time>
      </trkpt>
      <trkpt lat="44.10113" lon="3.18634">
        <ele>741.3</ele>
        <time>2019-05-31T10:37:22Z</time>
      </trkpt>
      <trkpt lat="44.10114" lon="3.1864">
        <ele>741.5</ele>
        <time>2019-05-31T10:37:24Z</time>
      </trkpt>
      <trkpt lat="44.10115" lon="3.18646">
        <ele>741.6</ele>
        <time>2019-05-31T10:37:26Z</time>
      </trkpt>
      <trkpt lat="44.10116" lon="3.18649">
        <ele>741.8</ele>
        <time>2019-05-31T10:37:28Z</time>
      </trkpt>
      <trkpt lat="44.10118" lon="3.18653">
        <ele>741.9</ele>
        <time>2019-05-31T10:37:30Z</time>
      </trkpt>
      <trkpt lat="44.1012" lon="3.18657">
        <ele>742</ele>
        <time>2019-05-31T10:37:32Z</time>
      </trkpt>
      <trkpt lat="44.10122" lon="3.18663">
        <ele>742.1</ele>
        <time>2019-05-31T10:37:34Z</time>
      </trkpt>
      <trkpt lat="44.10123" lon="3.1867">
        <ele>742.3</ele>
        <time>2019-05-31T10:37:36Z</time>
      </trkpt>
      <trkpt lat="44.10123" lon="3.18678">
        <ele>742.4</ele>
        <time>2019-05-31T10:37:38Z</time>
      </trkpt>
      <trkpt lat="44.10124" lon="3.18682">
        <ele>742.4</ele>
        <time>2019-05-31T10:37:39Z</time>
      </trkpt>
      <trkpt lat="44.10125" lon="3.18686">
        <ele>742.4</ele>
        <time>2019-05-31T10:37:40Z</time>
      </trkpt>
      <trkpt lat="44.10126" lon="3.1869">
        <ele>742.4</ele>
        <time>2019-05-31T10:37:41Z</time>
      </trkpt>
      <trkpt lat="44.10127" lon="3.18694">
        <ele>742.4</ele>
        <time>2019-05-31T10:37:42Z</time>
      </trkpt>
      <trkpt lat="44.10128" lon="3.18699">
        <ele>742.4</ele>
        <time>2019-05-31T10:37:43Z</time>
      </trkpt>
      <trkpt lat="44.10129" lon="3.18703">
        <ele>742.4</ele>
        <time>2019-05-31T10:37:44Z</time>
      </trkpt>
      <trkpt lat="44.1013" lon="3.18708">
        <ele>742.4</ele>
        <time>2019-05-31T10:37:45Z</time>
      </trkpt>
      <trkpt lat="44.10132" lon="3.18713">
        <ele>742.3</ele>
        <time>2019-05-31T10:37:46Z</time>
      </trkpt>
      <trkpt lat="44.10133" lon="3.18717">
        <ele>742.3</ele>
        <time>2019-05-31T10:37:47Z</time>
      </trkpt>
      <trkpt lat="44.10136" lon="3.18722">
        <ele>742.2</ele>
        <time>2019-05-31T10:37:48Z</time>
      </trkpt>
      <trkpt lat="44.10139" lon="3.18726">
        <ele>742.2</ele>
        <time>2019-05-31T10:37:49Z</time>
      </trkpt>
      <trkpt lat="44.10142" lon="3.18728">
        <ele>742.1</ele>
        <time>2019-05-31T10:37:50Z</time>
      </trkpt>
      <trkpt lat="44.10145" lon="3.18732">
        <ele>742</ele>
        <time>2019-05-31T10:37:51Z</time>
      </trkpt>
      <trkpt lat="44.10148" lon="3.18735">
        <ele>741.9</ele>
        <time>2019-05-31T10:37:52Z</time>
      </trkpt>
      <trkpt lat="44.1015" lon="3.18738">
        <ele>741.8</ele>
        <time>2019-05-31T10:37:53Z</time>
      </trkpt>
      <trkpt lat="44.10152" lon="3.18742">
        <ele>741.7</ele>
        <time>2019-05-31T10:37:54Z</time>
      </trkpt>
      <trkpt lat="44.10154" lon="3.18746">
        <ele>741.6</ele>
        <time>2019-05-31T10:37:55Z</time>
      </trkpt>
      <trkpt lat="44.10156" lon="3.1875">
        <ele>741.5</ele>
        <time>2019-05-31T10:37:56Z</time>
      </trkpt>
      <trkpt lat="44.10159" lon="3.18754">
        <ele>741.5</ele>
        <time>2019-05-31T10:37:57Z</time>
      </trkpt>
      <trkpt lat="44.10163" lon="3.18756">
        <ele>741.4</ele>
        <time>2019-05-31T10:37:58Z</time>
      </trkpt>
      <trkpt lat="44.10166" lon="3.18758">
        <ele>741.3</ele>
        <time>2019-05-31T10:37:59Z</time>
      </trkpt>
      <trkpt lat="44.10169" lon="3.1876">
        <ele>741.2</ele>
        <time>2019-05-31T10:38:00Z</time>
      </trkpt>
      <trkpt lat="44.10172" lon="3.18761">
        <ele>741.3</ele>
        <time>2019-05-31T10:38:01Z</time>
      </trkpt>
      <trkpt lat="44.10175" lon="3.18762">
        <ele>741.5</ele>
        <time>2019-05-31T10:38:02Z</time>
      </trkpt>
      <trkpt lat="44.10177" lon="3.18762">
        <ele>741.6</ele>
        <time>2019-05-31T10:38:03Z</time>
      </trkpt>
      <trkpt lat="44.10183" lon="3.18761">
        <ele>741.7</ele>
        <time>2019-05-31T10:38:05Z</time>
      </trkpt>
      <trkpt lat="44.10188" lon="3.18762">
        <ele>741.9</ele>
        <time>2019-05-31T10:38:07Z</time>
      </trkpt>
      <trkpt lat="44.10191" lon="3.18763">
        <ele>742</ele>
        <time>2019-05-31T10:38:08Z</time>
      </trkpt>
      <trkpt lat="44.10195" lon="3.18763">
        <ele>742.2</ele>
        <time>2019-05-31T10:38:10Z</time>
      </trkpt>
      <trkpt lat="44.102" lon="3.18763">
        <ele>742.5</ele>
        <time>2019-05-31T10:38:12Z</time>
      </trkpt>
      <trkpt lat="44.10203" lon="3.18763">
        <ele>742.6</ele>
        <time>2019-05-31T10:38:13Z</time>
      </trkpt>
      <trkpt lat="44.10206" lon="3.18764">
        <ele>742.7</ele>
        <time>2019-05-31T10:38:14Z</time>
      </trkpt>
      <trkpt lat="44.10209" lon="3.18764">
        <ele>742.8</ele>
        <time>2019-05-31T10:38:15Z</time>
      </trkpt>
      <trkpt lat="44.10214" lon="3.18764">
        <ele>742.9</ele>
        <time>2019-05-31T10:38:17Z</time>
      </trkpt>
      <trkpt lat="44.10217" lon="3.18765">
        <ele>742.9</ele>
        <time>2019-05-31T10:38:18Z</time>
      </trkpt>
      <trkpt lat="44.10221" lon="3.18764">
        <ele>743</ele>
        <time>2019-05-31T10:38:20Z</time>
      </trkpt>
      <trkpt lat="44.10224" lon="3.18762">
        <ele>743.1</ele>
        <time>2019-05-31T10:38:21Z</time>
      </trkpt>
      <trkpt lat="44.10228" lon="3.1876">
        <ele>742.9</ele>
        <time>2019-05-31T10:38:22Z</time>
      </trkpt>
      <trkpt lat="44.10231" lon="3.18758">
        <ele>742.6</ele>
        <time>2019-05-31T10:38:23Z</time>
      </trkpt>
      <trkpt lat="44.10234" lon="3.18756">
        <ele>742.6</ele>
        <time>2019-05-31T10:38:24Z</time>
      </trkpt>
      <trkpt lat="44.10239" lon="3.18754">
        <ele>742.4</ele>
        <time>2019-05-31T10:38:26Z</time>
      </trkpt>
      <trkpt lat="44.10242" lon="3.18752">
        <ele>742</ele>
        <time>2019-05-31T10:38:27Z</time>
      </trkpt>
      <trkpt lat="44.10247" lon="3.1875">
        <ele>741.5</ele>
        <time>2019-05-31T10:38:28Z</time>
      </trkpt>
      <trkpt lat="44.10251" lon="3.18749">
        <ele>741</ele>
        <time>2019-05-31T10:38:29Z</time>
      </trkpt>
      <trkpt lat="44.10254" lon="3.18747">
        <ele>740.7</ele>
        <time>2019-05-31T10:38:30Z</time>
      </trkpt>
      <trkpt lat="44.10257" lon="3.18747">
        <ele>740.5</ele>
        <time>2019-05-31T10:38:31Z</time>
      </trkpt>
      <trkpt lat="44.10261" lon="3.18747">
        <ele>740.3</ele>
        <time>2019-05-31T10:38:32Z</time>
      </trkpt>
      <trkpt lat="44.10266" lon="3.18747">
        <ele>740.1</ele>
        <time>2019-05-31T10:38:33Z</time>
      </trkpt>
      <trkpt lat="44.1027" lon="3.18747">
        <ele>739.9</ele>
        <time>2019-05-31T10:38:34Z</time>
      </trkpt>
      <trkpt lat="44.10273" lon="3.18748">
        <ele>739.7</ele>
        <time>2019-05-31T10:38:35Z</time>
      </trkpt>
      <trkpt lat="44.10278" lon="3.1875">
        <ele>739.5</ele>
        <time>2019-05-31T10:38:37Z</time>
      </trkpt>
      <trkpt lat="44.10281" lon="3.18751">
        <ele>739.4</ele>
        <time>2019-05-31T10:38:38Z</time>
      </trkpt>
      <trkpt lat="44.10285" lon="3.18752">
        <ele>739.3</ele>
        <time>2019-05-31T10:38:39Z</time>
      </trkpt>
      <trkpt lat="44.10288" lon="3.18752">
        <ele>739.2</ele>
        <time>2019-05-31T10:38:40Z</time>
      </trkpt>
      <trkpt lat="44.10292" lon="3.18751">
        <ele>739.1</ele>
        <time>2019-05-31T10:38:41Z</time>
      </trkpt>
      <trkpt lat="44.10296" lon="3.18749">
        <ele>739</ele>
        <time>2019-05-31T10:38:42Z</time>
      </trkpt>
      <trkpt lat="44.10301" lon="3.18748">
        <ele>739</ele>
        <time>2019-05-31T10:38:43Z</time>
      </trkpt>
      <trkpt lat="44.10305" lon="3.18748">
        <ele>739</ele>
        <time>2019-05-31T10:38:44Z</time>
      </trkpt>
      <trkpt lat="44.10308" lon="3.18748">
        <ele>739</ele>
        <time>2019-05-31T10:38:45Z</time>
      </trkpt>
      <trkpt lat="44.10313" lon="3.18749">
        <ele>739</ele>
        <time>2019-05-31T10:38:47Z</time>
      </trkpt>
      <trkpt lat="44.10317" lon="3.18749">
        <ele>739</ele>
        <time>2019-05-31T10:38:49Z</time>
      </trkpt>
      <trkpt lat="44.10327" lon="3.18752">
        <ele>739.1</ele>
        <time>2019-05-31T10:38:51Z</time>
      </trkpt>
      <trkpt lat="44.10334" lon="3.18752">
        <ele>739.1</ele>
        <time>2019-05-31T10:38:52Z</time>
      </trkpt>
      <trkpt lat="44.10341" lon="3.18752">
        <ele>739.1</ele>
        <time>2019-05-31T10:38:53Z</time>
      </trkpt>
      <trkpt lat="44.10345" lon="3.18752">
        <ele>739.1</ele>
        <time>2019-05-31T10:38:54Z</time>
      </trkpt>
      <trkpt lat="44.10349" lon="3.18754">
        <ele>739.1</ele>
        <time>2019-05-31T10:38:55Z</time>
      </trkpt>
      <trkpt lat="44.10353" lon="3.18755">
        <ele>739.1</ele>
        <time>2019-05-31T10:38:56Z</time>
      </trkpt>
      <trkpt lat="44.10357" lon="3.18757">
        <ele>739.1</ele>
        <time>2019-05-31T10:38:57Z</time>
      </trkpt>
      <trkpt lat="44.10365" lon="3.18756">
        <ele>739.3</ele>
        <time>2019-05-31T10:38:59Z</time>
      </trkpt>
      <trkpt lat="44.10369" lon="3.18758">
        <ele>739.3</ele>
        <time>2019-05-31T10:39:00Z</time>
      </trkpt>
      <trkpt lat="44.10374" lon="3.18757">
        <ele>739.4</ele>
        <time>2019-05-31T10:39:01Z</time>
      </trkpt>
      <trkpt lat="44.10384" lon="3.18756">
        <ele>739.6</ele>
        <time>2019-05-31T10:39:02Z</time>
      </trkpt>
      <trkpt lat="44.10387" lon="3.18757">
        <ele>739.8</ele>
        <time>2019-05-31T10:39:03Z</time>
      </trkpt>
      <trkpt lat="44.10391" lon="3.18759">
        <ele>739.9</ele>
        <time>2019-05-31T10:39:04Z</time>
      </trkpt>
      <trkpt lat="44.10397" lon="3.18756">
        <ele>740.2</ele>
        <time>2019-05-31T10:39:05Z</time>
      </trkpt>
      <trkpt lat="44.10401" lon="3.18756">
        <ele>740.4</ele>
        <time>2019-05-31T10:39:06Z</time>
      </trkpt>
      <trkpt lat="44.10405" lon="3.18756">
        <ele>740.7</ele>
        <time>2019-05-31T10:39:07Z</time>
      </trkpt>
      <trkpt lat="44.10409" lon="3.18756">
        <ele>740.9</ele>
        <time>2019-05-31T10:39:08Z</time>
      </trkpt>
      <trkpt lat="44.10412" lon="3.18757">
        <ele>741.1</ele>
        <time>2019-05-31T10:39:09Z</time>
      </trkpt>
      <trkpt lat="44.10415" lon="3.18756">
        <ele>741.3</ele>
        <time>2019-05-31T10:39:10Z</time>
      </trkpt>
      <trkpt lat="44.10419" lon="3.18756">
        <ele>741.5</ele>
        <time>2019-05-31T10:39:11Z</time>
      </trkpt>
      <trkpt lat="44.10423" lon="3.18757">
        <ele>741.8</ele>
        <time>2019-05-31T10:39:12Z</time>
      </trkpt>
      <trkpt lat="44.10427" lon="3.18758">
        <ele>742.1</ele>
        <time>2019-05-31T10:39:13Z</time>
      </trkpt>
      <trkpt lat="44.1043" lon="3.18759">
        <ele>742.4</ele>
        <time>2019-05-31T10:39:14Z</time>
      </trkpt>
      <trkpt lat="44.10433" lon="3.1876">
        <ele>742.6</ele>
        <time>2019-05-31T10:39:15Z</time>
      </trkpt>
      <trkpt lat="44.10439" lon="3.18758">
        <ele>743</ele>
        <time>2019-05-31T10:39:17Z</time>
      </trkpt>
      <trkpt lat="44.10443" lon="3.18756">
        <ele>743.4</ele>
        <time>2019-05-31T10:39:19Z</time>
      </trkpt>
      <trkpt lat="44.10446" lon="3.18754">
        <ele>743.6</ele>
        <time>2019-05-31T10:39:20Z</time>
      </trkpt>
      <trkpt lat="44.10451" lon="3.18753">
        <ele>743.8</ele>
        <time>2019-05-31T10:39:21Z</time>
      </trkpt>
      <trkpt lat="44.10456" lon="3.18752">
        <ele>744</ele>
        <time>2019-05-31T10:39:22Z</time>
      </trkpt>
      <trkpt lat="44.10465" lon="3.18751">
        <ele>743.6</ele>
        <time>2019-05-31T10:39:23Z</time>
      </trkpt>
      <trkpt lat="44.1047" lon="3.18749">
        <ele>743.8</ele>
        <time>2019-05-31T10:39:24Z</time>
      </trkpt>
      <trkpt lat="44.10475" lon="3.18746">
        <ele>744.1</ele>
        <time>2019-05-31T10:39:25Z</time>
      </trkpt>
      <trkpt lat="44.10478" lon="3.18748">
        <ele>744.2</ele>
        <time>2019-05-31T10:39:26Z</time>
      </trkpt>
      <trkpt lat="44.10482" lon="3.1875">
        <ele>744.3</ele>
        <time>2019-05-31T10:39:28Z</time>
      </trkpt>
      <trkpt lat="44.10488" lon="3.1875">
        <ele>744.1</ele>
        <time>2019-05-31T10:39:29Z</time>
      </trkpt>
      <trkpt lat="44.10492" lon="3.1875">
        <ele>744.2</ele>
        <time>2019-05-31T10:39:30Z</time>
      </trkpt>
      <trkpt lat="44.10498" lon="3.18749">
        <ele>744.6</ele>
        <time>2019-05-31T10:39:31Z</time>
      </trkpt>
      <trkpt lat="44.10503" lon="3.18749">
        <ele>745.1</ele>
        <time>2019-05-31T10:39:32Z</time>
      </trkpt>
      <trkpt lat="44.10508" lon="3.1875">
        <ele>745.5</ele>
        <time>2019-05-31T10:39:33Z</time>
      </trkpt>
      <trkpt lat="44.10514" lon="3.18752">
        <ele>745.6</ele>
        <time>2019-05-31T10:39:34Z</time>
      </trkpt>
      <trkpt lat="44.10521" lon="3.18749">
        <ele>746.1</ele>
        <time>2019-05-31T10:39:35Z</time>
      </trkpt>
      <trkpt lat="44.10525" lon="3.1875">
        <ele>746.3</ele>
        <time>2019-05-31T10:39:36Z</time>
      </trkpt>
      <trkpt lat="44.10531" lon="3.18753">
        <ele>746.3</ele>
        <time>2019-05-31T10:39:37Z</time>
      </trkpt>
      <trkpt lat="44.10536" lon="3.18753">
        <ele>746.4</ele>
        <time>2019-05-31T10:39:38Z</time>
      </trkpt>
      <trkpt lat="44.10541" lon="3.18755">
        <ele>746.6</ele>
        <time>2019-05-31T10:39:39Z</time>
      </trkpt>
      <trkpt lat="44.10544" lon="3.18757">
        <ele>746.6</ele>
        <time>2019-05-31T10:39:40Z</time>
      </trkpt>
      <trkpt lat="44.10549" lon="3.18759">
        <ele>746.5</ele>
        <time>2019-05-31T10:39:41Z</time>
      </trkpt>
      <trkpt lat="44.10553" lon="3.1876">
        <ele>746.4</ele>
        <time>2019-05-31T10:39:42Z</time>
      </trkpt>
      <trkpt lat="44.10556" lon="3.1876">
        <ele>746.4</ele>
        <time>2019-05-31T10:39:43Z</time>
      </trkpt>
      <trkpt lat="44.1056" lon="3.18762">
        <ele>746.4</ele>
        <time>2019-05-31T10:39:44Z</time>
      </trkpt>
      <trkpt lat="44.10564" lon="3.18765">
        <ele>746.5</ele>
        <time>2019-05-31T10:39:46Z</time>
      </trkpt>
      <trkpt lat="44.10567" lon="3.18767">
        <ele>746.5</ele>
        <time>2019-05-31T10:39:47Z</time>
      </trkpt>
      <trkpt lat="44.10572" lon="3.18768">
        <ele>746.4</ele>
        <time>2019-05-31T10:39:48Z</time>
      </trkpt>
      <trkpt lat="44.10576" lon="3.18768">
        <ele>746.4</ele>
        <time>2019-05-31T10:39:49Z</time>
      </trkpt>
      <trkpt lat="44.10581" lon="3.18768">
        <ele>746.6</ele>
        <time>2019-05-31T10:39:50Z</time>
      </trkpt>
      <trkpt lat="44.10585" lon="3.18767">
        <ele>746.7</ele>
        <time>2019-05-31T10:39:51Z</time>
      </trkpt>
      <trkpt lat="44.1059" lon="3.18766">
        <ele>746.7</ele>
        <time>2019-05-31T10:39:52Z</time>
      </trkpt>
      <trkpt lat="44.10595" lon="3.18765">
        <ele>746.6</ele>
        <time>2019-05-31T10:39:53Z</time>
      </trkpt>
      <trkpt lat="44.10599" lon="3.18765">
        <ele>746.5</ele>
        <time>2019-05-31T10:39:54Z</time>
      </trkpt>
      <trkpt lat="44.10603" lon="3.18765">
        <ele>746.6</ele>
        <time>2019-05-31T10:39:55Z</time>
      </trkpt>
      <trkpt lat="44.10607" lon="3.18765">
        <ele>746.7</ele>
        <time>2019-05-31T10:39:56Z</time>
      </trkpt>
      <trkpt lat="44.10611" lon="3.18766">
        <ele>747</ele>
        <time>2019-05-31T10:39:57Z</time>
      </trkpt>
      <trkpt lat="44.10614" lon="3.18767">
        <ele>747.2</ele>
        <time>2019-05-31T10:39:58Z</time>
      </trkpt>
      <trkpt lat="44.10618" lon="3.18769">
        <ele>747.5</ele>
        <time>2019-05-31T10:39:59Z</time>
      </trkpt>
      <trkpt lat="44.10621" lon="3.18771">
        <ele>747.7</ele>
        <time>2019-05-31T10:40:00Z</time>
      </trkpt>
      <trkpt lat="44.10624" lon="3.18773">
        <ele>748</ele>
        <time>2019-05-31T10:40:01Z</time>
      </trkpt>
      <trkpt lat="44.10627" lon="3.18775">
        <ele>748.4</ele>
        <time>2019-05-31T10:40:02Z</time>
      </trkpt>
      <trkpt lat="44.10631" lon="3.18777">
        <ele>748.7</ele>
        <time>2019-05-31T10:40:03Z</time>
      </trkpt>
      <trkpt lat="44.10635" lon="3.18777">
        <ele>748.9</ele>
        <time>2019-05-31T10:40:04Z</time>
      </trkpt>
      <trkpt lat="44.10639" lon="3.18778">
        <ele>749.2</ele>
        <time>2019-05-31T10:40:05Z</time>
      </trkpt>
      <trkpt lat="44.10644" lon="3.18777">
        <ele>749.8</ele>
        <time>2019-05-31T10:40:06Z</time>
      </trkpt>
      <trkpt lat="44.10653" lon="3.1877">
        <ele>750.8</ele>
        <time>2019-05-31T10:40:07Z</time>
      </trkpt>
      <trkpt lat="44.10655" lon="3.18761">
        <ele>750.8</ele>
        <time>2019-05-31T10:40:09Z</time>
      </trkpt>
      <trkpt lat="44.10653" lon="3.18756">
        <ele>750.7</ele>
        <time>2019-05-31T10:40:10Z</time>
      </trkpt>
      <trkpt lat="44.10656" lon="3.18751">
        <ele>750.7</ele>
        <time>2019-05-31T10:40:12Z</time>
      </trkpt>
      <trkpt lat="44.10655" lon="3.18746">
        <ele>750.9</ele>
        <time>2019-05-31T10:40:14Z</time>
      </trkpt>
      <trkpt lat="44.10659" lon="3.18739">
        <ele>751.3</ele>
        <time>2019-05-31T10:40:16Z</time>
      </trkpt>
      <trkpt lat="44.10659" lon="3.18735">
        <ele>751.3</ele>
        <time>2019-05-31T10:40:17Z</time>
      </trkpt>
      <trkpt lat="44.1066" lon="3.1873">
        <ele>751.5</ele>
        <time>2019-05-31T10:40:19Z</time>
      </trkpt>
      <trkpt lat="44.10662" lon="3.18724">
        <ele>751.9</ele>
        <time>2019-05-31T10:40:21Z</time>
      </trkpt>
      <trkpt lat="44.10663" lon="3.18719">
        <ele>752.2</ele>
        <time>2019-05-31T10:40:23Z</time>
      </trkpt>
      <trkpt lat="44.10664" lon="3.18715">
        <ele>752.5</ele>
        <time>2019-05-31T10:40:26Z</time>
      </trkpt>
      <trkpt lat="44.10665" lon="3.1871">
        <ele>752.9</ele>
        <time>2019-05-31T10:40:28Z</time>
      </trkpt>
      <trkpt lat="44.10666" lon="3.18704">
        <ele>753.7</ele>
        <time>2019-05-31T10:40:30Z</time>
      </trkpt>
      <trkpt lat="44.10667" lon="3.18697">
        <ele>754.7</ele>
        <time>2019-05-31T10:40:32Z</time>
      </trkpt>
      <trkpt lat="44.10666" lon="3.18693">
        <ele>755.2</ele>
        <time>2019-05-31T10:40:34Z</time>
      </trkpt>
      <trkpt lat="44.10667" lon="3.18688">
        <ele>755.6</ele>
        <time>2019-05-31T10:40:36Z</time>
      </trkpt>
      <trkpt lat="44.10668" lon="3.18681">
        <ele>756.3</ele>
        <time>2019-05-31T10:40:38Z</time>
      </trkpt>
      <trkpt lat="44.10668" lon="3.18675">
        <ele>757</ele>
        <time>2019-05-31T10:40:40Z</time>
      </trkpt>
      <trkpt lat="44.10668" lon="3.18669">
        <ele>757.5</ele>
        <time>2019-05-31T10:40:42Z</time>
      </trkpt>
      <trkpt lat="44.10667" lon="3.18663">
        <ele>758</ele>
        <time>2019-05-31T10:40:44Z</time>
      </trkpt>
      <trkpt lat="44.10667" lon="3.1866">
        <ele>758.4</ele>
        <time>2019-05-31T10:40:45Z</time>
      </trkpt>
      <trkpt lat="44.10665" lon="3.18654">
        <ele>759</ele>
        <time>2019-05-31T10:40:47Z</time>
      </trkpt>
      <trkpt lat="44.10664" lon="3.18648">
        <ele>759.6</ele>
        <time>2019-05-31T10:40:49Z</time>
      </trkpt>
      <trkpt lat="44.10663" lon="3.18642">
        <ele>760.1</ele>
        <time>2019-05-31T10:40:51Z</time>
      </trkpt>
      <trkpt lat="44.10661" lon="3.18637">
        <ele>760.2</ele>
        <time>2019-05-31T10:40:53Z</time>
      </trkpt>
      <trkpt lat="44.10658" lon="3.18631">
        <ele>760.3</ele>
        <time>2019-05-31T10:40:55Z</time>
      </trkpt>
      <trkpt lat="44.10655" lon="3.18626">
        <ele>760.4</ele>
        <time>2019-05-31T10:40:57Z</time>
      </trkpt>
      <trkpt lat="44.10652" lon="3.1862">
        <ele>760.6</ele>
        <time>2019-05-31T10:40:59Z</time>
      </trkpt>
      <trkpt lat="44.10649" lon="3.18614">
        <ele>760.5</ele>
        <time>2019-05-31T10:41:01Z</time>
      </trkpt>
      <trkpt lat="44.10648" lon="3.18609">
        <ele>760.6</ele>
        <time>2019-05-31T10:41:03Z</time>
      </trkpt>
      <trkpt lat="44.10646" lon="3.18603">
        <ele>760.9</ele>
        <time>2019-05-31T10:41:05Z</time>
      </trkpt>
      <trkpt lat="44.10645" lon="3.18599">
        <ele>761</ele>
        <time>2019-05-31T10:41:07Z</time>
      </trkpt>
      <trkpt lat="44.10644" lon="3.18595">
        <ele>761.1</ele>
        <time>2019-05-31T10:41:09Z</time>
      </trkpt>
      <trkpt lat="44.10644" lon="3.18591">
        <ele>761.1</ele>
        <time>2019-05-31T10:41:11Z</time>
      </trkpt>
      <trkpt lat="44.10643" lon="3.18587">
        <ele>761.2</ele>
        <time>2019-05-31T10:41:13Z</time>
      </trkpt>
      <trkpt lat="44.10642" lon="3.18582">
        <ele>761.4</ele>
        <time>2019-05-31T10:41:15Z</time>
      </trkpt>
      <trkpt lat="44.10642" lon="3.18578">
        <ele>761.5</ele>
        <time>2019-05-31T10:41:19Z</time>
      </trkpt>
      <trkpt lat="44.10641" lon="3.18575">
        <ele>761.5</ele>
        <time>2019-05-31T10:42:08Z</time>
      </trkpt>
      <trkpt lat="44.10638" lon="3.18574">
        <ele>761.4</ele>
        <time>2019-05-31T10:47:04Z</time>
      </trkpt>
      <trkpt lat="44.10636" lon="3.18571">
        <ele>761.4</ele>
        <time>2019-05-31T11:03:55Z</time>
      </trkpt>
      <trkpt lat="44.10634" lon="3.18568">
        <ele>761.5</ele>
        <time>2019-05-31T11:03:57Z</time>
      </trkpt>
      <trkpt lat="44.10633" lon="3.18562">
        <ele>761.6</ele>
        <time>2019-05-31T11:03:59Z</time>
      </trkpt>
      <trkpt lat="44.10631" lon="3.18558">
        <ele>761.8</ele>
        <time>2019-05-31T11:04:01Z</time>
      </trkpt>
      <trkpt lat="44.10628" lon="3.18553">
        <ele>761.9</ele>
        <time>2019-05-31T11:04:03Z</time>
      </trkpt>
      <trkpt lat="44.10626" lon="3.18548">
        <ele>762.1</ele>
        <time>2019-05-31T11:04:05Z</time>
      </trkpt>
      <trkpt lat="44.10623" lon="3.18544">
        <ele>762.2</ele>
        <time>2019-05-31T11:04:07Z</time>
      </trkpt>
      <trkpt lat="44.1062" lon="3.1854">
        <ele>762.3</ele>
        <time>2019-05-31T11:04:09Z</time>
      </trkpt>
      <trkpt lat="44.10617" lon="3.18535">
        <ele>762.2</ele>
        <time>2019-05-31T11:04:11Z</time>
      </trkpt>
      <trkpt lat="44.10613" lon="3.1853">
        <ele>762.1</ele>
        <time>2019-05-31T11:04:13Z</time>
      </trkpt>
      <trkpt lat="44.10611" lon="3.18526">
        <ele>762.2</ele>
        <time>2019-05-31T11:04:15Z</time>
      </trkpt>
      <trkpt lat="44.10609" lon="3.18521">
        <ele>762.4</ele>
        <time>2019-05-31T11:04:17Z</time>
      </trkpt>
      <trkpt lat="44.10607" lon="3.18514">
        <ele>762.8</ele>
        <time>2019-05-31T11:04:19Z</time>
      </trkpt>
      <trkpt lat="44.10606" lon="3.18509">
        <ele>763.2</ele>
        <time>2019-05-31T11:04:21Z</time>
      </trkpt>
      <trkpt lat="44.10606" lon="3.18503">
        <ele>763.7</ele>
        <time>2019-05-31T11:04:23Z</time>
      </trkpt>
      <trkpt lat="44.10607" lon="3.18497">
        <ele>764.2</ele>
        <time>2019-05-31T11:04:25Z</time>
      </trkpt>
      <trkpt lat="44.1061" lon="3.18492">
        <ele>764.6</ele>
        <time>2019-05-31T11:04:27Z</time>
      </trkpt>
      <trkpt lat="44.10613" lon="3.18488">
        <ele>764.9</ele>
        <time>2019-05-31T11:04:29Z</time>
      </trkpt>
      <trkpt lat="44.10616" lon="3.18483">
        <ele>765.3</ele>
        <time>2019-05-31T11:04:31Z</time>
      </trkpt>
      <trkpt lat="44.10619" lon="3.18479">
        <ele>765.7</ele>
        <time>2019-05-31T11:04:33Z</time>
      </trkpt>
      <trkpt lat="44.10622" lon="3.18476">
        <ele>766.1</ele>
        <time>2019-05-31T11:04:35Z</time>
      </trkpt>
      <trkpt lat="44.10626" lon="3.18474">
        <ele>766.5</ele>
        <time>2019-05-31T11:04:37Z</time>
      </trkpt>
      <trkpt lat="44.1063" lon="3.18472">
        <ele>766.8</ele>
        <time>2019-05-31T11:04:39Z</time>
      </trkpt>
      <trkpt lat="44.10635" lon="3.18469">
        <ele>767.2</ele>
        <time>2019-05-31T11:04:41Z</time>
      </trkpt>
      <trkpt lat="44.10639" lon="3.18467">
        <ele>767.7</ele>
        <time>2019-05-31T11:04:43Z</time>
      </trkpt>
      <trkpt lat="44.10643" lon="3.18465">
        <ele>768.2</ele>
        <time>2019-05-31T11:04:45Z</time>
      </trkpt>
      <trkpt lat="44.10646" lon="3.18462">
        <ele>768.5</ele>
        <time>2019-05-31T11:04:47Z</time>
      </trkpt>
      <trkpt lat="44.1065" lon="3.18458">
        <ele>768.7</ele>
        <time>2019-05-31T11:04:49Z</time>
      </trkpt>
      <trkpt lat="44.10653" lon="3.18456">
        <ele>768.8</ele>
        <time>2019-05-31T11:04:51Z</time>
      </trkpt>
      <trkpt lat="44.10657" lon="3.18451">
        <ele>769</ele>
        <time>2019-05-31T11:04:53Z</time>
      </trkpt>
      <trkpt lat="44.10659" lon="3.18448">
        <ele>769</ele>
        <time>2019-05-31T11:04:54Z</time>
      </trkpt>
      <trkpt lat="44.10662" lon="3.18445">
        <ele>769.1</ele>
        <time>2019-05-31T11:04:55Z</time>
      </trkpt>
      <trkpt lat="44.10666" lon="3.1844">
        <ele>769.3</ele>
        <time>2019-05-31T11:04:57Z</time>
      </trkpt>
      <trkpt lat="44.10668" lon="3.18437">
        <ele>769.4</ele>
        <time>2019-05-31T11:04:58Z</time>
      </trkpt>
      <trkpt lat="44.10671" lon="3.18432">
        <ele>769.6</ele>
        <time>2019-05-31T11:05:00Z</time>
      </trkpt>
      <trkpt lat="44.10675" lon="3.18428">
        <ele>769.5</ele>
        <time>2019-05-31T11:05:02Z</time>
      </trkpt>
      <trkpt lat="44.10678" lon="3.18425">
        <ele>769.5</ele>
        <time>2019-05-31T11:05:04Z</time>
      </trkpt>
      <trkpt lat="44.10681" lon="3.18421">
        <ele>769.4</ele>
        <time>2019-05-31T11:05:06Z</time>
      </trkpt>
      <trkpt lat="44.10684" lon="3.18417">
        <ele>769.4</ele>
        <time>2019-05-31T11:05:08Z</time>
      </trkpt>
      <trkpt lat="44.10687" lon="3.18412">
        <ele>769.3</ele>
        <time>2019-05-31T11:05:10Z</time>
      </trkpt>
      <trkpt lat="44.10691" lon="3.18407">
        <ele>769.2</ele>
        <time>2019-05-31T11:05:12Z</time>
      </trkpt>
      <trkpt lat="44.10693" lon="3.18404">
        <ele>769.2</ele>
        <time>2019-05-31T11:05:13Z</time>
      </trkpt>
      <trkpt lat="44.10696" lon="3.18398">
        <ele>768.8</ele>
        <time>2019-05-31T11:05:15Z</time>
      </trkpt>
      <trkpt lat="44.10699" lon="3.18394">
        <ele>768.5</ele>
        <time>2019-05-31T11:05:17Z</time>
      </trkpt>
      <trkpt lat="44.10702" lon="3.18389">
        <ele>768.1</ele>
        <time>2019-05-31T11:05:19Z</time>
      </trkpt>
      <trkpt lat="44.10704" lon="3.18387">
        <ele>767.9</ele>
        <time>2019-05-31T11:05:20Z</time>
      </trkpt>
      <trkpt lat="44.10708" lon="3.18382">
        <ele>767.6</ele>
        <time>2019-05-31T11:05:22Z</time>
      </trkpt>
      <trkpt lat="44.1071" lon="3.18378">
        <ele>767.3</ele>
        <time>2019-05-31T11:05:24Z</time>
      </trkpt>
      <trkpt lat="44.10714" lon="3.18374">
        <ele>766.9</ele>
        <time>2019-05-31T11:05:26Z</time>
      </trkpt>
      <trkpt lat="44.10718" lon="3.1837">
        <ele>766.8</ele>
        <time>2019-05-31T11:05:28Z</time>
      </trkpt>
      <trkpt lat="44.10722" lon="3.18368">
        <ele>766.7</ele>
        <time>2019-05-31T11:05:30Z</time>
      </trkpt>
      <trkpt lat="44.10726" lon="3.18365">
        <ele>766.6</ele>
        <time>2019-05-31T11:05:32Z</time>
      </trkpt>
      <trkpt lat="44.1073" lon="3.18364">
        <ele>766.5</ele>
        <time>2019-05-31T11:05:34Z</time>
      </trkpt>
      <trkpt lat="44.10735" lon="3.18365">
        <ele>766.4</ele>
        <time>2019-05-31T11:05:36Z</time>
      </trkpt>
      <trkpt lat="44.10739" lon="3.18364">
        <ele>766.3</ele>
        <time>2019-05-31T11:05:38Z</time>
      </trkpt>
      <trkpt lat="44.10742" lon="3.18362">
        <ele>766.2</ele>
        <time>2019-05-31T11:05:39Z</time>
      </trkpt>
      <trkpt lat="44.10745" lon="3.18361">
        <ele>766.1</ele>
        <time>2019-05-31T11:05:40Z</time>
      </trkpt>
      <trkpt lat="44.10749" lon="3.1836">
        <ele>766.2</ele>
        <time>2019-05-31T11:05:42Z</time>
      </trkpt>
      <trkpt lat="44.10752" lon="3.18363">
        <ele>766.4</ele>
        <time>2019-05-31T11:05:44Z</time>
      </trkpt>
      <trkpt lat="44.10755" lon="3.18368">
        <ele>766.5</ele>
        <time>2019-05-31T11:05:46Z</time>
      </trkpt>
      <trkpt lat="44.10757" lon="3.18372">
        <ele>766.6</ele>
        <time>2019-05-31T11:05:48Z</time>
      </trkpt>
      <trkpt lat="44.1076" lon="3.18375">
        <ele>766.8</ele>
        <time>2019-05-31T11:05:50Z</time>
      </trkpt>
      <trkpt lat="44.10763" lon="3.18379">
        <ele>766.9</ele>
        <time>2019-05-31T11:05:52Z</time>
      </trkpt>
      <trkpt lat="44.10766" lon="3.18383">
        <ele>767</ele>
        <time>2019-05-31T11:05:54Z</time>
      </trkpt>
      <trkpt lat="44.10768" lon="3.18387">
        <ele>767.1</ele>
        <time>2019-05-31T11:05:56Z</time>
      </trkpt>
      <trkpt lat="44.10771" lon="3.18391">
        <ele>767.2</ele>
        <time>2019-05-31T11:05:58Z</time>
      </trkpt>
      <trkpt lat="44.10774" lon="3.18392">
        <ele>767.2</ele>
        <time>2019-05-31T11:05:59Z</time>
      </trkpt>
      <trkpt lat="44.10778" lon="3.18391">
        <ele>767.3</ele>
        <time>2019-05-31T11:06:01Z</time>
      </trkpt>
      <trkpt lat="44.10782" lon="3.18391">
        <ele>767.4</ele>
        <time>2019-05-31T11:06:03Z</time>
      </trkpt>
      <trkpt lat="44.10786" lon="3.18391">
        <ele>767.5</ele>
        <time>2019-05-31T11:06:05Z</time>
      </trkpt>
      <trkpt lat="44.1079" lon="3.18392">
        <ele>767.5</ele>
        <time>2019-05-31T11:06:07Z</time>
      </trkpt>
      <trkpt lat="44.10796" lon="3.18394">
        <ele>767.6</ele>
        <time>2019-05-31T11:06:09Z</time>
      </trkpt>
      <trkpt lat="44.10799" lon="3.18394">
        <ele>767.7</ele>
        <time>2019-05-31T11:06:10Z</time>
      </trkpt>
      <trkpt lat="44.10803" lon="3.18395">
        <ele>767.8</ele>
        <time>2019-05-31T11:06:12Z</time>
      </trkpt>
      <trkpt lat="44.10807" lon="3.18394">
        <ele>767.8</ele>
        <time>2019-05-31T11:06:14Z</time>
      </trkpt>
      <trkpt lat="44.10812" lon="3.18393">
        <ele>767.9</ele>
        <time>2019-05-31T11:06:16Z</time>
      </trkpt>
      <trkpt lat="44.10814" lon="3.1839">
        <ele>767.9</ele>
        <time>2019-05-31T11:06:18Z</time>
      </trkpt>
      <trkpt lat="44.10819" lon="3.18389">
        <ele>768</ele>
        <time>2019-05-31T11:06:20Z</time>
      </trkpt>
      <trkpt lat="44.10821" lon="3.18388">
        <ele>768</ele>
        <time>2019-05-31T11:06:21Z</time>
      </trkpt>
      <trkpt lat="44.10824" lon="3.18387">
        <ele>768</ele>
        <time>2019-05-31T11:06:22Z</time>
      </trkpt>
      <trkpt lat="44.10827" lon="3.18386">
        <ele>768.1</ele>
        <time>2019-05-31T11:06:23Z</time>
      </trkpt>
      <trkpt lat="44.1083" lon="3.18384">
        <ele>768.1</ele>
        <time>2019-05-31T11:06:24Z</time>
      </trkpt>
      <trkpt lat="44.10835" lon="3.18382">
        <ele>768.1</ele>
        <time>2019-05-31T11:06:26Z</time>
      </trkpt>
      <trkpt lat="44.10838" lon="3.18382">
        <ele>768.2</ele>
        <time>2019-05-31T11:06:27Z</time>
      </trkpt>
      <trkpt lat="44.10841" lon="3.18381">
        <ele>768.2</ele>
        <time>2019-05-31T11:06:28Z</time>
      </trkpt>
      <trkpt lat="44.10846" lon="3.1838">
        <ele>768.2</ele>
        <time>2019-05-31T11:06:30Z</time>
      </trkpt>
      <trkpt lat="44.10849" lon="3.18379">
        <ele>768.2</ele>
        <time>2019-05-31T11:06:32Z</time>
      </trkpt>
      <trkpt lat="44.10852" lon="3.18378">
        <ele>768.3</ele>
        <time>2019-05-31T11:06:34Z</time>
      </trkpt>
      <trkpt lat="44.10856" lon="3.18376">
        <ele>768.3</ele>
        <time>2019-05-31T11:06:36Z</time>
      </trkpt>
      <trkpt lat="44.1086" lon="3.18375">
        <ele>768.3</ele>
        <time>2019-05-31T11:06:38Z</time>
      </trkpt>
      <trkpt lat="44.10865" lon="3.18374">
        <ele>768.3</ele>
        <time>2019-05-31T11:06:40Z</time>
      </trkpt>
      <trkpt lat="44.1087" lon="3.18374">
        <ele>768.4</ele>
        <time>2019-05-31T11:06:42Z</time>
      </trkpt>
      <trkpt lat="44.10875" lon="3.18373">
        <ele>768.4</ele>
        <time>2019-05-31T11:06:44Z</time>
      </trkpt>
      <trkpt lat="44.10879" lon="3.18372">
        <ele>768.4</ele>
        <time>2019-05-31T11:06:46Z</time>
      </trkpt>
      <trkpt lat="44.10883" lon="3.1837">
        <ele>768.4</ele>
        <time>2019-05-31T11:06:48Z</time>
      </trkpt>
      <trkpt lat="44.10886" lon="3.18367">
        <ele>768.4</ele>
        <time>2019-05-31T11:06:50Z</time>
      </trkpt>
      <trkpt lat="44.10889" lon="3.18366">
        <ele>768.4</ele>
        <time>2019-05-31T11:06:52Z</time>
      </trkpt>
      <trkpt lat="44.10893" lon="3.18365">
        <ele>768.4</ele>
        <time>2019-05-31T11:06:54Z</time>
      </trkpt>
      <trkpt lat="44.10897" lon="3.18366">
        <ele>768.4</ele>
        <time>2019-05-31T11:06:56Z</time>
      </trkpt>
      <trkpt lat="44.10901" lon="3.18369">
        <ele>768.4</ele>
        <time>2019-05-31T11:06:58Z</time>
      </trkpt>
      <trkpt lat="44.10905" lon="3.18369">
        <ele>768.4</ele>
        <time>2019-05-31T11:07:00Z</time>
      </trkpt>
      <trkpt lat="44.10908" lon="3.18368">
        <ele>768.4</ele>
        <time>2019-05-31T11:07:01Z</time>
      </trkpt>
      <trkpt lat="44.10911" lon="3.18368">
        <ele>768.4</ele>
        <time>2019-05-31T11:07:02Z</time>
      </trkpt>
      <trkpt lat="44.10914" lon="3.18366">
        <ele>768.4</ele>
        <time>2019-05-31T11:07:03Z</time>
      </trkpt>
      <trkpt lat="44.10917" lon="3.18365">
        <ele>768.4</ele>
        <time>2019-05-31T11:07:04Z</time>
      </trkpt>
      <trkpt lat="44.1092" lon="3.18365">
        <ele>768.4</ele>
        <time>2019-05-31T11:07:05Z</time>
      </trkpt>
      <trkpt lat="44.10923" lon="3.18365">
        <ele>768.3</ele>
        <time>2019-05-31T11:07:06Z</time>
      </trkpt>
      <trkpt lat="44.10926" lon="3.18365">
        <ele>768.3</ele>
        <time>2019-05-31T11:07:07Z</time>
      </trkpt>
      <trkpt lat="44.10929" lon="3.18365">
        <ele>768.3</ele>
        <time>2019-05-31T11:07:08Z</time>
      </trkpt>
      <trkpt lat="44.10932" lon="3.18364">
        <ele>768.2</ele>
        <time>2019-05-31T11:07:09Z</time>
      </trkpt>
      <trkpt lat="44.10935" lon="3.18363">
        <ele>768.2</ele>
        <time>2019-05-31T11:07:10Z</time>
      </trkpt>
      <trkpt lat="44.10938" lon="3.18362">
        <ele>768.2</ele>
        <time>2019-05-31T11:07:11Z</time>
      </trkpt>
      <trkpt lat="44.10941" lon="3.1836">
        <ele>768.2</ele>
        <time>2019-05-31T11:07:12Z</time>
      </trkpt>
      <trkpt lat="44.10945" lon="3.18357">
        <ele>768.1</ele>
        <time>2019-05-31T11:07:14Z</time>
      </trkpt>
      <trkpt lat="44.1095" lon="3.18356">
        <ele>768</ele>
        <time>2019-05-31T11:07:16Z</time>
      </trkpt>
      <trkpt lat="44.10954" lon="3.18356">
        <ele>768</ele>
        <time>2019-05-31T11:07:17Z</time>
      </trkpt>
      <trkpt lat="44.10957" lon="3.18357">
        <ele>768</ele>
        <time>2019-05-31T11:07:18Z</time>
      </trkpt>
      <trkpt lat="44.10961" lon="3.18358">
        <ele>767.9</ele>
        <time>2019-05-31T11:07:19Z</time>
      </trkpt>
      <trkpt lat="44.10964" lon="3.18362">
        <ele>767.9</ele>
        <time>2019-05-31T11:07:20Z</time>
      </trkpt>
      <trkpt lat="44.10968" lon="3.18365">
        <ele>767.8</ele>
        <time>2019-05-31T11:07:21Z</time>
      </trkpt>
      <trkpt lat="44.10972" lon="3.18367">
        <ele>767.8</ele>
        <time>2019-05-31T11:07:22Z</time>
      </trkpt>
      <trkpt lat="44.10976" lon="3.18369">
        <ele>767.8</ele>
        <time>2019-05-31T11:07:23Z</time>
      </trkpt>
      <trkpt lat="44.1098" lon="3.18369">
        <ele>767.8</ele>
        <time>2019-05-31T11:07:24Z</time>
      </trkpt>
      <trkpt lat="44.10984" lon="3.18369">
        <ele>767.7</ele>
        <time>2019-05-31T11:07:25Z</time>
      </trkpt>
      <trkpt lat="44.10988" lon="3.18369">
        <ele>767.7</ele>
        <time>2019-05-31T11:07:26Z</time>
      </trkpt>
      <trkpt lat="44.10991" lon="3.18369">
        <ele>767.7</ele>
        <time>2019-05-31T11:07:27Z</time>
      </trkpt>
      <trkpt lat="44.10994" lon="3.1837">
        <ele>767.7</ele>
        <time>2019-05-31T11:07:28Z</time>
      </trkpt>
      <trkpt lat="44.10997" lon="3.18371">
        <ele>767.7</ele>
        <time>2019-05-31T11:07:29Z</time>
      </trkpt>
      <trkpt lat="44.11001" lon="3.18375">
        <ele>767.7</ele>
        <time>2019-05-31T11:07:31Z</time>
      </trkpt>
      <trkpt lat="44.11004" lon="3.1838">
        <ele>767.6</ele>
        <time>2019-05-31T11:07:33Z</time>
      </trkpt>
      <trkpt lat="44.11007" lon="3.18384">
        <ele>767.5</ele>
        <time>2019-05-31T11:07:35Z</time>
      </trkpt>
      <trkpt lat="44.11009" lon="3.18388">
        <ele>767.4</ele>
        <time>2019-05-31T11:07:37Z</time>
      </trkpt>
      <trkpt lat="44.11012" lon="3.18393">
        <ele>767.2</ele>
        <time>2019-05-31T11:07:39Z</time>
      </trkpt>
      <trkpt lat="44.11015" lon="3.18399">
        <ele>766.9</ele>
        <time>2019-05-31T11:07:41Z</time>
      </trkpt>
      <trkpt lat="44.11017" lon="3.18404">
        <ele>766.6</ele>
        <time>2019-05-31T11:07:43Z</time>
      </trkpt>
      <trkpt lat="44.11016" lon="3.18411">
        <ele>766.2</ele>
        <time>2019-05-31T11:07:45Z</time>
      </trkpt>
      <trkpt lat="44.11014" lon="3.18416">
        <ele>765.8</ele>
        <time>2019-05-31T11:07:46Z</time>
      </trkpt>
      <trkpt lat="44.11012" lon="3.1842">
        <ele>765.4</ele>
        <time>2019-05-31T11:07:47Z</time>
      </trkpt>
      <trkpt lat="44.11008" lon="3.18424">
        <ele>765</ele>
        <time>2019-05-31T11:07:48Z</time>
      </trkpt>
      <trkpt lat="44.11006" lon="3.1843">
        <ele>764.6</ele>
        <time>2019-05-31T11:07:49Z</time>
      </trkpt>
      <trkpt lat="44.11006" lon="3.18435">
        <ele>764.3</ele>
        <time>2019-05-31T11:07:50Z</time>
      </trkpt>
      <trkpt lat="44.11015" lon="3.18436">
        <ele>763.7</ele>
        <time>2019-05-31T11:07:51Z</time>
      </trkpt>
      <trkpt lat="44.11018" lon="3.18438">
        <ele>763.5</ele>
        <time>2019-05-31T11:07:52Z</time>
      </trkpt>
      <trkpt lat="44.11022" lon="3.18442">
        <ele>763.2</ele>
        <time>2019-05-31T11:07:53Z</time>
      </trkpt>
      <trkpt lat="44.11025" lon="3.18445">
        <ele>763</ele>
        <time>2019-05-31T11:07:54Z</time>
      </trkpt>
      <trkpt lat="44.11026" lon="3.1845">
        <ele>762.7</ele>
        <time>2019-05-31T11:07:55Z</time>
      </trkpt>
      <trkpt lat="44.11027" lon="3.18454">
        <ele>762.4</ele>
        <time>2019-05-31T11:07:56Z</time>
      </trkpt>
      <trkpt lat="44.11031" lon="3.18459">
        <ele>762</ele>
        <time>2019-05-31T11:07:57Z</time>
      </trkpt>
      <trkpt lat="44.1103" lon="3.18465">
        <ele>761.7</ele>
        <time>2019-05-31T11:07:58Z</time>
      </trkpt>
      <trkpt lat="44.11031" lon="3.18475">
        <ele>761.4</ele>
        <time>2019-05-31T11:07:59Z</time>
      </trkpt>
      <trkpt lat="44.11036" lon="3.18481">
        <ele>761.1</ele>
        <time>2019-05-31T11:08:00Z</time>
      </trkpt>
      <trkpt lat="44.11039" lon="3.18487">
        <ele>760.8</ele>
        <time>2019-05-31T11:08:01Z</time>
      </trkpt>
      <trkpt lat="44.11041" lon="3.18492">
        <ele>760.7</ele>
        <time>2019-05-31T11:08:02Z</time>
      </trkpt>
      <trkpt lat="44.11043" lon="3.18496">
        <ele>760.6</ele>
        <time>2019-05-31T11:08:03Z</time>
      </trkpt>
      <trkpt lat="44.11045" lon="3.185">
        <ele>760.4</ele>
        <time>2019-05-31T11:08:04Z</time>
      </trkpt>
      <trkpt lat="44.11047" lon="3.18504">
        <ele>760.3</ele>
        <time>2019-05-31T11:08:05Z</time>
      </trkpt>
      <trkpt lat="44.11049" lon="3.18507">
        <ele>760.2</ele>
        <time>2019-05-31T11:08:06Z</time>
      </trkpt>
      <trkpt lat="44.11051" lon="3.18512">
        <ele>760.1</ele>
        <time>2019-05-31T11:08:07Z</time>
      </trkpt>
      <trkpt lat="44.11052" lon="3.18519">
        <ele>760</ele>
        <time>2019-05-31T11:08:08Z</time>
      </trkpt>
      <trkpt lat="44.11054" lon="3.18525">
        <ele>759.8</ele>
        <time>2019-05-31T11:08:09Z</time>
      </trkpt>
      <trkpt lat="44.11057" lon="3.18524">
        <ele>759.8</ele>
        <time>2019-05-31T11:08:10Z</time>
      </trkpt>
      <trkpt lat="44.11063" lon="3.18529">
        <ele>759.6</ele>
        <time>2019-05-31T11:08:11Z</time>
      </trkpt>
      <trkpt lat="44.11066" lon="3.18534">
        <ele>759.4</ele>
        <time>2019-05-31T11:08:12Z</time>
      </trkpt>
      <trkpt lat="44.11068" lon="3.18539">
        <ele>759.2</ele>
        <time>2019-05-31T11:08:13Z</time>
      </trkpt>
      <trkpt lat="44.11071" lon="3.18543">
        <ele>759</ele>
        <time>2019-05-31T11:08:14Z</time>
      </trkpt>
      <trkpt lat="44.11073" lon="3.18546">
        <ele>758.8</ele>
        <time>2019-05-31T11:08:15Z</time>
      </trkpt>
      <trkpt lat="44.11076" lon="3.18548">
        <ele>758.7</ele>
        <time>2019-05-31T11:08:16Z</time>
      </trkpt>
      <trkpt lat="44.1108" lon="3.18549">
        <ele>758.5</ele>
        <time>2019-05-31T11:08:17Z</time>
      </trkpt>
      <trkpt lat="44.11089" lon="3.1855">
        <ele>758</ele>
        <time>2019-05-31T11:08:18Z</time>
      </trkpt>
      <trkpt lat="44.11095" lon="3.18553">
        <ele>757.8</ele>
        <time>2019-05-31T11:08:19Z</time>
      </trkpt>
      <trkpt lat="44.11099" lon="3.18556">
        <ele>757.5</ele>
        <time>2019-05-31T11:08:20Z</time>
      </trkpt>
      <trkpt lat="44.11106" lon="3.18558">
        <ele>757.3</ele>
        <time>2019-05-31T11:08:21Z</time>
      </trkpt>
      <trkpt lat="44.1111" lon="3.1856">
        <ele>757.2</ele>
        <time>2019-05-31T11:08:22Z</time>
      </trkpt>
      <trkpt lat="44.11115" lon="3.18562">
        <ele>757.3</ele>
        <time>2019-05-31T11:08:23Z</time>
      </trkpt>
      <trkpt lat="44.11119" lon="3.1856">
        <ele>757.4</ele>
        <time>2019-05-31T11:08:24Z</time>
      </trkpt>
      <trkpt lat="44.11124" lon="3.1856">
        <ele>757.6</ele>
        <time>2019-05-31T11:08:25Z</time>
      </trkpt>
      <trkpt lat="44.11129" lon="3.18558">
        <ele>757.8</ele>
        <time>2019-05-31T11:08:29Z</time>
      </trkpt>
      <trkpt lat="44.11132" lon="3.18558">
        <ele>758.1</ele>
        <time>2019-05-31T11:08:31Z</time>
      </trkpt>
      <trkpt lat="44.11136" lon="3.18558">
        <ele>758.5</ele>
        <time>2019-05-31T11:08:33Z</time>
      </trkpt>
      <trkpt lat="44.11139" lon="3.1856">
        <ele>758.9</ele>
        <time>2019-05-31T11:08:35Z</time>
      </trkpt>
      <trkpt lat="44.11143" lon="3.18559">
        <ele>759.4</ele>
        <time>2019-05-31T11:08:38Z</time>
      </trkpt>
      <trkpt lat="44.11147" lon="3.18559">
        <ele>759.8</ele>
        <time>2019-05-31T11:08:40Z</time>
      </trkpt>
      <trkpt lat="44.1115" lon="3.18559">
        <ele>760.2</ele>
        <time>2019-05-31T11:08:42Z</time>
      </trkpt>
      <trkpt lat="44.11154" lon="3.18561">
        <ele>760.8</ele>
        <time>2019-05-31T11:08:44Z</time>
      </trkpt>
      <trkpt lat="44.11158" lon="3.18564">
        <ele>761.2</ele>
        <time>2019-05-31T11:08:46Z</time>
      </trkpt>
      <trkpt lat="44.11162" lon="3.18566">
        <ele>761.6</ele>
        <time>2019-05-31T11:08:48Z</time>
      </trkpt>
      <trkpt lat="44.11166" lon="3.18569">
        <ele>762</ele>
        <time>2019-05-31T11:08:50Z</time>
      </trkpt>
      <trkpt lat="44.11171" lon="3.18572">
        <ele>762.2</ele>
        <time>2019-05-31T11:08:52Z</time>
      </trkpt>
      <trkpt lat="44.11173" lon="3.18575">
        <ele>762.4</ele>
        <time>2019-05-31T11:08:53Z</time>
      </trkpt>
      <trkpt lat="44.11176" lon="3.18577">
        <ele>762.5</ele>
        <time>2019-05-31T11:08:54Z</time>
      </trkpt>
      <trkpt lat="44.11179" lon="3.18581">
        <ele>762.5</ele>
        <time>2019-05-31T11:08:55Z</time>
      </trkpt>
      <trkpt lat="44.11183" lon="3.18585">
        <ele>762.6</ele>
        <time>2019-05-31T11:08:56Z</time>
      </trkpt>
      <trkpt lat="44.11186" lon="3.18588">
        <ele>762.6</ele>
        <time>2019-05-31T11:08:57Z</time>
      </trkpt>
      <trkpt lat="44.11188" lon="3.18592">
        <ele>762.5</ele>
        <time>2019-05-31T11:08:58Z</time>
      </trkpt>
      <trkpt lat="44.1119" lon="3.18594">
        <ele>762.5</ele>
        <time>2019-05-31T11:08:59Z</time>
      </trkpt>
      <trkpt lat="44.11193" lon="3.18596">
        <ele>762.5</ele>
        <time>2019-05-31T11:09:00Z</time>
      </trkpt>
      <trkpt lat="44.11196" lon="3.18599">
        <ele>762.5</ele>
        <time>2019-05-31T11:09:02Z</time>
      </trkpt>
      <trkpt lat="44.11198" lon="3.18601">
        <ele>762.5</ele>
        <time>2019-05-31T11:09:04Z</time>
      </trkpt>
      <trkpt lat="44.11202" lon="3.18598">
        <ele>762.4</ele>
        <time>2019-05-31T11:09:06Z</time>
      </trkpt>
      <trkpt lat="44.11205" lon="3.18596">
        <ele>762.4</ele>
        <time>2019-05-31T11:09:07Z</time>
      </trkpt>
      <trkpt lat="44.11211" lon="3.18594">
        <ele>762.4</ele>
        <time>2019-05-31T11:09:08Z</time>
      </trkpt>
      <trkpt lat="44.11215" lon="3.18592">
        <ele>762.5</ele>
        <time>2019-05-31T11:09:09Z</time>
      </trkpt>
      <trkpt lat="44.11219" lon="3.18591">
        <ele>762.5</ele>
        <time>2019-05-31T11:09:10Z</time>
      </trkpt>
      <trkpt lat="44.11222" lon="3.18591">
        <ele>762.5</ele>
        <time>2019-05-31T11:09:11Z</time>
      </trkpt>
      <trkpt lat="44.11226" lon="3.1859">
        <ele>762.6</ele>
        <time>2019-05-31T11:09:13Z</time>
      </trkpt>
      <trkpt lat="44.11229" lon="3.18589">
        <ele>762.6</ele>
        <time>2019-05-31T11:09:14Z</time>
      </trkpt>
      <trkpt lat="44.11232" lon="3.18589">
        <ele>762.7</ele>
        <time>2019-05-31T11:09:15Z</time>
      </trkpt>
      <trkpt lat="44.11237" lon="3.18587">
        <ele>762.8</ele>
        <time>2019-05-31T11:09:17Z</time>
      </trkpt>
      <trkpt lat="44.11242" lon="3.18586">
        <ele>762.9</ele>
        <time>2019-05-31T11:09:19Z</time>
      </trkpt>
      <trkpt lat="44.11246" lon="3.18584">
        <ele>763.1</ele>
        <time>2019-05-31T11:09:21Z</time>
      </trkpt>
      <trkpt lat="44.1125" lon="3.18584">
        <ele>763.2</ele>
        <time>2019-05-31T11:09:23Z</time>
      </trkpt>
      <trkpt lat="44.11253" lon="3.18583">
        <ele>763.3</ele>
        <time>2019-05-31T11:09:25Z</time>
      </trkpt>
      <trkpt lat="44.11257" lon="3.18581">
        <ele>763.4</ele>
        <time>2019-05-31T11:09:27Z</time>
      </trkpt>
      <trkpt lat="44.11261" lon="3.18578">
        <ele>763.6</ele>
        <time>2019-05-31T11:09:29Z</time>
      </trkpt>
      <trkpt lat="44.11266" lon="3.18579">
        <ele>763.7</ele>
        <time>2019-05-31T11:09:31Z</time>
      </trkpt>
      <trkpt lat="44.11269" lon="3.1858">
        <ele>763.9</ele>
        <time>2019-05-31T11:09:32Z</time>
      </trkpt>
      <trkpt lat="44.11272" lon="3.18581">
        <ele>764</ele>
        <time>2019-05-31T11:09:33Z</time>
      </trkpt>
      <trkpt lat="44.11277" lon="3.18581">
        <ele>764.3</ele>
        <time>2019-05-31T11:09:35Z</time>
      </trkpt>
      <trkpt lat="44.11281" lon="3.18581">
        <ele>764.5</ele>
        <time>2019-05-31T11:09:37Z</time>
      </trkpt>
      <trkpt lat="44.11285" lon="3.1858">
        <ele>764.8</ele>
        <time>2019-05-31T11:09:39Z</time>
      </trkpt>
      <trkpt lat="44.11289" lon="3.18579">
        <ele>765</ele>
        <time>2019-05-31T11:09:41Z</time>
      </trkpt>
      <trkpt lat="44.11293" lon="3.18576">
        <ele>765.2</ele>
        <time>2019-05-31T11:09:43Z</time>
      </trkpt>
      <trkpt lat="44.11296" lon="3.18574">
        <ele>765.4</ele>
        <time>2019-05-31T11:09:45Z</time>
      </trkpt>
      <trkpt lat="44.113" lon="3.18574">
        <ele>765.7</ele>
        <time>2019-05-31T11:09:47Z</time>
      </trkpt>
      <trkpt lat="44.11302" lon="3.18573">
        <ele>766</ele>
        <time>2019-05-31T11:09:49Z</time>
      </trkpt>
      <trkpt lat="44.11307" lon="3.18576">
        <ele>766.1</ele>
        <time>2019-05-31T11:09:51Z</time>
      </trkpt>
      <trkpt lat="44.1131" lon="3.18578">
        <ele>766.2</ele>
        <time>2019-05-31T11:09:53Z</time>
      </trkpt>
      <trkpt lat="44.11315" lon="3.18581">
        <ele>766.3</ele>
        <time>2019-05-31T11:09:55Z</time>
      </trkpt>
      <trkpt lat="44.11318" lon="3.18584">
        <ele>766.3</ele>
        <time>2019-05-31T11:09:56Z</time>
      </trkpt>
      <trkpt lat="44.11321" lon="3.18587">
        <ele>766.3</ele>
        <time>2019-05-31T11:09:58Z</time>
      </trkpt>
      <trkpt lat="44.11324" lon="3.18592">
        <ele>766.3</ele>
        <time>2019-05-31T11:10:00Z</time>
      </trkpt>
      <trkpt lat="44.11325" lon="3.18595">
        <ele>766.2</ele>
        <time>2019-05-31T11:10:08Z</time>
      </trkpt>
      <trkpt lat="44.11325" lon="3.18597">
        <ele>766.2</ele>
        <time>2019-05-31T11:10:50Z</time>
      </trkpt>
      <trkpt lat="44.11326" lon="3.18599">
        <ele>766.2</ele>
        <time>2019-05-31T11:11:24Z</time>
      </trkpt>
      <trkpt lat="44.11327" lon="3.18601">
        <ele>766.1</ele>
        <time>2019-05-31T11:11:25Z</time>
      </trkpt>
      <trkpt lat="44.11324" lon="3.18606">
        <ele>766</ele>
        <time>2019-05-31T11:11:26Z</time>
      </trkpt>
      <trkpt lat="44.11321" lon="3.1861">
        <ele>766</ele>
        <time>2019-05-31T11:11:27Z</time>
      </trkpt>
      <trkpt lat="44.1132" lon="3.18615">
        <ele>766.1</ele>
        <time>2019-05-31T11:11:28Z</time>
      </trkpt>
      <trkpt lat="44.11319" lon="3.1862">
        <ele>766.2</ele>
        <time>2019-05-31T11:11:29Z</time>
      </trkpt>
      <trkpt lat="44.1132" lon="3.18626">
        <ele>766.4</ele>
        <time>2019-05-31T11:11:30Z</time>
      </trkpt>
      <trkpt lat="44.11322" lon="3.1863">
        <ele>766.6</ele>
        <time>2019-05-31T11:11:31Z</time>
      </trkpt>
      <trkpt lat="44.11324" lon="3.18633">
        <ele>766.8</ele>
        <time>2019-05-31T11:11:32Z</time>
      </trkpt>
      <trkpt lat="44.11328" lon="3.18637">
        <ele>767.1</ele>
        <time>2019-05-31T11:11:34Z</time>
      </trkpt>
      <trkpt lat="44.1133" lon="3.18639">
        <ele>767.3</ele>
        <time>2019-05-31T11:11:35Z</time>
      </trkpt>
      <trkpt lat="44.11333" lon="3.18641">
        <ele>767.4</ele>
        <time>2019-05-31T11:11:36Z</time>
      </trkpt>
      <trkpt lat="44.11335" lon="3.18646">
        <ele>767.7</ele>
        <time>2019-05-31T11:11:38Z</time>
      </trkpt>
      <trkpt lat="44.11337" lon="3.18652">
        <ele>768</ele>
        <time>2019-05-31T11:11:40Z</time>
      </trkpt>
      <trkpt lat="44.1134" lon="3.18658">
        <ele>768.6</ele>
        <time>2019-05-31T11:11:42Z</time>
      </trkpt>
      <trkpt lat="44.11342" lon="3.1866">
        <ele>768.8</ele>
        <time>2019-05-31T11:11:43Z</time>
      </trkpt>
      <trkpt lat="44.11348" lon="3.18664">
        <ele>769.2</ele>
        <time>2019-05-31T11:11:45Z</time>
      </trkpt>
      <trkpt lat="44.11351" lon="3.18666">
        <ele>769.5</ele>
        <time>2019-05-31T11:11:46Z</time>
      </trkpt>
      <trkpt lat="44.11354" lon="3.18668">
        <ele>769.7</ele>
        <time>2019-05-31T11:11:47Z</time>
      </trkpt>
      <trkpt lat="44.11358" lon="3.1867">
        <ele>770.1</ele>
        <time>2019-05-31T11:11:48Z</time>
      </trkpt>
      <trkpt lat="44.11361" lon="3.18672">
        <ele>770.4</ele>
        <time>2019-05-31T11:11:49Z</time>
      </trkpt>
      <trkpt lat="44.11365" lon="3.18675">
        <ele>771.1</ele>
        <time>2019-05-31T11:11:50Z</time>
      </trkpt>
      <trkpt lat="44.1137" lon="3.18676">
        <ele>771.6</ele>
        <time>2019-05-31T11:11:51Z</time>
      </trkpt>
      <trkpt lat="44.11373" lon="3.18678">
        <ele>772</ele>
        <time>2019-05-31T11:11:52Z</time>
      </trkpt>
      <trkpt lat="44.11377" lon="3.1868">
        <ele>772.4</ele>
        <time>2019-05-31T11:11:54Z</time>
      </trkpt>
      <trkpt lat="44.11382" lon="3.18679">
        <ele>773.2</ele>
        <time>2019-05-31T11:11:56Z</time>
      </trkpt>
      <trkpt lat="44.11386" lon="3.18677">
        <ele>774</ele>
        <time>2019-05-31T11:11:58Z</time>
      </trkpt>
      <trkpt lat="44.11391" lon="3.18674">
        <ele>774.9</ele>
        <time>2019-05-31T11:12:00Z</time>
      </trkpt>
      <trkpt lat="44.11393" lon="3.18668">
        <ele>775.6</ele>
        <time>2019-05-31T11:12:02Z</time>
      </trkpt>
      <trkpt lat="44.11391" lon="3.18662">
        <ele>776.5</ele>
        <time>2019-05-31T11:12:04Z</time>
      </trkpt>
      <trkpt lat="44.11393" lon="3.18659">
        <ele>777.2</ele>
        <time>2019-05-31T11:12:15Z</time>
      </trkpt>
      <trkpt lat="44.11396" lon="3.18655">
        <ele>777.9</ele>
        <time>2019-05-31T11:12:18Z</time>
      </trkpt>
      <trkpt lat="44.11398" lon="3.18653">
        <ele>778.5</ele>
        <time>2019-05-31T11:12:20Z</time>
      </trkpt>
      <trkpt lat="44.11401" lon="3.1865">
        <ele>779.2</ele>
        <time>2019-05-31T11:12:22Z</time>
      </trkpt>
      <trkpt lat="44.11405" lon="3.18649">
        <ele>780</ele>
        <time>2019-05-31T11:12:24Z</time>
      </trkpt>
      <trkpt lat="44.11409" lon="3.18651">
        <ele>780.9</ele>
        <time>2019-05-31T11:12:26Z</time>
      </trkpt>
      <trkpt lat="44.11412" lon="3.18652">
        <ele>781.3</ele>
        <time>2019-05-31T11:12:27Z</time>
      </trkpt>
      <trkpt lat="44.11415" lon="3.18654">
        <ele>781.8</ele>
        <time>2019-05-31T11:12:28Z</time>
      </trkpt>
      <trkpt lat="44.11418" lon="3.18657">
        <ele>782.3</ele>
        <time>2019-05-31T11:12:29Z</time>
      </trkpt>
      <trkpt lat="44.11422" lon="3.18662">
        <ele>783.3</ele>
        <time>2019-05-31T11:12:30Z</time>
      </trkpt>
      <trkpt lat="44.11426" lon="3.18665">
        <ele>784.1</ele>
        <time>2019-05-31T11:12:31Z</time>
      </trkpt>
      <trkpt lat="44.11427" lon="3.18671">
        <ele>785</ele>
        <time>2019-05-31T11:12:32Z</time>
      </trkpt>
      <trkpt lat="44.11431" lon="3.18669">
        <ele>786</ele>
        <time>2019-05-31T11:12:33Z</time>
      </trkpt>
      <trkpt lat="44.11434" lon="3.1867">
        <ele>786.4</ele>
        <time>2019-05-31T11:12:35Z</time>
      </trkpt>
      <trkpt lat="44.11437" lon="3.18671">
        <ele>786.8</ele>
        <time>2019-05-31T11:12:37Z</time>
      </trkpt>
      <trkpt lat="44.11442" lon="3.18674">
        <ele>787.5</ele>
        <time>2019-05-31T11:12:39Z</time>
      </trkpt>
      <trkpt lat="44.11446" lon="3.18676">
        <ele>788.2</ele>
        <time>2019-05-31T11:12:41Z</time>
      </trkpt>
      <trkpt lat="44.1145" lon="3.18678">
        <ele>788.9</ele>
        <time>2019-05-31T11:12:43Z</time>
      </trkpt>
      <trkpt lat="44.11455" lon="3.18678">
        <ele>789.7</ele>
        <time>2019-05-31T11:12:45Z</time>
      </trkpt>
      <trkpt lat="44.11458" lon="3.18678">
        <ele>790.2</ele>
        <time>2019-05-31T11:12:46Z</time>
      </trkpt>
      <trkpt lat="44.11461" lon="3.18679">
        <ele>790.7</ele>
        <time>2019-05-31T11:12:47Z</time>
      </trkpt>
      <trkpt lat="44.11465" lon="3.18681">
        <ele>791.2</ele>
        <time>2019-05-31T11:12:49Z</time>
      </trkpt>
      <trkpt lat="44.1147" lon="3.18684">
        <ele>791.7</ele>
        <time>2019-05-31T11:12:51Z</time>
      </trkpt>
      <trkpt lat="44.11473" lon="3.18686">
        <ele>792</ele>
        <time>2019-05-31T11:12:52Z</time>
      </trkpt>
      <trkpt lat="44.11474" lon="3.18692">
        <ele>792.2</ele>
        <time>2019-05-31T11:12:54Z</time>
      </trkpt>
      <trkpt lat="44.11471" lon="3.18697">
        <ele>792.2</ele>
        <time>2019-05-31T11:12:56Z</time>
      </trkpt>
      <trkpt lat="44.1147" lon="3.18701">
        <ele>792.3</ele>
        <time>2019-05-31T11:12:58Z</time>
      </trkpt>
      <trkpt lat="44.11468" lon="3.18705">
        <ele>792.2</ele>
        <time>2019-05-31T11:13:00Z</time>
      </trkpt>
      <trkpt lat="44.11465" lon="3.18711">
        <ele>792</ele>
        <time>2019-05-31T11:13:02Z</time>
      </trkpt>
      <trkpt lat="44.11465" lon="3.18722">
        <ele>791.4</ele>
        <time>2019-05-31T11:13:03Z</time>
      </trkpt>
      <trkpt lat="44.11467" lon="3.18729">
        <ele>791.2</ele>
        <time>2019-05-31T11:13:04Z</time>
      </trkpt>
      <trkpt lat="44.1147" lon="3.18737">
        <ele>790.9</ele>
        <time>2019-05-31T11:13:05Z</time>
      </trkpt>
      <trkpt lat="44.11472" lon="3.18743">
        <ele>790.7</ele>
        <time>2019-05-31T11:13:06Z</time>
      </trkpt>
      <trkpt lat="44.11476" lon="3.18748">
        <ele>790.6</ele>
        <time>2019-05-31T11:13:07Z</time>
      </trkpt>
      <trkpt lat="44.11478" lon="3.18753">
        <ele>790.5</ele>
        <time>2019-05-31T11:13:08Z</time>
      </trkpt>
      <trkpt lat="44.11486" lon="3.18754">
        <ele>790.5</ele>
        <time>2019-05-31T11:13:09Z</time>
      </trkpt>
      <trkpt lat="44.11489" lon="3.18758">
        <ele>790.5</ele>
        <time>2019-05-31T11:13:10Z</time>
      </trkpt>
      <trkpt lat="44.11495" lon="3.18755">
        <ele>790.6</ele>
        <time>2019-05-31T11:13:12Z</time>
      </trkpt>
      <trkpt lat="44.11498" lon="3.18749">
        <ele>790.8</ele>
        <time>2019-05-31T11:13:13Z</time>
      </trkpt>
      <trkpt lat="44.115" lon="3.18747">
        <ele>790.9</ele>
        <time>2019-05-31T11:13:14Z</time>
      </trkpt>
      <trkpt lat="44.11505" lon="3.18746">
        <ele>791.2</ele>
        <time>2019-05-31T11:13:16Z</time>
      </trkpt>
      <trkpt lat="44.11509" lon="3.18745">
        <ele>791.5</ele>
        <time>2019-05-31T11:13:17Z</time>
      </trkpt>
      <trkpt lat="44.11513" lon="3.18742">
        <ele>791.8</ele>
        <time>2019-05-31T11:13:19Z</time>
      </trkpt>
      <trkpt lat="44.11517" lon="3.18743">
        <ele>792.3</ele>
        <time>2019-05-31T11:13:21Z</time>
      </trkpt>
      <trkpt lat="44.11522" lon="3.18744">
        <ele>792.8</ele>
        <time>2019-05-31T11:13:23Z</time>
      </trkpt>
      <trkpt lat="44.11524" lon="3.18743">
        <ele>793.3</ele>
        <time>2019-05-31T11:13:27Z</time>
      </trkpt>
      <trkpt lat="44.11527" lon="3.18742">
        <ele>793.7</ele>
        <time>2019-05-31T11:13:32Z</time>
      </trkpt>
      <trkpt lat="44.11529" lon="3.1874">
        <ele>794.2</ele>
        <time>2019-05-31T11:14:19Z</time>
      </trkpt>
      <trkpt lat="44.1153" lon="3.18736">
        <ele>794.6</ele>
        <time>2019-05-31T11:14:25Z</time>
      </trkpt>
      <trkpt lat="44.1153" lon="3.1874">
        <ele>795</ele>
        <time>2019-05-31T11:14:44Z</time>
      </trkpt>
      <trkpt lat="44.11527" lon="3.18737">
        <ele>795.5</ele>
        <time>2019-05-31T11:16:57Z</time>
      </trkpt>
      <trkpt lat="44.11529" lon="3.18737">
        <ele>795.9</ele>
        <time>2019-05-31T11:17:11Z</time>
      </trkpt>
      <trkpt lat="44.11529" lon="3.18746">
        <ele>796.9</ele>
        <time>2019-05-31T11:19:17Z</time>
      </trkpt>
      <trkpt lat="44.1153" lon="3.18752">
        <ele>797.5</ele>
        <time>2019-05-31T11:19:19Z</time>
      </trkpt>
      <trkpt lat="44.11533" lon="3.18757">
        <ele>798.2</ele>
        <time>2019-05-31T11:19:21Z</time>
      </trkpt>
      <trkpt lat="44.11533" lon="3.18763">
        <ele>798.8</ele>
        <time>2019-05-31T11:19:23Z</time>
      </trkpt>
      <trkpt lat="44.11531" lon="3.18766">
        <ele>799.3</ele>
        <time>2019-05-31T11:19:25Z</time>
      </trkpt>
      <trkpt lat="44.11528" lon="3.18768">
        <ele>799.8</ele>
        <time>2019-05-31T11:19:27Z</time>
      </trkpt>
      <trkpt lat="44.11526" lon="3.18772">
        <ele>800.4</ele>
        <time>2019-05-31T11:19:29Z</time>
      </trkpt>
      <trkpt lat="44.11527" lon="3.18778">
        <ele>801.2</ele>
        <time>2019-05-31T11:19:31Z</time>
      </trkpt>
      <trkpt lat="44.11527" lon="3.18785">
        <ele>801.9</ele>
        <time>2019-05-31T11:19:33Z</time>
      </trkpt>
      <trkpt lat="44.11527" lon="3.1879">
        <ele>802.5</ele>
        <time>2019-05-31T11:19:35Z</time>
      </trkpt>
      <trkpt lat="44.11526" lon="3.18794">
        <ele>803</ele>
        <time>2019-05-31T11:19:38Z</time>
      </trkpt>
      <trkpt lat="44.11524" lon="3.18798">
        <ele>803.5</ele>
        <time>2019-05-31T11:19:40Z</time>
      </trkpt>
      <trkpt lat="44.11521" lon="3.18801">
        <ele>803.9</ele>
        <time>2019-05-31T11:19:41Z</time>
      </trkpt>
      <trkpt lat="44.11515" lon="3.18806">
        <ele>804.8</ele>
        <time>2019-05-31T11:19:42Z</time>
      </trkpt>
      <trkpt lat="44.11505" lon="3.18806">
        <ele>805.8</ele>
        <time>2019-05-31T11:19:43Z</time>
      </trkpt>
      <trkpt lat="44.11499" lon="3.18808">
        <ele>806.5</ele>
        <time>2019-05-31T11:19:45Z</time>
      </trkpt>
      <trkpt lat="44.11495" lon="3.1881">
        <ele>807.1</ele>
        <time>2019-05-31T11:19:46Z</time>
      </trkpt>
      <trkpt lat="44.11491" lon="3.18811">
        <ele>807.9</ele>
        <time>2019-05-31T11:19:47Z</time>
      </trkpt>
      <trkpt lat="44.11487" lon="3.18811">
        <ele>808.4</ele>
        <time>2019-05-31T11:19:48Z</time>
      </trkpt>
      <trkpt lat="44.11484" lon="3.18814">
        <ele>809</ele>
        <time>2019-05-31T11:19:50Z</time>
      </trkpt>
      <trkpt lat="44.11482" lon="3.18822">
        <ele>809.9</ele>
        <time>2019-05-31T11:19:51Z</time>
      </trkpt>
      <trkpt lat="44.1148" lon="3.18825">
        <ele>810.5</ele>
        <time>2019-05-31T11:19:52Z</time>
      </trkpt>
      <trkpt lat="44.11481" lon="3.1883">
        <ele>811</ele>
        <time>2019-05-31T11:19:53Z</time>
      </trkpt>
      <trkpt lat="44.11477" lon="3.18834">
        <ele>811.5</ele>
        <time>2019-05-31T11:19:54Z</time>
      </trkpt>
      <trkpt lat="44.11475" lon="3.18838">
        <ele>811.8</ele>
        <time>2019-05-31T11:19:55Z</time>
      </trkpt>
      <trkpt lat="44.11472" lon="3.18841">
        <ele>812</ele>
        <time>2019-05-31T11:19:57Z</time>
      </trkpt>
      <trkpt lat="44.11469" lon="3.18843">
        <ele>812.1</ele>
        <time>2019-05-31T11:19:58Z</time>
      </trkpt>
      <trkpt lat="44.11466" lon="3.18845">
        <ele>812.1</ele>
        <time>2019-05-31T11:19:59Z</time>
      </trkpt>
      <trkpt lat="44.11461" lon="3.18848">
        <ele>812</ele>
        <time>2019-05-31T11:20:00Z</time>
      </trkpt>
      <trkpt lat="44.11458" lon="3.1885">
        <ele>811.8</ele>
        <time>2019-05-31T11:20:01Z</time>
      </trkpt>
      <trkpt lat="44.11454" lon="3.18852">
        <ele>811.4</ele>
        <time>2019-05-31T11:20:03Z</time>
      </trkpt>
      <trkpt lat="44.11452" lon="3.18854">
        <ele>811</ele>
        <time>2019-05-31T11:20:05Z</time>
      </trkpt>
      <trkpt lat="44.11453" lon="3.18857">
        <ele>810.5</ele>
        <time>2019-05-31T11:20:10Z</time>
      </trkpt>
      <trkpt lat="44.11453" lon="3.18862">
        <ele>809.8</ele>
        <time>2019-05-31T11:20:12Z</time>
      </trkpt>
      <trkpt lat="44.11452" lon="3.18866">
        <ele>809.2</ele>
        <time>2019-05-31T11:20:13Z</time>
      </trkpt>
      <trkpt lat="44.11449" lon="3.18871">
        <ele>808.1</ele>
        <time>2019-05-31T11:20:14Z</time>
      </trkpt>
      <trkpt lat="44.11447" lon="3.18876">
        <ele>806.9</ele>
        <time>2019-05-31T11:20:16Z</time>
      </trkpt>
      <trkpt lat="44.11445" lon="3.1888">
        <ele>806.2</ele>
        <time>2019-05-31T11:20:17Z</time>
      </trkpt>
      <trkpt lat="44.11444" lon="3.18884">
        <ele>805.4</ele>
        <time>2019-05-31T11:20:18Z</time>
      </trkpt>
      <trkpt lat="44.11443" lon="3.18888">
        <ele>804.7</ele>
        <time>2019-05-31T11:20:19Z</time>
      </trkpt>
      <trkpt lat="44.11443" lon="3.18893">
        <ele>804</ele>
        <time>2019-05-31T11:20:20Z</time>
      </trkpt>
      <trkpt lat="44.11442" lon="3.18896">
        <ele>803.3</ele>
        <time>2019-05-31T11:20:21Z</time>
      </trkpt>
      <trkpt lat="44.11443" lon="3.18901">
        <ele>802.4</ele>
        <time>2019-05-31T11:20:22Z</time>
      </trkpt>
      <trkpt lat="44.11445" lon="3.18904">
        <ele>801.5</ele>
        <time>2019-05-31T11:20:23Z</time>
      </trkpt>
      <trkpt lat="44.11447" lon="3.18908">
        <ele>801.2</ele>
        <time>2019-05-31T11:20:24Z</time>
      </trkpt>
      <trkpt lat="44.11449" lon="3.18912">
        <ele>801.7</ele>
        <time>2019-05-31T11:20:25Z</time>
      </trkpt>
      <trkpt lat="44.11453" lon="3.18916">
        <ele>802.2</ele>
        <time>2019-05-31T11:20:26Z</time>
      </trkpt>
      <trkpt lat="44.11456" lon="3.1892">
        <ele>802.7</ele>
        <time>2019-05-31T11:20:27Z</time>
      </trkpt>
      <trkpt lat="44.11459" lon="3.18923">
        <ele>803.1</ele>
        <time>2019-05-31T11:20:28Z</time>
      </trkpt>
      <trkpt lat="44.11463" lon="3.18924">
        <ele>803.5</ele>
        <time>2019-05-31T11:20:29Z</time>
      </trkpt>
      <trkpt lat="44.11466" lon="3.18926">
        <ele>803.8</ele>
        <time>2019-05-31T11:20:30Z</time>
      </trkpt>
      <trkpt lat="44.1147" lon="3.1893">
        <ele>804.1</ele>
        <time>2019-05-31T11:20:32Z</time>
      </trkpt>
      <trkpt lat="44.11471" lon="3.18933">
        <ele>804.3</ele>
        <time>2019-05-31T11:20:33Z</time>
      </trkpt>
      <trkpt lat="44.11472" lon="3.18937">
        <ele>804.4</ele>
        <time>2019-05-31T11:20:34Z</time>
      </trkpt>
      <trkpt lat="44.11473" lon="3.18941">
        <ele>804.5</ele>
        <time>2019-05-31T11:20:35Z</time>
      </trkpt>
      <trkpt lat="44.11474" lon="3.18945">
        <ele>804.6</ele>
        <time>2019-05-31T11:20:36Z</time>
      </trkpt>
      <trkpt lat="44.11475" lon="3.18949">
        <ele>804.6</ele>
        <time>2019-05-31T11:20:37Z</time>
      </trkpt>
      <trkpt lat="44.11477" lon="3.18952">
        <ele>804.7</ele>
        <time>2019-05-31T11:20:38Z</time>
      </trkpt>
      <trkpt lat="44.11481" lon="3.18957">
        <ele>804.8</ele>
        <time>2019-05-31T11:20:40Z</time>
      </trkpt>
      <trkpt lat="44.11483" lon="3.1896">
        <ele>804.8</ele>
        <time>2019-05-31T11:20:41Z</time>
      </trkpt>
      <trkpt lat="44.11485" lon="3.18963">
        <ele>804.8</ele>
        <time>2019-05-31T11:20:42Z</time>
      </trkpt>
      <trkpt lat="44.11485" lon="3.18969">
        <ele>804.8</ele>
        <time>2019-05-31T11:20:44Z</time>
      </trkpt>
      <trkpt lat="44.11483" lon="3.18973">
        <ele>804.7</ele>
        <time>2019-05-31T11:20:46Z</time>
      </trkpt>
      <trkpt lat="44.1148" lon="3.18975">
        <ele>804.7</ele>
        <time>2019-05-31T11:20:47Z</time>
      </trkpt>
      <trkpt lat="44.11479" lon="3.1898">
        <ele>804.6</ele>
        <time>2019-05-31T11:20:49Z</time>
      </trkpt>
      <trkpt lat="44.11481" lon="3.18986">
        <ele>804.5</ele>
        <time>2019-05-31T11:20:51Z</time>
      </trkpt>
      <trkpt lat="44.11483" lon="3.18989">
        <ele>804.4</ele>
        <time>2019-05-31T11:20:52Z</time>
      </trkpt>
      <trkpt lat="44.11486" lon="3.18995">
        <ele>804.3</ele>
        <time>2019-05-31T11:20:54Z</time>
      </trkpt>
      <trkpt lat="44.11487" lon="3.18999">
        <ele>804.2</ele>
        <time>2019-05-31T11:20:55Z</time>
      </trkpt>
      <trkpt lat="44.11489" lon="3.19004">
        <ele>804.1</ele>
        <time>2019-05-31T11:20:57Z</time>
      </trkpt>
      <trkpt lat="44.11489" lon="3.1901">
        <ele>803.9</ele>
        <time>2019-05-31T11:20:59Z</time>
      </trkpt>
      <trkpt lat="44.11487" lon="3.19017">
        <ele>803.7</ele>
        <time>2019-05-31T11:21:01Z</time>
      </trkpt>
      <trkpt lat="44.11485" lon="3.1902">
        <ele>803.6</ele>
        <time>2019-05-31T11:21:02Z</time>
      </trkpt>
      <trkpt lat="44.11482" lon="3.19026">
        <ele>803.3</ele>
        <time>2019-05-31T11:21:04Z</time>
      </trkpt>
      <trkpt lat="44.1148" lon="3.19029">
        <ele>803.2</ele>
        <time>2019-05-31T11:21:05Z</time>
      </trkpt>
      <trkpt lat="44.11478" lon="3.19031">
        <ele>803</ele>
        <time>2019-05-31T11:21:06Z</time>
      </trkpt>
      <trkpt lat="44.11473" lon="3.19033">
        <ele>802.6</ele>
        <time>2019-05-31T11:21:08Z</time>
      </trkpt>
      <trkpt lat="44.1147" lon="3.19034">
        <ele>802.4</ele>
        <time>2019-05-31T11:21:09Z</time>
      </trkpt>
      <trkpt lat="44.11467" lon="3.19036">
        <ele>802.1</ele>
        <time>2019-05-31T11:21:10Z</time>
      </trkpt>
      <trkpt lat="44.11464" lon="3.19038">
        <ele>801.9</ele>
        <time>2019-05-31T11:21:11Z</time>
      </trkpt>
      <trkpt lat="44.1146" lon="3.1904">
        <ele>801.5</ele>
        <time>2019-05-31T11:21:12Z</time>
      </trkpt>
      <trkpt lat="44.11456" lon="3.19042">
        <ele>801.1</ele>
        <time>2019-05-31T11:21:13Z</time>
      </trkpt>
      <trkpt lat="44.11453" lon="3.19044">
        <ele>800.8</ele>
        <time>2019-05-31T11:21:14Z</time>
      </trkpt>
      <trkpt lat="44.11451" lon="3.19049">
        <ele>800.4</ele>
        <time>2019-05-31T11:21:16Z</time>
      </trkpt>
      <trkpt lat="44.11451" lon="3.19053">
        <ele>800.2</ele>
        <time>2019-05-31T11:21:18Z</time>
      </trkpt>
      <trkpt lat="44.11451" lon="3.19057">
        <ele>800</ele>
        <time>2019-05-31T11:21:20Z</time>
      </trkpt>
      <trkpt lat="44.11448" lon="3.1906">
        <ele>799.8</ele>
        <time>2019-05-31T11:21:22Z</time>
      </trkpt>
      <trkpt lat="44.11443" lon="3.19063">
        <ele>799.5</ele>
        <time>2019-05-31T11:21:24Z</time>
      </trkpt>
      <trkpt lat="44.1144" lon="3.19065">
        <ele>799.4</ele>
        <time>2019-05-31T11:21:25Z</time>
      </trkpt>
      <trkpt lat="44.11437" lon="3.19066">
        <ele>799.2</ele>
        <time>2019-05-31T11:21:27Z</time>
      </trkpt>
      <trkpt lat="44.11434" lon="3.19067">
        <ele>799.1</ele>
        <time>2019-05-31T11:21:29Z</time>
      </trkpt>
      <trkpt lat="44.1143" lon="3.1907">
        <ele>799</ele>
        <time>2019-05-31T11:21:31Z</time>
      </trkpt>
      <trkpt lat="44.11428" lon="3.19074">
        <ele>798.8</ele>
        <time>2019-05-31T11:21:34Z</time>
      </trkpt>
      <trkpt lat="44.11425" lon="3.19075">
        <ele>798.7</ele>
        <time>2019-05-31T11:21:38Z</time>
      </trkpt>
      <trkpt lat="44.11423" lon="3.19078">
        <ele>798.6</ele>
        <time>2019-05-31T11:21:42Z</time>
      </trkpt>
      <trkpt lat="44.11421" lon="3.19082">
        <ele>798.5</ele>
        <time>2019-05-31T11:21:47Z</time>
      </trkpt>
      <trkpt lat="44.11421" lon="3.19086">
        <ele>798.4</ele>
        <time>2019-05-31T11:21:50Z</time>
      </trkpt>
      <trkpt lat="44.1142" lon="3.19089">
        <ele>798.3</ele>
        <time>2019-05-31T11:21:52Z</time>
      </trkpt>
      <trkpt lat="44.11419" lon="3.19094">
        <ele>798.3</ele>
        <time>2019-05-31T11:21:54Z</time>
      </trkpt>
      <trkpt lat="44.11418" lon="3.19097">
        <ele>798.2</ele>
        <time>2019-05-31T11:21:56Z</time>
      </trkpt>
      <trkpt lat="44.11416" lon="3.19105">
        <ele>798.1</ele>
        <time>2019-05-31T11:22:07Z</time>
      </trkpt>
      <trkpt lat="44.11417" lon="3.1911">
        <ele>798</ele>
        <time>2019-05-31T11:22:09Z</time>
      </trkpt>
      <trkpt lat="44.11418" lon="3.19114">
        <ele>798</ele>
        <time>2019-05-31T11:22:10Z</time>
      </trkpt>
      <trkpt lat="44.11419" lon="3.19119">
        <ele>797.9</ele>
        <time>2019-05-31T11:22:11Z</time>
      </trkpt>
      <trkpt lat="44.1142" lon="3.19124">
        <ele>797.7</ele>
        <time>2019-05-31T11:22:12Z</time>
      </trkpt>
      <trkpt lat="44.11419" lon="3.19129">
        <ele>797.6</ele>
        <time>2019-05-31T11:22:13Z</time>
      </trkpt>
      <trkpt lat="44.11417" lon="3.19135">
        <ele>797.3</ele>
        <time>2019-05-31T11:22:14Z</time>
      </trkpt>
      <trkpt lat="44.11415" lon="3.19139">
        <ele>797.1</ele>
        <time>2019-05-31T11:22:15Z</time>
      </trkpt>
      <trkpt lat="44.11412" lon="3.19142">
        <ele>797</ele>
        <time>2019-05-31T11:22:16Z</time>
      </trkpt>
      <trkpt lat="44.11407" lon="3.19144">
        <ele>796.7</ele>
        <time>2019-05-31T11:22:18Z</time>
      </trkpt>
      <trkpt lat="44.11402" lon="3.19142">
        <ele>796.4</ele>
        <time>2019-05-31T11:22:20Z</time>
      </trkpt>
      <trkpt lat="44.114" lon="3.19141">
        <ele>796.3</ele>
        <time>2019-05-31T11:22:21Z</time>
      </trkpt>
      <trkpt lat="44.11394" lon="3.19141">
        <ele>796</ele>
        <time>2019-05-31T11:22:23Z</time>
      </trkpt>
      <trkpt lat="44.11391" lon="3.19143">
        <ele>795.9</ele>
        <time>2019-05-31T11:22:24Z</time>
      </trkpt>
      <trkpt lat="44.11388" lon="3.19145">
        <ele>795.6</ele>
        <time>2019-05-31T11:22:26Z</time>
      </trkpt>
      <trkpt lat="44.11385" lon="3.19146">
        <ele>795.5</ele>
        <time>2019-05-31T11:22:28Z</time>
      </trkpt>
      <trkpt lat="44.11378" lon="3.19148">
        <ele>795.1</ele>
        <time>2019-05-31T11:23:14Z</time>
      </trkpt>
      <trkpt lat="44.11376" lon="3.19151">
        <ele>795</ele>
        <time>2019-05-31T11:23:17Z</time>
      </trkpt>
      <trkpt lat="44.11374" lon="3.19154">
        <ele>794.9</ele>
        <time>2019-05-31T11:23:21Z</time>
      </trkpt>
      <trkpt lat="44.1137" lon="3.19157">
        <ele>794.9</ele>
        <time>2019-05-31T11:23:23Z</time>
      </trkpt>
      <trkpt lat="44.11368" lon="3.19159">
        <ele>794.9</ele>
        <time>2019-05-31T11:23:24Z</time>
      </trkpt>
      <trkpt lat="44.11364" lon="3.19163">
        <ele>795.1</ele>
        <time>2019-05-31T11:23:26Z</time>
      </trkpt>
      <trkpt lat="44.11361" lon="3.19165">
        <ele>795.3</ele>
        <time>2019-05-31T11:23:27Z</time>
      </trkpt>
      <trkpt lat="44.11357" lon="3.19166">
        <ele>795.7</ele>
        <time>2019-05-31T11:23:29Z</time>
      </trkpt>
      <trkpt lat="44.11354" lon="3.19167">
        <ele>796</ele>
        <time>2019-05-31T11:23:31Z</time>
      </trkpt>
      <trkpt lat="44.1135" lon="3.19173">
        <ele>796.7</ele>
        <time>2019-05-31T11:23:43Z</time>
      </trkpt>
      <trkpt lat="44.11348" lon="3.19177">
        <ele>797</ele>
        <time>2019-05-31T11:23:44Z</time>
      </trkpt>
      <trkpt lat="44.11346" lon="3.1918">
        <ele>797.2</ele>
        <time>2019-05-31T11:23:45Z</time>
      </trkpt>
      <trkpt lat="44.11345" lon="3.19184">
        <ele>797.3</ele>
        <time>2019-05-31T11:23:46Z</time>
      </trkpt>
      <trkpt lat="44.11342" lon="3.1919">
        <ele>797.4</ele>
        <time>2019-05-31T11:23:48Z</time>
      </trkpt>
      <trkpt lat="44.11338" lon="3.19194">
        <ele>797.5</ele>
        <time>2019-05-31T11:23:50Z</time>
      </trkpt>
      <trkpt lat="44.11334" lon="3.19195">
        <ele>797.4</ele>
        <time>2019-05-31T11:23:52Z</time>
      </trkpt>
      <trkpt lat="44.11331" lon="3.19198">
        <ele>797.1</ele>
        <time>2019-05-31T11:24:11Z</time>
      </trkpt>
      <trkpt lat="44.11328" lon="3.192">
        <ele>796.8</ele>
        <time>2019-05-31T11:24:12Z</time>
      </trkpt>
      <trkpt lat="44.11326" lon="3.19202">
        <ele>796.5</ele>
        <time>2019-05-31T11:24:13Z</time>
      </trkpt>
      <trkpt lat="44.11323" lon="3.19204">
        <ele>796</ele>
        <time>2019-05-31T11:24:15Z</time>
      </trkpt>
      <trkpt lat="44.1132" lon="3.19208">
        <ele>795.2</ele>
        <time>2019-05-31T11:24:17Z</time>
      </trkpt>
      <trkpt lat="44.11318" lon="3.19211">
        <ele>794.7</ele>
        <time>2019-05-31T11:24:18Z</time>
      </trkpt>
      <trkpt lat="44.11315" lon="3.19214">
        <ele>794.1</ele>
        <time>2019-05-31T11:24:19Z</time>
      </trkpt>
      <trkpt lat="44.11311" lon="3.19217">
        <ele>793.4</ele>
        <time>2019-05-31T11:24:20Z</time>
      </trkpt>
      <trkpt lat="44.11309" lon="3.19219">
        <ele>792.9</ele>
        <time>2019-05-31T11:24:21Z</time>
      </trkpt>
      <trkpt lat="44.11306" lon="3.19222">
        <ele>792.2</ele>
        <time>2019-05-31T11:24:23Z</time>
      </trkpt>
      <trkpt lat="44.11305" lon="3.19228">
        <ele>791.2</ele>
        <time>2019-05-31T11:24:25Z</time>
      </trkpt>
      <trkpt lat="44.11303" lon="3.19231">
        <ele>790.6</ele>
        <time>2019-05-31T11:24:26Z</time>
      </trkpt>
      <trkpt lat="44.11301" lon="3.19239">
        <ele>788.9</ele>
        <time>2019-05-31T11:24:28Z</time>
      </trkpt>
      <trkpt lat="44.11301" lon="3.19244">
        <ele>787.6</ele>
        <time>2019-05-31T11:24:29Z</time>
      </trkpt>
      <trkpt lat="44.11301" lon="3.19249">
        <ele>786.1</ele>
        <time>2019-05-31T11:24:30Z</time>
      </trkpt>
      <trkpt lat="44.11301" lon="3.19253">
        <ele>784.8</ele>
        <time>2019-05-31T11:24:31Z</time>
      </trkpt>
      <trkpt lat="44.11301" lon="3.1926">
        <ele>782.5</ele>
        <time>2019-05-31T11:24:33Z</time>
      </trkpt>
      <trkpt lat="44.11302" lon="3.19266">
        <ele>780.2</ele>
        <time>2019-05-31T11:24:35Z</time>
      </trkpt>
      <trkpt lat="44.11302" lon="3.19271">
        <ele>778.7</ele>
        <time>2019-05-31T11:24:36Z</time>
      </trkpt>
      <trkpt lat="44.11302" lon="3.19277">
        <ele>776.5</ele>
        <time>2019-05-31T11:24:37Z</time>
      </trkpt>
      <trkpt lat="44.11301" lon="3.19284">
        <ele>774.1</ele>
        <time>2019-05-31T11:24:38Z</time>
      </trkpt>
      <trkpt lat="44.11301" lon="3.19291">
        <ele>771.7</ele>
        <time>2019-05-31T11:24:39Z</time>
      </trkpt>
      <trkpt lat="44.11303" lon="3.19298">
        <ele>769.4</ele>
        <time>2019-05-31T11:24:40Z</time>
      </trkpt>
      <trkpt lat="44.11305" lon="3.19303">
        <ele>767.6</ele>
        <time>2019-05-31T11:24:41Z</time>
      </trkpt>
      <trkpt lat="44.11307" lon="3.19307">
        <ele>766.2</ele>
        <time>2019-05-31T11:24:42Z</time>
      </trkpt>
      <trkpt lat="44.1131" lon="3.19309">
        <ele>764.5</ele>
        <time>2019-05-31T11:24:44Z</time>
      </trkpt>
      <trkpt lat="44.11313" lon="3.1931">
        <ele>763.2</ele>
        <time>2019-05-31T11:24:46Z</time>
      </trkpt>
      <trkpt lat="44.11317" lon="3.19314">
        <ele>761.8</ele>
        <time>2019-05-31T11:24:48Z</time>
      </trkpt>
      <trkpt lat="44.11321" lon="3.19322">
        <ele>759.9</ele>
        <time>2019-05-31T11:24:50Z</time>
      </trkpt>
      <trkpt lat="44.11323" lon="3.19328">
        <ele>758.8</ele>
        <time>2019-05-31T11:24:51Z</time>
      </trkpt>
      <trkpt lat="44.11326" lon="3.19334">
        <ele>757.8</ele>
        <time>2019-05-31T11:24:52Z</time>
      </trkpt>
      <trkpt lat="44.11336" lon="3.1935">
        <ele>754.9</ele>
        <time>2019-05-31T11:24:53Z</time>
      </trkpt>
      <trkpt lat="44.11338" lon="3.1936">
        <ele>753.3</ele>
        <time>2019-05-31T11:24:54Z</time>
      </trkpt>
      <trkpt lat="44.11346" lon="3.19381">
        <ele>750.2</ele>
        <time>2019-05-31T11:24:55Z</time>
      </trkpt>
      <trkpt lat="44.11353" lon="3.19394">
        <ele>748.3</ele>
        <time>2019-05-31T11:24:56Z</time>
      </trkpt>
      <trkpt lat="44.11359" lon="3.1941">
        <ele>746.4</ele>
        <time>2019-05-31T11:24:57Z</time>
      </trkpt>
      <trkpt lat="44.11364" lon="3.19426">
        <ele>744.5</ele>
        <time>2019-05-31T11:24:58Z</time>
      </trkpt>
      <trkpt lat="44.11372" lon="3.19436">
        <ele>742.9</ele>
        <time>2019-05-31T11:24:59Z</time>
      </trkpt>
      <trkpt lat="44.11378" lon="3.19451">
        <ele>741.2</ele>
        <time>2019-05-31T11:25:00Z</time>
      </trkpt>
      <trkpt lat="44.11383" lon="3.19464">
        <ele>739.8</ele>
        <time>2019-05-31T11:25:01Z</time>
      </trkpt>
      <trkpt lat="44.11384" lon="3.19471">
        <ele>739.1</ele>
        <time>2019-05-31T11:25:02Z</time>
      </trkpt>
      <trkpt lat="44.11376" lon="3.1947">
        <ele>738.4</ele>
        <time>2019-05-31T11:25:03Z</time>
      </trkpt>
      <trkpt lat="44.11374" lon="3.19475">
        <ele>738.2</ele>
        <time>2019-05-31T11:25:04Z</time>
      </trkpt>
      <trkpt lat="44.11371" lon="3.19481">
        <ele>738.1</ele>
        <time>2019-05-31T11:25:05Z</time>
      </trkpt>
      <trkpt lat="44.11371" lon="3.19492">
        <ele>737.9</ele>
        <time>2019-05-31T11:25:06Z</time>
      </trkpt>
      <trkpt lat="44.11368" lon="3.19497">
        <ele>737.9</ele>
        <time>2019-05-31T11:25:07Z</time>
      </trkpt>
      <trkpt lat="44.11365" lon="3.19504">
        <ele>737.9</ele>
        <time>2019-05-31T11:25:08Z</time>
      </trkpt>
      <trkpt lat="44.11363" lon="3.19511">
        <ele>738</ele>
        <time>2019-05-31T11:25:09Z</time>
      </trkpt>
      <trkpt lat="44.11363" lon="3.19518">
        <ele>738.1</ele>
        <time>2019-05-31T11:25:10Z</time>
      </trkpt>
      <trkpt lat="44.11362" lon="3.19525">
        <ele>738.3</ele>
        <time>2019-05-31T11:25:11Z</time>
      </trkpt>
      <trkpt lat="44.11359" lon="3.19535">
        <ele>738.6</ele>
        <time>2019-05-31T11:25:12Z</time>
      </trkpt>
      <trkpt lat="44.11358" lon="3.19543">
        <ele>738.9</ele>
        <time>2019-05-31T11:25:13Z</time>
      </trkpt>
      <trkpt lat="44.11362" lon="3.19549">
        <ele>739.3</ele>
        <time>2019-05-31T11:25:14Z</time>
      </trkpt>
      <trkpt lat="44.11361" lon="3.19555">
        <ele>739.5</ele>
        <time>2019-05-31T11:25:15Z</time>
      </trkpt>
      <trkpt lat="44.11359" lon="3.1956">
        <ele>739.7</ele>
        <time>2019-05-31T11:25:16Z</time>
      </trkpt>
      <trkpt lat="44.1136" lon="3.19567">
        <ele>739.8</ele>
        <time>2019-05-31T11:25:17Z</time>
      </trkpt>
      <trkpt lat="44.11359" lon="3.19572">
        <ele>739.9</ele>
        <time>2019-05-31T11:25:18Z</time>
      </trkpt>
      <trkpt lat="44.11359" lon="3.19578">
        <ele>740</ele>
        <time>2019-05-31T11:25:19Z</time>
      </trkpt>
      <trkpt lat="44.11356" lon="3.19585">
        <ele>740</ele>
        <time>2019-05-31T11:25:21Z</time>
      </trkpt>
      <trkpt lat="44.11356" lon="3.1959">
        <ele>740</ele>
        <time>2019-05-31T11:25:22Z</time>
      </trkpt>
      <trkpt lat="44.11354" lon="3.19595">
        <ele>740</ele>
        <time>2019-05-31T11:25:23Z</time>
      </trkpt>
      <trkpt lat="44.11352" lon="3.196">
        <ele>740</ele>
        <time>2019-05-31T11:25:24Z</time>
      </trkpt>
      <trkpt lat="44.1135" lon="3.19604">
        <ele>740</ele>
        <time>2019-05-31T11:25:25Z</time>
      </trkpt>
      <trkpt lat="44.11348" lon="3.19608">
        <ele>739.9</ele>
        <time>2019-05-31T11:25:26Z</time>
      </trkpt>
      <trkpt lat="44.11347" lon="3.19613">
        <ele>739.9</ele>
        <time>2019-05-31T11:25:27Z</time>
      </trkpt>
      <trkpt lat="44.11346" lon="3.19618">
        <ele>739.9</ele>
        <time>2019-05-31T11:25:28Z</time>
      </trkpt>
      <trkpt lat="44.11344" lon="3.19622">
        <ele>739.8</ele>
        <time>2019-05-31T11:25:29Z</time>
      </trkpt>
      <trkpt lat="44.11343" lon="3.19627">
        <ele>739.7</ele>
        <time>2019-05-31T11:25:30Z</time>
      </trkpt>
      <trkpt lat="44.11341" lon="3.19633">
        <ele>739.5</ele>
        <time>2019-05-31T11:25:31Z</time>
      </trkpt>
      <trkpt lat="44.11339" lon="3.19638">
        <ele>739.3</ele>
        <time>2019-05-31T11:25:32Z</time>
      </trkpt>
      <trkpt lat="44.11338" lon="3.19644">
        <ele>739</ele>
        <time>2019-05-31T11:25:33Z</time>
      </trkpt>
      <trkpt lat="44.11338" lon="3.19652">
        <ele>738.7</ele>
        <time>2019-05-31T11:25:34Z</time>
      </trkpt>
      <trkpt lat="44.11339" lon="3.1966">
        <ele>738.5</ele>
        <time>2019-05-31T11:25:35Z</time>
      </trkpt>
      <trkpt lat="44.1134" lon="3.19667">
        <ele>738.2</ele>
        <time>2019-05-31T11:25:36Z</time>
      </trkpt>
      <trkpt lat="44.1134" lon="3.19674">
        <ele>738</ele>
        <time>2019-05-31T11:25:37Z</time>
      </trkpt>
      <trkpt lat="44.1134" lon="3.19681">
        <ele>737.8</ele>
        <time>2019-05-31T11:25:38Z</time>
      </trkpt>
      <trkpt lat="44.11339" lon="3.19687">
        <ele>737.5</ele>
        <time>2019-05-31T11:25:39Z</time>
      </trkpt>
      <trkpt lat="44.11338" lon="3.19692">
        <ele>737.3</ele>
        <time>2019-05-31T11:25:40Z</time>
      </trkpt>
      <trkpt lat="44.11337" lon="3.19698">
        <ele>737.1</ele>
        <time>2019-05-31T11:25:41Z</time>
      </trkpt>
      <trkpt lat="44.11336" lon="3.19704">
        <ele>736.9</ele>
        <time>2019-05-31T11:25:42Z</time>
      </trkpt>
      <trkpt lat="44.11334" lon="3.19711">
        <ele>736.4</ele>
        <time>2019-05-31T11:25:43Z</time>
      </trkpt>
      <trkpt lat="44.1133" lon="3.19725">
        <ele>735.7</ele>
        <time>2019-05-31T11:25:44Z</time>
      </trkpt>
      <trkpt lat="44.1133" lon="3.19732">
        <ele>735.4</ele>
        <time>2019-05-31T11:25:45Z</time>
      </trkpt>
      <trkpt lat="44.11328" lon="3.19736">
        <ele>735.2</ele>
        <time>2019-05-31T11:25:46Z</time>
      </trkpt>
      <trkpt lat="44.11327" lon="3.19741">
        <ele>735</ele>
        <time>2019-05-31T11:25:47Z</time>
      </trkpt>
      <trkpt lat="44.11327" lon="3.19744">
        <ele>734.7</ele>
        <time>2019-05-31T11:25:48Z</time>
      </trkpt>
      <trkpt lat="44.11326" lon="3.1975">
        <ele>734.2</ele>
        <time>2019-05-31T11:25:49Z</time>
      </trkpt>
      <trkpt lat="44.11326" lon="3.19758">
        <ele>733.8</ele>
        <time>2019-05-31T11:25:50Z</time>
      </trkpt>
      <trkpt lat="44.11326" lon="3.19765">
        <ele>733.3</ele>
        <time>2019-05-31T11:25:51Z</time>
      </trkpt>
      <trkpt lat="44.11326" lon="3.19771">
        <ele>732.9</ele>
        <time>2019-05-31T11:25:52Z</time>
      </trkpt>
      <trkpt lat="44.11323" lon="3.19777">
        <ele>732.2</ele>
        <time>2019-05-31T11:25:53Z</time>
      </trkpt>
      <trkpt lat="44.1132" lon="3.19784">
        <ele>731.5</ele>
        <time>2019-05-31T11:25:54Z</time>
      </trkpt>
      <trkpt lat="44.11316" lon="3.19789">
        <ele>731</ele>
        <time>2019-05-31T11:25:55Z</time>
      </trkpt>
      <trkpt lat="44.11315" lon="3.19799">
        <ele>730.4</ele>
        <time>2019-05-31T11:25:56Z</time>
      </trkpt>
      <trkpt lat="44.11315" lon="3.19807">
        <ele>729.8</ele>
        <time>2019-05-31T11:25:57Z</time>
      </trkpt>
      <trkpt lat="44.11316" lon="3.19812">
        <ele>729.4</ele>
        <time>2019-05-31T11:25:58Z</time>
      </trkpt>
      <trkpt lat="44.11316" lon="3.19817">
        <ele>728.9</ele>
        <time>2019-05-31T11:25:59Z</time>
      </trkpt>
      <trkpt lat="44.11317" lon="3.19824">
        <ele>728.3</ele>
        <time>2019-05-31T11:26:00Z</time>
      </trkpt>
      <trkpt lat="44.1132" lon="3.19833">
        <ele>727.9</ele>
        <time>2019-05-31T11:26:01Z</time>
      </trkpt>
      <trkpt lat="44.11323" lon="3.19839">
        <ele>727.7</ele>
        <time>2019-05-31T11:26:02Z</time>
      </trkpt>
      <trkpt lat="44.11327" lon="3.19843">
        <ele>727.4</ele>
        <time>2019-05-31T11:26:03Z</time>
      </trkpt>
      <trkpt lat="44.11329" lon="3.1985">
        <ele>727.1</ele>
        <time>2019-05-31T11:26:04Z</time>
      </trkpt>
      <trkpt lat="44.11332" lon="3.19854">
        <ele>726.9</ele>
        <time>2019-05-31T11:26:05Z</time>
      </trkpt>
      <trkpt lat="44.11335" lon="3.19858">
        <ele>726.9</ele>
        <time>2019-05-31T11:26:06Z</time>
      </trkpt>
      <trkpt lat="44.11337" lon="3.19861">
        <ele>726.8</ele>
        <time>2019-05-31T11:26:07Z</time>
      </trkpt>
      <trkpt lat="44.11339" lon="3.19864">
        <ele>726.7</ele>
        <time>2019-05-31T11:26:08Z</time>
      </trkpt>
      <trkpt lat="44.11342" lon="3.19867">
        <ele>726.6</ele>
        <time>2019-05-31T11:26:09Z</time>
      </trkpt>
      <trkpt lat="44.11344" lon="3.19871">
        <ele>726.5</ele>
        <time>2019-05-31T11:26:10Z</time>
      </trkpt>
      <trkpt lat="44.11348" lon="3.19874">
        <ele>726.4</ele>
        <time>2019-05-31T11:26:11Z</time>
      </trkpt>
      <trkpt lat="44.11351" lon="3.19877">
        <ele>726.3</ele>
        <time>2019-05-31T11:26:12Z</time>
      </trkpt>
      <trkpt lat="44.11354" lon="3.19879">
        <ele>726.2</ele>
        <time>2019-05-31T11:26:13Z</time>
      </trkpt>
      <trkpt lat="44.11357" lon="3.19882">
        <ele>726.2</ele>
        <time>2019-05-31T11:26:14Z</time>
      </trkpt>
      <trkpt lat="44.11361" lon="3.19884">
        <ele>726.1</ele>
        <time>2019-05-31T11:26:15Z</time>
      </trkpt>
      <trkpt lat="44.11364" lon="3.19886">
        <ele>726</ele>
        <time>2019-05-31T11:26:16Z</time>
      </trkpt>
      <trkpt lat="44.11368" lon="3.19888">
        <ele>725.9</ele>
        <time>2019-05-31T11:26:17Z</time>
      </trkpt>
      <trkpt lat="44.11372" lon="3.1989">
        <ele>725.9</ele>
        <time>2019-05-31T11:26:18Z</time>
      </trkpt>
      <trkpt lat="44.11375" lon="3.19892">
        <ele>725.9</ele>
        <time>2019-05-31T11:26:19Z</time>
      </trkpt>
      <trkpt lat="44.11378" lon="3.19895">
        <ele>725.9</ele>
        <time>2019-05-31T11:26:20Z</time>
      </trkpt>
      <trkpt lat="44.11381" lon="3.19898">
        <ele>725.9</ele>
        <time>2019-05-31T11:26:21Z</time>
      </trkpt>
      <trkpt lat="44.11384" lon="3.19901">
        <ele>725.8</ele>
        <time>2019-05-31T11:26:22Z</time>
      </trkpt>
      <trkpt lat="44.11388" lon="3.19902">
        <ele>725.8</ele>
        <time>2019-05-31T11:26:23Z</time>
      </trkpt>
      <trkpt lat="44.11391" lon="3.19903">
        <ele>725.8</ele>
        <time>2019-05-31T11:26:24Z</time>
      </trkpt>
      <trkpt lat="44.11394" lon="3.19904">
        <ele>725.8</ele>
        <time>2019-05-31T11:26:25Z</time>
      </trkpt>
      <trkpt lat="44.11398" lon="3.19905">
        <ele>725.8</ele>
        <time>2019-05-31T11:26:27Z</time>
      </trkpt>
      <trkpt lat="44.11401" lon="3.19908">
        <ele>725.8</ele>
        <time>2019-05-31T11:26:28Z</time>
      </trkpt>
      <trkpt lat="44.11404" lon="3.19912">
        <ele>725.7</ele>
        <time>2019-05-31T11:26:29Z</time>
      </trkpt>
      <trkpt lat="44.11407" lon="3.19916">
        <ele>725.6</ele>
        <time>2019-05-31T11:26:30Z</time>
      </trkpt>
      <trkpt lat="44.1141" lon="3.1992">
        <ele>725.5</ele>
        <time>2019-05-31T11:26:31Z</time>
      </trkpt>
      <trkpt lat="44.11412" lon="3.19925">
        <ele>725.3</ele>
        <time>2019-05-31T11:26:32Z</time>
      </trkpt>
      <trkpt lat="44.11415" lon="3.19929">
        <ele>725.2</ele>
        <time>2019-05-31T11:26:33Z</time>
      </trkpt>
      <trkpt lat="44.11417" lon="3.19934">
        <ele>725</ele>
        <time>2019-05-31T11:26:34Z</time>
      </trkpt>
      <trkpt lat="44.1142" lon="3.19938">
        <ele>724.8</ele>
        <time>2019-05-31T11:26:35Z</time>
      </trkpt>
      <trkpt lat="44.11421" lon="3.19944">
        <ele>724.5</ele>
        <time>2019-05-31T11:26:36Z</time>
      </trkpt>
      <trkpt lat="44.11422" lon="3.19949">
        <ele>724.3</ele>
        <time>2019-05-31T11:26:37Z</time>
      </trkpt>
      <trkpt lat="44.11422" lon="3.19955">
        <ele>724.1</ele>
        <time>2019-05-31T11:26:38Z</time>
      </trkpt>
      <trkpt lat="44.11423" lon="3.19961">
        <ele>723.9</ele>
        <time>2019-05-31T11:26:39Z</time>
      </trkpt>
      <trkpt lat="44.11428" lon="3.19967">
        <ele>723.5</ele>
        <time>2019-05-31T11:26:40Z</time>
      </trkpt>
      <trkpt lat="44.1143" lon="3.19974">
        <ele>723</ele>
        <time>2019-05-31T11:26:41Z</time>
      </trkpt>
      <trkpt lat="44.11431" lon="3.19979">
        <ele>722.6</ele>
        <time>2019-05-31T11:26:42Z</time>
      </trkpt>
      <trkpt lat="44.1143" lon="3.19986">
        <ele>722.3</ele>
        <time>2019-05-31T11:26:43Z</time>
      </trkpt>
      <trkpt lat="44.1143" lon="3.19991">
        <ele>722</ele>
        <time>2019-05-31T11:26:45Z</time>
      </trkpt>
      <trkpt lat="44.11426" lon="3.19991">
        <ele>721.6</ele>
        <time>2019-05-31T11:26:46Z</time>
      </trkpt>
      <trkpt lat="44.11423" lon="3.19991">
        <ele>721.4</ele>
        <time>2019-05-31T11:26:47Z</time>
      </trkpt>
      <trkpt lat="44.1142" lon="3.19994">
        <ele>721</ele>
        <time>2019-05-31T11:26:48Z</time>
      </trkpt>
      <trkpt lat="44.11414" lon="3.19994">
        <ele>720.4</ele>
        <time>2019-05-31T11:26:50Z</time>
      </trkpt>
      <trkpt lat="44.11407" lon="3.19998">
        <ele>719.7</ele>
        <time>2019-05-31T11:26:52Z</time>
      </trkpt>
      <trkpt lat="44.11402" lon="3.20003">
        <ele>719.3</ele>
        <time>2019-05-31T11:26:53Z</time>
      </trkpt>
      <trkpt lat="44.11399" lon="3.20008">
        <ele>718.8</ele>
        <time>2019-05-31T11:26:54Z</time>
      </trkpt>
      <trkpt lat="44.11392" lon="3.20016">
        <ele>717.7</ele>
        <time>2019-05-31T11:26:55Z</time>
      </trkpt>
      <trkpt lat="44.11386" lon="3.2002">
        <ele>717.1</ele>
        <time>2019-05-31T11:26:56Z</time>
      </trkpt>
      <trkpt lat="44.11381" lon="3.20026">
        <ele>716.3</ele>
        <time>2019-05-31T11:26:57Z</time>
      </trkpt>
      <trkpt lat="44.11376" lon="3.2003">
        <ele>715.7</ele>
        <time>2019-05-31T11:26:58Z</time>
      </trkpt>
      <trkpt lat="44.11368" lon="3.20038">
        <ele>714.5</ele>
        <time>2019-05-31T11:26:59Z</time>
      </trkpt>
      <trkpt lat="44.11363" lon="3.20046">
        <ele>713.6</ele>
        <time>2019-05-31T11:27:00Z</time>
      </trkpt>
      <trkpt lat="44.11358" lon="3.20055">
        <ele>712.7</ele>
        <time>2019-05-31T11:27:01Z</time>
      </trkpt>
      <trkpt lat="44.11352" lon="3.20064">
        <ele>711.6</ele>
        <time>2019-05-31T11:27:02Z</time>
      </trkpt>
      <trkpt lat="44.11344" lon="3.20075">
        <ele>710.2</ele>
        <time>2019-05-31T11:27:03Z</time>
      </trkpt>
      <trkpt lat="44.1134" lon="3.2008">
        <ele>709.5</ele>
        <time>2019-05-31T11:27:04Z</time>
      </trkpt>
      <trkpt lat="44.11335" lon="3.20087">
        <ele>708.6</ele>
        <time>2019-05-31T11:27:05Z</time>
      </trkpt>
      <trkpt lat="44.11327" lon="3.20096">
        <ele>707.3</ele>
        <time>2019-05-31T11:27:06Z</time>
      </trkpt>
      <trkpt lat="44.11323" lon="3.20105">
        <ele>706.3</ele>
        <time>2019-05-31T11:27:07Z</time>
      </trkpt>
      <trkpt lat="44.11315" lon="3.20114">
        <ele>705.2</ele>
        <time>2019-05-31T11:27:08Z</time>
      </trkpt>
      <trkpt lat="44.11309" lon="3.20122">
        <ele>704.2</ele>
        <time>2019-05-31T11:27:09Z</time>
      </trkpt>
      <trkpt lat="44.11302" lon="3.20135">
        <ele>702.8</ele>
        <time>2019-05-31T11:27:10Z</time>
      </trkpt>
      <trkpt lat="44.11295" lon="3.2015">
        <ele>701.4</ele>
        <time>2019-05-31T11:27:11Z</time>
      </trkpt>
      <trkpt lat="44.11288" lon="3.2016">
        <ele>700.1</ele>
        <time>2019-05-31T11:27:12Z</time>
      </trkpt>
      <trkpt lat="44.1128" lon="3.20166">
        <ele>698.6</ele>
        <time>2019-05-31T11:27:13Z</time>
      </trkpt>
      <trkpt lat="44.11273" lon="3.20177">
        <ele>696.9</ele>
        <time>2019-05-31T11:27:14Z</time>
      </trkpt>
      <trkpt lat="44.11268" lon="3.20178">
        <ele>696.2</ele>
        <time>2019-05-31T11:27:16Z</time>
      </trkpt>
      <trkpt lat="44.11266" lon="3.20174">
        <ele>695.7</ele>
        <time>2019-05-31T11:27:17Z</time>
      </trkpt>
      <trkpt lat="44.11264" lon="3.20172">
        <ele>695.2</ele>
        <time>2019-05-31T11:27:18Z</time>
      </trkpt>
      <trkpt lat="44.11262" lon="3.20168">
        <ele>694.5</ele>
        <time>2019-05-31T11:27:19Z</time>
      </trkpt>
      <trkpt lat="44.11258" lon="3.20167">
        <ele>693.8</ele>
        <time>2019-05-31T11:27:20Z</time>
      </trkpt>
      <trkpt lat="44.11255" lon="3.20166">
        <ele>693.2</ele>
        <time>2019-05-31T11:27:21Z</time>
      </trkpt>
      <trkpt lat="44.11252" lon="3.20165">
        <ele>692.4</ele>
        <time>2019-05-31T11:27:22Z</time>
      </trkpt>
      <trkpt lat="44.11247" lon="3.20164">
        <ele>691.4</ele>
        <time>2019-05-31T11:27:24Z</time>
      </trkpt>
      <trkpt lat="44.11243" lon="3.20164">
        <ele>690.6</ele>
        <time>2019-05-31T11:27:26Z</time>
      </trkpt>
      <trkpt lat="44.1124" lon="3.20164">
        <ele>690</ele>
        <time>2019-05-31T11:27:27Z</time>
      </trkpt>
      <trkpt lat="44.11236" lon="3.20163">
        <ele>689.2</ele>
        <time>2019-05-31T11:27:28Z</time>
      </trkpt>
      <trkpt lat="44.1123" lon="3.20164">
        <ele>688</ele>
        <time>2019-05-31T11:27:29Z</time>
      </trkpt>
      <trkpt lat="44.11225" lon="3.20161">
        <ele>686.9</ele>
        <time>2019-05-31T11:27:30Z</time>
      </trkpt>
      <trkpt lat="44.11219" lon="3.20155">
        <ele>685.6</ele>
        <time>2019-05-31T11:27:31Z</time>
      </trkpt>
      <trkpt lat="44.11213" lon="3.2015">
        <ele>684.3</ele>
        <time>2019-05-31T11:27:32Z</time>
      </trkpt>
      <trkpt lat="44.1122" lon="3.20146">
        <ele>682.9</ele>
        <time>2019-05-31T11:27:33Z</time>
      </trkpt>
      <trkpt lat="44.11223" lon="3.2014">
        <ele>681.7</ele>
        <time>2019-05-31T11:27:34Z</time>
      </trkpt>
      <trkpt lat="44.11224" lon="3.20134">
        <ele>680.8</ele>
        <time>2019-05-31T11:27:35Z</time>
      </trkpt>
      <trkpt lat="44.11226" lon="3.20128">
        <ele>679.8</ele>
        <time>2019-05-31T11:27:36Z</time>
      </trkpt>
      <trkpt lat="44.11216" lon="3.20127">
        <ele>677.6</ele>
        <time>2019-05-31T11:27:38Z</time>
      </trkpt>
      <trkpt lat="44.11207" lon="3.20126">
        <ele>675.8</ele>
        <time>2019-05-31T11:27:40Z</time>
      </trkpt>
      <trkpt lat="44.11202" lon="3.20122">
        <ele>674.4</ele>
        <time>2019-05-31T11:27:41Z</time>
      </trkpt>
      <trkpt lat="44.11191" lon="3.20118">
        <ele>672.7</ele>
        <time>2019-05-31T11:27:42Z</time>
      </trkpt>
      <trkpt lat="44.11185" lon="3.20115">
        <ele>671.6</ele>
        <time>2019-05-31T11:27:43Z</time>
      </trkpt>
      <trkpt lat="44.11177" lon="3.20112">
        <ele>670.3</ele>
        <time>2019-05-31T11:27:44Z</time>
      </trkpt>
      <trkpt lat="44.11171" lon="3.2011">
        <ele>669.2</ele>
        <time>2019-05-31T11:27:45Z</time>
      </trkpt>
      <trkpt lat="44.11163" lon="3.20112">
        <ele>668.2</ele>
        <time>2019-05-31T11:27:46Z</time>
      </trkpt>
      <trkpt lat="44.11159" lon="3.20119">
        <ele>667.5</ele>
        <time>2019-05-31T11:27:47Z</time>
      </trkpt>
      <trkpt lat="44.11155" lon="3.20126">
        <ele>667</ele>
        <time>2019-05-31T11:27:48Z</time>
      </trkpt>
      <trkpt lat="44.1115" lon="3.20128">
        <ele>666.5</ele>
        <time>2019-05-31T11:27:49Z</time>
      </trkpt>
      <trkpt lat="44.11146" lon="3.20132">
        <ele>666.1</ele>
        <time>2019-05-31T11:27:50Z</time>
      </trkpt>
      <trkpt lat="44.11142" lon="3.20135">
        <ele>665.7</ele>
        <time>2019-05-31T11:27:51Z</time>
      </trkpt>
      <trkpt lat="44.11137" lon="3.20138">
        <ele>665.2</ele>
        <time>2019-05-31T11:27:52Z</time>
      </trkpt>
      <trkpt lat="44.11132" lon="3.20141">
        <ele>664.7</ele>
        <time>2019-05-31T11:27:53Z</time>
      </trkpt>
      <trkpt lat="44.1112" lon="3.20151">
        <ele>663.2</ele>
        <time>2019-05-31T11:27:54Z</time>
      </trkpt>
      <trkpt lat="44.11117" lon="3.20157">
        <ele>662.7</ele>
        <time>2019-05-31T11:27:55Z</time>
      </trkpt>
      <trkpt lat="44.11116" lon="3.20165">
        <ele>662.3</ele>
        <time>2019-05-31T11:27:56Z</time>
      </trkpt>
      <trkpt lat="44.11113" lon="3.20175">
        <ele>661.8</ele>
        <time>2019-05-31T11:27:57Z</time>
      </trkpt>
      <trkpt lat="44.11107" lon="3.20182">
        <ele>661.6</ele>
        <time>2019-05-31T11:27:58Z</time>
      </trkpt>
      <trkpt lat="44.11105" lon="3.20191">
        <ele>661.4</ele>
        <time>2019-05-31T11:27:59Z</time>
      </trkpt>
      <trkpt lat="44.11102" lon="3.20198">
        <ele>661.2</ele>
        <time>2019-05-31T11:28:00Z</time>
      </trkpt>
      <trkpt lat="44.11105" lon="3.20206">
        <ele>661.2</ele>
        <time>2019-05-31T11:28:01Z</time>
      </trkpt>
      <trkpt lat="44.11108" lon="3.20213">
        <ele>661.1</ele>
        <time>2019-05-31T11:28:02Z</time>
      </trkpt>
      <trkpt lat="44.1111" lon="3.20218">
        <ele>661.1</ele>
        <time>2019-05-31T11:28:03Z</time>
      </trkpt>
      <trkpt lat="44.1111" lon="3.20224">
        <ele>661.1</ele>
        <time>2019-05-31T11:28:04Z</time>
      </trkpt>
      <trkpt lat="44.1111" lon="3.2023">
        <ele>661.1</ele>
        <time>2019-05-31T11:28:05Z</time>
      </trkpt>
      <trkpt lat="44.11111" lon="3.20236">
        <ele>661.2</ele>
        <time>2019-05-31T11:28:06Z</time>
      </trkpt>
      <trkpt lat="44.11113" lon="3.20243">
        <ele>661.3</ele>
        <time>2019-05-31T11:28:07Z</time>
      </trkpt>
      <trkpt lat="44.11114" lon="3.20251">
        <ele>661.4</ele>
        <time>2019-05-31T11:28:08Z</time>
      </trkpt>
      <trkpt lat="44.11115" lon="3.20257">
        <ele>661.5</ele>
        <time>2019-05-31T11:28:09Z</time>
      </trkpt>
      <trkpt lat="44.11116" lon="3.20264">
        <ele>661.7</ele>
        <time>2019-05-31T11:28:10Z</time>
      </trkpt>
      <trkpt lat="44.11116" lon="3.20272">
        <ele>661.9</ele>
        <time>2019-05-31T11:28:11Z</time>
      </trkpt>
      <trkpt lat="44.11117" lon="3.20279">
        <ele>662.1</ele>
        <time>2019-05-31T11:28:12Z</time>
      </trkpt>
      <trkpt lat="44.11118" lon="3.20286">
        <ele>662.3</ele>
        <time>2019-05-31T11:28:13Z</time>
      </trkpt>
      <trkpt lat="44.11119" lon="3.20291">
        <ele>662.4</ele>
        <time>2019-05-31T11:28:14Z</time>
      </trkpt>
      <trkpt lat="44.11119" lon="3.20296">
        <ele>662.5</ele>
        <time>2019-05-31T11:28:16Z</time>
      </trkpt>
      <trkpt lat="44.1112" lon="3.20304">
        <ele>662.7</ele>
        <time>2019-05-31T11:28:18Z</time>
      </trkpt>
      <trkpt lat="44.1112" lon="3.2031">
        <ele>662.9</ele>
        <time>2019-05-31T11:28:19Z</time>
      </trkpt>
      <trkpt lat="44.1112" lon="3.20316">
        <ele>663</ele>
        <time>2019-05-31T11:28:20Z</time>
      </trkpt>
      <trkpt lat="44.1112" lon="3.20323">
        <ele>663.2</ele>
        <time>2019-05-31T11:28:21Z</time>
      </trkpt>
      <trkpt lat="44.11119" lon="3.2033">
        <ele>663.3</ele>
        <time>2019-05-31T11:28:22Z</time>
      </trkpt>
      <trkpt lat="44.11119" lon="3.20337">
        <ele>663.4</ele>
        <time>2019-05-31T11:28:23Z</time>
      </trkpt>
      <trkpt lat="44.11117" lon="3.20343">
        <ele>663.5</ele>
        <time>2019-05-31T11:28:24Z</time>
      </trkpt>
      <trkpt lat="44.11116" lon="3.20348">
        <ele>663.6</ele>
        <time>2019-05-31T11:28:25Z</time>
      </trkpt>
      <trkpt lat="44.11115" lon="3.20353">
        <ele>663.6</ele>
        <time>2019-05-31T11:28:26Z</time>
      </trkpt>
      <trkpt lat="44.11113" lon="3.20357">
        <ele>663.6</ele>
        <time>2019-05-31T11:28:27Z</time>
      </trkpt>
      <trkpt lat="44.11111" lon="3.20362">
        <ele>663.7</ele>
        <time>2019-05-31T11:28:28Z</time>
      </trkpt>
      <trkpt lat="44.11109" lon="3.20366">
        <ele>663.7</ele>
        <time>2019-05-31T11:28:29Z</time>
      </trkpt>
      <trkpt lat="44.11106" lon="3.20373">
        <ele>663.7</ele>
        <time>2019-05-31T11:28:31Z</time>
      </trkpt>
      <trkpt lat="44.11102" lon="3.20378">
        <ele>663.7</ele>
        <time>2019-05-31T11:28:32Z</time>
      </trkpt>
      <trkpt lat="44.11101" lon="3.20385">
        <ele>663.7</ele>
        <time>2019-05-31T11:28:33Z</time>
      </trkpt>
      <trkpt lat="44.11099" lon="3.20391">
        <ele>663.7</ele>
        <time>2019-05-31T11:28:34Z</time>
      </trkpt>
      <trkpt lat="44.11097" lon="3.20399">
        <ele>663.7</ele>
        <time>2019-05-31T11:28:35Z</time>
      </trkpt>
      <trkpt lat="44.11095" lon="3.20405">
        <ele>663.7</ele>
        <time>2019-05-31T11:28:36Z</time>
      </trkpt>
      <trkpt lat="44.11092" lon="3.2041">
        <ele>663.7</ele>
        <time>2019-05-31T11:28:37Z</time>
      </trkpt>
      <trkpt lat="44.11089" lon="3.20414">
        <ele>663.7</ele>
        <time>2019-05-31T11:28:38Z</time>
      </trkpt>
      <trkpt lat="44.11087" lon="3.2042">
        <ele>663.7</ele>
        <time>2019-05-31T11:28:39Z</time>
      </trkpt>
      <trkpt lat="44.11084" lon="3.20427">
        <ele>663.7</ele>
        <time>2019-05-31T11:28:40Z</time>
      </trkpt>
      <trkpt lat="44.11082" lon="3.20434">
        <ele>663.7</ele>
        <time>2019-05-31T11:28:41Z</time>
      </trkpt>
      <trkpt lat="44.11082" lon="3.20441">
        <ele>663.7</ele>
        <time>2019-05-31T11:28:42Z</time>
      </trkpt>
      <trkpt lat="44.11081" lon="3.20449">
        <ele>663.7</ele>
        <time>2019-05-31T11:28:43Z</time>
      </trkpt>
      <trkpt lat="44.1108" lon="3.20455">
        <ele>663.7</ele>
        <time>2019-05-31T11:28:44Z</time>
      </trkpt>
      <trkpt lat="44.11077" lon="3.20461">
        <ele>663.7</ele>
        <time>2019-05-31T11:28:45Z</time>
      </trkpt>
      <trkpt lat="44.11074" lon="3.20466">
        <ele>663.8</ele>
        <time>2019-05-31T11:28:46Z</time>
      </trkpt>
      <trkpt lat="44.11073" lon="3.20471">
        <ele>663.8</ele>
        <time>2019-05-31T11:28:47Z</time>
      </trkpt>
      <trkpt lat="44.11071" lon="3.20475">
        <ele>663.8</ele>
        <time>2019-05-31T11:28:48Z</time>
      </trkpt>
      <trkpt lat="44.11069" lon="3.2048">
        <ele>663.8</ele>
        <time>2019-05-31T11:28:49Z</time>
      </trkpt>
      <trkpt lat="44.11067" lon="3.20485">
        <ele>663.8</ele>
        <time>2019-05-31T11:28:50Z</time>
      </trkpt>
      <trkpt lat="44.11066" lon="3.20491">
        <ele>663.8</ele>
        <time>2019-05-31T11:28:51Z</time>
      </trkpt>
      <trkpt lat="44.11065" lon="3.20497">
        <ele>663.9</ele>
        <time>2019-05-31T11:28:52Z</time>
      </trkpt>
      <trkpt lat="44.11064" lon="3.20501">
        <ele>663.8</ele>
        <time>2019-05-31T11:28:53Z</time>
      </trkpt>
      <trkpt lat="44.11062" lon="3.20508">
        <ele>663.8</ele>
        <time>2019-05-31T11:28:55Z</time>
      </trkpt>
      <trkpt lat="44.11058" lon="3.20513">
        <ele>663.8</ele>
        <time>2019-05-31T11:28:57Z</time>
      </trkpt>
      <trkpt lat="44.11055" lon="3.20517">
        <ele>663.8</ele>
        <time>2019-05-31T11:28:58Z</time>
      </trkpt>
      <trkpt lat="44.11051" lon="3.20522">
        <ele>663.7</ele>
        <time>2019-05-31T11:28:59Z</time>
      </trkpt>
      <trkpt lat="44.11047" lon="3.20527">
        <ele>663.6</ele>
        <time>2019-05-31T11:29:00Z</time>
      </trkpt>
      <trkpt lat="44.11044" lon="3.20531">
        <ele>663.6</ele>
        <time>2019-05-31T11:29:01Z</time>
      </trkpt>
      <trkpt lat="44.1104" lon="3.20535">
        <ele>663.5</ele>
        <time>2019-05-31T11:29:02Z</time>
      </trkpt>
      <trkpt lat="44.11037" lon="3.20538">
        <ele>663.4</ele>
        <time>2019-05-31T11:29:03Z</time>
      </trkpt>
      <trkpt lat="44.11034" lon="3.20542">
        <ele>663.3</ele>
        <time>2019-05-31T11:29:04Z</time>
      </trkpt>
      <trkpt lat="44.11029" lon="3.20544">
        <ele>663.2</ele>
        <time>2019-05-31T11:29:05Z</time>
      </trkpt>
      <trkpt lat="44.11024" lon="3.20547">
        <ele>663</ele>
        <time>2019-05-31T11:29:06Z</time>
      </trkpt>
      <trkpt lat="44.1102" lon="3.2055">
        <ele>662.8</ele>
        <time>2019-05-31T11:29:07Z</time>
      </trkpt>
      <trkpt lat="44.11017" lon="3.20552">
        <ele>662.7</ele>
        <time>2019-05-31T11:29:08Z</time>
      </trkpt>
      <trkpt lat="44.11014" lon="3.20554">
        <ele>662.5</ele>
        <time>2019-05-31T11:29:09Z</time>
      </trkpt>
      <trkpt lat="44.11011" lon="3.20556">
        <ele>662.4</ele>
        <time>2019-05-31T11:29:10Z</time>
      </trkpt>
      <trkpt lat="44.11007" lon="3.2056">
        <ele>662.2</ele>
        <time>2019-05-31T11:29:11Z</time>
      </trkpt>
      <trkpt lat="44.11003" lon="3.20566">
        <ele>661.9</ele>
        <time>2019-05-31T11:29:12Z</time>
      </trkpt>
      <trkpt lat="44.10992" lon="3.20581">
        <ele>660.9</ele>
        <time>2019-05-31T11:29:13Z</time>
      </trkpt>
      <trkpt lat="44.10985" lon="3.20587">
        <ele>660.6</ele>
        <time>2019-05-31T11:29:14Z</time>
      </trkpt>
      <trkpt lat="44.1098" lon="3.20591">
        <ele>660.4</ele>
        <time>2019-05-31T11:29:15Z</time>
      </trkpt>
      <trkpt lat="44.10977" lon="3.20597">
        <ele>660.1</ele>
        <time>2019-05-31T11:29:16Z</time>
      </trkpt>
      <trkpt lat="44.10976" lon="3.20601">
        <ele>660</ele>
        <time>2019-05-31T11:29:17Z</time>
      </trkpt>
      <trkpt lat="44.10974" lon="3.20605">
        <ele>659.9</ele>
        <time>2019-05-31T11:29:18Z</time>
      </trkpt>
      <trkpt lat="44.10972" lon="3.2061">
        <ele>659.7</ele>
        <time>2019-05-31T11:29:19Z</time>
      </trkpt>
      <trkpt lat="44.10971" lon="3.20617">
        <ele>659.6</ele>
        <time>2019-05-31T11:29:20Z</time>
      </trkpt>
      <trkpt lat="44.10966" lon="3.20626">
        <ele>659.5</ele>
        <time>2019-05-31T11:29:21Z</time>
      </trkpt>
      <trkpt lat="44.10961" lon="3.20635">
        <ele>659.4</ele>
        <time>2019-05-31T11:29:22Z</time>
      </trkpt>
      <trkpt lat="44.10959" lon="3.20644">
        <ele>659.4</ele>
        <time>2019-05-31T11:29:23Z</time>
      </trkpt>
      <trkpt lat="44.10952" lon="3.20652">
        <ele>659.3</ele>
        <time>2019-05-31T11:29:24Z</time>
      </trkpt>
      <trkpt lat="44.1095" lon="3.2066">
        <ele>659.3</ele>
        <time>2019-05-31T11:29:25Z</time>
      </trkpt>
      <trkpt lat="44.10947" lon="3.2067">
        <ele>659.2</ele>
        <time>2019-05-31T11:29:26Z</time>
      </trkpt>
      <trkpt lat="44.10944" lon="3.20678">
        <ele>659.2</ele>
        <time>2019-05-31T11:29:27Z</time>
      </trkpt>
      <trkpt lat="44.10948" lon="3.20689">
        <ele>659.1</ele>
        <time>2019-05-31T11:29:28Z</time>
      </trkpt>
      <trkpt lat="44.10944" lon="3.20698">
        <ele>659.1</ele>
        <time>2019-05-31T11:29:29Z</time>
      </trkpt>
      <trkpt lat="44.10941" lon="3.20706">
        <ele>659</ele>
        <time>2019-05-31T11:29:30Z</time>
      </trkpt>
      <trkpt lat="44.1094" lon="3.20717">
        <ele>659</ele>
        <time>2019-05-31T11:29:31Z</time>
      </trkpt>
      <trkpt lat="44.10934" lon="3.20725">
        <ele>658.9</ele>
        <time>2019-05-31T11:29:32Z</time>
      </trkpt>
      <trkpt lat="44.10933" lon="3.20732">
        <ele>658.9</ele>
        <time>2019-05-31T11:29:33Z</time>
      </trkpt>
      <trkpt lat="44.10923" lon="3.20732">
        <ele>658.8</ele>
        <time>2019-05-31T11:29:34Z</time>
      </trkpt>
      <trkpt lat="44.10921" lon="3.20736">
        <ele>658.8</ele>
        <time>2019-05-31T11:29:35Z</time>
      </trkpt>
      <trkpt lat="44.10916" lon="3.20743">
        <ele>658.7</ele>
        <time>2019-05-31T11:29:36Z</time>
      </trkpt>
      <trkpt lat="44.10911" lon="3.20745">
        <ele>658.7</ele>
        <time>2019-05-31T11:29:37Z</time>
      </trkpt>
      <trkpt lat="44.10908" lon="3.2075">
        <ele>658.7</ele>
        <time>2019-05-31T11:29:38Z</time>
      </trkpt>
      <trkpt lat="44.10905" lon="3.20754">
        <ele>658.6</ele>
        <time>2019-05-31T11:29:39Z</time>
      </trkpt>
      <trkpt lat="44.109" lon="3.20758">
        <ele>658.6</ele>
        <time>2019-05-31T11:29:40Z</time>
      </trkpt>
      <trkpt lat="44.10899" lon="3.20764">
        <ele>658.6</ele>
        <time>2019-05-31T11:29:41Z</time>
      </trkpt>
      <trkpt lat="44.10897" lon="3.20771">
        <ele>658.6</ele>
        <time>2019-05-31T11:29:42Z</time>
      </trkpt>
      <trkpt lat="44.10893" lon="3.20777">
        <ele>658.5</ele>
        <time>2019-05-31T11:29:43Z</time>
      </trkpt>
      <trkpt lat="44.10888" lon="3.20782">
        <ele>658.5</ele>
        <time>2019-05-31T11:29:44Z</time>
      </trkpt>
      <trkpt lat="44.10884" lon="3.20791">
        <ele>658.4</ele>
        <time>2019-05-31T11:29:45Z</time>
      </trkpt>
      <trkpt lat="44.1088" lon="3.20795">
        <ele>658.4</ele>
        <time>2019-05-31T11:29:46Z</time>
      </trkpt>
      <trkpt lat="44.10883" lon="3.208">
        <ele>658.4</ele>
        <time>2019-05-31T11:29:47Z</time>
      </trkpt>
      <trkpt lat="44.10876" lon="3.20807">
        <ele>658.3</ele>
        <time>2019-05-31T11:29:48Z</time>
      </trkpt>
      <trkpt lat="44.10871" lon="3.20811">
        <ele>658.2</ele>
        <time>2019-05-31T11:29:49Z</time>
      </trkpt>
      <trkpt lat="44.10867" lon="3.20817">
        <ele>658.1</ele>
        <time>2019-05-31T11:29:50Z</time>
      </trkpt>
      <trkpt lat="44.10859" lon="3.20822">
        <ele>657.9</ele>
        <time>2019-05-31T11:29:51Z</time>
      </trkpt>
      <trkpt lat="44.10856" lon="3.20826">
        <ele>658</ele>
        <time>2019-05-31T11:29:52Z</time>
      </trkpt>
      <trkpt lat="44.10852" lon="3.2083">
        <ele>658.1</ele>
        <time>2019-05-31T11:29:53Z</time>
      </trkpt>
      <trkpt lat="44.10847" lon="3.20829">
        <ele>658.2</ele>
        <time>2019-05-31T11:29:54Z</time>
      </trkpt>
      <trkpt lat="44.10843" lon="3.20833">
        <ele>658.4</ele>
        <time>2019-05-31T11:29:55Z</time>
      </trkpt>
      <trkpt lat="44.10839" lon="3.20835">
        <ele>658.5</ele>
        <time>2019-05-31T11:29:56Z</time>
      </trkpt>
      <trkpt lat="44.10833" lon="3.20836">
        <ele>658.6</ele>
        <time>2019-05-31T11:29:57Z</time>
      </trkpt>
      <trkpt lat="44.10829" lon="3.20838">
        <ele>658.7</ele>
        <time>2019-05-31T11:29:58Z</time>
      </trkpt>
      <trkpt lat="44.10826" lon="3.20843">
        <ele>658.9</ele>
        <time>2019-05-31T11:29:59Z</time>
      </trkpt>
      <trkpt lat="44.10824" lon="3.20851">
        <ele>659</ele>
        <time>2019-05-31T11:30:01Z</time>
      </trkpt>
      <trkpt lat="44.10826" lon="3.20861">
        <ele>659.4</ele>
        <time>2019-05-31T11:30:02Z</time>
      </trkpt>
      <trkpt lat="44.10832" lon="3.20864">
        <ele>659.8</ele>
        <time>2019-05-31T11:30:03Z</time>
      </trkpt>
      <trkpt lat="44.10836" lon="3.2087">
        <ele>660.3</ele>
        <time>2019-05-31T11:30:06Z</time>
      </trkpt>
      <trkpt lat="44.10838" lon="3.20873">
        <ele>660.5</ele>
        <time>2019-05-31T11:30:07Z</time>
      </trkpt>
      <trkpt lat="44.1084" lon="3.20877">
        <ele>660.7</ele>
        <time>2019-05-31T11:30:08Z</time>
      </trkpt>
      <trkpt lat="44.10843" lon="3.20881">
        <ele>661.1</ele>
        <time>2019-05-31T11:30:10Z</time>
      </trkpt>
      <trkpt lat="44.10846" lon="3.20884">
        <ele>661.4</ele>
        <time>2019-05-31T11:30:12Z</time>
      </trkpt>
      <trkpt lat="44.10848" lon="3.20888">
        <ele>661.7</ele>
        <time>2019-05-31T11:30:14Z</time>
      </trkpt>
      <trkpt lat="44.10851" lon="3.20889">
        <ele>662.1</ele>
        <time>2019-05-31T11:30:16Z</time>
      </trkpt>
      <trkpt lat="44.10853" lon="3.20893">
        <ele>662.3</ele>
        <time>2019-05-31T11:30:19Z</time>
      </trkpt>
      <trkpt lat="44.10855" lon="3.20897">
        <ele>662.8</ele>
        <time>2019-05-31T11:30:22Z</time>
      </trkpt>
      <trkpt lat="44.10857" lon="3.209">
        <ele>663.1</ele>
        <time>2019-05-31T11:30:24Z</time>
      </trkpt>
      <trkpt lat="44.10859" lon="3.20905">
        <ele>663.3</ele>
        <time>2019-05-31T11:30:27Z</time>
      </trkpt>
      <trkpt lat="44.1086" lon="3.20909">
        <ele>663.5</ele>
        <time>2019-05-31T11:30:29Z</time>
      </trkpt>
      <trkpt lat="44.10861" lon="3.20914">
        <ele>663.7</ele>
        <time>2019-05-31T11:30:31Z</time>
      </trkpt>
      <trkpt lat="44.10864" lon="3.20919">
        <ele>664</ele>
        <time>2019-05-31T11:30:33Z</time>
      </trkpt>
      <trkpt lat="44.10866" lon="3.20923">
        <ele>664.3</ele>
        <time>2019-05-31T11:30:35Z</time>
      </trkpt>
      <trkpt lat="44.10869" lon="3.20928">
        <ele>664.7</ele>
        <time>2019-05-31T11:30:37Z</time>
      </trkpt>
      <trkpt lat="44.1087" lon="3.20932">
        <ele>664.9</ele>
        <time>2019-05-31T11:30:39Z</time>
      </trkpt>
      <trkpt lat="44.10871" lon="3.20936">
        <ele>665.2</ele>
        <time>2019-05-31T11:30:41Z</time>
      </trkpt>
      <trkpt lat="44.10872" lon="3.2094">
        <ele>665.5</ele>
        <time>2019-05-31T11:30:43Z</time>
      </trkpt>
      <trkpt lat="44.10874" lon="3.20946">
        <ele>665.9</ele>
        <time>2019-05-31T11:30:46Z</time>
      </trkpt>
      <trkpt lat="44.10875" lon="3.20951">
        <ele>666.3</ele>
        <time>2019-05-31T11:30:49Z</time>
      </trkpt>
      <trkpt lat="44.10876" lon="3.20956">
        <ele>666.7</ele>
        <time>2019-05-31T11:30:51Z</time>
      </trkpt>
      <trkpt lat="44.10877" lon="3.20961">
        <ele>667.1</ele>
        <time>2019-05-31T11:30:53Z</time>
      </trkpt>
      <trkpt lat="44.10879" lon="3.20967">
        <ele>667.4</ele>
        <time>2019-05-31T11:30:55Z</time>
      </trkpt>
      <trkpt lat="44.10881" lon="3.20973">
        <ele>667.7</ele>
        <time>2019-05-31T11:30:57Z</time>
      </trkpt>
      <trkpt lat="44.10883" lon="3.20979">
        <ele>668.1</ele>
        <time>2019-05-31T11:30:59Z</time>
      </trkpt>
      <trkpt lat="44.10884" lon="3.20984">
        <ele>668.5</ele>
        <time>2019-05-31T11:31:01Z</time>
      </trkpt>
      <trkpt lat="44.10886" lon="3.20989">
        <ele>668.8</ele>
        <time>2019-05-31T11:31:03Z</time>
      </trkpt>
      <trkpt lat="44.10888" lon="3.20992">
        <ele>669</ele>
        <time>2019-05-31T11:31:05Z</time>
      </trkpt>
      <trkpt lat="44.1089" lon="3.20996">
        <ele>669.2</ele>
        <time>2019-05-31T11:31:07Z</time>
      </trkpt>
      <trkpt lat="44.10892" lon="3.20999">
        <ele>669.4</ele>
        <time>2019-05-31T11:31:10Z</time>
      </trkpt>
      <trkpt lat="44.10893" lon="3.21003">
        <ele>669.6</ele>
        <time>2019-05-31T11:31:12Z</time>
      </trkpt>
      <trkpt lat="44.10896" lon="3.21008">
        <ele>669.8</ele>
        <time>2019-05-31T11:31:14Z</time>
      </trkpt>
      <trkpt lat="44.10898" lon="3.21012">
        <ele>670.1</ele>
        <time>2019-05-31T11:31:16Z</time>
      </trkpt>
      <trkpt lat="44.10899" lon="3.21016">
        <ele>670.3</ele>
        <time>2019-05-31T11:31:18Z</time>
      </trkpt>
      <trkpt lat="44.10901" lon="3.21021">
        <ele>670.5</ele>
        <time>2019-05-31T11:31:21Z</time>
      </trkpt>
      <trkpt lat="44.10902" lon="3.21024">
        <ele>670.7</ele>
        <time>2019-05-31T11:31:23Z</time>
      </trkpt>
      <trkpt lat="44.10902" lon="3.21029">
        <ele>670.9</ele>
        <time>2019-05-31T11:31:25Z</time>
      </trkpt>
      <trkpt lat="44.10902" lon="3.21035">
        <ele>671.1</ele>
        <time>2019-05-31T11:31:27Z</time>
      </trkpt>
      <trkpt lat="44.10902" lon="3.21039">
        <ele>671.3</ele>
        <time>2019-05-31T11:31:29Z</time>
      </trkpt>
      <trkpt lat="44.10904" lon="3.21045">
        <ele>671.5</ele>
        <time>2019-05-31T11:31:31Z</time>
      </trkpt>
      <trkpt lat="44.10905" lon="3.21052">
        <ele>671.8</ele>
        <time>2019-05-31T11:31:33Z</time>
      </trkpt>
      <trkpt lat="44.10906" lon="3.21057">
        <ele>672.1</ele>
        <time>2019-05-31T11:31:35Z</time>
      </trkpt>
      <trkpt lat="44.10906" lon="3.21061">
        <ele>672.3</ele>
        <time>2019-05-31T11:31:37Z</time>
      </trkpt>
      <trkpt lat="44.10905" lon="3.21065">
        <ele>672.5</ele>
        <time>2019-05-31T11:31:40Z</time>
      </trkpt>
      <trkpt lat="44.10905" lon="3.21071">
        <ele>672.8</ele>
        <time>2019-05-31T11:31:43Z</time>
      </trkpt>
      <trkpt lat="44.10904" lon="3.21075">
        <ele>673.1</ele>
        <time>2019-05-31T11:31:45Z</time>
      </trkpt>
      <trkpt lat="44.10902" lon="3.2108">
        <ele>673.4</ele>
        <time>2019-05-31T11:31:47Z</time>
      </trkpt>
      <trkpt lat="44.10901" lon="3.21084">
        <ele>673.6</ele>
        <time>2019-05-31T11:31:49Z</time>
      </trkpt>
      <trkpt lat="44.10899" lon="3.21088">
        <ele>673.9</ele>
        <time>2019-05-31T11:31:52Z</time>
      </trkpt>
      <trkpt lat="44.10897" lon="3.21091">
        <ele>674.4</ele>
        <time>2019-05-31T11:31:55Z</time>
      </trkpt>
      <trkpt lat="44.10895" lon="3.21095">
        <ele>674.8</ele>
        <time>2019-05-31T11:31:57Z</time>
      </trkpt>
      <trkpt lat="44.10895" lon="3.21099">
        <ele>675.3</ele>
        <time>2019-05-31T11:31:59Z</time>
      </trkpt>
      <trkpt lat="44.10894" lon="3.21103">
        <ele>675.6</ele>
        <time>2019-05-31T11:32:01Z</time>
      </trkpt>
      <trkpt lat="44.10893" lon="3.21106">
        <ele>676</ele>
        <time>2019-05-31T11:32:03Z</time>
      </trkpt>
      <trkpt lat="44.10893" lon="3.21113">
        <ele>676.6</ele>
        <time>2019-05-31T11:32:05Z</time>
      </trkpt>
      <trkpt lat="44.10893" lon="3.2112">
        <ele>677.2</ele>
        <time>2019-05-31T11:32:07Z</time>
      </trkpt>
      <trkpt lat="44.10893" lon="3.21124">
        <ele>677.5</ele>
        <time>2019-05-31T11:32:08Z</time>
      </trkpt>
      <trkpt lat="44.10893" lon="3.21127">
        <ele>677.9</ele>
        <time>2019-05-31T11:32:09Z</time>
      </trkpt>
      <trkpt lat="44.10893" lon="3.21134">
        <ele>678.3</ele>
        <time>2019-05-31T11:32:11Z</time>
      </trkpt>
      <trkpt lat="44.10893" lon="3.21139">
        <ele>678.8</ele>
        <time>2019-05-31T11:32:13Z</time>
      </trkpt>
      <trkpt lat="44.10895" lon="3.21144">
        <ele>679.1</ele>
        <time>2019-05-31T11:32:15Z</time>
      </trkpt>
      <trkpt lat="44.10897" lon="3.2115">
        <ele>679.6</ele>
        <time>2019-05-31T11:32:17Z</time>
      </trkpt>
      <trkpt lat="44.10899" lon="3.21157">
        <ele>680.1</ele>
        <time>2019-05-31T11:32:19Z</time>
      </trkpt>
      <trkpt lat="44.109" lon="3.21163">
        <ele>680.5</ele>
        <time>2019-05-31T11:32:21Z</time>
      </trkpt>
      <trkpt lat="44.109" lon="3.2117">
        <ele>681.2</ele>
        <time>2019-05-31T11:32:23Z</time>
      </trkpt>
      <trkpt lat="44.10901" lon="3.21174">
        <ele>681.5</ele>
        <time>2019-05-31T11:32:24Z</time>
      </trkpt>
      <trkpt lat="44.10901" lon="3.21179">
        <ele>681.9</ele>
        <time>2019-05-31T11:32:26Z</time>
      </trkpt>
      <trkpt lat="44.109" lon="3.21186">
        <ele>682.3</ele>
        <time>2019-05-31T11:32:28Z</time>
      </trkpt>
      <trkpt lat="44.10901" lon="3.21193">
        <ele>682.8</ele>
        <time>2019-05-31T11:32:30Z</time>
      </trkpt>
      <trkpt lat="44.10901" lon="3.21198">
        <ele>683.2</ele>
        <time>2019-05-31T11:32:32Z</time>
      </trkpt>
      <trkpt lat="44.10901" lon="3.21204">
        <ele>683.7</ele>
        <time>2019-05-31T11:32:34Z</time>
      </trkpt>
      <trkpt lat="44.10901" lon="3.2121">
        <ele>684.2</ele>
        <time>2019-05-31T11:32:36Z</time>
      </trkpt>
      <trkpt lat="44.10901" lon="3.21215">
        <ele>684.7</ele>
        <time>2019-05-31T11:32:38Z</time>
      </trkpt>
      <trkpt lat="44.10902" lon="3.21222">
        <ele>685.3</ele>
        <time>2019-05-31T11:32:40Z</time>
      </trkpt>
      <trkpt lat="44.10903" lon="3.21228">
        <ele>685.8</ele>
        <time>2019-05-31T11:32:42Z</time>
      </trkpt>
      <trkpt lat="44.10903" lon="3.21234">
        <ele>686.2</ele>
        <time>2019-05-31T11:32:44Z</time>
      </trkpt>
      <trkpt lat="44.10904" lon="3.21239">
        <ele>686.6</ele>
        <time>2019-05-31T11:32:46Z</time>
      </trkpt>
      <trkpt lat="44.10905" lon="3.21244">
        <ele>686.9</ele>
        <time>2019-05-31T11:32:48Z</time>
      </trkpt>
      <trkpt lat="44.10905" lon="3.2125">
        <ele>687.3</ele>
        <time>2019-05-31T11:32:50Z</time>
      </trkpt>
      <trkpt lat="44.10905" lon="3.21256">
        <ele>687.5</ele>
        <time>2019-05-31T11:32:52Z</time>
      </trkpt>
      <trkpt lat="44.10906" lon="3.21261">
        <ele>687.6</ele>
        <time>2019-05-31T11:32:54Z</time>
      </trkpt>
      <trkpt lat="44.10907" lon="3.21267">
        <ele>687.8</ele>
        <time>2019-05-31T11:32:56Z</time>
      </trkpt>
      <trkpt lat="44.10907" lon="3.21272">
        <ele>687.9</ele>
        <time>2019-05-31T11:32:58Z</time>
      </trkpt>
      <trkpt lat="44.10905" lon="3.21275">
        <ele>687.9</ele>
        <time>2019-05-31T11:33:00Z</time>
      </trkpt>
      <trkpt lat="44.10905" lon="3.2128">
        <ele>687.9</ele>
        <time>2019-05-31T11:33:02Z</time>
      </trkpt>
      <trkpt lat="44.10906" lon="3.21287">
        <ele>688</ele>
        <time>2019-05-31T11:33:04Z</time>
      </trkpt>
      <trkpt lat="44.10905" lon="3.21292">
        <ele>688</ele>
        <time>2019-05-31T11:33:06Z</time>
      </trkpt>
      <trkpt lat="44.10905" lon="3.21298">
        <ele>687.9</ele>
        <time>2019-05-31T11:33:08Z</time>
      </trkpt>
      <trkpt lat="44.10905" lon="3.21305">
        <ele>687.9</ele>
        <time>2019-05-31T11:33:10Z</time>
      </trkpt>
      <trkpt lat="44.10904" lon="3.21313">
        <ele>687.9</ele>
        <time>2019-05-31T11:33:12Z</time>
      </trkpt>
      <trkpt lat="44.10904" lon="3.21317">
        <ele>687.8</ele>
        <time>2019-05-31T11:33:13Z</time>
      </trkpt>
      <trkpt lat="44.10903" lon="3.21321">
        <ele>687.8</ele>
        <time>2019-05-31T11:33:14Z</time>
      </trkpt>
      <trkpt lat="44.10902" lon="3.21326">
        <ele>687.7</ele>
        <time>2019-05-31T11:33:15Z</time>
      </trkpt>
      <trkpt lat="44.10901" lon="3.21331">
        <ele>687.7</ele>
        <time>2019-05-31T11:33:16Z</time>
      </trkpt>
      <trkpt lat="44.10899" lon="3.21335">
        <ele>687.6</ele>
        <time>2019-05-31T11:33:17Z</time>
      </trkpt>
      <trkpt lat="44.10898" lon="3.21339">
        <ele>687.6</ele>
        <time>2019-05-31T11:33:18Z</time>
      </trkpt>
      <trkpt lat="44.10896" lon="3.21343">
        <ele>687.5</ele>
        <time>2019-05-31T11:33:19Z</time>
      </trkpt>
      <trkpt lat="44.10895" lon="3.21347">
        <ele>687.4</ele>
        <time>2019-05-31T11:33:20Z</time>
      </trkpt>
      <trkpt lat="44.10894" lon="3.2135">
        <ele>687.4</ele>
        <time>2019-05-31T11:33:21Z</time>
      </trkpt>
      <trkpt lat="44.10893" lon="3.21354">
        <ele>687.3</ele>
        <time>2019-05-31T11:33:22Z</time>
      </trkpt>
      <trkpt lat="44.10891" lon="3.21358">
        <ele>687.2</ele>
        <time>2019-05-31T11:33:23Z</time>
      </trkpt>
      <trkpt lat="44.10889" lon="3.21362">
        <ele>687.1</ele>
        <time>2019-05-31T11:33:24Z</time>
      </trkpt>
      <trkpt lat="44.10887" lon="3.21367">
        <ele>686.9</ele>
        <time>2019-05-31T11:33:25Z</time>
      </trkpt>
      <trkpt lat="44.10885" lon="3.2137">
        <ele>686.8</ele>
        <time>2019-05-31T11:33:26Z</time>
      </trkpt>
      <trkpt lat="44.10883" lon="3.21374">
        <ele>686.6</ele>
        <time>2019-05-31T11:33:27Z</time>
      </trkpt>
      <trkpt lat="44.1088" lon="3.21377">
        <ele>686.5</ele>
        <time>2019-05-31T11:33:28Z</time>
      </trkpt>
      <trkpt lat="44.10878" lon="3.2138">
        <ele>686.3</ele>
        <time>2019-05-31T11:33:29Z</time>
      </trkpt>
      <trkpt lat="44.10876" lon="3.21384">
        <ele>686</ele>
        <time>2019-05-31T11:33:30Z</time>
      </trkpt>
      <trkpt lat="44.10874" lon="3.21388">
        <ele>685.8</ele>
        <time>2019-05-31T11:33:31Z</time>
      </trkpt>
      <trkpt lat="44.10871" lon="3.21392">
        <ele>685.6</ele>
        <time>2019-05-31T11:33:32Z</time>
      </trkpt>
      <trkpt lat="44.10869" lon="3.21395">
        <ele>685.4</ele>
        <time>2019-05-31T11:33:33Z</time>
      </trkpt>
      <trkpt lat="44.10867" lon="3.21398">
        <ele>685.3</ele>
        <time>2019-05-31T11:33:34Z</time>
      </trkpt>
      <trkpt lat="44.10865" lon="3.21401">
        <ele>685.1</ele>
        <time>2019-05-31T11:33:35Z</time>
      </trkpt>
      <trkpt lat="44.10863" lon="3.21405">
        <ele>685</ele>
        <time>2019-05-31T11:33:36Z</time>
      </trkpt>
      <trkpt lat="44.10861" lon="3.21409">
        <ele>684.9</ele>
        <time>2019-05-31T11:33:37Z</time>
      </trkpt>
      <trkpt lat="44.10858" lon="3.21412">
        <ele>684.7</ele>
        <time>2019-05-31T11:33:38Z</time>
      </trkpt>
      <trkpt lat="44.10856" lon="3.21414">
        <ele>684.6</ele>
        <time>2019-05-31T11:33:39Z</time>
      </trkpt>
      <trkpt lat="44.10851" lon="3.21418">
        <ele>684.4</ele>
        <time>2019-05-31T11:33:41Z</time>
      </trkpt>
      <trkpt lat="44.10848" lon="3.21421">
        <ele>684.3</ele>
        <time>2019-05-31T11:33:42Z</time>
      </trkpt>
      <trkpt lat="44.10846" lon="3.21424">
        <ele>684.2</ele>
        <time>2019-05-31T11:33:43Z</time>
      </trkpt>
      <trkpt lat="44.10841" lon="3.2143">
        <ele>684</ele>
        <time>2019-05-31T11:33:45Z</time>
      </trkpt>
      <trkpt lat="44.10839" lon="3.21433">
        <ele>684</ele>
        <time>2019-05-31T11:33:46Z</time>
      </trkpt>
      <trkpt lat="44.10836" lon="3.21436">
        <ele>683.8</ele>
        <time>2019-05-31T11:33:47Z</time>
      </trkpt>
      <trkpt lat="44.10833" lon="3.21439">
        <ele>683.7</ele>
        <time>2019-05-31T11:33:48Z</time>
      </trkpt>
      <trkpt lat="44.1083" lon="3.21441">
        <ele>683.6</ele>
        <time>2019-05-31T11:33:49Z</time>
      </trkpt>
      <trkpt lat="44.10827" lon="3.21445">
        <ele>683.5</ele>
        <time>2019-05-31T11:33:50Z</time>
      </trkpt>
      <trkpt lat="44.10825" lon="3.21448">
        <ele>683.3</ele>
        <time>2019-05-31T11:33:51Z</time>
      </trkpt>
      <trkpt lat="44.10822" lon="3.21453">
        <ele>683.2</ele>
        <time>2019-05-31T11:33:52Z</time>
      </trkpt>
      <trkpt lat="44.10819" lon="3.21458">
        <ele>683</ele>
        <time>2019-05-31T11:33:53Z</time>
      </trkpt>
      <trkpt lat="44.10817" lon="3.21462">
        <ele>682.9</ele>
        <time>2019-05-31T11:33:54Z</time>
      </trkpt>
      <trkpt lat="44.10815" lon="3.21466">
        <ele>682.8</ele>
        <time>2019-05-31T11:33:55Z</time>
      </trkpt>
      <trkpt lat="44.10813" lon="3.2147">
        <ele>682.8</ele>
        <time>2019-05-31T11:33:56Z</time>
      </trkpt>
      <trkpt lat="44.10811" lon="3.21473">
        <ele>682.8</ele>
        <time>2019-05-31T11:33:57Z</time>
      </trkpt>
      <trkpt lat="44.10808" lon="3.21475">
        <ele>682.8</ele>
        <time>2019-05-31T11:33:58Z</time>
      </trkpt>
      <trkpt lat="44.10804" lon="3.21477">
        <ele>682.8</ele>
        <time>2019-05-31T11:33:59Z</time>
      </trkpt>
      <trkpt lat="44.10802" lon="3.21479">
        <ele>682.9</ele>
        <time>2019-05-31T11:34:00Z</time>
      </trkpt>
      <trkpt lat="44.10798" lon="3.2148">
        <ele>682.9</ele>
        <time>2019-05-31T11:34:02Z</time>
      </trkpt>
      <trkpt lat="44.10795" lon="3.21481">
        <ele>683</ele>
        <time>2019-05-31T11:34:03Z</time>
      </trkpt>
      <trkpt lat="44.10791" lon="3.21482">
        <ele>683.2</ele>
        <time>2019-05-31T11:34:05Z</time>
      </trkpt>
      <trkpt lat="44.10787" lon="3.21483">
        <ele>683.5</ele>
        <time>2019-05-31T11:34:07Z</time>
      </trkpt>
      <trkpt lat="44.10784" lon="3.21486">
        <ele>683.7</ele>
        <time>2019-05-31T11:34:09Z</time>
      </trkpt>
      <trkpt lat="44.10782" lon="3.21488">
        <ele>684.1</ele>
        <time>2019-05-31T11:34:11Z</time>
      </trkpt>
      <trkpt lat="44.10779" lon="3.21489">
        <ele>684.4</ele>
        <time>2019-05-31T11:34:13Z</time>
      </trkpt>
      <trkpt lat="44.10775" lon="3.21488">
        <ele>685</ele>
        <time>2019-05-31T11:34:15Z</time>
      </trkpt>
      <trkpt lat="44.1077" lon="3.21487">
        <ele>685.7</ele>
        <time>2019-05-31T11:34:17Z</time>
      </trkpt>
      <trkpt lat="44.10767" lon="3.21487">
        <ele>686.3</ele>
        <time>2019-05-31T11:34:19Z</time>
      </trkpt>
      <trkpt lat="44.10764" lon="3.21488">
        <ele>686.7</ele>
        <time>2019-05-31T11:34:22Z</time>
      </trkpt>
      <trkpt lat="44.10761" lon="3.21488">
        <ele>687.1</ele>
        <time>2019-05-31T11:34:24Z</time>
      </trkpt>
      <trkpt lat="44.10757" lon="3.21487">
        <ele>687.6</ele>
        <time>2019-05-31T11:34:26Z</time>
      </trkpt>
      <trkpt lat="44.10754" lon="3.21485">
        <ele>688.2</ele>
        <time>2019-05-31T11:34:29Z</time>
      </trkpt>
      <trkpt lat="44.1075" lon="3.21483">
        <ele>688.5</ele>
        <time>2019-05-31T11:34:31Z</time>
      </trkpt>
      <trkpt lat="44.10746" lon="3.21482">
        <ele>688.8</ele>
        <time>2019-05-31T11:34:33Z</time>
      </trkpt>
      <trkpt lat="44.10743" lon="3.21482">
        <ele>689.1</ele>
        <time>2019-05-31T11:34:35Z</time>
      </trkpt>
      <trkpt lat="44.10737" lon="3.21483">
        <ele>689.5</ele>
        <time>2019-05-31T11:34:37Z</time>
      </trkpt>
      <trkpt lat="44.10732" lon="3.21484">
        <ele>690.1</ele>
        <time>2019-05-31T11:34:39Z</time>
      </trkpt>
      <trkpt lat="44.10728" lon="3.21485">
        <ele>690.5</ele>
        <time>2019-05-31T11:34:41Z</time>
      </trkpt>
      <trkpt lat="44.10723" lon="3.21485">
        <ele>691</ele>
        <time>2019-05-31T11:34:43Z</time>
      </trkpt>
      <trkpt lat="44.10718" lon="3.21486">
        <ele>691.5</ele>
        <time>2019-05-31T11:34:45Z</time>
      </trkpt>
      <trkpt lat="44.10712" lon="3.21487">
        <ele>692.1</ele>
        <time>2019-05-31T11:34:47Z</time>
      </trkpt>
      <trkpt lat="44.10708" lon="3.21488">
        <ele>692.4</ele>
        <time>2019-05-31T11:34:48Z</time>
      </trkpt>
      <trkpt lat="44.10705" lon="3.21488">
        <ele>692.6</ele>
        <time>2019-05-31T11:34:49Z</time>
      </trkpt>
      <trkpt lat="44.10701" lon="3.21488">
        <ele>692.9</ele>
        <time>2019-05-31T11:34:51Z</time>
      </trkpt>
      <trkpt lat="44.10697" lon="3.21489">
        <ele>693.2</ele>
        <time>2019-05-31T11:34:53Z</time>
      </trkpt>
      <trkpt lat="44.10694" lon="3.21489">
        <ele>693.6</ele>
        <time>2019-05-31T11:34:55Z</time>
      </trkpt>
      <trkpt lat="44.10689" lon="3.21488">
        <ele>694</ele>
        <time>2019-05-31T11:34:57Z</time>
      </trkpt>
      <trkpt lat="44.10686" lon="3.21485">
        <ele>694.2</ele>
        <time>2019-05-31T11:34:59Z</time>
      </trkpt>
      <trkpt lat="44.10682" lon="3.21484">
        <ele>694.4</ele>
        <time>2019-05-31T11:35:03Z</time>
      </trkpt>
      <trkpt lat="44.10679" lon="3.21484">
        <ele>694.6</ele>
        <time>2019-05-31T11:35:05Z</time>
      </trkpt>
      <trkpt lat="44.10675" lon="3.21483">
        <ele>694.8</ele>
        <time>2019-05-31T11:35:07Z</time>
      </trkpt>
      <trkpt lat="44.10672" lon="3.21484">
        <ele>695</ele>
        <time>2019-05-31T11:35:09Z</time>
      </trkpt>
      <trkpt lat="44.10666" lon="3.21485">
        <ele>695.3</ele>
        <time>2019-05-31T11:35:11Z</time>
      </trkpt>
      <trkpt lat="44.10663" lon="3.21485">
        <ele>695.4</ele>
        <time>2019-05-31T11:35:12Z</time>
      </trkpt>
      <trkpt lat="44.1066" lon="3.21484">
        <ele>695.6</ele>
        <time>2019-05-31T11:35:13Z</time>
      </trkpt>
      <trkpt lat="44.10657" lon="3.21483">
        <ele>695.8</ele>
        <time>2019-05-31T11:35:14Z</time>
      </trkpt>
      <trkpt lat="44.10654" lon="3.21482">
        <ele>696</ele>
        <time>2019-05-31T11:35:15Z</time>
      </trkpt>
      <trkpt lat="44.1065" lon="3.21481">
        <ele>696.2</ele>
        <time>2019-05-31T11:35:16Z</time>
      </trkpt>
      <trkpt lat="44.10647" lon="3.2148">
        <ele>697.1</ele>
        <time>2019-05-31T11:35:17Z</time>
      </trkpt>
      <trkpt lat="44.10644" lon="3.21479">
        <ele>697.2</ele>
        <time>2019-05-31T11:35:18Z</time>
      </trkpt>
      <trkpt lat="44.1064" lon="3.21479">
        <ele>697.4</ele>
        <time>2019-05-31T11:35:19Z</time>
      </trkpt>
      <trkpt lat="44.10637" lon="3.21479">
        <ele>697.5</ele>
        <time>2019-05-31T11:35:20Z</time>
      </trkpt>
      <trkpt lat="44.10633" lon="3.2148">
        <ele>697.6</ele>
        <time>2019-05-31T11:35:21Z</time>
      </trkpt>
      <trkpt lat="44.1063" lon="3.2148">
        <ele>697.7</ele>
        <time>2019-05-31T11:35:22Z</time>
      </trkpt>
      <trkpt lat="44.10627" lon="3.2148">
        <ele>697.7</ele>
        <time>2019-05-31T11:35:23Z</time>
      </trkpt>
      <trkpt lat="44.10624" lon="3.21479">
        <ele>697.8</ele>
        <time>2019-05-31T11:35:24Z</time>
      </trkpt>
      <trkpt lat="44.10621" lon="3.21481">
        <ele>697.8</ele>
        <time>2019-05-31T11:35:26Z</time>
      </trkpt>
      <trkpt lat="44.10616" lon="3.21482">
        <ele>697.8</ele>
        <time>2019-05-31T11:35:28Z</time>
      </trkpt>
      <trkpt lat="44.10612" lon="3.21482">
        <ele>697.8</ele>
        <time>2019-05-31T11:35:30Z</time>
      </trkpt>
      <trkpt lat="44.10609" lon="3.21482">
        <ele>697.8</ele>
        <time>2019-05-31T11:35:31Z</time>
      </trkpt>
      <trkpt lat="44.10604" lon="3.21482">
        <ele>698</ele>
        <time>2019-05-31T11:35:33Z</time>
      </trkpt>
      <trkpt lat="44.10601" lon="3.21481">
        <ele>698.1</ele>
        <time>2019-05-31T11:35:34Z</time>
      </trkpt>
      <trkpt lat="44.10597" lon="3.21481">
        <ele>698.1</ele>
        <time>2019-05-31T11:35:35Z</time>
      </trkpt>
      <trkpt lat="44.10594" lon="3.2148">
        <ele>698.1</ele>
        <time>2019-05-31T11:35:36Z</time>
      </trkpt>
      <trkpt lat="44.10591" lon="3.21479">
        <ele>698.1</ele>
        <time>2019-05-31T11:35:37Z</time>
      </trkpt>
      <trkpt lat="44.10587" lon="3.21478">
        <ele>698.1</ele>
        <time>2019-05-31T11:35:38Z</time>
      </trkpt>
      <trkpt lat="44.10584" lon="3.21477">
        <ele>698.1</ele>
        <time>2019-05-31T11:35:39Z</time>
      </trkpt>
      <trkpt lat="44.1058" lon="3.21476">
        <ele>698.2</ele>
        <time>2019-05-31T11:35:41Z</time>
      </trkpt>
      <trkpt lat="44.10576" lon="3.21474">
        <ele>698.4</ele>
        <time>2019-05-31T11:35:43Z</time>
      </trkpt>
      <trkpt lat="44.10572" lon="3.21473">
        <ele>698.5</ele>
        <time>2019-05-31T11:35:46Z</time>
      </trkpt>
      <trkpt lat="44.10569" lon="3.21475">
        <ele>698.5</ele>
        <time>2019-05-31T11:35:49Z</time>
      </trkpt>
      <trkpt lat="44.10566" lon="3.21477">
        <ele>698.5</ele>
        <time>2019-05-31T11:35:56Z</time>
      </trkpt>
      <trkpt lat="44.10562" lon="3.21479">
        <ele>698.4</ele>
        <time>2019-05-31T11:35:58Z</time>
      </trkpt>
      <trkpt lat="44.1056" lon="3.2148">
        <ele>698.4</ele>
        <time>2019-05-31T11:35:59Z</time>
      </trkpt>
      <trkpt lat="44.10557" lon="3.21481">
        <ele>698.3</ele>
        <time>2019-05-31T11:36:00Z</time>
      </trkpt>
      <trkpt lat="44.10552" lon="3.21485">
        <ele>698.2</ele>
        <time>2019-05-31T11:36:02Z</time>
      </trkpt>
      <trkpt lat="44.10549" lon="3.21489">
        <ele>698.1</ele>
        <time>2019-05-31T11:36:03Z</time>
      </trkpt>
      <trkpt lat="44.10547" lon="3.21492">
        <ele>698</ele>
        <time>2019-05-31T11:36:04Z</time>
      </trkpt>
      <trkpt lat="44.10543" lon="3.21495">
        <ele>697.9</ele>
        <time>2019-05-31T11:36:05Z</time>
      </trkpt>
      <trkpt lat="44.10531" lon="3.21493">
        <ele>697.5</ele>
        <time>2019-05-31T11:36:06Z</time>
      </trkpt>
      <trkpt lat="44.10526" lon="3.21493">
        <ele>697.3</ele>
        <time>2019-05-31T11:36:07Z</time>
      </trkpt>
      <trkpt lat="44.10521" lon="3.21493">
        <ele>697</ele>
        <time>2019-05-31T11:36:08Z</time>
      </trkpt>
      <trkpt lat="44.10516" lon="3.21493">
        <ele>696.7</ele>
        <time>2019-05-31T11:36:09Z</time>
      </trkpt>
      <trkpt lat="44.10513" lon="3.21492">
        <ele>696.5</ele>
        <time>2019-05-31T11:36:10Z</time>
      </trkpt>
      <trkpt lat="44.10507" lon="3.21488">
        <ele>696.2</ele>
        <time>2019-05-31T11:36:12Z</time>
      </trkpt>
      <trkpt lat="44.10501" lon="3.21487">
        <ele>695.9</ele>
        <time>2019-05-31T11:36:14Z</time>
      </trkpt>
      <trkpt lat="44.10498" lon="3.21485">
        <ele>695.8</ele>
        <time>2019-05-31T11:36:15Z</time>
      </trkpt>
      <trkpt lat="44.10495" lon="3.21484">
        <ele>695.7</ele>
        <time>2019-05-31T11:36:16Z</time>
      </trkpt>
      <trkpt lat="44.10491" lon="3.21486">
        <ele>695.6</ele>
        <time>2019-05-31T11:36:17Z</time>
      </trkpt>
      <trkpt lat="44.10486" lon="3.21488">
        <ele>695.4</ele>
        <time>2019-05-31T11:36:18Z</time>
      </trkpt>
      <trkpt lat="44.10481" lon="3.2149">
        <ele>695.3</ele>
        <time>2019-05-31T11:36:19Z</time>
      </trkpt>
      <trkpt lat="44.10476" lon="3.21495">
        <ele>695.1</ele>
        <time>2019-05-31T11:36:20Z</time>
      </trkpt>
      <trkpt lat="44.10471" lon="3.21497">
        <ele>694.9</ele>
        <time>2019-05-31T11:36:21Z</time>
      </trkpt>
      <trkpt lat="44.10467" lon="3.21496">
        <ele>694.7</ele>
        <time>2019-05-31T11:36:22Z</time>
      </trkpt>
      <trkpt lat="44.10462" lon="3.21497">
        <ele>694.4</ele>
        <time>2019-05-31T11:36:23Z</time>
      </trkpt>
      <trkpt lat="44.10455" lon="3.21496">
        <ele>694</ele>
        <time>2019-05-31T11:36:24Z</time>
      </trkpt>
      <trkpt lat="44.1045" lon="3.21496">
        <ele>693.6</ele>
        <time>2019-05-31T11:36:25Z</time>
      </trkpt>
      <trkpt lat="44.10444" lon="3.21498">
        <ele>693.1</ele>
        <time>2019-05-31T11:36:26Z</time>
      </trkpt>
      <trkpt lat="44.10438" lon="3.21499">
        <ele>692.6</ele>
        <time>2019-05-31T11:36:27Z</time>
      </trkpt>
      <trkpt lat="44.10435" lon="3.21499">
        <ele>692.2</ele>
        <time>2019-05-31T11:36:28Z</time>
      </trkpt>
      <trkpt lat="44.10431" lon="3.21499">
        <ele>691.8</ele>
        <time>2019-05-31T11:36:29Z</time>
      </trkpt>
      <trkpt lat="44.10428" lon="3.21498">
        <ele>691.4</ele>
        <time>2019-05-31T11:36:30Z</time>
      </trkpt>
      <trkpt lat="44.10424" lon="3.21496">
        <ele>691.5</ele>
        <time>2019-05-31T11:36:32Z</time>
      </trkpt>
      <trkpt lat="44.10418" lon="3.21494">
        <ele>691.6</ele>
        <time>2019-05-31T11:36:33Z</time>
      </trkpt>
      <trkpt lat="44.10414" lon="3.21491">
        <ele>691.7</ele>
        <time>2019-05-31T11:36:34Z</time>
      </trkpt>
      <trkpt lat="44.10406" lon="3.21488">
        <ele>691.8</ele>
        <time>2019-05-31T11:36:35Z</time>
      </trkpt>
      <trkpt lat="44.10403" lon="3.21485">
        <ele>691.8</ele>
        <time>2019-05-31T11:36:36Z</time>
      </trkpt>
      <trkpt lat="44.10399" lon="3.2148">
        <ele>691.8</ele>
        <time>2019-05-31T11:36:38Z</time>
      </trkpt>
      <trkpt lat="44.10396" lon="3.21477">
        <ele>691.8</ele>
        <time>2019-05-31T11:36:39Z</time>
      </trkpt>
      <trkpt lat="44.10392" lon="3.21474">
        <ele>691.9</ele>
        <time>2019-05-31T11:36:40Z</time>
      </trkpt>
      <trkpt lat="44.10389" lon="3.2147">
        <ele>691.9</ele>
        <time>2019-05-31T11:36:41Z</time>
      </trkpt>
      <trkpt lat="44.10385" lon="3.21467">
        <ele>691.9</ele>
        <time>2019-05-31T11:36:42Z</time>
      </trkpt>
      <trkpt lat="44.10382" lon="3.21464">
        <ele>691.9</ele>
        <time>2019-05-31T11:36:43Z</time>
      </trkpt>
      <trkpt lat="44.10379" lon="3.21463">
        <ele>691.9</ele>
        <time>2019-05-31T11:36:44Z</time>
      </trkpt>
      <trkpt lat="44.10375" lon="3.21461">
        <ele>691.9</ele>
        <time>2019-05-31T11:36:45Z</time>
      </trkpt>
      <trkpt lat="44.10368" lon="3.2146">
        <ele>692</ele>
        <time>2019-05-31T11:36:46Z</time>
      </trkpt>
      <trkpt lat="44.10362" lon="3.21459">
        <ele>692</ele>
        <time>2019-05-31T11:36:48Z</time>
      </trkpt>
      <trkpt lat="44.10358" lon="3.21457">
        <ele>692.1</ele>
        <time>2019-05-31T11:36:49Z</time>
      </trkpt>
      <trkpt lat="44.10355" lon="3.21455">
        <ele>692.1</ele>
        <time>2019-05-31T11:36:50Z</time>
      </trkpt>
      <trkpt lat="44.1035" lon="3.21453">
        <ele>692.1</ele>
        <time>2019-05-31T11:36:51Z</time>
      </trkpt>
      <trkpt lat="44.10346" lon="3.21453">
        <ele>692.1</ele>
        <time>2019-05-31T11:36:53Z</time>
      </trkpt>
      <trkpt lat="44.10342" lon="3.21451">
        <ele>692.2</ele>
        <time>2019-05-31T11:36:54Z</time>
      </trkpt>
      <trkpt lat="44.10336" lon="3.21449">
        <ele>692.2</ele>
        <time>2019-05-31T11:36:56Z</time>
      </trkpt>
      <trkpt lat="44.10333" lon="3.21447">
        <ele>692.2</ele>
        <time>2019-05-31T11:36:57Z</time>
      </trkpt>
      <trkpt lat="44.10329" lon="3.21444">
        <ele>692.2</ele>
        <time>2019-05-31T11:36:58Z</time>
      </trkpt>
      <trkpt lat="44.10325" lon="3.21441">
        <ele>692.2</ele>
        <time>2019-05-31T11:37:00Z</time>
      </trkpt>
      <trkpt lat="44.1032" lon="3.21438">
        <ele>692.2</ele>
        <time>2019-05-31T11:37:02Z</time>
      </trkpt>
      <trkpt lat="44.10317" lon="3.21436">
        <ele>692.2</ele>
        <time>2019-05-31T11:37:03Z</time>
      </trkpt>
      <trkpt lat="44.10314" lon="3.21435">
        <ele>692.2</ele>
        <time>2019-05-31T11:37:04Z</time>
      </trkpt>
      <trkpt lat="44.10311" lon="3.21433">
        <ele>692.3</ele>
        <time>2019-05-31T11:37:05Z</time>
      </trkpt>
      <trkpt lat="44.10305" lon="3.21431">
        <ele>692.3</ele>
        <time>2019-05-31T11:37:07Z</time>
      </trkpt>
      <trkpt lat="44.10302" lon="3.2143">
        <ele>692.3</ele>
        <time>2019-05-31T11:37:08Z</time>
      </trkpt>
      <trkpt lat="44.10299" lon="3.21428">
        <ele>692.3</ele>
        <time>2019-05-31T11:37:09Z</time>
      </trkpt>
      <trkpt lat="44.10296" lon="3.21425">
        <ele>692.3</ele>
        <time>2019-05-31T11:37:10Z</time>
      </trkpt>
      <trkpt lat="44.10291" lon="3.21422">
        <ele>692.2</ele>
        <time>2019-05-31T11:37:12Z</time>
      </trkpt>
      <trkpt lat="44.10289" lon="3.21419">
        <ele>692.2</ele>
        <time>2019-05-31T11:37:13Z</time>
      </trkpt>
      <trkpt lat="44.10286" lon="3.21416">
        <ele>692.1</ele>
        <time>2019-05-31T11:37:14Z</time>
      </trkpt>
      <trkpt lat="44.10284" lon="3.21413">
        <ele>692.1</ele>
        <time>2019-05-31T11:37:15Z</time>
      </trkpt>
      <trkpt lat="44.10281" lon="3.2141">
        <ele>692</ele>
        <time>2019-05-31T11:37:16Z</time>
      </trkpt>
      <trkpt lat="44.10279" lon="3.21407">
        <ele>692</ele>
        <time>2019-05-31T11:37:17Z</time>
      </trkpt>
      <trkpt lat="44.10274" lon="3.21403">
        <ele>691.9</ele>
        <time>2019-05-31T11:37:19Z</time>
      </trkpt>
      <trkpt lat="44.10271" lon="3.214">
        <ele>691.8</ele>
        <time>2019-05-31T11:37:20Z</time>
      </trkpt>
      <trkpt lat="44.10268" lon="3.21397">
        <ele>691.7</ele>
        <time>2019-05-31T11:37:21Z</time>
      </trkpt>
      <trkpt lat="44.10265" lon="3.21395">
        <ele>691.6</ele>
        <time>2019-05-31T11:37:22Z</time>
      </trkpt>
      <trkpt lat="44.10263" lon="3.21392">
        <ele>691.5</ele>
        <time>2019-05-31T11:37:23Z</time>
      </trkpt>
      <trkpt lat="44.10259" lon="3.21389">
        <ele>691.4</ele>
        <time>2019-05-31T11:37:24Z</time>
      </trkpt>
      <trkpt lat="44.10256" lon="3.21385">
        <ele>691.3</ele>
        <time>2019-05-31T11:37:25Z</time>
      </trkpt>
      <trkpt lat="44.10253" lon="3.21382">
        <ele>691.2</ele>
        <time>2019-05-31T11:37:26Z</time>
      </trkpt>
      <trkpt lat="44.1025" lon="3.21378">
        <ele>691</ele>
        <time>2019-05-31T11:37:27Z</time>
      </trkpt>
      <trkpt lat="44.10247" lon="3.21374">
        <ele>690.9</ele>
        <time>2019-05-31T11:37:28Z</time>
      </trkpt>
      <trkpt lat="44.10245" lon="3.21371">
        <ele>690.8</ele>
        <time>2019-05-31T11:37:29Z</time>
      </trkpt>
      <trkpt lat="44.10242" lon="3.21366">
        <ele>690.7</ele>
        <time>2019-05-31T11:37:30Z</time>
      </trkpt>
      <trkpt lat="44.10239" lon="3.21361">
        <ele>690.5</ele>
        <time>2019-05-31T11:37:31Z</time>
      </trkpt>
      <trkpt lat="44.10236" lon="3.21356">
        <ele>690.3</ele>
        <time>2019-05-31T11:37:32Z</time>
      </trkpt>
      <trkpt lat="44.10234" lon="3.2135">
        <ele>690.1</ele>
        <time>2019-05-31T11:37:33Z</time>
      </trkpt>
      <trkpt lat="44.10231" lon="3.21345">
        <ele>689.9</ele>
        <time>2019-05-31T11:37:34Z</time>
      </trkpt>
      <trkpt lat="44.10229" lon="3.21338">
        <ele>689.7</ele>
        <time>2019-05-31T11:37:35Z</time>
      </trkpt>
      <trkpt lat="44.10226" lon="3.21333">
        <ele>689.5</ele>
        <time>2019-05-31T11:37:36Z</time>
      </trkpt>
      <trkpt lat="44.10225" lon="3.21327">
        <ele>689.3</ele>
        <time>2019-05-31T11:37:37Z</time>
      </trkpt>
      <trkpt lat="44.10224" lon="3.21321">
        <ele>689.1</ele>
        <time>2019-05-31T11:37:38Z</time>
      </trkpt>
      <trkpt lat="44.10224" lon="3.21314">
        <ele>688.9</ele>
        <time>2019-05-31T11:37:39Z</time>
      </trkpt>
      <trkpt lat="44.10224" lon="3.21307">
        <ele>688.7</ele>
        <time>2019-05-31T11:37:40Z</time>
      </trkpt>
      <trkpt lat="44.10225" lon="3.21301">
        <ele>688.5</ele>
        <time>2019-05-31T11:37:41Z</time>
      </trkpt>
      <trkpt lat="44.10224" lon="3.21294">
        <ele>688.3</ele>
        <time>2019-05-31T11:37:42Z</time>
      </trkpt>
      <trkpt lat="44.10225" lon="3.21289">
        <ele>688.2</ele>
        <time>2019-05-31T11:37:43Z</time>
      </trkpt>
      <trkpt lat="44.10226" lon="3.21281">
        <ele>687.9</ele>
        <time>2019-05-31T11:37:45Z</time>
      </trkpt>
      <trkpt lat="44.10228" lon="3.21276">
        <ele>687.7</ele>
        <time>2019-05-31T11:37:46Z</time>
      </trkpt>
      <trkpt lat="44.10229" lon="3.21271">
        <ele>687.5</ele>
        <time>2019-05-31T11:37:47Z</time>
      </trkpt>
      <trkpt lat="44.10228" lon="3.21263">
        <ele>687.1</ele>
        <time>2019-05-31T11:37:48Z</time>
      </trkpt>
      <trkpt lat="44.10229" lon="3.2126">
        <ele>687</ele>
        <time>2019-05-31T11:37:49Z</time>
      </trkpt>
      <trkpt lat="44.10231" lon="3.21256">
        <ele>686.6</ele>
        <time>2019-05-31T11:37:50Z</time>
      </trkpt>
      <trkpt lat="44.10232" lon="3.21252">
        <ele>686.3</ele>
        <time>2019-05-31T11:37:51Z</time>
      </trkpt>
      <trkpt lat="44.10231" lon="3.21248">
        <ele>686</ele>
        <time>2019-05-31T11:37:52Z</time>
      </trkpt>
      <trkpt lat="44.10228" lon="3.21245">
        <ele>685.5</ele>
        <time>2019-05-31T11:37:53Z</time>
      </trkpt>
      <trkpt lat="44.10225" lon="3.21243">
        <ele>684.9</ele>
        <time>2019-05-31T11:37:54Z</time>
      </trkpt>
      <trkpt lat="44.10222" lon="3.21242">
        <ele>684.6</ele>
        <time>2019-05-31T11:37:55Z</time>
      </trkpt>
      <trkpt lat="44.10216" lon="3.21239">
        <ele>684</ele>
        <time>2019-05-31T11:37:56Z</time>
      </trkpt>
      <trkpt lat="44.10211" lon="3.21238">
        <ele>683.7</ele>
        <time>2019-05-31T11:37:57Z</time>
      </trkpt>
      <trkpt lat="44.10207" lon="3.21235">
        <ele>683.2</ele>
        <time>2019-05-31T11:37:58Z</time>
      </trkpt>
      <trkpt lat="44.10202" lon="3.21232">
        <ele>682.8</ele>
        <time>2019-05-31T11:37:59Z</time>
      </trkpt>
      <trkpt lat="44.10197" lon="3.21231">
        <ele>682.7</ele>
        <time>2019-05-31T11:38:00Z</time>
      </trkpt>
      <trkpt lat="44.10192" lon="3.21229">
        <ele>682.4</ele>
        <time>2019-05-31T11:38:01Z</time>
      </trkpt>
      <trkpt lat="44.10187" lon="3.2123">
        <ele>682.3</ele>
        <time>2019-05-31T11:38:02Z</time>
      </trkpt>
      <trkpt lat="44.10182" lon="3.2123">
        <ele>682.2</ele>
        <time>2019-05-31T11:38:03Z</time>
      </trkpt>
      <trkpt lat="44.10176" lon="3.2123">
        <ele>682</ele>
        <time>2019-05-31T11:38:04Z</time>
      </trkpt>
      <trkpt lat="44.10173" lon="3.21232">
        <ele>681.9</ele>
        <time>2019-05-31T11:38:05Z</time>
      </trkpt>
      <trkpt lat="44.10168" lon="3.21233">
        <ele>681.8</ele>
        <time>2019-05-31T11:38:06Z</time>
      </trkpt>
      <trkpt lat="44.10164" lon="3.21235">
        <ele>681.7</ele>
        <time>2019-05-31T11:38:07Z</time>
      </trkpt>
      <trkpt lat="44.10162" lon="3.21235">
        <ele>681.7</ele>
        <time>2019-05-31T11:38:08Z</time>
      </trkpt>
      <trkpt lat="44.10157" lon="3.21237">
        <ele>681.7</ele>
        <time>2019-05-31T11:38:09Z</time>
      </trkpt>
      <trkpt lat="44.10153" lon="3.21239">
        <ele>681.8</ele>
        <time>2019-05-31T11:38:10Z</time>
      </trkpt>
      <trkpt lat="44.10148" lon="3.21243">
        <ele>681.9</ele>
        <time>2019-05-31T11:38:11Z</time>
      </trkpt>
      <trkpt lat="44.10143" lon="3.21246">
        <ele>682.1</ele>
        <time>2019-05-31T11:38:12Z</time>
      </trkpt>
      <trkpt lat="44.10137" lon="3.21247">
        <ele>682.2</ele>
        <time>2019-05-31T11:38:13Z</time>
      </trkpt>
      <trkpt lat="44.10131" lon="3.21246">
        <ele>682.4</ele>
        <time>2019-05-31T11:38:14Z</time>
      </trkpt>
      <trkpt lat="44.10128" lon="3.21245">
        <ele>682.5</ele>
        <time>2019-05-31T11:38:15Z</time>
      </trkpt>
      <trkpt lat="44.10124" lon="3.21243">
        <ele>682.5</ele>
        <time>2019-05-31T11:38:16Z</time>
      </trkpt>
      <trkpt lat="44.10118" lon="3.21241">
        <ele>682.4</ele>
        <time>2019-05-31T11:38:17Z</time>
      </trkpt>
      <trkpt lat="44.10112" lon="3.21239">
        <ele>682.4</ele>
        <time>2019-05-31T11:38:19Z</time>
      </trkpt>
      <trkpt lat="44.10108" lon="3.21237">
        <ele>682.4</ele>
        <time>2019-05-31T11:38:20Z</time>
      </trkpt>
      <trkpt lat="44.10104" lon="3.21234">
        <ele>682.4</ele>
        <time>2019-05-31T11:38:21Z</time>
      </trkpt>
      <trkpt lat="44.10101" lon="3.21232">
        <ele>682.4</ele>
        <time>2019-05-31T11:38:22Z</time>
      </trkpt>
      <trkpt lat="44.10098" lon="3.21229">
        <ele>682.4</ele>
        <time>2019-05-31T11:38:23Z</time>
      </trkpt>
      <trkpt lat="44.10095" lon="3.21228">
        <ele>682.4</ele>
        <time>2019-05-31T11:38:24Z</time>
      </trkpt>
      <trkpt lat="44.10091" lon="3.21225">
        <ele>682.4</ele>
        <time>2019-05-31T11:38:25Z</time>
      </trkpt>
      <trkpt lat="44.10087" lon="3.21223">
        <ele>682.3</ele>
        <time>2019-05-31T11:38:26Z</time>
      </trkpt>
      <trkpt lat="44.10083" lon="3.21221">
        <ele>682.2</ele>
        <time>2019-05-31T11:38:27Z</time>
      </trkpt>
      <trkpt lat="44.10079" lon="3.21218">
        <ele>682.1</ele>
        <time>2019-05-31T11:38:28Z</time>
      </trkpt>
      <trkpt lat="44.10074" lon="3.21214">
        <ele>682</ele>
        <time>2019-05-31T11:38:29Z</time>
      </trkpt>
      <trkpt lat="44.1007" lon="3.21211">
        <ele>681.9</ele>
        <time>2019-05-31T11:38:30Z</time>
      </trkpt>
      <trkpt lat="44.10065" lon="3.21206">
        <ele>681.7</ele>
        <time>2019-05-31T11:38:31Z</time>
      </trkpt>
      <trkpt lat="44.1006" lon="3.21202">
        <ele>681.4</ele>
        <time>2019-05-31T11:38:32Z</time>
      </trkpt>
      <trkpt lat="44.10055" lon="3.21198">
        <ele>681.1</ele>
        <time>2019-05-31T11:38:33Z</time>
      </trkpt>
      <trkpt lat="44.10051" lon="3.21194">
        <ele>681.1</ele>
        <time>2019-05-31T11:38:34Z</time>
      </trkpt>
      <trkpt lat="44.10048" lon="3.21191">
        <ele>680.9</ele>
        <time>2019-05-31T11:38:35Z</time>
      </trkpt>
      <trkpt lat="44.10042" lon="3.21187">
        <ele>680.6</ele>
        <time>2019-05-31T11:38:36Z</time>
      </trkpt>
      <trkpt lat="44.10039" lon="3.21186">
        <ele>680.4</ele>
        <time>2019-05-31T11:38:37Z</time>
      </trkpt>
      <trkpt lat="44.10036" lon="3.21181">
        <ele>680.2</ele>
        <time>2019-05-31T11:38:38Z</time>
      </trkpt>
      <trkpt lat="44.10031" lon="3.21177">
        <ele>680</ele>
        <time>2019-05-31T11:38:39Z</time>
      </trkpt>
      <trkpt lat="44.10028" lon="3.21173">
        <ele>679.9</ele>
        <time>2019-05-31T11:38:40Z</time>
      </trkpt>
      <trkpt lat="44.10024" lon="3.2117">
        <ele>679.7</ele>
        <time>2019-05-31T11:38:41Z</time>
      </trkpt>
      <trkpt lat="44.10021" lon="3.21167">
        <ele>679.4</ele>
        <time>2019-05-31T11:38:42Z</time>
      </trkpt>
      <trkpt lat="44.10016" lon="3.21164">
        <ele>679.3</ele>
        <time>2019-05-31T11:38:43Z</time>
      </trkpt>
      <trkpt lat="44.10011" lon="3.21162">
        <ele>679.1</ele>
        <time>2019-05-31T11:38:44Z</time>
      </trkpt>
      <trkpt lat="44.10007" lon="3.21161">
        <ele>679</ele>
        <time>2019-05-31T11:38:45Z</time>
      </trkpt>
      <trkpt lat="44.10003" lon="3.2116">
        <ele>678.9</ele>
        <time>2019-05-31T11:38:46Z</time>
      </trkpt>
      <trkpt lat="44.09999" lon="3.21157">
        <ele>678.9</ele>
        <time>2019-05-31T11:38:47Z</time>
      </trkpt>
      <trkpt lat="44.09994" lon="3.21156">
        <ele>678.8</ele>
        <time>2019-05-31T11:38:48Z</time>
      </trkpt>
      <trkpt lat="44.09988" lon="3.21154">
        <ele>678.6</ele>
        <time>2019-05-31T11:38:49Z</time>
      </trkpt>
      <trkpt lat="44.09982" lon="3.21153">
        <ele>678.4</ele>
        <time>2019-05-31T11:38:50Z</time>
      </trkpt>
      <trkpt lat="44.09977" lon="3.21153">
        <ele>678.3</ele>
        <time>2019-05-31T11:38:51Z</time>
      </trkpt>
      <trkpt lat="44.09972" lon="3.21152">
        <ele>678.2</ele>
        <time>2019-05-31T11:38:52Z</time>
      </trkpt>
      <trkpt lat="44.09967" lon="3.21152">
        <ele>678</ele>
        <time>2019-05-31T11:38:53Z</time>
      </trkpt>
      <trkpt lat="44.09962" lon="3.21153">
        <ele>677.9</ele>
        <time>2019-05-31T11:38:54Z</time>
      </trkpt>
      <trkpt lat="44.09957" lon="3.21153">
        <ele>677.7</ele>
        <time>2019-05-31T11:38:55Z</time>
      </trkpt>
      <trkpt lat="44.09953" lon="3.21153">
        <ele>677.5</ele>
        <time>2019-05-31T11:38:56Z</time>
      </trkpt>
      <trkpt lat="44.09945" lon="3.21153">
        <ele>677.2</ele>
        <time>2019-05-31T11:38:57Z</time>
      </trkpt>
      <trkpt lat="44.09938" lon="3.21153">
        <ele>676.8</ele>
        <time>2019-05-31T11:38:58Z</time>
      </trkpt>
      <trkpt lat="44.09929" lon="3.21159">
        <ele>676.4</ele>
        <time>2019-05-31T11:38:59Z</time>
      </trkpt>
      <trkpt lat="44.09923" lon="3.21161">
        <ele>676.5</ele>
        <time>2019-05-31T11:39:00Z</time>
      </trkpt>
      <trkpt lat="44.09915" lon="3.21163">
        <ele>676.4</ele>
        <time>2019-05-31T11:39:01Z</time>
      </trkpt>
      <trkpt lat="44.09907" lon="3.21163">
        <ele>676.3</ele>
        <time>2019-05-31T11:39:02Z</time>
      </trkpt>
      <trkpt lat="44.099" lon="3.21163">
        <ele>676.5</ele>
        <time>2019-05-31T11:39:03Z</time>
      </trkpt>
      <trkpt lat="44.09892" lon="3.21162">
        <ele>676.4</ele>
        <time>2019-05-31T11:39:04Z</time>
      </trkpt>
      <trkpt lat="44.09885" lon="3.21162">
        <ele>676.4</ele>
        <time>2019-05-31T11:39:05Z</time>
      </trkpt>
      <trkpt lat="44.09878" lon="3.21159">
        <ele>676.1</ele>
        <time>2019-05-31T11:39:06Z</time>
      </trkpt>
      <trkpt lat="44.09873" lon="3.2115">
        <ele>675.9</ele>
        <time>2019-05-31T11:39:07Z</time>
      </trkpt>
      <trkpt lat="44.09866" lon="3.21144">
        <ele>675.4</ele>
        <time>2019-05-31T11:39:08Z</time>
      </trkpt>
      <trkpt lat="44.0986" lon="3.21136">
        <ele>675.1</ele>
        <time>2019-05-31T11:39:09Z</time>
      </trkpt>
      <trkpt lat="44.09855" lon="3.2113">
        <ele>674.9</ele>
        <time>2019-05-31T11:39:10Z</time>
      </trkpt>
      <trkpt lat="44.09852" lon="3.21125">
        <ele>674.7</ele>
        <time>2019-05-31T11:39:11Z</time>
      </trkpt>
      <trkpt lat="44.09849" lon="3.2112">
        <ele>674.6</ele>
        <time>2019-05-31T11:39:12Z</time>
      </trkpt>
      <trkpt lat="44.09846" lon="3.21114">
        <ele>674.6</ele>
        <time>2019-05-31T11:39:13Z</time>
      </trkpt>
      <trkpt lat="44.09844" lon="3.21108">
        <ele>674.6</ele>
        <time>2019-05-31T11:39:14Z</time>
      </trkpt>
      <trkpt lat="44.0984" lon="3.21104">
        <ele>674.7</ele>
        <time>2019-05-31T11:39:15Z</time>
      </trkpt>
      <trkpt lat="44.09835" lon="3.21101">
        <ele>674.7</ele>
        <time>2019-05-31T11:39:16Z</time>
      </trkpt>
      <trkpt lat="44.0983" lon="3.21097">
        <ele>675.1</ele>
        <time>2019-05-31T11:39:18Z</time>
      </trkpt>
      <trkpt lat="44.09825" lon="3.21094">
        <ele>675.4</ele>
        <time>2019-05-31T11:39:19Z</time>
      </trkpt>
      <trkpt lat="44.09822" lon="3.21091">
        <ele>675.5</ele>
        <time>2019-05-31T11:39:20Z</time>
      </trkpt>
      <trkpt lat="44.0982" lon="3.21089">
        <ele>675.7</ele>
        <time>2019-05-31T11:39:21Z</time>
      </trkpt>
      <trkpt lat="44.09816" lon="3.21087">
        <ele>675.9</ele>
        <time>2019-05-31T11:39:22Z</time>
      </trkpt>
      <trkpt lat="44.09815" lon="3.21082">
        <ele>676</ele>
        <time>2019-05-31T11:39:23Z</time>
      </trkpt>
      <trkpt lat="44.09813" lon="3.21079">
        <ele>676.2</ele>
        <time>2019-05-31T11:39:24Z</time>
      </trkpt>
      <trkpt lat="44.09808" lon="3.21075">
        <ele>676.4</ele>
        <time>2019-05-31T11:39:25Z</time>
      </trkpt>
      <trkpt lat="44.09803" lon="3.21071">
        <ele>676.7</ele>
        <time>2019-05-31T11:39:26Z</time>
      </trkpt>
      <trkpt lat="44.09801" lon="3.21068">
        <ele>676.9</ele>
        <time>2019-05-31T11:39:27Z</time>
      </trkpt>
      <trkpt lat="44.09799" lon="3.21064">
        <ele>677</ele>
        <time>2019-05-31T11:39:28Z</time>
      </trkpt>
      <trkpt lat="44.09794" lon="3.2106">
        <ele>677.2</ele>
        <time>2019-05-31T11:39:30Z</time>
      </trkpt>
      <trkpt lat="44.09789" lon="3.21054">
        <ele>677.5</ele>
        <time>2019-05-31T11:39:32Z</time>
      </trkpt>
      <trkpt lat="44.09785" lon="3.21051">
        <ele>677.8</ele>
        <time>2019-05-31T11:39:33Z</time>
      </trkpt>
      <trkpt lat="44.09781" lon="3.2105">
        <ele>678</ele>
        <time>2019-05-31T11:39:34Z</time>
      </trkpt>
      <trkpt lat="44.09777" lon="3.21047">
        <ele>678.1</ele>
        <time>2019-05-31T11:39:35Z</time>
      </trkpt>
      <trkpt lat="44.09773" lon="3.21045">
        <ele>678.2</ele>
        <time>2019-05-31T11:39:36Z</time>
      </trkpt>
      <trkpt lat="44.0977" lon="3.21042">
        <ele>678.4</ele>
        <time>2019-05-31T11:39:37Z</time>
      </trkpt>
      <trkpt lat="44.09767" lon="3.21039">
        <ele>678.5</ele>
        <time>2019-05-31T11:39:38Z</time>
      </trkpt>
      <trkpt lat="44.09763" lon="3.21036">
        <ele>678.6</ele>
        <time>2019-05-31T11:39:39Z</time>
      </trkpt>
      <trkpt lat="44.0976" lon="3.21033">
        <ele>678.7</ele>
        <time>2019-05-31T11:39:40Z</time>
      </trkpt>
      <trkpt lat="44.09756" lon="3.21029">
        <ele>678.7</ele>
        <time>2019-05-31T11:39:41Z</time>
      </trkpt>
      <trkpt lat="44.09752" lon="3.21026">
        <ele>678.7</ele>
        <time>2019-05-31T11:39:42Z</time>
      </trkpt>
      <trkpt lat="44.09748" lon="3.21023">
        <ele>678.7</ele>
        <time>2019-05-31T11:39:43Z</time>
      </trkpt>
      <trkpt lat="44.09744" lon="3.21021">
        <ele>678.8</ele>
        <time>2019-05-31T11:39:44Z</time>
      </trkpt>
      <trkpt lat="44.09741" lon="3.21017">
        <ele>678.8</ele>
        <time>2019-05-31T11:39:45Z</time>
      </trkpt>
      <trkpt lat="44.09736" lon="3.21013">
        <ele>678.8</ele>
        <time>2019-05-31T11:39:46Z</time>
      </trkpt>
      <trkpt lat="44.09731" lon="3.21011">
        <ele>678.8</ele>
        <time>2019-05-31T11:39:47Z</time>
      </trkpt>
      <trkpt lat="44.09727" lon="3.2101">
        <ele>678.9</ele>
        <time>2019-05-31T11:39:48Z</time>
      </trkpt>
      <trkpt lat="44.09721" lon="3.21008">
        <ele>679.3</ele>
        <time>2019-05-31T11:39:49Z</time>
      </trkpt>
      <trkpt lat="44.09715" lon="3.21006">
        <ele>679.4</ele>
        <time>2019-05-31T11:39:50Z</time>
      </trkpt>
      <trkpt lat="44.0971" lon="3.21006">
        <ele>679.3</ele>
        <time>2019-05-31T11:39:51Z</time>
      </trkpt>
      <trkpt lat="44.09706" lon="3.21008">
        <ele>679.5</ele>
        <time>2019-05-31T11:39:52Z</time>
      </trkpt>
      <trkpt lat="44.09702" lon="3.21008">
        <ele>679.6</ele>
        <time>2019-05-31T11:39:53Z</time>
      </trkpt>
      <trkpt lat="44.09699" lon="3.21007">
        <ele>679.7</ele>
        <time>2019-05-31T11:39:54Z</time>
      </trkpt>
      <trkpt lat="44.09694" lon="3.21006">
        <ele>679.9</ele>
        <time>2019-05-31T11:39:55Z</time>
      </trkpt>
      <trkpt lat="44.09689" lon="3.21004">
        <ele>680.1</ele>
        <time>2019-05-31T11:39:56Z</time>
      </trkpt>
      <trkpt lat="44.09682" lon="3.21003">
        <ele>680.5</ele>
        <time>2019-05-31T11:39:57Z</time>
      </trkpt>
      <trkpt lat="44.09676" lon="3.21001">
        <ele>680.8</ele>
        <time>2019-05-31T11:39:59Z</time>
      </trkpt>
      <trkpt lat="44.09673" lon="3.20999">
        <ele>681</ele>
        <time>2019-05-31T11:40:00Z</time>
      </trkpt>
      <trkpt lat="44.0967" lon="3.20999">
        <ele>681.3</ele>
        <time>2019-05-31T11:40:01Z</time>
      </trkpt>
      <trkpt lat="44.09666" lon="3.20998">
        <ele>681.3</ele>
        <time>2019-05-31T11:40:02Z</time>
      </trkpt>
      <trkpt lat="44.09661" lon="3.21001">
        <ele>681.5</ele>
        <time>2019-05-31T11:40:04Z</time>
      </trkpt>
      <trkpt lat="44.09654" lon="3.21001">
        <ele>682</ele>
        <time>2019-05-31T11:40:06Z</time>
      </trkpt>
      <trkpt lat="44.09648" lon="3.21001">
        <ele>682.3</ele>
        <time>2019-05-31T11:40:07Z</time>
      </trkpt>
      <trkpt lat="44.09645" lon="3.21002">
        <ele>682.6</ele>
        <time>2019-05-31T11:40:08Z</time>
      </trkpt>
      <trkpt lat="44.09642" lon="3.21004">
        <ele>682.9</ele>
        <time>2019-05-31T11:40:09Z</time>
      </trkpt>
      <trkpt lat="44.09638" lon="3.21005">
        <ele>683</ele>
        <time>2019-05-31T11:40:10Z</time>
      </trkpt>
      <trkpt lat="44.09635" lon="3.21005">
        <ele>683.1</ele>
        <time>2019-05-31T11:40:11Z</time>
      </trkpt>
      <trkpt lat="44.09632" lon="3.21006">
        <ele>683.2</ele>
        <time>2019-05-31T11:40:12Z</time>
      </trkpt>
      <trkpt lat="44.09629" lon="3.21006">
        <ele>683.3</ele>
        <time>2019-05-31T11:40:13Z</time>
      </trkpt>
      <trkpt lat="44.09625" lon="3.21005">
        <ele>683.4</ele>
        <time>2019-05-31T11:40:14Z</time>
      </trkpt>
      <trkpt lat="44.09622" lon="3.21005">
        <ele>683.4</ele>
        <time>2019-05-31T11:40:15Z</time>
      </trkpt>
      <trkpt lat="44.09619" lon="3.21003">
        <ele>683.3</ele>
        <time>2019-05-31T11:40:16Z</time>
      </trkpt>
      <trkpt lat="44.09616" lon="3.21">
        <ele>683.4</ele>
        <time>2019-05-31T11:40:17Z</time>
      </trkpt>
      <trkpt lat="44.09614" lon="3.20998">
        <ele>683.4</ele>
        <time>2019-05-31T11:40:18Z</time>
      </trkpt>
      <trkpt lat="44.09612" lon="3.20996">
        <ele>683.3</ele>
        <time>2019-05-31T11:40:19Z</time>
      </trkpt>
      <trkpt lat="44.09607" lon="3.20993">
        <ele>683.1</ele>
        <time>2019-05-31T11:40:21Z</time>
      </trkpt>
      <trkpt lat="44.09604" lon="3.2099">
        <ele>683.1</ele>
        <time>2019-05-31T11:40:23Z</time>
      </trkpt>
      <trkpt lat="44.09602" lon="3.20986">
        <ele>683</ele>
        <time>2019-05-31T11:40:25Z</time>
      </trkpt>
      <trkpt lat="44.09601" lon="3.20981">
        <ele>682.8</ele>
        <time>2019-05-31T11:40:26Z</time>
      </trkpt>
      <trkpt lat="44.09601" lon="3.20976">
        <ele>682.5</ele>
        <time>2019-05-31T11:40:27Z</time>
      </trkpt>
      <trkpt lat="44.096" lon="3.20971">
        <ele>682.4</ele>
        <time>2019-05-31T11:40:28Z</time>
      </trkpt>
      <trkpt lat="44.09597" lon="3.20966">
        <ele>682.3</ele>
        <time>2019-05-31T11:40:29Z</time>
      </trkpt>
      <trkpt lat="44.09595" lon="3.20962">
        <ele>682.2</ele>
        <time>2019-05-31T11:40:30Z</time>
      </trkpt>
      <trkpt lat="44.09592" lon="3.20958">
        <ele>682.2</ele>
        <time>2019-05-31T11:40:31Z</time>
      </trkpt>
      <trkpt lat="44.09589" lon="3.20954">
        <ele>682.2</ele>
        <time>2019-05-31T11:40:32Z</time>
      </trkpt>
      <trkpt lat="44.09588" lon="3.20951">
        <ele>682.2</ele>
        <time>2019-05-31T11:40:33Z</time>
      </trkpt>
      <trkpt lat="44.09585" lon="3.20946">
        <ele>682</ele>
        <time>2019-05-31T11:40:34Z</time>
      </trkpt>
      <trkpt lat="44.09582" lon="3.20942">
        <ele>682.1</ele>
        <time>2019-05-31T11:40:35Z</time>
      </trkpt>
      <trkpt lat="44.0958" lon="3.20938">
        <ele>682.2</ele>
        <time>2019-05-31T11:40:36Z</time>
      </trkpt>
      <trkpt lat="44.09578" lon="3.20935">
        <ele>682.3</ele>
        <time>2019-05-31T11:40:37Z</time>
      </trkpt>
      <trkpt lat="44.09575" lon="3.20932">
        <ele>682.5</ele>
        <time>2019-05-31T11:40:39Z</time>
      </trkpt>
      <trkpt lat="44.09572" lon="3.20928">
        <ele>682.7</ele>
        <time>2019-05-31T11:40:41Z</time>
      </trkpt>
      <trkpt lat="44.0957" lon="3.20926">
        <ele>682.7</ele>
        <time>2019-05-31T11:40:42Z</time>
      </trkpt>
      <trkpt lat="44.09567" lon="3.20923">
        <ele>683</ele>
        <time>2019-05-31T11:40:43Z</time>
      </trkpt>
      <trkpt lat="44.09565" lon="3.20921">
        <ele>683.4</ele>
        <time>2019-05-31T11:40:44Z</time>
      </trkpt>
      <trkpt lat="44.09561" lon="3.20916">
        <ele>683.9</ele>
        <time>2019-05-31T11:40:46Z</time>
      </trkpt>
      <trkpt lat="44.09559" lon="3.20913">
        <ele>684.1</ele>
        <time>2019-05-31T11:40:47Z</time>
      </trkpt>
      <trkpt lat="44.09557" lon="3.2091">
        <ele>684.6</ele>
        <time>2019-05-31T11:40:48Z</time>
      </trkpt>
      <trkpt lat="44.09554" lon="3.20907">
        <ele>685</ele>
        <time>2019-05-31T11:40:49Z</time>
      </trkpt>
      <trkpt lat="44.09551" lon="3.20902">
        <ele>685.5</ele>
        <time>2019-05-31T11:40:51Z</time>
      </trkpt>
      <trkpt lat="44.09548" lon="3.20897">
        <ele>686.1</ele>
        <time>2019-05-31T11:40:53Z</time>
      </trkpt>
      <trkpt lat="44.09546" lon="3.20892">
        <ele>686.8</ele>
        <time>2019-05-31T11:40:55Z</time>
      </trkpt>
      <trkpt lat="44.09544" lon="3.20887">
        <ele>687.9</ele>
        <time>2019-05-31T11:40:57Z</time>
      </trkpt>
      <trkpt lat="44.09541" lon="3.20884">
        <ele>688</ele>
        <time>2019-05-31T11:40:58Z</time>
      </trkpt>
      <trkpt lat="44.09539" lon="3.20881">
        <ele>688.4</ele>
        <time>2019-05-31T11:40:59Z</time>
      </trkpt>
      <trkpt lat="44.09535" lon="3.20877">
        <ele>689.1</ele>
        <time>2019-05-31T11:41:01Z</time>
      </trkpt>
      <trkpt lat="44.0953" lon="3.20873">
        <ele>689.6</ele>
        <time>2019-05-31T11:41:03Z</time>
      </trkpt>
      <trkpt lat="44.09527" lon="3.2087">
        <ele>689.7</ele>
        <time>2019-05-31T11:41:05Z</time>
      </trkpt>
      <trkpt lat="44.09525" lon="3.20867">
        <ele>690.2</ele>
        <time>2019-05-31T11:41:07Z</time>
      </trkpt>
      <trkpt lat="44.09522" lon="3.20863">
        <ele>690.7</ele>
        <time>2019-05-31T11:41:09Z</time>
      </trkpt>
      <trkpt lat="44.0952" lon="3.2086">
        <ele>691.2</ele>
        <time>2019-05-31T11:41:11Z</time>
      </trkpt>
      <trkpt lat="44.09516" lon="3.20856">
        <ele>691.7</ele>
        <time>2019-05-31T11:41:13Z</time>
      </trkpt>
      <trkpt lat="44.09514" lon="3.20854">
        <ele>691.7</ele>
        <time>2019-05-31T11:41:15Z</time>
      </trkpt>
      <trkpt lat="44.09511" lon="3.20852">
        <ele>692.2</ele>
        <time>2019-05-31T11:41:17Z</time>
      </trkpt>
      <trkpt lat="44.09509" lon="3.20849">
        <ele>692.3</ele>
        <time>2019-05-31T11:41:19Z</time>
      </trkpt>
      <trkpt lat="44.09507" lon="3.20845">
        <ele>692.9</ele>
        <time>2019-05-31T11:41:23Z</time>
      </trkpt>
      <trkpt lat="44.09505" lon="3.20841">
        <ele>693.4</ele>
        <time>2019-05-31T11:41:26Z</time>
      </trkpt>
      <trkpt lat="44.09503" lon="3.20836">
        <ele>694.1</ele>
        <time>2019-05-31T11:41:28Z</time>
      </trkpt>
      <trkpt lat="44.095" lon="3.20832">
        <ele>694.9</ele>
        <time>2019-05-31T11:41:30Z</time>
      </trkpt>
      <trkpt lat="44.09498" lon="3.20828">
        <ele>695.7</ele>
        <time>2019-05-31T11:41:32Z</time>
      </trkpt>
      <trkpt lat="44.09495" lon="3.20826">
        <ele>696.5</ele>
        <time>2019-05-31T11:41:34Z</time>
      </trkpt>
      <trkpt lat="44.09491" lon="3.20824">
        <ele>696.6</ele>
        <time>2019-05-31T11:41:36Z</time>
      </trkpt>
      <trkpt lat="44.09488" lon="3.20823">
        <ele>696.8</ele>
        <time>2019-05-31T11:41:44Z</time>
      </trkpt>
      <trkpt lat="44.09486" lon="3.20822">
        <ele>697.5</ele>
        <time>2019-05-31T11:41:49Z</time>
      </trkpt>
      <trkpt lat="44.09482" lon="3.20819">
        <ele>697.6</ele>
        <time>2019-05-31T11:41:52Z</time>
      </trkpt>
      <trkpt lat="44.09479" lon="3.20817">
        <ele>698.3</ele>
        <time>2019-05-31T11:41:54Z</time>
      </trkpt>
      <trkpt lat="44.09477" lon="3.20814">
        <ele>698.5</ele>
        <time>2019-05-31T11:41:56Z</time>
      </trkpt>
      <trkpt lat="44.09475" lon="3.20812">
        <ele>699</ele>
        <time>2019-05-31T11:41:58Z</time>
      </trkpt>
      <trkpt lat="44.09472" lon="3.20808">
        <ele>699.8</ele>
        <time>2019-05-31T11:42:01Z</time>
      </trkpt>
      <trkpt lat="44.09469" lon="3.20805">
        <ele>699.9</ele>
        <time>2019-05-31T11:42:03Z</time>
      </trkpt>
      <trkpt lat="44.09465" lon="3.20803">
        <ele>700.6</ele>
        <time>2019-05-31T11:42:05Z</time>
      </trkpt>
      <trkpt lat="44.09462" lon="3.208">
        <ele>701.8</ele>
        <time>2019-05-31T11:42:07Z</time>
      </trkpt>
      <trkpt lat="44.0946" lon="3.20797">
        <ele>701.9</ele>
        <time>2019-05-31T11:42:09Z</time>
      </trkpt>
      <trkpt lat="44.09457" lon="3.20794">
        <ele>702.7</ele>
        <time>2019-05-31T11:42:11Z</time>
      </trkpt>
      <trkpt lat="44.09455" lon="3.20791">
        <ele>703.4</ele>
        <time>2019-05-31T11:42:13Z</time>
      </trkpt>
      <trkpt lat="44.09453" lon="3.20789">
        <ele>703.5</ele>
        <time>2019-05-31T11:42:16Z</time>
      </trkpt>
      <trkpt lat="44.09449" lon="3.20788">
        <ele>703.6</ele>
        <time>2019-05-31T11:42:21Z</time>
      </trkpt>
      <trkpt lat="44.09446" lon="3.20786">
        <ele>704.4</ele>
        <time>2019-05-31T11:42:23Z</time>
      </trkpt>
      <trkpt lat="44.09443" lon="3.20784">
        <ele>705.3</ele>
        <time>2019-05-31T11:42:26Z</time>
      </trkpt>
      <trkpt lat="44.0944" lon="3.20782">
        <ele>705.3</ele>
        <time>2019-05-31T11:42:29Z</time>
      </trkpt>
      <trkpt lat="44.09437" lon="3.2078">
        <ele>705.5</ele>
        <time>2019-05-31T11:42:34Z</time>
      </trkpt>
      <trkpt lat="44.09435" lon="3.20779">
        <ele>706.3</ele>
        <time>2019-05-31T11:42:39Z</time>
      </trkpt>
      <trkpt lat="44.09431" lon="3.20779">
        <ele>706.4</ele>
        <time>2019-05-31T11:42:41Z</time>
      </trkpt>
      <trkpt lat="44.09428" lon="3.20777">
        <ele>706.5</ele>
        <time>2019-05-31T11:42:43Z</time>
      </trkpt>
      <trkpt lat="44.09424" lon="3.20775">
        <ele>707.4</ele>
        <time>2019-05-31T11:42:46Z</time>
      </trkpt>
      <trkpt lat="44.09421" lon="3.20774">
        <ele>707.6</ele>
        <time>2019-05-31T11:42:50Z</time>
      </trkpt>
      <trkpt lat="44.09417" lon="3.20773">
        <ele>707.7</ele>
        <time>2019-05-31T11:42:52Z</time>
      </trkpt>
      <trkpt lat="44.09414" lon="3.20771">
        <ele>707.8</ele>
        <time>2019-05-31T11:42:54Z</time>
      </trkpt>
      <trkpt lat="44.09412" lon="3.2077">
        <ele>708.6</ele>
        <time>2019-05-31T11:42:56Z</time>
      </trkpt>
      <trkpt lat="44.09408" lon="3.20769">
        <ele>708.7</ele>
        <time>2019-05-31T11:42:58Z</time>
      </trkpt>
      <trkpt lat="44.09405" lon="3.20768">
        <ele>708.8</ele>
        <time>2019-05-31T11:43:01Z</time>
      </trkpt>
      <trkpt lat="44.09403" lon="3.20765">
        <ele>709.4</ele>
        <time>2019-05-31T11:46:08Z</time>
      </trkpt>
      <trkpt lat="44.09401" lon="3.20761">
        <ele>710.1</ele>
        <time>2019-05-31T11:46:10Z</time>
      </trkpt>
      <trkpt lat="44.09399" lon="3.20758">
        <ele>710.7</ele>
        <time>2019-05-31T11:46:12Z</time>
      </trkpt>
      <trkpt lat="44.09396" lon="3.20754">
        <ele>711.4</ele>
        <time>2019-05-31T11:46:14Z</time>
      </trkpt>
      <trkpt lat="44.09393" lon="3.20749">
        <ele>711.4</ele>
        <time>2019-05-31T11:46:16Z</time>
      </trkpt>
      <trkpt lat="44.09391" lon="3.20747">
        <ele>712.1</ele>
        <time>2019-05-31T11:46:18Z</time>
      </trkpt>
      <trkpt lat="44.09388" lon="3.20746">
        <ele>712</ele>
        <time>2019-05-31T11:46:20Z</time>
      </trkpt>
      <trkpt lat="44.09387" lon="3.20742">
        <ele>712.7</ele>
        <time>2019-05-31T11:46:24Z</time>
      </trkpt>
      <trkpt lat="44.09387" lon="3.20738">
        <ele>713.3</ele>
        <time>2019-05-31T11:46:27Z</time>
      </trkpt>
      <trkpt lat="44.09384" lon="3.20733">
        <ele>713.9</ele>
        <time>2019-05-31T11:46:30Z</time>
      </trkpt>
      <trkpt lat="44.09382" lon="3.2073">
        <ele>714.5</ele>
        <time>2019-05-31T11:46:32Z</time>
      </trkpt>
      <trkpt lat="44.09378" lon="3.20726">
        <ele>715</ele>
        <time>2019-05-31T11:46:35Z</time>
      </trkpt>
      <trkpt lat="44.09375" lon="3.20723">
        <ele>715.7</ele>
        <time>2019-05-31T11:46:37Z</time>
      </trkpt>
      <trkpt lat="44.09371" lon="3.20721">
        <ele>715.7</ele>
        <time>2019-05-31T11:46:39Z</time>
      </trkpt>
      <trkpt lat="44.09368" lon="3.2072">
        <ele>715.7</ele>
        <time>2019-05-31T11:46:41Z</time>
      </trkpt>
      <trkpt lat="44.09367" lon="3.20717">
        <ele>716.3</ele>
        <time>2019-05-31T11:46:43Z</time>
      </trkpt>
      <trkpt lat="44.09366" lon="3.20713">
        <ele>716.9</ele>
        <time>2019-05-31T11:46:46Z</time>
      </trkpt>
      <trkpt lat="44.09362" lon="3.20709">
        <ele>717.6</ele>
        <time>2019-05-31T11:46:48Z</time>
      </trkpt>
      <trkpt lat="44.0936" lon="3.20706">
        <ele>717.6</ele>
        <time>2019-05-31T11:46:49Z</time>
      </trkpt>
      <trkpt lat="44.09357" lon="3.20703">
        <ele>718.3</ele>
        <time>2019-05-31T11:46:51Z</time>
      </trkpt>
      <trkpt lat="44.09354" lon="3.20699">
        <ele>719</ele>
        <time>2019-05-31T11:46:53Z</time>
      </trkpt>
      <trkpt lat="44.09351" lon="3.20696">
        <ele>719.6</ele>
        <time>2019-05-31T11:46:55Z</time>
      </trkpt>
      <trkpt lat="44.09348" lon="3.20692">
        <ele>720.2</ele>
        <time>2019-05-31T11:46:57Z</time>
      </trkpt>
      <trkpt lat="44.09345" lon="3.20686">
        <ele>720.8</ele>
        <time>2019-05-31T11:46:59Z</time>
      </trkpt>
      <trkpt lat="44.09342" lon="3.20681">
        <ele>721.3</ele>
        <time>2019-05-31T11:47:01Z</time>
      </trkpt>
      <trkpt lat="44.09339" lon="3.20676">
        <ele>722.4</ele>
        <time>2019-05-31T11:47:03Z</time>
      </trkpt>
      <trkpt lat="44.09338" lon="3.20672">
        <ele>722.4</ele>
        <time>2019-05-31T11:47:06Z</time>
      </trkpt>
      <trkpt lat="44.09337" lon="3.20668">
        <ele>722.9</ele>
        <time>2019-05-31T11:47:08Z</time>
      </trkpt>
      <trkpt lat="44.09334" lon="3.20663">
        <ele>724.3</ele>
        <time>2019-05-31T11:47:10Z</time>
      </trkpt>
      <trkpt lat="44.09332" lon="3.20656">
        <ele>724.9</ele>
        <time>2019-05-31T11:47:12Z</time>
      </trkpt>
      <trkpt lat="44.0933" lon="3.20653">
        <ele>725.7</ele>
        <time>2019-05-31T11:47:14Z</time>
      </trkpt>
      <trkpt lat="44.09327" lon="3.20651">
        <ele>726.4</ele>
        <time>2019-05-31T11:47:16Z</time>
      </trkpt>
      <trkpt lat="44.09324" lon="3.20646">
        <ele>727.1</ele>
        <time>2019-05-31T11:47:18Z</time>
      </trkpt>
      <trkpt lat="44.09322" lon="3.20643">
        <ele>727</ele>
        <time>2019-05-31T11:47:20Z</time>
      </trkpt>
      <trkpt lat="44.0932" lon="3.2064">
        <ele>727.7</ele>
        <time>2019-05-31T11:47:22Z</time>
      </trkpt>
      <trkpt lat="44.09317" lon="3.20638">
        <ele>728.4</ele>
        <time>2019-05-31T11:47:24Z</time>
      </trkpt>
      <trkpt lat="44.09314" lon="3.20635">
        <ele>728.3</ele>
        <time>2019-05-31T11:47:27Z</time>
      </trkpt>
      <trkpt lat="44.09312" lon="3.20632">
        <ele>728.9</ele>
        <time>2019-05-31T11:47:29Z</time>
      </trkpt>
      <trkpt lat="44.0931" lon="3.20629">
        <ele>729.5</ele>
        <time>2019-05-31T11:47:31Z</time>
      </trkpt>
      <trkpt lat="44.09307" lon="3.20627">
        <ele>729.3</ele>
        <time>2019-05-31T11:47:33Z</time>
      </trkpt>
      <trkpt lat="44.09304" lon="3.20623">
        <ele>730</ele>
        <time>2019-05-31T11:47:35Z</time>
      </trkpt>
      <trkpt lat="44.09301" lon="3.2062">
        <ele>730.6</ele>
        <time>2019-05-31T11:47:37Z</time>
      </trkpt>
      <trkpt lat="44.09299" lon="3.20617">
        <ele>730.4</ele>
        <time>2019-05-31T11:47:39Z</time>
      </trkpt>
      <trkpt lat="44.09296" lon="3.20615">
        <ele>731</ele>
        <time>2019-05-31T11:47:41Z</time>
      </trkpt>
      <trkpt lat="44.09294" lon="3.20611">
        <ele>731.6</ele>
        <time>2019-05-31T11:47:44Z</time>
      </trkpt>
      <trkpt lat="44.09291" lon="3.20607">
        <ele>732.1</ele>
        <time>2019-05-31T11:47:47Z</time>
      </trkpt>
      <trkpt lat="44.09287" lon="3.20603">
        <ele>732.7</ele>
        <time>2019-05-31T11:47:49Z</time>
      </trkpt>
      <trkpt lat="44.09284" lon="3.206">
        <ele>732.6</ele>
        <time>2019-05-31T11:47:51Z</time>
      </trkpt>
      <trkpt lat="44.09282" lon="3.20597">
        <ele>733.2</ele>
        <time>2019-05-31T11:47:53Z</time>
      </trkpt>
      <trkpt lat="44.0928" lon="3.20594">
        <ele>733.9</ele>
        <time>2019-05-31T11:47:55Z</time>
      </trkpt>
      <trkpt lat="44.09278" lon="3.20589">
        <ele>734.5</ele>
        <time>2019-05-31T11:47:57Z</time>
      </trkpt>
      <trkpt lat="44.09274" lon="3.20585">
        <ele>735.1</ele>
        <time>2019-05-31T11:47:59Z</time>
      </trkpt>
      <trkpt lat="44.09271" lon="3.20582">
        <ele>735.8</ele>
        <time>2019-05-31T11:48:01Z</time>
      </trkpt>
      <trkpt lat="44.09268" lon="3.20577">
        <ele>736.6</ele>
        <time>2019-05-31T11:48:04Z</time>
      </trkpt>
      <trkpt lat="44.09266" lon="3.20574">
        <ele>736.5</ele>
        <time>2019-05-31T11:48:06Z</time>
      </trkpt>
      <trkpt lat="44.09262" lon="3.2057">
        <ele>737.2</ele>
        <time>2019-05-31T11:48:08Z</time>
      </trkpt>
      <trkpt lat="44.0926" lon="3.20567">
        <ele>738</ele>
        <time>2019-05-31T11:48:10Z</time>
      </trkpt>
      <trkpt lat="44.09258" lon="3.20562">
        <ele>738.7</ele>
        <time>2019-05-31T11:48:12Z</time>
      </trkpt>
      <trkpt lat="44.09256" lon="3.20558">
        <ele>739.4</ele>
        <time>2019-05-31T11:48:14Z</time>
      </trkpt>
      <trkpt lat="44.09253" lon="3.20553">
        <ele>740.1</ele>
        <time>2019-05-31T11:48:16Z</time>
      </trkpt>
      <trkpt lat="44.0925" lon="3.2055">
        <ele>740.7</ele>
        <time>2019-05-31T11:48:21Z</time>
      </trkpt>
      <trkpt lat="44.09246" lon="3.20546">
        <ele>741.3</ele>
        <time>2019-05-31T11:48:23Z</time>
      </trkpt>
      <trkpt lat="44.09243" lon="3.20544">
        <ele>741.2</ele>
        <time>2019-05-31T11:48:25Z</time>
      </trkpt>
      <trkpt lat="44.09239" lon="3.20539">
        <ele>741.7</ele>
        <time>2019-05-31T11:48:27Z</time>
      </trkpt>
      <trkpt lat="44.09235" lon="3.20535">
        <ele>742.3</ele>
        <time>2019-05-31T11:48:29Z</time>
      </trkpt>
      <trkpt lat="44.09233" lon="3.20533">
        <ele>743</ele>
        <time>2019-05-31T11:48:31Z</time>
      </trkpt>
      <trkpt lat="44.09232" lon="3.20529">
        <ele>743.8</ele>
        <time>2019-05-31T11:48:34Z</time>
      </trkpt>
      <trkpt lat="44.09231" lon="3.20526">
        <ele>744.6</ele>
        <time>2019-05-31T11:48:38Z</time>
      </trkpt>
      <trkpt lat="44.09227" lon="3.20525">
        <ele>744.4</ele>
        <time>2019-05-31T11:48:40Z</time>
      </trkpt>
      <trkpt lat="44.09224" lon="3.20523">
        <ele>744.1</ele>
        <time>2019-05-31T11:48:42Z</time>
      </trkpt>
      <trkpt lat="44.09221" lon="3.20521">
        <ele>744.7</ele>
        <time>2019-05-31T11:48:45Z</time>
      </trkpt>
      <trkpt lat="44.09218" lon="3.20517">
        <ele>745.2</ele>
        <time>2019-05-31T11:48:48Z</time>
      </trkpt>
      <trkpt lat="44.09217" lon="3.20513">
        <ele>744.9</ele>
        <time>2019-05-31T11:48:51Z</time>
      </trkpt>
      <trkpt lat="44.09213" lon="3.20511">
        <ele>745.4</ele>
        <time>2019-05-31T11:48:54Z</time>
      </trkpt>
      <trkpt lat="44.09211" lon="3.20508">
        <ele>745.9</ele>
        <time>2019-05-31T11:48:57Z</time>
      </trkpt>
      <trkpt lat="44.09208" lon="3.20504">
        <ele>746.4</ele>
        <time>2019-05-31T11:49:01Z</time>
      </trkpt>
      <trkpt lat="44.09206" lon="3.20501">
        <ele>746.4</ele>
        <time>2019-05-31T11:49:04Z</time>
      </trkpt>
      <trkpt lat="44.09204" lon="3.20498">
        <ele>747</ele>
        <time>2019-05-31T11:49:06Z</time>
      </trkpt>
      <trkpt lat="44.09201" lon="3.20495">
        <ele>747.5</ele>
        <time>2019-05-31T11:49:08Z</time>
      </trkpt>
      <trkpt lat="44.09198" lon="3.20493">
        <ele>747.4</ele>
        <time>2019-05-31T11:49:10Z</time>
      </trkpt>
      <trkpt lat="44.09195" lon="3.20491">
        <ele>748</ele>
        <time>2019-05-31T11:49:12Z</time>
      </trkpt>
      <trkpt lat="44.09192" lon="3.20489">
        <ele>747.9</ele>
        <time>2019-05-31T11:49:14Z</time>
      </trkpt>
      <trkpt lat="44.09189" lon="3.20486">
        <ele>748.5</ele>
        <time>2019-05-31T11:49:16Z</time>
      </trkpt>
      <trkpt lat="44.09186" lon="3.20483">
        <ele>749</ele>
        <time>2019-05-31T11:49:18Z</time>
      </trkpt>
      <trkpt lat="44.09184" lon="3.2048">
        <ele>749</ele>
        <time>2019-05-31T11:49:20Z</time>
      </trkpt>
      <trkpt lat="44.09182" lon="3.20477">
        <ele>749.6</ele>
        <time>2019-05-31T11:49:22Z</time>
      </trkpt>
      <trkpt lat="44.09179" lon="3.20475">
        <ele>749.4</ele>
        <time>2019-05-31T11:49:25Z</time>
      </trkpt>
      <trkpt lat="44.09177" lon="3.20472">
        <ele>749.9</ele>
        <time>2019-05-31T11:49:29Z</time>
      </trkpt>
      <trkpt lat="44.09175" lon="3.20468">
        <ele>750.4</ele>
        <time>2019-05-31T11:49:33Z</time>
      </trkpt>
      <trkpt lat="44.09172" lon="3.20465">
        <ele>750.9</ele>
        <time>2019-05-31T11:49:39Z</time>
      </trkpt>
      <trkpt lat="44.09169" lon="3.20463">
        <ele>750.8</ele>
        <time>2019-05-31T11:49:43Z</time>
      </trkpt>
      <trkpt lat="44.09166" lon="3.2046">
        <ele>751.1</ele>
        <time>2019-05-31T11:49:45Z</time>
      </trkpt>
      <trkpt lat="44.09163" lon="3.20458">
        <ele>751</ele>
        <time>2019-05-31T11:49:47Z</time>
      </trkpt>
      <trkpt lat="44.09162" lon="3.20454">
        <ele>751.3</ele>
        <time>2019-05-31T11:49:50Z</time>
      </trkpt>
      <trkpt lat="44.0916" lon="3.20449">
        <ele>751.8</ele>
        <time>2019-05-31T11:49:53Z</time>
      </trkpt>
      <trkpt lat="44.09159" lon="3.20443">
        <ele>752.6</ele>
        <time>2019-05-31T11:49:56Z</time>
      </trkpt>
      <trkpt lat="44.09158" lon="3.20438">
        <ele>753.1</ele>
        <time>2019-05-31T11:49:58Z</time>
      </trkpt>
      <trkpt lat="44.09159" lon="3.20435">
        <ele>753.6</ele>
        <time>2019-05-31T11:50:01Z</time>
      </trkpt>
      <trkpt lat="44.0916" lon="3.2043">
        <ele>754.3</ele>
        <time>2019-05-31T11:50:04Z</time>
      </trkpt>
      <trkpt lat="44.09162" lon="3.20426">
        <ele>754.8</ele>
        <time>2019-05-31T11:50:06Z</time>
      </trkpt>
      <trkpt lat="44.09164" lon="3.20424">
        <ele>755</ele>
        <time>2019-05-31T11:50:08Z</time>
      </trkpt>
      <trkpt lat="44.09167" lon="3.20423">
        <ele>755.7</ele>
        <time>2019-05-31T11:50:11Z</time>
      </trkpt>
      <trkpt lat="44.09169" lon="3.20418">
        <ele>756.4</ele>
        <time>2019-05-31T11:50:14Z</time>
      </trkpt>
      <trkpt lat="44.09171" lon="3.20415">
        <ele>756.4</ele>
        <time>2019-05-31T11:50:17Z</time>
      </trkpt>
      <trkpt lat="44.09172" lon="3.20411">
        <ele>757.1</ele>
        <time>2019-05-31T11:50:20Z</time>
      </trkpt>
      <trkpt lat="44.09174" lon="3.20405">
        <ele>757.9</ele>
        <time>2019-05-31T11:50:22Z</time>
      </trkpt>
      <trkpt lat="44.09175" lon="3.20401">
        <ele>758.3</ele>
        <time>2019-05-31T11:50:23Z</time>
      </trkpt>
      <trkpt lat="44.09175" lon="3.20397">
        <ele>758.8</ele>
        <time>2019-05-31T11:50:24Z</time>
      </trkpt>
      <trkpt lat="44.09177" lon="3.20392">
        <ele>759.2</ele>
        <time>2019-05-31T11:50:26Z</time>
      </trkpt>
      <trkpt lat="44.0918" lon="3.20391">
        <ele>759.4</ele>
        <time>2019-05-31T11:50:27Z</time>
      </trkpt>
      <trkpt lat="44.09183" lon="3.20391">
        <ele>759.6</ele>
        <time>2019-05-31T11:50:28Z</time>
      </trkpt>
      <trkpt lat="44.09186" lon="3.20388">
        <ele>760.1</ele>
        <time>2019-05-31T11:50:31Z</time>
      </trkpt>
      <trkpt lat="44.09189" lon="3.20386">
        <ele>760.3</ele>
        <time>2019-05-31T11:50:33Z</time>
      </trkpt>
      <trkpt lat="44.09191" lon="3.20385">
        <ele>760.6</ele>
        <time>2019-05-31T11:50:35Z</time>
      </trkpt>
      <trkpt lat="44.09194" lon="3.20384">
        <ele>761.1</ele>
        <time>2019-05-31T11:50:37Z</time>
      </trkpt>
      <trkpt lat="44.09197" lon="3.20381">
        <ele>761.4</ele>
        <time>2019-05-31T11:50:40Z</time>
      </trkpt>
      <trkpt lat="44.092" lon="3.20378">
        <ele>761.9</ele>
        <time>2019-05-31T11:50:42Z</time>
      </trkpt>
      <trkpt lat="44.09203" lon="3.20373">
        <ele>762.4</ele>
        <time>2019-05-31T11:50:44Z</time>
      </trkpt>
      <trkpt lat="44.09205" lon="3.20369">
        <ele>762.7</ele>
        <time>2019-05-31T11:50:46Z</time>
      </trkpt>
      <trkpt lat="44.09208" lon="3.20363">
        <ele>763.4</ele>
        <time>2019-05-31T11:50:48Z</time>
      </trkpt>
      <trkpt lat="44.09209" lon="3.2036">
        <ele>763.6</ele>
        <time>2019-05-31T11:50:50Z</time>
      </trkpt>
      <trkpt lat="44.0921" lon="3.20355">
        <ele>763.8</ele>
        <time>2019-05-31T11:50:52Z</time>
      </trkpt>
      <trkpt lat="44.09212" lon="3.2035">
        <ele>764.5</ele>
        <time>2019-05-31T11:50:54Z</time>
      </trkpt>
      <trkpt lat="44.09213" lon="3.20344">
        <ele>764.8</ele>
        <time>2019-05-31T11:50:56Z</time>
      </trkpt>
      <trkpt lat="44.09212" lon="3.20337">
        <ele>765.3</ele>
        <time>2019-05-31T11:50:58Z</time>
      </trkpt>
      <trkpt lat="44.0921" lon="3.20331">
        <ele>765.2</ele>
        <time>2019-05-31T11:51:00Z</time>
      </trkpt>
      <trkpt lat="44.09208" lon="3.20325">
        <ele>765.2</ele>
        <time>2019-05-31T11:51:02Z</time>
      </trkpt>
      <trkpt lat="44.09208" lon="3.2032">
        <ele>765.6</ele>
        <time>2019-05-31T11:51:04Z</time>
      </trkpt>
      <trkpt lat="44.09209" lon="3.20315">
        <ele>765.8</ele>
        <time>2019-05-31T11:51:06Z</time>
      </trkpt>
      <trkpt lat="44.09209" lon="3.2031">
        <ele>766.4</ele>
        <time>2019-05-31T11:51:09Z</time>
      </trkpt>
      <trkpt lat="44.09211" lon="3.20304">
        <ele>766.6</ele>
        <time>2019-05-31T11:51:11Z</time>
      </trkpt>
      <trkpt lat="44.09213" lon="3.20301">
        <ele>767.2</ele>
        <time>2019-05-31T11:51:12Z</time>
      </trkpt>
      <trkpt lat="44.09215" lon="3.20296">
        <ele>767.7</ele>
        <time>2019-05-31T11:51:14Z</time>
      </trkpt>
      <trkpt lat="44.09214" lon="3.2029">
        <ele>767.7</ele>
        <time>2019-05-31T11:51:16Z</time>
      </trkpt>
      <trkpt lat="44.09212" lon="3.20287">
        <ele>767.9</ele>
        <time>2019-05-31T11:51:17Z</time>
      </trkpt>
      <trkpt lat="44.09209" lon="3.20284">
        <ele>767.9</ele>
        <time>2019-05-31T11:51:18Z</time>
      </trkpt>
      <trkpt lat="44.09207" lon="3.20282">
        <ele>767.6</ele>
        <time>2019-05-31T11:51:19Z</time>
      </trkpt>
      <trkpt lat="44.09204" lon="3.2028">
        <ele>767.6</ele>
        <time>2019-05-31T11:51:20Z</time>
      </trkpt>
      <trkpt lat="44.09202" lon="3.20278">
        <ele>767.4</ele>
        <time>2019-05-31T11:51:21Z</time>
      </trkpt>
      <trkpt lat="44.09197" lon="3.20275">
        <ele>767.3</ele>
        <time>2019-05-31T11:51:23Z</time>
      </trkpt>
      <trkpt lat="44.09195" lon="3.20271">
        <ele>767.2</ele>
        <time>2019-05-31T11:51:26Z</time>
      </trkpt>
      <trkpt lat="44.09194" lon="3.20267">
        <ele>767.4</ele>
        <time>2019-05-31T11:51:29Z</time>
      </trkpt>
      <trkpt lat="44.09192" lon="3.20263">
        <ele>767.3</ele>
        <time>2019-05-31T11:51:31Z</time>
      </trkpt>
      <trkpt lat="44.09191" lon="3.20258">
        <ele>767.4</ele>
        <time>2019-05-31T11:51:33Z</time>
      </trkpt>
      <trkpt lat="44.09189" lon="3.20253">
        <ele>767.3</ele>
        <time>2019-05-31T11:51:35Z</time>
      </trkpt>
      <trkpt lat="44.09188" lon="3.20249">
        <ele>767.5</ele>
        <time>2019-05-31T11:51:36Z</time>
      </trkpt>
      <trkpt lat="44.09185" lon="3.20244">
        <ele>767.4</ele>
        <time>2019-05-31T11:51:38Z</time>
      </trkpt>
      <trkpt lat="44.09183" lon="3.20239">
        <ele>767.4</ele>
        <time>2019-05-31T11:51:40Z</time>
      </trkpt>
      <trkpt lat="44.0918" lon="3.20235">
        <ele>767.1</ele>
        <time>2019-05-31T11:51:42Z</time>
      </trkpt>
      <trkpt lat="44.09177" lon="3.20231">
        <ele>767</ele>
        <time>2019-05-31T11:51:44Z</time>
      </trkpt>
      <trkpt lat="44.09174" lon="3.20228">
        <ele>766.9</ele>
        <time>2019-05-31T11:51:46Z</time>
      </trkpt>
      <trkpt lat="44.09171" lon="3.20224">
        <ele>766.9</ele>
        <time>2019-05-31T11:51:48Z</time>
      </trkpt>
      <trkpt lat="44.09169" lon="3.2022">
        <ele>767.1</ele>
        <time>2019-05-31T11:51:50Z</time>
      </trkpt>
      <trkpt lat="44.09167" lon="3.20216">
        <ele>767.1</ele>
        <time>2019-05-31T11:51:52Z</time>
      </trkpt>
      <trkpt lat="44.09166" lon="3.20211">
        <ele>767.4</ele>
        <time>2019-05-31T11:51:55Z</time>
      </trkpt>
      <trkpt lat="44.09163" lon="3.20209">
        <ele>767.2</ele>
        <time>2019-05-31T11:51:58Z</time>
      </trkpt>
      <trkpt lat="44.0916" lon="3.20207">
        <ele>767.2</ele>
        <time>2019-05-31T11:52:01Z</time>
      </trkpt>
      <trkpt lat="44.09159" lon="3.20204">
        <ele>767.1</ele>
        <time>2019-05-31T11:52:05Z</time>
      </trkpt>
      <trkpt lat="44.09157" lon="3.20193">
        <ele>767.6</ele>
        <time>2019-05-31T11:55:17Z</time>
      </trkpt>
      <trkpt lat="44.09155" lon="3.20189">
        <ele>767.6</ele>
        <time>2019-05-31T11:55:19Z</time>
      </trkpt>
      <trkpt lat="44.09152" lon="3.20185">
        <ele>767.6</ele>
        <time>2019-05-31T11:55:22Z</time>
      </trkpt>
      <trkpt lat="44.09152" lon="3.20181">
        <ele>767.7</ele>
        <time>2019-05-31T11:55:24Z</time>
      </trkpt>
      <trkpt lat="44.09152" lon="3.20174">
        <ele>767.8</ele>
        <time>2019-05-31T11:55:26Z</time>
      </trkpt>
      <trkpt lat="44.09151" lon="3.2017">
        <ele>767.9</ele>
        <time>2019-05-31T11:55:27Z</time>
      </trkpt>
      <trkpt lat="44.0915" lon="3.20163">
        <ele>767.7</ele>
        <time>2019-05-31T11:55:29Z</time>
      </trkpt>
      <trkpt lat="44.09147" lon="3.20158">
        <ele>767.7</ele>
        <time>2019-05-31T11:55:30Z</time>
      </trkpt>
      <trkpt lat="44.09144" lon="3.20153">
        <ele>767.4</ele>
        <time>2019-05-31T11:55:31Z</time>
      </trkpt>
      <trkpt lat="44.09142" lon="3.20148">
        <ele>767.1</ele>
        <time>2019-05-31T11:55:32Z</time>
      </trkpt>
      <trkpt lat="44.09139" lon="3.20144">
        <ele>766.7</ele>
        <time>2019-05-31T11:55:33Z</time>
      </trkpt>
      <trkpt lat="44.09137" lon="3.20139">
        <ele>766.4</ele>
        <time>2019-05-31T11:55:34Z</time>
      </trkpt>
      <trkpt lat="44.09134" lon="3.20134">
        <ele>766</ele>
        <time>2019-05-31T11:55:35Z</time>
      </trkpt>
      <trkpt lat="44.09133" lon="3.2013">
        <ele>765.9</ele>
        <time>2019-05-31T11:55:36Z</time>
      </trkpt>
      <trkpt lat="44.09134" lon="3.20125">
        <ele>765.8</ele>
        <time>2019-05-31T11:55:37Z</time>
      </trkpt>
      <trkpt lat="44.09141" lon="3.2011">
        <ele>765.8</ele>
        <time>2019-05-31T11:55:38Z</time>
      </trkpt>
      <trkpt lat="44.09138" lon="3.20098">
        <ele>765.5</ele>
        <time>2019-05-31T11:55:39Z</time>
      </trkpt>
      <trkpt lat="44.09137" lon="3.2009">
        <ele>765</ele>
        <time>2019-05-31T11:55:40Z</time>
      </trkpt>
      <trkpt lat="44.09137" lon="3.20085">
        <ele>764.9</ele>
        <time>2019-05-31T11:55:41Z</time>
      </trkpt>
      <trkpt lat="44.09132" lon="3.20076">
        <ele>764.2</ele>
        <time>2019-05-31T11:55:42Z</time>
      </trkpt>
      <trkpt lat="44.09131" lon="3.20065">
        <ele>763.6</ele>
        <time>2019-05-31T11:55:43Z</time>
      </trkpt>
      <trkpt lat="44.09131" lon="3.20055">
        <ele>763.2</ele>
        <time>2019-05-31T11:55:44Z</time>
      </trkpt>
      <trkpt lat="44.09127" lon="3.20045">
        <ele>762.5</ele>
        <time>2019-05-31T11:55:45Z</time>
      </trkpt>
      <trkpt lat="44.09125" lon="3.20037">
        <ele>762.1</ele>
        <time>2019-05-31T11:55:46Z</time>
      </trkpt>
      <trkpt lat="44.09122" lon="3.20028">
        <ele>761.6</ele>
        <time>2019-05-31T11:55:47Z</time>
      </trkpt>
      <trkpt lat="44.09126" lon="3.20022">
        <ele>761.7</ele>
        <time>2019-05-31T11:55:48Z</time>
      </trkpt>
      <trkpt lat="44.09126" lon="3.20017">
        <ele>761.5</ele>
        <time>2019-05-31T11:55:49Z</time>
      </trkpt>
      <trkpt lat="44.09126" lon="3.20007">
        <ele>761.1</ele>
        <time>2019-05-31T11:55:50Z</time>
      </trkpt>
      <trkpt lat="44.09128" lon="3.2">
        <ele>760.7</ele>
        <time>2019-05-31T11:55:51Z</time>
      </trkpt>
      <trkpt lat="44.09129" lon="3.19992">
        <ele>760.5</ele>
        <time>2019-05-31T11:55:52Z</time>
      </trkpt>
      <trkpt lat="44.09126" lon="3.19983">
        <ele>759.8</ele>
        <time>2019-05-31T11:55:53Z</time>
      </trkpt>
      <trkpt lat="44.09125" lon="3.19977">
        <ele>759.2</ele>
        <time>2019-05-31T11:55:54Z</time>
      </trkpt>
      <trkpt lat="44.09122" lon="3.19967">
        <ele>758.3</ele>
        <time>2019-05-31T11:55:55Z</time>
      </trkpt>
      <trkpt lat="44.0912" lon="3.19957">
        <ele>757.9</ele>
        <time>2019-05-31T11:55:56Z</time>
      </trkpt>
      <trkpt lat="44.09117" lon="3.19947">
        <ele>757.3</ele>
        <time>2019-05-31T11:55:57Z</time>
      </trkpt>
      <trkpt lat="44.09114" lon="3.19939">
        <ele>756.6</ele>
        <time>2019-05-31T11:55:58Z</time>
      </trkpt>
      <trkpt lat="44.09109" lon="3.19933">
        <ele>755.7</ele>
        <time>2019-05-31T11:55:59Z</time>
      </trkpt>
      <trkpt lat="44.09106" lon="3.19925">
        <ele>755</ele>
        <time>2019-05-31T11:56:00Z</time>
      </trkpt>
      <trkpt lat="44.09101" lon="3.19918">
        <ele>754.5</ele>
        <time>2019-05-31T11:56:01Z</time>
      </trkpt>
      <trkpt lat="44.09097" lon="3.19912">
        <ele>753.4</ele>
        <time>2019-05-31T11:56:02Z</time>
      </trkpt>
      <trkpt lat="44.09087" lon="3.19914">
        <ele>753.1</ele>
        <time>2019-05-31T11:56:03Z</time>
      </trkpt>
      <trkpt lat="44.09082" lon="3.19914">
        <ele>752.6</ele>
        <time>2019-05-31T11:56:04Z</time>
      </trkpt>
      <trkpt lat="44.09076" lon="3.19914">
        <ele>752.1</ele>
        <time>2019-05-31T11:56:05Z</time>
      </trkpt>
      <trkpt lat="44.09064" lon="3.19915">
        <ele>751.3</ele>
        <time>2019-05-31T11:56:06Z</time>
      </trkpt>
      <trkpt lat="44.09057" lon="3.19915">
        <ele>750.3</ele>
        <time>2019-05-31T11:56:07Z</time>
      </trkpt>
      <trkpt lat="44.09049" lon="3.19918">
        <ele>750</ele>
        <time>2019-05-31T11:56:08Z</time>
      </trkpt>
      <trkpt lat="44.09042" lon="3.19921">
        <ele>749.1</ele>
        <time>2019-05-31T11:56:09Z</time>
      </trkpt>
      <trkpt lat="44.09035" lon="3.19924">
        <ele>748.9</ele>
        <time>2019-05-31T11:56:10Z</time>
      </trkpt>
      <trkpt lat="44.09027" lon="3.19921">
        <ele>748.1</ele>
        <time>2019-05-31T11:56:11Z</time>
      </trkpt>
      <trkpt lat="44.09021" lon="3.19919">
        <ele>747.7</ele>
        <time>2019-05-31T11:56:12Z</time>
      </trkpt>
      <trkpt lat="44.09015" lon="3.19918">
        <ele>747.4</ele>
        <time>2019-05-31T11:56:13Z</time>
      </trkpt>
      <trkpt lat="44.09008" lon="3.19916">
        <ele>746.8</ele>
        <time>2019-05-31T11:56:14Z</time>
      </trkpt>
      <trkpt lat="44.09002" lon="3.19915">
        <ele>746.4</ele>
        <time>2019-05-31T11:56:15Z</time>
      </trkpt>
      <trkpt lat="44.08995" lon="3.19915">
        <ele>746.2</ele>
        <time>2019-05-31T11:56:16Z</time>
      </trkpt>
      <trkpt lat="44.0899" lon="3.19909">
        <ele>745.8</ele>
        <time>2019-05-31T11:56:17Z</time>
      </trkpt>
      <trkpt lat="44.08985" lon="3.19903">
        <ele>745.2</ele>
        <time>2019-05-31T11:56:18Z</time>
      </trkpt>
      <trkpt lat="44.0898" lon="3.19895">
        <ele>744.8</ele>
        <time>2019-05-31T11:56:19Z</time>
      </trkpt>
      <trkpt lat="44.08976" lon="3.1989">
        <ele>744.3</ele>
        <time>2019-05-31T11:56:20Z</time>
      </trkpt>
      <trkpt lat="44.08972" lon="3.19886">
        <ele>744.1</ele>
        <time>2019-05-31T11:56:21Z</time>
      </trkpt>
      <trkpt lat="44.08968" lon="3.19879">
        <ele>744</ele>
        <time>2019-05-31T11:56:22Z</time>
      </trkpt>
      <trkpt lat="44.08964" lon="3.19873">
        <ele>743.7</ele>
        <time>2019-05-31T11:56:23Z</time>
      </trkpt>
      <trkpt lat="44.08961" lon="3.19867">
        <ele>743.6</ele>
        <time>2019-05-31T11:56:24Z</time>
      </trkpt>
      <trkpt lat="44.08958" lon="3.19861">
        <ele>743.4</ele>
        <time>2019-05-31T11:56:25Z</time>
      </trkpt>
      <trkpt lat="44.08954" lon="3.19854">
        <ele>743.3</ele>
        <time>2019-05-31T11:56:26Z</time>
      </trkpt>
      <trkpt lat="44.0895" lon="3.1985">
        <ele>743.2</ele>
        <time>2019-05-31T11:56:27Z</time>
      </trkpt>
      <trkpt lat="44.08947" lon="3.19844">
        <ele>743.2</ele>
        <time>2019-05-31T11:56:28Z</time>
      </trkpt>
      <trkpt lat="44.08944" lon="3.19839">
        <ele>743.1</ele>
        <time>2019-05-31T11:56:29Z</time>
      </trkpt>
      <trkpt lat="44.08941" lon="3.19834">
        <ele>743.1</ele>
        <time>2019-05-31T11:56:30Z</time>
      </trkpt>
      <trkpt lat="44.08937" lon="3.19829">
        <ele>743.2</ele>
        <time>2019-05-31T11:56:31Z</time>
      </trkpt>
      <trkpt lat="44.08935" lon="3.19824">
        <ele>743.1</ele>
        <time>2019-05-31T11:56:32Z</time>
      </trkpt>
      <trkpt lat="44.08932" lon="3.19819">
        <ele>743.1</ele>
        <time>2019-05-31T11:56:33Z</time>
      </trkpt>
      <trkpt lat="44.0893" lon="3.19815">
        <ele>743.1</ele>
        <time>2019-05-31T11:56:34Z</time>
      </trkpt>
      <trkpt lat="44.08927" lon="3.19811">
        <ele>743.2</ele>
        <time>2019-05-31T11:56:35Z</time>
      </trkpt>
      <trkpt lat="44.08925" lon="3.19807">
        <ele>743.2</ele>
        <time>2019-05-31T11:56:36Z</time>
      </trkpt>
      <trkpt lat="44.08922" lon="3.19801">
        <ele>743.3</ele>
        <time>2019-05-31T11:56:37Z</time>
      </trkpt>
      <trkpt lat="44.0892" lon="3.19798">
        <ele>743.2</ele>
        <time>2019-05-31T11:56:38Z</time>
      </trkpt>
      <trkpt lat="44.08918" lon="3.19794">
        <ele>743.3</ele>
        <time>2019-05-31T11:56:39Z</time>
      </trkpt>
      <trkpt lat="44.08917" lon="3.19788">
        <ele>743.2</ele>
        <time>2019-05-31T11:56:40Z</time>
      </trkpt>
      <trkpt lat="44.08914" lon="3.19784">
        <ele>743.3</ele>
        <time>2019-05-31T11:56:41Z</time>
      </trkpt>
      <trkpt lat="44.08912" lon="3.19782">
        <ele>743.4</ele>
        <time>2019-05-31T11:56:42Z</time>
      </trkpt>
      <trkpt lat="44.08912" lon="3.19777">
        <ele>743.3</ele>
        <time>2019-05-31T11:56:43Z</time>
      </trkpt>
      <trkpt lat="44.0891" lon="3.19773">
        <ele>743.3</ele>
        <time>2019-05-31T11:56:44Z</time>
      </trkpt>
      <trkpt lat="44.08907" lon="3.19769">
        <ele>743.4</ele>
        <time>2019-05-31T11:56:45Z</time>
      </trkpt>
      <trkpt lat="44.08905" lon="3.19766">
        <ele>743.5</ele>
        <time>2019-05-31T11:56:46Z</time>
      </trkpt>
      <trkpt lat="44.08903" lon="3.19762">
        <ele>743.6</ele>
        <time>2019-05-31T11:56:47Z</time>
      </trkpt>
      <trkpt lat="44.08901" lon="3.19758">
        <ele>743.6</ele>
        <time>2019-05-31T11:56:48Z</time>
      </trkpt>
      <trkpt lat="44.08898" lon="3.19755">
        <ele>743.8</ele>
        <time>2019-05-31T11:56:49Z</time>
      </trkpt>
      <trkpt lat="44.08895" lon="3.19753">
        <ele>743.9</ele>
        <time>2019-05-31T11:56:50Z</time>
      </trkpt>
      <trkpt lat="44.08892" lon="3.19751">
        <ele>744</ele>
        <time>2019-05-31T11:56:51Z</time>
      </trkpt>
      <trkpt lat="44.08889" lon="3.19748">
        <ele>744.1</ele>
        <time>2019-05-31T11:56:53Z</time>
      </trkpt>
      <trkpt lat="44.08886" lon="3.19746">
        <ele>744.2</ele>
        <time>2019-05-31T11:56:58Z</time>
      </trkpt>
      <trkpt lat="44.08885" lon="3.19742">
        <ele>744.2</ele>
        <time>2019-05-31T11:57:34Z</time>
      </trkpt>
      <trkpt lat="44.08883" lon="3.19738">
        <ele>744.3</ele>
        <time>2019-05-31T11:57:37Z</time>
      </trkpt>
      <trkpt lat="44.08881" lon="3.19735">
        <ele>744.4</ele>
        <time>2019-05-31T11:57:39Z</time>
      </trkpt>
      <trkpt lat="44.08878" lon="3.19731">
        <ele>744.5</ele>
        <time>2019-05-31T11:57:41Z</time>
      </trkpt>
      <trkpt lat="44.08875" lon="3.19728">
        <ele>744.6</ele>
        <time>2019-05-31T11:57:42Z</time>
      </trkpt>
      <trkpt lat="44.08873" lon="3.19726">
        <ele>744.6</ele>
        <time>2019-05-31T11:57:43Z</time>
      </trkpt>
      <trkpt lat="44.0887" lon="3.19725">
        <ele>744.7</ele>
        <time>2019-05-31T11:57:44Z</time>
      </trkpt>
      <trkpt lat="44.08868" lon="3.19723">
        <ele>744.8</ele>
        <time>2019-05-31T11:57:45Z</time>
      </trkpt>
      <trkpt lat="44.08865" lon="3.19722">
        <ele>744.9</ele>
        <time>2019-05-31T11:57:46Z</time>
      </trkpt>
      <trkpt lat="44.0886" lon="3.1972">
        <ele>745</ele>
        <time>2019-05-31T11:57:48Z</time>
      </trkpt>
      <trkpt lat="44.08857" lon="3.19718">
        <ele>745</ele>
        <time>2019-05-31T11:57:50Z</time>
      </trkpt>
      <trkpt lat="44.08854" lon="3.19717">
        <ele>745.2</ele>
        <time>2019-05-31T11:57:52Z</time>
      </trkpt>
      <trkpt lat="44.08851" lon="3.19713">
        <ele>745.3</ele>
        <time>2019-05-31T11:57:54Z</time>
      </trkpt>
      <trkpt lat="44.08848" lon="3.19707">
        <ele>745.3</ele>
        <time>2019-05-31T11:57:56Z</time>
      </trkpt>
      <trkpt lat="44.08847" lon="3.197">
        <ele>745.3</ele>
        <time>2019-05-31T11:57:58Z</time>
      </trkpt>
      <trkpt lat="44.08847" lon="3.19695">
        <ele>745.2</ele>
        <time>2019-05-31T11:57:59Z</time>
      </trkpt>
      <trkpt lat="44.08848" lon="3.19691">
        <ele>745.2</ele>
        <time>2019-05-31T11:58:00Z</time>
      </trkpt>
      <trkpt lat="44.0885" lon="3.19686">
        <ele>745.1</ele>
        <time>2019-05-31T11:58:01Z</time>
      </trkpt>
      <trkpt lat="44.08851" lon="3.19681">
        <ele>745</ele>
        <time>2019-05-31T11:58:02Z</time>
      </trkpt>
      <trkpt lat="44.08852" lon="3.19677">
        <ele>745</ele>
        <time>2019-05-31T11:58:03Z</time>
      </trkpt>
      <trkpt lat="44.08853" lon="3.19672">
        <ele>744.9</ele>
        <time>2019-05-31T11:58:04Z</time>
      </trkpt>
      <trkpt lat="44.08853" lon="3.19668">
        <ele>744.9</ele>
        <time>2019-05-31T11:58:05Z</time>
      </trkpt>
      <trkpt lat="44.08852" lon="3.19664">
        <ele>744.9</ele>
        <time>2019-05-31T11:58:06Z</time>
      </trkpt>
      <trkpt lat="44.08851" lon="3.19661">
        <ele>744.9</ele>
        <time>2019-05-31T11:58:07Z</time>
      </trkpt>
      <trkpt lat="44.08849" lon="3.19657">
        <ele>744.9</ele>
        <time>2019-05-31T11:58:08Z</time>
      </trkpt>
      <trkpt lat="44.08846" lon="3.19654">
        <ele>745</ele>
        <time>2019-05-31T11:58:09Z</time>
      </trkpt>
      <trkpt lat="44.08843" lon="3.19651">
        <ele>745.1</ele>
        <time>2019-05-31T11:58:10Z</time>
      </trkpt>
      <trkpt lat="44.0884" lon="3.19648">
        <ele>745.2</ele>
        <time>2019-05-31T11:58:11Z</time>
      </trkpt>
      <trkpt lat="44.08838" lon="3.19647">
        <ele>745.3</ele>
        <time>2019-05-31T11:58:12Z</time>
      </trkpt>
      <trkpt lat="44.08835" lon="3.19645">
        <ele>745.4</ele>
        <time>2019-05-31T11:58:13Z</time>
      </trkpt>
      <trkpt lat="44.08832" lon="3.19643">
        <ele>745.5</ele>
        <time>2019-05-31T11:58:14Z</time>
      </trkpt>
      <trkpt lat="44.08829" lon="3.1964">
        <ele>745.6</ele>
        <time>2019-05-31T11:58:15Z</time>
      </trkpt>
      <trkpt lat="44.08825" lon="3.19637">
        <ele>745.7</ele>
        <time>2019-05-31T11:58:16Z</time>
      </trkpt>
      <trkpt lat="44.08822" lon="3.19635">
        <ele>745.8</ele>
        <time>2019-05-31T11:58:17Z</time>
      </trkpt>
      <trkpt lat="44.08819" lon="3.19633">
        <ele>745.9</ele>
        <time>2019-05-31T11:58:18Z</time>
      </trkpt>
      <trkpt lat="44.08816" lon="3.19631">
        <ele>746.1</ele>
        <time>2019-05-31T11:58:19Z</time>
      </trkpt>
      <trkpt lat="44.08813" lon="3.19629">
        <ele>746.3</ele>
        <time>2019-05-31T11:58:20Z</time>
      </trkpt>
      <trkpt lat="44.0881" lon="3.19627">
        <ele>746.5</ele>
        <time>2019-05-31T11:58:21Z</time>
      </trkpt>
      <trkpt lat="44.08807" lon="3.19625">
        <ele>746.6</ele>
        <time>2019-05-31T11:58:22Z</time>
      </trkpt>
      <trkpt lat="44.08804" lon="3.19623">
        <ele>746.8</ele>
        <time>2019-05-31T11:58:23Z</time>
      </trkpt>
      <trkpt lat="44.08802" lon="3.19621">
        <ele>747</ele>
        <time>2019-05-31T11:58:24Z</time>
      </trkpt>
      <trkpt lat="44.08799" lon="3.19619">
        <ele>747.2</ele>
        <time>2019-05-31T11:58:25Z</time>
      </trkpt>
      <trkpt lat="44.08796" lon="3.19617">
        <ele>747.4</ele>
        <time>2019-05-31T11:58:26Z</time>
      </trkpt>
      <trkpt lat="44.08793" lon="3.19615">
        <ele>747.6</ele>
        <time>2019-05-31T11:58:27Z</time>
      </trkpt>
      <trkpt lat="44.08789" lon="3.19611">
        <ele>747.9</ele>
        <time>2019-05-31T11:58:29Z</time>
      </trkpt>
      <trkpt lat="44.08786" lon="3.19609">
        <ele>748.1</ele>
        <time>2019-05-31T11:58:30Z</time>
      </trkpt>
      <trkpt lat="44.08783" lon="3.19607">
        <ele>748.3</ele>
        <time>2019-05-31T11:58:31Z</time>
      </trkpt>
      <trkpt lat="44.08781" lon="3.19604">
        <ele>748.5</ele>
        <time>2019-05-31T11:58:32Z</time>
      </trkpt>
      <trkpt lat="44.08779" lon="3.19601">
        <ele>748.6</ele>
        <time>2019-05-31T11:58:33Z</time>
      </trkpt>
      <trkpt lat="44.08777" lon="3.19599">
        <ele>748.8</ele>
        <time>2019-05-31T11:58:34Z</time>
      </trkpt>
      <trkpt lat="44.08774" lon="3.19597">
        <ele>748.9</ele>
        <time>2019-05-31T11:58:35Z</time>
      </trkpt>
      <trkpt lat="44.08772" lon="3.19595">
        <ele>749.1</ele>
        <time>2019-05-31T11:58:36Z</time>
      </trkpt>
      <trkpt lat="44.08769" lon="3.19593">
        <ele>749.2</ele>
        <time>2019-05-31T11:58:37Z</time>
      </trkpt>
      <trkpt lat="44.08767" lon="3.1959">
        <ele>749.4</ele>
        <time>2019-05-31T11:58:38Z</time>
      </trkpt>
      <trkpt lat="44.08764" lon="3.19588">
        <ele>749.6</ele>
        <time>2019-05-31T11:58:39Z</time>
      </trkpt>
      <trkpt lat="44.08759" lon="3.19585">
        <ele>749.9</ele>
        <time>2019-05-31T11:58:41Z</time>
      </trkpt>
      <trkpt lat="44.08755" lon="3.19581">
        <ele>750.1</ele>
        <time>2019-05-31T11:58:43Z</time>
      </trkpt>
      <trkpt lat="44.08753" lon="3.19579">
        <ele>750.3</ele>
        <time>2019-05-31T11:58:44Z</time>
      </trkpt>
      <trkpt lat="44.0875" lon="3.19576">
        <ele>750.5</ele>
        <time>2019-05-31T11:58:45Z</time>
      </trkpt>
      <trkpt lat="44.08748" lon="3.19574">
        <ele>750.7</ele>
        <time>2019-05-31T11:58:46Z</time>
      </trkpt>
      <trkpt lat="44.08745" lon="3.19571">
        <ele>750.9</ele>
        <time>2019-05-31T11:58:47Z</time>
      </trkpt>
      <trkpt lat="44.08743" lon="3.19568">
        <ele>751</ele>
        <time>2019-05-31T11:58:48Z</time>
      </trkpt>
      <trkpt lat="44.08741" lon="3.19566">
        <ele>751.2</ele>
        <time>2019-05-31T11:58:49Z</time>
      </trkpt>
      <trkpt lat="44.08736" lon="3.19562">
        <ele>751.5</ele>
        <time>2019-05-31T11:58:51Z</time>
      </trkpt>
      <trkpt lat="44.08733" lon="3.19559">
        <ele>751.7</ele>
        <time>2019-05-31T11:58:52Z</time>
      </trkpt>
      <trkpt lat="44.08731" lon="3.19557">
        <ele>751.9</ele>
        <time>2019-05-31T11:58:53Z</time>
      </trkpt>
      <trkpt lat="44.08727" lon="3.19553">
        <ele>752.1</ele>
        <time>2019-05-31T11:58:55Z</time>
      </trkpt>
      <trkpt lat="44.08724" lon="3.19548">
        <ele>752.4</ele>
        <time>2019-05-31T11:58:57Z</time>
      </trkpt>
      <trkpt lat="44.08721" lon="3.19544">
        <ele>752.7</ele>
        <time>2019-05-31T11:58:59Z</time>
      </trkpt>
      <trkpt lat="44.08717" lon="3.1954">
        <ele>752.9</ele>
        <time>2019-05-31T11:59:01Z</time>
      </trkpt>
      <trkpt lat="44.08712" lon="3.19536">
        <ele>753.2</ele>
        <time>2019-05-31T11:59:03Z</time>
      </trkpt>
      <trkpt lat="44.08708" lon="3.19533">
        <ele>753.4</ele>
        <time>2019-05-31T11:59:05Z</time>
      </trkpt>
      <trkpt lat="44.08706" lon="3.19531">
        <ele>753.6</ele>
        <time>2019-05-31T11:59:06Z</time>
      </trkpt>
      <trkpt lat="44.08702" lon="3.19527">
        <ele>753.8</ele>
        <time>2019-05-31T11:59:08Z</time>
      </trkpt>
      <trkpt lat="44.08697" lon="3.19523">
        <ele>754.1</ele>
        <time>2019-05-31T11:59:10Z</time>
      </trkpt>
      <trkpt lat="44.08695" lon="3.19521">
        <ele>754.2</ele>
        <time>2019-05-31T11:59:11Z</time>
      </trkpt>
      <trkpt lat="44.0869" lon="3.19517">
        <ele>754.5</ele>
        <time>2019-05-31T11:59:13Z</time>
      </trkpt>
      <trkpt lat="44.08688" lon="3.19515">
        <ele>754.6</ele>
        <time>2019-05-31T11:59:14Z</time>
      </trkpt>
      <trkpt lat="44.08685" lon="3.19514">
        <ele>754.7</ele>
        <time>2019-05-31T11:59:15Z</time>
      </trkpt>
      <trkpt lat="44.08683" lon="3.19512">
        <ele>754.9</ele>
        <time>2019-05-31T11:59:16Z</time>
      </trkpt>
      <trkpt lat="44.0868" lon="3.1951">
        <ele>755</ele>
        <time>2019-05-31T11:59:17Z</time>
      </trkpt>
      <trkpt lat="44.08675" lon="3.19507">
        <ele>755.3</ele>
        <time>2019-05-31T11:59:19Z</time>
      </trkpt>
      <trkpt lat="44.0867" lon="3.19503">
        <ele>755.6</ele>
        <time>2019-05-31T11:59:21Z</time>
      </trkpt>
      <trkpt lat="44.08667" lon="3.19501">
        <ele>755.7</ele>
        <time>2019-05-31T11:59:22Z</time>
      </trkpt>
      <trkpt lat="44.08665" lon="3.19498">
        <ele>755.9</ele>
        <time>2019-05-31T11:59:23Z</time>
      </trkpt>
      <trkpt lat="44.08662" lon="3.19496">
        <ele>756</ele>
        <time>2019-05-31T11:59:24Z</time>
      </trkpt>
      <trkpt lat="44.08658" lon="3.19491">
        <ele>756.3</ele>
        <time>2019-05-31T11:59:26Z</time>
      </trkpt>
      <trkpt lat="44.08657" lon="3.19488">
        <ele>756.4</ele>
        <time>2019-05-31T11:59:27Z</time>
      </trkpt>
      <trkpt lat="44.08654" lon="3.19483">
        <ele>756.6</ele>
        <time>2019-05-31T11:59:29Z</time>
      </trkpt>
      <trkpt lat="44.08654" lon="3.19479">
        <ele>756.7</ele>
        <time>2019-05-31T11:59:30Z</time>
      </trkpt>
      <trkpt lat="44.08653" lon="3.19474">
        <ele>756.9</ele>
        <time>2019-05-31T11:59:31Z</time>
      </trkpt>
      <trkpt lat="44.08653" lon="3.19468">
        <ele>757.1</ele>
        <time>2019-05-31T11:59:33Z</time>
      </trkpt>
      <trkpt lat="44.08653" lon="3.19461">
        <ele>757.3</ele>
        <time>2019-05-31T11:59:35Z</time>
      </trkpt>
      <trkpt lat="44.08654" lon="3.19458">
        <ele>757.5</ele>
        <time>2019-05-31T11:59:37Z</time>
      </trkpt>
      <trkpt lat="44.08656" lon="3.19452">
        <ele>757.7</ele>
        <time>2019-05-31T11:59:39Z</time>
      </trkpt>
      <trkpt lat="44.08657" lon="3.19446">
        <ele>757.9</ele>
        <time>2019-05-31T11:59:41Z</time>
      </trkpt>
      <trkpt lat="44.08658" lon="3.1944">
        <ele>758.1</ele>
        <time>2019-05-31T11:59:43Z</time>
      </trkpt>
      <trkpt lat="44.08658" lon="3.19436">
        <ele>758.2</ele>
        <time>2019-05-31T11:59:44Z</time>
      </trkpt>
      <trkpt lat="44.08659" lon="3.19431">
        <ele>758.4</ele>
        <time>2019-05-31T11:59:45Z</time>
      </trkpt>
      <trkpt lat="44.08659" lon="3.19428">
        <ele>758.5</ele>
        <time>2019-05-31T11:59:46Z</time>
      </trkpt>
      <trkpt lat="44.0866" lon="3.19424">
        <ele>758.6</ele>
        <time>2019-05-31T11:59:47Z</time>
      </trkpt>
      <trkpt lat="44.0866" lon="3.19419">
        <ele>758.7</ele>
        <time>2019-05-31T11:59:48Z</time>
      </trkpt>
      <trkpt lat="44.08661" lon="3.19415">
        <ele>758.9</ele>
        <time>2019-05-31T11:59:49Z</time>
      </trkpt>
      <trkpt lat="44.08662" lon="3.19411">
        <ele>759</ele>
        <time>2019-05-31T11:59:50Z</time>
      </trkpt>
      <trkpt lat="44.08663" lon="3.19402">
        <ele>759.2</ele>
        <time>2019-05-31T11:59:52Z</time>
      </trkpt>
      <trkpt lat="44.08663" lon="3.19398">
        <ele>759.3</ele>
        <time>2019-05-31T11:59:53Z</time>
      </trkpt>
      <trkpt lat="44.08662" lon="3.19392">
        <ele>759.5</ele>
        <time>2019-05-31T11:59:55Z</time>
      </trkpt>
      <trkpt lat="44.08661" lon="3.19384">
        <ele>759.8</ele>
        <time>2019-05-31T11:59:57Z</time>
      </trkpt>
      <trkpt lat="44.08661" lon="3.1938">
        <ele>759.9</ele>
        <time>2019-05-31T11:59:58Z</time>
      </trkpt>
      <trkpt lat="44.0866" lon="3.19376">
        <ele>760</ele>
        <time>2019-05-31T11:59:59Z</time>
      </trkpt>
      <trkpt lat="44.0866" lon="3.19369">
        <ele>760.2</ele>
        <time>2019-05-31T12:00:01Z</time>
      </trkpt>
      <trkpt lat="44.0866" lon="3.19361">
        <ele>760.4</ele>
        <time>2019-05-31T12:00:03Z</time>
      </trkpt>
      <trkpt lat="44.0866" lon="3.19355">
        <ele>760.6</ele>
        <time>2019-05-31T12:00:05Z</time>
      </trkpt>
      <trkpt lat="44.0866" lon="3.19351">
        <ele>760.7</ele>
        <time>2019-05-31T12:00:06Z</time>
      </trkpt>
      <trkpt lat="44.0866" lon="3.19346">
        <ele>760.9</ele>
        <time>2019-05-31T12:00:07Z</time>
      </trkpt>
      <trkpt lat="44.0866" lon="3.19341">
        <ele>761.1</ele>
        <time>2019-05-31T12:00:08Z</time>
      </trkpt>
      <trkpt lat="44.0866" lon="3.19337">
        <ele>761.2</ele>
        <time>2019-05-31T12:00:09Z</time>
      </trkpt>
      <trkpt lat="44.08659" lon="3.19333">
        <ele>761.4</ele>
        <time>2019-05-31T12:00:10Z</time>
      </trkpt>
      <trkpt lat="44.0866" lon="3.19329">
        <ele>761.5</ele>
        <time>2019-05-31T12:00:11Z</time>
      </trkpt>
      <trkpt lat="44.08661" lon="3.19325">
        <ele>761.7</ele>
        <time>2019-05-31T12:00:12Z</time>
      </trkpt>
      <trkpt lat="44.08661" lon="3.1932">
        <ele>761.8</ele>
        <time>2019-05-31T12:00:13Z</time>
      </trkpt>
      <trkpt lat="44.08661" lon="3.19316">
        <ele>762</ele>
        <time>2019-05-31T12:00:14Z</time>
      </trkpt>
      <trkpt lat="44.08661" lon="3.19312">
        <ele>762.2</ele>
        <time>2019-05-31T12:00:15Z</time>
      </trkpt>
      <trkpt lat="44.08662" lon="3.19307">
        <ele>762.4</ele>
        <time>2019-05-31T12:00:16Z</time>
      </trkpt>
      <trkpt lat="44.08662" lon="3.19303">
        <ele>762.5</ele>
        <time>2019-05-31T12:00:17Z</time>
      </trkpt>
      <trkpt lat="44.08662" lon="3.19295">
        <ele>762.9</ele>
        <time>2019-05-31T12:00:19Z</time>
      </trkpt>
      <trkpt lat="44.08662" lon="3.19291">
        <ele>763.1</ele>
        <time>2019-05-31T12:00:20Z</time>
      </trkpt>
      <trkpt lat="44.08662" lon="3.19286">
        <ele>763.3</ele>
        <time>2019-05-31T12:00:21Z</time>
      </trkpt>
      <trkpt lat="44.08662" lon="3.1928">
        <ele>763.6</ele>
        <time>2019-05-31T12:00:23Z</time>
      </trkpt>
      <trkpt lat="44.08662" lon="3.19275">
        <ele>763.8</ele>
        <time>2019-05-31T12:00:24Z</time>
      </trkpt>
      <trkpt lat="44.08662" lon="3.1927">
        <ele>764</ele>
        <time>2019-05-31T12:00:25Z</time>
      </trkpt>
      <trkpt lat="44.08662" lon="3.19266">
        <ele>764.2</ele>
        <time>2019-05-31T12:00:26Z</time>
      </trkpt>
      <trkpt lat="44.08662" lon="3.19262">
        <ele>764.4</ele>
        <time>2019-05-31T12:00:27Z</time>
      </trkpt>
      <trkpt lat="44.08663" lon="3.19255">
        <ele>764.7</ele>
        <time>2019-05-31T12:00:29Z</time>
      </trkpt>
      <trkpt lat="44.08664" lon="3.19248">
        <ele>765.1</ele>
        <time>2019-05-31T12:00:31Z</time>
      </trkpt>
      <trkpt lat="44.08664" lon="3.19243">
        <ele>765.3</ele>
        <time>2019-05-31T12:00:33Z</time>
      </trkpt>
      <trkpt lat="44.08665" lon="3.19236">
        <ele>765.7</ele>
        <time>2019-05-31T12:00:35Z</time>
      </trkpt>
      <trkpt lat="44.08665" lon="3.19232">
        <ele>765.9</ele>
        <time>2019-05-31T12:00:36Z</time>
      </trkpt>
      <trkpt lat="44.08665" lon="3.19227">
        <ele>766.1</ele>
        <time>2019-05-31T12:00:37Z</time>
      </trkpt>
      <trkpt lat="44.08666" lon="3.19221">
        <ele>766.4</ele>
        <time>2019-05-31T12:00:39Z</time>
      </trkpt>
      <trkpt lat="44.08667" lon="3.19216">
        <ele>766.7</ele>
        <time>2019-05-31T12:00:41Z</time>
      </trkpt>
      <trkpt lat="44.08668" lon="3.19208">
        <ele>767.1</ele>
        <time>2019-05-31T12:00:43Z</time>
      </trkpt>
      <trkpt lat="44.08669" lon="3.19204">
        <ele>767.4</ele>
        <time>2019-05-31T12:00:44Z</time>
      </trkpt>
      <trkpt lat="44.08669" lon="3.192">
        <ele>767.6</ele>
        <time>2019-05-31T12:00:45Z</time>
      </trkpt>
      <trkpt lat="44.08668" lon="3.19193">
        <ele>768</ele>
        <time>2019-05-31T12:00:47Z</time>
      </trkpt>
      <trkpt lat="44.08667" lon="3.19187">
        <ele>768.3</ele>
        <time>2019-05-31T12:00:49Z</time>
      </trkpt>
      <trkpt lat="44.08666" lon="3.19182">
        <ele>768.6</ele>
        <time>2019-05-31T12:00:51Z</time>
      </trkpt>
      <trkpt lat="44.08665" lon="3.19177">
        <ele>768.9</ele>
        <time>2019-05-31T12:00:53Z</time>
      </trkpt>
      <trkpt lat="44.08665" lon="3.19172">
        <ele>769.1</ele>
        <time>2019-05-31T12:00:54Z</time>
      </trkpt>
      <trkpt lat="44.08664" lon="3.19166">
        <ele>769.4</ele>
        <time>2019-05-31T12:00:56Z</time>
      </trkpt>
      <trkpt lat="44.08663" lon="3.19162">
        <ele>769.7</ele>
        <time>2019-05-31T12:00:58Z</time>
      </trkpt>
      <trkpt lat="44.08661" lon="3.19156">
        <ele>770</ele>
        <time>2019-05-31T12:01:00Z</time>
      </trkpt>
      <trkpt lat="44.08659" lon="3.19151">
        <ele>770.3</ele>
        <time>2019-05-31T12:01:02Z</time>
      </trkpt>
      <trkpt lat="44.08656" lon="3.19147">
        <ele>770.5</ele>
        <time>2019-05-31T12:01:04Z</time>
      </trkpt>
      <trkpt lat="44.08653" lon="3.19144">
        <ele>770.8</ele>
        <time>2019-05-31T12:01:06Z</time>
      </trkpt>
      <trkpt lat="44.0865" lon="3.19141">
        <ele>771</ele>
        <time>2019-05-31T12:01:08Z</time>
      </trkpt>
      <trkpt lat="44.08645" lon="3.19138">
        <ele>771.4</ele>
        <time>2019-05-31T12:01:10Z</time>
      </trkpt>
      <trkpt lat="44.08643" lon="3.19136">
        <ele>771.6</ele>
        <time>2019-05-31T12:01:11Z</time>
      </trkpt>
      <trkpt lat="44.08639" lon="3.19134">
        <ele>771.9</ele>
        <time>2019-05-31T12:01:13Z</time>
      </trkpt>
      <trkpt lat="44.08636" lon="3.19131">
        <ele>772.1</ele>
        <time>2019-05-31T12:01:15Z</time>
      </trkpt>
      <trkpt lat="44.08632" lon="3.19129">
        <ele>772.3</ele>
        <time>2019-05-31T12:01:17Z</time>
      </trkpt>
      <trkpt lat="44.08628" lon="3.19129">
        <ele>772.6</ele>
        <time>2019-05-31T12:01:19Z</time>
      </trkpt>
      <trkpt lat="44.08624" lon="3.1913">
        <ele>772.8</ele>
        <time>2019-05-31T12:01:21Z</time>
      </trkpt>
      <trkpt lat="44.08619" lon="3.1913">
        <ele>773</ele>
        <time>2019-05-31T12:01:23Z</time>
      </trkpt>
      <trkpt lat="44.08617" lon="3.19131">
        <ele>773.1</ele>
        <time>2019-05-31T12:01:24Z</time>
      </trkpt>
      <trkpt lat="44.08614" lon="3.19131">
        <ele>773.3</ele>
        <time>2019-05-31T12:01:25Z</time>
      </trkpt>
      <trkpt lat="44.08611" lon="3.19131">
        <ele>773.4</ele>
        <time>2019-05-31T12:01:26Z</time>
      </trkpt>
      <trkpt lat="44.08606" lon="3.19131">
        <ele>773.6</ele>
        <time>2019-05-31T12:01:28Z</time>
      </trkpt>
      <trkpt lat="44.08604" lon="3.19132">
        <ele>773.8</ele>
        <time>2019-05-31T12:01:29Z</time>
      </trkpt>
      <trkpt lat="44.08601" lon="3.19132">
        <ele>773.9</ele>
        <time>2019-05-31T12:01:30Z</time>
      </trkpt>
      <trkpt lat="44.08597" lon="3.19134">
        <ele>774.2</ele>
        <time>2019-05-31T12:01:32Z</time>
      </trkpt>
      <trkpt lat="44.08593" lon="3.19137">
        <ele>774.5</ele>
        <time>2019-05-31T12:01:34Z</time>
      </trkpt>
      <trkpt lat="44.08589" lon="3.19139">
        <ele>774.8</ele>
        <time>2019-05-31T12:01:36Z</time>
      </trkpt>
      <trkpt lat="44.08585" lon="3.19141">
        <ele>775</ele>
        <time>2019-05-31T12:01:38Z</time>
      </trkpt>
      <trkpt lat="44.08581" lon="3.19142">
        <ele>775.3</ele>
        <time>2019-05-31T12:01:40Z</time>
      </trkpt>
      <trkpt lat="44.08577" lon="3.19144">
        <ele>775.6</ele>
        <time>2019-05-31T12:01:42Z</time>
      </trkpt>
      <trkpt lat="44.08573" lon="3.19146">
        <ele>776.1</ele>
        <time>2019-05-31T12:01:44Z</time>
      </trkpt>
      <trkpt lat="44.0857" lon="3.19147">
        <ele>776.4</ele>
        <time>2019-05-31T12:01:45Z</time>
      </trkpt>
      <trkpt lat="44.08565" lon="3.1915">
        <ele>776.8</ele>
        <time>2019-05-31T12:01:47Z</time>
      </trkpt>
      <trkpt lat="44.0856" lon="3.19152">
        <ele>777.3</ele>
        <time>2019-05-31T12:01:49Z</time>
      </trkpt>
      <trkpt lat="44.08556" lon="3.19153">
        <ele>777.7</ele>
        <time>2019-05-31T12:01:51Z</time>
      </trkpt>
      <trkpt lat="44.08551" lon="3.19155">
        <ele>778.1</ele>
        <time>2019-05-31T12:01:53Z</time>
      </trkpt>
      <trkpt lat="44.08548" lon="3.19155">
        <ele>778.3</ele>
        <time>2019-05-31T12:01:55Z</time>
      </trkpt>
      <trkpt lat="44.08543" lon="3.19155">
        <ele>778.7</ele>
        <time>2019-05-31T12:01:57Z</time>
      </trkpt>
      <trkpt lat="44.0854" lon="3.19155">
        <ele>779</ele>
        <time>2019-05-31T12:01:59Z</time>
      </trkpt>
      <trkpt lat="44.08537" lon="3.19155">
        <ele>779.2</ele>
        <time>2019-05-31T12:02:00Z</time>
      </trkpt>
      <trkpt lat="44.08534" lon="3.19154">
        <ele>779.4</ele>
        <time>2019-05-31T12:02:01Z</time>
      </trkpt>
      <trkpt lat="44.08528" lon="3.19153">
        <ele>779.8</ele>
        <time>2019-05-31T12:02:03Z</time>
      </trkpt>
      <trkpt lat="44.08524" lon="3.19152">
        <ele>780.1</ele>
        <time>2019-05-31T12:02:05Z</time>
      </trkpt>
      <trkpt lat="44.0852" lon="3.1915">
        <ele>780.3</ele>
        <time>2019-05-31T12:02:08Z</time>
      </trkpt>
      <trkpt lat="44.08517" lon="3.19147">
        <ele>780.5</ele>
        <time>2019-05-31T12:02:10Z</time>
      </trkpt>
      <trkpt lat="44.08513" lon="3.19144">
        <ele>780.8</ele>
        <time>2019-05-31T12:02:12Z</time>
      </trkpt>
      <trkpt lat="44.08509" lon="3.19142">
        <ele>781.1</ele>
        <time>2019-05-31T12:02:14Z</time>
      </trkpt>
      <trkpt lat="44.08507" lon="3.19139">
        <ele>781.2</ele>
        <time>2019-05-31T12:02:16Z</time>
      </trkpt>
      <trkpt lat="44.08507" lon="3.19135">
        <ele>781.4</ele>
        <time>2019-05-31T12:02:18Z</time>
      </trkpt>
      <trkpt lat="44.08507" lon="3.19131">
        <ele>781.6</ele>
        <time>2019-05-31T12:02:20Z</time>
      </trkpt>
      <trkpt lat="44.08505" lon="3.19127">
        <ele>781.8</ele>
        <time>2019-05-31T12:02:22Z</time>
      </trkpt>
      <trkpt lat="44.08503" lon="3.19125">
        <ele>782</ele>
        <time>2019-05-31T12:02:23Z</time>
      </trkpt>
      <trkpt lat="44.08499" lon="3.1912">
        <ele>782.3</ele>
        <time>2019-05-31T12:02:25Z</time>
      </trkpt>
      <trkpt lat="44.08495" lon="3.19117">
        <ele>782.6</ele>
        <time>2019-05-31T12:02:27Z</time>
      </trkpt>
      <trkpt lat="44.08492" lon="3.19115">
        <ele>782.7</ele>
        <time>2019-05-31T12:02:29Z</time>
      </trkpt>
      <trkpt lat="44.0849" lon="3.19112">
        <ele>782.9</ele>
        <time>2019-05-31T12:02:31Z</time>
      </trkpt>
      <trkpt lat="44.08487" lon="3.19107">
        <ele>783.2</ele>
        <time>2019-05-31T12:02:34Z</time>
      </trkpt>
      <trkpt lat="44.08483" lon="3.19103">
        <ele>783.5</ele>
        <time>2019-05-31T12:02:36Z</time>
      </trkpt>
      <trkpt lat="44.08479" lon="3.19102">
        <ele>783.7</ele>
        <time>2019-05-31T12:02:38Z</time>
      </trkpt>
      <trkpt lat="44.08475" lon="3.19099">
        <ele>784</ele>
        <time>2019-05-31T12:02:40Z</time>
      </trkpt>
      <trkpt lat="44.08472" lon="3.19095">
        <ele>784.2</ele>
        <time>2019-05-31T12:02:42Z</time>
      </trkpt>
      <trkpt lat="44.0847" lon="3.1909">
        <ele>784.4</ele>
        <time>2019-05-31T12:02:44Z</time>
      </trkpt>
      <trkpt lat="44.08466" lon="3.19086">
        <ele>784.7</ele>
        <time>2019-05-31T12:02:46Z</time>
      </trkpt>
      <trkpt lat="44.08464" lon="3.19085">
        <ele>784.9</ele>
        <time>2019-05-31T12:02:47Z</time>
      </trkpt>
      <trkpt lat="44.08461" lon="3.19083">
        <ele>785.1</ele>
        <time>2019-05-31T12:02:48Z</time>
      </trkpt>
      <trkpt lat="44.08458" lon="3.19082">
        <ele>785.3</ele>
        <time>2019-05-31T12:02:49Z</time>
      </trkpt>
      <trkpt lat="44.08454" lon="3.19078">
        <ele>785.7</ele>
        <time>2019-05-31T12:02:51Z</time>
      </trkpt>
      <trkpt lat="44.08451" lon="3.19074">
        <ele>786</ele>
        <time>2019-05-31T12:02:53Z</time>
      </trkpt>
      <trkpt lat="44.08447" lon="3.19071">
        <ele>786.3</ele>
        <time>2019-05-31T12:02:55Z</time>
      </trkpt>
      <trkpt lat="44.08444" lon="3.19066">
        <ele>786.6</ele>
        <time>2019-05-31T12:02:57Z</time>
      </trkpt>
      <trkpt lat="44.08441" lon="3.19062">
        <ele>786.9</ele>
        <time>2019-05-31T12:02:59Z</time>
      </trkpt>
      <trkpt lat="44.08437" lon="3.19058">
        <ele>787.3</ele>
        <time>2019-05-31T12:03:01Z</time>
      </trkpt>
      <trkpt lat="44.08435" lon="3.19053">
        <ele>787.6</ele>
        <time>2019-05-31T12:03:03Z</time>
      </trkpt>
      <trkpt lat="44.08432" lon="3.1905">
        <ele>787.9</ele>
        <time>2019-05-31T12:03:05Z</time>
      </trkpt>
      <trkpt lat="44.08429" lon="3.19048">
        <ele>788.2</ele>
        <time>2019-05-31T12:03:07Z</time>
      </trkpt>
      <trkpt lat="44.08426" lon="3.19044">
        <ele>788.6</ele>
        <time>2019-05-31T12:03:09Z</time>
      </trkpt>
      <trkpt lat="44.08423" lon="3.1904">
        <ele>789</ele>
        <time>2019-05-31T12:03:11Z</time>
      </trkpt>
      <trkpt lat="44.0842" lon="3.19034">
        <ele>789.4</ele>
        <time>2019-05-31T12:03:13Z</time>
      </trkpt>
      <trkpt lat="44.08418" lon="3.1903">
        <ele>789.8</ele>
        <time>2019-05-31T12:03:15Z</time>
      </trkpt>
      <trkpt lat="44.08415" lon="3.19025">
        <ele>790.2</ele>
        <time>2019-05-31T12:03:17Z</time>
      </trkpt>
      <trkpt lat="44.08413" lon="3.19021">
        <ele>790.5</ele>
        <time>2019-05-31T12:03:19Z</time>
      </trkpt>
      <trkpt lat="44.0841" lon="3.19016">
        <ele>790.9</ele>
        <time>2019-05-31T12:03:21Z</time>
      </trkpt>
      <trkpt lat="44.08408" lon="3.19012">
        <ele>791.2</ele>
        <time>2019-05-31T12:03:23Z</time>
      </trkpt>
      <trkpt lat="44.08406" lon="3.19008">
        <ele>791.4</ele>
        <time>2019-05-31T12:03:25Z</time>
      </trkpt>
      <trkpt lat="44.08405" lon="3.19003">
        <ele>791.6</ele>
        <time>2019-05-31T12:03:27Z</time>
      </trkpt>
      <trkpt lat="44.08403" lon="3.18998">
        <ele>791.8</ele>
        <time>2019-05-31T12:03:29Z</time>
      </trkpt>
      <trkpt lat="44.08401" lon="3.18996">
        <ele>792</ele>
        <time>2019-05-31T12:03:30Z</time>
      </trkpt>
      <trkpt lat="44.08399" lon="3.18994">
        <ele>792.1</ele>
        <time>2019-05-31T12:03:31Z</time>
      </trkpt>
      <trkpt lat="44.08396" lon="3.18991">
        <ele>792.3</ele>
        <time>2019-05-31T12:03:33Z</time>
      </trkpt>
      <trkpt lat="44.08392" lon="3.18987">
        <ele>792.5</ele>
        <time>2019-05-31T12:03:35Z</time>
      </trkpt>
      <trkpt lat="44.08387" lon="3.18985">
        <ele>792.7</ele>
        <time>2019-05-31T12:03:37Z</time>
      </trkpt>
      <trkpt lat="44.08382" lon="3.18982">
        <ele>792.9</ele>
        <time>2019-05-31T12:03:39Z</time>
      </trkpt>
      <trkpt lat="44.08379" lon="3.18981">
        <ele>793</ele>
        <time>2019-05-31T12:03:41Z</time>
      </trkpt>
      <trkpt lat="44.08374" lon="3.1898">
        <ele>793.2</ele>
        <time>2019-05-31T12:03:43Z</time>
      </trkpt>
      <trkpt lat="44.08371" lon="3.18979">
        <ele>793.3</ele>
        <time>2019-05-31T12:03:44Z</time>
      </trkpt>
      <trkpt lat="44.08368" lon="3.18977">
        <ele>793.5</ele>
        <time>2019-05-31T12:03:45Z</time>
      </trkpt>
      <trkpt lat="44.08365" lon="3.18977">
        <ele>793.6</ele>
        <time>2019-05-31T12:03:46Z</time>
      </trkpt>
      <trkpt lat="44.08361" lon="3.18976">
        <ele>793.7</ele>
        <time>2019-05-31T12:03:47Z</time>
      </trkpt>
      <trkpt lat="44.08356" lon="3.18975">
        <ele>793.8</ele>
        <time>2019-05-31T12:03:49Z</time>
      </trkpt>
      <trkpt lat="44.08353" lon="3.18974">
        <ele>793.8</ele>
        <time>2019-05-31T12:03:50Z</time>
      </trkpt>
      <trkpt lat="44.08349" lon="3.18972">
        <ele>793.8</ele>
        <time>2019-05-31T12:03:51Z</time>
      </trkpt>
      <trkpt lat="44.08344" lon="3.1897">
        <ele>793.9</ele>
        <time>2019-05-31T12:03:52Z</time>
      </trkpt>
      <trkpt lat="44.0834" lon="3.18969">
        <ele>793.9</ele>
        <time>2019-05-31T12:03:53Z</time>
      </trkpt>
      <trkpt lat="44.08336" lon="3.18969">
        <ele>793.9</ele>
        <time>2019-05-31T12:03:54Z</time>
      </trkpt>
      <trkpt lat="44.08332" lon="3.18969">
        <ele>794</ele>
        <time>2019-05-31T12:03:55Z</time>
      </trkpt>
      <trkpt lat="44.08328" lon="3.18969">
        <ele>794</ele>
        <time>2019-05-31T12:03:56Z</time>
      </trkpt>
      <trkpt lat="44.08324" lon="3.18968">
        <ele>794</ele>
        <time>2019-05-31T12:03:57Z</time>
      </trkpt>
      <trkpt lat="44.0832" lon="3.18968">
        <ele>794.1</ele>
        <time>2019-05-31T12:03:58Z</time>
      </trkpt>
      <trkpt lat="44.08316" lon="3.18968">
        <ele>794.1</ele>
        <time>2019-05-31T12:03:59Z</time>
      </trkpt>
      <trkpt lat="44.08313" lon="3.18968">
        <ele>794.1</ele>
        <time>2019-05-31T12:04:00Z</time>
      </trkpt>
      <trkpt lat="44.08308" lon="3.18969">
        <ele>794.2</ele>
        <time>2019-05-31T12:04:02Z</time>
      </trkpt>
      <trkpt lat="44.08304" lon="3.18969">
        <ele>794.2</ele>
        <time>2019-05-31T12:04:03Z</time>
      </trkpt>
      <trkpt lat="44.08301" lon="3.18969">
        <ele>794.3</ele>
        <time>2019-05-31T12:04:04Z</time>
      </trkpt>
      <trkpt lat="44.08298" lon="3.18968">
        <ele>794.3</ele>
        <time>2019-05-31T12:04:05Z</time>
      </trkpt>
      <trkpt lat="44.08293" lon="3.18967">
        <ele>794.4</ele>
        <time>2019-05-31T12:04:06Z</time>
      </trkpt>
      <trkpt lat="44.08289" lon="3.18967">
        <ele>794.5</ele>
        <time>2019-05-31T12:04:07Z</time>
      </trkpt>
      <trkpt lat="44.08284" lon="3.18966">
        <ele>794.5</ele>
        <time>2019-05-31T12:04:08Z</time>
      </trkpt>
      <trkpt lat="44.0828" lon="3.18965">
        <ele>794.6</ele>
        <time>2019-05-31T12:04:09Z</time>
      </trkpt>
      <trkpt lat="44.08277" lon="3.18964">
        <ele>794.7</ele>
        <time>2019-05-31T12:04:10Z</time>
      </trkpt>
      <trkpt lat="44.08272" lon="3.18963">
        <ele>794.8</ele>
        <time>2019-05-31T12:04:12Z</time>
      </trkpt>
      <trkpt lat="44.08269" lon="3.18963">
        <ele>794.9</ele>
        <time>2019-05-31T12:04:13Z</time>
      </trkpt>
      <trkpt lat="44.08264" lon="3.18963">
        <ele>795.1</ele>
        <time>2019-05-31T12:04:14Z</time>
      </trkpt>
      <trkpt lat="44.08258" lon="3.18962">
        <ele>795.3</ele>
        <time>2019-05-31T12:04:15Z</time>
      </trkpt>
      <trkpt lat="44.08253" lon="3.18962">
        <ele>795.5</ele>
        <time>2019-05-31T12:04:16Z</time>
      </trkpt>
      <trkpt lat="44.08249" lon="3.18961">
        <ele>795.6</ele>
        <time>2019-05-31T12:04:17Z</time>
      </trkpt>
      <trkpt lat="44.08245" lon="3.18961">
        <ele>795.7</ele>
        <time>2019-05-31T12:04:18Z</time>
      </trkpt>
      <trkpt lat="44.0824" lon="3.18962">
        <ele>795.9</ele>
        <time>2019-05-31T12:04:19Z</time>
      </trkpt>
      <trkpt lat="44.08236" lon="3.18962">
        <ele>796.2</ele>
        <time>2019-05-31T12:04:20Z</time>
      </trkpt>
      <trkpt lat="44.08233" lon="3.18962">
        <ele>796.4</ele>
        <time>2019-05-31T12:04:21Z</time>
      </trkpt>
      <trkpt lat="44.08229" lon="3.18963">
        <ele>796.5</ele>
        <time>2019-05-31T12:04:22Z</time>
      </trkpt>
      <trkpt lat="44.08225" lon="3.18963">
        <ele>796.6</ele>
        <time>2019-05-31T12:04:23Z</time>
      </trkpt>
      <trkpt lat="44.08223" lon="3.18964">
        <ele>796.7</ele>
        <time>2019-05-31T12:04:24Z</time>
      </trkpt>
      <trkpt lat="44.08218" lon="3.18964">
        <ele>796.9</ele>
        <time>2019-05-31T12:04:26Z</time>
      </trkpt>
      <trkpt lat="44.08213" lon="3.18964">
        <ele>797.1</ele>
        <time>2019-05-31T12:04:28Z</time>
      </trkpt>
      <trkpt lat="44.08207" lon="3.18965">
        <ele>797.6</ele>
        <time>2019-05-31T12:04:30Z</time>
      </trkpt>
      <trkpt lat="44.08203" lon="3.18965">
        <ele>797.7</ele>
        <time>2019-05-31T12:04:31Z</time>
      </trkpt>
      <trkpt lat="44.082" lon="3.18964">
        <ele>797.8</ele>
        <time>2019-05-31T12:04:32Z</time>
      </trkpt>
      <trkpt lat="44.08196" lon="3.18965">
        <ele>798</ele>
        <time>2019-05-31T12:04:34Z</time>
      </trkpt>
      <trkpt lat="44.08191" lon="3.18967">
        <ele>798.2</ele>
        <time>2019-05-31T12:04:36Z</time>
      </trkpt>
      <trkpt lat="44.08188" lon="3.18968">
        <ele>798.3</ele>
        <time>2019-05-31T12:04:37Z</time>
      </trkpt>
      <trkpt lat="44.08185" lon="3.18968">
        <ele>798.4</ele>
        <time>2019-05-31T12:04:38Z</time>
      </trkpt>
      <trkpt lat="44.08182" lon="3.18969">
        <ele>798.5</ele>
        <time>2019-05-31T12:04:39Z</time>
      </trkpt>
      <trkpt lat="44.08178" lon="3.1897">
        <ele>798.7</ele>
        <time>2019-05-31T12:04:41Z</time>
      </trkpt>
      <trkpt lat="44.08173" lon="3.18969">
        <ele>798.9</ele>
        <time>2019-05-31T12:04:43Z</time>
      </trkpt>
      <trkpt lat="44.0817" lon="3.18968">
        <ele>799</ele>
        <time>2019-05-31T12:04:45Z</time>
      </trkpt>
      <trkpt lat="44.08167" lon="3.18968">
        <ele>799.1</ele>
        <time>2019-05-31T12:04:47Z</time>
      </trkpt>
      <trkpt lat="44.08163" lon="3.18967">
        <ele>799.3</ele>
        <time>2019-05-31T12:04:49Z</time>
      </trkpt>
      <trkpt lat="44.08159" lon="3.18968">
        <ele>799.4</ele>
        <time>2019-05-31T12:04:51Z</time>
      </trkpt>
      <trkpt lat="44.08155" lon="3.18971">
        <ele>799.6</ele>
        <time>2019-05-31T12:04:53Z</time>
      </trkpt>
      <trkpt lat="44.0815" lon="3.18974">
        <ele>799.8</ele>
        <time>2019-05-31T12:04:55Z</time>
      </trkpt>
      <trkpt lat="44.08146" lon="3.18976">
        <ele>800</ele>
        <time>2019-05-31T12:04:57Z</time>
      </trkpt>
      <trkpt lat="44.08143" lon="3.18976">
        <ele>800.1</ele>
        <time>2019-05-31T12:04:58Z</time>
      </trkpt>
      <trkpt lat="44.08139" lon="3.18976">
        <ele>800.2</ele>
        <time>2019-05-31T12:04:59Z</time>
      </trkpt>
      <trkpt lat="44.08136" lon="3.18977">
        <ele>800.3</ele>
        <time>2019-05-31T12:05:00Z</time>
      </trkpt>
      <trkpt lat="44.0813" lon="3.18978">
        <ele>800.5</ele>
        <time>2019-05-31T12:05:02Z</time>
      </trkpt>
      <trkpt lat="44.08127" lon="3.18979">
        <ele>800.6</ele>
        <time>2019-05-31T12:05:03Z</time>
      </trkpt>
      <trkpt lat="44.08122" lon="3.18978">
        <ele>800.8</ele>
        <time>2019-05-31T12:05:05Z</time>
      </trkpt>
      <trkpt lat="44.08117" lon="3.18978">
        <ele>800.9</ele>
        <time>2019-05-31T12:05:07Z</time>
      </trkpt>
      <trkpt lat="44.08114" lon="3.18978">
        <ele>801</ele>
        <time>2019-05-31T12:05:08Z</time>
      </trkpt>
      <trkpt lat="44.0811" lon="3.18977">
        <ele>801.2</ele>
        <time>2019-05-31T12:05:09Z</time>
      </trkpt>
      <trkpt lat="44.08106" lon="3.18977">
        <ele>801.3</ele>
        <time>2019-05-31T12:05:10Z</time>
      </trkpt>
      <trkpt lat="44.08102" lon="3.18977">
        <ele>801.4</ele>
        <time>2019-05-31T12:05:11Z</time>
      </trkpt>
      <trkpt lat="44.08097" lon="3.18976">
        <ele>801.6</ele>
        <time>2019-05-31T12:05:12Z</time>
      </trkpt>
      <trkpt lat="44.08093" lon="3.18976">
        <ele>801.7</ele>
        <time>2019-05-31T12:05:13Z</time>
      </trkpt>
      <trkpt lat="44.0809" lon="3.18976">
        <ele>801.9</ele>
        <time>2019-05-31T12:05:14Z</time>
      </trkpt>
      <trkpt lat="44.08086" lon="3.18977">
        <ele>802.1</ele>
        <time>2019-05-31T12:05:15Z</time>
      </trkpt>
      <trkpt lat="44.08083" lon="3.18977">
        <ele>802.3</ele>
        <time>2019-05-31T12:05:16Z</time>
      </trkpt>
      <trkpt lat="44.08079" lon="3.18977">
        <ele>802.4</ele>
        <time>2019-05-31T12:05:17Z</time>
      </trkpt>
      <trkpt lat="44.08075" lon="3.18977">
        <ele>802.5</ele>
        <time>2019-05-31T12:05:18Z</time>
      </trkpt>
      <trkpt lat="44.08073" lon="3.18976">
        <ele>802.6</ele>
        <time>2019-05-31T12:05:19Z</time>
      </trkpt>
      <trkpt lat="44.08069" lon="3.18976">
        <ele>802.8</ele>
        <time>2019-05-31T12:05:21Z</time>
      </trkpt>
      <trkpt lat="44.08063" lon="3.18975">
        <ele>803</ele>
        <time>2019-05-31T12:05:23Z</time>
      </trkpt>
      <trkpt lat="44.0806" lon="3.18975">
        <ele>803.1</ele>
        <time>2019-05-31T12:05:24Z</time>
      </trkpt>
      <trkpt lat="44.08057" lon="3.18975">
        <ele>803.3</ele>
        <time>2019-05-31T12:05:25Z</time>
      </trkpt>
      <trkpt lat="44.08053" lon="3.18975">
        <ele>803.5</ele>
        <time>2019-05-31T12:05:26Z</time>
      </trkpt>
      <trkpt lat="44.08049" lon="3.18975">
        <ele>803.7</ele>
        <time>2019-05-31T12:05:27Z</time>
      </trkpt>
      <trkpt lat="44.08046" lon="3.18975">
        <ele>803.9</ele>
        <time>2019-05-31T12:05:28Z</time>
      </trkpt>
      <trkpt lat="44.08041" lon="3.18975">
        <ele>804.2</ele>
        <time>2019-05-31T12:05:30Z</time>
      </trkpt>
      <trkpt lat="44.08038" lon="3.18976">
        <ele>804.4</ele>
        <time>2019-05-31T12:05:31Z</time>
      </trkpt>
      <trkpt lat="44.08035" lon="3.18978">
        <ele>804.5</ele>
        <time>2019-05-31T12:05:32Z</time>
      </trkpt>
      <trkpt lat="44.08033" lon="3.18979">
        <ele>804.6</ele>
        <time>2019-05-31T12:05:33Z</time>
      </trkpt>
      <trkpt lat="44.08029" lon="3.1898">
        <ele>804.7</ele>
        <time>2019-05-31T12:05:34Z</time>
      </trkpt>
      <trkpt lat="44.08026" lon="3.18981">
        <ele>804.8</ele>
        <time>2019-05-31T12:05:35Z</time>
      </trkpt>
      <trkpt lat="44.08023" lon="3.18982">
        <ele>804.9</ele>
        <time>2019-05-31T12:05:36Z</time>
      </trkpt>
      <trkpt lat="44.0802" lon="3.18983">
        <ele>805</ele>
        <time>2019-05-31T12:05:37Z</time>
      </trkpt>
      <trkpt lat="44.08017" lon="3.18985">
        <ele>805.1</ele>
        <time>2019-05-31T12:05:38Z</time>
      </trkpt>
      <trkpt lat="44.08014" lon="3.18987">
        <ele>805.2</ele>
        <time>2019-05-31T12:05:39Z</time>
      </trkpt>
      <trkpt lat="44.08012" lon="3.18988">
        <ele>805.4</ele>
        <time>2019-05-31T12:05:40Z</time>
      </trkpt>
      <trkpt lat="44.08009" lon="3.18989">
        <ele>805.6</ele>
        <time>2019-05-31T12:05:41Z</time>
      </trkpt>
      <trkpt lat="44.08005" lon="3.1899">
        <ele>805.8</ele>
        <time>2019-05-31T12:05:42Z</time>
      </trkpt>
      <trkpt lat="44.08001" lon="3.18991">
        <ele>805.9</ele>
        <time>2019-05-31T12:05:43Z</time>
      </trkpt>
      <trkpt lat="44.07998" lon="3.18992">
        <ele>806.1</ele>
        <time>2019-05-31T12:05:44Z</time>
      </trkpt>
      <trkpt lat="44.07994" lon="3.18993">
        <ele>806.2</ele>
        <time>2019-05-31T12:05:45Z</time>
      </trkpt>
      <trkpt lat="44.07991" lon="3.18994">
        <ele>806.4</ele>
        <time>2019-05-31T12:05:46Z</time>
      </trkpt>
      <trkpt lat="44.07988" lon="3.18994">
        <ele>806.5</ele>
        <time>2019-05-31T12:05:47Z</time>
      </trkpt>
      <trkpt lat="44.07985" lon="3.18994">
        <ele>806.7</ele>
        <time>2019-05-31T12:05:48Z</time>
      </trkpt>
      <trkpt lat="44.07982" lon="3.18995">
        <ele>806.8</ele>
        <time>2019-05-31T12:05:49Z</time>
      </trkpt>
      <trkpt lat="44.07979" lon="3.18996">
        <ele>807</ele>
        <time>2019-05-31T12:05:50Z</time>
      </trkpt>
      <trkpt lat="44.07976" lon="3.18998">
        <ele>807.2</ele>
        <time>2019-05-31T12:05:51Z</time>
      </trkpt>
      <trkpt lat="44.07973" lon="3.18999">
        <ele>807.3</ele>
        <time>2019-05-31T12:05:52Z</time>
      </trkpt>
      <trkpt lat="44.07971" lon="3.19001">
        <ele>807.4</ele>
        <time>2019-05-31T12:05:53Z</time>
      </trkpt>
      <trkpt lat="44.07968" lon="3.19003">
        <ele>807.6</ele>
        <time>2019-05-31T12:05:54Z</time>
      </trkpt>
      <trkpt lat="44.07965" lon="3.19005">
        <ele>807.7</ele>
        <time>2019-05-31T12:05:55Z</time>
      </trkpt>
      <trkpt lat="44.07962" lon="3.19006">
        <ele>807.8</ele>
        <time>2019-05-31T12:05:56Z</time>
      </trkpt>
      <trkpt lat="44.07957" lon="3.19009">
        <ele>808</ele>
        <time>2019-05-31T12:05:58Z</time>
      </trkpt>
      <trkpt lat="44.07954" lon="3.1901">
        <ele>808.1</ele>
        <time>2019-05-31T12:05:59Z</time>
      </trkpt>
      <trkpt lat="44.07951" lon="3.19012">
        <ele>808.2</ele>
        <time>2019-05-31T12:06:00Z</time>
      </trkpt>
      <trkpt lat="44.07948" lon="3.19014">
        <ele>808.4</ele>
        <time>2019-05-31T12:06:01Z</time>
      </trkpt>
      <trkpt lat="44.07945" lon="3.19015">
        <ele>808.5</ele>
        <time>2019-05-31T12:06:02Z</time>
      </trkpt>
      <trkpt lat="44.07942" lon="3.19016">
        <ele>808.6</ele>
        <time>2019-05-31T12:06:03Z</time>
      </trkpt>
      <trkpt lat="44.07939" lon="3.19017">
        <ele>808.8</ele>
        <time>2019-05-31T12:06:04Z</time>
      </trkpt>
      <trkpt lat="44.07937" lon="3.19019">
        <ele>808.9</ele>
        <time>2019-05-31T12:06:05Z</time>
      </trkpt>
      <trkpt lat="44.07933" lon="3.19021">
        <ele>809.1</ele>
        <time>2019-05-31T12:06:07Z</time>
      </trkpt>
      <trkpt lat="44.0793" lon="3.19022">
        <ele>809.3</ele>
        <time>2019-05-31T12:06:09Z</time>
      </trkpt>
      <trkpt lat="44.07926" lon="3.19025">
        <ele>809.5</ele>
        <time>2019-05-31T12:06:11Z</time>
      </trkpt>
      <trkpt lat="44.07923" lon="3.19027">
        <ele>809.8</ele>
        <time>2019-05-31T12:06:13Z</time>
      </trkpt>
      <trkpt lat="44.0792" lon="3.19029">
        <ele>809.9</ele>
        <time>2019-05-31T12:06:15Z</time>
      </trkpt>
      <trkpt lat="44.07917" lon="3.19031">
        <ele>810.1</ele>
        <time>2019-05-31T12:06:18Z</time>
      </trkpt>
      <trkpt lat="44.07914" lon="3.19033">
        <ele>810.3</ele>
        <time>2019-05-31T12:06:20Z</time>
      </trkpt>
      <trkpt lat="44.0791" lon="3.19034">
        <ele>810.6</ele>
        <time>2019-05-31T12:06:22Z</time>
      </trkpt>
      <trkpt lat="44.07907" lon="3.19035">
        <ele>810.7</ele>
        <time>2019-05-31T12:06:24Z</time>
      </trkpt>
      <trkpt lat="44.07903" lon="3.19035">
        <ele>811</ele>
        <time>2019-05-31T12:06:26Z</time>
      </trkpt>
      <trkpt lat="44.079" lon="3.19034">
        <ele>811.1</ele>
        <time>2019-05-31T12:06:27Z</time>
      </trkpt>
      <trkpt lat="44.07897" lon="3.19034">
        <ele>811.3</ele>
        <time>2019-05-31T12:06:28Z</time>
      </trkpt>
      <trkpt lat="44.07893" lon="3.19032">
        <ele>811.7</ele>
        <time>2019-05-31T12:06:30Z</time>
      </trkpt>
      <trkpt lat="44.07889" lon="3.1903">
        <ele>811.9</ele>
        <time>2019-05-31T12:06:32Z</time>
      </trkpt>
      <trkpt lat="44.07886" lon="3.19028">
        <ele>812.1</ele>
        <time>2019-05-31T12:06:34Z</time>
      </trkpt>
      <trkpt lat="44.07883" lon="3.19026">
        <ele>812.3</ele>
        <time>2019-05-31T12:06:36Z</time>
      </trkpt>
      <trkpt lat="44.07877" lon="3.19024">
        <ele>812.5</ele>
        <time>2019-05-31T12:06:38Z</time>
      </trkpt>
      <trkpt lat="44.07873" lon="3.19022">
        <ele>812.7</ele>
        <time>2019-05-31T12:06:40Z</time>
      </trkpt>
      <trkpt lat="44.0787" lon="3.19021">
        <ele>812.8</ele>
        <time>2019-05-31T12:06:41Z</time>
      </trkpt>
      <trkpt lat="44.07867" lon="3.1902">
        <ele>812.9</ele>
        <time>2019-05-31T12:06:43Z</time>
      </trkpt>
      <trkpt lat="44.07863" lon="3.1902">
        <ele>813</ele>
        <time>2019-05-31T12:06:45Z</time>
      </trkpt>
      <trkpt lat="44.0786" lon="3.19019">
        <ele>813.2</ele>
        <time>2019-05-31T12:06:46Z</time>
      </trkpt>
      <trkpt lat="44.07857" lon="3.19018">
        <ele>813.3</ele>
        <time>2019-05-31T12:06:47Z</time>
      </trkpt>
      <trkpt lat="44.07854" lon="3.19017">
        <ele>813.5</ele>
        <time>2019-05-31T12:06:48Z</time>
      </trkpt>
      <trkpt lat="44.07851" lon="3.19017">
        <ele>813.7</ele>
        <time>2019-05-31T12:06:49Z</time>
      </trkpt>
      <trkpt lat="44.07847" lon="3.19018">
        <ele>814</ele>
        <time>2019-05-31T12:06:51Z</time>
      </trkpt>
      <trkpt lat="44.07842" lon="3.19018">
        <ele>814.2</ele>
        <time>2019-05-31T12:06:53Z</time>
      </trkpt>
      <trkpt lat="44.07837" lon="3.19018">
        <ele>814.5</ele>
        <time>2019-05-31T12:06:55Z</time>
      </trkpt>
      <trkpt lat="44.07833" lon="3.19018">
        <ele>814.7</ele>
        <time>2019-05-31T12:06:57Z</time>
      </trkpt>
      <trkpt lat="44.07828" lon="3.19019">
        <ele>815</ele>
        <time>2019-05-31T12:06:59Z</time>
      </trkpt>
      <trkpt lat="44.07824" lon="3.19019">
        <ele>815.2</ele>
        <time>2019-05-31T12:07:00Z</time>
      </trkpt>
      <trkpt lat="44.07821" lon="3.19019">
        <ele>815.3</ele>
        <time>2019-05-31T12:07:01Z</time>
      </trkpt>
      <trkpt lat="44.07817" lon="3.1902">
        <ele>815.5</ele>
        <time>2019-05-31T12:07:02Z</time>
      </trkpt>
      <trkpt lat="44.07813" lon="3.1902">
        <ele>815.6</ele>
        <time>2019-05-31T12:07:03Z</time>
      </trkpt>
      <trkpt lat="44.0781" lon="3.1902">
        <ele>815.7</ele>
        <time>2019-05-31T12:07:04Z</time>
      </trkpt>
      <trkpt lat="44.07806" lon="3.1902">
        <ele>815.8</ele>
        <time>2019-05-31T12:07:05Z</time>
      </trkpt>
      <trkpt lat="44.07802" lon="3.19021">
        <ele>815.8</ele>
        <time>2019-05-31T12:07:06Z</time>
      </trkpt>
      <trkpt lat="44.07798" lon="3.1902">
        <ele>815.9</ele>
        <time>2019-05-31T12:07:07Z</time>
      </trkpt>
      <trkpt lat="44.07793" lon="3.19019">
        <ele>815.9</ele>
        <time>2019-05-31T12:07:08Z</time>
      </trkpt>
      <trkpt lat="44.07789" lon="3.19018">
        <ele>816</ele>
        <time>2019-05-31T12:07:09Z</time>
      </trkpt>
      <trkpt lat="44.07786" lon="3.19017">
        <ele>816</ele>
        <time>2019-05-31T12:07:10Z</time>
      </trkpt>
      <trkpt lat="44.07783" lon="3.19015">
        <ele>816</ele>
        <time>2019-05-31T12:07:11Z</time>
      </trkpt>
      <trkpt lat="44.07781" lon="3.19012">
        <ele>816</ele>
        <time>2019-05-31T12:07:12Z</time>
      </trkpt>
      <trkpt lat="44.0778" lon="3.19009">
        <ele>816</ele>
        <time>2019-05-31T12:07:13Z</time>
      </trkpt>
      <trkpt lat="44.07778" lon="3.19004">
        <ele>816</ele>
        <time>2019-05-31T12:07:14Z</time>
      </trkpt>
      <trkpt lat="44.07777" lon="3.18996">
        <ele>816</ele>
        <time>2019-05-31T12:07:15Z</time>
      </trkpt>
      <trkpt lat="44.07775" lon="3.18988">
        <ele>816</ele>
        <time>2019-05-31T12:07:16Z</time>
      </trkpt>
      <trkpt lat="44.07771" lon="3.18981">
        <ele>815.9</ele>
        <time>2019-05-31T12:07:17Z</time>
      </trkpt>
      <trkpt lat="44.07767" lon="3.18974">
        <ele>815.8</ele>
        <time>2019-05-31T12:07:18Z</time>
      </trkpt>
      <trkpt lat="44.07761" lon="3.18968">
        <ele>815.6</ele>
        <time>2019-05-31T12:07:19Z</time>
      </trkpt>
      <trkpt lat="44.07754" lon="3.18964">
        <ele>815.5</ele>
        <time>2019-05-31T12:07:20Z</time>
      </trkpt>
      <trkpt lat="44.07747" lon="3.18961">
        <ele>815.2</ele>
        <time>2019-05-31T12:07:21Z</time>
      </trkpt>
      <trkpt lat="44.07741" lon="3.18959">
        <ele>815</ele>
        <time>2019-05-31T12:07:22Z</time>
      </trkpt>
      <trkpt lat="44.07735" lon="3.18957">
        <ele>814.7</ele>
        <time>2019-05-31T12:07:23Z</time>
      </trkpt>
      <trkpt lat="44.07724" lon="3.18959">
        <ele>814.1</ele>
        <time>2019-05-31T12:07:24Z</time>
      </trkpt>
      <trkpt lat="44.07714" lon="3.18961">
        <ele>813.5</ele>
        <time>2019-05-31T12:07:25Z</time>
      </trkpt>
      <trkpt lat="44.07703" lon="3.18962">
        <ele>812.8</ele>
        <time>2019-05-31T12:07:26Z</time>
      </trkpt>
      <trkpt lat="44.07697" lon="3.18961">
        <ele>812.1</ele>
        <time>2019-05-31T12:07:27Z</time>
      </trkpt>
      <trkpt lat="44.07687" lon="3.1896">
        <ele>811.2</ele>
        <time>2019-05-31T12:07:28Z</time>
      </trkpt>
      <trkpt lat="44.07677" lon="3.18963">
        <ele>810</ele>
        <time>2019-05-31T12:07:29Z</time>
      </trkpt>
      <trkpt lat="44.07667" lon="3.18966">
        <ele>808.9</ele>
        <time>2019-05-31T12:07:30Z</time>
      </trkpt>
      <trkpt lat="44.07655" lon="3.18974">
        <ele>807.7</ele>
        <time>2019-05-31T12:07:31Z</time>
      </trkpt>
      <trkpt lat="44.07647" lon="3.1898">
        <ele>807</ele>
        <time>2019-05-31T12:07:32Z</time>
      </trkpt>
      <trkpt lat="44.07638" lon="3.18985">
        <ele>806.3</ele>
        <time>2019-05-31T12:07:33Z</time>
      </trkpt>
      <trkpt lat="44.07633" lon="3.18989">
        <ele>805.9</ele>
        <time>2019-05-31T12:07:34Z</time>
      </trkpt>
      <trkpt lat="44.0763" lon="3.18995">
        <ele>805.5</ele>
        <time>2019-05-31T12:07:35Z</time>
      </trkpt>
      <trkpt lat="44.07626" lon="3.18998">
        <ele>805.2</ele>
        <time>2019-05-31T12:07:36Z</time>
      </trkpt>
      <trkpt lat="44.0762" lon="3.19">
        <ele>804.7</ele>
        <time>2019-05-31T12:07:39Z</time>
      </trkpt>
      <trkpt lat="44.07617" lon="3.19002">
        <ele>804.5</ele>
        <time>2019-05-31T12:08:58Z</time>
      </trkpt>
      <trkpt lat="44.07614" lon="3.19004">
        <ele>804.3</ele>
        <time>2019-05-31T12:08:59Z</time>
      </trkpt>
      <trkpt lat="44.0761" lon="3.19004">
        <ele>804</ele>
        <time>2019-05-31T12:09:00Z</time>
      </trkpt>
      <trkpt lat="44.07606" lon="3.19005">
        <ele>803.7</ele>
        <time>2019-05-31T12:09:01Z</time>
      </trkpt>
      <trkpt lat="44.07601" lon="3.19007">
        <ele>803.4</ele>
        <time>2019-05-31T12:09:02Z</time>
      </trkpt>
      <trkpt lat="44.07595" lon="3.19008">
        <ele>802.9</ele>
        <time>2019-05-31T12:09:03Z</time>
      </trkpt>
      <trkpt lat="44.0759" lon="3.19011">
        <ele>802.6</ele>
        <time>2019-05-31T12:09:04Z</time>
      </trkpt>
      <trkpt lat="44.07584" lon="3.19012">
        <ele>802.1</ele>
        <time>2019-05-31T12:09:05Z</time>
      </trkpt>
      <trkpt lat="44.07579" lon="3.19012">
        <ele>801.8</ele>
        <time>2019-05-31T12:09:06Z</time>
      </trkpt>
      <trkpt lat="44.07573" lon="3.19012">
        <ele>801.4</ele>
        <time>2019-05-31T12:09:07Z</time>
      </trkpt>
      <trkpt lat="44.07568" lon="3.19011">
        <ele>801.1</ele>
        <time>2019-05-31T12:09:08Z</time>
      </trkpt>
      <trkpt lat="44.07561" lon="3.19009">
        <ele>800.7</ele>
        <time>2019-05-31T12:09:09Z</time>
      </trkpt>
      <trkpt lat="44.07557" lon="3.19008">
        <ele>800.5</ele>
        <time>2019-05-31T12:09:10Z</time>
      </trkpt>
      <trkpt lat="44.07554" lon="3.19006">
        <ele>800.4</ele>
        <time>2019-05-31T12:09:11Z</time>
      </trkpt>
      <trkpt lat="44.07549" lon="3.19005">
        <ele>800.2</ele>
        <time>2019-05-31T12:09:12Z</time>
      </trkpt>
      <trkpt lat="44.07546" lon="3.19004">
        <ele>800.1</ele>
        <time>2019-05-31T12:09:13Z</time>
      </trkpt>
      <trkpt lat="44.07542" lon="3.19004">
        <ele>800</ele>
        <time>2019-05-31T12:09:14Z</time>
      </trkpt>
      <trkpt lat="44.07538" lon="3.19002">
        <ele>799.8</ele>
        <time>2019-05-31T12:09:15Z</time>
      </trkpt>
      <trkpt lat="44.07533" lon="3.19002">
        <ele>799.7</ele>
        <time>2019-05-31T12:09:16Z</time>
      </trkpt>
      <trkpt lat="44.07528" lon="3.18999">
        <ele>799.6</ele>
        <time>2019-05-31T12:09:17Z</time>
      </trkpt>
      <trkpt lat="44.07525" lon="3.18997">
        <ele>799.5</ele>
        <time>2019-05-31T12:09:18Z</time>
      </trkpt>
      <trkpt lat="44.07523" lon="3.18993">
        <ele>799.5</ele>
        <time>2019-05-31T12:09:19Z</time>
      </trkpt>
      <trkpt lat="44.07521" lon="3.18988">
        <ele>799.4</ele>
        <time>2019-05-31T12:09:20Z</time>
      </trkpt>
      <trkpt lat="44.07521" lon="3.18984">
        <ele>799.4</ele>
        <time>2019-05-31T12:09:21Z</time>
      </trkpt>
      <trkpt lat="44.07521" lon="3.1898">
        <ele>799.5</ele>
        <time>2019-05-31T12:09:22Z</time>
      </trkpt>
      <trkpt lat="44.07522" lon="3.18976">
        <ele>799.5</ele>
        <time>2019-05-31T12:09:23Z</time>
      </trkpt>
      <trkpt lat="44.07522" lon="3.18971">
        <ele>799.8</ele>
        <time>2019-05-31T12:09:24Z</time>
      </trkpt>
      <trkpt lat="44.07524" lon="3.18966">
        <ele>799.9</ele>
        <time>2019-05-31T12:09:25Z</time>
      </trkpt>
      <trkpt lat="44.07525" lon="3.18961">
        <ele>799.9</ele>
        <time>2019-05-31T12:09:26Z</time>
      </trkpt>
      <trkpt lat="44.07527" lon="3.18956">
        <ele>800.3</ele>
        <time>2019-05-31T12:09:27Z</time>
      </trkpt>
      <trkpt lat="44.07529" lon="3.18951">
        <ele>800.7</ele>
        <time>2019-05-31T12:09:28Z</time>
      </trkpt>
      <trkpt lat="44.07532" lon="3.18946">
        <ele>800.9</ele>
        <time>2019-05-31T12:09:29Z</time>
      </trkpt>
      <trkpt lat="44.07534" lon="3.1894">
        <ele>801.3</ele>
        <time>2019-05-31T12:09:30Z</time>
      </trkpt>
      <trkpt lat="44.07536" lon="3.18935">
        <ele>801.7</ele>
        <time>2019-05-31T12:09:31Z</time>
      </trkpt>
      <trkpt lat="44.07538" lon="3.1893">
        <ele>802.1</ele>
        <time>2019-05-31T12:09:32Z</time>
      </trkpt>
      <trkpt lat="44.07541" lon="3.18925">
        <ele>802.6</ele>
        <time>2019-05-31T12:09:33Z</time>
      </trkpt>
      <trkpt lat="44.07543" lon="3.1892">
        <ele>802.7</ele>
        <time>2019-05-31T12:09:34Z</time>
      </trkpt>
      <trkpt lat="44.07546" lon="3.18916">
        <ele>803</ele>
        <time>2019-05-31T12:09:35Z</time>
      </trkpt>
      <trkpt lat="44.07548" lon="3.18911">
        <ele>803.4</ele>
        <time>2019-05-31T12:09:36Z</time>
      </trkpt>
      <trkpt lat="44.07551" lon="3.18907">
        <ele>803.9</ele>
        <time>2019-05-31T12:09:37Z</time>
      </trkpt>
      <trkpt lat="44.07553" lon="3.18903">
        <ele>804</ele>
        <time>2019-05-31T12:09:38Z</time>
      </trkpt>
      <trkpt lat="44.07555" lon="3.18899">
        <ele>804.6</ele>
        <time>2019-05-31T12:09:39Z</time>
      </trkpt>
      <trkpt lat="44.07557" lon="3.18895">
        <ele>805.1</ele>
        <time>2019-05-31T12:09:40Z</time>
      </trkpt>
      <trkpt lat="44.07558" lon="3.1889">
        <ele>805.3</ele>
        <time>2019-05-31T12:09:41Z</time>
      </trkpt>
      <trkpt lat="44.07559" lon="3.18886">
        <ele>805.4</ele>
        <time>2019-05-31T12:09:42Z</time>
      </trkpt>
      <trkpt lat="44.07558" lon="3.18882">
        <ele>805.5</ele>
        <time>2019-05-31T12:09:43Z</time>
      </trkpt>
      <trkpt lat="44.07557" lon="3.18877">
        <ele>805.6</ele>
        <time>2019-05-31T12:09:44Z</time>
      </trkpt>
      <trkpt lat="44.07555" lon="3.18873">
        <ele>805.3</ele>
        <time>2019-05-31T12:09:45Z</time>
      </trkpt>
      <trkpt lat="44.07552" lon="3.1887">
        <ele>804.9</ele>
        <time>2019-05-31T12:09:46Z</time>
      </trkpt>
      <trkpt lat="44.07549" lon="3.18868">
        <ele>804.4</ele>
        <time>2019-05-31T12:09:47Z</time>
      </trkpt>
      <trkpt lat="44.07547" lon="3.18865">
        <ele>804</ele>
        <time>2019-05-31T12:09:48Z</time>
      </trkpt>
      <trkpt lat="44.07544" lon="3.18862">
        <ele>803.6</ele>
        <time>2019-05-31T12:09:50Z</time>
      </trkpt>
      <trkpt lat="44.0754" lon="3.18858">
        <ele>803.1</ele>
        <time>2019-05-31T12:09:52Z</time>
      </trkpt>
      <trkpt lat="44.07537" lon="3.18854">
        <ele>802.7</ele>
        <time>2019-05-31T12:09:54Z</time>
      </trkpt>
      <trkpt lat="44.07535" lon="3.18851">
        <ele>802.2</ele>
        <time>2019-05-31T12:09:56Z</time>
      </trkpt>
      <trkpt lat="44.07532" lon="3.18849">
        <ele>802.2</ele>
        <time>2019-05-31T12:09:58Z</time>
      </trkpt>
      <trkpt lat="44.07529" lon="3.18845">
        <ele>801.7</ele>
        <time>2019-05-31T12:10:02Z</time>
      </trkpt>
      <trkpt lat="44.07526" lon="3.18842">
        <ele>801.2</ele>
        <time>2019-05-31T12:10:05Z</time>
      </trkpt>
      <trkpt lat="44.07523" lon="3.18841">
        <ele>800.7</ele>
        <time>2019-05-31T12:10:08Z</time>
      </trkpt>
      <trkpt lat="44.07521" lon="3.1884">
        <ele>800.2</ele>
        <time>2019-05-31T12:10:14Z</time>
      </trkpt>
      <trkpt lat="44.07521" lon="3.18844">
        <ele>800.3</ele>
        <time>2019-05-31T12:10:28Z</time>
      </trkpt>
      <trkpt lat="44.07524" lon="3.18848">
        <ele>800.8</ele>
        <time>2019-05-31T12:10:31Z</time>
      </trkpt>
      <trkpt lat="44.07526" lon="3.18851">
        <ele>801.4</ele>
        <time>2019-05-31T12:10:33Z</time>
      </trkpt>
      <trkpt lat="44.07528" lon="3.18853">
        <ele>801.4</ele>
        <time>2019-05-31T12:10:35Z</time>
      </trkpt>
      <trkpt lat="44.07532" lon="3.18854">
        <ele>802</ele>
        <time>2019-05-31T12:10:38Z</time>
      </trkpt>
      <trkpt lat="44.07535" lon="3.18856">
        <ele>803</ele>
        <time>2019-05-31T12:10:41Z</time>
      </trkpt>
      <trkpt lat="44.07538" lon="3.18855">
        <ele>803</ele>
        <time>2019-05-31T12:10:43Z</time>
      </trkpt>
      <trkpt lat="44.0754" lon="3.18853">
        <ele>803.4</ele>
        <time>2019-05-31T12:10:45Z</time>
      </trkpt>
      <trkpt lat="44.07541" lon="3.18849">
        <ele>803.8</ele>
        <time>2019-05-31T12:10:48Z</time>
      </trkpt>
      <trkpt lat="44.07544" lon="3.18846">
        <ele>803.8</ele>
        <time>2019-05-31T12:10:57Z</time>
      </trkpt>
      <trkpt lat="44.07547" lon="3.18845">
        <ele>804.3</ele>
        <time>2019-05-31T12:11:42Z</time>
      </trkpt>
      <trkpt lat="44.0755" lon="3.18847">
        <ele>804.7</ele>
        <time>2019-05-31T12:11:47Z</time>
      </trkpt>
      <trkpt lat="44.07549" lon="3.18842">
        <ele>804.6</ele>
        <time>2019-05-31T12:12:55Z</time>
      </trkpt>
      <trkpt lat="44.07547" lon="3.18843">
        <ele>804.2</ele>
        <time>2019-05-31T12:13:02Z</time>
      </trkpt>
      <trkpt lat="44.07545" lon="3.18845">
        <ele>804.3</ele>
        <time>2019-05-31T12:13:05Z</time>
      </trkpt>
      <trkpt lat="44.07541" lon="3.18849">
        <ele>804</ele>
        <time>2019-05-31T12:13:07Z</time>
      </trkpt>
      <trkpt lat="44.07538" lon="3.1885">
        <ele>803.6</ele>
        <time>2019-05-31T12:13:09Z</time>
      </trkpt>
      <trkpt lat="44.07533" lon="3.18849">
        <ele>802.7</ele>
        <time>2019-05-31T12:13:11Z</time>
      </trkpt>
      <trkpt lat="44.07531" lon="3.18847">
        <ele>802.2</ele>
        <time>2019-05-31T12:13:13Z</time>
      </trkpt>
      <trkpt lat="44.07528" lon="3.18846">
        <ele>801.7</ele>
        <time>2019-05-31T12:13:16Z</time>
      </trkpt>
      <trkpt lat="44.07527" lon="3.18849">
        <ele>801.8</ele>
        <time>2019-05-31T12:13:25Z</time>
      </trkpt>
      <trkpt lat="44.07524" lon="3.18847">
        <ele>801.3</ele>
        <time>2019-05-31T12:13:42Z</time>
      </trkpt>
      <trkpt lat="44.07522" lon="3.18844">
        <ele>801.3</ele>
        <time>2019-05-31T12:13:44Z</time>
      </trkpt>
      <trkpt lat="44.07521" lon="3.18841">
        <ele>800.8</ele>
        <time>2019-05-31T12:13:46Z</time>
      </trkpt>
      <trkpt lat="44.07518" lon="3.18835">
        <ele>800.2</ele>
        <time>2019-05-31T12:13:48Z</time>
      </trkpt>
      <trkpt lat="44.07515" lon="3.1883">
        <ele>799.7</ele>
        <time>2019-05-31T12:13:50Z</time>
      </trkpt>
      <trkpt lat="44.07513" lon="3.18826">
        <ele>799.2</ele>
        <time>2019-05-31T12:13:51Z</time>
      </trkpt>
      <trkpt lat="44.07511" lon="3.18822">
        <ele>799</ele>
        <time>2019-05-31T12:13:52Z</time>
      </trkpt>
      <trkpt lat="44.07509" lon="3.18817">
        <ele>798.4</ele>
        <time>2019-05-31T12:13:54Z</time>
      </trkpt>
      <trkpt lat="44.07509" lon="3.18812">
        <ele>798.2</ele>
        <time>2019-05-31T12:13:56Z</time>
      </trkpt>
      <trkpt lat="44.07511" lon="3.18807">
        <ele>798.4</ele>
        <time>2019-05-31T12:13:58Z</time>
      </trkpt>
      <trkpt lat="44.07515" lon="3.18801">
        <ele>798.5</ele>
        <time>2019-05-31T12:14:00Z</time>
      </trkpt>
      <trkpt lat="44.07518" lon="3.18798">
        <ele>798.6</ele>
        <time>2019-05-31T12:14:02Z</time>
      </trkpt>
      <trkpt lat="44.07522" lon="3.18794">
        <ele>798.7</ele>
        <time>2019-05-31T12:14:04Z</time>
      </trkpt>
      <trkpt lat="44.07524" lon="3.18791">
        <ele>798.9</ele>
        <time>2019-05-31T12:14:05Z</time>
      </trkpt>
      <trkpt lat="44.07526" lon="3.18787">
        <ele>799</ele>
        <time>2019-05-31T12:14:06Z</time>
      </trkpt>
      <trkpt lat="44.07528" lon="3.18783">
        <ele>798.7</ele>
        <time>2019-05-31T12:14:07Z</time>
      </trkpt>
      <trkpt lat="44.07531" lon="3.18778">
        <ele>798.8</ele>
        <time>2019-05-31T12:14:08Z</time>
      </trkpt>
      <trkpt lat="44.07532" lon="3.18767">
        <ele>798.6</ele>
        <time>2019-05-31T12:14:09Z</time>
      </trkpt>
      <trkpt lat="44.07534" lon="3.18761">
        <ele>797.8</ele>
        <time>2019-05-31T12:14:10Z</time>
      </trkpt>
      <trkpt lat="44.07538" lon="3.18755">
        <ele>798.3</ele>
        <time>2019-05-31T12:14:11Z</time>
      </trkpt>
      <trkpt lat="44.07539" lon="3.18745">
        <ele>797</ele>
        <time>2019-05-31T12:14:12Z</time>
      </trkpt>
      <trkpt lat="44.07536" lon="3.18734">
        <ele>795.8</ele>
        <time>2019-05-31T12:14:13Z</time>
      </trkpt>
      <trkpt lat="44.07534" lon="3.18725">
        <ele>794.6</ele>
        <time>2019-05-31T12:14:14Z</time>
      </trkpt>
      <trkpt lat="44.07532" lon="3.18715">
        <ele>793.6</ele>
        <time>2019-05-31T12:14:15Z</time>
      </trkpt>
      <trkpt lat="44.07529" lon="3.18707">
        <ele>792.4</ele>
        <time>2019-05-31T12:14:16Z</time>
      </trkpt>
      <trkpt lat="44.07524" lon="3.18699">
        <ele>790.9</ele>
        <time>2019-05-31T12:14:17Z</time>
      </trkpt>
      <trkpt lat="44.07521" lon="3.1869">
        <ele>789.7</ele>
        <time>2019-05-31T12:14:18Z</time>
      </trkpt>
      <trkpt lat="44.07517" lon="3.1868">
        <ele>788.1</ele>
        <time>2019-05-31T12:14:19Z</time>
      </trkpt>
      <trkpt lat="44.07513" lon="3.18672">
        <ele>787</ele>
        <time>2019-05-31T12:14:20Z</time>
      </trkpt>
      <trkpt lat="44.07512" lon="3.18664">
        <ele>786.5</ele>
        <time>2019-05-31T12:14:21Z</time>
      </trkpt>
      <trkpt lat="44.07513" lon="3.18658">
        <ele>785.8</ele>
        <time>2019-05-31T12:14:22Z</time>
      </trkpt>
      <trkpt lat="44.07512" lon="3.18651">
        <ele>785.5</ele>
        <time>2019-05-31T12:14:23Z</time>
      </trkpt>
      <trkpt lat="44.0751" lon="3.18645">
        <ele>784.8</ele>
        <time>2019-05-31T12:14:24Z</time>
      </trkpt>
      <trkpt lat="44.07509" lon="3.1864">
        <ele>784.5</ele>
        <time>2019-05-31T12:14:25Z</time>
      </trkpt>
      <trkpt lat="44.07512" lon="3.18633">
        <ele>784</ele>
        <time>2019-05-31T12:14:26Z</time>
      </trkpt>
      <trkpt lat="44.07514" lon="3.18627">
        <ele>783.7</ele>
        <time>2019-05-31T12:14:27Z</time>
      </trkpt>
      <trkpt lat="44.07515" lon="3.18623">
        <ele>783.5</ele>
        <time>2019-05-31T12:14:28Z</time>
      </trkpt>
      <trkpt lat="44.07518" lon="3.18617">
        <ele>783.2</ele>
        <time>2019-05-31T12:14:29Z</time>
      </trkpt>
      <trkpt lat="44.07521" lon="3.18612">
        <ele>782.7</ele>
        <time>2019-05-31T12:14:30Z</time>
      </trkpt>
      <trkpt lat="44.07525" lon="3.18607">
        <ele>782.3</ele>
        <time>2019-05-31T12:14:31Z</time>
      </trkpt>
      <trkpt lat="44.07527" lon="3.18602">
        <ele>781.9</ele>
        <time>2019-05-31T12:14:32Z</time>
      </trkpt>
      <trkpt lat="44.07529" lon="3.18595">
        <ele>781.5</ele>
        <time>2019-05-31T12:14:33Z</time>
      </trkpt>
      <trkpt lat="44.07531" lon="3.18589">
        <ele>781.1</ele>
        <time>2019-05-31T12:14:34Z</time>
      </trkpt>
      <trkpt lat="44.07534" lon="3.18582">
        <ele>780.5</ele>
        <time>2019-05-31T12:14:35Z</time>
      </trkpt>
      <trkpt lat="44.07536" lon="3.18576">
        <ele>780.1</ele>
        <time>2019-05-31T12:14:36Z</time>
      </trkpt>
      <trkpt lat="44.07538" lon="3.18567">
        <ele>779.6</ele>
        <time>2019-05-31T12:14:37Z</time>
      </trkpt>
      <trkpt lat="44.07539" lon="3.18557">
        <ele>779.1</ele>
        <time>2019-05-31T12:14:38Z</time>
      </trkpt>
      <trkpt lat="44.0754" lon="3.18549">
        <ele>778.9</ele>
        <time>2019-05-31T12:14:39Z</time>
      </trkpt>
      <trkpt lat="44.0754" lon="3.18542">
        <ele>778.7</ele>
        <time>2019-05-31T12:14:40Z</time>
      </trkpt>
      <trkpt lat="44.07542" lon="3.18535">
        <ele>778.5</ele>
        <time>2019-05-31T12:14:41Z</time>
      </trkpt>
      <trkpt lat="44.07544" lon="3.18527">
        <ele>778.4</ele>
        <time>2019-05-31T12:14:42Z</time>
      </trkpt>
      <trkpt lat="44.07546" lon="3.1852">
        <ele>778.5</ele>
        <time>2019-05-31T12:14:43Z</time>
      </trkpt>
      <trkpt lat="44.07546" lon="3.18512">
        <ele>778.5</ele>
        <time>2019-05-31T12:14:44Z</time>
      </trkpt>
      <trkpt lat="44.07547" lon="3.18504">
        <ele>778.5</ele>
        <time>2019-05-31T12:14:45Z</time>
      </trkpt>
      <trkpt lat="44.07551" lon="3.18502">
        <ele>778.3</ele>
        <time>2019-05-31T12:14:46Z</time>
      </trkpt>
      <trkpt lat="44.07555" lon="3.18497">
        <ele>778.2</ele>
        <time>2019-05-31T12:14:47Z</time>
      </trkpt>
      <trkpt lat="44.07559" lon="3.18492">
        <ele>777.9</ele>
        <time>2019-05-31T12:14:48Z</time>
      </trkpt>
      <trkpt lat="44.07563" lon="3.18487">
        <ele>777.7</ele>
        <time>2019-05-31T12:14:49Z</time>
      </trkpt>
      <trkpt lat="44.07566" lon="3.18481">
        <ele>777.7</ele>
        <time>2019-05-31T12:14:50Z</time>
      </trkpt>
      <trkpt lat="44.07571" lon="3.18476">
        <ele>777.7</ele>
        <time>2019-05-31T12:14:51Z</time>
      </trkpt>
      <trkpt lat="44.07575" lon="3.18468">
        <ele>777.6</ele>
        <time>2019-05-31T12:14:52Z</time>
      </trkpt>
      <trkpt lat="44.07578" lon="3.18459">
        <ele>777.5</ele>
        <time>2019-05-31T12:14:53Z</time>
      </trkpt>
      <trkpt lat="44.07582" lon="3.18455">
        <ele>777.4</ele>
        <time>2019-05-31T12:14:54Z</time>
      </trkpt>
      <trkpt lat="44.07587" lon="3.18449">
        <ele>777.2</ele>
        <time>2019-05-31T12:14:55Z</time>
      </trkpt>
      <trkpt lat="44.07593" lon="3.18444">
        <ele>776.9</ele>
        <time>2019-05-31T12:14:56Z</time>
      </trkpt>
      <trkpt lat="44.07599" lon="3.18441">
        <ele>776.7</ele>
        <time>2019-05-31T12:14:57Z</time>
      </trkpt>
      <trkpt lat="44.07604" lon="3.18439">
        <ele>776.9</ele>
        <time>2019-05-31T12:14:58Z</time>
      </trkpt>
      <trkpt lat="44.07608" lon="3.18439">
        <ele>777.1</ele>
        <time>2019-05-31T12:14:59Z</time>
      </trkpt>
      <trkpt lat="44.07611" lon="3.18441">
        <ele>777.3</ele>
        <time>2019-05-31T12:15:00Z</time>
      </trkpt>
      <trkpt lat="44.07617" lon="3.18444">
        <ele>777.5</ele>
        <time>2019-05-31T12:15:02Z</time>
      </trkpt>
      <trkpt lat="44.07621" lon="3.18443">
        <ele>777.7</ele>
        <time>2019-05-31T12:15:03Z</time>
      </trkpt>
      <trkpt lat="44.07626" lon="3.18443">
        <ele>777.9</ele>
        <time>2019-05-31T12:15:05Z</time>
      </trkpt>
      <trkpt lat="44.07629" lon="3.18442">
        <ele>778</ele>
        <time>2019-05-31T12:15:06Z</time>
      </trkpt>
      <trkpt lat="44.07634" lon="3.1844">
        <ele>778.3</ele>
        <time>2019-05-31T12:15:08Z</time>
      </trkpt>
      <trkpt lat="44.07638" lon="3.18439">
        <ele>778.6</ele>
        <time>2019-05-31T12:15:10Z</time>
      </trkpt>
      <trkpt lat="44.07642" lon="3.18439">
        <ele>779</ele>
        <time>2019-05-31T12:15:12Z</time>
      </trkpt>
      <trkpt lat="44.07645" lon="3.18439">
        <ele>779.2</ele>
        <time>2019-05-31T12:15:14Z</time>
      </trkpt>
      <trkpt lat="44.07648" lon="3.18439">
        <ele>779.5</ele>
        <time>2019-05-31T12:15:16Z</time>
      </trkpt>
      <trkpt lat="44.07652" lon="3.18438">
        <ele>779.8</ele>
        <time>2019-05-31T12:15:18Z</time>
      </trkpt>
      <trkpt lat="44.07655" lon="3.18437">
        <ele>780.1</ele>
        <time>2019-05-31T12:15:21Z</time>
      </trkpt>
      <trkpt lat="44.07655" lon="3.18441">
        <ele>780.4</ele>
        <time>2019-05-31T12:15:26Z</time>
      </trkpt>
      <trkpt lat="44.07653" lon="3.18442">
        <ele>779.8</ele>
        <time>2019-05-31T12:15:32Z</time>
      </trkpt>
      <trkpt lat="44.07655" lon="3.18444">
        <ele>780.6</ele>
        <time>2019-05-31T12:15:37Z</time>
      </trkpt>
      <trkpt lat="44.07658" lon="3.18444">
        <ele>780.7</ele>
        <time>2019-05-31T12:15:40Z</time>
      </trkpt>
      <trkpt lat="44.07661" lon="3.18446">
        <ele>780.8</ele>
        <time>2019-05-31T12:15:43Z</time>
      </trkpt>
      <trkpt lat="44.07669" lon="3.18447">
        <ele>781.1</ele>
        <time>2019-05-31T12:16:22Z</time>
      </trkpt>
      <trkpt lat="44.07672" lon="3.18447">
        <ele>781.3</ele>
        <time>2019-05-31T12:16:25Z</time>
      </trkpt>
      <trkpt lat="44.07675" lon="3.18444">
        <ele>781.4</ele>
        <time>2019-05-31T12:16:31Z</time>
      </trkpt>
      <trkpt lat="44.07677" lon="3.18442">
        <ele>781.5</ele>
        <time>2019-05-31T12:16:36Z</time>
      </trkpt>
      <trkpt lat="44.07676" lon="3.18438">
        <ele>781.7</ele>
        <time>2019-05-31T12:16:44Z</time>
      </trkpt>
      <trkpt lat="44.07678" lon="3.18434">
        <ele>781.8</ele>
        <time>2019-05-31T12:16:52Z</time>
      </trkpt>
      <trkpt lat="44.07678" lon="3.18438">
        <ele>781.9</ele>
        <time>2019-05-31T12:22:37Z</time>
      </trkpt>
      <trkpt lat="44.07676" lon="3.18441">
        <ele>782</ele>
        <time>2019-05-31T12:22:41Z</time>
      </trkpt>
      <trkpt lat="44.07673" lon="3.18443">
        <ele>782.2</ele>
        <time>2019-05-31T12:22:44Z</time>
      </trkpt>
      <trkpt lat="44.07671" lon="3.18445">
        <ele>782.3</ele>
        <time>2019-05-31T12:22:48Z</time>
      </trkpt>
      <trkpt lat="44.07668" lon="3.18447">
        <ele>782.4</ele>
        <time>2019-05-31T12:22:51Z</time>
      </trkpt>
      <trkpt lat="44.07669" lon="3.18451">
        <ele>782.5</ele>
        <time>2019-05-31T12:22:55Z</time>
      </trkpt>
      <trkpt lat="44.0767" lon="3.18455">
        <ele>782.6</ele>
        <time>2019-05-31T12:22:58Z</time>
      </trkpt>
      <trkpt lat="44.07673" lon="3.18457">
        <ele>782.8</ele>
        <time>2019-05-31T12:23:02Z</time>
      </trkpt>
      <trkpt lat="44.07676" lon="3.18458">
        <ele>782.9</ele>
        <time>2019-05-31T12:23:14Z</time>
      </trkpt>
      <trkpt lat="44.07678" lon="3.18458">
        <ele>783</ele>
        <time>2019-05-31T12:23:33Z</time>
      </trkpt>
      <trkpt lat="44.07675" lon="3.18455">
        <ele>783.2</ele>
        <time>2019-05-31T12:25:44Z</time>
      </trkpt>
      <trkpt lat="44.07673" lon="3.18452">
        <ele>783.3</ele>
        <time>2019-05-31T12:25:46Z</time>
      </trkpt>
      <trkpt lat="44.0767" lon="3.18451">
        <ele>782.8</ele>
        <time>2019-05-31T12:26:16Z</time>
      </trkpt>
      <trkpt lat="44.07666" lon="3.1845">
        <ele>782.3</ele>
        <time>2019-05-31T12:26:19Z</time>
      </trkpt>
      <trkpt lat="44.07664" lon="3.18447">
        <ele>781.9</ele>
        <time>2019-05-31T12:26:21Z</time>
      </trkpt>
      <trkpt lat="44.07661" lon="3.18444">
        <ele>781.5</ele>
        <time>2019-05-31T12:26:23Z</time>
      </trkpt>
      <trkpt lat="44.07659" lon="3.18441">
        <ele>781.1</ele>
        <time>2019-05-31T12:26:25Z</time>
      </trkpt>
      <trkpt lat="44.07659" lon="3.18436">
        <ele>780.7</ele>
        <time>2019-05-31T12:26:28Z</time>
      </trkpt>
      <trkpt lat="44.07661" lon="3.18433">
        <ele>780.3</ele>
        <time>2019-05-31T12:26:32Z</time>
      </trkpt>
      <trkpt lat="44.07664" lon="3.1843">
        <ele>780.3</ele>
        <time>2019-05-31T12:26:35Z</time>
      </trkpt>
      <trkpt lat="44.07667" lon="3.18426">
        <ele>780.3</ele>
        <time>2019-05-31T12:26:38Z</time>
      </trkpt>
      <trkpt lat="44.0767" lon="3.18422">
        <ele>780.4</ele>
        <time>2019-05-31T12:26:40Z</time>
      </trkpt>
      <trkpt lat="44.07672" lon="3.18415">
        <ele>780.3</ele>
        <time>2019-05-31T12:26:42Z</time>
      </trkpt>
      <trkpt lat="44.07673" lon="3.18411">
        <ele>780.2</ele>
        <time>2019-05-31T12:26:43Z</time>
      </trkpt>
      <trkpt lat="44.07674" lon="3.18407">
        <ele>780.2</ele>
        <time>2019-05-31T12:26:44Z</time>
      </trkpt>
      <trkpt lat="44.07674" lon="3.18403">
        <ele>780.1</ele>
        <time>2019-05-31T12:26:45Z</time>
      </trkpt>
      <trkpt lat="44.07675" lon="3.18399">
        <ele>780.1</ele>
        <time>2019-05-31T12:26:46Z</time>
      </trkpt>
      <trkpt lat="44.07676" lon="3.18395">
        <ele>780</ele>
        <time>2019-05-31T12:26:47Z</time>
      </trkpt>
      <trkpt lat="44.07677" lon="3.1839">
        <ele>780</ele>
        <time>2019-05-31T12:26:48Z</time>
      </trkpt>
      <trkpt lat="44.07678" lon="3.18386">
        <ele>779.9</ele>
        <time>2019-05-31T12:26:49Z</time>
      </trkpt>
      <trkpt lat="44.07679" lon="3.18381">
        <ele>779.8</ele>
        <time>2019-05-31T12:26:50Z</time>
      </trkpt>
      <trkpt lat="44.07679" lon="3.18376">
        <ele>779.7</ele>
        <time>2019-05-31T12:26:51Z</time>
      </trkpt>
      <trkpt lat="44.07679" lon="3.18371">
        <ele>779.6</ele>
        <time>2019-05-31T12:26:52Z</time>
      </trkpt>
      <trkpt lat="44.07679" lon="3.18367">
        <ele>779.5</ele>
        <time>2019-05-31T12:26:53Z</time>
      </trkpt>
      <trkpt lat="44.07677" lon="3.1836">
        <ele>779.4</ele>
        <time>2019-05-31T12:26:55Z</time>
      </trkpt>
      <trkpt lat="44.07679" lon="3.18363">
        <ele>779.4</ele>
        <time>2019-05-31T12:27:32Z</time>
      </trkpt>
      <trkpt lat="44.0768" lon="3.18367">
        <ele>779.3</ele>
        <time>2019-05-31T12:27:33Z</time>
      </trkpt>
      <trkpt lat="44.0768" lon="3.18372">
        <ele>779.2</ele>
        <time>2019-05-31T12:27:34Z</time>
      </trkpt>
      <trkpt lat="44.0768" lon="3.18378">
        <ele>779.1</ele>
        <time>2019-05-31T12:27:36Z</time>
      </trkpt>
      <trkpt lat="44.0768" lon="3.18384">
        <ele>779</ele>
        <time>2019-05-31T12:27:38Z</time>
      </trkpt>
      <trkpt lat="44.07678" lon="3.1838">
        <ele>778.9</ele>
        <time>2019-05-31T12:31:43Z</time>
      </trkpt>
      <trkpt lat="44.07679" lon="3.18375">
        <ele>778.8</ele>
        <time>2019-05-31T12:31:44Z</time>
      </trkpt>
      <trkpt lat="44.07679" lon="3.1837">
        <ele>778.7</ele>
        <time>2019-05-31T12:31:45Z</time>
      </trkpt>
      <trkpt lat="44.07681" lon="3.18365">
        <ele>778.6</ele>
        <time>2019-05-31T12:31:46Z</time>
      </trkpt>
      <trkpt lat="44.07682" lon="3.1836">
        <ele>778.5</ele>
        <time>2019-05-31T12:31:47Z</time>
      </trkpt>
      <trkpt lat="44.07683" lon="3.18356">
        <ele>778.3</ele>
        <time>2019-05-31T12:31:48Z</time>
      </trkpt>
      <trkpt lat="44.07685" lon="3.18351">
        <ele>778</ele>
        <time>2019-05-31T12:31:49Z</time>
      </trkpt>
      <trkpt lat="44.07687" lon="3.18346">
        <ele>777.8</ele>
        <time>2019-05-31T12:31:50Z</time>
      </trkpt>
      <trkpt lat="44.07689" lon="3.18341">
        <ele>777.5</ele>
        <time>2019-05-31T12:31:51Z</time>
      </trkpt>
      <trkpt lat="44.07692" lon="3.18337">
        <ele>777.3</ele>
        <time>2019-05-31T12:31:52Z</time>
      </trkpt>
      <trkpt lat="44.07693" lon="3.18332">
        <ele>777.1</ele>
        <time>2019-05-31T12:31:53Z</time>
      </trkpt>
      <trkpt lat="44.07694" lon="3.18328">
        <ele>776.9</ele>
        <time>2019-05-31T12:32:00Z</time>
      </trkpt>
      <trkpt lat="44.07696" lon="3.18325">
        <ele>776.8</ele>
        <time>2019-05-31T12:32:04Z</time>
      </trkpt>
      <trkpt lat="44.07696" lon="3.18321">
        <ele>776.7</ele>
        <time>2019-05-31T12:32:08Z</time>
      </trkpt>
      <trkpt lat="44.07697" lon="3.18316">
        <ele>776.5</ele>
        <time>2019-05-31T12:32:10Z</time>
      </trkpt>
      <trkpt lat="44.07699" lon="3.1831">
        <ele>776.4</ele>
        <time>2019-05-31T12:32:12Z</time>
      </trkpt>
      <trkpt lat="44.07701" lon="3.18307">
        <ele>776.3</ele>
        <time>2019-05-31T12:32:13Z</time>
      </trkpt>
      <trkpt lat="44.07702" lon="3.18303">
        <ele>776.2</ele>
        <time>2019-05-31T12:32:14Z</time>
      </trkpt>
      <trkpt lat="44.07703" lon="3.18296">
        <ele>776.1</ele>
        <time>2019-05-31T12:32:16Z</time>
      </trkpt>
      <trkpt lat="44.07704" lon="3.18292">
        <ele>776</ele>
        <time>2019-05-31T12:32:17Z</time>
      </trkpt>
      <trkpt lat="44.07705" lon="3.18287">
        <ele>775.9</ele>
        <time>2019-05-31T12:32:18Z</time>
      </trkpt>
      <trkpt lat="44.07706" lon="3.18283">
        <ele>775.8</ele>
        <time>2019-05-31T12:32:19Z</time>
      </trkpt>
      <trkpt lat="44.07707" lon="3.18278">
        <ele>775.7</ele>
        <time>2019-05-31T12:32:20Z</time>
      </trkpt>
      <trkpt lat="44.07708" lon="3.18274">
        <ele>775.7</ele>
        <time>2019-05-31T12:32:21Z</time>
      </trkpt>
      <trkpt lat="44.07709" lon="3.18269">
        <ele>775.6</ele>
        <time>2019-05-31T12:32:22Z</time>
      </trkpt>
      <trkpt lat="44.07709" lon="3.18265">
        <ele>775.6</ele>
        <time>2019-05-31T12:32:23Z</time>
      </trkpt>
      <trkpt lat="44.07708" lon="3.1826">
        <ele>775.5</ele>
        <time>2019-05-31T12:32:24Z</time>
      </trkpt>
      <trkpt lat="44.07706" lon="3.18256">
        <ele>775.5</ele>
        <time>2019-05-31T12:32:25Z</time>
      </trkpt>
      <trkpt lat="44.07704" lon="3.18252">
        <ele>775.4</ele>
        <time>2019-05-31T12:32:26Z</time>
      </trkpt>
      <trkpt lat="44.07702" lon="3.18248">
        <ele>775.4</ele>
        <time>2019-05-31T12:32:27Z</time>
      </trkpt>
      <trkpt lat="44.077" lon="3.18245">
        <ele>775.3</ele>
        <time>2019-05-31T12:32:28Z</time>
      </trkpt>
      <trkpt lat="44.07699" lon="3.18239">
        <ele>775.2</ele>
        <time>2019-05-31T12:32:30Z</time>
      </trkpt>
      <trkpt lat="44.077" lon="3.18234">
        <ele>775.2</ele>
        <time>2019-05-31T12:32:31Z</time>
      </trkpt>
      <trkpt lat="44.07701" lon="3.1823">
        <ele>775.1</ele>
        <time>2019-05-31T12:32:32Z</time>
      </trkpt>
      <trkpt lat="44.07701" lon="3.18225">
        <ele>775</ele>
        <time>2019-05-31T12:32:33Z</time>
      </trkpt>
      <trkpt lat="44.07701" lon="3.1822">
        <ele>775</ele>
        <time>2019-05-31T12:32:34Z</time>
      </trkpt>
      <trkpt lat="44.07701" lon="3.18214">
        <ele>774.9</ele>
        <time>2019-05-31T12:32:35Z</time>
      </trkpt>
      <trkpt lat="44.07701" lon="3.18209">
        <ele>774.9</ele>
        <time>2019-05-31T12:32:36Z</time>
      </trkpt>
      <trkpt lat="44.07701" lon="3.18202">
        <ele>774.8</ele>
        <time>2019-05-31T12:32:37Z</time>
      </trkpt>
      <trkpt lat="44.07701" lon="3.18196">
        <ele>774.7</ele>
        <time>2019-05-31T12:32:38Z</time>
      </trkpt>
      <trkpt lat="44.07704" lon="3.18189">
        <ele>774.6</ele>
        <time>2019-05-31T12:32:39Z</time>
      </trkpt>
      <trkpt lat="44.07706" lon="3.18183">
        <ele>774.6</ele>
        <time>2019-05-31T12:32:40Z</time>
      </trkpt>
      <trkpt lat="44.07709" lon="3.18178">
        <ele>774.5</ele>
        <time>2019-05-31T12:32:41Z</time>
      </trkpt>
      <trkpt lat="44.07711" lon="3.18173">
        <ele>774.4</ele>
        <time>2019-05-31T12:32:42Z</time>
      </trkpt>
      <trkpt lat="44.07713" lon="3.18169">
        <ele>774.3</ele>
        <time>2019-05-31T12:32:43Z</time>
      </trkpt>
      <trkpt lat="44.07715" lon="3.18166">
        <ele>774.3</ele>
        <time>2019-05-31T12:32:44Z</time>
      </trkpt>
      <trkpt lat="44.07718" lon="3.18161">
        <ele>774.1</ele>
        <time>2019-05-31T12:32:45Z</time>
      </trkpt>
      <trkpt lat="44.0772" lon="3.18156">
        <ele>774</ele>
        <time>2019-05-31T12:32:46Z</time>
      </trkpt>
      <trkpt lat="44.07722" lon="3.18151">
        <ele>773.9</ele>
        <time>2019-05-31T12:32:47Z</time>
      </trkpt>
      <trkpt lat="44.07726" lon="3.18147">
        <ele>773.7</ele>
        <time>2019-05-31T12:32:48Z</time>
      </trkpt>
      <trkpt lat="44.07728" lon="3.18143">
        <ele>773.6</ele>
        <time>2019-05-31T12:32:49Z</time>
      </trkpt>
      <trkpt lat="44.07731" lon="3.18139">
        <ele>773.5</ele>
        <time>2019-05-31T12:32:50Z</time>
      </trkpt>
      <trkpt lat="44.07734" lon="3.18136">
        <ele>773.4</ele>
        <time>2019-05-31T12:32:51Z</time>
      </trkpt>
      <trkpt lat="44.07738" lon="3.18133">
        <ele>773.2</ele>
        <time>2019-05-31T12:32:52Z</time>
      </trkpt>
      <trkpt lat="44.07742" lon="3.18131">
        <ele>772.9</ele>
        <time>2019-05-31T12:32:53Z</time>
      </trkpt>
      <trkpt lat="44.07745" lon="3.18128">
        <ele>772.7</ele>
        <time>2019-05-31T12:32:54Z</time>
      </trkpt>
      <trkpt lat="44.07749" lon="3.18126">
        <ele>772.4</ele>
        <time>2019-05-31T12:32:55Z</time>
      </trkpt>
      <trkpt lat="44.07753" lon="3.18123">
        <ele>772.1</ele>
        <time>2019-05-31T12:32:56Z</time>
      </trkpt>
      <trkpt lat="44.07755" lon="3.18121">
        <ele>771.8</ele>
        <time>2019-05-31T12:32:57Z</time>
      </trkpt>
      <trkpt lat="44.07756" lon="3.18114">
        <ele>771.4</ele>
        <time>2019-05-31T12:32:59Z</time>
      </trkpt>
      <trkpt lat="44.07753" lon="3.1811">
        <ele>771.1</ele>
        <time>2019-05-31T12:33:00Z</time>
      </trkpt>
      <trkpt lat="44.07745" lon="3.18105">
        <ele>770.8</ele>
        <time>2019-05-31T12:33:01Z</time>
      </trkpt>
      <trkpt lat="44.07742" lon="3.18102">
        <ele>770.2</ele>
        <time>2019-05-31T12:33:02Z</time>
      </trkpt>
      <trkpt lat="44.07738" lon="3.18097">
        <ele>769.7</ele>
        <time>2019-05-31T12:33:03Z</time>
      </trkpt>
      <trkpt lat="44.07736" lon="3.18093">
        <ele>769.3</ele>
        <time>2019-05-31T12:33:04Z</time>
      </trkpt>
      <trkpt lat="44.07733" lon="3.1809">
        <ele>768.9</ele>
        <time>2019-05-31T12:33:05Z</time>
      </trkpt>
      <trkpt lat="44.0773" lon="3.18087">
        <ele>768.5</ele>
        <time>2019-05-31T12:33:06Z</time>
      </trkpt>
      <trkpt lat="44.07728" lon="3.18084">
        <ele>768.2</ele>
        <time>2019-05-31T12:33:07Z</time>
      </trkpt>
      <trkpt lat="44.07725" lon="3.1808">
        <ele>767.9</ele>
        <time>2019-05-31T12:33:08Z</time>
      </trkpt>
      <trkpt lat="44.07722" lon="3.18076">
        <ele>767.5</ele>
        <time>2019-05-31T12:33:09Z</time>
      </trkpt>
      <trkpt lat="44.0772" lon="3.18071">
        <ele>767.2</ele>
        <time>2019-05-31T12:33:10Z</time>
      </trkpt>
      <trkpt lat="44.07716" lon="3.18066">
        <ele>766.9</ele>
        <time>2019-05-31T12:33:11Z</time>
      </trkpt>
      <trkpt lat="44.07713" lon="3.1806">
        <ele>766.5</ele>
        <time>2019-05-31T12:33:12Z</time>
      </trkpt>
      <trkpt lat="44.07708" lon="3.18054">
        <ele>766.1</ele>
        <time>2019-05-31T12:33:13Z</time>
      </trkpt>
      <trkpt lat="44.07706" lon="3.18048">
        <ele>765.9</ele>
        <time>2019-05-31T12:33:14Z</time>
      </trkpt>
      <trkpt lat="44.07705" lon="3.18043">
        <ele>765.7</ele>
        <time>2019-05-31T12:33:15Z</time>
      </trkpt>
      <trkpt lat="44.07702" lon="3.18038">
        <ele>765.5</ele>
        <time>2019-05-31T12:33:16Z</time>
      </trkpt>
      <trkpt lat="44.07703" lon="3.18033">
        <ele>765.2</ele>
        <time>2019-05-31T12:33:17Z</time>
      </trkpt>
      <trkpt lat="44.07707" lon="3.18029">
        <ele>764.7</ele>
        <time>2019-05-31T12:33:18Z</time>
      </trkpt>
      <trkpt lat="44.0771" lon="3.18024">
        <ele>764.2</ele>
        <time>2019-05-31T12:33:19Z</time>
      </trkpt>
      <trkpt lat="44.07717" lon="3.18022">
        <ele>763.6</ele>
        <time>2019-05-31T12:33:20Z</time>
      </trkpt>
      <trkpt lat="44.07722" lon="3.18021">
        <ele>763.2</ele>
        <time>2019-05-31T12:33:21Z</time>
      </trkpt>
      <trkpt lat="44.07727" lon="3.18023">
        <ele>762.9</ele>
        <time>2019-05-31T12:33:22Z</time>
      </trkpt>
      <trkpt lat="44.07733" lon="3.18026">
        <ele>762.4</ele>
        <time>2019-05-31T12:33:23Z</time>
      </trkpt>
      <trkpt lat="44.07738" lon="3.18027">
        <ele>762.1</ele>
        <time>2019-05-31T12:33:24Z</time>
      </trkpt>
      <trkpt lat="44.07743" lon="3.18027">
        <ele>761.8</ele>
        <time>2019-05-31T12:33:25Z</time>
      </trkpt>
      <trkpt lat="44.07749" lon="3.18026">
        <ele>761.4</ele>
        <time>2019-05-31T12:33:26Z</time>
      </trkpt>
      <trkpt lat="44.07755" lon="3.18025">
        <ele>760.9</ele>
        <time>2019-05-31T12:33:27Z</time>
      </trkpt>
      <trkpt lat="44.07762" lon="3.18025">
        <ele>760.5</ele>
        <time>2019-05-31T12:33:28Z</time>
      </trkpt>
      <trkpt lat="44.0777" lon="3.18023">
        <ele>760.1</ele>
        <time>2019-05-31T12:33:29Z</time>
      </trkpt>
      <trkpt lat="44.07778" lon="3.18024">
        <ele>759.9</ele>
        <time>2019-05-31T12:33:30Z</time>
      </trkpt>
      <trkpt lat="44.07785" lon="3.18025">
        <ele>759.7</ele>
        <time>2019-05-31T12:33:31Z</time>
      </trkpt>
      <trkpt lat="44.07791" lon="3.18025">
        <ele>759.4</ele>
        <time>2019-05-31T12:33:32Z</time>
      </trkpt>
      <trkpt lat="44.07797" lon="3.18025">
        <ele>759.3</ele>
        <time>2019-05-31T12:33:33Z</time>
      </trkpt>
      <trkpt lat="44.07803" lon="3.18026">
        <ele>759.1</ele>
        <time>2019-05-31T12:33:34Z</time>
      </trkpt>
      <trkpt lat="44.0781" lon="3.18027">
        <ele>758.9</ele>
        <time>2019-05-31T12:33:35Z</time>
      </trkpt>
      <trkpt lat="44.07817" lon="3.18029">
        <ele>758.8</ele>
        <time>2019-05-31T12:33:36Z</time>
      </trkpt>
      <trkpt lat="44.07823" lon="3.18029">
        <ele>758.6</ele>
        <time>2019-05-31T12:33:37Z</time>
      </trkpt>
      <trkpt lat="44.07829" lon="3.1803">
        <ele>758.4</ele>
        <time>2019-05-31T12:33:38Z</time>
      </trkpt>
      <trkpt lat="44.07837" lon="3.1803">
        <ele>758</ele>
        <time>2019-05-31T12:33:39Z</time>
      </trkpt>
      <trkpt lat="44.07844" lon="3.18031">
        <ele>757.6</ele>
        <time>2019-05-31T12:33:40Z</time>
      </trkpt>
      <trkpt lat="44.0785" lon="3.18032">
        <ele>757.1</ele>
        <time>2019-05-31T12:33:41Z</time>
      </trkpt>
      <trkpt lat="44.07856" lon="3.18034">
        <ele>756.8</ele>
        <time>2019-05-31T12:33:42Z</time>
      </trkpt>
      <trkpt lat="44.07863" lon="3.18035">
        <ele>756.5</ele>
        <time>2019-05-31T12:33:43Z</time>
      </trkpt>
      <trkpt lat="44.0787" lon="3.18034">
        <ele>756.1</ele>
        <time>2019-05-31T12:33:44Z</time>
      </trkpt>
      <trkpt lat="44.07875" lon="3.18035">
        <ele>755.9</ele>
        <time>2019-05-31T12:33:45Z</time>
      </trkpt>
      <trkpt lat="44.07882" lon="3.18033">
        <ele>755.6</ele>
        <time>2019-05-31T12:33:46Z</time>
      </trkpt>
      <trkpt lat="44.07887" lon="3.18033">
        <ele>755.4</ele>
        <time>2019-05-31T12:33:47Z</time>
      </trkpt>
      <trkpt lat="44.07894" lon="3.18032">
        <ele>755.2</ele>
        <time>2019-05-31T12:33:48Z</time>
      </trkpt>
      <trkpt lat="44.079" lon="3.18032">
        <ele>754.9</ele>
        <time>2019-05-31T12:33:49Z</time>
      </trkpt>
      <trkpt lat="44.07907" lon="3.18031">
        <ele>754.6</ele>
        <time>2019-05-31T12:33:50Z</time>
      </trkpt>
      <trkpt lat="44.07912" lon="3.18033">
        <ele>754.4</ele>
        <time>2019-05-31T12:33:51Z</time>
      </trkpt>
      <trkpt lat="44.07918" lon="3.18032">
        <ele>754.2</ele>
        <time>2019-05-31T12:33:52Z</time>
      </trkpt>
      <trkpt lat="44.07924" lon="3.1803">
        <ele>753.9</ele>
        <time>2019-05-31T12:33:53Z</time>
      </trkpt>
      <trkpt lat="44.0793" lon="3.18027">
        <ele>753.7</ele>
        <time>2019-05-31T12:33:54Z</time>
      </trkpt>
      <trkpt lat="44.07936" lon="3.18026">
        <ele>753.5</ele>
        <time>2019-05-31T12:33:55Z</time>
      </trkpt>
      <trkpt lat="44.07941" lon="3.18024">
        <ele>753.2</ele>
        <time>2019-05-31T12:33:56Z</time>
      </trkpt>
      <trkpt lat="44.07944" lon="3.1802">
        <ele>753</ele>
        <time>2019-05-31T12:33:57Z</time>
      </trkpt>
      <trkpt lat="44.07946" lon="3.18017">
        <ele>752.9</ele>
        <time>2019-05-31T12:33:58Z</time>
      </trkpt>
      <trkpt lat="44.07948" lon="3.18011">
        <ele>752.7</ele>
        <time>2019-05-31T12:33:59Z</time>
      </trkpt>
      <trkpt lat="44.0795" lon="3.18003">
        <ele>752.5</ele>
        <time>2019-05-31T12:34:00Z</time>
      </trkpt>
      <trkpt lat="44.07951" lon="3.17998">
        <ele>752.4</ele>
        <time>2019-05-31T12:34:01Z</time>
      </trkpt>
      <trkpt lat="44.07952" lon="3.17993">
        <ele>752.3</ele>
        <time>2019-05-31T12:34:02Z</time>
      </trkpt>
      <trkpt lat="44.07954" lon="3.17986">
        <ele>752</ele>
        <time>2019-05-31T12:34:04Z</time>
      </trkpt>
      <trkpt lat="44.07957" lon="3.17986">
        <ele>751.9</ele>
        <time>2019-05-31T12:34:08Z</time>
      </trkpt>
      <trkpt lat="44.0796" lon="3.17988">
        <ele>751.8</ele>
        <time>2019-05-31T12:36:58Z</time>
      </trkpt>
      <trkpt lat="44.07965" lon="3.17985">
        <ele>751.4</ele>
        <time>2019-05-31T12:37:00Z</time>
      </trkpt>
      <trkpt lat="44.07968" lon="3.17983">
        <ele>751.2</ele>
        <time>2019-05-31T12:37:01Z</time>
      </trkpt>
      <trkpt lat="44.07972" lon="3.17982">
        <ele>751.1</ele>
        <time>2019-05-31T12:37:02Z</time>
      </trkpt>
      <trkpt lat="44.07978" lon="3.1798">
        <ele>750.8</ele>
        <time>2019-05-31T12:37:03Z</time>
      </trkpt>
      <trkpt lat="44.07985" lon="3.17981">
        <ele>750.5</ele>
        <time>2019-05-31T12:37:04Z</time>
      </trkpt>
      <trkpt lat="44.0799" lon="3.17982">
        <ele>750.2</ele>
        <time>2019-05-31T12:37:05Z</time>
      </trkpt>
      <trkpt lat="44.07997" lon="3.17982">
        <ele>750</ele>
        <time>2019-05-31T12:37:06Z</time>
      </trkpt>
      <trkpt lat="44.08004" lon="3.1798">
        <ele>749.6</ele>
        <time>2019-05-31T12:37:07Z</time>
      </trkpt>
      <trkpt lat="44.08011" lon="3.17979">
        <ele>749.3</ele>
        <time>2019-05-31T12:37:08Z</time>
      </trkpt>
      <trkpt lat="44.0802" lon="3.1798">
        <ele>748.8</ele>
        <time>2019-05-31T12:37:09Z</time>
      </trkpt>
      <trkpt lat="44.08028" lon="3.17977">
        <ele>748.4</ele>
        <time>2019-05-31T12:37:10Z</time>
      </trkpt>
      <trkpt lat="44.08037" lon="3.17977">
        <ele>748.1</ele>
        <time>2019-05-31T12:37:11Z</time>
      </trkpt>
      <trkpt lat="44.08045" lon="3.17975">
        <ele>747.8</ele>
        <time>2019-05-31T12:37:12Z</time>
      </trkpt>
      <trkpt lat="44.08052" lon="3.1797">
        <ele>747.6</ele>
        <time>2019-05-31T12:37:13Z</time>
      </trkpt>
      <trkpt lat="44.08059" lon="3.17965">
        <ele>747.5</ele>
        <time>2019-05-31T12:37:14Z</time>
      </trkpt>
      <trkpt lat="44.08066" lon="3.17966">
        <ele>747.3</ele>
        <time>2019-05-31T12:37:15Z</time>
      </trkpt>
      <trkpt lat="44.08073" lon="3.17965">
        <ele>747.1</ele>
        <time>2019-05-31T12:37:16Z</time>
      </trkpt>
      <trkpt lat="44.0808" lon="3.17963">
        <ele>746.9</ele>
        <time>2019-05-31T12:37:17Z</time>
      </trkpt>
      <trkpt lat="44.08088" lon="3.17962">
        <ele>746.7</ele>
        <time>2019-05-31T12:37:18Z</time>
      </trkpt>
      <trkpt lat="44.08095" lon="3.1796">
        <ele>746.4</ele>
        <time>2019-05-31T12:37:19Z</time>
      </trkpt>
      <trkpt lat="44.08103" lon="3.17954">
        <ele>745.9</ele>
        <time>2019-05-31T12:37:20Z</time>
      </trkpt>
      <trkpt lat="44.08111" lon="3.17952">
        <ele>745.6</ele>
        <time>2019-05-31T12:37:21Z</time>
      </trkpt>
      <trkpt lat="44.08118" lon="3.17949">
        <ele>745.3</ele>
        <time>2019-05-31T12:37:22Z</time>
      </trkpt>
      <trkpt lat="44.08124" lon="3.17948">
        <ele>745</ele>
        <time>2019-05-31T12:37:23Z</time>
      </trkpt>
      <trkpt lat="44.08132" lon="3.17942">
        <ele>744.5</ele>
        <time>2019-05-31T12:37:24Z</time>
      </trkpt>
      <trkpt lat="44.08141" lon="3.17942">
        <ele>744</ele>
        <time>2019-05-31T12:37:25Z</time>
      </trkpt>
      <trkpt lat="44.08149" lon="3.17942">
        <ele>743.5</ele>
        <time>2019-05-31T12:37:26Z</time>
      </trkpt>
      <trkpt lat="44.08158" lon="3.17943">
        <ele>743</ele>
        <time>2019-05-31T12:37:27Z</time>
      </trkpt>
      <trkpt lat="44.08166" lon="3.17944">
        <ele>742.7</ele>
        <time>2019-05-31T12:37:28Z</time>
      </trkpt>
      <trkpt lat="44.08174" lon="3.17944">
        <ele>742.3</ele>
        <time>2019-05-31T12:37:29Z</time>
      </trkpt>
      <trkpt lat="44.0818" lon="3.17942">
        <ele>741.9</ele>
        <time>2019-05-31T12:37:30Z</time>
      </trkpt>
      <trkpt lat="44.08188" lon="3.17942">
        <ele>741.3</ele>
        <time>2019-05-31T12:37:31Z</time>
      </trkpt>
      <trkpt lat="44.08197" lon="3.17946">
        <ele>740.8</ele>
        <time>2019-05-31T12:37:32Z</time>
      </trkpt>
      <trkpt lat="44.08202" lon="3.17953">
        <ele>740.4</ele>
        <time>2019-05-31T12:37:33Z</time>
      </trkpt>
      <trkpt lat="44.08209" lon="3.17959">
        <ele>739.9</ele>
        <time>2019-05-31T12:37:34Z</time>
      </trkpt>
      <trkpt lat="44.08216" lon="3.17964">
        <ele>739.5</ele>
        <time>2019-05-31T12:37:35Z</time>
      </trkpt>
      <trkpt lat="44.08222" lon="3.17967">
        <ele>739.2</ele>
        <time>2019-05-31T12:37:36Z</time>
      </trkpt>
      <trkpt lat="44.08231" lon="3.17969">
        <ele>738.9</ele>
        <time>2019-05-31T12:37:37Z</time>
      </trkpt>
      <trkpt lat="44.08239" lon="3.17969">
        <ele>738.6</ele>
        <time>2019-05-31T12:37:38Z</time>
      </trkpt>
      <trkpt lat="44.08247" lon="3.17971">
        <ele>738.3</ele>
        <time>2019-05-31T12:37:39Z</time>
      </trkpt>
      <trkpt lat="44.08251" lon="3.17967">
        <ele>738.1</ele>
        <time>2019-05-31T12:37:40Z</time>
      </trkpt>
      <trkpt lat="44.08258" lon="3.17965">
        <ele>737.8</ele>
        <time>2019-05-31T12:37:41Z</time>
      </trkpt>
      <trkpt lat="44.08266" lon="3.17966">
        <ele>737.5</ele>
        <time>2019-05-31T12:37:42Z</time>
      </trkpt>
      <trkpt lat="44.0827" lon="3.17967">
        <ele>737.3</ele>
        <time>2019-05-31T12:37:43Z</time>
      </trkpt>
      <trkpt lat="44.08275" lon="3.17967">
        <ele>737</ele>
        <time>2019-05-31T12:37:44Z</time>
      </trkpt>
      <trkpt lat="44.0828" lon="3.17968">
        <ele>736.7</ele>
        <time>2019-05-31T12:37:45Z</time>
      </trkpt>
      <trkpt lat="44.08286" lon="3.1797">
        <ele>736.5</ele>
        <time>2019-05-31T12:37:46Z</time>
      </trkpt>
      <trkpt lat="44.08291" lon="3.17969">
        <ele>736.2</ele>
        <time>2019-05-31T12:37:47Z</time>
      </trkpt>
      <trkpt lat="44.08298" lon="3.17968">
        <ele>735.7</ele>
        <time>2019-05-31T12:37:48Z</time>
      </trkpt>
      <trkpt lat="44.08304" lon="3.17967">
        <ele>735.5</ele>
        <time>2019-05-31T12:37:49Z</time>
      </trkpt>
      <trkpt lat="44.08311" lon="3.17963">
        <ele>735.1</ele>
        <time>2019-05-31T12:37:50Z</time>
      </trkpt>
      <trkpt lat="44.08318" lon="3.17961">
        <ele>734.8</ele>
        <time>2019-05-31T12:37:51Z</time>
      </trkpt>
      <trkpt lat="44.08325" lon="3.17963">
        <ele>734.4</ele>
        <time>2019-05-31T12:37:52Z</time>
      </trkpt>
      <trkpt lat="44.08337" lon="3.17963">
        <ele>733.7</ele>
        <time>2019-05-31T12:37:53Z</time>
      </trkpt>
      <trkpt lat="44.08343" lon="3.17966">
        <ele>733.3</ele>
        <time>2019-05-31T12:37:54Z</time>
      </trkpt>
      <trkpt lat="44.08346" lon="3.1797">
        <ele>733</ele>
        <time>2019-05-31T12:37:55Z</time>
      </trkpt>
      <trkpt lat="44.0835" lon="3.17972">
        <ele>732.7</ele>
        <time>2019-05-31T12:37:56Z</time>
      </trkpt>
      <trkpt lat="44.08349" lon="3.17977">
        <ele>732.4</ele>
        <time>2019-05-31T12:37:57Z</time>
      </trkpt>
      <trkpt lat="44.08352" lon="3.1798">
        <ele>732.2</ele>
        <time>2019-05-31T12:37:58Z</time>
      </trkpt>
      <trkpt lat="44.08357" lon="3.17981">
        <ele>731.8</ele>
        <time>2019-05-31T12:37:59Z</time>
      </trkpt>
      <trkpt lat="44.08362" lon="3.17983">
        <ele>731.4</ele>
        <time>2019-05-31T12:38:00Z</time>
      </trkpt>
      <trkpt lat="44.08367" lon="3.17984">
        <ele>730.9</ele>
        <time>2019-05-31T12:38:01Z</time>
      </trkpt>
      <trkpt lat="44.08373" lon="3.17983">
        <ele>730.3</ele>
        <time>2019-05-31T12:38:02Z</time>
      </trkpt>
      <trkpt lat="44.08377" lon="3.17983">
        <ele>729.9</ele>
        <time>2019-05-31T12:38:03Z</time>
      </trkpt>
      <trkpt lat="44.08381" lon="3.17984">
        <ele>729.4</ele>
        <time>2019-05-31T12:38:04Z</time>
      </trkpt>
      <trkpt lat="44.08387" lon="3.17988">
        <ele>728.5</ele>
        <time>2019-05-31T12:38:05Z</time>
      </trkpt>
      <trkpt lat="44.08392" lon="3.17989">
        <ele>728</ele>
        <time>2019-05-31T12:38:06Z</time>
      </trkpt>
      <trkpt lat="44.08395" lon="3.17991">
        <ele>727.6</ele>
        <time>2019-05-31T12:38:07Z</time>
      </trkpt>
      <trkpt lat="44.08401" lon="3.17996">
        <ele>726.9</ele>
        <time>2019-05-31T12:38:08Z</time>
      </trkpt>
      <trkpt lat="44.08406" lon="3.17999">
        <ele>726</ele>
        <time>2019-05-31T12:38:09Z</time>
      </trkpt>
      <trkpt lat="44.08412" lon="3.18003">
        <ele>725.2</ele>
        <time>2019-05-31T12:38:10Z</time>
      </trkpt>
      <trkpt lat="44.08418" lon="3.18005">
        <ele>724.5</ele>
        <time>2019-05-31T12:38:11Z</time>
      </trkpt>
      <trkpt lat="44.08422" lon="3.17998">
        <ele>723.8</ele>
        <time>2019-05-31T12:38:12Z</time>
      </trkpt>
      <trkpt lat="44.08426" lon="3.17991">
        <ele>723.2</ele>
        <time>2019-05-31T12:38:13Z</time>
      </trkpt>
      <trkpt lat="44.0843" lon="3.17986">
        <ele>722.7</ele>
        <time>2019-05-31T12:38:14Z</time>
      </trkpt>
      <trkpt lat="44.08434" lon="3.17981">
        <ele>722.3</ele>
        <time>2019-05-31T12:38:15Z</time>
      </trkpt>
      <trkpt lat="44.08436" lon="3.17978">
        <ele>722</ele>
        <time>2019-05-31T12:38:16Z</time>
      </trkpt>
      <trkpt lat="44.0844" lon="3.17973">
        <ele>721.4</ele>
        <time>2019-05-31T12:38:17Z</time>
      </trkpt>
      <trkpt lat="44.08444" lon="3.1797">
        <ele>720.9</ele>
        <time>2019-05-31T12:38:18Z</time>
      </trkpt>
      <trkpt lat="44.0845" lon="3.17966">
        <ele>720.6</ele>
        <time>2019-05-31T12:38:19Z</time>
      </trkpt>
      <trkpt lat="44.08454" lon="3.17959">
        <ele>720.2</ele>
        <time>2019-05-31T12:38:20Z</time>
      </trkpt>
      <trkpt lat="44.08456" lon="3.17951">
        <ele>719.9</ele>
        <time>2019-05-31T12:38:21Z</time>
      </trkpt>
      <trkpt lat="44.08457" lon="3.17945">
        <ele>719.6</ele>
        <time>2019-05-31T12:38:22Z</time>
      </trkpt>
      <trkpt lat="44.08457" lon="3.17936">
        <ele>719.1</ele>
        <time>2019-05-31T12:38:23Z</time>
      </trkpt>
      <trkpt lat="44.08457" lon="3.17928">
        <ele>718.5</ele>
        <time>2019-05-31T12:38:24Z</time>
      </trkpt>
      <trkpt lat="44.08457" lon="3.1792">
        <ele>718</ele>
        <time>2019-05-31T12:38:25Z</time>
      </trkpt>
      <trkpt lat="44.08458" lon="3.17911">
        <ele>717.5</ele>
        <time>2019-05-31T12:38:26Z</time>
      </trkpt>
      <trkpt lat="44.08457" lon="3.17904">
        <ele>717.1</ele>
        <time>2019-05-31T12:38:27Z</time>
      </trkpt>
      <trkpt lat="44.08457" lon="3.17898">
        <ele>716.7</ele>
        <time>2019-05-31T12:38:28Z</time>
      </trkpt>
      <trkpt lat="44.08455" lon="3.17893">
        <ele>716.5</ele>
        <time>2019-05-31T12:38:29Z</time>
      </trkpt>
      <trkpt lat="44.08455" lon="3.17888">
        <ele>716.2</ele>
        <time>2019-05-31T12:38:30Z</time>
      </trkpt>
      <trkpt lat="44.08456" lon="3.17882">
        <ele>715.9</ele>
        <time>2019-05-31T12:38:31Z</time>
      </trkpt>
      <trkpt lat="44.08456" lon="3.17876">
        <ele>715.7</ele>
        <time>2019-05-31T12:38:32Z</time>
      </trkpt>
      <trkpt lat="44.08457" lon="3.17868">
        <ele>715.3</ele>
        <time>2019-05-31T12:38:34Z</time>
      </trkpt>
      <trkpt lat="44.08458" lon="3.17863">
        <ele>715.1</ele>
        <time>2019-05-31T12:38:37Z</time>
      </trkpt>
      <trkpt lat="44.08462" lon="3.17859">
        <ele>714.8</ele>
        <time>2019-05-31T12:38:39Z</time>
      </trkpt>
      <trkpt lat="44.08467" lon="3.17854">
        <ele>714.5</ele>
        <time>2019-05-31T12:38:41Z</time>
      </trkpt>
      <trkpt lat="44.0847" lon="3.17851">
        <ele>714.3</ele>
        <time>2019-05-31T12:38:42Z</time>
      </trkpt>
      <trkpt lat="44.08472" lon="3.17847">
        <ele>714.1</ele>
        <time>2019-05-31T12:38:43Z</time>
      </trkpt>
      <trkpt lat="44.08474" lon="3.17844">
        <ele>713.9</ele>
        <time>2019-05-31T12:38:44Z</time>
      </trkpt>
      <trkpt lat="44.08477" lon="3.17842">
        <ele>713.8</ele>
        <time>2019-05-31T12:38:45Z</time>
      </trkpt>
      <trkpt lat="44.0848" lon="3.17841">
        <ele>713.6</ele>
        <time>2019-05-31T12:38:46Z</time>
      </trkpt>
      <trkpt lat="44.08484" lon="3.1784">
        <ele>713.5</ele>
        <time>2019-05-31T12:38:47Z</time>
      </trkpt>
      <trkpt lat="44.08486" lon="3.17838">
        <ele>713.4</ele>
        <time>2019-05-31T12:38:48Z</time>
      </trkpt>
      <trkpt lat="44.08489" lon="3.17837">
        <ele>713.2</ele>
        <time>2019-05-31T12:38:49Z</time>
      </trkpt>
      <trkpt lat="44.08492" lon="3.17835">
        <ele>713</ele>
        <time>2019-05-31T12:38:50Z</time>
      </trkpt>
      <trkpt lat="44.08496" lon="3.17833">
        <ele>712.8</ele>
        <time>2019-05-31T12:38:51Z</time>
      </trkpt>
      <trkpt lat="44.08501" lon="3.1783">
        <ele>712.5</ele>
        <time>2019-05-31T12:38:52Z</time>
      </trkpt>
      <trkpt lat="44.08505" lon="3.17812">
        <ele>711.7</ele>
        <time>2019-05-31T12:38:53Z</time>
      </trkpt>
      <trkpt lat="44.08508" lon="3.17803">
        <ele>711.3</ele>
        <time>2019-05-31T12:38:54Z</time>
      </trkpt>
      <trkpt lat="44.08512" lon="3.17792">
        <ele>710.7</ele>
        <time>2019-05-31T12:38:55Z</time>
      </trkpt>
      <trkpt lat="44.08517" lon="3.17791">
        <ele>710.2</ele>
        <time>2019-05-31T12:38:57Z</time>
      </trkpt>
      <trkpt lat="44.08521" lon="3.17785">
        <ele>709.9</ele>
        <time>2019-05-31T12:38:58Z</time>
      </trkpt>
      <trkpt lat="44.08527" lon="3.17769">
        <ele>708.9</ele>
        <time>2019-05-31T12:38:59Z</time>
      </trkpt>
      <trkpt lat="44.08532" lon="3.17755">
        <ele>708</ele>
        <time>2019-05-31T12:39:00Z</time>
      </trkpt>
      <trkpt lat="44.08537" lon="3.17751">
        <ele>707.5</ele>
        <time>2019-05-31T12:39:01Z</time>
      </trkpt>
      <trkpt lat="44.08544" lon="3.17745">
        <ele>707</ele>
        <time>2019-05-31T12:39:02Z</time>
      </trkpt>
      <trkpt lat="44.08548" lon="3.17743">
        <ele>706.8</ele>
        <time>2019-05-31T12:39:03Z</time>
      </trkpt>
      <trkpt lat="44.08551" lon="3.17744">
        <ele>706.6</ele>
        <time>2019-05-31T12:39:04Z</time>
      </trkpt>
      <trkpt lat="44.08556" lon="3.17744">
        <ele>706.3</ele>
        <time>2019-05-31T12:39:05Z</time>
      </trkpt>
      <trkpt lat="44.08562" lon="3.17738">
        <ele>705.9</ele>
        <time>2019-05-31T12:39:06Z</time>
      </trkpt>
      <trkpt lat="44.08568" lon="3.17732">
        <ele>705.4</ele>
        <time>2019-05-31T12:39:07Z</time>
      </trkpt>
      <trkpt lat="44.08571" lon="3.17726">
        <ele>705.1</ele>
        <time>2019-05-31T12:39:08Z</time>
      </trkpt>
      <trkpt lat="44.08574" lon="3.17723">
        <ele>704.9</ele>
        <time>2019-05-31T12:39:09Z</time>
      </trkpt>
      <trkpt lat="44.08576" lon="3.17721">
        <ele>704.7</ele>
        <time>2019-05-31T12:39:10Z</time>
      </trkpt>
      <trkpt lat="44.08581" lon="3.17716">
        <ele>704.4</ele>
        <time>2019-05-31T12:39:12Z</time>
      </trkpt>
      <trkpt lat="44.08585" lon="3.17713">
        <ele>704.1</ele>
        <time>2019-05-31T12:39:13Z</time>
      </trkpt>
      <trkpt lat="44.08588" lon="3.17713">
        <ele>703.9</ele>
        <time>2019-05-31T12:39:14Z</time>
      </trkpt>
      <trkpt lat="44.08591" lon="3.17714">
        <ele>703.7</ele>
        <time>2019-05-31T12:39:15Z</time>
      </trkpt>
      <trkpt lat="44.08597" lon="3.17712">
        <ele>703.4</ele>
        <time>2019-05-31T12:39:16Z</time>
      </trkpt>
      <trkpt lat="44.08602" lon="3.1771">
        <ele>703</ele>
        <time>2019-05-31T12:39:17Z</time>
      </trkpt>
      <trkpt lat="44.08609" lon="3.17705">
        <ele>702.5</ele>
        <time>2019-05-31T12:39:18Z</time>
      </trkpt>
      <trkpt lat="44.08611" lon="3.17701">
        <ele>702.3</ele>
        <time>2019-05-31T12:39:19Z</time>
      </trkpt>
      <trkpt lat="44.08614" lon="3.17693">
        <ele>702</ele>
        <time>2019-05-31T12:39:20Z</time>
      </trkpt>
      <trkpt lat="44.08618" lon="3.17686">
        <ele>701.7</ele>
        <time>2019-05-31T12:39:21Z</time>
      </trkpt>
      <trkpt lat="44.08621" lon="3.17682">
        <ele>701.4</ele>
        <time>2019-05-31T12:39:22Z</time>
      </trkpt>
      <trkpt lat="44.08624" lon="3.17679">
        <ele>701.2</ele>
        <time>2019-05-31T12:39:23Z</time>
      </trkpt>
      <trkpt lat="44.08629" lon="3.17671">
        <ele>700.8</ele>
        <time>2019-05-31T12:39:24Z</time>
      </trkpt>
      <trkpt lat="44.08634" lon="3.17663">
        <ele>700.5</ele>
        <time>2019-05-31T12:39:25Z</time>
      </trkpt>
      <trkpt lat="44.08636" lon="3.1766">
        <ele>700.3</ele>
        <time>2019-05-31T12:39:26Z</time>
      </trkpt>
      <trkpt lat="44.0864" lon="3.1766">
        <ele>700.2</ele>
        <time>2019-05-31T12:39:27Z</time>
      </trkpt>
      <trkpt lat="44.08646" lon="3.17653">
        <ele>699.9</ele>
        <time>2019-05-31T12:39:28Z</time>
      </trkpt>
      <trkpt lat="44.08652" lon="3.17647">
        <ele>699.7</ele>
        <time>2019-05-31T12:39:29Z</time>
      </trkpt>
      <trkpt lat="44.08657" lon="3.17646">
        <ele>699.5</ele>
        <time>2019-05-31T12:39:30Z</time>
      </trkpt>
      <trkpt lat="44.08664" lon="3.17642">
        <ele>699.3</ele>
        <time>2019-05-31T12:39:31Z</time>
      </trkpt>
      <trkpt lat="44.0867" lon="3.17637">
        <ele>699.1</ele>
        <time>2019-05-31T12:39:32Z</time>
      </trkpt>
      <trkpt lat="44.08675" lon="3.17634">
        <ele>699</ele>
        <time>2019-05-31T12:39:33Z</time>
      </trkpt>
      <trkpt lat="44.08677" lon="3.17628">
        <ele>698.8</ele>
        <time>2019-05-31T12:39:34Z</time>
      </trkpt>
      <trkpt lat="44.08681" lon="3.17624">
        <ele>698.6</ele>
        <time>2019-05-31T12:39:35Z</time>
      </trkpt>
      <trkpt lat="44.08688" lon="3.17616">
        <ele>698.2</ele>
        <time>2019-05-31T12:39:36Z</time>
      </trkpt>
      <trkpt lat="44.08693" lon="3.17612">
        <ele>697.9</ele>
        <time>2019-05-31T12:39:37Z</time>
      </trkpt>
      <trkpt lat="44.08695" lon="3.17609">
        <ele>697.8</ele>
        <time>2019-05-31T12:39:38Z</time>
      </trkpt>
      <trkpt lat="44.08697" lon="3.17604">
        <ele>697.7</ele>
        <time>2019-05-31T12:39:39Z</time>
      </trkpt>
      <trkpt lat="44.08702" lon="3.17598">
        <ele>697.3</ele>
        <time>2019-05-31T12:39:41Z</time>
      </trkpt>
      <trkpt lat="44.08706" lon="3.17596">
        <ele>697.1</ele>
        <time>2019-05-31T12:39:42Z</time>
      </trkpt>
      <trkpt lat="44.08709" lon="3.17595">
        <ele>697</ele>
        <time>2019-05-31T12:39:43Z</time>
      </trkpt>
      <trkpt lat="44.08715" lon="3.17591">
        <ele>696.8</ele>
        <time>2019-05-31T12:39:44Z</time>
      </trkpt>
      <trkpt lat="44.08723" lon="3.17582">
        <ele>696.4</ele>
        <time>2019-05-31T12:39:45Z</time>
      </trkpt>
      <trkpt lat="44.08728" lon="3.17576">
        <ele>696.2</ele>
        <time>2019-05-31T12:39:46Z</time>
      </trkpt>
      <trkpt lat="44.08732" lon="3.17572">
        <ele>696</ele>
        <time>2019-05-31T12:39:47Z</time>
      </trkpt>
      <trkpt lat="44.08734" lon="3.17569">
        <ele>695.9</ele>
        <time>2019-05-31T12:39:48Z</time>
      </trkpt>
      <trkpt lat="44.0874" lon="3.1757">
        <ele>695.6</ele>
        <time>2019-05-31T12:39:49Z</time>
      </trkpt>
      <trkpt lat="44.08744" lon="3.17572">
        <ele>695.5</ele>
        <time>2019-05-31T12:39:50Z</time>
      </trkpt>
      <trkpt lat="44.08747" lon="3.17574">
        <ele>695.3</ele>
        <time>2019-05-31T12:39:51Z</time>
      </trkpt>
      <trkpt lat="44.08751" lon="3.17574">
        <ele>695.1</ele>
        <time>2019-05-31T12:39:52Z</time>
      </trkpt>
      <trkpt lat="44.08754" lon="3.17572">
        <ele>695</ele>
        <time>2019-05-31T12:39:53Z</time>
      </trkpt>
      <trkpt lat="44.0876" lon="3.1757">
        <ele>694.8</ele>
        <time>2019-05-31T12:39:54Z</time>
      </trkpt>
      <trkpt lat="44.08765" lon="3.17568">
        <ele>694.6</ele>
        <time>2019-05-31T12:39:55Z</time>
      </trkpt>
      <trkpt lat="44.08769" lon="3.17566">
        <ele>694.5</ele>
        <time>2019-05-31T12:39:56Z</time>
      </trkpt>
      <trkpt lat="44.08774" lon="3.17564">
        <ele>694.4</ele>
        <time>2019-05-31T12:39:57Z</time>
      </trkpt>
      <trkpt lat="44.08779" lon="3.17565">
        <ele>694.4</ele>
        <time>2019-05-31T12:39:58Z</time>
      </trkpt>
      <trkpt lat="44.08783" lon="3.17566">
        <ele>694.4</ele>
        <time>2019-05-31T12:39:59Z</time>
      </trkpt>
      <trkpt lat="44.08787" lon="3.17566">
        <ele>694.4</ele>
        <time>2019-05-31T12:40:00Z</time>
      </trkpt>
      <trkpt lat="44.0879" lon="3.17566">
        <ele>694.4</ele>
        <time>2019-05-31T12:40:01Z</time>
      </trkpt>
      <trkpt lat="44.08795" lon="3.17565">
        <ele>694.4</ele>
        <time>2019-05-31T12:40:02Z</time>
      </trkpt>
      <trkpt lat="44.088" lon="3.17564">
        <ele>694.4</ele>
        <time>2019-05-31T12:40:03Z</time>
      </trkpt>
      <trkpt lat="44.08805" lon="3.17562">
        <ele>694.3</ele>
        <time>2019-05-31T12:40:04Z</time>
      </trkpt>
      <trkpt lat="44.08814" lon="3.17557">
        <ele>694</ele>
        <time>2019-05-31T12:40:05Z</time>
      </trkpt>
      <trkpt lat="44.08819" lon="3.17558">
        <ele>693.8</ele>
        <time>2019-05-31T12:40:06Z</time>
      </trkpt>
      <trkpt lat="44.08823" lon="3.17556">
        <ele>693.5</ele>
        <time>2019-05-31T12:40:07Z</time>
      </trkpt>
      <trkpt lat="44.08826" lon="3.17549">
        <ele>693.1</ele>
        <time>2019-05-31T12:40:08Z</time>
      </trkpt>
      <trkpt lat="44.08831" lon="3.1754">
        <ele>692.4</ele>
        <time>2019-05-31T12:40:10Z</time>
      </trkpt>
      <trkpt lat="44.08835" lon="3.17532">
        <ele>691.7</ele>
        <time>2019-05-31T12:40:11Z</time>
      </trkpt>
      <trkpt lat="44.08838" lon="3.17527">
        <ele>691.3</ele>
        <time>2019-05-31T12:40:12Z</time>
      </trkpt>
      <trkpt lat="44.08841" lon="3.1753">
        <ele>690.9</ele>
        <time>2019-05-31T12:40:13Z</time>
      </trkpt>
      <trkpt lat="44.08847" lon="3.17526">
        <ele>690.3</ele>
        <time>2019-05-31T12:40:14Z</time>
      </trkpt>
      <trkpt lat="44.08851" lon="3.17526">
        <ele>690</ele>
        <time>2019-05-31T12:40:15Z</time>
      </trkpt>
      <trkpt lat="44.08854" lon="3.17523">
        <ele>689.6</ele>
        <time>2019-05-31T12:40:16Z</time>
      </trkpt>
      <trkpt lat="44.08857" lon="3.1752">
        <ele>689</ele>
        <time>2019-05-31T12:40:17Z</time>
      </trkpt>
      <trkpt lat="44.08861" lon="3.17516">
        <ele>688.1</ele>
        <time>2019-05-31T12:40:18Z</time>
      </trkpt>
      <trkpt lat="44.08864" lon="3.17512">
        <ele>687.4</ele>
        <time>2019-05-31T12:40:19Z</time>
      </trkpt>
      <trkpt lat="44.08867" lon="3.17507">
        <ele>686.7</ele>
        <time>2019-05-31T12:40:20Z</time>
      </trkpt>
      <trkpt lat="44.08868" lon="3.17503">
        <ele>686.2</ele>
        <time>2019-05-31T12:40:21Z</time>
      </trkpt>
      <trkpt lat="44.08869" lon="3.17498">
        <ele>685.7</ele>
        <time>2019-05-31T12:40:23Z</time>
      </trkpt>
      <trkpt lat="44.08871" lon="3.17495">
        <ele>685</ele>
        <time>2019-05-31T12:40:25Z</time>
      </trkpt>
      <trkpt lat="44.08872" lon="3.17492">
        <ele>684.5</ele>
        <time>2019-05-31T12:40:27Z</time>
      </trkpt>
      <trkpt lat="44.08874" lon="3.17485">
        <ele>683.5</ele>
        <time>2019-05-31T12:40:29Z</time>
      </trkpt>
      <trkpt lat="44.08876" lon="3.17481">
        <ele>683</ele>
        <time>2019-05-31T12:40:30Z</time>
      </trkpt>
      <trkpt lat="44.08877" lon="3.17476">
        <ele>682.3</ele>
        <time>2019-05-31T12:40:31Z</time>
      </trkpt>
      <trkpt lat="44.08878" lon="3.17471">
        <ele>681.6</ele>
        <time>2019-05-31T12:40:32Z</time>
      </trkpt>
      <trkpt lat="44.08878" lon="3.17468">
        <ele>681.1</ele>
        <time>2019-05-31T12:40:33Z</time>
      </trkpt>
      <trkpt lat="44.08879" lon="3.17459">
        <ele>680</ele>
        <time>2019-05-31T12:40:39Z</time>
      </trkpt>
      <trkpt lat="44.08879" lon="3.17455">
        <ele>679.5</ele>
        <time>2019-05-31T12:41:26Z</time>
      </trkpt>
      <trkpt lat="44.0888" lon="3.17451">
        <ele>679</ele>
        <time>2019-05-31T12:41:28Z</time>
      </trkpt>
      <trkpt lat="44.0888" lon="3.17446">
        <ele>678.6</ele>
        <time>2019-05-31T12:41:36Z</time>
      </trkpt>
      <trkpt lat="44.08881" lon="3.17442">
        <ele>678.2</ele>
        <time>2019-05-31T12:41:37Z</time>
      </trkpt>
      <trkpt lat="44.08884" lon="3.17438">
        <ele>677.7</ele>
        <time>2019-05-31T12:41:38Z</time>
      </trkpt>
      <trkpt lat="44.08886" lon="3.17434">
        <ele>677.2</ele>
        <time>2019-05-31T12:41:39Z</time>
      </trkpt>
      <trkpt lat="44.08889" lon="3.1743">
        <ele>676.8</ele>
        <time>2019-05-31T12:41:40Z</time>
      </trkpt>
      <trkpt lat="44.08891" lon="3.17428">
        <ele>676.4</ele>
        <time>2019-05-31T12:41:43Z</time>
      </trkpt>
      <trkpt lat="44.08893" lon="3.17423">
        <ele>676</ele>
        <time>2019-05-31T12:41:45Z</time>
      </trkpt>
      <trkpt lat="44.08892" lon="3.17416">
        <ele>675.2</ele>
        <time>2019-05-31T12:41:47Z</time>
      </trkpt>
      <trkpt lat="44.08889" lon="3.17412">
        <ele>674.4</ele>
        <time>2019-05-31T12:41:49Z</time>
      </trkpt>
      <trkpt lat="44.08884" lon="3.17413">
        <ele>673</ele>
        <time>2019-05-31T12:41:51Z</time>
      </trkpt>
      <trkpt lat="44.08881" lon="3.17415">
        <ele>672.2</ele>
        <time>2019-05-31T12:41:52Z</time>
      </trkpt>
      <trkpt lat="44.08878" lon="3.17416">
        <ele>671.6</ele>
        <time>2019-05-31T12:41:53Z</time>
      </trkpt>
      <trkpt lat="44.08874" lon="3.17414">
        <ele>670.7</ele>
        <time>2019-05-31T12:41:55Z</time>
      </trkpt>
      <trkpt lat="44.08874" lon="3.1741">
        <ele>669.9</ele>
        <time>2019-05-31T12:41:57Z</time>
      </trkpt>
      <trkpt lat="44.08873" lon="3.17404">
        <ele>669.3</ele>
        <time>2019-05-31T12:41:59Z</time>
      </trkpt>
      <trkpt lat="44.08872" lon="3.17398">
        <ele>668.8</ele>
        <time>2019-05-31T12:42:01Z</time>
      </trkpt>
      <trkpt lat="44.0887" lon="3.17394">
        <ele>668.4</ele>
        <time>2019-05-31T12:42:03Z</time>
      </trkpt>
      <trkpt lat="44.08866" lon="3.17392">
        <ele>668</ele>
        <time>2019-05-31T12:42:05Z</time>
      </trkpt>
      <trkpt lat="44.08862" lon="3.17389">
        <ele>667.9</ele>
        <time>2019-05-31T12:42:07Z</time>
      </trkpt>
      <trkpt lat="44.0886" lon="3.17386">
        <ele>667.8</ele>
        <time>2019-05-31T12:42:08Z</time>
      </trkpt>
      <trkpt lat="44.08859" lon="3.17383">
        <ele>667.8</ele>
        <time>2019-05-31T12:42:10Z</time>
      </trkpt>
      <trkpt lat="44.08856" lon="3.17384">
        <ele>667.7</ele>
        <time>2019-05-31T12:42:20Z</time>
      </trkpt>
      <trkpt lat="44.08853" lon="3.17386">
        <ele>667.7</ele>
        <time>2019-05-31T12:42:26Z</time>
      </trkpt>
      <trkpt lat="44.08851" lon="3.17383">
        <ele>667.5</ele>
        <time>2019-05-31T12:42:35Z</time>
      </trkpt>
      <trkpt lat="44.0885" lon="3.17378">
        <ele>667.4</ele>
        <time>2019-05-31T12:42:38Z</time>
      </trkpt>
      <trkpt lat="44.0885" lon="3.17374">
        <ele>667.3</ele>
        <time>2019-05-31T12:42:39Z</time>
      </trkpt>
      <trkpt lat="44.0885" lon="3.17369">
        <ele>667.1</ele>
        <time>2019-05-31T12:42:40Z</time>
      </trkpt>
      <trkpt lat="44.0885" lon="3.17363">
        <ele>666.9</ele>
        <time>2019-05-31T12:42:41Z</time>
      </trkpt>
      <trkpt lat="44.08849" lon="3.17357">
        <ele>666.5</ele>
        <time>2019-05-31T12:42:42Z</time>
      </trkpt>
      <trkpt lat="44.08847" lon="3.17351">
        <ele>665.9</ele>
        <time>2019-05-31T12:42:43Z</time>
      </trkpt>
      <trkpt lat="44.08844" lon="3.17346">
        <ele>665.3</ele>
        <time>2019-05-31T12:42:44Z</time>
      </trkpt>
      <trkpt lat="44.08839" lon="3.17341">
        <ele>664.5</ele>
        <time>2019-05-31T12:42:45Z</time>
      </trkpt>
      <trkpt lat="44.08835" lon="3.17336">
        <ele>663.8</ele>
        <time>2019-05-31T12:42:46Z</time>
      </trkpt>
      <trkpt lat="44.08828" lon="3.17322">
        <ele>662.7</ele>
        <time>2019-05-31T12:42:47Z</time>
      </trkpt>
      <trkpt lat="44.08825" lon="3.17315">
        <ele>662.1</ele>
        <time>2019-05-31T12:42:48Z</time>
      </trkpt>
      <trkpt lat="44.08823" lon="3.17307">
        <ele>661.5</ele>
        <time>2019-05-31T12:42:49Z</time>
      </trkpt>
      <trkpt lat="44.08819" lon="3.173">
        <ele>661</ele>
        <time>2019-05-31T12:42:50Z</time>
      </trkpt>
      <trkpt lat="44.08812" lon="3.17295">
        <ele>660.4</ele>
        <time>2019-05-31T12:42:51Z</time>
      </trkpt>
      <trkpt lat="44.08804" lon="3.17291">
        <ele>659.8</ele>
        <time>2019-05-31T12:42:52Z</time>
      </trkpt>
      <trkpt lat="44.08799" lon="3.17287">
        <ele>659.4</ele>
        <time>2019-05-31T12:42:53Z</time>
      </trkpt>
      <trkpt lat="44.08797" lon="3.17283">
        <ele>659.1</ele>
        <time>2019-05-31T12:42:54Z</time>
      </trkpt>
      <trkpt lat="44.08793" lon="3.17281">
        <ele>658.7</ele>
        <time>2019-05-31T12:42:55Z</time>
      </trkpt>
      <trkpt lat="44.0879" lon="3.17279">
        <ele>658.6</ele>
        <time>2019-05-31T12:42:56Z</time>
      </trkpt>
      <trkpt lat="44.08787" lon="3.17278">
        <ele>658.4</ele>
        <time>2019-05-31T12:42:58Z</time>
      </trkpt>
      <trkpt lat="44.08785" lon="3.17276">
        <ele>658.2</ele>
        <time>2019-05-31T12:42:59Z</time>
      </trkpt>
      <trkpt lat="44.08781" lon="3.17273">
        <ele>658.2</ele>
        <time>2019-05-31T12:43:01Z</time>
      </trkpt>
      <trkpt lat="44.08779" lon="3.17269">
        <ele>658.1</ele>
        <time>2019-05-31T12:43:03Z</time>
      </trkpt>
      <trkpt lat="44.08776" lon="3.17269">
        <ele>657.9</ele>
        <time>2019-05-31T12:43:04Z</time>
      </trkpt>
      <trkpt lat="44.08774" lon="3.17267">
        <ele>657.7</ele>
        <time>2019-05-31T12:43:06Z</time>
      </trkpt>
      <trkpt lat="44.08775" lon="3.17264">
        <ele>657.3</ele>
        <time>2019-05-31T12:43:16Z</time>
      </trkpt>
      <trkpt lat="44.08777" lon="3.17267">
        <ele>657</ele>
        <time>2019-05-31T12:43:20Z</time>
      </trkpt>
      <trkpt lat="44.08774" lon="3.1726">
        <ele>656.4</ele>
        <time>2019-05-31T12:45:32Z</time>
      </trkpt>
      <trkpt lat="44.08774" lon="3.17255">
        <ele>656.1</ele>
        <time>2019-05-31T12:45:34Z</time>
      </trkpt>
      <trkpt lat="44.08774" lon="3.17249">
        <ele>655.7</ele>
        <time>2019-05-31T12:45:36Z</time>
      </trkpt>
      <trkpt lat="44.08772" lon="3.17242">
        <ele>655.3</ele>
        <time>2019-05-31T12:45:38Z</time>
      </trkpt>
      <trkpt lat="44.08771" lon="3.17237">
        <ele>655.1</ele>
        <time>2019-05-31T12:45:40Z</time>
      </trkpt>
      <trkpt lat="44.08772" lon="3.17232">
        <ele>654.8</ele>
        <time>2019-05-31T12:45:42Z</time>
      </trkpt>
      <trkpt lat="44.08771" lon="3.17228">
        <ele>654.7</ele>
        <time>2019-05-31T12:45:44Z</time>
      </trkpt>
      <trkpt lat="44.08767" lon="3.17225">
        <ele>655.1</ele>
        <time>2019-05-31T12:45:46Z</time>
      </trkpt>
      <trkpt lat="44.08763" lon="3.17223">
        <ele>655.7</ele>
        <time>2019-05-31T12:45:48Z</time>
      </trkpt>
      <trkpt lat="44.08758" lon="3.17223">
        <ele>656</ele>
        <time>2019-05-31T12:45:50Z</time>
      </trkpt>
      <trkpt lat="44.08752" lon="3.17224">
        <ele>656.6</ele>
        <time>2019-05-31T12:45:52Z</time>
      </trkpt>
      <trkpt lat="44.08748" lon="3.17226">
        <ele>657.1</ele>
        <time>2019-05-31T12:45:53Z</time>
      </trkpt>
      <trkpt lat="44.08745" lon="3.17228">
        <ele>657.6</ele>
        <time>2019-05-31T12:45:54Z</time>
      </trkpt>
      <trkpt lat="44.08742" lon="3.17231">
        <ele>658.4</ele>
        <time>2019-05-31T12:45:55Z</time>
      </trkpt>
      <trkpt lat="44.0874" lon="3.17234">
        <ele>659.1</ele>
        <time>2019-05-31T12:45:56Z</time>
      </trkpt>
      <trkpt lat="44.08737" lon="3.17236">
        <ele>659.6</ele>
        <time>2019-05-31T12:45:57Z</time>
      </trkpt>
      <trkpt lat="44.08733" lon="3.17238">
        <ele>660.3</ele>
        <time>2019-05-31T12:45:59Z</time>
      </trkpt>
      <trkpt lat="44.08728" lon="3.17239">
        <ele>660.9</ele>
        <time>2019-05-31T12:46:01Z</time>
      </trkpt>
      <trkpt lat="44.08725" lon="3.17239">
        <ele>661.3</ele>
        <time>2019-05-31T12:46:02Z</time>
      </trkpt>
      <trkpt lat="44.08722" lon="3.1724">
        <ele>661.7</ele>
        <time>2019-05-31T12:46:03Z</time>
      </trkpt>
      <trkpt lat="44.08718" lon="3.17242">
        <ele>662.3</ele>
        <time>2019-05-31T12:46:05Z</time>
      </trkpt>
      <trkpt lat="44.08713" lon="3.17242">
        <ele>662.7</ele>
        <time>2019-05-31T12:46:07Z</time>
      </trkpt>
      <trkpt lat="44.08711" lon="3.17239">
        <ele>662.7</ele>
        <time>2019-05-31T12:46:09Z</time>
      </trkpt>
      <trkpt lat="44.0871" lon="3.17234">
        <ele>662.4</ele>
        <time>2019-05-31T12:46:11Z</time>
      </trkpt>
      <trkpt lat="44.0871" lon="3.1723">
        <ele>662.2</ele>
        <time>2019-05-31T12:46:12Z</time>
      </trkpt>
      <trkpt lat="44.08708" lon="3.17225">
        <ele>661.9</ele>
        <time>2019-05-31T12:46:14Z</time>
      </trkpt>
      <trkpt lat="44.08706" lon="3.17223">
        <ele>661.6</ele>
        <time>2019-05-31T12:46:17Z</time>
      </trkpt>
      <trkpt lat="44.08705" lon="3.17218">
        <ele>661.3</ele>
        <time>2019-05-31T12:46:20Z</time>
      </trkpt>
      <trkpt lat="44.08703" lon="3.17214">
        <ele>661.1</ele>
        <time>2019-05-31T12:46:22Z</time>
      </trkpt>
      <trkpt lat="44.08702" lon="3.1721">
        <ele>660.8</ele>
        <time>2019-05-31T12:46:24Z</time>
      </trkpt>
      <trkpt lat="44.08702" lon="3.17206">
        <ele>660.5</ele>
        <time>2019-05-31T12:46:26Z</time>
      </trkpt>
      <trkpt lat="44.08701" lon="3.17202">
        <ele>660.2</ele>
        <time>2019-05-31T12:46:29Z</time>
      </trkpt>
      <trkpt lat="44.08702" lon="3.17199">
        <ele>659.9</ele>
        <time>2019-05-31T12:46:31Z</time>
      </trkpt>
      <trkpt lat="44.08702" lon="3.17194">
        <ele>659.7</ele>
        <time>2019-05-31T12:46:33Z</time>
      </trkpt>
      <trkpt lat="44.08702" lon="3.1719">
        <ele>659.4</ele>
        <time>2019-05-31T12:46:35Z</time>
      </trkpt>
      <trkpt lat="44.08702" lon="3.17186">
        <ele>659.1</ele>
        <time>2019-05-31T12:46:37Z</time>
      </trkpt>
      <trkpt lat="44.08702" lon="3.17181">
        <ele>659</ele>
        <time>2019-05-31T12:46:39Z</time>
      </trkpt>
      <trkpt lat="44.08703" lon="3.17175">
        <ele>658.8</ele>
        <time>2019-05-31T12:46:41Z</time>
      </trkpt>
      <trkpt lat="44.08704" lon="3.17169">
        <ele>658.5</ele>
        <time>2019-05-31T12:46:43Z</time>
      </trkpt>
      <trkpt lat="44.08704" lon="3.17165">
        <ele>658.3</ele>
        <time>2019-05-31T12:46:46Z</time>
      </trkpt>
      <trkpt lat="44.08706" lon="3.17161">
        <ele>658</ele>
        <time>2019-05-31T12:46:48Z</time>
      </trkpt>
      <trkpt lat="44.08707" lon="3.17157">
        <ele>657.6</ele>
        <time>2019-05-31T12:46:50Z</time>
      </trkpt>
      <trkpt lat="44.08707" lon="3.17152">
        <ele>657.1</ele>
        <time>2019-05-31T12:46:53Z</time>
      </trkpt>
      <trkpt lat="44.08708" lon="3.17147">
        <ele>656.8</ele>
        <time>2019-05-31T12:46:55Z</time>
      </trkpt>
      <trkpt lat="44.08708" lon="3.17144">
        <ele>656.4</ele>
        <time>2019-05-31T12:46:57Z</time>
      </trkpt>
      <trkpt lat="44.08709" lon="3.1714">
        <ele>656</ele>
        <time>2019-05-31T12:46:59Z</time>
      </trkpt>
      <trkpt lat="44.0871" lon="3.17135">
        <ele>655.6</ele>
        <time>2019-05-31T12:47:01Z</time>
      </trkpt>
      <trkpt lat="44.08711" lon="3.17131">
        <ele>655.3</ele>
        <time>2019-05-31T12:47:04Z</time>
      </trkpt>
      <trkpt lat="44.08712" lon="3.17125">
        <ele>654.9</ele>
        <time>2019-05-31T12:47:07Z</time>
      </trkpt>
      <trkpt lat="44.08712" lon="3.17121">
        <ele>654.6</ele>
        <time>2019-05-31T12:47:09Z</time>
      </trkpt>
      <trkpt lat="44.08712" lon="3.17117">
        <ele>654.2</ele>
        <time>2019-05-31T12:47:11Z</time>
      </trkpt>
      <trkpt lat="44.08712" lon="3.17113">
        <ele>653.9</ele>
        <time>2019-05-31T12:47:13Z</time>
      </trkpt>
      <trkpt lat="44.08713" lon="3.17109">
        <ele>653.8</ele>
        <time>2019-05-31T12:47:17Z</time>
      </trkpt>
      <trkpt lat="44.08715" lon="3.17105">
        <ele>653.7</ele>
        <time>2019-05-31T12:47:19Z</time>
      </trkpt>
      <trkpt lat="44.08716" lon="3.171">
        <ele>653.8</ele>
        <time>2019-05-31T12:47:21Z</time>
      </trkpt>
      <trkpt lat="44.08717" lon="3.17093">
        <ele>653.9</ele>
        <time>2019-05-31T12:47:23Z</time>
      </trkpt>
      <trkpt lat="44.08716" lon="3.17086">
        <ele>653.8</ele>
        <time>2019-05-31T12:47:25Z</time>
      </trkpt>
      <trkpt lat="44.08717" lon="3.17079">
        <ele>653.5</ele>
        <time>2019-05-31T12:47:27Z</time>
      </trkpt>
      <trkpt lat="44.08718" lon="3.17073">
        <ele>653.3</ele>
        <time>2019-05-31T12:47:29Z</time>
      </trkpt>
      <trkpt lat="44.08716" lon="3.17069">
        <ele>653.3</ele>
        <time>2019-05-31T12:47:31Z</time>
      </trkpt>
      <trkpt lat="44.08712" lon="3.17065">
        <ele>654.4</ele>
        <time>2019-05-31T12:47:33Z</time>
      </trkpt>
      <trkpt lat="44.0871" lon="3.17063">
        <ele>655.1</ele>
        <time>2019-05-31T12:47:34Z</time>
      </trkpt>
      <trkpt lat="44.08706" lon="3.17062">
        <ele>655.9</ele>
        <time>2019-05-31T12:47:36Z</time>
      </trkpt>
      <trkpt lat="44.08702" lon="3.1706">
        <ele>656.8</ele>
        <time>2019-05-31T12:47:39Z</time>
      </trkpt>
      <trkpt lat="44.08698" lon="3.17059">
        <ele>657.8</ele>
        <time>2019-05-31T12:47:41Z</time>
      </trkpt>
      <trkpt lat="44.08694" lon="3.17059">
        <ele>658.9</ele>
        <time>2019-05-31T12:47:43Z</time>
      </trkpt>
      <trkpt lat="44.08691" lon="3.17058">
        <ele>659.9</ele>
        <time>2019-05-31T12:47:45Z</time>
      </trkpt>
      <trkpt lat="44.08688" lon="3.17056">
        <ele>660.9</ele>
        <time>2019-05-31T12:47:47Z</time>
      </trkpt>
      <trkpt lat="44.08685" lon="3.17054">
        <ele>662.2</ele>
        <time>2019-05-31T12:47:49Z</time>
      </trkpt>
      <trkpt lat="44.0868" lon="3.17053">
        <ele>663.9</ele>
        <time>2019-05-31T12:47:51Z</time>
      </trkpt>
      <trkpt lat="44.08677" lon="3.17052">
        <ele>665</ele>
        <time>2019-05-31T12:47:52Z</time>
      </trkpt>
      <trkpt lat="44.08674" lon="3.1705">
        <ele>666.3</ele>
        <time>2019-05-31T12:47:53Z</time>
      </trkpt>
      <trkpt lat="44.08671" lon="3.17048">
        <ele>667.4</ele>
        <time>2019-05-31T12:47:54Z</time>
      </trkpt>
      <trkpt lat="44.08666" lon="3.17045">
        <ele>668.8</ele>
        <time>2019-05-31T12:47:56Z</time>
      </trkpt>
      <trkpt lat="44.08663" lon="3.17043">
        <ele>669.8</ele>
        <time>2019-05-31T12:47:58Z</time>
      </trkpt>
      <trkpt lat="44.08659" lon="3.17039">
        <ele>671</ele>
        <time>2019-05-31T12:48:00Z</time>
      </trkpt>
      <trkpt lat="44.08657" lon="3.17037">
        <ele>671.7</ele>
        <time>2019-05-31T12:48:01Z</time>
      </trkpt>
      <trkpt lat="44.08654" lon="3.17033">
        <ele>673.1</ele>
        <time>2019-05-31T12:48:02Z</time>
      </trkpt>
      <trkpt lat="44.08651" lon="3.1703">
        <ele>674.6</ele>
        <time>2019-05-31T12:48:03Z</time>
      </trkpt>
      <trkpt lat="44.08649" lon="3.17027">
        <ele>675.7</ele>
        <time>2019-05-31T12:48:04Z</time>
      </trkpt>
      <trkpt lat="44.08647" lon="3.17025">
        <ele>676.5</ele>
        <time>2019-05-31T12:48:05Z</time>
      </trkpt>
      <trkpt lat="44.08639" lon="3.17019">
        <ele>679.2</ele>
        <time>2019-05-31T12:48:06Z</time>
      </trkpt>
      <trkpt lat="44.08637" lon="3.17016">
        <ele>680.1</ele>
        <time>2019-05-31T12:48:07Z</time>
      </trkpt>
      <trkpt lat="44.08636" lon="3.17012">
        <ele>681.3</ele>
        <time>2019-05-31T12:48:08Z</time>
      </trkpt>
      <trkpt lat="44.0863" lon="3.17007">
        <ele>683.3</ele>
        <time>2019-05-31T12:48:09Z</time>
      </trkpt>
      <trkpt lat="44.08624" lon="3.17004">
        <ele>685.5</ele>
        <time>2019-05-31T12:48:10Z</time>
      </trkpt>
      <trkpt lat="44.08621" lon="3.17003">
        <ele>692</ele>
        <time>2019-05-31T12:48:16Z</time>
      </trkpt>
      <trkpt lat="44.08624" lon="3.17003">
        <ele>692.4</ele>
        <time>2019-05-31T12:48:19Z</time>
      </trkpt>
      <trkpt lat="44.08626" lon="3.17002">
        <ele>692.7</ele>
        <time>2019-05-31T12:48:21Z</time>
      </trkpt>
      <trkpt lat="44.08629" lon="3.16998">
        <ele>693.1</ele>
        <time>2019-05-31T12:48:23Z</time>
      </trkpt>
      <trkpt lat="44.08633" lon="3.16995">
        <ele>693.6</ele>
        <time>2019-05-31T12:48:25Z</time>
      </trkpt>
      <trkpt lat="44.08636" lon="3.1699">
        <ele>694</ele>
        <time>2019-05-31T12:48:27Z</time>
      </trkpt>
      <trkpt lat="44.08639" lon="3.16988">
        <ele>694.4</ele>
        <time>2019-05-31T12:48:29Z</time>
      </trkpt>
      <trkpt lat="44.08643" lon="3.16986">
        <ele>694.8</ele>
        <time>2019-05-31T12:48:31Z</time>
      </trkpt>
      <trkpt lat="44.08647" lon="3.16985">
        <ele>695.3</ele>
        <time>2019-05-31T12:48:33Z</time>
      </trkpt>
      <trkpt lat="44.0865" lon="3.16982">
        <ele>695.8</ele>
        <time>2019-05-31T12:48:36Z</time>
      </trkpt>
      <trkpt lat="44.08653" lon="3.16979">
        <ele>696.1</ele>
        <time>2019-05-31T12:48:38Z</time>
      </trkpt>
      <trkpt lat="44.08655" lon="3.16974">
        <ele>696.6</ele>
        <time>2019-05-31T12:48:40Z</time>
      </trkpt>
      <trkpt lat="44.08658" lon="3.16969">
        <ele>697</ele>
        <time>2019-05-31T12:48:42Z</time>
      </trkpt>
      <trkpt lat="44.0866" lon="3.16966">
        <ele>697.3</ele>
        <time>2019-05-31T12:48:44Z</time>
      </trkpt>
      <trkpt lat="44.08664" lon="3.16964">
        <ele>697.7</ele>
        <time>2019-05-31T12:48:47Z</time>
      </trkpt>
      <trkpt lat="44.08667" lon="3.16962">
        <ele>698.1</ele>
        <time>2019-05-31T12:48:49Z</time>
      </trkpt>
      <trkpt lat="44.0867" lon="3.16959">
        <ele>698.6</ele>
        <time>2019-05-31T12:48:52Z</time>
      </trkpt>
      <trkpt lat="44.08673" lon="3.16958">
        <ele>698.9</ele>
        <time>2019-05-31T12:48:55Z</time>
      </trkpt>
      <trkpt lat="44.08676" lon="3.16955">
        <ele>699.2</ele>
        <time>2019-05-31T12:48:57Z</time>
      </trkpt>
      <trkpt lat="44.08678" lon="3.16953">
        <ele>699.5</ele>
        <time>2019-05-31T12:48:59Z</time>
      </trkpt>
      <trkpt lat="44.0868" lon="3.16948">
        <ele>699.8</ele>
        <time>2019-05-31T12:49:01Z</time>
      </trkpt>
      <trkpt lat="44.08681" lon="3.16943">
        <ele>700.1</ele>
        <time>2019-05-31T12:49:03Z</time>
      </trkpt>
      <trkpt lat="44.08682" lon="3.16938">
        <ele>700.4</ele>
        <time>2019-05-31T12:49:05Z</time>
      </trkpt>
      <trkpt lat="44.08683" lon="3.16933">
        <ele>700.6</ele>
        <time>2019-05-31T12:49:07Z</time>
      </trkpt>
      <trkpt lat="44.08685" lon="3.16928">
        <ele>700.9</ele>
        <time>2019-05-31T12:49:10Z</time>
      </trkpt>
      <trkpt lat="44.08686" lon="3.16924">
        <ele>701.2</ele>
        <time>2019-05-31T12:49:13Z</time>
      </trkpt>
      <trkpt lat="44.08687" lon="3.16919">
        <ele>701.5</ele>
        <time>2019-05-31T12:49:16Z</time>
      </trkpt>
      <trkpt lat="44.0869" lon="3.16912">
        <ele>701.9</ele>
        <time>2019-05-31T12:49:18Z</time>
      </trkpt>
      <trkpt lat="44.08691" lon="3.16908">
        <ele>702.1</ele>
        <time>2019-05-31T12:49:19Z</time>
      </trkpt>
      <trkpt lat="44.08691" lon="3.16901">
        <ele>702.4</ele>
        <time>2019-05-31T12:49:21Z</time>
      </trkpt>
      <trkpt lat="44.08692" lon="3.16894">
        <ele>702.8</ele>
        <time>2019-05-31T12:49:23Z</time>
      </trkpt>
      <trkpt lat="44.08692" lon="3.16889">
        <ele>703</ele>
        <time>2019-05-31T12:49:25Z</time>
      </trkpt>
      <trkpt lat="44.08693" lon="3.16884">
        <ele>703.3</ele>
        <time>2019-05-31T12:49:29Z</time>
      </trkpt>
      <trkpt lat="44.08692" lon="3.16878">
        <ele>703.5</ele>
        <time>2019-05-31T12:49:31Z</time>
      </trkpt>
      <trkpt lat="44.08691" lon="3.16874">
        <ele>703.7</ele>
        <time>2019-05-31T12:49:33Z</time>
      </trkpt>
      <trkpt lat="44.08691" lon="3.16868">
        <ele>704</ele>
        <time>2019-05-31T12:49:35Z</time>
      </trkpt>
      <trkpt lat="44.0869" lon="3.16863">
        <ele>704.3</ele>
        <time>2019-05-31T12:49:37Z</time>
      </trkpt>
      <trkpt lat="44.08691" lon="3.16859">
        <ele>704.5</ele>
        <time>2019-05-31T12:49:39Z</time>
      </trkpt>
      <trkpt lat="44.08692" lon="3.16853">
        <ele>704.7</ele>
        <time>2019-05-31T12:49:41Z</time>
      </trkpt>
      <trkpt lat="44.08693" lon="3.16847">
        <ele>705</ele>
        <time>2019-05-31T12:49:43Z</time>
      </trkpt>
      <trkpt lat="44.08694" lon="3.16842">
        <ele>705.2</ele>
        <time>2019-05-31T12:49:45Z</time>
      </trkpt>
      <trkpt lat="44.08697" lon="3.16836">
        <ele>705.5</ele>
        <time>2019-05-31T12:49:47Z</time>
      </trkpt>
      <trkpt lat="44.08698" lon="3.1683">
        <ele>705.7</ele>
        <time>2019-05-31T12:49:49Z</time>
      </trkpt>
      <trkpt lat="44.08697" lon="3.16823">
        <ele>705.9</ele>
        <time>2019-05-31T12:49:51Z</time>
      </trkpt>
      <trkpt lat="44.08696" lon="3.16817">
        <ele>706.1</ele>
        <time>2019-05-31T12:49:53Z</time>
      </trkpt>
      <trkpt lat="44.08695" lon="3.16813">
        <ele>706.3</ele>
        <time>2019-05-31T12:49:54Z</time>
      </trkpt>
      <trkpt lat="44.08695" lon="3.16809">
        <ele>706.4</ele>
        <time>2019-05-31T12:49:55Z</time>
      </trkpt>
      <trkpt lat="44.08693" lon="3.16802">
        <ele>706.7</ele>
        <time>2019-05-31T12:49:57Z</time>
      </trkpt>
      <trkpt lat="44.08693" lon="3.16797">
        <ele>706.9</ele>
        <time>2019-05-31T12:49:58Z</time>
      </trkpt>
      <trkpt lat="44.08692" lon="3.16793">
        <ele>707.1</ele>
        <time>2019-05-31T12:49:59Z</time>
      </trkpt>
      <trkpt lat="44.08691" lon="3.16787">
        <ele>707.3</ele>
        <time>2019-05-31T12:50:01Z</time>
      </trkpt>
      <trkpt lat="44.08688" lon="3.16781">
        <ele>707.6</ele>
        <time>2019-05-31T12:50:03Z</time>
      </trkpt>
      <trkpt lat="44.08687" lon="3.16777">
        <ele>707.7</ele>
        <time>2019-05-31T12:50:05Z</time>
      </trkpt>
      <trkpt lat="44.08684" lon="3.16772">
        <ele>708</ele>
        <time>2019-05-31T12:50:07Z</time>
      </trkpt>
      <trkpt lat="44.08684" lon="3.16767">
        <ele>708.2</ele>
        <time>2019-05-31T12:50:09Z</time>
      </trkpt>
      <trkpt lat="44.08685" lon="3.16762">
        <ele>708.4</ele>
        <time>2019-05-31T12:50:11Z</time>
      </trkpt>
      <trkpt lat="44.08685" lon="3.16757">
        <ele>708.6</ele>
        <time>2019-05-31T12:50:13Z</time>
      </trkpt>
      <trkpt lat="44.08686" lon="3.16751">
        <ele>708.9</ele>
        <time>2019-05-31T12:50:15Z</time>
      </trkpt>
      <trkpt lat="44.08688" lon="3.16746">
        <ele>709.1</ele>
        <time>2019-05-31T12:50:17Z</time>
      </trkpt>
      <trkpt lat="44.08689" lon="3.1674">
        <ele>709.4</ele>
        <time>2019-05-31T12:50:20Z</time>
      </trkpt>
      <trkpt lat="44.0869" lon="3.16737">
        <ele>709.6</ele>
        <time>2019-05-31T12:50:22Z</time>
      </trkpt>
      <trkpt lat="44.0869" lon="3.16733">
        <ele>709.8</ele>
        <time>2019-05-31T12:50:24Z</time>
      </trkpt>
      <trkpt lat="44.08688" lon="3.16729">
        <ele>709.9</ele>
        <time>2019-05-31T12:50:26Z</time>
      </trkpt>
      <trkpt lat="44.08688" lon="3.16723">
        <ele>710.2</ele>
        <time>2019-05-31T12:50:28Z</time>
      </trkpt>
      <trkpt lat="44.08687" lon="3.16718">
        <ele>710.4</ele>
        <time>2019-05-31T12:50:30Z</time>
      </trkpt>
      <trkpt lat="44.08686" lon="3.16712">
        <ele>710.7</ele>
        <time>2019-05-31T12:50:32Z</time>
      </trkpt>
      <trkpt lat="44.08685" lon="3.16707">
        <ele>711</ele>
        <time>2019-05-31T12:50:34Z</time>
      </trkpt>
      <trkpt lat="44.08683" lon="3.16702">
        <ele>711.3</ele>
        <time>2019-05-31T12:50:36Z</time>
      </trkpt>
      <trkpt lat="44.08683" lon="3.16697">
        <ele>711.5</ele>
        <time>2019-05-31T12:50:38Z</time>
      </trkpt>
      <trkpt lat="44.08683" lon="3.16692">
        <ele>711.8</ele>
        <time>2019-05-31T12:50:40Z</time>
      </trkpt>
      <trkpt lat="44.08683" lon="3.16688">
        <ele>712</ele>
        <time>2019-05-31T12:50:42Z</time>
      </trkpt>
      <trkpt lat="44.08684" lon="3.16684">
        <ele>712.1</ele>
        <time>2019-05-31T12:50:44Z</time>
      </trkpt>
      <trkpt lat="44.08683" lon="3.16679">
        <ele>712.2</ele>
        <time>2019-05-31T12:50:47Z</time>
      </trkpt>
      <trkpt lat="44.08684" lon="3.16673">
        <ele>712.4</ele>
        <time>2019-05-31T12:50:49Z</time>
      </trkpt>
      <trkpt lat="44.08685" lon="3.16668">
        <ele>712.5</ele>
        <time>2019-05-31T12:50:52Z</time>
      </trkpt>
      <trkpt lat="44.08685" lon="3.16664">
        <ele>712.6</ele>
        <time>2019-05-31T12:50:54Z</time>
      </trkpt>
      <trkpt lat="44.08686" lon="3.1666">
        <ele>712.7</ele>
        <time>2019-05-31T12:50:55Z</time>
      </trkpt>
      <trkpt lat="44.08687" lon="3.16657">
        <ele>712.8</ele>
        <time>2019-05-31T12:50:56Z</time>
      </trkpt>
      <trkpt lat="44.08689" lon="3.1665">
        <ele>713</ele>
        <time>2019-05-31T12:50:58Z</time>
      </trkpt>
      <trkpt lat="44.08691" lon="3.16644">
        <ele>713.1</ele>
        <time>2019-05-31T12:51:00Z</time>
      </trkpt>
      <trkpt lat="44.08693" lon="3.16638">
        <ele>713.2</ele>
        <time>2019-05-31T12:51:02Z</time>
      </trkpt>
      <trkpt lat="44.08694" lon="3.16632">
        <ele>713.4</ele>
        <time>2019-05-31T12:51:04Z</time>
      </trkpt>
      <trkpt lat="44.08696" lon="3.16625">
        <ele>713.5</ele>
        <time>2019-05-31T12:51:06Z</time>
      </trkpt>
      <trkpt lat="44.08698" lon="3.16621">
        <ele>713.6</ele>
        <time>2019-05-31T12:51:07Z</time>
      </trkpt>
      <trkpt lat="44.08699" lon="3.16615">
        <ele>713.8</ele>
        <time>2019-05-31T12:51:09Z</time>
      </trkpt>
      <trkpt lat="44.08701" lon="3.1661">
        <ele>714</ele>
        <time>2019-05-31T12:51:11Z</time>
      </trkpt>
      <trkpt lat="44.08701" lon="3.16606">
        <ele>714.1</ele>
        <time>2019-05-31T12:51:12Z</time>
      </trkpt>
      <trkpt lat="44.08701" lon="3.16601">
        <ele>714.2</ele>
        <time>2019-05-31T12:51:14Z</time>
      </trkpt>
      <trkpt lat="44.08702" lon="3.16595">
        <ele>714.3</ele>
        <time>2019-05-31T12:51:16Z</time>
      </trkpt>
      <trkpt lat="44.08702" lon="3.16591">
        <ele>714.5</ele>
        <time>2019-05-31T12:51:17Z</time>
      </trkpt>
      <trkpt lat="44.08704" lon="3.16583">
        <ele>714.7</ele>
        <time>2019-05-31T12:51:19Z</time>
      </trkpt>
      <trkpt lat="44.08705" lon="3.1658">
        <ele>714.8</ele>
        <time>2019-05-31T12:51:20Z</time>
      </trkpt>
      <trkpt lat="44.08707" lon="3.16574">
        <ele>714.9</ele>
        <time>2019-05-31T12:51:22Z</time>
      </trkpt>
      <trkpt lat="44.08708" lon="3.16569">
        <ele>715.1</ele>
        <time>2019-05-31T12:51:23Z</time>
      </trkpt>
      <trkpt lat="44.08709" lon="3.16562">
        <ele>715.2</ele>
        <time>2019-05-31T12:51:24Z</time>
      </trkpt>
      <trkpt lat="44.08709" lon="3.16557">
        <ele>715.4</ele>
        <time>2019-05-31T12:51:25Z</time>
      </trkpt>
      <trkpt lat="44.08709" lon="3.1655">
        <ele>715.6</ele>
        <time>2019-05-31T12:51:26Z</time>
      </trkpt>
      <trkpt lat="44.0871" lon="3.16545">
        <ele>715.7</ele>
        <time>2019-05-31T12:51:27Z</time>
      </trkpt>
      <trkpt lat="44.08711" lon="3.1654">
        <ele>715.8</ele>
        <time>2019-05-31T12:51:28Z</time>
      </trkpt>
      <trkpt lat="44.08711" lon="3.16536">
        <ele>715.9</ele>
        <time>2019-05-31T12:51:29Z</time>
      </trkpt>
      <trkpt lat="44.08711" lon="3.16531">
        <ele>716</ele>
        <time>2019-05-31T12:51:30Z</time>
      </trkpt>
      <trkpt lat="44.08711" lon="3.16526">
        <ele>716.1</ele>
        <time>2019-05-31T12:51:31Z</time>
      </trkpt>
      <trkpt lat="44.08711" lon="3.16521">
        <ele>716.2</ele>
        <time>2019-05-31T12:51:32Z</time>
      </trkpt>
      <trkpt lat="44.08711" lon="3.16517">
        <ele>716.3</ele>
        <time>2019-05-31T12:51:33Z</time>
      </trkpt>
      <trkpt lat="44.08712" lon="3.1651">
        <ele>716.6</ele>
        <time>2019-05-31T12:51:35Z</time>
      </trkpt>
      <trkpt lat="44.08712" lon="3.16505">
        <ele>716.8</ele>
        <time>2019-05-31T12:51:37Z</time>
      </trkpt>
      <trkpt lat="44.08715" lon="3.16502">
        <ele>717</ele>
        <time>2019-05-31T12:51:39Z</time>
      </trkpt>
      <trkpt lat="44.08718" lon="3.16501">
        <ele>717.2</ele>
        <time>2019-05-31T12:51:41Z</time>
      </trkpt>
      <trkpt lat="44.08721" lon="3.16501">
        <ele>717.5</ele>
        <time>2019-05-31T12:51:43Z</time>
      </trkpt>
      <trkpt lat="44.08725" lon="3.16499">
        <ele>717.8</ele>
        <time>2019-05-31T12:51:45Z</time>
      </trkpt>
      <trkpt lat="44.0873" lon="3.16498">
        <ele>718.1</ele>
        <time>2019-05-31T12:51:47Z</time>
      </trkpt>
      <trkpt lat="44.08733" lon="3.16497">
        <ele>718.4</ele>
        <time>2019-05-31T12:51:49Z</time>
      </trkpt>
      <trkpt lat="44.08736" lon="3.16494">
        <ele>718.8</ele>
        <time>2019-05-31T12:51:52Z</time>
      </trkpt>
      <trkpt lat="44.08738" lon="3.16493">
        <ele>719</ele>
        <time>2019-05-31T12:51:54Z</time>
      </trkpt>
      <trkpt lat="44.08742" lon="3.16492">
        <ele>719.3</ele>
        <time>2019-05-31T12:51:56Z</time>
      </trkpt>
      <trkpt lat="44.08745" lon="3.16493">
        <ele>719.5</ele>
        <time>2019-05-31T12:51:58Z</time>
      </trkpt>
      <trkpt lat="44.08749" lon="3.16491">
        <ele>719.7</ele>
        <time>2019-05-31T12:52:01Z</time>
      </trkpt>
      <trkpt lat="44.08752" lon="3.16489">
        <ele>720</ele>
        <time>2019-05-31T12:52:03Z</time>
      </trkpt>
      <trkpt lat="44.08756" lon="3.16487">
        <ele>720.2</ele>
        <time>2019-05-31T12:52:05Z</time>
      </trkpt>
      <trkpt lat="44.0876" lon="3.16485">
        <ele>720.4</ele>
        <time>2019-05-31T12:52:07Z</time>
      </trkpt>
      <trkpt lat="44.08764" lon="3.16483">
        <ele>720.7</ele>
        <time>2019-05-31T12:52:09Z</time>
      </trkpt>
      <trkpt lat="44.08767" lon="3.16479">
        <ele>720.9</ele>
        <time>2019-05-31T12:52:11Z</time>
      </trkpt>
      <trkpt lat="44.08771" lon="3.16476">
        <ele>721.1</ele>
        <time>2019-05-31T12:52:13Z</time>
      </trkpt>
      <trkpt lat="44.08774" lon="3.16473">
        <ele>721.3</ele>
        <time>2019-05-31T12:52:14Z</time>
      </trkpt>
      <trkpt lat="44.08777" lon="3.16471">
        <ele>721.4</ele>
        <time>2019-05-31T12:52:15Z</time>
      </trkpt>
      <trkpt lat="44.08782" lon="3.16467">
        <ele>721.7</ele>
        <time>2019-05-31T12:52:17Z</time>
      </trkpt>
      <trkpt lat="44.08785" lon="3.16465">
        <ele>721.8</ele>
        <time>2019-05-31T12:52:18Z</time>
      </trkpt>
      <trkpt lat="44.08787" lon="3.16463">
        <ele>721.9</ele>
        <time>2019-05-31T12:52:19Z</time>
      </trkpt>
      <trkpt lat="44.08792" lon="3.16461">
        <ele>722.1</ele>
        <time>2019-05-31T12:52:21Z</time>
      </trkpt>
      <trkpt lat="44.08794" lon="3.1646">
        <ele>722.2</ele>
        <time>2019-05-31T12:52:22Z</time>
      </trkpt>
      <trkpt lat="44.08798" lon="3.16457">
        <ele>722.4</ele>
        <time>2019-05-31T12:52:24Z</time>
      </trkpt>
      <trkpt lat="44.08802" lon="3.16452">
        <ele>722.7</ele>
        <time>2019-05-31T12:52:26Z</time>
      </trkpt>
      <trkpt lat="44.08804" lon="3.16449">
        <ele>722.9</ele>
        <time>2019-05-31T12:52:28Z</time>
      </trkpt>
      <trkpt lat="44.08807" lon="3.16446">
        <ele>723.1</ele>
        <time>2019-05-31T12:52:30Z</time>
      </trkpt>
      <trkpt lat="44.08811" lon="3.16442">
        <ele>723.3</ele>
        <time>2019-05-31T12:52:33Z</time>
      </trkpt>
      <trkpt lat="44.08813" lon="3.16438">
        <ele>723.5</ele>
        <time>2019-05-31T12:52:35Z</time>
      </trkpt>
      <trkpt lat="44.08815" lon="3.16435">
        <ele>723.6</ele>
        <time>2019-05-31T12:52:37Z</time>
      </trkpt>
      <trkpt lat="44.08817" lon="3.16428">
        <ele>723.8</ele>
        <time>2019-05-31T12:52:39Z</time>
      </trkpt>
      <trkpt lat="44.0882" lon="3.16423">
        <ele>724</ele>
        <time>2019-05-31T12:52:41Z</time>
      </trkpt>
      <trkpt lat="44.08823" lon="3.1642">
        <ele>724.1</ele>
        <time>2019-05-31T12:52:43Z</time>
      </trkpt>
      <trkpt lat="44.08827" lon="3.16416">
        <ele>724.3</ele>
        <time>2019-05-31T12:52:45Z</time>
      </trkpt>
      <trkpt lat="44.08829" lon="3.16413">
        <ele>724.4</ele>
        <time>2019-05-31T12:52:46Z</time>
      </trkpt>
      <trkpt lat="44.08831" lon="3.16411">
        <ele>724.5</ele>
        <time>2019-05-31T12:52:47Z</time>
      </trkpt>
      <trkpt lat="44.08835" lon="3.16409">
        <ele>724.7</ele>
        <time>2019-05-31T12:52:49Z</time>
      </trkpt>
      <trkpt lat="44.08838" lon="3.16405">
        <ele>724.9</ele>
        <time>2019-05-31T12:52:51Z</time>
      </trkpt>
      <trkpt lat="44.0884" lon="3.16402">
        <ele>725</ele>
        <time>2019-05-31T12:52:52Z</time>
      </trkpt>
      <trkpt lat="44.08844" lon="3.16398">
        <ele>725.2</ele>
        <time>2019-05-31T12:52:54Z</time>
      </trkpt>
      <trkpt lat="44.08845" lon="3.16394">
        <ele>725.3</ele>
        <time>2019-05-31T12:52:55Z</time>
      </trkpt>
      <trkpt lat="44.08847" lon="3.1639">
        <ele>725.4</ele>
        <time>2019-05-31T12:52:56Z</time>
      </trkpt>
      <trkpt lat="44.08849" lon="3.16384">
        <ele>725.6</ele>
        <time>2019-05-31T12:52:58Z</time>
      </trkpt>
      <trkpt lat="44.08851" lon="3.16378">
        <ele>725.8</ele>
        <time>2019-05-31T12:53:00Z</time>
      </trkpt>
      <trkpt lat="44.08853" lon="3.16372">
        <ele>726</ele>
        <time>2019-05-31T12:53:02Z</time>
      </trkpt>
      <trkpt lat="44.08854" lon="3.16368">
        <ele>726.2</ele>
        <time>2019-05-31T12:53:03Z</time>
      </trkpt>
      <trkpt lat="44.08854" lon="3.16362">
        <ele>726.5</ele>
        <time>2019-05-31T12:53:05Z</time>
      </trkpt>
      <trkpt lat="44.08856" lon="3.16357">
        <ele>726.7</ele>
        <time>2019-05-31T12:53:07Z</time>
      </trkpt>
      <trkpt lat="44.08857" lon="3.16351">
        <ele>726.9</ele>
        <time>2019-05-31T12:53:09Z</time>
      </trkpt>
      <trkpt lat="44.0886" lon="3.16346">
        <ele>727.2</ele>
        <time>2019-05-31T12:53:11Z</time>
      </trkpt>
      <trkpt lat="44.08863" lon="3.16341">
        <ele>727.4</ele>
        <time>2019-05-31T12:53:13Z</time>
      </trkpt>
      <trkpt lat="44.08865" lon="3.16336">
        <ele>727.6</ele>
        <time>2019-05-31T12:53:15Z</time>
      </trkpt>
      <trkpt lat="44.08866" lon="3.1633">
        <ele>727.7</ele>
        <time>2019-05-31T12:53:17Z</time>
      </trkpt>
      <trkpt lat="44.08868" lon="3.16325">
        <ele>727.9</ele>
        <time>2019-05-31T12:53:19Z</time>
      </trkpt>
      <trkpt lat="44.0887" lon="3.16321">
        <ele>728.1</ele>
        <time>2019-05-31T12:53:21Z</time>
      </trkpt>
      <trkpt lat="44.08873" lon="3.16316">
        <ele>728.3</ele>
        <time>2019-05-31T12:53:23Z</time>
      </trkpt>
      <trkpt lat="44.08874" lon="3.1631">
        <ele>728.5</ele>
        <time>2019-05-31T12:53:25Z</time>
      </trkpt>
      <trkpt lat="44.08875" lon="3.16303">
        <ele>728.6</ele>
        <time>2019-05-31T12:53:27Z</time>
      </trkpt>
      <trkpt lat="44.08876" lon="3.16297">
        <ele>728.9</ele>
        <time>2019-05-31T12:53:29Z</time>
      </trkpt>
      <trkpt lat="44.08876" lon="3.16292">
        <ele>729</ele>
        <time>2019-05-31T12:53:31Z</time>
      </trkpt>
      <trkpt lat="44.08876" lon="3.16287">
        <ele>729.1</ele>
        <time>2019-05-31T12:53:33Z</time>
      </trkpt>
      <trkpt lat="44.08876" lon="3.16282">
        <ele>729.2</ele>
        <time>2019-05-31T12:53:34Z</time>
      </trkpt>
      <trkpt lat="44.08875" lon="3.16276">
        <ele>729.3</ele>
        <time>2019-05-31T12:53:36Z</time>
      </trkpt>
      <trkpt lat="44.08875" lon="3.16268">
        <ele>729.5</ele>
        <time>2019-05-31T12:53:38Z</time>
      </trkpt>
      <trkpt lat="44.08876" lon="3.16265">
        <ele>729.5</ele>
        <time>2019-05-31T12:53:39Z</time>
      </trkpt>
      <trkpt lat="44.08877" lon="3.16261">
        <ele>729.6</ele>
        <time>2019-05-31T12:53:40Z</time>
      </trkpt>
      <trkpt lat="44.08877" lon="3.16256">
        <ele>729.6</ele>
        <time>2019-05-31T12:53:41Z</time>
      </trkpt>
      <trkpt lat="44.08877" lon="3.16252">
        <ele>729.7</ele>
        <time>2019-05-31T12:53:42Z</time>
      </trkpt>
      <trkpt lat="44.08877" lon="3.16248">
        <ele>729.7</ele>
        <time>2019-05-31T12:53:43Z</time>
      </trkpt>
      <trkpt lat="44.08878" lon="3.16244">
        <ele>729.7</ele>
        <time>2019-05-31T12:53:44Z</time>
      </trkpt>
      <trkpt lat="44.08878" lon="3.1624">
        <ele>729.8</ele>
        <time>2019-05-31T12:53:45Z</time>
      </trkpt>
      <trkpt lat="44.08879" lon="3.16235">
        <ele>729.8</ele>
        <time>2019-05-31T12:53:46Z</time>
      </trkpt>
      <trkpt lat="44.0888" lon="3.16231">
        <ele>729.8</ele>
        <time>2019-05-31T12:53:47Z</time>
      </trkpt>
      <trkpt lat="44.0888" lon="3.16227">
        <ele>729.7</ele>
        <time>2019-05-31T12:53:48Z</time>
      </trkpt>
      <trkpt lat="44.08882" lon="3.1622">
        <ele>729.7</ele>
        <time>2019-05-31T12:53:50Z</time>
      </trkpt>
      <trkpt lat="44.08883" lon="3.16215">
        <ele>729.6</ele>
        <time>2019-05-31T12:53:51Z</time>
      </trkpt>
      <trkpt lat="44.08884" lon="3.1621">
        <ele>729.5</ele>
        <time>2019-05-31T12:53:52Z</time>
      </trkpt>
      <trkpt lat="44.08884" lon="3.16204">
        <ele>729.4</ele>
        <time>2019-05-31T12:53:53Z</time>
      </trkpt>
      <trkpt lat="44.08884" lon="3.16199">
        <ele>729.3</ele>
        <time>2019-05-31T12:53:54Z</time>
      </trkpt>
      <trkpt lat="44.08883" lon="3.16193">
        <ele>729.2</ele>
        <time>2019-05-31T12:53:55Z</time>
      </trkpt>
      <trkpt lat="44.08882" lon="3.16187">
        <ele>729.1</ele>
        <time>2019-05-31T12:53:56Z</time>
      </trkpt>
      <trkpt lat="44.08881" lon="3.16181">
        <ele>729.1</ele>
        <time>2019-05-31T12:53:57Z</time>
      </trkpt>
      <trkpt lat="44.0888" lon="3.16176">
        <ele>729</ele>
        <time>2019-05-31T12:53:58Z</time>
      </trkpt>
      <trkpt lat="44.0888" lon="3.16171">
        <ele>729</ele>
        <time>2019-05-31T12:53:59Z</time>
      </trkpt>
      <trkpt lat="44.08879" lon="3.16166">
        <ele>729.1</ele>
        <time>2019-05-31T12:54:00Z</time>
      </trkpt>
      <trkpt lat="44.08878" lon="3.16161">
        <ele>729.1</ele>
        <time>2019-05-31T12:54:01Z</time>
      </trkpt>
      <trkpt lat="44.08876" lon="3.16157">
        <ele>729.1</ele>
        <time>2019-05-31T12:54:02Z</time>
      </trkpt>
      <trkpt lat="44.08874" lon="3.16152">
        <ele>729.2</ele>
        <time>2019-05-31T12:54:03Z</time>
      </trkpt>
      <trkpt lat="44.08872" lon="3.16148">
        <ele>729.3</ele>
        <time>2019-05-31T12:54:04Z</time>
      </trkpt>
      <trkpt lat="44.08871" lon="3.16144">
        <ele>729.4</ele>
        <time>2019-05-31T12:54:05Z</time>
      </trkpt>
      <trkpt lat="44.08869" lon="3.1614">
        <ele>729.5</ele>
        <time>2019-05-31T12:54:06Z</time>
      </trkpt>
      <trkpt lat="44.08868" lon="3.16137">
        <ele>729.6</ele>
        <time>2019-05-31T12:54:07Z</time>
      </trkpt>
      <trkpt lat="44.08867" lon="3.16133">
        <ele>729.8</ele>
        <time>2019-05-31T12:54:08Z</time>
      </trkpt>
      <trkpt lat="44.08866" lon="3.1613">
        <ele>730</ele>
        <time>2019-05-31T12:54:09Z</time>
      </trkpt>
      <trkpt lat="44.08865" lon="3.16126">
        <ele>730.3</ele>
        <time>2019-05-31T12:54:10Z</time>
      </trkpt>
      <trkpt lat="44.08864" lon="3.16119">
        <ele>730.8</ele>
        <time>2019-05-31T12:54:12Z</time>
      </trkpt>
      <trkpt lat="44.08863" lon="3.16112">
        <ele>731.2</ele>
        <time>2019-05-31T12:54:14Z</time>
      </trkpt>
      <trkpt lat="44.08864" lon="3.16108">
        <ele>731.4</ele>
        <time>2019-05-31T12:54:16Z</time>
      </trkpt>
      <trkpt lat="44.08865" lon="3.16104">
        <ele>731.6</ele>
        <time>2019-05-31T12:54:21Z</time>
      </trkpt>
      <trkpt lat="44.08867" lon="3.16101">
        <ele>731.8</ele>
        <time>2019-05-31T12:54:25Z</time>
      </trkpt>
      <trkpt lat="44.08871" lon="3.161">
        <ele>732.1</ele>
        <time>2019-05-31T12:54:27Z</time>
      </trkpt>
      <trkpt lat="44.08873" lon="3.16099">
        <ele>732.4</ele>
        <time>2019-05-31T12:54:29Z</time>
      </trkpt>
      <trkpt lat="44.08876" lon="3.16097">
        <ele>732.8</ele>
        <time>2019-05-31T12:54:32Z</time>
      </trkpt>
      <trkpt lat="44.08879" lon="3.16092">
        <ele>733.2</ele>
        <time>2019-05-31T12:54:34Z</time>
      </trkpt>
      <trkpt lat="44.08881" lon="3.16087">
        <ele>733.5</ele>
        <time>2019-05-31T12:54:36Z</time>
      </trkpt>
      <trkpt lat="44.08882" lon="3.16083">
        <ele>733.8</ele>
        <time>2019-05-31T12:54:39Z</time>
      </trkpt>
      <trkpt lat="44.08884" lon="3.16078">
        <ele>734.2</ele>
        <time>2019-05-31T12:56:38Z</time>
      </trkpt>
      <trkpt lat="44.08887" lon="3.16074">
        <ele>734.7</ele>
        <time>2019-05-31T12:56:41Z</time>
      </trkpt>
      <trkpt lat="44.0889" lon="3.1607">
        <ele>734.7</ele>
        <time>2019-05-31T12:56:45Z</time>
      </trkpt>
      <trkpt lat="44.08892" lon="3.16064">
        <ele>734.8</ele>
        <time>2019-05-31T12:56:47Z</time>
      </trkpt>
      <trkpt lat="44.08895" lon="3.16059">
        <ele>735</ele>
        <time>2019-05-31T12:56:49Z</time>
      </trkpt>
      <trkpt lat="44.08897" lon="3.16055">
        <ele>735.2</ele>
        <time>2019-05-31T12:56:51Z</time>
      </trkpt>
      <trkpt lat="44.08899" lon="3.16051">
        <ele>735.3</ele>
        <time>2019-05-31T12:56:53Z</time>
      </trkpt>
      <trkpt lat="44.08901" lon="3.16047">
        <ele>735.4</ele>
        <time>2019-05-31T12:56:56Z</time>
      </trkpt>
      <trkpt lat="44.08902" lon="3.16043">
        <ele>735.7</ele>
        <time>2019-05-31T12:56:58Z</time>
      </trkpt>
      <trkpt lat="44.08904" lon="3.16038">
        <ele>736.3</ele>
        <time>2019-05-31T12:57:00Z</time>
      </trkpt>
      <trkpt lat="44.08906" lon="3.16034">
        <ele>736.7</ele>
        <time>2019-05-31T12:57:02Z</time>
      </trkpt>
      <trkpt lat="44.08908" lon="3.1603">
        <ele>737</ele>
        <time>2019-05-31T12:57:04Z</time>
      </trkpt>
      <trkpt lat="44.08909" lon="3.16026">
        <ele>737.2</ele>
        <time>2019-05-31T12:57:05Z</time>
      </trkpt>
      <trkpt lat="44.08911" lon="3.16022">
        <ele>737.5</ele>
        <time>2019-05-31T12:57:06Z</time>
      </trkpt>
      <trkpt lat="44.08912" lon="3.16018">
        <ele>737.8</ele>
        <time>2019-05-31T12:57:07Z</time>
      </trkpt>
      <trkpt lat="44.08913" lon="3.16013">
        <ele>738.2</ele>
        <time>2019-05-31T12:57:09Z</time>
      </trkpt>
      <trkpt lat="44.08916" lon="3.16007">
        <ele>738.4</ele>
        <time>2019-05-31T12:57:11Z</time>
      </trkpt>
      <trkpt lat="44.08918" lon="3.16002">
        <ele>738.6</ele>
        <time>2019-05-31T12:57:13Z</time>
      </trkpt>
      <trkpt lat="44.0892" lon="3.15998">
        <ele>738.9</ele>
        <time>2019-05-31T12:57:15Z</time>
      </trkpt>
      <trkpt lat="44.08921" lon="3.15994">
        <ele>739.1</ele>
        <time>2019-05-31T12:57:17Z</time>
      </trkpt>
      <trkpt lat="44.08923" lon="3.15989">
        <ele>739.5</ele>
        <time>2019-05-31T12:57:20Z</time>
      </trkpt>
      <trkpt lat="44.08925" lon="3.15984">
        <ele>739.9</ele>
        <time>2019-05-31T12:57:22Z</time>
      </trkpt>
      <trkpt lat="44.08926" lon="3.15978">
        <ele>740.3</ele>
        <time>2019-05-31T12:57:24Z</time>
      </trkpt>
      <trkpt lat="44.08928" lon="3.15973">
        <ele>740.4</ele>
        <time>2019-05-31T12:57:26Z</time>
      </trkpt>
      <trkpt lat="44.08929" lon="3.15967">
        <ele>740.4</ele>
        <time>2019-05-31T12:57:28Z</time>
      </trkpt>
      <trkpt lat="44.08929" lon="3.15959">
        <ele>740.4</ele>
        <time>2019-05-31T12:57:30Z</time>
      </trkpt>
      <trkpt lat="44.08928" lon="3.15952">
        <ele>740.5</ele>
        <time>2019-05-31T12:57:32Z</time>
      </trkpt>
      <trkpt lat="44.08927" lon="3.15949">
        <ele>740.6</ele>
        <time>2019-05-31T12:57:33Z</time>
      </trkpt>
      <trkpt lat="44.08927" lon="3.15941">
        <ele>740.5</ele>
        <time>2019-05-31T12:57:35Z</time>
      </trkpt>
      <trkpt lat="44.08927" lon="3.15935">
        <ele>740.5</ele>
        <time>2019-05-31T12:57:37Z</time>
      </trkpt>
      <trkpt lat="44.08927" lon="3.15929">
        <ele>740.6</ele>
        <time>2019-05-31T12:57:39Z</time>
      </trkpt>
      <trkpt lat="44.08928" lon="3.15923">
        <ele>740.6</ele>
        <time>2019-05-31T12:57:41Z</time>
      </trkpt>
      <trkpt lat="44.0893" lon="3.15917">
        <ele>740.5</ele>
        <time>2019-05-31T12:57:43Z</time>
      </trkpt>
      <trkpt lat="44.08931" lon="3.15911">
        <ele>740.3</ele>
        <time>2019-05-31T12:57:45Z</time>
      </trkpt>
      <trkpt lat="44.08933" lon="3.15905">
        <ele>740</ele>
        <time>2019-05-31T12:57:47Z</time>
      </trkpt>
      <trkpt lat="44.08935" lon="3.15899">
        <ele>739.7</ele>
        <time>2019-05-31T12:57:49Z</time>
      </trkpt>
      <trkpt lat="44.08937" lon="3.15894">
        <ele>739.4</ele>
        <time>2019-05-31T12:57:50Z</time>
      </trkpt>
      <trkpt lat="44.08939" lon="3.15889">
        <ele>739</ele>
        <time>2019-05-31T12:57:51Z</time>
      </trkpt>
      <trkpt lat="44.0894" lon="3.15883">
        <ele>738.8</ele>
        <time>2019-05-31T12:57:52Z</time>
      </trkpt>
      <trkpt lat="44.08941" lon="3.15878">
        <ele>738.7</ele>
        <time>2019-05-31T12:57:53Z</time>
      </trkpt>
      <trkpt lat="44.08941" lon="3.15873">
        <ele>738.8</ele>
        <time>2019-05-31T12:57:54Z</time>
      </trkpt>
      <trkpt lat="44.0894" lon="3.15869">
        <ele>738.9</ele>
        <time>2019-05-31T12:57:55Z</time>
      </trkpt>
      <trkpt lat="44.08938" lon="3.15863">
        <ele>739</ele>
        <time>2019-05-31T12:57:57Z</time>
      </trkpt>
      <trkpt lat="44.08935" lon="3.1586">
        <ele>739.1</ele>
        <time>2019-05-31T12:57:59Z</time>
      </trkpt>
      <trkpt lat="44.08932" lon="3.15858">
        <ele>739.3</ele>
        <time>2019-05-31T12:58:00Z</time>
      </trkpt>
      <trkpt lat="44.08928" lon="3.15857">
        <ele>739.9</ele>
        <time>2019-05-31T12:58:01Z</time>
      </trkpt>
      <trkpt lat="44.08925" lon="3.15855">
        <ele>739.9</ele>
        <time>2019-05-31T12:58:02Z</time>
      </trkpt>
      <trkpt lat="44.08922" lon="3.15855">
        <ele>739.8</ele>
        <time>2019-05-31T12:58:03Z</time>
      </trkpt>
      <trkpt lat="44.08919" lon="3.15851">
        <ele>739.7</ele>
        <time>2019-05-31T12:58:05Z</time>
      </trkpt>
      <trkpt lat="44.08919" lon="3.15845">
        <ele>739.6</ele>
        <time>2019-05-31T12:58:07Z</time>
      </trkpt>
      <trkpt lat="44.0892" lon="3.15837">
        <ele>739.5</ele>
        <time>2019-05-31T12:58:09Z</time>
      </trkpt>
      <trkpt lat="44.0892" lon="3.15832">
        <ele>739.4</ele>
        <time>2019-05-31T12:58:10Z</time>
      </trkpt>
      <trkpt lat="44.08921" lon="3.15827">
        <ele>739.3</ele>
        <time>2019-05-31T12:58:11Z</time>
      </trkpt>
      <trkpt lat="44.08923" lon="3.15822">
        <ele>739.3</ele>
        <time>2019-05-31T12:58:12Z</time>
      </trkpt>
      <trkpt lat="44.08925" lon="3.15818">
        <ele>739.3</ele>
        <time>2019-05-31T12:58:13Z</time>
      </trkpt>
      <trkpt lat="44.08927" lon="3.15813">
        <ele>739.3</ele>
        <time>2019-05-31T12:58:14Z</time>
      </trkpt>
      <trkpt lat="44.08929" lon="3.15809">
        <ele>739.3</ele>
        <time>2019-05-31T12:58:15Z</time>
      </trkpt>
      <trkpt lat="44.0893" lon="3.15805">
        <ele>739.3</ele>
        <time>2019-05-31T12:58:16Z</time>
      </trkpt>
      <trkpt lat="44.08929" lon="3.15801">
        <ele>739.3</ele>
        <time>2019-05-31T12:58:17Z</time>
      </trkpt>
      <trkpt lat="44.08927" lon="3.15796">
        <ele>739.3</ele>
        <time>2019-05-31T12:58:18Z</time>
      </trkpt>
      <trkpt lat="44.08924" lon="3.15791">
        <ele>739.3</ele>
        <time>2019-05-31T12:58:19Z</time>
      </trkpt>
      <trkpt lat="44.08921" lon="3.15787">
        <ele>739.3</ele>
        <time>2019-05-31T12:58:20Z</time>
      </trkpt>
      <trkpt lat="44.08915" lon="3.15782">
        <ele>739.3</ele>
        <time>2019-05-31T12:58:21Z</time>
      </trkpt>
      <trkpt lat="44.08912" lon="3.15779">
        <ele>739.3</ele>
        <time>2019-05-31T12:58:22Z</time>
      </trkpt>
      <trkpt lat="44.0891" lon="3.15774">
        <ele>739.3</ele>
        <time>2019-05-31T12:58:23Z</time>
      </trkpt>
      <trkpt lat="44.08909" lon="3.15769">
        <ele>739.2</ele>
        <time>2019-05-31T12:58:24Z</time>
      </trkpt>
      <trkpt lat="44.08906" lon="3.15763">
        <ele>739.2</ele>
        <time>2019-05-31T12:58:25Z</time>
      </trkpt>
      <trkpt lat="44.08904" lon="3.1576">
        <ele>739.1</ele>
        <time>2019-05-31T12:58:26Z</time>
      </trkpt>
      <trkpt lat="44.08899" lon="3.15756">
        <ele>739</ele>
        <time>2019-05-31T12:58:27Z</time>
      </trkpt>
      <trkpt lat="44.08893" lon="3.15755">
        <ele>738.9</ele>
        <time>2019-05-31T12:58:28Z</time>
      </trkpt>
      <trkpt lat="44.08888" lon="3.15753">
        <ele>738.9</ele>
        <time>2019-05-31T12:58:29Z</time>
      </trkpt>
      <trkpt lat="44.08884" lon="3.15748">
        <ele>738.8</ele>
        <time>2019-05-31T12:58:31Z</time>
      </trkpt>
      <trkpt lat="44.08881" lon="3.15746">
        <ele>738.7</ele>
        <time>2019-05-31T12:58:32Z</time>
      </trkpt>
      <trkpt lat="44.08878" lon="3.15744">
        <ele>738.7</ele>
        <time>2019-05-31T12:58:33Z</time>
      </trkpt>
      <trkpt lat="44.08874" lon="3.1574">
        <ele>738.6</ele>
        <time>2019-05-31T12:58:35Z</time>
      </trkpt>
      <trkpt lat="44.0887" lon="3.15737">
        <ele>738.6</ele>
        <time>2019-05-31T12:58:37Z</time>
      </trkpt>
      <trkpt lat="44.08865" lon="3.15733">
        <ele>738.6</ele>
        <time>2019-05-31T12:58:39Z</time>
      </trkpt>
      <trkpt lat="44.08862" lon="3.15731">
        <ele>738.7</ele>
        <time>2019-05-31T12:58:40Z</time>
      </trkpt>
      <trkpt lat="44.08858" lon="3.15726">
        <ele>738.8</ele>
        <time>2019-05-31T12:58:42Z</time>
      </trkpt>
      <trkpt lat="44.08856" lon="3.15723">
        <ele>738.8</ele>
        <time>2019-05-31T12:58:43Z</time>
      </trkpt>
      <trkpt lat="44.08852" lon="3.1572">
        <ele>738.9</ele>
        <time>2019-05-31T12:58:44Z</time>
      </trkpt>
      <trkpt lat="44.08848" lon="3.15717">
        <ele>739</ele>
        <time>2019-05-31T12:58:45Z</time>
      </trkpt>
      <trkpt lat="44.08843" lon="3.15714">
        <ele>739.2</ele>
        <time>2019-05-31T12:58:46Z</time>
      </trkpt>
      <trkpt lat="44.08839" lon="3.15711">
        <ele>739.4</ele>
        <time>2019-05-31T12:58:47Z</time>
      </trkpt>
      <trkpt lat="44.08835" lon="3.15709">
        <ele>739.6</ele>
        <time>2019-05-31T12:58:48Z</time>
      </trkpt>
      <trkpt lat="44.08832" lon="3.15707">
        <ele>739.7</ele>
        <time>2019-05-31T12:58:49Z</time>
      </trkpt>
      <trkpt lat="44.08829" lon="3.15701">
        <ele>740</ele>
        <time>2019-05-31T12:58:51Z</time>
      </trkpt>
      <trkpt lat="44.08827" lon="3.15697">
        <ele>740.2</ele>
        <time>2019-05-31T12:58:52Z</time>
      </trkpt>
      <trkpt lat="44.08826" lon="3.15694">
        <ele>740.4</ele>
        <time>2019-05-31T12:58:53Z</time>
      </trkpt>
      <trkpt lat="44.08824" lon="3.15691">
        <ele>740.5</ele>
        <time>2019-05-31T12:58:54Z</time>
      </trkpt>
      <trkpt lat="44.08821" lon="3.15685">
        <ele>740.9</ele>
        <time>2019-05-31T12:58:56Z</time>
      </trkpt>
      <trkpt lat="44.08818" lon="3.1568">
        <ele>741.3</ele>
        <time>2019-05-31T12:58:58Z</time>
      </trkpt>
      <trkpt lat="44.08817" lon="3.15675">
        <ele>741.5</ele>
        <time>2019-05-31T12:59:00Z</time>
      </trkpt>
      <trkpt lat="44.08815" lon="3.15669">
        <ele>741.8</ele>
        <time>2019-05-31T12:59:02Z</time>
      </trkpt>
      <trkpt lat="44.08814" lon="3.15666">
        <ele>742</ele>
        <time>2019-05-31T12:59:03Z</time>
      </trkpt>
      <trkpt lat="44.08811" lon="3.15663">
        <ele>742.3</ele>
        <time>2019-05-31T12:59:04Z</time>
      </trkpt>
      <trkpt lat="44.08809" lon="3.15661">
        <ele>742.5</ele>
        <time>2019-05-31T12:59:05Z</time>
      </trkpt>
      <trkpt lat="44.08806" lon="3.15657">
        <ele>742.9</ele>
        <time>2019-05-31T12:59:07Z</time>
      </trkpt>
      <trkpt lat="44.08802" lon="3.15652">
        <ele>743.4</ele>
        <time>2019-05-31T12:59:09Z</time>
      </trkpt>
      <trkpt lat="44.088" lon="3.15647">
        <ele>743.8</ele>
        <time>2019-05-31T12:59:10Z</time>
      </trkpt>
      <trkpt lat="44.08797" lon="3.15644">
        <ele>744.2</ele>
        <time>2019-05-31T12:59:11Z</time>
      </trkpt>
      <trkpt lat="44.08794" lon="3.15642">
        <ele>744.6</ele>
        <time>2019-05-31T12:59:12Z</time>
      </trkpt>
      <trkpt lat="44.08791" lon="3.1564">
        <ele>745</ele>
        <time>2019-05-31T12:59:13Z</time>
      </trkpt>
      <trkpt lat="44.08788" lon="3.15638">
        <ele>745.4</ele>
        <time>2019-05-31T12:59:15Z</time>
      </trkpt>
      <trkpt lat="44.08785" lon="3.15634">
        <ele>745.9</ele>
        <time>2019-05-31T12:59:17Z</time>
      </trkpt>
      <trkpt lat="44.0878" lon="3.15631">
        <ele>746.6</ele>
        <time>2019-05-31T12:59:19Z</time>
      </trkpt>
      <trkpt lat="44.08778" lon="3.15628">
        <ele>746.9</ele>
        <time>2019-05-31T12:59:20Z</time>
      </trkpt>
      <trkpt lat="44.08776" lon="3.15625">
        <ele>747.1</ele>
        <time>2019-05-31T12:59:21Z</time>
      </trkpt>
      <trkpt lat="44.08774" lon="3.15622">
        <ele>747.3</ele>
        <time>2019-05-31T12:59:22Z</time>
      </trkpt>
      <trkpt lat="44.08773" lon="3.15616">
        <ele>747.6</ele>
        <time>2019-05-31T12:59:24Z</time>
      </trkpt>
      <trkpt lat="44.08772" lon="3.1561">
        <ele>747.9</ele>
        <time>2019-05-31T12:59:26Z</time>
      </trkpt>
      <trkpt lat="44.08772" lon="3.15606">
        <ele>748.1</ele>
        <time>2019-05-31T12:59:28Z</time>
      </trkpt>
      <trkpt lat="44.08772" lon="3.156">
        <ele>748.4</ele>
        <time>2019-05-31T12:59:30Z</time>
      </trkpt>
      <trkpt lat="44.08773" lon="3.15596">
        <ele>748.6</ele>
        <time>2019-05-31T12:59:32Z</time>
      </trkpt>
      <trkpt lat="44.08774" lon="3.15592">
        <ele>748.8</ele>
        <time>2019-05-31T12:59:34Z</time>
      </trkpt>
      <trkpt lat="44.08776" lon="3.15586">
        <ele>749.1</ele>
        <time>2019-05-31T12:59:36Z</time>
      </trkpt>
      <trkpt lat="44.08777" lon="3.15583">
        <ele>749.3</ele>
        <time>2019-05-31T12:59:37Z</time>
      </trkpt>
      <trkpt lat="44.08779" lon="3.1558">
        <ele>749.4</ele>
        <time>2019-05-31T12:59:38Z</time>
      </trkpt>
      <trkpt lat="44.08781" lon="3.15577">
        <ele>749.5</ele>
        <time>2019-05-31T12:59:39Z</time>
      </trkpt>
      <trkpt lat="44.08783" lon="3.1557">
        <ele>749.8</ele>
        <time>2019-05-31T12:59:41Z</time>
      </trkpt>
      <trkpt lat="44.08784" lon="3.15566">
        <ele>749.9</ele>
        <time>2019-05-31T12:59:42Z</time>
      </trkpt>
      <trkpt lat="44.08784" lon="3.1556">
        <ele>750.1</ele>
        <time>2019-05-31T12:59:44Z</time>
      </trkpt>
      <trkpt lat="44.08785" lon="3.15554">
        <ele>750.2</ele>
        <time>2019-05-31T12:59:46Z</time>
      </trkpt>
      <trkpt lat="44.08786" lon="3.15548">
        <ele>750.4</ele>
        <time>2019-05-31T12:59:48Z</time>
      </trkpt>
      <trkpt lat="44.08787" lon="3.15542">
        <ele>750.6</ele>
        <time>2019-05-31T12:59:50Z</time>
      </trkpt>
      <trkpt lat="44.08788" lon="3.15538">
        <ele>750.7</ele>
        <time>2019-05-31T12:59:51Z</time>
      </trkpt>
      <trkpt lat="44.0879" lon="3.15535">
        <ele>750.8</ele>
        <time>2019-05-31T12:59:52Z</time>
      </trkpt>
      <trkpt lat="44.08791" lon="3.15531">
        <ele>750.9</ele>
        <time>2019-05-31T12:59:53Z</time>
      </trkpt>
      <trkpt lat="44.0879" lon="3.15524">
        <ele>751.1</ele>
        <time>2019-05-31T12:59:55Z</time>
      </trkpt>
      <trkpt lat="44.0879" lon="3.15519">
        <ele>751.3</ele>
        <time>2019-05-31T12:59:57Z</time>
      </trkpt>
      <trkpt lat="44.0879" lon="3.15512">
        <ele>751.5</ele>
        <time>2019-05-31T12:59:59Z</time>
      </trkpt>
      <trkpt lat="44.08791" lon="3.15507">
        <ele>751.6</ele>
        <time>2019-05-31T13:00:01Z</time>
      </trkpt>
      <trkpt lat="44.08792" lon="3.15501">
        <ele>751.7</ele>
        <time>2019-05-31T13:00:03Z</time>
      </trkpt>
      <trkpt lat="44.08792" lon="3.15494">
        <ele>751.8</ele>
        <time>2019-05-31T13:00:05Z</time>
      </trkpt>
      <trkpt lat="44.08791" lon="3.1549">
        <ele>751.9</ele>
        <time>2019-05-31T13:00:06Z</time>
      </trkpt>
      <trkpt lat="44.08791" lon="3.15485">
        <ele>752</ele>
        <time>2019-05-31T13:00:07Z</time>
      </trkpt>
      <trkpt lat="44.08791" lon="3.15481">
        <ele>752.1</ele>
        <time>2019-05-31T13:00:08Z</time>
      </trkpt>
      <trkpt lat="44.08791" lon="3.15477">
        <ele>752.2</ele>
        <time>2019-05-31T13:00:09Z</time>
      </trkpt>
      <trkpt lat="44.08791" lon="3.15472">
        <ele>752.3</ele>
        <time>2019-05-31T13:00:10Z</time>
      </trkpt>
      <trkpt lat="44.0879" lon="3.15468">
        <ele>752.4</ele>
        <time>2019-05-31T13:00:11Z</time>
      </trkpt>
      <trkpt lat="44.0879" lon="3.15463">
        <ele>752.5</ele>
        <time>2019-05-31T13:00:12Z</time>
      </trkpt>
      <trkpt lat="44.08789" lon="3.15456">
        <ele>752.6</ele>
        <time>2019-05-31T13:00:14Z</time>
      </trkpt>
      <trkpt lat="44.08788" lon="3.15452">
        <ele>752.7</ele>
        <time>2019-05-31T13:00:15Z</time>
      </trkpt>
      <trkpt lat="44.08787" lon="3.15449">
        <ele>752.7</ele>
        <time>2019-05-31T13:00:16Z</time>
      </trkpt>
      <trkpt lat="44.08786" lon="3.15445">
        <ele>752.6</ele>
        <time>2019-05-31T13:00:17Z</time>
      </trkpt>
      <trkpt lat="44.08785" lon="3.15437">
        <ele>752</ele>
        <time>2019-05-31T13:00:19Z</time>
      </trkpt>
      <trkpt lat="44.08784" lon="3.15432">
        <ele>751.5</ele>
        <time>2019-05-31T13:00:20Z</time>
      </trkpt>
      <trkpt lat="44.08784" lon="3.15427">
        <ele>750.5</ele>
        <time>2019-05-31T13:00:21Z</time>
      </trkpt>
      <trkpt lat="44.08782" lon="3.15421">
        <ele>750.4</ele>
        <time>2019-05-31T13:00:22Z</time>
      </trkpt>
      <trkpt lat="44.0878" lon="3.15416">
        <ele>749.8</ele>
        <time>2019-05-31T13:00:23Z</time>
      </trkpt>
      <trkpt lat="44.08778" lon="3.15411">
        <ele>749.6</ele>
        <time>2019-05-31T13:00:24Z</time>
      </trkpt>
      <trkpt lat="44.08776" lon="3.15406">
        <ele>748.8</ele>
        <time>2019-05-31T13:00:25Z</time>
      </trkpt>
      <trkpt lat="44.08775" lon="3.154">
        <ele>748.1</ele>
        <time>2019-05-31T13:00:26Z</time>
      </trkpt>
      <trkpt lat="44.08772" lon="3.15394">
        <ele>747.6</ele>
        <time>2019-05-31T13:00:27Z</time>
      </trkpt>
      <trkpt lat="44.08767" lon="3.15386">
        <ele>746.6</ele>
        <time>2019-05-31T13:00:28Z</time>
      </trkpt>
      <trkpt lat="44.08764" lon="3.15381">
        <ele>746</ele>
        <time>2019-05-31T13:00:29Z</time>
      </trkpt>
      <trkpt lat="44.08758" lon="3.15377">
        <ele>745.5</ele>
        <time>2019-05-31T13:00:30Z</time>
      </trkpt>
      <trkpt lat="44.08754" lon="3.15374">
        <ele>744.8</ele>
        <time>2019-05-31T13:00:31Z</time>
      </trkpt>
      <trkpt lat="44.08748" lon="3.1537">
        <ele>744.2</ele>
        <time>2019-05-31T13:00:32Z</time>
      </trkpt>
      <trkpt lat="44.08741" lon="3.15367">
        <ele>743.5</ele>
        <time>2019-05-31T13:00:33Z</time>
      </trkpt>
      <trkpt lat="44.08734" lon="3.15366">
        <ele>743.4</ele>
        <time>2019-05-31T13:00:34Z</time>
      </trkpt>
      <trkpt lat="44.08728" lon="3.15365">
        <ele>743.3</ele>
        <time>2019-05-31T13:00:35Z</time>
      </trkpt>
      <trkpt lat="44.08723" lon="3.15365">
        <ele>743.2</ele>
        <time>2019-05-31T13:00:36Z</time>
      </trkpt>
      <trkpt lat="44.08718" lon="3.15361">
        <ele>742</ele>
        <time>2019-05-31T13:00:37Z</time>
      </trkpt>
      <trkpt lat="44.08712" lon="3.15357">
        <ele>740.6</ele>
        <time>2019-05-31T13:00:38Z</time>
      </trkpt>
      <trkpt lat="44.08706" lon="3.15352">
        <ele>739.1</ele>
        <time>2019-05-31T13:00:39Z</time>
      </trkpt>
      <trkpt lat="44.087" lon="3.15348">
        <ele>737.7</ele>
        <time>2019-05-31T13:00:40Z</time>
      </trkpt>
      <trkpt lat="44.08694" lon="3.15343">
        <ele>736.4</ele>
        <time>2019-05-31T13:00:41Z</time>
      </trkpt>
      <trkpt lat="44.08685" lon="3.1534">
        <ele>735.3</ele>
        <time>2019-05-31T13:00:42Z</time>
      </trkpt>
      <trkpt lat="44.08676" lon="3.15336">
        <ele>734.2</ele>
        <time>2019-05-31T13:00:43Z</time>
      </trkpt>
      <trkpt lat="44.08669" lon="3.15334">
        <ele>734.4</ele>
        <time>2019-05-31T13:00:44Z</time>
      </trkpt>
      <trkpt lat="44.08661" lon="3.15331">
        <ele>733.5</ele>
        <time>2019-05-31T13:00:45Z</time>
      </trkpt>
      <trkpt lat="44.08653" lon="3.15328">
        <ele>732.6</ele>
        <time>2019-05-31T13:00:46Z</time>
      </trkpt>
      <trkpt lat="44.08646" lon="3.15323">
        <ele>731.6</ele>
        <time>2019-05-31T13:00:47Z</time>
      </trkpt>
      <trkpt lat="44.08638" lon="3.15322">
        <ele>732</ele>
        <time>2019-05-31T13:00:48Z</time>
      </trkpt>
      <trkpt lat="44.08631" lon="3.15324">
        <ele>732.3</ele>
        <time>2019-05-31T13:00:49Z</time>
      </trkpt>
      <trkpt lat="44.08625" lon="3.15323">
        <ele>732.6</ele>
        <time>2019-05-31T13:00:50Z</time>
      </trkpt>
      <trkpt lat="44.08621" lon="3.15322">
        <ele>732.8</ele>
        <time>2019-05-31T13:00:51Z</time>
      </trkpt>
      <trkpt lat="44.08618" lon="3.15326">
        <ele>733.9</ele>
        <time>2019-05-31T13:00:52Z</time>
      </trkpt>
      <trkpt lat="44.08614" lon="3.15327">
        <ele>734.4</ele>
        <time>2019-05-31T13:00:53Z</time>
      </trkpt>
      <trkpt lat="44.08609" lon="3.15332">
        <ele>735.6</ele>
        <time>2019-05-31T13:00:54Z</time>
      </trkpt>
      <trkpt lat="44.08606" lon="3.1533">
        <ele>735.9</ele>
        <time>2019-05-31T13:00:55Z</time>
      </trkpt>
      <trkpt lat="44.08603" lon="3.15329">
        <ele>735.1</ele>
        <time>2019-05-31T13:00:56Z</time>
      </trkpt>
      <trkpt lat="44.08597" lon="3.15325">
        <ele>735.6</ele>
        <time>2019-05-31T13:00:57Z</time>
      </trkpt>
      <trkpt lat="44.0859" lon="3.15322">
        <ele>735</ele>
        <time>2019-05-31T13:00:58Z</time>
      </trkpt>
      <trkpt lat="44.08581" lon="3.15314">
        <ele>733.7</ele>
        <time>2019-05-31T13:00:59Z</time>
      </trkpt>
      <trkpt lat="44.08571" lon="3.15314">
        <ele>734.3</ele>
        <time>2019-05-31T13:01:00Z</time>
      </trkpt>
      <trkpt lat="44.0856" lon="3.15312">
        <ele>734.8</ele>
        <time>2019-05-31T13:01:01Z</time>
      </trkpt>
      <trkpt lat="44.08548" lon="3.15313">
        <ele>735</ele>
        <time>2019-05-31T13:01:02Z</time>
      </trkpt>
      <trkpt lat="44.08539" lon="3.15315">
        <ele>735.1</ele>
        <time>2019-05-31T13:01:03Z</time>
      </trkpt>
      <trkpt lat="44.08529" lon="3.15316">
        <ele>735.2</ele>
        <time>2019-05-31T13:01:04Z</time>
      </trkpt>
      <trkpt lat="44.08519" lon="3.15315">
        <ele>735.2</ele>
        <time>2019-05-31T13:01:05Z</time>
      </trkpt>
      <trkpt lat="44.08511" lon="3.15321">
        <ele>736</ele>
        <time>2019-05-31T13:01:06Z</time>
      </trkpt>
      <trkpt lat="44.08503" lon="3.1532">
        <ele>735.1</ele>
        <time>2019-05-31T13:01:07Z</time>
      </trkpt>
      <trkpt lat="44.08496" lon="3.15318">
        <ele>734.3</ele>
        <time>2019-05-31T13:01:08Z</time>
      </trkpt>
      <trkpt lat="44.08488" lon="3.15313">
        <ele>733.4</ele>
        <time>2019-05-31T13:01:09Z</time>
      </trkpt>
      <trkpt lat="44.08482" lon="3.15307">
        <ele>732.1</ele>
        <time>2019-05-31T13:01:10Z</time>
      </trkpt>
      <trkpt lat="44.08475" lon="3.15315">
        <ele>732.6</ele>
        <time>2019-05-31T13:01:11Z</time>
      </trkpt>
      <trkpt lat="44.08469" lon="3.15315">
        <ele>732.3</ele>
        <time>2019-05-31T13:01:12Z</time>
      </trkpt>
      <trkpt lat="44.08462" lon="3.15318">
        <ele>732.3</ele>
        <time>2019-05-31T13:01:13Z</time>
      </trkpt>
      <trkpt lat="44.08457" lon="3.15315">
        <ele>731.9</ele>
        <time>2019-05-31T13:01:14Z</time>
      </trkpt>
      <trkpt lat="44.08451" lon="3.15308">
        <ele>731.5</ele>
        <time>2019-05-31T13:01:15Z</time>
      </trkpt>
      <trkpt lat="44.08453" lon="3.15304">
        <ele>731.2</ele>
        <time>2019-05-31T13:01:16Z</time>
      </trkpt>
      <trkpt lat="44.08453" lon="3.15308">
        <ele>731.4</ele>
        <time>2019-05-31T13:01:17Z</time>
      </trkpt>
      <trkpt lat="44.08453" lon="3.15313">
        <ele>731.6</ele>
        <time>2019-05-31T13:01:23Z</time>
      </trkpt>
      <trkpt lat="44.08451" lon="3.15312">
        <ele>731.3</ele>
        <time>2019-05-31T13:01:46Z</time>
      </trkpt>
      <trkpt lat="44.08451" lon="3.15306">
        <ele>730.9</ele>
        <time>2019-05-31T13:02:36Z</time>
      </trkpt>
      <trkpt lat="44.08453" lon="3.15302">
        <ele>730.7</ele>
        <time>2019-05-31T13:02:40Z</time>
      </trkpt>
      <trkpt lat="44.08456" lon="3.15299">
        <ele>730.5</ele>
        <time>2019-05-31T13:02:42Z</time>
      </trkpt>
      <trkpt lat="44.08458" lon="3.15295">
        <ele>730.4</ele>
        <time>2019-05-31T13:02:44Z</time>
      </trkpt>
      <trkpt lat="44.0846" lon="3.15292">
        <ele>730.2</ele>
        <time>2019-05-31T13:02:46Z</time>
      </trkpt>
      <trkpt lat="44.08462" lon="3.15289">
        <ele>730.1</ele>
        <time>2019-05-31T13:02:48Z</time>
      </trkpt>
      <trkpt lat="44.08464" lon="3.15285">
        <ele>730</ele>
        <time>2019-05-31T13:02:50Z</time>
      </trkpt>
      <trkpt lat="44.08466" lon="3.15281">
        <ele>729.8</ele>
        <time>2019-05-31T13:02:52Z</time>
      </trkpt>
      <trkpt lat="44.08468" lon="3.15276">
        <ele>729.8</ele>
        <time>2019-05-31T13:02:54Z</time>
      </trkpt>
      <trkpt lat="44.0847" lon="3.15273">
        <ele>729.6</ele>
        <time>2019-05-31T13:02:56Z</time>
      </trkpt>
      <trkpt lat="44.08471" lon="3.15268">
        <ele>729.6</ele>
        <time>2019-05-31T13:02:58Z</time>
      </trkpt>
      <trkpt lat="44.08473" lon="3.15262">
        <ele>729.5</ele>
        <time>2019-05-31T13:03:00Z</time>
      </trkpt>
      <trkpt lat="44.08475" lon="3.15256">
        <ele>729.5</ele>
        <time>2019-05-31T13:03:02Z</time>
      </trkpt>
      <trkpt lat="44.08477" lon="3.15251">
        <ele>729.5</ele>
        <time>2019-05-31T13:03:04Z</time>
      </trkpt>
      <trkpt lat="44.08479" lon="3.15246">
        <ele>729.5</ele>
        <time>2019-05-31T13:03:06Z</time>
      </trkpt>
      <trkpt lat="44.08482" lon="3.15241">
        <ele>729.4</ele>
        <time>2019-05-31T13:03:08Z</time>
      </trkpt>
      <trkpt lat="44.08484" lon="3.15238">
        <ele>729.5</ele>
        <time>2019-05-31T13:03:10Z</time>
      </trkpt>
      <trkpt lat="44.08487" lon="3.15235">
        <ele>729.7</ele>
        <time>2019-05-31T13:03:12Z</time>
      </trkpt>
      <trkpt lat="44.0849" lon="3.15232">
        <ele>729.8</ele>
        <time>2019-05-31T13:03:14Z</time>
      </trkpt>
      <trkpt lat="44.08493" lon="3.15229">
        <ele>729.8</ele>
        <time>2019-05-31T13:03:16Z</time>
      </trkpt>
      <trkpt lat="44.08495" lon="3.15226">
        <ele>729.9</ele>
        <time>2019-05-31T13:03:17Z</time>
      </trkpt>
      <trkpt lat="44.08497" lon="3.15223">
        <ele>729.9</ele>
        <time>2019-05-31T13:03:18Z</time>
      </trkpt>
      <trkpt lat="44.08499" lon="3.1522">
        <ele>729.9</ele>
        <time>2019-05-31T13:03:19Z</time>
      </trkpt>
      <trkpt lat="44.08501" lon="3.15217">
        <ele>729.9</ele>
        <time>2019-05-31T13:03:20Z</time>
      </trkpt>
      <trkpt lat="44.08504" lon="3.15213">
        <ele>730</ele>
        <time>2019-05-31T13:03:22Z</time>
      </trkpt>
      <trkpt lat="44.08508" lon="3.15208">
        <ele>730.2</ele>
        <time>2019-05-31T13:03:24Z</time>
      </trkpt>
      <trkpt lat="44.0851" lon="3.15205">
        <ele>730</ele>
        <time>2019-05-31T13:03:25Z</time>
      </trkpt>
      <trkpt lat="44.08512" lon="3.15201">
        <ele>729.8</ele>
        <time>2019-05-31T13:03:26Z</time>
      </trkpt>
      <trkpt lat="44.08514" lon="3.15199">
        <ele>729.5</ele>
        <time>2019-05-31T13:03:27Z</time>
      </trkpt>
      <trkpt lat="44.08516" lon="3.15196">
        <ele>729.6</ele>
        <time>2019-05-31T13:03:28Z</time>
      </trkpt>
      <trkpt lat="44.08519" lon="3.15193">
        <ele>729.6</ele>
        <time>2019-05-31T13:03:29Z</time>
      </trkpt>
      <trkpt lat="44.08522" lon="3.1519">
        <ele>729.7</ele>
        <time>2019-05-31T13:03:30Z</time>
      </trkpt>
      <trkpt lat="44.08524" lon="3.15186">
        <ele>729.9</ele>
        <time>2019-05-31T13:03:31Z</time>
      </trkpt>
      <trkpt lat="44.08527" lon="3.15181">
        <ele>730.1</ele>
        <time>2019-05-31T13:03:32Z</time>
      </trkpt>
      <trkpt lat="44.0853" lon="3.15177">
        <ele>730.2</ele>
        <time>2019-05-31T13:03:33Z</time>
      </trkpt>
      <trkpt lat="44.08532" lon="3.15172">
        <ele>730.4</ele>
        <time>2019-05-31T13:03:34Z</time>
      </trkpt>
      <trkpt lat="44.08534" lon="3.15168">
        <ele>730.5</ele>
        <time>2019-05-31T13:03:35Z</time>
      </trkpt>
      <trkpt lat="44.08536" lon="3.15164">
        <ele>730.6</ele>
        <time>2019-05-31T13:03:36Z</time>
      </trkpt>
      <trkpt lat="44.08538" lon="3.15161">
        <ele>730.7</ele>
        <time>2019-05-31T13:03:37Z</time>
      </trkpt>
      <trkpt lat="44.08542" lon="3.15155">
        <ele>730.7</ele>
        <time>2019-05-31T13:03:39Z</time>
      </trkpt>
      <trkpt lat="44.08545" lon="3.15151">
        <ele>730.6</ele>
        <time>2019-05-31T13:03:41Z</time>
      </trkpt>
      <trkpt lat="44.08548" lon="3.15149">
        <ele>730.9</ele>
        <time>2019-05-31T13:03:43Z</time>
      </trkpt>
      <trkpt lat="44.08552" lon="3.15147">
        <ele>731.2</ele>
        <time>2019-05-31T13:03:45Z</time>
      </trkpt>
      <trkpt lat="44.08555" lon="3.15144">
        <ele>731.5</ele>
        <time>2019-05-31T13:03:47Z</time>
      </trkpt>
      <trkpt lat="44.08558" lon="3.1514">
        <ele>731.8</ele>
        <time>2019-05-31T13:03:49Z</time>
      </trkpt>
      <trkpt lat="44.08561" lon="3.15136">
        <ele>731.9</ele>
        <time>2019-05-31T13:03:51Z</time>
      </trkpt>
      <trkpt lat="44.08564" lon="3.15134">
        <ele>731.8</ele>
        <time>2019-05-31T13:03:53Z</time>
      </trkpt>
      <trkpt lat="44.08566" lon="3.15132">
        <ele>731.7</ele>
        <time>2019-05-31T13:03:55Z</time>
      </trkpt>
      <trkpt lat="44.08569" lon="3.15128">
        <ele>731.8</ele>
        <time>2019-05-31T13:03:57Z</time>
      </trkpt>
      <trkpt lat="44.08572" lon="3.15123">
        <ele>732</ele>
        <time>2019-05-31T13:03:59Z</time>
      </trkpt>
      <trkpt lat="44.08576" lon="3.15119">
        <ele>732.3</ele>
        <time>2019-05-31T13:04:01Z</time>
      </trkpt>
      <trkpt lat="44.08579" lon="3.15116">
        <ele>732.5</ele>
        <time>2019-05-31T13:04:03Z</time>
      </trkpt>
      <trkpt lat="44.08582" lon="3.15113">
        <ele>732.7</ele>
        <time>2019-05-31T13:04:05Z</time>
      </trkpt>
      <trkpt lat="44.08585" lon="3.15109">
        <ele>732.6</ele>
        <time>2019-05-31T13:04:07Z</time>
      </trkpt>
      <trkpt lat="44.08587" lon="3.15106">
        <ele>732.6</ele>
        <time>2019-05-31T13:04:08Z</time>
      </trkpt>
      <trkpt lat="44.0859" lon="3.15104">
        <ele>732.4</ele>
        <time>2019-05-31T13:04:10Z</time>
      </trkpt>
      <trkpt lat="44.08593" lon="3.15105">
        <ele>732.2</ele>
        <time>2019-05-31T13:04:12Z</time>
      </trkpt>
      <trkpt lat="44.08596" lon="3.15103">
        <ele>731.9</ele>
        <time>2019-05-31T13:04:14Z</time>
      </trkpt>
      <trkpt lat="44.086" lon="3.15099">
        <ele>731.6</ele>
        <time>2019-05-31T13:04:16Z</time>
      </trkpt>
      <trkpt lat="44.08604" lon="3.15095">
        <ele>731.3</ele>
        <time>2019-05-31T13:04:18Z</time>
      </trkpt>
      <trkpt lat="44.08607" lon="3.1509">
        <ele>731.2</ele>
        <time>2019-05-31T13:04:20Z</time>
      </trkpt>
      <trkpt lat="44.08609" lon="3.15085">
        <ele>731.6</ele>
        <time>2019-05-31T13:04:22Z</time>
      </trkpt>
      <trkpt lat="44.08612" lon="3.15083">
        <ele>732</ele>
        <time>2019-05-31T13:04:24Z</time>
      </trkpt>
      <trkpt lat="44.08615" lon="3.15082">
        <ele>731.8</ele>
        <time>2019-05-31T13:04:26Z</time>
      </trkpt>
      <trkpt lat="44.08619" lon="3.15078">
        <ele>731.5</ele>
        <time>2019-05-31T13:04:29Z</time>
      </trkpt>
      <trkpt lat="44.08622" lon="3.15075">
        <ele>730.9</ele>
        <time>2019-05-31T13:04:31Z</time>
      </trkpt>
      <trkpt lat="44.08625" lon="3.15072">
        <ele>730.3</ele>
        <time>2019-05-31T13:04:33Z</time>
      </trkpt>
      <trkpt lat="44.08628" lon="3.15069">
        <ele>730.1</ele>
        <time>2019-05-31T13:04:35Z</time>
      </trkpt>
      <trkpt lat="44.08631" lon="3.15065">
        <ele>729.9</ele>
        <time>2019-05-31T13:04:37Z</time>
      </trkpt>
      <trkpt lat="44.08634" lon="3.15063">
        <ele>729.8</ele>
        <time>2019-05-31T13:04:39Z</time>
      </trkpt>
      <trkpt lat="44.08637" lon="3.15062">
        <ele>729.8</ele>
        <time>2019-05-31T13:04:41Z</time>
      </trkpt>
      <trkpt lat="44.0864" lon="3.15061">
        <ele>729.8</ele>
        <time>2019-05-31T13:04:43Z</time>
      </trkpt>
      <trkpt lat="44.08644" lon="3.15058">
        <ele>729.7</ele>
        <time>2019-05-31T13:04:45Z</time>
      </trkpt>
      <trkpt lat="44.08647" lon="3.15056">
        <ele>729.5</ele>
        <time>2019-05-31T13:04:46Z</time>
      </trkpt>
      <trkpt lat="44.08649" lon="3.15054">
        <ele>729.4</ele>
        <time>2019-05-31T13:04:47Z</time>
      </trkpt>
      <trkpt lat="44.08651" lon="3.15051">
        <ele>729.2</ele>
        <time>2019-05-31T13:04:48Z</time>
      </trkpt>
      <trkpt lat="44.08654" lon="3.15049">
        <ele>729</ele>
        <time>2019-05-31T13:04:49Z</time>
      </trkpt>
      <trkpt lat="44.08659" lon="3.15046">
        <ele>728.9</ele>
        <time>2019-05-31T13:04:51Z</time>
      </trkpt>
      <trkpt lat="44.08661" lon="3.15045">
        <ele>729</ele>
        <time>2019-05-31T13:04:52Z</time>
      </trkpt>
      <trkpt lat="44.08665" lon="3.15043">
        <ele>729.1</ele>
        <time>2019-05-31T13:04:53Z</time>
      </trkpt>
      <trkpt lat="44.08669" lon="3.15041">
        <ele>729.5</ele>
        <time>2019-05-31T13:04:54Z</time>
      </trkpt>
      <trkpt lat="44.08672" lon="3.15038">
        <ele>730</ele>
        <time>2019-05-31T13:04:55Z</time>
      </trkpt>
      <trkpt lat="44.08674" lon="3.15036">
        <ele>730</ele>
        <time>2019-05-31T13:04:56Z</time>
      </trkpt>
      <trkpt lat="44.08679" lon="3.15032">
        <ele>730.2</ele>
        <time>2019-05-31T13:04:58Z</time>
      </trkpt>
      <trkpt lat="44.08682" lon="3.15027">
        <ele>730.3</ele>
        <time>2019-05-31T13:05:00Z</time>
      </trkpt>
      <trkpt lat="44.08684" lon="3.15024">
        <ele>730.3</ele>
        <time>2019-05-31T13:05:02Z</time>
      </trkpt>
      <trkpt lat="44.08686" lon="3.15021">
        <ele>730.5</ele>
        <time>2019-05-31T13:05:04Z</time>
      </trkpt>
      <trkpt lat="44.08689" lon="3.15018">
        <ele>730.8</ele>
        <time>2019-05-31T13:05:06Z</time>
      </trkpt>
      <trkpt lat="44.08692" lon="3.15016">
        <ele>731.1</ele>
        <time>2019-05-31T13:05:08Z</time>
      </trkpt>
      <trkpt lat="44.08694" lon="3.15012">
        <ele>731.3</ele>
        <time>2019-05-31T13:05:10Z</time>
      </trkpt>
      <trkpt lat="44.08696" lon="3.15008">
        <ele>731.3</ele>
        <time>2019-05-31T13:05:12Z</time>
      </trkpt>
      <trkpt lat="44.08698" lon="3.15005">
        <ele>731.5</ele>
        <time>2019-05-31T13:05:14Z</time>
      </trkpt>
      <trkpt lat="44.08701" lon="3.15003">
        <ele>732</ele>
        <time>2019-05-31T13:05:16Z</time>
      </trkpt>
      <trkpt lat="44.08704" lon="3.15002">
        <ele>732.4</ele>
        <time>2019-05-31T13:05:18Z</time>
      </trkpt>
      <trkpt lat="44.08707" lon="3.14999">
        <ele>732.6</ele>
        <time>2019-05-31T13:05:20Z</time>
      </trkpt>
      <trkpt lat="44.0871" lon="3.14997">
        <ele>732.8</ele>
        <time>2019-05-31T13:05:22Z</time>
      </trkpt>
      <trkpt lat="44.08713" lon="3.14994">
        <ele>733.1</ele>
        <time>2019-05-31T13:05:24Z</time>
      </trkpt>
      <trkpt lat="44.08716" lon="3.14992">
        <ele>733.6</ele>
        <time>2019-05-31T13:05:26Z</time>
      </trkpt>
      <trkpt lat="44.08719" lon="3.14989">
        <ele>734.2</ele>
        <time>2019-05-31T13:05:28Z</time>
      </trkpt>
      <trkpt lat="44.08721" lon="3.14985">
        <ele>734.7</ele>
        <time>2019-05-31T13:05:30Z</time>
      </trkpt>
      <trkpt lat="44.08724" lon="3.14983">
        <ele>735.1</ele>
        <time>2019-05-31T13:05:32Z</time>
      </trkpt>
      <trkpt lat="44.08727" lon="3.14981">
        <ele>735.3</ele>
        <time>2019-05-31T13:05:34Z</time>
      </trkpt>
      <trkpt lat="44.0873" lon="3.14978">
        <ele>735.4</ele>
        <time>2019-05-31T13:05:36Z</time>
      </trkpt>
      <trkpt lat="44.08732" lon="3.14976">
        <ele>735.4</ele>
        <time>2019-05-31T13:05:38Z</time>
      </trkpt>
      <trkpt lat="44.08735" lon="3.14974">
        <ele>735.4</ele>
        <time>2019-05-31T13:05:40Z</time>
      </trkpt>
      <trkpt lat="44.08739" lon="3.1497">
        <ele>735.5</ele>
        <time>2019-05-31T13:05:42Z</time>
      </trkpt>
      <trkpt lat="44.08742" lon="3.14968">
        <ele>735.7</ele>
        <time>2019-05-31T13:05:43Z</time>
      </trkpt>
      <trkpt lat="44.08745" lon="3.14964">
        <ele>736.1</ele>
        <time>2019-05-31T13:05:45Z</time>
      </trkpt>
      <trkpt lat="44.08748" lon="3.14962">
        <ele>736.3</ele>
        <time>2019-05-31T13:05:47Z</time>
      </trkpt>
      <trkpt lat="44.08753" lon="3.1496">
        <ele>736.4</ele>
        <time>2019-05-31T13:05:49Z</time>
      </trkpt>
      <trkpt lat="44.08756" lon="3.14958">
        <ele>736.4</ele>
        <time>2019-05-31T13:05:51Z</time>
      </trkpt>
      <trkpt lat="44.0876" lon="3.14955">
        <ele>736.5</ele>
        <time>2019-05-31T13:05:53Z</time>
      </trkpt>
      <trkpt lat="44.08764" lon="3.14952">
        <ele>736.3</ele>
        <time>2019-05-31T13:05:55Z</time>
      </trkpt>
      <trkpt lat="44.08767" lon="3.14949">
        <ele>736.2</ele>
        <time>2019-05-31T13:05:57Z</time>
      </trkpt>
      <trkpt lat="44.08771" lon="3.14944">
        <ele>736.2</ele>
        <time>2019-05-31T13:05:59Z</time>
      </trkpt>
      <trkpt lat="44.08774" lon="3.14942">
        <ele>736.3</ele>
        <time>2019-05-31T13:06:01Z</time>
      </trkpt>
      <trkpt lat="44.08778" lon="3.1494">
        <ele>736.7</ele>
        <time>2019-05-31T13:06:03Z</time>
      </trkpt>
      <trkpt lat="44.08781" lon="3.14937">
        <ele>737.2</ele>
        <time>2019-05-31T13:06:05Z</time>
      </trkpt>
      <trkpt lat="44.08786" lon="3.14932">
        <ele>737.3</ele>
        <time>2019-05-31T13:06:07Z</time>
      </trkpt>
      <trkpt lat="44.08789" lon="3.14928">
        <ele>737.4</ele>
        <time>2019-05-31T13:06:09Z</time>
      </trkpt>
      <trkpt lat="44.08792" lon="3.14924">
        <ele>737.5</ele>
        <time>2019-05-31T13:06:11Z</time>
      </trkpt>
      <trkpt lat="44.08795" lon="3.14921">
        <ele>737.6</ele>
        <time>2019-05-31T13:06:13Z</time>
      </trkpt>
      <trkpt lat="44.08797" lon="3.14919">
        <ele>737.6</ele>
        <time>2019-05-31T13:07:02Z</time>
      </trkpt>
      <trkpt lat="44.08799" lon="3.14916">
        <ele>737.6</ele>
        <time>2019-05-31T13:07:06Z</time>
      </trkpt>
      <trkpt lat="44.08803" lon="3.14915">
        <ele>737.5</ele>
        <time>2019-05-31T13:08:30Z</time>
      </trkpt>
      <trkpt lat="44.08806" lon="3.14915">
        <ele>737.6</ele>
        <time>2019-05-31T13:08:31Z</time>
      </trkpt>
      <trkpt lat="44.0881" lon="3.14911">
        <ele>737.8</ele>
        <time>2019-05-31T13:08:33Z</time>
      </trkpt>
      <trkpt lat="44.08812" lon="3.14907">
        <ele>738.2</ele>
        <time>2019-05-31T13:08:35Z</time>
      </trkpt>
      <trkpt lat="44.08812" lon="3.14902">
        <ele>738.6</ele>
        <time>2019-05-31T13:08:37Z</time>
      </trkpt>
      <trkpt lat="44.08811" lon="3.14897">
        <ele>739</ele>
        <time>2019-05-31T13:08:40Z</time>
      </trkpt>
      <trkpt lat="44.08812" lon="3.14891">
        <ele>739.4</ele>
        <time>2019-05-31T13:08:42Z</time>
      </trkpt>
      <trkpt lat="44.08812" lon="3.14885">
        <ele>739.6</ele>
        <time>2019-05-31T13:08:44Z</time>
      </trkpt>
      <trkpt lat="44.08811" lon="3.1488">
        <ele>739.8</ele>
        <time>2019-05-31T13:08:46Z</time>
      </trkpt>
      <trkpt lat="44.08811" lon="3.14872">
        <ele>739.9</ele>
        <time>2019-05-31T13:08:48Z</time>
      </trkpt>
      <trkpt lat="44.0881" lon="3.14868">
        <ele>739.9</ele>
        <time>2019-05-31T13:08:49Z</time>
      </trkpt>
      <trkpt lat="44.08809" lon="3.14862">
        <ele>739.9</ele>
        <time>2019-05-31T13:08:51Z</time>
      </trkpt>
      <trkpt lat="44.0881" lon="3.14856">
        <ele>739.8</ele>
        <time>2019-05-31T13:08:53Z</time>
      </trkpt>
      <trkpt lat="44.08811" lon="3.14852">
        <ele>739.4</ele>
        <time>2019-05-31T13:08:54Z</time>
      </trkpt>
      <trkpt lat="44.08812" lon="3.14845">
        <ele>739.3</ele>
        <time>2019-05-31T13:08:56Z</time>
      </trkpt>
      <trkpt lat="44.0881" lon="3.1484">
        <ele>739.5</ele>
        <time>2019-05-31T13:08:57Z</time>
      </trkpt>
      <trkpt lat="44.08809" lon="3.14836">
        <ele>739.4</ele>
        <time>2019-05-31T13:08:58Z</time>
      </trkpt>
      <trkpt lat="44.08809" lon="3.14832">
        <ele>739.3</ele>
        <time>2019-05-31T13:08:59Z</time>
      </trkpt>
      <trkpt lat="44.08807" lon="3.14827">
        <ele>739.6</ele>
        <time>2019-05-31T13:09:00Z</time>
      </trkpt>
      <trkpt lat="44.08806" lon="3.14822">
        <ele>739.3</ele>
        <time>2019-05-31T13:09:01Z</time>
      </trkpt>
      <trkpt lat="44.08805" lon="3.14816">
        <ele>739.2</ele>
        <time>2019-05-31T13:09:02Z</time>
      </trkpt>
      <trkpt lat="44.08803" lon="3.1481">
        <ele>739.2</ele>
        <time>2019-05-31T13:09:03Z</time>
      </trkpt>
      <trkpt lat="44.08802" lon="3.14803">
        <ele>739</ele>
        <time>2019-05-31T13:09:04Z</time>
      </trkpt>
      <trkpt lat="44.088" lon="3.14796">
        <ele>738.9</ele>
        <time>2019-05-31T13:09:05Z</time>
      </trkpt>
      <trkpt lat="44.08794" lon="3.14785">
        <ele>739.1</ele>
        <time>2019-05-31T13:09:06Z</time>
      </trkpt>
      <trkpt lat="44.08791" lon="3.14779">
        <ele>738.9</ele>
        <time>2019-05-31T13:09:07Z</time>
      </trkpt>
      <trkpt lat="44.0879" lon="3.14774">
        <ele>738.6</ele>
        <time>2019-05-31T13:09:08Z</time>
      </trkpt>
      <trkpt lat="44.0879" lon="3.14767">
        <ele>738.4</ele>
        <time>2019-05-31T13:09:10Z</time>
      </trkpt>
      <trkpt lat="44.08789" lon="3.14763">
        <ele>738.6</ele>
        <time>2019-05-31T13:09:12Z</time>
      </trkpt>
      <trkpt lat="44.08792" lon="3.14763">
        <ele>738.2</ele>
        <time>2019-05-31T13:09:15Z</time>
      </trkpt>
      <trkpt lat="44.08791" lon="3.14759">
        <ele>738</ele>
        <time>2019-05-31T13:09:17Z</time>
      </trkpt>
      <trkpt lat="44.08789" lon="3.14755">
        <ele>738.3</ele>
        <time>2019-05-31T13:09:22Z</time>
      </trkpt>
      <trkpt lat="44.08786" lon="3.14751">
        <ele>738.7</ele>
        <time>2019-05-31T13:09:24Z</time>
      </trkpt>
      <trkpt lat="44.08785" lon="3.14745">
        <ele>738.6</ele>
        <time>2019-05-31T13:09:26Z</time>
      </trkpt>
      <trkpt lat="44.08785" lon="3.14739">
        <ele>738.6</ele>
        <time>2019-05-31T13:09:28Z</time>
      </trkpt>
      <trkpt lat="44.08785" lon="3.14732">
        <ele>738.5</ele>
        <time>2019-05-31T13:09:30Z</time>
      </trkpt>
      <trkpt lat="44.08784" lon="3.14725">
        <ele>738.5</ele>
        <time>2019-05-31T13:09:32Z</time>
      </trkpt>
      <trkpt lat="44.08783" lon="3.14721">
        <ele>738.4</ele>
        <time>2019-05-31T13:09:33Z</time>
      </trkpt>
      <trkpt lat="44.08782" lon="3.14715">
        <ele>738.8</ele>
        <time>2019-05-31T13:09:35Z</time>
      </trkpt>
      <trkpt lat="44.08781" lon="3.1471">
        <ele>738.8</ele>
        <time>2019-05-31T13:09:37Z</time>
      </trkpt>
      <trkpt lat="44.0878" lon="3.14703">
        <ele>739.3</ele>
        <time>2019-05-31T13:09:39Z</time>
      </trkpt>
      <trkpt lat="44.08779" lon="3.14696">
        <ele>739.3</ele>
        <time>2019-05-31T13:09:41Z</time>
      </trkpt>
      <trkpt lat="44.08778" lon="3.14692">
        <ele>739.2</ele>
        <time>2019-05-31T13:09:42Z</time>
      </trkpt>
      <trkpt lat="44.08777" lon="3.14688">
        <ele>739.8</ele>
        <time>2019-05-31T13:09:43Z</time>
      </trkpt>
      <trkpt lat="44.08773" lon="3.14684">
        <ele>740.3</ele>
        <time>2019-05-31T13:09:45Z</time>
      </trkpt>
      <trkpt lat="44.08771" lon="3.14678">
        <ele>740.9</ele>
        <time>2019-05-31T13:09:47Z</time>
      </trkpt>
      <trkpt lat="44.08771" lon="3.1467">
        <ele>741</ele>
        <time>2019-05-31T13:09:49Z</time>
      </trkpt>
      <trkpt lat="44.08771" lon="3.14665">
        <ele>740.6</ele>
        <time>2019-05-31T13:09:50Z</time>
      </trkpt>
      <trkpt lat="44.08773" lon="3.14659">
        <ele>740.7</ele>
        <time>2019-05-31T13:09:51Z</time>
      </trkpt>
      <trkpt lat="44.08774" lon="3.14655">
        <ele>740.8</ele>
        <time>2019-05-31T13:09:52Z</time>
      </trkpt>
      <trkpt lat="44.08774" lon="3.14648">
        <ele>740.8</ele>
        <time>2019-05-31T13:09:54Z</time>
      </trkpt>
      <trkpt lat="44.08771" lon="3.14641">
        <ele>741.3</ele>
        <time>2019-05-31T13:09:56Z</time>
      </trkpt>
      <trkpt lat="44.08769" lon="3.14638">
        <ele>741.3</ele>
        <time>2019-05-31T13:09:57Z</time>
      </trkpt>
      <trkpt lat="44.08766" lon="3.14634">
        <ele>741.7</ele>
        <time>2019-05-31T13:09:58Z</time>
      </trkpt>
      <trkpt lat="44.08763" lon="3.14629">
        <ele>742.1</ele>
        <time>2019-05-31T13:09:59Z</time>
      </trkpt>
      <trkpt lat="44.0876" lon="3.14625">
        <ele>742.5</ele>
        <time>2019-05-31T13:10:00Z</time>
      </trkpt>
      <trkpt lat="44.08758" lon="3.1462">
        <ele>743</ele>
        <time>2019-05-31T13:10:01Z</time>
      </trkpt>
      <trkpt lat="44.08757" lon="3.14617">
        <ele>743</ele>
        <time>2019-05-31T13:10:02Z</time>
      </trkpt>
      <trkpt lat="44.08754" lon="3.14612">
        <ele>743.3</ele>
        <time>2019-05-31T13:10:04Z</time>
      </trkpt>
      <trkpt lat="44.08752" lon="3.14609">
        <ele>743.7</ele>
        <time>2019-05-31T13:10:05Z</time>
      </trkpt>
      <trkpt lat="44.08749" lon="3.14606">
        <ele>743.6</ele>
        <time>2019-05-31T13:10:06Z</time>
      </trkpt>
      <trkpt lat="44.08747" lon="3.14604">
        <ele>744</ele>
        <time>2019-05-31T13:10:07Z</time>
      </trkpt>
      <trkpt lat="44.08744" lon="3.14602">
        <ele>744.3</ele>
        <time>2019-05-31T13:10:08Z</time>
      </trkpt>
      <trkpt lat="44.08742" lon="3.14599">
        <ele>744.5</ele>
        <time>2019-05-31T13:10:09Z</time>
      </trkpt>
      <trkpt lat="44.0874" lon="3.14596">
        <ele>744.5</ele>
        <time>2019-05-31T13:10:10Z</time>
      </trkpt>
      <trkpt lat="44.08737" lon="3.14591">
        <ele>744.6</ele>
        <time>2019-05-31T13:10:12Z</time>
      </trkpt>
      <trkpt lat="44.08735" lon="3.14588">
        <ele>744.4</ele>
        <time>2019-05-31T13:10:14Z</time>
      </trkpt>
      <trkpt lat="44.08731" lon="3.14587">
        <ele>744.3</ele>
        <time>2019-05-31T13:10:17Z</time>
      </trkpt>
      <trkpt lat="44.08729" lon="3.14589">
        <ele>744.2</ele>
        <time>2019-05-31T13:10:20Z</time>
      </trkpt>
      <trkpt lat="44.08727" lon="3.14592">
        <ele>744</ele>
        <time>2019-05-31T13:10:26Z</time>
      </trkpt>
      <trkpt lat="44.08724" lon="3.14594">
        <ele>743.7</ele>
        <time>2019-05-31T13:10:30Z</time>
      </trkpt>
      <trkpt lat="44.08721" lon="3.14593">
        <ele>743.5</ele>
        <time>2019-05-31T13:10:35Z</time>
      </trkpt>
      <trkpt lat="44.08723" lon="3.14594">
        <ele>743.3</ele>
        <time>2019-05-31T13:10:48Z</time>
      </trkpt>
      <trkpt lat="44.08726" lon="3.14593">
        <ele>743.1</ele>
        <time>2019-05-31T13:10:50Z</time>
      </trkpt>
      <trkpt lat="44.0873" lon="3.14592">
        <ele>742.9</ele>
        <time>2019-05-31T13:10:52Z</time>
      </trkpt>
      <trkpt lat="44.08732" lon="3.14591">
        <ele>742.8</ele>
        <time>2019-05-31T13:10:53Z</time>
      </trkpt>
      <trkpt lat="44.08736" lon="3.1459">
        <ele>742.6</ele>
        <time>2019-05-31T13:10:54Z</time>
      </trkpt>
      <trkpt lat="44.08739" lon="3.14588">
        <ele>742.4</ele>
        <time>2019-05-31T13:10:55Z</time>
      </trkpt>
      <trkpt lat="44.08743" lon="3.14586">
        <ele>742.2</ele>
        <time>2019-05-31T13:10:56Z</time>
      </trkpt>
      <trkpt lat="44.08745" lon="3.14583">
        <ele>742</ele>
        <time>2019-05-31T13:10:57Z</time>
      </trkpt>
      <trkpt lat="44.08748" lon="3.14579">
        <ele>741.8</ele>
        <time>2019-05-31T13:10:58Z</time>
      </trkpt>
      <trkpt lat="44.08751" lon="3.14576">
        <ele>741.6</ele>
        <time>2019-05-31T13:10:59Z</time>
      </trkpt>
      <trkpt lat="44.08754" lon="3.14572">
        <ele>741.4</ele>
        <time>2019-05-31T13:11:00Z</time>
      </trkpt>
      <trkpt lat="44.08758" lon="3.14564">
        <ele>741.3</ele>
        <time>2019-05-31T13:11:01Z</time>
      </trkpt>
      <trkpt lat="44.08762" lon="3.14556">
        <ele>741.2</ele>
        <time>2019-05-31T13:11:02Z</time>
      </trkpt>
      <trkpt lat="44.08764" lon="3.1455">
        <ele>741.2</ele>
        <time>2019-05-31T13:11:03Z</time>
      </trkpt>
      <trkpt lat="44.08766" lon="3.14544">
        <ele>741.2</ele>
        <time>2019-05-31T13:11:04Z</time>
      </trkpt>
      <trkpt lat="44.08767" lon="3.14536">
        <ele>741.2</ele>
        <time>2019-05-31T13:11:05Z</time>
      </trkpt>
      <trkpt lat="44.08768" lon="3.14529">
        <ele>741.2</ele>
        <time>2019-05-31T13:11:06Z</time>
      </trkpt>
      <trkpt lat="44.08769" lon="3.1452">
        <ele>741.2</ele>
        <time>2019-05-31T13:11:07Z</time>
      </trkpt>
      <trkpt lat="44.0877" lon="3.14512">
        <ele>741.2</ele>
        <time>2019-05-31T13:11:08Z</time>
      </trkpt>
      <trkpt lat="44.08775" lon="3.14512">
        <ele>741.2</ele>
        <time>2019-05-31T13:11:09Z</time>
      </trkpt>
      <trkpt lat="44.08782" lon="3.14507">
        <ele>741.2</ele>
        <time>2019-05-31T13:11:10Z</time>
      </trkpt>
      <trkpt lat="44.08786" lon="3.14504">
        <ele>741.3</ele>
        <time>2019-05-31T13:11:11Z</time>
      </trkpt>
      <trkpt lat="44.08792" lon="3.14501">
        <ele>741.2</ele>
        <time>2019-05-31T13:11:12Z</time>
      </trkpt>
      <trkpt lat="44.08794" lon="3.14499">
        <ele>741.2</ele>
        <time>2019-05-31T13:11:13Z</time>
      </trkpt>
      <trkpt lat="44.08797" lon="3.14496">
        <ele>741.2</ele>
        <time>2019-05-31T13:11:14Z</time>
      </trkpt>
      <trkpt lat="44.088" lon="3.14494">
        <ele>741.2</ele>
        <time>2019-05-31T13:11:15Z</time>
      </trkpt>
      <trkpt lat="44.08803" lon="3.1449">
        <ele>741.2</ele>
        <time>2019-05-31T13:11:16Z</time>
      </trkpt>
      <trkpt lat="44.08807" lon="3.14487">
        <ele>741.2</ele>
        <time>2019-05-31T13:11:17Z</time>
      </trkpt>
      <trkpt lat="44.08809" lon="3.14485">
        <ele>741.1</ele>
        <time>2019-05-31T13:11:18Z</time>
      </trkpt>
      <trkpt lat="44.08813" lon="3.14484">
        <ele>741.1</ele>
        <time>2019-05-31T13:11:19Z</time>
      </trkpt>
      <trkpt lat="44.08818" lon="3.14479">
        <ele>741.1</ele>
        <time>2019-05-31T13:11:20Z</time>
      </trkpt>
      <trkpt lat="44.08821" lon="3.14478">
        <ele>741</ele>
        <time>2019-05-31T13:11:21Z</time>
      </trkpt>
      <trkpt lat="44.08824" lon="3.14475">
        <ele>741</ele>
        <time>2019-05-31T13:11:22Z</time>
      </trkpt>
      <trkpt lat="44.08826" lon="3.14475">
        <ele>741</ele>
        <time>2019-05-31T13:11:23Z</time>
      </trkpt>
      <trkpt lat="44.08831" lon="3.1447">
        <ele>740.9</ele>
        <time>2019-05-31T13:11:24Z</time>
      </trkpt>
      <trkpt lat="44.08836" lon="3.14466">
        <ele>740.8</ele>
        <time>2019-05-31T13:11:25Z</time>
      </trkpt>
      <trkpt lat="44.0884" lon="3.14463">
        <ele>740.7</ele>
        <time>2019-05-31T13:11:26Z</time>
      </trkpt>
      <trkpt lat="44.08843" lon="3.14461">
        <ele>740.6</ele>
        <time>2019-05-31T13:11:27Z</time>
      </trkpt>
      <trkpt lat="44.08845" lon="3.1446">
        <ele>740.6</ele>
        <time>2019-05-31T13:11:28Z</time>
      </trkpt>
      <trkpt lat="44.08849" lon="3.14459">
        <ele>740.5</ele>
        <time>2019-05-31T13:11:29Z</time>
      </trkpt>
      <trkpt lat="44.08852" lon="3.14457">
        <ele>740.4</ele>
        <time>2019-05-31T13:11:30Z</time>
      </trkpt>
      <trkpt lat="44.08856" lon="3.14456">
        <ele>740.2</ele>
        <time>2019-05-31T13:11:31Z</time>
      </trkpt>
      <trkpt lat="44.0886" lon="3.14454">
        <ele>740.1</ele>
        <time>2019-05-31T13:11:32Z</time>
      </trkpt>
      <trkpt lat="44.08864" lon="3.14452">
        <ele>739.9</ele>
        <time>2019-05-31T13:11:33Z</time>
      </trkpt>
      <trkpt lat="44.08869" lon="3.14448">
        <ele>739.7</ele>
        <time>2019-05-31T13:11:34Z</time>
      </trkpt>
      <trkpt lat="44.08873" lon="3.14447">
        <ele>739.5</ele>
        <time>2019-05-31T13:11:35Z</time>
      </trkpt>
      <trkpt lat="44.08877" lon="3.14441">
        <ele>739.2</ele>
        <time>2019-05-31T13:11:36Z</time>
      </trkpt>
      <trkpt lat="44.08881" lon="3.1444">
        <ele>739.1</ele>
        <time>2019-05-31T13:11:37Z</time>
      </trkpt>
      <trkpt lat="44.08885" lon="3.14439">
        <ele>738.9</ele>
        <time>2019-05-31T13:11:38Z</time>
      </trkpt>
      <trkpt lat="44.08892" lon="3.14436">
        <ele>738.6</ele>
        <time>2019-05-31T13:11:39Z</time>
      </trkpt>
      <trkpt lat="44.08899" lon="3.14435">
        <ele>738.4</ele>
        <time>2019-05-31T13:11:40Z</time>
      </trkpt>
      <trkpt lat="44.08906" lon="3.14433">
        <ele>738.2</ele>
        <time>2019-05-31T13:11:41Z</time>
      </trkpt>
      <trkpt lat="44.08912" lon="3.14431">
        <ele>738</ele>
        <time>2019-05-31T13:11:42Z</time>
      </trkpt>
      <trkpt lat="44.08918" lon="3.14428">
        <ele>737.8</ele>
        <time>2019-05-31T13:11:43Z</time>
      </trkpt>
      <trkpt lat="44.08923" lon="3.14426">
        <ele>737.7</ele>
        <time>2019-05-31T13:11:44Z</time>
      </trkpt>
      <trkpt lat="44.08931" lon="3.14425">
        <ele>737.4</ele>
        <time>2019-05-31T13:11:45Z</time>
      </trkpt>
      <trkpt lat="44.08937" lon="3.14423">
        <ele>737.3</ele>
        <time>2019-05-31T13:11:46Z</time>
      </trkpt>
      <trkpt lat="44.08944" lon="3.14422">
        <ele>737.1</ele>
        <time>2019-05-31T13:11:47Z</time>
      </trkpt>
      <trkpt lat="44.08949" lon="3.14421">
        <ele>737</ele>
        <time>2019-05-31T13:11:48Z</time>
      </trkpt>
      <trkpt lat="44.08956" lon="3.14418">
        <ele>736.8</ele>
        <time>2019-05-31T13:11:49Z</time>
      </trkpt>
      <trkpt lat="44.08963" lon="3.14414">
        <ele>736.7</ele>
        <time>2019-05-31T13:11:50Z</time>
      </trkpt>
      <trkpt lat="44.08971" lon="3.14411">
        <ele>736.6</ele>
        <time>2019-05-31T13:11:51Z</time>
      </trkpt>
      <trkpt lat="44.08978" lon="3.1441">
        <ele>736.6</ele>
        <time>2019-05-31T13:11:52Z</time>
      </trkpt>
      <trkpt lat="44.08984" lon="3.14407">
        <ele>736.6</ele>
        <time>2019-05-31T13:11:53Z</time>
      </trkpt>
      <trkpt lat="44.08993" lon="3.14404">
        <ele>736.6</ele>
        <time>2019-05-31T13:11:54Z</time>
      </trkpt>
      <trkpt lat="44.08999" lon="3.144">
        <ele>736.6</ele>
        <time>2019-05-31T13:11:55Z</time>
      </trkpt>
      <trkpt lat="44.09007" lon="3.14397">
        <ele>736.6</ele>
        <time>2019-05-31T13:11:56Z</time>
      </trkpt>
      <trkpt lat="44.09014" lon="3.14392">
        <ele>736.6</ele>
        <time>2019-05-31T13:11:57Z</time>
      </trkpt>
      <trkpt lat="44.09023" lon="3.14389">
        <ele>736.7</ele>
        <time>2019-05-31T13:11:58Z</time>
      </trkpt>
      <trkpt lat="44.0903" lon="3.14384">
        <ele>736.6</ele>
        <time>2019-05-31T13:11:59Z</time>
      </trkpt>
      <trkpt lat="44.09036" lon="3.1438">
        <ele>736.6</ele>
        <time>2019-05-31T13:12:00Z</time>
      </trkpt>
      <trkpt lat="44.09042" lon="3.14374">
        <ele>736.6</ele>
        <time>2019-05-31T13:12:01Z</time>
      </trkpt>
      <trkpt lat="44.09047" lon="3.1437">
        <ele>736.6</ele>
        <time>2019-05-31T13:12:02Z</time>
      </trkpt>
      <trkpt lat="44.09052" lon="3.14365">
        <ele>736.6</ele>
        <time>2019-05-31T13:12:03Z</time>
      </trkpt>
      <trkpt lat="44.09056" lon="3.14361">
        <ele>736.5</ele>
        <time>2019-05-31T13:12:04Z</time>
      </trkpt>
      <trkpt lat="44.09062" lon="3.14357">
        <ele>736.5</ele>
        <time>2019-05-31T13:12:05Z</time>
      </trkpt>
      <trkpt lat="44.09064" lon="3.14355">
        <ele>736.5</ele>
        <time>2019-05-31T13:12:06Z</time>
      </trkpt>
      <trkpt lat="44.09069" lon="3.14354">
        <ele>736.5</ele>
        <time>2019-05-31T13:12:07Z</time>
      </trkpt>
      <trkpt lat="44.09074" lon="3.14349">
        <ele>735.8</ele>
        <time>2019-05-31T13:12:08Z</time>
      </trkpt>
      <trkpt lat="44.09077" lon="3.14347">
        <ele>735.8</ele>
        <time>2019-05-31T13:12:09Z</time>
      </trkpt>
      <trkpt lat="44.0908" lon="3.14345">
        <ele>735.7</ele>
        <time>2019-05-31T13:12:10Z</time>
      </trkpt>
      <trkpt lat="44.09083" lon="3.14341">
        <ele>735.7</ele>
        <time>2019-05-31T13:12:11Z</time>
      </trkpt>
      <trkpt lat="44.09086" lon="3.14338">
        <ele>735.8</ele>
        <time>2019-05-31T13:12:12Z</time>
      </trkpt>
      <trkpt lat="44.09089" lon="3.14335">
        <ele>735.9</ele>
        <time>2019-05-31T13:12:13Z</time>
      </trkpt>
      <trkpt lat="44.09092" lon="3.14332">
        <ele>735.9</ele>
        <time>2019-05-31T13:12:14Z</time>
      </trkpt>
      <trkpt lat="44.09094" lon="3.14329">
        <ele>735.8</ele>
        <time>2019-05-31T13:12:15Z</time>
      </trkpt>
      <trkpt lat="44.09096" lon="3.14324">
        <ele>735.8</ele>
        <time>2019-05-31T13:12:16Z</time>
      </trkpt>
      <trkpt lat="44.09098" lon="3.14319">
        <ele>735.8</ele>
        <time>2019-05-31T13:12:17Z</time>
      </trkpt>
      <trkpt lat="44.091" lon="3.14315">
        <ele>735.9</ele>
        <time>2019-05-31T13:12:18Z</time>
      </trkpt>
      <trkpt lat="44.09102" lon="3.14311">
        <ele>736</ele>
        <time>2019-05-31T13:12:19Z</time>
      </trkpt>
      <trkpt lat="44.09104" lon="3.14306">
        <ele>736.1</ele>
        <time>2019-05-31T13:12:20Z</time>
      </trkpt>
      <trkpt lat="44.09105" lon="3.14302">
        <ele>736.2</ele>
        <time>2019-05-31T13:12:21Z</time>
      </trkpt>
      <trkpt lat="44.09106" lon="3.14298">
        <ele>736.3</ele>
        <time>2019-05-31T13:12:22Z</time>
      </trkpt>
      <trkpt lat="44.09106" lon="3.14291">
        <ele>736.4</ele>
        <time>2019-05-31T13:12:24Z</time>
      </trkpt>
      <trkpt lat="44.09103" lon="3.14285">
        <ele>736.2</ele>
        <time>2019-05-31T13:12:26Z</time>
      </trkpt>
      <trkpt lat="44.09101" lon="3.14281">
        <ele>736.1</ele>
        <time>2019-05-31T13:12:27Z</time>
      </trkpt>
      <trkpt lat="44.09099" lon="3.14277">
        <ele>736.1</ele>
        <time>2019-05-31T13:12:28Z</time>
      </trkpt>
      <trkpt lat="44.09098" lon="3.14274">
        <ele>736.2</ele>
        <time>2019-05-31T13:12:29Z</time>
      </trkpt>
      <trkpt lat="44.09097" lon="3.1427">
        <ele>736.2</ele>
        <time>2019-05-31T13:12:30Z</time>
      </trkpt>
      <trkpt lat="44.09097" lon="3.14266">
        <ele>736.2</ele>
        <time>2019-05-31T13:12:31Z</time>
      </trkpt>
      <trkpt lat="44.09096" lon="3.14259">
        <ele>736.3</ele>
        <time>2019-05-31T13:12:33Z</time>
      </trkpt>
      <trkpt lat="44.09096" lon="3.14252">
        <ele>736.4</ele>
        <time>2019-05-31T13:12:35Z</time>
      </trkpt>
      <trkpt lat="44.09096" lon="3.14248">
        <ele>736.4</ele>
        <time>2019-05-31T13:12:37Z</time>
      </trkpt>
      <trkpt lat="44.09099" lon="3.14246">
        <ele>736.4</ele>
        <time>2019-05-31T13:12:42Z</time>
      </trkpt>
      <trkpt lat="44.09101" lon="3.14242">
        <ele>736.4</ele>
        <time>2019-05-31T13:12:45Z</time>
      </trkpt>
      <trkpt lat="44.09098" lon="3.14243">
        <ele>736.3</ele>
        <time>2019-05-31T13:13:14Z</time>
      </trkpt>
      <trkpt lat="44.09098" lon="3.14246">
        <ele>736.3</ele>
        <time>2019-05-31T13:13:16Z</time>
      </trkpt>
      <trkpt lat="44.091" lon="3.1425">
        <ele>736.3</ele>
        <time>2019-05-31T13:13:19Z</time>
      </trkpt>
      <trkpt lat="44.09104" lon="3.14251">
        <ele>736.3</ele>
        <time>2019-05-31T13:13:21Z</time>
      </trkpt>
      <trkpt lat="44.09107" lon="3.14251">
        <ele>736.3</ele>
        <time>2019-05-31T13:13:24Z</time>
      </trkpt>
      <trkpt lat="44.0911" lon="3.1425">
        <ele>736.3</ele>
        <time>2019-05-31T13:13:27Z</time>
      </trkpt>
      <trkpt lat="44.09112" lon="3.14252">
        <ele>736.3</ele>
        <time>2019-05-31T13:13:32Z</time>
      </trkpt>
      <trkpt lat="44.09114" lon="3.14248">
        <ele>736.2</ele>
        <time>2019-05-31T13:13:34Z</time>
      </trkpt>
      <trkpt lat="44.09113" lon="3.14244">
        <ele>736.2</ele>
        <time>2019-05-31T13:13:36Z</time>
      </trkpt>
      <trkpt lat="44.09114" lon="3.1424">
        <ele>736.1</ele>
        <time>2019-05-31T13:13:39Z</time>
      </trkpt>
      <trkpt lat="44.09116" lon="3.14236">
        <ele>736.1</ele>
        <time>2019-05-31T13:13:41Z</time>
      </trkpt>
      <trkpt lat="44.09118" lon="3.14232">
        <ele>736</ele>
        <time>2019-05-31T13:13:43Z</time>
      </trkpt>
      <trkpt lat="44.09121" lon="3.14231">
        <ele>736</ele>
        <time>2019-05-31T13:13:45Z</time>
      </trkpt>
      <trkpt lat="44.09123" lon="3.14234">
        <ele>735.9</ele>
        <time>2019-05-31T13:13:48Z</time>
      </trkpt>
      <trkpt lat="44.09119" lon="3.14228">
        <ele>735.8</ele>
        <time>2019-05-31T13:14:31Z</time>
      </trkpt>
      <trkpt lat="44.09117" lon="3.14224">
        <ele>735.8</ele>
        <time>2019-05-31T13:14:34Z</time>
      </trkpt>
      <trkpt lat="44.09118" lon="3.14219">
        <ele>735.7</ele>
        <time>2019-05-31T13:14:38Z</time>
      </trkpt>
      <trkpt lat="44.09119" lon="3.14215">
        <ele>735.7</ele>
        <time>2019-05-31T13:14:40Z</time>
      </trkpt>
      <trkpt lat="44.09121" lon="3.1421">
        <ele>735.6</ele>
        <time>2019-05-31T13:14:42Z</time>
      </trkpt>
      <trkpt lat="44.09123" lon="3.14204">
        <ele>735.5</ele>
        <time>2019-05-31T13:14:44Z</time>
      </trkpt>
      <trkpt lat="44.09125" lon="3.14199">
        <ele>735.5</ele>
        <time>2019-05-31T13:14:46Z</time>
      </trkpt>
      <trkpt lat="44.09128" lon="3.14195">
        <ele>735.4</ele>
        <time>2019-05-31T13:14:48Z</time>
      </trkpt>
      <trkpt lat="44.09132" lon="3.1419">
        <ele>735.4</ele>
        <time>2019-05-31T13:14:50Z</time>
      </trkpt>
      <trkpt lat="44.0913" lon="3.14192">
        <ele>735.4</ele>
        <time>2019-05-31T13:15:17Z</time>
      </trkpt>
      <trkpt lat="44.09128" lon="3.14197">
        <ele>735.4</ele>
        <time>2019-05-31T13:15:20Z</time>
      </trkpt>
      <trkpt lat="44.09126" lon="3.142">
        <ele>735.4</ele>
        <time>2019-05-31T13:15:23Z</time>
      </trkpt>
      <trkpt lat="44.09125" lon="3.14204">
        <ele>735.4</ele>
        <time>2019-05-31T13:15:28Z</time>
      </trkpt>
      <trkpt lat="44.09123" lon="3.14207">
        <ele>735.4</ele>
        <time>2019-05-31T13:15:30Z</time>
      </trkpt>
      <trkpt lat="44.09122" lon="3.14213">
        <ele>735.3</ele>
        <time>2019-05-31T13:15:32Z</time>
      </trkpt>
      <trkpt lat="44.09121" lon="3.14219">
        <ele>735.3</ele>
        <time>2019-05-31T13:15:34Z</time>
      </trkpt>
      <trkpt lat="44.09121" lon="3.14224">
        <ele>735.2</ele>
        <time>2019-05-31T13:15:36Z</time>
      </trkpt>
      <trkpt lat="44.09124" lon="3.14229">
        <ele>735.1</ele>
        <time>2019-05-31T13:15:38Z</time>
      </trkpt>
      <trkpt lat="44.09126" lon="3.14233">
        <ele>735.1</ele>
        <time>2019-05-31T13:15:43Z</time>
      </trkpt>
      <trkpt lat="44.09129" lon="3.14233">
        <ele>735</ele>
        <time>2019-05-31T13:15:49Z</time>
      </trkpt>
      <trkpt lat="44.0913" lon="3.1423">
        <ele>734.9</ele>
        <time>2019-05-31T13:15:54Z</time>
      </trkpt>
      <trkpt lat="44.09132" lon="3.14229">
        <ele>734.9</ele>
        <time>2019-05-31T13:16:44Z</time>
      </trkpt>
      <trkpt lat="44.09134" lon="3.14226">
        <ele>734.9</ele>
        <time>2019-05-31T13:16:48Z</time>
      </trkpt>
      <trkpt lat="44.09138" lon="3.14223">
        <ele>734.8</ele>
        <time>2019-05-31T13:16:50Z</time>
      </trkpt>
      <trkpt lat="44.09141" lon="3.1422">
        <ele>734.7</ele>
        <time>2019-05-31T13:16:52Z</time>
      </trkpt>
      <trkpt lat="44.09144" lon="3.14218">
        <ele>734.6</ele>
        <time>2019-05-31T13:16:54Z</time>
      </trkpt>
      <trkpt lat="44.09147" lon="3.14216">
        <ele>734.5</ele>
        <time>2019-05-31T13:16:56Z</time>
      </trkpt>
      <trkpt lat="44.0915" lon="3.14214">
        <ele>734.5</ele>
        <time>2019-05-31T13:16:57Z</time>
      </trkpt>
      <trkpt lat="44.09152" lon="3.14212">
        <ele>734.5</ele>
        <time>2019-05-31T13:16:58Z</time>
      </trkpt>
      <trkpt lat="44.09156" lon="3.14208">
        <ele>734.4</ele>
        <time>2019-05-31T13:17:00Z</time>
      </trkpt>
      <trkpt lat="44.0916" lon="3.14204">
        <ele>734.4</ele>
        <time>2019-05-31T13:17:02Z</time>
      </trkpt>
      <trkpt lat="44.09163" lon="3.14199">
        <ele>734.4</ele>
        <time>2019-05-31T13:17:04Z</time>
      </trkpt>
      <trkpt lat="44.09167" lon="3.14195">
        <ele>734.3</ele>
        <time>2019-05-31T13:17:06Z</time>
      </trkpt>
      <trkpt lat="44.0917" lon="3.14191">
        <ele>734.3</ele>
        <time>2019-05-31T13:17:08Z</time>
      </trkpt>
      <trkpt lat="44.09173" lon="3.14187">
        <ele>734.3</ele>
        <time>2019-05-31T13:17:10Z</time>
      </trkpt>
      <trkpt lat="44.09176" lon="3.14185">
        <ele>734.2</ele>
        <time>2019-05-31T13:17:11Z</time>
      </trkpt>
      <trkpt lat="44.09179" lon="3.14184">
        <ele>734.2</ele>
        <time>2019-05-31T13:17:12Z</time>
      </trkpt>
      <trkpt lat="44.09182" lon="3.14183">
        <ele>734.2</ele>
        <time>2019-05-31T13:17:13Z</time>
      </trkpt>
      <trkpt lat="44.09186" lon="3.1418">
        <ele>734.2</ele>
        <time>2019-05-31T13:17:15Z</time>
      </trkpt>
      <trkpt lat="44.09189" lon="3.14174">
        <ele>734.1</ele>
        <time>2019-05-31T13:17:17Z</time>
      </trkpt>
      <trkpt lat="44.09192" lon="3.14167">
        <ele>734.1</ele>
        <time>2019-05-31T13:17:19Z</time>
      </trkpt>
      <trkpt lat="44.09194" lon="3.14163">
        <ele>734.1</ele>
        <time>2019-05-31T13:17:20Z</time>
      </trkpt>
      <trkpt lat="44.09195" lon="3.14159">
        <ele>734.2</ele>
        <time>2019-05-31T13:17:21Z</time>
      </trkpt>
      <trkpt lat="44.09197" lon="3.14155">
        <ele>734.2</ele>
        <time>2019-05-31T13:17:22Z</time>
      </trkpt>
      <trkpt lat="44.09198" lon="3.14151">
        <ele>734.2</ele>
        <time>2019-05-31T13:17:23Z</time>
      </trkpt>
      <trkpt lat="44.092" lon="3.14148">
        <ele>734.3</ele>
        <time>2019-05-31T13:17:24Z</time>
      </trkpt>
      <trkpt lat="44.09203" lon="3.14143">
        <ele>734.4</ele>
        <time>2019-05-31T13:17:26Z</time>
      </trkpt>
      <trkpt lat="44.09207" lon="3.1414">
        <ele>734.4</ele>
        <time>2019-05-31T13:17:28Z</time>
      </trkpt>
      <trkpt lat="44.09211" lon="3.14139">
        <ele>734.4</ele>
        <time>2019-05-31T13:17:29Z</time>
      </trkpt>
      <trkpt lat="44.09214" lon="3.14137">
        <ele>734.4</ele>
        <time>2019-05-31T13:17:30Z</time>
      </trkpt>
      <trkpt lat="44.09218" lon="3.14137">
        <ele>734.4</ele>
        <time>2019-05-31T13:17:31Z</time>
      </trkpt>
      <trkpt lat="44.09221" lon="3.14136">
        <ele>734.5</ele>
        <time>2019-05-31T13:17:32Z</time>
      </trkpt>
      <trkpt lat="44.09225" lon="3.14133">
        <ele>734.5</ele>
        <time>2019-05-31T13:17:34Z</time>
      </trkpt>
      <trkpt lat="44.0923" lon="3.14129">
        <ele>734.6</ele>
        <time>2019-05-31T13:17:36Z</time>
      </trkpt>
      <trkpt lat="44.09234" lon="3.14126">
        <ele>734.7</ele>
        <time>2019-05-31T13:17:37Z</time>
      </trkpt>
      <trkpt lat="44.09237" lon="3.14124">
        <ele>734.7</ele>
        <time>2019-05-31T13:17:38Z</time>
      </trkpt>
      <trkpt lat="44.0924" lon="3.14121">
        <ele>734.8</ele>
        <time>2019-05-31T13:17:39Z</time>
      </trkpt>
      <trkpt lat="44.09243" lon="3.14118">
        <ele>734.8</ele>
        <time>2019-05-31T13:17:40Z</time>
      </trkpt>
      <trkpt lat="44.09246" lon="3.14115">
        <ele>734.9</ele>
        <time>2019-05-31T13:17:41Z</time>
      </trkpt>
      <trkpt lat="44.09248" lon="3.14112">
        <ele>735</ele>
        <time>2019-05-31T13:17:42Z</time>
      </trkpt>
      <trkpt lat="44.09251" lon="3.14107">
        <ele>735</ele>
        <time>2019-05-31T13:17:43Z</time>
      </trkpt>
      <trkpt lat="44.09253" lon="3.14103">
        <ele>735</ele>
        <time>2019-05-31T13:17:44Z</time>
      </trkpt>
      <trkpt lat="44.09256" lon="3.14099">
        <ele>735</ele>
        <time>2019-05-31T13:17:45Z</time>
      </trkpt>
      <trkpt lat="44.09258" lon="3.14097">
        <ele>734.9</ele>
        <time>2019-05-31T13:17:46Z</time>
      </trkpt>
      <trkpt lat="44.09261" lon="3.14094">
        <ele>734.9</ele>
        <time>2019-05-31T13:17:47Z</time>
      </trkpt>
      <trkpt lat="44.09265" lon="3.14093">
        <ele>734.9</ele>
        <time>2019-05-31T13:17:48Z</time>
      </trkpt>
      <trkpt lat="44.09269" lon="3.14092">
        <ele>734.9</ele>
        <time>2019-05-31T13:17:49Z</time>
      </trkpt>
      <trkpt lat="44.09275" lon="3.14092">
        <ele>734.9</ele>
        <time>2019-05-31T13:17:50Z</time>
      </trkpt>
      <trkpt lat="44.09278" lon="3.1409">
        <ele>734.9</ele>
        <time>2019-05-31T13:17:51Z</time>
      </trkpt>
      <trkpt lat="44.09281" lon="3.14087">
        <ele>735</ele>
        <time>2019-05-31T13:17:52Z</time>
      </trkpt>
      <trkpt lat="44.09285" lon="3.14084">
        <ele>735</ele>
        <time>2019-05-31T13:17:53Z</time>
      </trkpt>
      <trkpt lat="44.09289" lon="3.14083">
        <ele>735</ele>
        <time>2019-05-31T13:17:54Z</time>
      </trkpt>
      <trkpt lat="44.09292" lon="3.14081">
        <ele>735</ele>
        <time>2019-05-31T13:17:55Z</time>
      </trkpt>
      <trkpt lat="44.09294" lon="3.14078">
        <ele>735</ele>
        <time>2019-05-31T13:17:56Z</time>
      </trkpt>
      <trkpt lat="44.09297" lon="3.14076">
        <ele>735</ele>
        <time>2019-05-31T13:17:57Z</time>
      </trkpt>
      <trkpt lat="44.09299" lon="3.14075">
        <ele>735</ele>
        <time>2019-05-31T13:17:58Z</time>
      </trkpt>
      <trkpt lat="44.09304" lon="3.14073">
        <ele>735</ele>
        <time>2019-05-31T13:18:00Z</time>
      </trkpt>
      <trkpt lat="44.09306" lon="3.14073">
        <ele>735</ele>
        <time>2019-05-31T13:18:01Z</time>
      </trkpt>
      <trkpt lat="44.09309" lon="3.14075">
        <ele>735.1</ele>
        <time>2019-05-31T13:18:02Z</time>
      </trkpt>
      <trkpt lat="44.09312" lon="3.14075">
        <ele>735.1</ele>
        <time>2019-05-31T13:18:03Z</time>
      </trkpt>
      <trkpt lat="44.09316" lon="3.14076">
        <ele>735.1</ele>
        <time>2019-05-31T13:18:04Z</time>
      </trkpt>
      <trkpt lat="44.09319" lon="3.14076">
        <ele>735.1</ele>
        <time>2019-05-31T13:18:05Z</time>
      </trkpt>
      <trkpt lat="44.09323" lon="3.14076">
        <ele>735.1</ele>
        <time>2019-05-31T13:18:07Z</time>
      </trkpt>
      <trkpt lat="44.09326" lon="3.14077">
        <ele>735.1</ele>
        <time>2019-05-31T13:18:08Z</time>
      </trkpt>
      <trkpt lat="44.09329" lon="3.14078">
        <ele>735</ele>
        <time>2019-05-31T13:18:09Z</time>
      </trkpt>
      <trkpt lat="44.09332" lon="3.14078">
        <ele>735</ele>
        <time>2019-05-31T13:18:10Z</time>
      </trkpt>
      <trkpt lat="44.09335" lon="3.14078">
        <ele>735</ele>
        <time>2019-05-31T13:18:11Z</time>
      </trkpt>
      <trkpt lat="44.09338" lon="3.14078">
        <ele>734.9</ele>
        <time>2019-05-31T13:18:12Z</time>
      </trkpt>
      <trkpt lat="44.09341" lon="3.14078">
        <ele>734.9</ele>
        <time>2019-05-31T13:18:13Z</time>
      </trkpt>
      <trkpt lat="44.09345" lon="3.14077">
        <ele>734.8</ele>
        <time>2019-05-31T13:18:14Z</time>
      </trkpt>
      <trkpt lat="44.09348" lon="3.14077">
        <ele>734.7</ele>
        <time>2019-05-31T13:18:15Z</time>
      </trkpt>
      <trkpt lat="44.09351" lon="3.14077">
        <ele>734.7</ele>
        <time>2019-05-31T13:18:16Z</time>
      </trkpt>
      <trkpt lat="44.09355" lon="3.14077">
        <ele>734.6</ele>
        <time>2019-05-31T13:18:17Z</time>
      </trkpt>
      <trkpt lat="44.09359" lon="3.14077">
        <ele>734.5</ele>
        <time>2019-05-31T13:18:18Z</time>
      </trkpt>
      <trkpt lat="44.09362" lon="3.14077">
        <ele>734.4</ele>
        <time>2019-05-31T13:18:19Z</time>
      </trkpt>
      <trkpt lat="44.09366" lon="3.14078">
        <ele>734.3</ele>
        <time>2019-05-31T13:18:20Z</time>
      </trkpt>
      <trkpt lat="44.09369" lon="3.14078">
        <ele>734.2</ele>
        <time>2019-05-31T13:18:21Z</time>
      </trkpt>
      <trkpt lat="44.09373" lon="3.14079">
        <ele>734.1</ele>
        <time>2019-05-31T13:18:22Z</time>
      </trkpt>
      <trkpt lat="44.09376" lon="3.1408">
        <ele>734</ele>
        <time>2019-05-31T13:18:23Z</time>
      </trkpt>
      <trkpt lat="44.09379" lon="3.14081">
        <ele>733.9</ele>
        <time>2019-05-31T13:18:24Z</time>
      </trkpt>
      <trkpt lat="44.09383" lon="3.14082">
        <ele>733.8</ele>
        <time>2019-05-31T13:18:25Z</time>
      </trkpt>
      <trkpt lat="44.09386" lon="3.14084">
        <ele>733.7</ele>
        <time>2019-05-31T13:18:26Z</time>
      </trkpt>
      <trkpt lat="44.09389" lon="3.14085">
        <ele>733.6</ele>
        <time>2019-05-31T13:18:27Z</time>
      </trkpt>
      <trkpt lat="44.09393" lon="3.14087">
        <ele>733.5</ele>
        <time>2019-05-31T13:18:28Z</time>
      </trkpt>
      <trkpt lat="44.09396" lon="3.14088">
        <ele>733.4</ele>
        <time>2019-05-31T13:18:29Z</time>
      </trkpt>
      <trkpt lat="44.09399" lon="3.1409">
        <ele>733.3</ele>
        <time>2019-05-31T13:18:30Z</time>
      </trkpt>
      <trkpt lat="44.09402" lon="3.14093">
        <ele>733.2</ele>
        <time>2019-05-31T13:18:31Z</time>
      </trkpt>
      <trkpt lat="44.09405" lon="3.14096">
        <ele>733</ele>
        <time>2019-05-31T13:18:32Z</time>
      </trkpt>
      <trkpt lat="44.09408" lon="3.14099">
        <ele>732.9</ele>
        <time>2019-05-31T13:18:33Z</time>
      </trkpt>
      <trkpt lat="44.09411" lon="3.14103">
        <ele>732.7</ele>
        <time>2019-05-31T13:18:34Z</time>
      </trkpt>
      <trkpt lat="44.09416" lon="3.14105">
        <ele>732.5</ele>
        <time>2019-05-31T13:18:35Z</time>
      </trkpt>
      <trkpt lat="44.09419" lon="3.14109">
        <ele>732.4</ele>
        <time>2019-05-31T13:18:36Z</time>
      </trkpt>
      <trkpt lat="44.09423" lon="3.14113">
        <ele>732.2</ele>
        <time>2019-05-31T13:18:37Z</time>
      </trkpt>
      <trkpt lat="44.09428" lon="3.14117">
        <ele>732</ele>
        <time>2019-05-31T13:18:38Z</time>
      </trkpt>
      <trkpt lat="44.09431" lon="3.1412">
        <ele>731.9</ele>
        <time>2019-05-31T13:18:39Z</time>
      </trkpt>
      <trkpt lat="44.09437" lon="3.14122">
        <ele>731.8</ele>
        <time>2019-05-31T13:18:40Z</time>
      </trkpt>
      <trkpt lat="44.09442" lon="3.14125">
        <ele>731.6</ele>
        <time>2019-05-31T13:18:41Z</time>
      </trkpt>
      <trkpt lat="44.09447" lon="3.14128">
        <ele>731.3</ele>
        <time>2019-05-31T13:18:42Z</time>
      </trkpt>
      <trkpt lat="44.09452" lon="3.1413">
        <ele>730.9</ele>
        <time>2019-05-31T13:18:43Z</time>
      </trkpt>
      <trkpt lat="44.09458" lon="3.14132">
        <ele>730.6</ele>
        <time>2019-05-31T13:18:44Z</time>
      </trkpt>
      <trkpt lat="44.09464" lon="3.14134">
        <ele>730.2</ele>
        <time>2019-05-31T13:18:45Z</time>
      </trkpt>
      <trkpt lat="44.09469" lon="3.14137">
        <ele>729.7</ele>
        <time>2019-05-31T13:18:46Z</time>
      </trkpt>
      <trkpt lat="44.09475" lon="3.14139">
        <ele>729.3</ele>
        <time>2019-05-31T13:18:47Z</time>
      </trkpt>
      <trkpt lat="44.0948" lon="3.14143">
        <ele>728.7</ele>
        <time>2019-05-31T13:18:48Z</time>
      </trkpt>
      <trkpt lat="44.09485" lon="3.14149">
        <ele>728.2</ele>
        <time>2019-05-31T13:18:49Z</time>
      </trkpt>
      <trkpt lat="44.09489" lon="3.14155">
        <ele>727.8</ele>
        <time>2019-05-31T13:18:50Z</time>
      </trkpt>
      <trkpt lat="44.09491" lon="3.14163">
        <ele>727.2</ele>
        <time>2019-05-31T13:18:51Z</time>
      </trkpt>
      <trkpt lat="44.09495" lon="3.14169">
        <ele>726.7</ele>
        <time>2019-05-31T13:18:52Z</time>
      </trkpt>
      <trkpt lat="44.09501" lon="3.14177">
        <ele>726.1</ele>
        <time>2019-05-31T13:18:53Z</time>
      </trkpt>
      <trkpt lat="44.09505" lon="3.14183">
        <ele>725.6</ele>
        <time>2019-05-31T13:18:54Z</time>
      </trkpt>
      <trkpt lat="44.09511" lon="3.14189">
        <ele>725.1</ele>
        <time>2019-05-31T13:18:55Z</time>
      </trkpt>
      <trkpt lat="44.09519" lon="3.14193">
        <ele>724.6</ele>
        <time>2019-05-31T13:18:56Z</time>
      </trkpt>
      <trkpt lat="44.09526" lon="3.14197">
        <ele>724.1</ele>
        <time>2019-05-31T13:18:57Z</time>
      </trkpt>
      <trkpt lat="44.09533" lon="3.14204">
        <ele>723.6</ele>
        <time>2019-05-31T13:18:58Z</time>
      </trkpt>
      <trkpt lat="44.0954" lon="3.14209">
        <ele>723.3</ele>
        <time>2019-05-31T13:18:59Z</time>
      </trkpt>
      <trkpt lat="44.09547" lon="3.14213">
        <ele>723</ele>
        <time>2019-05-31T13:19:00Z</time>
      </trkpt>
      <trkpt lat="44.09554" lon="3.14216">
        <ele>722.8</ele>
        <time>2019-05-31T13:19:01Z</time>
      </trkpt>
      <trkpt lat="44.09562" lon="3.14218">
        <ele>723.2</ele>
        <time>2019-05-31T13:19:02Z</time>
      </trkpt>
      <trkpt lat="44.0957" lon="3.14214">
        <ele>723.5</ele>
        <time>2019-05-31T13:19:03Z</time>
      </trkpt>
      <trkpt lat="44.09577" lon="3.14211">
        <ele>723.8</ele>
        <time>2019-05-31T13:19:04Z</time>
      </trkpt>
      <trkpt lat="44.09584" lon="3.1421">
        <ele>724</ele>
        <time>2019-05-31T13:19:05Z</time>
      </trkpt>
      <trkpt lat="44.09591" lon="3.14209">
        <ele>724.2</ele>
        <time>2019-05-31T13:19:06Z</time>
      </trkpt>
      <trkpt lat="44.09599" lon="3.14207">
        <ele>724.4</ele>
        <time>2019-05-31T13:19:07Z</time>
      </trkpt>
      <trkpt lat="44.09605" lon="3.14206">
        <ele>724.6</ele>
        <time>2019-05-31T13:19:08Z</time>
      </trkpt>
      <trkpt lat="44.09612" lon="3.14206">
        <ele>724.8</ele>
        <time>2019-05-31T13:19:09Z</time>
      </trkpt>
      <trkpt lat="44.09619" lon="3.14206">
        <ele>725</ele>
        <time>2019-05-31T13:19:10Z</time>
      </trkpt>
      <trkpt lat="44.09626" lon="3.14207">
        <ele>725.1</ele>
        <time>2019-05-31T13:19:11Z</time>
      </trkpt>
      <trkpt lat="44.09631" lon="3.14208">
        <ele>725.2</ele>
        <time>2019-05-31T13:19:12Z</time>
      </trkpt>
      <trkpt lat="44.09637" lon="3.14209">
        <ele>725.3</ele>
        <time>2019-05-31T13:19:13Z</time>
      </trkpt>
      <trkpt lat="44.09642" lon="3.1421">
        <ele>725.3</ele>
        <time>2019-05-31T13:19:14Z</time>
      </trkpt>
      <trkpt lat="44.09647" lon="3.14211">
        <ele>725.4</ele>
        <time>2019-05-31T13:19:15Z</time>
      </trkpt>
      <trkpt lat="44.09652" lon="3.14212">
        <ele>725.5</ele>
        <time>2019-05-31T13:19:16Z</time>
      </trkpt>
      <trkpt lat="44.09657" lon="3.14211">
        <ele>725.7</ele>
        <time>2019-05-31T13:19:17Z</time>
      </trkpt>
      <trkpt lat="44.09661" lon="3.14211">
        <ele>725.8</ele>
        <time>2019-05-31T13:19:18Z</time>
      </trkpt>
      <trkpt lat="44.09665" lon="3.1421">
        <ele>725.9</ele>
        <time>2019-05-31T13:19:19Z</time>
      </trkpt>
      <trkpt lat="44.09669" lon="3.14208">
        <ele>726</ele>
        <time>2019-05-31T13:19:20Z</time>
      </trkpt>
      <trkpt lat="44.09672" lon="3.14206">
        <ele>726.1</ele>
        <time>2019-05-31T13:19:21Z</time>
      </trkpt>
      <trkpt lat="44.09676" lon="3.14204">
        <ele>726.2</ele>
        <time>2019-05-31T13:19:22Z</time>
      </trkpt>
      <trkpt lat="44.09678" lon="3.14202">
        <ele>726.3</ele>
        <time>2019-05-31T13:19:23Z</time>
      </trkpt>
      <trkpt lat="44.09681" lon="3.14199">
        <ele>726.3</ele>
        <time>2019-05-31T13:19:24Z</time>
      </trkpt>
      <trkpt lat="44.09683" lon="3.14195">
        <ele>726.3</ele>
        <time>2019-05-31T13:19:25Z</time>
      </trkpt>
      <trkpt lat="44.09684" lon="3.14191">
        <ele>726.3</ele>
        <time>2019-05-31T13:19:26Z</time>
      </trkpt>
      <trkpt lat="44.09685" lon="3.14188">
        <ele>726.3</ele>
        <time>2019-05-31T13:19:27Z</time>
      </trkpt>
      <trkpt lat="44.09688" lon="3.14179">
        <ele>726.4</ele>
        <time>2019-05-31T13:19:29Z</time>
      </trkpt>
      <trkpt lat="44.09689" lon="3.14173">
        <ele>726.4</ele>
        <time>2019-05-31T13:19:30Z</time>
      </trkpt>
      <trkpt lat="44.0969" lon="3.14167">
        <ele>726.4</ele>
        <time>2019-05-31T13:19:31Z</time>
      </trkpt>
      <trkpt lat="44.0969" lon="3.14162">
        <ele>726.4</ele>
        <time>2019-05-31T13:19:32Z</time>
      </trkpt>
      <trkpt lat="44.09691" lon="3.14158">
        <ele>726.4</ele>
        <time>2019-05-31T13:19:33Z</time>
      </trkpt>
      <trkpt lat="44.09692" lon="3.14153">
        <ele>726.4</ele>
        <time>2019-05-31T13:19:34Z</time>
      </trkpt>
      <trkpt lat="44.09692" lon="3.14147">
        <ele>726.6</ele>
        <time>2019-05-31T13:19:35Z</time>
      </trkpt>
      <trkpt lat="44.09692" lon="3.14141">
        <ele>726.7</ele>
        <time>2019-05-31T13:19:36Z</time>
      </trkpt>
      <trkpt lat="44.09693" lon="3.14136">
        <ele>726.8</ele>
        <time>2019-05-31T13:19:37Z</time>
      </trkpt>
      <trkpt lat="44.09694" lon="3.14131">
        <ele>726.9</ele>
        <time>2019-05-31T13:19:38Z</time>
      </trkpt>
      <trkpt lat="44.09694" lon="3.14126">
        <ele>726.9</ele>
        <time>2019-05-31T13:19:39Z</time>
      </trkpt>
      <trkpt lat="44.09695" lon="3.14121">
        <ele>726.9</ele>
        <time>2019-05-31T13:19:40Z</time>
      </trkpt>
      <trkpt lat="44.09695" lon="3.14116">
        <ele>726.9</ele>
        <time>2019-05-31T13:19:41Z</time>
      </trkpt>
      <trkpt lat="44.09695" lon="3.14111">
        <ele>726.9</ele>
        <time>2019-05-31T13:19:42Z</time>
      </trkpt>
      <trkpt lat="44.09695" lon="3.14106">
        <ele>727</ele>
        <time>2019-05-31T13:19:43Z</time>
      </trkpt>
      <trkpt lat="44.09695" lon="3.14101">
        <ele>727</ele>
        <time>2019-05-31T13:19:44Z</time>
      </trkpt>
      <trkpt lat="44.09695" lon="3.14096">
        <ele>727</ele>
        <time>2019-05-31T13:19:45Z</time>
      </trkpt>
      <trkpt lat="44.09695" lon="3.14091">
        <ele>727</ele>
        <time>2019-05-31T13:19:46Z</time>
      </trkpt>
      <trkpt lat="44.09694" lon="3.14085">
        <ele>727</ele>
        <time>2019-05-31T13:19:47Z</time>
      </trkpt>
      <trkpt lat="44.09694" lon="3.1408">
        <ele>727</ele>
        <time>2019-05-31T13:19:48Z</time>
      </trkpt>
      <trkpt lat="44.09694" lon="3.14074">
        <ele>726.9</ele>
        <time>2019-05-31T13:19:49Z</time>
      </trkpt>
      <trkpt lat="44.09694" lon="3.14068">
        <ele>726.9</ele>
        <time>2019-05-31T13:19:50Z</time>
      </trkpt>
      <trkpt lat="44.09696" lon="3.1406">
        <ele>726.9</ele>
        <time>2019-05-31T13:19:51Z</time>
      </trkpt>
      <trkpt lat="44.09698" lon="3.14054">
        <ele>726.9</ele>
        <time>2019-05-31T13:19:52Z</time>
      </trkpt>
      <trkpt lat="44.097" lon="3.14049">
        <ele>727</ele>
        <time>2019-05-31T13:19:53Z</time>
      </trkpt>
      <trkpt lat="44.09703" lon="3.14043">
        <ele>727.1</ele>
        <time>2019-05-31T13:19:54Z</time>
      </trkpt>
      <trkpt lat="44.09706" lon="3.14039">
        <ele>727.2</ele>
        <time>2019-05-31T13:19:55Z</time>
      </trkpt>
      <trkpt lat="44.09711" lon="3.14035">
        <ele>727.3</ele>
        <time>2019-05-31T13:19:56Z</time>
      </trkpt>
      <trkpt lat="44.09715" lon="3.1403">
        <ele>727.4</ele>
        <time>2019-05-31T13:19:57Z</time>
      </trkpt>
      <trkpt lat="44.09718" lon="3.14025">
        <ele>727.4</ele>
        <time>2019-05-31T13:19:58Z</time>
      </trkpt>
      <trkpt lat="44.09722" lon="3.14021">
        <ele>727.4</ele>
        <time>2019-05-31T13:19:59Z</time>
      </trkpt>
      <trkpt lat="44.09726" lon="3.14015">
        <ele>727.4</ele>
        <time>2019-05-31T13:20:00Z</time>
      </trkpt>
      <trkpt lat="44.09729" lon="3.14012">
        <ele>727.3</ele>
        <time>2019-05-31T13:20:01Z</time>
      </trkpt>
      <trkpt lat="44.09735" lon="3.14006">
        <ele>727.1</ele>
        <time>2019-05-31T13:20:03Z</time>
      </trkpt>
      <trkpt lat="44.0974" lon="3.13998">
        <ele>726.9</ele>
        <time>2019-05-31T13:20:04Z</time>
      </trkpt>
      <trkpt lat="44.09744" lon="3.13995">
        <ele>726.7</ele>
        <time>2019-05-31T13:20:05Z</time>
      </trkpt>
      <trkpt lat="44.09748" lon="3.13991">
        <ele>726.6</ele>
        <time>2019-05-31T13:20:06Z</time>
      </trkpt>
      <trkpt lat="44.09752" lon="3.13985">
        <ele>726.5</ele>
        <time>2019-05-31T13:20:07Z</time>
      </trkpt>
      <trkpt lat="44.09755" lon="3.13981">
        <ele>726.4</ele>
        <time>2019-05-31T13:20:08Z</time>
      </trkpt>
      <trkpt lat="44.09759" lon="3.13976">
        <ele>726.3</ele>
        <time>2019-05-31T13:20:09Z</time>
      </trkpt>
      <trkpt lat="44.09764" lon="3.1397">
        <ele>726.2</ele>
        <time>2019-05-31T13:20:10Z</time>
      </trkpt>
      <trkpt lat="44.09769" lon="3.13966">
        <ele>726.2</ele>
        <time>2019-05-31T13:20:11Z</time>
      </trkpt>
      <trkpt lat="44.09774" lon="3.13961">
        <ele>726.1</ele>
        <time>2019-05-31T13:20:12Z</time>
      </trkpt>
      <trkpt lat="44.0978" lon="3.13959">
        <ele>726</ele>
        <time>2019-05-31T13:20:13Z</time>
      </trkpt>
      <trkpt lat="44.09786" lon="3.13956">
        <ele>725.9</ele>
        <time>2019-05-31T13:20:14Z</time>
      </trkpt>
      <trkpt lat="44.09791" lon="3.13951">
        <ele>725.7</ele>
        <time>2019-05-31T13:20:15Z</time>
      </trkpt>
      <trkpt lat="44.09798" lon="3.13945">
        <ele>725.4</ele>
        <time>2019-05-31T13:20:16Z</time>
      </trkpt>
      <trkpt lat="44.09804" lon="3.1394">
        <ele>725.1</ele>
        <time>2019-05-31T13:20:17Z</time>
      </trkpt>
      <trkpt lat="44.09809" lon="3.13934">
        <ele>724.8</ele>
        <time>2019-05-31T13:20:18Z</time>
      </trkpt>
      <trkpt lat="44.09814" lon="3.13926">
        <ele>723.9</ele>
        <time>2019-05-31T13:20:19Z</time>
      </trkpt>
      <trkpt lat="44.09819" lon="3.13918">
        <ele>722.3</ele>
        <time>2019-05-31T13:20:20Z</time>
      </trkpt>
      <trkpt lat="44.09825" lon="3.13911">
        <ele>720.8</ele>
        <time>2019-05-31T13:20:21Z</time>
      </trkpt>
      <trkpt lat="44.0983" lon="3.13903">
        <ele>719.6</ele>
        <time>2019-05-31T13:20:22Z</time>
      </trkpt>
      <trkpt lat="44.09833" lon="3.13896">
        <ele>718.8</ele>
        <time>2019-05-31T13:20:23Z</time>
      </trkpt>
      <trkpt lat="44.09834" lon="3.13887">
        <ele>718.1</ele>
        <time>2019-05-31T13:20:24Z</time>
      </trkpt>
      <trkpt lat="44.09835" lon="3.13877">
        <ele>717.3</ele>
        <time>2019-05-31T13:20:25Z</time>
      </trkpt>
      <trkpt lat="44.09835" lon="3.1387">
        <ele>716.9</ele>
        <time>2019-05-31T13:20:26Z</time>
      </trkpt>
      <trkpt lat="44.09836" lon="3.13861">
        <ele>716.2</ele>
        <time>2019-05-31T13:20:27Z</time>
      </trkpt>
      <trkpt lat="44.09837" lon="3.13853">
        <ele>715.7</ele>
        <time>2019-05-31T13:20:28Z</time>
      </trkpt>
      <trkpt lat="44.09839" lon="3.13846">
        <ele>715.2</ele>
        <time>2019-05-31T13:20:29Z</time>
      </trkpt>
      <trkpt lat="44.09841" lon="3.13841">
        <ele>714.8</ele>
        <time>2019-05-31T13:20:30Z</time>
      </trkpt>
      <trkpt lat="44.09841" lon="3.13837">
        <ele>714.5</ele>
        <time>2019-05-31T13:20:31Z</time>
      </trkpt>
      <trkpt lat="44.09842" lon="3.13832">
        <ele>714.5</ele>
        <time>2019-05-31T13:20:32Z</time>
      </trkpt>
      <trkpt lat="44.09842" lon="3.13827">
        <ele>714.5</ele>
        <time>2019-05-31T13:20:33Z</time>
      </trkpt>
      <trkpt lat="44.09839" lon="3.13825">
        <ele>714.5</ele>
        <time>2019-05-31T13:20:34Z</time>
      </trkpt>
      <trkpt lat="44.09832" lon="3.13823">
        <ele>714.4</ele>
        <time>2019-05-31T13:20:36Z</time>
      </trkpt>
      <trkpt lat="44.09828" lon="3.13818">
        <ele>714.3</ele>
        <time>2019-05-31T13:20:37Z</time>
      </trkpt>
      <trkpt lat="44.09824" lon="3.13813">
        <ele>714.2</ele>
        <time>2019-05-31T13:20:38Z</time>
      </trkpt>
      <trkpt lat="44.0982" lon="3.13808">
        <ele>714.2</ele>
        <time>2019-05-31T13:20:39Z</time>
      </trkpt>
      <trkpt lat="44.09816" lon="3.13804">
        <ele>714.1</ele>
        <time>2019-05-31T13:20:40Z</time>
      </trkpt>
      <trkpt lat="44.09812" lon="3.138">
        <ele>713.9</ele>
        <time>2019-05-31T13:20:41Z</time>
      </trkpt>
      <trkpt lat="44.09808" lon="3.13797">
        <ele>713.8</ele>
        <time>2019-05-31T13:20:42Z</time>
      </trkpt>
      <trkpt lat="44.09803" lon="3.13791">
        <ele>713.5</ele>
        <time>2019-05-31T13:20:43Z</time>
      </trkpt>
      <trkpt lat="44.09799" lon="3.13785">
        <ele>713.2</ele>
        <time>2019-05-31T13:20:44Z</time>
      </trkpt>
      <trkpt lat="44.09797" lon="3.13777">
        <ele>712.7</ele>
        <time>2019-05-31T13:20:45Z</time>
      </trkpt>
      <trkpt lat="44.09798" lon="3.13769">
        <ele>711.7</ele>
        <time>2019-05-31T13:20:46Z</time>
      </trkpt>
      <trkpt lat="44.09796" lon="3.1376">
        <ele>710.6</ele>
        <time>2019-05-31T13:20:47Z</time>
      </trkpt>
      <trkpt lat="44.09795" lon="3.13754">
        <ele>709.9</ele>
        <time>2019-05-31T13:20:48Z</time>
      </trkpt>
      <trkpt lat="44.09796" lon="3.13746">
        <ele>709.1</ele>
        <time>2019-05-31T13:20:49Z</time>
      </trkpt>
      <trkpt lat="44.09795" lon="3.13741">
        <ele>708.6</ele>
        <time>2019-05-31T13:20:50Z</time>
      </trkpt>
      <trkpt lat="44.09794" lon="3.13735">
        <ele>708</ele>
        <time>2019-05-31T13:20:51Z</time>
      </trkpt>
      <trkpt lat="44.09793" lon="3.13731">
        <ele>707.8</ele>
        <time>2019-05-31T13:20:52Z</time>
      </trkpt>
      <trkpt lat="44.09786" lon="3.13729">
        <ele>707.5</ele>
        <time>2019-05-31T13:20:53Z</time>
      </trkpt>
      <trkpt lat="44.09782" lon="3.13726">
        <ele>707.4</ele>
        <time>2019-05-31T13:20:54Z</time>
      </trkpt>
      <trkpt lat="44.09776" lon="3.13721">
        <ele>707.6</ele>
        <time>2019-05-31T13:20:55Z</time>
      </trkpt>
      <trkpt lat="44.09772" lon="3.13719">
        <ele>707.7</ele>
        <time>2019-05-31T13:20:56Z</time>
      </trkpt>
      <trkpt lat="44.09768" lon="3.13717">
        <ele>708.1</ele>
        <time>2019-05-31T13:20:57Z</time>
      </trkpt>
      <trkpt lat="44.09765" lon="3.13716">
        <ele>708.3</ele>
        <time>2019-05-31T13:20:59Z</time>
      </trkpt>
      <trkpt lat="44.09762" lon="3.13716">
        <ele>708.6</ele>
        <time>2019-05-31T13:21:01Z</time>
      </trkpt>
      <trkpt lat="44.09758" lon="3.13715">
        <ele>709</ele>
        <time>2019-05-31T13:21:04Z</time>
      </trkpt>
      <trkpt lat="44.09755" lon="3.13715">
        <ele>709.4</ele>
        <time>2019-05-31T13:21:07Z</time>
      </trkpt>
      <trkpt lat="44.09752" lon="3.13714">
        <ele>709.9</ele>
        <time>2019-05-31T13:21:09Z</time>
      </trkpt>
      <trkpt lat="44.09749" lon="3.13713">
        <ele>710.3</ele>
        <time>2019-05-31T13:21:11Z</time>
      </trkpt>
      <trkpt lat="44.09745" lon="3.13711">
        <ele>710.6</ele>
        <time>2019-05-31T13:21:13Z</time>
      </trkpt>
      <trkpt lat="44.09742" lon="3.13709">
        <ele>710.9</ele>
        <time>2019-05-31T13:21:15Z</time>
      </trkpt>
      <trkpt lat="44.09737" lon="3.13707">
        <ele>711.3</ele>
        <time>2019-05-31T13:21:17Z</time>
      </trkpt>
      <trkpt lat="44.09732" lon="3.13705">
        <ele>711.7</ele>
        <time>2019-05-31T13:21:19Z</time>
      </trkpt>
      <trkpt lat="44.09728" lon="3.13703">
        <ele>712.2</ele>
        <time>2019-05-31T13:21:21Z</time>
      </trkpt>
      <trkpt lat="44.09724" lon="3.13702">
        <ele>712.6</ele>
        <time>2019-05-31T13:21:23Z</time>
      </trkpt>
      <trkpt lat="44.09721" lon="3.13699">
        <ele>713</ele>
        <time>2019-05-31T13:21:25Z</time>
      </trkpt>
      <trkpt lat="44.09719" lon="3.13695">
        <ele>713.4</ele>
        <time>2019-05-31T13:21:26Z</time>
      </trkpt>
      <trkpt lat="44.09717" lon="3.13689">
        <ele>713.8</ele>
        <time>2019-05-31T13:21:27Z</time>
      </trkpt>
      <trkpt lat="44.09716" lon="3.13684">
        <ele>714.2</ele>
        <time>2019-05-31T13:21:28Z</time>
      </trkpt>
      <trkpt lat="44.09714" lon="3.1368">
        <ele>714.6</ele>
        <time>2019-05-31T13:21:29Z</time>
      </trkpt>
      <trkpt lat="44.09712" lon="3.13676">
        <ele>715</ele>
        <time>2019-05-31T13:21:30Z</time>
      </trkpt>
      <trkpt lat="44.09709" lon="3.13671">
        <ele>715.8</ele>
        <time>2019-05-31T13:21:32Z</time>
      </trkpt>
      <trkpt lat="44.09706" lon="3.13667">
        <ele>716.5</ele>
        <time>2019-05-31T13:21:34Z</time>
      </trkpt>
      <trkpt lat="44.09703" lon="3.13664">
        <ele>717.3</ele>
        <time>2019-05-31T13:21:37Z</time>
      </trkpt>
      <trkpt lat="44.09699" lon="3.13662">
        <ele>718</ele>
        <time>2019-05-31T13:21:39Z</time>
      </trkpt>
      <trkpt lat="44.09696" lon="3.13662">
        <ele>718.6</ele>
        <time>2019-05-31T13:21:41Z</time>
      </trkpt>
      <trkpt lat="44.09693" lon="3.13658">
        <ele>719.3</ele>
        <time>2019-05-31T13:21:43Z</time>
      </trkpt>
      <trkpt lat="44.09693" lon="3.13654">
        <ele>719.9</ele>
        <time>2019-05-31T13:21:45Z</time>
      </trkpt>
      <trkpt lat="44.09694" lon="3.1365">
        <ele>720.5</ele>
        <time>2019-05-31T13:21:47Z</time>
      </trkpt>
      <trkpt lat="44.09696" lon="3.13646">
        <ele>721.4</ele>
        <time>2019-05-31T13:21:50Z</time>
      </trkpt>
      <trkpt lat="44.09697" lon="3.13642">
        <ele>722.1</ele>
        <time>2019-05-31T13:21:52Z</time>
      </trkpt>
      <trkpt lat="44.09697" lon="3.13638">
        <ele>722.9</ele>
        <time>2019-05-31T13:21:55Z</time>
      </trkpt>
      <trkpt lat="44.09697" lon="3.13633">
        <ele>723.7</ele>
        <time>2019-05-31T13:21:58Z</time>
      </trkpt>
      <trkpt lat="44.09695" lon="3.1363">
        <ele>724.4</ele>
        <time>2019-05-31T13:22:00Z</time>
      </trkpt>
      <trkpt lat="44.09693" lon="3.13628">
        <ele>725.1</ele>
        <time>2019-05-31T13:22:04Z</time>
      </trkpt>
      <trkpt lat="44.09692" lon="3.13623">
        <ele>725.7</ele>
        <time>2019-05-31T13:22:43Z</time>
      </trkpt>
      <trkpt lat="44.09693" lon="3.13618">
        <ele>726.4</ele>
        <time>2019-05-31T13:22:47Z</time>
      </trkpt>
      <trkpt lat="44.0969" lon="3.13616">
        <ele>727.2</ele>
        <time>2019-05-31T13:22:51Z</time>
      </trkpt>
      <trkpt lat="44.09691" lon="3.13613">
        <ele>727.8</ele>
        <time>2019-05-31T13:23:00Z</time>
      </trkpt>
      <trkpt lat="44.09688" lon="3.13612">
        <ele>728.2</ele>
        <time>2019-05-31T13:23:06Z</time>
      </trkpt>
      <trkpt lat="44.09686" lon="3.13612">
        <ele>728.7</ele>
        <time>2019-05-31T13:23:09Z</time>
      </trkpt>
      <trkpt lat="44.09682" lon="3.13611">
        <ele>729.3</ele>
        <time>2019-05-31T13:23:15Z</time>
      </trkpt>
      <trkpt lat="44.09678" lon="3.1361">
        <ele>729.9</ele>
        <time>2019-05-31T13:23:17Z</time>
      </trkpt>
      <trkpt lat="44.09676" lon="3.13606">
        <ele>730.3</ele>
        <time>2019-05-31T13:23:22Z</time>
      </trkpt>
      <trkpt lat="44.09674" lon="3.13602">
        <ele>730.8</ele>
        <time>2019-05-31T13:23:25Z</time>
      </trkpt>
      <trkpt lat="44.09671" lon="3.136">
        <ele>731.1</ele>
        <time>2019-05-31T13:23:27Z</time>
      </trkpt>
      <trkpt lat="44.09668" lon="3.13602">
        <ele>731.5</ele>
        <time>2019-05-31T13:23:30Z</time>
      </trkpt>
      <trkpt lat="44.09665" lon="3.13604">
        <ele>731.9</ele>
        <time>2019-05-31T13:23:38Z</time>
      </trkpt>
      <trkpt lat="44.09661" lon="3.13606">
        <ele>732.2</ele>
        <time>2019-05-31T13:23:40Z</time>
      </trkpt>
      <trkpt lat="44.09658" lon="3.13609">
        <ele>732.5</ele>
        <time>2019-05-31T13:23:42Z</time>
      </trkpt>
      <trkpt lat="44.09654" lon="3.13611">
        <ele>732.9</ele>
        <time>2019-05-31T13:23:44Z</time>
      </trkpt>
      <trkpt lat="44.0965" lon="3.13613">
        <ele>733.3</ele>
        <time>2019-05-31T13:23:46Z</time>
      </trkpt>
      <trkpt lat="44.09647" lon="3.13614">
        <ele>733.6</ele>
        <time>2019-05-31T13:23:48Z</time>
      </trkpt>
      <trkpt lat="44.09644" lon="3.13615">
        <ele>733.9</ele>
        <time>2019-05-31T13:23:50Z</time>
      </trkpt>
      <trkpt lat="44.09641" lon="3.13617">
        <ele>734.2</ele>
        <time>2019-05-31T13:23:52Z</time>
      </trkpt>
      <trkpt lat="44.09638" lon="3.13619">
        <ele>734.6</ele>
        <time>2019-05-31T13:23:54Z</time>
      </trkpt>
      <trkpt lat="44.09634" lon="3.13622">
        <ele>735</ele>
        <time>2019-05-31T13:23:56Z</time>
      </trkpt>
      <trkpt lat="44.09632" lon="3.13625">
        <ele>735.4</ele>
        <time>2019-05-31T13:23:58Z</time>
      </trkpt>
      <trkpt lat="44.09628" lon="3.13629">
        <ele>735.9</ele>
        <time>2019-05-31T13:24:00Z</time>
      </trkpt>
      <trkpt lat="44.09626" lon="3.13632">
        <ele>736.1</ele>
        <time>2019-05-31T13:24:02Z</time>
      </trkpt>
      <trkpt lat="44.09624" lon="3.13635">
        <ele>736.4</ele>
        <time>2019-05-31T13:24:04Z</time>
      </trkpt>
      <trkpt lat="44.0962" lon="3.13639">
        <ele>736.8</ele>
        <time>2019-05-31T13:24:06Z</time>
      </trkpt>
      <trkpt lat="44.09617" lon="3.13642">
        <ele>737.3</ele>
        <time>2019-05-31T13:24:08Z</time>
      </trkpt>
      <trkpt lat="44.09612" lon="3.13644">
        <ele>737.7</ele>
        <time>2019-05-31T13:24:10Z</time>
      </trkpt>
      <trkpt lat="44.0961" lon="3.13646">
        <ele>738</ele>
        <time>2019-05-31T13:24:12Z</time>
      </trkpt>
      <trkpt lat="44.09607" lon="3.13648">
        <ele>738.2</ele>
        <time>2019-05-31T13:24:14Z</time>
      </trkpt>
      <trkpt lat="44.09604" lon="3.13651">
        <ele>738.5</ele>
        <time>2019-05-31T13:24:16Z</time>
      </trkpt>
      <trkpt lat="44.09601" lon="3.13654">
        <ele>738.9</ele>
        <time>2019-05-31T13:24:18Z</time>
      </trkpt>
      <trkpt lat="44.09598" lon="3.13657">
        <ele>739.3</ele>
        <time>2019-05-31T13:24:20Z</time>
      </trkpt>
      <trkpt lat="44.09595" lon="3.1366">
        <ele>739.8</ele>
        <time>2019-05-31T13:24:22Z</time>
      </trkpt>
      <trkpt lat="44.09592" lon="3.13663">
        <ele>740.1</ele>
        <time>2019-05-31T13:24:24Z</time>
      </trkpt>
      <trkpt lat="44.09588" lon="3.13667">
        <ele>740.6</ele>
        <time>2019-05-31T13:24:26Z</time>
      </trkpt>
      <trkpt lat="44.09585" lon="3.1367">
        <ele>740.9</ele>
        <time>2019-05-31T13:24:28Z</time>
      </trkpt>
      <trkpt lat="44.0958" lon="3.13672">
        <ele>741.4</ele>
        <time>2019-05-31T13:24:31Z</time>
      </trkpt>
      <trkpt lat="44.09576" lon="3.13675">
        <ele>741.9</ele>
        <time>2019-05-31T13:24:33Z</time>
      </trkpt>
      <trkpt lat="44.09572" lon="3.13678">
        <ele>742.5</ele>
        <time>2019-05-31T13:24:35Z</time>
      </trkpt>
      <trkpt lat="44.09568" lon="3.13677">
        <ele>742.9</ele>
        <time>2019-05-31T13:24:37Z</time>
      </trkpt>
      <trkpt lat="44.09565" lon="3.13673">
        <ele>743.5</ele>
        <time>2019-05-31T13:24:39Z</time>
      </trkpt>
      <trkpt lat="44.09563" lon="3.13669">
        <ele>744</ele>
        <time>2019-05-31T13:24:41Z</time>
      </trkpt>
      <trkpt lat="44.09561" lon="3.13666">
        <ele>744.5</ele>
        <time>2019-05-31T13:24:43Z</time>
      </trkpt>
      <trkpt lat="44.09558" lon="3.13661">
        <ele>745.1</ele>
        <time>2019-05-31T13:24:45Z</time>
      </trkpt>
      <trkpt lat="44.09555" lon="3.13659">
        <ele>745.5</ele>
        <time>2019-05-31T13:24:48Z</time>
      </trkpt>
      <trkpt lat="44.09555" lon="3.13655">
        <ele>745.8</ele>
        <time>2019-05-31T13:24:52Z</time>
      </trkpt>
      <trkpt lat="44.09557" lon="3.13651">
        <ele>746.2</ele>
        <time>2019-05-31T13:24:54Z</time>
      </trkpt>
      <trkpt lat="44.09558" lon="3.13646">
        <ele>746.6</ele>
        <time>2019-05-31T13:24:56Z</time>
      </trkpt>
      <trkpt lat="44.09557" lon="3.1364">
        <ele>747</ele>
        <time>2019-05-31T13:24:58Z</time>
      </trkpt>
      <trkpt lat="44.09554" lon="3.13636">
        <ele>747.5</ele>
        <time>2019-05-31T13:25:00Z</time>
      </trkpt>
      <trkpt lat="44.09551" lon="3.13635">
        <ele>747.9</ele>
        <time>2019-05-31T13:25:02Z</time>
      </trkpt>
      <trkpt lat="44.09548" lon="3.13634">
        <ele>748.3</ele>
        <time>2019-05-31T13:25:04Z</time>
      </trkpt>
      <trkpt lat="44.09545" lon="3.13633">
        <ele>748.7</ele>
        <time>2019-05-31T13:25:06Z</time>
      </trkpt>
      <trkpt lat="44.09541" lon="3.13632">
        <ele>749.1</ele>
        <time>2019-05-31T13:25:08Z</time>
      </trkpt>
      <trkpt lat="44.09537" lon="3.13632">
        <ele>749.5</ele>
        <time>2019-05-31T13:25:10Z</time>
      </trkpt>
      <trkpt lat="44.09533" lon="3.13632">
        <ele>749.9</ele>
        <time>2019-05-31T13:25:12Z</time>
      </trkpt>
      <trkpt lat="44.0953" lon="3.1363">
        <ele>750.3</ele>
        <time>2019-05-31T13:25:14Z</time>
      </trkpt>
      <trkpt lat="44.09527" lon="3.13628">
        <ele>750.8</ele>
        <time>2019-05-31T13:25:16Z</time>
      </trkpt>
      <trkpt lat="44.09524" lon="3.13626">
        <ele>751.2</ele>
        <time>2019-05-31T13:25:19Z</time>
      </trkpt>
      <trkpt lat="44.09521" lon="3.13625">
        <ele>751.6</ele>
        <time>2019-05-31T13:25:21Z</time>
      </trkpt>
      <trkpt lat="44.09518" lon="3.13624">
        <ele>752</ele>
        <time>2019-05-31T13:25:23Z</time>
      </trkpt>
      <trkpt lat="44.09514" lon="3.13622">
        <ele>752.5</ele>
        <time>2019-05-31T13:25:26Z</time>
      </trkpt>
      <trkpt lat="44.09511" lon="3.13621">
        <ele>752.7</ele>
        <time>2019-05-31T13:25:28Z</time>
      </trkpt>
      <trkpt lat="44.09509" lon="3.1362">
        <ele>752.8</ele>
        <time>2019-05-31T13:25:31Z</time>
      </trkpt>
      <trkpt lat="44.09508" lon="3.13615">
        <ele>752.9</ele>
        <time>2019-05-31T13:26:00Z</time>
      </trkpt>
      <trkpt lat="44.09508" lon="3.13611">
        <ele>752.8</ele>
        <time>2019-05-31T13:26:05Z</time>
      </trkpt>
      <trkpt lat="44.09507" lon="3.13607">
        <ele>752.8</ele>
        <time>2019-05-31T13:26:08Z</time>
      </trkpt>
      <trkpt lat="44.09508" lon="3.1361">
        <ele>752.8</ele>
        <time>2019-05-31T13:26:44Z</time>
      </trkpt>
      <trkpt lat="44.09511" lon="3.1361">
        <ele>752.7</ele>
        <time>2019-05-31T13:26:51Z</time>
      </trkpt>
      <trkpt lat="44.09503" lon="3.13608">
        <ele>752.5</ele>
        <time>2019-05-31T13:33:00Z</time>
      </trkpt>
      <trkpt lat="44.09493" lon="3.13598">
        <ele>752.1</ele>
        <time>2019-05-31T13:33:02Z</time>
      </trkpt>
      <trkpt lat="44.09485" lon="3.13597">
        <ele>751.6</ele>
        <time>2019-05-31T13:33:03Z</time>
      </trkpt>
      <trkpt lat="44.09479" lon="3.13598">
        <ele>751.3</ele>
        <time>2019-05-31T13:33:04Z</time>
      </trkpt>
      <trkpt lat="44.09475" lon="3.13597">
        <ele>751.1</ele>
        <time>2019-05-31T13:33:05Z</time>
      </trkpt>
      <trkpt lat="44.09471" lon="3.13602">
        <ele>750.9</ele>
        <time>2019-05-31T13:33:06Z</time>
      </trkpt>
      <trkpt lat="44.09467" lon="3.13602">
        <ele>750.7</ele>
        <time>2019-05-31T13:33:07Z</time>
      </trkpt>
      <trkpt lat="44.09462" lon="3.13601">
        <ele>750.5</ele>
        <time>2019-05-31T13:33:08Z</time>
      </trkpt>
      <trkpt lat="44.09457" lon="3.13603">
        <ele>750.3</ele>
        <time>2019-05-31T13:33:09Z</time>
      </trkpt>
      <trkpt lat="44.09451" lon="3.13603">
        <ele>750</ele>
        <time>2019-05-31T13:33:10Z</time>
      </trkpt>
      <trkpt lat="44.09446" lon="3.13603">
        <ele>749.8</ele>
        <time>2019-05-31T13:33:11Z</time>
      </trkpt>
      <trkpt lat="44.09441" lon="3.13601">
        <ele>749.6</ele>
        <time>2019-05-31T13:33:12Z</time>
      </trkpt>
      <trkpt lat="44.09437" lon="3.13604">
        <ele>749.3</ele>
        <time>2019-05-31T13:33:13Z</time>
      </trkpt>
      <trkpt lat="44.09431" lon="3.13606">
        <ele>749.1</ele>
        <time>2019-05-31T13:33:14Z</time>
      </trkpt>
      <trkpt lat="44.09427" lon="3.1361">
        <ele>748.9</ele>
        <time>2019-05-31T13:33:15Z</time>
      </trkpt>
      <trkpt lat="44.09424" lon="3.13615">
        <ele>748.7</ele>
        <time>2019-05-31T13:33:16Z</time>
      </trkpt>
      <trkpt lat="44.09422" lon="3.1362">
        <ele>748.5</ele>
        <time>2019-05-31T13:33:17Z</time>
      </trkpt>
      <trkpt lat="44.09419" lon="3.13623">
        <ele>748.3</ele>
        <time>2019-05-31T13:33:18Z</time>
      </trkpt>
      <trkpt lat="44.09417" lon="3.13627">
        <ele>748</ele>
        <time>2019-05-31T13:33:19Z</time>
      </trkpt>
      <trkpt lat="44.09413" lon="3.13632">
        <ele>747.8</ele>
        <time>2019-05-31T13:33:20Z</time>
      </trkpt>
      <trkpt lat="44.0941" lon="3.13635">
        <ele>747.6</ele>
        <time>2019-05-31T13:33:21Z</time>
      </trkpt>
      <trkpt lat="44.09406" lon="3.13638">
        <ele>747.4</ele>
        <time>2019-05-31T13:33:22Z</time>
      </trkpt>
      <trkpt lat="44.09401" lon="3.13638">
        <ele>747.1</ele>
        <time>2019-05-31T13:33:23Z</time>
      </trkpt>
      <trkpt lat="44.09396" lon="3.1364">
        <ele>746.8</ele>
        <time>2019-05-31T13:33:24Z</time>
      </trkpt>
      <trkpt lat="44.09393" lon="3.13644">
        <ele>746.6</ele>
        <time>2019-05-31T13:33:25Z</time>
      </trkpt>
      <trkpt lat="44.0939" lon="3.13647">
        <ele>746.5</ele>
        <time>2019-05-31T13:33:26Z</time>
      </trkpt>
      <trkpt lat="44.09386" lon="3.13652">
        <ele>746.2</ele>
        <time>2019-05-31T13:33:28Z</time>
      </trkpt>
      <trkpt lat="44.09382" lon="3.13655">
        <ele>746</ele>
        <time>2019-05-31T13:33:29Z</time>
      </trkpt>
      <trkpt lat="44.09379" lon="3.13659">
        <ele>745.8</ele>
        <time>2019-05-31T13:33:30Z</time>
      </trkpt>
      <trkpt lat="44.09374" lon="3.13661">
        <ele>745.6</ele>
        <time>2019-05-31T13:33:31Z</time>
      </trkpt>
      <trkpt lat="44.0937" lon="3.13664">
        <ele>745.4</ele>
        <time>2019-05-31T13:33:32Z</time>
      </trkpt>
      <trkpt lat="44.09365" lon="3.13666">
        <ele>745.2</ele>
        <time>2019-05-31T13:33:33Z</time>
      </trkpt>
      <trkpt lat="44.09359" lon="3.13666">
        <ele>745.1</ele>
        <time>2019-05-31T13:33:34Z</time>
      </trkpt>
      <trkpt lat="44.09354" lon="3.13666">
        <ele>744.9</ele>
        <time>2019-05-31T13:33:35Z</time>
      </trkpt>
      <trkpt lat="44.0935" lon="3.13664">
        <ele>744.8</ele>
        <time>2019-05-31T13:33:36Z</time>
      </trkpt>
      <trkpt lat="44.09342" lon="3.13662">
        <ele>744.5</ele>
        <time>2019-05-31T13:33:37Z</time>
      </trkpt>
      <trkpt lat="44.09338" lon="3.13659">
        <ele>744.3</ele>
        <time>2019-05-31T13:33:38Z</time>
      </trkpt>
      <trkpt lat="44.09333" lon="3.13656">
        <ele>744.1</ele>
        <time>2019-05-31T13:33:39Z</time>
      </trkpt>
      <trkpt lat="44.09327" lon="3.13652">
        <ele>743.8</ele>
        <time>2019-05-31T13:33:40Z</time>
      </trkpt>
      <trkpt lat="44.09321" lon="3.13649">
        <ele>743.6</ele>
        <time>2019-05-31T13:33:41Z</time>
      </trkpt>
      <trkpt lat="44.09313" lon="3.13652">
        <ele>743.4</ele>
        <time>2019-05-31T13:33:42Z</time>
      </trkpt>
      <trkpt lat="44.09307" lon="3.13654">
        <ele>743.2</ele>
        <time>2019-05-31T13:33:43Z</time>
      </trkpt>
      <trkpt lat="44.09302" lon="3.13657">
        <ele>743</ele>
        <time>2019-05-31T13:33:44Z</time>
      </trkpt>
      <trkpt lat="44.09296" lon="3.1366">
        <ele>742.7</ele>
        <time>2019-05-31T13:33:45Z</time>
      </trkpt>
      <trkpt lat="44.09292" lon="3.13664">
        <ele>742.6</ele>
        <time>2019-05-31T13:33:46Z</time>
      </trkpt>
      <trkpt lat="44.09288" lon="3.1367">
        <ele>742.5</ele>
        <time>2019-05-31T13:33:47Z</time>
      </trkpt>
      <trkpt lat="44.09284" lon="3.13673">
        <ele>742.4</ele>
        <time>2019-05-31T13:33:48Z</time>
      </trkpt>
      <trkpt lat="44.09281" lon="3.13678">
        <ele>742.2</ele>
        <time>2019-05-31T13:33:49Z</time>
      </trkpt>
      <trkpt lat="44.09276" lon="3.13681">
        <ele>742</ele>
        <time>2019-05-31T13:33:50Z</time>
      </trkpt>
      <trkpt lat="44.09271" lon="3.13683">
        <ele>741.8</ele>
        <time>2019-05-31T13:33:51Z</time>
      </trkpt>
      <trkpt lat="44.09266" lon="3.13685">
        <ele>741.6</ele>
        <time>2019-05-31T13:33:52Z</time>
      </trkpt>
      <trkpt lat="44.09262" lon="3.13692">
        <ele>741.3</ele>
        <time>2019-05-31T13:33:53Z</time>
      </trkpt>
      <trkpt lat="44.09259" lon="3.13696">
        <ele>741.2</ele>
        <time>2019-05-31T13:33:54Z</time>
      </trkpt>
      <trkpt lat="44.09255" lon="3.13701">
        <ele>741</ele>
        <time>2019-05-31T13:33:55Z</time>
      </trkpt>
      <trkpt lat="44.09251" lon="3.13701">
        <ele>740.9</ele>
        <time>2019-05-31T13:33:56Z</time>
      </trkpt>
      <trkpt lat="44.09246" lon="3.13704">
        <ele>740.7</ele>
        <time>2019-05-31T13:33:57Z</time>
      </trkpt>
      <trkpt lat="44.09242" lon="3.13708">
        <ele>740.4</ele>
        <time>2019-05-31T13:33:58Z</time>
      </trkpt>
      <trkpt lat="44.09239" lon="3.13715">
        <ele>739.9</ele>
        <time>2019-05-31T13:33:59Z</time>
      </trkpt>
      <trkpt lat="44.09235" lon="3.1372">
        <ele>739.5</ele>
        <time>2019-05-31T13:34:00Z</time>
      </trkpt>
      <trkpt lat="44.09231" lon="3.13725">
        <ele>739.1</ele>
        <time>2019-05-31T13:34:01Z</time>
      </trkpt>
      <trkpt lat="44.0923" lon="3.13732">
        <ele>738.7</ele>
        <time>2019-05-31T13:34:02Z</time>
      </trkpt>
      <trkpt lat="44.09225" lon="3.13733">
        <ele>738.4</ele>
        <time>2019-05-31T13:34:03Z</time>
      </trkpt>
      <trkpt lat="44.09221" lon="3.13737">
        <ele>738.1</ele>
        <time>2019-05-31T13:34:04Z</time>
      </trkpt>
      <trkpt lat="44.09216" lon="3.13738">
        <ele>737.9</ele>
        <time>2019-05-31T13:34:05Z</time>
      </trkpt>
      <trkpt lat="44.0921" lon="3.13742">
        <ele>737.5</ele>
        <time>2019-05-31T13:34:06Z</time>
      </trkpt>
      <trkpt lat="44.09205" lon="3.13747">
        <ele>737.1</ele>
        <time>2019-05-31T13:34:07Z</time>
      </trkpt>
      <trkpt lat="44.09201" lon="3.13752">
        <ele>736.9</ele>
        <time>2019-05-31T13:34:08Z</time>
      </trkpt>
      <trkpt lat="44.09196" lon="3.13757">
        <ele>736.6</ele>
        <time>2019-05-31T13:34:09Z</time>
      </trkpt>
      <trkpt lat="44.09192" lon="3.13763">
        <ele>736.4</ele>
        <time>2019-05-31T13:34:10Z</time>
      </trkpt>
      <trkpt lat="44.09187" lon="3.13769">
        <ele>736.1</ele>
        <time>2019-05-31T13:34:11Z</time>
      </trkpt>
      <trkpt lat="44.09183" lon="3.13774">
        <ele>735.8</ele>
        <time>2019-05-31T13:34:12Z</time>
      </trkpt>
      <trkpt lat="44.09179" lon="3.1378">
        <ele>735.5</ele>
        <time>2019-05-31T13:34:13Z</time>
      </trkpt>
      <trkpt lat="44.09175" lon="3.13785">
        <ele>735.3</ele>
        <time>2019-05-31T13:34:14Z</time>
      </trkpt>
      <trkpt lat="44.0917" lon="3.13787">
        <ele>735</ele>
        <time>2019-05-31T13:34:15Z</time>
      </trkpt>
      <trkpt lat="44.09166" lon="3.13789">
        <ele>734.9</ele>
        <time>2019-05-31T13:34:16Z</time>
      </trkpt>
      <trkpt lat="44.09163" lon="3.13792">
        <ele>734.7</ele>
        <time>2019-05-31T13:34:17Z</time>
      </trkpt>
      <trkpt lat="44.09161" lon="3.13796">
        <ele>734.6</ele>
        <time>2019-05-31T13:34:19Z</time>
      </trkpt>
      <trkpt lat="44.09162" lon="3.138">
        <ele>734.4</ele>
        <time>2019-05-31T13:34:23Z</time>
      </trkpt>
      <trkpt lat="44.09158" lon="3.13803">
        <ele>734.2</ele>
        <time>2019-05-31T13:34:25Z</time>
      </trkpt>
      <trkpt lat="44.09155" lon="3.13805">
        <ele>734</ele>
        <time>2019-05-31T13:34:26Z</time>
      </trkpt>
      <trkpt lat="44.09151" lon="3.13808">
        <ele>733.8</ele>
        <time>2019-05-31T13:34:27Z</time>
      </trkpt>
      <trkpt lat="44.09144" lon="3.13811">
        <ele>733.4</ele>
        <time>2019-05-31T13:34:28Z</time>
      </trkpt>
      <trkpt lat="44.09139" lon="3.13811">
        <ele>733.1</ele>
        <time>2019-05-31T13:34:29Z</time>
      </trkpt>
      <trkpt lat="44.09133" lon="3.13811">
        <ele>732.7</ele>
        <time>2019-05-31T13:34:30Z</time>
      </trkpt>
      <trkpt lat="44.09126" lon="3.13812">
        <ele>732.2</ele>
        <time>2019-05-31T13:34:31Z</time>
      </trkpt>
      <trkpt lat="44.0912" lon="3.13814">
        <ele>731.8</ele>
        <time>2019-05-31T13:34:32Z</time>
      </trkpt>
      <trkpt lat="44.09114" lon="3.13813">
        <ele>731.2</ele>
        <time>2019-05-31T13:34:33Z</time>
      </trkpt>
      <trkpt lat="44.09109" lon="3.13812">
        <ele>730.6</ele>
        <time>2019-05-31T13:34:34Z</time>
      </trkpt>
      <trkpt lat="44.09104" lon="3.13811">
        <ele>729.9</ele>
        <time>2019-05-31T13:34:35Z</time>
      </trkpt>
      <trkpt lat="44.09098" lon="3.13812">
        <ele>729.1</ele>
        <time>2019-05-31T13:34:36Z</time>
      </trkpt>
      <trkpt lat="44.09091" lon="3.13812">
        <ele>728.5</ele>
        <time>2019-05-31T13:34:37Z</time>
      </trkpt>
      <trkpt lat="44.09087" lon="3.13813">
        <ele>728.1</ele>
        <time>2019-05-31T13:34:38Z</time>
      </trkpt>
      <trkpt lat="44.09084" lon="3.13811">
        <ele>727.8</ele>
        <time>2019-05-31T13:34:39Z</time>
      </trkpt>
      <trkpt lat="44.09085" lon="3.13815">
        <ele>727.5</ele>
        <time>2019-05-31T13:34:48Z</time>
      </trkpt>
      <trkpt lat="44.09082" lon="3.13816">
        <ele>727.2</ele>
        <time>2019-05-31T13:34:50Z</time>
      </trkpt>
      <trkpt lat="44.09078" lon="3.13816">
        <ele>726.9</ele>
        <time>2019-05-31T13:34:52Z</time>
      </trkpt>
      <trkpt lat="44.09072" lon="3.13815">
        <ele>726.1</ele>
        <time>2019-05-31T13:34:54Z</time>
      </trkpt>
      <trkpt lat="44.09068" lon="3.13812">
        <ele>725.7</ele>
        <time>2019-05-31T13:34:56Z</time>
      </trkpt>
      <trkpt lat="44.09067" lon="3.13804">
        <ele>725.4</ele>
        <time>2019-05-31T13:34:58Z</time>
      </trkpt>
      <trkpt lat="44.09066" lon="3.138">
        <ele>725.3</ele>
        <time>2019-05-31T13:34:59Z</time>
      </trkpt>
      <trkpt lat="44.09065" lon="3.13795">
        <ele>725.1</ele>
        <time>2019-05-31T13:35:00Z</time>
      </trkpt>
      <trkpt lat="44.09064" lon="3.1379">
        <ele>725</ele>
        <time>2019-05-31T13:35:01Z</time>
      </trkpt>
      <trkpt lat="44.09063" lon="3.13786">
        <ele>724.9</ele>
        <time>2019-05-31T13:35:02Z</time>
      </trkpt>
      <trkpt lat="44.09062" lon="3.13781">
        <ele>724.8</ele>
        <time>2019-05-31T13:35:03Z</time>
      </trkpt>
      <trkpt lat="44.09062" lon="3.13776">
        <ele>724.8</ele>
        <time>2019-05-31T13:35:05Z</time>
      </trkpt>
      <trkpt lat="44.09061" lon="3.13771">
        <ele>724.8</ele>
        <time>2019-05-31T13:35:07Z</time>
      </trkpt>
      <trkpt lat="44.09059" lon="3.13766">
        <ele>724.8</ele>
        <time>2019-05-31T13:35:09Z</time>
      </trkpt>
      <trkpt lat="44.09056" lon="3.13763">
        <ele>724.8</ele>
        <time>2019-05-31T13:35:12Z</time>
      </trkpt>
      <trkpt lat="44.09053" lon="3.13764">
        <ele>724.9</ele>
        <time>2019-05-31T13:35:14Z</time>
      </trkpt>
      <trkpt lat="44.09049" lon="3.13766">
        <ele>725.1</ele>
        <time>2019-05-31T13:35:16Z</time>
      </trkpt>
      <trkpt lat="44.09045" lon="3.13767">
        <ele>725.4</ele>
        <time>2019-05-31T13:35:18Z</time>
      </trkpt>
      <trkpt lat="44.09041" lon="3.13768">
        <ele>725.6</ele>
        <time>2019-05-31T13:35:20Z</time>
      </trkpt>
      <trkpt lat="44.09036" lon="3.13769">
        <ele>725.8</ele>
        <time>2019-05-31T13:35:25Z</time>
      </trkpt>
      <trkpt lat="44.09034" lon="3.1377">
        <ele>726</ele>
        <time>2019-05-31T13:35:27Z</time>
      </trkpt>
      <trkpt lat="44.09032" lon="3.13767">
        <ele>726.1</ele>
        <time>2019-05-31T13:35:29Z</time>
      </trkpt>
      <trkpt lat="44.09032" lon="3.13763">
        <ele>726.3</ele>
        <time>2019-05-31T13:35:31Z</time>
      </trkpt>
      <trkpt lat="44.09032" lon="3.13757">
        <ele>726.7</ele>
        <time>2019-05-31T13:35:33Z</time>
      </trkpt>
      <trkpt lat="44.09031" lon="3.13751">
        <ele>727.2</ele>
        <time>2019-05-31T13:35:35Z</time>
      </trkpt>
      <trkpt lat="44.0903" lon="3.13745">
        <ele>727.6</ele>
        <time>2019-05-31T13:35:37Z</time>
      </trkpt>
      <trkpt lat="44.0903" lon="3.13739">
        <ele>727.9</ele>
        <time>2019-05-31T13:35:39Z</time>
      </trkpt>
      <trkpt lat="44.0903" lon="3.13734">
        <ele>728.2</ele>
        <time>2019-05-31T13:35:41Z</time>
      </trkpt>
      <trkpt lat="44.09031" lon="3.13727">
        <ele>728.6</ele>
        <time>2019-05-31T13:35:43Z</time>
      </trkpt>
      <trkpt lat="44.09033" lon="3.1372">
        <ele>728.8</ele>
        <time>2019-05-31T13:35:45Z</time>
      </trkpt>
      <trkpt lat="44.09032" lon="3.13713">
        <ele>729.1</ele>
        <time>2019-05-31T13:35:47Z</time>
      </trkpt>
      <trkpt lat="44.09031" lon="3.13707">
        <ele>729.4</ele>
        <time>2019-05-31T13:35:49Z</time>
      </trkpt>
      <trkpt lat="44.0903" lon="3.13701">
        <ele>729.6</ele>
        <time>2019-05-31T13:35:51Z</time>
      </trkpt>
      <trkpt lat="44.0903" lon="3.13695">
        <ele>729.8</ele>
        <time>2019-05-31T13:35:53Z</time>
      </trkpt>
      <trkpt lat="44.09029" lon="3.1369">
        <ele>730</ele>
        <time>2019-05-31T13:35:55Z</time>
      </trkpt>
      <trkpt lat="44.09027" lon="3.13683">
        <ele>730.2</ele>
        <time>2019-05-31T13:35:57Z</time>
      </trkpt>
      <trkpt lat="44.09026" lon="3.13679">
        <ele>730.2</ele>
        <time>2019-05-31T13:35:58Z</time>
      </trkpt>
      <trkpt lat="44.09024" lon="3.13673">
        <ele>730.3</ele>
        <time>2019-05-31T13:36:00Z</time>
      </trkpt>
      <trkpt lat="44.09022" lon="3.13668">
        <ele>730.4</ele>
        <time>2019-05-31T13:36:02Z</time>
      </trkpt>
      <trkpt lat="44.09021" lon="3.13664">
        <ele>730.5</ele>
        <time>2019-05-31T13:36:04Z</time>
      </trkpt>
      <trkpt lat="44.09017" lon="3.13661">
        <ele>730.6</ele>
        <time>2019-05-31T13:36:06Z</time>
      </trkpt>
      <trkpt lat="44.09013" lon="3.13661">
        <ele>730.6</ele>
        <time>2019-05-31T13:36:08Z</time>
      </trkpt>
      <trkpt lat="44.09009" lon="3.13661">
        <ele>730.6</ele>
        <time>2019-05-31T13:36:10Z</time>
      </trkpt>
      <trkpt lat="44.09004" lon="3.13659">
        <ele>730.7</ele>
        <time>2019-05-31T13:36:12Z</time>
      </trkpt>
      <trkpt lat="44.09002" lon="3.13658">
        <ele>730.7</ele>
        <time>2019-05-31T13:36:13Z</time>
      </trkpt>
      <trkpt lat="44.08999" lon="3.13656">
        <ele>730.7</ele>
        <time>2019-05-31T13:36:14Z</time>
      </trkpt>
      <trkpt lat="44.08996" lon="3.13654">
        <ele>730.7</ele>
        <time>2019-05-31T13:36:15Z</time>
      </trkpt>
      <trkpt lat="44.08993" lon="3.13653">
        <ele>730.7</ele>
        <time>2019-05-31T13:36:16Z</time>
      </trkpt>
      <trkpt lat="44.0899" lon="3.13652">
        <ele>730.7</ele>
        <time>2019-05-31T13:36:17Z</time>
      </trkpt>
      <trkpt lat="44.08986" lon="3.13648">
        <ele>730.7</ele>
        <time>2019-05-31T13:36:19Z</time>
      </trkpt>
      <trkpt lat="44.08984" lon="3.13644">
        <ele>730.6</ele>
        <time>2019-05-31T13:36:20Z</time>
      </trkpt>
      <trkpt lat="44.08981" lon="3.13641">
        <ele>730.6</ele>
        <time>2019-05-31T13:36:21Z</time>
      </trkpt>
      <trkpt lat="44.08978" lon="3.13637">
        <ele>730.5</ele>
        <time>2019-05-31T13:36:22Z</time>
      </trkpt>
      <trkpt lat="44.08973" lon="3.13634">
        <ele>730.4</ele>
        <time>2019-05-31T13:36:23Z</time>
      </trkpt>
      <trkpt lat="44.08968" lon="3.13634">
        <ele>730.3</ele>
        <time>2019-05-31T13:36:24Z</time>
      </trkpt>
      <trkpt lat="44.08965" lon="3.13634">
        <ele>730.3</ele>
        <time>2019-05-31T13:36:25Z</time>
      </trkpt>
      <trkpt lat="44.0896" lon="3.13635">
        <ele>730.2</ele>
        <time>2019-05-31T13:36:26Z</time>
      </trkpt>
      <trkpt lat="44.08955" lon="3.13634">
        <ele>730.1</ele>
        <time>2019-05-31T13:36:27Z</time>
      </trkpt>
      <trkpt lat="44.08952" lon="3.13634">
        <ele>730</ele>
        <time>2019-05-31T13:36:30Z</time>
      </trkpt>
      <trkpt lat="44.08949" lon="3.13633">
        <ele>729.9</ele>
        <time>2019-05-31T13:36:31Z</time>
      </trkpt>
      <trkpt lat="44.08945" lon="3.13639">
        <ele>729.7</ele>
        <time>2019-05-31T13:36:32Z</time>
      </trkpt>
      <trkpt lat="44.08938" lon="3.13639">
        <ele>729.6</ele>
        <time>2019-05-31T13:36:33Z</time>
      </trkpt>
      <trkpt lat="44.08934" lon="3.13636">
        <ele>729.4</ele>
        <time>2019-05-31T13:36:35Z</time>
      </trkpt>
      <trkpt lat="44.08933" lon="3.13631">
        <ele>729.3</ele>
        <time>2019-05-31T13:36:36Z</time>
      </trkpt>
      <trkpt lat="44.08932" lon="3.13618">
        <ele>726.9</ele>
        <time>2019-05-31T13:36:37Z</time>
      </trkpt>
      <trkpt lat="44.08935" lon="3.13608">
        <ele>726</ele>
        <time>2019-05-31T13:36:38Z</time>
      </trkpt>
      <trkpt lat="44.08938" lon="3.13601">
        <ele>725.3</ele>
        <time>2019-05-31T13:36:39Z</time>
      </trkpt>
      <trkpt lat="44.08939" lon="3.13596">
        <ele>725</ele>
        <time>2019-05-31T13:36:40Z</time>
      </trkpt>
      <trkpt lat="44.08939" lon="3.13591">
        <ele>724.5</ele>
        <time>2019-05-31T13:36:41Z</time>
      </trkpt>
      <trkpt lat="44.0894" lon="3.13587">
        <ele>723.9</ele>
        <time>2019-05-31T13:36:42Z</time>
      </trkpt>
      <trkpt lat="44.08941" lon="3.13582">
        <ele>723.3</ele>
        <time>2019-05-31T13:36:44Z</time>
      </trkpt>
      <trkpt lat="44.08943" lon="3.13579">
        <ele>722.8</ele>
        <time>2019-05-31T13:36:45Z</time>
      </trkpt>
      <trkpt lat="44.08945" lon="3.13576">
        <ele>722.3</ele>
        <time>2019-05-31T13:36:49Z</time>
      </trkpt>
      <trkpt lat="44.08946" lon="3.1357">
        <ele>721.5</ele>
        <time>2019-05-31T13:37:58Z</time>
      </trkpt>
      <trkpt lat="44.08947" lon="3.13566">
        <ele>720.9</ele>
        <time>2019-05-31T13:37:59Z</time>
      </trkpt>
      <trkpt lat="44.08948" lon="3.1356">
        <ele>720.3</ele>
        <time>2019-05-31T13:38:00Z</time>
      </trkpt>
      <trkpt lat="44.08949" lon="3.13556">
        <ele>719.8</ele>
        <time>2019-05-31T13:38:01Z</time>
      </trkpt>
      <trkpt lat="44.08948" lon="3.13552">
        <ele>719.4</ele>
        <time>2019-05-31T13:38:02Z</time>
      </trkpt>
      <trkpt lat="44.08946" lon="3.13547">
        <ele>719</ele>
        <time>2019-05-31T13:38:03Z</time>
      </trkpt>
      <trkpt lat="44.08935" lon="3.13544">
        <ele>717.7</ele>
        <time>2019-05-31T13:38:04Z</time>
      </trkpt>
      <trkpt lat="44.08931" lon="3.13543">
        <ele>716.7</ele>
        <time>2019-05-31T13:38:05Z</time>
      </trkpt>
      <trkpt lat="44.08924" lon="3.1354">
        <ele>715.2</ele>
        <time>2019-05-31T13:38:06Z</time>
      </trkpt>
      <trkpt lat="44.08918" lon="3.13537">
        <ele>714</ele>
        <time>2019-05-31T13:38:07Z</time>
      </trkpt>
      <trkpt lat="44.08912" lon="3.13532">
        <ele>712</ele>
        <time>2019-05-31T13:38:08Z</time>
      </trkpt>
      <trkpt lat="44.08903" lon="3.13527">
        <ele>709.6</ele>
        <time>2019-05-31T13:38:09Z</time>
      </trkpt>
      <trkpt lat="44.08898" lon="3.13523">
        <ele>708.2</ele>
        <time>2019-05-31T13:38:10Z</time>
      </trkpt>
      <trkpt lat="44.08893" lon="3.13518">
        <ele>702.3</ele>
        <time>2019-05-31T13:38:11Z</time>
      </trkpt>
      <trkpt lat="44.08888" lon="3.13515">
        <ele>701.4</ele>
        <time>2019-05-31T13:38:14Z</time>
      </trkpt>
      <trkpt lat="44.08885" lon="3.13513">
        <ele>700.9</ele>
        <time>2019-05-31T13:38:21Z</time>
      </trkpt>
      <trkpt lat="44.0889" lon="3.13516">
        <ele>699.9</ele>
        <time>2019-05-31T13:40:51Z</time>
      </trkpt>
      <trkpt lat="44.08892" lon="3.13516">
        <ele>699.3</ele>
        <time>2019-05-31T13:40:52Z</time>
      </trkpt>
      <trkpt lat="44.08898" lon="3.13514">
        <ele>698.3</ele>
        <time>2019-05-31T13:40:54Z</time>
      </trkpt>
      <trkpt lat="44.08901" lon="3.13514">
        <ele>697.9</ele>
        <time>2019-05-31T13:40:55Z</time>
      </trkpt>
      <trkpt lat="44.08905" lon="3.13512">
        <ele>697.3</ele>
        <time>2019-05-31T13:40:56Z</time>
      </trkpt>
      <trkpt lat="44.08914" lon="3.13503">
        <ele>695.7</ele>
        <time>2019-05-31T13:40:57Z</time>
      </trkpt>
      <trkpt lat="44.08919" lon="3.13498">
        <ele>694.5</ele>
        <time>2019-05-31T13:40:58Z</time>
      </trkpt>
      <trkpt lat="44.08926" lon="3.13488">
        <ele>692.1</ele>
        <time>2019-05-31T13:40:59Z</time>
      </trkpt>
      <trkpt lat="44.08928" lon="3.13481">
        <ele>690.8</ele>
        <time>2019-05-31T13:41:00Z</time>
      </trkpt>
      <trkpt lat="44.08928" lon="3.13475">
        <ele>689.6</ele>
        <time>2019-05-31T13:41:01Z</time>
      </trkpt>
      <trkpt lat="44.08931" lon="3.13471">
        <ele>688.4</ele>
        <time>2019-05-31T13:41:02Z</time>
      </trkpt>
      <trkpt lat="44.0893" lon="3.1346">
        <ele>686</ele>
        <time>2019-05-31T13:41:03Z</time>
      </trkpt>
      <trkpt lat="44.0893" lon="3.13455">
        <ele>684.6</ele>
        <time>2019-05-31T13:41:04Z</time>
      </trkpt>
      <trkpt lat="44.08934" lon="3.13454">
        <ele>683.3</ele>
        <time>2019-05-31T13:41:06Z</time>
      </trkpt>
      <trkpt lat="44.08938" lon="3.1345">
        <ele>681.7</ele>
        <time>2019-05-31T13:41:08Z</time>
      </trkpt>
      <trkpt lat="44.08943" lon="3.13447">
        <ele>680</ele>
        <time>2019-05-31T13:41:10Z</time>
      </trkpt>
      <trkpt lat="44.08948" lon="3.13443">
        <ele>678.4</ele>
        <time>2019-05-31T13:41:12Z</time>
      </trkpt>
      <trkpt lat="44.08951" lon="3.13442">
        <ele>677.3</ele>
        <time>2019-05-31T13:41:13Z</time>
      </trkpt>
      <trkpt lat="44.08953" lon="3.1344">
        <ele>676.2</ele>
        <time>2019-05-31T13:41:14Z</time>
      </trkpt>
      <trkpt lat="44.08956" lon="3.13438">
        <ele>675.1</ele>
        <time>2019-05-31T13:41:15Z</time>
      </trkpt>
      <trkpt lat="44.08959" lon="3.13436">
        <ele>673.9</ele>
        <time>2019-05-31T13:41:16Z</time>
      </trkpt>
      <trkpt lat="44.08966" lon="3.13435">
        <ele>671.6</ele>
        <time>2019-05-31T13:41:17Z</time>
      </trkpt>
      <trkpt lat="44.08969" lon="3.13432">
        <ele>670.2</ele>
        <time>2019-05-31T13:41:18Z</time>
      </trkpt>
      <trkpt lat="44.08972" lon="3.13427">
        <ele>668.7</ele>
        <time>2019-05-31T13:41:19Z</time>
      </trkpt>
      <trkpt lat="44.08973" lon="3.13422">
        <ele>667.6</ele>
        <time>2019-05-31T13:41:20Z</time>
      </trkpt>
      <trkpt lat="44.08975" lon="3.13417">
        <ele>666.6</ele>
        <time>2019-05-31T13:41:21Z</time>
      </trkpt>
      <trkpt lat="44.08976" lon="3.13412">
        <ele>665.5</ele>
        <time>2019-05-31T13:41:22Z</time>
      </trkpt>
      <trkpt lat="44.08979" lon="3.13407">
        <ele>664.2</ele>
        <time>2019-05-31T13:41:23Z</time>
      </trkpt>
      <trkpt lat="44.08982" lon="3.134">
        <ele>662.1</ele>
        <time>2019-05-31T13:41:24Z</time>
      </trkpt>
      <trkpt lat="44.08983" lon="3.13393">
        <ele>660.8</ele>
        <time>2019-05-31T13:41:25Z</time>
      </trkpt>
      <trkpt lat="44.08982" lon="3.13385">
        <ele>659.2</ele>
        <time>2019-05-31T13:41:26Z</time>
      </trkpt>
      <trkpt lat="44.08981" lon="3.13381">
        <ele>658.5</ele>
        <time>2019-05-31T13:41:27Z</time>
      </trkpt>
      <trkpt lat="44.08975" lon="3.13377">
        <ele>657</ele>
        <time>2019-05-31T13:41:31Z</time>
      </trkpt>
      <trkpt lat="44.08972" lon="3.13376">
        <ele>656.1</ele>
        <time>2019-05-31T13:41:32Z</time>
      </trkpt>
      <trkpt lat="44.08966" lon="3.13375">
        <ele>654.5</ele>
        <time>2019-05-31T13:41:33Z</time>
      </trkpt>
      <trkpt lat="44.0896" lon="3.13375">
        <ele>653.3</ele>
        <time>2019-05-31T13:41:34Z</time>
      </trkpt>
      <trkpt lat="44.08956" lon="3.13375">
        <ele>652.3</ele>
        <time>2019-05-31T13:41:35Z</time>
      </trkpt>
      <trkpt lat="44.08957" lon="3.13381">
        <ele>651.3</ele>
        <time>2019-05-31T13:41:36Z</time>
      </trkpt>
      <trkpt lat="44.08955" lon="3.13378">
        <ele>650.5</ele>
        <time>2019-05-31T13:41:37Z</time>
      </trkpt>
      <trkpt lat="44.08952" lon="3.13374">
        <ele>649.3</ele>
        <time>2019-05-31T13:41:38Z</time>
      </trkpt>
      <trkpt lat="44.0895" lon="3.13371">
        <ele>648.6</ele>
        <time>2019-05-31T13:41:41Z</time>
      </trkpt>
      <trkpt lat="44.0895" lon="3.13377">
        <ele>647.6</ele>
        <time>2019-05-31T13:41:43Z</time>
      </trkpt>
      <trkpt lat="44.08944" lon="3.13381">
        <ele>646</ele>
        <time>2019-05-31T13:41:44Z</time>
      </trkpt>
      <trkpt lat="44.0894" lon="3.13383">
        <ele>644.9</ele>
        <time>2019-05-31T13:41:45Z</time>
      </trkpt>
      <trkpt lat="44.08931" lon="3.13385">
        <ele>643.1</ele>
        <time>2019-05-31T13:41:46Z</time>
      </trkpt>
      <trkpt lat="44.08926" lon="3.13383">
        <ele>642.3</ele>
        <time>2019-05-31T13:41:47Z</time>
      </trkpt>
      <trkpt lat="44.08921" lon="3.1338">
        <ele>641.5</ele>
        <time>2019-05-31T13:41:48Z</time>
      </trkpt>
      <trkpt lat="44.08918" lon="3.13378">
        <ele>640.8</ele>
        <time>2019-05-31T13:41:49Z</time>
      </trkpt>
      <trkpt lat="44.08913" lon="3.13376">
        <ele>640</ele>
        <time>2019-05-31T13:41:50Z</time>
      </trkpt>
      <trkpt lat="44.08905" lon="3.13372">
        <ele>638.9</ele>
        <time>2019-05-31T13:41:51Z</time>
      </trkpt>
      <trkpt lat="44.08899" lon="3.1337">
        <ele>638</ele>
        <time>2019-05-31T13:41:52Z</time>
      </trkpt>
      <trkpt lat="44.08894" lon="3.13365">
        <ele>637</ele>
        <time>2019-05-31T13:41:53Z</time>
      </trkpt>
      <trkpt lat="44.0889" lon="3.13359">
        <ele>635.7</ele>
        <time>2019-05-31T13:41:54Z</time>
      </trkpt>
      <trkpt lat="44.08886" lon="3.13354">
        <ele>634.4</ele>
        <time>2019-05-31T13:41:55Z</time>
      </trkpt>
      <trkpt lat="44.08883" lon="3.13353">
        <ele>633.6</ele>
        <time>2019-05-31T13:41:56Z</time>
      </trkpt>
      <trkpt lat="44.0888" lon="3.13353">
        <ele>632.8</ele>
        <time>2019-05-31T13:41:58Z</time>
      </trkpt>
      <trkpt lat="44.08877" lon="3.1335">
        <ele>631.8</ele>
        <time>2019-05-31T13:42:00Z</time>
      </trkpt>
      <trkpt lat="44.08874" lon="3.13346">
        <ele>630.7</ele>
        <time>2019-05-31T13:42:02Z</time>
      </trkpt>
      <trkpt lat="44.08871" lon="3.13347">
        <ele>629.8</ele>
        <time>2019-05-31T13:42:04Z</time>
      </trkpt>
      <trkpt lat="44.08869" lon="3.13349">
        <ele>629</ele>
        <time>2019-05-31T13:42:06Z</time>
      </trkpt>
      <trkpt lat="44.08866" lon="3.13351">
        <ele>628.1</ele>
        <time>2019-05-31T13:42:11Z</time>
      </trkpt>
      <trkpt lat="44.08859" lon="3.13356">
        <ele>625.5</ele>
        <time>2019-05-31T13:43:50Z</time>
      </trkpt>
      <trkpt lat="44.08856" lon="3.13355">
        <ele>624.6</ele>
        <time>2019-05-31T13:43:51Z</time>
      </trkpt>
      <trkpt lat="44.08852" lon="3.13353">
        <ele>623.6</ele>
        <time>2019-05-31T13:43:52Z</time>
      </trkpt>
      <trkpt lat="44.08849" lon="3.13351">
        <ele>622.4</ele>
        <time>2019-05-31T13:43:53Z</time>
      </trkpt>
      <trkpt lat="44.08845" lon="3.13349">
        <ele>621.4</ele>
        <time>2019-05-31T13:43:54Z</time>
      </trkpt>
      <trkpt lat="44.08841" lon="3.13347">
        <ele>620.3</ele>
        <time>2019-05-31T13:43:55Z</time>
      </trkpt>
      <trkpt lat="44.08837" lon="3.13344">
        <ele>618.8</ele>
        <time>2019-05-31T13:43:56Z</time>
      </trkpt>
      <trkpt lat="44.08833" lon="3.13341">
        <ele>617.5</ele>
        <time>2019-05-31T13:43:57Z</time>
      </trkpt>
      <trkpt lat="44.0883" lon="3.13338">
        <ele>616.6</ele>
        <time>2019-05-31T13:43:58Z</time>
      </trkpt>
      <trkpt lat="44.08828" lon="3.13335">
        <ele>615.9</ele>
        <time>2019-05-31T13:43:59Z</time>
      </trkpt>
      <trkpt lat="44.08826" lon="3.13332">
        <ele>615.2</ele>
        <time>2019-05-31T13:44:00Z</time>
      </trkpt>
      <trkpt lat="44.08822" lon="3.13328">
        <ele>613.5</ele>
        <time>2019-05-31T13:44:02Z</time>
      </trkpt>
      <trkpt lat="44.0882" lon="3.13326">
        <ele>612.3</ele>
        <time>2019-05-31T13:44:05Z</time>
      </trkpt>
      <trkpt lat="44.0882" lon="3.13322">
        <ele>611.2</ele>
        <time>2019-05-31T13:44:11Z</time>
      </trkpt>
      <trkpt lat="44.08817" lon="3.13324">
        <ele>609.8</ele>
        <time>2019-05-31T13:44:16Z</time>
      </trkpt>
      <trkpt lat="44.08815" lon="3.13319">
        <ele>608.3</ele>
        <time>2019-05-31T13:45:21Z</time>
      </trkpt>
      <trkpt lat="44.08819" lon="3.13317">
        <ele>607</ele>
        <time>2019-05-31T13:45:23Z</time>
      </trkpt>
      <trkpt lat="44.08822" lon="3.13316">
        <ele>605.7</ele>
        <time>2019-05-31T13:45:24Z</time>
      </trkpt>
      <trkpt lat="44.08825" lon="3.13311">
        <ele>603.9</ele>
        <time>2019-05-31T13:45:25Z</time>
      </trkpt>
      <trkpt lat="44.08828" lon="3.13308">
        <ele>602.4</ele>
        <time>2019-05-31T13:45:26Z</time>
      </trkpt>
      <trkpt lat="44.08831" lon="3.13304">
        <ele>601.1</ele>
        <time>2019-05-31T13:45:27Z</time>
      </trkpt>
      <trkpt lat="44.08835" lon="3.133">
        <ele>599.1</ele>
        <time>2019-05-31T13:45:29Z</time>
      </trkpt>
      <trkpt lat="44.08837" lon="3.13297">
        <ele>598</ele>
        <time>2019-05-31T13:45:30Z</time>
      </trkpt>
      <trkpt lat="44.0884" lon="3.13295">
        <ele>596.8</ele>
        <time>2019-05-31T13:45:31Z</time>
      </trkpt>
      <trkpt lat="44.08844" lon="3.13292">
        <ele>595.5</ele>
        <time>2019-05-31T13:45:32Z</time>
      </trkpt>
      <trkpt lat="44.08848" lon="3.1329">
        <ele>594.4</ele>
        <time>2019-05-31T13:45:33Z</time>
      </trkpt>
      <trkpt lat="44.08851" lon="3.13289">
        <ele>593.3</ele>
        <time>2019-05-31T13:45:34Z</time>
      </trkpt>
      <trkpt lat="44.08855" lon="3.13287">
        <ele>592.1</ele>
        <time>2019-05-31T13:45:35Z</time>
      </trkpt>
      <trkpt lat="44.08858" lon="3.13285">
        <ele>591.2</ele>
        <time>2019-05-31T13:45:36Z</time>
      </trkpt>
      <trkpt lat="44.0886" lon="3.1328">
        <ele>590</ele>
        <time>2019-05-31T13:45:38Z</time>
      </trkpt>
      <trkpt lat="44.08862" lon="3.13275">
        <ele>588.8</ele>
        <time>2019-05-31T13:45:40Z</time>
      </trkpt>
      <trkpt lat="44.08861" lon="3.13271">
        <ele>587.9</ele>
        <time>2019-05-31T13:45:42Z</time>
      </trkpt>
      <trkpt lat="44.08863" lon="3.13267">
        <ele>587.1</ele>
        <time>2019-05-31T13:45:50Z</time>
      </trkpt>
      <trkpt lat="44.08864" lon="3.13263">
        <ele>586</ele>
        <time>2019-05-31T13:45:56Z</time>
      </trkpt>
      <trkpt lat="44.08868" lon="3.13259">
        <ele>585</ele>
        <time>2019-05-31T13:45:58Z</time>
      </trkpt>
      <trkpt lat="44.08872" lon="3.13257">
        <ele>583.8</ele>
        <time>2019-05-31T13:46:00Z</time>
      </trkpt>
      <trkpt lat="44.08874" lon="3.13255">
        <ele>583</ele>
        <time>2019-05-31T13:46:01Z</time>
      </trkpt>
      <trkpt lat="44.08877" lon="3.1325">
        <ele>581.9</ele>
        <time>2019-05-31T13:46:03Z</time>
      </trkpt>
      <trkpt lat="44.0888" lon="3.13247">
        <ele>580.6</ele>
        <time>2019-05-31T13:46:05Z</time>
      </trkpt>
      <trkpt lat="44.08884" lon="3.13246">
        <ele>579.5</ele>
        <time>2019-05-31T13:46:07Z</time>
      </trkpt>
      <trkpt lat="44.08887" lon="3.13246">
        <ele>578.7</ele>
        <time>2019-05-31T13:46:09Z</time>
      </trkpt>
      <trkpt lat="44.08887" lon="3.13242">
        <ele>577.7</ele>
        <time>2019-05-31T13:46:11Z</time>
      </trkpt>
      <trkpt lat="44.08886" lon="3.13236">
        <ele>576.3</ele>
        <time>2019-05-31T13:46:13Z</time>
      </trkpt>
      <trkpt lat="44.08886" lon="3.1323">
        <ele>574.6</ele>
        <time>2019-05-31T13:46:15Z</time>
      </trkpt>
      <trkpt lat="44.08885" lon="3.13224">
        <ele>573.4</ele>
        <time>2019-05-31T13:46:17Z</time>
      </trkpt>
      <trkpt lat="44.08886" lon="3.13217">
        <ele>571.6</ele>
        <time>2019-05-31T13:46:19Z</time>
      </trkpt>
      <trkpt lat="44.0889" lon="3.13211">
        <ele>569.7</ele>
        <time>2019-05-31T13:46:21Z</time>
      </trkpt>
      <trkpt lat="44.08892" lon="3.13208">
        <ele>568.8</ele>
        <time>2019-05-31T13:46:22Z</time>
      </trkpt>
      <trkpt lat="44.08895" lon="3.13206">
        <ele>567.8</ele>
        <time>2019-05-31T13:46:23Z</time>
      </trkpt>
      <trkpt lat="44.08898" lon="3.13203">
        <ele>567</ele>
        <time>2019-05-31T13:46:24Z</time>
      </trkpt>
      <trkpt lat="44.089" lon="3.132">
        <ele>566.2</ele>
        <time>2019-05-31T13:46:25Z</time>
      </trkpt>
      <trkpt lat="44.08902" lon="3.13196">
        <ele>565.3</ele>
        <time>2019-05-31T13:46:26Z</time>
      </trkpt>
      <trkpt lat="44.08904" lon="3.13192">
        <ele>564.5</ele>
        <time>2019-05-31T13:46:27Z</time>
      </trkpt>
      <trkpt lat="44.08905" lon="3.13188">
        <ele>563.8</ele>
        <time>2019-05-31T13:46:28Z</time>
      </trkpt>
      <trkpt lat="44.08907" lon="3.13184">
        <ele>563.1</ele>
        <time>2019-05-31T13:46:29Z</time>
      </trkpt>
      <trkpt lat="44.08909" lon="3.1318">
        <ele>562.2</ele>
        <time>2019-05-31T13:46:30Z</time>
      </trkpt>
      <trkpt lat="44.08912" lon="3.13176">
        <ele>561.2</ele>
        <time>2019-05-31T13:46:31Z</time>
      </trkpt>
      <trkpt lat="44.08914" lon="3.13173">
        <ele>560.4</ele>
        <time>2019-05-31T13:46:32Z</time>
      </trkpt>
      <trkpt lat="44.08917" lon="3.13169">
        <ele>559.4</ele>
        <time>2019-05-31T13:46:33Z</time>
      </trkpt>
      <trkpt lat="44.0892" lon="3.13165">
        <ele>558.5</ele>
        <time>2019-05-31T13:46:34Z</time>
      </trkpt>
      <trkpt lat="44.08922" lon="3.13162">
        <ele>557.7</ele>
        <time>2019-05-31T13:46:35Z</time>
      </trkpt>
      <trkpt lat="44.08925" lon="3.13159">
        <ele>556.8</ele>
        <time>2019-05-31T13:46:36Z</time>
      </trkpt>
      <trkpt lat="44.08928" lon="3.13156">
        <ele>556</ele>
        <time>2019-05-31T13:46:37Z</time>
      </trkpt>
      <trkpt lat="44.08932" lon="3.13153">
        <ele>554.8</ele>
        <time>2019-05-31T13:46:39Z</time>
      </trkpt>
      <trkpt lat="44.08935" lon="3.1315">
        <ele>553.8</ele>
        <time>2019-05-31T13:46:40Z</time>
      </trkpt>
      <trkpt lat="44.08939" lon="3.13146">
        <ele>552.5</ele>
        <time>2019-05-31T13:46:41Z</time>
      </trkpt>
      <trkpt lat="44.08943" lon="3.13143">
        <ele>551.4</ele>
        <time>2019-05-31T13:46:42Z</time>
      </trkpt>
      <trkpt lat="44.08946" lon="3.13139">
        <ele>550.5</ele>
        <time>2019-05-31T13:46:43Z</time>
      </trkpt>
      <trkpt lat="44.08949" lon="3.13134">
        <ele>549.4</ele>
        <time>2019-05-31T13:46:44Z</time>
      </trkpt>
      <trkpt lat="44.08953" lon="3.13129">
        <ele>548.2</ele>
        <time>2019-05-31T13:46:45Z</time>
      </trkpt>
      <trkpt lat="44.08955" lon="3.13125">
        <ele>547.2</ele>
        <time>2019-05-31T13:46:46Z</time>
      </trkpt>
      <trkpt lat="44.08958" lon="3.13121">
        <ele>546.4</ele>
        <time>2019-05-31T13:46:47Z</time>
      </trkpt>
      <trkpt lat="44.0896" lon="3.13117">
        <ele>545.4</ele>
        <time>2019-05-31T13:46:48Z</time>
      </trkpt>
      <trkpt lat="44.08963" lon="3.13113">
        <ele>544.7</ele>
        <time>2019-05-31T13:46:49Z</time>
      </trkpt>
      <trkpt lat="44.08964" lon="3.1311">
        <ele>544.1</ele>
        <time>2019-05-31T13:46:50Z</time>
      </trkpt>
      <trkpt lat="44.08966" lon="3.13107">
        <ele>543.4</ele>
        <time>2019-05-31T13:46:51Z</time>
      </trkpt>
      <trkpt lat="44.08968" lon="3.13104">
        <ele>542.7</ele>
        <time>2019-05-31T13:46:52Z</time>
      </trkpt>
      <trkpt lat="44.08971" lon="3.13102">
        <ele>541.8</ele>
        <time>2019-05-31T13:46:53Z</time>
      </trkpt>
      <trkpt lat="44.08974" lon="3.131">
        <ele>540.8</ele>
        <time>2019-05-31T13:46:54Z</time>
      </trkpt>
      <trkpt lat="44.08978" lon="3.13098">
        <ele>539.9</ele>
        <time>2019-05-31T13:46:55Z</time>
      </trkpt>
      <trkpt lat="44.08982" lon="3.13096">
        <ele>539.1</ele>
        <time>2019-05-31T13:46:56Z</time>
      </trkpt>
      <trkpt lat="44.08985" lon="3.13093">
        <ele>538.2</ele>
        <time>2019-05-31T13:46:57Z</time>
      </trkpt>
      <trkpt lat="44.08988" lon="3.13091">
        <ele>537.3</ele>
        <time>2019-05-31T13:46:58Z</time>
      </trkpt>
      <trkpt lat="44.08991" lon="3.13088">
        <ele>536.5</ele>
        <time>2019-05-31T13:46:59Z</time>
      </trkpt>
      <trkpt lat="44.08994" lon="3.13084">
        <ele>535.5</ele>
        <time>2019-05-31T13:47:00Z</time>
      </trkpt>
      <trkpt lat="44.08997" lon="3.1308">
        <ele>534.5</ele>
        <time>2019-05-31T13:47:01Z</time>
      </trkpt>
      <trkpt lat="44.08999" lon="3.13077">
        <ele>533.5</ele>
        <time>2019-05-31T13:47:02Z</time>
      </trkpt>
      <trkpt lat="44.09001" lon="3.13074">
        <ele>532.8</ele>
        <time>2019-05-31T13:47:03Z</time>
      </trkpt>
      <trkpt lat="44.09006" lon="3.1307">
        <ele>531.1</ele>
        <time>2019-05-31T13:47:05Z</time>
      </trkpt>
      <trkpt lat="44.09009" lon="3.13068">
        <ele>530.1</ele>
        <time>2019-05-31T13:47:06Z</time>
      </trkpt>
      <trkpt lat="44.09012" lon="3.13065">
        <ele>529.1</ele>
        <time>2019-05-31T13:47:07Z</time>
      </trkpt>
      <trkpt lat="44.09015" lon="3.13064">
        <ele>528.2</ele>
        <time>2019-05-31T13:47:08Z</time>
      </trkpt>
      <trkpt lat="44.09019" lon="3.13062">
        <ele>527.3</ele>
        <time>2019-05-31T13:47:09Z</time>
      </trkpt>
      <trkpt lat="44.09021" lon="3.1306">
        <ele>526.5</ele>
        <time>2019-05-31T13:47:10Z</time>
      </trkpt>
      <trkpt lat="44.09024" lon="3.13058">
        <ele>525.4</ele>
        <time>2019-05-31T13:47:11Z</time>
      </trkpt>
      <trkpt lat="44.09028" lon="3.13056">
        <ele>524.1</ele>
        <time>2019-05-31T13:47:12Z</time>
      </trkpt>
      <trkpt lat="44.09031" lon="3.13055">
        <ele>523</ele>
        <time>2019-05-31T13:47:13Z</time>
      </trkpt>
      <trkpt lat="44.09033" lon="3.13055">
        <ele>521.9</ele>
        <time>2019-05-31T13:47:14Z</time>
      </trkpt>
      <trkpt lat="44.09037" lon="3.13054">
        <ele>520</ele>
        <time>2019-05-31T13:47:15Z</time>
      </trkpt>
      <trkpt lat="44.09039" lon="3.13053">
        <ele>519.4</ele>
        <time>2019-05-31T13:47:16Z</time>
      </trkpt>
      <trkpt lat="44.09044" lon="3.13053">
        <ele>518.3</ele>
        <time>2019-05-31T13:47:18Z</time>
      </trkpt>
      <trkpt lat="44.09047" lon="3.13053">
        <ele>517.6</ele>
        <time>2019-05-31T13:47:19Z</time>
      </trkpt>
      <trkpt lat="44.09051" lon="3.13053">
        <ele>516.7</ele>
        <time>2019-05-31T13:47:20Z</time>
      </trkpt>
      <trkpt lat="44.09054" lon="3.13052">
        <ele>515.9</ele>
        <time>2019-05-31T13:47:21Z</time>
      </trkpt>
      <trkpt lat="44.09057" lon="3.1305">
        <ele>515.2</ele>
        <time>2019-05-31T13:47:22Z</time>
      </trkpt>
      <trkpt lat="44.09062" lon="3.1305">
        <ele>514.3</ele>
        <time>2019-05-31T13:47:24Z</time>
      </trkpt>
      <trkpt lat="44.09066" lon="3.13051">
        <ele>513.3</ele>
        <time>2019-05-31T13:47:26Z</time>
      </trkpt>
      <trkpt lat="44.09069" lon="3.1305">
        <ele>512.7</ele>
        <time>2019-05-31T13:47:28Z</time>
      </trkpt>
      <trkpt lat="44.09074" lon="3.13053">
        <ele>511.8</ele>
        <time>2019-05-31T13:47:31Z</time>
      </trkpt>
      <trkpt lat="44.09077" lon="3.13055">
        <ele>511.4</ele>
        <time>2019-05-31T13:47:34Z</time>
      </trkpt>
      <trkpt lat="44.09081" lon="3.13056">
        <ele>510.8</ele>
        <time>2019-05-31T13:47:36Z</time>
      </trkpt>
      <trkpt lat="44.09084" lon="3.13056">
        <ele>510.4</ele>
        <time>2019-05-31T13:47:38Z</time>
      </trkpt>
      <trkpt lat="44.09085" lon="3.13052">
        <ele>509.9</ele>
        <time>2019-05-31T13:47:40Z</time>
      </trkpt>
      <trkpt lat="44.09089" lon="3.13053">
        <ele>509.6</ele>
        <time>2019-05-31T13:47:52Z</time>
      </trkpt>
      <trkpt lat="44.09092" lon="3.13055">
        <ele>509.4</ele>
        <time>2019-05-31T13:47:53Z</time>
      </trkpt>
      <trkpt lat="44.09094" lon="3.13056">
        <ele>509.3</ele>
        <time>2019-05-31T13:47:54Z</time>
      </trkpt>
      <trkpt lat="44.09097" lon="3.13058">
        <ele>509.1</ele>
        <time>2019-05-31T13:47:55Z</time>
      </trkpt>
      <trkpt lat="44.09099" lon="3.13059">
        <ele>509</ele>
        <time>2019-05-31T13:47:56Z</time>
      </trkpt>
      <trkpt lat="44.09103" lon="3.13059">
        <ele>508.8</ele>
        <time>2019-05-31T13:47:58Z</time>
      </trkpt>
      <trkpt lat="44.09106" lon="3.13054">
        <ele>508.5</ele>
        <time>2019-05-31T13:48:00Z</time>
      </trkpt>
      <trkpt lat="44.09107" lon="3.1305">
        <ele>508.3</ele>
        <time>2019-05-31T13:48:02Z</time>
      </trkpt>
      <trkpt lat="44.09108" lon="3.13045">
        <ele>508.1</ele>
        <time>2019-05-31T13:48:05Z</time>
      </trkpt>
      <trkpt lat="44.09107" lon="3.13042">
        <ele>507.9</ele>
        <time>2019-05-31T13:48:15Z</time>
      </trkpt>
      <trkpt lat="44.09108" lon="3.13036">
        <ele>507.6</ele>
        <time>2019-05-31T13:48:19Z</time>
      </trkpt>
      <trkpt lat="44.0911" lon="3.13033">
        <ele>507.3</ele>
        <time>2019-05-31T13:48:20Z</time>
      </trkpt>
      <trkpt lat="44.09112" lon="3.13029">
        <ele>507.1</ele>
        <time>2019-05-31T13:48:21Z</time>
      </trkpt>
      <trkpt lat="44.09114" lon="3.13026">
        <ele>506.9</ele>
        <time>2019-05-31T13:48:22Z</time>
      </trkpt>
      <trkpt lat="44.09118" lon="3.13023">
        <ele>505.7</ele>
        <time>2019-05-31T13:48:24Z</time>
      </trkpt>
      <trkpt lat="44.09122" lon="3.13016">
        <ele>505</ele>
        <time>2019-05-31T13:49:24Z</time>
      </trkpt>
      <trkpt lat="44.09127" lon="3.13015">
        <ele>504.5</ele>
        <time>2019-05-31T13:49:26Z</time>
      </trkpt>
      <trkpt lat="44.09131" lon="3.13015">
        <ele>504.1</ele>
        <time>2019-05-31T13:49:27Z</time>
      </trkpt>
      <trkpt lat="44.09135" lon="3.13016">
        <ele>503.6</ele>
        <time>2019-05-31T13:49:28Z</time>
      </trkpt>
      <trkpt lat="44.09147" lon="3.13012">
        <ele>502.9</ele>
        <time>2019-05-31T13:49:29Z</time>
      </trkpt>
      <trkpt lat="44.09155" lon="3.13013">
        <ele>502.6</ele>
        <time>2019-05-31T13:49:30Z</time>
      </trkpt>
      <trkpt lat="44.09163" lon="3.13011">
        <ele>502.3</ele>
        <time>2019-05-31T13:49:31Z</time>
      </trkpt>
      <trkpt lat="44.0917" lon="3.13012">
        <ele>502.1</ele>
        <time>2019-05-31T13:49:32Z</time>
      </trkpt>
      <trkpt lat="44.09176" lon="3.13013">
        <ele>501.8</ele>
        <time>2019-05-31T13:49:33Z</time>
      </trkpt>
      <trkpt lat="44.09181" lon="3.13011">
        <ele>501.5</ele>
        <time>2019-05-31T13:49:34Z</time>
      </trkpt>
      <trkpt lat="44.09186" lon="3.13009">
        <ele>501.2</ele>
        <time>2019-05-31T13:49:35Z</time>
      </trkpt>
      <trkpt lat="44.09191" lon="3.13005">
        <ele>500.8</ele>
        <time>2019-05-31T13:49:36Z</time>
      </trkpt>
      <trkpt lat="44.09195" lon="3.12995">
        <ele>499.5</ele>
        <time>2019-05-31T13:49:37Z</time>
      </trkpt>
      <trkpt lat="44.09201" lon="3.12986">
        <ele>498.3</ele>
        <time>2019-05-31T13:49:38Z</time>
      </trkpt>
      <trkpt lat="44.09206" lon="3.12984">
        <ele>497.3</ele>
        <time>2019-05-31T13:49:39Z</time>
      </trkpt>
      <trkpt lat="44.09215" lon="3.12979">
        <ele>495.6</ele>
        <time>2019-05-31T13:49:40Z</time>
      </trkpt>
      <trkpt lat="44.09222" lon="3.12976">
        <ele>494.2</ele>
        <time>2019-05-31T13:49:41Z</time>
      </trkpt>
      <trkpt lat="44.09231" lon="3.12971">
        <ele>492.6</ele>
        <time>2019-05-31T13:49:42Z</time>
      </trkpt>
      <trkpt lat="44.09238" lon="3.12964">
        <ele>491.2</ele>
        <time>2019-05-31T13:49:43Z</time>
      </trkpt>
      <trkpt lat="44.09245" lon="3.12959">
        <ele>489.9</ele>
        <time>2019-05-31T13:49:44Z</time>
      </trkpt>
      <trkpt lat="44.09251" lon="3.12954">
        <ele>488.7</ele>
        <time>2019-05-31T13:49:45Z</time>
      </trkpt>
      <trkpt lat="44.09259" lon="3.1295">
        <ele>487.4</ele>
        <time>2019-05-31T13:49:46Z</time>
      </trkpt>
      <trkpt lat="44.09265" lon="3.1295">
        <ele>487</ele>
        <time>2019-05-31T13:49:47Z</time>
      </trkpt>
      <trkpt lat="44.09271" lon="3.12948">
        <ele>486.6</ele>
        <time>2019-05-31T13:49:48Z</time>
      </trkpt>
      <trkpt lat="44.09266" lon="3.12944">
        <ele>486.2</ele>
        <time>2019-05-31T13:49:50Z</time>
      </trkpt>
      <trkpt lat="44.09264" lon="3.12941">
        <ele>485.9</ele>
        <time>2019-05-31T13:49:51Z</time>
      </trkpt>
      <trkpt lat="44.09263" lon="3.12934">
        <ele>485.6</ele>
        <time>2019-05-31T13:49:53Z</time>
      </trkpt>
      <trkpt lat="44.09266" lon="3.1293">
        <ele>485.3</ele>
        <time>2019-05-31T13:49:56Z</time>
      </trkpt>
      <trkpt lat="44.0927" lon="3.12934">
        <ele>484.9</ele>
        <time>2019-05-31T13:49:58Z</time>
      </trkpt>
      <trkpt lat="44.09273" lon="3.12933">
        <ele>484.3</ele>
        <time>2019-05-31T13:50:04Z</time>
      </trkpt>
      <trkpt lat="44.09276" lon="3.12931">
        <ele>483.8</ele>
        <time>2019-05-31T13:50:06Z</time>
      </trkpt>
      <trkpt lat="44.0928" lon="3.12929">
        <ele>483.3</ele>
        <time>2019-05-31T13:50:08Z</time>
      </trkpt>
      <trkpt lat="44.09283" lon="3.1293">
        <ele>482.7</ele>
        <time>2019-05-31T13:50:10Z</time>
      </trkpt>
      <trkpt lat="44.09281" lon="3.12927">
        <ele>482.1</ele>
        <time>2019-05-31T13:50:18Z</time>
      </trkpt>
      <trkpt lat="44.09284" lon="3.12927">
        <ele>481.3</ele>
        <time>2019-05-31T13:50:22Z</time>
      </trkpt>
      <trkpt lat="44.09289" lon="3.12926">
        <ele>480.4</ele>
        <time>2019-05-31T13:50:24Z</time>
      </trkpt>
      <trkpt lat="44.09292" lon="3.12925">
        <ele>479.8</ele>
        <time>2019-05-31T13:50:25Z</time>
      </trkpt>
      <trkpt lat="44.09294" lon="3.12924">
        <ele>479.4</ele>
        <time>2019-05-31T13:50:26Z</time>
      </trkpt>
      <trkpt lat="44.09298" lon="3.12922">
        <ele>478.8</ele>
        <time>2019-05-31T13:50:28Z</time>
      </trkpt>
      <trkpt lat="44.09302" lon="3.12922">
        <ele>478.3</ele>
        <time>2019-05-31T13:50:31Z</time>
      </trkpt>
      <trkpt lat="44.09305" lon="3.12917">
        <ele>477.6</ele>
        <time>2019-05-31T13:51:02Z</time>
      </trkpt>
      <trkpt lat="44.09306" lon="3.12914">
        <ele>477.2</ele>
        <time>2019-05-31T13:51:07Z</time>
      </trkpt>
      <trkpt lat="44.0931" lon="3.12916">
        <ele>476.9</ele>
        <time>2019-05-31T13:51:15Z</time>
      </trkpt>
      <trkpt lat="44.09313" lon="3.12919">
        <ele>476.5</ele>
        <time>2019-05-31T13:51:17Z</time>
      </trkpt>
      <trkpt lat="44.09317" lon="3.12921">
        <ele>476.2</ele>
        <time>2019-05-31T13:51:18Z</time>
      </trkpt>
      <trkpt lat="44.09321" lon="3.12922">
        <ele>475.7</ele>
        <time>2019-05-31T13:51:19Z</time>
      </trkpt>
      <trkpt lat="44.09325" lon="3.12921">
        <ele>475.3</ele>
        <time>2019-05-31T13:51:20Z</time>
      </trkpt>
      <trkpt lat="44.09328" lon="3.1292">
        <ele>475</ele>
        <time>2019-05-31T13:51:21Z</time>
      </trkpt>
      <trkpt lat="44.09333" lon="3.12919">
        <ele>474.5</ele>
        <time>2019-05-31T13:51:23Z</time>
      </trkpt>
      <trkpt lat="44.09337" lon="3.12918">
        <ele>474.1</ele>
        <time>2019-05-31T13:51:25Z</time>
      </trkpt>
      <trkpt lat="44.09339" lon="3.12915">
        <ele>473.8</ele>
        <time>2019-05-31T13:51:36Z</time>
      </trkpt>
      <trkpt lat="44.09343" lon="3.12916">
        <ele>473.2</ele>
        <time>2019-05-31T13:51:39Z</time>
      </trkpt>
      <trkpt lat="44.09349" lon="3.12918">
        <ele>472.5</ele>
        <time>2019-05-31T13:51:41Z</time>
      </trkpt>
      <trkpt lat="44.09352" lon="3.12919">
        <ele>472.2</ele>
        <time>2019-05-31T13:51:42Z</time>
      </trkpt>
      <trkpt lat="44.09354" lon="3.12919">
        <ele>471.8</ele>
        <time>2019-05-31T13:51:43Z</time>
      </trkpt>
      <trkpt lat="44.0936" lon="3.12923">
        <ele>470.8</ele>
        <time>2019-05-31T13:51:45Z</time>
      </trkpt>
      <trkpt lat="44.09363" lon="3.12925">
        <ele>470.3</ele>
        <time>2019-05-31T13:51:46Z</time>
      </trkpt>
      <trkpt lat="44.09366" lon="3.12927">
        <ele>469.9</ele>
        <time>2019-05-31T13:51:47Z</time>
      </trkpt>
      <trkpt lat="44.09369" lon="3.1293">
        <ele>469.3</ele>
        <time>2019-05-31T13:51:49Z</time>
      </trkpt>
      <trkpt lat="44.09369" lon="3.12934">
        <ele>468.9</ele>
        <time>2019-05-31T13:51:54Z</time>
      </trkpt>
      <trkpt lat="44.09368" lon="3.1293">
        <ele>468.4</ele>
        <time>2019-05-31T13:52:30Z</time>
      </trkpt>
      <trkpt lat="44.09368" lon="3.12926">
        <ele>468</ele>
        <time>2019-05-31T13:52:37Z</time>
      </trkpt>
      <trkpt lat="44.0937" lon="3.12932">
        <ele>467.3</ele>
        <time>2019-05-31T13:52:43Z</time>
      </trkpt>
      <trkpt lat="44.09373" lon="3.12935">
        <ele>466.8</ele>
        <time>2019-05-31T13:52:44Z</time>
      </trkpt>
      <trkpt lat="44.09375" lon="3.12938">
        <ele>466.3</ele>
        <time>2019-05-31T13:52:45Z</time>
      </trkpt>
      <trkpt lat="44.09378" lon="3.12941">
        <ele>465.9</ele>
        <time>2019-05-31T13:52:46Z</time>
      </trkpt>
      <trkpt lat="44.09382" lon="3.12944">
        <ele>465.4</ele>
        <time>2019-05-31T13:52:47Z</time>
      </trkpt>
      <trkpt lat="44.09385" lon="3.12947">
        <ele>465</ele>
        <time>2019-05-31T13:52:48Z</time>
      </trkpt>
      <trkpt lat="44.09385" lon="3.12942">
        <ele>464.8</ele>
        <time>2019-05-31T13:53:00Z</time>
      </trkpt>
      <trkpt lat="44.09383" lon="3.12936">
        <ele>464.5</ele>
        <time>2019-05-31T13:53:03Z</time>
      </trkpt>
      <trkpt lat="44.0938" lon="3.12932">
        <ele>464.2</ele>
        <time>2019-05-31T13:53:05Z</time>
      </trkpt>
      <trkpt lat="44.09381" lon="3.12936">
        <ele>463.9</ele>
        <time>2019-05-31T13:53:44Z</time>
      </trkpt>
      <trkpt lat="44.09384" lon="3.12939">
        <ele>463.6</ele>
        <time>2019-05-31T13:53:47Z</time>
      </trkpt>
      <trkpt lat="44.09388" lon="3.1294">
        <ele>463.2</ele>
        <time>2019-05-31T13:53:50Z</time>
      </trkpt>
      <trkpt lat="44.0939" lon="3.12942">
        <ele>463</ele>
        <time>2019-05-31T13:53:54Z</time>
      </trkpt>
      <trkpt lat="44.09389" lon="3.12946">
        <ele>462.7</ele>
        <time>2019-05-31T13:54:20Z</time>
      </trkpt>
      <trkpt lat="44.09392" lon="3.12949">
        <ele>462.5</ele>
        <time>2019-05-31T13:54:27Z</time>
      </trkpt>
      <trkpt lat="44.09396" lon="3.12952">
        <ele>462</ele>
        <time>2019-05-31T13:54:29Z</time>
      </trkpt>
      <trkpt lat="44.09401" lon="3.12954">
        <ele>461.5</ele>
        <time>2019-05-31T13:54:31Z</time>
      </trkpt>
      <trkpt lat="44.09404" lon="3.12955">
        <ele>461.2</ele>
        <time>2019-05-31T13:54:32Z</time>
      </trkpt>
      <trkpt lat="44.09408" lon="3.12956">
        <ele>460.7</ele>
        <time>2019-05-31T13:54:33Z</time>
      </trkpt>
      <trkpt lat="44.09413" lon="3.12957">
        <ele>460.2</ele>
        <time>2019-05-31T13:54:34Z</time>
      </trkpt>
      <trkpt lat="44.0942" lon="3.12958">
        <ele>459.5</ele>
        <time>2019-05-31T13:54:35Z</time>
      </trkpt>
      <trkpt lat="44.09426" lon="3.12959">
        <ele>458.7</ele>
        <time>2019-05-31T13:54:36Z</time>
      </trkpt>
      <trkpt lat="44.0943" lon="3.12959">
        <ele>458.3</ele>
        <time>2019-05-31T13:54:37Z</time>
      </trkpt>
      <trkpt lat="44.09434" lon="3.12959">
        <ele>457.9</ele>
        <time>2019-05-31T13:54:39Z</time>
      </trkpt>
      <trkpt lat="44.09437" lon="3.1296">
        <ele>457.6</ele>
        <time>2019-05-31T13:54:40Z</time>
      </trkpt>
      <trkpt lat="44.0944" lon="3.1296">
        <ele>457.3</ele>
        <time>2019-05-31T13:54:41Z</time>
      </trkpt>
      <trkpt lat="44.09446" lon="3.12955">
        <ele>456.6</ele>
        <time>2019-05-31T13:54:42Z</time>
      </trkpt>
      <trkpt lat="44.0945" lon="3.12953">
        <ele>456.1</ele>
        <time>2019-05-31T13:54:44Z</time>
      </trkpt>
      <trkpt lat="44.09453" lon="3.12949">
        <ele>455.7</ele>
        <time>2019-05-31T13:54:45Z</time>
      </trkpt>
      <trkpt lat="44.09455" lon="3.12945">
        <ele>455.3</ele>
        <time>2019-05-31T13:54:47Z</time>
      </trkpt>
      <trkpt lat="44.09459" lon="3.12943">
        <ele>454.8</ele>
        <time>2019-05-31T13:54:49Z</time>
      </trkpt>
      <trkpt lat="44.09462" lon="3.1294">
        <ele>454.3</ele>
        <time>2019-05-31T13:54:50Z</time>
      </trkpt>
      <trkpt lat="44.09466" lon="3.12935">
        <ele>453.8</ele>
        <time>2019-05-31T13:54:51Z</time>
      </trkpt>
      <trkpt lat="44.09469" lon="3.1293">
        <ele>453.5</ele>
        <time>2019-05-31T13:54:52Z</time>
      </trkpt>
      <trkpt lat="44.09472" lon="3.12925">
        <ele>453.1</ele>
        <time>2019-05-31T13:54:53Z</time>
      </trkpt>
      <trkpt lat="44.09475" lon="3.12919">
        <ele>452.7</ele>
        <time>2019-05-31T13:54:54Z</time>
      </trkpt>
      <trkpt lat="44.09477" lon="3.12914">
        <ele>452.4</ele>
        <time>2019-05-31T13:54:55Z</time>
      </trkpt>
      <trkpt lat="44.0948" lon="3.1291">
        <ele>452</ele>
        <time>2019-05-31T13:54:56Z</time>
      </trkpt>
      <trkpt lat="44.09483" lon="3.12906">
        <ele>451.7</ele>
        <time>2019-05-31T13:54:57Z</time>
      </trkpt>
      <trkpt lat="44.09485" lon="3.12903">
        <ele>451.4</ele>
        <time>2019-05-31T13:54:58Z</time>
      </trkpt>
      <trkpt lat="44.09488" lon="3.12899">
        <ele>450.9</ele>
        <time>2019-05-31T13:54:59Z</time>
      </trkpt>
      <trkpt lat="44.09492" lon="3.12895">
        <ele>450.5</ele>
        <time>2019-05-31T13:55:00Z</time>
      </trkpt>
      <trkpt lat="44.09495" lon="3.12891">
        <ele>450.1</ele>
        <time>2019-05-31T13:55:01Z</time>
      </trkpt>
      <trkpt lat="44.09498" lon="3.12887">
        <ele>449.7</ele>
        <time>2019-05-31T13:55:02Z</time>
      </trkpt>
      <trkpt lat="44.095" lon="3.12883">
        <ele>449.3</ele>
        <time>2019-05-31T13:55:03Z</time>
      </trkpt>
      <trkpt lat="44.09502" lon="3.1288">
        <ele>449</ele>
        <time>2019-05-31T13:55:04Z</time>
      </trkpt>
      <trkpt lat="44.09505" lon="3.12875">
        <ele>448.6</ele>
        <time>2019-05-31T13:55:06Z</time>
      </trkpt>
      <trkpt lat="44.09505" lon="3.12871">
        <ele>448.3</ele>
        <time>2019-05-31T13:55:08Z</time>
      </trkpt>
      <trkpt lat="44.09505" lon="3.12865">
        <ele>447.9</ele>
        <time>2019-05-31T13:55:10Z</time>
      </trkpt>
      <trkpt lat="44.09505" lon="3.12861">
        <ele>447.6</ele>
        <time>2019-05-31T13:55:11Z</time>
      </trkpt>
      <trkpt lat="44.09505" lon="3.12856">
        <ele>447.4</ele>
        <time>2019-05-31T13:55:12Z</time>
      </trkpt>
      <trkpt lat="44.09506" lon="3.12851">
        <ele>447.3</ele>
        <time>2019-05-31T13:55:14Z</time>
      </trkpt>
      <trkpt lat="44.09507" lon="3.12847">
        <ele>447.3</ele>
        <time>2019-05-31T13:55:16Z</time>
      </trkpt>
      <trkpt lat="44.09508" lon="3.12844">
        <ele>447.2</ele>
        <time>2019-05-31T13:55:18Z</time>
      </trkpt>
      <trkpt lat="44.09512" lon="3.12841">
        <ele>447.3</ele>
        <time>2019-05-31T13:55:20Z</time>
      </trkpt>
      <trkpt lat="44.09515" lon="3.12839">
        <ele>447.5</ele>
        <time>2019-05-31T13:55:21Z</time>
      </trkpt>
      <trkpt lat="44.09518" lon="3.12838">
        <ele>447.6</ele>
        <time>2019-05-31T13:55:22Z</time>
      </trkpt>
      <trkpt lat="44.09522" lon="3.12836">
        <ele>447.9</ele>
        <time>2019-05-31T13:55:24Z</time>
      </trkpt>
      <trkpt lat="44.09525" lon="3.12833">
        <ele>448.1</ele>
        <time>2019-05-31T13:55:26Z</time>
      </trkpt>
      <trkpt lat="44.09528" lon="3.12832">
        <ele>448.3</ele>
        <time>2019-05-31T13:55:28Z</time>
      </trkpt>
      <trkpt lat="44.09532" lon="3.12832">
        <ele>448.4</ele>
        <time>2019-05-31T13:55:30Z</time>
      </trkpt>
      <trkpt lat="44.09533" lon="3.12829">
        <ele>448.5</ele>
        <time>2019-05-31T13:55:40Z</time>
      </trkpt>
      <trkpt lat="44.09533" lon="3.12825">
        <ele>448.6</ele>
        <time>2019-05-31T13:55:46Z</time>
      </trkpt>
      <trkpt lat="44.09534" lon="3.12822">
        <ele>448.6</ele>
        <time>2019-05-31T13:55:49Z</time>
      </trkpt>
      <trkpt lat="44.09533" lon="3.12818">
        <ele>448.6</ele>
        <time>2019-05-31T13:55:56Z</time>
      </trkpt>
      <trkpt lat="44.09538" lon="3.12815">
        <ele>448.7</ele>
        <time>2019-05-31T13:56:33Z</time>
      </trkpt>
      <trkpt lat="44.09541" lon="3.12815">
        <ele>448.7</ele>
        <time>2019-05-31T13:56:34Z</time>
      </trkpt>
      <trkpt lat="44.09549" lon="3.12815">
        <ele>448.7</ele>
        <time>2019-05-31T13:56:35Z</time>
      </trkpt>
      <trkpt lat="44.09553" lon="3.12817">
        <ele>448.7</ele>
        <time>2019-05-31T13:56:36Z</time>
      </trkpt>
      <trkpt lat="44.09556" lon="3.12823">
        <ele>448.8</ele>
        <time>2019-05-31T13:56:37Z</time>
      </trkpt>
      <trkpt lat="44.09562" lon="3.12822">
        <ele>448.9</ele>
        <time>2019-05-31T13:56:39Z</time>
      </trkpt>
      <trkpt lat="44.09567" lon="3.12823">
        <ele>448.9</ele>
        <time>2019-05-31T13:56:40Z</time>
      </trkpt>
      <trkpt lat="44.0957" lon="3.12822">
        <ele>449</ele>
        <time>2019-05-31T13:56:41Z</time>
      </trkpt>
      <trkpt lat="44.09575" lon="3.12817">
        <ele>449</ele>
        <time>2019-05-31T13:56:43Z</time>
      </trkpt>
      <trkpt lat="44.0958" lon="3.12817">
        <ele>449.1</ele>
        <time>2019-05-31T13:56:45Z</time>
      </trkpt>
      <trkpt lat="44.09585" lon="3.12818">
        <ele>449.1</ele>
        <time>2019-05-31T13:56:47Z</time>
      </trkpt>
      <trkpt lat="44.09588" lon="3.12817">
        <ele>449.1</ele>
        <time>2019-05-31T13:56:48Z</time>
      </trkpt>
      <trkpt lat="44.09593" lon="3.12815">
        <ele>449.1</ele>
        <time>2019-05-31T13:56:50Z</time>
      </trkpt>
      <trkpt lat="44.09596" lon="3.1281">
        <ele>449</ele>
        <time>2019-05-31T13:56:52Z</time>
      </trkpt>
      <trkpt lat="44.09599" lon="3.12809">
        <ele>449</ele>
        <time>2019-05-31T13:56:53Z</time>
      </trkpt>
      <trkpt lat="44.09605" lon="3.12809">
        <ele>448.9</ele>
        <time>2019-05-31T13:56:55Z</time>
      </trkpt>
      <trkpt lat="44.09609" lon="3.12809">
        <ele>448.8</ele>
        <time>2019-05-31T13:56:56Z</time>
      </trkpt>
      <trkpt lat="44.09613" lon="3.12808">
        <ele>448.7</ele>
        <time>2019-05-31T13:56:57Z</time>
      </trkpt>
      <trkpt lat="44.09617" lon="3.12807">
        <ele>448.6</ele>
        <time>2019-05-31T13:56:58Z</time>
      </trkpt>
      <trkpt lat="44.0962" lon="3.12807">
        <ele>448.4</ele>
        <time>2019-05-31T13:56:59Z</time>
      </trkpt>
      <trkpt lat="44.09624" lon="3.12807">
        <ele>448.2</ele>
        <time>2019-05-31T13:57:00Z</time>
      </trkpt>
      <trkpt lat="44.09628" lon="3.12807">
        <ele>447.8</ele>
        <time>2019-05-31T13:57:01Z</time>
      </trkpt>
      <trkpt lat="44.09631" lon="3.12805">
        <ele>447.5</ele>
        <time>2019-05-31T13:57:02Z</time>
      </trkpt>
      <trkpt lat="44.09635" lon="3.12804">
        <ele>446.9</ele>
        <time>2019-05-31T13:57:03Z</time>
      </trkpt>
      <trkpt lat="44.0964" lon="3.12802">
        <ele>446.3</ele>
        <time>2019-05-31T13:57:04Z</time>
      </trkpt>
      <trkpt lat="44.09643" lon="3.12801">
        <ele>445.7</ele>
        <time>2019-05-31T13:57:05Z</time>
      </trkpt>
      <trkpt lat="44.09647" lon="3.128">
        <ele>445</ele>
        <time>2019-05-31T13:57:06Z</time>
      </trkpt>
      <trkpt lat="44.0965" lon="3.128">
        <ele>444.3</ele>
        <time>2019-05-31T13:57:07Z</time>
      </trkpt>
      <trkpt lat="44.09655" lon="3.12798">
        <ele>443.2</ele>
        <time>2019-05-31T13:57:09Z</time>
      </trkpt>
      <trkpt lat="44.09658" lon="3.12797">
        <ele>442.4</ele>
        <time>2019-05-31T13:57:11Z</time>
      </trkpt>
      <trkpt lat="44.09662" lon="3.12796">
        <ele>441.5</ele>
        <time>2019-05-31T13:57:13Z</time>
      </trkpt>
      <trkpt lat="44.09665" lon="3.12797">
        <ele>440.6</ele>
        <time>2019-05-31T13:57:15Z</time>
      </trkpt>
      <trkpt lat="44.0967" lon="3.12798">
        <ele>439</ele>
        <time>2019-05-31T13:57:18Z</time>
      </trkpt>
      <trkpt lat="44.09673" lon="3.12801">
        <ele>437.9</ele>
        <time>2019-05-31T13:57:20Z</time>
      </trkpt>
      <trkpt lat="44.09677" lon="3.12801">
        <ele>436.7</ele>
        <time>2019-05-31T13:57:22Z</time>
      </trkpt>
      <trkpt lat="44.09682" lon="3.12798">
        <ele>435</ele>
        <time>2019-05-31T13:57:24Z</time>
      </trkpt>
      <trkpt lat="44.09684" lon="3.12794">
        <ele>434</ele>
        <time>2019-05-31T13:57:26Z</time>
      </trkpt>
      <trkpt lat="44.09684" lon="3.1279">
        <ele>433</ele>
        <time>2019-05-31T13:57:27Z</time>
      </trkpt>
      <trkpt lat="44.09683" lon="3.12785">
        <ele>432</ele>
        <time>2019-05-31T13:57:30Z</time>
      </trkpt>
      <trkpt lat="44.09685" lon="3.12781">
        <ele>431.1</ele>
        <time>2019-05-31T13:57:38Z</time>
      </trkpt>
      <trkpt lat="44.09687" lon="3.12779">
        <ele>430.4</ele>
        <time>2019-05-31T13:57:58Z</time>
      </trkpt>
      <trkpt lat="44.09691" lon="3.12784">
        <ele>429.1</ele>
        <time>2019-05-31T13:58:01Z</time>
      </trkpt>
      <trkpt lat="44.09694" lon="3.12788">
        <ele>428.1</ele>
        <time>2019-05-31T13:58:02Z</time>
      </trkpt>
      <trkpt lat="44.09697" lon="3.12793">
        <ele>427.2</ele>
        <time>2019-05-31T13:58:03Z</time>
      </trkpt>
      <trkpt lat="44.097" lon="3.12798">
        <ele>426.3</ele>
        <time>2019-05-31T13:58:04Z</time>
      </trkpt>
      <trkpt lat="44.09702" lon="3.12801">
        <ele>425.8</ele>
        <time>2019-05-31T13:58:05Z</time>
      </trkpt>
      <trkpt lat="44.09703" lon="3.12807">
        <ele>424.8</ele>
        <time>2019-05-31T13:58:07Z</time>
      </trkpt>
      <trkpt lat="44.09703" lon="3.12814">
        <ele>423.9</ele>
        <time>2019-05-31T13:58:09Z</time>
      </trkpt>
      <trkpt lat="44.09705" lon="3.12817">
        <ele>423.3</ele>
        <time>2019-05-31T13:58:12Z</time>
      </trkpt>
      <trkpt lat="44.09707" lon="3.1282">
        <ele>422.8</ele>
        <time>2019-05-31T13:58:13Z</time>
      </trkpt>
      <trkpt lat="44.09711" lon="3.12823">
        <ele>422.1</ele>
        <time>2019-05-31T13:58:14Z</time>
      </trkpt>
      <trkpt lat="44.09713" lon="3.12824">
        <ele>421.7</ele>
        <time>2019-05-31T13:58:15Z</time>
      </trkpt>
      <trkpt lat="44.09716" lon="3.12828">
        <ele>421.1</ele>
        <time>2019-05-31T13:58:17Z</time>
      </trkpt>
      <trkpt lat="44.09718" lon="3.12833">
        <ele>420.5</ele>
        <time>2019-05-31T13:58:19Z</time>
      </trkpt>
      <trkpt lat="44.09721" lon="3.12835">
        <ele>420</ele>
        <time>2019-05-31T13:58:23Z</time>
      </trkpt>
      <trkpt lat="44.09731" lon="3.12838">
        <ele>418.4</ele>
        <time>2019-05-31T13:58:59Z</time>
      </trkpt>
      <trkpt lat="44.09733" lon="3.1284">
        <ele>417.9</ele>
        <time>2019-05-31T13:59:00Z</time>
      </trkpt>
      <trkpt lat="44.09737" lon="3.12842">
        <ele>417.3</ele>
        <time>2019-05-31T13:59:01Z</time>
      </trkpt>
      <trkpt lat="44.09739" lon="3.12845">
        <ele>416.8</ele>
        <time>2019-05-31T13:59:02Z</time>
      </trkpt>
      <trkpt lat="44.09742" lon="3.12852">
        <ele>416.1</ele>
        <time>2019-05-31T13:59:04Z</time>
      </trkpt>
      <trkpt lat="44.09743" lon="3.12856">
        <ele>415.8</ele>
        <time>2019-05-31T13:59:05Z</time>
      </trkpt>
      <trkpt lat="44.09745" lon="3.12861">
        <ele>415.4</ele>
        <time>2019-05-31T13:59:06Z</time>
      </trkpt>
      <trkpt lat="44.09748" lon="3.12865">
        <ele>415.1</ele>
        <time>2019-05-31T13:59:07Z</time>
      </trkpt>
      <trkpt lat="44.09751" lon="3.12867">
        <ele>414.8</ele>
        <time>2019-05-31T13:59:08Z</time>
      </trkpt>
      <trkpt lat="44.09755" lon="3.12869">
        <ele>414.6</ele>
        <time>2019-05-31T13:59:09Z</time>
      </trkpt>
      <trkpt lat="44.09758" lon="3.1287">
        <ele>414.3</ele>
        <time>2019-05-31T13:59:10Z</time>
      </trkpt>
      <trkpt lat="44.09763" lon="3.12871">
        <ele>414.1</ele>
        <time>2019-05-31T13:59:11Z</time>
      </trkpt>
      <trkpt lat="44.09767" lon="3.12873">
        <ele>413.8</ele>
        <time>2019-05-31T13:59:12Z</time>
      </trkpt>
      <trkpt lat="44.09772" lon="3.12874">
        <ele>413.5</ele>
        <time>2019-05-31T13:59:13Z</time>
      </trkpt>
      <trkpt lat="44.09784" lon="3.12865">
        <ele>412</ele>
        <time>2019-05-31T13:59:14Z</time>
      </trkpt>
      <trkpt lat="44.09791" lon="3.1286">
        <ele>411.2</ele>
        <time>2019-05-31T13:59:15Z</time>
      </trkpt>
      <trkpt lat="44.09796" lon="3.12855">
        <ele>410.6</ele>
        <time>2019-05-31T13:59:16Z</time>
      </trkpt>
      <trkpt lat="44.09801" lon="3.12852">
        <ele>410.1</ele>
        <time>2019-05-31T13:59:17Z</time>
      </trkpt>
      <trkpt lat="44.09805" lon="3.12851">
        <ele>409.7</ele>
        <time>2019-05-31T13:59:18Z</time>
      </trkpt>
      <trkpt lat="44.09808" lon="3.12849">
        <ele>409.4</ele>
        <time>2019-05-31T13:59:19Z</time>
      </trkpt>
      <trkpt lat="44.0981" lon="3.12851">
        <ele>409.1</ele>
        <time>2019-05-31T13:59:20Z</time>
      </trkpt>
      <trkpt lat="44.09814" lon="3.12846">
        <ele>408.4</ele>
        <time>2019-05-31T13:59:22Z</time>
      </trkpt>
      <trkpt lat="44.09818" lon="3.12844">
        <ele>407.8</ele>
        <time>2019-05-31T13:59:24Z</time>
      </trkpt>
      <trkpt lat="44.09822" lon="3.12845">
        <ele>407.3</ele>
        <time>2019-05-31T13:59:26Z</time>
      </trkpt>
      <trkpt lat="44.09825" lon="3.12844">
        <ele>406.9</ele>
        <time>2019-05-31T13:59:28Z</time>
      </trkpt>
      <trkpt lat="44.09827" lon="3.1284">
        <ele>406.5</ele>
        <time>2019-05-31T13:59:32Z</time>
      </trkpt>
      <trkpt lat="44.09827" lon="3.12835">
        <ele>406.3</ele>
        <time>2019-05-31T13:59:38Z</time>
      </trkpt>
      <trkpt lat="44.0983" lon="3.12833">
        <ele>406</ele>
        <time>2019-05-31T13:59:42Z</time>
      </trkpt>
      <trkpt lat="44.09834" lon="3.12831">
        <ele>405.6</ele>
        <time>2019-05-31T13:59:44Z</time>
      </trkpt>
      <trkpt lat="44.09839" lon="3.12829">
        <ele>405.2</ele>
        <time>2019-05-31T13:59:46Z</time>
      </trkpt>
      <trkpt lat="44.09842" lon="3.12826">
        <ele>404.9</ele>
        <time>2019-05-31T13:59:48Z</time>
      </trkpt>
      <trkpt lat="44.09846" lon="3.12822">
        <ele>404.6</ele>
        <time>2019-05-31T13:59:50Z</time>
      </trkpt>
      <trkpt lat="44.09849" lon="3.12821">
        <ele>404.4</ele>
        <time>2019-05-31T13:59:52Z</time>
      </trkpt>
      <trkpt lat="44.09853" lon="3.12819">
        <ele>404.1</ele>
        <time>2019-05-31T13:59:54Z</time>
      </trkpt>
      <trkpt lat="44.09856" lon="3.12817">
        <ele>403.9</ele>
        <time>2019-05-31T13:59:56Z</time>
      </trkpt>
      <trkpt lat="44.09859" lon="3.12815">
        <ele>403.7</ele>
        <time>2019-05-31T13:59:57Z</time>
      </trkpt>
      <trkpt lat="44.09862" lon="3.12814">
        <ele>403.5</ele>
        <time>2019-05-31T13:59:58Z</time>
      </trkpt>
      <trkpt lat="44.09865" lon="3.12813">
        <ele>403.3</ele>
        <time>2019-05-31T13:59:59Z</time>
      </trkpt>
      <trkpt lat="44.0987" lon="3.12812">
        <ele>402.9</ele>
        <time>2019-05-31T14:00:01Z</time>
      </trkpt>
      <trkpt lat="44.09872" lon="3.12812">
        <ele>402.8</ele>
        <time>2019-05-31T14:00:02Z</time>
      </trkpt>
      <trkpt lat="44.09875" lon="3.12811">
        <ele>402.6</ele>
        <time>2019-05-31T14:00:03Z</time>
      </trkpt>
      <trkpt lat="44.0988" lon="3.12808">
        <ele>402.3</ele>
        <time>2019-05-31T14:00:05Z</time>
      </trkpt>
      <trkpt lat="44.09883" lon="3.12806">
        <ele>402.2</ele>
        <time>2019-05-31T14:00:06Z</time>
      </trkpt>
      <trkpt lat="44.09886" lon="3.12804">
        <ele>401.9</ele>
        <time>2019-05-31T14:00:07Z</time>
      </trkpt>
      <trkpt lat="44.09889" lon="3.12802">
        <ele>401.7</ele>
        <time>2019-05-31T14:00:08Z</time>
      </trkpt>
      <trkpt lat="44.09894" lon="3.12801">
        <ele>401.5</ele>
        <time>2019-05-31T14:00:10Z</time>
      </trkpt>
      <trkpt lat="44.09898" lon="3.12801">
        <ele>401.3</ele>
        <time>2019-05-31T14:00:12Z</time>
      </trkpt>
      <trkpt lat="44.09903" lon="3.12801">
        <ele>401</ele>
        <time>2019-05-31T14:00:14Z</time>
      </trkpt>
      <trkpt lat="44.09907" lon="3.12801">
        <ele>400.9</ele>
        <time>2019-05-31T14:00:15Z</time>
      </trkpt>
      <trkpt lat="44.0991" lon="3.128">
        <ele>400.7</ele>
        <time>2019-05-31T14:00:16Z</time>
      </trkpt>
      <trkpt lat="44.09915" lon="3.12799">
        <ele>400.5</ele>
        <time>2019-05-31T14:00:17Z</time>
      </trkpt>
      <trkpt lat="44.09919" lon="3.12797">
        <ele>400.3</ele>
        <time>2019-05-31T14:00:18Z</time>
      </trkpt>
      <trkpt lat="44.09923" lon="3.12795">
        <ele>400.1</ele>
        <time>2019-05-31T14:00:19Z</time>
      </trkpt>
      <trkpt lat="44.09933" lon="3.12788">
        <ele>399.4</ele>
        <time>2019-05-31T14:00:20Z</time>
      </trkpt>
      <trkpt lat="44.09938" lon="3.1279">
        <ele>398.9</ele>
        <time>2019-05-31T14:00:21Z</time>
      </trkpt>
      <trkpt lat="44.09943" lon="3.1279">
        <ele>398.4</ele>
        <time>2019-05-31T14:00:22Z</time>
      </trkpt>
      <trkpt lat="44.09948" lon="3.12789">
        <ele>396.8</ele>
        <time>2019-05-31T14:00:23Z</time>
      </trkpt>
      <trkpt lat="44.09952" lon="3.1279">
        <ele>396.8</ele>
        <time>2019-05-31T14:00:24Z</time>
      </trkpt>
      <trkpt lat="44.09958" lon="3.12788">
        <ele>396.9</ele>
        <time>2019-05-31T14:00:26Z</time>
      </trkpt>
      <trkpt lat="44.09962" lon="3.12787">
        <ele>397</ele>
        <time>2019-05-31T14:00:28Z</time>
      </trkpt>
      <trkpt lat="44.09966" lon="3.12786">
        <ele>397.1</ele>
        <time>2019-05-31T14:00:30Z</time>
      </trkpt>
      <trkpt lat="44.0997" lon="3.12786">
        <ele>397.1</ele>
        <time>2019-05-31T14:00:32Z</time>
      </trkpt>
      <trkpt lat="44.09973" lon="3.12786">
        <ele>397.2</ele>
        <time>2019-05-31T14:00:34Z</time>
      </trkpt>
      <trkpt lat="44.09978" lon="3.12787">
        <ele>397.3</ele>
        <time>2019-05-31T14:00:36Z</time>
      </trkpt>
      <trkpt lat="44.09981" lon="3.12788">
        <ele>397.3</ele>
        <time>2019-05-31T14:00:38Z</time>
      </trkpt>
      <trkpt lat="44.09984" lon="3.12786">
        <ele>397.3</ele>
        <time>2019-05-31T14:00:41Z</time>
      </trkpt>
      <trkpt lat="44.09987" lon="3.12787">
        <ele>397.3</ele>
        <time>2019-05-31T14:00:45Z</time>
      </trkpt>
      <trkpt lat="44.0999" lon="3.12787">
        <ele>397.3</ele>
        <time>2019-05-31T14:00:49Z</time>
      </trkpt>
      <trkpt lat="44.09994" lon="3.12785">
        <ele>397.3</ele>
        <time>2019-05-31T14:00:52Z</time>
      </trkpt>
      <trkpt lat="44.09995" lon="3.12782">
        <ele>397.3</ele>
        <time>2019-05-31T14:00:57Z</time>
      </trkpt>
      <trkpt lat="44.09992" lon="3.12777">
        <ele>397.3</ele>
        <time>2019-05-31T14:00:59Z</time>
      </trkpt>
      <trkpt lat="44.09991" lon="3.12768">
        <ele>394.4</ele>
        <time>2019-05-31T14:01:01Z</time>
      </trkpt>
      <trkpt lat="44.0999" lon="3.12761">
        <ele>394</ele>
        <time>2019-05-31T14:01:02Z</time>
      </trkpt>
      <trkpt lat="44.0999" lon="3.12757">
        <ele>393.7</ele>
        <time>2019-05-31T14:01:04Z</time>
      </trkpt>
      <trkpt lat="44.09987" lon="3.12758">
        <ele>393.5</ele>
        <time>2019-05-31T14:01:07Z</time>
      </trkpt>
      <trkpt lat="44.09984" lon="3.12756">
        <ele>393.2</ele>
        <time>2019-05-31T14:01:14Z</time>
      </trkpt>
      <trkpt lat="44.09984" lon="3.1276">
        <ele>393</ele>
        <time>2019-05-31T14:01:25Z</time>
      </trkpt>
      <trkpt lat="44.09989" lon="3.12763">
        <ele>392.6</ele>
        <time>2019-05-31T14:01:54Z</time>
      </trkpt>
      <trkpt lat="44.09993" lon="3.12764">
        <ele>392.2</ele>
        <time>2019-05-31T14:01:56Z</time>
      </trkpt>
      <trkpt lat="44.09999" lon="3.12765">
        <ele>391.7</ele>
        <time>2019-05-31T14:01:58Z</time>
      </trkpt>
      <trkpt lat="44.10002" lon="3.12766">
        <ele>391.4</ele>
        <time>2019-05-31T14:01:59Z</time>
      </trkpt>
      <trkpt lat="44.10006" lon="3.12766">
        <ele>391.2</ele>
        <time>2019-05-31T14:02:00Z</time>
      </trkpt>
      <trkpt lat="44.10009" lon="3.12765">
        <ele>390.9</ele>
        <time>2019-05-31T14:02:01Z</time>
      </trkpt>
      <trkpt lat="44.10012" lon="3.12765">
        <ele>390.7</ele>
        <time>2019-05-31T14:02:02Z</time>
      </trkpt>
      <trkpt lat="44.10015" lon="3.12764">
        <ele>390.5</ele>
        <time>2019-05-31T14:02:03Z</time>
      </trkpt>
      <trkpt lat="44.10019" lon="3.12765">
        <ele>390.3</ele>
        <time>2019-05-31T14:02:04Z</time>
      </trkpt>
      <trkpt lat="44.10023" lon="3.12765">
        <ele>390.1</ele>
        <time>2019-05-31T14:02:05Z</time>
      </trkpt>
      <trkpt lat="44.10031" lon="3.12763">
        <ele>389.7</ele>
        <time>2019-05-31T14:02:06Z</time>
      </trkpt>
      <trkpt lat="44.10036" lon="3.12761">
        <ele>389.5</ele>
        <time>2019-05-31T14:02:07Z</time>
      </trkpt>
      <trkpt lat="44.10042" lon="3.12759">
        <ele>389.3</ele>
        <time>2019-05-31T14:02:08Z</time>
      </trkpt>
      <trkpt lat="44.10049" lon="3.12754">
        <ele>389.1</ele>
        <time>2019-05-31T14:02:09Z</time>
      </trkpt>
      <trkpt lat="44.10056" lon="3.1275">
        <ele>388.8</ele>
        <time>2019-05-31T14:02:10Z</time>
      </trkpt>
      <trkpt lat="44.10062" lon="3.12744">
        <ele>388.7</ele>
        <time>2019-05-31T14:02:11Z</time>
      </trkpt>
      <trkpt lat="44.10068" lon="3.12739">
        <ele>388.5</ele>
        <time>2019-05-31T14:02:12Z</time>
      </trkpt>
      <trkpt lat="44.10072" lon="3.12735">
        <ele>388.3</ele>
        <time>2019-05-31T14:02:13Z</time>
      </trkpt>
      <trkpt lat="44.10078" lon="3.12727">
        <ele>388.1</ele>
        <time>2019-05-31T14:02:14Z</time>
      </trkpt>
      <trkpt lat="44.10084" lon="3.12716">
        <ele>387.7</ele>
        <time>2019-05-31T14:02:15Z</time>
      </trkpt>
      <trkpt lat="44.10087" lon="3.12707">
        <ele>387.4</ele>
        <time>2019-05-31T14:02:16Z</time>
      </trkpt>
      <trkpt lat="44.10089" lon="3.12697">
        <ele>387.2</ele>
        <time>2019-05-31T14:02:17Z</time>
      </trkpt>
      <trkpt lat="44.10091" lon="3.12687">
        <ele>386.9</ele>
        <time>2019-05-31T14:02:18Z</time>
      </trkpt>
      <trkpt lat="44.10092" lon="3.12678">
        <ele>386.6</ele>
        <time>2019-05-31T14:02:19Z</time>
      </trkpt>
      <trkpt lat="44.10092" lon="3.1267">
        <ele>386.4</ele>
        <time>2019-05-31T14:02:20Z</time>
      </trkpt>
      <trkpt lat="44.10094" lon="3.12661">
        <ele>386.2</ele>
        <time>2019-05-31T14:02:21Z</time>
      </trkpt>
      <trkpt lat="44.10093" lon="3.12651">
        <ele>385.9</ele>
        <time>2019-05-31T14:02:22Z</time>
      </trkpt>
      <trkpt lat="44.10092" lon="3.12642">
        <ele>385.7</ele>
        <time>2019-05-31T14:02:23Z</time>
      </trkpt>
      <trkpt lat="44.10091" lon="3.12634">
        <ele>385.5</ele>
        <time>2019-05-31T14:02:24Z</time>
      </trkpt>
      <trkpt lat="44.1009" lon="3.12628">
        <ele>385.4</ele>
        <time>2019-05-31T14:02:25Z</time>
      </trkpt>
      <trkpt lat="44.10089" lon="3.12621">
        <ele>385.2</ele>
        <time>2019-05-31T14:02:26Z</time>
      </trkpt>
      <trkpt lat="44.10088" lon="3.12612">
        <ele>385.1</ele>
        <time>2019-05-31T14:02:27Z</time>
      </trkpt>
      <trkpt lat="44.10087" lon="3.12604">
        <ele>384.9</ele>
        <time>2019-05-31T14:02:28Z</time>
      </trkpt>
      <trkpt lat="44.10085" lon="3.12598">
        <ele>384.8</ele>
        <time>2019-05-31T14:02:29Z</time>
      </trkpt>
      <trkpt lat="44.10085" lon="3.12591">
        <ele>384.6</ele>
        <time>2019-05-31T14:02:30Z</time>
      </trkpt>
      <trkpt lat="44.10083" lon="3.12581">
        <ele>384.4</ele>
        <time>2019-05-31T14:02:31Z</time>
      </trkpt>
      <trkpt lat="44.10083" lon="3.12573">
        <ele>384.3</ele>
        <time>2019-05-31T14:02:32Z</time>
      </trkpt>
      <trkpt lat="44.10082" lon="3.12566">
        <ele>384.1</ele>
        <time>2019-05-31T14:02:33Z</time>
      </trkpt>
      <trkpt lat="44.10083" lon="3.1256">
        <ele>383.9</ele>
        <time>2019-05-31T14:02:34Z</time>
      </trkpt>
      <trkpt lat="44.10082" lon="3.12555">
        <ele>383.7</ele>
        <time>2019-05-31T14:02:35Z</time>
      </trkpt>
      <trkpt lat="44.10083" lon="3.1255">
        <ele>383.6</ele>
        <time>2019-05-31T14:02:36Z</time>
      </trkpt>
      <trkpt lat="44.10083" lon="3.12542">
        <ele>383.3</ele>
        <time>2019-05-31T14:02:37Z</time>
      </trkpt>
      <trkpt lat="44.10082" lon="3.12534">
        <ele>383.1</ele>
        <time>2019-05-31T14:02:38Z</time>
      </trkpt>
      <trkpt lat="44.10081" lon="3.12527">
        <ele>382.9</ele>
        <time>2019-05-31T14:02:39Z</time>
      </trkpt>
      <trkpt lat="44.1008" lon="3.12519">
        <ele>382.6</ele>
        <time>2019-05-31T14:02:40Z</time>
      </trkpt>
      <trkpt lat="44.10078" lon="3.12509">
        <ele>382.3</ele>
        <time>2019-05-31T14:02:41Z</time>
      </trkpt>
      <trkpt lat="44.1008" lon="3.12497">
        <ele>381.7</ele>
        <time>2019-05-31T14:02:43Z</time>
      </trkpt>
      <trkpt lat="44.10078" lon="3.12489">
        <ele>381.3</ele>
        <time>2019-05-31T14:02:44Z</time>
      </trkpt>
      <trkpt lat="44.10079" lon="3.12483">
        <ele>381.1</ele>
        <time>2019-05-31T14:02:45Z</time>
      </trkpt>
      <trkpt lat="44.10078" lon="3.12476">
        <ele>380.8</ele>
        <time>2019-05-31T14:02:46Z</time>
      </trkpt>
      <trkpt lat="44.10078" lon="3.12469">
        <ele>380.6</ele>
        <time>2019-05-31T14:02:47Z</time>
      </trkpt>
      <trkpt lat="44.10078" lon="3.1246">
        <ele>380.4</ele>
        <time>2019-05-31T14:02:48Z</time>
      </trkpt>
      <trkpt lat="44.10079" lon="3.12453">
        <ele>380.2</ele>
        <time>2019-05-31T14:02:49Z</time>
      </trkpt>
      <trkpt lat="44.1008" lon="3.12448">
        <ele>380.1</ele>
        <time>2019-05-31T14:02:50Z</time>
      </trkpt>
      <trkpt lat="44.10078" lon="3.12441">
        <ele>379.9</ele>
        <time>2019-05-31T14:02:51Z</time>
      </trkpt>
      <trkpt lat="44.10078" lon="3.12433">
        <ele>379.8</ele>
        <time>2019-05-31T14:02:52Z</time>
      </trkpt>
      <trkpt lat="44.10078" lon="3.12426">
        <ele>379.6</ele>
        <time>2019-05-31T14:02:53Z</time>
      </trkpt>
      <trkpt lat="44.10078" lon="3.12419">
        <ele>379.4</ele>
        <time>2019-05-31T14:02:54Z</time>
      </trkpt>
      <trkpt lat="44.10078" lon="3.12412">
        <ele>379.3</ele>
        <time>2019-05-31T14:02:55Z</time>
      </trkpt>
      <trkpt lat="44.10078" lon="3.12406">
        <ele>379.2</ele>
        <time>2019-05-31T14:02:56Z</time>
      </trkpt>
      <trkpt lat="44.10076" lon="3.12395">
        <ele>379</ele>
        <time>2019-05-31T14:02:57Z</time>
      </trkpt>
      <trkpt lat="44.10076" lon="3.12387">
        <ele>378.9</ele>
        <time>2019-05-31T14:02:58Z</time>
      </trkpt>
      <trkpt lat="44.10075" lon="3.1238">
        <ele>378.9</ele>
        <time>2019-05-31T14:02:59Z</time>
      </trkpt>
      <trkpt lat="44.10074" lon="3.12372">
        <ele>378.8</ele>
        <time>2019-05-31T14:03:00Z</time>
      </trkpt>
      <trkpt lat="44.10073" lon="3.12368">
        <ele>378.8</ele>
        <time>2019-05-31T14:03:01Z</time>
      </trkpt>
      <trkpt lat="44.10072" lon="3.12361">
        <ele>378.7</ele>
        <time>2019-05-31T14:03:02Z</time>
      </trkpt>
      <trkpt lat="44.10072" lon="3.12354">
        <ele>378.7</ele>
        <time>2019-05-31T14:03:03Z</time>
      </trkpt>
      <trkpt lat="44.10072" lon="3.12347">
        <ele>378.6</ele>
        <time>2019-05-31T14:03:04Z</time>
      </trkpt>
      <trkpt lat="44.10071" lon="3.12342">
        <ele>378.5</ele>
        <time>2019-05-31T14:03:05Z</time>
      </trkpt>
      <trkpt lat="44.1007" lon="3.12337">
        <ele>378.4</ele>
        <time>2019-05-31T14:03:06Z</time>
      </trkpt>
      <trkpt lat="44.1007" lon="3.1233">
        <ele>378.3</ele>
        <time>2019-05-31T14:03:07Z</time>
      </trkpt>
      <trkpt lat="44.10069" lon="3.12324">
        <ele>378.2</ele>
        <time>2019-05-31T14:03:08Z</time>
      </trkpt>
      <trkpt lat="44.10068" lon="3.12318">
        <ele>378.1</ele>
        <time>2019-05-31T14:03:09Z</time>
      </trkpt>
      <trkpt lat="44.10067" lon="3.12312">
        <ele>377.9</ele>
        <time>2019-05-31T14:03:10Z</time>
      </trkpt>
      <trkpt lat="44.10066" lon="3.12306">
        <ele>377.7</ele>
        <time>2019-05-31T14:03:11Z</time>
      </trkpt>
      <trkpt lat="44.10066" lon="3.123">
        <ele>377.4</ele>
        <time>2019-05-31T14:03:12Z</time>
      </trkpt>
      <trkpt lat="44.10066" lon="3.12295">
        <ele>377.1</ele>
        <time>2019-05-31T14:03:13Z</time>
      </trkpt>
      <trkpt lat="44.10065" lon="3.12288">
        <ele>376.8</ele>
        <time>2019-05-31T14:03:14Z</time>
      </trkpt>
      <trkpt lat="44.10064" lon="3.12282">
        <ele>376.6</ele>
        <time>2019-05-31T14:03:15Z</time>
      </trkpt>
      <trkpt lat="44.10064" lon="3.12276">
        <ele>376.2</ele>
        <time>2019-05-31T14:03:16Z</time>
      </trkpt>
      <trkpt lat="44.10063" lon="3.12271">
        <ele>375.9</ele>
        <time>2019-05-31T14:03:17Z</time>
      </trkpt>
      <trkpt lat="44.10061" lon="3.12265">
        <ele>375.7</ele>
        <time>2019-05-31T14:03:18Z</time>
      </trkpt>
      <trkpt lat="44.10059" lon="3.12259">
        <ele>375.5</ele>
        <time>2019-05-31T14:03:19Z</time>
      </trkpt>
      <trkpt lat="44.10058" lon="3.12254">
        <ele>375.3</ele>
        <time>2019-05-31T14:03:20Z</time>
      </trkpt>
      <trkpt lat="44.10057" lon="3.12248">
        <ele>375.2</ele>
        <time>2019-05-31T14:03:21Z</time>
      </trkpt>
      <trkpt lat="44.10056" lon="3.12243">
        <ele>375.1</ele>
        <time>2019-05-31T14:03:22Z</time>
      </trkpt>
      <trkpt lat="44.10055" lon="3.12237">
        <ele>375</ele>
        <time>2019-05-31T14:03:23Z</time>
      </trkpt>
      <trkpt lat="44.10054" lon="3.12231">
        <ele>375</ele>
        <time>2019-05-31T14:03:24Z</time>
      </trkpt>
      <trkpt lat="44.10052" lon="3.12224">
        <ele>374.9</ele>
        <time>2019-05-31T14:03:25Z</time>
      </trkpt>
      <trkpt lat="44.10051" lon="3.12217">
        <ele>374.8</ele>
        <time>2019-05-31T14:03:26Z</time>
      </trkpt>
      <trkpt lat="44.10049" lon="3.12212">
        <ele>374.7</ele>
        <time>2019-05-31T14:03:27Z</time>
      </trkpt>
      <trkpt lat="44.10048" lon="3.12205">
        <ele>374.6</ele>
        <time>2019-05-31T14:03:28Z</time>
      </trkpt>
      <trkpt lat="44.10047" lon="3.12199">
        <ele>374.6</ele>
        <time>2019-05-31T14:03:29Z</time>
      </trkpt>
      <trkpt lat="44.10046" lon="3.12193">
        <ele>374.5</ele>
        <time>2019-05-31T14:03:30Z</time>
      </trkpt>
      <trkpt lat="44.10045" lon="3.12188">
        <ele>374.4</ele>
        <time>2019-05-31T14:03:31Z</time>
      </trkpt>
      <trkpt lat="44.10044" lon="3.12182">
        <ele>374.4</ele>
        <time>2019-05-31T14:03:32Z</time>
      </trkpt>
      <trkpt lat="44.10044" lon="3.12176">
        <ele>374.3</ele>
        <time>2019-05-31T14:03:33Z</time>
      </trkpt>
      <trkpt lat="44.10044" lon="3.12169">
        <ele>374.3</ele>
        <time>2019-05-31T14:03:34Z</time>
      </trkpt>
      <trkpt lat="44.10043" lon="3.12163">
        <ele>374.3</ele>
        <time>2019-05-31T14:03:35Z</time>
      </trkpt>
      <trkpt lat="44.10043" lon="3.12158">
        <ele>374.3</ele>
        <time>2019-05-31T14:03:36Z</time>
      </trkpt>
      <trkpt lat="44.10042" lon="3.12152">
        <ele>374.2</ele>
        <time>2019-05-31T14:03:37Z</time>
      </trkpt>
      <trkpt lat="44.10042" lon="3.12145">
        <ele>374.2</ele>
        <time>2019-05-31T14:03:38Z</time>
      </trkpt>
      <trkpt lat="44.10041" lon="3.12138">
        <ele>374.1</ele>
        <time>2019-05-31T14:03:39Z</time>
      </trkpt>
      <trkpt lat="44.10041" lon="3.12131">
        <ele>374.1</ele>
        <time>2019-05-31T14:03:40Z</time>
      </trkpt>
      <trkpt lat="44.1004" lon="3.12125">
        <ele>374</ele>
        <time>2019-05-31T14:03:41Z</time>
      </trkpt>
      <trkpt lat="44.10041" lon="3.12119">
        <ele>374</ele>
        <time>2019-05-31T14:03:42Z</time>
      </trkpt>
      <trkpt lat="44.1004" lon="3.12113">
        <ele>373.9</ele>
        <time>2019-05-31T14:03:43Z</time>
      </trkpt>
      <trkpt lat="44.10039" lon="3.12106">
        <ele>373.9</ele>
        <time>2019-05-31T14:03:44Z</time>
      </trkpt>
      <trkpt lat="44.10038" lon="3.121">
        <ele>373.8</ele>
        <time>2019-05-31T14:03:45Z</time>
      </trkpt>
      <trkpt lat="44.10037" lon="3.12093">
        <ele>373.7</ele>
        <time>2019-05-31T14:03:46Z</time>
      </trkpt>
      <trkpt lat="44.10036" lon="3.12086">
        <ele>373.6</ele>
        <time>2019-05-31T14:03:47Z</time>
      </trkpt>
      <trkpt lat="44.10035" lon="3.12079">
        <ele>373.5</ele>
        <time>2019-05-31T14:03:48Z</time>
      </trkpt>
      <trkpt lat="44.10033" lon="3.12072">
        <ele>373.4</ele>
        <time>2019-05-31T14:03:49Z</time>
      </trkpt>
      <trkpt lat="44.10031" lon="3.12065">
        <ele>373.4</ele>
        <time>2019-05-31T14:03:50Z</time>
      </trkpt>
      <trkpt lat="44.1003" lon="3.12059">
        <ele>373.3</ele>
        <time>2019-05-31T14:03:51Z</time>
      </trkpt>
      <trkpt lat="44.10028" lon="3.12053">
        <ele>373.2</ele>
        <time>2019-05-31T14:03:52Z</time>
      </trkpt>
      <trkpt lat="44.10027" lon="3.12043">
        <ele>373.2</ele>
        <time>2019-05-31T14:03:53Z</time>
      </trkpt>
      <trkpt lat="44.10025" lon="3.12036">
        <ele>373.2</ele>
        <time>2019-05-31T14:03:54Z</time>
      </trkpt>
      <trkpt lat="44.10021" lon="3.12029">
        <ele>373.3</ele>
        <time>2019-05-31T14:03:55Z</time>
      </trkpt>
      <trkpt lat="44.10019" lon="3.12026">
        <ele>373.3</ele>
        <time>2019-05-31T14:03:56Z</time>
      </trkpt>
      <trkpt lat="44.10017" lon="3.12021">
        <ele>373.3</ele>
        <time>2019-05-31T14:03:57Z</time>
      </trkpt>
      <trkpt lat="44.10016" lon="3.12016">
        <ele>373.4</ele>
        <time>2019-05-31T14:03:58Z</time>
      </trkpt>
      <trkpt lat="44.10017" lon="3.12011">
        <ele>373.4</ele>
        <time>2019-05-31T14:03:59Z</time>
      </trkpt>
      <trkpt lat="44.10018" lon="3.12007">
        <ele>373.4</ele>
        <time>2019-05-31T14:04:00Z</time>
      </trkpt>
      <trkpt lat="44.10018" lon="3.11999">
        <ele>373.4</ele>
        <time>2019-05-31T14:04:01Z</time>
      </trkpt>
      <trkpt lat="44.10019" lon="3.11992">
        <ele>373.4</ele>
        <time>2019-05-31T14:04:02Z</time>
      </trkpt>
      <trkpt lat="44.10021" lon="3.11984">
        <ele>373.4</ele>
        <time>2019-05-31T14:04:03Z</time>
      </trkpt>
      <trkpt lat="44.10023" lon="3.11976">
        <ele>373.3</ele>
        <time>2019-05-31T14:04:04Z</time>
      </trkpt>
      <trkpt lat="44.10025" lon="3.11969">
        <ele>373.3</ele>
        <time>2019-05-31T14:04:05Z</time>
      </trkpt>
      <trkpt lat="44.10026" lon="3.11962">
        <ele>373.3</ele>
        <time>2019-05-31T14:04:06Z</time>
      </trkpt>
      <trkpt lat="44.10027" lon="3.11954">
        <ele>373.2</ele>
        <time>2019-05-31T14:04:07Z</time>
      </trkpt>
      <trkpt lat="44.10025" lon="3.11941">
        <ele>373.2</ele>
        <time>2019-05-31T14:04:08Z</time>
      </trkpt>
      <trkpt lat="44.10025" lon="3.11932">
        <ele>373.1</ele>
        <time>2019-05-31T14:04:09Z</time>
      </trkpt>
      <trkpt lat="44.10026" lon="3.11922">
        <ele>373</ele>
        <time>2019-05-31T14:04:10Z</time>
      </trkpt>
      <trkpt lat="44.10027" lon="3.11913">
        <ele>372.9</ele>
        <time>2019-05-31T14:04:11Z</time>
      </trkpt>
      <trkpt lat="44.10033" lon="3.11913">
        <ele>372.8</ele>
        <time>2019-05-31T14:04:12Z</time>
      </trkpt>
      <trkpt lat="44.10035" lon="3.11906">
        <ele>372.7</ele>
        <time>2019-05-31T14:04:13Z</time>
      </trkpt>
      <trkpt lat="44.10036" lon="3.11899">
        <ele>372.6</ele>
        <time>2019-05-31T14:04:14Z</time>
      </trkpt>
      <trkpt lat="44.10037" lon="3.11892">
        <ele>372.4</ele>
        <time>2019-05-31T14:04:15Z</time>
      </trkpt>
      <trkpt lat="44.10036" lon="3.11885">
        <ele>372.3</ele>
        <time>2019-05-31T14:04:16Z</time>
      </trkpt>
      <trkpt lat="44.10036" lon="3.11876">
        <ele>372.1</ele>
        <time>2019-05-31T14:04:17Z</time>
      </trkpt>
      <trkpt lat="44.10035" lon="3.11869">
        <ele>372</ele>
        <time>2019-05-31T14:04:18Z</time>
      </trkpt>
      <trkpt lat="44.10035" lon="3.11861">
        <ele>371.8</ele>
        <time>2019-05-31T14:04:19Z</time>
      </trkpt>
      <trkpt lat="44.10035" lon="3.11855">
        <ele>371.7</ele>
        <time>2019-05-31T14:04:20Z</time>
      </trkpt>
      <trkpt lat="44.10034" lon="3.11848">
        <ele>371.5</ele>
        <time>2019-05-31T14:04:21Z</time>
      </trkpt>
      <trkpt lat="44.10034" lon="3.1184">
        <ele>371.4</ele>
        <time>2019-05-31T14:04:22Z</time>
      </trkpt>
      <trkpt lat="44.10034" lon="3.11833">
        <ele>371.3</ele>
        <time>2019-05-31T14:04:23Z</time>
      </trkpt>
      <trkpt lat="44.10035" lon="3.11827">
        <ele>371.2</ele>
        <time>2019-05-31T14:04:24Z</time>
      </trkpt>
      <trkpt lat="44.10035" lon="3.1182">
        <ele>371.1</ele>
        <time>2019-05-31T14:04:25Z</time>
      </trkpt>
      <trkpt lat="44.10035" lon="3.11812">
        <ele>371</ele>
        <time>2019-05-31T14:04:26Z</time>
      </trkpt>
      <trkpt lat="44.10034" lon="3.11808">
        <ele>371</ele>
        <time>2019-05-31T14:04:27Z</time>
      </trkpt>
      <trkpt lat="44.10034" lon="3.118">
        <ele>370.9</ele>
        <time>2019-05-31T14:04:28Z</time>
      </trkpt>
      <trkpt lat="44.10033" lon="3.11792">
        <ele>370.8</ele>
        <time>2019-05-31T14:04:29Z</time>
      </trkpt>
      <trkpt lat="44.10033" lon="3.11786">
        <ele>370.8</ele>
        <time>2019-05-31T14:04:30Z</time>
      </trkpt>
      <trkpt lat="44.1003" lon="3.11779">
        <ele>370.7</ele>
        <time>2019-05-31T14:04:31Z</time>
      </trkpt>
      <trkpt lat="44.10027" lon="3.11771">
        <ele>370.7</ele>
        <time>2019-05-31T14:04:32Z</time>
      </trkpt>
      <trkpt lat="44.10025" lon="3.11764">
        <ele>370.6</ele>
        <time>2019-05-31T14:04:33Z</time>
      </trkpt>
      <trkpt lat="44.10024" lon="3.11758">
        <ele>370.5</ele>
        <time>2019-05-31T14:04:34Z</time>
      </trkpt>
      <trkpt lat="44.10021" lon="3.11751">
        <ele>370.4</ele>
        <time>2019-05-31T14:04:35Z</time>
      </trkpt>
      <trkpt lat="44.10018" lon="3.11744">
        <ele>370.3</ele>
        <time>2019-05-31T14:04:36Z</time>
      </trkpt>
      <trkpt lat="44.10017" lon="3.11738">
        <ele>370.2</ele>
        <time>2019-05-31T14:04:37Z</time>
      </trkpt>
      <trkpt lat="44.10017" lon="3.11731">
        <ele>370</ele>
        <time>2019-05-31T14:04:38Z</time>
      </trkpt>
      <trkpt lat="44.10017" lon="3.11724">
        <ele>369.9</ele>
        <time>2019-05-31T14:04:39Z</time>
      </trkpt>
      <trkpt lat="44.10018" lon="3.11716">
        <ele>369.7</ele>
        <time>2019-05-31T14:04:40Z</time>
      </trkpt>
      <trkpt lat="44.1002" lon="3.11708">
        <ele>369.4</ele>
        <time>2019-05-31T14:04:41Z</time>
      </trkpt>
      <trkpt lat="44.10022" lon="3.117">
        <ele>369</ele>
        <time>2019-05-31T14:04:42Z</time>
      </trkpt>
      <trkpt lat="44.10023" lon="3.11693">
        <ele>368.7</ele>
        <time>2019-05-31T14:04:43Z</time>
      </trkpt>
      <trkpt lat="44.10024" lon="3.11685">
        <ele>368.4</ele>
        <time>2019-05-31T14:04:44Z</time>
      </trkpt>
      <trkpt lat="44.10023" lon="3.11679">
        <ele>368.1</ele>
        <time>2019-05-31T14:04:45Z</time>
      </trkpt>
      <trkpt lat="44.10022" lon="3.11672">
        <ele>367.8</ele>
        <time>2019-05-31T14:04:46Z</time>
      </trkpt>
      <trkpt lat="44.1002" lon="3.11666">
        <ele>367.6</ele>
        <time>2019-05-31T14:04:47Z</time>
      </trkpt>
      <trkpt lat="44.10019" lon="3.11658">
        <ele>367.3</ele>
        <time>2019-05-31T14:04:48Z</time>
      </trkpt>
      <trkpt lat="44.10017" lon="3.11651">
        <ele>367.1</ele>
        <time>2019-05-31T14:04:49Z</time>
      </trkpt>
      <trkpt lat="44.10015" lon="3.11644">
        <ele>366.8</ele>
        <time>2019-05-31T14:04:50Z</time>
      </trkpt>
      <trkpt lat="44.10014" lon="3.11636">
        <ele>366.6</ele>
        <time>2019-05-31T14:04:51Z</time>
      </trkpt>
      <trkpt lat="44.10013" lon="3.11629">
        <ele>366.3</ele>
        <time>2019-05-31T14:04:52Z</time>
      </trkpt>
      <trkpt lat="44.10013" lon="3.11621">
        <ele>366</ele>
        <time>2019-05-31T14:04:53Z</time>
      </trkpt>
      <trkpt lat="44.10011" lon="3.11613">
        <ele>365.8</ele>
        <time>2019-05-31T14:04:54Z</time>
      </trkpt>
      <trkpt lat="44.1001" lon="3.11607">
        <ele>365.6</ele>
        <time>2019-05-31T14:04:55Z</time>
      </trkpt>
      <trkpt lat="44.10008" lon="3.116">
        <ele>365.4</ele>
        <time>2019-05-31T14:04:56Z</time>
      </trkpt>
      <trkpt lat="44.10007" lon="3.11593">
        <ele>365.2</ele>
        <time>2019-05-31T14:04:57Z</time>
      </trkpt>
      <trkpt lat="44.10004" lon="3.11586">
        <ele>365</ele>
        <time>2019-05-31T14:04:58Z</time>
      </trkpt>
      <trkpt lat="44.10002" lon="3.11579">
        <ele>364.8</ele>
        <time>2019-05-31T14:04:59Z</time>
      </trkpt>
      <trkpt lat="44.09998" lon="3.11572">
        <ele>364.7</ele>
        <time>2019-05-31T14:05:00Z</time>
      </trkpt>
      <trkpt lat="44.09995" lon="3.11566">
        <ele>364.5</ele>
        <time>2019-05-31T14:05:01Z</time>
      </trkpt>
      <trkpt lat="44.09993" lon="3.1156">
        <ele>364.4</ele>
        <time>2019-05-31T14:05:02Z</time>
      </trkpt>
      <trkpt lat="44.0999" lon="3.11554">
        <ele>364.4</ele>
        <time>2019-05-31T14:05:03Z</time>
      </trkpt>
      <trkpt lat="44.09987" lon="3.11546">
        <ele>364.3</ele>
        <time>2019-05-31T14:05:04Z</time>
      </trkpt>
      <trkpt lat="44.09983" lon="3.11539">
        <ele>364.3</ele>
        <time>2019-05-31T14:05:05Z</time>
      </trkpt>
      <trkpt lat="44.0998" lon="3.11534">
        <ele>364.2</ele>
        <time>2019-05-31T14:05:06Z</time>
      </trkpt>
      <trkpt lat="44.09977" lon="3.11528">
        <ele>364.2</ele>
        <time>2019-05-31T14:05:07Z</time>
      </trkpt>
      <trkpt lat="44.09971" lon="3.11524">
        <ele>364.2</ele>
        <time>2019-05-31T14:05:08Z</time>
      </trkpt>
      <trkpt lat="44.0997" lon="3.11517">
        <ele>364.1</ele>
        <time>2019-05-31T14:05:09Z</time>
      </trkpt>
      <trkpt lat="44.09967" lon="3.11511">
        <ele>364</ele>
        <time>2019-05-31T14:05:10Z</time>
      </trkpt>
      <trkpt lat="44.09964" lon="3.11507">
        <ele>363.9</ele>
        <time>2019-05-31T14:05:11Z</time>
      </trkpt>
      <trkpt lat="44.0996" lon="3.11502">
        <ele>363.8</ele>
        <time>2019-05-31T14:05:12Z</time>
      </trkpt>
      <trkpt lat="44.09959" lon="3.11497">
        <ele>363.7</ele>
        <time>2019-05-31T14:05:13Z</time>
      </trkpt>
      <trkpt lat="44.09957" lon="3.1149">
        <ele>363.7</ele>
        <time>2019-05-31T14:05:14Z</time>
      </trkpt>
      <trkpt lat="44.09957" lon="3.11483">
        <ele>363.6</ele>
        <time>2019-05-31T14:05:15Z</time>
      </trkpt>
      <trkpt lat="44.09956" lon="3.11476">
        <ele>363.6</ele>
        <time>2019-05-31T14:05:16Z</time>
      </trkpt>
      <trkpt lat="44.09958" lon="3.11461">
        <ele>363.7</ele>
        <time>2019-05-31T14:05:17Z</time>
      </trkpt>
      <trkpt lat="44.09958" lon="3.11455">
        <ele>363.7</ele>
        <time>2019-05-31T14:05:18Z</time>
      </trkpt>
      <trkpt lat="44.09959" lon="3.11448">
        <ele>363.7</ele>
        <time>2019-05-31T14:05:19Z</time>
      </trkpt>
      <trkpt lat="44.09959" lon="3.11442">
        <ele>363.7</ele>
        <time>2019-05-31T14:05:20Z</time>
      </trkpt>
      <trkpt lat="44.09957" lon="3.11433">
        <ele>363.6</ele>
        <time>2019-05-31T14:05:21Z</time>
      </trkpt>
      <trkpt lat="44.09956" lon="3.11425">
        <ele>363.6</ele>
        <time>2019-05-31T14:05:22Z</time>
      </trkpt>
      <trkpt lat="44.09956" lon="3.11421">
        <ele>363.5</ele>
        <time>2019-05-31T14:05:23Z</time>
      </trkpt>
      <trkpt lat="44.09955" lon="3.11414">
        <ele>363.5</ele>
        <time>2019-05-31T14:05:24Z</time>
      </trkpt>
      <trkpt lat="44.0995" lon="3.1141">
        <ele>363.3</ele>
        <time>2019-05-31T14:05:25Z</time>
      </trkpt>
      <trkpt lat="44.09946" lon="3.11404">
        <ele>363.2</ele>
        <time>2019-05-31T14:05:26Z</time>
      </trkpt>
      <trkpt lat="44.09943" lon="3.11399">
        <ele>363.1</ele>
        <time>2019-05-31T14:05:27Z</time>
      </trkpt>
      <trkpt lat="44.0994" lon="3.11395">
        <ele>363</ele>
        <time>2019-05-31T14:05:28Z</time>
      </trkpt>
      <trkpt lat="44.09938" lon="3.11391">
        <ele>363</ele>
        <time>2019-05-31T14:05:29Z</time>
      </trkpt>
      <trkpt lat="44.09937" lon="3.11386">
        <ele>362.9</ele>
        <time>2019-05-31T14:05:30Z</time>
      </trkpt>
      <trkpt lat="44.09932" lon="3.11381">
        <ele>362.7</ele>
        <time>2019-05-31T14:05:31Z</time>
      </trkpt>
      <trkpt lat="44.09927" lon="3.11376">
        <ele>362.6</ele>
        <time>2019-05-31T14:05:32Z</time>
      </trkpt>
      <trkpt lat="44.09923" lon="3.11371">
        <ele>362.5</ele>
        <time>2019-05-31T14:05:33Z</time>
      </trkpt>
      <trkpt lat="44.0992" lon="3.11364">
        <ele>362.4</ele>
        <time>2019-05-31T14:05:34Z</time>
      </trkpt>
      <trkpt lat="44.09915" lon="3.11357">
        <ele>362.3</ele>
        <time>2019-05-31T14:05:35Z</time>
      </trkpt>
      <trkpt lat="44.09911" lon="3.11352">
        <ele>362.3</ele>
        <time>2019-05-31T14:05:36Z</time>
      </trkpt>
      <trkpt lat="44.09907" lon="3.11347">
        <ele>362.3</ele>
        <time>2019-05-31T14:05:37Z</time>
      </trkpt>
      <trkpt lat="44.09903" lon="3.1134">
        <ele>362.2</ele>
        <time>2019-05-31T14:05:38Z</time>
      </trkpt>
      <trkpt lat="44.09899" lon="3.11336">
        <ele>362.2</ele>
        <time>2019-05-31T14:05:39Z</time>
      </trkpt>
      <trkpt lat="44.09894" lon="3.1133">
        <ele>362.2</ele>
        <time>2019-05-31T14:05:40Z</time>
      </trkpt>
      <trkpt lat="44.09892" lon="3.11326">
        <ele>362.2</ele>
        <time>2019-05-31T14:05:41Z</time>
      </trkpt>
      <trkpt lat="44.09887" lon="3.11321">
        <ele>362.2</ele>
        <time>2019-05-31T14:05:42Z</time>
      </trkpt>
      <trkpt lat="44.09885" lon="3.11318">
        <ele>362.1</ele>
        <time>2019-05-31T14:05:43Z</time>
      </trkpt>
      <trkpt lat="44.0988" lon="3.11315">
        <ele>362.1</ele>
        <time>2019-05-31T14:05:44Z</time>
      </trkpt>
      <trkpt lat="44.09877" lon="3.11314">
        <ele>362</ele>
        <time>2019-05-31T14:05:45Z</time>
      </trkpt>
      <trkpt lat="44.09872" lon="3.11311">
        <ele>361.8</ele>
        <time>2019-05-31T14:05:46Z</time>
      </trkpt>
      <trkpt lat="44.09868" lon="3.1131">
        <ele>361.7</ele>
        <time>2019-05-31T14:05:47Z</time>
      </trkpt>
      <trkpt lat="44.09865" lon="3.11311">
        <ele>361.5</ele>
        <time>2019-05-31T14:05:48Z</time>
      </trkpt>
      <trkpt lat="44.09856" lon="3.11311">
        <ele>361.2</ele>
        <time>2019-05-31T14:05:49Z</time>
      </trkpt>
      <trkpt lat="44.09851" lon="3.11311">
        <ele>361</ele>
        <time>2019-05-31T14:05:50Z</time>
      </trkpt>
      <trkpt lat="44.09846" lon="3.11311">
        <ele>360.8</ele>
        <time>2019-05-31T14:05:51Z</time>
      </trkpt>
      <trkpt lat="44.09843" lon="3.11311">
        <ele>360.7</ele>
        <time>2019-05-31T14:05:52Z</time>
      </trkpt>
      <trkpt lat="44.0984" lon="3.11311">
        <ele>360.7</ele>
        <time>2019-05-31T14:05:53Z</time>
      </trkpt>
      <trkpt lat="44.09837" lon="3.11311">
        <ele>360.7</ele>
        <time>2019-05-31T14:05:54Z</time>
      </trkpt>
      <trkpt lat="44.09832" lon="3.11308">
        <ele>360.6</ele>
        <time>2019-05-31T14:05:55Z</time>
      </trkpt>
      <trkpt lat="44.09828" lon="3.11303">
        <ele>360.6</ele>
        <time>2019-05-31T14:05:56Z</time>
      </trkpt>
      <trkpt lat="44.09829" lon="3.113">
        <ele>360.6</ele>
        <time>2019-05-31T14:05:57Z</time>
      </trkpt>
      <trkpt lat="44.09827" lon="3.11296">
        <ele>360.7</ele>
        <time>2019-05-31T14:05:58Z</time>
      </trkpt>
      <trkpt lat="44.09831" lon="3.11292">
        <ele>360.7</ele>
        <time>2019-05-31T14:05:59Z</time>
      </trkpt>
      <trkpt lat="44.09828" lon="3.11282">
        <ele>360.8</ele>
        <time>2019-05-31T14:06:01Z</time>
      </trkpt>
      <trkpt lat="44.09824" lon="3.11279">
        <ele>360.9</ele>
        <time>2019-05-31T14:06:02Z</time>
      </trkpt>
      <trkpt lat="44.0982" lon="3.11273">
        <ele>360.9</ele>
        <time>2019-05-31T14:06:03Z</time>
      </trkpt>
      <trkpt lat="44.0982" lon="3.11268">
        <ele>360.9</ele>
        <time>2019-05-31T14:06:04Z</time>
      </trkpt>
      <trkpt lat="44.09818" lon="3.11263">
        <ele>360.9</ele>
        <time>2019-05-31T14:06:05Z</time>
      </trkpt>
      <trkpt lat="44.0982" lon="3.11257">
        <ele>360.9</ele>
        <time>2019-05-31T14:06:06Z</time>
      </trkpt>
      <trkpt lat="44.0982" lon="3.11253">
        <ele>360.9</ele>
        <time>2019-05-31T14:06:08Z</time>
      </trkpt>
      <trkpt lat="44.0982" lon="3.11246">
        <ele>360.9</ele>
        <time>2019-05-31T14:06:10Z</time>
      </trkpt>
      <trkpt lat="44.09818" lon="3.11242">
        <ele>360.9</ele>
        <time>2019-05-31T14:06:12Z</time>
      </trkpt>
      <trkpt lat="44.09818" lon="3.11236">
        <ele>360.9</ele>
        <time>2019-05-31T14:06:14Z</time>
      </trkpt>
      <trkpt lat="44.09818" lon="3.11231">
        <ele>360.9</ele>
        <time>2019-05-31T14:06:16Z</time>
      </trkpt>
      <trkpt lat="44.09819" lon="3.11227">
        <ele>361</ele>
        <time>2019-05-31T14:06:17Z</time>
      </trkpt>
      <trkpt lat="44.09819" lon="3.11222">
        <ele>361</ele>
        <time>2019-05-31T14:06:18Z</time>
      </trkpt>
      <trkpt lat="44.09819" lon="3.11216">
        <ele>361</ele>
        <time>2019-05-31T14:06:19Z</time>
      </trkpt>
      <trkpt lat="44.09819" lon="3.11211">
        <ele>361</ele>
        <time>2019-05-31T14:06:20Z</time>
      </trkpt>
      <trkpt lat="44.09819" lon="3.11207">
        <ele>361.1</ele>
        <time>2019-05-31T14:06:21Z</time>
      </trkpt>
      <trkpt lat="44.09819" lon="3.11203">
        <ele>361.1</ele>
        <time>2019-05-31T14:06:22Z</time>
      </trkpt>
      <trkpt lat="44.09821" lon="3.11197">
        <ele>361.1</ele>
        <time>2019-05-31T14:06:24Z</time>
      </trkpt>
      <trkpt lat="44.09822" lon="3.11194">
        <ele>361.1</ele>
        <time>2019-05-31T14:06:25Z</time>
      </trkpt>
      <trkpt lat="44.09824" lon="3.11186">
        <ele>361.2</ele>
        <time>2019-05-31T14:06:27Z</time>
      </trkpt>
      <trkpt lat="44.09825" lon="3.11182">
        <ele>361.2</ele>
        <time>2019-05-31T14:06:28Z</time>
      </trkpt>
      <trkpt lat="44.09826" lon="3.11177">
        <ele>361.2</ele>
        <time>2019-05-31T14:06:29Z</time>
      </trkpt>
      <trkpt lat="44.09827" lon="3.11173">
        <ele>361.3</ele>
        <time>2019-05-31T14:06:30Z</time>
      </trkpt>
      <trkpt lat="44.09828" lon="3.11169">
        <ele>361.3</ele>
        <time>2019-05-31T14:06:31Z</time>
      </trkpt>
      <trkpt lat="44.09828" lon="3.11165">
        <ele>361.3</ele>
        <time>2019-05-31T14:06:32Z</time>
      </trkpt>
      <trkpt lat="44.09829" lon="3.11161">
        <ele>361.3</ele>
        <time>2019-05-31T14:06:33Z</time>
      </trkpt>
      <trkpt lat="44.09829" lon="3.11156">
        <ele>361.3</ele>
        <time>2019-05-31T14:06:34Z</time>
      </trkpt>
      <trkpt lat="44.09829" lon="3.1115">
        <ele>361.3</ele>
        <time>2019-05-31T14:06:35Z</time>
      </trkpt>
      <trkpt lat="44.09829" lon="3.11145">
        <ele>361.3</ele>
        <time>2019-05-31T14:06:36Z</time>
      </trkpt>
      <trkpt lat="44.09829" lon="3.11138">
        <ele>361.4</ele>
        <time>2019-05-31T14:06:37Z</time>
      </trkpt>
      <trkpt lat="44.09829" lon="3.11133">
        <ele>361.5</ele>
        <time>2019-05-31T14:06:38Z</time>
      </trkpt>
      <trkpt lat="44.09829" lon="3.11129">
        <ele>361.6</ele>
        <time>2019-05-31T14:06:39Z</time>
      </trkpt>
      <trkpt lat="44.0983" lon="3.11124">
        <ele>361.7</ele>
        <time>2019-05-31T14:06:40Z</time>
      </trkpt>
      <trkpt lat="44.0983" lon="3.11119">
        <ele>361.8</ele>
        <time>2019-05-31T14:06:41Z</time>
      </trkpt>
      <trkpt lat="44.09831" lon="3.11113">
        <ele>362</ele>
        <time>2019-05-31T14:06:43Z</time>
      </trkpt>
      <trkpt lat="44.09831" lon="3.11106">
        <ele>362.4</ele>
        <time>2019-05-31T14:06:45Z</time>
      </trkpt>
      <trkpt lat="44.09831" lon="3.11102">
        <ele>362.7</ele>
        <time>2019-05-31T14:06:46Z</time>
      </trkpt>
      <trkpt lat="44.0983" lon="3.11097">
        <ele>363</ele>
        <time>2019-05-31T14:06:48Z</time>
      </trkpt>
      <trkpt lat="44.09829" lon="3.11093">
        <ele>363.4</ele>
        <time>2019-05-31T14:06:51Z</time>
      </trkpt>
      <trkpt lat="44.09826" lon="3.11092">
        <ele>363.8</ele>
        <time>2019-05-31T14:06:54Z</time>
      </trkpt>
      <trkpt lat="44.09823" lon="3.11094">
        <ele>364.2</ele>
        <time>2019-05-31T14:06:57Z</time>
      </trkpt>
      <trkpt lat="44.09821" lon="3.11096">
        <ele>364.6</ele>
        <time>2019-05-31T14:07:02Z</time>
      </trkpt>
      <trkpt lat="44.09818" lon="3.11099">
        <ele>365</ele>
        <time>2019-05-31T14:07:06Z</time>
      </trkpt>
      <trkpt lat="44.09815" lon="3.11099">
        <ele>365.6</ele>
        <time>2019-05-31T14:07:08Z</time>
      </trkpt>
      <trkpt lat="44.09812" lon="3.11099">
        <ele>366.1</ele>
        <time>2019-05-31T14:07:09Z</time>
      </trkpt>
      <trkpt lat="44.09809" lon="3.111">
        <ele>366.5</ele>
        <time>2019-05-31T14:07:10Z</time>
      </trkpt>
      <trkpt lat="44.09805" lon="3.11101">
        <ele>367.1</ele>
        <time>2019-05-31T14:07:12Z</time>
      </trkpt>
      <trkpt lat="44.09801" lon="3.11101">
        <ele>367.6</ele>
        <time>2019-05-31T14:07:14Z</time>
      </trkpt>
      <trkpt lat="44.09799" lon="3.11101">
        <ele>368.1</ele>
        <time>2019-05-31T14:07:16Z</time>
      </trkpt>
      <trkpt lat="44.09795" lon="3.11102">
        <ele>368.5</ele>
        <time>2019-05-31T14:07:19Z</time>
      </trkpt>
      <trkpt lat="44.09793" lon="3.11105">
        <ele>369</ele>
        <time>2019-05-31T14:07:22Z</time>
      </trkpt>
      <trkpt lat="44.09791" lon="3.11108">
        <ele>369.4</ele>
        <time>2019-05-31T14:07:24Z</time>
      </trkpt>
      <trkpt lat="44.09789" lon="3.11112">
        <ele>369.9</ele>
        <time>2019-05-31T14:07:26Z</time>
      </trkpt>
      <trkpt lat="44.09786" lon="3.11115">
        <ele>370.3</ele>
        <time>2019-05-31T14:07:28Z</time>
      </trkpt>
      <trkpt lat="44.09783" lon="3.11117">
        <ele>370.8</ele>
        <time>2019-05-31T14:07:30Z</time>
      </trkpt>
      <trkpt lat="44.0978" lon="3.11121">
        <ele>371.4</ele>
        <time>2019-05-31T14:07:33Z</time>
      </trkpt>
      <trkpt lat="44.09777" lon="3.11123">
        <ele>371.8</ele>
        <time>2019-05-31T14:07:35Z</time>
      </trkpt>
      <trkpt lat="44.09774" lon="3.11125">
        <ele>372.2</ele>
        <time>2019-05-31T14:07:37Z</time>
      </trkpt>
      <trkpt lat="44.0977" lon="3.11128">
        <ele>372.7</ele>
        <time>2019-05-31T14:07:40Z</time>
      </trkpt>
      <trkpt lat="44.09768" lon="3.1113">
        <ele>373.1</ele>
        <time>2019-05-31T14:07:43Z</time>
      </trkpt>
      <trkpt lat="44.09765" lon="3.1113">
        <ele>373.4</ele>
        <time>2019-05-31T14:07:45Z</time>
      </trkpt>
      <trkpt lat="44.09761" lon="3.11132">
        <ele>374</ele>
        <time>2019-05-31T14:07:48Z</time>
      </trkpt>
      <trkpt lat="44.09758" lon="3.11133">
        <ele>374.3</ele>
        <time>2019-05-31T14:07:50Z</time>
      </trkpt>
      <trkpt lat="44.09755" lon="3.11134">
        <ele>374.8</ele>
        <time>2019-05-31T14:07:53Z</time>
      </trkpt>
      <trkpt lat="44.09752" lon="3.11135">
        <ele>375.2</ele>
        <time>2019-05-31T14:07:56Z</time>
      </trkpt>
      <trkpt lat="44.0975" lon="3.11139">
        <ele>375.7</ele>
        <time>2019-05-31T14:07:59Z</time>
      </trkpt>
      <trkpt lat="44.09749" lon="3.11142">
        <ele>376.2</ele>
        <time>2019-05-31T14:08:01Z</time>
      </trkpt>
      <trkpt lat="44.09746" lon="3.11145">
        <ele>376.7</ele>
        <time>2019-05-31T14:08:03Z</time>
      </trkpt>
      <trkpt lat="44.09743" lon="3.11149">
        <ele>377.4</ele>
        <time>2019-05-31T14:08:05Z</time>
      </trkpt>
      <trkpt lat="44.0974" lon="3.11152">
        <ele>378.1</ele>
        <time>2019-05-31T14:08:08Z</time>
      </trkpt>
      <trkpt lat="44.09737" lon="3.11154">
        <ele>378.6</ele>
        <time>2019-05-31T14:08:10Z</time>
      </trkpt>
      <trkpt lat="44.09735" lon="3.11159">
        <ele>379.2</ele>
        <time>2019-05-31T14:08:12Z</time>
      </trkpt>
      <trkpt lat="44.09733" lon="3.11163">
        <ele>379.8</ele>
        <time>2019-05-31T14:08:15Z</time>
      </trkpt>
      <trkpt lat="44.09731" lon="3.11166">
        <ele>380.3</ele>
        <time>2019-05-31T14:08:17Z</time>
      </trkpt>
      <trkpt lat="44.09728" lon="3.1117">
        <ele>381</ele>
        <time>2019-05-31T14:08:20Z</time>
      </trkpt>
      <trkpt lat="44.09725" lon="3.11172">
        <ele>381.4</ele>
        <time>2019-05-31T14:08:22Z</time>
      </trkpt>
      <trkpt lat="44.09723" lon="3.11175">
        <ele>382</ele>
        <time>2019-05-31T14:08:25Z</time>
      </trkpt>
      <trkpt lat="44.09721" lon="3.1118">
        <ele>382.5</ele>
        <time>2019-05-31T14:08:28Z</time>
      </trkpt>
      <trkpt lat="44.0972" lon="3.11184">
        <ele>382.9</ele>
        <time>2019-05-31T14:08:31Z</time>
      </trkpt>
      <trkpt lat="44.0972" lon="3.11188">
        <ele>383.4</ele>
        <time>2019-05-31T14:08:34Z</time>
      </trkpt>
      <trkpt lat="44.09717" lon="3.1119">
        <ele>383.9</ele>
        <time>2019-05-31T14:08:37Z</time>
      </trkpt>
      <trkpt lat="44.09713" lon="3.11191">
        <ele>384.6</ele>
        <time>2019-05-31T14:08:41Z</time>
      </trkpt>
      <trkpt lat="44.09709" lon="3.1119">
        <ele>385.1</ele>
        <time>2019-05-31T14:08:44Z</time>
      </trkpt>
      <trkpt lat="44.09706" lon="3.11188">
        <ele>385.6</ele>
        <time>2019-05-31T14:08:48Z</time>
      </trkpt>
      <trkpt lat="44.09704" lon="3.11184">
        <ele>386.1</ele>
        <time>2019-05-31T14:08:52Z</time>
      </trkpt>
      <trkpt lat="44.09703" lon="3.11179">
        <ele>386.5</ele>
        <time>2019-05-31T14:08:55Z</time>
      </trkpt>
      <trkpt lat="44.09702" lon="3.11174">
        <ele>386.9</ele>
        <time>2019-05-31T14:08:58Z</time>
      </trkpt>
      <trkpt lat="44.097" lon="3.1117">
        <ele>387.2</ele>
        <time>2019-05-31T14:09:01Z</time>
      </trkpt>
      <trkpt lat="44.09698" lon="3.11167">
        <ele>387.5</ele>
        <time>2019-05-31T14:09:03Z</time>
      </trkpt>
      <trkpt lat="44.09695" lon="3.11164">
        <ele>387.8</ele>
        <time>2019-05-31T14:09:06Z</time>
      </trkpt>
      <trkpt lat="44.09693" lon="3.11161">
        <ele>388</ele>
        <time>2019-05-31T14:09:08Z</time>
      </trkpt>
      <trkpt lat="44.0969" lon="3.11159">
        <ele>388.3</ele>
        <time>2019-05-31T14:09:10Z</time>
      </trkpt>
      <trkpt lat="44.09689" lon="3.11155">
        <ele>388.5</ele>
        <time>2019-05-31T14:09:12Z</time>
      </trkpt>
      <trkpt lat="44.09688" lon="3.11151">
        <ele>388.7</ele>
        <time>2019-05-31T14:09:15Z</time>
      </trkpt>
      <trkpt lat="44.09687" lon="3.11146">
        <ele>388.9</ele>
        <time>2019-05-31T14:09:18Z</time>
      </trkpt>
      <trkpt lat="44.09688" lon="3.11141">
        <ele>389.1</ele>
        <time>2019-05-31T14:09:20Z</time>
      </trkpt>
      <trkpt lat="44.09688" lon="3.11135">
        <ele>389.5</ele>
        <time>2019-05-31T14:09:22Z</time>
      </trkpt>
      <trkpt lat="44.09689" lon="3.11131">
        <ele>389.7</ele>
        <time>2019-05-31T14:09:24Z</time>
      </trkpt>
      <trkpt lat="44.09691" lon="3.11125">
        <ele>390</ele>
        <time>2019-05-31T14:09:26Z</time>
      </trkpt>
      <trkpt lat="44.09691" lon="3.11119">
        <ele>390.3</ele>
        <time>2019-05-31T14:09:28Z</time>
      </trkpt>
      <trkpt lat="44.0969" lon="3.11112">
        <ele>390.7</ele>
        <time>2019-05-31T14:09:30Z</time>
      </trkpt>
      <trkpt lat="44.0969" lon="3.11106">
        <ele>391</ele>
        <time>2019-05-31T14:09:32Z</time>
      </trkpt>
      <trkpt lat="44.0969" lon="3.11099">
        <ele>391.3</ele>
        <time>2019-05-31T14:09:34Z</time>
      </trkpt>
      <trkpt lat="44.0969" lon="3.11093">
        <ele>391.6</ele>
        <time>2019-05-31T14:09:36Z</time>
      </trkpt>
      <trkpt lat="44.09689" lon="3.11087">
        <ele>391.8</ele>
        <time>2019-05-31T14:09:38Z</time>
      </trkpt>
      <trkpt lat="44.09689" lon="3.11083">
        <ele>391.9</ele>
        <time>2019-05-31T14:09:40Z</time>
      </trkpt>
      <trkpt lat="44.0969" lon="3.11078">
        <ele>392.1</ele>
        <time>2019-05-31T14:09:42Z</time>
      </trkpt>
      <trkpt lat="44.09691" lon="3.11073">
        <ele>392.3</ele>
        <time>2019-05-31T14:11:49Z</time>
      </trkpt>
      <trkpt lat="44.09693" lon="3.1107">
        <ele>392.4</ele>
        <time>2019-05-31T14:11:50Z</time>
      </trkpt>
      <trkpt lat="44.09696" lon="3.11067">
        <ele>392.6</ele>
        <time>2019-05-31T14:11:51Z</time>
      </trkpt>
      <trkpt lat="44.09701" lon="3.11063">
        <ele>392.9</ele>
        <time>2019-05-31T14:11:52Z</time>
      </trkpt>
      <trkpt lat="44.09705" lon="3.1106">
        <ele>393.1</ele>
        <time>2019-05-31T14:11:53Z</time>
      </trkpt>
      <trkpt lat="44.09711" lon="3.11056">
        <ele>393.3</ele>
        <time>2019-05-31T14:11:54Z</time>
      </trkpt>
      <trkpt lat="44.09717" lon="3.11052">
        <ele>393.6</ele>
        <time>2019-05-31T14:11:55Z</time>
      </trkpt>
      <trkpt lat="44.09721" lon="3.11046">
        <ele>393.8</ele>
        <time>2019-05-31T14:11:56Z</time>
      </trkpt>
      <trkpt lat="44.09726" lon="3.11042">
        <ele>394.2</ele>
        <time>2019-05-31T14:11:57Z</time>
      </trkpt>
      <trkpt lat="44.0973" lon="3.11036">
        <ele>394.5</ele>
        <time>2019-05-31T14:11:58Z</time>
      </trkpt>
      <trkpt lat="44.09733" lon="3.1103">
        <ele>394.7</ele>
        <time>2019-05-31T14:11:59Z</time>
      </trkpt>
      <trkpt lat="44.09736" lon="3.11023">
        <ele>395</ele>
        <time>2019-05-31T14:12:00Z</time>
      </trkpt>
      <trkpt lat="44.09738" lon="3.11017">
        <ele>395.1</ele>
        <time>2019-05-31T14:12:01Z</time>
      </trkpt>
      <trkpt lat="44.09741" lon="3.1101">
        <ele>395.3</ele>
        <time>2019-05-31T14:12:02Z</time>
      </trkpt>
      <trkpt lat="44.09742" lon="3.11">
        <ele>395.6</ele>
        <time>2019-05-31T14:12:03Z</time>
      </trkpt>
      <trkpt lat="44.09743" lon="3.10993">
        <ele>395.7</ele>
        <time>2019-05-31T14:12:04Z</time>
      </trkpt>
      <trkpt lat="44.09744" lon="3.10989">
        <ele>395.8</ele>
        <time>2019-05-31T14:12:05Z</time>
      </trkpt>
      <trkpt lat="44.09746" lon="3.10983">
        <ele>396</ele>
        <time>2019-05-31T14:12:06Z</time>
      </trkpt>
      <trkpt lat="44.09748" lon="3.10976">
        <ele>396.1</ele>
        <time>2019-05-31T14:12:07Z</time>
      </trkpt>
      <trkpt lat="44.09749" lon="3.10972">
        <ele>396.2</ele>
        <time>2019-05-31T14:12:08Z</time>
      </trkpt>
      <trkpt lat="44.09748" lon="3.10967">
        <ele>396.3</ele>
        <time>2019-05-31T14:12:09Z</time>
      </trkpt>
      <trkpt lat="44.09747" lon="3.10962">
        <ele>396.4</ele>
        <time>2019-05-31T14:12:10Z</time>
      </trkpt>
      <trkpt lat="44.09746" lon="3.10958">
        <ele>396.5</ele>
        <time>2019-05-31T14:12:11Z</time>
      </trkpt>
      <trkpt lat="44.09744" lon="3.10951">
        <ele>396.6</ele>
        <time>2019-05-31T14:12:12Z</time>
      </trkpt>
      <trkpt lat="44.09741" lon="3.10945">
        <ele>396.8</ele>
        <time>2019-05-31T14:12:13Z</time>
      </trkpt>
      <trkpt lat="44.09739" lon="3.10939">
        <ele>396.9</ele>
        <time>2019-05-31T14:12:14Z</time>
      </trkpt>
      <trkpt lat="44.0974" lon="3.1093">
        <ele>397</ele>
        <time>2019-05-31T14:12:15Z</time>
      </trkpt>
      <trkpt lat="44.09742" lon="3.10921">
        <ele>396.8</ele>
        <time>2019-05-31T14:12:16Z</time>
      </trkpt>
      <trkpt lat="44.09746" lon="3.10911">
        <ele>396.5</ele>
        <time>2019-05-31T14:12:17Z</time>
      </trkpt>
      <trkpt lat="44.0975" lon="3.10901">
        <ele>396.3</ele>
        <time>2019-05-31T14:12:18Z</time>
      </trkpt>
      <trkpt lat="44.09753" lon="3.10886">
        <ele>395.9</ele>
        <time>2019-05-31T14:12:19Z</time>
      </trkpt>
      <trkpt lat="44.09756" lon="3.10873">
        <ele>395.6</ele>
        <time>2019-05-31T14:12:20Z</time>
      </trkpt>
      <trkpt lat="44.09757" lon="3.10861">
        <ele>395.4</ele>
        <time>2019-05-31T14:12:21Z</time>
      </trkpt>
      <trkpt lat="44.09758" lon="3.10849">
        <ele>395</ele>
        <time>2019-05-31T14:12:22Z</time>
      </trkpt>
      <trkpt lat="44.09758" lon="3.10839">
        <ele>394.7</ele>
        <time>2019-05-31T14:12:23Z</time>
      </trkpt>
      <trkpt lat="44.09759" lon="3.10827">
        <ele>394.4</ele>
        <time>2019-05-31T14:12:24Z</time>
      </trkpt>
      <trkpt lat="44.09761" lon="3.10816">
        <ele>394</ele>
        <time>2019-05-31T14:12:25Z</time>
      </trkpt>
      <trkpt lat="44.09761" lon="3.10804">
        <ele>393.6</ele>
        <time>2019-05-31T14:12:26Z</time>
      </trkpt>
      <trkpt lat="44.09761" lon="3.10793">
        <ele>393.2</ele>
        <time>2019-05-31T14:12:27Z</time>
      </trkpt>
      <trkpt lat="44.09761" lon="3.10782">
        <ele>392.7</ele>
        <time>2019-05-31T14:12:28Z</time>
      </trkpt>
      <trkpt lat="44.0976" lon="3.1077">
        <ele>392.2</ele>
        <time>2019-05-31T14:12:29Z</time>
      </trkpt>
      <trkpt lat="44.0976" lon="3.10758">
        <ele>391.7</ele>
        <time>2019-05-31T14:12:30Z</time>
      </trkpt>
      <trkpt lat="44.0976" lon="3.10747">
        <ele>391.2</ele>
        <time>2019-05-31T14:12:31Z</time>
      </trkpt>
      <trkpt lat="44.09761" lon="3.10736">
        <ele>390.8</ele>
        <time>2019-05-31T14:12:32Z</time>
      </trkpt>
      <trkpt lat="44.09764" lon="3.10727">
        <ele>390.4</ele>
        <time>2019-05-31T14:12:33Z</time>
      </trkpt>
      <trkpt lat="44.09766" lon="3.10716">
        <ele>390</ele>
        <time>2019-05-31T14:12:34Z</time>
      </trkpt>
      <trkpt lat="44.09768" lon="3.10704">
        <ele>389.6</ele>
        <time>2019-05-31T14:12:35Z</time>
      </trkpt>
      <trkpt lat="44.09771" lon="3.10691">
        <ele>389.2</ele>
        <time>2019-05-31T14:12:36Z</time>
      </trkpt>
      <trkpt lat="44.09774" lon="3.1068">
        <ele>388.8</ele>
        <time>2019-05-31T14:12:37Z</time>
      </trkpt>
      <trkpt lat="44.09778" lon="3.10669">
        <ele>388.5</ele>
        <time>2019-05-31T14:12:38Z</time>
      </trkpt>
      <trkpt lat="44.09785" lon="3.10657">
        <ele>388.2</ele>
        <time>2019-05-31T14:12:39Z</time>
      </trkpt>
      <trkpt lat="44.09792" lon="3.10647">
        <ele>388.1</ele>
        <time>2019-05-31T14:12:40Z</time>
      </trkpt>
      <trkpt lat="44.09798" lon="3.10635">
        <ele>388</ele>
        <time>2019-05-31T14:12:41Z</time>
      </trkpt>
      <trkpt lat="44.09806" lon="3.10623">
        <ele>388</ele>
        <time>2019-05-31T14:12:42Z</time>
      </trkpt>
      <trkpt lat="44.09812" lon="3.10611">
        <ele>388.1</ele>
        <time>2019-05-31T14:12:43Z</time>
      </trkpt>
      <trkpt lat="44.09816" lon="3.10597">
        <ele>388.1</ele>
        <time>2019-05-31T14:12:44Z</time>
      </trkpt>
      <trkpt lat="44.09823" lon="3.10584">
        <ele>388.4</ele>
        <time>2019-05-31T14:12:45Z</time>
      </trkpt>
      <trkpt lat="44.09824" lon="3.10575">
        <ele>388.5</ele>
        <time>2019-05-31T14:12:46Z</time>
      </trkpt>
      <trkpt lat="44.09823" lon="3.10562">
        <ele>388.7</ele>
        <time>2019-05-31T14:12:47Z</time>
      </trkpt>
      <trkpt lat="44.09822" lon="3.10552">
        <ele>388.7</ele>
        <time>2019-05-31T14:12:48Z</time>
      </trkpt>
      <trkpt lat="44.0982" lon="3.1054">
        <ele>388.5</ele>
        <time>2019-05-31T14:12:49Z</time>
      </trkpt>
      <trkpt lat="44.09821" lon="3.10531">
        <ele>388.3</ele>
        <time>2019-05-31T14:12:50Z</time>
      </trkpt>
      <trkpt lat="44.09817" lon="3.10519">
        <ele>387.8</ele>
        <time>2019-05-31T14:12:51Z</time>
      </trkpt>
      <trkpt lat="44.09817" lon="3.10503">
        <ele>387.2</ele>
        <time>2019-05-31T14:12:52Z</time>
      </trkpt>
      <trkpt lat="44.09821" lon="3.10491">
        <ele>386.7</ele>
        <time>2019-05-31T14:12:53Z</time>
      </trkpt>
      <trkpt lat="44.09825" lon="3.1048">
        <ele>386.4</ele>
        <time>2019-05-31T14:12:54Z</time>
      </trkpt>
      <trkpt lat="44.09829" lon="3.10471">
        <ele>386</ele>
        <time>2019-05-31T14:12:55Z</time>
      </trkpt>
      <trkpt lat="44.09832" lon="3.10461">
        <ele>385.6</ele>
        <time>2019-05-31T14:12:56Z</time>
      </trkpt>
      <trkpt lat="44.09836" lon="3.1045">
        <ele>385.3</ele>
        <time>2019-05-31T14:12:57Z</time>
      </trkpt>
      <trkpt lat="44.09838" lon="3.10439">
        <ele>385.1</ele>
        <time>2019-05-31T14:12:58Z</time>
      </trkpt>
      <trkpt lat="44.09842" lon="3.10427">
        <ele>385</ele>
        <time>2019-05-31T14:12:59Z</time>
      </trkpt>
      <trkpt lat="44.09843" lon="3.10416">
        <ele>384.9</ele>
        <time>2019-05-31T14:13:00Z</time>
      </trkpt>
      <trkpt lat="44.09845" lon="3.10403">
        <ele>384.8</ele>
        <time>2019-05-31T14:13:01Z</time>
      </trkpt>
      <trkpt lat="44.09847" lon="3.10392">
        <ele>384.6</ele>
        <time>2019-05-31T14:13:02Z</time>
      </trkpt>
      <trkpt lat="44.0985" lon="3.10381">
        <ele>384.3</ele>
        <time>2019-05-31T14:13:03Z</time>
      </trkpt>
      <trkpt lat="44.09852" lon="3.1037">
        <ele>384.1</ele>
        <time>2019-05-31T14:13:04Z</time>
      </trkpt>
      <trkpt lat="44.09855" lon="3.10361">
        <ele>383.9</ele>
        <time>2019-05-31T14:13:05Z</time>
      </trkpt>
      <trkpt lat="44.09857" lon="3.10351">
        <ele>383.7</ele>
        <time>2019-05-31T14:13:06Z</time>
      </trkpt>
      <trkpt lat="44.09859" lon="3.10336">
        <ele>383.3</ele>
        <time>2019-05-31T14:13:07Z</time>
      </trkpt>
      <trkpt lat="44.0986" lon="3.10326">
        <ele>383</ele>
        <time>2019-05-31T14:13:08Z</time>
      </trkpt>
      <trkpt lat="44.09863" lon="3.1031">
        <ele>382.4</ele>
        <time>2019-05-31T14:13:09Z</time>
      </trkpt>
      <trkpt lat="44.09867" lon="3.103">
        <ele>382.1</ele>
        <time>2019-05-31T14:13:10Z</time>
      </trkpt>
      <trkpt lat="44.09869" lon="3.10284">
        <ele>381.8</ele>
        <time>2019-05-31T14:13:11Z</time>
      </trkpt>
      <trkpt lat="44.09871" lon="3.10273">
        <ele>381.5</ele>
        <time>2019-05-31T14:13:12Z</time>
      </trkpt>
      <trkpt lat="44.0987" lon="3.1026">
        <ele>381.1</ele>
        <time>2019-05-31T14:13:13Z</time>
      </trkpt>
      <trkpt lat="44.0987" lon="3.10245">
        <ele>380.5</ele>
        <time>2019-05-31T14:13:14Z</time>
      </trkpt>
      <trkpt lat="44.0987" lon="3.10232">
        <ele>380.2</ele>
        <time>2019-05-31T14:13:15Z</time>
      </trkpt>
      <trkpt lat="44.09871" lon="3.10218">
        <ele>380</ele>
        <time>2019-05-31T14:13:16Z</time>
      </trkpt>
      <trkpt lat="44.09871" lon="3.10206">
        <ele>380</ele>
        <time>2019-05-31T14:13:17Z</time>
      </trkpt>
      <trkpt lat="44.09873" lon="3.10193">
        <ele>379.9</ele>
        <time>2019-05-31T14:13:18Z</time>
      </trkpt>
      <trkpt lat="44.09875" lon="3.10181">
        <ele>379.8</ele>
        <time>2019-05-31T14:13:19Z</time>
      </trkpt>
      <trkpt lat="44.09876" lon="3.10172">
        <ele>379.7</ele>
        <time>2019-05-31T14:13:20Z</time>
      </trkpt>
      <trkpt lat="44.09875" lon="3.10161">
        <ele>379.4</ele>
        <time>2019-05-31T14:13:21Z</time>
      </trkpt>
      <trkpt lat="44.09874" lon="3.10152">
        <ele>379.1</ele>
        <time>2019-05-31T14:13:22Z</time>
      </trkpt>
      <trkpt lat="44.09873" lon="3.10145">
        <ele>378.8</ele>
        <time>2019-05-31T14:13:23Z</time>
      </trkpt>
      <trkpt lat="44.09873" lon="3.10135">
        <ele>378.4</ele>
        <time>2019-05-31T14:13:24Z</time>
      </trkpt>
      <trkpt lat="44.09871" lon="3.10126">
        <ele>378</ele>
        <time>2019-05-31T14:13:25Z</time>
      </trkpt>
      <trkpt lat="44.09872" lon="3.10118">
        <ele>377.6</ele>
        <time>2019-05-31T14:13:26Z</time>
      </trkpt>
      <trkpt lat="44.09872" lon="3.10108">
        <ele>377</ele>
        <time>2019-05-31T14:13:27Z</time>
      </trkpt>
      <trkpt lat="44.09872" lon="3.10098">
        <ele>376.5</ele>
        <time>2019-05-31T14:13:28Z</time>
      </trkpt>
      <trkpt lat="44.09874" lon="3.10085">
        <ele>375.6</ele>
        <time>2019-05-31T14:13:29Z</time>
      </trkpt>
      <trkpt lat="44.09874" lon="3.10074">
        <ele>375</ele>
        <time>2019-05-31T14:13:30Z</time>
      </trkpt>
      <trkpt lat="44.09871" lon="3.10063">
        <ele>374.2</ele>
        <time>2019-05-31T14:13:31Z</time>
      </trkpt>
      <trkpt lat="44.09874" lon="3.10051">
        <ele>373.3</ele>
        <time>2019-05-31T14:13:32Z</time>
      </trkpt>
      <trkpt lat="44.09875" lon="3.10037">
        <ele>372.3</ele>
        <time>2019-05-31T14:13:33Z</time>
      </trkpt>
      <trkpt lat="44.09875" lon="3.10025">
        <ele>371.6</ele>
        <time>2019-05-31T14:13:34Z</time>
      </trkpt>
      <trkpt lat="44.09877" lon="3.1001">
        <ele>370.6</ele>
        <time>2019-05-31T14:13:35Z</time>
      </trkpt>
      <trkpt lat="44.09878" lon="3.0999">
        <ele>369.5</ele>
        <time>2019-05-31T14:13:36Z</time>
      </trkpt>
      <trkpt lat="44.09878" lon="3.09974">
        <ele>368.5</ele>
        <time>2019-05-31T14:13:37Z</time>
      </trkpt>
      <trkpt lat="44.09873" lon="3.09956">
        <ele>367.7</ele>
        <time>2019-05-31T14:13:38Z</time>
      </trkpt>
      <trkpt lat="44.09873" lon="3.09939">
        <ele>366.9</ele>
        <time>2019-05-31T14:13:39Z</time>
      </trkpt>
      <trkpt lat="44.09871" lon="3.09923">
        <ele>366</ele>
        <time>2019-05-31T14:13:40Z</time>
      </trkpt>
      <trkpt lat="44.0987" lon="3.09906">
        <ele>365.1</ele>
        <time>2019-05-31T14:13:41Z</time>
      </trkpt>
      <trkpt lat="44.09868" lon="3.09887">
        <ele>364.2</ele>
        <time>2019-05-31T14:13:42Z</time>
      </trkpt>
      <trkpt lat="44.09872" lon="3.09868">
        <ele>363.8</ele>
        <time>2019-05-31T14:13:43Z</time>
      </trkpt>
      <trkpt lat="44.0987" lon="3.09844">
        <ele>363.3</ele>
        <time>2019-05-31T14:13:44Z</time>
      </trkpt>
      <trkpt lat="44.09866" lon="3.09825">
        <ele>363</ele>
        <time>2019-05-31T14:13:45Z</time>
      </trkpt>
      <trkpt lat="44.09865" lon="3.09807">
        <ele>363</ele>
        <time>2019-05-31T14:13:46Z</time>
      </trkpt>
      <trkpt lat="44.09866" lon="3.09789">
        <ele>362.9</ele>
        <time>2019-05-31T14:13:47Z</time>
      </trkpt>
      <trkpt lat="44.09867" lon="3.09773">
        <ele>362.9</ele>
        <time>2019-05-31T14:13:48Z</time>
      </trkpt>
      <trkpt lat="44.09867" lon="3.09757">
        <ele>362.7</ele>
        <time>2019-05-31T14:13:49Z</time>
      </trkpt>
      <trkpt lat="44.09864" lon="3.09739">
        <ele>362.4</ele>
        <time>2019-05-31T14:13:50Z</time>
      </trkpt>
      <trkpt lat="44.09862" lon="3.09724">
        <ele>362</ele>
        <time>2019-05-31T14:13:51Z</time>
      </trkpt>
      <trkpt lat="44.0986" lon="3.09708">
        <ele>361.6</ele>
        <time>2019-05-31T14:13:52Z</time>
      </trkpt>
      <trkpt lat="44.09858" lon="3.09696">
        <ele>361.3</ele>
        <time>2019-05-31T14:13:53Z</time>
      </trkpt>
      <trkpt lat="44.09856" lon="3.09681">
        <ele>361</ele>
        <time>2019-05-31T14:13:54Z</time>
      </trkpt>
      <trkpt lat="44.09855" lon="3.09669">
        <ele>360.7</ele>
        <time>2019-05-31T14:13:55Z</time>
      </trkpt>
      <trkpt lat="44.09854" lon="3.09656">
        <ele>360.5</ele>
        <time>2019-05-31T14:13:56Z</time>
      </trkpt>
      <trkpt lat="44.09854" lon="3.09643">
        <ele>360.1</ele>
        <time>2019-05-31T14:13:57Z</time>
      </trkpt>
      <trkpt lat="44.09856" lon="3.09632">
        <ele>359.8</ele>
        <time>2019-05-31T14:13:58Z</time>
      </trkpt>
      <trkpt lat="44.09858" lon="3.09623">
        <ele>359.6</ele>
        <time>2019-05-31T14:13:59Z</time>
      </trkpt>
      <trkpt lat="44.09858" lon="3.09611">
        <ele>359.3</ele>
        <time>2019-05-31T14:14:00Z</time>
      </trkpt>
      <trkpt lat="44.09859" lon="3.09601">
        <ele>359.1</ele>
        <time>2019-05-31T14:14:01Z</time>
      </trkpt>
      <trkpt lat="44.09862" lon="3.09591">
        <ele>359</ele>
        <time>2019-05-31T14:14:02Z</time>
      </trkpt>
      <trkpt lat="44.09866" lon="3.09582">
        <ele>359</ele>
        <time>2019-05-31T14:14:03Z</time>
      </trkpt>
      <trkpt lat="44.09869" lon="3.09576">
        <ele>358.9</ele>
        <time>2019-05-31T14:14:04Z</time>
      </trkpt>
      <trkpt lat="44.09873" lon="3.09568">
        <ele>358.9</ele>
        <time>2019-05-31T14:14:05Z</time>
      </trkpt>
      <trkpt lat="44.09877" lon="3.09561">
        <ele>358.9</ele>
        <time>2019-05-31T14:14:06Z</time>
      </trkpt>
      <trkpt lat="44.09883" lon="3.09557">
        <ele>358.9</ele>
        <time>2019-05-31T14:14:07Z</time>
      </trkpt>
      <trkpt lat="44.09888" lon="3.09552">
        <ele>358.9</ele>
        <time>2019-05-31T14:14:08Z</time>
      </trkpt>
      <trkpt lat="44.09892" lon="3.09548">
        <ele>358.9</ele>
        <time>2019-05-31T14:14:09Z</time>
      </trkpt>
      <trkpt lat="44.09898" lon="3.09542">
        <ele>358.9</ele>
        <time>2019-05-31T14:14:10Z</time>
      </trkpt>
      <trkpt lat="44.09903" lon="3.09538">
        <ele>358.9</ele>
        <time>2019-05-31T14:14:11Z</time>
      </trkpt>
      <trkpt lat="44.09909" lon="3.09532">
        <ele>359</ele>
        <time>2019-05-31T14:14:12Z</time>
      </trkpt>
      <trkpt lat="44.09914" lon="3.09527">
        <ele>359</ele>
        <time>2019-05-31T14:14:13Z</time>
      </trkpt>
      <trkpt lat="44.09918" lon="3.09522">
        <ele>359.1</ele>
        <time>2019-05-31T14:14:14Z</time>
      </trkpt>
      <trkpt lat="44.09922" lon="3.09519">
        <ele>359.1</ele>
        <time>2019-05-31T14:14:15Z</time>
      </trkpt>
      <trkpt lat="44.09924" lon="3.09508">
        <ele>359.3</ele>
        <time>2019-05-31T14:14:16Z</time>
      </trkpt>
      <trkpt lat="44.09927" lon="3.09499">
        <ele>359.5</ele>
        <time>2019-05-31T14:14:17Z</time>
      </trkpt>
      <trkpt lat="44.09931" lon="3.09492">
        <ele>359.7</ele>
        <time>2019-05-31T14:14:18Z</time>
      </trkpt>
      <trkpt lat="44.09934" lon="3.09483">
        <ele>359.8</ele>
        <time>2019-05-31T14:14:19Z</time>
      </trkpt>
      <trkpt lat="44.09937" lon="3.09469">
        <ele>359.9</ele>
        <time>2019-05-31T14:14:20Z</time>
      </trkpt>
      <trkpt lat="44.09937" lon="3.09461">
        <ele>359.9</ele>
        <time>2019-05-31T14:14:21Z</time>
      </trkpt>
      <trkpt lat="44.09936" lon="3.09454">
        <ele>359.9</ele>
        <time>2019-05-31T14:14:22Z</time>
      </trkpt>
      <trkpt lat="44.09938" lon="3.09445">
        <ele>359.9</ele>
        <time>2019-05-31T14:14:23Z</time>
      </trkpt>
      <trkpt lat="44.0994" lon="3.09441">
        <ele>359.9</ele>
        <time>2019-05-31T14:14:24Z</time>
      </trkpt>
      <trkpt lat="44.09945" lon="3.09439">
        <ele>359.9</ele>
        <time>2019-05-31T14:14:25Z</time>
      </trkpt>
      <trkpt lat="44.09947" lon="3.09434">
        <ele>359.3</ele>
        <time>2019-05-31T14:14:26Z</time>
      </trkpt>
      <trkpt lat="44.0995" lon="3.09428">
        <ele>359.1</ele>
        <time>2019-05-31T14:14:27Z</time>
      </trkpt>
      <trkpt lat="44.09953" lon="3.09423">
        <ele>359</ele>
        <time>2019-05-31T14:14:28Z</time>
      </trkpt>
      <trkpt lat="44.09956" lon="3.09416">
        <ele>358.9</ele>
        <time>2019-05-31T14:14:29Z</time>
      </trkpt>
      <trkpt lat="44.09959" lon="3.0941">
        <ele>358.8</ele>
        <time>2019-05-31T14:14:30Z</time>
      </trkpt>
      <trkpt lat="44.09961" lon="3.09404">
        <ele>358.6</ele>
        <time>2019-05-31T14:14:31Z</time>
      </trkpt>
      <trkpt lat="44.09964" lon="3.09397">
        <ele>358.5</ele>
        <time>2019-05-31T14:14:32Z</time>
      </trkpt>
      <trkpt lat="44.09967" lon="3.09387">
        <ele>358.5</ele>
        <time>2019-05-31T14:14:33Z</time>
      </trkpt>
      <trkpt lat="44.09971" lon="3.0938">
        <ele>358.5</ele>
        <time>2019-05-31T14:14:34Z</time>
      </trkpt>
      <trkpt lat="44.09974" lon="3.09373">
        <ele>358.6</ele>
        <time>2019-05-31T14:14:35Z</time>
      </trkpt>
      <trkpt lat="44.09977" lon="3.09367">
        <ele>358.7</ele>
        <time>2019-05-31T14:14:36Z</time>
      </trkpt>
      <trkpt lat="44.09978" lon="3.09361">
        <ele>358.8</ele>
        <time>2019-05-31T14:14:38Z</time>
      </trkpt>
      <trkpt lat="44.09972" lon="3.09351">
        <ele>358.9</ele>
        <time>2019-05-31T14:14:40Z</time>
      </trkpt>
      <trkpt lat="44.0997" lon="3.09347">
        <ele>358.9</ele>
        <time>2019-05-31T14:14:41Z</time>
      </trkpt>
      <trkpt lat="44.09971" lon="3.0934">
        <ele>359</ele>
        <time>2019-05-31T14:14:43Z</time>
      </trkpt>
      <trkpt lat="44.0997" lon="3.09336">
        <ele>359.1</ele>
        <time>2019-05-31T14:14:44Z</time>
      </trkpt>
      <trkpt lat="44.09971" lon="3.09334">
        <ele>359.1</ele>
        <time>2019-05-31T14:14:45Z</time>
      </trkpt>
      <trkpt lat="44.09975" lon="3.09331">
        <ele>359.2</ele>
        <time>2019-05-31T14:14:46Z</time>
      </trkpt>
      <trkpt lat="44.09981" lon="3.09329">
        <ele>359.4</ele>
        <time>2019-05-31T14:14:47Z</time>
      </trkpt>
      <trkpt lat="44.09987" lon="3.09326">
        <ele>359.5</ele>
        <time>2019-05-31T14:14:48Z</time>
      </trkpt>
      <trkpt lat="44.09992" lon="3.09323">
        <ele>359.8</ele>
        <time>2019-05-31T14:14:49Z</time>
      </trkpt>
      <trkpt lat="44.09996" lon="3.0932">
        <ele>360</ele>
        <time>2019-05-31T14:14:50Z</time>
      </trkpt>
      <trkpt lat="44.10001" lon="3.09315">
        <ele>360.2</ele>
        <time>2019-05-31T14:14:51Z</time>
      </trkpt>
      <trkpt lat="44.10004" lon="3.09311">
        <ele>360.3</ele>
        <time>2019-05-31T14:14:52Z</time>
      </trkpt>
      <trkpt lat="44.10008" lon="3.09308">
        <ele>360.5</ele>
        <time>2019-05-31T14:14:53Z</time>
      </trkpt>
      <trkpt lat="44.1001" lon="3.09304">
        <ele>360.6</ele>
        <time>2019-05-31T14:14:54Z</time>
      </trkpt>
      <trkpt lat="44.10013" lon="3.093">
        <ele>360.9</ele>
        <time>2019-05-31T14:14:55Z</time>
      </trkpt>
      <trkpt lat="44.10017" lon="3.09292">
        <ele>361.2</ele>
        <time>2019-05-31T14:14:56Z</time>
      </trkpt>
      <trkpt lat="44.10019" lon="3.09286">
        <ele>361.5</ele>
        <time>2019-05-31T14:14:57Z</time>
      </trkpt>
      <trkpt lat="44.1002" lon="3.09282">
        <ele>361.6</ele>
        <time>2019-05-31T14:14:58Z</time>
      </trkpt>
      <trkpt lat="44.10022" lon="3.09278">
        <ele>361.8</ele>
        <time>2019-05-31T14:15:09Z</time>
      </trkpt>
      <trkpt lat="44.10024" lon="3.09275">
        <ele>362</ele>
        <time>2019-05-31T14:15:11Z</time>
      </trkpt>
      <trkpt lat="44.10027" lon="3.09273">
        <ele>362.1</ele>
        <time>2019-05-31T14:15:13Z</time>
      </trkpt>
      <trkpt lat="44.1003" lon="3.09271">
        <ele>362.3</ele>
        <time>2019-05-31T14:15:14Z</time>
      </trkpt>
      <trkpt lat="44.10034" lon="3.09267">
        <ele>362.5</ele>
        <time>2019-05-31T14:15:16Z</time>
      </trkpt>
      <trkpt lat="44.10038" lon="3.09264">
        <ele>362.8</ele>
        <time>2019-05-31T14:15:17Z</time>
      </trkpt>
      <trkpt lat="44.10041" lon="3.09261">
        <ele>363</ele>
        <time>2019-05-31T14:15:18Z</time>
      </trkpt>
      <trkpt lat="44.10044" lon="3.09258">
        <ele>363.2</ele>
        <time>2019-05-31T14:15:19Z</time>
      </trkpt>
      <trkpt lat="44.10047" lon="3.09255">
        <ele>363.3</ele>
        <time>2019-05-31T14:15:20Z</time>
      </trkpt>
      <trkpt lat="44.1005" lon="3.09249">
        <ele>363.5</ele>
        <time>2019-05-31T14:15:21Z</time>
      </trkpt>
      <trkpt lat="44.10052" lon="3.09245">
        <ele>363.6</ele>
        <time>2019-05-31T14:15:22Z</time>
      </trkpt>
      <trkpt lat="44.10055" lon="3.0924">
        <ele>363.8</ele>
        <time>2019-05-31T14:15:23Z</time>
      </trkpt>
      <trkpt lat="44.10058" lon="3.09235">
        <ele>363.9</ele>
        <time>2019-05-31T14:15:24Z</time>
      </trkpt>
      <trkpt lat="44.10061" lon="3.09231">
        <ele>364.1</ele>
        <time>2019-05-31T14:15:25Z</time>
      </trkpt>
      <trkpt lat="44.10064" lon="3.09225">
        <ele>364.2</ele>
        <time>2019-05-31T14:15:26Z</time>
      </trkpt>
      <trkpt lat="44.10067" lon="3.0922">
        <ele>364.4</ele>
        <time>2019-05-31T14:15:27Z</time>
      </trkpt>
      <trkpt lat="44.10071" lon="3.09214">
        <ele>364.5</ele>
        <time>2019-05-31T14:15:28Z</time>
      </trkpt>
      <trkpt lat="44.10073" lon="3.0921">
        <ele>364.6</ele>
        <time>2019-05-31T14:15:29Z</time>
      </trkpt>
      <trkpt lat="44.10075" lon="3.09206">
        <ele>364.7</ele>
        <time>2019-05-31T14:15:30Z</time>
      </trkpt>
      <trkpt lat="44.10076" lon="3.09201">
        <ele>364.7</ele>
        <time>2019-05-31T14:15:31Z</time>
      </trkpt>
      <trkpt lat="44.10076" lon="3.09194">
        <ele>364.8</ele>
        <time>2019-05-31T14:15:32Z</time>
      </trkpt>
      <trkpt lat="44.10077" lon="3.09188">
        <ele>364.8</ele>
        <time>2019-05-31T14:15:33Z</time>
      </trkpt>
      <trkpt lat="44.10077" lon="3.0918">
        <ele>364.8</ele>
        <time>2019-05-31T14:15:34Z</time>
      </trkpt>
      <trkpt lat="44.10078" lon="3.09174">
        <ele>364.8</ele>
        <time>2019-05-31T14:15:35Z</time>
      </trkpt>
      <trkpt lat="44.1008" lon="3.09166">
        <ele>364.7</ele>
        <time>2019-05-31T14:15:36Z</time>
      </trkpt>
      <trkpt lat="44.10082" lon="3.09162">
        <ele>364.6</ele>
        <time>2019-05-31T14:15:37Z</time>
      </trkpt>
      <trkpt lat="44.10086" lon="3.09159">
        <ele>364.5</ele>
        <time>2019-05-31T14:15:38Z</time>
      </trkpt>
      <trkpt lat="44.10092" lon="3.09154">
        <ele>364.4</ele>
        <time>2019-05-31T14:15:39Z</time>
      </trkpt>
      <trkpt lat="44.10099" lon="3.0915">
        <ele>364.2</ele>
        <time>2019-05-31T14:15:40Z</time>
      </trkpt>
      <trkpt lat="44.10105" lon="3.09143">
        <ele>364</ele>
        <time>2019-05-31T14:15:41Z</time>
      </trkpt>
      <trkpt lat="44.1011" lon="3.09139">
        <ele>363.9</ele>
        <time>2019-05-31T14:15:42Z</time>
      </trkpt>
      <trkpt lat="44.10115" lon="3.09134">
        <ele>363.7</ele>
        <time>2019-05-31T14:15:43Z</time>
      </trkpt>
      <trkpt lat="44.1012" lon="3.09129">
        <ele>363.6</ele>
        <time>2019-05-31T14:15:44Z</time>
      </trkpt>
      <trkpt lat="44.10124" lon="3.09124">
        <ele>363.5</ele>
        <time>2019-05-31T14:15:45Z</time>
      </trkpt>
      <trkpt lat="44.10128" lon="3.09118">
        <ele>363.4</ele>
        <time>2019-05-31T14:15:46Z</time>
      </trkpt>
      <trkpt lat="44.10135" lon="3.09116">
        <ele>363.3</ele>
        <time>2019-05-31T14:15:47Z</time>
      </trkpt>
      <trkpt lat="44.10138" lon="3.09111">
        <ele>363</ele>
        <time>2019-05-31T14:15:48Z</time>
      </trkpt>
      <trkpt lat="44.10143" lon="3.09109">
        <ele>362.6</ele>
        <time>2019-05-31T14:15:49Z</time>
      </trkpt>
      <trkpt lat="44.10147" lon="3.09104">
        <ele>362.2</ele>
        <time>2019-05-31T14:15:50Z</time>
      </trkpt>
      <trkpt lat="44.10151" lon="3.09104">
        <ele>362</ele>
        <time>2019-05-31T14:15:51Z</time>
      </trkpt>
      <trkpt lat="44.10154" lon="3.09104">
        <ele>361.9</ele>
        <time>2019-05-31T14:15:52Z</time>
      </trkpt>
      <trkpt lat="44.10158" lon="3.09103">
        <ele>361.8</ele>
        <time>2019-05-31T14:15:53Z</time>
      </trkpt>
      <trkpt lat="44.1016" lon="3.09107">
        <ele>361.8</ele>
        <time>2019-05-31T14:15:54Z</time>
      </trkpt>
      <trkpt lat="44.10165" lon="3.09108">
        <ele>361.8</ele>
        <time>2019-05-31T14:15:56Z</time>
      </trkpt>
      <trkpt lat="44.1017" lon="3.09109">
        <ele>361.8</ele>
        <time>2019-05-31T14:15:57Z</time>
      </trkpt>
      <trkpt lat="44.10175" lon="3.09106">
        <ele>361.8</ele>
        <time>2019-05-31T14:15:58Z</time>
      </trkpt>
      <trkpt lat="44.1018" lon="3.09107">
        <ele>361.7</ele>
        <time>2019-05-31T14:15:59Z</time>
      </trkpt>
      <trkpt lat="44.10185" lon="3.09106">
        <ele>361.7</ele>
        <time>2019-05-31T14:16:00Z</time>
      </trkpt>
      <trkpt lat="44.10189" lon="3.09106">
        <ele>361.6</ele>
        <time>2019-05-31T14:16:01Z</time>
      </trkpt>
      <trkpt lat="44.10192" lon="3.09106">
        <ele>361.6</ele>
        <time>2019-05-31T14:16:02Z</time>
      </trkpt>
      <trkpt lat="44.10195" lon="3.09106">
        <ele>361.6</ele>
        <time>2019-05-31T14:16:03Z</time>
      </trkpt>
      <trkpt lat="44.10198" lon="3.09106">
        <ele>361.6</ele>
        <time>2019-05-31T14:16:04Z</time>
      </trkpt>
      <trkpt lat="44.10202" lon="3.09106">
        <ele>361.5</ele>
        <time>2019-05-31T14:16:05Z</time>
      </trkpt>
      <trkpt lat="44.10205" lon="3.09105">
        <ele>361.4</ele>
        <time>2019-05-31T14:16:06Z</time>
      </trkpt>
      <trkpt lat="44.10209" lon="3.09104">
        <ele>361.4</ele>
        <time>2019-05-31T14:16:07Z</time>
      </trkpt>
      <trkpt lat="44.10212" lon="3.09103">
        <ele>361.3</ele>
        <time>2019-05-31T14:16:08Z</time>
      </trkpt>
      <trkpt lat="44.10215" lon="3.09102">
        <ele>361.2</ele>
        <time>2019-05-31T14:16:09Z</time>
      </trkpt>
      <trkpt lat="44.1022" lon="3.09101">
        <ele>361</ele>
        <time>2019-05-31T14:16:11Z</time>
      </trkpt>
      <trkpt lat="44.10223" lon="3.09101">
        <ele>360.9</ele>
        <time>2019-05-31T14:16:12Z</time>
      </trkpt>
      <trkpt lat="44.10226" lon="3.09101">
        <ele>360.8</ele>
        <time>2019-05-31T14:16:13Z</time>
      </trkpt>
      <trkpt lat="44.1023" lon="3.09101">
        <ele>360.7</ele>
        <time>2019-05-31T14:16:14Z</time>
      </trkpt>
      <trkpt lat="44.10233" lon="3.09101">
        <ele>360.6</ele>
        <time>2019-05-31T14:16:15Z</time>
      </trkpt>
      <trkpt lat="44.10235" lon="3.09101">
        <ele>360.4</ele>
        <time>2019-05-31T14:16:16Z</time>
      </trkpt>
      <trkpt lat="44.10239" lon="3.09099">
        <ele>360.3</ele>
        <time>2019-05-31T14:16:18Z</time>
      </trkpt>
      <trkpt lat="44.10241" lon="3.09096">
        <ele>360.1</ele>
        <time>2019-05-31T14:16:20Z</time>
      </trkpt>
      <trkpt lat="44.10244" lon="3.09091">
        <ele>360</ele>
        <time>2019-05-31T14:16:22Z</time>
      </trkpt>
      <trkpt lat="44.10247" lon="3.09087">
        <ele>359.8</ele>
        <time>2019-05-31T14:16:24Z</time>
      </trkpt>
      <trkpt lat="44.10251" lon="3.09088">
        <ele>360.2</ele>
        <time>2019-05-31T14:16:26Z</time>
      </trkpt>
      <trkpt lat="44.10253" lon="3.09092">
        <ele>360.4</ele>
        <time>2019-05-31T14:16:28Z</time>
      </trkpt>
      <trkpt lat="44.10255" lon="3.09097">
        <ele>360.6</ele>
        <time>2019-05-31T14:16:30Z</time>
      </trkpt>
      <trkpt lat="44.10256" lon="3.09101">
        <ele>360.8</ele>
        <time>2019-05-31T14:16:32Z</time>
      </trkpt>
      <trkpt lat="44.1026" lon="3.09102">
        <ele>361.8</ele>
        <time>2019-05-31T14:16:46Z</time>
      </trkpt>
      <trkpt lat="44.10263" lon="3.09102">
        <ele>361.8</ele>
        <time>2019-05-31T14:16:47Z</time>
      </trkpt>
      <trkpt lat="44.10266" lon="3.09102">
        <ele>361.8</ele>
        <time>2019-05-31T14:16:48Z</time>
      </trkpt>
      <trkpt lat="44.1027" lon="3.09102">
        <ele>362.6</ele>
        <time>2019-05-31T14:16:49Z</time>
      </trkpt>
      <trkpt lat="44.10275" lon="3.09102">
        <ele>362.6</ele>
        <time>2019-05-31T14:16:50Z</time>
      </trkpt>
      <trkpt lat="44.1028" lon="3.09099">
        <ele>363.1</ele>
        <time>2019-05-31T14:16:51Z</time>
      </trkpt>
      <trkpt lat="44.10284" lon="3.09092">
        <ele>363.1</ele>
        <time>2019-05-31T14:16:52Z</time>
      </trkpt>
      <trkpt lat="44.10288" lon="3.09086">
        <ele>363.1</ele>
        <time>2019-05-31T14:16:53Z</time>
      </trkpt>
      <trkpt lat="44.10291" lon="3.09077">
        <ele>363.1</ele>
        <time>2019-05-31T14:16:54Z</time>
      </trkpt>
      <trkpt lat="44.10295" lon="3.09071">
        <ele>363.1</ele>
        <time>2019-05-31T14:16:55Z</time>
      </trkpt>
      <trkpt lat="44.103" lon="3.09064">
        <ele>363.1</ele>
        <time>2019-05-31T14:16:56Z</time>
      </trkpt>
      <trkpt lat="44.10306" lon="3.09051">
        <ele>363</ele>
        <time>2019-05-31T14:16:57Z</time>
      </trkpt>
      <trkpt lat="44.10308" lon="3.09042">
        <ele>362.9</ele>
        <time>2019-05-31T14:16:58Z</time>
      </trkpt>
      <trkpt lat="44.10311" lon="3.09034">
        <ele>362.8</ele>
        <time>2019-05-31T14:16:59Z</time>
      </trkpt>
      <trkpt lat="44.10313" lon="3.09025">
        <ele>362.6</ele>
        <time>2019-05-31T14:17:00Z</time>
      </trkpt>
      <trkpt lat="44.10316" lon="3.09016">
        <ele>362.4</ele>
        <time>2019-05-31T14:17:01Z</time>
      </trkpt>
      <trkpt lat="44.10317" lon="3.09005">
        <ele>362.1</ele>
        <time>2019-05-31T14:17:02Z</time>
      </trkpt>
      <trkpt lat="44.10319" lon="3.08994">
        <ele>361.6</ele>
        <time>2019-05-31T14:17:03Z</time>
      </trkpt>
      <trkpt lat="44.10318" lon="3.08984">
        <ele>361</ele>
        <time>2019-05-31T14:17:04Z</time>
      </trkpt>
      <trkpt lat="44.10318" lon="3.08974">
        <ele>360.7</ele>
        <time>2019-05-31T14:17:05Z</time>
      </trkpt>
      <trkpt lat="44.10317" lon="3.08965">
        <ele>360.5</ele>
        <time>2019-05-31T14:17:06Z</time>
      </trkpt>
      <trkpt lat="44.10316" lon="3.08956">
        <ele>360.2</ele>
        <time>2019-05-31T14:17:07Z</time>
      </trkpt>
      <trkpt lat="44.10316" lon="3.08949">
        <ele>360</ele>
        <time>2019-05-31T14:17:08Z</time>
      </trkpt>
      <trkpt lat="44.10318" lon="3.08942">
        <ele>359.8</ele>
        <time>2019-05-31T14:17:09Z</time>
      </trkpt>
      <trkpt lat="44.10322" lon="3.08938">
        <ele>359.7</ele>
        <time>2019-05-31T14:17:10Z</time>
      </trkpt>
      <trkpt lat="44.10327" lon="3.08932">
        <ele>359.6</ele>
        <time>2019-05-31T14:17:11Z</time>
      </trkpt>
      <trkpt lat="44.10329" lon="3.08927">
        <ele>359.5</ele>
        <time>2019-05-31T14:17:12Z</time>
      </trkpt>
      <trkpt lat="44.10332" lon="3.08925">
        <ele>359.4</ele>
        <time>2019-05-31T14:17:13Z</time>
      </trkpt>
      <trkpt lat="44.10336" lon="3.08924">
        <ele>359.4</ele>
        <time>2019-05-31T14:17:14Z</time>
      </trkpt>
      <trkpt lat="44.10339" lon="3.08922">
        <ele>359.4</ele>
        <time>2019-05-31T14:17:15Z</time>
      </trkpt>
      <trkpt lat="44.10343" lon="3.08921">
        <ele>359.4</ele>
        <time>2019-05-31T14:17:16Z</time>
      </trkpt>
      <trkpt lat="44.10346" lon="3.08916">
        <ele>359.3</ele>
        <time>2019-05-31T14:17:17Z</time>
      </trkpt>
      <trkpt lat="44.10349" lon="3.08912">
        <ele>359.2</ele>
        <time>2019-05-31T14:17:18Z</time>
      </trkpt>
      <trkpt lat="44.10352" lon="3.08906">
        <ele>359.1</ele>
        <time>2019-05-31T14:17:19Z</time>
      </trkpt>
      <trkpt lat="44.10355" lon="3.08899">
        <ele>359</ele>
        <time>2019-05-31T14:17:20Z</time>
      </trkpt>
      <trkpt lat="44.10356" lon="3.08893">
        <ele>358.8</ele>
        <time>2019-05-31T14:17:21Z</time>
      </trkpt>
      <trkpt lat="44.10355" lon="3.08885">
        <ele>358.7</ele>
        <time>2019-05-31T14:17:22Z</time>
      </trkpt>
      <trkpt lat="44.10353" lon="3.08879">
        <ele>358.6</ele>
        <time>2019-05-31T14:17:23Z</time>
      </trkpt>
      <trkpt lat="44.10351" lon="3.08873">
        <ele>358.4</ele>
        <time>2019-05-31T14:17:24Z</time>
      </trkpt>
      <trkpt lat="44.10349" lon="3.08867">
        <ele>358.3</ele>
        <time>2019-05-31T14:17:25Z</time>
      </trkpt>
      <trkpt lat="44.10347" lon="3.08861">
        <ele>358.3</ele>
        <time>2019-05-31T14:17:26Z</time>
      </trkpt>
      <trkpt lat="44.10347" lon="3.08854">
        <ele>358.3</ele>
        <time>2019-05-31T14:17:27Z</time>
      </trkpt>
      <trkpt lat="44.10346" lon="3.08849">
        <ele>358.3</ele>
        <time>2019-05-31T14:17:28Z</time>
      </trkpt>
      <trkpt lat="44.10348" lon="3.08843">
        <ele>358.3</ele>
        <time>2019-05-31T14:17:29Z</time>
      </trkpt>
      <trkpt lat="44.10351" lon="3.08839">
        <ele>358.3</ele>
        <time>2019-05-31T14:17:30Z</time>
      </trkpt>
      <trkpt lat="44.10354" lon="3.08833">
        <ele>358.3</ele>
        <time>2019-05-31T14:17:32Z</time>
      </trkpt>
      <trkpt lat="44.10355" lon="3.08829">
        <ele>358.3</ele>
        <time>2019-05-31T14:17:34Z</time>
      </trkpt>
      <trkpt lat="44.10353" lon="3.08826">
        <ele>358.3</ele>
        <time>2019-05-31T14:18:43Z</time>
      </trkpt>
      <trkpt lat="44.10354" lon="3.0883">
        <ele>358.3</ele>
        <time>2019-05-31T14:18:55Z</time>
      </trkpt>
    </trkseg>
  </trk>
  <trk>
    <name><![CDATA[Trace 6]]></name>
    <desc><![CDATA[Corniches, village troglodyte, viaduc !]]></desc>
    <extensions>
      <line xmlns="http://www.topografix.com/GPX/gpx_style/0/2">
        <color>00ff00</color>
        <width>4</width>
          <extensions>
            <sens>1</sens>
          </extensions>
      </line>
    </extensions>
    <trkseg>
      <trkpt lat="44.06673" lon="3.0574">
        <ele>686.1</ele>
        <time>2018-05-19T08:23:38Z</time>
      </trkpt>
      <trkpt lat="44.06666" lon="3.05747">
        <ele>686.8</ele>
        <time>2018-05-19T08:23:40Z</time>
      </trkpt>
      <trkpt lat="44.06668" lon="3.05744">
        <ele>686.5</ele>
        <time>2018-05-19T08:23:44Z</time>
      </trkpt>
      <trkpt lat="44.06666" lon="3.05742">
        <ele>686.4</ele>
        <time>2018-05-19T08:23:58Z</time>
      </trkpt>
      <trkpt lat="44.06662" lon="3.05743">
        <ele>686.3</ele>
        <time>2018-05-19T08:24:00Z</time>
      </trkpt>
      <trkpt lat="44.06656" lon="3.05742">
        <ele>686.1</ele>
        <time>2018-05-19T08:24:02Z</time>
      </trkpt>
      <trkpt lat="44.06653" lon="3.05741">
        <ele>686</ele>
        <time>2018-05-19T08:24:03Z</time>
      </trkpt>
      <trkpt lat="44.0665" lon="3.0574">
        <ele>685.9</ele>
        <time>2018-05-19T08:24:04Z</time>
      </trkpt>
      <trkpt lat="44.06646" lon="3.0574">
        <ele>685.8</ele>
        <time>2018-05-19T08:24:05Z</time>
      </trkpt>
      <trkpt lat="44.06643" lon="3.05739">
        <ele>685.7</ele>
        <time>2018-05-19T08:24:06Z</time>
      </trkpt>
      <trkpt lat="44.0664" lon="3.05738">
        <ele>685.6</ele>
        <time>2018-05-19T08:24:07Z</time>
      </trkpt>
      <trkpt lat="44.06635" lon="3.05736">
        <ele>685.4</ele>
        <time>2018-05-19T08:24:09Z</time>
      </trkpt>
      <trkpt lat="44.06632" lon="3.05734">
        <ele>685.3</ele>
        <time>2018-05-19T08:24:10Z</time>
      </trkpt>
      <trkpt lat="44.06629" lon="3.05731">
        <ele>685.2</ele>
        <time>2018-05-19T08:24:11Z</time>
      </trkpt>
      <trkpt lat="44.06625" lon="3.05729">
        <ele>685.1</ele>
        <time>2018-05-19T08:24:12Z</time>
      </trkpt>
      <trkpt lat="44.06621" lon="3.05722">
        <ele>684.9</ele>
        <time>2018-05-19T08:24:13Z</time>
      </trkpt>
      <trkpt lat="44.06618" lon="3.05717">
        <ele>684.8</ele>
        <time>2018-05-19T08:24:14Z</time>
      </trkpt>
      <trkpt lat="44.06613" lon="3.05714">
        <ele>684.6</ele>
        <time>2018-05-19T08:24:15Z</time>
      </trkpt>
      <trkpt lat="44.06607" lon="3.05711">
        <ele>684.4</ele>
        <time>2018-05-19T08:24:16Z</time>
      </trkpt>
      <trkpt lat="44.06601" lon="3.05706">
        <ele>683.9</ele>
        <time>2018-05-19T08:24:17Z</time>
      </trkpt>
      <trkpt lat="44.06595" lon="3.05701">
        <ele>683.2</ele>
        <time>2018-05-19T08:24:18Z</time>
      </trkpt>
      <trkpt lat="44.06588" lon="3.05696">
        <ele>681.9</ele>
        <time>2018-05-19T08:24:19Z</time>
      </trkpt>
      <trkpt lat="44.06581" lon="3.05691">
        <ele>680.4</ele>
        <time>2018-05-19T08:24:20Z</time>
      </trkpt>
      <trkpt lat="44.06577" lon="3.05689">
        <ele>679.9</ele>
        <time>2018-05-19T08:24:21Z</time>
      </trkpt>
      <trkpt lat="44.06573" lon="3.0569">
        <ele>679.6</ele>
        <time>2018-05-19T08:24:22Z</time>
      </trkpt>
      <trkpt lat="44.06571" lon="3.05691">
        <ele>679.4</ele>
        <time>2018-05-19T08:24:26Z</time>
      </trkpt>
      <trkpt lat="44.06566" lon="3.05691">
        <ele>679.1</ele>
        <time>2018-05-19T08:24:31Z</time>
      </trkpt>
      <trkpt lat="44.06561" lon="3.05691">
        <ele>678.9</ele>
        <time>2018-05-19T08:24:33Z</time>
      </trkpt>
      <trkpt lat="44.06556" lon="3.05693">
        <ele>678.6</ele>
        <time>2018-05-19T08:24:35Z</time>
      </trkpt>
      <trkpt lat="44.06553" lon="3.05695">
        <ele>678.4</ele>
        <time>2018-05-19T08:24:36Z</time>
      </trkpt>
      <trkpt lat="44.06551" lon="3.05695">
        <ele>678</ele>
        <time>2018-05-19T08:24:37Z</time>
      </trkpt>
      <trkpt lat="44.06548" lon="3.05687">
        <ele>677.2</ele>
        <time>2018-05-19T08:24:38Z</time>
      </trkpt>
      <trkpt lat="44.06544" lon="3.05683">
        <ele>676.7</ele>
        <time>2018-05-19T08:24:39Z</time>
      </trkpt>
      <trkpt lat="44.0654" lon="3.05678">
        <ele>676.4</ele>
        <time>2018-05-19T08:24:40Z</time>
      </trkpt>
      <trkpt lat="44.06537" lon="3.05673">
        <ele>676.1</ele>
        <time>2018-05-19T08:24:41Z</time>
      </trkpt>
      <trkpt lat="44.06534" lon="3.05668">
        <ele>675.9</ele>
        <time>2018-05-19T08:24:42Z</time>
      </trkpt>
      <trkpt lat="44.0653" lon="3.05664">
        <ele>675.7</ele>
        <time>2018-05-19T08:24:43Z</time>
      </trkpt>
      <trkpt lat="44.06528" lon="3.05658">
        <ele>676.1</ele>
        <time>2018-05-19T08:24:44Z</time>
      </trkpt>
      <trkpt lat="44.06527" lon="3.05653">
        <ele>676.8</ele>
        <time>2018-05-19T08:24:45Z</time>
      </trkpt>
      <trkpt lat="44.06523" lon="3.05648">
        <ele>676.9</ele>
        <time>2018-05-19T08:24:46Z</time>
      </trkpt>
      <trkpt lat="44.0652" lon="3.05644">
        <ele>676.9</ele>
        <time>2018-05-19T08:24:47Z</time>
      </trkpt>
      <trkpt lat="44.06516" lon="3.05639">
        <ele>676.9</ele>
        <time>2018-05-19T08:24:48Z</time>
      </trkpt>
      <trkpt lat="44.06513" lon="3.05633">
        <ele>677</ele>
        <time>2018-05-19T08:24:49Z</time>
      </trkpt>
      <trkpt lat="44.06509" lon="3.05629">
        <ele>677</ele>
        <time>2018-05-19T08:24:50Z</time>
      </trkpt>
      <trkpt lat="44.06505" lon="3.05624">
        <ele>677</ele>
        <time>2018-05-19T08:24:51Z</time>
      </trkpt>
      <trkpt lat="44.06502" lon="3.0562">
        <ele>677.1</ele>
        <time>2018-05-19T08:24:52Z</time>
      </trkpt>
      <trkpt lat="44.06498" lon="3.05616">
        <ele>677.2</ele>
        <time>2018-05-19T08:24:53Z</time>
      </trkpt>
      <trkpt lat="44.06494" lon="3.05612">
        <ele>677.3</ele>
        <time>2018-05-19T08:24:54Z</time>
      </trkpt>
      <trkpt lat="44.0649" lon="3.0561">
        <ele>677.4</ele>
        <time>2018-05-19T08:24:55Z</time>
      </trkpt>
      <trkpt lat="44.06487" lon="3.05608">
        <ele>677.6</ele>
        <time>2018-05-19T08:24:56Z</time>
      </trkpt>
      <trkpt lat="44.06483" lon="3.05606">
        <ele>677.7</ele>
        <time>2018-05-19T08:24:57Z</time>
      </trkpt>
      <trkpt lat="44.0648" lon="3.05605">
        <ele>677.9</ele>
        <time>2018-05-19T08:24:58Z</time>
      </trkpt>
      <trkpt lat="44.06476" lon="3.05605">
        <ele>678.2</ele>
        <time>2018-05-19T08:24:59Z</time>
      </trkpt>
      <trkpt lat="44.06473" lon="3.05604">
        <ele>678.5</ele>
        <time>2018-05-19T08:25:00Z</time>
      </trkpt>
      <trkpt lat="44.0647" lon="3.05601">
        <ele>678.7</ele>
        <time>2018-05-19T08:25:01Z</time>
      </trkpt>
      <trkpt lat="44.06468" lon="3.05597">
        <ele>679</ele>
        <time>2018-05-19T08:25:02Z</time>
      </trkpt>
      <trkpt lat="44.06465" lon="3.05596">
        <ele>679.1</ele>
        <time>2018-05-19T08:25:03Z</time>
      </trkpt>
      <trkpt lat="44.06462" lon="3.05594">
        <ele>679.3</ele>
        <time>2018-05-19T08:25:04Z</time>
      </trkpt>
      <trkpt lat="44.06458" lon="3.05591">
        <ele>679.7</ele>
        <time>2018-05-19T08:25:06Z</time>
      </trkpt>
      <trkpt lat="44.06454" lon="3.05587">
        <ele>680</ele>
        <time>2018-05-19T08:25:08Z</time>
      </trkpt>
      <trkpt lat="44.06452" lon="3.05583">
        <ele>680.4</ele>
        <time>2018-05-19T08:25:10Z</time>
      </trkpt>
      <trkpt lat="44.06451" lon="3.05578">
        <ele>680.8</ele>
        <time>2018-05-19T08:25:12Z</time>
      </trkpt>
      <trkpt lat="44.0645" lon="3.05573">
        <ele>681.2</ele>
        <time>2018-05-19T08:25:14Z</time>
      </trkpt>
      <trkpt lat="44.0645" lon="3.05568">
        <ele>681.9</ele>
        <time>2018-05-19T08:25:16Z</time>
      </trkpt>
      <trkpt lat="44.06449" lon="3.05563">
        <ele>682.7</ele>
        <time>2018-05-19T08:25:18Z</time>
      </trkpt>
      <trkpt lat="44.06447" lon="3.05559">
        <ele>683.6</ele>
        <time>2018-05-19T08:25:20Z</time>
      </trkpt>
      <trkpt lat="44.06444" lon="3.05555">
        <ele>684.7</ele>
        <time>2018-05-19T08:25:23Z</time>
      </trkpt>
      <trkpt lat="44.06444" lon="3.05551">
        <ele>685.4</ele>
        <time>2018-05-19T08:25:25Z</time>
      </trkpt>
      <trkpt lat="44.06444" lon="3.05547">
        <ele>686</ele>
        <time>2018-05-19T08:25:27Z</time>
      </trkpt>
      <trkpt lat="44.06442" lon="3.05543">
        <ele>686.7</ele>
        <time>2018-05-19T08:25:29Z</time>
      </trkpt>
      <trkpt lat="44.0644" lon="3.0554">
        <ele>687.6</ele>
        <time>2018-05-19T08:25:31Z</time>
      </trkpt>
      <trkpt lat="44.06438" lon="3.05537">
        <ele>688.7</ele>
        <time>2018-05-19T08:25:33Z</time>
      </trkpt>
      <trkpt lat="44.06437" lon="3.05534">
        <ele>689.7</ele>
        <time>2018-05-19T08:25:37Z</time>
      </trkpt>
      <trkpt lat="44.06436" lon="3.0553">
        <ele>690.9</ele>
        <time>2018-05-19T08:25:41Z</time>
      </trkpt>
      <trkpt lat="44.06436" lon="3.05517">
        <ele>694.1</ele>
        <time>2018-05-19T08:28:03Z</time>
      </trkpt>
      <trkpt lat="44.06434" lon="3.05514">
        <ele>695.7</ele>
        <time>2018-05-19T08:28:05Z</time>
      </trkpt>
      <trkpt lat="44.06431" lon="3.05512">
        <ele>696</ele>
        <time>2018-05-19T08:28:07Z</time>
      </trkpt>
      <trkpt lat="44.06428" lon="3.0551">
        <ele>696.2</ele>
        <time>2018-05-19T08:28:09Z</time>
      </trkpt>
      <trkpt lat="44.06426" lon="3.05508">
        <ele>696.5</ele>
        <time>2018-05-19T08:28:11Z</time>
      </trkpt>
      <trkpt lat="44.06423" lon="3.05506">
        <ele>696.7</ele>
        <time>2018-05-19T08:28:13Z</time>
      </trkpt>
      <trkpt lat="44.0642" lon="3.05504">
        <ele>696.9</ele>
        <time>2018-05-19T08:28:15Z</time>
      </trkpt>
      <trkpt lat="44.06418" lon="3.05501">
        <ele>697.1</ele>
        <time>2018-05-19T08:28:17Z</time>
      </trkpt>
      <trkpt lat="44.06415" lon="3.05498">
        <ele>697.3</ele>
        <time>2018-05-19T08:28:19Z</time>
      </trkpt>
      <trkpt lat="44.06412" lon="3.05494">
        <ele>697.6</ele>
        <time>2018-05-19T08:28:21Z</time>
      </trkpt>
      <trkpt lat="44.06409" lon="3.05491">
        <ele>698.1</ele>
        <time>2018-05-19T08:28:23Z</time>
      </trkpt>
      <trkpt lat="44.06407" lon="3.05487">
        <ele>698.6</ele>
        <time>2018-05-19T08:28:25Z</time>
      </trkpt>
      <trkpt lat="44.06404" lon="3.05483">
        <ele>699</ele>
        <time>2018-05-19T08:28:27Z</time>
      </trkpt>
      <trkpt lat="44.06401" lon="3.05479">
        <ele>699.6</ele>
        <time>2018-05-19T08:28:29Z</time>
      </trkpt>
      <trkpt lat="44.06398" lon="3.05474">
        <ele>700.2</ele>
        <time>2018-05-19T08:28:31Z</time>
      </trkpt>
      <trkpt lat="44.06395" lon="3.0547">
        <ele>700.7</ele>
        <time>2018-05-19T08:28:33Z</time>
      </trkpt>
      <trkpt lat="44.06392" lon="3.05466">
        <ele>701.2</ele>
        <time>2018-05-19T08:28:35Z</time>
      </trkpt>
      <trkpt lat="44.0639" lon="3.05461">
        <ele>701.9</ele>
        <time>2018-05-19T08:28:37Z</time>
      </trkpt>
      <trkpt lat="44.06388" lon="3.05457">
        <ele>702.6</ele>
        <time>2018-05-19T08:28:39Z</time>
      </trkpt>
      <trkpt lat="44.06385" lon="3.05453">
        <ele>703.2</ele>
        <time>2018-05-19T08:28:41Z</time>
      </trkpt>
      <trkpt lat="44.06382" lon="3.0545">
        <ele>703.7</ele>
        <time>2018-05-19T08:28:43Z</time>
      </trkpt>
      <trkpt lat="44.06379" lon="3.05448">
        <ele>704.5</ele>
        <time>2018-05-19T08:28:45Z</time>
      </trkpt>
      <trkpt lat="44.06376" lon="3.05447">
        <ele>704.9</ele>
        <time>2018-05-19T08:28:47Z</time>
      </trkpt>
      <trkpt lat="44.06372" lon="3.05446">
        <ele>705.4</ele>
        <time>2018-05-19T08:28:49Z</time>
      </trkpt>
      <trkpt lat="44.06368" lon="3.05445">
        <ele>706</ele>
        <time>2018-05-19T08:28:51Z</time>
      </trkpt>
      <trkpt lat="44.06364" lon="3.05443">
        <ele>706.7</ele>
        <time>2018-05-19T08:28:53Z</time>
      </trkpt>
      <trkpt lat="44.06361" lon="3.05442">
        <ele>707.6</ele>
        <time>2018-05-19T08:28:55Z</time>
      </trkpt>
      <trkpt lat="44.06357" lon="3.05441">
        <ele>708.7</ele>
        <time>2018-05-19T08:28:57Z</time>
      </trkpt>
      <trkpt lat="44.06353" lon="3.05441">
        <ele>709.2</ele>
        <time>2018-05-19T08:28:59Z</time>
      </trkpt>
      <trkpt lat="44.06349" lon="3.05439">
        <ele>709.7</ele>
        <time>2018-05-19T08:29:01Z</time>
      </trkpt>
      <trkpt lat="44.06346" lon="3.05438">
        <ele>710.4</ele>
        <time>2018-05-19T08:29:03Z</time>
      </trkpt>
      <trkpt lat="44.06342" lon="3.05437">
        <ele>711</ele>
        <time>2018-05-19T08:29:05Z</time>
      </trkpt>
      <trkpt lat="44.06338" lon="3.05436">
        <ele>711.7</ele>
        <time>2018-05-19T08:29:07Z</time>
      </trkpt>
      <trkpt lat="44.06334" lon="3.05435">
        <ele>712.5</ele>
        <time>2018-05-19T08:29:09Z</time>
      </trkpt>
      <trkpt lat="44.0633" lon="3.05434">
        <ele>713</ele>
        <time>2018-05-19T08:29:11Z</time>
      </trkpt>
      <trkpt lat="44.06326" lon="3.05433">
        <ele>713.5</ele>
        <time>2018-05-19T08:29:13Z</time>
      </trkpt>
      <trkpt lat="44.06323" lon="3.05431">
        <ele>713.8</ele>
        <time>2018-05-19T08:29:15Z</time>
      </trkpt>
      <trkpt lat="44.06319" lon="3.05429">
        <ele>714.2</ele>
        <time>2018-05-19T08:29:17Z</time>
      </trkpt>
      <trkpt lat="44.06316" lon="3.05427">
        <ele>714.7</ele>
        <time>2018-05-19T08:29:19Z</time>
      </trkpt>
      <trkpt lat="44.06313" lon="3.05425">
        <ele>715</ele>
        <time>2018-05-19T08:29:21Z</time>
      </trkpt>
      <trkpt lat="44.06309" lon="3.05423">
        <ele>715.3</ele>
        <time>2018-05-19T08:29:23Z</time>
      </trkpt>
      <trkpt lat="44.06306" lon="3.0542">
        <ele>715.6</ele>
        <time>2018-05-19T08:29:25Z</time>
      </trkpt>
      <trkpt lat="44.06304" lon="3.05418">
        <ele>715.8</ele>
        <time>2018-05-19T08:29:27Z</time>
      </trkpt>
      <trkpt lat="44.063" lon="3.05416">
        <ele>716.2</ele>
        <time>2018-05-19T08:29:29Z</time>
      </trkpt>
      <trkpt lat="44.06298" lon="3.05413">
        <ele>716.5</ele>
        <time>2018-05-19T08:29:31Z</time>
      </trkpt>
      <trkpt lat="44.06296" lon="3.05409">
        <ele>717.1</ele>
        <time>2018-05-19T08:29:33Z</time>
      </trkpt>
      <trkpt lat="44.06293" lon="3.05406">
        <ele>717.6</ele>
        <time>2018-05-19T08:29:35Z</time>
      </trkpt>
      <trkpt lat="44.0629" lon="3.05403">
        <ele>718.1</ele>
        <time>2018-05-19T08:29:37Z</time>
      </trkpt>
      <trkpt lat="44.06287" lon="3.054">
        <ele>718.7</ele>
        <time>2018-05-19T08:29:39Z</time>
      </trkpt>
      <trkpt lat="44.06284" lon="3.05397">
        <ele>719.2</ele>
        <time>2018-05-19T08:29:41Z</time>
      </trkpt>
      <trkpt lat="44.06281" lon="3.05394">
        <ele>719.7</ele>
        <time>2018-05-19T08:29:43Z</time>
      </trkpt>
      <trkpt lat="44.06278" lon="3.05391">
        <ele>720.1</ele>
        <time>2018-05-19T08:29:45Z</time>
      </trkpt>
      <trkpt lat="44.06276" lon="3.05388">
        <ele>720.5</ele>
        <time>2018-05-19T08:29:47Z</time>
      </trkpt>
      <trkpt lat="44.06273" lon="3.05386">
        <ele>720.9</ele>
        <time>2018-05-19T08:29:49Z</time>
      </trkpt>
      <trkpt lat="44.0627" lon="3.05383">
        <ele>721.3</ele>
        <time>2018-05-19T08:29:51Z</time>
      </trkpt>
      <trkpt lat="44.06268" lon="3.05381">
        <ele>721.8</ele>
        <time>2018-05-19T08:29:53Z</time>
      </trkpt>
      <trkpt lat="44.06265" lon="3.05379">
        <ele>722.2</ele>
        <time>2018-05-19T08:29:55Z</time>
      </trkpt>
      <trkpt lat="44.06263" lon="3.05377">
        <ele>722.6</ele>
        <time>2018-05-19T08:29:57Z</time>
      </trkpt>
      <trkpt lat="44.0626" lon="3.05375">
        <ele>723</ele>
        <time>2018-05-19T08:29:59Z</time>
      </trkpt>
      <trkpt lat="44.06258" lon="3.05372">
        <ele>723.4</ele>
        <time>2018-05-19T08:30:01Z</time>
      </trkpt>
      <trkpt lat="44.06255" lon="3.0537">
        <ele>723.8</ele>
        <time>2018-05-19T08:30:03Z</time>
      </trkpt>
      <trkpt lat="44.06252" lon="3.05368">
        <ele>724.1</ele>
        <time>2018-05-19T08:30:05Z</time>
      </trkpt>
      <trkpt lat="44.06249" lon="3.05366">
        <ele>724.9</ele>
        <time>2018-05-19T08:30:08Z</time>
      </trkpt>
      <trkpt lat="44.06246" lon="3.05361">
        <ele>725.6</ele>
        <time>2018-05-19T08:30:11Z</time>
      </trkpt>
      <trkpt lat="44.06245" lon="3.05357">
        <ele>726.2</ele>
        <time>2018-05-19T08:30:13Z</time>
      </trkpt>
      <trkpt lat="44.06245" lon="3.05352">
        <ele>726.8</ele>
        <time>2018-05-19T08:30:15Z</time>
      </trkpt>
      <trkpt lat="44.06243" lon="3.05347">
        <ele>727.5</ele>
        <time>2018-05-19T08:30:17Z</time>
      </trkpt>
      <trkpt lat="44.06242" lon="3.05343">
        <ele>728</ele>
        <time>2018-05-19T08:30:19Z</time>
      </trkpt>
      <trkpt lat="44.0624" lon="3.05338">
        <ele>728.8</ele>
        <time>2018-05-19T08:30:22Z</time>
      </trkpt>
      <trkpt lat="44.0624" lon="3.05334">
        <ele>729.5</ele>
        <time>2018-05-19T08:30:24Z</time>
      </trkpt>
      <trkpt lat="44.06239" lon="3.05329">
        <ele>730.3</ele>
        <time>2018-05-19T08:30:26Z</time>
      </trkpt>
      <trkpt lat="44.06238" lon="3.05324">
        <ele>730.8</ele>
        <time>2018-05-19T08:30:28Z</time>
      </trkpt>
      <trkpt lat="44.06238" lon="3.0532">
        <ele>731.2</ele>
        <time>2018-05-19T08:30:30Z</time>
      </trkpt>
      <trkpt lat="44.06238" lon="3.05315">
        <ele>731.8</ele>
        <time>2018-05-19T08:30:32Z</time>
      </trkpt>
      <trkpt lat="44.06238" lon="3.05311">
        <ele>732.3</ele>
        <time>2018-05-19T08:30:34Z</time>
      </trkpt>
      <trkpt lat="44.06237" lon="3.05306">
        <ele>733.2</ele>
        <time>2018-05-19T08:30:37Z</time>
      </trkpt>
      <trkpt lat="44.06237" lon="3.05301">
        <ele>734</ele>
        <time>2018-05-19T08:30:39Z</time>
      </trkpt>
      <trkpt lat="44.06237" lon="3.05296">
        <ele>734.7</ele>
        <time>2018-05-19T08:30:41Z</time>
      </trkpt>
      <trkpt lat="44.06236" lon="3.05291">
        <ele>735.5</ele>
        <time>2018-05-19T08:30:43Z</time>
      </trkpt>
      <trkpt lat="44.06236" lon="3.05287">
        <ele>736.1</ele>
        <time>2018-05-19T08:30:45Z</time>
      </trkpt>
      <trkpt lat="44.06236" lon="3.05283">
        <ele>736.7</ele>
        <time>2018-05-19T08:30:47Z</time>
      </trkpt>
      <trkpt lat="44.06236" lon="3.05277">
        <ele>737.4</ele>
        <time>2018-05-19T08:30:50Z</time>
      </trkpt>
      <trkpt lat="44.06237" lon="3.05273">
        <ele>738.2</ele>
        <time>2018-05-19T08:30:52Z</time>
      </trkpt>
      <trkpt lat="44.06238" lon="3.05268">
        <ele>738.9</ele>
        <time>2018-05-19T08:30:54Z</time>
      </trkpt>
      <trkpt lat="44.06239" lon="3.05264">
        <ele>739.5</ele>
        <time>2018-05-19T08:30:56Z</time>
      </trkpt>
      <trkpt lat="44.06239" lon="3.0526">
        <ele>740</ele>
        <time>2018-05-19T08:30:58Z</time>
      </trkpt>
      <trkpt lat="44.06239" lon="3.05255">
        <ele>740.6</ele>
        <time>2018-05-19T08:31:01Z</time>
      </trkpt>
      <trkpt lat="44.06239" lon="3.0525">
        <ele>741.8</ele>
        <time>2018-05-19T08:31:04Z</time>
      </trkpt>
      <trkpt lat="44.06239" lon="3.05245">
        <ele>743.1</ele>
        <time>2018-05-19T08:31:07Z</time>
      </trkpt>
      <trkpt lat="44.06239" lon="3.0524">
        <ele>743.8</ele>
        <time>2018-05-19T08:31:09Z</time>
      </trkpt>
      <trkpt lat="44.06239" lon="3.05236">
        <ele>744.5</ele>
        <time>2018-05-19T08:31:12Z</time>
      </trkpt>
      <trkpt lat="44.06239" lon="3.05232">
        <ele>745.4</ele>
        <time>2018-05-19T08:31:14Z</time>
      </trkpt>
      <trkpt lat="44.06239" lon="3.05228">
        <ele>745.9</ele>
        <time>2018-05-19T08:31:16Z</time>
      </trkpt>
      <trkpt lat="44.06239" lon="3.05224">
        <ele>746.5</ele>
        <time>2018-05-19T08:31:18Z</time>
      </trkpt>
      <trkpt lat="44.0624" lon="3.05219">
        <ele>747</ele>
        <time>2018-05-19T08:31:20Z</time>
      </trkpt>
      <trkpt lat="44.0624" lon="3.05215">
        <ele>747.6</ele>
        <time>2018-05-19T08:31:23Z</time>
      </trkpt>
      <trkpt lat="44.0624" lon="3.0521">
        <ele>748.5</ele>
        <time>2018-05-19T08:31:26Z</time>
      </trkpt>
      <trkpt lat="44.0624" lon="3.05205">
        <ele>749.3</ele>
        <time>2018-05-19T08:31:29Z</time>
      </trkpt>
      <trkpt lat="44.0624" lon="3.05201">
        <ele>750</ele>
        <time>2018-05-19T08:31:32Z</time>
      </trkpt>
      <trkpt lat="44.06239" lon="3.05196">
        <ele>751</ele>
        <time>2018-05-19T08:31:36Z</time>
      </trkpt>
      <trkpt lat="44.06238" lon="3.05192">
        <ele>751.8</ele>
        <time>2018-05-19T08:31:39Z</time>
      </trkpt>
      <trkpt lat="44.06235" lon="3.05188">
        <ele>752.7</ele>
        <time>2018-05-19T08:31:42Z</time>
      </trkpt>
      <trkpt lat="44.06232" lon="3.05187">
        <ele>753.7</ele>
        <time>2018-05-19T08:31:45Z</time>
      </trkpt>
      <trkpt lat="44.0623" lon="3.05184">
        <ele>754.3</ele>
        <time>2018-05-19T08:31:48Z</time>
      </trkpt>
      <trkpt lat="44.06226" lon="3.05182">
        <ele>755.4</ele>
        <time>2018-05-19T08:31:51Z</time>
      </trkpt>
      <trkpt lat="44.06223" lon="3.0518">
        <ele>756</ele>
        <time>2018-05-19T08:31:54Z</time>
      </trkpt>
      <trkpt lat="44.06221" lon="3.05179">
        <ele>756.5</ele>
        <time>2018-05-19T08:31:57Z</time>
      </trkpt>
      <trkpt lat="44.06218" lon="3.05176">
        <ele>757</ele>
        <time>2018-05-19T08:32:01Z</time>
      </trkpt>
      <trkpt lat="44.06215" lon="3.05173">
        <ele>757.6</ele>
        <time>2018-05-19T08:32:04Z</time>
      </trkpt>
      <trkpt lat="44.06213" lon="3.05169">
        <ele>758.1</ele>
        <time>2018-05-19T08:32:07Z</time>
      </trkpt>
      <trkpt lat="44.06212" lon="3.05165">
        <ele>758.4</ele>
        <time>2018-05-19T08:32:11Z</time>
      </trkpt>
      <trkpt lat="44.06213" lon="3.05161">
        <ele>758.8</ele>
        <time>2018-05-19T08:32:14Z</time>
      </trkpt>
      <trkpt lat="44.06213" lon="3.05157">
        <ele>759.2</ele>
        <time>2018-05-19T08:32:17Z</time>
      </trkpt>
      <trkpt lat="44.06213" lon="3.05152">
        <ele>759.6</ele>
        <time>2018-05-19T08:32:20Z</time>
      </trkpt>
      <trkpt lat="44.06213" lon="3.05147">
        <ele>759.9</ele>
        <time>2018-05-19T08:32:23Z</time>
      </trkpt>
      <trkpt lat="44.06213" lon="3.05141">
        <ele>760.3</ele>
        <time>2018-05-19T08:32:26Z</time>
      </trkpt>
      <trkpt lat="44.06214" lon="3.05137">
        <ele>760.7</ele>
        <time>2018-05-19T08:32:28Z</time>
      </trkpt>
      <trkpt lat="44.06214" lon="3.05133">
        <ele>761.1</ele>
        <time>2018-05-19T08:32:30Z</time>
      </trkpt>
      <trkpt lat="44.06214" lon="3.05128">
        <ele>761.4</ele>
        <time>2018-05-19T08:32:32Z</time>
      </trkpt>
      <trkpt lat="44.06214" lon="3.05125">
        <ele>761.6</ele>
        <time>2018-05-19T08:32:34Z</time>
      </trkpt>
      <trkpt lat="44.06214" lon="3.0512">
        <ele>762.1</ele>
        <time>2018-05-19T08:32:37Z</time>
      </trkpt>
      <trkpt lat="44.06214" lon="3.05115">
        <ele>762.5</ele>
        <time>2018-05-19T08:32:40Z</time>
      </trkpt>
      <trkpt lat="44.06214" lon="3.05112">
        <ele>762.9</ele>
        <time>2018-05-19T08:32:42Z</time>
      </trkpt>
      <trkpt lat="44.06215" lon="3.05107">
        <ele>763.4</ele>
        <time>2018-05-19T08:32:45Z</time>
      </trkpt>
      <trkpt lat="44.06215" lon="3.05101">
        <ele>763.9</ele>
        <time>2018-05-19T08:32:48Z</time>
      </trkpt>
      <trkpt lat="44.06215" lon="3.05096">
        <ele>764.6</ele>
        <time>2018-05-19T08:32:51Z</time>
      </trkpt>
      <trkpt lat="44.06214" lon="3.0509">
        <ele>765</ele>
        <time>2018-05-19T08:32:54Z</time>
      </trkpt>
      <trkpt lat="44.06214" lon="3.05086">
        <ele>765.4</ele>
        <time>2018-05-19T08:32:56Z</time>
      </trkpt>
      <trkpt lat="44.06213" lon="3.05081">
        <ele>765.9</ele>
        <time>2018-05-19T08:32:58Z</time>
      </trkpt>
      <trkpt lat="44.06212" lon="3.05077">
        <ele>766.3</ele>
        <time>2018-05-19T08:33:00Z</time>
      </trkpt>
      <trkpt lat="44.0621" lon="3.05074">
        <ele>766.7</ele>
        <time>2018-05-19T08:33:03Z</time>
      </trkpt>
      <trkpt lat="44.06207" lon="3.05071">
        <ele>767.2</ele>
        <time>2018-05-19T08:33:06Z</time>
      </trkpt>
      <trkpt lat="44.06204" lon="3.0507">
        <ele>767.5</ele>
        <time>2018-05-19T08:33:09Z</time>
      </trkpt>
      <trkpt lat="44.062" lon="3.05069">
        <ele>767.7</ele>
        <time>2018-05-19T08:33:12Z</time>
      </trkpt>
      <trkpt lat="44.06196" lon="3.05069">
        <ele>770.8</ele>
        <time>2018-05-19T08:33:15Z</time>
      </trkpt>
      <trkpt lat="44.06193" lon="3.05069">
        <ele>771.5</ele>
        <time>2018-05-19T08:33:17Z</time>
      </trkpt>
      <trkpt lat="44.0619" lon="3.05068">
        <ele>771.1</ele>
        <time>2018-05-19T08:33:19Z</time>
      </trkpt>
      <trkpt lat="44.06187" lon="3.05068">
        <ele>771.8</ele>
        <time>2018-05-19T08:33:21Z</time>
      </trkpt>
      <trkpt lat="44.06183" lon="3.05068">
        <ele>772.3</ele>
        <time>2018-05-19T08:33:23Z</time>
      </trkpt>
      <trkpt lat="44.0618" lon="3.05068">
        <ele>772.8</ele>
        <time>2018-05-19T08:33:25Z</time>
      </trkpt>
      <trkpt lat="44.06176" lon="3.05068">
        <ele>773.4</ele>
        <time>2018-05-19T08:33:27Z</time>
      </trkpt>
      <trkpt lat="44.06173" lon="3.05067">
        <ele>774.2</ele>
        <time>2018-05-19T08:33:29Z</time>
      </trkpt>
      <trkpt lat="44.0617" lon="3.05067">
        <ele>774.5</ele>
        <time>2018-05-19T08:33:31Z</time>
      </trkpt>
      <trkpt lat="44.06166" lon="3.05066">
        <ele>774.7</ele>
        <time>2018-05-19T08:33:33Z</time>
      </trkpt>
      <trkpt lat="44.06162" lon="3.05065">
        <ele>775</ele>
        <time>2018-05-19T08:33:35Z</time>
      </trkpt>
      <trkpt lat="44.06159" lon="3.05064">
        <ele>775.3</ele>
        <time>2018-05-19T08:33:37Z</time>
      </trkpt>
      <trkpt lat="44.06156" lon="3.05063">
        <ele>775.5</ele>
        <time>2018-05-19T08:33:39Z</time>
      </trkpt>
      <trkpt lat="44.06152" lon="3.05063">
        <ele>775.7</ele>
        <time>2018-05-19T08:33:41Z</time>
      </trkpt>
      <trkpt lat="44.06149" lon="3.05061">
        <ele>775.9</ele>
        <time>2018-05-19T08:33:43Z</time>
      </trkpt>
      <trkpt lat="44.06146" lon="3.0506">
        <ele>776.1</ele>
        <time>2018-05-19T08:33:45Z</time>
      </trkpt>
      <trkpt lat="44.06144" lon="3.05057">
        <ele>776.3</ele>
        <time>2018-05-19T08:33:47Z</time>
      </trkpt>
      <trkpt lat="44.06142" lon="3.05053">
        <ele>776.4</ele>
        <time>2018-05-19T08:33:49Z</time>
      </trkpt>
      <trkpt lat="44.0614" lon="3.0505">
        <ele>776.5</ele>
        <time>2018-05-19T08:33:51Z</time>
      </trkpt>
      <trkpt lat="44.06137" lon="3.05047">
        <ele>776.5</ele>
        <time>2018-05-19T08:33:54Z</time>
      </trkpt>
      <trkpt lat="44.06134" lon="3.05046">
        <ele>776.6</ele>
        <time>2018-05-19T08:33:58Z</time>
      </trkpt>
      <trkpt lat="44.06132" lon="3.05042">
        <ele>776.6</ele>
        <time>2018-05-19T08:34:01Z</time>
      </trkpt>
      <trkpt lat="44.06131" lon="3.05037">
        <ele>776.6</ele>
        <time>2018-05-19T08:34:04Z</time>
      </trkpt>
      <trkpt lat="44.06132" lon="3.05033">
        <ele>776.6</ele>
        <time>2018-05-19T08:34:06Z</time>
      </trkpt>
      <trkpt lat="44.06132" lon="3.05028">
        <ele>776.6</ele>
        <time>2018-05-19T08:34:08Z</time>
      </trkpt>
      <trkpt lat="44.06132" lon="3.05024">
        <ele>776.6</ele>
        <time>2018-05-19T08:34:10Z</time>
      </trkpt>
      <trkpt lat="44.06132" lon="3.0502">
        <ele>776.6</ele>
        <time>2018-05-19T08:34:12Z</time>
      </trkpt>
      <trkpt lat="44.06132" lon="3.05015">
        <ele>776.6</ele>
        <time>2018-05-19T08:34:14Z</time>
      </trkpt>
      <trkpt lat="44.06131" lon="3.05011">
        <ele>776.5</ele>
        <time>2018-05-19T08:34:16Z</time>
      </trkpt>
      <trkpt lat="44.06131" lon="3.05006">
        <ele>776.5</ele>
        <time>2018-05-19T08:34:18Z</time>
      </trkpt>
      <trkpt lat="44.06131" lon="3.05002">
        <ele>776.5</ele>
        <time>2018-05-19T08:34:20Z</time>
      </trkpt>
      <trkpt lat="44.06132" lon="3.04998">
        <ele>776.5</ele>
        <time>2018-05-19T08:34:27Z</time>
      </trkpt>
      <trkpt lat="44.06132" lon="3.04994">
        <ele>776.5</ele>
        <time>2018-05-19T08:34:56Z</time>
      </trkpt>
      <trkpt lat="44.06131" lon="3.04989">
        <ele>776.5</ele>
        <time>2018-05-19T08:34:59Z</time>
      </trkpt>
      <trkpt lat="44.06131" lon="3.04985">
        <ele>776.5</ele>
        <time>2018-05-19T08:35:01Z</time>
      </trkpt>
      <trkpt lat="44.0613" lon="3.0498">
        <ele>776.4</ele>
        <time>2018-05-19T08:35:03Z</time>
      </trkpt>
      <trkpt lat="44.06129" lon="3.04974">
        <ele>776.4</ele>
        <time>2018-05-19T08:35:05Z</time>
      </trkpt>
      <trkpt lat="44.06127" lon="3.04968">
        <ele>776.4</ele>
        <time>2018-05-19T08:35:07Z</time>
      </trkpt>
      <trkpt lat="44.06127" lon="3.04964">
        <ele>776.4</ele>
        <time>2018-05-19T08:35:08Z</time>
      </trkpt>
      <trkpt lat="44.06126" lon="3.0496">
        <ele>776.5</ele>
        <time>2018-05-19T08:35:09Z</time>
      </trkpt>
      <trkpt lat="44.06126" lon="3.04953">
        <ele>776.5</ele>
        <time>2018-05-19T08:35:11Z</time>
      </trkpt>
      <trkpt lat="44.06127" lon="3.04945">
        <ele>776.5</ele>
        <time>2018-05-19T08:35:13Z</time>
      </trkpt>
      <trkpt lat="44.06127" lon="3.04941">
        <ele>776.5</ele>
        <time>2018-05-19T08:35:14Z</time>
      </trkpt>
      <trkpt lat="44.06128" lon="3.04936">
        <ele>776.5</ele>
        <time>2018-05-19T08:35:15Z</time>
      </trkpt>
      <trkpt lat="44.0613" lon="3.0493">
        <ele>776.5</ele>
        <time>2018-05-19T08:35:16Z</time>
      </trkpt>
      <trkpt lat="44.06132" lon="3.04924">
        <ele>776.5</ele>
        <time>2018-05-19T08:35:17Z</time>
      </trkpt>
      <trkpt lat="44.06134" lon="3.04918">
        <ele>776.5</ele>
        <time>2018-05-19T08:35:18Z</time>
      </trkpt>
      <trkpt lat="44.06136" lon="3.04912">
        <ele>776.5</ele>
        <time>2018-05-19T08:35:19Z</time>
      </trkpt>
      <trkpt lat="44.06137" lon="3.04907">
        <ele>776.5</ele>
        <time>2018-05-19T08:35:20Z</time>
      </trkpt>
      <trkpt lat="44.06138" lon="3.04901">
        <ele>776.5</ele>
        <time>2018-05-19T08:35:21Z</time>
      </trkpt>
      <trkpt lat="44.06139" lon="3.04896">
        <ele>776.4</ele>
        <time>2018-05-19T08:35:22Z</time>
      </trkpt>
      <trkpt lat="44.0614" lon="3.04891">
        <ele>776.4</ele>
        <time>2018-05-19T08:35:23Z</time>
      </trkpt>
      <trkpt lat="44.0614" lon="3.04887">
        <ele>776.4</ele>
        <time>2018-05-19T08:35:24Z</time>
      </trkpt>
      <trkpt lat="44.06141" lon="3.04882">
        <ele>776.3</ele>
        <time>2018-05-19T08:35:26Z</time>
      </trkpt>
      <trkpt lat="44.06142" lon="3.04877">
        <ele>776.3</ele>
        <time>2018-05-19T08:35:28Z</time>
      </trkpt>
      <trkpt lat="44.06143" lon="3.04871">
        <ele>776.2</ele>
        <time>2018-05-19T08:35:30Z</time>
      </trkpt>
      <trkpt lat="44.06145" lon="3.04865">
        <ele>776.1</ele>
        <time>2018-05-19T08:35:32Z</time>
      </trkpt>
      <trkpt lat="44.06146" lon="3.04861">
        <ele>776.1</ele>
        <time>2018-05-19T08:35:33Z</time>
      </trkpt>
      <trkpt lat="44.06148" lon="3.04857">
        <ele>776</ele>
        <time>2018-05-19T08:35:34Z</time>
      </trkpt>
      <trkpt lat="44.0615" lon="3.04853">
        <ele>775.9</ele>
        <time>2018-05-19T08:35:35Z</time>
      </trkpt>
      <trkpt lat="44.06151" lon="3.04849">
        <ele>775.8</ele>
        <time>2018-05-19T08:35:36Z</time>
      </trkpt>
      <trkpt lat="44.06152" lon="3.04845">
        <ele>775.6</ele>
        <time>2018-05-19T08:35:37Z</time>
      </trkpt>
      <trkpt lat="44.06154" lon="3.04841">
        <ele>775.5</ele>
        <time>2018-05-19T08:35:38Z</time>
      </trkpt>
      <trkpt lat="44.06154" lon="3.04836">
        <ele>775.3</ele>
        <time>2018-05-19T08:35:39Z</time>
      </trkpt>
      <trkpt lat="44.06155" lon="3.04832">
        <ele>775.2</ele>
        <time>2018-05-19T08:35:40Z</time>
      </trkpt>
      <trkpt lat="44.06156" lon="3.04827">
        <ele>775.1</ele>
        <time>2018-05-19T08:35:41Z</time>
      </trkpt>
      <trkpt lat="44.06156" lon="3.04822">
        <ele>775</ele>
        <time>2018-05-19T08:35:42Z</time>
      </trkpt>
      <trkpt lat="44.06156" lon="3.04816">
        <ele>774.9</ele>
        <time>2018-05-19T08:35:43Z</time>
      </trkpt>
      <trkpt lat="44.06157" lon="3.04811">
        <ele>774.7</ele>
        <time>2018-05-19T08:35:44Z</time>
      </trkpt>
      <trkpt lat="44.06157" lon="3.04806">
        <ele>774.6</ele>
        <time>2018-05-19T08:35:45Z</time>
      </trkpt>
      <trkpt lat="44.06158" lon="3.048">
        <ele>774.5</ele>
        <time>2018-05-19T08:35:46Z</time>
      </trkpt>
      <trkpt lat="44.06159" lon="3.04794">
        <ele>774.3</ele>
        <time>2018-05-19T08:35:47Z</time>
      </trkpt>
      <trkpt lat="44.06161" lon="3.04788">
        <ele>774.2</ele>
        <time>2018-05-19T08:35:48Z</time>
      </trkpt>
      <trkpt lat="44.06162" lon="3.04782">
        <ele>774</ele>
        <time>2018-05-19T08:35:49Z</time>
      </trkpt>
      <trkpt lat="44.06163" lon="3.04775">
        <ele>773.7</ele>
        <time>2018-05-19T08:35:50Z</time>
      </trkpt>
      <trkpt lat="44.06165" lon="3.04769">
        <ele>773.4</ele>
        <time>2018-05-19T08:35:51Z</time>
      </trkpt>
      <trkpt lat="44.06167" lon="3.04763">
        <ele>773.2</ele>
        <time>2018-05-19T08:35:52Z</time>
      </trkpt>
      <trkpt lat="44.06169" lon="3.0476">
        <ele>773</ele>
        <time>2018-05-19T08:35:53Z</time>
      </trkpt>
      <trkpt lat="44.06171" lon="3.04757">
        <ele>772.8</ele>
        <time>2018-05-19T08:35:54Z</time>
      </trkpt>
      <trkpt lat="44.06174" lon="3.04755">
        <ele>772.6</ele>
        <time>2018-05-19T08:36:07Z</time>
      </trkpt>
      <trkpt lat="44.06176" lon="3.04754">
        <ele>772.4</ele>
        <time>2018-05-19T08:36:22Z</time>
      </trkpt>
      <trkpt lat="44.06178" lon="3.0475">
        <ele>772.1</ele>
        <time>2018-05-19T08:36:28Z</time>
      </trkpt>
      <trkpt lat="44.0618" lon="3.04747">
        <ele>771.7</ele>
        <time>2018-05-19T08:36:29Z</time>
      </trkpt>
      <trkpt lat="44.06183" lon="3.04742">
        <ele>771.3</ele>
        <time>2018-05-19T08:36:30Z</time>
      </trkpt>
      <trkpt lat="44.06185" lon="3.04738">
        <ele>770.9</ele>
        <time>2018-05-19T08:36:31Z</time>
      </trkpt>
      <trkpt lat="44.0619" lon="3.04731">
        <ele>770.1</ele>
        <time>2018-05-19T08:36:32Z</time>
      </trkpt>
      <trkpt lat="44.06194" lon="3.04726">
        <ele>769.5</ele>
        <time>2018-05-19T08:36:33Z</time>
      </trkpt>
      <trkpt lat="44.06198" lon="3.0472">
        <ele>769</ele>
        <time>2018-05-19T08:36:34Z</time>
      </trkpt>
      <trkpt lat="44.06202" lon="3.04714">
        <ele>768.5</ele>
        <time>2018-05-19T08:36:35Z</time>
      </trkpt>
      <trkpt lat="44.06207" lon="3.04706">
        <ele>768</ele>
        <time>2018-05-19T08:36:36Z</time>
      </trkpt>
      <trkpt lat="44.06212" lon="3.04697">
        <ele>767.3</ele>
        <time>2018-05-19T08:36:37Z</time>
      </trkpt>
      <trkpt lat="44.06217" lon="3.04688">
        <ele>766.7</ele>
        <time>2018-05-19T08:36:38Z</time>
      </trkpt>
      <trkpt lat="44.06222" lon="3.0468">
        <ele>766.1</ele>
        <time>2018-05-19T08:36:39Z</time>
      </trkpt>
      <trkpt lat="44.06228" lon="3.04673">
        <ele>765.5</ele>
        <time>2018-05-19T08:36:40Z</time>
      </trkpt>
      <trkpt lat="44.06232" lon="3.04666">
        <ele>764.9</ele>
        <time>2018-05-19T08:36:41Z</time>
      </trkpt>
      <trkpt lat="44.06234" lon="3.04658">
        <ele>764.3</ele>
        <time>2018-05-19T08:36:42Z</time>
      </trkpt>
      <trkpt lat="44.06235" lon="3.04649">
        <ele>764.1</ele>
        <time>2018-05-19T08:36:43Z</time>
      </trkpt>
      <trkpt lat="44.06236" lon="3.04639">
        <ele>763.7</ele>
        <time>2018-05-19T08:36:44Z</time>
      </trkpt>
      <trkpt lat="44.06238" lon="3.04631">
        <ele>763.4</ele>
        <time>2018-05-19T08:36:45Z</time>
      </trkpt>
      <trkpt lat="44.0624" lon="3.04622">
        <ele>763.1</ele>
        <time>2018-05-19T08:36:46Z</time>
      </trkpt>
      <trkpt lat="44.06242" lon="3.04613">
        <ele>762.8</ele>
        <time>2018-05-19T08:36:47Z</time>
      </trkpt>
      <trkpt lat="44.06244" lon="3.04604">
        <ele>762.6</ele>
        <time>2018-05-19T08:36:48Z</time>
      </trkpt>
      <trkpt lat="44.06247" lon="3.04595">
        <ele>762.3</ele>
        <time>2018-05-19T08:36:49Z</time>
      </trkpt>
      <trkpt lat="44.06249" lon="3.04586">
        <ele>762</ele>
        <time>2018-05-19T08:36:50Z</time>
      </trkpt>
      <trkpt lat="44.06251" lon="3.04576">
        <ele>761.7</ele>
        <time>2018-05-19T08:36:51Z</time>
      </trkpt>
      <trkpt lat="44.06253" lon="3.04567">
        <ele>761.3</ele>
        <time>2018-05-19T08:36:52Z</time>
      </trkpt>
      <trkpt lat="44.06257" lon="3.0456">
        <ele>760.8</ele>
        <time>2018-05-19T08:36:53Z</time>
      </trkpt>
      <trkpt lat="44.06259" lon="3.04551">
        <ele>760.4</ele>
        <time>2018-05-19T08:36:54Z</time>
      </trkpt>
      <trkpt lat="44.06261" lon="3.04541">
        <ele>760</ele>
        <time>2018-05-19T08:36:55Z</time>
      </trkpt>
      <trkpt lat="44.06264" lon="3.04531">
        <ele>759.5</ele>
        <time>2018-05-19T08:36:56Z</time>
      </trkpt>
      <trkpt lat="44.06266" lon="3.0452">
        <ele>759.3</ele>
        <time>2018-05-19T08:36:57Z</time>
      </trkpt>
      <trkpt lat="44.06269" lon="3.04511">
        <ele>759.2</ele>
        <time>2018-05-19T08:36:58Z</time>
      </trkpt>
      <trkpt lat="44.06273" lon="3.04503">
        <ele>759.1</ele>
        <time>2018-05-19T08:36:59Z</time>
      </trkpt>
      <trkpt lat="44.06276" lon="3.04493">
        <ele>758.5</ele>
        <time>2018-05-19T08:37:00Z</time>
      </trkpt>
      <trkpt lat="44.06278" lon="3.04484">
        <ele>757.3</ele>
        <time>2018-05-19T08:37:01Z</time>
      </trkpt>
      <trkpt lat="44.0628" lon="3.04476">
        <ele>756.7</ele>
        <time>2018-05-19T08:37:02Z</time>
      </trkpt>
      <trkpt lat="44.06282" lon="3.0447">
        <ele>756</ele>
        <time>2018-05-19T08:37:03Z</time>
      </trkpt>
      <trkpt lat="44.06285" lon="3.04467">
        <ele>755.1</ele>
        <time>2018-05-19T08:37:04Z</time>
      </trkpt>
      <trkpt lat="44.06288" lon="3.04462">
        <ele>754.4</ele>
        <time>2018-05-19T08:37:05Z</time>
      </trkpt>
      <trkpt lat="44.0629" lon="3.04458">
        <ele>753.9</ele>
        <time>2018-05-19T08:37:06Z</time>
      </trkpt>
      <trkpt lat="44.06292" lon="3.04454">
        <ele>753.4</ele>
        <time>2018-05-19T08:37:07Z</time>
      </trkpt>
      <trkpt lat="44.06293" lon="3.04451">
        <ele>753.1</ele>
        <time>2018-05-19T08:37:09Z</time>
      </trkpt>
      <trkpt lat="44.06293" lon="3.04446">
        <ele>752.3</ele>
        <time>2018-05-19T08:37:25Z</time>
      </trkpt>
      <trkpt lat="44.06295" lon="3.04443">
        <ele>751.9</ele>
        <time>2018-05-19T08:37:27Z</time>
      </trkpt>
      <trkpt lat="44.06297" lon="3.04439">
        <ele>751.4</ele>
        <time>2018-05-19T08:37:28Z</time>
      </trkpt>
      <trkpt lat="44.06299" lon="3.04434">
        <ele>750.6</ele>
        <time>2018-05-19T08:37:29Z</time>
      </trkpt>
      <trkpt lat="44.063" lon="3.04429">
        <ele>749.4</ele>
        <time>2018-05-19T08:37:30Z</time>
      </trkpt>
      <trkpt lat="44.06303" lon="3.04424">
        <ele>748.9</ele>
        <time>2018-05-19T08:37:31Z</time>
      </trkpt>
      <trkpt lat="44.06306" lon="3.0442">
        <ele>748.4</ele>
        <time>2018-05-19T08:37:32Z</time>
      </trkpt>
      <trkpt lat="44.06309" lon="3.04415">
        <ele>747.7</ele>
        <time>2018-05-19T08:37:33Z</time>
      </trkpt>
      <trkpt lat="44.06311" lon="3.04413">
        <ele>747.4</ele>
        <time>2018-05-19T08:37:34Z</time>
      </trkpt>
      <trkpt lat="44.06314" lon="3.04415">
        <ele>747.2</ele>
        <time>2018-05-19T08:37:49Z</time>
      </trkpt>
      <trkpt lat="44.06313" lon="3.04419">
        <ele>747</ele>
        <time>2018-05-19T08:38:23Z</time>
      </trkpt>
      <trkpt lat="44.06312" lon="3.04423">
        <ele>746.8</ele>
        <time>2018-05-19T08:38:59Z</time>
      </trkpt>
      <trkpt lat="44.06312" lon="3.04429">
        <ele>746.1</ele>
        <time>2018-05-19T08:39:01Z</time>
      </trkpt>
      <trkpt lat="44.06312" lon="3.04433">
        <ele>745.5</ele>
        <time>2018-05-19T08:39:02Z</time>
      </trkpt>
      <trkpt lat="44.06311" lon="3.04439">
        <ele>744.8</ele>
        <time>2018-05-19T08:39:03Z</time>
      </trkpt>
      <trkpt lat="44.06309" lon="3.04446">
        <ele>744.3</ele>
        <time>2018-05-19T08:39:04Z</time>
      </trkpt>
      <trkpt lat="44.06309" lon="3.04451">
        <ele>743.7</ele>
        <time>2018-05-19T08:39:05Z</time>
      </trkpt>
      <trkpt lat="44.06309" lon="3.04457">
        <ele>743.1</ele>
        <time>2018-05-19T08:39:06Z</time>
      </trkpt>
      <trkpt lat="44.0631" lon="3.04462">
        <ele>742.9</ele>
        <time>2018-05-19T08:39:07Z</time>
      </trkpt>
      <trkpt lat="44.06312" lon="3.04464">
        <ele>742.8</ele>
        <time>2018-05-19T08:39:08Z</time>
      </trkpt>
      <trkpt lat="44.06317" lon="3.04459">
        <ele>742.1</ele>
        <time>2018-05-19T08:39:10Z</time>
      </trkpt>
      <trkpt lat="44.0632" lon="3.04455">
        <ele>741.7</ele>
        <time>2018-05-19T08:39:11Z</time>
      </trkpt>
      <trkpt lat="44.06324" lon="3.0445">
        <ele>741.1</ele>
        <time>2018-05-19T08:39:12Z</time>
      </trkpt>
      <trkpt lat="44.06328" lon="3.04444">
        <ele>740.3</ele>
        <time>2018-05-19T08:39:13Z</time>
      </trkpt>
      <trkpt lat="44.06334" lon="3.04437">
        <ele>739.3</ele>
        <time>2018-05-19T08:39:14Z</time>
      </trkpt>
      <trkpt lat="44.06338" lon="3.04431">
        <ele>738.2</ele>
        <time>2018-05-19T08:39:15Z</time>
      </trkpt>
      <trkpt lat="44.06343" lon="3.04424">
        <ele>737</ele>
        <time>2018-05-19T08:39:16Z</time>
      </trkpt>
      <trkpt lat="44.06348" lon="3.04416">
        <ele>735.6</ele>
        <time>2018-05-19T08:39:17Z</time>
      </trkpt>
      <trkpt lat="44.06352" lon="3.04408">
        <ele>734.4</ele>
        <time>2018-05-19T08:39:18Z</time>
      </trkpt>
      <trkpt lat="44.06354" lon="3.04401">
        <ele>733.6</ele>
        <time>2018-05-19T08:39:19Z</time>
      </trkpt>
      <trkpt lat="44.06359" lon="3.04396">
        <ele>732.8</ele>
        <time>2018-05-19T08:39:20Z</time>
      </trkpt>
      <trkpt lat="44.06361" lon="3.04392">
        <ele>732.6</ele>
        <time>2018-05-19T08:39:21Z</time>
      </trkpt>
      <trkpt lat="44.06363" lon="3.04386">
        <ele>732.3</ele>
        <time>2018-05-19T08:39:22Z</time>
      </trkpt>
      <trkpt lat="44.06363" lon="3.0438">
        <ele>731.9</ele>
        <time>2018-05-19T08:39:23Z</time>
      </trkpt>
      <trkpt lat="44.06366" lon="3.04377">
        <ele>731.5</ele>
        <time>2018-05-19T08:39:24Z</time>
      </trkpt>
      <trkpt lat="44.06369" lon="3.04374">
        <ele>731</ele>
        <time>2018-05-19T08:39:25Z</time>
      </trkpt>
      <trkpt lat="44.06372" lon="3.04371">
        <ele>730.6</ele>
        <time>2018-05-19T08:39:26Z</time>
      </trkpt>
      <trkpt lat="44.06376" lon="3.04366">
        <ele>729.8</ele>
        <time>2018-05-19T08:39:27Z</time>
      </trkpt>
      <trkpt lat="44.0638" lon="3.04359">
        <ele>728.4</ele>
        <time>2018-05-19T08:39:28Z</time>
      </trkpt>
      <trkpt lat="44.06385" lon="3.04353">
        <ele>727.2</ele>
        <time>2018-05-19T08:39:29Z</time>
      </trkpt>
      <trkpt lat="44.06389" lon="3.04348">
        <ele>726</ele>
        <time>2018-05-19T08:39:30Z</time>
      </trkpt>
      <trkpt lat="44.06395" lon="3.04343">
        <ele>725.2</ele>
        <time>2018-05-19T08:39:31Z</time>
      </trkpt>
      <trkpt lat="44.06401" lon="3.04341">
        <ele>723.9</ele>
        <time>2018-05-19T08:39:32Z</time>
      </trkpt>
      <trkpt lat="44.06403" lon="3.04344">
        <ele>723.4</ele>
        <time>2018-05-19T08:39:33Z</time>
      </trkpt>
      <trkpt lat="44.06406" lon="3.04346">
        <ele>722.7</ele>
        <time>2018-05-19T08:39:34Z</time>
      </trkpt>
      <trkpt lat="44.06409" lon="3.04349">
        <ele>722.1</ele>
        <time>2018-05-19T08:39:35Z</time>
      </trkpt>
      <trkpt lat="44.06414" lon="3.04354">
        <ele>721.1</ele>
        <time>2018-05-19T08:39:36Z</time>
      </trkpt>
      <trkpt lat="44.06418" lon="3.04361">
        <ele>720.2</ele>
        <time>2018-05-19T08:39:37Z</time>
      </trkpt>
      <trkpt lat="44.06418" lon="3.0437">
        <ele>719.5</ele>
        <time>2018-05-19T08:39:38Z</time>
      </trkpt>
      <trkpt lat="44.06417" lon="3.04377">
        <ele>718.8</ele>
        <time>2018-05-19T08:39:39Z</time>
      </trkpt>
      <trkpt lat="44.06418" lon="3.04385">
        <ele>717.9</ele>
        <time>2018-05-19T08:39:40Z</time>
      </trkpt>
      <trkpt lat="44.06416" lon="3.04389">
        <ele>717.3</ele>
        <time>2018-05-19T08:39:41Z</time>
      </trkpt>
      <trkpt lat="44.06414" lon="3.04394">
        <ele>716.5</ele>
        <time>2018-05-19T08:39:42Z</time>
      </trkpt>
      <trkpt lat="44.06413" lon="3.04398">
        <ele>715.7</ele>
        <time>2018-05-19T08:39:43Z</time>
      </trkpt>
      <trkpt lat="44.06415" lon="3.04401">
        <ele>715.1</ele>
        <time>2018-05-19T08:39:44Z</time>
      </trkpt>
      <trkpt lat="44.06419" lon="3.04402">
        <ele>714.4</ele>
        <time>2018-05-19T08:39:45Z</time>
      </trkpt>
      <trkpt lat="44.06423" lon="3.04401">
        <ele>713.6</ele>
        <time>2018-05-19T08:39:46Z</time>
      </trkpt>
      <trkpt lat="44.06428" lon="3.044">
        <ele>712.5</ele>
        <time>2018-05-19T08:39:47Z</time>
      </trkpt>
      <trkpt lat="44.06431" lon="3.04396">
        <ele>711.4</ele>
        <time>2018-05-19T08:39:48Z</time>
      </trkpt>
      <trkpt lat="44.06434" lon="3.04391">
        <ele>710</ele>
        <time>2018-05-19T08:39:49Z</time>
      </trkpt>
      <trkpt lat="44.06435" lon="3.04387">
        <ele>708.7</ele>
        <time>2018-05-19T08:39:50Z</time>
      </trkpt>
      <trkpt lat="44.06437" lon="3.04383">
        <ele>707.6</ele>
        <time>2018-05-19T08:39:51Z</time>
      </trkpt>
      <trkpt lat="44.06439" lon="3.04377">
        <ele>706.4</ele>
        <time>2018-05-19T08:39:52Z</time>
      </trkpt>
      <trkpt lat="44.06441" lon="3.0437">
        <ele>705</ele>
        <time>2018-05-19T08:39:54Z</time>
      </trkpt>
      <trkpt lat="44.06445" lon="3.04365">
        <ele>703.7</ele>
        <time>2018-05-19T08:39:56Z</time>
      </trkpt>
      <trkpt lat="44.06448" lon="3.04363">
        <ele>702.8</ele>
        <time>2018-05-19T08:39:58Z</time>
      </trkpt>
      <trkpt lat="44.0645" lon="3.0436">
        <ele>702.1</ele>
        <time>2018-05-19T08:40:12Z</time>
      </trkpt>
      <trkpt lat="44.06453" lon="3.04361">
        <ele>701.2</ele>
        <time>2018-05-19T08:40:19Z</time>
      </trkpt>
      <trkpt lat="44.06457" lon="3.04361">
        <ele>700.4</ele>
        <time>2018-05-19T08:40:21Z</time>
      </trkpt>
      <trkpt lat="44.06462" lon="3.04364">
        <ele>699.2</ele>
        <time>2018-05-19T08:40:23Z</time>
      </trkpt>
      <trkpt lat="44.06465" lon="3.04367">
        <ele>698.5</ele>
        <time>2018-05-19T08:40:24Z</time>
      </trkpt>
      <trkpt lat="44.06469" lon="3.04369">
        <ele>697.9</ele>
        <time>2018-05-19T08:40:25Z</time>
      </trkpt>
      <trkpt lat="44.06473" lon="3.0437">
        <ele>697.3</ele>
        <time>2018-05-19T08:40:26Z</time>
      </trkpt>
      <trkpt lat="44.06478" lon="3.0437">
        <ele>697.1</ele>
        <time>2018-05-19T08:40:27Z</time>
      </trkpt>
      <trkpt lat="44.06482" lon="3.04368">
        <ele>696.9</ele>
        <time>2018-05-19T08:40:28Z</time>
      </trkpt>
      <trkpt lat="44.06486" lon="3.04367">
        <ele>696.7</ele>
        <time>2018-05-19T08:40:30Z</time>
      </trkpt>
      <trkpt lat="44.06489" lon="3.04366">
        <ele>696.6</ele>
        <time>2018-05-19T08:40:33Z</time>
      </trkpt>
      <trkpt lat="44.06492" lon="3.04365">
        <ele>696.4</ele>
        <time>2018-05-19T08:40:48Z</time>
      </trkpt>
      <trkpt lat="44.06494" lon="3.04361">
        <ele>696.1</ele>
        <time>2018-05-19T08:40:50Z</time>
      </trkpt>
      <trkpt lat="44.06496" lon="3.04356">
        <ele>695.7</ele>
        <time>2018-05-19T08:40:52Z</time>
      </trkpt>
      <trkpt lat="44.06497" lon="3.04351">
        <ele>695.4</ele>
        <time>2018-05-19T08:40:54Z</time>
      </trkpt>
      <trkpt lat="44.06498" lon="3.04346">
        <ele>695</ele>
        <time>2018-05-19T08:40:57Z</time>
      </trkpt>
      <trkpt lat="44.06503" lon="3.04342">
        <ele>694.4</ele>
        <time>2018-05-19T08:40:59Z</time>
      </trkpt>
      <trkpt lat="44.06505" lon="3.0434">
        <ele>694.1</ele>
        <time>2018-05-19T08:41:00Z</time>
      </trkpt>
      <trkpt lat="44.06508" lon="3.04338">
        <ele>693.7</ele>
        <time>2018-05-19T08:41:01Z</time>
      </trkpt>
      <trkpt lat="44.06511" lon="3.04335">
        <ele>693.2</ele>
        <time>2018-05-19T08:41:02Z</time>
      </trkpt>
      <trkpt lat="44.06514" lon="3.04333">
        <ele>692.4</ele>
        <time>2018-05-19T08:41:03Z</time>
      </trkpt>
      <trkpt lat="44.06518" lon="3.0433">
        <ele>691.1</ele>
        <time>2018-05-19T08:41:05Z</time>
      </trkpt>
      <trkpt lat="44.06523" lon="3.0433">
        <ele>689.4</ele>
        <time>2018-05-19T08:41:07Z</time>
      </trkpt>
      <trkpt lat="44.06528" lon="3.04325">
        <ele>687.3</ele>
        <time>2018-05-19T08:41:09Z</time>
      </trkpt>
      <trkpt lat="44.0653" lon="3.04321">
        <ele>685.9</ele>
        <time>2018-05-19T08:41:10Z</time>
      </trkpt>
      <trkpt lat="44.06532" lon="3.04316">
        <ele>684.6</ele>
        <time>2018-05-19T08:41:11Z</time>
      </trkpt>
      <trkpt lat="44.06535" lon="3.04312">
        <ele>683.4</ele>
        <time>2018-05-19T08:41:12Z</time>
      </trkpt>
      <trkpt lat="44.06537" lon="3.04309">
        <ele>682.2</ele>
        <time>2018-05-19T08:41:13Z</time>
      </trkpt>
      <trkpt lat="44.06539" lon="3.04306">
        <ele>681.3</ele>
        <time>2018-05-19T08:41:14Z</time>
      </trkpt>
      <trkpt lat="44.06541" lon="3.04301">
        <ele>680.2</ele>
        <time>2018-05-19T08:41:16Z</time>
      </trkpt>
      <trkpt lat="44.06541" lon="3.04296">
        <ele>679</ele>
        <time>2018-05-19T08:41:26Z</time>
      </trkpt>
      <trkpt lat="44.06542" lon="3.0429">
        <ele>677.8</ele>
        <time>2018-05-19T08:41:28Z</time>
      </trkpt>
      <trkpt lat="44.06544" lon="3.04287">
        <ele>676.9</ele>
        <time>2018-05-19T08:41:29Z</time>
      </trkpt>
      <trkpt lat="44.06545" lon="3.04283">
        <ele>676.1</ele>
        <time>2018-05-19T08:41:30Z</time>
      </trkpt>
      <trkpt lat="44.06547" lon="3.04279">
        <ele>675.1</ele>
        <time>2018-05-19T08:41:31Z</time>
      </trkpt>
      <trkpt lat="44.06547" lon="3.04274">
        <ele>674.1</ele>
        <time>2018-05-19T08:41:32Z</time>
      </trkpt>
      <trkpt lat="44.06549" lon="3.04269">
        <ele>672.8</ele>
        <time>2018-05-19T08:41:34Z</time>
      </trkpt>
      <trkpt lat="44.06553" lon="3.0427">
        <ele>671.4</ele>
        <time>2018-05-19T08:41:36Z</time>
      </trkpt>
      <trkpt lat="44.06556" lon="3.04274">
        <ele>670</ele>
        <time>2018-05-19T08:41:37Z</time>
      </trkpt>
      <trkpt lat="44.06557" lon="3.04278">
        <ele>668.2</ele>
        <time>2018-05-19T08:41:38Z</time>
      </trkpt>
      <trkpt lat="44.0656" lon="3.04284">
        <ele>666.2</ele>
        <time>2018-05-19T08:41:40Z</time>
      </trkpt>
      <trkpt lat="44.06563" lon="3.04287">
        <ele>664.9</ele>
        <time>2018-05-19T08:41:42Z</time>
      </trkpt>
      <trkpt lat="44.06566" lon="3.04285">
        <ele>664.1</ele>
        <time>2018-05-19T08:41:46Z</time>
      </trkpt>
      <trkpt lat="44.06566" lon="3.04281">
        <ele>663.4</ele>
        <time>2018-05-19T08:41:49Z</time>
      </trkpt>
      <trkpt lat="44.06571" lon="3.04283">
        <ele>662.2</ele>
        <time>2018-05-19T08:41:54Z</time>
      </trkpt>
      <trkpt lat="44.06573" lon="3.04287">
        <ele>660.7</ele>
        <time>2018-05-19T08:41:55Z</time>
      </trkpt>
      <trkpt lat="44.06576" lon="3.04291">
        <ele>658.9</ele>
        <time>2018-05-19T08:41:56Z</time>
      </trkpt>
      <trkpt lat="44.06578" lon="3.04295">
        <ele>657</ele>
        <time>2018-05-19T08:41:57Z</time>
      </trkpt>
      <trkpt lat="44.06582" lon="3.04299">
        <ele>654.5</ele>
        <time>2018-05-19T08:41:59Z</time>
      </trkpt>
      <trkpt lat="44.06586" lon="3.04301">
        <ele>653.4</ele>
        <time>2018-05-19T08:42:00Z</time>
      </trkpt>
      <trkpt lat="44.0659" lon="3.04301">
        <ele>652.4</ele>
        <time>2018-05-19T08:42:01Z</time>
      </trkpt>
      <trkpt lat="44.06593" lon="3.043">
        <ele>652</ele>
        <time>2018-05-19T08:42:02Z</time>
      </trkpt>
      <trkpt lat="44.06596" lon="3.04295">
        <ele>651.8</ele>
        <time>2018-05-19T08:42:04Z</time>
      </trkpt>
      <trkpt lat="44.06596" lon="3.04291">
        <ele>651.7</ele>
        <time>2018-05-19T08:42:08Z</time>
      </trkpt>
      <trkpt lat="44.06592" lon="3.04282">
        <ele>650.7</ele>
        <time>2018-05-19T08:46:46Z</time>
      </trkpt>
      <trkpt lat="44.06591" lon="3.04275">
        <ele>650.4</ele>
        <time>2018-05-19T08:46:48Z</time>
      </trkpt>
      <trkpt lat="44.0659" lon="3.04271">
        <ele>650.2</ele>
        <time>2018-05-19T08:46:49Z</time>
      </trkpt>
      <trkpt lat="44.0659" lon="3.04267">
        <ele>650</ele>
        <time>2018-05-19T08:46:50Z</time>
      </trkpt>
      <trkpt lat="44.06592" lon="3.04259">
        <ele>649.5</ele>
        <time>2018-05-19T08:46:51Z</time>
      </trkpt>
      <trkpt lat="44.06593" lon="3.04251">
        <ele>648.8</ele>
        <time>2018-05-19T08:46:52Z</time>
      </trkpt>
      <trkpt lat="44.06593" lon="3.04243">
        <ele>648.1</ele>
        <time>2018-05-19T08:46:53Z</time>
      </trkpt>
      <trkpt lat="44.0659" lon="3.04237">
        <ele>647.3</ele>
        <time>2018-05-19T08:46:54Z</time>
      </trkpt>
      <trkpt lat="44.06588" lon="3.0423">
        <ele>646.5</ele>
        <time>2018-05-19T08:46:55Z</time>
      </trkpt>
      <trkpt lat="44.06585" lon="3.04224">
        <ele>645.5</ele>
        <time>2018-05-19T08:46:56Z</time>
      </trkpt>
      <trkpt lat="44.06582" lon="3.04221">
        <ele>645.3</ele>
        <time>2018-05-19T08:46:57Z</time>
      </trkpt>
      <trkpt lat="44.06579" lon="3.04218">
        <ele>645.3</ele>
        <time>2018-05-19T08:46:59Z</time>
      </trkpt>
      <trkpt lat="44.06575" lon="3.04215">
        <ele>645.5</ele>
        <time>2018-05-19T08:47:01Z</time>
      </trkpt>
      <trkpt lat="44.06571" lon="3.04212">
        <ele>646.1</ele>
        <time>2018-05-19T08:47:03Z</time>
      </trkpt>
      <trkpt lat="44.06567" lon="3.04208">
        <ele>647</ele>
        <time>2018-05-19T08:47:05Z</time>
      </trkpt>
      <trkpt lat="44.06563" lon="3.04205">
        <ele>647.3</ele>
        <time>2018-05-19T08:47:07Z</time>
      </trkpt>
      <trkpt lat="44.0656" lon="3.04202">
        <ele>647.7</ele>
        <time>2018-05-19T08:47:09Z</time>
      </trkpt>
      <trkpt lat="44.06557" lon="3.042">
        <ele>647.9</ele>
        <time>2018-05-19T08:47:12Z</time>
      </trkpt>
      <trkpt lat="44.06554" lon="3.04198">
        <ele>648.1</ele>
        <time>2018-05-19T08:47:14Z</time>
      </trkpt>
      <trkpt lat="44.0655" lon="3.04196">
        <ele>648.6</ele>
        <time>2018-05-19T08:47:16Z</time>
      </trkpt>
      <trkpt lat="44.06546" lon="3.04196">
        <ele>649.5</ele>
        <time>2018-05-19T08:47:18Z</time>
      </trkpt>
      <trkpt lat="44.06541" lon="3.04195">
        <ele>652.4</ele>
        <time>2018-05-19T08:47:20Z</time>
      </trkpt>
      <trkpt lat="44.06537" lon="3.04194">
        <ele>653.5</ele>
        <time>2018-05-19T08:47:22Z</time>
      </trkpt>
      <trkpt lat="44.06534" lon="3.04192">
        <ele>653.7</ele>
        <time>2018-05-19T08:47:24Z</time>
      </trkpt>
      <trkpt lat="44.06531" lon="3.04189">
        <ele>653.8</ele>
        <time>2018-05-19T08:47:26Z</time>
      </trkpt>
      <trkpt lat="44.06527" lon="3.04187">
        <ele>653.9</ele>
        <time>2018-05-19T08:47:28Z</time>
      </trkpt>
      <trkpt lat="44.06522" lon="3.04184">
        <ele>654</ele>
        <time>2018-05-19T08:47:30Z</time>
      </trkpt>
      <trkpt lat="44.0652" lon="3.04182">
        <ele>654</ele>
        <time>2018-05-19T08:47:31Z</time>
      </trkpt>
      <trkpt lat="44.06518" lon="3.0418">
        <ele>654</ele>
        <time>2018-05-19T08:47:32Z</time>
      </trkpt>
      <trkpt lat="44.06513" lon="3.04176">
        <ele>654.1</ele>
        <time>2018-05-19T08:47:34Z</time>
      </trkpt>
      <trkpt lat="44.06511" lon="3.04173">
        <ele>654.1</ele>
        <time>2018-05-19T08:47:35Z</time>
      </trkpt>
      <trkpt lat="44.06508" lon="3.0417">
        <ele>654.1</ele>
        <time>2018-05-19T08:47:36Z</time>
      </trkpt>
      <trkpt lat="44.06506" lon="3.04166">
        <ele>654.2</ele>
        <time>2018-05-19T08:47:37Z</time>
      </trkpt>
      <trkpt lat="44.06503" lon="3.04163">
        <ele>654.2</ele>
        <time>2018-05-19T08:47:38Z</time>
      </trkpt>
      <trkpt lat="44.065" lon="3.04161">
        <ele>654.3</ele>
        <time>2018-05-19T08:47:39Z</time>
      </trkpt>
      <trkpt lat="44.06498" lon="3.04158">
        <ele>654.3</ele>
        <time>2018-05-19T08:47:40Z</time>
      </trkpt>
      <trkpt lat="44.06495" lon="3.04156">
        <ele>654.4</ele>
        <time>2018-05-19T08:47:41Z</time>
      </trkpt>
      <trkpt lat="44.06493" lon="3.04154">
        <ele>654.5</ele>
        <time>2018-05-19T08:47:42Z</time>
      </trkpt>
      <trkpt lat="44.0649" lon="3.04152">
        <ele>654.6</ele>
        <time>2018-05-19T08:47:43Z</time>
      </trkpt>
      <trkpt lat="44.06486" lon="3.0415">
        <ele>654.7</ele>
        <time>2018-05-19T08:47:45Z</time>
      </trkpt>
      <trkpt lat="44.06481" lon="3.04148">
        <ele>655</ele>
        <time>2018-05-19T08:47:47Z</time>
      </trkpt>
      <trkpt lat="44.06476" lon="3.04147">
        <ele>655.7</ele>
        <time>2018-05-19T08:47:49Z</time>
      </trkpt>
      <trkpt lat="44.06472" lon="3.04147">
        <ele>656.1</ele>
        <time>2018-05-19T08:47:50Z</time>
      </trkpt>
      <trkpt lat="44.06469" lon="3.04147">
        <ele>656.3</ele>
        <time>2018-05-19T08:47:51Z</time>
      </trkpt>
      <trkpt lat="44.06465" lon="3.04146">
        <ele>656.5</ele>
        <time>2018-05-19T08:47:52Z</time>
      </trkpt>
      <trkpt lat="44.06462" lon="3.04146">
        <ele>656.6</ele>
        <time>2018-05-19T08:47:53Z</time>
      </trkpt>
      <trkpt lat="44.06459" lon="3.04144">
        <ele>656.7</ele>
        <time>2018-05-19T08:47:54Z</time>
      </trkpt>
      <trkpt lat="44.06456" lon="3.04141">
        <ele>656.8</ele>
        <time>2018-05-19T08:47:55Z</time>
      </trkpt>
      <trkpt lat="44.06453" lon="3.04138">
        <ele>656.8</ele>
        <time>2018-05-19T08:47:56Z</time>
      </trkpt>
      <trkpt lat="44.0645" lon="3.04135">
        <ele>656.9</ele>
        <time>2018-05-19T08:47:57Z</time>
      </trkpt>
      <trkpt lat="44.06448" lon="3.04133">
        <ele>656.9</ele>
        <time>2018-05-19T08:47:58Z</time>
      </trkpt>
      <trkpt lat="44.06446" lon="3.0413">
        <ele>657</ele>
        <time>2018-05-19T08:47:59Z</time>
      </trkpt>
      <trkpt lat="44.06443" lon="3.04127">
        <ele>657</ele>
        <time>2018-05-19T08:48:00Z</time>
      </trkpt>
      <trkpt lat="44.0644" lon="3.04124">
        <ele>657.1</ele>
        <time>2018-05-19T08:48:02Z</time>
      </trkpt>
      <trkpt lat="44.06436" lon="3.04122">
        <ele>657.1</ele>
        <time>2018-05-19T08:48:04Z</time>
      </trkpt>
      <trkpt lat="44.06431" lon="3.04119">
        <ele>657.1</ele>
        <time>2018-05-19T08:48:06Z</time>
      </trkpt>
      <trkpt lat="44.06427" lon="3.04116">
        <ele>657.2</ele>
        <time>2018-05-19T08:48:08Z</time>
      </trkpt>
      <trkpt lat="44.06424" lon="3.04114">
        <ele>657.2</ele>
        <time>2018-05-19T08:48:10Z</time>
      </trkpt>
      <trkpt lat="44.06422" lon="3.04112">
        <ele>657.2</ele>
        <time>2018-05-19T08:48:12Z</time>
      </trkpt>
      <trkpt lat="44.06419" lon="3.0411">
        <ele>657.2</ele>
        <time>2018-05-19T08:48:14Z</time>
      </trkpt>
      <trkpt lat="44.06417" lon="3.04107">
        <ele>657.3</ele>
        <time>2018-05-19T08:48:18Z</time>
      </trkpt>
      <trkpt lat="44.06416" lon="3.04104">
        <ele>657.3</ele>
        <time>2018-05-19T08:48:26Z</time>
      </trkpt>
      <trkpt lat="44.06415" lon="3.04099">
        <ele>657.3</ele>
        <time>2018-05-19T08:49:20Z</time>
      </trkpt>
      <trkpt lat="44.06412" lon="3.041">
        <ele>657.3</ele>
        <time>2018-05-19T08:49:29Z</time>
      </trkpt>
      <trkpt lat="44.0641" lon="3.04096">
        <ele>657.4</ele>
        <time>2018-05-19T08:49:40Z</time>
      </trkpt>
      <trkpt lat="44.06407" lon="3.04093">
        <ele>657.4</ele>
        <time>2018-05-19T08:49:42Z</time>
      </trkpt>
      <trkpt lat="44.06406" lon="3.04089">
        <ele>657.4</ele>
        <time>2018-05-19T08:49:44Z</time>
      </trkpt>
      <trkpt lat="44.06405" lon="3.04083">
        <ele>657.4</ele>
        <time>2018-05-19T08:49:46Z</time>
      </trkpt>
      <trkpt lat="44.06404" lon="3.0408">
        <ele>657.5</ele>
        <time>2018-05-19T08:49:47Z</time>
      </trkpt>
      <trkpt lat="44.06403" lon="3.04075">
        <ele>657.5</ele>
        <time>2018-05-19T08:49:48Z</time>
      </trkpt>
      <trkpt lat="44.06403" lon="3.0407">
        <ele>657.6</ele>
        <time>2018-05-19T08:49:49Z</time>
      </trkpt>
      <trkpt lat="44.06402" lon="3.04065">
        <ele>657.6</ele>
        <time>2018-05-19T08:49:50Z</time>
      </trkpt>
      <trkpt lat="44.06401" lon="3.04062">
        <ele>657.7</ele>
        <time>2018-05-19T08:49:51Z</time>
      </trkpt>
      <trkpt lat="44.06399" lon="3.04058">
        <ele>657.7</ele>
        <time>2018-05-19T08:49:52Z</time>
      </trkpt>
      <trkpt lat="44.06396" lon="3.04054">
        <ele>657.7</ele>
        <time>2018-05-19T08:49:53Z</time>
      </trkpt>
      <trkpt lat="44.06393" lon="3.04051">
        <ele>657.8</ele>
        <time>2018-05-19T08:49:55Z</time>
      </trkpt>
      <trkpt lat="44.0639" lon="3.04046">
        <ele>657.8</ele>
        <time>2018-05-19T08:50:01Z</time>
      </trkpt>
      <trkpt lat="44.06386" lon="3.04041">
        <ele>657.9</ele>
        <time>2018-05-19T08:50:03Z</time>
      </trkpt>
      <trkpt lat="44.06383" lon="3.04036">
        <ele>658.1</ele>
        <time>2018-05-19T08:50:05Z</time>
      </trkpt>
      <trkpt lat="44.06381" lon="3.04031">
        <ele>658.2</ele>
        <time>2018-05-19T08:50:07Z</time>
      </trkpt>
      <trkpt lat="44.06379" lon="3.04027">
        <ele>658.3</ele>
        <time>2018-05-19T08:50:09Z</time>
      </trkpt>
      <trkpt lat="44.06376" lon="3.04024">
        <ele>658.4</ele>
        <time>2018-05-19T08:50:11Z</time>
      </trkpt>
      <trkpt lat="44.06373" lon="3.04022">
        <ele>658.5</ele>
        <time>2018-05-19T08:50:13Z</time>
      </trkpt>
      <trkpt lat="44.06369" lon="3.0402">
        <ele>658.7</ele>
        <time>2018-05-19T08:50:15Z</time>
      </trkpt>
      <trkpt lat="44.06365" lon="3.04018">
        <ele>658.9</ele>
        <time>2018-05-19T08:50:17Z</time>
      </trkpt>
      <trkpt lat="44.06362" lon="3.04017">
        <ele>659.3</ele>
        <time>2018-05-19T08:50:19Z</time>
      </trkpt>
      <trkpt lat="44.06358" lon="3.04014">
        <ele>660.2</ele>
        <time>2018-05-19T08:50:21Z</time>
      </trkpt>
      <trkpt lat="44.06354" lon="3.04011">
        <ele>660.5</ele>
        <time>2018-05-19T08:50:23Z</time>
      </trkpt>
      <trkpt lat="44.0635" lon="3.04009">
        <ele>660.8</ele>
        <time>2018-05-19T08:50:25Z</time>
      </trkpt>
      <trkpt lat="44.06346" lon="3.04008">
        <ele>661</ele>
        <time>2018-05-19T08:50:27Z</time>
      </trkpt>
      <trkpt lat="44.06343" lon="3.04006">
        <ele>661</ele>
        <time>2018-05-19T08:50:29Z</time>
      </trkpt>
      <trkpt lat="44.06339" lon="3.04004">
        <ele>661.2</ele>
        <time>2018-05-19T08:50:31Z</time>
      </trkpt>
      <trkpt lat="44.06333" lon="3.04002">
        <ele>661.2</ele>
        <time>2018-05-19T08:50:33Z</time>
      </trkpt>
      <trkpt lat="44.06331" lon="3.04001">
        <ele>661.3</ele>
        <time>2018-05-19T08:50:34Z</time>
      </trkpt>
      <trkpt lat="44.06326" lon="3.03999">
        <ele>661.4</ele>
        <time>2018-05-19T08:50:36Z</time>
      </trkpt>
      <trkpt lat="44.06323" lon="3.03998">
        <ele>661.4</ele>
        <time>2018-05-19T08:50:38Z</time>
      </trkpt>
      <trkpt lat="44.0632" lon="3.03997">
        <ele>661.5</ele>
        <time>2018-05-19T08:50:40Z</time>
      </trkpt>
      <trkpt lat="44.06317" lon="3.03998">
        <ele>661.5</ele>
        <time>2018-05-19T08:50:42Z</time>
      </trkpt>
      <trkpt lat="44.06314" lon="3.03998">
        <ele>661.6</ele>
        <time>2018-05-19T08:50:44Z</time>
      </trkpt>
      <trkpt lat="44.06312" lon="3.03995">
        <ele>661.7</ele>
        <time>2018-05-19T08:50:46Z</time>
      </trkpt>
      <trkpt lat="44.06311" lon="3.03991">
        <ele>661.7</ele>
        <time>2018-05-19T08:50:48Z</time>
      </trkpt>
      <trkpt lat="44.06312" lon="3.03983">
        <ele>661.8</ele>
        <time>2018-05-19T08:50:50Z</time>
      </trkpt>
      <trkpt lat="44.06314" lon="3.03977">
        <ele>662</ele>
        <time>2018-05-19T08:50:52Z</time>
      </trkpt>
      <trkpt lat="44.06316" lon="3.03973">
        <ele>662</ele>
        <time>2018-05-19T08:50:53Z</time>
      </trkpt>
      <trkpt lat="44.06317" lon="3.03967">
        <ele>662.1</ele>
        <time>2018-05-19T08:50:55Z</time>
      </trkpt>
      <trkpt lat="44.06318" lon="3.03962">
        <ele>662.3</ele>
        <time>2018-05-19T08:50:57Z</time>
      </trkpt>
      <trkpt lat="44.06318" lon="3.03959">
        <ele>662.5</ele>
        <time>2018-05-19T08:50:59Z</time>
      </trkpt>
      <trkpt lat="44.06317" lon="3.03955">
        <ele>662.6</ele>
        <time>2018-05-19T08:51:03Z</time>
      </trkpt>
      <trkpt lat="44.06318" lon="3.03951">
        <ele>662.9</ele>
        <time>2018-05-19T08:51:05Z</time>
      </trkpt>
      <trkpt lat="44.06318" lon="3.03947">
        <ele>663.4</ele>
        <time>2018-05-19T08:51:08Z</time>
      </trkpt>
      <trkpt lat="44.06317" lon="3.03942">
        <ele>664.2</ele>
        <time>2018-05-19T08:51:12Z</time>
      </trkpt>
      <trkpt lat="44.06317" lon="3.03938">
        <ele>665.5</ele>
        <time>2018-05-19T08:51:15Z</time>
      </trkpt>
      <trkpt lat="44.06319" lon="3.03934">
        <ele>666.1</ele>
        <time>2018-05-19T08:51:18Z</time>
      </trkpt>
      <trkpt lat="44.0632" lon="3.03931">
        <ele>666.6</ele>
        <time>2018-05-19T08:51:22Z</time>
      </trkpt>
      <trkpt lat="44.06322" lon="3.03926">
        <ele>667.4</ele>
        <time>2018-05-19T08:51:25Z</time>
      </trkpt>
      <trkpt lat="44.06323" lon="3.03921">
        <ele>668.6</ele>
        <time>2018-05-19T08:51:27Z</time>
      </trkpt>
      <trkpt lat="44.06324" lon="3.03916">
        <ele>669.5</ele>
        <time>2018-05-19T08:51:30Z</time>
      </trkpt>
      <trkpt lat="44.06325" lon="3.03913">
        <ele>669.8</ele>
        <time>2018-05-19T08:51:34Z</time>
      </trkpt>
      <trkpt lat="44.06328" lon="3.03911">
        <ele>670.1</ele>
        <time>2018-05-19T08:51:38Z</time>
      </trkpt>
      <trkpt lat="44.06331" lon="3.03907">
        <ele>671.1</ele>
        <time>2018-05-19T08:51:45Z</time>
      </trkpt>
      <trkpt lat="44.06333" lon="3.03902">
        <ele>671.8</ele>
        <time>2018-05-19T08:51:48Z</time>
      </trkpt>
      <trkpt lat="44.06335" lon="3.03898">
        <ele>672.2</ele>
        <time>2018-05-19T08:51:50Z</time>
      </trkpt>
      <trkpt lat="44.06337" lon="3.03894">
        <ele>672.7</ele>
        <time>2018-05-19T08:51:52Z</time>
      </trkpt>
      <trkpt lat="44.0634" lon="3.0389">
        <ele>673.9</ele>
        <time>2018-05-19T08:51:54Z</time>
      </trkpt>
      <trkpt lat="44.06342" lon="3.03886">
        <ele>674.4</ele>
        <time>2018-05-19T08:51:56Z</time>
      </trkpt>
      <trkpt lat="44.06345" lon="3.03882">
        <ele>674.6</ele>
        <time>2018-05-19T08:51:58Z</time>
      </trkpt>
      <trkpt lat="44.06348" lon="3.03878">
        <ele>674.8</ele>
        <time>2018-05-19T08:52:00Z</time>
      </trkpt>
      <trkpt lat="44.0635" lon="3.03874">
        <ele>674.9</ele>
        <time>2018-05-19T08:52:02Z</time>
      </trkpt>
      <trkpt lat="44.06352" lon="3.0387">
        <ele>675</ele>
        <time>2018-05-19T08:52:04Z</time>
      </trkpt>
      <trkpt lat="44.06353" lon="3.03865">
        <ele>675.1</ele>
        <time>2018-05-19T08:52:06Z</time>
      </trkpt>
      <trkpt lat="44.06354" lon="3.03859">
        <ele>675.2</ele>
        <time>2018-05-19T08:52:08Z</time>
      </trkpt>
      <trkpt lat="44.06354" lon="3.03854">
        <ele>675.3</ele>
        <time>2018-05-19T08:52:10Z</time>
      </trkpt>
      <trkpt lat="44.06355" lon="3.03848">
        <ele>675.5</ele>
        <time>2018-05-19T08:52:12Z</time>
      </trkpt>
      <trkpt lat="44.06355" lon="3.03843">
        <ele>675.6</ele>
        <time>2018-05-19T08:52:15Z</time>
      </trkpt>
      <trkpt lat="44.06354" lon="3.03838">
        <ele>675.8</ele>
        <time>2018-05-19T08:52:17Z</time>
      </trkpt>
      <trkpt lat="44.06354" lon="3.03832">
        <ele>676.3</ele>
        <time>2018-05-19T08:52:19Z</time>
      </trkpt>
      <trkpt lat="44.06354" lon="3.03826">
        <ele>677</ele>
        <time>2018-05-19T08:52:21Z</time>
      </trkpt>
      <trkpt lat="44.06354" lon="3.0382">
        <ele>677.4</ele>
        <time>2018-05-19T08:52:23Z</time>
      </trkpt>
      <trkpt lat="44.06354" lon="3.03816">
        <ele>677.8</ele>
        <time>2018-05-19T08:52:24Z</time>
      </trkpt>
      <trkpt lat="44.06353" lon="3.03811">
        <ele>678.3</ele>
        <time>2018-05-19T08:52:25Z</time>
      </trkpt>
      <trkpt lat="44.06353" lon="3.03807">
        <ele>678.8</ele>
        <time>2018-05-19T08:52:26Z</time>
      </trkpt>
      <trkpt lat="44.06353" lon="3.03802">
        <ele>679.2</ele>
        <time>2018-05-19T08:52:27Z</time>
      </trkpt>
      <trkpt lat="44.0635" lon="3.03797">
        <ele>679.4</ele>
        <time>2018-05-19T08:52:29Z</time>
      </trkpt>
      <trkpt lat="44.06348" lon="3.03794">
        <ele>679.4</ele>
        <time>2018-05-19T08:52:30Z</time>
      </trkpt>
      <trkpt lat="44.06345" lon="3.03792">
        <ele>679.5</ele>
        <time>2018-05-19T08:52:31Z</time>
      </trkpt>
      <trkpt lat="44.06343" lon="3.03789">
        <ele>679.5</ele>
        <time>2018-05-19T08:52:32Z</time>
      </trkpt>
      <trkpt lat="44.06341" lon="3.03785">
        <ele>679.5</ele>
        <time>2018-05-19T08:52:34Z</time>
      </trkpt>
      <trkpt lat="44.06341" lon="3.03779">
        <ele>679.4</ele>
        <time>2018-05-19T08:52:36Z</time>
      </trkpt>
      <trkpt lat="44.06341" lon="3.03775">
        <ele>679.3</ele>
        <time>2018-05-19T08:52:38Z</time>
      </trkpt>
      <trkpt lat="44.06342" lon="3.03771">
        <ele>679.1</ele>
        <time>2018-05-19T08:52:41Z</time>
      </trkpt>
      <trkpt lat="44.06345" lon="3.03767">
        <ele>679.2</ele>
        <time>2018-05-19T08:52:43Z</time>
      </trkpt>
      <trkpt lat="44.06347" lon="3.03764">
        <ele>679.4</ele>
        <time>2018-05-19T08:52:46Z</time>
      </trkpt>
      <trkpt lat="44.06348" lon="3.0376">
        <ele>679.6</ele>
        <time>2018-05-19T08:52:48Z</time>
      </trkpt>
      <trkpt lat="44.06349" lon="3.03757">
        <ele>680</ele>
        <time>2018-05-19T08:52:50Z</time>
      </trkpt>
      <trkpt lat="44.06351" lon="3.03753">
        <ele>680.6</ele>
        <time>2018-05-19T08:52:53Z</time>
      </trkpt>
      <trkpt lat="44.06352" lon="3.0375">
        <ele>681</ele>
        <time>2018-05-19T08:52:59Z</time>
      </trkpt>
      <trkpt lat="44.06349" lon="3.03749">
        <ele>681.3</ele>
        <time>2018-05-19T08:53:11Z</time>
      </trkpt>
      <trkpt lat="44.06353" lon="3.03745">
        <ele>681.5</ele>
        <time>2018-05-19T08:56:55Z</time>
      </trkpt>
      <trkpt lat="44.06355" lon="3.0374">
        <ele>681.7</ele>
        <time>2018-05-19T08:56:57Z</time>
      </trkpt>
      <trkpt lat="44.06357" lon="3.03734">
        <ele>681.8</ele>
        <time>2018-05-19T08:56:59Z</time>
      </trkpt>
      <trkpt lat="44.06361" lon="3.03728">
        <ele>681.9</ele>
        <time>2018-05-19T08:57:01Z</time>
      </trkpt>
      <trkpt lat="44.06363" lon="3.03723">
        <ele>681.9</ele>
        <time>2018-05-19T08:57:03Z</time>
      </trkpt>
      <trkpt lat="44.06365" lon="3.0372">
        <ele>681.8</ele>
        <time>2018-05-19T08:57:04Z</time>
      </trkpt>
      <trkpt lat="44.06367" lon="3.03715">
        <ele>681.7</ele>
        <time>2018-05-19T08:57:05Z</time>
      </trkpt>
      <trkpt lat="44.06369" lon="3.03711">
        <ele>681.4</ele>
        <time>2018-05-19T08:57:06Z</time>
      </trkpt>
      <trkpt lat="44.06372" lon="3.03706">
        <ele>680.9</ele>
        <time>2018-05-19T08:57:07Z</time>
      </trkpt>
      <trkpt lat="44.06375" lon="3.03702">
        <ele>680.3</ele>
        <time>2018-05-19T08:57:08Z</time>
      </trkpt>
      <trkpt lat="44.06378" lon="3.03698">
        <ele>679.6</ele>
        <time>2018-05-19T08:57:09Z</time>
      </trkpt>
      <trkpt lat="44.06381" lon="3.03694">
        <ele>678.9</ele>
        <time>2018-05-19T08:57:10Z</time>
      </trkpt>
      <trkpt lat="44.06384" lon="3.03691">
        <ele>678.2</ele>
        <time>2018-05-19T08:57:11Z</time>
      </trkpt>
      <trkpt lat="44.06387" lon="3.03689">
        <ele>677.5</ele>
        <time>2018-05-19T08:57:12Z</time>
      </trkpt>
      <trkpt lat="44.06391" lon="3.03688">
        <ele>676.6</ele>
        <time>2018-05-19T08:57:13Z</time>
      </trkpt>
      <trkpt lat="44.06395" lon="3.03689">
        <ele>675.5</ele>
        <time>2018-05-19T08:57:14Z</time>
      </trkpt>
      <trkpt lat="44.064" lon="3.0369">
        <ele>674.6</ele>
        <time>2018-05-19T08:57:15Z</time>
      </trkpt>
      <trkpt lat="44.06403" lon="3.0369">
        <ele>673.8</ele>
        <time>2018-05-19T08:57:16Z</time>
      </trkpt>
      <trkpt lat="44.06406" lon="3.03689">
        <ele>673.1</ele>
        <time>2018-05-19T08:57:17Z</time>
      </trkpt>
      <trkpt lat="44.06411" lon="3.03685">
        <ele>672.1</ele>
        <time>2018-05-19T08:57:19Z</time>
      </trkpt>
      <trkpt lat="44.06414" lon="3.03683">
        <ele>671.5</ele>
        <time>2018-05-19T08:57:20Z</time>
      </trkpt>
      <trkpt lat="44.06416" lon="3.0368">
        <ele>671</ele>
        <time>2018-05-19T08:57:21Z</time>
      </trkpt>
      <trkpt lat="44.0642" lon="3.03677">
        <ele>670.2</ele>
        <time>2018-05-19T08:57:23Z</time>
      </trkpt>
      <trkpt lat="44.06423" lon="3.03677">
        <ele>669.6</ele>
        <time>2018-05-19T08:57:24Z</time>
      </trkpt>
      <trkpt lat="44.06427" lon="3.03677">
        <ele>668.9</ele>
        <time>2018-05-19T08:57:25Z</time>
      </trkpt>
      <trkpt lat="44.0643" lon="3.03677">
        <ele>668.1</ele>
        <time>2018-05-19T08:57:26Z</time>
      </trkpt>
      <trkpt lat="44.06435" lon="3.03678">
        <ele>667.3</ele>
        <time>2018-05-19T08:57:27Z</time>
      </trkpt>
      <trkpt lat="44.06439" lon="3.03678">
        <ele>666.2</ele>
        <time>2018-05-19T08:57:28Z</time>
      </trkpt>
      <trkpt lat="44.06443" lon="3.03678">
        <ele>666.1</ele>
        <time>2018-05-19T08:57:29Z</time>
      </trkpt>
      <trkpt lat="44.06445" lon="3.03676">
        <ele>666</ele>
        <time>2018-05-19T08:57:30Z</time>
      </trkpt>
      <trkpt lat="44.06447" lon="3.03672">
        <ele>665.9</ele>
        <time>2018-05-19T08:57:31Z</time>
      </trkpt>
      <trkpt lat="44.06447" lon="3.03666">
        <ele>665.8</ele>
        <time>2018-05-19T08:57:32Z</time>
      </trkpt>
      <trkpt lat="44.06448" lon="3.03657">
        <ele>665.4</ele>
        <time>2018-05-19T08:57:33Z</time>
      </trkpt>
      <trkpt lat="44.06448" lon="3.03649">
        <ele>665.1</ele>
        <time>2018-05-19T08:57:34Z</time>
      </trkpt>
      <trkpt lat="44.06448" lon="3.0364">
        <ele>664.8</ele>
        <time>2018-05-19T08:57:35Z</time>
      </trkpt>
      <trkpt lat="44.0645" lon="3.0363">
        <ele>664.5</ele>
        <time>2018-05-19T08:57:36Z</time>
      </trkpt>
      <trkpt lat="44.06451" lon="3.03621">
        <ele>664.3</ele>
        <time>2018-05-19T08:57:37Z</time>
      </trkpt>
      <trkpt lat="44.0645" lon="3.03612">
        <ele>664</ele>
        <time>2018-05-19T08:57:38Z</time>
      </trkpt>
      <trkpt lat="44.06451" lon="3.03605">
        <ele>663.6</ele>
        <time>2018-05-19T08:57:39Z</time>
      </trkpt>
      <trkpt lat="44.06452" lon="3.03601">
        <ele>663.3</ele>
        <time>2018-05-19T08:57:40Z</time>
      </trkpt>
      <trkpt lat="44.06455" lon="3.03598">
        <ele>663</ele>
        <time>2018-05-19T08:57:41Z</time>
      </trkpt>
      <trkpt lat="44.06458" lon="3.03605">
        <ele>662.5</ele>
        <time>2018-05-19T08:57:42Z</time>
      </trkpt>
      <trkpt lat="44.06461" lon="3.03611">
        <ele>662.1</ele>
        <time>2018-05-19T08:57:43Z</time>
      </trkpt>
      <trkpt lat="44.06466" lon="3.03618">
        <ele>661.7</ele>
        <time>2018-05-19T08:57:44Z</time>
      </trkpt>
      <trkpt lat="44.06471" lon="3.03626">
        <ele>661.2</ele>
        <time>2018-05-19T08:57:45Z</time>
      </trkpt>
      <trkpt lat="44.06477" lon="3.03636">
        <ele>660.4</ele>
        <time>2018-05-19T08:57:46Z</time>
      </trkpt>
      <trkpt lat="44.06483" lon="3.03644">
        <ele>659.7</ele>
        <time>2018-05-19T08:57:47Z</time>
      </trkpt>
      <trkpt lat="44.06489" lon="3.03651">
        <ele>659</ele>
        <time>2018-05-19T08:57:48Z</time>
      </trkpt>
      <trkpt lat="44.06493" lon="3.03659">
        <ele>658.3</ele>
        <time>2018-05-19T08:57:49Z</time>
      </trkpt>
      <trkpt lat="44.06497" lon="3.03666">
        <ele>657.4</ele>
        <time>2018-05-19T08:57:50Z</time>
      </trkpt>
      <trkpt lat="44.06503" lon="3.03672">
        <ele>656.5</ele>
        <time>2018-05-19T08:57:51Z</time>
      </trkpt>
      <trkpt lat="44.06504" lon="3.03665">
        <ele>655.8</ele>
        <time>2018-05-19T08:57:53Z</time>
      </trkpt>
      <trkpt lat="44.06504" lon="3.03658">
        <ele>655.3</ele>
        <time>2018-05-19T08:57:55Z</time>
      </trkpt>
      <trkpt lat="44.06502" lon="3.03646">
        <ele>654.5</ele>
        <time>2018-05-19T08:57:56Z</time>
      </trkpt>
      <trkpt lat="44.06499" lon="3.03636">
        <ele>653.9</ele>
        <time>2018-05-19T08:57:57Z</time>
      </trkpt>
      <trkpt lat="44.06497" lon="3.03629">
        <ele>653.4</ele>
        <time>2018-05-19T08:57:58Z</time>
      </trkpt>
      <trkpt lat="44.06496" lon="3.03621">
        <ele>653</ele>
        <time>2018-05-19T08:57:59Z</time>
      </trkpt>
      <trkpt lat="44.06497" lon="3.03612">
        <ele>652.4</ele>
        <time>2018-05-19T08:58:00Z</time>
      </trkpt>
      <trkpt lat="44.06497" lon="3.03602">
        <ele>651.7</ele>
        <time>2018-05-19T08:58:01Z</time>
      </trkpt>
      <trkpt lat="44.06498" lon="3.03591">
        <ele>651</ele>
        <time>2018-05-19T08:58:02Z</time>
      </trkpt>
      <trkpt lat="44.06495" lon="3.03582">
        <ele>650.4</ele>
        <time>2018-05-19T08:58:03Z</time>
      </trkpt>
      <trkpt lat="44.06493" lon="3.03574">
        <ele>649.8</ele>
        <time>2018-05-19T08:58:04Z</time>
      </trkpt>
      <trkpt lat="44.06489" lon="3.03566">
        <ele>649.3</ele>
        <time>2018-05-19T08:58:05Z</time>
      </trkpt>
      <trkpt lat="44.06487" lon="3.03559">
        <ele>648.8</ele>
        <time>2018-05-19T08:58:06Z</time>
      </trkpt>
      <trkpt lat="44.06483" lon="3.03553">
        <ele>648.4</ele>
        <time>2018-05-19T08:58:07Z</time>
      </trkpt>
      <trkpt lat="44.06479" lon="3.03547">
        <ele>648</ele>
        <time>2018-05-19T08:58:08Z</time>
      </trkpt>
      <trkpt lat="44.06475" lon="3.0354">
        <ele>647.6</ele>
        <time>2018-05-19T08:58:09Z</time>
      </trkpt>
      <trkpt lat="44.06471" lon="3.03535">
        <ele>647.1</ele>
        <time>2018-05-19T08:58:10Z</time>
      </trkpt>
      <trkpt lat="44.0647" lon="3.03526">
        <ele>646.6</ele>
        <time>2018-05-19T08:58:11Z</time>
      </trkpt>
      <trkpt lat="44.06468" lon="3.03518">
        <ele>646</ele>
        <time>2018-05-19T08:58:12Z</time>
      </trkpt>
      <trkpt lat="44.06467" lon="3.03507">
        <ele>645.4</ele>
        <time>2018-05-19T08:58:13Z</time>
      </trkpt>
      <trkpt lat="44.06466" lon="3.03498">
        <ele>645</ele>
        <time>2018-05-19T08:58:14Z</time>
      </trkpt>
      <trkpt lat="44.06463" lon="3.03488">
        <ele>644.5</ele>
        <time>2018-05-19T08:58:15Z</time>
      </trkpt>
      <trkpt lat="44.06459" lon="3.0348">
        <ele>644.1</ele>
        <time>2018-05-19T08:58:16Z</time>
      </trkpt>
      <trkpt lat="44.06454" lon="3.03474">
        <ele>643.7</ele>
        <time>2018-05-19T08:58:17Z</time>
      </trkpt>
      <trkpt lat="44.06448" lon="3.03469">
        <ele>643.2</ele>
        <time>2018-05-19T08:58:18Z</time>
      </trkpt>
      <trkpt lat="44.06442" lon="3.03463">
        <ele>642.8</ele>
        <time>2018-05-19T08:58:19Z</time>
      </trkpt>
      <trkpt lat="44.06439" lon="3.03454">
        <ele>642.4</ele>
        <time>2018-05-19T08:58:20Z</time>
      </trkpt>
      <trkpt lat="44.06437" lon="3.03446">
        <ele>641.9</ele>
        <time>2018-05-19T08:58:21Z</time>
      </trkpt>
      <trkpt lat="44.06434" lon="3.0344">
        <ele>641.6</ele>
        <time>2018-05-19T08:58:22Z</time>
      </trkpt>
      <trkpt lat="44.06431" lon="3.03436">
        <ele>641.2</ele>
        <time>2018-05-19T08:58:23Z</time>
      </trkpt>
      <trkpt lat="44.0643" lon="3.0343">
        <ele>640.9</ele>
        <time>2018-05-19T08:58:24Z</time>
      </trkpt>
      <trkpt lat="44.06428" lon="3.03423">
        <ele>640.5</ele>
        <time>2018-05-19T08:58:25Z</time>
      </trkpt>
      <trkpt lat="44.06426" lon="3.03417">
        <ele>640.3</ele>
        <time>2018-05-19T08:58:26Z</time>
      </trkpt>
      <trkpt lat="44.06425" lon="3.0341">
        <ele>640</ele>
        <time>2018-05-19T08:58:27Z</time>
      </trkpt>
      <trkpt lat="44.06423" lon="3.03403">
        <ele>639.9</ele>
        <time>2018-05-19T08:58:28Z</time>
      </trkpt>
      <trkpt lat="44.06421" lon="3.03396">
        <ele>639.8</ele>
        <time>2018-05-19T08:58:29Z</time>
      </trkpt>
      <trkpt lat="44.06418" lon="3.03389">
        <ele>639.7</ele>
        <time>2018-05-19T08:58:30Z</time>
      </trkpt>
      <trkpt lat="44.06414" lon="3.03385">
        <ele>639.6</ele>
        <time>2018-05-19T08:58:31Z</time>
      </trkpt>
      <trkpt lat="44.06411" lon="3.0338">
        <ele>639.6</ele>
        <time>2018-05-19T08:58:32Z</time>
      </trkpt>
      <trkpt lat="44.06408" lon="3.03375">
        <ele>639.5</ele>
        <time>2018-05-19T08:58:33Z</time>
      </trkpt>
      <trkpt lat="44.06405" lon="3.03371">
        <ele>639.4</ele>
        <time>2018-05-19T08:58:34Z</time>
      </trkpt>
      <trkpt lat="44.06399" lon="3.03365">
        <ele>639.3</ele>
        <time>2018-05-19T08:58:35Z</time>
      </trkpt>
      <trkpt lat="44.06393" lon="3.0336">
        <ele>639.1</ele>
        <time>2018-05-19T08:58:36Z</time>
      </trkpt>
      <trkpt lat="44.06386" lon="3.03354">
        <ele>638.8</ele>
        <time>2018-05-19T08:58:37Z</time>
      </trkpt>
      <trkpt lat="44.0638" lon="3.03349">
        <ele>638.5</ele>
        <time>2018-05-19T08:58:38Z</time>
      </trkpt>
      <trkpt lat="44.06375" lon="3.03344">
        <ele>638.3</ele>
        <time>2018-05-19T08:58:39Z</time>
      </trkpt>
      <trkpt lat="44.06369" lon="3.03341">
        <ele>638.2</ele>
        <time>2018-05-19T08:58:40Z</time>
      </trkpt>
      <trkpt lat="44.06363" lon="3.03339">
        <ele>638.1</ele>
        <time>2018-05-19T08:58:41Z</time>
      </trkpt>
      <trkpt lat="44.06357" lon="3.03338">
        <ele>637.9</ele>
        <time>2018-05-19T08:58:42Z</time>
      </trkpt>
      <trkpt lat="44.0635" lon="3.03337">
        <ele>637.7</ele>
        <time>2018-05-19T08:58:43Z</time>
      </trkpt>
      <trkpt lat="44.06348" lon="3.03328">
        <ele>637.4</ele>
        <time>2018-05-19T08:58:44Z</time>
      </trkpt>
      <trkpt lat="44.0635" lon="3.03322">
        <ele>637.2</ele>
        <time>2018-05-19T08:58:45Z</time>
      </trkpt>
      <trkpt lat="44.06352" lon="3.03317">
        <ele>637.1</ele>
        <time>2018-05-19T08:58:46Z</time>
      </trkpt>
      <trkpt lat="44.06355" lon="3.03312">
        <ele>637.1</ele>
        <time>2018-05-19T08:58:47Z</time>
      </trkpt>
      <trkpt lat="44.06357" lon="3.03307">
        <ele>637.1</ele>
        <time>2018-05-19T08:58:48Z</time>
      </trkpt>
      <trkpt lat="44.0636" lon="3.03301">
        <ele>637.1</ele>
        <time>2018-05-19T08:58:49Z</time>
      </trkpt>
      <trkpt lat="44.06362" lon="3.03297">
        <ele>637.2</ele>
        <time>2018-05-19T08:58:50Z</time>
      </trkpt>
      <trkpt lat="44.06364" lon="3.03292">
        <ele>637.2</ele>
        <time>2018-05-19T08:58:51Z</time>
      </trkpt>
      <trkpt lat="44.06366" lon="3.03287">
        <ele>637.2</ele>
        <time>2018-05-19T08:58:52Z</time>
      </trkpt>
      <trkpt lat="44.06369" lon="3.03283">
        <ele>637.3</ele>
        <time>2018-05-19T08:58:53Z</time>
      </trkpt>
      <trkpt lat="44.06373" lon="3.03278">
        <ele>637.3</ele>
        <time>2018-05-19T08:58:54Z</time>
      </trkpt>
      <trkpt lat="44.06378" lon="3.0327">
        <ele>637.4</ele>
        <time>2018-05-19T08:58:55Z</time>
      </trkpt>
      <trkpt lat="44.06381" lon="3.03265">
        <ele>637.5</ele>
        <time>2018-05-19T08:58:56Z</time>
      </trkpt>
      <trkpt lat="44.06385" lon="3.03261">
        <ele>637.5</ele>
        <time>2018-05-19T08:58:57Z</time>
      </trkpt>
      <trkpt lat="44.06387" lon="3.03258">
        <ele>637.6</ele>
        <time>2018-05-19T08:58:58Z</time>
      </trkpt>
      <trkpt lat="44.06391" lon="3.03254">
        <ele>637.7</ele>
        <time>2018-05-19T08:58:59Z</time>
      </trkpt>
      <trkpt lat="44.06395" lon="3.03251">
        <ele>637.8</ele>
        <time>2018-05-19T08:59:00Z</time>
      </trkpt>
      <trkpt lat="44.06399" lon="3.03248">
        <ele>637.9</ele>
        <time>2018-05-19T08:59:01Z</time>
      </trkpt>
      <trkpt lat="44.06402" lon="3.03245">
        <ele>638</ele>
        <time>2018-05-19T08:59:02Z</time>
      </trkpt>
      <trkpt lat="44.06406" lon="3.03241">
        <ele>638.1</ele>
        <time>2018-05-19T08:59:03Z</time>
      </trkpt>
      <trkpt lat="44.0641" lon="3.0324">
        <ele>638.3</ele>
        <time>2018-05-19T08:59:04Z</time>
      </trkpt>
      <trkpt lat="44.06414" lon="3.03238">
        <ele>638.5</ele>
        <time>2018-05-19T08:59:05Z</time>
      </trkpt>
      <trkpt lat="44.06417" lon="3.03234">
        <ele>638.8</ele>
        <time>2018-05-19T08:59:06Z</time>
      </trkpt>
      <trkpt lat="44.06419" lon="3.03231">
        <ele>639.2</ele>
        <time>2018-05-19T08:59:07Z</time>
      </trkpt>
      <trkpt lat="44.06421" lon="3.03226">
        <ele>639.6</ele>
        <time>2018-05-19T08:59:08Z</time>
      </trkpt>
      <trkpt lat="44.06422" lon="3.0322">
        <ele>639.8</ele>
        <time>2018-05-19T08:59:09Z</time>
      </trkpt>
      <trkpt lat="44.06423" lon="3.03214">
        <ele>639.9</ele>
        <time>2018-05-19T08:59:10Z</time>
      </trkpt>
      <trkpt lat="44.06423" lon="3.03209">
        <ele>640.1</ele>
        <time>2018-05-19T08:59:11Z</time>
      </trkpt>
      <trkpt lat="44.06424" lon="3.03201">
        <ele>640.2</ele>
        <time>2018-05-19T08:59:12Z</time>
      </trkpt>
      <trkpt lat="44.06424" lon="3.03193">
        <ele>640.2</ele>
        <time>2018-05-19T08:59:13Z</time>
      </trkpt>
      <trkpt lat="44.06424" lon="3.03184">
        <ele>640.3</ele>
        <time>2018-05-19T08:59:14Z</time>
      </trkpt>
      <trkpt lat="44.06424" lon="3.03176">
        <ele>640.4</ele>
        <time>2018-05-19T08:59:15Z</time>
      </trkpt>
      <trkpt lat="44.06423" lon="3.03167">
        <ele>640.5</ele>
        <time>2018-05-19T08:59:16Z</time>
      </trkpt>
      <trkpt lat="44.06423" lon="3.03158">
        <ele>640.5</ele>
        <time>2018-05-19T08:59:17Z</time>
      </trkpt>
      <trkpt lat="44.06425" lon="3.03148">
        <ele>640.6</ele>
        <time>2018-05-19T08:59:18Z</time>
      </trkpt>
      <trkpt lat="44.06426" lon="3.0314">
        <ele>640.7</ele>
        <time>2018-05-19T08:59:19Z</time>
      </trkpt>
      <trkpt lat="44.06428" lon="3.03134">
        <ele>640.7</ele>
        <time>2018-05-19T08:59:20Z</time>
      </trkpt>
      <trkpt lat="44.06429" lon="3.03126">
        <ele>640.8</ele>
        <time>2018-05-19T08:59:21Z</time>
      </trkpt>
      <trkpt lat="44.06429" lon="3.03118">
        <ele>640.8</ele>
        <time>2018-05-19T08:59:22Z</time>
      </trkpt>
      <trkpt lat="44.06432" lon="3.03108">
        <ele>640.8</ele>
        <time>2018-05-19T08:59:23Z</time>
      </trkpt>
      <trkpt lat="44.06434" lon="3.031">
        <ele>640.9</ele>
        <time>2018-05-19T08:59:24Z</time>
      </trkpt>
      <trkpt lat="44.06437" lon="3.03092">
        <ele>640.9</ele>
        <time>2018-05-19T08:59:25Z</time>
      </trkpt>
      <trkpt lat="44.06441" lon="3.03085">
        <ele>640.9</ele>
        <time>2018-05-19T08:59:26Z</time>
      </trkpt>
      <trkpt lat="44.06444" lon="3.03078">
        <ele>641</ele>
        <time>2018-05-19T08:59:27Z</time>
      </trkpt>
      <trkpt lat="44.06448" lon="3.03071">
        <ele>641</ele>
        <time>2018-05-19T08:59:28Z</time>
      </trkpt>
      <trkpt lat="44.06452" lon="3.03063">
        <ele>641</ele>
        <time>2018-05-19T08:59:29Z</time>
      </trkpt>
      <trkpt lat="44.06454" lon="3.03057">
        <ele>641</ele>
        <time>2018-05-19T08:59:30Z</time>
      </trkpt>
      <trkpt lat="44.06458" lon="3.03049">
        <ele>641</ele>
        <time>2018-05-19T08:59:31Z</time>
      </trkpt>
      <trkpt lat="44.0646" lon="3.03041">
        <ele>641</ele>
        <time>2018-05-19T08:59:32Z</time>
      </trkpt>
      <trkpt lat="44.06464" lon="3.03033">
        <ele>641</ele>
        <time>2018-05-19T08:59:33Z</time>
      </trkpt>
      <trkpt lat="44.06467" lon="3.03026">
        <ele>640.9</ele>
        <time>2018-05-19T08:59:34Z</time>
      </trkpt>
      <trkpt lat="44.06468" lon="3.03021">
        <ele>640.9</ele>
        <time>2018-05-19T08:59:35Z</time>
      </trkpt>
      <trkpt lat="44.06468" lon="3.03015">
        <ele>640.8</ele>
        <time>2018-05-19T08:59:36Z</time>
      </trkpt>
      <trkpt lat="44.06468" lon="3.03009">
        <ele>640.7</ele>
        <time>2018-05-19T08:59:37Z</time>
      </trkpt>
      <trkpt lat="44.06469" lon="3.03003">
        <ele>640.7</ele>
        <time>2018-05-19T08:59:38Z</time>
      </trkpt>
      <trkpt lat="44.06468" lon="3.02999">
        <ele>640.6</ele>
        <time>2018-05-19T08:59:39Z</time>
      </trkpt>
      <trkpt lat="44.0647" lon="3.02993">
        <ele>640.4</ele>
        <time>2018-05-19T08:59:40Z</time>
      </trkpt>
      <trkpt lat="44.06472" lon="3.02988">
        <ele>640.2</ele>
        <time>2018-05-19T08:59:41Z</time>
      </trkpt>
      <trkpt lat="44.06475" lon="3.02982">
        <ele>640</ele>
        <time>2018-05-19T08:59:42Z</time>
      </trkpt>
      <trkpt lat="44.06478" lon="3.02978">
        <ele>640</ele>
        <time>2018-05-19T08:59:43Z</time>
      </trkpt>
      <trkpt lat="44.0648" lon="3.02974">
        <ele>640</ele>
        <time>2018-05-19T08:59:44Z</time>
      </trkpt>
      <trkpt lat="44.06482" lon="3.0297">
        <ele>640</ele>
        <time>2018-05-19T08:59:45Z</time>
      </trkpt>
      <trkpt lat="44.06485" lon="3.02968">
        <ele>640</ele>
        <time>2018-05-19T08:59:46Z</time>
      </trkpt>
      <trkpt lat="44.06486" lon="3.02965">
        <ele>640</ele>
        <time>2018-05-19T08:59:47Z</time>
      </trkpt>
      <trkpt lat="44.06489" lon="3.02961">
        <ele>640.1</ele>
        <time>2018-05-19T08:59:48Z</time>
      </trkpt>
      <trkpt lat="44.06491" lon="3.02957">
        <ele>640.1</ele>
        <time>2018-05-19T08:59:49Z</time>
      </trkpt>
      <trkpt lat="44.06494" lon="3.02952">
        <ele>640.2</ele>
        <time>2018-05-19T08:59:50Z</time>
      </trkpt>
      <trkpt lat="44.06496" lon="3.02947">
        <ele>640.3</ele>
        <time>2018-05-19T08:59:51Z</time>
      </trkpt>
      <trkpt lat="44.06498" lon="3.02941">
        <ele>640.4</ele>
        <time>2018-05-19T08:59:52Z</time>
      </trkpt>
      <trkpt lat="44.065" lon="3.02936">
        <ele>640.4</ele>
        <time>2018-05-19T08:59:53Z</time>
      </trkpt>
      <trkpt lat="44.06502" lon="3.02931">
        <ele>640.5</ele>
        <time>2018-05-19T08:59:54Z</time>
      </trkpt>
      <trkpt lat="44.06503" lon="3.02926">
        <ele>640.8</ele>
        <time>2018-05-19T08:59:55Z</time>
      </trkpt>
      <trkpt lat="44.06504" lon="3.0292">
        <ele>641.2</ele>
        <time>2018-05-19T08:59:56Z</time>
      </trkpt>
      <trkpt lat="44.06506" lon="3.02915">
        <ele>641.6</ele>
        <time>2018-05-19T08:59:57Z</time>
      </trkpt>
      <trkpt lat="44.06507" lon="3.02909">
        <ele>642</ele>
        <time>2018-05-19T08:59:58Z</time>
      </trkpt>
      <trkpt lat="44.06509" lon="3.02905">
        <ele>642.2</ele>
        <time>2018-05-19T08:59:59Z</time>
      </trkpt>
      <trkpt lat="44.06511" lon="3.029">
        <ele>642.4</ele>
        <time>2018-05-19T09:00:00Z</time>
      </trkpt>
      <trkpt lat="44.06513" lon="3.02895">
        <ele>642.5</ele>
        <time>2018-05-19T09:00:02Z</time>
      </trkpt>
      <trkpt lat="44.06516" lon="3.02892">
        <ele>642.6</ele>
        <time>2018-05-19T09:00:04Z</time>
      </trkpt>
      <trkpt lat="44.06519" lon="3.0289">
        <ele>642.7</ele>
        <time>2018-05-19T09:00:06Z</time>
      </trkpt>
      <trkpt lat="44.06523" lon="3.0289">
        <ele>642.8</ele>
        <time>2018-05-19T09:00:08Z</time>
      </trkpt>
      <trkpt lat="44.06527" lon="3.02894">
        <ele>642.9</ele>
        <time>2018-05-19T09:00:10Z</time>
      </trkpt>
      <trkpt lat="44.06529" lon="3.02899">
        <ele>643</ele>
        <time>2018-05-19T09:00:12Z</time>
      </trkpt>
      <trkpt lat="44.06531" lon="3.02902">
        <ele>643.4</ele>
        <time>2018-05-19T09:00:14Z</time>
      </trkpt>
      <trkpt lat="44.06533" lon="3.02902">
        <ele>643.8</ele>
        <time>2018-05-19T09:00:20Z</time>
      </trkpt>
      <trkpt lat="44.06536" lon="3.02903">
        <ele>644.2</ele>
        <time>2018-05-19T09:00:35Z</time>
      </trkpt>
      <trkpt lat="44.0654" lon="3.02895">
        <ele>646.2</ele>
        <time>2018-05-19T09:02:58Z</time>
      </trkpt>
      <trkpt lat="44.0654" lon="3.0289">
        <ele>647.1</ele>
        <time>2018-05-19T09:03:01Z</time>
      </trkpt>
      <trkpt lat="44.06538" lon="3.02885">
        <ele>648.3</ele>
        <time>2018-05-19T09:03:04Z</time>
      </trkpt>
      <trkpt lat="44.06536" lon="3.02882">
        <ele>649.1</ele>
        <time>2018-05-19T09:03:06Z</time>
      </trkpt>
      <trkpt lat="44.06534" lon="3.02877">
        <ele>649</ele>
        <time>2018-05-19T09:03:09Z</time>
      </trkpt>
      <trkpt lat="44.06534" lon="3.02873">
        <ele>648.7</ele>
        <time>2018-05-19T09:03:11Z</time>
      </trkpt>
      <trkpt lat="44.06534" lon="3.02869">
        <ele>648.7</ele>
        <time>2018-05-19T09:03:15Z</time>
      </trkpt>
      <trkpt lat="44.06534" lon="3.02864">
        <ele>648.8</ele>
        <time>2018-05-19T09:03:20Z</time>
      </trkpt>
      <trkpt lat="44.06534" lon="3.0286">
        <ele>648.7</ele>
        <time>2018-05-19T09:03:23Z</time>
      </trkpt>
      <trkpt lat="44.06532" lon="3.02857">
        <ele>648.7</ele>
        <time>2018-05-19T09:03:26Z</time>
      </trkpt>
      <trkpt lat="44.0653" lon="3.02855">
        <ele>648.9</ele>
        <time>2018-05-19T09:03:30Z</time>
      </trkpt>
      <trkpt lat="44.06528" lon="3.02859">
        <ele>649.1</ele>
        <time>2018-05-19T09:03:40Z</time>
      </trkpt>
      <trkpt lat="44.06525" lon="3.02859">
        <ele>649.4</ele>
        <time>2018-05-19T09:03:42Z</time>
      </trkpt>
      <trkpt lat="44.06522" lon="3.0286">
        <ele>649.3</ele>
        <time>2018-05-19T09:03:44Z</time>
      </trkpt>
      <trkpt lat="44.06519" lon="3.0286">
        <ele>649</ele>
        <time>2018-05-19T09:03:46Z</time>
      </trkpt>
      <trkpt lat="44.06516" lon="3.02859">
        <ele>648.5</ele>
        <time>2018-05-19T09:03:49Z</time>
      </trkpt>
      <trkpt lat="44.06513" lon="3.02862">
        <ele>648</ele>
        <time>2018-05-19T09:03:53Z</time>
      </trkpt>
      <trkpt lat="44.06511" lon="3.02866">
        <ele>647.5</ele>
        <time>2018-05-19T09:03:55Z</time>
      </trkpt>
      <trkpt lat="44.06509" lon="3.02869">
        <ele>647.2</ele>
        <time>2018-05-19T09:03:58Z</time>
      </trkpt>
      <trkpt lat="44.06506" lon="3.02872">
        <ele>647</ele>
        <time>2018-05-19T09:04:02Z</time>
      </trkpt>
      <trkpt lat="44.06504" lon="3.02874">
        <ele>646.7</ele>
        <time>2018-05-19T09:04:04Z</time>
      </trkpt>
      <trkpt lat="44.06502" lon="3.02878">
        <ele>646.3</ele>
        <time>2018-05-19T09:04:06Z</time>
      </trkpt>
      <trkpt lat="44.065" lon="3.02882">
        <ele>646</ele>
        <time>2018-05-19T09:04:08Z</time>
      </trkpt>
      <trkpt lat="44.06497" lon="3.02884">
        <ele>645.7</ele>
        <time>2018-05-19T09:04:10Z</time>
      </trkpt>
      <trkpt lat="44.06495" lon="3.02887">
        <ele>645.4</ele>
        <time>2018-05-19T09:04:12Z</time>
      </trkpt>
      <trkpt lat="44.06494" lon="3.02891">
        <ele>645.2</ele>
        <time>2018-05-19T09:04:14Z</time>
      </trkpt>
      <trkpt lat="44.06494" lon="3.02896">
        <ele>645.2</ele>
        <time>2018-05-19T09:04:17Z</time>
      </trkpt>
      <trkpt lat="44.06492" lon="3.029">
        <ele>645.1</ele>
        <time>2018-05-19T09:04:22Z</time>
      </trkpt>
      <trkpt lat="44.0649" lon="3.02903">
        <ele>645.2</ele>
        <time>2018-05-19T09:04:24Z</time>
      </trkpt>
      <trkpt lat="44.06487" lon="3.02906">
        <ele>645.4</ele>
        <time>2018-05-19T09:04:27Z</time>
      </trkpt>
      <trkpt lat="44.06484" lon="3.02909">
        <ele>645.6</ele>
        <time>2018-05-19T09:04:30Z</time>
      </trkpt>
      <trkpt lat="44.06482" lon="3.02912">
        <ele>645.8</ele>
        <time>2018-05-19T09:04:32Z</time>
      </trkpt>
      <trkpt lat="44.06479" lon="3.02914">
        <ele>646.1</ele>
        <time>2018-05-19T09:04:34Z</time>
      </trkpt>
      <trkpt lat="44.06476" lon="3.02916">
        <ele>646.7</ele>
        <time>2018-05-19T09:04:36Z</time>
      </trkpt>
      <trkpt lat="44.06472" lon="3.02918">
        <ele>647.3</ele>
        <time>2018-05-19T09:04:38Z</time>
      </trkpt>
      <trkpt lat="44.0647" lon="3.02919">
        <ele>648.1</ele>
        <time>2018-05-19T09:04:40Z</time>
      </trkpt>
      <trkpt lat="44.06467" lon="3.0292">
        <ele>649</ele>
        <time>2018-05-19T09:04:44Z</time>
      </trkpt>
      <trkpt lat="44.06465" lon="3.02923">
        <ele>650</ele>
        <time>2018-05-19T09:04:48Z</time>
      </trkpt>
      <trkpt lat="44.06463" lon="3.02926">
        <ele>651</ele>
        <time>2018-05-19T09:04:51Z</time>
      </trkpt>
      <trkpt lat="44.06459" lon="3.02926">
        <ele>651.9</ele>
        <time>2018-05-19T09:04:54Z</time>
      </trkpt>
      <trkpt lat="44.06456" lon="3.02928">
        <ele>653</ele>
        <time>2018-05-19T09:04:57Z</time>
      </trkpt>
      <trkpt lat="44.06455" lon="3.02932">
        <ele>653.7</ele>
        <time>2018-05-19T09:05:00Z</time>
      </trkpt>
      <trkpt lat="44.06452" lon="3.02935">
        <ele>655.5</ele>
        <time>2018-05-19T09:05:03Z</time>
      </trkpt>
      <trkpt lat="44.06449" lon="3.02938">
        <ele>657.2</ele>
        <time>2018-05-19T09:05:05Z</time>
      </trkpt>
      <trkpt lat="44.06447" lon="3.02943">
        <ele>659</ele>
        <time>2018-05-19T09:05:08Z</time>
      </trkpt>
      <trkpt lat="44.06445" lon="3.02945">
        <ele>659.7</ele>
        <time>2018-05-19T09:05:10Z</time>
      </trkpt>
      <trkpt lat="44.06442" lon="3.02948">
        <ele>660.4</ele>
        <time>2018-05-19T09:05:12Z</time>
      </trkpt>
      <trkpt lat="44.0644" lon="3.02951">
        <ele>661.1</ele>
        <time>2018-05-19T09:05:14Z</time>
      </trkpt>
      <trkpt lat="44.06437" lon="3.02953">
        <ele>661.4</ele>
        <time>2018-05-19T09:05:16Z</time>
      </trkpt>
      <trkpt lat="44.06434" lon="3.02957">
        <ele>661.8</ele>
        <time>2018-05-19T09:05:19Z</time>
      </trkpt>
      <trkpt lat="44.06433" lon="3.02961">
        <ele>662.1</ele>
        <time>2018-05-19T09:05:22Z</time>
      </trkpt>
      <trkpt lat="44.06432" lon="3.02966">
        <ele>662.9</ele>
        <time>2018-05-19T09:05:26Z</time>
      </trkpt>
      <trkpt lat="44.06431" lon="3.0297">
        <ele>663.7</ele>
        <time>2018-05-19T09:05:29Z</time>
      </trkpt>
      <trkpt lat="44.06429" lon="3.02973">
        <ele>664.6</ele>
        <time>2018-05-19T09:05:32Z</time>
      </trkpt>
      <trkpt lat="44.06426" lon="3.02976">
        <ele>665.6</ele>
        <time>2018-05-19T09:05:35Z</time>
      </trkpt>
      <trkpt lat="44.06424" lon="3.0298">
        <ele>666.5</ele>
        <time>2018-05-19T09:05:39Z</time>
      </trkpt>
      <trkpt lat="44.06422" lon="3.02982">
        <ele>667.3</ele>
        <time>2018-05-19T09:05:41Z</time>
      </trkpt>
      <trkpt lat="44.06419" lon="3.02985">
        <ele>668.1</ele>
        <time>2018-05-19T09:05:43Z</time>
      </trkpt>
      <trkpt lat="44.06417" lon="3.02988">
        <ele>669</ele>
        <time>2018-05-19T09:05:45Z</time>
      </trkpt>
      <trkpt lat="44.06414" lon="3.02992">
        <ele>670</ele>
        <time>2018-05-19T09:05:48Z</time>
      </trkpt>
      <trkpt lat="44.06413" lon="3.02995">
        <ele>671.3</ele>
        <time>2018-05-19T09:05:51Z</time>
      </trkpt>
      <trkpt lat="44.06412" lon="3.02999">
        <ele>672.7</ele>
        <time>2018-05-19T09:05:54Z</time>
      </trkpt>
      <trkpt lat="44.06409" lon="3.03002">
        <ele>673.6</ele>
        <time>2018-05-19T09:06:01Z</time>
      </trkpt>
      <trkpt lat="44.06407" lon="3.03005">
        <ele>674.1</ele>
        <time>2018-05-19T09:06:08Z</time>
      </trkpt>
      <trkpt lat="44.06404" lon="3.03006">
        <ele>674.6</ele>
        <time>2018-05-19T09:06:14Z</time>
      </trkpt>
      <trkpt lat="44.06401" lon="3.03007">
        <ele>675.9</ele>
        <time>2018-05-19T09:06:17Z</time>
      </trkpt>
      <trkpt lat="44.06398" lon="3.03011">
        <ele>677.3</ele>
        <time>2018-05-19T09:06:21Z</time>
      </trkpt>
      <trkpt lat="44.06397" lon="3.03014">
        <ele>678.6</ele>
        <time>2018-05-19T09:06:24Z</time>
      </trkpt>
      <trkpt lat="44.06394" lon="3.03016">
        <ele>680.4</ele>
        <time>2018-05-19T09:06:27Z</time>
      </trkpt>
      <trkpt lat="44.06391" lon="3.03018">
        <ele>681.9</ele>
        <time>2018-05-19T09:06:32Z</time>
      </trkpt>
      <trkpt lat="44.06388" lon="3.03018">
        <ele>683.9</ele>
        <time>2018-05-19T09:06:38Z</time>
      </trkpt>
      <trkpt lat="44.06386" lon="3.03022">
        <ele>686.1</ele>
        <time>2018-05-19T09:06:43Z</time>
      </trkpt>
      <trkpt lat="44.06385" lon="3.03025">
        <ele>687.8</ele>
        <time>2018-05-19T09:06:47Z</time>
      </trkpt>
      <trkpt lat="44.06382" lon="3.03025">
        <ele>689</ele>
        <time>2018-05-19T09:06:51Z</time>
      </trkpt>
      <trkpt lat="44.06379" lon="3.03024">
        <ele>690.3</ele>
        <time>2018-05-19T09:07:01Z</time>
      </trkpt>
      <trkpt lat="44.06374" lon="3.03028">
        <ele>693.9</ele>
        <time>2018-05-19T09:08:52Z</time>
      </trkpt>
      <trkpt lat="44.06374" lon="3.03023">
        <ele>695.6</ele>
        <time>2018-05-19T09:09:28Z</time>
      </trkpt>
      <trkpt lat="44.06371" lon="3.03022">
        <ele>696</ele>
        <time>2018-05-19T09:09:32Z</time>
      </trkpt>
      <trkpt lat="44.06367" lon="3.03021">
        <ele>696</ele>
        <time>2018-05-19T09:09:35Z</time>
      </trkpt>
      <trkpt lat="44.06364" lon="3.03018">
        <ele>695.9</ele>
        <time>2018-05-19T09:09:37Z</time>
      </trkpt>
      <trkpt lat="44.06361" lon="3.03014">
        <ele>695.9</ele>
        <time>2018-05-19T09:09:39Z</time>
      </trkpt>
      <trkpt lat="44.0636" lon="3.0301">
        <ele>695.8</ele>
        <time>2018-05-19T09:09:41Z</time>
      </trkpt>
      <trkpt lat="44.06359" lon="3.03006">
        <ele>695.8</ele>
        <time>2018-05-19T09:09:43Z</time>
      </trkpt>
      <trkpt lat="44.06358" lon="3.03">
        <ele>695.7</ele>
        <time>2018-05-19T09:09:46Z</time>
      </trkpt>
      <trkpt lat="44.0636" lon="3.02994">
        <ele>695.6</ele>
        <time>2018-05-19T09:09:48Z</time>
      </trkpt>
      <trkpt lat="44.06362" lon="3.0299">
        <ele>695.5</ele>
        <time>2018-05-19T09:09:50Z</time>
      </trkpt>
      <trkpt lat="44.06365" lon="3.02985">
        <ele>695.4</ele>
        <time>2018-05-19T09:09:52Z</time>
      </trkpt>
      <trkpt lat="44.06367" lon="3.02982">
        <ele>695.4</ele>
        <time>2018-05-19T09:09:54Z</time>
      </trkpt>
      <trkpt lat="44.06369" lon="3.02979">
        <ele>695.3</ele>
        <time>2018-05-19T09:09:56Z</time>
      </trkpt>
      <trkpt lat="44.06372" lon="3.02976">
        <ele>695.3</ele>
        <time>2018-05-19T09:09:58Z</time>
      </trkpt>
      <trkpt lat="44.06374" lon="3.02973">
        <ele>695.2</ele>
        <time>2018-05-19T09:10:00Z</time>
      </trkpt>
      <trkpt lat="44.06378" lon="3.02969">
        <ele>695.1</ele>
        <time>2018-05-19T09:10:02Z</time>
      </trkpt>
      <trkpt lat="44.06382" lon="3.02965">
        <ele>695</ele>
        <time>2018-05-19T09:10:04Z</time>
      </trkpt>
      <trkpt lat="44.06385" lon="3.02962">
        <ele>694.9</ele>
        <time>2018-05-19T09:10:06Z</time>
      </trkpt>
      <trkpt lat="44.06388" lon="3.02957">
        <ele>694.9</ele>
        <time>2018-05-19T09:10:08Z</time>
      </trkpt>
      <trkpt lat="44.06391" lon="3.02953">
        <ele>694.8</ele>
        <time>2018-05-19T09:10:10Z</time>
      </trkpt>
      <trkpt lat="44.06393" lon="3.0295">
        <ele>694.8</ele>
        <time>2018-05-19T09:10:12Z</time>
      </trkpt>
      <trkpt lat="44.06395" lon="3.02946">
        <ele>694.8</ele>
        <time>2018-05-19T09:10:14Z</time>
      </trkpt>
      <trkpt lat="44.06397" lon="3.02942">
        <ele>694.7</ele>
        <time>2018-05-19T09:10:16Z</time>
      </trkpt>
      <trkpt lat="44.06399" lon="3.02938">
        <ele>694.7</ele>
        <time>2018-05-19T09:10:18Z</time>
      </trkpt>
      <trkpt lat="44.064" lon="3.02934">
        <ele>694.6</ele>
        <time>2018-05-19T09:10:20Z</time>
      </trkpt>
      <trkpt lat="44.06402" lon="3.0293">
        <ele>694.5</ele>
        <time>2018-05-19T09:10:22Z</time>
      </trkpt>
      <trkpt lat="44.06404" lon="3.02925">
        <ele>694.5</ele>
        <time>2018-05-19T09:10:24Z</time>
      </trkpt>
      <trkpt lat="44.06405" lon="3.0292">
        <ele>694.5</ele>
        <time>2018-05-19T09:10:26Z</time>
      </trkpt>
      <trkpt lat="44.06406" lon="3.02915">
        <ele>694.4</ele>
        <time>2018-05-19T09:10:29Z</time>
      </trkpt>
      <trkpt lat="44.06408" lon="3.02911">
        <ele>694.4</ele>
        <time>2018-05-19T09:10:31Z</time>
      </trkpt>
      <trkpt lat="44.0641" lon="3.02907">
        <ele>694.3</ele>
        <time>2018-05-19T09:10:33Z</time>
      </trkpt>
      <trkpt lat="44.06412" lon="3.02902">
        <ele>694.2</ele>
        <time>2018-05-19T09:10:35Z</time>
      </trkpt>
      <trkpt lat="44.06414" lon="3.02898">
        <ele>694.1</ele>
        <time>2018-05-19T09:10:37Z</time>
      </trkpt>
      <trkpt lat="44.06416" lon="3.02894">
        <ele>694</ele>
        <time>2018-05-19T09:10:39Z</time>
      </trkpt>
      <trkpt lat="44.06418" lon="3.02889">
        <ele>693.8</ele>
        <time>2018-05-19T09:10:41Z</time>
      </trkpt>
      <trkpt lat="44.06419" lon="3.02884">
        <ele>693.7</ele>
        <time>2018-05-19T09:10:43Z</time>
      </trkpt>
      <trkpt lat="44.06421" lon="3.02879">
        <ele>693.5</ele>
        <time>2018-05-19T09:10:45Z</time>
      </trkpt>
      <trkpt lat="44.06423" lon="3.02875">
        <ele>693.4</ele>
        <time>2018-05-19T09:10:47Z</time>
      </trkpt>
      <trkpt lat="44.06424" lon="3.02871">
        <ele>693.3</ele>
        <time>2018-05-19T09:10:49Z</time>
      </trkpt>
      <trkpt lat="44.06424" lon="3.02866">
        <ele>693.3</ele>
        <time>2018-05-19T09:10:51Z</time>
      </trkpt>
      <trkpt lat="44.06425" lon="3.02862">
        <ele>693.2</ele>
        <time>2018-05-19T09:10:53Z</time>
      </trkpt>
      <trkpt lat="44.06426" lon="3.02857">
        <ele>693.2</ele>
        <time>2018-05-19T09:10:55Z</time>
      </trkpt>
      <trkpt lat="44.06427" lon="3.02853">
        <ele>693.2</ele>
        <time>2018-05-19T09:10:57Z</time>
      </trkpt>
      <trkpt lat="44.06428" lon="3.02849">
        <ele>693.2</ele>
        <time>2018-05-19T09:10:59Z</time>
      </trkpt>
      <trkpt lat="44.06429" lon="3.02845">
        <ele>693.1</ele>
        <time>2018-05-19T09:11:01Z</time>
      </trkpt>
      <trkpt lat="44.0643" lon="3.0284">
        <ele>693.1</ele>
        <time>2018-05-19T09:11:03Z</time>
      </trkpt>
      <trkpt lat="44.0643" lon="3.02836">
        <ele>693.1</ele>
        <time>2018-05-19T09:11:05Z</time>
      </trkpt>
      <trkpt lat="44.06431" lon="3.02833">
        <ele>693</ele>
        <time>2018-05-19T09:11:07Z</time>
      </trkpt>
      <trkpt lat="44.06432" lon="3.02829">
        <ele>692.9</ele>
        <time>2018-05-19T09:11:09Z</time>
      </trkpt>
      <trkpt lat="44.06433" lon="3.02825">
        <ele>692.9</ele>
        <time>2018-05-19T09:11:11Z</time>
      </trkpt>
      <trkpt lat="44.06433" lon="3.0282">
        <ele>692.8</ele>
        <time>2018-05-19T09:11:13Z</time>
      </trkpt>
      <trkpt lat="44.06432" lon="3.02816">
        <ele>692.8</ele>
        <time>2018-05-19T09:11:15Z</time>
      </trkpt>
      <trkpt lat="44.06432" lon="3.02811">
        <ele>692.7</ele>
        <time>2018-05-19T09:11:18Z</time>
      </trkpt>
      <trkpt lat="44.0643" lon="3.02808">
        <ele>692.7</ele>
        <time>2018-05-19T09:11:22Z</time>
      </trkpt>
      <trkpt lat="44.06428" lon="3.02804">
        <ele>692.6</ele>
        <time>2018-05-19T09:11:24Z</time>
      </trkpt>
      <trkpt lat="44.06427" lon="3.02801">
        <ele>692.5</ele>
        <time>2018-05-19T09:11:26Z</time>
      </trkpt>
      <trkpt lat="44.06427" lon="3.02795">
        <ele>692.4</ele>
        <time>2018-05-19T09:11:29Z</time>
      </trkpt>
      <trkpt lat="44.06426" lon="3.02791">
        <ele>692.4</ele>
        <time>2018-05-19T09:11:31Z</time>
      </trkpt>
      <trkpt lat="44.06425" lon="3.02786">
        <ele>692.3</ele>
        <time>2018-05-19T09:11:33Z</time>
      </trkpt>
      <trkpt lat="44.06424" lon="3.0278">
        <ele>692.3</ele>
        <time>2018-05-19T09:11:35Z</time>
      </trkpt>
      <trkpt lat="44.06425" lon="3.02774">
        <ele>692.2</ele>
        <time>2018-05-19T09:11:37Z</time>
      </trkpt>
      <trkpt lat="44.06424" lon="3.02768">
        <ele>692.2</ele>
        <time>2018-05-19T09:11:39Z</time>
      </trkpt>
      <trkpt lat="44.06424" lon="3.02762">
        <ele>692.1</ele>
        <time>2018-05-19T09:11:41Z</time>
      </trkpt>
      <trkpt lat="44.06424" lon="3.02757">
        <ele>692.1</ele>
        <time>2018-05-19T09:11:43Z</time>
      </trkpt>
      <trkpt lat="44.06425" lon="3.0275">
        <ele>692</ele>
        <time>2018-05-19T09:11:45Z</time>
      </trkpt>
      <trkpt lat="44.06425" lon="3.02743">
        <ele>691.8</ele>
        <time>2018-05-19T09:11:47Z</time>
      </trkpt>
      <trkpt lat="44.06426" lon="3.02736">
        <ele>691.7</ele>
        <time>2018-05-19T09:11:49Z</time>
      </trkpt>
      <trkpt lat="44.06427" lon="3.0273">
        <ele>691.6</ele>
        <time>2018-05-19T09:11:51Z</time>
      </trkpt>
      <trkpt lat="44.06427" lon="3.02723">
        <ele>691.6</ele>
        <time>2018-05-19T09:11:53Z</time>
      </trkpt>
      <trkpt lat="44.06427" lon="3.02716">
        <ele>691.4</ele>
        <time>2018-05-19T09:11:55Z</time>
      </trkpt>
      <trkpt lat="44.06427" lon="3.02709">
        <ele>691.2</ele>
        <time>2018-05-19T09:11:57Z</time>
      </trkpt>
      <trkpt lat="44.06426" lon="3.02703">
        <ele>691.1</ele>
        <time>2018-05-19T09:11:59Z</time>
      </trkpt>
      <trkpt lat="44.06425" lon="3.02697">
        <ele>691</ele>
        <time>2018-05-19T09:12:01Z</time>
      </trkpt>
      <trkpt lat="44.06422" lon="3.02692">
        <ele>691.8</ele>
        <time>2018-05-19T09:12:03Z</time>
      </trkpt>
      <trkpt lat="44.06419" lon="3.02688">
        <ele>694.1</ele>
        <time>2018-05-19T09:12:05Z</time>
      </trkpt>
      <trkpt lat="44.06416" lon="3.02685">
        <ele>696.7</ele>
        <time>2018-05-19T09:12:07Z</time>
      </trkpt>
      <trkpt lat="44.06412" lon="3.02682">
        <ele>699.4</ele>
        <time>2018-05-19T09:12:09Z</time>
      </trkpt>
      <trkpt lat="44.06408" lon="3.02678">
        <ele>702.6</ele>
        <time>2018-05-19T09:12:11Z</time>
      </trkpt>
      <trkpt lat="44.06404" lon="3.02674">
        <ele>705.3</ele>
        <time>2018-05-19T09:12:13Z</time>
      </trkpt>
      <trkpt lat="44.064" lon="3.02669">
        <ele>707.5</ele>
        <time>2018-05-19T09:12:15Z</time>
      </trkpt>
      <trkpt lat="44.06398" lon="3.02664">
        <ele>709.2</ele>
        <time>2018-05-19T09:12:17Z</time>
      </trkpt>
      <trkpt lat="44.06395" lon="3.02659">
        <ele>710.8</ele>
        <time>2018-05-19T09:12:19Z</time>
      </trkpt>
      <trkpt lat="44.06393" lon="3.02654">
        <ele>711</ele>
        <time>2018-05-19T09:12:21Z</time>
      </trkpt>
      <trkpt lat="44.0639" lon="3.02647">
        <ele>711</ele>
        <time>2018-05-19T09:12:23Z</time>
      </trkpt>
      <trkpt lat="44.06388" lon="3.02642">
        <ele>711</ele>
        <time>2018-05-19T09:12:25Z</time>
      </trkpt>
      <trkpt lat="44.06386" lon="3.02637">
        <ele>711</ele>
        <time>2018-05-19T09:12:27Z</time>
      </trkpt>
      <trkpt lat="44.06385" lon="3.02631">
        <ele>711</ele>
        <time>2018-05-19T09:12:29Z</time>
      </trkpt>
      <trkpt lat="44.06384" lon="3.02627">
        <ele>711</ele>
        <time>2018-05-19T09:12:31Z</time>
      </trkpt>
      <trkpt lat="44.06381" lon="3.02623">
        <ele>711</ele>
        <time>2018-05-19T09:12:33Z</time>
      </trkpt>
      <trkpt lat="44.06379" lon="3.02617">
        <ele>711</ele>
        <time>2018-05-19T09:12:35Z</time>
      </trkpt>
      <trkpt lat="44.06378" lon="3.0261">
        <ele>711</ele>
        <time>2018-05-19T09:12:37Z</time>
      </trkpt>
      <trkpt lat="44.06377" lon="3.02605">
        <ele>710.8</ele>
        <time>2018-05-19T09:12:39Z</time>
      </trkpt>
      <trkpt lat="44.06375" lon="3.02599">
        <ele>710.6</ele>
        <time>2018-05-19T09:12:41Z</time>
      </trkpt>
      <trkpt lat="44.06374" lon="3.02593">
        <ele>710.5</ele>
        <time>2018-05-19T09:12:43Z</time>
      </trkpt>
      <trkpt lat="44.06373" lon="3.02588">
        <ele>710.3</ele>
        <time>2018-05-19T09:12:45Z</time>
      </trkpt>
      <trkpt lat="44.06371" lon="3.02583">
        <ele>710.1</ele>
        <time>2018-05-19T09:12:48Z</time>
      </trkpt>
      <trkpt lat="44.06371" lon="3.02577">
        <ele>709.9</ele>
        <time>2018-05-19T09:12:50Z</time>
      </trkpt>
      <trkpt lat="44.0637" lon="3.02573">
        <ele>709.8</ele>
        <time>2018-05-19T09:12:51Z</time>
      </trkpt>
      <trkpt lat="44.0637" lon="3.02569">
        <ele>709.7</ele>
        <time>2018-05-19T09:12:52Z</time>
      </trkpt>
      <trkpt lat="44.0637" lon="3.02566">
        <ele>709.5</ele>
        <time>2018-05-19T09:12:53Z</time>
      </trkpt>
      <trkpt lat="44.0637" lon="3.02562">
        <ele>709.4</ele>
        <time>2018-05-19T09:12:54Z</time>
      </trkpt>
      <trkpt lat="44.06369" lon="3.02558">
        <ele>709.2</ele>
        <time>2018-05-19T09:12:55Z</time>
      </trkpt>
      <trkpt lat="44.06369" lon="3.02554">
        <ele>709.1</ele>
        <time>2018-05-19T09:12:56Z</time>
      </trkpt>
      <trkpt lat="44.06368" lon="3.0255">
        <ele>708.9</ele>
        <time>2018-05-19T09:12:57Z</time>
      </trkpt>
      <trkpt lat="44.06367" lon="3.02544">
        <ele>708.6</ele>
        <time>2018-05-19T09:12:59Z</time>
      </trkpt>
      <trkpt lat="44.06366" lon="3.02537">
        <ele>708.1</ele>
        <time>2018-05-19T09:13:01Z</time>
      </trkpt>
      <trkpt lat="44.06366" lon="3.02529">
        <ele>707.6</ele>
        <time>2018-05-19T09:13:03Z</time>
      </trkpt>
      <trkpt lat="44.06365" lon="3.02526">
        <ele>707.2</ele>
        <time>2018-05-19T09:13:04Z</time>
      </trkpt>
      <trkpt lat="44.06364" lon="3.02522">
        <ele>706.9</ele>
        <time>2018-05-19T09:13:05Z</time>
      </trkpt>
      <trkpt lat="44.06363" lon="3.02519">
        <ele>706.7</ele>
        <time>2018-05-19T09:13:06Z</time>
      </trkpt>
      <trkpt lat="44.06362" lon="3.02515">
        <ele>706.5</ele>
        <time>2018-05-19T09:13:07Z</time>
      </trkpt>
      <trkpt lat="44.0636" lon="3.02508">
        <ele>706.1</ele>
        <time>2018-05-19T09:13:09Z</time>
      </trkpt>
      <trkpt lat="44.06358" lon="3.02502">
        <ele>705.7</ele>
        <time>2018-05-19T09:13:11Z</time>
      </trkpt>
      <trkpt lat="44.06356" lon="3.02496">
        <ele>705.3</ele>
        <time>2018-05-19T09:13:13Z</time>
      </trkpt>
      <trkpt lat="44.06354" lon="3.0249">
        <ele>704.9</ele>
        <time>2018-05-19T09:13:15Z</time>
      </trkpt>
      <trkpt lat="44.06352" lon="3.02484">
        <ele>704.5</ele>
        <time>2018-05-19T09:13:17Z</time>
      </trkpt>
      <trkpt lat="44.06349" lon="3.02478">
        <ele>704.1</ele>
        <time>2018-05-19T09:13:19Z</time>
      </trkpt>
      <trkpt lat="44.06347" lon="3.02472">
        <ele>705.3</ele>
        <time>2018-05-19T09:13:21Z</time>
      </trkpt>
      <trkpt lat="44.06345" lon="3.02466">
        <ele>707</ele>
        <time>2018-05-19T09:13:23Z</time>
      </trkpt>
      <trkpt lat="44.06344" lon="3.0246">
        <ele>708.5</ele>
        <time>2018-05-19T09:13:25Z</time>
      </trkpt>
      <trkpt lat="44.06343" lon="3.02455">
        <ele>709.2</ele>
        <time>2018-05-19T09:13:27Z</time>
      </trkpt>
      <trkpt lat="44.06342" lon="3.0245">
        <ele>710</ele>
        <time>2018-05-19T09:13:29Z</time>
      </trkpt>
      <trkpt lat="44.0634" lon="3.02445">
        <ele>710.8</ele>
        <time>2018-05-19T09:13:31Z</time>
      </trkpt>
      <trkpt lat="44.06338" lon="3.0244">
        <ele>711.9</ele>
        <time>2018-05-19T09:13:33Z</time>
      </trkpt>
      <trkpt lat="44.06337" lon="3.02436">
        <ele>713.3</ele>
        <time>2018-05-19T09:13:35Z</time>
      </trkpt>
      <trkpt lat="44.06335" lon="3.02432">
        <ele>714.9</ele>
        <time>2018-05-19T09:13:37Z</time>
      </trkpt>
      <trkpt lat="44.06333" lon="3.02427">
        <ele>715.8</ele>
        <time>2018-05-19T09:13:39Z</time>
      </trkpt>
      <trkpt lat="44.06332" lon="3.02422">
        <ele>716.8</ele>
        <time>2018-05-19T09:13:41Z</time>
      </trkpt>
      <trkpt lat="44.0633" lon="3.02418">
        <ele>717.8</ele>
        <time>2018-05-19T09:13:43Z</time>
      </trkpt>
      <trkpt lat="44.06328" lon="3.02414">
        <ele>719.5</ele>
        <time>2018-05-19T09:13:45Z</time>
      </trkpt>
      <trkpt lat="44.06325" lon="3.02409">
        <ele>721.8</ele>
        <time>2018-05-19T09:13:47Z</time>
      </trkpt>
      <trkpt lat="44.06323" lon="3.02405">
        <ele>723.9</ele>
        <time>2018-05-19T09:13:49Z</time>
      </trkpt>
      <trkpt lat="44.0632" lon="3.02402">
        <ele>724.7</ele>
        <time>2018-05-19T09:13:51Z</time>
      </trkpt>
      <trkpt lat="44.06318" lon="3.02401">
        <ele>725.3</ele>
        <time>2018-05-19T09:13:53Z</time>
      </trkpt>
      <trkpt lat="44.06315" lon="3.02397">
        <ele>726.1</ele>
        <time>2018-05-19T09:13:56Z</time>
      </trkpt>
      <trkpt lat="44.06313" lon="3.02394">
        <ele>726.7</ele>
        <time>2018-05-19T09:13:58Z</time>
      </trkpt>
      <trkpt lat="44.0631" lon="3.02394">
        <ele>727.1</ele>
        <time>2018-05-19T09:14:01Z</time>
      </trkpt>
      <trkpt lat="44.06307" lon="3.02395">
        <ele>727.2</ele>
        <time>2018-05-19T09:14:03Z</time>
      </trkpt>
      <trkpt lat="44.06304" lon="3.02398">
        <ele>727.4</ele>
        <time>2018-05-19T09:14:06Z</time>
      </trkpt>
      <trkpt lat="44.06303" lon="3.02403">
        <ele>727.7</ele>
        <time>2018-05-19T09:14:09Z</time>
      </trkpt>
      <trkpt lat="44.06303" lon="3.02408">
        <ele>728</ele>
        <time>2018-05-19T09:14:12Z</time>
      </trkpt>
      <trkpt lat="44.06304" lon="3.02411">
        <ele>728.2</ele>
        <time>2018-05-19T09:14:15Z</time>
      </trkpt>
      <trkpt lat="44.06303" lon="3.02416">
        <ele>728.5</ele>
        <time>2018-05-19T09:14:18Z</time>
      </trkpt>
      <trkpt lat="44.063" lon="3.02418">
        <ele>728.8</ele>
        <time>2018-05-19T09:14:27Z</time>
      </trkpt>
      <trkpt lat="44.063" lon="3.02422">
        <ele>729.1</ele>
        <time>2018-05-19T09:14:34Z</time>
      </trkpt>
      <trkpt lat="44.06299" lon="3.02427">
        <ele>729.3</ele>
        <time>2018-05-19T09:14:37Z</time>
      </trkpt>
      <trkpt lat="44.06299" lon="3.02431">
        <ele>729.5</ele>
        <time>2018-05-19T09:14:41Z</time>
      </trkpt>
      <trkpt lat="44.06297" lon="3.02435">
        <ele>729.6</ele>
        <time>2018-05-19T09:14:45Z</time>
      </trkpt>
      <trkpt lat="44.06295" lon="3.02438">
        <ele>729.7</ele>
        <time>2018-05-19T09:14:49Z</time>
      </trkpt>
      <trkpt lat="44.06296" lon="3.02442">
        <ele>729.7</ele>
        <time>2018-05-19T09:14:52Z</time>
      </trkpt>
      <trkpt lat="44.06295" lon="3.02446">
        <ele>729.6</ele>
        <time>2018-05-19T09:14:56Z</time>
      </trkpt>
      <trkpt lat="44.06294" lon="3.02451">
        <ele>729.5</ele>
        <time>2018-05-19T09:15:04Z</time>
      </trkpt>
      <trkpt lat="44.06294" lon="3.02455">
        <ele>728.6</ele>
        <time>2018-05-19T09:15:07Z</time>
      </trkpt>
      <trkpt lat="44.06293" lon="3.0246">
        <ele>728.4</ele>
        <time>2018-05-19T09:15:10Z</time>
      </trkpt>
      <trkpt lat="44.06292" lon="3.02464">
        <ele>728.2</ele>
        <time>2018-05-19T09:15:12Z</time>
      </trkpt>
      <trkpt lat="44.06291" lon="3.02468">
        <ele>728</ele>
        <time>2018-05-19T09:15:14Z</time>
      </trkpt>
      <trkpt lat="44.06291" lon="3.02472">
        <ele>727.8</ele>
        <time>2018-05-19T09:15:16Z</time>
      </trkpt>
      <trkpt lat="44.06289" lon="3.02477">
        <ele>727.7</ele>
        <time>2018-05-19T09:15:19Z</time>
      </trkpt>
      <trkpt lat="44.06289" lon="3.02482">
        <ele>727.6</ele>
        <time>2018-05-19T09:15:22Z</time>
      </trkpt>
      <trkpt lat="44.0629" lon="3.02487">
        <ele>727.6</ele>
        <time>2018-05-19T09:15:25Z</time>
      </trkpt>
      <trkpt lat="44.0629" lon="3.02491">
        <ele>727.6</ele>
        <time>2018-05-19T09:15:27Z</time>
      </trkpt>
      <trkpt lat="44.06289" lon="3.02496">
        <ele>727.7</ele>
        <time>2018-05-19T09:15:30Z</time>
      </trkpt>
      <trkpt lat="44.06287" lon="3.025">
        <ele>727.8</ele>
        <time>2018-05-19T09:15:33Z</time>
      </trkpt>
      <trkpt lat="44.06287" lon="3.02504">
        <ele>728</ele>
        <time>2018-05-19T09:15:36Z</time>
      </trkpt>
      <trkpt lat="44.06286" lon="3.02508">
        <ele>728.2</ele>
        <time>2018-05-19T09:15:38Z</time>
      </trkpt>
      <trkpt lat="44.06284" lon="3.02513">
        <ele>728.4</ele>
        <time>2018-05-19T09:15:41Z</time>
      </trkpt>
      <trkpt lat="44.06283" lon="3.02518">
        <ele>728.6</ele>
        <time>2018-05-19T09:15:44Z</time>
      </trkpt>
      <trkpt lat="44.06282" lon="3.02523">
        <ele>728.8</ele>
        <time>2018-05-19T09:15:47Z</time>
      </trkpt>
      <trkpt lat="44.0628" lon="3.02528">
        <ele>729</ele>
        <time>2018-05-19T09:15:50Z</time>
      </trkpt>
      <trkpt lat="44.06278" lon="3.0253">
        <ele>729.2</ele>
        <time>2018-05-19T09:15:52Z</time>
      </trkpt>
      <trkpt lat="44.06276" lon="3.02535">
        <ele>729.3</ele>
        <time>2018-05-19T09:15:55Z</time>
      </trkpt>
      <trkpt lat="44.06274" lon="3.0254">
        <ele>729.5</ele>
        <time>2018-05-19T09:15:58Z</time>
      </trkpt>
      <trkpt lat="44.06272" lon="3.02543">
        <ele>729.5</ele>
        <time>2018-05-19T09:16:00Z</time>
      </trkpt>
      <trkpt lat="44.06271" lon="3.02546">
        <ele>729.6</ele>
        <time>2018-05-19T09:16:02Z</time>
      </trkpt>
      <trkpt lat="44.06269" lon="3.02549">
        <ele>729.6</ele>
        <time>2018-05-19T09:16:04Z</time>
      </trkpt>
      <trkpt lat="44.06266" lon="3.02553">
        <ele>729.7</ele>
        <time>2018-05-19T09:16:06Z</time>
      </trkpt>
      <trkpt lat="44.06264" lon="3.02556">
        <ele>729.8</ele>
        <time>2018-05-19T09:16:08Z</time>
      </trkpt>
      <trkpt lat="44.06262" lon="3.02558">
        <ele>729.9</ele>
        <time>2018-05-19T09:16:10Z</time>
      </trkpt>
      <trkpt lat="44.06259" lon="3.0256">
        <ele>729.9</ele>
        <time>2018-05-19T09:16:13Z</time>
      </trkpt>
      <trkpt lat="44.06256" lon="3.02562">
        <ele>730</ele>
        <time>2018-05-19T09:16:16Z</time>
      </trkpt>
      <trkpt lat="44.06253" lon="3.02566">
        <ele>730</ele>
        <time>2018-05-19T09:16:19Z</time>
      </trkpt>
      <trkpt lat="44.06251" lon="3.02568">
        <ele>730.1</ele>
        <time>2018-05-19T09:16:21Z</time>
      </trkpt>
      <trkpt lat="44.06248" lon="3.0257">
        <ele>730.1</ele>
        <time>2018-05-19T09:16:23Z</time>
      </trkpt>
      <trkpt lat="44.06245" lon="3.02571">
        <ele>730.2</ele>
        <time>2018-05-19T09:16:25Z</time>
      </trkpt>
      <trkpt lat="44.06243" lon="3.02572">
        <ele>730.2</ele>
        <time>2018-05-19T09:16:27Z</time>
      </trkpt>
      <trkpt lat="44.0624" lon="3.02574">
        <ele>730.3</ele>
        <time>2018-05-19T09:16:29Z</time>
      </trkpt>
      <trkpt lat="44.06236" lon="3.02577">
        <ele>730.4</ele>
        <time>2018-05-19T09:16:32Z</time>
      </trkpt>
      <trkpt lat="44.06233" lon="3.02579">
        <ele>730.5</ele>
        <time>2018-05-19T09:16:35Z</time>
      </trkpt>
      <trkpt lat="44.0623" lon="3.02581">
        <ele>730.6</ele>
        <time>2018-05-19T09:16:37Z</time>
      </trkpt>
      <trkpt lat="44.06227" lon="3.02582">
        <ele>730.6</ele>
        <time>2018-05-19T09:16:39Z</time>
      </trkpt>
      <trkpt lat="44.06224" lon="3.02583">
        <ele>730.7</ele>
        <time>2018-05-19T09:16:41Z</time>
      </trkpt>
      <trkpt lat="44.06221" lon="3.02586">
        <ele>730.8</ele>
        <time>2018-05-19T09:16:43Z</time>
      </trkpt>
      <trkpt lat="44.06219" lon="3.02588">
        <ele>730.8</ele>
        <time>2018-05-19T09:16:45Z</time>
      </trkpt>
      <trkpt lat="44.06217" lon="3.02591">
        <ele>730.9</ele>
        <time>2018-05-19T09:16:47Z</time>
      </trkpt>
      <trkpt lat="44.06214" lon="3.02592">
        <ele>730.9</ele>
        <time>2018-05-19T09:16:49Z</time>
      </trkpt>
      <trkpt lat="44.06211" lon="3.02594">
        <ele>731</ele>
        <time>2018-05-19T09:16:51Z</time>
      </trkpt>
      <trkpt lat="44.06209" lon="3.02595">
        <ele>731</ele>
        <time>2018-05-19T09:16:53Z</time>
      </trkpt>
      <trkpt lat="44.06206" lon="3.02597">
        <ele>731</ele>
        <time>2018-05-19T09:16:55Z</time>
      </trkpt>
      <trkpt lat="44.06202" lon="3.02598">
        <ele>731</ele>
        <time>2018-05-19T09:16:57Z</time>
      </trkpt>
      <trkpt lat="44.06199" lon="3.026">
        <ele>731.1</ele>
        <time>2018-05-19T09:16:59Z</time>
      </trkpt>
      <trkpt lat="44.06196" lon="3.02602">
        <ele>731.1</ele>
        <time>2018-05-19T09:17:01Z</time>
      </trkpt>
      <trkpt lat="44.06193" lon="3.02603">
        <ele>731.1</ele>
        <time>2018-05-19T09:17:03Z</time>
      </trkpt>
      <trkpt lat="44.0619" lon="3.02604">
        <ele>731.1</ele>
        <time>2018-05-19T09:17:05Z</time>
      </trkpt>
      <trkpt lat="44.06187" lon="3.02605">
        <ele>731.1</ele>
        <time>2018-05-19T09:17:07Z</time>
      </trkpt>
      <trkpt lat="44.06184" lon="3.02606">
        <ele>731.1</ele>
        <time>2018-05-19T09:17:09Z</time>
      </trkpt>
      <trkpt lat="44.06182" lon="3.02608">
        <ele>731</ele>
        <time>2018-05-19T09:17:12Z</time>
      </trkpt>
      <trkpt lat="44.06179" lon="3.02612">
        <ele>731</ele>
        <time>2018-05-19T09:18:44Z</time>
      </trkpt>
      <trkpt lat="44.0618" lon="3.02618">
        <ele>731</ele>
        <time>2018-05-19T09:18:46Z</time>
      </trkpt>
      <trkpt lat="44.06182" lon="3.02621">
        <ele>731</ele>
        <time>2018-05-19T09:18:47Z</time>
      </trkpt>
      <trkpt lat="44.06184" lon="3.02623">
        <ele>731</ele>
        <time>2018-05-19T09:18:48Z</time>
      </trkpt>
      <trkpt lat="44.06189" lon="3.02626">
        <ele>730.5</ele>
        <time>2018-05-19T09:18:50Z</time>
      </trkpt>
      <trkpt lat="44.06192" lon="3.02627">
        <ele>730.1</ele>
        <time>2018-05-19T09:18:51Z</time>
      </trkpt>
      <trkpt lat="44.06196" lon="3.02629">
        <ele>729.5</ele>
        <time>2018-05-19T09:18:52Z</time>
      </trkpt>
      <trkpt lat="44.06199" lon="3.02632">
        <ele>728.8</ele>
        <time>2018-05-19T09:18:53Z</time>
      </trkpt>
      <trkpt lat="44.06202" lon="3.02635">
        <ele>728.3</ele>
        <time>2018-05-19T09:18:54Z</time>
      </trkpt>
      <trkpt lat="44.06199" lon="3.02636">
        <ele>728.8</ele>
        <time>2018-05-19T09:19:03Z</time>
      </trkpt>
      <trkpt lat="44.06196" lon="3.02635">
        <ele>729.5</ele>
        <time>2018-05-19T09:20:55Z</time>
      </trkpt>
      <trkpt lat="44.06193" lon="3.02633">
        <ele>730.3</ele>
        <time>2018-05-19T09:20:57Z</time>
      </trkpt>
      <trkpt lat="44.0619" lon="3.02629">
        <ele>730.9</ele>
        <time>2018-05-19T09:20:59Z</time>
      </trkpt>
      <trkpt lat="44.06188" lon="3.02625">
        <ele>731</ele>
        <time>2018-05-19T09:21:01Z</time>
      </trkpt>
      <trkpt lat="44.06185" lon="3.02621">
        <ele>731</ele>
        <time>2018-05-19T09:21:03Z</time>
      </trkpt>
      <trkpt lat="44.06182" lon="3.02618">
        <ele>731</ele>
        <time>2018-05-19T09:21:05Z</time>
      </trkpt>
      <trkpt lat="44.06178" lon="3.02613">
        <ele>731</ele>
        <time>2018-05-19T09:21:07Z</time>
      </trkpt>
      <trkpt lat="44.06176" lon="3.0261">
        <ele>731</ele>
        <time>2018-05-19T09:21:09Z</time>
      </trkpt>
      <trkpt lat="44.06173" lon="3.02606">
        <ele>731</ele>
        <time>2018-05-19T09:21:15Z</time>
      </trkpt>
      <trkpt lat="44.0617" lon="3.02603">
        <ele>730.8</ele>
        <time>2018-05-19T09:21:17Z</time>
      </trkpt>
      <trkpt lat="44.06166" lon="3.02599">
        <ele>730.5</ele>
        <time>2018-05-19T09:21:19Z</time>
      </trkpt>
      <trkpt lat="44.06163" lon="3.02595">
        <ele>730.3</ele>
        <time>2018-05-19T09:21:21Z</time>
      </trkpt>
      <trkpt lat="44.0616" lon="3.02588">
        <ele>729.3</ele>
        <time>2018-05-19T09:21:23Z</time>
      </trkpt>
      <trkpt lat="44.06158" lon="3.02582">
        <ele>728.9</ele>
        <time>2018-05-19T09:21:25Z</time>
      </trkpt>
      <trkpt lat="44.06157" lon="3.02575">
        <ele>728.4</ele>
        <time>2018-05-19T09:21:27Z</time>
      </trkpt>
      <trkpt lat="44.06156" lon="3.02568">
        <ele>727.8</ele>
        <time>2018-05-19T09:21:29Z</time>
      </trkpt>
      <trkpt lat="44.06156" lon="3.0256">
        <ele>727.3</ele>
        <time>2018-05-19T09:21:31Z</time>
      </trkpt>
      <trkpt lat="44.06155" lon="3.02556">
        <ele>727.1</ele>
        <time>2018-05-19T09:21:32Z</time>
      </trkpt>
      <trkpt lat="44.06155" lon="3.02552">
        <ele>726.9</ele>
        <time>2018-05-19T09:21:33Z</time>
      </trkpt>
      <trkpt lat="44.06155" lon="3.02548">
        <ele>726.7</ele>
        <time>2018-05-19T09:21:34Z</time>
      </trkpt>
      <trkpt lat="44.06155" lon="3.02543">
        <ele>726.5</ele>
        <time>2018-05-19T09:21:35Z</time>
      </trkpt>
      <trkpt lat="44.06154" lon="3.02539">
        <ele>726.4</ele>
        <time>2018-05-19T09:21:36Z</time>
      </trkpt>
      <trkpt lat="44.06154" lon="3.02535">
        <ele>726.4</ele>
        <time>2018-05-19T09:21:37Z</time>
      </trkpt>
      <trkpt lat="44.06154" lon="3.02531">
        <ele>726.3</ele>
        <time>2018-05-19T09:21:38Z</time>
      </trkpt>
      <trkpt lat="44.06153" lon="3.02527">
        <ele>726.2</ele>
        <time>2018-05-19T09:21:39Z</time>
      </trkpt>
      <trkpt lat="44.06153" lon="3.02523">
        <ele>726.2</ele>
        <time>2018-05-19T09:21:40Z</time>
      </trkpt>
      <trkpt lat="44.06152" lon="3.02518">
        <ele>726.1</ele>
        <time>2018-05-19T09:21:41Z</time>
      </trkpt>
      <trkpt lat="44.06152" lon="3.02513">
        <ele>726</ele>
        <time>2018-05-19T09:21:42Z</time>
      </trkpt>
      <trkpt lat="44.06152" lon="3.02508">
        <ele>725.9</ele>
        <time>2018-05-19T09:21:43Z</time>
      </trkpt>
      <trkpt lat="44.06151" lon="3.02502">
        <ele>725.9</ele>
        <time>2018-05-19T09:21:44Z</time>
      </trkpt>
      <trkpt lat="44.06151" lon="3.02496">
        <ele>725.8</ele>
        <time>2018-05-19T09:21:45Z</time>
      </trkpt>
      <trkpt lat="44.0615" lon="3.0249">
        <ele>725.7</ele>
        <time>2018-05-19T09:21:46Z</time>
      </trkpt>
      <trkpt lat="44.0615" lon="3.02481">
        <ele>725.5</ele>
        <time>2018-05-19T09:21:47Z</time>
      </trkpt>
      <trkpt lat="44.0615" lon="3.02472">
        <ele>725.1</ele>
        <time>2018-05-19T09:21:48Z</time>
      </trkpt>
      <trkpt lat="44.0615" lon="3.02463">
        <ele>724.8</ele>
        <time>2018-05-19T09:21:49Z</time>
      </trkpt>
      <trkpt lat="44.0615" lon="3.02454">
        <ele>724.4</ele>
        <time>2018-05-19T09:21:50Z</time>
      </trkpt>
      <trkpt lat="44.0615" lon="3.02444">
        <ele>724.1</ele>
        <time>2018-05-19T09:21:51Z</time>
      </trkpt>
      <trkpt lat="44.06149" lon="3.02432">
        <ele>723.8</ele>
        <time>2018-05-19T09:21:52Z</time>
      </trkpt>
      <trkpt lat="44.06148" lon="3.02419">
        <ele>723.5</ele>
        <time>2018-05-19T09:21:53Z</time>
      </trkpt>
      <trkpt lat="44.06147" lon="3.02407">
        <ele>723.1</ele>
        <time>2018-05-19T09:21:54Z</time>
      </trkpt>
      <trkpt lat="44.06147" lon="3.02394">
        <ele>722.6</ele>
        <time>2018-05-19T09:21:55Z</time>
      </trkpt>
      <trkpt lat="44.06146" lon="3.02382">
        <ele>722.2</ele>
        <time>2018-05-19T09:21:56Z</time>
      </trkpt>
      <trkpt lat="44.06145" lon="3.0237">
        <ele>721.9</ele>
        <time>2018-05-19T09:21:57Z</time>
      </trkpt>
      <trkpt lat="44.06145" lon="3.02358">
        <ele>721.8</ele>
        <time>2018-05-19T09:21:58Z</time>
      </trkpt>
      <trkpt lat="44.06144" lon="3.02348">
        <ele>721.6</ele>
        <time>2018-05-19T09:21:59Z</time>
      </trkpt>
      <trkpt lat="44.06143" lon="3.02341">
        <ele>721.5</ele>
        <time>2018-05-19T09:22:00Z</time>
      </trkpt>
      <trkpt lat="44.06142" lon="3.02333">
        <ele>721.4</ele>
        <time>2018-05-19T09:22:01Z</time>
      </trkpt>
      <trkpt lat="44.06141" lon="3.02324">
        <ele>721.3</ele>
        <time>2018-05-19T09:22:02Z</time>
      </trkpt>
      <trkpt lat="44.0614" lon="3.02318">
        <ele>721.2</ele>
        <time>2018-05-19T09:22:03Z</time>
      </trkpt>
      <trkpt lat="44.0614" lon="3.02313">
        <ele>721.2</ele>
        <time>2018-05-19T09:22:04Z</time>
      </trkpt>
      <trkpt lat="44.0614" lon="3.02309">
        <ele>721.1</ele>
        <time>2018-05-19T09:22:05Z</time>
      </trkpt>
      <trkpt lat="44.0614" lon="3.02304">
        <ele>721.1</ele>
        <time>2018-05-19T09:22:06Z</time>
      </trkpt>
      <trkpt lat="44.0614" lon="3.02298">
        <ele>721</ele>
        <time>2018-05-19T09:22:07Z</time>
      </trkpt>
      <trkpt lat="44.0614" lon="3.02293">
        <ele>721</ele>
        <time>2018-05-19T09:22:08Z</time>
      </trkpt>
      <trkpt lat="44.0614" lon="3.02289">
        <ele>721</ele>
        <time>2018-05-19T09:22:09Z</time>
      </trkpt>
      <trkpt lat="44.0614" lon="3.02283">
        <ele>721</ele>
        <time>2018-05-19T09:22:10Z</time>
      </trkpt>
      <trkpt lat="44.0614" lon="3.02276">
        <ele>721</ele>
        <time>2018-05-19T09:22:11Z</time>
      </trkpt>
      <trkpt lat="44.0614" lon="3.02271">
        <ele>721</ele>
        <time>2018-05-19T09:22:12Z</time>
      </trkpt>
      <trkpt lat="44.0614" lon="3.02267">
        <ele>721</ele>
        <time>2018-05-19T09:22:13Z</time>
      </trkpt>
      <trkpt lat="44.0614" lon="3.02261">
        <ele>721.1</ele>
        <time>2018-05-19T09:22:14Z</time>
      </trkpt>
      <trkpt lat="44.0614" lon="3.02256">
        <ele>721.1</ele>
        <time>2018-05-19T09:22:15Z</time>
      </trkpt>
      <trkpt lat="44.0614" lon="3.02252">
        <ele>721.2</ele>
        <time>2018-05-19T09:22:16Z</time>
      </trkpt>
      <trkpt lat="44.0614" lon="3.02247">
        <ele>721.3</ele>
        <time>2018-05-19T09:22:17Z</time>
      </trkpt>
      <trkpt lat="44.0614" lon="3.02243">
        <ele>721.3</ele>
        <time>2018-05-19T09:22:18Z</time>
      </trkpt>
      <trkpt lat="44.06141" lon="3.02239">
        <ele>721.4</ele>
        <time>2018-05-19T09:22:19Z</time>
      </trkpt>
      <trkpt lat="44.06141" lon="3.02235">
        <ele>721.4</ele>
        <time>2018-05-19T09:22:20Z</time>
      </trkpt>
      <trkpt lat="44.06141" lon="3.02231">
        <ele>721.5</ele>
        <time>2018-05-19T09:22:21Z</time>
      </trkpt>
      <trkpt lat="44.06142" lon="3.02226">
        <ele>721.6</ele>
        <time>2018-05-19T09:22:22Z</time>
      </trkpt>
      <trkpt lat="44.06142" lon="3.02222">
        <ele>721.6</ele>
        <time>2018-05-19T09:22:23Z</time>
      </trkpt>
      <trkpt lat="44.06143" lon="3.02217">
        <ele>721.7</ele>
        <time>2018-05-19T09:22:24Z</time>
      </trkpt>
      <trkpt lat="44.06143" lon="3.02213">
        <ele>721.8</ele>
        <time>2018-05-19T09:22:25Z</time>
      </trkpt>
      <trkpt lat="44.06144" lon="3.02208">
        <ele>721.8</ele>
        <time>2018-05-19T09:22:26Z</time>
      </trkpt>
      <trkpt lat="44.06144" lon="3.02203">
        <ele>721.9</ele>
        <time>2018-05-19T09:22:27Z</time>
      </trkpt>
      <trkpt lat="44.06145" lon="3.02198">
        <ele>722</ele>
        <time>2018-05-19T09:22:28Z</time>
      </trkpt>
      <trkpt lat="44.06146" lon="3.02192">
        <ele>722.1</ele>
        <time>2018-05-19T09:22:29Z</time>
      </trkpt>
      <trkpt lat="44.06147" lon="3.02186">
        <ele>722.2</ele>
        <time>2018-05-19T09:22:30Z</time>
      </trkpt>
      <trkpt lat="44.06148" lon="3.0218">
        <ele>722.3</ele>
        <time>2018-05-19T09:22:31Z</time>
      </trkpt>
      <trkpt lat="44.06149" lon="3.02175">
        <ele>722.4</ele>
        <time>2018-05-19T09:22:32Z</time>
      </trkpt>
      <trkpt lat="44.0615" lon="3.02166">
        <ele>722.6</ele>
        <time>2018-05-19T09:22:33Z</time>
      </trkpt>
      <trkpt lat="44.06151" lon="3.02159">
        <ele>722.8</ele>
        <time>2018-05-19T09:22:34Z</time>
      </trkpt>
      <trkpt lat="44.06151" lon="3.02152">
        <ele>723</ele>
        <time>2018-05-19T09:22:35Z</time>
      </trkpt>
      <trkpt lat="44.06151" lon="3.02145">
        <ele>723.2</ele>
        <time>2018-05-19T09:22:36Z</time>
      </trkpt>
      <trkpt lat="44.06153" lon="3.02138">
        <ele>723.3</ele>
        <time>2018-05-19T09:22:37Z</time>
      </trkpt>
      <trkpt lat="44.06153" lon="3.02131">
        <ele>723.5</ele>
        <time>2018-05-19T09:22:38Z</time>
      </trkpt>
      <trkpt lat="44.06155" lon="3.02125">
        <ele>723.7</ele>
        <time>2018-05-19T09:22:39Z</time>
      </trkpt>
      <trkpt lat="44.06156" lon="3.02117">
        <ele>723.9</ele>
        <time>2018-05-19T09:22:40Z</time>
      </trkpt>
      <trkpt lat="44.06158" lon="3.02109">
        <ele>724.2</ele>
        <time>2018-05-19T09:22:41Z</time>
      </trkpt>
      <trkpt lat="44.06158" lon="3.02102">
        <ele>724.4</ele>
        <time>2018-05-19T09:22:42Z</time>
      </trkpt>
      <trkpt lat="44.06159" lon="3.02096">
        <ele>724.6</ele>
        <time>2018-05-19T09:22:43Z</time>
      </trkpt>
      <trkpt lat="44.06159" lon="3.02088">
        <ele>724.8</ele>
        <time>2018-05-19T09:22:44Z</time>
      </trkpt>
      <trkpt lat="44.06161" lon="3.02081">
        <ele>725</ele>
        <time>2018-05-19T09:22:45Z</time>
      </trkpt>
      <trkpt lat="44.06162" lon="3.02075">
        <ele>725.2</ele>
        <time>2018-05-19T09:22:46Z</time>
      </trkpt>
      <trkpt lat="44.06163" lon="3.02069">
        <ele>725.3</ele>
        <time>2018-05-19T09:22:47Z</time>
      </trkpt>
      <trkpt lat="44.06165" lon="3.02062">
        <ele>725.6</ele>
        <time>2018-05-19T09:22:48Z</time>
      </trkpt>
      <trkpt lat="44.06166" lon="3.02057">
        <ele>725.7</ele>
        <time>2018-05-19T09:22:49Z</time>
      </trkpt>
      <trkpt lat="44.06166" lon="3.02051">
        <ele>725.9</ele>
        <time>2018-05-19T09:22:50Z</time>
      </trkpt>
      <trkpt lat="44.06167" lon="3.02045">
        <ele>726.1</ele>
        <time>2018-05-19T09:22:51Z</time>
      </trkpt>
      <trkpt lat="44.06168" lon="3.02038">
        <ele>726.4</ele>
        <time>2018-05-19T09:22:52Z</time>
      </trkpt>
      <trkpt lat="44.06169" lon="3.02031">
        <ele>726.7</ele>
        <time>2018-05-19T09:22:53Z</time>
      </trkpt>
      <trkpt lat="44.06169" lon="3.02025">
        <ele>726.8</ele>
        <time>2018-05-19T09:22:54Z</time>
      </trkpt>
      <trkpt lat="44.0617" lon="3.0202">
        <ele>726.9</ele>
        <time>2018-05-19T09:22:55Z</time>
      </trkpt>
      <trkpt lat="44.06171" lon="3.02014">
        <ele>727.1</ele>
        <time>2018-05-19T09:22:56Z</time>
      </trkpt>
      <trkpt lat="44.06172" lon="3.02008">
        <ele>727.2</ele>
        <time>2018-05-19T09:22:57Z</time>
      </trkpt>
      <trkpt lat="44.06173" lon="3.02002">
        <ele>727.4</ele>
        <time>2018-05-19T09:22:58Z</time>
      </trkpt>
      <trkpt lat="44.06174" lon="3.01996">
        <ele>727.6</ele>
        <time>2018-05-19T09:22:59Z</time>
      </trkpt>
      <trkpt lat="44.06174" lon="3.01992">
        <ele>727.7</ele>
        <time>2018-05-19T09:23:00Z</time>
      </trkpt>
      <trkpt lat="44.06174" lon="3.01986">
        <ele>727.9</ele>
        <time>2018-05-19T09:23:01Z</time>
      </trkpt>
      <trkpt lat="44.06173" lon="3.0198">
        <ele>728</ele>
        <time>2018-05-19T09:23:02Z</time>
      </trkpt>
      <trkpt lat="44.06173" lon="3.01973">
        <ele>728.3</ele>
        <time>2018-05-19T09:23:03Z</time>
      </trkpt>
      <trkpt lat="44.06172" lon="3.01968">
        <ele>728.5</ele>
        <time>2018-05-19T09:23:04Z</time>
      </trkpt>
      <trkpt lat="44.06171" lon="3.01963">
        <ele>728.7</ele>
        <time>2018-05-19T09:23:05Z</time>
      </trkpt>
      <trkpt lat="44.06168" lon="3.01959">
        <ele>728.9</ele>
        <time>2018-05-19T09:23:06Z</time>
      </trkpt>
      <trkpt lat="44.06167" lon="3.01953">
        <ele>729.2</ele>
        <time>2018-05-19T09:23:07Z</time>
      </trkpt>
      <trkpt lat="44.06165" lon="3.01948">
        <ele>729.4</ele>
        <time>2018-05-19T09:23:08Z</time>
      </trkpt>
      <trkpt lat="44.06164" lon="3.01943">
        <ele>729.6</ele>
        <time>2018-05-19T09:23:09Z</time>
      </trkpt>
      <trkpt lat="44.06162" lon="3.01938">
        <ele>729.9</ele>
        <time>2018-05-19T09:23:10Z</time>
      </trkpt>
      <trkpt lat="44.0616" lon="3.01933">
        <ele>730.1</ele>
        <time>2018-05-19T09:23:11Z</time>
      </trkpt>
      <trkpt lat="44.06158" lon="3.01928">
        <ele>730.5</ele>
        <time>2018-05-19T09:23:12Z</time>
      </trkpt>
      <trkpt lat="44.06156" lon="3.01924">
        <ele>730.7</ele>
        <time>2018-05-19T09:23:13Z</time>
      </trkpt>
      <trkpt lat="44.06154" lon="3.0192">
        <ele>730.9</ele>
        <time>2018-05-19T09:23:14Z</time>
      </trkpt>
      <trkpt lat="44.06153" lon="3.01915">
        <ele>731.1</ele>
        <time>2018-05-19T09:23:15Z</time>
      </trkpt>
      <trkpt lat="44.06151" lon="3.01911">
        <ele>731.2</ele>
        <time>2018-05-19T09:23:16Z</time>
      </trkpt>
      <trkpt lat="44.06149" lon="3.01907">
        <ele>731.4</ele>
        <time>2018-05-19T09:23:17Z</time>
      </trkpt>
      <trkpt lat="44.06147" lon="3.01903">
        <ele>731.6</ele>
        <time>2018-05-19T09:23:18Z</time>
      </trkpt>
      <trkpt lat="44.06145" lon="3.01899">
        <ele>731.7</ele>
        <time>2018-05-19T09:23:19Z</time>
      </trkpt>
      <trkpt lat="44.06143" lon="3.01895">
        <ele>731.8</ele>
        <time>2018-05-19T09:23:20Z</time>
      </trkpt>
      <trkpt lat="44.06142" lon="3.0189">
        <ele>731.9</ele>
        <time>2018-05-19T09:23:21Z</time>
      </trkpt>
      <trkpt lat="44.0614" lon="3.01886">
        <ele>732</ele>
        <time>2018-05-19T09:23:22Z</time>
      </trkpt>
      <trkpt lat="44.06138" lon="3.01882">
        <ele>732.1</ele>
        <time>2018-05-19T09:23:23Z</time>
      </trkpt>
      <trkpt lat="44.06136" lon="3.01877">
        <ele>732.3</ele>
        <time>2018-05-19T09:23:24Z</time>
      </trkpt>
      <trkpt lat="44.06133" lon="3.01873">
        <ele>732.4</ele>
        <time>2018-05-19T09:23:25Z</time>
      </trkpt>
      <trkpt lat="44.06131" lon="3.01869">
        <ele>732.5</ele>
        <time>2018-05-19T09:23:26Z</time>
      </trkpt>
      <trkpt lat="44.06129" lon="3.01865">
        <ele>732.6</ele>
        <time>2018-05-19T09:23:27Z</time>
      </trkpt>
      <trkpt lat="44.06126" lon="3.01861">
        <ele>732.8</ele>
        <time>2018-05-19T09:23:28Z</time>
      </trkpt>
      <trkpt lat="44.06124" lon="3.01857">
        <ele>732.9</ele>
        <time>2018-05-19T09:23:29Z</time>
      </trkpt>
      <trkpt lat="44.06122" lon="3.01853">
        <ele>733.1</ele>
        <time>2018-05-19T09:23:30Z</time>
      </trkpt>
      <trkpt lat="44.0612" lon="3.01849">
        <ele>733.2</ele>
        <time>2018-05-19T09:23:31Z</time>
      </trkpt>
      <trkpt lat="44.06118" lon="3.01844">
        <ele>733.4</ele>
        <time>2018-05-19T09:23:32Z</time>
      </trkpt>
      <trkpt lat="44.06116" lon="3.0184">
        <ele>733.6</ele>
        <time>2018-05-19T09:23:33Z</time>
      </trkpt>
      <trkpt lat="44.06113" lon="3.01836">
        <ele>733.8</ele>
        <time>2018-05-19T09:23:34Z</time>
      </trkpt>
      <trkpt lat="44.06111" lon="3.01832">
        <ele>734</ele>
        <time>2018-05-19T09:23:35Z</time>
      </trkpt>
      <trkpt lat="44.06108" lon="3.01828">
        <ele>734.1</ele>
        <time>2018-05-19T09:23:36Z</time>
      </trkpt>
      <trkpt lat="44.06106" lon="3.01823">
        <ele>734.3</ele>
        <time>2018-05-19T09:23:37Z</time>
      </trkpt>
      <trkpt lat="44.06103" lon="3.01819">
        <ele>734.4</ele>
        <time>2018-05-19T09:23:38Z</time>
      </trkpt>
      <trkpt lat="44.06101" lon="3.01815">
        <ele>734.6</ele>
        <time>2018-05-19T09:23:39Z</time>
      </trkpt>
      <trkpt lat="44.061" lon="3.01811">
        <ele>734.7</ele>
        <time>2018-05-19T09:23:40Z</time>
      </trkpt>
      <trkpt lat="44.06098" lon="3.01807">
        <ele>734.9</ele>
        <time>2018-05-19T09:23:41Z</time>
      </trkpt>
      <trkpt lat="44.06097" lon="3.01803">
        <ele>735</ele>
        <time>2018-05-19T09:23:42Z</time>
      </trkpt>
      <trkpt lat="44.06096" lon="3.01798">
        <ele>735</ele>
        <time>2018-05-19T09:23:43Z</time>
      </trkpt>
      <trkpt lat="44.06096" lon="3.01795">
        <ele>735</ele>
        <time>2018-05-19T09:23:44Z</time>
      </trkpt>
      <trkpt lat="44.06097" lon="3.01791">
        <ele>734.8</ele>
        <time>2018-05-19T09:23:45Z</time>
      </trkpt>
      <trkpt lat="44.061" lon="3.01784">
        <ele>734.4</ele>
        <time>2018-05-19T09:23:47Z</time>
      </trkpt>
      <trkpt lat="44.06101" lon="3.01781">
        <ele>734.2</ele>
        <time>2018-05-19T09:23:48Z</time>
      </trkpt>
      <trkpt lat="44.06104" lon="3.01778">
        <ele>733.9</ele>
        <time>2018-05-19T09:23:49Z</time>
      </trkpt>
      <trkpt lat="44.06106" lon="3.01774">
        <ele>733.6</ele>
        <time>2018-05-19T09:23:50Z</time>
      </trkpt>
      <trkpt lat="44.06109" lon="3.01771">
        <ele>733.4</ele>
        <time>2018-05-19T09:23:51Z</time>
      </trkpt>
      <trkpt lat="44.06111" lon="3.01768">
        <ele>733.3</ele>
        <time>2018-05-19T09:23:52Z</time>
      </trkpt>
      <trkpt lat="44.06114" lon="3.01764">
        <ele>733.1</ele>
        <time>2018-05-19T09:23:53Z</time>
      </trkpt>
      <trkpt lat="44.06116" lon="3.01761">
        <ele>733</ele>
        <time>2018-05-19T09:23:54Z</time>
      </trkpt>
      <trkpt lat="44.06119" lon="3.01758">
        <ele>732.9</ele>
        <time>2018-05-19T09:23:55Z</time>
      </trkpt>
      <trkpt lat="44.06122" lon="3.01755">
        <ele>732.8</ele>
        <time>2018-05-19T09:23:56Z</time>
      </trkpt>
      <trkpt lat="44.06125" lon="3.01752">
        <ele>732.6</ele>
        <time>2018-05-19T09:23:57Z</time>
      </trkpt>
      <trkpt lat="44.06128" lon="3.01748">
        <ele>732.5</ele>
        <time>2018-05-19T09:23:58Z</time>
      </trkpt>
      <trkpt lat="44.0613" lon="3.01745">
        <ele>732.4</ele>
        <time>2018-05-19T09:23:59Z</time>
      </trkpt>
      <trkpt lat="44.06133" lon="3.01742">
        <ele>732.3</ele>
        <time>2018-05-19T09:24:00Z</time>
      </trkpt>
      <trkpt lat="44.06136" lon="3.01739">
        <ele>732.2</ele>
        <time>2018-05-19T09:24:01Z</time>
      </trkpt>
      <trkpt lat="44.06139" lon="3.01735">
        <ele>732</ele>
        <time>2018-05-19T09:24:02Z</time>
      </trkpt>
      <trkpt lat="44.06141" lon="3.01732">
        <ele>731.9</ele>
        <time>2018-05-19T09:24:03Z</time>
      </trkpt>
      <trkpt lat="44.06144" lon="3.01728">
        <ele>731.7</ele>
        <time>2018-05-19T09:24:04Z</time>
      </trkpt>
      <trkpt lat="44.06147" lon="3.01724">
        <ele>731.6</ele>
        <time>2018-05-19T09:24:05Z</time>
      </trkpt>
      <trkpt lat="44.0615" lon="3.0172">
        <ele>731.5</ele>
        <time>2018-05-19T09:24:06Z</time>
      </trkpt>
      <trkpt lat="44.06153" lon="3.01716">
        <ele>731.2</ele>
        <time>2018-05-19T09:24:07Z</time>
      </trkpt>
      <trkpt lat="44.06157" lon="3.0171">
        <ele>730.8</ele>
        <time>2018-05-19T09:24:08Z</time>
      </trkpt>
      <trkpt lat="44.06161" lon="3.01705">
        <ele>730.4</ele>
        <time>2018-05-19T09:24:09Z</time>
      </trkpt>
      <trkpt lat="44.06165" lon="3.017">
        <ele>730.2</ele>
        <time>2018-05-19T09:24:10Z</time>
      </trkpt>
      <trkpt lat="44.06169" lon="3.01694">
        <ele>730</ele>
        <time>2018-05-19T09:24:11Z</time>
      </trkpt>
      <trkpt lat="44.06174" lon="3.01688">
        <ele>729.7</ele>
        <time>2018-05-19T09:24:12Z</time>
      </trkpt>
      <trkpt lat="44.06178" lon="3.01682">
        <ele>729.6</ele>
        <time>2018-05-19T09:24:13Z</time>
      </trkpt>
      <trkpt lat="44.06181" lon="3.01675">
        <ele>729.4</ele>
        <time>2018-05-19T09:24:14Z</time>
      </trkpt>
      <trkpt lat="44.06185" lon="3.01667">
        <ele>729.3</ele>
        <time>2018-05-19T09:24:15Z</time>
      </trkpt>
      <trkpt lat="44.0619" lon="3.0166">
        <ele>729.1</ele>
        <time>2018-05-19T09:24:16Z</time>
      </trkpt>
      <trkpt lat="44.06197" lon="3.01654">
        <ele>729</ele>
        <time>2018-05-19T09:24:17Z</time>
      </trkpt>
      <trkpt lat="44.06202" lon="3.01647">
        <ele>728.8</ele>
        <time>2018-05-19T09:24:18Z</time>
      </trkpt>
      <trkpt lat="44.06208" lon="3.0164">
        <ele>728.7</ele>
        <time>2018-05-19T09:24:19Z</time>
      </trkpt>
      <trkpt lat="44.06213" lon="3.01632">
        <ele>728.5</ele>
        <time>2018-05-19T09:24:20Z</time>
      </trkpt>
      <trkpt lat="44.06219" lon="3.01624">
        <ele>728.3</ele>
        <time>2018-05-19T09:24:21Z</time>
      </trkpt>
      <trkpt lat="44.06225" lon="3.01616">
        <ele>728.1</ele>
        <time>2018-05-19T09:24:22Z</time>
      </trkpt>
      <trkpt lat="44.06231" lon="3.01607">
        <ele>728</ele>
        <time>2018-05-19T09:24:23Z</time>
      </trkpt>
      <trkpt lat="44.06236" lon="3.016">
        <ele>727.8</ele>
        <time>2018-05-19T09:24:24Z</time>
      </trkpt>
      <trkpt lat="44.06241" lon="3.01591">
        <ele>727.6</ele>
        <time>2018-05-19T09:24:25Z</time>
      </trkpt>
      <trkpt lat="44.06247" lon="3.01584">
        <ele>727.4</ele>
        <time>2018-05-19T09:24:26Z</time>
      </trkpt>
      <trkpt lat="44.06251" lon="3.01577">
        <ele>727.1</ele>
        <time>2018-05-19T09:24:27Z</time>
      </trkpt>
      <trkpt lat="44.06255" lon="3.01569">
        <ele>726.9</ele>
        <time>2018-05-19T09:24:28Z</time>
      </trkpt>
      <trkpt lat="44.06259" lon="3.01561">
        <ele>726.6</ele>
        <time>2018-05-19T09:24:29Z</time>
      </trkpt>
      <trkpt lat="44.06263" lon="3.01554">
        <ele>726.4</ele>
        <time>2018-05-19T09:24:30Z</time>
      </trkpt>
      <trkpt lat="44.06266" lon="3.01548">
        <ele>726.2</ele>
        <time>2018-05-19T09:24:31Z</time>
      </trkpt>
      <trkpt lat="44.06271" lon="3.01541">
        <ele>726</ele>
        <time>2018-05-19T09:24:32Z</time>
      </trkpt>
      <trkpt lat="44.06275" lon="3.01535">
        <ele>725.8</ele>
        <time>2018-05-19T09:24:33Z</time>
      </trkpt>
      <trkpt lat="44.06278" lon="3.0153">
        <ele>725.6</ele>
        <time>2018-05-19T09:24:34Z</time>
      </trkpt>
      <trkpt lat="44.06281" lon="3.01525">
        <ele>725.5</ele>
        <time>2018-05-19T09:24:35Z</time>
      </trkpt>
      <trkpt lat="44.06284" lon="3.01518">
        <ele>725.2</ele>
        <time>2018-05-19T09:24:36Z</time>
      </trkpt>
      <trkpt lat="44.06288" lon="3.01512">
        <ele>725</ele>
        <time>2018-05-19T09:24:37Z</time>
      </trkpt>
      <trkpt lat="44.06291" lon="3.01507">
        <ele>724.8</ele>
        <time>2018-05-19T09:24:38Z</time>
      </trkpt>
      <trkpt lat="44.06294" lon="3.01503">
        <ele>724.6</ele>
        <time>2018-05-19T09:24:39Z</time>
      </trkpt>
      <trkpt lat="44.06297" lon="3.01497">
        <ele>724.4</ele>
        <time>2018-05-19T09:24:40Z</time>
      </trkpt>
      <trkpt lat="44.063" lon="3.01492">
        <ele>724.2</ele>
        <time>2018-05-19T09:24:41Z</time>
      </trkpt>
      <trkpt lat="44.06302" lon="3.01486">
        <ele>724</ele>
        <time>2018-05-19T09:24:42Z</time>
      </trkpt>
      <trkpt lat="44.06304" lon="3.01479">
        <ele>723.8</ele>
        <time>2018-05-19T09:24:43Z</time>
      </trkpt>
      <trkpt lat="44.06306" lon="3.01473">
        <ele>723.5</ele>
        <time>2018-05-19T09:24:44Z</time>
      </trkpt>
      <trkpt lat="44.06309" lon="3.01467">
        <ele>723.3</ele>
        <time>2018-05-19T09:24:45Z</time>
      </trkpt>
      <trkpt lat="44.0631" lon="3.0146">
        <ele>723</ele>
        <time>2018-05-19T09:24:46Z</time>
      </trkpt>
      <trkpt lat="44.06313" lon="3.01453">
        <ele>722.7</ele>
        <time>2018-05-19T09:24:47Z</time>
      </trkpt>
      <trkpt lat="44.06315" lon="3.01448">
        <ele>722.5</ele>
        <time>2018-05-19T09:24:48Z</time>
      </trkpt>
      <trkpt lat="44.06317" lon="3.01442">
        <ele>722.3</ele>
        <time>2018-05-19T09:24:49Z</time>
      </trkpt>
      <trkpt lat="44.06318" lon="3.01436">
        <ele>722.1</ele>
        <time>2018-05-19T09:24:50Z</time>
      </trkpt>
      <trkpt lat="44.06318" lon="3.01428">
        <ele>722</ele>
        <time>2018-05-19T09:24:51Z</time>
      </trkpt>
      <trkpt lat="44.0632" lon="3.01421">
        <ele>721.8</ele>
        <time>2018-05-19T09:24:52Z</time>
      </trkpt>
      <trkpt lat="44.0632" lon="3.01415">
        <ele>721.6</ele>
        <time>2018-05-19T09:24:53Z</time>
      </trkpt>
      <trkpt lat="44.06321" lon="3.0141">
        <ele>721.5</ele>
        <time>2018-05-19T09:24:54Z</time>
      </trkpt>
      <trkpt lat="44.06323" lon="3.01404">
        <ele>721.2</ele>
        <time>2018-05-19T09:24:55Z</time>
      </trkpt>
      <trkpt lat="44.06325" lon="3.01397">
        <ele>721</ele>
        <time>2018-05-19T09:24:56Z</time>
      </trkpt>
      <trkpt lat="44.06329" lon="3.0139">
        <ele>720.7</ele>
        <time>2018-05-19T09:24:57Z</time>
      </trkpt>
      <trkpt lat="44.06331" lon="3.01387">
        <ele>720.5</ele>
        <time>2018-05-19T09:24:58Z</time>
      </trkpt>
      <trkpt lat="44.06336" lon="3.01383">
        <ele>720.2</ele>
        <time>2018-05-19T09:24:59Z</time>
      </trkpt>
      <trkpt lat="44.06339" lon="3.0138">
        <ele>720.1</ele>
        <time>2018-05-19T09:25:00Z</time>
      </trkpt>
      <trkpt lat="44.06344" lon="3.01379">
        <ele>719.9</ele>
        <time>2018-05-19T09:25:01Z</time>
      </trkpt>
      <trkpt lat="44.0635" lon="3.01376">
        <ele>719.7</ele>
        <time>2018-05-19T09:25:02Z</time>
      </trkpt>
      <trkpt lat="44.06356" lon="3.01374">
        <ele>719.5</ele>
        <time>2018-05-19T09:25:03Z</time>
      </trkpt>
      <trkpt lat="44.06363" lon="3.01372">
        <ele>719.2</ele>
        <time>2018-05-19T09:25:04Z</time>
      </trkpt>
      <trkpt lat="44.0637" lon="3.01373">
        <ele>719</ele>
        <time>2018-05-19T09:25:05Z</time>
      </trkpt>
      <trkpt lat="44.06376" lon="3.01376">
        <ele>718.7</ele>
        <time>2018-05-19T09:25:06Z</time>
      </trkpt>
      <trkpt lat="44.06382" lon="3.01382">
        <ele>718.5</ele>
        <time>2018-05-19T09:25:07Z</time>
      </trkpt>
      <trkpt lat="44.06387" lon="3.0139">
        <ele>718.2</ele>
        <time>2018-05-19T09:25:08Z</time>
      </trkpt>
      <trkpt lat="44.06392" lon="3.01398">
        <ele>717.9</ele>
        <time>2018-05-19T09:25:09Z</time>
      </trkpt>
      <trkpt lat="44.06397" lon="3.01407">
        <ele>717.6</ele>
        <time>2018-05-19T09:25:10Z</time>
      </trkpt>
      <trkpt lat="44.06402" lon="3.01416">
        <ele>717.2</ele>
        <time>2018-05-19T09:25:11Z</time>
      </trkpt>
      <trkpt lat="44.06407" lon="3.01423">
        <ele>716.8</ele>
        <time>2018-05-19T09:25:12Z</time>
      </trkpt>
      <trkpt lat="44.06411" lon="3.01432">
        <ele>716.6</ele>
        <time>2018-05-19T09:25:13Z</time>
      </trkpt>
      <trkpt lat="44.06414" lon="3.01442">
        <ele>716.3</ele>
        <time>2018-05-19T09:25:14Z</time>
      </trkpt>
      <trkpt lat="44.06418" lon="3.0145">
        <ele>716</ele>
        <time>2018-05-19T09:25:15Z</time>
      </trkpt>
      <trkpt lat="44.06425" lon="3.01454">
        <ele>715.7</ele>
        <time>2018-05-19T09:25:16Z</time>
      </trkpt>
      <trkpt lat="44.06432" lon="3.01459">
        <ele>715.2</ele>
        <time>2018-05-19T09:25:17Z</time>
      </trkpt>
      <trkpt lat="44.06437" lon="3.0146">
        <ele>714.9</ele>
        <time>2018-05-19T09:25:18Z</time>
      </trkpt>
      <trkpt lat="44.06441" lon="3.0146">
        <ele>714.6</ele>
        <time>2018-05-19T09:25:19Z</time>
      </trkpt>
      <trkpt lat="44.06444" lon="3.01458">
        <ele>714.5</ele>
        <time>2018-05-19T09:25:20Z</time>
      </trkpt>
      <trkpt lat="44.06448" lon="3.01457">
        <ele>714.3</ele>
        <time>2018-05-19T09:25:21Z</time>
      </trkpt>
      <trkpt lat="44.06454" lon="3.01452">
        <ele>714</ele>
        <time>2018-05-19T09:25:23Z</time>
      </trkpt>
      <trkpt lat="44.06457" lon="3.0145">
        <ele>713.9</ele>
        <time>2018-05-19T09:25:24Z</time>
      </trkpt>
      <trkpt lat="44.06459" lon="3.01449">
        <ele>713.8</ele>
        <time>2018-05-19T09:25:25Z</time>
      </trkpt>
      <trkpt lat="44.06463" lon="3.01446">
        <ele>713.6</ele>
        <time>2018-05-19T09:25:26Z</time>
      </trkpt>
      <trkpt lat="44.06467" lon="3.01443">
        <ele>713.3</ele>
        <time>2018-05-19T09:25:27Z</time>
      </trkpt>
      <trkpt lat="44.06474" lon="3.01439">
        <ele>712.9</ele>
        <time>2018-05-19T09:25:29Z</time>
      </trkpt>
      <trkpt lat="44.06479" lon="3.01437">
        <ele>712.7</ele>
        <time>2018-05-19T09:25:30Z</time>
      </trkpt>
      <trkpt lat="44.06485" lon="3.01433">
        <ele>712.4</ele>
        <time>2018-05-19T09:25:31Z</time>
      </trkpt>
      <trkpt lat="44.06491" lon="3.0143">
        <ele>712.1</ele>
        <time>2018-05-19T09:25:32Z</time>
      </trkpt>
      <trkpt lat="44.06497" lon="3.01426">
        <ele>711.9</ele>
        <time>2018-05-19T09:25:33Z</time>
      </trkpt>
      <trkpt lat="44.06503" lon="3.01426">
        <ele>711.4</ele>
        <time>2018-05-19T09:25:34Z</time>
      </trkpt>
      <trkpt lat="44.06508" lon="3.01428">
        <ele>711</ele>
        <time>2018-05-19T09:25:35Z</time>
      </trkpt>
      <trkpt lat="44.06512" lon="3.01432">
        <ele>710.5</ele>
        <time>2018-05-19T09:25:36Z</time>
      </trkpt>
      <trkpt lat="44.06516" lon="3.01439">
        <ele>710</ele>
        <time>2018-05-19T09:25:37Z</time>
      </trkpt>
      <trkpt lat="44.0652" lon="3.01442">
        <ele>709.6</ele>
        <time>2018-05-19T09:25:38Z</time>
      </trkpt>
      <trkpt lat="44.06524" lon="3.01447">
        <ele>709.2</ele>
        <time>2018-05-19T09:25:39Z</time>
      </trkpt>
      <trkpt lat="44.06529" lon="3.01451">
        <ele>708.8</ele>
        <time>2018-05-19T09:25:40Z</time>
      </trkpt>
      <trkpt lat="44.06532" lon="3.0145">
        <ele>708.5</ele>
        <time>2018-05-19T09:25:41Z</time>
      </trkpt>
      <trkpt lat="44.06536" lon="3.01449">
        <ele>708.1</ele>
        <time>2018-05-19T09:25:42Z</time>
      </trkpt>
      <trkpt lat="44.06541" lon="3.01449">
        <ele>707.6</ele>
        <time>2018-05-19T09:25:43Z</time>
      </trkpt>
      <trkpt lat="44.06546" lon="3.01446">
        <ele>706.9</ele>
        <time>2018-05-19T09:25:44Z</time>
      </trkpt>
      <trkpt lat="44.06551" lon="3.01443">
        <ele>706.3</ele>
        <time>2018-05-19T09:25:45Z</time>
      </trkpt>
      <trkpt lat="44.06554" lon="3.0144">
        <ele>705.9</ele>
        <time>2018-05-19T09:25:46Z</time>
      </trkpt>
      <trkpt lat="44.06558" lon="3.01439">
        <ele>705.6</ele>
        <time>2018-05-19T09:25:47Z</time>
      </trkpt>
      <trkpt lat="44.06562" lon="3.01439">
        <ele>705.2</ele>
        <time>2018-05-19T09:25:49Z</time>
      </trkpt>
      <trkpt lat="44.06564" lon="3.01435">
        <ele>704.9</ele>
        <time>2018-05-19T09:25:51Z</time>
      </trkpt>
      <trkpt lat="44.06567" lon="3.01432">
        <ele>704.4</ele>
        <time>2018-05-19T09:25:52Z</time>
      </trkpt>
      <trkpt lat="44.0657" lon="3.01428">
        <ele>702.6</ele>
        <time>2018-05-19T09:25:53Z</time>
      </trkpt>
      <trkpt lat="44.06575" lon="3.01424">
        <ele>701.9</ele>
        <time>2018-05-19T09:25:55Z</time>
      </trkpt>
      <trkpt lat="44.06579" lon="3.01421">
        <ele>701.3</ele>
        <time>2018-05-19T09:25:56Z</time>
      </trkpt>
      <trkpt lat="44.06582" lon="3.01418">
        <ele>700.9</ele>
        <time>2018-05-19T09:25:57Z</time>
      </trkpt>
      <trkpt lat="44.06586" lon="3.01416">
        <ele>700.4</ele>
        <time>2018-05-19T09:25:59Z</time>
      </trkpt>
      <trkpt lat="44.06588" lon="3.01418">
        <ele>700.1</ele>
        <time>2018-05-19T09:26:04Z</time>
      </trkpt>
      <trkpt lat="44.06591" lon="3.01419">
        <ele>699.7</ele>
        <time>2018-05-19T09:26:13Z</time>
      </trkpt>
      <trkpt lat="44.06594" lon="3.01417">
        <ele>699.4</ele>
        <time>2018-05-19T09:26:15Z</time>
      </trkpt>
      <trkpt lat="44.06597" lon="3.01414">
        <ele>698.9</ele>
        <time>2018-05-19T09:26:17Z</time>
      </trkpt>
      <trkpt lat="44.06603" lon="3.01413">
        <ele>698.2</ele>
        <time>2018-05-19T09:26:19Z</time>
      </trkpt>
      <trkpt lat="44.06607" lon="3.01413">
        <ele>697.5</ele>
        <time>2018-05-19T09:26:20Z</time>
      </trkpt>
      <trkpt lat="44.06611" lon="3.01413">
        <ele>696.7</ele>
        <time>2018-05-19T09:26:21Z</time>
      </trkpt>
      <trkpt lat="44.06615" lon="3.01412">
        <ele>696.1</ele>
        <time>2018-05-19T09:26:22Z</time>
      </trkpt>
      <trkpt lat="44.06617" lon="3.01411">
        <ele>695.6</ele>
        <time>2018-05-19T09:26:23Z</time>
      </trkpt>
      <trkpt lat="44.06622" lon="3.0141">
        <ele>695.6</ele>
        <time>2018-05-19T09:26:25Z</time>
      </trkpt>
      <trkpt lat="44.06625" lon="3.0141">
        <ele>695.6</ele>
        <time>2018-05-19T09:26:26Z</time>
      </trkpt>
      <trkpt lat="44.0663" lon="3.01411">
        <ele>695.6</ele>
        <time>2018-05-19T09:26:28Z</time>
      </trkpt>
      <trkpt lat="44.06634" lon="3.01412">
        <ele>696.5</ele>
        <time>2018-05-19T09:26:29Z</time>
      </trkpt>
      <trkpt lat="44.06638" lon="3.01412">
        <ele>696.5</ele>
        <time>2018-05-19T09:26:30Z</time>
      </trkpt>
      <trkpt lat="44.06642" lon="3.01408">
        <ele>695.6</ele>
        <time>2018-05-19T09:26:32Z</time>
      </trkpt>
      <trkpt lat="44.06639" lon="3.01402">
        <ele>693.7</ele>
        <time>2018-05-19T09:26:34Z</time>
      </trkpt>
      <trkpt lat="44.06637" lon="3.01399">
        <ele>693.7</ele>
        <time>2018-05-19T09:26:35Z</time>
      </trkpt>
      <trkpt lat="44.06636" lon="3.01396">
        <ele>692.7</ele>
        <time>2018-05-19T09:26:36Z</time>
      </trkpt>
      <trkpt lat="44.06635" lon="3.0139">
        <ele>690.7</ele>
        <time>2018-05-19T09:26:38Z</time>
      </trkpt>
      <trkpt lat="44.06634" lon="3.01385">
        <ele>689.5</ele>
        <time>2018-05-19T09:26:53Z</time>
      </trkpt>
      <trkpt lat="44.06636" lon="3.01382">
        <ele>689.5</ele>
        <time>2018-05-19T09:26:57Z</time>
      </trkpt>
      <trkpt lat="44.06635" lon="3.01376">
        <ele>687.2</ele>
        <time>2018-05-19T09:26:59Z</time>
      </trkpt>
      <trkpt lat="44.06633" lon="3.0137">
        <ele>686.1</ele>
        <time>2018-05-19T09:27:01Z</time>
      </trkpt>
      <trkpt lat="44.06632" lon="3.01367">
        <ele>685.1</ele>
        <time>2018-05-19T09:27:03Z</time>
      </trkpt>
      <trkpt lat="44.0663" lon="3.01362">
        <ele>684</ele>
        <time>2018-05-19T09:27:06Z</time>
      </trkpt>
      <trkpt lat="44.06627" lon="3.01359">
        <ele>683</ele>
        <time>2018-05-19T09:27:08Z</time>
      </trkpt>
      <trkpt lat="44.06629" lon="3.01356">
        <ele>681.9</ele>
        <time>2018-05-19T09:27:12Z</time>
      </trkpt>
      <trkpt lat="44.06629" lon="3.01359">
        <ele>682.9</ele>
        <time>2018-05-19T09:27:18Z</time>
      </trkpt>
      <trkpt lat="44.06626" lon="3.0136">
        <ele>683</ele>
        <time>2018-05-19T09:27:40Z</time>
      </trkpt>
      <trkpt lat="44.06629" lon="3.01359">
        <ele>682.9</ele>
        <time>2018-05-19T09:27:44Z</time>
      </trkpt>
      <trkpt lat="44.06632" lon="3.01358">
        <ele>682.8</ele>
        <time>2018-05-19T09:27:51Z</time>
      </trkpt>
      <trkpt lat="44.06635" lon="3.01358">
        <ele>682.7</ele>
        <time>2018-05-19T09:28:34Z</time>
      </trkpt>
      <trkpt lat="44.06632" lon="3.01356">
        <ele>682.8</ele>
        <time>2018-05-19T09:28:37Z</time>
      </trkpt>
      <trkpt lat="44.06629" lon="3.01354">
        <ele>681.8</ele>
        <time>2018-05-19T09:28:41Z</time>
      </trkpt>
      <trkpt lat="44.06626" lon="3.01355">
        <ele>681.8</ele>
        <time>2018-05-19T09:28:45Z</time>
      </trkpt>
      <trkpt lat="44.06626" lon="3.01351">
        <ele>681.2</ele>
        <time>2018-05-19T09:28:52Z</time>
      </trkpt>
      <trkpt lat="44.06627" lon="3.01344">
        <ele>679.9</ele>
        <time>2018-05-19T09:28:55Z</time>
      </trkpt>
      <trkpt lat="44.06628" lon="3.01339">
        <ele>679.1</ele>
        <time>2018-05-19T09:28:56Z</time>
      </trkpt>
      <trkpt lat="44.06628" lon="3.01335">
        <ele>678.2</ele>
        <time>2018-05-19T09:28:57Z</time>
      </trkpt>
      <trkpt lat="44.06629" lon="3.01331">
        <ele>677.6</ele>
        <time>2018-05-19T09:28:58Z</time>
      </trkpt>
      <trkpt lat="44.06629" lon="3.01327">
        <ele>676.9</ele>
        <time>2018-05-19T09:29:00Z</time>
      </trkpt>
      <trkpt lat="44.06623" lon="3.01317">
        <ele>675.3</ele>
        <time>2018-05-19T09:29:02Z</time>
      </trkpt>
      <trkpt lat="44.06623" lon="3.01309">
        <ele>674.2</ele>
        <time>2018-05-19T09:29:03Z</time>
      </trkpt>
      <trkpt lat="44.0662" lon="3.01302">
        <ele>673.4</ele>
        <time>2018-05-19T09:29:04Z</time>
      </trkpt>
      <trkpt lat="44.06617" lon="3.01294">
        <ele>672.6</ele>
        <time>2018-05-19T09:29:05Z</time>
      </trkpt>
      <trkpt lat="44.06615" lon="3.01288">
        <ele>671.9</ele>
        <time>2018-05-19T09:29:06Z</time>
      </trkpt>
      <trkpt lat="44.06612" lon="3.01285">
        <ele>671.5</ele>
        <time>2018-05-19T09:29:07Z</time>
      </trkpt>
      <trkpt lat="44.06616" lon="3.01277">
        <ele>670.5</ele>
        <time>2018-05-19T09:29:09Z</time>
      </trkpt>
      <trkpt lat="44.06622" lon="3.01269">
        <ele>669.8</ele>
        <time>2018-05-19T09:29:10Z</time>
      </trkpt>
      <trkpt lat="44.06622" lon="3.01262">
        <ele>669.4</ele>
        <time>2018-05-19T09:29:11Z</time>
      </trkpt>
      <trkpt lat="44.06623" lon="3.01254">
        <ele>669</ele>
        <time>2018-05-19T09:29:12Z</time>
      </trkpt>
      <trkpt lat="44.06626" lon="3.01248">
        <ele>668.6</ele>
        <time>2018-05-19T09:29:13Z</time>
      </trkpt>
      <trkpt lat="44.06628" lon="3.01243">
        <ele>668.2</ele>
        <time>2018-05-19T09:29:14Z</time>
      </trkpt>
      <trkpt lat="44.0663" lon="3.01235">
        <ele>667.6</ele>
        <time>2018-05-19T09:29:15Z</time>
      </trkpt>
      <trkpt lat="44.06636" lon="3.01223">
        <ele>666.4</ele>
        <time>2018-05-19T09:29:16Z</time>
      </trkpt>
      <trkpt lat="44.06638" lon="3.0121">
        <ele>664.8</ele>
        <time>2018-05-19T09:29:17Z</time>
      </trkpt>
      <trkpt lat="44.06643" lon="3.01197">
        <ele>660.9</ele>
        <time>2018-05-19T09:29:18Z</time>
      </trkpt>
      <trkpt lat="44.06649" lon="3.01197">
        <ele>658.1</ele>
        <time>2018-05-19T09:29:19Z</time>
      </trkpt>
      <trkpt lat="44.06655" lon="3.01201">
        <ele>655.8</ele>
        <time>2018-05-19T09:29:20Z</time>
      </trkpt>
      <trkpt lat="44.06658" lon="3.01197">
        <ele>653.5</ele>
        <time>2018-05-19T09:29:21Z</time>
      </trkpt>
      <trkpt lat="44.06662" lon="3.01195">
        <ele>650.5</ele>
        <time>2018-05-19T09:29:22Z</time>
      </trkpt>
      <trkpt lat="44.06668" lon="3.01192">
        <ele>646.9</ele>
        <time>2018-05-19T09:29:23Z</time>
      </trkpt>
      <trkpt lat="44.06673" lon="3.01191">
        <ele>644</ele>
        <time>2018-05-19T09:29:24Z</time>
      </trkpt>
      <trkpt lat="44.06677" lon="3.01193">
        <ele>641.7</ele>
        <time>2018-05-19T09:29:25Z</time>
      </trkpt>
      <trkpt lat="44.06682" lon="3.01195">
        <ele>639.6</ele>
        <time>2018-05-19T09:29:26Z</time>
      </trkpt>
      <trkpt lat="44.06685" lon="3.01197">
        <ele>637.4</ele>
        <time>2018-05-19T09:29:27Z</time>
      </trkpt>
      <trkpt lat="44.06688" lon="3.01199">
        <ele>635.8</ele>
        <time>2018-05-19T09:29:28Z</time>
      </trkpt>
      <trkpt lat="44.06693" lon="3.012">
        <ele>633.1</ele>
        <time>2018-05-19T09:29:30Z</time>
      </trkpt>
      <trkpt lat="44.06699" lon="3.01201">
        <ele>630.9</ele>
        <time>2018-05-19T09:29:32Z</time>
      </trkpt>
      <trkpt lat="44.06702" lon="3.012">
        <ele>630.7</ele>
        <time>2018-05-19T09:29:33Z</time>
      </trkpt>
      <trkpt lat="44.06704" lon="3.01201">
        <ele>630.6</ele>
        <time>2018-05-19T09:29:34Z</time>
      </trkpt>
      <trkpt lat="44.06709" lon="3.01202">
        <ele>630.4</ele>
        <time>2018-05-19T09:29:36Z</time>
      </trkpt>
      <trkpt lat="44.06713" lon="3.01203">
        <ele>630.3</ele>
        <time>2018-05-19T09:29:38Z</time>
      </trkpt>
      <trkpt lat="44.06716" lon="3.01201">
        <ele>630.2</ele>
        <time>2018-05-19T09:29:40Z</time>
      </trkpt>
      <trkpt lat="44.06716" lon="3.01195">
        <ele>630</ele>
        <time>2018-05-19T09:29:44Z</time>
      </trkpt>
      <trkpt lat="44.06713" lon="3.01192">
        <ele>628.2</ele>
        <time>2018-05-19T09:29:45Z</time>
      </trkpt>
      <trkpt lat="44.06709" lon="3.01188">
        <ele>626.4</ele>
        <time>2018-05-19T09:29:46Z</time>
      </trkpt>
      <trkpt lat="44.06706" lon="3.01185">
        <ele>625.4</ele>
        <time>2018-05-19T09:29:47Z</time>
      </trkpt>
      <trkpt lat="44.06704" lon="3.01181">
        <ele>623.6</ele>
        <time>2018-05-19T09:29:49Z</time>
      </trkpt>
      <trkpt lat="44.06707" lon="3.01177">
        <ele>624.3</ele>
        <time>2018-05-19T09:29:50Z</time>
      </trkpt>
      <trkpt lat="44.06712" lon="3.01176">
        <ele>625.1</ele>
        <time>2018-05-19T09:29:51Z</time>
      </trkpt>
      <trkpt lat="44.06716" lon="3.01175">
        <ele>626</ele>
        <time>2018-05-19T09:29:52Z</time>
      </trkpt>
      <trkpt lat="44.06721" lon="3.01176">
        <ele>626.7</ele>
        <time>2018-05-19T09:29:53Z</time>
      </trkpt>
      <trkpt lat="44.06725" lon="3.01176">
        <ele>627.2</ele>
        <time>2018-05-19T09:29:54Z</time>
      </trkpt>
      <trkpt lat="44.06723" lon="3.01168">
        <ele>626.4</ele>
        <time>2018-05-19T09:29:57Z</time>
      </trkpt>
      <trkpt lat="44.06721" lon="3.01165">
        <ele>625.8</ele>
        <time>2018-05-19T09:29:58Z</time>
      </trkpt>
      <trkpt lat="44.06701" lon="3.0115">
        <ele>620.6</ele>
        <time>2018-05-19T09:30:00Z</time>
      </trkpt>
      <trkpt lat="44.06696" lon="3.01146">
        <ele>619</ele>
        <time>2018-05-19T09:30:01Z</time>
      </trkpt>
      <trkpt lat="44.06691" lon="3.01139">
        <ele>617</ele>
        <time>2018-05-19T09:30:02Z</time>
      </trkpt>
      <trkpt lat="44.06688" lon="3.01137">
        <ele>616.3</ele>
        <time>2018-05-19T09:30:03Z</time>
      </trkpt>
      <trkpt lat="44.06687" lon="3.01132">
        <ele>615.1</ele>
        <time>2018-05-19T09:30:04Z</time>
      </trkpt>
      <trkpt lat="44.06688" lon="3.01129">
        <ele>614.1</ele>
        <time>2018-05-19T09:30:06Z</time>
      </trkpt>
      <trkpt lat="44.06691" lon="3.01129">
        <ele>612.5</ele>
        <time>2018-05-19T09:30:09Z</time>
      </trkpt>
      <trkpt lat="44.06694" lon="3.01129">
        <ele>610.9</ele>
        <time>2018-05-19T09:30:10Z</time>
      </trkpt>
      <trkpt lat="44.06699" lon="3.01128">
        <ele>607.1</ele>
        <time>2018-05-19T09:30:12Z</time>
      </trkpt>
      <trkpt lat="44.06701" lon="3.01118">
        <ele>601.7</ele>
        <time>2018-05-19T09:30:15Z</time>
      </trkpt>
      <trkpt lat="44.06701" lon="3.01113">
        <ele>598.4</ele>
        <time>2018-05-19T09:30:16Z</time>
      </trkpt>
      <trkpt lat="44.06702" lon="3.01102">
        <ele>590.8</ele>
        <time>2018-05-19T09:30:17Z</time>
      </trkpt>
      <trkpt lat="44.06703" lon="3.01093">
        <ele>590.1</ele>
        <time>2018-05-19T09:30:18Z</time>
      </trkpt>
      <trkpt lat="44.06706" lon="3.01083">
        <ele>589.4</ele>
        <time>2018-05-19T09:30:19Z</time>
      </trkpt>
      <trkpt lat="44.0671" lon="3.01072">
        <ele>588</ele>
        <time>2018-05-19T09:30:20Z</time>
      </trkpt>
      <trkpt lat="44.06711" lon="3.01063">
        <ele>586.5</ele>
        <time>2018-05-19T09:30:21Z</time>
      </trkpt>
      <trkpt lat="44.0671" lon="3.01052">
        <ele>584.1</ele>
        <time>2018-05-19T09:30:22Z</time>
      </trkpt>
      <trkpt lat="44.06709" lon="3.01042">
        <ele>581.2</ele>
        <time>2018-05-19T09:30:23Z</time>
      </trkpt>
      <trkpt lat="44.06712" lon="3.01031">
        <ele>579.7</ele>
        <time>2018-05-19T09:30:24Z</time>
      </trkpt>
      <trkpt lat="44.06713" lon="3.0102">
        <ele>578.5</ele>
        <time>2018-05-19T09:30:25Z</time>
      </trkpt>
      <trkpt lat="44.06715" lon="3.0101">
        <ele>577.6</ele>
        <time>2018-05-19T09:30:26Z</time>
      </trkpt>
      <trkpt lat="44.06715" lon="3.00999">
        <ele>576.6</ele>
        <time>2018-05-19T09:30:27Z</time>
      </trkpt>
      <trkpt lat="44.06716" lon="3.00988">
        <ele>574.5</ele>
        <time>2018-05-19T09:30:28Z</time>
      </trkpt>
      <trkpt lat="44.06715" lon="3.00978">
        <ele>570.7</ele>
        <time>2018-05-19T09:30:29Z</time>
      </trkpt>
      <trkpt lat="44.06708" lon="3.00972">
        <ele>568.6</ele>
        <time>2018-05-19T09:30:30Z</time>
      </trkpt>
      <trkpt lat="44.06704" lon="3.00964">
        <ele>567.4</ele>
        <time>2018-05-19T09:30:31Z</time>
      </trkpt>
      <trkpt lat="44.06702" lon="3.00954">
        <ele>566</ele>
        <time>2018-05-19T09:30:32Z</time>
      </trkpt>
      <trkpt lat="44.06702" lon="3.00944">
        <ele>564.1</ele>
        <time>2018-05-19T09:30:33Z</time>
      </trkpt>
      <trkpt lat="44.06699" lon="3.00932">
        <ele>561.7</ele>
        <time>2018-05-19T09:30:34Z</time>
      </trkpt>
      <trkpt lat="44.06697" lon="3.00922">
        <ele>559.8</ele>
        <time>2018-05-19T09:30:35Z</time>
      </trkpt>
      <trkpt lat="44.06692" lon="3.00912">
        <ele>558.7</ele>
        <time>2018-05-19T09:30:36Z</time>
      </trkpt>
      <trkpt lat="44.06693" lon="3.00907">
        <ele>558.2</ele>
        <time>2018-05-19T09:30:37Z</time>
      </trkpt>
      <trkpt lat="44.06691" lon="3.009">
        <ele>557.6</ele>
        <time>2018-05-19T09:30:39Z</time>
      </trkpt>
      <trkpt lat="44.0669" lon="3.00904">
        <ele>557.3</ele>
        <time>2018-05-19T09:30:47Z</time>
      </trkpt>
      <trkpt lat="44.06694" lon="3.00905">
        <ele>556.4</ele>
        <time>2018-05-19T09:30:50Z</time>
      </trkpt>
      <trkpt lat="44.06699" lon="3.00908">
        <ele>555.6</ele>
        <time>2018-05-19T09:30:51Z</time>
      </trkpt>
      <trkpt lat="44.06706" lon="3.00911">
        <ele>554.3</ele>
        <time>2018-05-19T09:30:52Z</time>
      </trkpt>
      <trkpt lat="44.0671" lon="3.00921">
        <ele>552.3</ele>
        <time>2018-05-19T09:30:53Z</time>
      </trkpt>
      <trkpt lat="44.06713" lon="3.00926">
        <ele>551.5</ele>
        <time>2018-05-19T09:30:54Z</time>
      </trkpt>
      <trkpt lat="44.06713" lon="3.00922">
        <ele>550.9</ele>
        <time>2018-05-19T09:30:56Z</time>
      </trkpt>
      <trkpt lat="44.06716" lon="3.00918">
        <ele>550.3</ele>
        <time>2018-05-19T09:30:58Z</time>
      </trkpt>
      <trkpt lat="44.06719" lon="3.00916">
        <ele>549.9</ele>
        <time>2018-05-19T09:30:59Z</time>
      </trkpt>
      <trkpt lat="44.0672" lon="3.00911">
        <ele>549.5</ele>
        <time>2018-05-19T09:31:00Z</time>
      </trkpt>
      <trkpt lat="44.06723" lon="3.00905">
        <ele>549.1</ele>
        <time>2018-05-19T09:31:01Z</time>
      </trkpt>
      <trkpt lat="44.06727" lon="3.00899">
        <ele>548.6</ele>
        <time>2018-05-19T09:31:02Z</time>
      </trkpt>
      <trkpt lat="44.06731" lon="3.00894">
        <ele>548.2</ele>
        <time>2018-05-19T09:31:03Z</time>
      </trkpt>
      <trkpt lat="44.06734" lon="3.00887">
        <ele>547.8</ele>
        <time>2018-05-19T09:31:04Z</time>
      </trkpt>
      <trkpt lat="44.06737" lon="3.0088">
        <ele>547.4</ele>
        <time>2018-05-19T09:31:05Z</time>
      </trkpt>
      <trkpt lat="44.06741" lon="3.00869">
        <ele>546.7</ele>
        <time>2018-05-19T09:31:06Z</time>
      </trkpt>
      <trkpt lat="44.06746" lon="3.0086">
        <ele>546.1</ele>
        <time>2018-05-19T09:31:07Z</time>
      </trkpt>
      <trkpt lat="44.06749" lon="3.00855">
        <ele>545.7</ele>
        <time>2018-05-19T09:31:08Z</time>
      </trkpt>
      <trkpt lat="44.06763" lon="3.00831">
        <ele>542.8</ele>
        <time>2018-05-19T09:31:10Z</time>
      </trkpt>
      <trkpt lat="44.06768" lon="3.00816">
        <ele>541.2</ele>
        <time>2018-05-19T09:31:11Z</time>
      </trkpt>
      <trkpt lat="44.06773" lon="3.00802">
        <ele>539.7</ele>
        <time>2018-05-19T09:31:12Z</time>
      </trkpt>
      <trkpt lat="44.06779" lon="3.00796">
        <ele>538.8</ele>
        <time>2018-05-19T09:31:13Z</time>
      </trkpt>
      <trkpt lat="44.0678" lon="3.00791">
        <ele>538.1</ele>
        <time>2018-05-19T09:31:14Z</time>
      </trkpt>
      <trkpt lat="44.06785" lon="3.00788">
        <ele>537.1</ele>
        <time>2018-05-19T09:31:15Z</time>
      </trkpt>
      <trkpt lat="44.06789" lon="3.00784">
        <ele>536.1</ele>
        <time>2018-05-19T09:31:16Z</time>
      </trkpt>
      <trkpt lat="44.06794" lon="3.0078">
        <ele>535.1</ele>
        <time>2018-05-19T09:31:17Z</time>
      </trkpt>
      <trkpt lat="44.06799" lon="3.00774">
        <ele>534.1</ele>
        <time>2018-05-19T09:31:18Z</time>
      </trkpt>
      <trkpt lat="44.06801" lon="3.00768">
        <ele>533.4</ele>
        <time>2018-05-19T09:31:19Z</time>
      </trkpt>
      <trkpt lat="44.06805" lon="3.0076">
        <ele>532.7</ele>
        <time>2018-05-19T09:31:20Z</time>
      </trkpt>
      <trkpt lat="44.06808" lon="3.00753">
        <ele>532.1</ele>
        <time>2018-05-19T09:31:21Z</time>
      </trkpt>
      <trkpt lat="44.06811" lon="3.00746">
        <ele>531</ele>
        <time>2018-05-19T09:31:22Z</time>
      </trkpt>
      <trkpt lat="44.06815" lon="3.00738">
        <ele>529.9</ele>
        <time>2018-05-19T09:31:23Z</time>
      </trkpt>
      <trkpt lat="44.06819" lon="3.00728">
        <ele>528</ele>
        <time>2018-05-19T09:31:24Z</time>
      </trkpt>
      <trkpt lat="44.06821" lon="3.00723">
        <ele>526.9</ele>
        <time>2018-05-19T09:31:25Z</time>
      </trkpt>
      <trkpt lat="44.06822" lon="3.00717">
        <ele>525.9</ele>
        <time>2018-05-19T09:31:26Z</time>
      </trkpt>
      <trkpt lat="44.06823" lon="3.00711">
        <ele>524.9</ele>
        <time>2018-05-19T09:31:27Z</time>
      </trkpt>
      <trkpt lat="44.06823" lon="3.00701">
        <ele>524.1</ele>
        <time>2018-05-19T09:31:28Z</time>
      </trkpt>
      <trkpt lat="44.06822" lon="3.00691">
        <ele>523.4</ele>
        <time>2018-05-19T09:31:29Z</time>
      </trkpt>
      <trkpt lat="44.06821" lon="3.00682">
        <ele>522.6</ele>
        <time>2018-05-19T09:31:30Z</time>
      </trkpt>
      <trkpt lat="44.06821" lon="3.00672">
        <ele>521.4</ele>
        <time>2018-05-19T09:31:31Z</time>
      </trkpt>
      <trkpt lat="44.06825" lon="3.00665">
        <ele>520.1</ele>
        <time>2018-05-19T09:31:32Z</time>
      </trkpt>
      <trkpt lat="44.06825" lon="3.0066">
        <ele>519.1</ele>
        <time>2018-05-19T09:31:33Z</time>
      </trkpt>
      <trkpt lat="44.06829" lon="3.00653">
        <ele>517.7</ele>
        <time>2018-05-19T09:31:34Z</time>
      </trkpt>
      <trkpt lat="44.06833" lon="3.00643">
        <ele>515.4</ele>
        <time>2018-05-19T09:31:35Z</time>
      </trkpt>
      <trkpt lat="44.06833" lon="3.00635">
        <ele>514</ele>
        <time>2018-05-19T09:31:37Z</time>
      </trkpt>
      <trkpt lat="44.06834" lon="3.00628">
        <ele>512.9</ele>
        <time>2018-05-19T09:31:39Z</time>
      </trkpt>
      <trkpt lat="44.06836" lon="3.00625">
        <ele>512.3</ele>
        <time>2018-05-19T09:31:41Z</time>
      </trkpt>
      <trkpt lat="44.06843" lon="3.00628">
        <ele>510.9</ele>
        <time>2018-05-19T09:32:22Z</time>
      </trkpt>
      <trkpt lat="44.06848" lon="3.00625">
        <ele>509.9</ele>
        <time>2018-05-19T09:32:25Z</time>
      </trkpt>
      <trkpt lat="44.06853" lon="3.00622">
        <ele>508.9</ele>
        <time>2018-05-19T09:32:27Z</time>
      </trkpt>
      <trkpt lat="44.06858" lon="3.00619">
        <ele>508</ele>
        <time>2018-05-19T09:32:29Z</time>
      </trkpt>
      <trkpt lat="44.06861" lon="3.00617">
        <ele>507.4</ele>
        <time>2018-05-19T09:32:30Z</time>
      </trkpt>
      <trkpt lat="44.06864" lon="3.00614">
        <ele>506.8</ele>
        <time>2018-05-19T09:32:31Z</time>
      </trkpt>
      <trkpt lat="44.06866" lon="3.00611">
        <ele>506.2</ele>
        <time>2018-05-19T09:32:32Z</time>
      </trkpt>
      <trkpt lat="44.06869" lon="3.00609">
        <ele>505.6</ele>
        <time>2018-05-19T09:32:33Z</time>
      </trkpt>
      <trkpt lat="44.06872" lon="3.00606">
        <ele>505</ele>
        <time>2018-05-19T09:32:34Z</time>
      </trkpt>
      <trkpt lat="44.06875" lon="3.00603">
        <ele>504.5</ele>
        <time>2018-05-19T09:32:35Z</time>
      </trkpt>
      <trkpt lat="44.06878" lon="3.00601">
        <ele>503.9</ele>
        <time>2018-05-19T09:32:36Z</time>
      </trkpt>
      <trkpt lat="44.06881" lon="3.00597">
        <ele>503.2</ele>
        <time>2018-05-19T09:32:37Z</time>
      </trkpt>
      <trkpt lat="44.06884" lon="3.00593">
        <ele>502.5</ele>
        <time>2018-05-19T09:32:38Z</time>
      </trkpt>
      <trkpt lat="44.06887" lon="3.00589">
        <ele>501.8</ele>
        <time>2018-05-19T09:32:39Z</time>
      </trkpt>
      <trkpt lat="44.0689" lon="3.0058">
        <ele>500.5</ele>
        <time>2018-05-19T09:32:40Z</time>
      </trkpt>
      <trkpt lat="44.06893" lon="3.00574">
        <ele>499.7</ele>
        <time>2018-05-19T09:32:41Z</time>
      </trkpt>
      <trkpt lat="44.06895" lon="3.00568">
        <ele>498.9</ele>
        <time>2018-05-19T09:32:42Z</time>
      </trkpt>
      <trkpt lat="44.06898" lon="3.00565">
        <ele>498.3</ele>
        <time>2018-05-19T09:32:43Z</time>
      </trkpt>
      <trkpt lat="44.06901" lon="3.0056">
        <ele>497.6</ele>
        <time>2018-05-19T09:32:45Z</time>
      </trkpt>
      <trkpt lat="44.06903" lon="3.00556">
        <ele>497.1</ele>
        <time>2018-05-19T09:32:46Z</time>
      </trkpt>
      <trkpt lat="44.06905" lon="3.00552">
        <ele>496.6</ele>
        <time>2018-05-19T09:32:47Z</time>
      </trkpt>
      <trkpt lat="44.06908" lon="3.00547">
        <ele>496.2</ele>
        <time>2018-05-19T09:32:48Z</time>
      </trkpt>
      <trkpt lat="44.06913" lon="3.0054">
        <ele>495.5</ele>
        <time>2018-05-19T09:32:49Z</time>
      </trkpt>
      <trkpt lat="44.06916" lon="3.00536">
        <ele>495.2</ele>
        <time>2018-05-19T09:32:50Z</time>
      </trkpt>
      <trkpt lat="44.0692" lon="3.00529">
        <ele>494.7</ele>
        <time>2018-05-19T09:32:51Z</time>
      </trkpt>
      <trkpt lat="44.06923" lon="3.00525">
        <ele>494.4</ele>
        <time>2018-05-19T09:32:52Z</time>
      </trkpt>
      <trkpt lat="44.06928" lon="3.0052">
        <ele>494</ele>
        <time>2018-05-19T09:32:53Z</time>
      </trkpt>
      <trkpt lat="44.06934" lon="3.00515">
        <ele>493.2</ele>
        <time>2018-05-19T09:32:54Z</time>
      </trkpt>
      <trkpt lat="44.0694" lon="3.00512">
        <ele>492.2</ele>
        <time>2018-05-19T09:32:55Z</time>
      </trkpt>
      <trkpt lat="44.06947" lon="3.00509">
        <ele>491</ele>
        <time>2018-05-19T09:32:56Z</time>
      </trkpt>
      <trkpt lat="44.06952" lon="3.00506">
        <ele>490</ele>
        <time>2018-05-19T09:32:57Z</time>
      </trkpt>
      <trkpt lat="44.06959" lon="3.00502">
        <ele>488.8</ele>
        <time>2018-05-19T09:32:58Z</time>
      </trkpt>
      <trkpt lat="44.06963" lon="3.00498">
        <ele>488.2</ele>
        <time>2018-05-19T09:32:59Z</time>
      </trkpt>
      <trkpt lat="44.06967" lon="3.00495">
        <ele>487.9</ele>
        <time>2018-05-19T09:33:00Z</time>
      </trkpt>
      <trkpt lat="44.06969" lon="3.00492">
        <ele>487.6</ele>
        <time>2018-05-19T09:33:01Z</time>
      </trkpt>
      <trkpt lat="44.06973" lon="3.00488">
        <ele>487.2</ele>
        <time>2018-05-19T09:33:02Z</time>
      </trkpt>
      <trkpt lat="44.06977" lon="3.00487">
        <ele>486.7</ele>
        <time>2018-05-19T09:33:03Z</time>
      </trkpt>
      <trkpt lat="44.0698" lon="3.00483">
        <ele>486.2</ele>
        <time>2018-05-19T09:33:04Z</time>
      </trkpt>
      <trkpt lat="44.06984" lon="3.00481">
        <ele>485.7</ele>
        <time>2018-05-19T09:33:05Z</time>
      </trkpt>
      <trkpt lat="44.06988" lon="3.00476">
        <ele>485</ele>
        <time>2018-05-19T09:33:06Z</time>
      </trkpt>
      <trkpt lat="44.0699" lon="3.00471">
        <ele>484.2</ele>
        <time>2018-05-19T09:33:07Z</time>
      </trkpt>
      <trkpt lat="44.06992" lon="3.00467">
        <ele>483.6</ele>
        <time>2018-05-19T09:33:08Z</time>
      </trkpt>
      <trkpt lat="44.06994" lon="3.00463">
        <ele>482.9</ele>
        <time>2018-05-19T09:33:09Z</time>
      </trkpt>
      <trkpt lat="44.06995" lon="3.00459">
        <ele>482.4</ele>
        <time>2018-05-19T09:33:10Z</time>
      </trkpt>
      <trkpt lat="44.06996" lon="3.00455">
        <ele>481.8</ele>
        <time>2018-05-19T09:33:11Z</time>
      </trkpt>
      <trkpt lat="44.06997" lon="3.0045">
        <ele>481.3</ele>
        <time>2018-05-19T09:33:12Z</time>
      </trkpt>
      <trkpt lat="44.06998" lon="3.00445">
        <ele>480.7</ele>
        <time>2018-05-19T09:33:13Z</time>
      </trkpt>
      <trkpt lat="44.07001" lon="3.0044">
        <ele>480.1</ele>
        <time>2018-05-19T09:33:14Z</time>
      </trkpt>
      <trkpt lat="44.07003" lon="3.00435">
        <ele>479.7</ele>
        <time>2018-05-19T09:33:15Z</time>
      </trkpt>
      <trkpt lat="44.07005" lon="3.00431">
        <ele>479.5</ele>
        <time>2018-05-19T09:33:16Z</time>
      </trkpt>
      <trkpt lat="44.07008" lon="3.00426">
        <ele>479.2</ele>
        <time>2018-05-19T09:33:17Z</time>
      </trkpt>
      <trkpt lat="44.07013" lon="3.00422">
        <ele>478.9</ele>
        <time>2018-05-19T09:33:18Z</time>
      </trkpt>
      <trkpt lat="44.07016" lon="3.00416">
        <ele>478.6</ele>
        <time>2018-05-19T09:33:19Z</time>
      </trkpt>
      <trkpt lat="44.07018" lon="3.00408">
        <ele>478.2</ele>
        <time>2018-05-19T09:33:20Z</time>
      </trkpt>
      <trkpt lat="44.0702" lon="3.00401">
        <ele>477.8</ele>
        <time>2018-05-19T09:33:21Z</time>
      </trkpt>
      <trkpt lat="44.07021" lon="3.00396">
        <ele>477.5</ele>
        <time>2018-05-19T09:33:22Z</time>
      </trkpt>
      <trkpt lat="44.07022" lon="3.00391">
        <ele>477.3</ele>
        <time>2018-05-19T09:33:23Z</time>
      </trkpt>
      <trkpt lat="44.07024" lon="3.00385">
        <ele>476.9</ele>
        <time>2018-05-19T09:33:24Z</time>
      </trkpt>
      <trkpt lat="44.07025" lon="3.0038">
        <ele>476.5</ele>
        <time>2018-05-19T09:33:25Z</time>
      </trkpt>
      <trkpt lat="44.07026" lon="3.00375">
        <ele>476</ele>
        <time>2018-05-19T09:33:26Z</time>
      </trkpt>
      <trkpt lat="44.07029" lon="3.00371">
        <ele>475.5</ele>
        <time>2018-05-19T09:33:27Z</time>
      </trkpt>
      <trkpt lat="44.0703" lon="3.00365">
        <ele>474.8</ele>
        <time>2018-05-19T09:33:28Z</time>
      </trkpt>
      <trkpt lat="44.07032" lon="3.0036">
        <ele>474.1</ele>
        <time>2018-05-19T09:33:29Z</time>
      </trkpt>
      <trkpt lat="44.07036" lon="3.00352">
        <ele>473.1</ele>
        <time>2018-05-19T09:33:30Z</time>
      </trkpt>
      <trkpt lat="44.07037" lon="3.00342">
        <ele>471.8</ele>
        <time>2018-05-19T09:33:31Z</time>
      </trkpt>
      <trkpt lat="44.07039" lon="3.00333">
        <ele>470.8</ele>
        <time>2018-05-19T09:33:32Z</time>
      </trkpt>
      <trkpt lat="44.07039" lon="3.00324">
        <ele>469.9</ele>
        <time>2018-05-19T09:33:33Z</time>
      </trkpt>
      <trkpt lat="44.0704" lon="3.00315">
        <ele>469.1</ele>
        <time>2018-05-19T09:33:34Z</time>
      </trkpt>
      <trkpt lat="44.07043" lon="3.00305">
        <ele>467.8</ele>
        <time>2018-05-19T09:33:35Z</time>
      </trkpt>
      <trkpt lat="44.07049" lon="3.00296">
        <ele>466.2</ele>
        <time>2018-05-19T09:33:36Z</time>
      </trkpt>
      <trkpt lat="44.07054" lon="3.00289">
        <ele>466</ele>
        <time>2018-05-19T09:33:37Z</time>
      </trkpt>
      <trkpt lat="44.07059" lon="3.00283">
        <ele>466</ele>
        <time>2018-05-19T09:33:38Z</time>
      </trkpt>
      <trkpt lat="44.07065" lon="3.00278">
        <ele>466</ele>
        <time>2018-05-19T09:33:39Z</time>
      </trkpt>
      <trkpt lat="44.07068" lon="3.00275">
        <ele>466</ele>
        <time>2018-05-19T09:33:41Z</time>
      </trkpt>
      <trkpt lat="44.07071" lon="3.00277">
        <ele>466</ele>
        <time>2018-05-19T09:33:44Z</time>
      </trkpt>
      <trkpt lat="44.0707" lon="3.0028">
        <ele>466</ele>
        <time>2018-05-19T09:33:58Z</time>
      </trkpt>
      <trkpt lat="44.07069" lon="3.00275">
        <ele>466</ele>
        <time>2018-05-19T09:35:13Z</time>
      </trkpt>
      <trkpt lat="44.07074" lon="3.00269">
        <ele>466</ele>
        <time>2018-05-19T09:36:19Z</time>
      </trkpt>
      <trkpt lat="44.07075" lon="3.00265">
        <ele>466</ele>
        <time>2018-05-19T09:36:26Z</time>
      </trkpt>
      <trkpt lat="44.07072" lon="3.00267">
        <ele>466</ele>
        <time>2018-05-19T09:36:30Z</time>
      </trkpt>
      <trkpt lat="44.07072" lon="3.00272">
        <ele>466</ele>
        <time>2018-05-19T09:37:03Z</time>
      </trkpt>
      <trkpt lat="44.07071" lon="3.00276">
        <ele>466</ele>
        <time>2018-05-19T09:37:27Z</time>
      </trkpt>
      <trkpt lat="44.07072" lon="3.00279">
        <ele>465.9</ele>
        <time>2018-05-19T09:37:32Z</time>
      </trkpt>
      <trkpt lat="44.07074" lon="3.00276">
        <ele>465.8</ele>
        <time>2018-05-19T09:40:14Z</time>
      </trkpt>
      <trkpt lat="44.07077" lon="3.00276">
        <ele>465.7</ele>
        <time>2018-05-19T09:40:18Z</time>
      </trkpt>
      <trkpt lat="44.07079" lon="3.00273">
        <ele>465.7</ele>
        <time>2018-05-19T09:40:31Z</time>
      </trkpt>
      <trkpt lat="44.07083" lon="3.00273">
        <ele>465.6</ele>
        <time>2018-05-19T09:40:33Z</time>
      </trkpt>
      <trkpt lat="44.07088" lon="3.00273">
        <ele>465.4</ele>
        <time>2018-05-19T09:40:35Z</time>
      </trkpt>
      <trkpt lat="44.07093" lon="3.00275">
        <ele>465.2</ele>
        <time>2018-05-19T09:40:37Z</time>
      </trkpt>
      <trkpt lat="44.07096" lon="3.00275">
        <ele>465.2</ele>
        <time>2018-05-19T09:40:38Z</time>
      </trkpt>
      <trkpt lat="44.07099" lon="3.00275">
        <ele>465.1</ele>
        <time>2018-05-19T09:40:39Z</time>
      </trkpt>
      <trkpt lat="44.07102" lon="3.00273">
        <ele>465</ele>
        <time>2018-05-19T09:40:40Z</time>
      </trkpt>
      <trkpt lat="44.07104" lon="3.00272">
        <ele>464.9</ele>
        <time>2018-05-19T09:40:41Z</time>
      </trkpt>
      <trkpt lat="44.07109" lon="3.00268">
        <ele>464.7</ele>
        <time>2018-05-19T09:40:43Z</time>
      </trkpt>
      <trkpt lat="44.07113" lon="3.00265">
        <ele>464.5</ele>
        <time>2018-05-19T09:40:45Z</time>
      </trkpt>
      <trkpt lat="44.07116" lon="3.00263">
        <ele>464.4</ele>
        <time>2018-05-19T09:40:46Z</time>
      </trkpt>
      <trkpt lat="44.07119" lon="3.0026">
        <ele>464.3</ele>
        <time>2018-05-19T09:40:47Z</time>
      </trkpt>
      <trkpt lat="44.07121" lon="3.00257">
        <ele>464.2</ele>
        <time>2018-05-19T09:40:48Z</time>
      </trkpt>
      <trkpt lat="44.07124" lon="3.00254">
        <ele>464</ele>
        <time>2018-05-19T09:40:49Z</time>
      </trkpt>
      <trkpt lat="44.07126" lon="3.00249">
        <ele>463.9</ele>
        <time>2018-05-19T09:40:50Z</time>
      </trkpt>
      <trkpt lat="44.07128" lon="3.00244">
        <ele>463.8</ele>
        <time>2018-05-19T09:40:51Z</time>
      </trkpt>
      <trkpt lat="44.07129" lon="3.00238">
        <ele>463.7</ele>
        <time>2018-05-19T09:40:52Z</time>
      </trkpt>
      <trkpt lat="44.07131" lon="3.00233">
        <ele>463.6</ele>
        <time>2018-05-19T09:40:53Z</time>
      </trkpt>
      <trkpt lat="44.07133" lon="3.00227">
        <ele>463.4</ele>
        <time>2018-05-19T09:40:54Z</time>
      </trkpt>
      <trkpt lat="44.07135" lon="3.00223">
        <ele>463.3</ele>
        <time>2018-05-19T09:40:55Z</time>
      </trkpt>
      <trkpt lat="44.07138" lon="3.00219">
        <ele>463.3</ele>
        <time>2018-05-19T09:40:56Z</time>
      </trkpt>
      <trkpt lat="44.0714" lon="3.00216">
        <ele>463.2</ele>
        <time>2018-05-19T09:40:57Z</time>
      </trkpt>
      <trkpt lat="44.07142" lon="3.00213">
        <ele>463.2</ele>
        <time>2018-05-19T09:40:58Z</time>
      </trkpt>
      <trkpt lat="44.07145" lon="3.0021">
        <ele>463.2</ele>
        <time>2018-05-19T09:40:59Z</time>
      </trkpt>
      <trkpt lat="44.07147" lon="3.00208">
        <ele>463.1</ele>
        <time>2018-05-19T09:41:00Z</time>
      </trkpt>
      <trkpt lat="44.07149" lon="3.00205">
        <ele>463.1</ele>
        <time>2018-05-19T09:41:01Z</time>
      </trkpt>
      <trkpt lat="44.07152" lon="3.002">
        <ele>463</ele>
        <time>2018-05-19T09:41:03Z</time>
      </trkpt>
      <trkpt lat="44.07155" lon="3.00196">
        <ele>462.9</ele>
        <time>2018-05-19T09:41:05Z</time>
      </trkpt>
      <trkpt lat="44.07157" lon="3.00191">
        <ele>462.9</ele>
        <time>2018-05-19T09:41:07Z</time>
      </trkpt>
      <trkpt lat="44.0716" lon="3.00186">
        <ele>462.8</ele>
        <time>2018-05-19T09:41:09Z</time>
      </trkpt>
      <trkpt lat="44.07162" lon="3.00179">
        <ele>462.7</ele>
        <time>2018-05-19T09:41:11Z</time>
      </trkpt>
      <trkpt lat="44.07163" lon="3.00176">
        <ele>462.6</ele>
        <time>2018-05-19T09:41:12Z</time>
      </trkpt>
      <trkpt lat="44.07165" lon="3.00172">
        <ele>462.6</ele>
        <time>2018-05-19T09:41:13Z</time>
      </trkpt>
      <trkpt lat="44.07167" lon="3.00167">
        <ele>462.5</ele>
        <time>2018-05-19T09:41:14Z</time>
      </trkpt>
      <trkpt lat="44.07169" lon="3.00162">
        <ele>462.5</ele>
        <time>2018-05-19T09:41:15Z</time>
      </trkpt>
      <trkpt lat="44.07171" lon="3.00157">
        <ele>462.4</ele>
        <time>2018-05-19T09:41:16Z</time>
      </trkpt>
      <trkpt lat="44.07173" lon="3.00152">
        <ele>462.3</ele>
        <time>2018-05-19T09:41:17Z</time>
      </trkpt>
      <trkpt lat="44.07175" lon="3.00148">
        <ele>462.3</ele>
        <time>2018-05-19T09:41:18Z</time>
      </trkpt>
      <trkpt lat="44.07177" lon="3.00144">
        <ele>462.2</ele>
        <time>2018-05-19T09:41:19Z</time>
      </trkpt>
      <trkpt lat="44.07179" lon="3.00141">
        <ele>462.2</ele>
        <time>2018-05-19T09:41:20Z</time>
      </trkpt>
      <trkpt lat="44.07181" lon="3.00138">
        <ele>462.1</ele>
        <time>2018-05-19T09:41:21Z</time>
      </trkpt>
      <trkpt lat="44.07184" lon="3.00135">
        <ele>462</ele>
        <time>2018-05-19T09:41:22Z</time>
      </trkpt>
      <trkpt lat="44.07186" lon="3.00132">
        <ele>462</ele>
        <time>2018-05-19T09:41:23Z</time>
      </trkpt>
      <trkpt lat="44.07189" lon="3.00129">
        <ele>461.9</ele>
        <time>2018-05-19T09:41:24Z</time>
      </trkpt>
      <trkpt lat="44.07192" lon="3.00125">
        <ele>461.8</ele>
        <time>2018-05-19T09:41:25Z</time>
      </trkpt>
      <trkpt lat="44.07193" lon="3.0012">
        <ele>461.6</ele>
        <time>2018-05-19T09:41:26Z</time>
      </trkpt>
      <trkpt lat="44.07194" lon="3.00116">
        <ele>461.5</ele>
        <time>2018-05-19T09:41:27Z</time>
      </trkpt>
      <trkpt lat="44.07194" lon="3.00111">
        <ele>461.4</ele>
        <time>2018-05-19T09:41:28Z</time>
      </trkpt>
      <trkpt lat="44.07194" lon="3.00105">
        <ele>461.3</ele>
        <time>2018-05-19T09:41:29Z</time>
      </trkpt>
      <trkpt lat="44.07194" lon="3.00099">
        <ele>461.2</ele>
        <time>2018-05-19T09:41:30Z</time>
      </trkpt>
      <trkpt lat="44.07193" lon="3.0009">
        <ele>461</ele>
        <time>2018-05-19T09:41:31Z</time>
      </trkpt>
      <trkpt lat="44.07192" lon="3.00082">
        <ele>460.8</ele>
        <time>2018-05-19T09:41:32Z</time>
      </trkpt>
      <trkpt lat="44.07191" lon="3.00072">
        <ele>460.5</ele>
        <time>2018-05-19T09:41:33Z</time>
      </trkpt>
      <trkpt lat="44.07189" lon="3.0006">
        <ele>460.1</ele>
        <time>2018-05-19T09:41:34Z</time>
      </trkpt>
      <trkpt lat="44.07187" lon="3.00045">
        <ele>459.5</ele>
        <time>2018-05-19T09:41:35Z</time>
      </trkpt>
      <trkpt lat="44.07184" lon="3.00033">
        <ele>458.9</ele>
        <time>2018-05-19T09:41:36Z</time>
      </trkpt>
      <trkpt lat="44.07183" lon="3.00021">
        <ele>458</ele>
        <time>2018-05-19T09:41:37Z</time>
      </trkpt>
      <trkpt lat="44.07183" lon="3.00008">
        <ele>456.7</ele>
        <time>2018-05-19T09:41:38Z</time>
      </trkpt>
      <trkpt lat="44.07184" lon="2.99994">
        <ele>455.2</ele>
        <time>2018-05-19T09:41:39Z</time>
      </trkpt>
      <trkpt lat="44.07184" lon="2.99979">
        <ele>453.2</ele>
        <time>2018-05-19T09:41:40Z</time>
      </trkpt>
      <trkpt lat="44.07185" lon="2.99964">
        <ele>450.8</ele>
        <time>2018-05-19T09:41:41Z</time>
      </trkpt>
      <trkpt lat="44.07184" lon="2.9995">
        <ele>449.3</ele>
        <time>2018-05-19T09:41:42Z</time>
      </trkpt>
      <trkpt lat="44.07185" lon="2.99937">
        <ele>448.4</ele>
        <time>2018-05-19T09:41:43Z</time>
      </trkpt>
      <trkpt lat="44.07187" lon="2.99924">
        <ele>447.7</ele>
        <time>2018-05-19T09:41:44Z</time>
      </trkpt>
      <trkpt lat="44.07191" lon="2.9991">
        <ele>446.7</ele>
        <time>2018-05-19T09:41:45Z</time>
      </trkpt>
      <trkpt lat="44.07195" lon="2.99898">
        <ele>445.7</ele>
        <time>2018-05-19T09:41:46Z</time>
      </trkpt>
      <trkpt lat="44.072" lon="2.99889">
        <ele>445.1</ele>
        <time>2018-05-19T09:41:47Z</time>
      </trkpt>
      <trkpt lat="44.07204" lon="2.9988">
        <ele>444.7</ele>
        <time>2018-05-19T09:41:48Z</time>
      </trkpt>
      <trkpt lat="44.07207" lon="2.9987">
        <ele>444.4</ele>
        <time>2018-05-19T09:41:49Z</time>
      </trkpt>
      <trkpt lat="44.07209" lon="2.99863">
        <ele>444.2</ele>
        <time>2018-05-19T09:41:50Z</time>
      </trkpt>
      <trkpt lat="44.07211" lon="2.99858">
        <ele>444.1</ele>
        <time>2018-05-19T09:41:51Z</time>
      </trkpt>
      <trkpt lat="44.07213" lon="2.99853">
        <ele>444</ele>
        <time>2018-05-19T09:41:52Z</time>
      </trkpt>
      <trkpt lat="44.07215" lon="2.99849">
        <ele>443.8</ele>
        <time>2018-05-19T09:41:53Z</time>
      </trkpt>
      <trkpt lat="44.07217" lon="2.99846">
        <ele>443.7</ele>
        <time>2018-05-19T09:41:54Z</time>
      </trkpt>
      <trkpt lat="44.0722" lon="2.99844">
        <ele>443.5</ele>
        <time>2018-05-19T09:41:55Z</time>
      </trkpt>
      <trkpt lat="44.07225" lon="2.99844">
        <ele>443.3</ele>
        <time>2018-05-19T09:41:57Z</time>
      </trkpt>
      <trkpt lat="44.07228" lon="2.99841">
        <ele>443.2</ele>
        <time>2018-05-19T09:41:59Z</time>
      </trkpt>
      <trkpt lat="44.0723" lon="2.99838">
        <ele>442.8</ele>
        <time>2018-05-19T09:42:01Z</time>
      </trkpt>
      <trkpt lat="44.07234" lon="2.99833">
        <ele>442.3</ele>
        <time>2018-05-19T09:42:03Z</time>
      </trkpt>
      <trkpt lat="44.07236" lon="2.9983">
        <ele>442.1</ele>
        <time>2018-05-19T09:42:04Z</time>
      </trkpt>
      <trkpt lat="44.07239" lon="2.99826">
        <ele>441.9</ele>
        <time>2018-05-19T09:42:05Z</time>
      </trkpt>
      <trkpt lat="44.07241" lon="2.99819">
        <ele>441.9</ele>
        <time>2018-05-19T09:42:06Z</time>
      </trkpt>
      <trkpt lat="44.07244" lon="2.99814">
        <ele>441.9</ele>
        <time>2018-05-19T09:42:07Z</time>
      </trkpt>
      <trkpt lat="44.07246" lon="2.99807">
        <ele>442</ele>
        <time>2018-05-19T09:42:08Z</time>
      </trkpt>
      <trkpt lat="44.07247" lon="2.99801">
        <ele>442.1</ele>
        <time>2018-05-19T09:42:09Z</time>
      </trkpt>
      <trkpt lat="44.07248" lon="2.99797">
        <ele>442.3</ele>
        <time>2018-05-19T09:42:10Z</time>
      </trkpt>
      <trkpt lat="44.0725" lon="2.9979">
        <ele>442.6</ele>
        <time>2018-05-19T09:42:11Z</time>
      </trkpt>
      <trkpt lat="44.0725" lon="2.99783">
        <ele>443</ele>
        <time>2018-05-19T09:42:12Z</time>
      </trkpt>
      <trkpt lat="44.07252" lon="2.99777">
        <ele>443.2</ele>
        <time>2018-05-19T09:42:13Z</time>
      </trkpt>
      <trkpt lat="44.07253" lon="2.99773">
        <ele>443.4</ele>
        <time>2018-05-19T09:42:14Z</time>
      </trkpt>
      <trkpt lat="44.07255" lon="2.99768">
        <ele>443.6</ele>
        <time>2018-05-19T09:42:15Z</time>
      </trkpt>
      <trkpt lat="44.07256" lon="2.99761">
        <ele>443.8</ele>
        <time>2018-05-19T09:42:16Z</time>
      </trkpt>
      <trkpt lat="44.07258" lon="2.99757">
        <ele>444</ele>
        <time>2018-05-19T09:42:17Z</time>
      </trkpt>
      <trkpt lat="44.07261" lon="2.99752">
        <ele>444.1</ele>
        <time>2018-05-19T09:42:18Z</time>
      </trkpt>
      <trkpt lat="44.07262" lon="2.99747">
        <ele>444.2</ele>
        <time>2018-05-19T09:42:19Z</time>
      </trkpt>
      <trkpt lat="44.07264" lon="2.99742">
        <ele>444.3</ele>
        <time>2018-05-19T09:42:20Z</time>
      </trkpt>
      <trkpt lat="44.07267" lon="2.99737">
        <ele>444.4</ele>
        <time>2018-05-19T09:42:21Z</time>
      </trkpt>
      <trkpt lat="44.07269" lon="2.99732">
        <ele>444.6</ele>
        <time>2018-05-19T09:42:22Z</time>
      </trkpt>
      <trkpt lat="44.07272" lon="2.99728">
        <ele>444.8</ele>
        <time>2018-05-19T09:42:23Z</time>
      </trkpt>
      <trkpt lat="44.07275" lon="2.99725">
        <ele>445</ele>
        <time>2018-05-19T09:42:24Z</time>
      </trkpt>
      <trkpt lat="44.07278" lon="2.99722">
        <ele>445.3</ele>
        <time>2018-05-19T09:42:25Z</time>
      </trkpt>
      <trkpt lat="44.07282" lon="2.9972">
        <ele>445.6</ele>
        <time>2018-05-19T09:42:26Z</time>
      </trkpt>
      <trkpt lat="44.07285" lon="2.99718">
        <ele>446</ele>
        <time>2018-05-19T09:42:27Z</time>
      </trkpt>
      <trkpt lat="44.07288" lon="2.99715">
        <ele>446.4</ele>
        <time>2018-05-19T09:42:28Z</time>
      </trkpt>
      <trkpt lat="44.07292" lon="2.99713">
        <ele>446.8</ele>
        <time>2018-05-19T09:42:29Z</time>
      </trkpt>
      <trkpt lat="44.07295" lon="2.99712">
        <ele>447.1</ele>
        <time>2018-05-19T09:42:30Z</time>
      </trkpt>
      <trkpt lat="44.07299" lon="2.99711">
        <ele>447.4</ele>
        <time>2018-05-19T09:42:31Z</time>
      </trkpt>
      <trkpt lat="44.07303" lon="2.9971">
        <ele>447.7</ele>
        <time>2018-05-19T09:42:32Z</time>
      </trkpt>
      <trkpt lat="44.07307" lon="2.99709">
        <ele>448</ele>
        <time>2018-05-19T09:42:33Z</time>
      </trkpt>
      <trkpt lat="44.07311" lon="2.99709">
        <ele>448.3</ele>
        <time>2018-05-19T09:42:34Z</time>
      </trkpt>
      <trkpt lat="44.07315" lon="2.9971">
        <ele>448.5</ele>
        <time>2018-05-19T09:42:35Z</time>
      </trkpt>
      <trkpt lat="44.07319" lon="2.99711">
        <ele>448.8</ele>
        <time>2018-05-19T09:42:36Z</time>
      </trkpt>
      <trkpt lat="44.07324" lon="2.99713">
        <ele>449</ele>
        <time>2018-05-19T09:42:37Z</time>
      </trkpt>
      <trkpt lat="44.07328" lon="2.99715">
        <ele>449.3</ele>
        <time>2018-05-19T09:42:38Z</time>
      </trkpt>
      <trkpt lat="44.07333" lon="2.99717">
        <ele>449.6</ele>
        <time>2018-05-19T09:42:39Z</time>
      </trkpt>
      <trkpt lat="44.07337" lon="2.99719">
        <ele>449.8</ele>
        <time>2018-05-19T09:42:40Z</time>
      </trkpt>
      <trkpt lat="44.07341" lon="2.99722">
        <ele>450.1</ele>
        <time>2018-05-19T09:42:41Z</time>
      </trkpt>
      <trkpt lat="44.07345" lon="2.99724">
        <ele>450.4</ele>
        <time>2018-05-19T09:42:42Z</time>
      </trkpt>
      <trkpt lat="44.07348" lon="2.99726">
        <ele>450.6</ele>
        <time>2018-05-19T09:42:43Z</time>
      </trkpt>
      <trkpt lat="44.07352" lon="2.99729">
        <ele>450.8</ele>
        <time>2018-05-19T09:42:45Z</time>
      </trkpt>
      <trkpt lat="44.07357" lon="2.99731">
        <ele>451</ele>
        <time>2018-05-19T09:42:47Z</time>
      </trkpt>
      <trkpt lat="44.0736" lon="2.99733">
        <ele>451.2</ele>
        <time>2018-05-19T09:42:48Z</time>
      </trkpt>
      <trkpt lat="44.07363" lon="2.99735">
        <ele>451.4</ele>
        <time>2018-05-19T09:42:49Z</time>
      </trkpt>
      <trkpt lat="44.07367" lon="2.99736">
        <ele>451.6</ele>
        <time>2018-05-19T09:42:50Z</time>
      </trkpt>
      <trkpt lat="44.0737" lon="2.99738">
        <ele>451.9</ele>
        <time>2018-05-19T09:42:51Z</time>
      </trkpt>
      <trkpt lat="44.07373" lon="2.99739">
        <ele>452.2</ele>
        <time>2018-05-19T09:42:52Z</time>
      </trkpt>
      <trkpt lat="44.07376" lon="2.99741">
        <ele>452.5</ele>
        <time>2018-05-19T09:42:53Z</time>
      </trkpt>
      <trkpt lat="44.07379" lon="2.99743">
        <ele>452.9</ele>
        <time>2018-05-19T09:42:54Z</time>
      </trkpt>
      <trkpt lat="44.07382" lon="2.99745">
        <ele>453.3</ele>
        <time>2018-05-19T09:42:55Z</time>
      </trkpt>
      <trkpt lat="44.07385" lon="2.99747">
        <ele>453.6</ele>
        <time>2018-05-19T09:42:56Z</time>
      </trkpt>
      <trkpt lat="44.07388" lon="2.99749">
        <ele>454</ele>
        <time>2018-05-19T09:42:57Z</time>
      </trkpt>
      <trkpt lat="44.07391" lon="2.99751">
        <ele>454.4</ele>
        <time>2018-05-19T09:42:58Z</time>
      </trkpt>
      <trkpt lat="44.07394" lon="2.99753">
        <ele>454.8</ele>
        <time>2018-05-19T09:42:59Z</time>
      </trkpt>
      <trkpt lat="44.07397" lon="2.99756">
        <ele>455.1</ele>
        <time>2018-05-19T09:43:00Z</time>
      </trkpt>
      <trkpt lat="44.074" lon="2.99759">
        <ele>455.4</ele>
        <time>2018-05-19T09:43:01Z</time>
      </trkpt>
      <trkpt lat="44.07403" lon="2.99762">
        <ele>455.7</ele>
        <time>2018-05-19T09:43:02Z</time>
      </trkpt>
      <trkpt lat="44.07406" lon="2.99765">
        <ele>455.9</ele>
        <time>2018-05-19T09:43:03Z</time>
      </trkpt>
      <trkpt lat="44.07409" lon="2.99768">
        <ele>456.1</ele>
        <time>2018-05-19T09:43:04Z</time>
      </trkpt>
      <trkpt lat="44.07411" lon="2.99771">
        <ele>456.2</ele>
        <time>2018-05-19T09:43:05Z</time>
      </trkpt>
      <trkpt lat="44.07414" lon="2.99775">
        <ele>456.2</ele>
        <time>2018-05-19T09:43:06Z</time>
      </trkpt>
      <trkpt lat="44.07416" lon="2.99778">
        <ele>456.2</ele>
        <time>2018-05-19T09:43:07Z</time>
      </trkpt>
      <trkpt lat="44.07419" lon="2.99781">
        <ele>456.2</ele>
        <time>2018-05-19T09:43:08Z</time>
      </trkpt>
      <trkpt lat="44.07423" lon="2.99783">
        <ele>456.1</ele>
        <time>2018-05-19T09:43:09Z</time>
      </trkpt>
      <trkpt lat="44.07426" lon="2.99785">
        <ele>456</ele>
        <time>2018-05-19T09:43:10Z</time>
      </trkpt>
      <trkpt lat="44.0743" lon="2.99787">
        <ele>456</ele>
        <time>2018-05-19T09:43:11Z</time>
      </trkpt>
      <trkpt lat="44.07434" lon="2.99788">
        <ele>456.1</ele>
        <time>2018-05-19T09:43:12Z</time>
      </trkpt>
      <trkpt lat="44.07438" lon="2.99792">
        <ele>456.3</ele>
        <time>2018-05-19T09:43:13Z</time>
      </trkpt>
      <trkpt lat="44.07441" lon="2.99795">
        <ele>456.6</ele>
        <time>2018-05-19T09:43:14Z</time>
      </trkpt>
      <trkpt lat="44.07444" lon="2.99798">
        <ele>457</ele>
        <time>2018-05-19T09:43:15Z</time>
      </trkpt>
      <trkpt lat="44.07448" lon="2.99801">
        <ele>457.4</ele>
        <time>2018-05-19T09:43:16Z</time>
      </trkpt>
      <trkpt lat="44.07451" lon="2.99804">
        <ele>457.8</ele>
        <time>2018-05-19T09:43:17Z</time>
      </trkpt>
      <trkpt lat="44.07453" lon="2.99806">
        <ele>458</ele>
        <time>2018-05-19T09:43:18Z</time>
      </trkpt>
      <trkpt lat="44.07456" lon="2.99809">
        <ele>458.3</ele>
        <time>2018-05-19T09:43:19Z</time>
      </trkpt>
      <trkpt lat="44.07459" lon="2.99811">
        <ele>458.5</ele>
        <time>2018-05-19T09:43:20Z</time>
      </trkpt>
      <trkpt lat="44.07462" lon="2.99812">
        <ele>458.7</ele>
        <time>2018-05-19T09:43:21Z</time>
      </trkpt>
      <trkpt lat="44.07466" lon="2.99814">
        <ele>458.9</ele>
        <time>2018-05-19T09:43:22Z</time>
      </trkpt>
      <trkpt lat="44.07468" lon="2.99816">
        <ele>459.1</ele>
        <time>2018-05-19T09:43:23Z</time>
      </trkpt>
      <trkpt lat="44.07471" lon="2.99819">
        <ele>459.3</ele>
        <time>2018-05-19T09:43:24Z</time>
      </trkpt>
      <trkpt lat="44.07474" lon="2.99822">
        <ele>459.5</ele>
        <time>2018-05-19T09:43:25Z</time>
      </trkpt>
      <trkpt lat="44.07477" lon="2.99824">
        <ele>459.6</ele>
        <time>2018-05-19T09:43:26Z</time>
      </trkpt>
      <trkpt lat="44.07479" lon="2.99827">
        <ele>459.7</ele>
        <time>2018-05-19T09:43:27Z</time>
      </trkpt>
      <trkpt lat="44.07483" lon="2.99831">
        <ele>459.9</ele>
        <time>2018-05-19T09:43:28Z</time>
      </trkpt>
      <trkpt lat="44.07487" lon="2.99835">
        <ele>460.1</ele>
        <time>2018-05-19T09:43:29Z</time>
      </trkpt>
      <trkpt lat="44.0749" lon="2.99838">
        <ele>460.2</ele>
        <time>2018-05-19T09:43:30Z</time>
      </trkpt>
      <trkpt lat="44.07493" lon="2.9984">
        <ele>460.4</ele>
        <time>2018-05-19T09:43:31Z</time>
      </trkpt>
      <trkpt lat="44.07497" lon="2.99843">
        <ele>460.6</ele>
        <time>2018-05-19T09:43:32Z</time>
      </trkpt>
      <trkpt lat="44.075" lon="2.99845">
        <ele>460.8</ele>
        <time>2018-05-19T09:43:33Z</time>
      </trkpt>
      <trkpt lat="44.07503" lon="2.99847">
        <ele>460.9</ele>
        <time>2018-05-19T09:43:34Z</time>
      </trkpt>
      <trkpt lat="44.07506" lon="2.99849">
        <ele>461.1</ele>
        <time>2018-05-19T09:43:35Z</time>
      </trkpt>
      <trkpt lat="44.0751" lon="2.99852">
        <ele>461.2</ele>
        <time>2018-05-19T09:43:36Z</time>
      </trkpt>
      <trkpt lat="44.07513" lon="2.99855">
        <ele>461.4</ele>
        <time>2018-05-19T09:43:37Z</time>
      </trkpt>
      <trkpt lat="44.07516" lon="2.99859">
        <ele>461.6</ele>
        <time>2018-05-19T09:43:38Z</time>
      </trkpt>
      <trkpt lat="44.07519" lon="2.99862">
        <ele>461.7</ele>
        <time>2018-05-19T09:43:39Z</time>
      </trkpt>
      <trkpt lat="44.07521" lon="2.99866">
        <ele>461.9</ele>
        <time>2018-05-19T09:43:40Z</time>
      </trkpt>
      <trkpt lat="44.07525" lon="2.9987">
        <ele>462.1</ele>
        <time>2018-05-19T09:43:41Z</time>
      </trkpt>
      <trkpt lat="44.07528" lon="2.99874">
        <ele>462.3</ele>
        <time>2018-05-19T09:43:42Z</time>
      </trkpt>
      <trkpt lat="44.07531" lon="2.99877">
        <ele>462.5</ele>
        <time>2018-05-19T09:43:43Z</time>
      </trkpt>
      <trkpt lat="44.07534" lon="2.9988">
        <ele>462.8</ele>
        <time>2018-05-19T09:43:44Z</time>
      </trkpt>
      <trkpt lat="44.07537" lon="2.99884">
        <ele>463.1</ele>
        <time>2018-05-19T09:43:45Z</time>
      </trkpt>
      <trkpt lat="44.0754" lon="2.99888">
        <ele>463.4</ele>
        <time>2018-05-19T09:43:46Z</time>
      </trkpt>
      <trkpt lat="44.07542" lon="2.99892">
        <ele>463.7</ele>
        <time>2018-05-19T09:43:47Z</time>
      </trkpt>
      <trkpt lat="44.07545" lon="2.99895">
        <ele>463.9</ele>
        <time>2018-05-19T09:43:48Z</time>
      </trkpt>
      <trkpt lat="44.07547" lon="2.99898">
        <ele>464</ele>
        <time>2018-05-19T09:43:49Z</time>
      </trkpt>
      <trkpt lat="44.0755" lon="2.99902">
        <ele>464.1</ele>
        <time>2018-05-19T09:43:50Z</time>
      </trkpt>
      <trkpt lat="44.07554" lon="2.99905">
        <ele>464.2</ele>
        <time>2018-05-19T09:43:51Z</time>
      </trkpt>
      <trkpt lat="44.0756" lon="2.99913">
        <ele>464.4</ele>
        <time>2018-05-19T09:43:52Z</time>
      </trkpt>
      <trkpt lat="44.07563" lon="2.99916">
        <ele>464.5</ele>
        <time>2018-05-19T09:43:53Z</time>
      </trkpt>
      <trkpt lat="44.07566" lon="2.99922">
        <ele>464.7</ele>
        <time>2018-05-19T09:43:54Z</time>
      </trkpt>
      <trkpt lat="44.07569" lon="2.99925">
        <ele>464.9</ele>
        <time>2018-05-19T09:43:55Z</time>
      </trkpt>
      <trkpt lat="44.07572" lon="2.99929">
        <ele>465.1</ele>
        <time>2018-05-19T09:43:56Z</time>
      </trkpt>
      <trkpt lat="44.07576" lon="2.9993">
        <ele>465.5</ele>
        <time>2018-05-19T09:43:57Z</time>
      </trkpt>
      <trkpt lat="44.07582" lon="2.99931">
        <ele>466</ele>
        <time>2018-05-19T09:43:58Z</time>
      </trkpt>
      <trkpt lat="44.07585" lon="2.99932">
        <ele>466.3</ele>
        <time>2018-05-19T09:43:59Z</time>
      </trkpt>
      <trkpt lat="44.07589" lon="2.99932">
        <ele>466.7</ele>
        <time>2018-05-19T09:44:00Z</time>
      </trkpt>
      <trkpt lat="44.07593" lon="2.99932">
        <ele>467.1</ele>
        <time>2018-05-19T09:44:01Z</time>
      </trkpt>
      <trkpt lat="44.07597" lon="2.99933">
        <ele>467.5</ele>
        <time>2018-05-19T09:44:02Z</time>
      </trkpt>
      <trkpt lat="44.07601" lon="2.99934">
        <ele>467.9</ele>
        <time>2018-05-19T09:44:03Z</time>
      </trkpt>
      <trkpt lat="44.07605" lon="2.99935">
        <ele>468.2</ele>
        <time>2018-05-19T09:44:04Z</time>
      </trkpt>
      <trkpt lat="44.07608" lon="2.99935">
        <ele>468.6</ele>
        <time>2018-05-19T09:44:05Z</time>
      </trkpt>
      <trkpt lat="44.07612" lon="2.99936">
        <ele>468.9</ele>
        <time>2018-05-19T09:44:06Z</time>
      </trkpt>
      <trkpt lat="44.07615" lon="2.99937">
        <ele>469.2</ele>
        <time>2018-05-19T09:44:07Z</time>
      </trkpt>
      <trkpt lat="44.07618" lon="2.99939">
        <ele>469.6</ele>
        <time>2018-05-19T09:44:08Z</time>
      </trkpt>
      <trkpt lat="44.07621" lon="2.99941">
        <ele>469.9</ele>
        <time>2018-05-19T09:44:09Z</time>
      </trkpt>
      <trkpt lat="44.07623" lon="2.99944">
        <ele>470.1</ele>
        <time>2018-05-19T09:44:10Z</time>
      </trkpt>
      <trkpt lat="44.07625" lon="2.99947">
        <ele>470.5</ele>
        <time>2018-05-19T09:44:11Z</time>
      </trkpt>
      <trkpt lat="44.07627" lon="2.99951">
        <ele>470.8</ele>
        <time>2018-05-19T09:44:12Z</time>
      </trkpt>
      <trkpt lat="44.07629" lon="2.99954">
        <ele>471.1</ele>
        <time>2018-05-19T09:44:13Z</time>
      </trkpt>
      <trkpt lat="44.0763" lon="2.99958">
        <ele>471.3</ele>
        <time>2018-05-19T09:44:14Z</time>
      </trkpt>
      <trkpt lat="44.07632" lon="2.99964">
        <ele>471.8</ele>
        <time>2018-05-19T09:44:16Z</time>
      </trkpt>
      <trkpt lat="44.07633" lon="2.99968">
        <ele>472.1</ele>
        <time>2018-05-19T09:44:17Z</time>
      </trkpt>
      <trkpt lat="44.07633" lon="2.99972">
        <ele>472.4</ele>
        <time>2018-05-19T09:44:18Z</time>
      </trkpt>
      <trkpt lat="44.07633" lon="2.99977">
        <ele>472.7</ele>
        <time>2018-05-19T09:44:19Z</time>
      </trkpt>
      <trkpt lat="44.07633" lon="2.99982">
        <ele>473.1</ele>
        <time>2018-05-19T09:44:20Z</time>
      </trkpt>
      <trkpt lat="44.07633" lon="2.99986">
        <ele>473.3</ele>
        <time>2018-05-19T09:44:21Z</time>
      </trkpt>
      <trkpt lat="44.07632" lon="2.9999">
        <ele>473.6</ele>
        <time>2018-05-19T09:44:22Z</time>
      </trkpt>
      <trkpt lat="44.07631" lon="2.99994">
        <ele>473.8</ele>
        <time>2018-05-19T09:44:23Z</time>
      </trkpt>
      <trkpt lat="44.0763" lon="2.99998">
        <ele>473.9</ele>
        <time>2018-05-19T09:44:24Z</time>
      </trkpt>
      <trkpt lat="44.07629" lon="3.00002">
        <ele>473.9</ele>
        <time>2018-05-19T09:44:25Z</time>
      </trkpt>
      <trkpt lat="44.07627" lon="3.00006">
        <ele>473.9</ele>
        <time>2018-05-19T09:44:26Z</time>
      </trkpt>
      <trkpt lat="44.07626" lon="3.0001">
        <ele>473.9</ele>
        <time>2018-05-19T09:44:27Z</time>
      </trkpt>
      <trkpt lat="44.07624" lon="3.00013">
        <ele>473.8</ele>
        <time>2018-05-19T09:44:28Z</time>
      </trkpt>
      <trkpt lat="44.07622" lon="3.00018">
        <ele>473.6</ele>
        <time>2018-05-19T09:44:29Z</time>
      </trkpt>
      <trkpt lat="44.07621" lon="3.00022">
        <ele>473.5</ele>
        <time>2018-05-19T09:44:30Z</time>
      </trkpt>
      <trkpt lat="44.07618" lon="3.00026">
        <ele>473.3</ele>
        <time>2018-05-19T09:44:31Z</time>
      </trkpt>
      <trkpt lat="44.07616" lon="3.00031">
        <ele>473.1</ele>
        <time>2018-05-19T09:44:32Z</time>
      </trkpt>
      <trkpt lat="44.07614" lon="3.00036">
        <ele>472.9</ele>
        <time>2018-05-19T09:44:33Z</time>
      </trkpt>
      <trkpt lat="44.07612" lon="3.00041">
        <ele>472.7</ele>
        <time>2018-05-19T09:44:34Z</time>
      </trkpt>
      <trkpt lat="44.07607" lon="3.00047">
        <ele>472.5</ele>
        <time>2018-05-19T09:44:35Z</time>
      </trkpt>
      <trkpt lat="44.07604" lon="3.00055">
        <ele>472.3</ele>
        <time>2018-05-19T09:44:36Z</time>
      </trkpt>
      <trkpt lat="44.07601" lon="3.00062">
        <ele>472.2</ele>
        <time>2018-05-19T09:44:37Z</time>
      </trkpt>
      <trkpt lat="44.07597" lon="3.00071">
        <ele>472.1</ele>
        <time>2018-05-19T09:44:38Z</time>
      </trkpt>
      <trkpt lat="44.07596" lon="3.00078">
        <ele>472.1</ele>
        <time>2018-05-19T09:44:39Z</time>
      </trkpt>
      <trkpt lat="44.07594" lon="3.00086">
        <ele>472</ele>
        <time>2018-05-19T09:44:40Z</time>
      </trkpt>
      <trkpt lat="44.07595" lon="3.00092">
        <ele>472</ele>
        <time>2018-05-19T09:44:41Z</time>
      </trkpt>
      <trkpt lat="44.07597" lon="3.00096">
        <ele>472</ele>
        <time>2018-05-19T09:44:42Z</time>
      </trkpt>
      <trkpt lat="44.076" lon="3.001">
        <ele>472</ele>
        <time>2018-05-19T09:44:44Z</time>
      </trkpt>
      <trkpt lat="44.07604" lon="3.00104">
        <ele>472</ele>
        <time>2018-05-19T09:44:46Z</time>
      </trkpt>
      <trkpt lat="44.07608" lon="3.00105">
        <ele>472.1</ele>
        <time>2018-05-19T09:44:47Z</time>
      </trkpt>
      <trkpt lat="44.0761" lon="3.00112">
        <ele>472.2</ele>
        <time>2018-05-19T09:44:49Z</time>
      </trkpt>
      <trkpt lat="44.07613" lon="3.00114">
        <ele>472.3</ele>
        <time>2018-05-19T09:44:51Z</time>
      </trkpt>
      <trkpt lat="44.07615" lon="3.00119">
        <ele>472.5</ele>
        <time>2018-05-19T09:44:53Z</time>
      </trkpt>
      <trkpt lat="44.07618" lon="3.00124">
        <ele>472.7</ele>
        <time>2018-05-19T09:44:55Z</time>
      </trkpt>
      <trkpt lat="44.07621" lon="3.00129">
        <ele>472.9</ele>
        <time>2018-05-19T09:44:57Z</time>
      </trkpt>
      <trkpt lat="44.07624" lon="3.00131">
        <ele>473</ele>
        <time>2018-05-19T09:44:58Z</time>
      </trkpt>
      <trkpt lat="44.07627" lon="3.00133">
        <ele>473.1</ele>
        <time>2018-05-19T09:44:59Z</time>
      </trkpt>
      <trkpt lat="44.07631" lon="3.00133">
        <ele>473.3</ele>
        <time>2018-05-19T09:45:01Z</time>
      </trkpt>
      <trkpt lat="44.07635" lon="3.00133">
        <ele>473.6</ele>
        <time>2018-05-19T09:45:03Z</time>
      </trkpt>
      <trkpt lat="44.0764" lon="3.00134">
        <ele>474</ele>
        <time>2018-05-19T09:45:05Z</time>
      </trkpt>
      <trkpt lat="44.07644" lon="3.00136">
        <ele>474.4</ele>
        <time>2018-05-19T09:45:07Z</time>
      </trkpt>
      <trkpt lat="44.07648" lon="3.00141">
        <ele>475</ele>
        <time>2018-05-19T09:45:09Z</time>
      </trkpt>
      <trkpt lat="44.07651" lon="3.00147">
        <ele>475.8</ele>
        <time>2018-05-19T09:45:11Z</time>
      </trkpt>
      <trkpt lat="44.07653" lon="3.0015">
        <ele>476.3</ele>
        <time>2018-05-19T09:45:12Z</time>
      </trkpt>
      <trkpt lat="44.07656" lon="3.00155">
        <ele>477.2</ele>
        <time>2018-05-19T09:45:14Z</time>
      </trkpt>
      <trkpt lat="44.0766" lon="3.00158">
        <ele>477.9</ele>
        <time>2018-05-19T09:45:16Z</time>
      </trkpt>
      <trkpt lat="44.07663" lon="3.00161">
        <ele>478.7</ele>
        <time>2018-05-19T09:45:18Z</time>
      </trkpt>
      <trkpt lat="44.07667" lon="3.00163">
        <ele>479.4</ele>
        <time>2018-05-19T09:45:20Z</time>
      </trkpt>
      <trkpt lat="44.07671" lon="3.00166">
        <ele>480.1</ele>
        <time>2018-05-19T09:45:22Z</time>
      </trkpt>
      <trkpt lat="44.07674" lon="3.00169">
        <ele>480.8</ele>
        <time>2018-05-19T09:45:24Z</time>
      </trkpt>
      <trkpt lat="44.07679" lon="3.00171">
        <ele>481.6</ele>
        <time>2018-05-19T09:45:26Z</time>
      </trkpt>
      <trkpt lat="44.07684" lon="3.00173">
        <ele>482.4</ele>
        <time>2018-05-19T09:45:28Z</time>
      </trkpt>
      <trkpt lat="44.07689" lon="3.00175">
        <ele>483.2</ele>
        <time>2018-05-19T09:45:30Z</time>
      </trkpt>
      <trkpt lat="44.07694" lon="3.00178">
        <ele>484</ele>
        <time>2018-05-19T09:45:32Z</time>
      </trkpt>
      <trkpt lat="44.07698" lon="3.0018">
        <ele>484.8</ele>
        <time>2018-05-19T09:45:34Z</time>
      </trkpt>
      <trkpt lat="44.07703" lon="3.00183">
        <ele>485.6</ele>
        <time>2018-05-19T09:45:36Z</time>
      </trkpt>
      <trkpt lat="44.07706" lon="3.00185">
        <ele>486</ele>
        <time>2018-05-19T09:45:37Z</time>
      </trkpt>
      <trkpt lat="44.07709" lon="3.00187">
        <ele>486.3</ele>
        <time>2018-05-19T09:45:38Z</time>
      </trkpt>
      <trkpt lat="44.07712" lon="3.00187">
        <ele>486.5</ele>
        <time>2018-05-19T09:45:39Z</time>
      </trkpt>
      <trkpt lat="44.07715" lon="3.00187">
        <ele>486.8</ele>
        <time>2018-05-19T09:45:40Z</time>
      </trkpt>
      <trkpt lat="44.07718" lon="3.00186">
        <ele>486.9</ele>
        <time>2018-05-19T09:45:41Z</time>
      </trkpt>
      <trkpt lat="44.0772" lon="3.00183">
        <ele>487.1</ele>
        <time>2018-05-19T09:45:42Z</time>
      </trkpt>
      <trkpt lat="44.07722" lon="3.00179">
        <ele>487.3</ele>
        <time>2018-05-19T09:45:43Z</time>
      </trkpt>
      <trkpt lat="44.07724" lon="3.00175">
        <ele>487.5</ele>
        <time>2018-05-19T09:45:44Z</time>
      </trkpt>
      <trkpt lat="44.07725" lon="3.00172">
        <ele>487.7</ele>
        <time>2018-05-19T09:45:45Z</time>
      </trkpt>
      <trkpt lat="44.07727" lon="3.00166">
        <ele>488</ele>
        <time>2018-05-19T09:45:47Z</time>
      </trkpt>
      <trkpt lat="44.07729" lon="3.0016">
        <ele>488.5</ele>
        <time>2018-05-19T09:45:49Z</time>
      </trkpt>
      <trkpt lat="44.07732" lon="3.00155">
        <ele>489.1</ele>
        <time>2018-05-19T09:45:51Z</time>
      </trkpt>
      <trkpt lat="44.07736" lon="3.00151">
        <ele>489.8</ele>
        <time>2018-05-19T09:45:53Z</time>
      </trkpt>
      <trkpt lat="44.0774" lon="3.00148">
        <ele>490.6</ele>
        <time>2018-05-19T09:45:55Z</time>
      </trkpt>
      <trkpt lat="44.07745" lon="3.00146">
        <ele>491.5</ele>
        <time>2018-05-19T09:45:57Z</time>
      </trkpt>
      <trkpt lat="44.07749" lon="3.00145">
        <ele>492.2</ele>
        <time>2018-05-19T09:45:59Z</time>
      </trkpt>
      <trkpt lat="44.07752" lon="3.00143">
        <ele>492.8</ele>
        <time>2018-05-19T09:46:01Z</time>
      </trkpt>
      <trkpt lat="44.07756" lon="3.00143">
        <ele>493.5</ele>
        <time>2018-05-19T09:46:03Z</time>
      </trkpt>
      <trkpt lat="44.0776" lon="3.00145">
        <ele>494.4</ele>
        <time>2018-05-19T09:46:05Z</time>
      </trkpt>
      <trkpt lat="44.07764" lon="3.00145">
        <ele>495.1</ele>
        <time>2018-05-19T09:46:07Z</time>
      </trkpt>
      <trkpt lat="44.07767" lon="3.00144">
        <ele>495.9</ele>
        <time>2018-05-19T09:46:09Z</time>
      </trkpt>
      <trkpt lat="44.0777" lon="3.00142">
        <ele>496.5</ele>
        <time>2018-05-19T09:46:11Z</time>
      </trkpt>
      <trkpt lat="44.07774" lon="3.0014">
        <ele>497.3</ele>
        <time>2018-05-19T09:46:13Z</time>
      </trkpt>
      <trkpt lat="44.07778" lon="3.00138">
        <ele>497.9</ele>
        <time>2018-05-19T09:46:15Z</time>
      </trkpt>
      <trkpt lat="44.07781" lon="3.00135">
        <ele>498.5</ele>
        <time>2018-05-19T09:46:17Z</time>
      </trkpt>
      <trkpt lat="44.07785" lon="3.00132">
        <ele>499.1</ele>
        <time>2018-05-19T09:46:19Z</time>
      </trkpt>
      <trkpt lat="44.07788" lon="3.00128">
        <ele>499.7</ele>
        <time>2018-05-19T09:46:21Z</time>
      </trkpt>
      <trkpt lat="44.07791" lon="3.00124">
        <ele>500.3</ele>
        <time>2018-05-19T09:46:23Z</time>
      </trkpt>
      <trkpt lat="44.07794" lon="3.00119">
        <ele>500.9</ele>
        <time>2018-05-19T09:46:25Z</time>
      </trkpt>
      <trkpt lat="44.07796" lon="3.00115">
        <ele>501.6</ele>
        <time>2018-05-19T09:46:27Z</time>
      </trkpt>
      <trkpt lat="44.07799" lon="3.0011">
        <ele>502.3</ele>
        <time>2018-05-19T09:46:29Z</time>
      </trkpt>
      <trkpt lat="44.07801" lon="3.00105">
        <ele>503.2</ele>
        <time>2018-05-19T09:46:31Z</time>
      </trkpt>
      <trkpt lat="44.07803" lon="3.001">
        <ele>504</ele>
        <time>2018-05-19T09:46:33Z</time>
      </trkpt>
      <trkpt lat="44.07806" lon="3.00096">
        <ele>504.8</ele>
        <time>2018-05-19T09:46:35Z</time>
      </trkpt>
      <trkpt lat="44.07809" lon="3.00091">
        <ele>505.5</ele>
        <time>2018-05-19T09:46:37Z</time>
      </trkpt>
      <trkpt lat="44.07812" lon="3.00087">
        <ele>506.2</ele>
        <time>2018-05-19T09:46:39Z</time>
      </trkpt>
      <trkpt lat="44.07815" lon="3.00084">
        <ele>506.7</ele>
        <time>2018-05-19T09:46:41Z</time>
      </trkpt>
      <trkpt lat="44.07818" lon="3.00081">
        <ele>507.3</ele>
        <time>2018-05-19T09:46:43Z</time>
      </trkpt>
      <trkpt lat="44.0782" lon="3.00078">
        <ele>507.7</ele>
        <time>2018-05-19T09:46:45Z</time>
      </trkpt>
      <trkpt lat="44.07823" lon="3.00076">
        <ele>508.2</ele>
        <time>2018-05-19T09:46:47Z</time>
      </trkpt>
      <trkpt lat="44.07826" lon="3.00073">
        <ele>508.6</ele>
        <time>2018-05-19T09:46:49Z</time>
      </trkpt>
      <trkpt lat="44.07828" lon="3.00071">
        <ele>508.9</ele>
        <time>2018-05-19T09:46:51Z</time>
      </trkpt>
      <trkpt lat="44.07832" lon="3.00067">
        <ele>509.2</ele>
        <time>2018-05-19T09:46:53Z</time>
      </trkpt>
      <trkpt lat="44.07835" lon="3.00065">
        <ele>509.2</ele>
        <time>2018-05-19T09:46:54Z</time>
      </trkpt>
      <trkpt lat="44.07837" lon="3.00062">
        <ele>509.3</ele>
        <time>2018-05-19T09:46:55Z</time>
      </trkpt>
      <trkpt lat="44.07842" lon="3.00059">
        <ele>509.1</ele>
        <time>2018-05-19T09:46:56Z</time>
      </trkpt>
      <trkpt lat="44.07846" lon="3.00055">
        <ele>508.9</ele>
        <time>2018-05-19T09:46:57Z</time>
      </trkpt>
      <trkpt lat="44.0785" lon="3.0005">
        <ele>508.6</ele>
        <time>2018-05-19T09:46:58Z</time>
      </trkpt>
      <trkpt lat="44.07854" lon="3.00043">
        <ele>508.1</ele>
        <time>2018-05-19T09:46:59Z</time>
      </trkpt>
      <trkpt lat="44.07859" lon="3.00035">
        <ele>507.4</ele>
        <time>2018-05-19T09:47:00Z</time>
      </trkpt>
      <trkpt lat="44.07862" lon="3.00025">
        <ele>506.6</ele>
        <time>2018-05-19T09:47:01Z</time>
      </trkpt>
      <trkpt lat="44.07866" lon="3.00013">
        <ele>505.5</ele>
        <time>2018-05-19T09:47:02Z</time>
      </trkpt>
      <trkpt lat="44.07872" lon="3.00002">
        <ele>504.3</ele>
        <time>2018-05-19T09:47:03Z</time>
      </trkpt>
      <trkpt lat="44.07878" lon="2.99992">
        <ele>503</ele>
        <time>2018-05-19T09:47:04Z</time>
      </trkpt>
      <trkpt lat="44.07885" lon="2.99982">
        <ele>501.6</ele>
        <time>2018-05-19T09:47:05Z</time>
      </trkpt>
      <trkpt lat="44.07892" lon="2.99971">
        <ele>500</ele>
        <time>2018-05-19T09:47:06Z</time>
      </trkpt>
      <trkpt lat="44.07899" lon="2.99961">
        <ele>498.4</ele>
        <time>2018-05-19T09:47:07Z</time>
      </trkpt>
      <trkpt lat="44.07906" lon="2.99951">
        <ele>496.9</ele>
        <time>2018-05-19T09:47:08Z</time>
      </trkpt>
      <trkpt lat="44.07914" lon="2.99941">
        <ele>495.1</ele>
        <time>2018-05-19T09:47:09Z</time>
      </trkpt>
      <trkpt lat="44.07923" lon="2.99933">
        <ele>493.2</ele>
        <time>2018-05-19T09:47:10Z</time>
      </trkpt>
      <trkpt lat="44.07933" lon="2.99925">
        <ele>491.1</ele>
        <time>2018-05-19T09:47:11Z</time>
      </trkpt>
      <trkpt lat="44.07943" lon="2.99919">
        <ele>489.1</ele>
        <time>2018-05-19T09:47:12Z</time>
      </trkpt>
      <trkpt lat="44.07952" lon="2.99916">
        <ele>487.3</ele>
        <time>2018-05-19T09:47:13Z</time>
      </trkpt>
      <trkpt lat="44.07962" lon="2.99916">
        <ele>485.3</ele>
        <time>2018-05-19T09:47:14Z</time>
      </trkpt>
      <trkpt lat="44.0797" lon="2.9992">
        <ele>484</ele>
        <time>2018-05-19T09:47:15Z</time>
      </trkpt>
      <trkpt lat="44.07974" lon="2.99926">
        <ele>483.2</ele>
        <time>2018-05-19T09:47:16Z</time>
      </trkpt>
      <trkpt lat="44.07976" lon="2.99934">
        <ele>482.5</ele>
        <time>2018-05-19T09:47:17Z</time>
      </trkpt>
      <trkpt lat="44.07978" lon="2.99943">
        <ele>482</ele>
        <time>2018-05-19T09:47:18Z</time>
      </trkpt>
      <trkpt lat="44.0798" lon="2.99949">
        <ele>481.7</ele>
        <time>2018-05-19T09:47:19Z</time>
      </trkpt>
      <trkpt lat="44.07981" lon="2.99955">
        <ele>481.6</ele>
        <time>2018-05-19T09:47:20Z</time>
      </trkpt>
      <trkpt lat="44.07982" lon="2.9996">
        <ele>481.5</ele>
        <time>2018-05-19T09:47:21Z</time>
      </trkpt>
      <trkpt lat="44.07983" lon="2.99966">
        <ele>481.5</ele>
        <time>2018-05-19T09:47:22Z</time>
      </trkpt>
      <trkpt lat="44.07985" lon="2.99971">
        <ele>481.6</ele>
        <time>2018-05-19T09:47:23Z</time>
      </trkpt>
      <trkpt lat="44.07987" lon="2.99978">
        <ele>481.8</ele>
        <time>2018-05-19T09:47:24Z</time>
      </trkpt>
      <trkpt lat="44.07988" lon="2.99984">
        <ele>481.9</ele>
        <time>2018-05-19T09:47:25Z</time>
      </trkpt>
      <trkpt lat="44.0799" lon="2.99992">
        <ele>481.9</ele>
        <time>2018-05-19T09:47:26Z</time>
      </trkpt>
      <trkpt lat="44.07991" lon="3.00001">
        <ele>481.7</ele>
        <time>2018-05-19T09:47:27Z</time>
      </trkpt>
      <trkpt lat="44.07993" lon="3.00011">
        <ele>481.1</ele>
        <time>2018-05-19T09:47:28Z</time>
      </trkpt>
      <trkpt lat="44.07995" lon="3.00022">
        <ele>480.5</ele>
        <time>2018-05-19T09:47:29Z</time>
      </trkpt>
      <trkpt lat="44.07996" lon="3.00034">
        <ele>479.8</ele>
        <time>2018-05-19T09:47:30Z</time>
      </trkpt>
      <trkpt lat="44.07997" lon="3.00045">
        <ele>479.1</ele>
        <time>2018-05-19T09:47:31Z</time>
      </trkpt>
      <trkpt lat="44.07996" lon="3.00057">
        <ele>478.4</ele>
        <time>2018-05-19T09:47:32Z</time>
      </trkpt>
      <trkpt lat="44.07994" lon="3.00067">
        <ele>478</ele>
        <time>2018-05-19T09:47:33Z</time>
      </trkpt>
      <trkpt lat="44.07992" lon="3.00075">
        <ele>477.9</ele>
        <time>2018-05-19T09:47:34Z</time>
      </trkpt>
      <trkpt lat="44.07992" lon="3.00082">
        <ele>478</ele>
        <time>2018-05-19T09:47:35Z</time>
      </trkpt>
      <trkpt lat="44.07994" lon="3.00089">
        <ele>478.3</ele>
        <time>2018-05-19T09:47:36Z</time>
      </trkpt>
      <trkpt lat="44.07996" lon="3.00095">
        <ele>478.8</ele>
        <time>2018-05-19T09:47:37Z</time>
      </trkpt>
      <trkpt lat="44.07998" lon="3.00103">
        <ele>479.4</ele>
        <time>2018-05-19T09:47:38Z</time>
      </trkpt>
      <trkpt lat="44.07998" lon="3.0011">
        <ele>479.9</ele>
        <time>2018-05-19T09:47:39Z</time>
      </trkpt>
      <trkpt lat="44.07997" lon="3.00115">
        <ele>480.2</ele>
        <time>2018-05-19T09:47:40Z</time>
      </trkpt>
      <trkpt lat="44.07995" lon="3.00118">
        <ele>480.4</ele>
        <time>2018-05-19T09:47:41Z</time>
      </trkpt>
      <trkpt lat="44.07992" lon="3.00123">
        <ele>480.7</ele>
        <time>2018-05-19T09:47:43Z</time>
      </trkpt>
      <trkpt lat="44.07988" lon="3.00126">
        <ele>480.9</ele>
        <time>2018-05-19T09:47:46Z</time>
      </trkpt>
      <trkpt lat="44.07988" lon="3.00131">
        <ele>481.2</ele>
        <time>2018-05-19T09:47:48Z</time>
      </trkpt>
      <trkpt lat="44.07987" lon="3.00135">
        <ele>481.4</ele>
        <time>2018-05-19T09:47:52Z</time>
      </trkpt>
      <trkpt lat="44.07985" lon="3.00139">
        <ele>481.7</ele>
        <time>2018-05-19T09:47:56Z</time>
      </trkpt>
      <trkpt lat="44.07986" lon="3.00143">
        <ele>481.9</ele>
        <time>2018-05-19T09:47:58Z</time>
      </trkpt>
      <trkpt lat="44.07986" lon="3.00148">
        <ele>482.3</ele>
        <time>2018-05-19T09:48:00Z</time>
      </trkpt>
      <trkpt lat="44.07987" lon="3.00154">
        <ele>482.7</ele>
        <time>2018-05-19T09:48:02Z</time>
      </trkpt>
      <trkpt lat="44.07987" lon="3.00159">
        <ele>483.1</ele>
        <time>2018-05-19T09:48:04Z</time>
      </trkpt>
      <trkpt lat="44.07987" lon="3.00165">
        <ele>484</ele>
        <time>2018-05-19T09:48:06Z</time>
      </trkpt>
      <trkpt lat="44.07987" lon="3.00171">
        <ele>484.8</ele>
        <time>2018-05-19T09:48:08Z</time>
      </trkpt>
      <trkpt lat="44.07987" lon="3.00179">
        <ele>485.4</ele>
        <time>2018-05-19T09:48:10Z</time>
      </trkpt>
      <trkpt lat="44.07988" lon="3.00186">
        <ele>486.3</ele>
        <time>2018-05-19T09:48:12Z</time>
      </trkpt>
      <trkpt lat="44.07988" lon="3.0019">
        <ele>486.9</ele>
        <time>2018-05-19T09:48:13Z</time>
      </trkpt>
      <trkpt lat="44.07987" lon="3.00194">
        <ele>487.4</ele>
        <time>2018-05-19T09:48:14Z</time>
      </trkpt>
      <trkpt lat="44.07987" lon="3.00201">
        <ele>488.3</ele>
        <time>2018-05-19T09:48:16Z</time>
      </trkpt>
      <trkpt lat="44.07987" lon="3.00208">
        <ele>488.9</ele>
        <time>2018-05-19T09:48:18Z</time>
      </trkpt>
      <trkpt lat="44.07987" lon="3.00214">
        <ele>489.4</ele>
        <time>2018-05-19T09:48:20Z</time>
      </trkpt>
      <trkpt lat="44.07987" lon="3.0022">
        <ele>489.7</ele>
        <time>2018-05-19T09:48:22Z</time>
      </trkpt>
      <trkpt lat="44.07986" lon="3.00227">
        <ele>490</ele>
        <time>2018-05-19T09:48:24Z</time>
      </trkpt>
      <trkpt lat="44.07985" lon="3.00233">
        <ele>490.3</ele>
        <time>2018-05-19T09:48:26Z</time>
      </trkpt>
      <trkpt lat="44.07984" lon="3.0024">
        <ele>490.7</ele>
        <time>2018-05-19T09:48:28Z</time>
      </trkpt>
      <trkpt lat="44.07984" lon="3.00247">
        <ele>491.3</ele>
        <time>2018-05-19T09:48:30Z</time>
      </trkpt>
      <trkpt lat="44.07983" lon="3.00251">
        <ele>491.6</ele>
        <time>2018-05-19T09:48:31Z</time>
      </trkpt>
      <trkpt lat="44.07983" lon="3.00258">
        <ele>492.5</ele>
        <time>2018-05-19T09:48:33Z</time>
      </trkpt>
      <trkpt lat="44.07982" lon="3.00262">
        <ele>493</ele>
        <time>2018-05-19T09:48:34Z</time>
      </trkpt>
      <trkpt lat="44.07982" lon="3.00266">
        <ele>493.5</ele>
        <time>2018-05-19T09:48:35Z</time>
      </trkpt>
      <trkpt lat="44.07981" lon="3.0027">
        <ele>493.8</ele>
        <time>2018-05-19T09:48:36Z</time>
      </trkpt>
      <trkpt lat="44.07981" lon="3.00277">
        <ele>494.4</ele>
        <time>2018-05-19T09:48:38Z</time>
      </trkpt>
      <trkpt lat="44.07981" lon="3.00281">
        <ele>494.5</ele>
        <time>2018-05-19T09:48:39Z</time>
      </trkpt>
      <trkpt lat="44.0798" lon="3.00285">
        <ele>494.7</ele>
        <time>2018-05-19T09:48:40Z</time>
      </trkpt>
      <trkpt lat="44.0798" lon="3.00292">
        <ele>495</ele>
        <time>2018-05-19T09:48:42Z</time>
      </trkpt>
      <trkpt lat="44.0798" lon="3.00299">
        <ele>495.3</ele>
        <time>2018-05-19T09:48:44Z</time>
      </trkpt>
      <trkpt lat="44.0798" lon="3.00306">
        <ele>495.5</ele>
        <time>2018-05-19T09:48:46Z</time>
      </trkpt>
      <trkpt lat="44.0798" lon="3.00314">
        <ele>495.8</ele>
        <time>2018-05-19T09:48:48Z</time>
      </trkpt>
      <trkpt lat="44.0798" lon="3.00318">
        <ele>496</ele>
        <time>2018-05-19T09:48:49Z</time>
      </trkpt>
      <trkpt lat="44.0798" lon="3.00322">
        <ele>496.4</ele>
        <time>2018-05-19T09:48:50Z</time>
      </trkpt>
      <trkpt lat="44.0798" lon="3.00326">
        <ele>497</ele>
        <time>2018-05-19T09:48:51Z</time>
      </trkpt>
      <trkpt lat="44.0798" lon="3.0033">
        <ele>497.6</ele>
        <time>2018-05-19T09:48:52Z</time>
      </trkpt>
      <trkpt lat="44.07981" lon="3.00336">
        <ele>498.6</ele>
        <time>2018-05-19T09:48:54Z</time>
      </trkpt>
      <trkpt lat="44.07981" lon="3.00343">
        <ele>499.3</ele>
        <time>2018-05-19T09:48:56Z</time>
      </trkpt>
      <trkpt lat="44.07982" lon="3.00349">
        <ele>499.9</ele>
        <time>2018-05-19T09:48:58Z</time>
      </trkpt>
      <trkpt lat="44.07983" lon="3.00354">
        <ele>497.7</ele>
        <time>2018-05-19T09:49:00Z</time>
      </trkpt>
      <trkpt lat="44.07983" lon="3.00359">
        <ele>496</ele>
        <time>2018-05-19T09:49:02Z</time>
      </trkpt>
      <trkpt lat="44.07986" lon="3.00361">
        <ele>493.9</ele>
        <time>2018-05-19T09:49:24Z</time>
      </trkpt>
      <trkpt lat="44.07989" lon="3.00364">
        <ele>491.7</ele>
        <time>2018-05-19T09:49:28Z</time>
      </trkpt>
      <trkpt lat="44.07991" lon="3.00368">
        <ele>489.6</ele>
        <time>2018-05-19T09:49:30Z</time>
      </trkpt>
      <trkpt lat="44.07993" lon="3.00374">
        <ele>486.9</ele>
        <time>2018-05-19T09:49:32Z</time>
      </trkpt>
      <trkpt lat="44.07995" lon="3.00377">
        <ele>485.2</ele>
        <time>2018-05-19T09:49:33Z</time>
      </trkpt>
      <trkpt lat="44.07998" lon="3.00379">
        <ele>483.3</ele>
        <time>2018-05-19T09:49:34Z</time>
      </trkpt>
      <trkpt lat="44.08001" lon="3.00383">
        <ele>480.9</ele>
        <time>2018-05-19T09:49:35Z</time>
      </trkpt>
      <trkpt lat="44.08004" lon="3.00387">
        <ele>478.4</ele>
        <time>2018-05-19T09:49:36Z</time>
      </trkpt>
      <trkpt lat="44.08006" lon="3.00392">
        <ele>476.7</ele>
        <time>2018-05-19T09:49:37Z</time>
      </trkpt>
      <trkpt lat="44.08007" lon="3.00397">
        <ele>476.9</ele>
        <time>2018-05-19T09:49:38Z</time>
      </trkpt>
      <trkpt lat="44.08008" lon="3.004">
        <ele>477.1</ele>
        <time>2018-05-19T09:49:39Z</time>
      </trkpt>
      <trkpt lat="44.08009" lon="3.00404">
        <ele>477.3</ele>
        <time>2018-05-19T09:49:41Z</time>
      </trkpt>
      <trkpt lat="44.08011" lon="3.00407">
        <ele>477.4</ele>
        <time>2018-05-19T09:49:44Z</time>
      </trkpt>
      <trkpt lat="44.08016" lon="3.00408">
        <ele>477.7</ele>
        <time>2018-05-19T09:49:46Z</time>
      </trkpt>
      <trkpt lat="44.08021" lon="3.0041">
        <ele>478</ele>
        <time>2018-05-19T09:49:48Z</time>
      </trkpt>
      <trkpt lat="44.08023" lon="3.00413">
        <ele>478.2</ele>
        <time>2018-05-19T09:49:50Z</time>
      </trkpt>
      <trkpt lat="44.08025" lon="3.00417">
        <ele>478.4</ele>
        <time>2018-05-19T09:49:53Z</time>
      </trkpt>
      <trkpt lat="44.08027" lon="3.0042">
        <ele>478.6</ele>
        <time>2018-05-19T09:49:56Z</time>
      </trkpt>
      <trkpt lat="44.08028" lon="3.00425">
        <ele>478.8</ele>
        <time>2018-05-19T09:49:59Z</time>
      </trkpt>
      <trkpt lat="44.08028" lon="3.0043">
        <ele>479</ele>
        <time>2018-05-19T09:50:02Z</time>
      </trkpt>
      <trkpt lat="44.08028" lon="3.00434">
        <ele>479.1</ele>
        <time>2018-05-19T09:50:04Z</time>
      </trkpt>
      <trkpt lat="44.08029" lon="3.00438">
        <ele>479.3</ele>
        <time>2018-05-19T09:50:06Z</time>
      </trkpt>
      <trkpt lat="44.0803" lon="3.00442">
        <ele>479.5</ele>
        <time>2018-05-19T09:50:08Z</time>
      </trkpt>
      <trkpt lat="44.0803" lon="3.00447">
        <ele>479.7</ele>
        <time>2018-05-19T09:50:10Z</time>
      </trkpt>
      <trkpt lat="44.08031" lon="3.00452">
        <ele>479.9</ele>
        <time>2018-05-19T09:50:12Z</time>
      </trkpt>
      <trkpt lat="44.08031" lon="3.00456">
        <ele>482.9</ele>
        <time>2018-05-19T09:50:14Z</time>
      </trkpt>
      <trkpt lat="44.08034" lon="3.0046">
        <ele>482.9</ele>
        <time>2018-05-19T09:50:17Z</time>
      </trkpt>
      <trkpt lat="44.08037" lon="3.00461">
        <ele>482.9</ele>
        <time>2018-05-19T09:50:19Z</time>
      </trkpt>
      <trkpt lat="44.08039" lon="3.00463">
        <ele>482.9</ele>
        <time>2018-05-19T09:50:21Z</time>
      </trkpt>
      <trkpt lat="44.08042" lon="3.00464">
        <ele>482.9</ele>
        <time>2018-05-19T09:50:23Z</time>
      </trkpt>
      <trkpt lat="44.08044" lon="3.00465">
        <ele>482.9</ele>
        <time>2018-05-19T09:50:25Z</time>
      </trkpt>
      <trkpt lat="44.08048" lon="3.00466">
        <ele>482.8</ele>
        <time>2018-05-19T09:50:27Z</time>
      </trkpt>
      <trkpt lat="44.08052" lon="3.00466">
        <ele>482.8</ele>
        <time>2018-05-19T09:50:29Z</time>
      </trkpt>
      <trkpt lat="44.08056" lon="3.00467">
        <ele>482.8</ele>
        <time>2018-05-19T09:50:31Z</time>
      </trkpt>
      <trkpt lat="44.08059" lon="3.00467">
        <ele>482.8</ele>
        <time>2018-05-19T09:50:33Z</time>
      </trkpt>
      <trkpt lat="44.08063" lon="3.00468">
        <ele>482.8</ele>
        <time>2018-05-19T09:50:36Z</time>
      </trkpt>
      <trkpt lat="44.08066" lon="3.0047">
        <ele>482.7</ele>
        <time>2018-05-19T09:50:39Z</time>
      </trkpt>
      <trkpt lat="44.08065" lon="3.00466">
        <ele>482.7</ele>
        <time>2018-05-19T09:51:08Z</time>
      </trkpt>
      <trkpt lat="44.08068" lon="3.00466">
        <ele>482.6</ele>
        <time>2018-05-19T09:51:42Z</time>
      </trkpt>
      <trkpt lat="44.08069" lon="3.0047">
        <ele>482.6</ele>
        <time>2018-05-19T09:51:54Z</time>
      </trkpt>
      <trkpt lat="44.08071" lon="3.00472">
        <ele>482.5</ele>
        <time>2018-05-19T09:55:10Z</time>
      </trkpt>
      <trkpt lat="44.08073" lon="3.00475">
        <ele>482.5</ele>
        <time>2018-05-19T09:55:12Z</time>
      </trkpt>
      <trkpt lat="44.08076" lon="3.00479">
        <ele>482.4</ele>
        <time>2018-05-19T09:55:14Z</time>
      </trkpt>
      <trkpt lat="44.0808" lon="3.00482">
        <ele>482.1</ele>
        <time>2018-05-19T09:55:16Z</time>
      </trkpt>
      <trkpt lat="44.08085" lon="3.00485">
        <ele>481.7</ele>
        <time>2018-05-19T09:55:18Z</time>
      </trkpt>
      <trkpt lat="44.08089" lon="3.00485">
        <ele>481.5</ele>
        <time>2018-05-19T09:55:19Z</time>
      </trkpt>
      <trkpt lat="44.08092" lon="3.00486">
        <ele>481.3</ele>
        <time>2018-05-19T09:55:20Z</time>
      </trkpt>
      <trkpt lat="44.08096" lon="3.00487">
        <ele>481.1</ele>
        <time>2018-05-19T09:55:21Z</time>
      </trkpt>
      <trkpt lat="44.081" lon="3.00488">
        <ele>480.9</ele>
        <time>2018-05-19T09:55:22Z</time>
      </trkpt>
      <trkpt lat="44.08104" lon="3.00489">
        <ele>480.8</ele>
        <time>2018-05-19T09:55:23Z</time>
      </trkpt>
      <trkpt lat="44.08109" lon="3.0049">
        <ele>480.7</ele>
        <time>2018-05-19T09:55:24Z</time>
      </trkpt>
      <trkpt lat="44.08113" lon="3.0049">
        <ele>480.5</ele>
        <time>2018-05-19T09:55:25Z</time>
      </trkpt>
      <trkpt lat="44.08117" lon="3.00491">
        <ele>480.4</ele>
        <time>2018-05-19T09:55:26Z</time>
      </trkpt>
      <trkpt lat="44.08121" lon="3.00491">
        <ele>480.3</ele>
        <time>2018-05-19T09:55:27Z</time>
      </trkpt>
      <trkpt lat="44.08125" lon="3.0049">
        <ele>480.2</ele>
        <time>2018-05-19T09:55:28Z</time>
      </trkpt>
      <trkpt lat="44.08133" lon="3.00488">
        <ele>479.8</ele>
        <time>2018-05-19T09:55:29Z</time>
      </trkpt>
      <trkpt lat="44.0814" lon="3.00489">
        <ele>479.5</ele>
        <time>2018-05-19T09:55:30Z</time>
      </trkpt>
      <trkpt lat="44.08146" lon="3.0049">
        <ele>479.2</ele>
        <time>2018-05-19T09:55:31Z</time>
      </trkpt>
      <trkpt lat="44.08153" lon="3.0049">
        <ele>478.8</ele>
        <time>2018-05-19T09:55:32Z</time>
      </trkpt>
      <trkpt lat="44.0816" lon="3.0049">
        <ele>478.4</ele>
        <time>2018-05-19T09:55:33Z</time>
      </trkpt>
      <trkpt lat="44.08168" lon="3.00489">
        <ele>477.9</ele>
        <time>2018-05-19T09:55:34Z</time>
      </trkpt>
      <trkpt lat="44.08177" lon="3.0049">
        <ele>477.4</ele>
        <time>2018-05-19T09:55:35Z</time>
      </trkpt>
      <trkpt lat="44.08186" lon="3.00491">
        <ele>476.9</ele>
        <time>2018-05-19T09:55:36Z</time>
      </trkpt>
      <trkpt lat="44.08195" lon="3.00491">
        <ele>476.3</ele>
        <time>2018-05-19T09:55:37Z</time>
      </trkpt>
      <trkpt lat="44.08205" lon="3.00491">
        <ele>475.7</ele>
        <time>2018-05-19T09:55:38Z</time>
      </trkpt>
      <trkpt lat="44.08216" lon="3.00492">
        <ele>474.9</ele>
        <time>2018-05-19T09:55:39Z</time>
      </trkpt>
      <trkpt lat="44.08224" lon="3.00493">
        <ele>474.3</ele>
        <time>2018-05-19T09:55:40Z</time>
      </trkpt>
      <trkpt lat="44.08232" lon="3.00495">
        <ele>473.8</ele>
        <time>2018-05-19T09:55:41Z</time>
      </trkpt>
      <trkpt lat="44.0824" lon="3.00496">
        <ele>473.2</ele>
        <time>2018-05-19T09:55:42Z</time>
      </trkpt>
      <trkpt lat="44.0825" lon="3.00496">
        <ele>472.6</ele>
        <time>2018-05-19T09:55:43Z</time>
      </trkpt>
      <trkpt lat="44.08258" lon="3.00498">
        <ele>472</ele>
        <time>2018-05-19T09:55:44Z</time>
      </trkpt>
      <trkpt lat="44.08267" lon="3.005">
        <ele>471.5</ele>
        <time>2018-05-19T09:55:45Z</time>
      </trkpt>
      <trkpt lat="44.08274" lon="3.005">
        <ele>471</ele>
        <time>2018-05-19T09:55:46Z</time>
      </trkpt>
      <trkpt lat="44.08282" lon="3.005">
        <ele>470.6</ele>
        <time>2018-05-19T09:55:47Z</time>
      </trkpt>
      <trkpt lat="44.08288" lon="3.00494">
        <ele>470.4</ele>
        <time>2018-05-19T09:55:48Z</time>
      </trkpt>
      <trkpt lat="44.08293" lon="3.00489">
        <ele>470.2</ele>
        <time>2018-05-19T09:55:49Z</time>
      </trkpt>
      <trkpt lat="44.08298" lon="3.00483">
        <ele>470.1</ele>
        <time>2018-05-19T09:55:50Z</time>
      </trkpt>
      <trkpt lat="44.08301" lon="3.00476">
        <ele>469.9</ele>
        <time>2018-05-19T09:55:51Z</time>
      </trkpt>
      <trkpt lat="44.08304" lon="3.00469">
        <ele>469.7</ele>
        <time>2018-05-19T09:55:52Z</time>
      </trkpt>
      <trkpt lat="44.08308" lon="3.00462">
        <ele>469.5</ele>
        <time>2018-05-19T09:55:53Z</time>
      </trkpt>
      <trkpt lat="44.08312" lon="3.00455">
        <ele>469.4</ele>
        <time>2018-05-19T09:55:54Z</time>
      </trkpt>
      <trkpt lat="44.08314" lon="3.00448">
        <ele>469.2</ele>
        <time>2018-05-19T09:55:55Z</time>
      </trkpt>
      <trkpt lat="44.08316" lon="3.0044">
        <ele>469</ele>
        <time>2018-05-19T09:55:56Z</time>
      </trkpt>
      <trkpt lat="44.08317" lon="3.00433">
        <ele>468.8</ele>
        <time>2018-05-19T09:55:57Z</time>
      </trkpt>
      <trkpt lat="44.08318" lon="3.00425">
        <ele>468.6</ele>
        <time>2018-05-19T09:55:58Z</time>
      </trkpt>
      <trkpt lat="44.08319" lon="3.00418">
        <ele>468.5</ele>
        <time>2018-05-19T09:55:59Z</time>
      </trkpt>
      <trkpt lat="44.08319" lon="3.00412">
        <ele>468.4</ele>
        <time>2018-05-19T09:56:00Z</time>
      </trkpt>
      <trkpt lat="44.0832" lon="3.00402">
        <ele>468.2</ele>
        <time>2018-05-19T09:56:01Z</time>
      </trkpt>
      <trkpt lat="44.08321" lon="3.00395">
        <ele>468.1</ele>
        <time>2018-05-19T09:56:02Z</time>
      </trkpt>
      <trkpt lat="44.08321" lon="3.00388">
        <ele>468</ele>
        <time>2018-05-19T09:56:03Z</time>
      </trkpt>
      <trkpt lat="44.08321" lon="3.00382">
        <ele>467.9</ele>
        <time>2018-05-19T09:56:04Z</time>
      </trkpt>
      <trkpt lat="44.08321" lon="3.00377">
        <ele>467.7</ele>
        <time>2018-05-19T09:56:05Z</time>
      </trkpt>
      <trkpt lat="44.08321" lon="3.0037">
        <ele>467.6</ele>
        <time>2018-05-19T09:56:06Z</time>
      </trkpt>
      <trkpt lat="44.08321" lon="3.00363">
        <ele>467.4</ele>
        <time>2018-05-19T09:56:07Z</time>
      </trkpt>
      <trkpt lat="44.08322" lon="3.00356">
        <ele>467.1</ele>
        <time>2018-05-19T09:56:08Z</time>
      </trkpt>
      <trkpt lat="44.08325" lon="3.00346">
        <ele>466.9</ele>
        <time>2018-05-19T09:56:09Z</time>
      </trkpt>
      <trkpt lat="44.08325" lon="3.0034">
        <ele>466.8</ele>
        <time>2018-05-19T09:56:10Z</time>
      </trkpt>
      <trkpt lat="44.08325" lon="3.00334">
        <ele>466.7</ele>
        <time>2018-05-19T09:56:11Z</time>
      </trkpt>
      <trkpt lat="44.08326" lon="3.00329">
        <ele>466.5</ele>
        <time>2018-05-19T09:56:12Z</time>
      </trkpt>
      <trkpt lat="44.08327" lon="3.00322">
        <ele>466.2</ele>
        <time>2018-05-19T09:56:13Z</time>
      </trkpt>
      <trkpt lat="44.08328" lon="3.00316">
        <ele>466.1</ele>
        <time>2018-05-19T09:56:14Z</time>
      </trkpt>
      <trkpt lat="44.08329" lon="3.00309">
        <ele>465.9</ele>
        <time>2018-05-19T09:56:15Z</time>
      </trkpt>
      <trkpt lat="44.08329" lon="3.00302">
        <ele>465.7</ele>
        <time>2018-05-19T09:56:16Z</time>
      </trkpt>
      <trkpt lat="44.0833" lon="3.00296">
        <ele>465.3</ele>
        <time>2018-05-19T09:56:17Z</time>
      </trkpt>
      <trkpt lat="44.08331" lon="3.00289">
        <ele>465.1</ele>
        <time>2018-05-19T09:56:18Z</time>
      </trkpt>
      <trkpt lat="44.08332" lon="3.00284">
        <ele>464.9</ele>
        <time>2018-05-19T09:56:19Z</time>
      </trkpt>
      <trkpt lat="44.08333" lon="3.00277">
        <ele>464.7</ele>
        <time>2018-05-19T09:56:20Z</time>
      </trkpt>
      <trkpt lat="44.08335" lon="3.00271">
        <ele>464.5</ele>
        <time>2018-05-19T09:56:21Z</time>
      </trkpt>
      <trkpt lat="44.08337" lon="3.00267">
        <ele>464.3</ele>
        <time>2018-05-19T09:56:22Z</time>
      </trkpt>
      <trkpt lat="44.08339" lon="3.00261">
        <ele>464.1</ele>
        <time>2018-05-19T09:56:23Z</time>
      </trkpt>
      <trkpt lat="44.0834" lon="3.00256">
        <ele>463.8</ele>
        <time>2018-05-19T09:56:24Z</time>
      </trkpt>
      <trkpt lat="44.0834" lon="3.0025">
        <ele>463.6</ele>
        <time>2018-05-19T09:56:25Z</time>
      </trkpt>
      <trkpt lat="44.08341" lon="3.00245">
        <ele>463.5</ele>
        <time>2018-05-19T09:56:26Z</time>
      </trkpt>
      <trkpt lat="44.08343" lon="3.0024">
        <ele>463.3</ele>
        <time>2018-05-19T09:56:27Z</time>
      </trkpt>
      <trkpt lat="44.08343" lon="3.00234">
        <ele>463.1</ele>
        <time>2018-05-19T09:56:28Z</time>
      </trkpt>
      <trkpt lat="44.08345" lon="3.00227">
        <ele>462.9</ele>
        <time>2018-05-19T09:56:29Z</time>
      </trkpt>
      <trkpt lat="44.08344" lon="3.0022">
        <ele>462.6</ele>
        <time>2018-05-19T09:56:30Z</time>
      </trkpt>
      <trkpt lat="44.08343" lon="3.00212">
        <ele>462.2</ele>
        <time>2018-05-19T09:56:31Z</time>
      </trkpt>
      <trkpt lat="44.0834" lon="3.00203">
        <ele>461.9</ele>
        <time>2018-05-19T09:56:32Z</time>
      </trkpt>
      <trkpt lat="44.08338" lon="3.00195">
        <ele>461.7</ele>
        <time>2018-05-19T09:56:33Z</time>
      </trkpt>
      <trkpt lat="44.08335" lon="3.00188">
        <ele>461.5</ele>
        <time>2018-05-19T09:56:34Z</time>
      </trkpt>
      <trkpt lat="44.08334" lon="3.0018">
        <ele>461.2</ele>
        <time>2018-05-19T09:56:35Z</time>
      </trkpt>
      <trkpt lat="44.08333" lon="3.00173">
        <ele>460.8</ele>
        <time>2018-05-19T09:56:36Z</time>
      </trkpt>
      <trkpt lat="44.08333" lon="3.00166">
        <ele>460.5</ele>
        <time>2018-05-19T09:56:37Z</time>
      </trkpt>
      <trkpt lat="44.08332" lon="3.00161">
        <ele>460.4</ele>
        <time>2018-05-19T09:56:38Z</time>
      </trkpt>
      <trkpt lat="44.0833" lon="3.00156">
        <ele>460.2</ele>
        <time>2018-05-19T09:56:39Z</time>
      </trkpt>
      <trkpt lat="44.08327" lon="3.00152">
        <ele>459.9</ele>
        <time>2018-05-19T09:56:40Z</time>
      </trkpt>
      <trkpt lat="44.08322" lon="3.00149">
        <ele>459.8</ele>
        <time>2018-05-19T09:56:41Z</time>
      </trkpt>
      <trkpt lat="44.08315" lon="3.00147">
        <ele>459.7</ele>
        <time>2018-05-19T09:56:42Z</time>
      </trkpt>
      <trkpt lat="44.08307" lon="3.00144">
        <ele>459.5</ele>
        <time>2018-05-19T09:56:43Z</time>
      </trkpt>
      <trkpt lat="44.08301" lon="3.0014">
        <ele>459.2</ele>
        <time>2018-05-19T09:56:44Z</time>
      </trkpt>
      <trkpt lat="44.08293" lon="3.00138">
        <ele>458.7</ele>
        <time>2018-05-19T09:56:45Z</time>
      </trkpt>
      <trkpt lat="44.08283" lon="3.00133">
        <ele>457.8</ele>
        <time>2018-05-19T09:56:46Z</time>
      </trkpt>
      <trkpt lat="44.08275" lon="3.00128">
        <ele>457</ele>
        <time>2018-05-19T09:56:47Z</time>
      </trkpt>
      <trkpt lat="44.08268" lon="3.00121">
        <ele>455.9</ele>
        <time>2018-05-19T09:56:48Z</time>
      </trkpt>
      <trkpt lat="44.0826" lon="3.00115">
        <ele>454.6</ele>
        <time>2018-05-19T09:56:49Z</time>
      </trkpt>
      <trkpt lat="44.08252" lon="3.00106">
        <ele>452.9</ele>
        <time>2018-05-19T09:56:50Z</time>
      </trkpt>
      <trkpt lat="44.08244" lon="3.00098">
        <ele>451.3</ele>
        <time>2018-05-19T09:56:51Z</time>
      </trkpt>
      <trkpt lat="44.08236" lon="3.00091">
        <ele>449.8</ele>
        <time>2018-05-19T09:56:52Z</time>
      </trkpt>
      <trkpt lat="44.08226" lon="3.00083">
        <ele>448</ele>
        <time>2018-05-19T09:56:53Z</time>
      </trkpt>
      <trkpt lat="44.08218" lon="3.00073">
        <ele>446</ele>
        <time>2018-05-19T09:56:54Z</time>
      </trkpt>
      <trkpt lat="44.0821" lon="3.00066">
        <ele>443.4</ele>
        <time>2018-05-19T09:56:55Z</time>
      </trkpt>
      <trkpt lat="44.08201" lon="3.00058">
        <ele>441.5</ele>
        <time>2018-05-19T09:56:56Z</time>
      </trkpt>
      <trkpt lat="44.08192" lon="3.00051">
        <ele>439.3</ele>
        <time>2018-05-19T09:56:57Z</time>
      </trkpt>
      <trkpt lat="44.08181" lon="3.00043">
        <ele>436.7</ele>
        <time>2018-05-19T09:56:58Z</time>
      </trkpt>
      <trkpt lat="44.08172" lon="3.00036">
        <ele>435.5</ele>
        <time>2018-05-19T09:56:59Z</time>
      </trkpt>
      <trkpt lat="44.08165" lon="3.00029">
        <ele>434.8</ele>
        <time>2018-05-19T09:57:00Z</time>
      </trkpt>
      <trkpt lat="44.0816" lon="3.00017">
        <ele>434.2</ele>
        <time>2018-05-19T09:57:01Z</time>
      </trkpt>
      <trkpt lat="44.08157" lon="3.00006">
        <ele>433.6</ele>
        <time>2018-05-19T09:57:02Z</time>
      </trkpt>
      <trkpt lat="44.08156" lon="3">
        <ele>433.3</ele>
        <time>2018-05-19T09:57:03Z</time>
      </trkpt>
      <trkpt lat="44.08155" lon="2.99996">
        <ele>433.2</ele>
        <time>2018-05-19T09:57:04Z</time>
      </trkpt>
      <trkpt lat="44.08161" lon="2.99994">
        <ele>432.9</ele>
        <time>2018-05-19T09:57:06Z</time>
      </trkpt>
      <trkpt lat="44.08163" lon="2.99992">
        <ele>432.8</ele>
        <time>2018-05-19T09:57:08Z</time>
      </trkpt>
      <trkpt lat="44.08164" lon="2.99988">
        <ele>432.6</ele>
        <time>2018-05-19T09:57:09Z</time>
      </trkpt>
      <trkpt lat="44.08166" lon="2.99983">
        <ele>432.4</ele>
        <time>2018-05-19T09:57:11Z</time>
      </trkpt>
      <trkpt lat="44.08165" lon="2.99979">
        <ele>432.3</ele>
        <time>2018-05-19T09:57:15Z</time>
      </trkpt>
      <trkpt lat="44.08164" lon="2.99975">
        <ele>432.1</ele>
        <time>2018-05-19T09:57:21Z</time>
      </trkpt>
      <trkpt lat="44.08162" lon="2.9997">
        <ele>431.9</ele>
        <time>2018-05-19T09:57:24Z</time>
      </trkpt>
      <trkpt lat="44.08159" lon="2.99966">
        <ele>431.8</ele>
        <time>2018-05-19T09:57:26Z</time>
      </trkpt>
      <trkpt lat="44.08158" lon="2.99963">
        <ele>431.7</ele>
        <time>2018-05-19T09:57:27Z</time>
      </trkpt>
      <trkpt lat="44.08156" lon="2.99959">
        <ele>431.5</ele>
        <time>2018-05-19T09:57:28Z</time>
      </trkpt>
      <trkpt lat="44.08154" lon="2.99955">
        <ele>431.3</ele>
        <time>2018-05-19T09:57:29Z</time>
      </trkpt>
      <trkpt lat="44.08153" lon="2.9995">
        <ele>431.1</ele>
        <time>2018-05-19T09:57:30Z</time>
      </trkpt>
      <trkpt lat="44.08152" lon="2.99946">
        <ele>430.9</ele>
        <time>2018-05-19T09:57:31Z</time>
      </trkpt>
      <trkpt lat="44.08152" lon="2.99942">
        <ele>430.7</ele>
        <time>2018-05-19T09:57:32Z</time>
      </trkpt>
      <trkpt lat="44.08153" lon="2.99937">
        <ele>430.5</ele>
        <time>2018-05-19T09:57:33Z</time>
      </trkpt>
      <trkpt lat="44.08154" lon="2.99932">
        <ele>430.3</ele>
        <time>2018-05-19T09:57:34Z</time>
      </trkpt>
      <trkpt lat="44.08155" lon="2.99928">
        <ele>430.1</ele>
        <time>2018-05-19T09:57:35Z</time>
      </trkpt>
      <trkpt lat="44.08156" lon="2.99924">
        <ele>430</ele>
        <time>2018-05-19T09:57:36Z</time>
      </trkpt>
      <trkpt lat="44.08158" lon="2.99919">
        <ele>429.8</ele>
        <time>2018-05-19T09:57:37Z</time>
      </trkpt>
      <trkpt lat="44.08161" lon="2.99913">
        <ele>429.6</ele>
        <time>2018-05-19T09:57:38Z</time>
      </trkpt>
      <trkpt lat="44.08164" lon="2.99907">
        <ele>429.4</ele>
        <time>2018-05-19T09:57:39Z</time>
      </trkpt>
      <trkpt lat="44.08168" lon="2.999">
        <ele>429.1</ele>
        <time>2018-05-19T09:57:40Z</time>
      </trkpt>
      <trkpt lat="44.08173" lon="2.99894">
        <ele>428.9</ele>
        <time>2018-05-19T09:57:41Z</time>
      </trkpt>
      <trkpt lat="44.08182" lon="2.99881">
        <ele>428.5</ele>
        <time>2018-05-19T09:57:42Z</time>
      </trkpt>
      <trkpt lat="44.08186" lon="2.99875">
        <ele>427.9</ele>
        <time>2018-05-19T09:57:43Z</time>
      </trkpt>
      <trkpt lat="44.08189" lon="2.99867">
        <ele>427.8</ele>
        <time>2018-05-19T09:57:44Z</time>
      </trkpt>
      <trkpt lat="44.08193" lon="2.99859">
        <ele>427.7</ele>
        <time>2018-05-19T09:57:45Z</time>
      </trkpt>
      <trkpt lat="44.08195" lon="2.99852">
        <ele>427.5</ele>
        <time>2018-05-19T09:57:46Z</time>
      </trkpt>
      <trkpt lat="44.08199" lon="2.99844">
        <ele>427.4</ele>
        <time>2018-05-19T09:57:47Z</time>
      </trkpt>
      <trkpt lat="44.08204" lon="2.99839">
        <ele>427.1</ele>
        <time>2018-05-19T09:57:48Z</time>
      </trkpt>
      <trkpt lat="44.08212" lon="2.99835">
        <ele>426.6</ele>
        <time>2018-05-19T09:57:49Z</time>
      </trkpt>
      <trkpt lat="44.08214" lon="2.99828">
        <ele>426.5</ele>
        <time>2018-05-19T09:57:50Z</time>
      </trkpt>
      <trkpt lat="44.08219" lon="2.99822">
        <ele>426</ele>
        <time>2018-05-19T09:57:51Z</time>
      </trkpt>
      <trkpt lat="44.08218" lon="2.99813">
        <ele>425.1</ele>
        <time>2018-05-19T09:57:52Z</time>
      </trkpt>
      <trkpt lat="44.08218" lon="2.99804">
        <ele>424.7</ele>
        <time>2018-05-19T09:57:53Z</time>
      </trkpt>
      <trkpt lat="44.08217" lon="2.99797">
        <ele>424.3</ele>
        <time>2018-05-19T09:57:54Z</time>
      </trkpt>
      <trkpt lat="44.08218" lon="2.9979">
        <ele>423.9</ele>
        <time>2018-05-19T09:57:55Z</time>
      </trkpt>
      <trkpt lat="44.08217" lon="2.99782">
        <ele>423.7</ele>
        <time>2018-05-19T09:57:56Z</time>
      </trkpt>
      <trkpt lat="44.0822" lon="2.99772">
        <ele>423.1</ele>
        <time>2018-05-19T09:57:57Z</time>
      </trkpt>
      <trkpt lat="44.08222" lon="2.99766">
        <ele>422.5</ele>
        <time>2018-05-19T09:57:58Z</time>
      </trkpt>
      <trkpt lat="44.08222" lon="2.99758">
        <ele>421.8</ele>
        <time>2018-05-19T09:57:59Z</time>
      </trkpt>
      <trkpt lat="44.0822" lon="2.99748">
        <ele>421.2</ele>
        <time>2018-05-19T09:58:00Z</time>
      </trkpt>
      <trkpt lat="44.08217" lon="2.99738">
        <ele>420</ele>
        <time>2018-05-19T09:58:01Z</time>
      </trkpt>
      <trkpt lat="44.08216" lon="2.99729">
        <ele>418.5</ele>
        <time>2018-05-19T09:58:02Z</time>
      </trkpt>
      <trkpt lat="44.08214" lon="2.99721">
        <ele>417.7</ele>
        <time>2018-05-19T09:58:03Z</time>
      </trkpt>
      <trkpt lat="44.08212" lon="2.99714">
        <ele>416.5</ele>
        <time>2018-05-19T09:58:04Z</time>
      </trkpt>
      <trkpt lat="44.08211" lon="2.99705">
        <ele>415.2</ele>
        <time>2018-05-19T09:58:05Z</time>
      </trkpt>
      <trkpt lat="44.08213" lon="2.99696">
        <ele>414.3</ele>
        <time>2018-05-19T09:58:06Z</time>
      </trkpt>
      <trkpt lat="44.08212" lon="2.99688">
        <ele>413.3</ele>
        <time>2018-05-19T09:58:07Z</time>
      </trkpt>
      <trkpt lat="44.08211" lon="2.99679">
        <ele>412.5</ele>
        <time>2018-05-19T09:58:08Z</time>
      </trkpt>
      <trkpt lat="44.08213" lon="2.99668">
        <ele>411.3</ele>
        <time>2018-05-19T09:58:09Z</time>
      </trkpt>
      <trkpt lat="44.08213" lon="2.99657">
        <ele>410.4</ele>
        <time>2018-05-19T09:58:10Z</time>
      </trkpt>
      <trkpt lat="44.08215" lon="2.99646">
        <ele>409.5</ele>
        <time>2018-05-19T09:58:11Z</time>
      </trkpt>
      <trkpt lat="44.08216" lon="2.99639">
        <ele>409.2</ele>
        <time>2018-05-19T09:58:12Z</time>
      </trkpt>
      <trkpt lat="44.08219" lon="2.99631">
        <ele>408.9</ele>
        <time>2018-05-19T09:58:13Z</time>
      </trkpt>
      <trkpt lat="44.08221" lon="2.99625">
        <ele>408.9</ele>
        <time>2018-05-19T09:58:14Z</time>
      </trkpt>
      <trkpt lat="44.08222" lon="2.9962">
        <ele>409</ele>
        <time>2018-05-19T09:58:15Z</time>
      </trkpt>
      <trkpt lat="44.08222" lon="2.99615">
        <ele>408.6</ele>
        <time>2018-05-19T09:58:16Z</time>
      </trkpt>
      <trkpt lat="44.08223" lon="2.99609">
        <ele>408</ele>
        <time>2018-05-19T09:58:17Z</time>
      </trkpt>
      <trkpt lat="44.08224" lon="2.99603">
        <ele>407.6</ele>
        <time>2018-05-19T09:58:18Z</time>
      </trkpt>
      <trkpt lat="44.08227" lon="2.99596">
        <ele>406.9</ele>
        <time>2018-05-19T09:58:19Z</time>
      </trkpt>
      <trkpt lat="44.08227" lon="2.9959">
        <ele>406.3</ele>
        <time>2018-05-19T09:58:20Z</time>
      </trkpt>
      <trkpt lat="44.08226" lon="2.99581">
        <ele>405.3</ele>
        <time>2018-05-19T09:58:21Z</time>
      </trkpt>
      <trkpt lat="44.08224" lon="2.99572">
        <ele>404.4</ele>
        <time>2018-05-19T09:58:22Z</time>
      </trkpt>
      <trkpt lat="44.08226" lon="2.99562">
        <ele>403.8</ele>
        <time>2018-05-19T09:58:23Z</time>
      </trkpt>
      <trkpt lat="44.08225" lon="2.99553">
        <ele>403.4</ele>
        <time>2018-05-19T09:58:24Z</time>
      </trkpt>
      <trkpt lat="44.08226" lon="2.99542">
        <ele>402.8</ele>
        <time>2018-05-19T09:58:25Z</time>
      </trkpt>
      <trkpt lat="44.08227" lon="2.99532">
        <ele>402.5</ele>
        <time>2018-05-19T09:58:26Z</time>
      </trkpt>
      <trkpt lat="44.08227" lon="2.99521">
        <ele>402.1</ele>
        <time>2018-05-19T09:58:27Z</time>
      </trkpt>
      <trkpt lat="44.08227" lon="2.9951">
        <ele>401.8</ele>
        <time>2018-05-19T09:58:28Z</time>
      </trkpt>
      <trkpt lat="44.0823" lon="2.99496">
        <ele>401.3</ele>
        <time>2018-05-19T09:58:29Z</time>
      </trkpt>
      <trkpt lat="44.08228" lon="2.99484">
        <ele>400.4</ele>
        <time>2018-05-19T09:58:30Z</time>
      </trkpt>
      <trkpt lat="44.08227" lon="2.9947">
        <ele>399.6</ele>
        <time>2018-05-19T09:58:31Z</time>
      </trkpt>
      <trkpt lat="44.08227" lon="2.99456">
        <ele>398.4</ele>
        <time>2018-05-19T09:58:32Z</time>
      </trkpt>
      <trkpt lat="44.08227" lon="2.99444">
        <ele>397.2</ele>
        <time>2018-05-19T09:58:33Z</time>
      </trkpt>
      <trkpt lat="44.08228" lon="2.99432">
        <ele>396.2</ele>
        <time>2018-05-19T09:58:34Z</time>
      </trkpt>
      <trkpt lat="44.08227" lon="2.9942">
        <ele>395.6</ele>
        <time>2018-05-19T09:58:35Z</time>
      </trkpt>
      <trkpt lat="44.08228" lon="2.99408">
        <ele>394.6</ele>
        <time>2018-05-19T09:58:36Z</time>
      </trkpt>
      <trkpt lat="44.08227" lon="2.99394">
        <ele>393.2</ele>
        <time>2018-05-19T09:58:37Z</time>
      </trkpt>
      <trkpt lat="44.08226" lon="2.99379">
        <ele>391.7</ele>
        <time>2018-05-19T09:58:38Z</time>
      </trkpt>
      <trkpt lat="44.08225" lon="2.99366">
        <ele>390.3</ele>
        <time>2018-05-19T09:58:39Z</time>
      </trkpt>
      <trkpt lat="44.08226" lon="2.99351">
        <ele>389.1</ele>
        <time>2018-05-19T09:58:40Z</time>
      </trkpt>
      <trkpt lat="44.08227" lon="2.99338">
        <ele>387.7</ele>
        <time>2018-05-19T09:58:41Z</time>
      </trkpt>
      <trkpt lat="44.08225" lon="2.99326">
        <ele>386.5</ele>
        <time>2018-05-19T09:58:42Z</time>
      </trkpt>
      <trkpt lat="44.08224" lon="2.99312">
        <ele>385.1</ele>
        <time>2018-05-19T09:58:43Z</time>
      </trkpt>
      <trkpt lat="44.08223" lon="2.99299">
        <ele>383.7</ele>
        <time>2018-05-19T09:58:44Z</time>
      </trkpt>
      <trkpt lat="44.08223" lon="2.99284">
        <ele>382</ele>
        <time>2018-05-19T09:58:45Z</time>
      </trkpt>
      <trkpt lat="44.08223" lon="2.9927">
        <ele>380.6</ele>
        <time>2018-05-19T09:58:46Z</time>
      </trkpt>
      <trkpt lat="44.08222" lon="2.99258">
        <ele>379.3</ele>
        <time>2018-05-19T09:58:47Z</time>
      </trkpt>
      <trkpt lat="44.08219" lon="2.99245">
        <ele>377.8</ele>
        <time>2018-05-19T09:58:48Z</time>
      </trkpt>
      <trkpt lat="44.08214" lon="2.99233">
        <ele>376.7</ele>
        <time>2018-05-19T09:58:49Z</time>
      </trkpt>
      <trkpt lat="44.08211" lon="2.99222">
        <ele>375.8</ele>
        <time>2018-05-19T09:58:50Z</time>
      </trkpt>
      <trkpt lat="44.08209" lon="2.99212">
        <ele>374.8</ele>
        <time>2018-05-19T09:58:51Z</time>
      </trkpt>
      <trkpt lat="44.08205" lon="2.99202">
        <ele>373.8</ele>
        <time>2018-05-19T09:58:52Z</time>
      </trkpt>
      <trkpt lat="44.08203" lon="2.99193">
        <ele>372.6</ele>
        <time>2018-05-19T09:58:53Z</time>
      </trkpt>
      <trkpt lat="44.08202" lon="2.99184">
        <ele>371.2</ele>
        <time>2018-05-19T09:58:54Z</time>
      </trkpt>
      <trkpt lat="44.08199" lon="2.99175">
        <ele>370</ele>
        <time>2018-05-19T09:58:55Z</time>
      </trkpt>
      <trkpt lat="44.08197" lon="2.99167">
        <ele>369.3</ele>
        <time>2018-05-19T09:58:56Z</time>
      </trkpt>
      <trkpt lat="44.08196" lon="2.99159">
        <ele>368.4</ele>
        <time>2018-05-19T09:58:57Z</time>
      </trkpt>
      <trkpt lat="44.08195" lon="2.9915">
        <ele>368</ele>
        <time>2018-05-19T09:58:58Z</time>
      </trkpt>
      <trkpt lat="44.08194" lon="2.99141">
        <ele>367.4</ele>
        <time>2018-05-19T09:58:59Z</time>
      </trkpt>
      <trkpt lat="44.08196" lon="2.99132">
        <ele>366</ele>
        <time>2018-05-19T09:59:00Z</time>
      </trkpt>
      <trkpt lat="44.08196" lon="2.99124">
        <ele>364.8</ele>
        <time>2018-05-19T09:59:01Z</time>
      </trkpt>
      <trkpt lat="44.08194" lon="2.99116">
        <ele>363.9</ele>
        <time>2018-05-19T09:59:02Z</time>
      </trkpt>
      <trkpt lat="44.08194" lon="2.99109">
        <ele>363.2</ele>
        <time>2018-05-19T09:59:03Z</time>
      </trkpt>
      <trkpt lat="44.08194" lon="2.99101">
        <ele>362.9</ele>
        <time>2018-05-19T09:59:04Z</time>
      </trkpt>
      <trkpt lat="44.08193" lon="2.99092">
        <ele>362.1</ele>
        <time>2018-05-19T09:59:05Z</time>
      </trkpt>
      <trkpt lat="44.08191" lon="2.99085">
        <ele>361.1</ele>
        <time>2018-05-19T09:59:06Z</time>
      </trkpt>
      <trkpt lat="44.0819" lon="2.99078">
        <ele>360.4</ele>
        <time>2018-05-19T09:59:07Z</time>
      </trkpt>
      <trkpt lat="44.08189" lon="2.9907">
        <ele>359.8</ele>
        <time>2018-05-19T09:59:08Z</time>
      </trkpt>
      <trkpt lat="44.08189" lon="2.99062">
        <ele>359.4</ele>
        <time>2018-05-19T09:59:09Z</time>
      </trkpt>
      <trkpt lat="44.08192" lon="2.99054">
        <ele>358.3</ele>
        <time>2018-05-19T09:59:10Z</time>
      </trkpt>
      <trkpt lat="44.08197" lon="2.99045">
        <ele>355.9</ele>
        <time>2018-05-19T09:59:11Z</time>
      </trkpt>
      <trkpt lat="44.08203" lon="2.99035">
        <ele>353.6</ele>
        <time>2018-05-19T09:59:12Z</time>
      </trkpt>
      <trkpt lat="44.08208" lon="2.99026">
        <ele>351.8</ele>
        <time>2018-05-19T09:59:13Z</time>
      </trkpt>
      <trkpt lat="44.08211" lon="2.99016">
        <ele>350.3</ele>
        <time>2018-05-19T09:59:14Z</time>
      </trkpt>
      <trkpt lat="44.08212" lon="2.99007">
        <ele>348.8</ele>
        <time>2018-05-19T09:59:15Z</time>
      </trkpt>
      <trkpt lat="44.08211" lon="2.99">
        <ele>348.5</ele>
        <time>2018-05-19T09:59:16Z</time>
      </trkpt>
      <trkpt lat="44.08208" lon="2.98998">
        <ele>348.5</ele>
        <time>2018-05-19T09:59:17Z</time>
      </trkpt>
      <trkpt lat="44.082" lon="2.98995">
        <ele>349.1</ele>
        <time>2018-05-19T09:59:18Z</time>
      </trkpt>
      <trkpt lat="44.08195" lon="2.98996">
        <ele>350.6</ele>
        <time>2018-05-19T09:59:19Z</time>
      </trkpt>
      <trkpt lat="44.08188" lon="2.98998">
        <ele>352.6</ele>
        <time>2018-05-19T09:59:20Z</time>
      </trkpt>
      <trkpt lat="44.08183" lon="2.99001">
        <ele>354.4</ele>
        <time>2018-05-19T09:59:21Z</time>
      </trkpt>
      <trkpt lat="44.08177" lon="2.99004">
        <ele>355.8</ele>
        <time>2018-05-19T09:59:22Z</time>
      </trkpt>
      <trkpt lat="44.08172" lon="2.99006">
        <ele>357.1</ele>
        <time>2018-05-19T09:59:23Z</time>
      </trkpt>
      <trkpt lat="44.08167" lon="2.99007">
        <ele>358.5</ele>
        <time>2018-05-19T09:59:24Z</time>
      </trkpt>
      <trkpt lat="44.08164" lon="2.99005">
        <ele>358.8</ele>
        <time>2018-05-19T09:59:25Z</time>
      </trkpt>
      <trkpt lat="44.0816" lon="2.98996">
        <ele>358.9</ele>
        <time>2018-05-19T09:59:27Z</time>
      </trkpt>
      <trkpt lat="44.08157" lon="2.9899">
        <ele>358.9</ele>
        <time>2018-05-19T09:59:29Z</time>
      </trkpt>
      <trkpt lat="44.08159" lon="2.98984">
        <ele>358.9</ele>
        <time>2018-05-19T09:59:31Z</time>
      </trkpt>
      <trkpt lat="44.08159" lon="2.98979">
        <ele>358.8</ele>
        <time>2018-05-19T09:59:32Z</time>
      </trkpt>
      <trkpt lat="44.08158" lon="2.98973">
        <ele>358.8</ele>
        <time>2018-05-19T09:59:34Z</time>
      </trkpt>
      <trkpt lat="44.08154" lon="2.98972">
        <ele>359.3</ele>
        <time>2018-05-19T09:59:37Z</time>
      </trkpt>
      <trkpt lat="44.08151" lon="2.98971">
        <ele>359.8</ele>
        <time>2018-05-19T09:59:39Z</time>
      </trkpt>
      <trkpt lat="44.08146" lon="2.98969">
        <ele>360.3</ele>
        <time>2018-05-19T09:59:41Z</time>
      </trkpt>
      <trkpt lat="44.08142" lon="2.98967">
        <ele>360.8</ele>
        <time>2018-05-19T09:59:43Z</time>
      </trkpt>
      <trkpt lat="44.08139" lon="2.98965">
        <ele>361.4</ele>
        <time>2018-05-19T09:59:44Z</time>
      </trkpt>
      <trkpt lat="44.08136" lon="2.98963">
        <ele>361.9</ele>
        <time>2018-05-19T09:59:45Z</time>
      </trkpt>
      <trkpt lat="44.08133" lon="2.9896">
        <ele>362.6</ele>
        <time>2018-05-19T09:59:47Z</time>
      </trkpt>
      <trkpt lat="44.08129" lon="2.98957">
        <ele>363</ele>
        <time>2018-05-19T09:59:49Z</time>
      </trkpt>
      <trkpt lat="44.08127" lon="2.98954">
        <ele>363.4</ele>
        <time>2018-05-19T09:59:51Z</time>
      </trkpt>
      <trkpt lat="44.08124" lon="2.9895">
        <ele>364</ele>
        <time>2018-05-19T09:59:53Z</time>
      </trkpt>
      <trkpt lat="44.08121" lon="2.98945">
        <ele>364.6</ele>
        <time>2018-05-19T09:59:55Z</time>
      </trkpt>
      <trkpt lat="44.08119" lon="2.98943">
        <ele>364.9</ele>
        <time>2018-05-19T09:59:56Z</time>
      </trkpt>
      <trkpt lat="44.08116" lon="2.98941">
        <ele>365.2</ele>
        <time>2018-05-19T09:59:57Z</time>
      </trkpt>
      <trkpt lat="44.08113" lon="2.98938">
        <ele>365.4</ele>
        <time>2018-05-19T09:59:58Z</time>
      </trkpt>
      <trkpt lat="44.08111" lon="2.98936">
        <ele>365.7</ele>
        <time>2018-05-19T09:59:59Z</time>
      </trkpt>
      <trkpt lat="44.08109" lon="2.98933">
        <ele>366.1</ele>
        <time>2018-05-19T10:00:00Z</time>
      </trkpt>
      <trkpt lat="44.08106" lon="2.9893">
        <ele>366.5</ele>
        <time>2018-05-19T10:00:01Z</time>
      </trkpt>
      <trkpt lat="44.08104" lon="2.98926">
        <ele>366.7</ele>
        <time>2018-05-19T10:00:02Z</time>
      </trkpt>
      <trkpt lat="44.08101" lon="2.98923">
        <ele>366.8</ele>
        <time>2018-05-19T10:00:03Z</time>
      </trkpt>
      <trkpt lat="44.08098" lon="2.98919">
        <ele>366.9</ele>
        <time>2018-05-19T10:00:04Z</time>
      </trkpt>
      <trkpt lat="44.08095" lon="2.98916">
        <ele>366.9</ele>
        <time>2018-05-19T10:00:05Z</time>
      </trkpt>
      <trkpt lat="44.08092" lon="2.98912">
        <ele>366.9</ele>
        <time>2018-05-19T10:00:06Z</time>
      </trkpt>
      <trkpt lat="44.08089" lon="2.98908">
        <ele>366.7</ele>
        <time>2018-05-19T10:00:07Z</time>
      </trkpt>
      <trkpt lat="44.08086" lon="2.98905">
        <ele>366.6</ele>
        <time>2018-05-19T10:00:08Z</time>
      </trkpt>
      <trkpt lat="44.08083" lon="2.98901">
        <ele>366.5</ele>
        <time>2018-05-19T10:00:09Z</time>
      </trkpt>
      <trkpt lat="44.0808" lon="2.98897">
        <ele>366.3</ele>
        <time>2018-05-19T10:00:10Z</time>
      </trkpt>
      <trkpt lat="44.08077" lon="2.98893">
        <ele>366</ele>
        <time>2018-05-19T10:00:11Z</time>
      </trkpt>
      <trkpt lat="44.08075" lon="2.9889">
        <ele>365.8</ele>
        <time>2018-05-19T10:00:12Z</time>
      </trkpt>
      <trkpt lat="44.08072" lon="2.98887">
        <ele>365.7</ele>
        <time>2018-05-19T10:00:13Z</time>
      </trkpt>
      <trkpt lat="44.08068" lon="2.98883">
        <ele>365.7</ele>
        <time>2018-05-19T10:00:14Z</time>
      </trkpt>
      <trkpt lat="44.08064" lon="2.9888">
        <ele>365.3</ele>
        <time>2018-05-19T10:00:15Z</time>
      </trkpt>
      <trkpt lat="44.08061" lon="2.98877">
        <ele>364.6</ele>
        <time>2018-05-19T10:00:16Z</time>
      </trkpt>
      <trkpt lat="44.08058" lon="2.98873">
        <ele>364.6</ele>
        <time>2018-05-19T10:00:17Z</time>
      </trkpt>
      <trkpt lat="44.08055" lon="2.98868">
        <ele>364.2</ele>
        <time>2018-05-19T10:00:18Z</time>
      </trkpt>
      <trkpt lat="44.08051" lon="2.98865">
        <ele>363.5</ele>
        <time>2018-05-19T10:00:19Z</time>
      </trkpt>
      <trkpt lat="44.08048" lon="2.98862">
        <ele>363.1</ele>
        <time>2018-05-19T10:00:20Z</time>
      </trkpt>
      <trkpt lat="44.08045" lon="2.98858">
        <ele>362.7</ele>
        <time>2018-05-19T10:00:21Z</time>
      </trkpt>
      <trkpt lat="44.08041" lon="2.98855">
        <ele>362.5</ele>
        <time>2018-05-19T10:00:22Z</time>
      </trkpt>
      <trkpt lat="44.08038" lon="2.98852">
        <ele>362.3</ele>
        <time>2018-05-19T10:00:23Z</time>
      </trkpt>
      <trkpt lat="44.08035" lon="2.98849">
        <ele>362.1</ele>
        <time>2018-05-19T10:00:24Z</time>
      </trkpt>
      <trkpt lat="44.08033" lon="2.98846">
        <ele>361.8</ele>
        <time>2018-05-19T10:00:25Z</time>
      </trkpt>
      <trkpt lat="44.08031" lon="2.98843">
        <ele>361.5</ele>
        <time>2018-05-19T10:00:26Z</time>
      </trkpt>
      <trkpt lat="44.08028" lon="2.9884">
        <ele>361.1</ele>
        <time>2018-05-19T10:00:27Z</time>
      </trkpt>
      <trkpt lat="44.08026" lon="2.98837">
        <ele>360.9</ele>
        <time>2018-05-19T10:00:28Z</time>
      </trkpt>
      <trkpt lat="44.08023" lon="2.98833">
        <ele>360.8</ele>
        <time>2018-05-19T10:00:29Z</time>
      </trkpt>
      <trkpt lat="44.08021" lon="2.98831">
        <ele>360.5</ele>
        <time>2018-05-19T10:00:30Z</time>
      </trkpt>
      <trkpt lat="44.08018" lon="2.98827">
        <ele>359.6</ele>
        <time>2018-05-19T10:00:32Z</time>
      </trkpt>
      <trkpt lat="44.08016" lon="2.98823">
        <ele>359</ele>
        <time>2018-05-19T10:00:35Z</time>
      </trkpt>
      <trkpt lat="44.08011" lon="2.98815">
        <ele>358.5</ele>
        <time>2018-05-19T10:05:30Z</time>
      </trkpt>
      <trkpt lat="44.08014" lon="2.9881">
        <ele>358</ele>
        <time>2018-05-19T10:05:32Z</time>
      </trkpt>
      <trkpt lat="44.08014" lon="2.98801">
        <ele>357.7</ele>
        <time>2018-05-19T10:05:33Z</time>
      </trkpt>
      <trkpt lat="44.08015" lon="2.98792">
        <ele>357.4</ele>
        <time>2018-05-19T10:05:34Z</time>
      </trkpt>
      <trkpt lat="44.08016" lon="2.98782">
        <ele>357</ele>
        <time>2018-05-19T10:05:35Z</time>
      </trkpt>
      <trkpt lat="44.08018" lon="2.98771">
        <ele>356.5</ele>
        <time>2018-05-19T10:05:36Z</time>
      </trkpt>
      <trkpt lat="44.0802" lon="2.9876">
        <ele>355.7</ele>
        <time>2018-05-19T10:05:37Z</time>
      </trkpt>
      <trkpt lat="44.08023" lon="2.98748">
        <ele>355.1</ele>
        <time>2018-05-19T10:05:38Z</time>
      </trkpt>
      <trkpt lat="44.08026" lon="2.98736">
        <ele>354.8</ele>
        <time>2018-05-19T10:05:39Z</time>
      </trkpt>
      <trkpt lat="44.08029" lon="2.98724">
        <ele>354.4</ele>
        <time>2018-05-19T10:05:40Z</time>
      </trkpt>
      <trkpt lat="44.08033" lon="2.98712">
        <ele>354.1</ele>
        <time>2018-05-19T10:05:41Z</time>
      </trkpt>
      <trkpt lat="44.08038" lon="2.98699">
        <ele>353.6</ele>
        <time>2018-05-19T10:05:42Z</time>
      </trkpt>
      <trkpt lat="44.08043" lon="2.98687">
        <ele>353.2</ele>
        <time>2018-05-19T10:05:43Z</time>
      </trkpt>
      <trkpt lat="44.08045" lon="2.98677">
        <ele>352.7</ele>
        <time>2018-05-19T10:05:44Z</time>
      </trkpt>
      <trkpt lat="44.08045" lon="2.98667">
        <ele>351.9</ele>
        <time>2018-05-19T10:05:45Z</time>
      </trkpt>
      <trkpt lat="44.08041" lon="2.98657">
        <ele>351.2</ele>
        <time>2018-05-19T10:05:46Z</time>
      </trkpt>
      <trkpt lat="44.08036" lon="2.98649">
        <ele>350.4</ele>
        <time>2018-05-19T10:05:47Z</time>
      </trkpt>
      <trkpt lat="44.08029" lon="2.9864">
        <ele>349.5</ele>
        <time>2018-05-19T10:05:48Z</time>
      </trkpt>
      <trkpt lat="44.08023" lon="2.98631">
        <ele>349</ele>
        <time>2018-05-19T10:05:49Z</time>
      </trkpt>
      <trkpt lat="44.08014" lon="2.98623">
        <ele>348.3</ele>
        <time>2018-05-19T10:05:50Z</time>
      </trkpt>
      <trkpt lat="44.08006" lon="2.98615">
        <ele>347.2</ele>
        <time>2018-05-19T10:05:51Z</time>
      </trkpt>
      <trkpt lat="44.08001" lon="2.98605">
        <ele>346.1</ele>
        <time>2018-05-19T10:05:52Z</time>
      </trkpt>
      <trkpt lat="44.07996" lon="2.98597">
        <ele>344.5</ele>
        <time>2018-05-19T10:05:53Z</time>
      </trkpt>
      <trkpt lat="44.07998" lon="2.98592">
        <ele>343.4</ele>
        <time>2018-05-19T10:05:54Z</time>
      </trkpt>
      <trkpt lat="44.08007" lon="2.98588">
        <ele>341.5</ele>
        <time>2018-05-19T10:05:55Z</time>
      </trkpt>
      <trkpt lat="44.0801" lon="2.98582">
        <ele>341</ele>
        <time>2018-05-19T10:05:56Z</time>
      </trkpt>
      <trkpt lat="44.08015" lon="2.98575">
        <ele>341</ele>
        <time>2018-05-19T10:05:57Z</time>
      </trkpt>
      <trkpt lat="44.08018" lon="2.98569">
        <ele>341</ele>
        <time>2018-05-19T10:05:58Z</time>
      </trkpt>
      <trkpt lat="44.0802" lon="2.98563">
        <ele>341</ele>
        <time>2018-05-19T10:05:59Z</time>
      </trkpt>
      <trkpt lat="44.08022" lon="2.98558">
        <ele>341</ele>
        <time>2018-05-19T10:06:00Z</time>
      </trkpt>
      <trkpt lat="44.08024" lon="2.98554">
        <ele>341</ele>
        <time>2018-05-19T10:06:01Z</time>
      </trkpt>
      <trkpt lat="44.08026" lon="2.9855">
        <ele>341</ele>
        <time>2018-05-19T10:06:02Z</time>
      </trkpt>
      <trkpt lat="44.08027" lon="2.98544">
        <ele>341</ele>
        <time>2018-05-19T10:06:04Z</time>
      </trkpt>
      <trkpt lat="44.08028" lon="2.98539">
        <ele>341</ele>
        <time>2018-05-19T10:06:05Z</time>
      </trkpt>
      <trkpt lat="44.08028" lon="2.98532">
        <ele>341</ele>
        <time>2018-05-19T10:06:07Z</time>
      </trkpt>
      <trkpt lat="44.08029" lon="2.98527">
        <ele>341</ele>
        <time>2018-05-19T10:06:09Z</time>
      </trkpt>
      <trkpt lat="44.08029" lon="2.98522">
        <ele>341</ele>
        <time>2018-05-19T10:06:11Z</time>
      </trkpt>
      <trkpt lat="44.08028" lon="2.98517">
        <ele>341</ele>
        <time>2018-05-19T10:06:14Z</time>
      </trkpt>
      <trkpt lat="44.08029" lon="2.98511">
        <ele>341</ele>
        <time>2018-05-19T10:06:17Z</time>
      </trkpt>
      <trkpt lat="44.0803" lon="2.98504">
        <ele>341</ele>
        <time>2018-05-19T10:06:19Z</time>
      </trkpt>
      <trkpt lat="44.08031" lon="2.985">
        <ele>341.4</ele>
        <time>2018-05-19T10:06:20Z</time>
      </trkpt>
      <trkpt lat="44.08032" lon="2.98496">
        <ele>341.9</ele>
        <time>2018-05-19T10:06:21Z</time>
      </trkpt>
      <trkpt lat="44.08034" lon="2.9849">
        <ele>342.6</ele>
        <time>2018-05-19T10:06:23Z</time>
      </trkpt>
      <trkpt lat="44.08035" lon="2.98485">
        <ele>343.1</ele>
        <time>2018-05-19T10:06:25Z</time>
      </trkpt>
      <trkpt lat="44.08036" lon="2.98481">
        <ele>343.5</ele>
        <time>2018-05-19T10:06:28Z</time>
      </trkpt>
      <trkpt lat="44.08036" lon="2.98478">
        <ele>343.9</ele>
        <time>2018-05-19T10:06:32Z</time>
      </trkpt>
      <trkpt lat="44.08033" lon="2.9848">
        <ele>343.6</ele>
        <time>2018-05-19T10:06:55Z</time>
      </trkpt>
      <trkpt lat="44.08031" lon="2.98482">
        <ele>343.4</ele>
        <time>2018-05-19T10:06:58Z</time>
      </trkpt>
      <trkpt lat="44.08031" lon="2.98486">
        <ele>343.3</ele>
        <time>2018-05-19T10:07:08Z</time>
      </trkpt>
      <trkpt lat="44.08033" lon="2.98487">
        <ele>343.1</ele>
        <time>2018-05-19T10:07:16Z</time>
      </trkpt>
      <trkpt lat="44.08035" lon="2.9849">
        <ele>343</ele>
        <time>2018-05-19T10:07:19Z</time>
      </trkpt>
      <trkpt lat="44.08038" lon="2.98494">
        <ele>342.7</ele>
        <time>2018-05-19T10:07:22Z</time>
      </trkpt>
      <trkpt lat="44.08041" lon="2.98495">
        <ele>342.5</ele>
        <time>2018-05-19T10:07:25Z</time>
      </trkpt>
      <trkpt lat="44.08044" lon="2.98497">
        <ele>342.4</ele>
        <time>2018-05-19T10:07:27Z</time>
      </trkpt>
      <trkpt lat="44.08048" lon="2.98499">
        <ele>342.1</ele>
        <time>2018-05-19T10:07:30Z</time>
      </trkpt>
      <trkpt lat="44.08053" lon="2.98502">
        <ele>341.6</ele>
        <time>2018-05-19T10:07:32Z</time>
      </trkpt>
      <trkpt lat="44.08057" lon="2.98504">
        <ele>340.9</ele>
        <time>2018-05-19T10:07:34Z</time>
      </trkpt>
      <trkpt lat="44.08062" lon="2.98508">
        <ele>340.2</ele>
        <time>2018-05-19T10:07:36Z</time>
      </trkpt>
      <trkpt lat="44.08064" lon="2.9851">
        <ele>340.2</ele>
        <time>2018-05-19T10:07:37Z</time>
      </trkpt>
      <trkpt lat="44.08067" lon="2.98512">
        <ele>339.8</ele>
        <time>2018-05-19T10:07:38Z</time>
      </trkpt>
      <trkpt lat="44.08072" lon="2.98514">
        <ele>339.6</ele>
        <time>2018-05-19T10:07:40Z</time>
      </trkpt>
      <trkpt lat="44.08075" lon="2.98516">
        <ele>339.3</ele>
        <time>2018-05-19T10:07:41Z</time>
      </trkpt>
      <trkpt lat="44.08078" lon="2.98517">
        <ele>339.2</ele>
        <time>2018-05-19T10:07:42Z</time>
      </trkpt>
      <trkpt lat="44.08081" lon="2.98519">
        <ele>339.1</ele>
        <time>2018-05-19T10:07:43Z</time>
      </trkpt>
      <trkpt lat="44.08084" lon="2.9852">
        <ele>338.9</ele>
        <time>2018-05-19T10:07:44Z</time>
      </trkpt>
      <trkpt lat="44.08087" lon="2.98523">
        <ele>338.9</ele>
        <time>2018-05-19T10:07:45Z</time>
      </trkpt>
      <trkpt lat="44.0809" lon="2.98525">
        <ele>338.8</ele>
        <time>2018-05-19T10:07:46Z</time>
      </trkpt>
      <trkpt lat="44.08093" lon="2.98528">
        <ele>338.7</ele>
        <time>2018-05-19T10:07:47Z</time>
      </trkpt>
      <trkpt lat="44.08096" lon="2.9853">
        <ele>338.7</ele>
        <time>2018-05-19T10:07:48Z</time>
      </trkpt>
      <trkpt lat="44.08098" lon="2.98532">
        <ele>338.6</ele>
        <time>2018-05-19T10:07:49Z</time>
      </trkpt>
      <trkpt lat="44.08101" lon="2.98535">
        <ele>338.6</ele>
        <time>2018-05-19T10:07:50Z</time>
      </trkpt>
      <trkpt lat="44.08104" lon="2.98537">
        <ele>338.6</ele>
        <time>2018-05-19T10:07:51Z</time>
      </trkpt>
      <trkpt lat="44.08106" lon="2.98539">
        <ele>338.6</ele>
        <time>2018-05-19T10:07:52Z</time>
      </trkpt>
      <trkpt lat="44.08112" lon="2.98541">
        <ele>338.6</ele>
        <time>2018-05-19T10:07:54Z</time>
      </trkpt>
      <trkpt lat="44.08115" lon="2.98543">
        <ele>338.6</ele>
        <time>2018-05-19T10:07:55Z</time>
      </trkpt>
      <trkpt lat="44.08118" lon="2.98544">
        <ele>338.6</ele>
        <time>2018-05-19T10:07:56Z</time>
      </trkpt>
      <trkpt lat="44.08121" lon="2.98546">
        <ele>338.6</ele>
        <time>2018-05-19T10:07:57Z</time>
      </trkpt>
      <trkpt lat="44.08124" lon="2.98548">
        <ele>338.6</ele>
        <time>2018-05-19T10:07:58Z</time>
      </trkpt>
      <trkpt lat="44.08127" lon="2.9855">
        <ele>338.6</ele>
        <time>2018-05-19T10:07:59Z</time>
      </trkpt>
      <trkpt lat="44.08131" lon="2.98552">
        <ele>338.6</ele>
        <time>2018-05-19T10:08:00Z</time>
      </trkpt>
      <trkpt lat="44.08135" lon="2.98554">
        <ele>338.6</ele>
        <time>2018-05-19T10:08:01Z</time>
      </trkpt>
      <trkpt lat="44.08138" lon="2.98557">
        <ele>338.6</ele>
        <time>2018-05-19T10:08:02Z</time>
      </trkpt>
      <trkpt lat="44.08142" lon="2.9856">
        <ele>338.6</ele>
        <time>2018-05-19T10:08:03Z</time>
      </trkpt>
      <trkpt lat="44.08146" lon="2.98563">
        <ele>338.6</ele>
        <time>2018-05-19T10:08:04Z</time>
      </trkpt>
      <trkpt lat="44.0815" lon="2.98565">
        <ele>338.6</ele>
        <time>2018-05-19T10:08:05Z</time>
      </trkpt>
      <trkpt lat="44.08154" lon="2.98567">
        <ele>338.5</ele>
        <time>2018-05-19T10:08:06Z</time>
      </trkpt>
      <trkpt lat="44.08158" lon="2.9857">
        <ele>338.4</ele>
        <time>2018-05-19T10:08:07Z</time>
      </trkpt>
      <trkpt lat="44.08161" lon="2.98572">
        <ele>338.4</ele>
        <time>2018-05-19T10:08:08Z</time>
      </trkpt>
      <trkpt lat="44.08165" lon="2.98575">
        <ele>338.3</ele>
        <time>2018-05-19T10:08:09Z</time>
      </trkpt>
      <trkpt lat="44.08168" lon="2.98578">
        <ele>338.2</ele>
        <time>2018-05-19T10:08:10Z</time>
      </trkpt>
      <trkpt lat="44.08172" lon="2.9858">
        <ele>338.1</ele>
        <time>2018-05-19T10:08:11Z</time>
      </trkpt>
      <trkpt lat="44.08175" lon="2.98582">
        <ele>338</ele>
        <time>2018-05-19T10:08:12Z</time>
      </trkpt>
      <trkpt lat="44.08179" lon="2.98584">
        <ele>337.9</ele>
        <time>2018-05-19T10:08:13Z</time>
      </trkpt>
      <trkpt lat="44.08182" lon="2.98586">
        <ele>337.8</ele>
        <time>2018-05-19T10:08:14Z</time>
      </trkpt>
      <trkpt lat="44.08185" lon="2.98589">
        <ele>337.7</ele>
        <time>2018-05-19T10:08:15Z</time>
      </trkpt>
      <trkpt lat="44.08188" lon="2.98591">
        <ele>337.6</ele>
        <time>2018-05-19T10:08:16Z</time>
      </trkpt>
      <trkpt lat="44.08191" lon="2.98593">
        <ele>337.5</ele>
        <time>2018-05-19T10:08:17Z</time>
      </trkpt>
      <trkpt lat="44.08195" lon="2.98595">
        <ele>337.3</ele>
        <time>2018-05-19T10:08:18Z</time>
      </trkpt>
      <trkpt lat="44.08198" lon="2.98597">
        <ele>337.2</ele>
        <time>2018-05-19T10:08:19Z</time>
      </trkpt>
      <trkpt lat="44.08202" lon="2.986">
        <ele>337.1</ele>
        <time>2018-05-19T10:08:20Z</time>
      </trkpt>
      <trkpt lat="44.08205" lon="2.98602">
        <ele>336.9</ele>
        <time>2018-05-19T10:08:21Z</time>
      </trkpt>
      <trkpt lat="44.08209" lon="2.98604">
        <ele>336.7</ele>
        <time>2018-05-19T10:08:22Z</time>
      </trkpt>
      <trkpt lat="44.08212" lon="2.98607">
        <ele>336.5</ele>
        <time>2018-05-19T10:08:23Z</time>
      </trkpt>
      <trkpt lat="44.08215" lon="2.98609">
        <ele>336.2</ele>
        <time>2018-05-19T10:08:24Z</time>
      </trkpt>
      <trkpt lat="44.08218" lon="2.98611">
        <ele>335.9</ele>
        <time>2018-05-19T10:08:25Z</time>
      </trkpt>
      <trkpt lat="44.08221" lon="2.98613">
        <ele>335.7</ele>
        <time>2018-05-19T10:08:26Z</time>
      </trkpt>
      <trkpt lat="44.08224" lon="2.98615">
        <ele>335.4</ele>
        <time>2018-05-19T10:08:27Z</time>
      </trkpt>
      <trkpt lat="44.08227" lon="2.98616">
        <ele>335.1</ele>
        <time>2018-05-19T10:08:28Z</time>
      </trkpt>
      <trkpt lat="44.0823" lon="2.98618">
        <ele>334.9</ele>
        <time>2018-05-19T10:08:29Z</time>
      </trkpt>
      <trkpt lat="44.08232" lon="2.98619">
        <ele>334.7</ele>
        <time>2018-05-19T10:08:30Z</time>
      </trkpt>
      <trkpt lat="44.08235" lon="2.9862">
        <ele>334.5</ele>
        <time>2018-05-19T10:08:31Z</time>
      </trkpt>
      <trkpt lat="44.08239" lon="2.98622">
        <ele>334.4</ele>
        <time>2018-05-19T10:08:33Z</time>
      </trkpt>
      <trkpt lat="44.08243" lon="2.98624">
        <ele>334.3</ele>
        <time>2018-05-19T10:08:35Z</time>
      </trkpt>
      <trkpt lat="44.08247" lon="2.98626">
        <ele>334.3</ele>
        <time>2018-05-19T10:08:36Z</time>
      </trkpt>
      <trkpt lat="44.0825" lon="2.98629">
        <ele>334.4</ele>
        <time>2018-05-19T10:08:37Z</time>
      </trkpt>
      <trkpt lat="44.08254" lon="2.98631">
        <ele>334.4</ele>
        <time>2018-05-19T10:08:38Z</time>
      </trkpt>
      <trkpt lat="44.08258" lon="2.98634">
        <ele>334.4</ele>
        <time>2018-05-19T10:08:39Z</time>
      </trkpt>
      <trkpt lat="44.08262" lon="2.98637">
        <ele>334.4</ele>
        <time>2018-05-19T10:08:40Z</time>
      </trkpt>
      <trkpt lat="44.08266" lon="2.98639">
        <ele>334.1</ele>
        <time>2018-05-19T10:08:41Z</time>
      </trkpt>
      <trkpt lat="44.08269" lon="2.98642">
        <ele>333.9</ele>
        <time>2018-05-19T10:08:42Z</time>
      </trkpt>
      <trkpt lat="44.08272" lon="2.98644">
        <ele>333.8</ele>
        <time>2018-05-19T10:08:43Z</time>
      </trkpt>
      <trkpt lat="44.08275" lon="2.98646">
        <ele>333.7</ele>
        <time>2018-05-19T10:08:44Z</time>
      </trkpt>
      <trkpt lat="44.08278" lon="2.98648">
        <ele>333.6</ele>
        <time>2018-05-19T10:08:45Z</time>
      </trkpt>
      <trkpt lat="44.08282" lon="2.9865">
        <ele>333.6</ele>
        <time>2018-05-19T10:08:47Z</time>
      </trkpt>
      <trkpt lat="44.08286" lon="2.98651">
        <ele>333.6</ele>
        <time>2018-05-19T10:08:49Z</time>
      </trkpt>
      <trkpt lat="44.0829" lon="2.98653">
        <ele>334</ele>
        <time>2018-05-19T10:08:50Z</time>
      </trkpt>
      <trkpt lat="44.08293" lon="2.98655">
        <ele>334.4</ele>
        <time>2018-05-19T10:08:51Z</time>
      </trkpt>
      <trkpt lat="44.08297" lon="2.98657">
        <ele>334.8</ele>
        <time>2018-05-19T10:08:52Z</time>
      </trkpt>
      <trkpt lat="44.083" lon="2.98659">
        <ele>335.4</ele>
        <time>2018-05-19T10:08:53Z</time>
      </trkpt>
      <trkpt lat="44.08304" lon="2.98661">
        <ele>336.1</ele>
        <time>2018-05-19T10:08:54Z</time>
      </trkpt>
      <trkpt lat="44.08307" lon="2.98663">
        <ele>336.8</ele>
        <time>2018-05-19T10:08:55Z</time>
      </trkpt>
      <trkpt lat="44.0831" lon="2.98666">
        <ele>337.5</ele>
        <time>2018-05-19T10:08:56Z</time>
      </trkpt>
      <trkpt lat="44.08314" lon="2.98668">
        <ele>337.5</ele>
        <time>2018-05-19T10:08:57Z</time>
      </trkpt>
      <trkpt lat="44.08317" lon="2.9867">
        <ele>337.5</ele>
        <time>2018-05-19T10:08:58Z</time>
      </trkpt>
      <trkpt lat="44.08319" lon="2.98672">
        <ele>337.4</ele>
        <time>2018-05-19T10:08:59Z</time>
      </trkpt>
      <trkpt lat="44.08323" lon="2.98674">
        <ele>337.4</ele>
        <time>2018-05-19T10:09:00Z</time>
      </trkpt>
      <trkpt lat="44.08326" lon="2.98677">
        <ele>337.4</ele>
        <time>2018-05-19T10:09:01Z</time>
      </trkpt>
      <trkpt lat="44.08329" lon="2.98679">
        <ele>337.4</ele>
        <time>2018-05-19T10:09:02Z</time>
      </trkpt>
      <trkpt lat="44.08332" lon="2.9868">
        <ele>337.4</ele>
        <time>2018-05-19T10:09:03Z</time>
      </trkpt>
      <trkpt lat="44.08334" lon="2.98682">
        <ele>337.4</ele>
        <time>2018-05-19T10:09:04Z</time>
      </trkpt>
      <trkpt lat="44.08337" lon="2.98684">
        <ele>337.3</ele>
        <time>2018-05-19T10:09:05Z</time>
      </trkpt>
      <trkpt lat="44.0834" lon="2.98686">
        <ele>337.3</ele>
        <time>2018-05-19T10:09:06Z</time>
      </trkpt>
      <trkpt lat="44.08344" lon="2.98688">
        <ele>337.3</ele>
        <time>2018-05-19T10:09:08Z</time>
      </trkpt>
      <trkpt lat="44.08347" lon="2.9869">
        <ele>337.3</ele>
        <time>2018-05-19T10:09:25Z</time>
      </trkpt>
      <trkpt lat="44.08351" lon="2.98691">
        <ele>337.3</ele>
        <time>2018-05-19T10:09:28Z</time>
      </trkpt>
      <trkpt lat="44.08355" lon="2.98694">
        <ele>337.3</ele>
        <time>2018-05-19T10:09:30Z</time>
      </trkpt>
      <trkpt lat="44.08359" lon="2.98697">
        <ele>337.3</ele>
        <time>2018-05-19T10:09:32Z</time>
      </trkpt>
      <trkpt lat="44.08362" lon="2.98701">
        <ele>337.3</ele>
        <time>2018-05-19T10:09:34Z</time>
      </trkpt>
      <trkpt lat="44.08366" lon="2.98704">
        <ele>337.4</ele>
        <time>2018-05-19T10:09:36Z</time>
      </trkpt>
      <trkpt lat="44.0837" lon="2.98708">
        <ele>337.4</ele>
        <time>2018-05-19T10:09:38Z</time>
      </trkpt>
      <trkpt lat="44.08373" lon="2.9871">
        <ele>337.4</ele>
        <time>2018-05-19T10:09:40Z</time>
      </trkpt>
      <trkpt lat="44.08375" lon="2.98711">
        <ele>337.4</ele>
        <time>2018-05-19T10:09:47Z</time>
      </trkpt>
      <trkpt lat="44.08377" lon="2.98707">
        <ele>337.4</ele>
        <time>2018-05-19T10:09:51Z</time>
      </trkpt>
      <trkpt lat="44.08375" lon="2.98702">
        <ele>337.4</ele>
        <time>2018-05-19T10:09:53Z</time>
      </trkpt>
      <trkpt lat="44.08373" lon="2.98699">
        <ele>337.3</ele>
        <time>2018-05-19T10:09:54Z</time>
      </trkpt>
      <trkpt lat="44.0837" lon="2.98696">
        <ele>337.3</ele>
        <time>2018-05-19T10:09:55Z</time>
      </trkpt>
      <trkpt lat="44.08367" lon="2.98693">
        <ele>337.3</ele>
        <time>2018-05-19T10:09:56Z</time>
      </trkpt>
      <trkpt lat="44.08364" lon="2.9869">
        <ele>337.3</ele>
        <time>2018-05-19T10:09:57Z</time>
      </trkpt>
      <trkpt lat="44.08362" lon="2.98687">
        <ele>337.3</ele>
        <time>2018-05-19T10:10:02Z</time>
      </trkpt>
      <trkpt lat="44.0836" lon="2.98684">
        <ele>337.3</ele>
        <time>2018-05-19T10:10:16Z</time>
      </trkpt>
      <trkpt lat="44.08355" lon="2.98681">
        <ele>337.4</ele>
        <time>2018-05-19T10:11:14Z</time>
      </trkpt>
      <trkpt lat="44.08352" lon="2.9868">
        <ele>337.4</ele>
        <time>2018-05-19T10:11:17Z</time>
      </trkpt>
      <trkpt lat="44.0835" lon="2.98678">
        <ele>337.4</ele>
        <time>2018-05-19T10:11:19Z</time>
      </trkpt>
      <trkpt lat="44.08346" lon="2.98677">
        <ele>337.4</ele>
        <time>2018-05-19T10:11:22Z</time>
      </trkpt>
      <trkpt lat="44.08342" lon="2.98679">
        <ele>337.5</ele>
        <time>2018-05-19T10:11:25Z</time>
      </trkpt>
      <trkpt lat="44.08339" lon="2.9868">
        <ele>337.5</ele>
        <time>2018-05-19T10:11:27Z</time>
      </trkpt>
      <trkpt lat="44.08337" lon="2.98681">
        <ele>337.5</ele>
        <time>2018-05-19T10:11:29Z</time>
      </trkpt>
      <trkpt lat="44.08334" lon="2.98686">
        <ele>337.6</ele>
        <time>2018-05-19T10:11:31Z</time>
      </trkpt>
      <trkpt lat="44.08334" lon="2.98692">
        <ele>337.6</ele>
        <time>2018-05-19T10:11:33Z</time>
      </trkpt>
      <trkpt lat="44.08335" lon="2.98696">
        <ele>337.6</ele>
        <time>2018-05-19T10:11:35Z</time>
      </trkpt>
      <trkpt lat="44.08337" lon="2.987">
        <ele>337.6</ele>
        <time>2018-05-19T10:11:37Z</time>
      </trkpt>
      <trkpt lat="44.0834" lon="2.98703">
        <ele>337.7</ele>
        <time>2018-05-19T10:11:39Z</time>
      </trkpt>
      <trkpt lat="44.08345" lon="2.98707">
        <ele>337.7</ele>
        <time>2018-05-19T10:11:41Z</time>
      </trkpt>
      <trkpt lat="44.08349" lon="2.9871">
        <ele>337.7</ele>
        <time>2018-05-19T10:11:43Z</time>
      </trkpt>
      <trkpt lat="44.08353" lon="2.98712">
        <ele>337.7</ele>
        <time>2018-05-19T10:11:45Z</time>
      </trkpt>
      <trkpt lat="44.08357" lon="2.98716">
        <ele>337.8</ele>
        <time>2018-05-19T10:11:47Z</time>
      </trkpt>
      <trkpt lat="44.0836" lon="2.98718">
        <ele>337.8</ele>
        <time>2018-05-19T10:11:48Z</time>
      </trkpt>
      <trkpt lat="44.08362" lon="2.98722">
        <ele>337.8</ele>
        <time>2018-05-19T10:11:49Z</time>
      </trkpt>
      <trkpt lat="44.08364" lon="2.98725">
        <ele>337.8</ele>
        <time>2018-05-19T10:11:50Z</time>
      </trkpt>
      <trkpt lat="44.08365" lon="2.98729">
        <ele>337.8</ele>
        <time>2018-05-19T10:11:51Z</time>
      </trkpt>
      <trkpt lat="44.08366" lon="2.98733">
        <ele>337.8</ele>
        <time>2018-05-19T10:11:52Z</time>
      </trkpt>
      <trkpt lat="44.08367" lon="2.98737">
        <ele>337.8</ele>
        <time>2018-05-19T10:11:53Z</time>
      </trkpt>
      <trkpt lat="44.08367" lon="2.98742">
        <ele>337.9</ele>
        <time>2018-05-19T10:11:54Z</time>
      </trkpt>
      <trkpt lat="44.08367" lon="2.98747">
        <ele>337.9</ele>
        <time>2018-05-19T10:11:55Z</time>
      </trkpt>
      <trkpt lat="44.08367" lon="2.98751">
        <ele>337.9</ele>
        <time>2018-05-19T10:11:56Z</time>
      </trkpt>
      <trkpt lat="44.08366" lon="2.98755">
        <ele>337.9</ele>
        <time>2018-05-19T10:11:57Z</time>
      </trkpt>
      <trkpt lat="44.08365" lon="2.98761">
        <ele>337.9</ele>
        <time>2018-05-19T10:11:58Z</time>
      </trkpt>
      <trkpt lat="44.08364" lon="2.98766">
        <ele>337.9</ele>
        <time>2018-05-19T10:11:59Z</time>
      </trkpt>
      <trkpt lat="44.08364" lon="2.98772">
        <ele>338</ele>
        <time>2018-05-19T10:12:00Z</time>
      </trkpt>
      <trkpt lat="44.08363" lon="2.98777">
        <ele>338</ele>
        <time>2018-05-19T10:12:01Z</time>
      </trkpt>
      <trkpt lat="44.08363" lon="2.98781">
        <ele>338</ele>
        <time>2018-05-19T10:12:02Z</time>
      </trkpt>
      <trkpt lat="44.08363" lon="2.98785">
        <ele>338</ele>
        <time>2018-05-19T10:12:03Z</time>
      </trkpt>
      <trkpt lat="44.08363" lon="2.98789">
        <ele>338</ele>
        <time>2018-05-19T10:12:04Z</time>
      </trkpt>
      <trkpt lat="44.08363" lon="2.98794">
        <ele>338</ele>
        <time>2018-05-19T10:12:05Z</time>
      </trkpt>
      <trkpt lat="44.08363" lon="2.98799">
        <ele>338</ele>
        <time>2018-05-19T10:12:06Z</time>
      </trkpt>
      <trkpt lat="44.08363" lon="2.98804">
        <ele>338</ele>
        <time>2018-05-19T10:12:07Z</time>
      </trkpt>
      <trkpt lat="44.08363" lon="2.9881">
        <ele>338.1</ele>
        <time>2018-05-19T10:12:08Z</time>
      </trkpt>
      <trkpt lat="44.08364" lon="2.98816">
        <ele>338.1</ele>
        <time>2018-05-19T10:12:09Z</time>
      </trkpt>
      <trkpt lat="44.08364" lon="2.98822">
        <ele>338.1</ele>
        <time>2018-05-19T10:12:10Z</time>
      </trkpt>
      <trkpt lat="44.08365" lon="2.98828">
        <ele>338.1</ele>
        <time>2018-05-19T10:12:11Z</time>
      </trkpt>
      <trkpt lat="44.08366" lon="2.98833">
        <ele>338.1</ele>
        <time>2018-05-19T10:12:12Z</time>
      </trkpt>
      <trkpt lat="44.08367" lon="2.98837">
        <ele>338.1</ele>
        <time>2018-05-19T10:12:13Z</time>
      </trkpt>
      <trkpt lat="44.08367" lon="2.98842">
        <ele>338.2</ele>
        <time>2018-05-19T10:12:14Z</time>
      </trkpt>
      <trkpt lat="44.08368" lon="2.98847">
        <ele>338.2</ele>
        <time>2018-05-19T10:12:15Z</time>
      </trkpt>
      <trkpt lat="44.08368" lon="2.98853">
        <ele>338.2</ele>
        <time>2018-05-19T10:12:16Z</time>
      </trkpt>
      <trkpt lat="44.08369" lon="2.98859">
        <ele>338.2</ele>
        <time>2018-05-19T10:12:17Z</time>
      </trkpt>
      <trkpt lat="44.0837" lon="2.98865">
        <ele>338.2</ele>
        <time>2018-05-19T10:12:18Z</time>
      </trkpt>
      <trkpt lat="44.08371" lon="2.98871">
        <ele>338.2</ele>
        <time>2018-05-19T10:12:19Z</time>
      </trkpt>
      <trkpt lat="44.08372" lon="2.98876">
        <ele>338.2</ele>
        <time>2018-05-19T10:12:20Z</time>
      </trkpt>
      <trkpt lat="44.08373" lon="2.9888">
        <ele>338.2</ele>
        <time>2018-05-19T10:12:21Z</time>
      </trkpt>
      <trkpt lat="44.08374" lon="2.98885">
        <ele>338.3</ele>
        <time>2018-05-19T10:12:23Z</time>
      </trkpt>
      <trkpt lat="44.08375" lon="2.98891">
        <ele>338.3</ele>
        <time>2018-05-19T10:12:25Z</time>
      </trkpt>
      <trkpt lat="44.08375" lon="2.98896">
        <ele>338.3</ele>
        <time>2018-05-19T10:12:28Z</time>
      </trkpt>
      <trkpt lat="44.08376" lon="2.989">
        <ele>338.3</ele>
        <time>2018-05-19T10:12:30Z</time>
      </trkpt>
      <trkpt lat="44.08378" lon="2.98905">
        <ele>338.3</ele>
        <time>2018-05-19T10:12:32Z</time>
      </trkpt>
      <trkpt lat="44.08379" lon="2.98909">
        <ele>338.3</ele>
        <time>2018-05-19T10:12:35Z</time>
      </trkpt>
      <trkpt lat="44.08382" lon="2.98912">
        <ele>338.3</ele>
        <time>2018-05-19T10:12:40Z</time>
      </trkpt>
      <trkpt lat="44.08383" lon="2.98915">
        <ele>338.3</ele>
        <time>2018-05-19T10:12:45Z</time>
      </trkpt>
      <trkpt lat="44.08379" lon="2.98913">
        <ele>338.3</ele>
        <time>2018-05-19T10:13:22Z</time>
      </trkpt>
      <trkpt lat="44.08378" lon="2.98918">
        <ele>338.3</ele>
        <time>2018-05-19T10:13:28Z</time>
      </trkpt>
      <trkpt lat="44.0838" lon="2.98921">
        <ele>338.4</ele>
        <time>2018-05-19T10:13:32Z</time>
      </trkpt>
      <trkpt lat="44.08379" lon="2.98916">
        <ele>338.3</ele>
        <time>2018-05-19T10:13:48Z</time>
      </trkpt>
      <trkpt lat="44.08376" lon="2.98912">
        <ele>338.3</ele>
        <time>2018-05-19T10:13:51Z</time>
      </trkpt>
      <trkpt lat="44.08375" lon="2.98909">
        <ele>338.3</ele>
        <time>2018-05-19T10:13:53Z</time>
      </trkpt>
      <trkpt lat="44.08372" lon="2.98905">
        <ele>338.3</ele>
        <time>2018-05-19T10:13:55Z</time>
      </trkpt>
      <trkpt lat="44.0837" lon="2.98902">
        <ele>338.3</ele>
        <time>2018-05-19T10:13:57Z</time>
      </trkpt>
      <trkpt lat="44.08368" lon="2.98897">
        <ele>338.3</ele>
        <time>2018-05-19T10:13:59Z</time>
      </trkpt>
      <trkpt lat="44.08366" lon="2.98892">
        <ele>338.3</ele>
        <time>2018-05-19T10:14:01Z</time>
      </trkpt>
      <trkpt lat="44.08364" lon="2.98887">
        <ele>338.3</ele>
        <time>2018-05-19T10:14:03Z</time>
      </trkpt>
      <trkpt lat="44.08362" lon="2.98881">
        <ele>338.3</ele>
        <time>2018-05-19T10:14:05Z</time>
      </trkpt>
      <trkpt lat="44.08361" lon="2.98877">
        <ele>338.3</ele>
        <time>2018-05-19T10:14:07Z</time>
      </trkpt>
      <trkpt lat="44.0836" lon="2.98872">
        <ele>338.2</ele>
        <time>2018-05-19T10:14:09Z</time>
      </trkpt>
      <trkpt lat="44.08359" lon="2.98869">
        <ele>338.2</ele>
        <time>2018-05-19T10:14:11Z</time>
      </trkpt>
      <trkpt lat="44.08359" lon="2.98863">
        <ele>338.2</ele>
        <time>2018-05-19T10:14:13Z</time>
      </trkpt>
      <trkpt lat="44.08359" lon="2.98857">
        <ele>338.2</ele>
        <time>2018-05-19T10:14:15Z</time>
      </trkpt>
      <trkpt lat="44.08359" lon="2.98852">
        <ele>338.2</ele>
        <time>2018-05-19T10:14:18Z</time>
      </trkpt>
      <trkpt lat="44.08359" lon="2.98848">
        <ele>338.2</ele>
        <time>2018-05-19T10:14:21Z</time>
      </trkpt>
      <trkpt lat="44.08356" lon="2.98846">
        <ele>338.2</ele>
        <time>2018-05-19T10:14:24Z</time>
      </trkpt>
      <trkpt lat="44.08356" lon="2.98843">
        <ele>338.2</ele>
        <time>2018-05-19T10:14:27Z</time>
      </trkpt>
      <trkpt lat="44.08357" lon="2.98838">
        <ele>338.2</ele>
        <time>2018-05-19T10:14:30Z</time>
      </trkpt>
      <trkpt lat="44.08357" lon="2.98832">
        <ele>338.2</ele>
        <time>2018-05-19T10:16:41Z</time>
      </trkpt>
      <trkpt lat="44.0836" lon="2.98831">
        <ele>338.2</ele>
        <time>2018-05-19T10:16:58Z</time>
      </trkpt>
      <trkpt lat="44.08361" lon="2.98828">
        <ele>338.2</ele>
        <time>2018-05-19T10:17:05Z</time>
      </trkpt>
      <trkpt lat="44.08357" lon="2.98829">
        <ele>338.2</ele>
        <time>2018-05-19T10:22:02Z</time>
      </trkpt>
      <trkpt lat="44.0836" lon="2.98831">
        <ele>338.2</ele>
        <time>2018-05-19T10:22:13Z</time>
      </trkpt>
      <trkpt lat="44.08359" lon="2.98835">
        <ele>338.2</ele>
        <time>2018-05-19T10:22:24Z</time>
      </trkpt>
      <trkpt lat="44.0836" lon="2.9884">
        <ele>338.2</ele>
        <time>2018-05-19T10:22:27Z</time>
      </trkpt>
      <trkpt lat="44.08361" lon="2.98846">
        <ele>338.2</ele>
        <time>2018-05-19T10:22:30Z</time>
      </trkpt>
      <trkpt lat="44.08362" lon="2.98851">
        <ele>338.2</ele>
        <time>2018-05-19T10:22:32Z</time>
      </trkpt>
      <trkpt lat="44.08364" lon="2.98855">
        <ele>338.2</ele>
        <time>2018-05-19T10:22:34Z</time>
      </trkpt>
      <trkpt lat="44.08365" lon="2.9886">
        <ele>338.3</ele>
        <time>2018-05-19T10:22:36Z</time>
      </trkpt>
      <trkpt lat="44.08366" lon="2.98867">
        <ele>338.3</ele>
        <time>2018-05-19T10:22:38Z</time>
      </trkpt>
      <trkpt lat="44.08367" lon="2.98873">
        <ele>338.3</ele>
        <time>2018-05-19T10:22:40Z</time>
      </trkpt>
      <trkpt lat="44.08368" lon="2.98878">
        <ele>338.3</ele>
        <time>2018-05-19T10:22:41Z</time>
      </trkpt>
      <trkpt lat="44.08369" lon="2.98882">
        <ele>338.3</ele>
        <time>2018-05-19T10:22:42Z</time>
      </trkpt>
      <trkpt lat="44.0837" lon="2.98887">
        <ele>338.3</ele>
        <time>2018-05-19T10:22:43Z</time>
      </trkpt>
      <trkpt lat="44.08372" lon="2.98891">
        <ele>338.3</ele>
        <time>2018-05-19T10:22:44Z</time>
      </trkpt>
      <trkpt lat="44.08373" lon="2.98896">
        <ele>338.3</ele>
        <time>2018-05-19T10:22:45Z</time>
      </trkpt>
      <trkpt lat="44.08375" lon="2.989">
        <ele>338.3</ele>
        <time>2018-05-19T10:22:46Z</time>
      </trkpt>
      <trkpt lat="44.08377" lon="2.98904">
        <ele>338.3</ele>
        <time>2018-05-19T10:22:47Z</time>
      </trkpt>
      <trkpt lat="44.08378" lon="2.98908">
        <ele>338.4</ele>
        <time>2018-05-19T10:22:48Z</time>
      </trkpt>
      <trkpt lat="44.0838" lon="2.98912">
        <ele>338.4</ele>
        <time>2018-05-19T10:22:49Z</time>
      </trkpt>
      <trkpt lat="44.08382" lon="2.98918">
        <ele>338.4</ele>
        <time>2018-05-19T10:22:50Z</time>
      </trkpt>
      <trkpt lat="44.08385" lon="2.98923">
        <ele>338.4</ele>
        <time>2018-05-19T10:22:51Z</time>
      </trkpt>
      <trkpt lat="44.08387" lon="2.98929">
        <ele>338.4</ele>
        <time>2018-05-19T10:22:52Z</time>
      </trkpt>
      <trkpt lat="44.08389" lon="2.98934">
        <ele>338.4</ele>
        <time>2018-05-19T10:22:53Z</time>
      </trkpt>
      <trkpt lat="44.0839" lon="2.98939">
        <ele>338.4</ele>
        <time>2018-05-19T10:22:54Z</time>
      </trkpt>
      <trkpt lat="44.08392" lon="2.98943">
        <ele>338.4</ele>
        <time>2018-05-19T10:22:55Z</time>
      </trkpt>
      <trkpt lat="44.08394" lon="2.98947">
        <ele>338.4</ele>
        <time>2018-05-19T10:22:56Z</time>
      </trkpt>
      <trkpt lat="44.08395" lon="2.98951">
        <ele>338.5</ele>
        <time>2018-05-19T10:22:57Z</time>
      </trkpt>
      <trkpt lat="44.08397" lon="2.98954">
        <ele>338.5</ele>
        <time>2018-05-19T10:22:58Z</time>
      </trkpt>
      <trkpt lat="44.08398" lon="2.98958">
        <ele>338.5</ele>
        <time>2018-05-19T10:22:59Z</time>
      </trkpt>
      <trkpt lat="44.084" lon="2.98962">
        <ele>338.5</ele>
        <time>2018-05-19T10:23:00Z</time>
      </trkpt>
      <trkpt lat="44.08401" lon="2.98966">
        <ele>338.5</ele>
        <time>2018-05-19T10:23:01Z</time>
      </trkpt>
      <trkpt lat="44.08403" lon="2.9897">
        <ele>338.5</ele>
        <time>2018-05-19T10:23:02Z</time>
      </trkpt>
      <trkpt lat="44.08403" lon="2.98975">
        <ele>338.5</ele>
        <time>2018-05-19T10:23:03Z</time>
      </trkpt>
      <trkpt lat="44.08405" lon="2.9898">
        <ele>338.5</ele>
        <time>2018-05-19T10:23:04Z</time>
      </trkpt>
      <trkpt lat="44.08406" lon="2.98986">
        <ele>338.5</ele>
        <time>2018-05-19T10:23:05Z</time>
      </trkpt>
      <trkpt lat="44.08408" lon="2.98991">
        <ele>338.5</ele>
        <time>2018-05-19T10:23:06Z</time>
      </trkpt>
      <trkpt lat="44.0841" lon="2.98996">
        <ele>338.5</ele>
        <time>2018-05-19T10:23:07Z</time>
      </trkpt>
      <trkpt lat="44.08412" lon="2.99001">
        <ele>338.6</ele>
        <time>2018-05-19T10:23:08Z</time>
      </trkpt>
      <trkpt lat="44.08413" lon="2.99005">
        <ele>338.6</ele>
        <time>2018-05-19T10:23:09Z</time>
      </trkpt>
      <trkpt lat="44.08415" lon="2.9901">
        <ele>338.6</ele>
        <time>2018-05-19T10:23:10Z</time>
      </trkpt>
      <trkpt lat="44.08417" lon="2.99016">
        <ele>338.6</ele>
        <time>2018-05-19T10:23:11Z</time>
      </trkpt>
      <trkpt lat="44.08419" lon="2.99021">
        <ele>338.6</ele>
        <time>2018-05-19T10:23:12Z</time>
      </trkpt>
      <trkpt lat="44.08421" lon="2.99026">
        <ele>338.6</ele>
        <time>2018-05-19T10:23:13Z</time>
      </trkpt>
      <trkpt lat="44.08423" lon="2.9903">
        <ele>338.6</ele>
        <time>2018-05-19T10:23:14Z</time>
      </trkpt>
      <trkpt lat="44.08425" lon="2.99035">
        <ele>338.6</ele>
        <time>2018-05-19T10:23:15Z</time>
      </trkpt>
      <trkpt lat="44.08427" lon="2.99041">
        <ele>338.7</ele>
        <time>2018-05-19T10:23:16Z</time>
      </trkpt>
      <trkpt lat="44.08429" lon="2.99047">
        <ele>338.7</ele>
        <time>2018-05-19T10:23:17Z</time>
      </trkpt>
      <trkpt lat="44.08432" lon="2.99052">
        <ele>338.7</ele>
        <time>2018-05-19T10:23:18Z</time>
      </trkpt>
      <trkpt lat="44.08434" lon="2.99058">
        <ele>338.7</ele>
        <time>2018-05-19T10:23:19Z</time>
      </trkpt>
      <trkpt lat="44.08436" lon="2.99064">
        <ele>338.7</ele>
        <time>2018-05-19T10:23:20Z</time>
      </trkpt>
      <trkpt lat="44.08438" lon="2.99068">
        <ele>338.7</ele>
        <time>2018-05-19T10:23:21Z</time>
      </trkpt>
      <trkpt lat="44.08439" lon="2.99073">
        <ele>338.7</ele>
        <time>2018-05-19T10:23:22Z</time>
      </trkpt>
      <trkpt lat="44.08441" lon="2.99078">
        <ele>338.7</ele>
        <time>2018-05-19T10:23:23Z</time>
      </trkpt>
      <trkpt lat="44.08442" lon="2.99082">
        <ele>338.8</ele>
        <time>2018-05-19T10:23:24Z</time>
      </trkpt>
      <trkpt lat="44.08444" lon="2.99088">
        <ele>338.8</ele>
        <time>2018-05-19T10:23:25Z</time>
      </trkpt>
      <trkpt lat="44.08447" lon="2.99094">
        <ele>338.8</ele>
        <time>2018-05-19T10:23:26Z</time>
      </trkpt>
      <trkpt lat="44.08449" lon="2.991">
        <ele>338.8</ele>
        <time>2018-05-19T10:23:27Z</time>
      </trkpt>
      <trkpt lat="44.08451" lon="2.99105">
        <ele>338.8</ele>
        <time>2018-05-19T10:23:28Z</time>
      </trkpt>
      <trkpt lat="44.08452" lon="2.99109">
        <ele>338.8</ele>
        <time>2018-05-19T10:23:29Z</time>
      </trkpt>
      <trkpt lat="44.08454" lon="2.99113">
        <ele>338.8</ele>
        <time>2018-05-19T10:23:30Z</time>
      </trkpt>
      <trkpt lat="44.08456" lon="2.99118">
        <ele>338.8</ele>
        <time>2018-05-19T10:23:31Z</time>
      </trkpt>
      <trkpt lat="44.08458" lon="2.99122">
        <ele>338.9</ele>
        <time>2018-05-19T10:23:32Z</time>
      </trkpt>
      <trkpt lat="44.08459" lon="2.99126">
        <ele>338.9</ele>
        <time>2018-05-19T10:23:33Z</time>
      </trkpt>
      <trkpt lat="44.08461" lon="2.9913">
        <ele>338.9</ele>
        <time>2018-05-19T10:23:34Z</time>
      </trkpt>
      <trkpt lat="44.08463" lon="2.99135">
        <ele>338.9</ele>
        <time>2018-05-19T10:23:35Z</time>
      </trkpt>
      <trkpt lat="44.08465" lon="2.9914">
        <ele>338.9</ele>
        <time>2018-05-19T10:23:36Z</time>
      </trkpt>
      <trkpt lat="44.08466" lon="2.99144">
        <ele>338.9</ele>
        <time>2018-05-19T10:23:37Z</time>
      </trkpt>
      <trkpt lat="44.08468" lon="2.99148">
        <ele>338.9</ele>
        <time>2018-05-19T10:23:38Z</time>
      </trkpt>
      <trkpt lat="44.08469" lon="2.99152">
        <ele>339</ele>
        <time>2018-05-19T10:23:39Z</time>
      </trkpt>
      <trkpt lat="44.08471" lon="2.99156">
        <ele>339</ele>
        <time>2018-05-19T10:23:40Z</time>
      </trkpt>
      <trkpt lat="44.08472" lon="2.99159">
        <ele>339</ele>
        <time>2018-05-19T10:23:41Z</time>
      </trkpt>
      <trkpt lat="44.08473" lon="2.99164">
        <ele>339</ele>
        <time>2018-05-19T10:23:43Z</time>
      </trkpt>
      <trkpt lat="44.0847" lon="2.99169">
        <ele>339</ele>
        <time>2018-05-19T10:23:45Z</time>
      </trkpt>
      <trkpt lat="44.08466" lon="2.99171">
        <ele>339</ele>
        <time>2018-05-19T10:23:47Z</time>
      </trkpt>
      <trkpt lat="44.08464" lon="2.99173">
        <ele>339</ele>
        <time>2018-05-19T10:23:48Z</time>
      </trkpt>
      <trkpt lat="44.08462" lon="2.99176">
        <ele>339.1</ele>
        <time>2018-05-19T10:23:49Z</time>
      </trkpt>
      <trkpt lat="44.0846" lon="2.99183">
        <ele>339.2</ele>
        <time>2018-05-19T10:23:51Z</time>
      </trkpt>
      <trkpt lat="44.08459" lon="2.99188">
        <ele>339.3</ele>
        <time>2018-05-19T10:23:53Z</time>
      </trkpt>
      <trkpt lat="44.0846" lon="2.99192">
        <ele>339.4</ele>
        <time>2018-05-19T10:23:55Z</time>
      </trkpt>
      <trkpt lat="44.08462" lon="2.99195">
        <ele>339.3</ele>
        <time>2018-05-19T10:23:57Z</time>
      </trkpt>
      <trkpt lat="44.08465" lon="2.99198">
        <ele>339.3</ele>
        <time>2018-05-19T10:24:01Z</time>
      </trkpt>
      <trkpt lat="44.08466" lon="2.99202">
        <ele>339.3</ele>
        <time>2018-05-19T10:24:04Z</time>
      </trkpt>
      <trkpt lat="44.08469" lon="2.99206">
        <ele>339.2</ele>
        <time>2018-05-19T10:24:06Z</time>
      </trkpt>
      <trkpt lat="44.08472" lon="2.99211">
        <ele>339.2</ele>
        <time>2018-05-19T10:24:08Z</time>
      </trkpt>
      <trkpt lat="44.08474" lon="2.99206">
        <ele>339.1</ele>
        <time>2018-05-19T10:24:23Z</time>
      </trkpt>
      <trkpt lat="44.08475" lon="2.99203">
        <ele>339.1</ele>
        <time>2018-05-19T10:24:25Z</time>
      </trkpt>
      <trkpt lat="44.08478" lon="2.992">
        <ele>339.2</ele>
        <time>2018-05-19T10:24:28Z</time>
      </trkpt>
      <trkpt lat="44.08481" lon="2.99202">
        <ele>339.2</ele>
        <time>2018-05-19T10:24:30Z</time>
      </trkpt>
      <trkpt lat="44.08484" lon="2.99205">
        <ele>339.4</ele>
        <time>2018-05-19T10:24:32Z</time>
      </trkpt>
      <trkpt lat="44.08488" lon="2.99209">
        <ele>339.7</ele>
        <time>2018-05-19T10:24:34Z</time>
      </trkpt>
      <trkpt lat="44.08492" lon="2.99214">
        <ele>339.9</ele>
        <time>2018-05-19T10:24:36Z</time>
      </trkpt>
      <trkpt lat="44.08494" lon="2.99218">
        <ele>340.1</ele>
        <time>2018-05-19T10:24:37Z</time>
      </trkpt>
      <trkpt lat="44.08497" lon="2.99221">
        <ele>340.1</ele>
        <time>2018-05-19T10:24:38Z</time>
      </trkpt>
      <trkpt lat="44.08499" lon="2.99224">
        <ele>340.1</ele>
        <time>2018-05-19T10:24:39Z</time>
      </trkpt>
      <trkpt lat="44.08502" lon="2.99227">
        <ele>340</ele>
        <time>2018-05-19T10:24:40Z</time>
      </trkpt>
      <trkpt lat="44.08505" lon="2.99233">
        <ele>339.8</ele>
        <time>2018-05-19T10:24:42Z</time>
      </trkpt>
      <trkpt lat="44.08508" lon="2.99237">
        <ele>339.6</ele>
        <time>2018-05-19T10:24:43Z</time>
      </trkpt>
      <trkpt lat="44.0851" lon="2.99241">
        <ele>339.5</ele>
        <time>2018-05-19T10:24:44Z</time>
      </trkpt>
      <trkpt lat="44.08512" lon="2.99245">
        <ele>339.4</ele>
        <time>2018-05-19T10:24:45Z</time>
      </trkpt>
      <trkpt lat="44.08515" lon="2.99248">
        <ele>339.3</ele>
        <time>2018-05-19T10:24:46Z</time>
      </trkpt>
      <trkpt lat="44.08516" lon="2.99252">
        <ele>339.2</ele>
        <time>2018-05-19T10:24:47Z</time>
      </trkpt>
      <trkpt lat="44.08519" lon="2.99255">
        <ele>339.1</ele>
        <time>2018-05-19T10:24:48Z</time>
      </trkpt>
      <trkpt lat="44.08521" lon="2.99259">
        <ele>339.1</ele>
        <time>2018-05-19T10:24:49Z</time>
      </trkpt>
      <trkpt lat="44.08523" lon="2.99263">
        <ele>339.2</ele>
        <time>2018-05-19T10:24:50Z</time>
      </trkpt>
      <trkpt lat="44.08526" lon="2.99266">
        <ele>339.3</ele>
        <time>2018-05-19T10:24:51Z</time>
      </trkpt>
      <trkpt lat="44.08529" lon="2.9927">
        <ele>339.4</ele>
        <time>2018-05-19T10:24:52Z</time>
      </trkpt>
      <trkpt lat="44.08532" lon="2.99274">
        <ele>339.6</ele>
        <time>2018-05-19T10:24:53Z</time>
      </trkpt>
      <trkpt lat="44.08535" lon="2.99278">
        <ele>339.6</ele>
        <time>2018-05-19T10:24:54Z</time>
      </trkpt>
      <trkpt lat="44.08539" lon="2.99282">
        <ele>339.7</ele>
        <time>2018-05-19T10:24:55Z</time>
      </trkpt>
      <trkpt lat="44.08542" lon="2.99287">
        <ele>339.7</ele>
        <time>2018-05-19T10:24:56Z</time>
      </trkpt>
      <trkpt lat="44.08546" lon="2.99291">
        <ele>339.6</ele>
        <time>2018-05-19T10:24:57Z</time>
      </trkpt>
      <trkpt lat="44.08549" lon="2.99296">
        <ele>339.6</ele>
        <time>2018-05-19T10:24:58Z</time>
      </trkpt>
      <trkpt lat="44.08552" lon="2.993">
        <ele>339.5</ele>
        <time>2018-05-19T10:24:59Z</time>
      </trkpt>
      <trkpt lat="44.08554" lon="2.99304">
        <ele>339.5</ele>
        <time>2018-05-19T10:25:00Z</time>
      </trkpt>
      <trkpt lat="44.08557" lon="2.99308">
        <ele>339.5</ele>
        <time>2018-05-19T10:25:01Z</time>
      </trkpt>
      <trkpt lat="44.0856" lon="2.99312">
        <ele>339.5</ele>
        <time>2018-05-19T10:25:02Z</time>
      </trkpt>
      <trkpt lat="44.08563" lon="2.99317">
        <ele>339.6</ele>
        <time>2018-05-19T10:25:03Z</time>
      </trkpt>
      <trkpt lat="44.08566" lon="2.99321">
        <ele>339.6</ele>
        <time>2018-05-19T10:25:04Z</time>
      </trkpt>
      <trkpt lat="44.08569" lon="2.99325">
        <ele>339.6</ele>
        <time>2018-05-19T10:25:05Z</time>
      </trkpt>
      <trkpt lat="44.08572" lon="2.99329">
        <ele>339.6</ele>
        <time>2018-05-19T10:25:06Z</time>
      </trkpt>
      <trkpt lat="44.08574" lon="2.99333">
        <ele>339.6</ele>
        <time>2018-05-19T10:25:07Z</time>
      </trkpt>
      <trkpt lat="44.08577" lon="2.99337">
        <ele>339.6</ele>
        <time>2018-05-19T10:25:08Z</time>
      </trkpt>
      <trkpt lat="44.08579" lon="2.99341">
        <ele>339.5</ele>
        <time>2018-05-19T10:25:09Z</time>
      </trkpt>
      <trkpt lat="44.08582" lon="2.99344">
        <ele>339.4</ele>
        <time>2018-05-19T10:25:10Z</time>
      </trkpt>
      <trkpt lat="44.08585" lon="2.99348">
        <ele>339.4</ele>
        <time>2018-05-19T10:25:11Z</time>
      </trkpt>
      <trkpt lat="44.08587" lon="2.99352">
        <ele>339.3</ele>
        <time>2018-05-19T10:25:12Z</time>
      </trkpt>
      <trkpt lat="44.0859" lon="2.99356">
        <ele>339.3</ele>
        <time>2018-05-19T10:25:13Z</time>
      </trkpt>
      <trkpt lat="44.08592" lon="2.9936">
        <ele>339.3</ele>
        <time>2018-05-19T10:25:14Z</time>
      </trkpt>
      <trkpt lat="44.08594" lon="2.99363">
        <ele>339.2</ele>
        <time>2018-05-19T10:25:15Z</time>
      </trkpt>
      <trkpt lat="44.08597" lon="2.99367">
        <ele>339.1</ele>
        <time>2018-05-19T10:25:16Z</time>
      </trkpt>
      <trkpt lat="44.086" lon="2.99371">
        <ele>339.1</ele>
        <time>2018-05-19T10:25:17Z</time>
      </trkpt>
      <trkpt lat="44.08603" lon="2.99375">
        <ele>339</ele>
        <time>2018-05-19T10:25:18Z</time>
      </trkpt>
      <trkpt lat="44.08605" lon="2.99379">
        <ele>339</ele>
        <time>2018-05-19T10:25:19Z</time>
      </trkpt>
      <trkpt lat="44.08608" lon="2.99383">
        <ele>338.9</ele>
        <time>2018-05-19T10:25:20Z</time>
      </trkpt>
      <trkpt lat="44.08611" lon="2.99388">
        <ele>338.9</ele>
        <time>2018-05-19T10:25:21Z</time>
      </trkpt>
      <trkpt lat="44.08614" lon="2.99392">
        <ele>338.8</ele>
        <time>2018-05-19T10:25:22Z</time>
      </trkpt>
      <trkpt lat="44.08616" lon="2.99397">
        <ele>338.8</ele>
        <time>2018-05-19T10:25:23Z</time>
      </trkpt>
      <trkpt lat="44.08619" lon="2.99402">
        <ele>338.8</ele>
        <time>2018-05-19T10:25:24Z</time>
      </trkpt>
      <trkpt lat="44.08622" lon="2.99407">
        <ele>338.9</ele>
        <time>2018-05-19T10:25:25Z</time>
      </trkpt>
      <trkpt lat="44.08625" lon="2.99412">
        <ele>338.9</ele>
        <time>2018-05-19T10:25:26Z</time>
      </trkpt>
      <trkpt lat="44.08627" lon="2.99417">
        <ele>338.9</ele>
        <time>2018-05-19T10:25:27Z</time>
      </trkpt>
      <trkpt lat="44.0863" lon="2.99422">
        <ele>338.9</ele>
        <time>2018-05-19T10:25:28Z</time>
      </trkpt>
      <trkpt lat="44.08633" lon="2.99426">
        <ele>339</ele>
        <time>2018-05-19T10:25:29Z</time>
      </trkpt>
      <trkpt lat="44.08636" lon="2.9943">
        <ele>338.9</ele>
        <time>2018-05-19T10:25:30Z</time>
      </trkpt>
      <trkpt lat="44.08639" lon="2.99434">
        <ele>338.9</ele>
        <time>2018-05-19T10:25:31Z</time>
      </trkpt>
      <trkpt lat="44.08642" lon="2.99438">
        <ele>338.9</ele>
        <time>2018-05-19T10:25:32Z</time>
      </trkpt>
      <trkpt lat="44.08645" lon="2.99443">
        <ele>338.9</ele>
        <time>2018-05-19T10:25:33Z</time>
      </trkpt>
      <trkpt lat="44.08648" lon="2.99448">
        <ele>338.7</ele>
        <time>2018-05-19T10:25:34Z</time>
      </trkpt>
      <trkpt lat="44.08651" lon="2.99453">
        <ele>338.5</ele>
        <time>2018-05-19T10:25:35Z</time>
      </trkpt>
      <trkpt lat="44.08654" lon="2.99458">
        <ele>338.4</ele>
        <time>2018-05-19T10:25:36Z</time>
      </trkpt>
      <trkpt lat="44.08656" lon="2.99462">
        <ele>338.3</ele>
        <time>2018-05-19T10:25:37Z</time>
      </trkpt>
      <trkpt lat="44.08659" lon="2.99466">
        <ele>338.3</ele>
        <time>2018-05-19T10:25:38Z</time>
      </trkpt>
      <trkpt lat="44.08662" lon="2.99471">
        <ele>338.4</ele>
        <time>2018-05-19T10:25:39Z</time>
      </trkpt>
      <trkpt lat="44.08665" lon="2.99475">
        <ele>338.4</ele>
        <time>2018-05-19T10:25:40Z</time>
      </trkpt>
      <trkpt lat="44.08667" lon="2.99479">
        <ele>338.5</ele>
        <time>2018-05-19T10:25:41Z</time>
      </trkpt>
      <trkpt lat="44.0867" lon="2.99484">
        <ele>338.5</ele>
        <time>2018-05-19T10:25:42Z</time>
      </trkpt>
      <trkpt lat="44.08673" lon="2.99489">
        <ele>338.4</ele>
        <time>2018-05-19T10:25:43Z</time>
      </trkpt>
      <trkpt lat="44.08676" lon="2.99493">
        <ele>338.4</ele>
        <time>2018-05-19T10:25:44Z</time>
      </trkpt>
      <trkpt lat="44.08679" lon="2.99498">
        <ele>338.4</ele>
        <time>2018-05-19T10:25:45Z</time>
      </trkpt>
      <trkpt lat="44.08682" lon="2.99501">
        <ele>338.5</ele>
        <time>2018-05-19T10:25:46Z</time>
      </trkpt>
      <trkpt lat="44.08685" lon="2.99504">
        <ele>338.5</ele>
        <time>2018-05-19T10:25:47Z</time>
      </trkpt>
      <trkpt lat="44.08688" lon="2.99507">
        <ele>338.4</ele>
        <time>2018-05-19T10:25:48Z</time>
      </trkpt>
      <trkpt lat="44.08692" lon="2.99511">
        <ele>338.3</ele>
        <time>2018-05-19T10:25:49Z</time>
      </trkpt>
      <trkpt lat="44.08696" lon="2.99515">
        <ele>338.3</ele>
        <time>2018-05-19T10:25:50Z</time>
      </trkpt>
      <trkpt lat="44.087" lon="2.99518">
        <ele>338.2</ele>
        <time>2018-05-19T10:25:51Z</time>
      </trkpt>
      <trkpt lat="44.08704" lon="2.99521">
        <ele>338.2</ele>
        <time>2018-05-19T10:25:52Z</time>
      </trkpt>
      <trkpt lat="44.08708" lon="2.99525">
        <ele>338.1</ele>
        <time>2018-05-19T10:25:53Z</time>
      </trkpt>
      <trkpt lat="44.08711" lon="2.99529">
        <ele>338.1</ele>
        <time>2018-05-19T10:25:54Z</time>
      </trkpt>
      <trkpt lat="44.08715" lon="2.99531">
        <ele>338.1</ele>
        <time>2018-05-19T10:25:55Z</time>
      </trkpt>
      <trkpt lat="44.08718" lon="2.99532">
        <ele>338.1</ele>
        <time>2018-05-19T10:25:56Z</time>
      </trkpt>
      <trkpt lat="44.0872" lon="2.99536">
        <ele>338.1</ele>
        <time>2018-05-19T10:25:57Z</time>
      </trkpt>
      <trkpt lat="44.08724" lon="2.9954">
        <ele>338.1</ele>
        <time>2018-05-19T10:25:58Z</time>
      </trkpt>
      <trkpt lat="44.08728" lon="2.99543">
        <ele>338.2</ele>
        <time>2018-05-19T10:25:59Z</time>
      </trkpt>
      <trkpt lat="44.08732" lon="2.99546">
        <ele>338.3</ele>
        <time>2018-05-19T10:26:00Z</time>
      </trkpt>
      <trkpt lat="44.08735" lon="2.9955">
        <ele>338.3</ele>
        <time>2018-05-19T10:26:01Z</time>
      </trkpt>
      <trkpt lat="44.0874" lon="2.99556">
        <ele>338.4</ele>
        <time>2018-05-19T10:26:02Z</time>
      </trkpt>
      <trkpt lat="44.08743" lon="2.9956">
        <ele>338.3</ele>
        <time>2018-05-19T10:26:03Z</time>
      </trkpt>
      <trkpt lat="44.08747" lon="2.99564">
        <ele>338.3</ele>
        <time>2018-05-19T10:26:04Z</time>
      </trkpt>
      <trkpt lat="44.08751" lon="2.99567">
        <ele>338.3</ele>
        <time>2018-05-19T10:26:05Z</time>
      </trkpt>
      <trkpt lat="44.08756" lon="2.99571">
        <ele>338.4</ele>
        <time>2018-05-19T10:26:06Z</time>
      </trkpt>
      <trkpt lat="44.0876" lon="2.99577">
        <ele>338.6</ele>
        <time>2018-05-19T10:26:07Z</time>
      </trkpt>
      <trkpt lat="44.08764" lon="2.99581">
        <ele>338.9</ele>
        <time>2018-05-19T10:26:08Z</time>
      </trkpt>
      <trkpt lat="44.08769" lon="2.99586">
        <ele>339.1</ele>
        <time>2018-05-19T10:26:09Z</time>
      </trkpt>
      <trkpt lat="44.08774" lon="2.99593">
        <ele>339.4</ele>
        <time>2018-05-19T10:26:10Z</time>
      </trkpt>
      <trkpt lat="44.08777" lon="2.99596">
        <ele>339.6</ele>
        <time>2018-05-19T10:26:11Z</time>
      </trkpt>
      <trkpt lat="44.0878" lon="2.99598">
        <ele>339.7</ele>
        <time>2018-05-19T10:26:12Z</time>
      </trkpt>
      <trkpt lat="44.08784" lon="2.99603">
        <ele>340</ele>
        <time>2018-05-19T10:26:13Z</time>
      </trkpt>
      <trkpt lat="44.08788" lon="2.99607">
        <ele>340</ele>
        <time>2018-05-19T10:26:14Z</time>
      </trkpt>
      <trkpt lat="44.08792" lon="2.99612">
        <ele>340</ele>
        <time>2018-05-19T10:26:15Z</time>
      </trkpt>
      <trkpt lat="44.08796" lon="2.99614">
        <ele>340.7</ele>
        <time>2018-05-19T10:26:16Z</time>
      </trkpt>
      <trkpt lat="44.088" lon="2.99617">
        <ele>341.3</ele>
        <time>2018-05-19T10:26:17Z</time>
      </trkpt>
      <trkpt lat="44.08803" lon="2.99619">
        <ele>341.8</ele>
        <time>2018-05-19T10:26:18Z</time>
      </trkpt>
      <trkpt lat="44.08806" lon="2.99621">
        <ele>342.5</ele>
        <time>2018-05-19T10:26:19Z</time>
      </trkpt>
      <trkpt lat="44.0881" lon="2.99624">
        <ele>343</ele>
        <time>2018-05-19T10:26:20Z</time>
      </trkpt>
      <trkpt lat="44.08814" lon="2.99628">
        <ele>343.4</ele>
        <time>2018-05-19T10:26:21Z</time>
      </trkpt>
      <trkpt lat="44.08816" lon="2.99632">
        <ele>343.7</ele>
        <time>2018-05-19T10:26:22Z</time>
      </trkpt>
      <trkpt lat="44.08819" lon="2.99634">
        <ele>344.3</ele>
        <time>2018-05-19T10:26:23Z</time>
      </trkpt>
      <trkpt lat="44.08822" lon="2.99638">
        <ele>344.6</ele>
        <time>2018-05-19T10:26:24Z</time>
      </trkpt>
      <trkpt lat="44.08825" lon="2.99641">
        <ele>344.9</ele>
        <time>2018-05-19T10:26:25Z</time>
      </trkpt>
      <trkpt lat="44.08827" lon="2.99643">
        <ele>345.6</ele>
        <time>2018-05-19T10:26:26Z</time>
      </trkpt>
      <trkpt lat="44.0883" lon="2.99645">
        <ele>346</ele>
        <time>2018-05-19T10:26:27Z</time>
      </trkpt>
      <trkpt lat="44.08832" lon="2.99648">
        <ele>345.8</ele>
        <time>2018-05-19T10:26:28Z</time>
      </trkpt>
      <trkpt lat="44.08836" lon="2.99652">
        <ele>346.6</ele>
        <time>2018-05-19T10:26:30Z</time>
      </trkpt>
      <trkpt lat="44.08839" lon="2.99655">
        <ele>346.8</ele>
        <time>2018-05-19T10:26:31Z</time>
      </trkpt>
      <trkpt lat="44.08841" lon="2.99657">
        <ele>347.1</ele>
        <time>2018-05-19T10:26:32Z</time>
      </trkpt>
      <trkpt lat="44.08844" lon="2.99659">
        <ele>347.8</ele>
        <time>2018-05-19T10:26:33Z</time>
      </trkpt>
      <trkpt lat="44.08847" lon="2.99661">
        <ele>348</ele>
        <time>2018-05-19T10:26:34Z</time>
      </trkpt>
      <trkpt lat="44.08851" lon="2.99662">
        <ele>348.7</ele>
        <time>2018-05-19T10:26:35Z</time>
      </trkpt>
      <trkpt lat="44.08855" lon="2.99663">
        <ele>350</ele>
        <time>2018-05-19T10:26:37Z</time>
      </trkpt>
      <trkpt lat="44.0886" lon="2.99664">
        <ele>350.8</ele>
        <time>2018-05-19T10:26:39Z</time>
      </trkpt>
      <trkpt lat="44.08862" lon="2.99665">
        <ele>351.1</ele>
        <time>2018-05-19T10:26:40Z</time>
      </trkpt>
      <trkpt lat="44.08865" lon="2.99668">
        <ele>351.3</ele>
        <time>2018-05-19T10:26:41Z</time>
      </trkpt>
      <trkpt lat="44.08867" lon="2.9967">
        <ele>351.6</ele>
        <time>2018-05-19T10:26:42Z</time>
      </trkpt>
      <trkpt lat="44.08872" lon="2.99673">
        <ele>352</ele>
        <time>2018-05-19T10:26:44Z</time>
      </trkpt>
      <trkpt lat="44.08875" lon="2.99675">
        <ele>352.3</ele>
        <time>2018-05-19T10:26:45Z</time>
      </trkpt>
      <trkpt lat="44.08879" lon="2.99677">
        <ele>352.6</ele>
        <time>2018-05-19T10:26:46Z</time>
      </trkpt>
      <trkpt lat="44.08881" lon="2.99679">
        <ele>352.8</ele>
        <time>2018-05-19T10:26:47Z</time>
      </trkpt>
      <trkpt lat="44.08884" lon="2.99681">
        <ele>353.1</ele>
        <time>2018-05-19T10:26:48Z</time>
      </trkpt>
      <trkpt lat="44.08888" lon="2.99684">
        <ele>353.5</ele>
        <time>2018-05-19T10:26:49Z</time>
      </trkpt>
      <trkpt lat="44.08894" lon="2.99689">
        <ele>354.1</ele>
        <time>2018-05-19T10:26:50Z</time>
      </trkpt>
      <trkpt lat="44.08898" lon="2.99694">
        <ele>354.6</ele>
        <time>2018-05-19T10:26:51Z</time>
      </trkpt>
      <trkpt lat="44.08903" lon="2.99698">
        <ele>355.1</ele>
        <time>2018-05-19T10:26:52Z</time>
      </trkpt>
      <trkpt lat="44.08908" lon="2.99701">
        <ele>355.5</ele>
        <time>2018-05-19T10:26:53Z</time>
      </trkpt>
      <trkpt lat="44.08912" lon="2.99704">
        <ele>355.9</ele>
        <time>2018-05-19T10:26:54Z</time>
      </trkpt>
      <trkpt lat="44.08916" lon="2.99708">
        <ele>356.4</ele>
        <time>2018-05-19T10:26:55Z</time>
      </trkpt>
      <trkpt lat="44.08921" lon="2.9971">
        <ele>356.7</ele>
        <time>2018-05-19T10:26:56Z</time>
      </trkpt>
      <trkpt lat="44.08924" lon="2.99712">
        <ele>357.1</ele>
        <time>2018-05-19T10:26:57Z</time>
      </trkpt>
      <trkpt lat="44.08928" lon="2.99714">
        <ele>357.4</ele>
        <time>2018-05-19T10:26:58Z</time>
      </trkpt>
      <trkpt lat="44.08932" lon="2.99719">
        <ele>357.8</ele>
        <time>2018-05-19T10:26:59Z</time>
      </trkpt>
      <trkpt lat="44.08935" lon="2.99722">
        <ele>358.2</ele>
        <time>2018-05-19T10:27:01Z</time>
      </trkpt>
      <trkpt lat="44.0894" lon="2.99726">
        <ele>358.7</ele>
        <time>2018-05-19T10:27:03Z</time>
      </trkpt>
      <trkpt lat="44.08943" lon="2.99728">
        <ele>359</ele>
        <time>2018-05-19T10:27:04Z</time>
      </trkpt>
      <trkpt lat="44.08946" lon="2.99731">
        <ele>359</ele>
        <time>2018-05-19T10:27:06Z</time>
      </trkpt>
      <trkpt lat="44.08949" lon="2.99733">
        <ele>359.2</ele>
        <time>2018-05-19T10:27:11Z</time>
      </trkpt>
      <trkpt lat="44.08951" lon="2.99736">
        <ele>359.4</ele>
        <time>2018-05-19T10:27:24Z</time>
      </trkpt>
      <trkpt lat="44.08951" lon="2.99741">
        <ele>360</ele>
        <time>2018-05-19T10:27:27Z</time>
      </trkpt>
      <trkpt lat="44.08953" lon="2.99744">
        <ele>360.8</ele>
        <time>2018-05-19T10:27:28Z</time>
      </trkpt>
      <trkpt lat="44.08956" lon="2.99747">
        <ele>361.6</ele>
        <time>2018-05-19T10:27:29Z</time>
      </trkpt>
      <trkpt lat="44.08959" lon="2.99749">
        <ele>361.8</ele>
        <time>2018-05-19T10:27:30Z</time>
      </trkpt>
      <trkpt lat="44.08964" lon="2.9975">
        <ele>362.2</ele>
        <time>2018-05-19T10:27:32Z</time>
      </trkpt>
      <trkpt lat="44.08967" lon="2.99752">
        <ele>361.6</ele>
        <time>2018-05-19T10:27:33Z</time>
      </trkpt>
      <trkpt lat="44.08971" lon="2.99754">
        <ele>360.7</ele>
        <time>2018-05-19T10:27:34Z</time>
      </trkpt>
      <trkpt lat="44.08977" lon="2.99759">
        <ele>358.9</ele>
        <time>2018-05-19T10:27:35Z</time>
      </trkpt>
      <trkpt lat="44.08981" lon="2.99764">
        <ele>357</ele>
        <time>2018-05-19T10:27:36Z</time>
      </trkpt>
      <trkpt lat="44.08985" lon="2.99767">
        <ele>355.1</ele>
        <time>2018-05-19T10:27:37Z</time>
      </trkpt>
      <trkpt lat="44.08989" lon="2.9977">
        <ele>354.4</ele>
        <time>2018-05-19T10:27:38Z</time>
      </trkpt>
      <trkpt lat="44.08994" lon="2.99773">
        <ele>355</ele>
        <time>2018-05-19T10:27:39Z</time>
      </trkpt>
      <trkpt lat="44.08998" lon="2.99777">
        <ele>355.7</ele>
        <time>2018-05-19T10:27:40Z</time>
      </trkpt>
      <trkpt lat="44.09002" lon="2.9978">
        <ele>356</ele>
        <time>2018-05-19T10:27:41Z</time>
      </trkpt>
      <trkpt lat="44.09005" lon="2.99783">
        <ele>358.9</ele>
        <time>2018-05-19T10:27:42Z</time>
      </trkpt>
      <trkpt lat="44.09009" lon="2.99785">
        <ele>360.7</ele>
        <time>2018-05-19T10:27:44Z</time>
      </trkpt>
      <trkpt lat="44.09014" lon="2.99786">
        <ele>360.7</ele>
        <time>2018-05-19T10:27:45Z</time>
      </trkpt>
      <trkpt lat="44.09017" lon="2.99791">
        <ele>360.8</ele>
        <time>2018-05-19T10:27:46Z</time>
      </trkpt>
      <trkpt lat="44.09021" lon="2.99796">
        <ele>361</ele>
        <time>2018-05-19T10:27:47Z</time>
      </trkpt>
      <trkpt lat="44.09024" lon="2.99799">
        <ele>360</ele>
        <time>2018-05-19T10:27:48Z</time>
      </trkpt>
      <trkpt lat="44.09026" lon="2.99801">
        <ele>359.1</ele>
        <time>2018-05-19T10:27:49Z</time>
      </trkpt>
      <trkpt lat="44.09029" lon="2.99796">
        <ele>358.2</ele>
        <time>2018-05-19T10:27:53Z</time>
      </trkpt>
      <trkpt lat="44.0903" lon="2.998">
        <ele>358.2</ele>
        <time>2018-05-19T10:27:57Z</time>
      </trkpt>
      <trkpt lat="44.09031" lon="2.99804">
        <ele>358.2</ele>
        <time>2018-05-19T10:28:01Z</time>
      </trkpt>
      <trkpt lat="44.09033" lon="2.99807">
        <ele>359</ele>
        <time>2018-05-19T10:28:04Z</time>
      </trkpt>
      <trkpt lat="44.09037" lon="2.99811">
        <ele>360.8</ele>
        <time>2018-05-19T10:28:06Z</time>
      </trkpt>
      <trkpt lat="44.09039" lon="2.99813">
        <ele>361.7</ele>
        <time>2018-05-19T10:28:07Z</time>
      </trkpt>
      <trkpt lat="44.09042" lon="2.99816">
        <ele>362.4</ele>
        <time>2018-05-19T10:28:08Z</time>
      </trkpt>
      <trkpt lat="44.09044" lon="2.99818">
        <ele>363.2</ele>
        <time>2018-05-19T10:28:09Z</time>
      </trkpt>
      <trkpt lat="44.09046" lon="2.99822">
        <ele>364</ele>
        <time>2018-05-19T10:28:10Z</time>
      </trkpt>
      <trkpt lat="44.09047" lon="2.99825">
        <ele>363.8</ele>
        <time>2018-05-19T10:28:11Z</time>
      </trkpt>
      <trkpt lat="44.09049" lon="2.99829">
        <ele>363.7</ele>
        <time>2018-05-19T10:28:12Z</time>
      </trkpt>
      <trkpt lat="44.0905" lon="2.99832">
        <ele>363.4</ele>
        <time>2018-05-19T10:28:13Z</time>
      </trkpt>
      <trkpt lat="44.09052" lon="2.99837">
        <ele>362.6</ele>
        <time>2018-05-19T10:28:14Z</time>
      </trkpt>
      <trkpt lat="44.09054" lon="2.99841">
        <ele>361.5</ele>
        <time>2018-05-19T10:28:15Z</time>
      </trkpt>
      <trkpt lat="44.09056" lon="2.99845">
        <ele>360.6</ele>
        <time>2018-05-19T10:28:16Z</time>
      </trkpt>
      <trkpt lat="44.09059" lon="2.9985">
        <ele>360.6</ele>
        <time>2018-05-19T10:28:17Z</time>
      </trkpt>
      <trkpt lat="44.09061" lon="2.99854">
        <ele>360.6</ele>
        <time>2018-05-19T10:28:18Z</time>
      </trkpt>
      <trkpt lat="44.09062" lon="2.99859">
        <ele>360.8</ele>
        <time>2018-05-19T10:28:19Z</time>
      </trkpt>
      <trkpt lat="44.09064" lon="2.99863">
        <ele>361.1</ele>
        <time>2018-05-19T10:28:20Z</time>
      </trkpt>
      <trkpt lat="44.09066" lon="2.99867">
        <ele>361.3</ele>
        <time>2018-05-19T10:28:21Z</time>
      </trkpt>
      <trkpt lat="44.09067" lon="2.9987">
        <ele>360</ele>
        <time>2018-05-19T10:28:22Z</time>
      </trkpt>
      <trkpt lat="44.09069" lon="2.99873">
        <ele>358.4</ele>
        <time>2018-05-19T10:28:23Z</time>
      </trkpt>
      <trkpt lat="44.09071" lon="2.99877">
        <ele>356.6</ele>
        <time>2018-05-19T10:28:24Z</time>
      </trkpt>
      <trkpt lat="44.09073" lon="2.99882">
        <ele>354.9</ele>
        <time>2018-05-19T10:28:25Z</time>
      </trkpt>
      <trkpt lat="44.09075" lon="2.99887">
        <ele>353.2</ele>
        <time>2018-05-19T10:28:26Z</time>
      </trkpt>
      <trkpt lat="44.09077" lon="2.99892">
        <ele>352.1</ele>
        <time>2018-05-19T10:28:27Z</time>
      </trkpt>
      <trkpt lat="44.09079" lon="2.99896">
        <ele>351.1</ele>
        <time>2018-05-19T10:28:28Z</time>
      </trkpt>
      <trkpt lat="44.09081" lon="2.999">
        <ele>351.3</ele>
        <time>2018-05-19T10:28:29Z</time>
      </trkpt>
      <trkpt lat="44.09083" lon="2.99904">
        <ele>351.5</ele>
        <time>2018-05-19T10:28:30Z</time>
      </trkpt>
      <trkpt lat="44.09085" lon="2.99908">
        <ele>352.4</ele>
        <time>2018-05-19T10:28:31Z</time>
      </trkpt>
      <trkpt lat="44.09086" lon="2.99912">
        <ele>353.3</ele>
        <time>2018-05-19T10:28:32Z</time>
      </trkpt>
      <trkpt lat="44.09088" lon="2.99916">
        <ele>354.6</ele>
        <time>2018-05-19T10:28:34Z</time>
      </trkpt>
      <trkpt lat="44.09089" lon="2.9992">
        <ele>355.9</ele>
        <time>2018-05-19T10:28:37Z</time>
      </trkpt>
      <trkpt lat="44.09089" lon="2.99928">
        <ele>358</ele>
        <time>2018-05-19T10:29:33Z</time>
      </trkpt>
      <trkpt lat="44.09091" lon="2.99931">
        <ele>359.1</ele>
        <time>2018-05-19T10:29:34Z</time>
      </trkpt>
      <trkpt lat="44.09092" lon="2.99936">
        <ele>360.2</ele>
        <time>2018-05-19T10:29:35Z</time>
      </trkpt>
      <trkpt lat="44.09093" lon="2.9994">
        <ele>361.1</ele>
        <time>2018-05-19T10:29:36Z</time>
      </trkpt>
      <trkpt lat="44.09094" lon="2.99945">
        <ele>361.9</ele>
        <time>2018-05-19T10:29:37Z</time>
      </trkpt>
      <trkpt lat="44.09095" lon="2.9995">
        <ele>362.2</ele>
        <time>2018-05-19T10:29:38Z</time>
      </trkpt>
      <trkpt lat="44.09097" lon="2.99954">
        <ele>362</ele>
        <time>2018-05-19T10:29:39Z</time>
      </trkpt>
      <trkpt lat="44.09098" lon="2.99959">
        <ele>359.9</ele>
        <time>2018-05-19T10:29:40Z</time>
      </trkpt>
      <trkpt lat="44.09099" lon="2.99963">
        <ele>357.8</ele>
        <time>2018-05-19T10:29:41Z</time>
      </trkpt>
      <trkpt lat="44.091" lon="2.99968">
        <ele>356.4</ele>
        <time>2018-05-19T10:29:42Z</time>
      </trkpt>
      <trkpt lat="44.09101" lon="2.99971">
        <ele>355.4</ele>
        <time>2018-05-19T10:29:43Z</time>
      </trkpt>
      <trkpt lat="44.09103" lon="2.99977">
        <ele>353.5</ele>
        <time>2018-05-19T10:29:45Z</time>
      </trkpt>
      <trkpt lat="44.09102" lon="2.99981">
        <ele>351.9</ele>
        <time>2018-05-19T10:29:48Z</time>
      </trkpt>
      <trkpt lat="44.09101" lon="2.99986">
        <ele>350.2</ele>
        <time>2018-05-19T10:29:52Z</time>
      </trkpt>
      <trkpt lat="44.09102" lon="2.9999">
        <ele>349.8</ele>
        <time>2018-05-19T10:29:54Z</time>
      </trkpt>
      <trkpt lat="44.09104" lon="2.99992">
        <ele>351.2</ele>
        <time>2018-05-19T10:29:57Z</time>
      </trkpt>
      <trkpt lat="44.09109" lon="2.99993">
        <ele>353.9</ele>
        <time>2018-05-19T10:29:59Z</time>
      </trkpt>
      <trkpt lat="44.09114" lon="2.99991">
        <ele>356.4</ele>
        <time>2018-05-19T10:30:01Z</time>
      </trkpt>
      <trkpt lat="44.09119" lon="2.99991">
        <ele>358.7</ele>
        <time>2018-05-19T10:30:03Z</time>
      </trkpt>
      <trkpt lat="44.09124" lon="2.9999">
        <ele>360.3</ele>
        <time>2018-05-19T10:30:05Z</time>
      </trkpt>
      <trkpt lat="44.09127" lon="2.9999">
        <ele>361</ele>
        <time>2018-05-19T10:30:07Z</time>
      </trkpt>
      <trkpt lat="44.09132" lon="2.99988">
        <ele>360.7</ele>
        <time>2018-05-19T10:30:09Z</time>
      </trkpt>
      <trkpt lat="44.09135" lon="2.99984">
        <ele>358.5</ele>
        <time>2018-05-19T10:30:11Z</time>
      </trkpt>
      <trkpt lat="44.09136" lon="2.99978">
        <ele>357.1</ele>
        <time>2018-05-19T10:30:13Z</time>
      </trkpt>
      <trkpt lat="44.09135" lon="2.99972">
        <ele>355.7</ele>
        <time>2018-05-19T10:30:15Z</time>
      </trkpt>
      <trkpt lat="44.09134" lon="2.99967">
        <ele>354</ele>
        <time>2018-05-19T10:30:17Z</time>
      </trkpt>
      <trkpt lat="44.09133" lon="2.99962">
        <ele>351.6</ele>
        <time>2018-05-19T10:30:19Z</time>
      </trkpt>
      <trkpt lat="44.09132" lon="2.99956">
        <ele>349.1</ele>
        <time>2018-05-19T10:30:21Z</time>
      </trkpt>
      <trkpt lat="44.09131" lon="2.99952">
        <ele>349</ele>
        <time>2018-05-19T10:30:23Z</time>
      </trkpt>
      <trkpt lat="44.09132" lon="2.99948">
        <ele>348.8</ele>
        <time>2018-05-19T10:30:26Z</time>
      </trkpt>
      <trkpt lat="44.09135" lon="2.99946">
        <ele>348.6</ele>
        <time>2018-05-19T10:30:29Z</time>
      </trkpt>
      <trkpt lat="44.09137" lon="2.99947">
        <ele>348.4</ele>
        <time>2018-05-19T10:30:32Z</time>
      </trkpt>
      <trkpt lat="44.09137" lon="2.99951">
        <ele>348.2</ele>
        <time>2018-05-19T10:30:36Z</time>
      </trkpt>
      <trkpt lat="44.09139" lon="2.99952">
        <ele>348</ele>
        <time>2018-05-19T10:30:51Z</time>
      </trkpt>
      <trkpt lat="44.09141" lon="2.99956">
        <ele>347.7</ele>
        <time>2018-05-19T10:31:11Z</time>
      </trkpt>
      <trkpt lat="44.09142" lon="2.9996">
        <ele>347.6</ele>
        <time>2018-05-19T10:31:14Z</time>
      </trkpt>
      <trkpt lat="44.09142" lon="2.99957">
        <ele>347.5</ele>
        <time>2018-05-19T10:31:18Z</time>
      </trkpt>
      <trkpt lat="44.0914" lon="2.99954">
        <ele>347.4</ele>
        <time>2018-05-19T10:31:21Z</time>
      </trkpt>
      <trkpt lat="44.09138" lon="2.99957">
        <ele>347.3</ele>
        <time>2018-05-19T10:31:35Z</time>
      </trkpt>
      <trkpt lat="44.0914" lon="2.99959">
        <ele>347.1</ele>
        <time>2018-05-19T10:31:52Z</time>
      </trkpt>
      <trkpt lat="44.09141" lon="2.99964">
        <ele>347</ele>
        <time>2018-05-19T10:31:54Z</time>
      </trkpt>
      <trkpt lat="44.09143" lon="2.99968">
        <ele>346.9</ele>
        <time>2018-05-19T10:31:56Z</time>
      </trkpt>
      <trkpt lat="44.09146" lon="2.99971">
        <ele>346.7</ele>
        <time>2018-05-19T10:31:58Z</time>
      </trkpt>
      <trkpt lat="44.09147" lon="2.99976">
        <ele>346.6</ele>
        <time>2018-05-19T10:32:00Z</time>
      </trkpt>
      <trkpt lat="44.09148" lon="2.9998">
        <ele>346.5</ele>
        <time>2018-05-19T10:32:01Z</time>
      </trkpt>
      <trkpt lat="44.09149" lon="2.99984">
        <ele>346.3</ele>
        <time>2018-05-19T10:32:02Z</time>
      </trkpt>
      <trkpt lat="44.0915" lon="2.99988">
        <ele>346.2</ele>
        <time>2018-05-19T10:32:03Z</time>
      </trkpt>
      <trkpt lat="44.0915" lon="2.99992">
        <ele>346.1</ele>
        <time>2018-05-19T10:32:04Z</time>
      </trkpt>
      <trkpt lat="44.09151" lon="2.99996">
        <ele>346</ele>
        <time>2018-05-19T10:32:05Z</time>
      </trkpt>
      <trkpt lat="44.09152" lon="3.00001">
        <ele>345.8</ele>
        <time>2018-05-19T10:32:06Z</time>
      </trkpt>
      <trkpt lat="44.09153" lon="3.00006">
        <ele>345.6</ele>
        <time>2018-05-19T10:32:07Z</time>
      </trkpt>
      <trkpt lat="44.09154" lon="3.0001">
        <ele>345.4</ele>
        <time>2018-05-19T10:32:08Z</time>
      </trkpt>
      <trkpt lat="44.09154" lon="3.00014">
        <ele>345.2</ele>
        <time>2018-05-19T10:32:09Z</time>
      </trkpt>
      <trkpt lat="44.09155" lon="3.00018">
        <ele>345.2</ele>
        <time>2018-05-19T10:32:10Z</time>
      </trkpt>
      <trkpt lat="44.09155" lon="3.00022">
        <ele>345.1</ele>
        <time>2018-05-19T10:32:11Z</time>
      </trkpt>
      <trkpt lat="44.09154" lon="3.00026">
        <ele>345.1</ele>
        <time>2018-05-19T10:32:12Z</time>
      </trkpt>
      <trkpt lat="44.09154" lon="3.0003">
        <ele>345</ele>
        <time>2018-05-19T10:32:13Z</time>
      </trkpt>
      <trkpt lat="44.09154" lon="3.00035">
        <ele>344.9</ele>
        <time>2018-05-19T10:32:14Z</time>
      </trkpt>
      <trkpt lat="44.09153" lon="3.00039">
        <ele>344.8</ele>
        <time>2018-05-19T10:32:15Z</time>
      </trkpt>
      <trkpt lat="44.09152" lon="3.00044">
        <ele>344.8</ele>
        <time>2018-05-19T10:32:16Z</time>
      </trkpt>
      <trkpt lat="44.09151" lon="3.00048">
        <ele>344.7</ele>
        <time>2018-05-19T10:32:17Z</time>
      </trkpt>
      <trkpt lat="44.0915" lon="3.00052">
        <ele>344.6</ele>
        <time>2018-05-19T10:32:18Z</time>
      </trkpt>
      <trkpt lat="44.09149" lon="3.00056">
        <ele>344.6</ele>
        <time>2018-05-19T10:32:19Z</time>
      </trkpt>
      <trkpt lat="44.09148" lon="3.00061">
        <ele>344.5</ele>
        <time>2018-05-19T10:32:21Z</time>
      </trkpt>
      <trkpt lat="44.09147" lon="3.00068">
        <ele>344.3</ele>
        <time>2018-05-19T10:32:23Z</time>
      </trkpt>
      <trkpt lat="44.09147" lon="3.00073">
        <ele>344.3</ele>
        <time>2018-05-19T10:32:25Z</time>
      </trkpt>
      <trkpt lat="44.09148" lon="3.00079">
        <ele>344.3</ele>
        <time>2018-05-19T10:32:27Z</time>
      </trkpt>
      <trkpt lat="44.09151" lon="3.00081">
        <ele>344.6</ele>
        <time>2018-05-19T10:32:30Z</time>
      </trkpt>
      <trkpt lat="44.09154" lon="3.00078">
        <ele>344.9</ele>
        <time>2018-05-19T10:32:32Z</time>
      </trkpt>
      <trkpt lat="44.09156" lon="3.00072">
        <ele>345.5</ele>
        <time>2018-05-19T10:32:34Z</time>
      </trkpt>
      <trkpt lat="44.09158" lon="3.00065">
        <ele>346</ele>
        <time>2018-05-19T10:32:36Z</time>
      </trkpt>
      <trkpt lat="44.09159" lon="3.0006">
        <ele>346.7</ele>
        <time>2018-05-19T10:32:38Z</time>
      </trkpt>
      <trkpt lat="44.09159" lon="3.00055">
        <ele>347.7</ele>
        <time>2018-05-19T10:32:40Z</time>
      </trkpt>
      <trkpt lat="44.09159" lon="3.0005">
        <ele>357.5</ele>
        <time>2018-05-19T10:32:42Z</time>
      </trkpt>
      <trkpt lat="44.0916" lon="3.00045">
        <ele>358.3</ele>
        <time>2018-05-19T10:32:44Z</time>
      </trkpt>
      <trkpt lat="44.09161" lon="3.00041">
        <ele>359</ele>
        <time>2018-05-19T10:32:48Z</time>
      </trkpt>
      <trkpt lat="44.09161" lon="3.00035">
        <ele>359.6</ele>
        <time>2018-05-19T10:32:51Z</time>
      </trkpt>
      <trkpt lat="44.09161" lon="3.00031">
        <ele>360</ele>
        <time>2018-05-19T10:32:53Z</time>
      </trkpt>
      <trkpt lat="44.09162" lon="3.00026">
        <ele>360.5</ele>
        <time>2018-05-19T10:32:56Z</time>
      </trkpt>
      <trkpt lat="44.09163" lon="3.00022">
        <ele>360.9</ele>
        <time>2018-05-19T10:32:58Z</time>
      </trkpt>
      <trkpt lat="44.09165" lon="3.00017">
        <ele>362</ele>
        <time>2018-05-19T10:33:00Z</time>
      </trkpt>
      <trkpt lat="44.09167" lon="3.00012">
        <ele>362</ele>
        <time>2018-05-19T10:33:02Z</time>
      </trkpt>
      <trkpt lat="44.09169" lon="3.00008">
        <ele>362</ele>
        <time>2018-05-19T10:33:04Z</time>
      </trkpt>
      <trkpt lat="44.09172" lon="3.00004">
        <ele>362</ele>
        <time>2018-05-19T10:33:06Z</time>
      </trkpt>
      <trkpt lat="44.09175" lon="3.00001">
        <ele>362</ele>
        <time>2018-05-19T10:33:08Z</time>
      </trkpt>
      <trkpt lat="44.09179" lon="2.99998">
        <ele>362</ele>
        <time>2018-05-19T10:33:10Z</time>
      </trkpt>
      <trkpt lat="44.09182" lon="2.99997">
        <ele>362</ele>
        <time>2018-05-19T10:33:12Z</time>
      </trkpt>
      <trkpt lat="44.09185" lon="2.99999">
        <ele>362</ele>
        <time>2018-05-19T10:33:15Z</time>
      </trkpt>
      <trkpt lat="44.09182" lon="2.99999">
        <ele>362</ele>
        <time>2018-05-19T10:33:21Z</time>
      </trkpt>
      <trkpt lat="44.09181" lon="2.99994">
        <ele>362</ele>
        <time>2018-05-19T10:33:25Z</time>
      </trkpt>
      <trkpt lat="44.09178" lon="2.99997">
        <ele>362</ele>
        <time>2018-05-19T10:34:46Z</time>
      </trkpt>
      <trkpt lat="44.09178" lon="3.00001">
        <ele>362</ele>
        <time>2018-05-19T10:34:47Z</time>
      </trkpt>
      <trkpt lat="44.09176" lon="3.00005">
        <ele>362</ele>
        <time>2018-05-19T10:34:48Z</time>
      </trkpt>
      <trkpt lat="44.09175" lon="3.00009">
        <ele>362</ele>
        <time>2018-05-19T10:34:49Z</time>
      </trkpt>
      <trkpt lat="44.09174" lon="3.00013">
        <ele>362</ele>
        <time>2018-05-19T10:34:50Z</time>
      </trkpt>
      <trkpt lat="44.09173" lon="3.00018">
        <ele>362</ele>
        <time>2018-05-19T10:34:51Z</time>
      </trkpt>
      <trkpt lat="44.09172" lon="3.00023">
        <ele>362</ele>
        <time>2018-05-19T10:34:52Z</time>
      </trkpt>
      <trkpt lat="44.09172" lon="3.00028">
        <ele>362</ele>
        <time>2018-05-19T10:34:53Z</time>
      </trkpt>
      <trkpt lat="44.09172" lon="3.00032">
        <ele>362</ele>
        <time>2018-05-19T10:34:54Z</time>
      </trkpt>
      <trkpt lat="44.09174" lon="3.00039">
        <ele>362</ele>
        <time>2018-05-19T10:34:56Z</time>
      </trkpt>
      <trkpt lat="44.09176" lon="3.00045">
        <ele>362</ele>
        <time>2018-05-19T10:34:58Z</time>
      </trkpt>
      <trkpt lat="44.0918" lon="3.00049">
        <ele>362</ele>
        <time>2018-05-19T10:35:00Z</time>
      </trkpt>
      <trkpt lat="44.09185" lon="3.00051">
        <ele>362</ele>
        <time>2018-05-19T10:35:02Z</time>
      </trkpt>
      <trkpt lat="44.0919" lon="3.00049">
        <ele>362</ele>
        <time>2018-05-19T10:35:04Z</time>
      </trkpt>
      <trkpt lat="44.09194" lon="3.00046">
        <ele>362</ele>
        <time>2018-05-19T10:35:06Z</time>
      </trkpt>
      <trkpt lat="44.09197" lon="3.00042">
        <ele>362</ele>
        <time>2018-05-19T10:35:08Z</time>
      </trkpt>
      <trkpt lat="44.09198" lon="3.00036">
        <ele>362</ele>
        <time>2018-05-19T10:35:10Z</time>
      </trkpt>
      <trkpt lat="44.09199" lon="3.00029">
        <ele>362</ele>
        <time>2018-05-19T10:35:12Z</time>
      </trkpt>
      <trkpt lat="44.09198" lon="3.00023">
        <ele>362</ele>
        <time>2018-05-19T10:35:14Z</time>
      </trkpt>
      <trkpt lat="44.09196" lon="3.00017">
        <ele>362</ele>
        <time>2018-05-19T10:35:16Z</time>
      </trkpt>
      <trkpt lat="44.09195" lon="3.00011">
        <ele>362</ele>
        <time>2018-05-19T10:35:18Z</time>
      </trkpt>
      <trkpt lat="44.09194" lon="3.00007">
        <ele>362</ele>
        <time>2018-05-19T10:35:20Z</time>
      </trkpt>
      <trkpt lat="44.09193" lon="3.00001">
        <ele>362</ele>
        <time>2018-05-19T10:35:22Z</time>
      </trkpt>
      <trkpt lat="44.09193" lon="2.99996">
        <ele>363.8</ele>
        <time>2018-05-19T10:35:24Z</time>
      </trkpt>
      <trkpt lat="44.09192" lon="2.99992">
        <ele>365.2</ele>
        <time>2018-05-19T10:35:26Z</time>
      </trkpt>
      <trkpt lat="44.0919" lon="2.99987">
        <ele>367</ele>
        <time>2018-05-19T10:35:28Z</time>
      </trkpt>
      <trkpt lat="44.09189" lon="2.99982">
        <ele>368.5</ele>
        <time>2018-05-19T10:35:30Z</time>
      </trkpt>
      <trkpt lat="44.09188" lon="2.99978">
        <ele>369.8</ele>
        <time>2018-05-19T10:35:32Z</time>
      </trkpt>
      <trkpt lat="44.09186" lon="2.99974">
        <ele>371.3</ele>
        <time>2018-05-19T10:35:38Z</time>
      </trkpt>
      <trkpt lat="44.09188" lon="2.9997">
        <ele>372.8</ele>
        <time>2018-05-19T10:35:40Z</time>
      </trkpt>
      <trkpt lat="44.09189" lon="2.99965">
        <ele>374.3</ele>
        <time>2018-05-19T10:35:42Z</time>
      </trkpt>
      <trkpt lat="44.09187" lon="2.9996">
        <ele>376</ele>
        <time>2018-05-19T10:35:44Z</time>
      </trkpt>
      <trkpt lat="44.09185" lon="2.99957">
        <ele>375.3</ele>
        <time>2018-05-19T10:35:46Z</time>
      </trkpt>
      <trkpt lat="44.09183" lon="2.99953">
        <ele>374.7</ele>
        <time>2018-05-19T10:35:48Z</time>
      </trkpt>
      <trkpt lat="44.09182" lon="2.99949">
        <ele>374.1</ele>
        <time>2018-05-19T10:35:50Z</time>
      </trkpt>
      <trkpt lat="44.09179" lon="2.99946">
        <ele>373.4</ele>
        <time>2018-05-19T10:35:52Z</time>
      </trkpt>
      <trkpt lat="44.09176" lon="2.99943">
        <ele>372.7</ele>
        <time>2018-05-19T10:35:54Z</time>
      </trkpt>
      <trkpt lat="44.09174" lon="2.99941">
        <ele>372.2</ele>
        <time>2018-05-19T10:35:56Z</time>
      </trkpt>
      <trkpt lat="44.09172" lon="2.99938">
        <ele>371.6</ele>
        <time>2018-05-19T10:35:58Z</time>
      </trkpt>
      <trkpt lat="44.0917" lon="2.99935">
        <ele>370.9</ele>
        <time>2018-05-19T10:36:01Z</time>
      </trkpt>
      <trkpt lat="44.09167" lon="2.99931">
        <ele>370.2</ele>
        <time>2018-05-19T10:36:03Z</time>
      </trkpt>
      <trkpt lat="44.09165" lon="2.99926">
        <ele>369.5</ele>
        <time>2018-05-19T10:36:05Z</time>
      </trkpt>
      <trkpt lat="44.09164" lon="2.99922">
        <ele>368.8</ele>
        <time>2018-05-19T10:36:07Z</time>
      </trkpt>
      <trkpt lat="44.09163" lon="2.99919">
        <ele>368.3</ele>
        <time>2018-05-19T10:36:09Z</time>
      </trkpt>
      <trkpt lat="44.0916" lon="2.99915">
        <ele>367.6</ele>
        <time>2018-05-19T10:36:12Z</time>
      </trkpt>
      <trkpt lat="44.09159" lon="2.99912">
        <ele>367</ele>
        <time>2018-05-19T10:36:14Z</time>
      </trkpt>
      <trkpt lat="44.09158" lon="2.99908">
        <ele>367</ele>
        <time>2018-05-19T10:36:16Z</time>
      </trkpt>
      <trkpt lat="44.09156" lon="2.99904">
        <ele>367</ele>
        <time>2018-05-19T10:36:18Z</time>
      </trkpt>
      <trkpt lat="44.09155" lon="2.99901">
        <ele>367</ele>
        <time>2018-05-19T10:36:20Z</time>
      </trkpt>
      <trkpt lat="44.09152" lon="2.999">
        <ele>367</ele>
        <time>2018-05-19T10:36:24Z</time>
      </trkpt>
      <trkpt lat="44.09154" lon="2.99895">
        <ele>367</ele>
        <time>2018-05-19T10:36:29Z</time>
      </trkpt>
      <trkpt lat="44.09156" lon="2.99893">
        <ele>367</ele>
        <time>2018-05-19T10:36:45Z</time>
      </trkpt>
      <trkpt lat="44.09159" lon="2.99892">
        <ele>367</ele>
        <time>2018-05-19T10:36:49Z</time>
      </trkpt>
      <trkpt lat="44.09163" lon="2.99891">
        <ele>367</ele>
        <time>2018-05-19T10:36:54Z</time>
      </trkpt>
      <trkpt lat="44.09158" lon="2.99889">
        <ele>367</ele>
        <time>2018-05-19T10:39:07Z</time>
      </trkpt>
      <trkpt lat="44.09156" lon="2.99894">
        <ele>367</ele>
        <time>2018-05-19T10:39:29Z</time>
      </trkpt>
      <trkpt lat="44.09156" lon="2.99896">
        <ele>367</ele>
        <time>2018-05-19T10:43:00Z</time>
      </trkpt>
      <trkpt lat="44.09158" lon="2.99899">
        <ele>367</ele>
        <time>2018-05-19T10:43:04Z</time>
      </trkpt>
      <trkpt lat="44.09161" lon="2.999">
        <ele>367</ele>
        <time>2018-05-19T10:43:08Z</time>
      </trkpt>
      <trkpt lat="44.09164" lon="2.99903">
        <ele>367</ele>
        <time>2018-05-19T10:43:11Z</time>
      </trkpt>
      <trkpt lat="44.09167" lon="2.99906">
        <ele>368.1</ele>
        <time>2018-05-19T10:43:13Z</time>
      </trkpt>
      <trkpt lat="44.09171" lon="2.99909">
        <ele>369.7</ele>
        <time>2018-05-19T10:43:15Z</time>
      </trkpt>
      <trkpt lat="44.09176" lon="2.99912">
        <ele>371.3</ele>
        <time>2018-05-19T10:43:17Z</time>
      </trkpt>
      <trkpt lat="44.0918" lon="2.99916">
        <ele>372.9</ele>
        <time>2018-05-19T10:43:19Z</time>
      </trkpt>
      <trkpt lat="44.09184" lon="2.99919">
        <ele>374.5</ele>
        <time>2018-05-19T10:43:21Z</time>
      </trkpt>
      <trkpt lat="44.09188" lon="2.9992">
        <ele>376.1</ele>
        <time>2018-05-19T10:43:23Z</time>
      </trkpt>
      <trkpt lat="44.09191" lon="2.99923">
        <ele>377</ele>
        <time>2018-05-19T10:43:26Z</time>
      </trkpt>
      <trkpt lat="44.09195" lon="2.99924">
        <ele>378</ele>
        <time>2018-05-19T10:43:29Z</time>
      </trkpt>
      <trkpt lat="44.09198" lon="2.99924">
        <ele>378.6</ele>
        <time>2018-05-19T10:43:31Z</time>
      </trkpt>
      <trkpt lat="44.092" lon="2.99928">
        <ele>379.3</ele>
        <time>2018-05-19T10:43:35Z</time>
      </trkpt>
      <trkpt lat="44.09203" lon="2.9993">
        <ele>380</ele>
        <time>2018-05-19T10:43:38Z</time>
      </trkpt>
      <trkpt lat="44.09206" lon="2.9993">
        <ele>380.6</ele>
        <time>2018-05-19T10:43:40Z</time>
      </trkpt>
      <trkpt lat="44.09209" lon="2.99931">
        <ele>381.1</ele>
        <time>2018-05-19T10:43:42Z</time>
      </trkpt>
      <trkpt lat="44.09213" lon="2.99931">
        <ele>381.8</ele>
        <time>2018-05-19T10:43:44Z</time>
      </trkpt>
      <trkpt lat="44.09217" lon="2.99931">
        <ele>382.5</ele>
        <time>2018-05-19T10:43:46Z</time>
      </trkpt>
      <trkpt lat="44.09221" lon="2.99932">
        <ele>383.2</ele>
        <time>2018-05-19T10:43:48Z</time>
      </trkpt>
      <trkpt lat="44.09226" lon="2.99933">
        <ele>384</ele>
        <time>2018-05-19T10:43:50Z</time>
      </trkpt>
      <trkpt lat="44.0923" lon="2.99935">
        <ele>384.8</ele>
        <time>2018-05-19T10:43:52Z</time>
      </trkpt>
      <trkpt lat="44.09234" lon="2.99936">
        <ele>385.4</ele>
        <time>2018-05-19T10:43:54Z</time>
      </trkpt>
      <trkpt lat="44.09237" lon="2.99937">
        <ele>386</ele>
        <time>2018-05-19T10:43:56Z</time>
      </trkpt>
      <trkpt lat="44.0924" lon="2.99938">
        <ele>386.4</ele>
        <time>2018-05-19T10:43:58Z</time>
      </trkpt>
      <trkpt lat="44.09243" lon="2.99939">
        <ele>387</ele>
        <time>2018-05-19T10:44:00Z</time>
      </trkpt>
      <trkpt lat="44.09247" lon="2.99941">
        <ele>387.6</ele>
        <time>2018-05-19T10:44:02Z</time>
      </trkpt>
      <trkpt lat="44.0925" lon="2.99942">
        <ele>388.3</ele>
        <time>2018-05-19T10:44:04Z</time>
      </trkpt>
      <trkpt lat="44.09254" lon="2.99943">
        <ele>388.9</ele>
        <time>2018-05-19T10:44:06Z</time>
      </trkpt>
      <trkpt lat="44.09258" lon="2.99945">
        <ele>389.6</ele>
        <time>2018-05-19T10:44:08Z</time>
      </trkpt>
      <trkpt lat="44.09261" lon="2.99946">
        <ele>390.2</ele>
        <time>2018-05-19T10:44:10Z</time>
      </trkpt>
      <trkpt lat="44.09265" lon="2.99947">
        <ele>390.9</ele>
        <time>2018-05-19T10:44:12Z</time>
      </trkpt>
      <trkpt lat="44.09268" lon="2.99948">
        <ele>391.6</ele>
        <time>2018-05-19T10:44:14Z</time>
      </trkpt>
      <trkpt lat="44.09271" lon="2.99951">
        <ele>392.2</ele>
        <time>2018-05-19T10:44:16Z</time>
      </trkpt>
      <trkpt lat="44.09274" lon="2.99954">
        <ele>392.5</ele>
        <time>2018-05-19T10:44:18Z</time>
      </trkpt>
      <trkpt lat="44.09278" lon="2.99955">
        <ele>392.8</ele>
        <time>2018-05-19T10:44:20Z</time>
      </trkpt>
      <trkpt lat="44.09281" lon="2.99957">
        <ele>393.2</ele>
        <time>2018-05-19T10:44:22Z</time>
      </trkpt>
      <trkpt lat="44.09285" lon="2.99959">
        <ele>393.6</ele>
        <time>2018-05-19T10:44:24Z</time>
      </trkpt>
      <trkpt lat="44.09287" lon="2.99962">
        <ele>393.9</ele>
        <time>2018-05-19T10:44:26Z</time>
      </trkpt>
      <trkpt lat="44.0929" lon="2.99966">
        <ele>394.4</ele>
        <time>2018-05-19T10:44:28Z</time>
      </trkpt>
      <trkpt lat="44.09293" lon="2.9997">
        <ele>395</ele>
        <time>2018-05-19T10:44:30Z</time>
      </trkpt>
      <trkpt lat="44.09295" lon="2.99973">
        <ele>395.5</ele>
        <time>2018-05-19T10:44:32Z</time>
      </trkpt>
      <trkpt lat="44.09298" lon="2.99977">
        <ele>396.1</ele>
        <time>2018-05-19T10:44:34Z</time>
      </trkpt>
      <trkpt lat="44.09301" lon="2.99981">
        <ele>396.7</ele>
        <time>2018-05-19T10:44:36Z</time>
      </trkpt>
      <trkpt lat="44.09304" lon="2.99986">
        <ele>397.3</ele>
        <time>2018-05-19T10:44:38Z</time>
      </trkpt>
      <trkpt lat="44.09307" lon="2.9999">
        <ele>398</ele>
        <time>2018-05-19T10:44:40Z</time>
      </trkpt>
      <trkpt lat="44.09309" lon="2.99995">
        <ele>398.6</ele>
        <time>2018-05-19T10:44:42Z</time>
      </trkpt>
      <trkpt lat="44.09312" lon="2.99999">
        <ele>397.4</ele>
        <time>2018-05-19T10:44:44Z</time>
      </trkpt>
      <trkpt lat="44.09314" lon="3.00005">
        <ele>394.4</ele>
        <time>2018-05-19T10:44:46Z</time>
      </trkpt>
      <trkpt lat="44.09316" lon="3.00009">
        <ele>392</ele>
        <time>2018-05-19T10:44:48Z</time>
      </trkpt>
      <trkpt lat="44.09317" lon="3.00013">
        <ele>389.8</ele>
        <time>2018-05-19T10:44:50Z</time>
      </trkpt>
      <trkpt lat="44.09318" lon="3.00018">
        <ele>387.6</ele>
        <time>2018-05-19T10:44:52Z</time>
      </trkpt>
      <trkpt lat="44.0932" lon="3.00023">
        <ele>384.9</ele>
        <time>2018-05-19T10:44:54Z</time>
      </trkpt>
      <trkpt lat="44.09322" lon="3.00029">
        <ele>381.7</ele>
        <time>2018-05-19T10:44:56Z</time>
      </trkpt>
      <trkpt lat="44.09323" lon="3.00034">
        <ele>382.7</ele>
        <time>2018-05-19T10:44:58Z</time>
      </trkpt>
      <trkpt lat="44.09324" lon="3.00038">
        <ele>384</ele>
        <time>2018-05-19T10:45:00Z</time>
      </trkpt>
      <trkpt lat="44.09326" lon="3.00042">
        <ele>385.4</ele>
        <time>2018-05-19T10:45:03Z</time>
      </trkpt>
      <trkpt lat="44.09329" lon="3.00043">
        <ele>386.4</ele>
        <time>2018-05-19T10:45:05Z</time>
      </trkpt>
      <trkpt lat="44.09333" lon="3.0004">
        <ele>387.8</ele>
        <time>2018-05-19T10:45:08Z</time>
      </trkpt>
      <trkpt lat="44.09333" lon="3.00034">
        <ele>389.1</ele>
        <time>2018-05-19T10:45:10Z</time>
      </trkpt>
      <trkpt lat="44.09332" lon="3.00029">
        <ele>390.4</ele>
        <time>2018-05-19T10:45:12Z</time>
      </trkpt>
      <trkpt lat="44.09331" lon="3.00024">
        <ele>391.5</ele>
        <time>2018-05-19T10:45:14Z</time>
      </trkpt>
      <trkpt lat="44.09331" lon="3.00018">
        <ele>392.6</ele>
        <time>2018-05-19T10:45:16Z</time>
      </trkpt>
      <trkpt lat="44.09331" lon="3.00013">
        <ele>393.7</ele>
        <time>2018-05-19T10:45:18Z</time>
      </trkpt>
      <trkpt lat="44.0933" lon="3.00008">
        <ele>394.8</ele>
        <time>2018-05-19T10:45:20Z</time>
      </trkpt>
      <trkpt lat="44.0933" lon="3.00002">
        <ele>395.9</ele>
        <time>2018-05-19T10:45:22Z</time>
      </trkpt>
      <trkpt lat="44.0933" lon="2.99996">
        <ele>397</ele>
        <time>2018-05-19T10:45:24Z</time>
      </trkpt>
      <trkpt lat="44.0933" lon="2.99989">
        <ele>398.2</ele>
        <time>2018-05-19T10:45:26Z</time>
      </trkpt>
      <trkpt lat="44.0933" lon="2.99983">
        <ele>399.3</ele>
        <time>2018-05-19T10:45:28Z</time>
      </trkpt>
      <trkpt lat="44.09329" lon="2.99978">
        <ele>400.2</ele>
        <time>2018-05-19T10:45:30Z</time>
      </trkpt>
      <trkpt lat="44.09328" lon="2.99972">
        <ele>401.2</ele>
        <time>2018-05-19T10:45:32Z</time>
      </trkpt>
      <trkpt lat="44.09328" lon="2.99966">
        <ele>402.3</ele>
        <time>2018-05-19T10:45:34Z</time>
      </trkpt>
      <trkpt lat="44.09327" lon="2.99961">
        <ele>403.1</ele>
        <time>2018-05-19T10:45:36Z</time>
      </trkpt>
      <trkpt lat="44.09326" lon="2.99955">
        <ele>404</ele>
        <time>2018-05-19T10:45:38Z</time>
      </trkpt>
      <trkpt lat="44.09325" lon="2.9995">
        <ele>404.9</ele>
        <time>2018-05-19T10:45:40Z</time>
      </trkpt>
      <trkpt lat="44.09324" lon="2.99945">
        <ele>405.8</ele>
        <time>2018-05-19T10:45:42Z</time>
      </trkpt>
      <trkpt lat="44.09322" lon="2.9994">
        <ele>406.6</ele>
        <time>2018-05-19T10:45:44Z</time>
      </trkpt>
      <trkpt lat="44.0932" lon="2.99936">
        <ele>407.4</ele>
        <time>2018-05-19T10:45:46Z</time>
      </trkpt>
      <trkpt lat="44.09318" lon="2.99931">
        <ele>408.4</ele>
        <time>2018-05-19T10:45:48Z</time>
      </trkpt>
      <trkpt lat="44.09316" lon="2.99926">
        <ele>409.4</ele>
        <time>2018-05-19T10:45:50Z</time>
      </trkpt>
      <trkpt lat="44.09314" lon="2.99922">
        <ele>410.3</ele>
        <time>2018-05-19T10:45:52Z</time>
      </trkpt>
      <trkpt lat="44.09311" lon="2.99917">
        <ele>411.2</ele>
        <time>2018-05-19T10:45:54Z</time>
      </trkpt>
      <trkpt lat="44.09308" lon="2.99913">
        <ele>412.1</ele>
        <time>2018-05-19T10:45:56Z</time>
      </trkpt>
      <trkpt lat="44.09306" lon="2.99908">
        <ele>413.1</ele>
        <time>2018-05-19T10:45:58Z</time>
      </trkpt>
      <trkpt lat="44.09303" lon="2.99904">
        <ele>414.1</ele>
        <time>2018-05-19T10:46:00Z</time>
      </trkpt>
      <trkpt lat="44.093" lon="2.99899">
        <ele>415</ele>
        <time>2018-05-19T10:46:02Z</time>
      </trkpt>
      <trkpt lat="44.09297" lon="2.99896">
        <ele>415.8</ele>
        <time>2018-05-19T10:46:04Z</time>
      </trkpt>
      <trkpt lat="44.09294" lon="2.99893">
        <ele>416</ele>
        <time>2018-05-19T10:46:07Z</time>
      </trkpt>
      <trkpt lat="44.0929" lon="2.99889">
        <ele>416</ele>
        <time>2018-05-19T10:46:09Z</time>
      </trkpt>
      <trkpt lat="44.09287" lon="2.99886">
        <ele>416</ele>
        <time>2018-05-19T10:46:11Z</time>
      </trkpt>
      <trkpt lat="44.09284" lon="2.99883">
        <ele>416</ele>
        <time>2018-05-19T10:46:13Z</time>
      </trkpt>
      <trkpt lat="44.09281" lon="2.99879">
        <ele>416</ele>
        <time>2018-05-19T10:46:15Z</time>
      </trkpt>
      <trkpt lat="44.09278" lon="2.99875">
        <ele>416</ele>
        <time>2018-05-19T10:46:17Z</time>
      </trkpt>
      <trkpt lat="44.09275" lon="2.99871">
        <ele>416</ele>
        <time>2018-05-19T10:46:19Z</time>
      </trkpt>
      <trkpt lat="44.09272" lon="2.99868">
        <ele>416</ele>
        <time>2018-05-19T10:46:21Z</time>
      </trkpt>
      <trkpt lat="44.09269" lon="2.99863">
        <ele>416</ele>
        <time>2018-05-19T10:46:23Z</time>
      </trkpt>
      <trkpt lat="44.09267" lon="2.99859">
        <ele>416</ele>
        <time>2018-05-19T10:46:25Z</time>
      </trkpt>
      <trkpt lat="44.09264" lon="2.99855">
        <ele>416</ele>
        <time>2018-05-19T10:46:27Z</time>
      </trkpt>
      <trkpt lat="44.09261" lon="2.99851">
        <ele>416</ele>
        <time>2018-05-19T10:46:29Z</time>
      </trkpt>
      <trkpt lat="44.09259" lon="2.99848">
        <ele>415.9</ele>
        <time>2018-05-19T10:46:31Z</time>
      </trkpt>
      <trkpt lat="44.09256" lon="2.99845">
        <ele>415.9</ele>
        <time>2018-05-19T10:46:33Z</time>
      </trkpt>
      <trkpt lat="44.09253" lon="2.99841">
        <ele>415.9</ele>
        <time>2018-05-19T10:46:35Z</time>
      </trkpt>
      <trkpt lat="44.0925" lon="2.99836">
        <ele>415.9</ele>
        <time>2018-05-19T10:46:37Z</time>
      </trkpt>
      <trkpt lat="44.09247" lon="2.99831">
        <ele>415.9</ele>
        <time>2018-05-19T10:46:39Z</time>
      </trkpt>
      <trkpt lat="44.09244" lon="2.99826">
        <ele>415.9</ele>
        <time>2018-05-19T10:46:41Z</time>
      </trkpt>
      <trkpt lat="44.09242" lon="2.99822">
        <ele>415.9</ele>
        <time>2018-05-19T10:46:43Z</time>
      </trkpt>
      <trkpt lat="44.09239" lon="2.99817">
        <ele>415.9</ele>
        <time>2018-05-19T10:46:45Z</time>
      </trkpt>
      <trkpt lat="44.09236" lon="2.99811">
        <ele>415.9</ele>
        <time>2018-05-19T10:46:47Z</time>
      </trkpt>
      <trkpt lat="44.09233" lon="2.99805">
        <ele>415.9</ele>
        <time>2018-05-19T10:46:49Z</time>
      </trkpt>
      <trkpt lat="44.09231" lon="2.99802">
        <ele>415.9</ele>
        <time>2018-05-19T10:46:50Z</time>
      </trkpt>
      <trkpt lat="44.09229" lon="2.99798">
        <ele>415.9</ele>
        <time>2018-05-19T10:46:51Z</time>
      </trkpt>
      <trkpt lat="44.09228" lon="2.99794">
        <ele>415.9</ele>
        <time>2018-05-19T10:46:52Z</time>
      </trkpt>
      <trkpt lat="44.09226" lon="2.9979">
        <ele>415.9</ele>
        <time>2018-05-19T10:46:53Z</time>
      </trkpt>
      <trkpt lat="44.09224" lon="2.99787">
        <ele>415.9</ele>
        <time>2018-05-19T10:46:54Z</time>
      </trkpt>
      <trkpt lat="44.09221" lon="2.99783">
        <ele>415.9</ele>
        <time>2018-05-19T10:46:55Z</time>
      </trkpt>
      <trkpt lat="44.09219" lon="2.99779">
        <ele>415.9</ele>
        <time>2018-05-19T10:46:56Z</time>
      </trkpt>
      <trkpt lat="44.09217" lon="2.99776">
        <ele>415.9</ele>
        <time>2018-05-19T10:46:57Z</time>
      </trkpt>
      <trkpt lat="44.09216" lon="2.99773">
        <ele>415.9</ele>
        <time>2018-05-19T10:46:58Z</time>
      </trkpt>
      <trkpt lat="44.09214" lon="2.99769">
        <ele>415.9</ele>
        <time>2018-05-19T10:46:59Z</time>
      </trkpt>
      <trkpt lat="44.09212" lon="2.99765">
        <ele>416</ele>
        <time>2018-05-19T10:47:00Z</time>
      </trkpt>
      <trkpt lat="44.09211" lon="2.99761">
        <ele>416</ele>
        <time>2018-05-19T10:47:01Z</time>
      </trkpt>
      <trkpt lat="44.09209" lon="2.99757">
        <ele>416.1</ele>
        <time>2018-05-19T10:47:02Z</time>
      </trkpt>
      <trkpt lat="44.09208" lon="2.99754">
        <ele>416.1</ele>
        <time>2018-05-19T10:47:03Z</time>
      </trkpt>
      <trkpt lat="44.09207" lon="2.9975">
        <ele>416.2</ele>
        <time>2018-05-19T10:47:04Z</time>
      </trkpt>
      <trkpt lat="44.09205" lon="2.99747">
        <ele>416.3</ele>
        <time>2018-05-19T10:47:05Z</time>
      </trkpt>
      <trkpt lat="44.09204" lon="2.99743">
        <ele>416.4</ele>
        <time>2018-05-19T10:47:06Z</time>
      </trkpt>
      <trkpt lat="44.09203" lon="2.99739">
        <ele>416.5</ele>
        <time>2018-05-19T10:47:07Z</time>
      </trkpt>
      <trkpt lat="44.09202" lon="2.99734">
        <ele>416.7</ele>
        <time>2018-05-19T10:47:08Z</time>
      </trkpt>
      <trkpt lat="44.09201" lon="2.99729">
        <ele>416.8</ele>
        <time>2018-05-19T10:47:09Z</time>
      </trkpt>
      <trkpt lat="44.09201" lon="2.99723">
        <ele>417</ele>
        <time>2018-05-19T10:47:10Z</time>
      </trkpt>
      <trkpt lat="44.092" lon="2.99718">
        <ele>417.2</ele>
        <time>2018-05-19T10:47:11Z</time>
      </trkpt>
      <trkpt lat="44.092" lon="2.99713">
        <ele>417.4</ele>
        <time>2018-05-19T10:47:12Z</time>
      </trkpt>
      <trkpt lat="44.092" lon="2.99707">
        <ele>417.7</ele>
        <time>2018-05-19T10:47:13Z</time>
      </trkpt>
      <trkpt lat="44.09201" lon="2.99702">
        <ele>417.9</ele>
        <time>2018-05-19T10:47:14Z</time>
      </trkpt>
      <trkpt lat="44.09202" lon="2.99697">
        <ele>418.1</ele>
        <time>2018-05-19T10:47:15Z</time>
      </trkpt>
      <trkpt lat="44.09203" lon="2.99692">
        <ele>418.4</ele>
        <time>2018-05-19T10:47:16Z</time>
      </trkpt>
      <trkpt lat="44.09203" lon="2.99688">
        <ele>418.6</ele>
        <time>2018-05-19T10:47:17Z</time>
      </trkpt>
      <trkpt lat="44.09204" lon="2.99683">
        <ele>418.8</ele>
        <time>2018-05-19T10:47:18Z</time>
      </trkpt>
      <trkpt lat="44.09204" lon="2.99679">
        <ele>419</ele>
        <time>2018-05-19T10:47:19Z</time>
      </trkpt>
      <trkpt lat="44.09205" lon="2.99674">
        <ele>419.2</ele>
        <time>2018-05-19T10:47:20Z</time>
      </trkpt>
      <trkpt lat="44.09205" lon="2.9967">
        <ele>419.4</ele>
        <time>2018-05-19T10:47:21Z</time>
      </trkpt>
      <trkpt lat="44.09206" lon="2.99667">
        <ele>419.5</ele>
        <time>2018-05-19T10:47:22Z</time>
      </trkpt>
      <trkpt lat="44.09206" lon="2.9966">
        <ele>419.8</ele>
        <time>2018-05-19T10:47:24Z</time>
      </trkpt>
      <trkpt lat="44.09207" lon="2.99653">
        <ele>420.1</ele>
        <time>2018-05-19T10:47:26Z</time>
      </trkpt>
      <trkpt lat="44.09208" lon="2.99647">
        <ele>420.3</ele>
        <time>2018-05-19T10:47:28Z</time>
      </trkpt>
      <trkpt lat="44.09208" lon="2.99641">
        <ele>420.6</ele>
        <time>2018-05-19T10:47:30Z</time>
      </trkpt>
      <trkpt lat="44.09209" lon="2.99636">
        <ele>420.7</ele>
        <time>2018-05-19T10:47:32Z</time>
      </trkpt>
      <trkpt lat="44.09212" lon="2.99631">
        <ele>420.9</ele>
        <time>2018-05-19T10:47:34Z</time>
      </trkpt>
      <trkpt lat="44.09216" lon="2.99628">
        <ele>421.3</ele>
        <time>2018-05-19T10:47:36Z</time>
      </trkpt>
      <trkpt lat="44.0922" lon="2.99627">
        <ele>421.8</ele>
        <time>2018-05-19T10:47:38Z</time>
      </trkpt>
      <trkpt lat="44.09224" lon="2.99627">
        <ele>422.4</ele>
        <time>2018-05-19T10:47:40Z</time>
      </trkpt>
      <trkpt lat="44.09229" lon="2.99627">
        <ele>422.9</ele>
        <time>2018-05-19T10:47:42Z</time>
      </trkpt>
      <trkpt lat="44.09233" lon="2.99629">
        <ele>423.1</ele>
        <time>2018-05-19T10:47:44Z</time>
      </trkpt>
      <trkpt lat="44.09237" lon="2.9963">
        <ele>423.5</ele>
        <time>2018-05-19T10:47:46Z</time>
      </trkpt>
      <trkpt lat="44.09242" lon="2.99632">
        <ele>423.9</ele>
        <time>2018-05-19T10:47:48Z</time>
      </trkpt>
      <trkpt lat="44.09246" lon="2.99633">
        <ele>424.3</ele>
        <time>2018-05-19T10:47:50Z</time>
      </trkpt>
      <trkpt lat="44.09251" lon="2.99635">
        <ele>424.7</ele>
        <time>2018-05-19T10:47:52Z</time>
      </trkpt>
      <trkpt lat="44.09256" lon="2.99636">
        <ele>424.9</ele>
        <time>2018-05-19T10:47:54Z</time>
      </trkpt>
      <trkpt lat="44.0926" lon="2.99637">
        <ele>425.2</ele>
        <time>2018-05-19T10:47:56Z</time>
      </trkpt>
      <trkpt lat="44.09265" lon="2.99639">
        <ele>425.6</ele>
        <time>2018-05-19T10:47:58Z</time>
      </trkpt>
      <trkpt lat="44.09271" lon="2.9964">
        <ele>426.1</ele>
        <time>2018-05-19T10:48:00Z</time>
      </trkpt>
      <trkpt lat="44.09275" lon="2.99641">
        <ele>426.3</ele>
        <time>2018-05-19T10:48:02Z</time>
      </trkpt>
      <trkpt lat="44.0928" lon="2.99641">
        <ele>426.7</ele>
        <time>2018-05-19T10:48:04Z</time>
      </trkpt>
      <trkpt lat="44.09285" lon="2.99642">
        <ele>427.2</ele>
        <time>2018-05-19T10:48:06Z</time>
      </trkpt>
      <trkpt lat="44.0929" lon="2.99642">
        <ele>427.8</ele>
        <time>2018-05-19T10:48:08Z</time>
      </trkpt>
      <trkpt lat="44.09293" lon="2.99642">
        <ele>428.1</ele>
        <time>2018-05-19T10:48:09Z</time>
      </trkpt>
      <trkpt lat="44.09298" lon="2.99642">
        <ele>428.6</ele>
        <time>2018-05-19T10:48:11Z</time>
      </trkpt>
      <trkpt lat="44.09301" lon="2.99642">
        <ele>428.9</ele>
        <time>2018-05-19T10:48:12Z</time>
      </trkpt>
      <trkpt lat="44.09304" lon="2.99642">
        <ele>429.2</ele>
        <time>2018-05-19T10:48:13Z</time>
      </trkpt>
      <trkpt lat="44.09307" lon="2.99643">
        <ele>429.5</ele>
        <time>2018-05-19T10:48:14Z</time>
      </trkpt>
      <trkpt lat="44.0931" lon="2.99642">
        <ele>429.7</ele>
        <time>2018-05-19T10:48:15Z</time>
      </trkpt>
      <trkpt lat="44.09313" lon="2.99642">
        <ele>430.2</ele>
        <time>2018-05-19T10:48:16Z</time>
      </trkpt>
      <trkpt lat="44.09316" lon="2.99642">
        <ele>430.7</ele>
        <time>2018-05-19T10:48:17Z</time>
      </trkpt>
      <trkpt lat="44.09319" lon="2.99641">
        <ele>431.3</ele>
        <time>2018-05-19T10:48:18Z</time>
      </trkpt>
      <trkpt lat="44.09322" lon="2.99641">
        <ele>431.9</ele>
        <time>2018-05-19T10:48:19Z</time>
      </trkpt>
      <trkpt lat="44.09326" lon="2.99641">
        <ele>432.4</ele>
        <time>2018-05-19T10:48:20Z</time>
      </trkpt>
      <trkpt lat="44.09329" lon="2.99641">
        <ele>432.8</ele>
        <time>2018-05-19T10:48:21Z</time>
      </trkpt>
      <trkpt lat="44.09332" lon="2.99641">
        <ele>433.2</ele>
        <time>2018-05-19T10:48:22Z</time>
      </trkpt>
      <trkpt lat="44.09335" lon="2.9964">
        <ele>433.7</ele>
        <time>2018-05-19T10:48:23Z</time>
      </trkpt>
      <trkpt lat="44.09338" lon="2.9964">
        <ele>434.1</ele>
        <time>2018-05-19T10:48:24Z</time>
      </trkpt>
      <trkpt lat="44.09341" lon="2.99639">
        <ele>434.5</ele>
        <time>2018-05-19T10:48:25Z</time>
      </trkpt>
      <trkpt lat="44.09344" lon="2.99639">
        <ele>435</ele>
        <time>2018-05-19T10:48:26Z</time>
      </trkpt>
      <trkpt lat="44.09348" lon="2.99639">
        <ele>435.4</ele>
        <time>2018-05-19T10:48:27Z</time>
      </trkpt>
      <trkpt lat="44.09351" lon="2.99638">
        <ele>436</ele>
        <time>2018-05-19T10:48:28Z</time>
      </trkpt>
      <trkpt lat="44.09354" lon="2.99638">
        <ele>436.6</ele>
        <time>2018-05-19T10:48:29Z</time>
      </trkpt>
      <trkpt lat="44.09357" lon="2.99637">
        <ele>437</ele>
        <time>2018-05-19T10:48:30Z</time>
      </trkpt>
      <trkpt lat="44.0936" lon="2.99637">
        <ele>437.1</ele>
        <time>2018-05-19T10:48:31Z</time>
      </trkpt>
      <trkpt lat="44.09363" lon="2.99637">
        <ele>437.2</ele>
        <time>2018-05-19T10:48:32Z</time>
      </trkpt>
      <trkpt lat="44.09366" lon="2.99637">
        <ele>437.4</ele>
        <time>2018-05-19T10:48:33Z</time>
      </trkpt>
      <trkpt lat="44.09369" lon="2.99637">
        <ele>437.7</ele>
        <time>2018-05-19T10:48:34Z</time>
      </trkpt>
      <trkpt lat="44.09372" lon="2.99636">
        <ele>438</ele>
        <time>2018-05-19T10:48:35Z</time>
      </trkpt>
      <trkpt lat="44.09375" lon="2.99636">
        <ele>438.3</ele>
        <time>2018-05-19T10:48:36Z</time>
      </trkpt>
      <trkpt lat="44.09378" lon="2.99636">
        <ele>438.6</ele>
        <time>2018-05-19T10:48:37Z</time>
      </trkpt>
      <trkpt lat="44.09381" lon="2.99637">
        <ele>438.9</ele>
        <time>2018-05-19T10:48:38Z</time>
      </trkpt>
      <trkpt lat="44.09384" lon="2.99637">
        <ele>439.1</ele>
        <time>2018-05-19T10:48:39Z</time>
      </trkpt>
      <trkpt lat="44.09387" lon="2.99637">
        <ele>439.4</ele>
        <time>2018-05-19T10:48:40Z</time>
      </trkpt>
      <trkpt lat="44.0939" lon="2.99637">
        <ele>439.6</ele>
        <time>2018-05-19T10:48:41Z</time>
      </trkpt>
      <trkpt lat="44.09396" lon="2.99638">
        <ele>440.1</ele>
        <time>2018-05-19T10:48:43Z</time>
      </trkpt>
      <trkpt lat="44.09401" lon="2.99638">
        <ele>440.6</ele>
        <time>2018-05-19T10:48:45Z</time>
      </trkpt>
      <trkpt lat="44.09406" lon="2.99639">
        <ele>441.2</ele>
        <time>2018-05-19T10:48:47Z</time>
      </trkpt>
      <trkpt lat="44.09411" lon="2.99639">
        <ele>441.7</ele>
        <time>2018-05-19T10:48:49Z</time>
      </trkpt>
      <trkpt lat="44.09414" lon="2.9964">
        <ele>442</ele>
        <time>2018-05-19T10:48:50Z</time>
      </trkpt>
      <trkpt lat="44.09419" lon="2.99641">
        <ele>442.5</ele>
        <time>2018-05-19T10:48:52Z</time>
      </trkpt>
      <trkpt lat="44.09424" lon="2.99642">
        <ele>443</ele>
        <time>2018-05-19T10:48:54Z</time>
      </trkpt>
      <trkpt lat="44.0943" lon="2.99642">
        <ele>443.5</ele>
        <time>2018-05-19T10:48:56Z</time>
      </trkpt>
      <trkpt lat="44.09433" lon="2.99642">
        <ele>443.7</ele>
        <time>2018-05-19T10:48:57Z</time>
      </trkpt>
      <trkpt lat="44.09436" lon="2.99643">
        <ele>444</ele>
        <time>2018-05-19T10:48:58Z</time>
      </trkpt>
      <trkpt lat="44.09439" lon="2.99643">
        <ele>444.3</ele>
        <time>2018-05-19T10:48:59Z</time>
      </trkpt>
      <trkpt lat="44.09442" lon="2.99642">
        <ele>444.5</ele>
        <time>2018-05-19T10:49:00Z</time>
      </trkpt>
      <trkpt lat="44.09445" lon="2.99642">
        <ele>444.8</ele>
        <time>2018-05-19T10:49:01Z</time>
      </trkpt>
      <trkpt lat="44.09448" lon="2.99642">
        <ele>445</ele>
        <time>2018-05-19T10:49:02Z</time>
      </trkpt>
      <trkpt lat="44.09451" lon="2.99641">
        <ele>445.2</ele>
        <time>2018-05-19T10:49:03Z</time>
      </trkpt>
      <trkpt lat="44.09454" lon="2.99641">
        <ele>445.4</ele>
        <time>2018-05-19T10:49:04Z</time>
      </trkpt>
      <trkpt lat="44.09457" lon="2.99641">
        <ele>445.6</ele>
        <time>2018-05-19T10:49:05Z</time>
      </trkpt>
      <trkpt lat="44.0946" lon="2.9964">
        <ele>445.8</ele>
        <time>2018-05-19T10:49:06Z</time>
      </trkpt>
      <trkpt lat="44.09462" lon="2.9964">
        <ele>446</ele>
        <time>2018-05-19T10:49:07Z</time>
      </trkpt>
      <trkpt lat="44.09466" lon="2.99639">
        <ele>446</ele>
        <time>2018-05-19T10:49:08Z</time>
      </trkpt>
      <trkpt lat="44.09469" lon="2.99639">
        <ele>446</ele>
        <time>2018-05-19T10:49:09Z</time>
      </trkpt>
      <trkpt lat="44.09472" lon="2.99639">
        <ele>446</ele>
        <time>2018-05-19T10:49:10Z</time>
      </trkpt>
      <trkpt lat="44.09474" lon="2.99638">
        <ele>446.1</ele>
        <time>2018-05-19T10:49:11Z</time>
      </trkpt>
      <trkpt lat="44.09477" lon="2.99638">
        <ele>446.1</ele>
        <time>2018-05-19T10:49:12Z</time>
      </trkpt>
      <trkpt lat="44.0948" lon="2.99637">
        <ele>446.2</ele>
        <time>2018-05-19T10:49:13Z</time>
      </trkpt>
      <trkpt lat="44.09483" lon="2.99636">
        <ele>446.2</ele>
        <time>2018-05-19T10:49:14Z</time>
      </trkpt>
      <trkpt lat="44.09486" lon="2.99635">
        <ele>446.3</ele>
        <time>2018-05-19T10:49:15Z</time>
      </trkpt>
      <trkpt lat="44.09489" lon="2.99635">
        <ele>446.3</ele>
        <time>2018-05-19T10:49:16Z</time>
      </trkpt>
      <trkpt lat="44.09494" lon="2.99633">
        <ele>446.4</ele>
        <time>2018-05-19T10:49:18Z</time>
      </trkpt>
      <trkpt lat="44.09499" lon="2.99633">
        <ele>446.5</ele>
        <time>2018-05-19T10:49:20Z</time>
      </trkpt>
      <trkpt lat="44.09503" lon="2.99632">
        <ele>446.5</ele>
        <time>2018-05-19T10:49:22Z</time>
      </trkpt>
      <trkpt lat="44.09508" lon="2.99631">
        <ele>446.6</ele>
        <time>2018-05-19T10:49:24Z</time>
      </trkpt>
      <trkpt lat="44.09511" lon="2.9963">
        <ele>446.6</ele>
        <time>2018-05-19T10:49:25Z</time>
      </trkpt>
      <trkpt lat="44.09514" lon="2.99629">
        <ele>446.7</ele>
        <time>2018-05-19T10:49:26Z</time>
      </trkpt>
      <trkpt lat="44.09516" lon="2.99628">
        <ele>446.7</ele>
        <time>2018-05-19T10:49:27Z</time>
      </trkpt>
      <trkpt lat="44.09521" lon="2.99626">
        <ele>446.8</ele>
        <time>2018-05-19T10:49:29Z</time>
      </trkpt>
      <trkpt lat="44.09526" lon="2.99623">
        <ele>447</ele>
        <time>2018-05-19T10:49:31Z</time>
      </trkpt>
      <trkpt lat="44.09531" lon="2.99622">
        <ele>447.2</ele>
        <time>2018-05-19T10:49:33Z</time>
      </trkpt>
      <trkpt lat="44.09536" lon="2.99621">
        <ele>447.4</ele>
        <time>2018-05-19T10:49:35Z</time>
      </trkpt>
      <trkpt lat="44.0954" lon="2.99621">
        <ele>447.6</ele>
        <time>2018-05-19T10:49:37Z</time>
      </trkpt>
      <trkpt lat="44.09545" lon="2.9962">
        <ele>447.7</ele>
        <time>2018-05-19T10:49:39Z</time>
      </trkpt>
      <trkpt lat="44.0955" lon="2.9962">
        <ele>447.9</ele>
        <time>2018-05-19T10:49:41Z</time>
      </trkpt>
      <trkpt lat="44.09554" lon="2.99621">
        <ele>448.1</ele>
        <time>2018-05-19T10:49:43Z</time>
      </trkpt>
      <trkpt lat="44.09558" lon="2.99621">
        <ele>448.3</ele>
        <time>2018-05-19T10:49:45Z</time>
      </trkpt>
      <trkpt lat="44.09562" lon="2.99622">
        <ele>448.4</ele>
        <time>2018-05-19T10:49:47Z</time>
      </trkpt>
      <trkpt lat="44.09566" lon="2.99622">
        <ele>448.6</ele>
        <time>2018-05-19T10:49:49Z</time>
      </trkpt>
      <trkpt lat="44.09571" lon="2.99623">
        <ele>448.8</ele>
        <time>2018-05-19T10:49:51Z</time>
      </trkpt>
      <trkpt lat="44.09575" lon="2.99624">
        <ele>449</ele>
        <time>2018-05-19T10:49:53Z</time>
      </trkpt>
      <trkpt lat="44.0958" lon="2.99626">
        <ele>449.1</ele>
        <time>2018-05-19T10:49:55Z</time>
      </trkpt>
      <trkpt lat="44.09585" lon="2.99629">
        <ele>449.1</ele>
        <time>2018-05-19T10:49:57Z</time>
      </trkpt>
      <trkpt lat="44.09589" lon="2.99632">
        <ele>449.2</ele>
        <time>2018-05-19T10:49:59Z</time>
      </trkpt>
      <trkpt lat="44.09594" lon="2.99636">
        <ele>449.2</ele>
        <time>2018-05-19T10:50:01Z</time>
      </trkpt>
      <trkpt lat="44.09599" lon="2.99639">
        <ele>449.3</ele>
        <time>2018-05-19T10:50:03Z</time>
      </trkpt>
      <trkpt lat="44.09601" lon="2.99641">
        <ele>449.3</ele>
        <time>2018-05-19T10:50:04Z</time>
      </trkpt>
      <trkpt lat="44.09604" lon="2.99643">
        <ele>449.4</ele>
        <time>2018-05-19T10:50:05Z</time>
      </trkpt>
      <trkpt lat="44.09607" lon="2.99645">
        <ele>449.4</ele>
        <time>2018-05-19T10:50:06Z</time>
      </trkpt>
      <trkpt lat="44.0961" lon="2.99647">
        <ele>449.4</ele>
        <time>2018-05-19T10:50:07Z</time>
      </trkpt>
      <trkpt lat="44.09613" lon="2.99649">
        <ele>449.5</ele>
        <time>2018-05-19T10:50:08Z</time>
      </trkpt>
      <trkpt lat="44.09617" lon="2.99651">
        <ele>449.5</ele>
        <time>2018-05-19T10:50:09Z</time>
      </trkpt>
      <trkpt lat="44.0962" lon="2.99653">
        <ele>449.5</ele>
        <time>2018-05-19T10:50:10Z</time>
      </trkpt>
      <trkpt lat="44.09623" lon="2.99654">
        <ele>449.6</ele>
        <time>2018-05-19T10:50:11Z</time>
      </trkpt>
      <trkpt lat="44.09626" lon="2.99655">
        <ele>449.6</ele>
        <time>2018-05-19T10:50:12Z</time>
      </trkpt>
      <trkpt lat="44.09629" lon="2.99656">
        <ele>449.6</ele>
        <time>2018-05-19T10:50:13Z</time>
      </trkpt>
      <trkpt lat="44.09632" lon="2.99656">
        <ele>449.7</ele>
        <time>2018-05-19T10:50:14Z</time>
      </trkpt>
      <trkpt lat="44.09635" lon="2.99656">
        <ele>449.7</ele>
        <time>2018-05-19T10:50:15Z</time>
      </trkpt>
      <trkpt lat="44.09638" lon="2.99656">
        <ele>449.8</ele>
        <time>2018-05-19T10:50:16Z</time>
      </trkpt>
      <trkpt lat="44.09641" lon="2.99656">
        <ele>449.8</ele>
        <time>2018-05-19T10:50:17Z</time>
      </trkpt>
      <trkpt lat="44.09644" lon="2.99656">
        <ele>449.9</ele>
        <time>2018-05-19T10:50:18Z</time>
      </trkpt>
      <trkpt lat="44.09647" lon="2.99656">
        <ele>450</ele>
        <time>2018-05-19T10:50:19Z</time>
      </trkpt>
      <trkpt lat="44.0965" lon="2.99656">
        <ele>450.3</ele>
        <time>2018-05-19T10:50:20Z</time>
      </trkpt>
      <trkpt lat="44.09653" lon="2.99657">
        <ele>450.5</ele>
        <time>2018-05-19T10:50:21Z</time>
      </trkpt>
      <trkpt lat="44.09656" lon="2.99658">
        <ele>450.8</ele>
        <time>2018-05-19T10:50:22Z</time>
      </trkpt>
      <trkpt lat="44.09659" lon="2.99658">
        <ele>451</ele>
        <time>2018-05-19T10:50:23Z</time>
      </trkpt>
      <trkpt lat="44.09662" lon="2.99658">
        <ele>451.3</ele>
        <time>2018-05-19T10:50:24Z</time>
      </trkpt>
      <trkpt lat="44.09666" lon="2.99658">
        <ele>451.6</ele>
        <time>2018-05-19T10:50:25Z</time>
      </trkpt>
      <trkpt lat="44.09669" lon="2.99658">
        <ele>451.9</ele>
        <time>2018-05-19T10:50:26Z</time>
      </trkpt>
      <trkpt lat="44.09673" lon="2.99658">
        <ele>452</ele>
        <time>2018-05-19T10:50:27Z</time>
      </trkpt>
      <trkpt lat="44.09677" lon="2.99658">
        <ele>452</ele>
        <time>2018-05-19T10:50:28Z</time>
      </trkpt>
      <trkpt lat="44.0968" lon="2.99658">
        <ele>452</ele>
        <time>2018-05-19T10:50:29Z</time>
      </trkpt>
      <trkpt lat="44.09683" lon="2.99659">
        <ele>452</ele>
        <time>2018-05-19T10:50:30Z</time>
      </trkpt>
      <trkpt lat="44.09687" lon="2.9966">
        <ele>452.1</ele>
        <time>2018-05-19T10:50:31Z</time>
      </trkpt>
      <trkpt lat="44.0969" lon="2.9966">
        <ele>452.2</ele>
        <time>2018-05-19T10:50:32Z</time>
      </trkpt>
      <trkpt lat="44.09693" lon="2.99661">
        <ele>452.1</ele>
        <time>2018-05-19T10:50:33Z</time>
      </trkpt>
      <trkpt lat="44.09696" lon="2.99661">
        <ele>452</ele>
        <time>2018-05-19T10:50:34Z</time>
      </trkpt>
      <trkpt lat="44.09701" lon="2.99662">
        <ele>452.1</ele>
        <time>2018-05-19T10:50:36Z</time>
      </trkpt>
      <trkpt lat="44.09706" lon="2.99662">
        <ele>452.2</ele>
        <time>2018-05-19T10:50:38Z</time>
      </trkpt>
      <trkpt lat="44.09711" lon="2.99663">
        <ele>452.1</ele>
        <time>2018-05-19T10:50:40Z</time>
      </trkpt>
      <trkpt lat="44.09716" lon="2.99663">
        <ele>452.1</ele>
        <time>2018-05-19T10:50:42Z</time>
      </trkpt>
      <trkpt lat="44.09719" lon="2.99663">
        <ele>452.1</ele>
        <time>2018-05-19T10:50:43Z</time>
      </trkpt>
      <trkpt lat="44.09724" lon="2.99664">
        <ele>452.1</ele>
        <time>2018-05-19T10:50:45Z</time>
      </trkpt>
      <trkpt lat="44.09729" lon="2.99664">
        <ele>452</ele>
        <time>2018-05-19T10:50:47Z</time>
      </trkpt>
      <trkpt lat="44.09734" lon="2.99665">
        <ele>452</ele>
        <time>2018-05-19T10:50:49Z</time>
      </trkpt>
      <trkpt lat="44.09739" lon="2.99666">
        <ele>452</ele>
        <time>2018-05-19T10:50:51Z</time>
      </trkpt>
      <trkpt lat="44.09743" lon="2.99667">
        <ele>451.9</ele>
        <time>2018-05-19T10:50:53Z</time>
      </trkpt>
      <trkpt lat="44.09748" lon="2.99668">
        <ele>451.8</ele>
        <time>2018-05-19T10:50:55Z</time>
      </trkpt>
      <trkpt lat="44.09752" lon="2.99668">
        <ele>451.8</ele>
        <time>2018-05-19T10:50:57Z</time>
      </trkpt>
      <trkpt lat="44.09757" lon="2.99669">
        <ele>451.7</ele>
        <time>2018-05-19T10:50:59Z</time>
      </trkpt>
      <trkpt lat="44.09761" lon="2.9967">
        <ele>451.6</ele>
        <time>2018-05-19T10:51:01Z</time>
      </trkpt>
      <trkpt lat="44.09765" lon="2.99671">
        <ele>451.6</ele>
        <time>2018-05-19T10:51:03Z</time>
      </trkpt>
      <trkpt lat="44.09769" lon="2.99673">
        <ele>451.5</ele>
        <time>2018-05-19T10:51:05Z</time>
      </trkpt>
      <trkpt lat="44.09773" lon="2.99674">
        <ele>451.4</ele>
        <time>2018-05-19T10:51:07Z</time>
      </trkpt>
      <trkpt lat="44.09777" lon="2.99675">
        <ele>451.4</ele>
        <time>2018-05-19T10:51:09Z</time>
      </trkpt>
      <trkpt lat="44.09782" lon="2.99675">
        <ele>451.3</ele>
        <time>2018-05-19T10:51:11Z</time>
      </trkpt>
      <trkpt lat="44.09786" lon="2.99676">
        <ele>451.2</ele>
        <time>2018-05-19T10:51:13Z</time>
      </trkpt>
      <trkpt lat="44.0979" lon="2.99677">
        <ele>451.1</ele>
        <time>2018-05-19T10:51:15Z</time>
      </trkpt>
      <trkpt lat="44.09795" lon="2.99678">
        <ele>450.9</ele>
        <time>2018-05-19T10:51:17Z</time>
      </trkpt>
      <trkpt lat="44.09799" lon="2.99678">
        <ele>450.8</ele>
        <time>2018-05-19T10:51:19Z</time>
      </trkpt>
      <trkpt lat="44.09803" lon="2.99679">
        <ele>450.7</ele>
        <time>2018-05-19T10:51:21Z</time>
      </trkpt>
      <trkpt lat="44.09807" lon="2.99679">
        <ele>450.6</ele>
        <time>2018-05-19T10:51:23Z</time>
      </trkpt>
      <trkpt lat="44.09811" lon="2.9968">
        <ele>450.4</ele>
        <time>2018-05-19T10:51:25Z</time>
      </trkpt>
      <trkpt lat="44.09816" lon="2.9968">
        <ele>450.3</ele>
        <time>2018-05-19T10:51:27Z</time>
      </trkpt>
      <trkpt lat="44.09819" lon="2.9968">
        <ele>450.2</ele>
        <time>2018-05-19T10:51:29Z</time>
      </trkpt>
      <trkpt lat="44.09824" lon="2.9968">
        <ele>450</ele>
        <time>2018-05-19T10:51:31Z</time>
      </trkpt>
      <trkpt lat="44.09828" lon="2.9968">
        <ele>450.3</ele>
        <time>2018-05-19T10:51:33Z</time>
      </trkpt>
      <trkpt lat="44.09832" lon="2.9968">
        <ele>450.7</ele>
        <time>2018-05-19T10:51:35Z</time>
      </trkpt>
      <trkpt lat="44.09836" lon="2.9968">
        <ele>451</ele>
        <time>2018-05-19T10:51:37Z</time>
      </trkpt>
      <trkpt lat="44.0984" lon="2.99679">
        <ele>451.4</ele>
        <time>2018-05-19T10:51:39Z</time>
      </trkpt>
      <trkpt lat="44.09844" lon="2.99678">
        <ele>451.8</ele>
        <time>2018-05-19T10:51:41Z</time>
      </trkpt>
      <trkpt lat="44.09848" lon="2.99676">
        <ele>452.3</ele>
        <time>2018-05-19T10:51:43Z</time>
      </trkpt>
      <trkpt lat="44.09852" lon="2.99675">
        <ele>452.7</ele>
        <time>2018-05-19T10:51:45Z</time>
      </trkpt>
      <trkpt lat="44.09856" lon="2.99672">
        <ele>453</ele>
        <time>2018-05-19T10:51:47Z</time>
      </trkpt>
      <trkpt lat="44.0986" lon="2.9967">
        <ele>453.2</ele>
        <time>2018-05-19T10:51:49Z</time>
      </trkpt>
      <trkpt lat="44.09865" lon="2.99668">
        <ele>453.5</ele>
        <time>2018-05-19T10:51:51Z</time>
      </trkpt>
      <trkpt lat="44.09869" lon="2.99665">
        <ele>453.7</ele>
        <time>2018-05-19T10:51:53Z</time>
      </trkpt>
      <trkpt lat="44.09874" lon="2.99662">
        <ele>454</ele>
        <time>2018-05-19T10:51:55Z</time>
      </trkpt>
      <trkpt lat="44.09879" lon="2.9966">
        <ele>454.2</ele>
        <time>2018-05-19T10:51:57Z</time>
      </trkpt>
      <trkpt lat="44.09883" lon="2.99657">
        <ele>454.4</ele>
        <time>2018-05-19T10:51:59Z</time>
      </trkpt>
      <trkpt lat="44.09887" lon="2.99653">
        <ele>454.7</ele>
        <time>2018-05-19T10:52:01Z</time>
      </trkpt>
      <trkpt lat="44.09892" lon="2.9965">
        <ele>454.9</ele>
        <time>2018-05-19T10:52:03Z</time>
      </trkpt>
      <trkpt lat="44.09897" lon="2.99648">
        <ele>455.2</ele>
        <time>2018-05-19T10:52:05Z</time>
      </trkpt>
      <trkpt lat="44.09901" lon="2.99646">
        <ele>455.4</ele>
        <time>2018-05-19T10:52:07Z</time>
      </trkpt>
      <trkpt lat="44.09906" lon="2.99643">
        <ele>455.6</ele>
        <time>2018-05-19T10:52:09Z</time>
      </trkpt>
      <trkpt lat="44.09911" lon="2.99642">
        <ele>455.8</ele>
        <time>2018-05-19T10:52:11Z</time>
      </trkpt>
      <trkpt lat="44.09916" lon="2.99641">
        <ele>456.1</ele>
        <time>2018-05-19T10:52:13Z</time>
      </trkpt>
      <trkpt lat="44.09921" lon="2.9964">
        <ele>456.3</ele>
        <time>2018-05-19T10:52:15Z</time>
      </trkpt>
      <trkpt lat="44.09926" lon="2.99639">
        <ele>456.5</ele>
        <time>2018-05-19T10:52:17Z</time>
      </trkpt>
      <trkpt lat="44.09931" lon="2.99638">
        <ele>456.7</ele>
        <time>2018-05-19T10:52:19Z</time>
      </trkpt>
      <trkpt lat="44.09936" lon="2.99637">
        <ele>456.9</ele>
        <time>2018-05-19T10:52:21Z</time>
      </trkpt>
      <trkpt lat="44.0994" lon="2.99636">
        <ele>457.1</ele>
        <time>2018-05-19T10:52:23Z</time>
      </trkpt>
      <trkpt lat="44.09945" lon="2.99635">
        <ele>457.3</ele>
        <time>2018-05-19T10:52:25Z</time>
      </trkpt>
      <trkpt lat="44.09948" lon="2.99635">
        <ele>457.4</ele>
        <time>2018-05-19T10:52:26Z</time>
      </trkpt>
      <trkpt lat="44.09953" lon="2.99635">
        <ele>457.6</ele>
        <time>2018-05-19T10:52:28Z</time>
      </trkpt>
      <trkpt lat="44.09958" lon="2.99634">
        <ele>457.9</ele>
        <time>2018-05-19T10:52:30Z</time>
      </trkpt>
      <trkpt lat="44.09963" lon="2.99633">
        <ele>458.1</ele>
        <time>2018-05-19T10:52:32Z</time>
      </trkpt>
      <trkpt lat="44.09968" lon="2.99631">
        <ele>458.3</ele>
        <time>2018-05-19T10:52:34Z</time>
      </trkpt>
      <trkpt lat="44.09971" lon="2.9963">
        <ele>458.4</ele>
        <time>2018-05-19T10:52:35Z</time>
      </trkpt>
      <trkpt lat="44.09975" lon="2.99629">
        <ele>458.6</ele>
        <time>2018-05-19T10:52:36Z</time>
      </trkpt>
      <trkpt lat="44.09978" lon="2.99628">
        <ele>458.7</ele>
        <time>2018-05-19T10:52:37Z</time>
      </trkpt>
      <trkpt lat="44.09981" lon="2.99627">
        <ele>458.9</ele>
        <time>2018-05-19T10:52:38Z</time>
      </trkpt>
      <trkpt lat="44.09984" lon="2.99626">
        <ele>459</ele>
        <time>2018-05-19T10:52:39Z</time>
      </trkpt>
      <trkpt lat="44.09987" lon="2.99625">
        <ele>459.1</ele>
        <time>2018-05-19T10:52:40Z</time>
      </trkpt>
      <trkpt lat="44.0999" lon="2.99624">
        <ele>459.3</ele>
        <time>2018-05-19T10:52:41Z</time>
      </trkpt>
      <trkpt lat="44.09993" lon="2.99622">
        <ele>459.4</ele>
        <time>2018-05-19T10:52:42Z</time>
      </trkpt>
      <trkpt lat="44.09996" lon="2.99621">
        <ele>459.6</ele>
        <time>2018-05-19T10:52:43Z</time>
      </trkpt>
      <trkpt lat="44.09999" lon="2.9962">
        <ele>459.7</ele>
        <time>2018-05-19T10:52:44Z</time>
      </trkpt>
      <trkpt lat="44.10001" lon="2.99618">
        <ele>459.9</ele>
        <time>2018-05-19T10:52:45Z</time>
      </trkpt>
      <trkpt lat="44.10004" lon="2.99617">
        <ele>460</ele>
        <time>2018-05-19T10:52:46Z</time>
      </trkpt>
      <trkpt lat="44.10007" lon="2.99616">
        <ele>460.1</ele>
        <time>2018-05-19T10:52:47Z</time>
      </trkpt>
      <trkpt lat="44.1001" lon="2.99614">
        <ele>460.3</ele>
        <time>2018-05-19T10:52:48Z</time>
      </trkpt>
      <trkpt lat="44.10013" lon="2.99613">
        <ele>460.4</ele>
        <time>2018-05-19T10:52:49Z</time>
      </trkpt>
      <trkpt lat="44.10018" lon="2.99611">
        <ele>460.6</ele>
        <time>2018-05-19T10:52:51Z</time>
      </trkpt>
      <trkpt lat="44.1002" lon="2.9961">
        <ele>460.8</ele>
        <time>2018-05-19T10:52:52Z</time>
      </trkpt>
      <trkpt lat="44.10023" lon="2.99609">
        <ele>461</ele>
        <time>2018-05-19T10:52:53Z</time>
      </trkpt>
      <trkpt lat="44.10026" lon="2.99608">
        <ele>461.3</ele>
        <time>2018-05-19T10:52:54Z</time>
      </trkpt>
      <trkpt lat="44.10031" lon="2.99608">
        <ele>461.8</ele>
        <time>2018-05-19T10:52:56Z</time>
      </trkpt>
      <trkpt lat="44.10035" lon="2.99606">
        <ele>462.2</ele>
        <time>2018-05-19T10:52:58Z</time>
      </trkpt>
      <trkpt lat="44.10039" lon="2.99604">
        <ele>462.7</ele>
        <time>2018-05-19T10:53:00Z</time>
      </trkpt>
      <trkpt lat="44.10042" lon="2.99603">
        <ele>463.1</ele>
        <time>2018-05-19T10:53:01Z</time>
      </trkpt>
      <trkpt lat="44.10045" lon="2.99601">
        <ele>463.4</ele>
        <time>2018-05-19T10:53:02Z</time>
      </trkpt>
      <trkpt lat="44.10048" lon="2.99599">
        <ele>463.9</ele>
        <time>2018-05-19T10:53:04Z</time>
      </trkpt>
      <trkpt lat="44.10051" lon="2.99597">
        <ele>464.2</ele>
        <time>2018-05-19T10:53:05Z</time>
      </trkpt>
      <trkpt lat="44.10055" lon="2.99594">
        <ele>464.7</ele>
        <time>2018-05-19T10:53:07Z</time>
      </trkpt>
      <trkpt lat="44.10058" lon="2.9959">
        <ele>465</ele>
        <time>2018-05-19T10:53:09Z</time>
      </trkpt>
      <trkpt lat="44.1006" lon="2.99588">
        <ele>464.9</ele>
        <time>2018-05-19T10:53:12Z</time>
      </trkpt>
      <trkpt lat="44.10064" lon="2.99585">
        <ele>464.7</ele>
        <time>2018-05-19T10:53:28Z</time>
      </trkpt>
      <trkpt lat="44.10065" lon="2.99579">
        <ele>464.5</ele>
        <time>2018-05-19T10:53:30Z</time>
      </trkpt>
      <trkpt lat="44.10067" lon="2.99573">
        <ele>464.2</ele>
        <time>2018-05-19T10:53:32Z</time>
      </trkpt>
      <trkpt lat="44.10069" lon="2.9957">
        <ele>464.1</ele>
        <time>2018-05-19T10:53:33Z</time>
      </trkpt>
      <trkpt lat="44.10071" lon="2.99567">
        <ele>463.9</ele>
        <time>2018-05-19T10:53:34Z</time>
      </trkpt>
      <trkpt lat="44.10073" lon="2.99563">
        <ele>463.7</ele>
        <time>2018-05-19T10:53:35Z</time>
      </trkpt>
      <trkpt lat="44.10075" lon="2.99559">
        <ele>463.6</ele>
        <time>2018-05-19T10:53:36Z</time>
      </trkpt>
      <trkpt lat="44.10077" lon="2.99555">
        <ele>463.5</ele>
        <time>2018-05-19T10:53:37Z</time>
      </trkpt>
      <trkpt lat="44.1008" lon="2.9955">
        <ele>463.5</ele>
        <time>2018-05-19T10:53:38Z</time>
      </trkpt>
      <trkpt lat="44.10082" lon="2.99545">
        <ele>463.4</ele>
        <time>2018-05-19T10:53:39Z</time>
      </trkpt>
      <trkpt lat="44.10085" lon="2.9954">
        <ele>463.3</ele>
        <time>2018-05-19T10:53:40Z</time>
      </trkpt>
      <trkpt lat="44.10087" lon="2.99536">
        <ele>463.2</ele>
        <time>2018-05-19T10:53:41Z</time>
      </trkpt>
      <trkpt lat="44.1009" lon="2.99532">
        <ele>463.1</ele>
        <time>2018-05-19T10:53:42Z</time>
      </trkpt>
      <trkpt lat="44.10093" lon="2.9953">
        <ele>463</ele>
        <time>2018-05-19T10:53:43Z</time>
      </trkpt>
      <trkpt lat="44.10097" lon="2.99525">
        <ele>463</ele>
        <time>2018-05-19T10:53:44Z</time>
      </trkpt>
      <trkpt lat="44.101" lon="2.99521">
        <ele>462.9</ele>
        <time>2018-05-19T10:53:45Z</time>
      </trkpt>
      <trkpt lat="44.10104" lon="2.99516">
        <ele>462.9</ele>
        <time>2018-05-19T10:53:46Z</time>
      </trkpt>
      <trkpt lat="44.10108" lon="2.99511">
        <ele>462.8</ele>
        <time>2018-05-19T10:53:47Z</time>
      </trkpt>
      <trkpt lat="44.10113" lon="2.99507">
        <ele>462.8</ele>
        <time>2018-05-19T10:53:48Z</time>
      </trkpt>
      <trkpt lat="44.10117" lon="2.99504">
        <ele>462.7</ele>
        <time>2018-05-19T10:53:49Z</time>
      </trkpt>
      <trkpt lat="44.10121" lon="2.995">
        <ele>462.7</ele>
        <time>2018-05-19T10:53:50Z</time>
      </trkpt>
      <trkpt lat="44.10125" lon="2.99497">
        <ele>462.6</ele>
        <time>2018-05-19T10:53:51Z</time>
      </trkpt>
      <trkpt lat="44.10128" lon="2.99494">
        <ele>462.6</ele>
        <time>2018-05-19T10:53:52Z</time>
      </trkpt>
      <trkpt lat="44.10133" lon="2.99491">
        <ele>462.5</ele>
        <time>2018-05-19T10:53:53Z</time>
      </trkpt>
      <trkpt lat="44.10136" lon="2.99489">
        <ele>462.5</ele>
        <time>2018-05-19T10:53:54Z</time>
      </trkpt>
      <trkpt lat="44.1014" lon="2.99486">
        <ele>462.5</ele>
        <time>2018-05-19T10:53:55Z</time>
      </trkpt>
      <trkpt lat="44.10144" lon="2.99483">
        <ele>462.4</ele>
        <time>2018-05-19T10:53:56Z</time>
      </trkpt>
      <trkpt lat="44.10148" lon="2.9948">
        <ele>462.4</ele>
        <time>2018-05-19T10:53:57Z</time>
      </trkpt>
      <trkpt lat="44.10153" lon="2.99478">
        <ele>462.4</ele>
        <time>2018-05-19T10:53:58Z</time>
      </trkpt>
      <trkpt lat="44.10157" lon="2.99475">
        <ele>462.4</ele>
        <time>2018-05-19T10:53:59Z</time>
      </trkpt>
      <trkpt lat="44.10161" lon="2.99473">
        <ele>462.4</ele>
        <time>2018-05-19T10:54:00Z</time>
      </trkpt>
      <trkpt lat="44.10165" lon="2.99471">
        <ele>462.4</ele>
        <time>2018-05-19T10:54:01Z</time>
      </trkpt>
      <trkpt lat="44.10169" lon="2.99468">
        <ele>462.4</ele>
        <time>2018-05-19T10:54:02Z</time>
      </trkpt>
      <trkpt lat="44.10174" lon="2.99465">
        <ele>462.4</ele>
        <time>2018-05-19T10:54:03Z</time>
      </trkpt>
      <trkpt lat="44.10179" lon="2.99463">
        <ele>462.4</ele>
        <time>2018-05-19T10:54:04Z</time>
      </trkpt>
      <trkpt lat="44.10184" lon="2.99461">
        <ele>462.4</ele>
        <time>2018-05-19T10:54:05Z</time>
      </trkpt>
      <trkpt lat="44.10188" lon="2.99458">
        <ele>462.4</ele>
        <time>2018-05-19T10:54:06Z</time>
      </trkpt>
      <trkpt lat="44.10193" lon="2.99456">
        <ele>462.4</ele>
        <time>2018-05-19T10:54:07Z</time>
      </trkpt>
      <trkpt lat="44.10197" lon="2.99454">
        <ele>462.5</ele>
        <time>2018-05-19T10:54:08Z</time>
      </trkpt>
      <trkpt lat="44.10202" lon="2.99452">
        <ele>462.6</ele>
        <time>2018-05-19T10:54:09Z</time>
      </trkpt>
      <trkpt lat="44.10206" lon="2.9945">
        <ele>462.7</ele>
        <time>2018-05-19T10:54:10Z</time>
      </trkpt>
      <trkpt lat="44.1021" lon="2.99448">
        <ele>462.8</ele>
        <time>2018-05-19T10:54:11Z</time>
      </trkpt>
      <trkpt lat="44.10214" lon="2.99446">
        <ele>462.9</ele>
        <time>2018-05-19T10:54:12Z</time>
      </trkpt>
      <trkpt lat="44.10219" lon="2.99445">
        <ele>463</ele>
        <time>2018-05-19T10:54:13Z</time>
      </trkpt>
      <trkpt lat="44.10223" lon="2.99444">
        <ele>463.1</ele>
        <time>2018-05-19T10:54:14Z</time>
      </trkpt>
      <trkpt lat="44.10227" lon="2.99443">
        <ele>463.3</ele>
        <time>2018-05-19T10:54:15Z</time>
      </trkpt>
      <trkpt lat="44.10231" lon="2.99442">
        <ele>463.4</ele>
        <time>2018-05-19T10:54:16Z</time>
      </trkpt>
      <trkpt lat="44.10235" lon="2.9944">
        <ele>463.5</ele>
        <time>2018-05-19T10:54:17Z</time>
      </trkpt>
      <trkpt lat="44.10239" lon="2.9944">
        <ele>463.7</ele>
        <time>2018-05-19T10:54:18Z</time>
      </trkpt>
      <trkpt lat="44.10247" lon="2.99439">
        <ele>464.3</ele>
        <time>2018-05-19T10:54:20Z</time>
      </trkpt>
      <trkpt lat="44.10251" lon="2.99438">
        <ele>464.6</ele>
        <time>2018-05-19T10:54:21Z</time>
      </trkpt>
      <trkpt lat="44.10255" lon="2.99436">
        <ele>465</ele>
        <time>2018-05-19T10:54:22Z</time>
      </trkpt>
      <trkpt lat="44.1026" lon="2.99433">
        <ele>465.3</ele>
        <time>2018-05-19T10:54:23Z</time>
      </trkpt>
      <trkpt lat="44.10263" lon="2.99433">
        <ele>465.6</ele>
        <time>2018-05-19T10:54:24Z</time>
      </trkpt>
      <trkpt lat="44.10268" lon="2.99433">
        <ele>466</ele>
        <time>2018-05-19T10:54:25Z</time>
      </trkpt>
      <trkpt lat="44.10272" lon="2.99433">
        <ele>466.3</ele>
        <time>2018-05-19T10:54:26Z</time>
      </trkpt>
      <trkpt lat="44.10276" lon="2.99432">
        <ele>466.6</ele>
        <time>2018-05-19T10:54:27Z</time>
      </trkpt>
      <trkpt lat="44.10279" lon="2.99431">
        <ele>467.1</ele>
        <time>2018-05-19T10:54:28Z</time>
      </trkpt>
      <trkpt lat="44.10283" lon="2.9943">
        <ele>467.7</ele>
        <time>2018-05-19T10:54:29Z</time>
      </trkpt>
      <trkpt lat="44.10286" lon="2.9943">
        <ele>468.4</ele>
        <time>2018-05-19T10:54:30Z</time>
      </trkpt>
      <trkpt lat="44.1029" lon="2.99429">
        <ele>469</ele>
        <time>2018-05-19T10:54:31Z</time>
      </trkpt>
      <trkpt lat="44.10294" lon="2.99429">
        <ele>469.4</ele>
        <time>2018-05-19T10:54:32Z</time>
      </trkpt>
      <trkpt lat="44.10297" lon="2.99429">
        <ele>469.7</ele>
        <time>2018-05-19T10:54:33Z</time>
      </trkpt>
      <trkpt lat="44.10301" lon="2.99428">
        <ele>470</ele>
        <time>2018-05-19T10:54:34Z</time>
      </trkpt>
      <trkpt lat="44.10304" lon="2.99428">
        <ele>470.2</ele>
        <time>2018-05-19T10:54:35Z</time>
      </trkpt>
      <trkpt lat="44.10308" lon="2.99427">
        <ele>470.5</ele>
        <time>2018-05-19T10:54:36Z</time>
      </trkpt>
      <trkpt lat="44.10312" lon="2.99426">
        <ele>470.8</ele>
        <time>2018-05-19T10:54:37Z</time>
      </trkpt>
      <trkpt lat="44.10315" lon="2.99425">
        <ele>471.1</ele>
        <time>2018-05-19T10:54:38Z</time>
      </trkpt>
      <trkpt lat="44.1032" lon="2.99424">
        <ele>471.4</ele>
        <time>2018-05-19T10:54:39Z</time>
      </trkpt>
      <trkpt lat="44.10324" lon="2.99423">
        <ele>471.7</ele>
        <time>2018-05-19T10:54:40Z</time>
      </trkpt>
      <trkpt lat="44.10328" lon="2.99422">
        <ele>472.1</ele>
        <time>2018-05-19T10:54:41Z</time>
      </trkpt>
      <trkpt lat="44.10332" lon="2.99421">
        <ele>472.4</ele>
        <time>2018-05-19T10:54:42Z</time>
      </trkpt>
      <trkpt lat="44.10337" lon="2.9942">
        <ele>472.7</ele>
        <time>2018-05-19T10:54:43Z</time>
      </trkpt>
      <trkpt lat="44.10341" lon="2.99419">
        <ele>472.9</ele>
        <time>2018-05-19T10:54:44Z</time>
      </trkpt>
      <trkpt lat="44.10345" lon="2.99418">
        <ele>473.1</ele>
        <time>2018-05-19T10:54:45Z</time>
      </trkpt>
      <trkpt lat="44.10349" lon="2.99416">
        <ele>473.2</ele>
        <time>2018-05-19T10:54:46Z</time>
      </trkpt>
      <trkpt lat="44.10354" lon="2.99415">
        <ele>473.4</ele>
        <time>2018-05-19T10:54:47Z</time>
      </trkpt>
      <trkpt lat="44.10358" lon="2.99414">
        <ele>473.6</ele>
        <time>2018-05-19T10:54:48Z</time>
      </trkpt>
      <trkpt lat="44.10363" lon="2.99413">
        <ele>473.7</ele>
        <time>2018-05-19T10:54:49Z</time>
      </trkpt>
      <trkpt lat="44.10367" lon="2.99412">
        <ele>473.8</ele>
        <time>2018-05-19T10:54:50Z</time>
      </trkpt>
      <trkpt lat="44.10372" lon="2.9941">
        <ele>473.8</ele>
        <time>2018-05-19T10:54:51Z</time>
      </trkpt>
      <trkpt lat="44.10376" lon="2.99408">
        <ele>473.8</ele>
        <time>2018-05-19T10:54:52Z</time>
      </trkpt>
      <trkpt lat="44.10381" lon="2.99407">
        <ele>473.8</ele>
        <time>2018-05-19T10:54:53Z</time>
      </trkpt>
      <trkpt lat="44.10385" lon="2.99406">
        <ele>473.8</ele>
        <time>2018-05-19T10:54:54Z</time>
      </trkpt>
      <trkpt lat="44.10389" lon="2.99406">
        <ele>473.8</ele>
        <time>2018-05-19T10:54:55Z</time>
      </trkpt>
      <trkpt lat="44.10394" lon="2.99404">
        <ele>473.8</ele>
        <time>2018-05-19T10:54:56Z</time>
      </trkpt>
      <trkpt lat="44.10398" lon="2.99403">
        <ele>473.8</ele>
        <time>2018-05-19T10:54:57Z</time>
      </trkpt>
      <trkpt lat="44.10402" lon="2.99402">
        <ele>473.8</ele>
        <time>2018-05-19T10:54:58Z</time>
      </trkpt>
      <trkpt lat="44.10406" lon="2.99402">
        <ele>473.8</ele>
        <time>2018-05-19T10:54:59Z</time>
      </trkpt>
      <trkpt lat="44.1041" lon="2.99401">
        <ele>473.8</ele>
        <time>2018-05-19T10:55:00Z</time>
      </trkpt>
      <trkpt lat="44.10415" lon="2.994">
        <ele>473.7</ele>
        <time>2018-05-19T10:55:01Z</time>
      </trkpt>
      <trkpt lat="44.10419" lon="2.99399">
        <ele>473.6</ele>
        <time>2018-05-19T10:55:02Z</time>
      </trkpt>
      <trkpt lat="44.10424" lon="2.99398">
        <ele>473.6</ele>
        <time>2018-05-19T10:55:03Z</time>
      </trkpt>
      <trkpt lat="44.10428" lon="2.99397">
        <ele>473.5</ele>
        <time>2018-05-19T10:55:04Z</time>
      </trkpt>
      <trkpt lat="44.10432" lon="2.99396">
        <ele>473.4</ele>
        <time>2018-05-19T10:55:05Z</time>
      </trkpt>
      <trkpt lat="44.10436" lon="2.99395">
        <ele>473.4</ele>
        <time>2018-05-19T10:55:06Z</time>
      </trkpt>
      <trkpt lat="44.10439" lon="2.99395">
        <ele>473.3</ele>
        <time>2018-05-19T10:55:07Z</time>
      </trkpt>
      <trkpt lat="44.10443" lon="2.99396">
        <ele>473.3</ele>
        <time>2018-05-19T10:55:08Z</time>
      </trkpt>
      <trkpt lat="44.10448" lon="2.99395">
        <ele>473.2</ele>
        <time>2018-05-19T10:55:09Z</time>
      </trkpt>
      <trkpt lat="44.10453" lon="2.99393">
        <ele>473.1</ele>
        <time>2018-05-19T10:55:10Z</time>
      </trkpt>
      <trkpt lat="44.10458" lon="2.99393">
        <ele>473</ele>
        <time>2018-05-19T10:55:11Z</time>
      </trkpt>
      <trkpt lat="44.10463" lon="2.99391">
        <ele>472.9</ele>
        <time>2018-05-19T10:55:12Z</time>
      </trkpt>
      <trkpt lat="44.10467" lon="2.99391">
        <ele>472.8</ele>
        <time>2018-05-19T10:55:13Z</time>
      </trkpt>
      <trkpt lat="44.10473" lon="2.99389">
        <ele>472.7</ele>
        <time>2018-05-19T10:55:14Z</time>
      </trkpt>
      <trkpt lat="44.10478" lon="2.99389">
        <ele>472.5</ele>
        <time>2018-05-19T10:55:15Z</time>
      </trkpt>
      <trkpt lat="44.10482" lon="2.99389">
        <ele>472.4</ele>
        <time>2018-05-19T10:55:16Z</time>
      </trkpt>
      <trkpt lat="44.10488" lon="2.99388">
        <ele>472.3</ele>
        <time>2018-05-19T10:55:17Z</time>
      </trkpt>
      <trkpt lat="44.10492" lon="2.99386">
        <ele>472.2</ele>
        <time>2018-05-19T10:55:18Z</time>
      </trkpt>
      <trkpt lat="44.10496" lon="2.99386">
        <ele>472.1</ele>
        <time>2018-05-19T10:55:19Z</time>
      </trkpt>
      <trkpt lat="44.10501" lon="2.99386">
        <ele>472</ele>
        <time>2018-05-19T10:55:20Z</time>
      </trkpt>
      <trkpt lat="44.10506" lon="2.99385">
        <ele>471.9</ele>
        <time>2018-05-19T10:55:21Z</time>
      </trkpt>
      <trkpt lat="44.10511" lon="2.99385">
        <ele>471.8</ele>
        <time>2018-05-19T10:55:22Z</time>
      </trkpt>
      <trkpt lat="44.10516" lon="2.99384">
        <ele>471.7</ele>
        <time>2018-05-19T10:55:23Z</time>
      </trkpt>
      <trkpt lat="44.1052" lon="2.99385">
        <ele>471.7</ele>
        <time>2018-05-19T10:55:24Z</time>
      </trkpt>
      <trkpt lat="44.10525" lon="2.99385">
        <ele>471.6</ele>
        <time>2018-05-19T10:55:25Z</time>
      </trkpt>
      <trkpt lat="44.10529" lon="2.99385">
        <ele>471.5</ele>
        <time>2018-05-19T10:55:26Z</time>
      </trkpt>
      <trkpt lat="44.10533" lon="2.99386">
        <ele>471.4</ele>
        <time>2018-05-19T10:55:27Z</time>
      </trkpt>
      <trkpt lat="44.10537" lon="2.99387">
        <ele>471.4</ele>
        <time>2018-05-19T10:55:28Z</time>
      </trkpt>
      <trkpt lat="44.10541" lon="2.99387">
        <ele>471.3</ele>
        <time>2018-05-19T10:55:29Z</time>
      </trkpt>
      <trkpt lat="44.10546" lon="2.99387">
        <ele>471.2</ele>
        <time>2018-05-19T10:55:30Z</time>
      </trkpt>
      <trkpt lat="44.1055" lon="2.99387">
        <ele>471.1</ele>
        <time>2018-05-19T10:55:31Z</time>
      </trkpt>
      <trkpt lat="44.10555" lon="2.99387">
        <ele>471.1</ele>
        <time>2018-05-19T10:55:32Z</time>
      </trkpt>
      <trkpt lat="44.10559" lon="2.99387">
        <ele>471</ele>
        <time>2018-05-19T10:55:33Z</time>
      </trkpt>
      <trkpt lat="44.10563" lon="2.99387">
        <ele>470.8</ele>
        <time>2018-05-19T10:55:34Z</time>
      </trkpt>
      <trkpt lat="44.10568" lon="2.99387">
        <ele>470.6</ele>
        <time>2018-05-19T10:55:35Z</time>
      </trkpt>
      <trkpt lat="44.10572" lon="2.99387">
        <ele>470.4</ele>
        <time>2018-05-19T10:55:36Z</time>
      </trkpt>
      <trkpt lat="44.10576" lon="2.99387">
        <ele>470.3</ele>
        <time>2018-05-19T10:55:37Z</time>
      </trkpt>
      <trkpt lat="44.10579" lon="2.99387">
        <ele>470.1</ele>
        <time>2018-05-19T10:55:38Z</time>
      </trkpt>
      <trkpt lat="44.10583" lon="2.99388">
        <ele>470</ele>
        <time>2018-05-19T10:55:39Z</time>
      </trkpt>
      <trkpt lat="44.10587" lon="2.99388">
        <ele>469.8</ele>
        <time>2018-05-19T10:55:40Z</time>
      </trkpt>
      <trkpt lat="44.10591" lon="2.99387">
        <ele>469.6</ele>
        <time>2018-05-19T10:55:41Z</time>
      </trkpt>
      <trkpt lat="44.10595" lon="2.99387">
        <ele>469.5</ele>
        <time>2018-05-19T10:55:42Z</time>
      </trkpt>
      <trkpt lat="44.10599" lon="2.99386">
        <ele>469.3</ele>
        <time>2018-05-19T10:55:43Z</time>
      </trkpt>
      <trkpt lat="44.10603" lon="2.99386">
        <ele>469.1</ele>
        <time>2018-05-19T10:55:44Z</time>
      </trkpt>
      <trkpt lat="44.10607" lon="2.99386">
        <ele>469</ele>
        <time>2018-05-19T10:55:45Z</time>
      </trkpt>
      <trkpt lat="44.10611" lon="2.99386">
        <ele>469</ele>
        <time>2018-05-19T10:55:46Z</time>
      </trkpt>
      <trkpt lat="44.10616" lon="2.99387">
        <ele>469</ele>
        <time>2018-05-19T10:55:47Z</time>
      </trkpt>
      <trkpt lat="44.1062" lon="2.99387">
        <ele>469</ele>
        <time>2018-05-19T10:55:48Z</time>
      </trkpt>
      <trkpt lat="44.10624" lon="2.99387">
        <ele>469</ele>
        <time>2018-05-19T10:55:49Z</time>
      </trkpt>
      <trkpt lat="44.10628" lon="2.99387">
        <ele>469.1</ele>
        <time>2018-05-19T10:55:50Z</time>
      </trkpt>
      <trkpt lat="44.10632" lon="2.99388">
        <ele>469.1</ele>
        <time>2018-05-19T10:55:51Z</time>
      </trkpt>
      <trkpt lat="44.10636" lon="2.99388">
        <ele>469.1</ele>
        <time>2018-05-19T10:55:52Z</time>
      </trkpt>
      <trkpt lat="44.1064" lon="2.99388">
        <ele>469.1</ele>
        <time>2018-05-19T10:55:53Z</time>
      </trkpt>
      <trkpt lat="44.10644" lon="2.99388">
        <ele>469.1</ele>
        <time>2018-05-19T10:55:54Z</time>
      </trkpt>
      <trkpt lat="44.10648" lon="2.99388">
        <ele>469.1</ele>
        <time>2018-05-19T10:55:55Z</time>
      </trkpt>
      <trkpt lat="44.10652" lon="2.99389">
        <ele>469.1</ele>
        <time>2018-05-19T10:55:56Z</time>
      </trkpt>
      <trkpt lat="44.10656" lon="2.99389">
        <ele>469.1</ele>
        <time>2018-05-19T10:55:57Z</time>
      </trkpt>
      <trkpt lat="44.1066" lon="2.9939">
        <ele>469.1</ele>
        <time>2018-05-19T10:55:58Z</time>
      </trkpt>
      <trkpt lat="44.10664" lon="2.9939">
        <ele>469.1</ele>
        <time>2018-05-19T10:55:59Z</time>
      </trkpt>
      <trkpt lat="44.10668" lon="2.99391">
        <ele>469.2</ele>
        <time>2018-05-19T10:56:00Z</time>
      </trkpt>
      <trkpt lat="44.10672" lon="2.99391">
        <ele>469.2</ele>
        <time>2018-05-19T10:56:01Z</time>
      </trkpt>
      <trkpt lat="44.10676" lon="2.99391">
        <ele>469.2</ele>
        <time>2018-05-19T10:56:02Z</time>
      </trkpt>
      <trkpt lat="44.1068" lon="2.99392">
        <ele>469.2</ele>
        <time>2018-05-19T10:56:03Z</time>
      </trkpt>
      <trkpt lat="44.10684" lon="2.99392">
        <ele>469.2</ele>
        <time>2018-05-19T10:56:04Z</time>
      </trkpt>
      <trkpt lat="44.10689" lon="2.99392">
        <ele>469.2</ele>
        <time>2018-05-19T10:56:05Z</time>
      </trkpt>
      <trkpt lat="44.10693" lon="2.99392">
        <ele>469.2</ele>
        <time>2018-05-19T10:56:06Z</time>
      </trkpt>
      <trkpt lat="44.10697" lon="2.99393">
        <ele>469.2</ele>
        <time>2018-05-19T10:56:07Z</time>
      </trkpt>
      <trkpt lat="44.10702" lon="2.99393">
        <ele>469.2</ele>
        <time>2018-05-19T10:56:08Z</time>
      </trkpt>
      <trkpt lat="44.10706" lon="2.99393">
        <ele>469.3</ele>
        <time>2018-05-19T10:56:09Z</time>
      </trkpt>
      <trkpt lat="44.10711" lon="2.99394">
        <ele>469.3</ele>
        <time>2018-05-19T10:56:10Z</time>
      </trkpt>
      <trkpt lat="44.10716" lon="2.99394">
        <ele>469.3</ele>
        <time>2018-05-19T10:56:11Z</time>
      </trkpt>
      <trkpt lat="44.1072" lon="2.99394">
        <ele>469.4</ele>
        <time>2018-05-19T10:56:12Z</time>
      </trkpt>
      <trkpt lat="44.10725" lon="2.99395">
        <ele>469.4</ele>
        <time>2018-05-19T10:56:13Z</time>
      </trkpt>
      <trkpt lat="44.1073" lon="2.99395">
        <ele>469.4</ele>
        <time>2018-05-19T10:56:14Z</time>
      </trkpt>
      <trkpt lat="44.10734" lon="2.99395">
        <ele>469.4</ele>
        <time>2018-05-19T10:56:15Z</time>
      </trkpt>
      <trkpt lat="44.10738" lon="2.99396">
        <ele>469.5</ele>
        <time>2018-05-19T10:56:16Z</time>
      </trkpt>
      <trkpt lat="44.10742" lon="2.99396">
        <ele>469.5</ele>
        <time>2018-05-19T10:56:17Z</time>
      </trkpt>
      <trkpt lat="44.10747" lon="2.99397">
        <ele>469.5</ele>
        <time>2018-05-19T10:56:18Z</time>
      </trkpt>
      <trkpt lat="44.10751" lon="2.99397">
        <ele>469.5</ele>
        <time>2018-05-19T10:56:19Z</time>
      </trkpt>
      <trkpt lat="44.10755" lon="2.99398">
        <ele>469.6</ele>
        <time>2018-05-19T10:56:20Z</time>
      </trkpt>
      <trkpt lat="44.1076" lon="2.99398">
        <ele>469.6</ele>
        <time>2018-05-19T10:56:21Z</time>
      </trkpt>
      <trkpt lat="44.10763" lon="2.99399">
        <ele>469.7</ele>
        <time>2018-05-19T10:56:22Z</time>
      </trkpt>
      <trkpt lat="44.10767" lon="2.99399">
        <ele>469.8</ele>
        <time>2018-05-19T10:56:23Z</time>
      </trkpt>
      <trkpt lat="44.10771" lon="2.99399">
        <ele>469.9</ele>
        <time>2018-05-19T10:56:24Z</time>
      </trkpt>
      <trkpt lat="44.10776" lon="2.99399">
        <ele>470.1</ele>
        <time>2018-05-19T10:56:25Z</time>
      </trkpt>
      <trkpt lat="44.1078" lon="2.99399">
        <ele>470.2</ele>
        <time>2018-05-19T10:56:26Z</time>
      </trkpt>
      <trkpt lat="44.10784" lon="2.99399">
        <ele>470.4</ele>
        <time>2018-05-19T10:56:27Z</time>
      </trkpt>
      <trkpt lat="44.10788" lon="2.99399">
        <ele>470.5</ele>
        <time>2018-05-19T10:56:28Z</time>
      </trkpt>
      <trkpt lat="44.10792" lon="2.99399">
        <ele>470.7</ele>
        <time>2018-05-19T10:56:29Z</time>
      </trkpt>
      <trkpt lat="44.10796" lon="2.994">
        <ele>470.9</ele>
        <time>2018-05-19T10:56:30Z</time>
      </trkpt>
      <trkpt lat="44.108" lon="2.99401">
        <ele>471.1</ele>
        <time>2018-05-19T10:56:31Z</time>
      </trkpt>
      <trkpt lat="44.10803" lon="2.99402">
        <ele>471.2</ele>
        <time>2018-05-19T10:56:32Z</time>
      </trkpt>
      <trkpt lat="44.10807" lon="2.99402">
        <ele>471.4</ele>
        <time>2018-05-19T10:56:33Z</time>
      </trkpt>
      <trkpt lat="44.10811" lon="2.99403">
        <ele>471.6</ele>
        <time>2018-05-19T10:56:34Z</time>
      </trkpt>
      <trkpt lat="44.10815" lon="2.99403">
        <ele>471.8</ele>
        <time>2018-05-19T10:56:35Z</time>
      </trkpt>
      <trkpt lat="44.10818" lon="2.99403">
        <ele>471.9</ele>
        <time>2018-05-19T10:56:36Z</time>
      </trkpt>
      <trkpt lat="44.10822" lon="2.99402">
        <ele>472.1</ele>
        <time>2018-05-19T10:56:37Z</time>
      </trkpt>
      <trkpt lat="44.10825" lon="2.99403">
        <ele>472.2</ele>
        <time>2018-05-19T10:56:38Z</time>
      </trkpt>
      <trkpt lat="44.10828" lon="2.99403">
        <ele>472.4</ele>
        <time>2018-05-19T10:56:39Z</time>
      </trkpt>
      <trkpt lat="44.10832" lon="2.99404">
        <ele>472.5</ele>
        <time>2018-05-19T10:56:40Z</time>
      </trkpt>
      <trkpt lat="44.10836" lon="2.99404">
        <ele>472.7</ele>
        <time>2018-05-19T10:56:41Z</time>
      </trkpt>
      <trkpt lat="44.10839" lon="2.99404">
        <ele>472.9</ele>
        <time>2018-05-19T10:56:42Z</time>
      </trkpt>
      <trkpt lat="44.10843" lon="2.99405">
        <ele>473</ele>
        <time>2018-05-19T10:56:43Z</time>
      </trkpt>
      <trkpt lat="44.10847" lon="2.99405">
        <ele>473.2</ele>
        <time>2018-05-19T10:56:44Z</time>
      </trkpt>
      <trkpt lat="44.1085" lon="2.99406">
        <ele>473.4</ele>
        <time>2018-05-19T10:56:45Z</time>
      </trkpt>
      <trkpt lat="44.10854" lon="2.99407">
        <ele>473.5</ele>
        <time>2018-05-19T10:56:46Z</time>
      </trkpt>
      <trkpt lat="44.10858" lon="2.99408">
        <ele>473.7</ele>
        <time>2018-05-19T10:56:47Z</time>
      </trkpt>
      <trkpt lat="44.10861" lon="2.99408">
        <ele>473.9</ele>
        <time>2018-05-19T10:56:48Z</time>
      </trkpt>
      <trkpt lat="44.10865" lon="2.99409">
        <ele>474</ele>
        <time>2018-05-19T10:56:49Z</time>
      </trkpt>
      <trkpt lat="44.10869" lon="2.9941">
        <ele>474.2</ele>
        <time>2018-05-19T10:56:50Z</time>
      </trkpt>
      <trkpt lat="44.10873" lon="2.9941">
        <ele>474.3</ele>
        <time>2018-05-19T10:56:51Z</time>
      </trkpt>
      <trkpt lat="44.10877" lon="2.99411">
        <ele>474.4</ele>
        <time>2018-05-19T10:56:52Z</time>
      </trkpt>
      <trkpt lat="44.1088" lon="2.99411">
        <ele>474.5</ele>
        <time>2018-05-19T10:56:53Z</time>
      </trkpt>
      <trkpt lat="44.10883" lon="2.99412">
        <ele>474.6</ele>
        <time>2018-05-19T10:56:54Z</time>
      </trkpt>
      <trkpt lat="44.10887" lon="2.99412">
        <ele>474.7</ele>
        <time>2018-05-19T10:56:55Z</time>
      </trkpt>
      <trkpt lat="44.10891" lon="2.99413">
        <ele>474.8</ele>
        <time>2018-05-19T10:56:56Z</time>
      </trkpt>
      <trkpt lat="44.10894" lon="2.99414">
        <ele>474.9</ele>
        <time>2018-05-19T10:56:57Z</time>
      </trkpt>
      <trkpt lat="44.10898" lon="2.99416">
        <ele>474.9</ele>
        <time>2018-05-19T10:56:58Z</time>
      </trkpt>
      <trkpt lat="44.10901" lon="2.99417">
        <ele>475</ele>
        <time>2018-05-19T10:56:59Z</time>
      </trkpt>
      <trkpt lat="44.10905" lon="2.99418">
        <ele>475</ele>
        <time>2018-05-19T10:57:00Z</time>
      </trkpt>
      <trkpt lat="44.10909" lon="2.99419">
        <ele>475.1</ele>
        <time>2018-05-19T10:57:01Z</time>
      </trkpt>
      <trkpt lat="44.10913" lon="2.9942">
        <ele>475.1</ele>
        <time>2018-05-19T10:57:02Z</time>
      </trkpt>
      <trkpt lat="44.10916" lon="2.99421">
        <ele>475.1</ele>
        <time>2018-05-19T10:57:03Z</time>
      </trkpt>
      <trkpt lat="44.1092" lon="2.99422">
        <ele>475.2</ele>
        <time>2018-05-19T10:57:04Z</time>
      </trkpt>
      <trkpt lat="44.10924" lon="2.99422">
        <ele>475.2</ele>
        <time>2018-05-19T10:57:05Z</time>
      </trkpt>
      <trkpt lat="44.10928" lon="2.99423">
        <ele>475.3</ele>
        <time>2018-05-19T10:57:06Z</time>
      </trkpt>
      <trkpt lat="44.10932" lon="2.99424">
        <ele>475.3</ele>
        <time>2018-05-19T10:57:07Z</time>
      </trkpt>
      <trkpt lat="44.10936" lon="2.99425">
        <ele>475.3</ele>
        <time>2018-05-19T10:57:08Z</time>
      </trkpt>
      <trkpt lat="44.1094" lon="2.99425">
        <ele>475.4</ele>
        <time>2018-05-19T10:57:09Z</time>
      </trkpt>
      <trkpt lat="44.10943" lon="2.99425">
        <ele>475.4</ele>
        <time>2018-05-19T10:57:10Z</time>
      </trkpt>
      <trkpt lat="44.10947" lon="2.99426">
        <ele>475.5</ele>
        <time>2018-05-19T10:57:11Z</time>
      </trkpt>
      <trkpt lat="44.10951" lon="2.99427">
        <ele>475.6</ele>
        <time>2018-05-19T10:57:12Z</time>
      </trkpt>
      <trkpt lat="44.10955" lon="2.99427">
        <ele>475.7</ele>
        <time>2018-05-19T10:57:13Z</time>
      </trkpt>
      <trkpt lat="44.1096" lon="2.99428">
        <ele>475.8</ele>
        <time>2018-05-19T10:57:14Z</time>
      </trkpt>
      <trkpt lat="44.10964" lon="2.99428">
        <ele>476</ele>
        <time>2018-05-19T10:57:15Z</time>
      </trkpt>
      <trkpt lat="44.10968" lon="2.99428">
        <ele>476.1</ele>
        <time>2018-05-19T10:57:16Z</time>
      </trkpt>
      <trkpt lat="44.10972" lon="2.99428">
        <ele>476.3</ele>
        <time>2018-05-19T10:57:17Z</time>
      </trkpt>
      <trkpt lat="44.10976" lon="2.99429">
        <ele>476.5</ele>
        <time>2018-05-19T10:57:18Z</time>
      </trkpt>
      <trkpt lat="44.10981" lon="2.99429">
        <ele>476.7</ele>
        <time>2018-05-19T10:57:19Z</time>
      </trkpt>
      <trkpt lat="44.10985" lon="2.99429">
        <ele>476.9</ele>
        <time>2018-05-19T10:57:20Z</time>
      </trkpt>
      <trkpt lat="44.1099" lon="2.9943">
        <ele>477.1</ele>
        <time>2018-05-19T10:57:21Z</time>
      </trkpt>
      <trkpt lat="44.10995" lon="2.9943">
        <ele>477.2</ele>
        <time>2018-05-19T10:57:22Z</time>
      </trkpt>
      <trkpt lat="44.10998" lon="2.99431">
        <ele>477.4</ele>
        <time>2018-05-19T10:57:23Z</time>
      </trkpt>
      <trkpt lat="44.11003" lon="2.99431">
        <ele>477.5</ele>
        <time>2018-05-19T10:57:24Z</time>
      </trkpt>
      <trkpt lat="44.11007" lon="2.99432">
        <ele>477.6</ele>
        <time>2018-05-19T10:57:25Z</time>
      </trkpt>
      <trkpt lat="44.11011" lon="2.99434">
        <ele>477.7</ele>
        <time>2018-05-19T10:57:26Z</time>
      </trkpt>
      <trkpt lat="44.11015" lon="2.99435">
        <ele>477.8</ele>
        <time>2018-05-19T10:57:27Z</time>
      </trkpt>
      <trkpt lat="44.11019" lon="2.99437">
        <ele>477.8</ele>
        <time>2018-05-19T10:57:28Z</time>
      </trkpt>
      <trkpt lat="44.11022" lon="2.9944">
        <ele>477.9</ele>
        <time>2018-05-19T10:57:29Z</time>
      </trkpt>
      <trkpt lat="44.11025" lon="2.99443">
        <ele>477.9</ele>
        <time>2018-05-19T10:57:30Z</time>
      </trkpt>
      <trkpt lat="44.11029" lon="2.99448">
        <ele>477.9</ele>
        <time>2018-05-19T10:57:31Z</time>
      </trkpt>
      <trkpt lat="44.11033" lon="2.99452">
        <ele>478</ele>
        <time>2018-05-19T10:57:32Z</time>
      </trkpt>
      <trkpt lat="44.11036" lon="2.99456">
        <ele>478.6</ele>
        <time>2018-05-19T10:57:33Z</time>
      </trkpt>
      <trkpt lat="44.1104" lon="2.99461">
        <ele>479.1</ele>
        <time>2018-05-19T10:57:34Z</time>
      </trkpt>
      <trkpt lat="44.11043" lon="2.99465">
        <ele>479.6</ele>
        <time>2018-05-19T10:57:35Z</time>
      </trkpt>
      <trkpt lat="44.11046" lon="2.99468">
        <ele>480</ele>
        <time>2018-05-19T10:57:36Z</time>
      </trkpt>
      <trkpt lat="44.11049" lon="2.99472">
        <ele>480.3</ele>
        <time>2018-05-19T10:57:37Z</time>
      </trkpt>
      <trkpt lat="44.11051" lon="2.99476">
        <ele>480.4</ele>
        <time>2018-05-19T10:57:38Z</time>
      </trkpt>
      <trkpt lat="44.11054" lon="2.99479">
        <ele>480.6</ele>
        <time>2018-05-19T10:57:39Z</time>
      </trkpt>
      <trkpt lat="44.11057" lon="2.99483">
        <ele>480.8</ele>
        <time>2018-05-19T10:57:40Z</time>
      </trkpt>
      <trkpt lat="44.1106" lon="2.99487">
        <ele>480.9</ele>
        <time>2018-05-19T10:57:41Z</time>
      </trkpt>
      <trkpt lat="44.11062" lon="2.99491">
        <ele>481</ele>
        <time>2018-05-19T10:57:42Z</time>
      </trkpt>
      <trkpt lat="44.11065" lon="2.99495">
        <ele>481.1</ele>
        <time>2018-05-19T10:57:43Z</time>
      </trkpt>
      <trkpt lat="44.11068" lon="2.99498">
        <ele>481.2</ele>
        <time>2018-05-19T10:57:44Z</time>
      </trkpt>
      <trkpt lat="44.11071" lon="2.99502">
        <ele>481.3</ele>
        <time>2018-05-19T10:57:45Z</time>
      </trkpt>
      <trkpt lat="44.11074" lon="2.99506">
        <ele>481.4</ele>
        <time>2018-05-19T10:57:46Z</time>
      </trkpt>
      <trkpt lat="44.11077" lon="2.99509">
        <ele>481.6</ele>
        <time>2018-05-19T10:57:47Z</time>
      </trkpt>
      <trkpt lat="44.1108" lon="2.99513">
        <ele>481.7</ele>
        <time>2018-05-19T10:57:48Z</time>
      </trkpt>
      <trkpt lat="44.11083" lon="2.99517">
        <ele>481.9</ele>
        <time>2018-05-19T10:57:49Z</time>
      </trkpt>
      <trkpt lat="44.11086" lon="2.9952">
        <ele>482.1</ele>
        <time>2018-05-19T10:57:50Z</time>
      </trkpt>
      <trkpt lat="44.1109" lon="2.99524">
        <ele>482.4</ele>
        <time>2018-05-19T10:57:51Z</time>
      </trkpt>
      <trkpt lat="44.11093" lon="2.99527">
        <ele>482.6</ele>
        <time>2018-05-19T10:57:52Z</time>
      </trkpt>
      <trkpt lat="44.11096" lon="2.99531">
        <ele>482.9</ele>
        <time>2018-05-19T10:57:53Z</time>
      </trkpt>
      <trkpt lat="44.111" lon="2.99534">
        <ele>483.2</ele>
        <time>2018-05-19T10:57:54Z</time>
      </trkpt>
      <trkpt lat="44.11103" lon="2.99537">
        <ele>483.6</ele>
        <time>2018-05-19T10:57:55Z</time>
      </trkpt>
      <trkpt lat="44.11106" lon="2.9954">
        <ele>483.8</ele>
        <time>2018-05-19T10:57:56Z</time>
      </trkpt>
      <trkpt lat="44.11109" lon="2.99543">
        <ele>484.2</ele>
        <time>2018-05-19T10:57:57Z</time>
      </trkpt>
      <trkpt lat="44.11112" lon="2.99547">
        <ele>484.6</ele>
        <time>2018-05-19T10:57:58Z</time>
      </trkpt>
      <trkpt lat="44.11115" lon="2.99551">
        <ele>485</ele>
        <time>2018-05-19T10:57:59Z</time>
      </trkpt>
      <trkpt lat="44.11118" lon="2.99554">
        <ele>485.4</ele>
        <time>2018-05-19T10:58:00Z</time>
      </trkpt>
      <trkpt lat="44.1112" lon="2.99557">
        <ele>485.6</ele>
        <time>2018-05-19T10:58:01Z</time>
      </trkpt>
      <trkpt lat="44.11123" lon="2.99561">
        <ele>485.9</ele>
        <time>2018-05-19T10:58:02Z</time>
      </trkpt>
      <trkpt lat="44.11125" lon="2.99564">
        <ele>486.1</ele>
        <time>2018-05-19T10:58:03Z</time>
      </trkpt>
      <trkpt lat="44.11128" lon="2.99568">
        <ele>486.2</ele>
        <time>2018-05-19T10:58:04Z</time>
      </trkpt>
      <trkpt lat="44.1113" lon="2.99571">
        <ele>486.3</ele>
        <time>2018-05-19T10:58:05Z</time>
      </trkpt>
      <trkpt lat="44.11132" lon="2.99575">
        <ele>486.4</ele>
        <time>2018-05-19T10:58:06Z</time>
      </trkpt>
      <trkpt lat="44.11135" lon="2.99579">
        <ele>486.5</ele>
        <time>2018-05-19T10:58:07Z</time>
      </trkpt>
      <trkpt lat="44.11137" lon="2.99583">
        <ele>486.6</ele>
        <time>2018-05-19T10:58:08Z</time>
      </trkpt>
      <trkpt lat="44.1114" lon="2.99587">
        <ele>486.7</ele>
        <time>2018-05-19T10:58:09Z</time>
      </trkpt>
      <trkpt lat="44.11142" lon="2.9959">
        <ele>486.8</ele>
        <time>2018-05-19T10:58:10Z</time>
      </trkpt>
      <trkpt lat="44.11145" lon="2.99594">
        <ele>487</ele>
        <time>2018-05-19T10:58:11Z</time>
      </trkpt>
      <trkpt lat="44.11147" lon="2.99598">
        <ele>487.2</ele>
        <time>2018-05-19T10:58:12Z</time>
      </trkpt>
      <trkpt lat="44.1115" lon="2.99602">
        <ele>487.5</ele>
        <time>2018-05-19T10:58:13Z</time>
      </trkpt>
      <trkpt lat="44.11152" lon="2.99607">
        <ele>487.8</ele>
        <time>2018-05-19T10:58:14Z</time>
      </trkpt>
      <trkpt lat="44.11155" lon="2.99611">
        <ele>488.1</ele>
        <time>2018-05-19T10:58:15Z</time>
      </trkpt>
      <trkpt lat="44.11158" lon="2.99615">
        <ele>488.4</ele>
        <time>2018-05-19T10:58:16Z</time>
      </trkpt>
      <trkpt lat="44.1116" lon="2.99619">
        <ele>488.6</ele>
        <time>2018-05-19T10:58:17Z</time>
      </trkpt>
      <trkpt lat="44.11163" lon="2.99623">
        <ele>488.8</ele>
        <time>2018-05-19T10:58:18Z</time>
      </trkpt>
      <trkpt lat="44.11165" lon="2.99626">
        <ele>488.9</ele>
        <time>2018-05-19T10:58:19Z</time>
      </trkpt>
      <trkpt lat="44.11167" lon="2.99629">
        <ele>489</ele>
        <time>2018-05-19T10:58:20Z</time>
      </trkpt>
      <trkpt lat="44.11169" lon="2.99634">
        <ele>489.2</ele>
        <time>2018-05-19T10:58:22Z</time>
      </trkpt>
      <trkpt lat="44.11169" lon="2.99639">
        <ele>489.3</ele>
        <time>2018-05-19T10:58:24Z</time>
      </trkpt>
      <trkpt lat="44.11167" lon="2.99644">
        <ele>489.4</ele>
        <time>2018-05-19T10:58:26Z</time>
      </trkpt>
      <trkpt lat="44.11165" lon="2.99648">
        <ele>489.5</ele>
        <time>2018-05-19T10:58:28Z</time>
      </trkpt>
      <trkpt lat="44.11163" lon="2.99653">
        <ele>489.5</ele>
        <time>2018-05-19T10:58:30Z</time>
      </trkpt>
      <trkpt lat="44.11163" lon="2.99658">
        <ele>489.5</ele>
        <time>2018-05-19T10:58:32Z</time>
      </trkpt>
      <trkpt lat="44.11162" lon="2.99663">
        <ele>489.6</ele>
        <time>2018-05-19T10:58:34Z</time>
      </trkpt>
      <trkpt lat="44.11163" lon="2.99669">
        <ele>489.6</ele>
        <time>2018-05-19T10:58:36Z</time>
      </trkpt>
      <trkpt lat="44.11164" lon="2.99674">
        <ele>489.6</ele>
        <time>2018-05-19T10:58:38Z</time>
      </trkpt>
      <trkpt lat="44.11167" lon="2.99679">
        <ele>489.6</ele>
        <time>2018-05-19T10:58:40Z</time>
      </trkpt>
      <trkpt lat="44.11169" lon="2.99684">
        <ele>489.7</ele>
        <time>2018-05-19T10:58:42Z</time>
      </trkpt>
      <trkpt lat="44.11172" lon="2.9969">
        <ele>489.7</ele>
        <time>2018-05-19T10:58:44Z</time>
      </trkpt>
      <trkpt lat="44.11175" lon="2.99695">
        <ele>489.7</ele>
        <time>2018-05-19T10:58:46Z</time>
      </trkpt>
      <trkpt lat="44.11177" lon="2.997">
        <ele>489.8</ele>
        <time>2018-05-19T10:58:48Z</time>
      </trkpt>
      <trkpt lat="44.1118" lon="2.99706">
        <ele>489.8</ele>
        <time>2018-05-19T10:58:50Z</time>
      </trkpt>
      <trkpt lat="44.11182" lon="2.99712">
        <ele>489.9</ele>
        <time>2018-05-19T10:58:52Z</time>
      </trkpt>
      <trkpt lat="44.11184" lon="2.99715">
        <ele>489.9</ele>
        <time>2018-05-19T10:58:53Z</time>
      </trkpt>
      <trkpt lat="44.11185" lon="2.99719">
        <ele>489.9</ele>
        <time>2018-05-19T10:58:54Z</time>
      </trkpt>
      <trkpt lat="44.11186" lon="2.99722">
        <ele>489.9</ele>
        <time>2018-05-19T10:58:55Z</time>
      </trkpt>
      <trkpt lat="44.11189" lon="2.99728">
        <ele>490.1</ele>
        <time>2018-05-19T10:58:57Z</time>
      </trkpt>
      <trkpt lat="44.11191" lon="2.99732">
        <ele>490.1</ele>
        <time>2018-05-19T10:58:58Z</time>
      </trkpt>
      <trkpt lat="44.11192" lon="2.99735">
        <ele>490.2</ele>
        <time>2018-05-19T10:58:59Z</time>
      </trkpt>
      <trkpt lat="44.11194" lon="2.99741">
        <ele>490.4</ele>
        <time>2018-05-19T10:59:01Z</time>
      </trkpt>
      <trkpt lat="44.11197" lon="2.99748">
        <ele>490.6</ele>
        <time>2018-05-19T10:59:03Z</time>
      </trkpt>
      <trkpt lat="44.11198" lon="2.99752">
        <ele>490.7</ele>
        <time>2018-05-19T10:59:04Z</time>
      </trkpt>
      <trkpt lat="44.112" lon="2.99756">
        <ele>490.8</ele>
        <time>2018-05-19T10:59:05Z</time>
      </trkpt>
      <trkpt lat="44.11201" lon="2.9976">
        <ele>491</ele>
        <time>2018-05-19T10:59:06Z</time>
      </trkpt>
      <trkpt lat="44.11203" lon="2.99764">
        <ele>491.1</ele>
        <time>2018-05-19T10:59:07Z</time>
      </trkpt>
      <trkpt lat="44.11204" lon="2.99768">
        <ele>491.3</ele>
        <time>2018-05-19T10:59:08Z</time>
      </trkpt>
      <trkpt lat="44.11205" lon="2.99772">
        <ele>491.4</ele>
        <time>2018-05-19T10:59:09Z</time>
      </trkpt>
      <trkpt lat="44.11206" lon="2.99775">
        <ele>491.6</ele>
        <time>2018-05-19T10:59:10Z</time>
      </trkpt>
      <trkpt lat="44.11207" lon="2.99779">
        <ele>491.7</ele>
        <time>2018-05-19T10:59:11Z</time>
      </trkpt>
      <trkpt lat="44.11208" lon="2.99784">
        <ele>491.9</ele>
        <time>2018-05-19T10:59:12Z</time>
      </trkpt>
      <trkpt lat="44.11209" lon="2.99788">
        <ele>492</ele>
        <time>2018-05-19T10:59:13Z</time>
      </trkpt>
      <trkpt lat="44.11211" lon="2.99792">
        <ele>492.2</ele>
        <time>2018-05-19T10:59:14Z</time>
      </trkpt>
      <trkpt lat="44.11212" lon="2.99797">
        <ele>492.3</ele>
        <time>2018-05-19T10:59:15Z</time>
      </trkpt>
      <trkpt lat="44.11214" lon="2.99801">
        <ele>492.5</ele>
        <time>2018-05-19T10:59:16Z</time>
      </trkpt>
      <trkpt lat="44.11215" lon="2.99805">
        <ele>492.6</ele>
        <time>2018-05-19T10:59:17Z</time>
      </trkpt>
      <trkpt lat="44.11217" lon="2.99809">
        <ele>492.8</ele>
        <time>2018-05-19T10:59:18Z</time>
      </trkpt>
      <trkpt lat="44.11219" lon="2.99813">
        <ele>492.9</ele>
        <time>2018-05-19T10:59:19Z</time>
      </trkpt>
      <trkpt lat="44.1122" lon="2.99817">
        <ele>493</ele>
        <time>2018-05-19T10:59:20Z</time>
      </trkpt>
      <trkpt lat="44.11222" lon="2.99821">
        <ele>493.1</ele>
        <time>2018-05-19T10:59:21Z</time>
      </trkpt>
      <trkpt lat="44.11224" lon="2.99825">
        <ele>493.2</ele>
        <time>2018-05-19T10:59:22Z</time>
      </trkpt>
      <trkpt lat="44.11225" lon="2.99829">
        <ele>493.3</ele>
        <time>2018-05-19T10:59:23Z</time>
      </trkpt>
      <trkpt lat="44.11227" lon="2.99833">
        <ele>493.4</ele>
        <time>2018-05-19T10:59:24Z</time>
      </trkpt>
      <trkpt lat="44.11229" lon="2.99837">
        <ele>493.5</ele>
        <time>2018-05-19T10:59:25Z</time>
      </trkpt>
      <trkpt lat="44.1123" lon="2.99841">
        <ele>493.5</ele>
        <time>2018-05-19T10:59:26Z</time>
      </trkpt>
      <trkpt lat="44.11232" lon="2.99844">
        <ele>493.6</ele>
        <time>2018-05-19T10:59:27Z</time>
      </trkpt>
      <trkpt lat="44.11234" lon="2.99848">
        <ele>493.6</ele>
        <time>2018-05-19T10:59:28Z</time>
      </trkpt>
      <trkpt lat="44.11236" lon="2.99851">
        <ele>493.7</ele>
        <time>2018-05-19T10:59:29Z</time>
      </trkpt>
      <trkpt lat="44.11238" lon="2.99855">
        <ele>493.7</ele>
        <time>2018-05-19T10:59:30Z</time>
      </trkpt>
      <trkpt lat="44.11239" lon="2.99859">
        <ele>493.8</ele>
        <time>2018-05-19T10:59:31Z</time>
      </trkpt>
      <trkpt lat="44.11241" lon="2.99863">
        <ele>493.8</ele>
        <time>2018-05-19T10:59:32Z</time>
      </trkpt>
      <trkpt lat="44.11243" lon="2.99866">
        <ele>493.9</ele>
        <time>2018-05-19T10:59:33Z</time>
      </trkpt>
      <trkpt lat="44.11245" lon="2.9987">
        <ele>493.9</ele>
        <time>2018-05-19T10:59:34Z</time>
      </trkpt>
      <trkpt lat="44.11246" lon="2.99874">
        <ele>494</ele>
        <time>2018-05-19T10:59:35Z</time>
      </trkpt>
      <trkpt lat="44.11247" lon="2.99878">
        <ele>494.1</ele>
        <time>2018-05-19T10:59:36Z</time>
      </trkpt>
      <trkpt lat="44.11249" lon="2.99882">
        <ele>494.2</ele>
        <time>2018-05-19T10:59:37Z</time>
      </trkpt>
      <trkpt lat="44.1125" lon="2.99886">
        <ele>494.4</ele>
        <time>2018-05-19T10:59:38Z</time>
      </trkpt>
      <trkpt lat="44.11252" lon="2.99891">
        <ele>494.5</ele>
        <time>2018-05-19T10:59:39Z</time>
      </trkpt>
      <trkpt lat="44.11254" lon="2.99895">
        <ele>494.6</ele>
        <time>2018-05-19T10:59:40Z</time>
      </trkpt>
      <trkpt lat="44.11256" lon="2.99898">
        <ele>494.7</ele>
        <time>2018-05-19T10:59:41Z</time>
      </trkpt>
      <trkpt lat="44.11258" lon="2.99902">
        <ele>494.8</ele>
        <time>2018-05-19T10:59:42Z</time>
      </trkpt>
      <trkpt lat="44.11259" lon="2.99906">
        <ele>495</ele>
        <time>2018-05-19T10:59:43Z</time>
      </trkpt>
      <trkpt lat="44.11261" lon="2.9991">
        <ele>495</ele>
        <time>2018-05-19T10:59:44Z</time>
      </trkpt>
      <trkpt lat="44.11262" lon="2.99913">
        <ele>495.1</ele>
        <time>2018-05-19T10:59:45Z</time>
      </trkpt>
      <trkpt lat="44.11264" lon="2.99917">
        <ele>495.2</ele>
        <time>2018-05-19T10:59:46Z</time>
      </trkpt>
      <trkpt lat="44.11265" lon="2.99921">
        <ele>495.2</ele>
        <time>2018-05-19T10:59:47Z</time>
      </trkpt>
      <trkpt lat="44.11267" lon="2.99925">
        <ele>495.3</ele>
        <time>2018-05-19T10:59:48Z</time>
      </trkpt>
      <trkpt lat="44.11269" lon="2.99928">
        <ele>495.4</ele>
        <time>2018-05-19T10:59:49Z</time>
      </trkpt>
      <trkpt lat="44.11271" lon="2.99932">
        <ele>495.4</ele>
        <time>2018-05-19T10:59:50Z</time>
      </trkpt>
      <trkpt lat="44.11272" lon="2.99936">
        <ele>495.5</ele>
        <time>2018-05-19T10:59:51Z</time>
      </trkpt>
      <trkpt lat="44.11274" lon="2.9994">
        <ele>495.6</ele>
        <time>2018-05-19T10:59:52Z</time>
      </trkpt>
      <trkpt lat="44.11275" lon="2.99944">
        <ele>495.8</ele>
        <time>2018-05-19T10:59:53Z</time>
      </trkpt>
      <trkpt lat="44.11277" lon="2.99948">
        <ele>495.9</ele>
        <time>2018-05-19T10:59:54Z</time>
      </trkpt>
      <trkpt lat="44.11279" lon="2.99952">
        <ele>496.1</ele>
        <time>2018-05-19T10:59:55Z</time>
      </trkpt>
      <trkpt lat="44.1128" lon="2.99956">
        <ele>496.2</ele>
        <time>2018-05-19T10:59:56Z</time>
      </trkpt>
      <trkpt lat="44.11282" lon="2.9996">
        <ele>496.4</ele>
        <time>2018-05-19T10:59:57Z</time>
      </trkpt>
      <trkpt lat="44.11283" lon="2.99964">
        <ele>496.5</ele>
        <time>2018-05-19T10:59:58Z</time>
      </trkpt>
      <trkpt lat="44.11285" lon="2.99968">
        <ele>496.6</ele>
        <time>2018-05-19T10:59:59Z</time>
      </trkpt>
      <trkpt lat="44.11287" lon="2.99972">
        <ele>496.7</ele>
        <time>2018-05-19T11:00:00Z</time>
      </trkpt>
      <trkpt lat="44.11288" lon="2.99976">
        <ele>496.9</ele>
        <time>2018-05-19T11:00:01Z</time>
      </trkpt>
      <trkpt lat="44.1129" lon="2.9998">
        <ele>497</ele>
        <time>2018-05-19T11:00:02Z</time>
      </trkpt>
      <trkpt lat="44.11292" lon="2.99983">
        <ele>497</ele>
        <time>2018-05-19T11:00:03Z</time>
      </trkpt>
      <trkpt lat="44.11294" lon="2.99987">
        <ele>497.1</ele>
        <time>2018-05-19T11:00:04Z</time>
      </trkpt>
      <trkpt lat="44.11295" lon="2.9999">
        <ele>497.1</ele>
        <time>2018-05-19T11:00:05Z</time>
      </trkpt>
      <trkpt lat="44.11297" lon="2.99994">
        <ele>497.2</ele>
        <time>2018-05-19T11:00:06Z</time>
      </trkpt>
      <trkpt lat="44.11298" lon="2.99998">
        <ele>497.3</ele>
        <time>2018-05-19T11:00:07Z</time>
      </trkpt>
      <trkpt lat="44.113" lon="3.00002">
        <ele>497.4</ele>
        <time>2018-05-19T11:00:08Z</time>
      </trkpt>
      <trkpt lat="44.11302" lon="3.00006">
        <ele>497.4</ele>
        <time>2018-05-19T11:00:09Z</time>
      </trkpt>
      <trkpt lat="44.11304" lon="3.0001">
        <ele>497.5</ele>
        <time>2018-05-19T11:00:10Z</time>
      </trkpt>
      <trkpt lat="44.11305" lon="3.00014">
        <ele>497.6</ele>
        <time>2018-05-19T11:00:11Z</time>
      </trkpt>
      <trkpt lat="44.11307" lon="3.00019">
        <ele>497.6</ele>
        <time>2018-05-19T11:00:12Z</time>
      </trkpt>
      <trkpt lat="44.11309" lon="3.00023">
        <ele>497.7</ele>
        <time>2018-05-19T11:00:13Z</time>
      </trkpt>
      <trkpt lat="44.11311" lon="3.00027">
        <ele>497.8</ele>
        <time>2018-05-19T11:00:14Z</time>
      </trkpt>
      <trkpt lat="44.11313" lon="3.00031">
        <ele>497.9</ele>
        <time>2018-05-19T11:00:15Z</time>
      </trkpt>
      <trkpt lat="44.11315" lon="3.00036">
        <ele>498</ele>
        <time>2018-05-19T11:00:16Z</time>
      </trkpt>
      <trkpt lat="44.11317" lon="3.0004">
        <ele>498.1</ele>
        <time>2018-05-19T11:00:17Z</time>
      </trkpt>
      <trkpt lat="44.11318" lon="3.00044">
        <ele>498.2</ele>
        <time>2018-05-19T11:00:18Z</time>
      </trkpt>
      <trkpt lat="44.1132" lon="3.00048">
        <ele>498.3</ele>
        <time>2018-05-19T11:00:19Z</time>
      </trkpt>
      <trkpt lat="44.11322" lon="3.00051">
        <ele>498.4</ele>
        <time>2018-05-19T11:00:20Z</time>
      </trkpt>
      <trkpt lat="44.11323" lon="3.00055">
        <ele>498.5</ele>
        <time>2018-05-19T11:00:21Z</time>
      </trkpt>
      <trkpt lat="44.11325" lon="3.00059">
        <ele>498.6</ele>
        <time>2018-05-19T11:00:22Z</time>
      </trkpt>
      <trkpt lat="44.11327" lon="3.00062">
        <ele>498.8</ele>
        <time>2018-05-19T11:00:23Z</time>
      </trkpt>
      <trkpt lat="44.11329" lon="3.00066">
        <ele>498.9</ele>
        <time>2018-05-19T11:00:24Z</time>
      </trkpt>
      <trkpt lat="44.11331" lon="3.00069">
        <ele>499</ele>
        <time>2018-05-19T11:00:25Z</time>
      </trkpt>
      <trkpt lat="44.11333" lon="3.00072">
        <ele>499.1</ele>
        <time>2018-05-19T11:00:26Z</time>
      </trkpt>
      <trkpt lat="44.11335" lon="3.00075">
        <ele>499.2</ele>
        <time>2018-05-19T11:00:27Z</time>
      </trkpt>
      <trkpt lat="44.11338" lon="3.00081">
        <ele>499.3</ele>
        <time>2018-05-19T11:00:29Z</time>
      </trkpt>
      <trkpt lat="44.1134" lon="3.00087">
        <ele>499.4</ele>
        <time>2018-05-19T11:00:31Z</time>
      </trkpt>
      <trkpt lat="44.11344" lon="3.00092">
        <ele>499.5</ele>
        <time>2018-05-19T11:00:33Z</time>
      </trkpt>
      <trkpt lat="44.11347" lon="3.00097">
        <ele>499.6</ele>
        <time>2018-05-19T11:00:35Z</time>
      </trkpt>
      <trkpt lat="44.1135" lon="3.00102">
        <ele>499.8</ele>
        <time>2018-05-19T11:00:37Z</time>
      </trkpt>
      <trkpt lat="44.11353" lon="3.00107">
        <ele>500</ele>
        <time>2018-05-19T11:00:39Z</time>
      </trkpt>
      <trkpt lat="44.11355" lon="3.00113">
        <ele>500.2</ele>
        <time>2018-05-19T11:00:41Z</time>
      </trkpt>
      <trkpt lat="44.11357" lon="3.00119">
        <ele>500.4</ele>
        <time>2018-05-19T11:00:43Z</time>
      </trkpt>
      <trkpt lat="44.11359" lon="3.00124">
        <ele>500.6</ele>
        <time>2018-05-19T11:00:45Z</time>
      </trkpt>
      <trkpt lat="44.11361" lon="3.00129">
        <ele>500.7</ele>
        <time>2018-05-19T11:00:47Z</time>
      </trkpt>
      <trkpt lat="44.11364" lon="3.00134">
        <ele>500.8</ele>
        <time>2018-05-19T11:00:49Z</time>
      </trkpt>
      <trkpt lat="44.11366" lon="3.0014">
        <ele>500.9</ele>
        <time>2018-05-19T11:00:51Z</time>
      </trkpt>
      <trkpt lat="44.11367" lon="3.00143">
        <ele>500.9</ele>
        <time>2018-05-19T11:00:52Z</time>
      </trkpt>
      <trkpt lat="44.11369" lon="3.00147">
        <ele>501</ele>
        <time>2018-05-19T11:00:53Z</time>
      </trkpt>
      <trkpt lat="44.1137" lon="3.00151">
        <ele>501</ele>
        <time>2018-05-19T11:00:54Z</time>
      </trkpt>
      <trkpt lat="44.11372" lon="3.00155">
        <ele>501.1</ele>
        <time>2018-05-19T11:00:55Z</time>
      </trkpt>
      <trkpt lat="44.11374" lon="3.00158">
        <ele>501.1</ele>
        <time>2018-05-19T11:00:56Z</time>
      </trkpt>
      <trkpt lat="44.11376" lon="3.00161">
        <ele>501.1</ele>
        <time>2018-05-19T11:00:57Z</time>
      </trkpt>
      <trkpt lat="44.11377" lon="3.00165">
        <ele>501.2</ele>
        <time>2018-05-19T11:00:58Z</time>
      </trkpt>
      <trkpt lat="44.11379" lon="3.00168">
        <ele>501.2</ele>
        <time>2018-05-19T11:00:59Z</time>
      </trkpt>
      <trkpt lat="44.1138" lon="3.00172">
        <ele>501.3</ele>
        <time>2018-05-19T11:01:00Z</time>
      </trkpt>
      <trkpt lat="44.11382" lon="3.00176">
        <ele>501.3</ele>
        <time>2018-05-19T11:01:01Z</time>
      </trkpt>
      <trkpt lat="44.11384" lon="3.00179">
        <ele>501.3</ele>
        <time>2018-05-19T11:01:02Z</time>
      </trkpt>
      <trkpt lat="44.11386" lon="3.00183">
        <ele>501.4</ele>
        <time>2018-05-19T11:01:03Z</time>
      </trkpt>
      <trkpt lat="44.11388" lon="3.00186">
        <ele>501.4</ele>
        <time>2018-05-19T11:01:04Z</time>
      </trkpt>
      <trkpt lat="44.11391" lon="3.00189">
        <ele>501.4</ele>
        <time>2018-05-19T11:01:05Z</time>
      </trkpt>
      <trkpt lat="44.11393" lon="3.00192">
        <ele>501.4</ele>
        <time>2018-05-19T11:01:06Z</time>
      </trkpt>
      <trkpt lat="44.11396" lon="3.00195">
        <ele>501.5</ele>
        <time>2018-05-19T11:01:07Z</time>
      </trkpt>
      <trkpt lat="44.11398" lon="3.00198">
        <ele>501.5</ele>
        <time>2018-05-19T11:01:08Z</time>
      </trkpt>
      <trkpt lat="44.11402" lon="3.00203">
        <ele>501.6</ele>
        <time>2018-05-19T11:01:10Z</time>
      </trkpt>
      <trkpt lat="44.11405" lon="3.00207">
        <ele>501.7</ele>
        <time>2018-05-19T11:01:12Z</time>
      </trkpt>
      <trkpt lat="44.11408" lon="3.00212">
        <ele>501.7</ele>
        <time>2018-05-19T11:01:14Z</time>
      </trkpt>
      <trkpt lat="44.11411" lon="3.00215">
        <ele>501.9</ele>
        <time>2018-05-19T11:01:16Z</time>
      </trkpt>
      <trkpt lat="44.11413" lon="3.00219">
        <ele>502</ele>
        <time>2018-05-19T11:01:18Z</time>
      </trkpt>
      <trkpt lat="44.11415" lon="3.00222">
        <ele>502.2</ele>
        <time>2018-05-19T11:01:20Z</time>
      </trkpt>
      <trkpt lat="44.11418" lon="3.00225">
        <ele>502.5</ele>
        <time>2018-05-19T11:01:22Z</time>
      </trkpt>
      <trkpt lat="44.11421" lon="3.00228">
        <ele>502.7</ele>
        <time>2018-05-19T11:01:24Z</time>
      </trkpt>
      <trkpt lat="44.11422" lon="3.00232">
        <ele>503.2</ele>
        <time>2018-05-19T11:01:27Z</time>
      </trkpt>
      <trkpt lat="44.11419" lon="3.00234">
        <ele>511.7</ele>
        <time>2018-05-19T11:01:31Z</time>
      </trkpt>
      <trkpt lat="44.11415" lon="3.00233">
        <ele>515.1</ele>
        <time>2018-05-19T11:01:34Z</time>
      </trkpt>
      <trkpt lat="44.11412" lon="3.00232">
        <ele>515.3</ele>
        <time>2018-05-19T11:01:36Z</time>
      </trkpt>
      <trkpt lat="44.11409" lon="3.00229">
        <ele>515.5</ele>
        <time>2018-05-19T11:01:39Z</time>
      </trkpt>
      <trkpt lat="44.11406" lon="3.00226">
        <ele>515.8</ele>
        <time>2018-05-19T11:01:41Z</time>
      </trkpt>
      <trkpt lat="44.11404" lon="3.00224">
        <ele>516</ele>
        <time>2018-05-19T11:01:43Z</time>
      </trkpt>
      <trkpt lat="44.114" lon="3.00222">
        <ele>516.2</ele>
        <time>2018-05-19T11:01:45Z</time>
      </trkpt>
      <trkpt lat="44.11397" lon="3.0022">
        <ele>516.4</ele>
        <time>2018-05-19T11:01:47Z</time>
      </trkpt>
      <trkpt lat="44.11393" lon="3.00219">
        <ele>516.7</ele>
        <time>2018-05-19T11:01:49Z</time>
      </trkpt>
      <trkpt lat="44.11389" lon="3.00218">
        <ele>516.9</ele>
        <time>2018-05-19T11:01:51Z</time>
      </trkpt>
      <trkpt lat="44.11386" lon="3.00216">
        <ele>517.1</ele>
        <time>2018-05-19T11:01:53Z</time>
      </trkpt>
      <trkpt lat="44.11383" lon="3.00214">
        <ele>517.3</ele>
        <time>2018-05-19T11:01:55Z</time>
      </trkpt>
      <trkpt lat="44.11379" lon="3.00211">
        <ele>517.5</ele>
        <time>2018-05-19T11:01:57Z</time>
      </trkpt>
      <trkpt lat="44.11375" lon="3.00209">
        <ele>517.8</ele>
        <time>2018-05-19T11:01:59Z</time>
      </trkpt>
      <trkpt lat="44.11371" lon="3.00207">
        <ele>518</ele>
        <time>2018-05-19T11:02:01Z</time>
      </trkpt>
      <trkpt lat="44.11368" lon="3.00204">
        <ele>518.2</ele>
        <time>2018-05-19T11:02:03Z</time>
      </trkpt>
      <trkpt lat="44.11364" lon="3.00201">
        <ele>518.5</ele>
        <time>2018-05-19T11:02:06Z</time>
      </trkpt>
      <trkpt lat="44.11359" lon="3.002">
        <ele>518.7</ele>
        <time>2018-05-19T11:02:08Z</time>
      </trkpt>
      <trkpt lat="44.11356" lon="3.00199">
        <ele>518.9</ele>
        <time>2018-05-19T11:02:10Z</time>
      </trkpt>
      <trkpt lat="44.11352" lon="3.00197">
        <ele>519.2</ele>
        <time>2018-05-19T11:02:12Z</time>
      </trkpt>
      <trkpt lat="44.11348" lon="3.00196">
        <ele>519.4</ele>
        <time>2018-05-19T11:02:14Z</time>
      </trkpt>
      <trkpt lat="44.11345" lon="3.00194">
        <ele>519.6</ele>
        <time>2018-05-19T11:02:16Z</time>
      </trkpt>
      <trkpt lat="44.11342" lon="3.00193">
        <ele>519.9</ele>
        <time>2018-05-19T11:02:18Z</time>
      </trkpt>
      <trkpt lat="44.11338" lon="3.00192">
        <ele>520.1</ele>
        <time>2018-05-19T11:02:20Z</time>
      </trkpt>
      <trkpt lat="44.11334" lon="3.00191">
        <ele>520.3</ele>
        <time>2018-05-19T11:02:22Z</time>
      </trkpt>
      <trkpt lat="44.11331" lon="3.0019">
        <ele>520.6</ele>
        <time>2018-05-19T11:02:24Z</time>
      </trkpt>
      <trkpt lat="44.11327" lon="3.00188">
        <ele>520.9</ele>
        <time>2018-05-19T11:02:26Z</time>
      </trkpt>
      <trkpt lat="44.11323" lon="3.00187">
        <ele>521.2</ele>
        <time>2018-05-19T11:02:28Z</time>
      </trkpt>
      <trkpt lat="44.1132" lon="3.00185">
        <ele>521.5</ele>
        <time>2018-05-19T11:02:30Z</time>
      </trkpt>
      <trkpt lat="44.11317" lon="3.00183">
        <ele>521.8</ele>
        <time>2018-05-19T11:02:32Z</time>
      </trkpt>
      <trkpt lat="44.11313" lon="3.00181">
        <ele>522.1</ele>
        <time>2018-05-19T11:02:34Z</time>
      </trkpt>
      <trkpt lat="44.1131" lon="3.00177">
        <ele>522.4</ele>
        <time>2018-05-19T11:02:37Z</time>
      </trkpt>
      <trkpt lat="44.11308" lon="3.00173">
        <ele>522.8</ele>
        <time>2018-05-19T11:02:40Z</time>
      </trkpt>
      <trkpt lat="44.11305" lon="3.0017">
        <ele>523.1</ele>
        <time>2018-05-19T11:02:43Z</time>
      </trkpt>
      <trkpt lat="44.11301" lon="3.00168">
        <ele>523.5</ele>
        <time>2018-05-19T11:02:46Z</time>
      </trkpt>
      <trkpt lat="44.11298" lon="3.00167">
        <ele>523.9</ele>
        <time>2018-05-19T11:02:48Z</time>
      </trkpt>
      <trkpt lat="44.11294" lon="3.00166">
        <ele>524.2</ele>
        <time>2018-05-19T11:02:50Z</time>
      </trkpt>
      <trkpt lat="44.11292" lon="3.00165">
        <ele>524.5</ele>
        <time>2018-05-19T11:02:52Z</time>
      </trkpt>
      <trkpt lat="44.11289" lon="3.00162">
        <ele>524.8</ele>
        <time>2018-05-19T11:02:55Z</time>
      </trkpt>
      <trkpt lat="44.11286" lon="3.00159">
        <ele>525.3</ele>
        <time>2018-05-19T11:02:59Z</time>
      </trkpt>
      <trkpt lat="44.11284" lon="3.00157">
        <ele>525.6</ele>
        <time>2018-05-19T11:03:01Z</time>
      </trkpt>
      <trkpt lat="44.11283" lon="3.00153">
        <ele>526.1</ele>
        <time>2018-05-19T11:03:04Z</time>
      </trkpt>
      <trkpt lat="44.11281" lon="3.0015">
        <ele>526.5</ele>
        <time>2018-05-19T11:03:07Z</time>
      </trkpt>
      <trkpt lat="44.11278" lon="3.00146">
        <ele>527.2</ele>
        <time>2018-05-19T11:03:10Z</time>
      </trkpt>
      <trkpt lat="44.11275" lon="3.00144">
        <ele>527.9</ele>
        <time>2018-05-19T11:03:12Z</time>
      </trkpt>
      <trkpt lat="44.11272" lon="3.00142">
        <ele>528.4</ele>
        <time>2018-05-19T11:03:14Z</time>
      </trkpt>
      <trkpt lat="44.11269" lon="3.0014">
        <ele>529.1</ele>
        <time>2018-05-19T11:03:16Z</time>
      </trkpt>
      <trkpt lat="44.11266" lon="3.00137">
        <ele>529.9</ele>
        <time>2018-05-19T11:03:19Z</time>
      </trkpt>
      <trkpt lat="44.11263" lon="3.00135">
        <ele>530.5</ele>
        <time>2018-05-19T11:03:21Z</time>
      </trkpt>
      <trkpt lat="44.11261" lon="3.00133">
        <ele>531.1</ele>
        <time>2018-05-19T11:03:24Z</time>
      </trkpt>
      <trkpt lat="44.11258" lon="3.00131">
        <ele>531.7</ele>
        <time>2018-05-19T11:03:27Z</time>
      </trkpt>
      <trkpt lat="44.11256" lon="3.00129">
        <ele>532.2</ele>
        <time>2018-05-19T11:03:29Z</time>
      </trkpt>
      <trkpt lat="44.11252" lon="3.00126">
        <ele>532.9</ele>
        <time>2018-05-19T11:03:31Z</time>
      </trkpt>
      <trkpt lat="44.11248" lon="3.00124">
        <ele>533.6</ele>
        <time>2018-05-19T11:03:33Z</time>
      </trkpt>
      <trkpt lat="44.11245" lon="3.00122">
        <ele>534.2</ele>
        <time>2018-05-19T11:03:35Z</time>
      </trkpt>
      <trkpt lat="44.11242" lon="3.00121">
        <ele>534.8</ele>
        <time>2018-05-19T11:03:37Z</time>
      </trkpt>
      <trkpt lat="44.11239" lon="3.00119">
        <ele>535.3</ele>
        <time>2018-05-19T11:03:39Z</time>
      </trkpt>
      <trkpt lat="44.11237" lon="3.00116">
        <ele>535.8</ele>
        <time>2018-05-19T11:03:41Z</time>
      </trkpt>
      <trkpt lat="44.11235" lon="3.00112">
        <ele>536.5</ele>
        <time>2018-05-19T11:03:44Z</time>
      </trkpt>
      <trkpt lat="44.11232" lon="3.00109">
        <ele>537</ele>
        <time>2018-05-19T11:03:47Z</time>
      </trkpt>
      <trkpt lat="44.1123" lon="3.00105">
        <ele>537.6</ele>
        <time>2018-05-19T11:03:50Z</time>
      </trkpt>
      <trkpt lat="44.11227" lon="3.00103">
        <ele>538.1</ele>
        <time>2018-05-19T11:03:52Z</time>
      </trkpt>
      <trkpt lat="44.11223" lon="3.00102">
        <ele>538.7</ele>
        <time>2018-05-19T11:03:54Z</time>
      </trkpt>
      <trkpt lat="44.1122" lon="3.00101">
        <ele>539.3</ele>
        <time>2018-05-19T11:03:56Z</time>
      </trkpt>
      <trkpt lat="44.11217" lon="3.001">
        <ele>539.7</ele>
        <time>2018-05-19T11:03:58Z</time>
      </trkpt>
      <trkpt lat="44.11215" lon="3.00097">
        <ele>540.1</ele>
        <time>2018-05-19T11:04:00Z</time>
      </trkpt>
      <trkpt lat="44.11213" lon="3.00092">
        <ele>540.6</ele>
        <time>2018-05-19T11:04:04Z</time>
      </trkpt>
      <trkpt lat="44.11212" lon="3.00089">
        <ele>541</ele>
        <time>2018-05-19T11:04:07Z</time>
      </trkpt>
      <trkpt lat="44.1121" lon="3.00085">
        <ele>541.3</ele>
        <time>2018-05-19T11:04:10Z</time>
      </trkpt>
      <trkpt lat="44.11209" lon="3.00082">
        <ele>541.7</ele>
        <time>2018-05-19T11:04:13Z</time>
      </trkpt>
      <trkpt lat="44.11209" lon="3.00078">
        <ele>542.1</ele>
        <time>2018-05-19T11:04:16Z</time>
      </trkpt>
      <trkpt lat="44.11207" lon="3.00076">
        <ele>542.4</ele>
        <time>2018-05-19T11:04:18Z</time>
      </trkpt>
      <trkpt lat="44.11203" lon="3.00073">
        <ele>542.8</ele>
        <time>2018-05-19T11:04:20Z</time>
      </trkpt>
      <trkpt lat="44.112" lon="3.00071">
        <ele>543.2</ele>
        <time>2018-05-19T11:04:22Z</time>
      </trkpt>
      <trkpt lat="44.11196" lon="3.00069">
        <ele>543.6</ele>
        <time>2018-05-19T11:04:25Z</time>
      </trkpt>
      <trkpt lat="44.11193" lon="3.00065">
        <ele>544.1</ele>
        <time>2018-05-19T11:04:28Z</time>
      </trkpt>
      <trkpt lat="44.1119" lon="3.00063">
        <ele>544.4</ele>
        <time>2018-05-19T11:04:30Z</time>
      </trkpt>
      <trkpt lat="44.11185" lon="3.0006">
        <ele>544.9</ele>
        <time>2018-05-19T11:04:32Z</time>
      </trkpt>
      <trkpt lat="44.11183" lon="3.00059">
        <ele>545.2</ele>
        <time>2018-05-19T11:04:33Z</time>
      </trkpt>
      <trkpt lat="44.11178" lon="3.00056">
        <ele>545.7</ele>
        <time>2018-05-19T11:04:35Z</time>
      </trkpt>
      <trkpt lat="44.11175" lon="3.00053">
        <ele>546</ele>
        <time>2018-05-19T11:04:37Z</time>
      </trkpt>
      <trkpt lat="44.11171" lon="3.0005">
        <ele>546.5</ele>
        <time>2018-05-19T11:04:39Z</time>
      </trkpt>
      <trkpt lat="44.11167" lon="3.00049">
        <ele>546.8</ele>
        <time>2018-05-19T11:04:41Z</time>
      </trkpt>
      <trkpt lat="44.11164" lon="3.00048">
        <ele>547.2</ele>
        <time>2018-05-19T11:04:43Z</time>
      </trkpt>
      <trkpt lat="44.1116" lon="3.00046">
        <ele>547.6</ele>
        <time>2018-05-19T11:04:45Z</time>
      </trkpt>
      <trkpt lat="44.11156" lon="3.00044">
        <ele>548</ele>
        <time>2018-05-19T11:04:48Z</time>
      </trkpt>
      <trkpt lat="44.11154" lon="3.00042">
        <ele>548.3</ele>
        <time>2018-05-19T11:04:51Z</time>
      </trkpt>
      <trkpt lat="44.11151" lon="3.00038">
        <ele>548.6</ele>
        <time>2018-05-19T11:04:54Z</time>
      </trkpt>
      <trkpt lat="44.11149" lon="3.00034">
        <ele>549</ele>
        <time>2018-05-19T11:04:57Z</time>
      </trkpt>
      <trkpt lat="44.11148" lon="3.0003">
        <ele>549.3</ele>
        <time>2018-05-19T11:05:00Z</time>
      </trkpt>
      <trkpt lat="44.11147" lon="3.00025">
        <ele>549.7</ele>
        <time>2018-05-19T11:05:03Z</time>
      </trkpt>
      <trkpt lat="44.11145" lon="3.00021">
        <ele>550.1</ele>
        <time>2018-05-19T11:05:06Z</time>
      </trkpt>
      <trkpt lat="44.11143" lon="3.00018">
        <ele>550.4</ele>
        <time>2018-05-19T11:05:08Z</time>
      </trkpt>
      <trkpt lat="44.11141" lon="3.00016">
        <ele>550.7</ele>
        <time>2018-05-19T11:05:10Z</time>
      </trkpt>
      <trkpt lat="44.1114" lon="3.00012">
        <ele>551</ele>
        <time>2018-05-19T11:05:13Z</time>
      </trkpt>
      <trkpt lat="44.11137" lon="3.00007">
        <ele>551.4</ele>
        <time>2018-05-19T11:05:16Z</time>
      </trkpt>
      <trkpt lat="44.11136" lon="3.00004">
        <ele>551.7</ele>
        <time>2018-05-19T11:05:18Z</time>
      </trkpt>
      <trkpt lat="44.11136" lon="2.99999">
        <ele>552.1</ele>
        <time>2018-05-19T11:05:22Z</time>
      </trkpt>
      <trkpt lat="44.11136" lon="2.99993">
        <ele>552.5</ele>
        <time>2018-05-19T11:05:25Z</time>
      </trkpt>
      <trkpt lat="44.11134" lon="2.99989">
        <ele>552.9</ele>
        <time>2018-05-19T11:05:27Z</time>
      </trkpt>
      <trkpt lat="44.11131" lon="2.99986">
        <ele>553.3</ele>
        <time>2018-05-19T11:05:29Z</time>
      </trkpt>
      <trkpt lat="44.11129" lon="2.99982">
        <ele>553.7</ele>
        <time>2018-05-19T11:05:31Z</time>
      </trkpt>
      <trkpt lat="44.11125" lon="2.99979">
        <ele>554.1</ele>
        <time>2018-05-19T11:05:34Z</time>
      </trkpt>
      <trkpt lat="44.11122" lon="2.99977">
        <ele>554.5</ele>
        <time>2018-05-19T11:05:36Z</time>
      </trkpt>
      <trkpt lat="44.11119" lon="2.99975">
        <ele>554.9</ele>
        <time>2018-05-19T11:05:38Z</time>
      </trkpt>
      <trkpt lat="44.11116" lon="2.99974">
        <ele>555.2</ele>
        <time>2018-05-19T11:05:40Z</time>
      </trkpt>
      <trkpt lat="44.11113" lon="2.9997">
        <ele>555.6</ele>
        <time>2018-05-19T11:05:43Z</time>
      </trkpt>
      <trkpt lat="44.11111" lon="2.99967">
        <ele>556</ele>
        <time>2018-05-19T11:05:45Z</time>
      </trkpt>
      <trkpt lat="44.11108" lon="2.99965">
        <ele>556.3</ele>
        <time>2018-05-19T11:05:47Z</time>
      </trkpt>
      <trkpt lat="44.11106" lon="2.99961">
        <ele>556.6</ele>
        <time>2018-05-19T11:05:49Z</time>
      </trkpt>
      <trkpt lat="44.11105" lon="2.99958">
        <ele>556.9</ele>
        <time>2018-05-19T11:05:51Z</time>
      </trkpt>
      <trkpt lat="44.11103" lon="2.99954">
        <ele>557.3</ele>
        <time>2018-05-19T11:05:53Z</time>
      </trkpt>
      <trkpt lat="44.11101" lon="2.99951">
        <ele>557.6</ele>
        <time>2018-05-19T11:05:55Z</time>
      </trkpt>
      <trkpt lat="44.11101" lon="2.99946">
        <ele>558.1</ele>
        <time>2018-05-19T11:05:58Z</time>
      </trkpt>
      <trkpt lat="44.11099" lon="2.99943">
        <ele>558.4</ele>
        <time>2018-05-19T11:06:00Z</time>
      </trkpt>
      <trkpt lat="44.11095" lon="2.99941">
        <ele>558.9</ele>
        <time>2018-05-19T11:06:02Z</time>
      </trkpt>
      <trkpt lat="44.11091" lon="2.99938">
        <ele>559.5</ele>
        <time>2018-05-19T11:06:04Z</time>
      </trkpt>
      <trkpt lat="44.11088" lon="2.99936">
        <ele>559.9</ele>
        <time>2018-05-19T11:06:06Z</time>
      </trkpt>
      <trkpt lat="44.11085" lon="2.99931">
        <ele>560.4</ele>
        <time>2018-05-19T11:06:09Z</time>
      </trkpt>
      <trkpt lat="44.11081" lon="2.99929">
        <ele>561</ele>
        <time>2018-05-19T11:06:11Z</time>
      </trkpt>
      <trkpt lat="44.11076" lon="2.99926">
        <ele>561.6</ele>
        <time>2018-05-19T11:06:13Z</time>
      </trkpt>
      <trkpt lat="44.11072" lon="2.99924">
        <ele>562.1</ele>
        <time>2018-05-19T11:06:15Z</time>
      </trkpt>
      <trkpt lat="44.11069" lon="2.99921">
        <ele>562.6</ele>
        <time>2018-05-19T11:06:17Z</time>
      </trkpt>
      <trkpt lat="44.11067" lon="2.99918">
        <ele>563</ele>
        <time>2018-05-19T11:06:19Z</time>
      </trkpt>
      <trkpt lat="44.11065" lon="2.99914">
        <ele>563.4</ele>
        <time>2018-05-19T11:06:22Z</time>
      </trkpt>
      <trkpt lat="44.11062" lon="2.99909">
        <ele>563.9</ele>
        <time>2018-05-19T11:06:25Z</time>
      </trkpt>
      <trkpt lat="44.1106" lon="2.99907">
        <ele>564.2</ele>
        <time>2018-05-19T11:06:27Z</time>
      </trkpt>
      <trkpt lat="44.11057" lon="2.99905">
        <ele>564.5</ele>
        <time>2018-05-19T11:06:29Z</time>
      </trkpt>
      <trkpt lat="44.11056" lon="2.99902">
        <ele>564.8</ele>
        <time>2018-05-19T11:06:32Z</time>
      </trkpt>
      <trkpt lat="44.11054" lon="2.99898">
        <ele>565.2</ele>
        <time>2018-05-19T11:06:36Z</time>
      </trkpt>
      <trkpt lat="44.11052" lon="2.99894">
        <ele>565.5</ele>
        <time>2018-05-19T11:06:39Z</time>
      </trkpt>
      <trkpt lat="44.1105" lon="2.9989">
        <ele>565.8</ele>
        <time>2018-05-19T11:06:42Z</time>
      </trkpt>
      <trkpt lat="44.11049" lon="2.99886">
        <ele>566.2</ele>
        <time>2018-05-19T11:06:45Z</time>
      </trkpt>
      <trkpt lat="44.11047" lon="2.99883">
        <ele>566.4</ele>
        <time>2018-05-19T11:06:47Z</time>
      </trkpt>
      <trkpt lat="44.11044" lon="2.9988">
        <ele>566.8</ele>
        <time>2018-05-19T11:06:50Z</time>
      </trkpt>
      <trkpt lat="44.11042" lon="2.99877">
        <ele>567</ele>
        <time>2018-05-19T11:06:52Z</time>
      </trkpt>
      <trkpt lat="44.11039" lon="2.99873">
        <ele>567.4</ele>
        <time>2018-05-19T11:06:55Z</time>
      </trkpt>
      <trkpt lat="44.11036" lon="2.9987">
        <ele>567.7</ele>
        <time>2018-05-19T11:06:57Z</time>
      </trkpt>
      <trkpt lat="44.11034" lon="2.99866">
        <ele>568.1</ele>
        <time>2018-05-19T11:07:00Z</time>
      </trkpt>
      <trkpt lat="44.11034" lon="2.99861">
        <ele>568.4</ele>
        <time>2018-05-19T11:07:03Z</time>
      </trkpt>
      <trkpt lat="44.11033" lon="2.99858">
        <ele>568.6</ele>
        <time>2018-05-19T11:07:05Z</time>
      </trkpt>
      <trkpt lat="44.1103" lon="2.99854">
        <ele>568.9</ele>
        <time>2018-05-19T11:07:07Z</time>
      </trkpt>
      <trkpt lat="44.11028" lon="2.99851">
        <ele>569.2</ele>
        <time>2018-05-19T11:07:09Z</time>
      </trkpt>
      <trkpt lat="44.11027" lon="2.99848">
        <ele>569.4</ele>
        <time>2018-05-19T11:07:11Z</time>
      </trkpt>
      <trkpt lat="44.11024" lon="2.99844">
        <ele>569.7</ele>
        <time>2018-05-19T11:07:14Z</time>
      </trkpt>
      <trkpt lat="44.11022" lon="2.99842">
        <ele>569.9</ele>
        <time>2018-05-19T11:07:16Z</time>
      </trkpt>
      <trkpt lat="44.11018" lon="2.9984">
        <ele>570.2</ele>
        <time>2018-05-19T11:07:18Z</time>
      </trkpt>
      <trkpt lat="44.11016" lon="2.99837">
        <ele>570.4</ele>
        <time>2018-05-19T11:07:20Z</time>
      </trkpt>
      <trkpt lat="44.11013" lon="2.99833">
        <ele>570.7</ele>
        <time>2018-05-19T11:07:23Z</time>
      </trkpt>
      <trkpt lat="44.11011" lon="2.9983">
        <ele>570.9</ele>
        <time>2018-05-19T11:07:25Z</time>
      </trkpt>
      <trkpt lat="44.11007" lon="2.99828">
        <ele>571.2</ele>
        <time>2018-05-19T11:07:27Z</time>
      </trkpt>
      <trkpt lat="44.11003" lon="2.99826">
        <ele>571.5</ele>
        <time>2018-05-19T11:07:29Z</time>
      </trkpt>
      <trkpt lat="44.10999" lon="2.99823">
        <ele>571.8</ele>
        <time>2018-05-19T11:07:31Z</time>
      </trkpt>
      <trkpt lat="44.10996" lon="2.99821">
        <ele>572</ele>
        <time>2018-05-19T11:07:33Z</time>
      </trkpt>
      <trkpt lat="44.10993" lon="2.99817">
        <ele>572.3</ele>
        <time>2018-05-19T11:07:36Z</time>
      </trkpt>
      <trkpt lat="44.1099" lon="2.99815">
        <ele>572.6</ele>
        <time>2018-05-19T11:07:38Z</time>
      </trkpt>
      <trkpt lat="44.10987" lon="2.99812">
        <ele>572.8</ele>
        <time>2018-05-19T11:07:41Z</time>
      </trkpt>
      <trkpt lat="44.10984" lon="2.99808">
        <ele>573.1</ele>
        <time>2018-05-19T11:07:43Z</time>
      </trkpt>
      <trkpt lat="44.10981" lon="2.99805">
        <ele>573.3</ele>
        <time>2018-05-19T11:07:45Z</time>
      </trkpt>
      <trkpt lat="44.10978" lon="2.99802">
        <ele>573.6</ele>
        <time>2018-05-19T11:07:47Z</time>
      </trkpt>
      <trkpt lat="44.10975" lon="2.99801">
        <ele>573.9</ele>
        <time>2018-05-19T11:07:50Z</time>
      </trkpt>
      <trkpt lat="44.10972" lon="2.998">
        <ele>574.1</ele>
        <time>2018-05-19T11:07:52Z</time>
      </trkpt>
      <trkpt lat="44.10969" lon="2.99797">
        <ele>574.4</ele>
        <time>2018-05-19T11:07:54Z</time>
      </trkpt>
      <trkpt lat="44.10966" lon="2.99795">
        <ele>574.7</ele>
        <time>2018-05-19T11:07:56Z</time>
      </trkpt>
      <trkpt lat="44.10962" lon="2.99792">
        <ele>575</ele>
        <time>2018-05-19T11:07:58Z</time>
      </trkpt>
      <trkpt lat="44.10959" lon="2.99789">
        <ele>575.3</ele>
        <time>2018-05-19T11:08:00Z</time>
      </trkpt>
      <trkpt lat="44.10958" lon="2.99786">
        <ele>575.5</ele>
        <time>2018-05-19T11:08:02Z</time>
      </trkpt>
      <trkpt lat="44.10954" lon="2.99783">
        <ele>575.8</ele>
        <time>2018-05-19T11:08:04Z</time>
      </trkpt>
      <trkpt lat="44.10951" lon="2.9978">
        <ele>576</ele>
        <time>2018-05-19T11:08:06Z</time>
      </trkpt>
      <trkpt lat="44.10949" lon="2.99777">
        <ele>576.3</ele>
        <time>2018-05-19T11:08:08Z</time>
      </trkpt>
      <trkpt lat="44.10945" lon="2.99775">
        <ele>576.5</ele>
        <time>2018-05-19T11:08:10Z</time>
      </trkpt>
      <trkpt lat="44.10942" lon="2.99772">
        <ele>576.8</ele>
        <time>2018-05-19T11:08:12Z</time>
      </trkpt>
      <trkpt lat="44.10939" lon="2.99771">
        <ele>577</ele>
        <time>2018-05-19T11:08:14Z</time>
      </trkpt>
      <trkpt lat="44.10936" lon="2.9977">
        <ele>577.3</ele>
        <time>2018-05-19T11:08:17Z</time>
      </trkpt>
      <trkpt lat="44.10933" lon="2.99768">
        <ele>577.5</ele>
        <time>2018-05-19T11:08:19Z</time>
      </trkpt>
      <trkpt lat="44.10929" lon="2.99766">
        <ele>577.8</ele>
        <time>2018-05-19T11:08:21Z</time>
      </trkpt>
      <trkpt lat="44.10926" lon="2.99764">
        <ele>578.1</ele>
        <time>2018-05-19T11:08:23Z</time>
      </trkpt>
      <trkpt lat="44.10923" lon="2.99762">
        <ele>578.4</ele>
        <time>2018-05-19T11:08:25Z</time>
      </trkpt>
      <trkpt lat="44.1092" lon="2.9976">
        <ele>578.7</ele>
        <time>2018-05-19T11:08:27Z</time>
      </trkpt>
      <trkpt lat="44.10916" lon="2.99757">
        <ele>579.1</ele>
        <time>2018-05-19T11:08:29Z</time>
      </trkpt>
      <trkpt lat="44.10913" lon="2.99755">
        <ele>579.5</ele>
        <time>2018-05-19T11:08:31Z</time>
      </trkpt>
      <trkpt lat="44.1091" lon="2.99754">
        <ele>579.8</ele>
        <time>2018-05-19T11:08:33Z</time>
      </trkpt>
      <trkpt lat="44.10907" lon="2.99757">
        <ele>580.3</ele>
        <time>2018-05-19T11:08:36Z</time>
      </trkpt>
      <trkpt lat="44.10907" lon="2.99761">
        <ele>580.7</ele>
        <time>2018-05-19T11:08:39Z</time>
      </trkpt>
      <trkpt lat="44.10909" lon="2.99763">
        <ele>581.1</ele>
        <time>2018-05-19T11:08:42Z</time>
      </trkpt>
      <trkpt lat="44.10912" lon="2.99765">
        <ele>581.5</ele>
        <time>2018-05-19T11:08:52Z</time>
      </trkpt>
      <trkpt lat="44.10914" lon="2.99765">
        <ele>581.9</ele>
        <time>2018-05-19T11:09:45Z</time>
      </trkpt>
      <trkpt lat="44.10917" lon="2.99768">
        <ele>582.6</ele>
        <time>2018-05-19T11:09:48Z</time>
      </trkpt>
      <trkpt lat="44.1092" lon="2.99771">
        <ele>583.4</ele>
        <time>2018-05-19T11:09:51Z</time>
      </trkpt>
      <trkpt lat="44.10921" lon="2.99774">
        <ele>583.9</ele>
        <time>2018-05-19T11:09:53Z</time>
      </trkpt>
      <trkpt lat="44.10923" lon="2.99778">
        <ele>584.6</ele>
        <time>2018-05-19T11:09:55Z</time>
      </trkpt>
      <trkpt lat="44.10925" lon="2.99781">
        <ele>585.2</ele>
        <time>2018-05-19T11:09:57Z</time>
      </trkpt>
      <trkpt lat="44.10928" lon="2.99785">
        <ele>585.9</ele>
        <time>2018-05-19T11:10:00Z</time>
      </trkpt>
      <trkpt lat="44.1093" lon="2.99788">
        <ele>586.4</ele>
        <time>2018-05-19T11:10:02Z</time>
      </trkpt>
      <trkpt lat="44.10932" lon="2.99791">
        <ele>586.8</ele>
        <time>2018-05-19T11:10:04Z</time>
      </trkpt>
      <trkpt lat="44.10934" lon="2.99795">
        <ele>587.3</ele>
        <time>2018-05-19T11:10:07Z</time>
      </trkpt>
      <trkpt lat="44.10936" lon="2.99798">
        <ele>587.7</ele>
        <time>2018-05-19T11:10:09Z</time>
      </trkpt>
      <trkpt lat="44.10938" lon="2.99801">
        <ele>588</ele>
        <time>2018-05-19T11:10:11Z</time>
      </trkpt>
      <trkpt lat="44.10941" lon="2.99804">
        <ele>588.3</ele>
        <time>2018-05-19T11:10:13Z</time>
      </trkpt>
      <trkpt lat="44.10943" lon="2.99807">
        <ele>588.7</ele>
        <time>2018-05-19T11:10:15Z</time>
      </trkpt>
      <trkpt lat="44.10945" lon="2.99812">
        <ele>589</ele>
        <time>2018-05-19T11:10:18Z</time>
      </trkpt>
      <trkpt lat="44.10948" lon="2.99815">
        <ele>589.2</ele>
        <time>2018-05-19T11:10:20Z</time>
      </trkpt>
      <trkpt lat="44.1095" lon="2.99818">
        <ele>589.5</ele>
        <time>2018-05-19T11:10:22Z</time>
      </trkpt>
      <trkpt lat="44.10951" lon="2.99822">
        <ele>589.7</ele>
        <time>2018-05-19T11:10:24Z</time>
      </trkpt>
      <trkpt lat="44.10953" lon="2.99826">
        <ele>589.9</ele>
        <time>2018-05-19T11:10:26Z</time>
      </trkpt>
      <trkpt lat="44.10954" lon="2.9983">
        <ele>590.1</ele>
        <time>2018-05-19T11:10:28Z</time>
      </trkpt>
      <trkpt lat="44.10956" lon="2.99834">
        <ele>590.3</ele>
        <time>2018-05-19T11:10:30Z</time>
      </trkpt>
      <trkpt lat="44.10959" lon="2.99838">
        <ele>590.5</ele>
        <time>2018-05-19T11:10:32Z</time>
      </trkpt>
      <trkpt lat="44.10961" lon="2.99842">
        <ele>590.6</ele>
        <time>2018-05-19T11:10:34Z</time>
      </trkpt>
      <trkpt lat="44.10963" lon="2.99846">
        <ele>590.8</ele>
        <time>2018-05-19T11:10:37Z</time>
      </trkpt>
      <trkpt lat="44.10965" lon="2.9985">
        <ele>590.9</ele>
        <time>2018-05-19T11:10:39Z</time>
      </trkpt>
      <trkpt lat="44.10967" lon="2.99854">
        <ele>591</ele>
        <time>2018-05-19T11:10:41Z</time>
      </trkpt>
      <trkpt lat="44.10968" lon="2.99858">
        <ele>591.2</ele>
        <time>2018-05-19T11:10:43Z</time>
      </trkpt>
      <trkpt lat="44.1097" lon="2.99863">
        <ele>591.3</ele>
        <time>2018-05-19T11:10:45Z</time>
      </trkpt>
      <trkpt lat="44.10971" lon="2.99867">
        <ele>591.5</ele>
        <time>2018-05-19T11:10:47Z</time>
      </trkpt>
      <trkpt lat="44.10973" lon="2.99871">
        <ele>591.7</ele>
        <time>2018-05-19T11:10:49Z</time>
      </trkpt>
      <trkpt lat="44.10975" lon="2.99875">
        <ele>591.9</ele>
        <time>2018-05-19T11:10:51Z</time>
      </trkpt>
      <trkpt lat="44.10977" lon="2.9988">
        <ele>592.1</ele>
        <time>2018-05-19T11:10:53Z</time>
      </trkpt>
      <trkpt lat="44.10978" lon="2.99884">
        <ele>592.3</ele>
        <time>2018-05-19T11:10:55Z</time>
      </trkpt>
      <trkpt lat="44.1098" lon="2.99889">
        <ele>592.5</ele>
        <time>2018-05-19T11:10:57Z</time>
      </trkpt>
      <trkpt lat="44.10982" lon="2.99893">
        <ele>592.8</ele>
        <time>2018-05-19T11:10:59Z</time>
      </trkpt>
      <trkpt lat="44.10984" lon="2.99899">
        <ele>593</ele>
        <time>2018-05-19T11:11:01Z</time>
      </trkpt>
      <trkpt lat="44.10986" lon="2.99904">
        <ele>593.2</ele>
        <time>2018-05-19T11:11:03Z</time>
      </trkpt>
      <trkpt lat="44.10986" lon="2.99909">
        <ele>593.5</ele>
        <time>2018-05-19T11:11:05Z</time>
      </trkpt>
      <trkpt lat="44.10988" lon="2.99915">
        <ele>593.8</ele>
        <time>2018-05-19T11:11:07Z</time>
      </trkpt>
      <trkpt lat="44.1099" lon="2.9992">
        <ele>594</ele>
        <time>2018-05-19T11:11:09Z</time>
      </trkpt>
      <trkpt lat="44.10991" lon="2.99924">
        <ele>594.2</ele>
        <time>2018-05-19T11:11:11Z</time>
      </trkpt>
      <trkpt lat="44.10992" lon="2.99929">
        <ele>594.4</ele>
        <time>2018-05-19T11:11:13Z</time>
      </trkpt>
      <trkpt lat="44.10993" lon="2.99933">
        <ele>594.6</ele>
        <time>2018-05-19T11:11:15Z</time>
      </trkpt>
      <trkpt lat="44.10994" lon="2.99937">
        <ele>594.8</ele>
        <time>2018-05-19T11:11:17Z</time>
      </trkpt>
      <trkpt lat="44.10995" lon="2.99941">
        <ele>595</ele>
        <time>2018-05-19T11:11:19Z</time>
      </trkpt>
      <trkpt lat="44.10996" lon="2.99946">
        <ele>595.2</ele>
        <time>2018-05-19T11:11:21Z</time>
      </trkpt>
      <trkpt lat="44.10997" lon="2.9995">
        <ele>595.4</ele>
        <time>2018-05-19T11:11:23Z</time>
      </trkpt>
      <trkpt lat="44.10999" lon="2.99953">
        <ele>595.6</ele>
        <time>2018-05-19T11:11:25Z</time>
      </trkpt>
      <trkpt lat="44.11" lon="2.99959">
        <ele>595.8</ele>
        <time>2018-05-19T11:11:28Z</time>
      </trkpt>
      <trkpt lat="44.11001" lon="2.99963">
        <ele>596</ele>
        <time>2018-05-19T11:11:30Z</time>
      </trkpt>
      <trkpt lat="44.11002" lon="2.99968">
        <ele>596.1</ele>
        <time>2018-05-19T11:11:32Z</time>
      </trkpt>
      <trkpt lat="44.11002" lon="2.99972">
        <ele>596.2</ele>
        <time>2018-05-19T11:11:34Z</time>
      </trkpt>
      <trkpt lat="44.11003" lon="2.99977">
        <ele>596.4</ele>
        <time>2018-05-19T11:11:36Z</time>
      </trkpt>
      <trkpt lat="44.11005" lon="2.99981">
        <ele>596.5</ele>
        <time>2018-05-19T11:11:38Z</time>
      </trkpt>
      <trkpt lat="44.11006" lon="2.99986">
        <ele>596.7</ele>
        <time>2018-05-19T11:11:40Z</time>
      </trkpt>
      <trkpt lat="44.11007" lon="2.9999">
        <ele>596.8</ele>
        <time>2018-05-19T11:11:42Z</time>
      </trkpt>
      <trkpt lat="44.11007" lon="2.99994">
        <ele>597</ele>
        <time>2018-05-19T11:11:44Z</time>
      </trkpt>
      <trkpt lat="44.11009" lon="2.99998">
        <ele>597.2</ele>
        <time>2018-05-19T11:11:46Z</time>
      </trkpt>
      <trkpt lat="44.1101" lon="3.00003">
        <ele>597.5</ele>
        <time>2018-05-19T11:11:49Z</time>
      </trkpt>
      <trkpt lat="44.11012" lon="3.00008">
        <ele>597.7</ele>
        <time>2018-05-19T11:11:51Z</time>
      </trkpt>
      <trkpt lat="44.11013" lon="3.00011">
        <ele>597.9</ele>
        <time>2018-05-19T11:11:53Z</time>
      </trkpt>
      <trkpt lat="44.11014" lon="3.00015">
        <ele>598.1</ele>
        <time>2018-05-19T11:12:00Z</time>
      </trkpt>
      <trkpt lat="44.11014" lon="3.00019">
        <ele>598.2</ele>
        <time>2018-05-19T11:12:07Z</time>
      </trkpt>
      <trkpt lat="44.11012" lon="3.00022">
        <ele>598.3</ele>
        <time>2018-05-19T11:12:14Z</time>
      </trkpt>
      <trkpt lat="44.11014" lon="3.00024">
        <ele>598.4</ele>
        <time>2018-05-19T11:12:20Z</time>
      </trkpt>
      <trkpt lat="44.11011" lon="3.00023">
        <ele>598.4</ele>
        <time>2018-05-19T11:12:53Z</time>
      </trkpt>
      <trkpt lat="44.11008" lon="3.00023">
        <ele>598.5</ele>
        <time>2018-05-19T11:12:55Z</time>
      </trkpt>
      <trkpt lat="44.11005" lon="3.00024">
        <ele>598.6</ele>
        <time>2018-05-19T11:12:58Z</time>
      </trkpt>
      <trkpt lat="44.11008" lon="3.00025">
        <ele>598.7</ele>
        <time>2018-05-19T11:13:23Z</time>
      </trkpt>
      <trkpt lat="44.11011" lon="3.00025">
        <ele>598.8</ele>
        <time>2018-05-19T11:13:37Z</time>
      </trkpt>
      <trkpt lat="44.11015" lon="3.00028">
        <ele>598.9</ele>
        <time>2018-05-19T11:17:27Z</time>
      </trkpt>
      <trkpt lat="44.11012" lon="3.00027">
        <ele>599</ele>
        <time>2018-05-19T11:17:29Z</time>
      </trkpt>
      <trkpt lat="44.11009" lon="3.00023">
        <ele>599</ele>
        <time>2018-05-19T11:17:31Z</time>
      </trkpt>
      <trkpt lat="44.11007" lon="3.0002">
        <ele>599</ele>
        <time>2018-05-19T11:17:33Z</time>
      </trkpt>
      <trkpt lat="44.11004" lon="3.00016">
        <ele>599.1</ele>
        <time>2018-05-19T11:17:35Z</time>
      </trkpt>
      <trkpt lat="44.11002" lon="3.00011">
        <ele>599.2</ele>
        <time>2018-05-19T11:17:37Z</time>
      </trkpt>
      <trkpt lat="44.11001" lon="3.00007">
        <ele>599.2</ele>
        <time>2018-05-19T11:17:39Z</time>
      </trkpt>
      <trkpt lat="44.11" lon="3.00002">
        <ele>599.3</ele>
        <time>2018-05-19T11:17:41Z</time>
      </trkpt>
      <trkpt lat="44.10998" lon="2.99999">
        <ele>599.3</ele>
        <time>2018-05-19T11:17:42Z</time>
      </trkpt>
      <trkpt lat="44.10996" lon="2.99994">
        <ele>599.4</ele>
        <time>2018-05-19T11:17:44Z</time>
      </trkpt>
      <trkpt lat="44.10994" lon="2.9999">
        <ele>599.5</ele>
        <time>2018-05-19T11:17:46Z</time>
      </trkpt>
      <trkpt lat="44.10992" lon="2.99986">
        <ele>599.5</ele>
        <time>2018-05-19T11:17:48Z</time>
      </trkpt>
      <trkpt lat="44.10989" lon="2.99981">
        <ele>599.7</ele>
        <time>2018-05-19T11:17:50Z</time>
      </trkpt>
      <trkpt lat="44.10986" lon="2.99975">
        <ele>599.9</ele>
        <time>2018-05-19T11:17:52Z</time>
      </trkpt>
      <trkpt lat="44.10985" lon="2.99972">
        <ele>600.1</ele>
        <time>2018-05-19T11:17:53Z</time>
      </trkpt>
      <trkpt lat="44.10982" lon="2.99966">
        <ele>600.4</ele>
        <time>2018-05-19T11:17:55Z</time>
      </trkpt>
      <trkpt lat="44.1098" lon="2.99963">
        <ele>600.6</ele>
        <time>2018-05-19T11:17:56Z</time>
      </trkpt>
      <trkpt lat="44.10978" lon="2.99959">
        <ele>600.8</ele>
        <time>2018-05-19T11:17:57Z</time>
      </trkpt>
      <trkpt lat="44.10976" lon="2.99955">
        <ele>601</ele>
        <time>2018-05-19T11:17:58Z</time>
      </trkpt>
      <trkpt lat="44.10974" lon="2.9995">
        <ele>601.3</ele>
        <time>2018-05-19T11:17:59Z</time>
      </trkpt>
      <trkpt lat="44.10972" lon="2.99946">
        <ele>601.5</ele>
        <time>2018-05-19T11:18:00Z</time>
      </trkpt>
      <trkpt lat="44.1097" lon="2.99942">
        <ele>601.7</ele>
        <time>2018-05-19T11:18:01Z</time>
      </trkpt>
      <trkpt lat="44.10968" lon="2.99938">
        <ele>601.9</ele>
        <time>2018-05-19T11:18:02Z</time>
      </trkpt>
      <trkpt lat="44.10966" lon="2.99934">
        <ele>602.1</ele>
        <time>2018-05-19T11:18:03Z</time>
      </trkpt>
      <trkpt lat="44.10963" lon="2.99931">
        <ele>602.3</ele>
        <time>2018-05-19T11:18:04Z</time>
      </trkpt>
      <trkpt lat="44.10961" lon="2.99928">
        <ele>602.5</ele>
        <time>2018-05-19T11:18:05Z</time>
      </trkpt>
      <trkpt lat="44.10958" lon="2.99925">
        <ele>602.7</ele>
        <time>2018-05-19T11:18:06Z</time>
      </trkpt>
      <trkpt lat="44.10956" lon="2.99922">
        <ele>602.8</ele>
        <time>2018-05-19T11:18:07Z</time>
      </trkpt>
      <trkpt lat="44.10954" lon="2.99919">
        <ele>602.9</ele>
        <time>2018-05-19T11:18:08Z</time>
      </trkpt>
      <trkpt lat="44.10952" lon="2.99915">
        <ele>603</ele>
        <time>2018-05-19T11:18:09Z</time>
      </trkpt>
      <trkpt lat="44.1095" lon="2.99911">
        <ele>603.2</ele>
        <time>2018-05-19T11:18:10Z</time>
      </trkpt>
      <trkpt lat="44.10947" lon="2.99908">
        <ele>603.3</ele>
        <time>2018-05-19T11:18:11Z</time>
      </trkpt>
      <trkpt lat="44.10945" lon="2.99904">
        <ele>603.4</ele>
        <time>2018-05-19T11:18:12Z</time>
      </trkpt>
      <trkpt lat="44.10943" lon="2.99902">
        <ele>603.5</ele>
        <time>2018-05-19T11:18:13Z</time>
      </trkpt>
      <trkpt lat="44.1094" lon="2.99899">
        <ele>603.7</ele>
        <time>2018-05-19T11:18:14Z</time>
      </trkpt>
      <trkpt lat="44.10938" lon="2.99896">
        <ele>603.9</ele>
        <time>2018-05-19T11:18:15Z</time>
      </trkpt>
      <trkpt lat="44.10934" lon="2.99891">
        <ele>604.2</ele>
        <time>2018-05-19T11:18:17Z</time>
      </trkpt>
      <trkpt lat="44.10931" lon="2.99886">
        <ele>604.7</ele>
        <time>2018-05-19T11:18:19Z</time>
      </trkpt>
      <trkpt lat="44.10927" lon="2.99882">
        <ele>605.1</ele>
        <time>2018-05-19T11:18:21Z</time>
      </trkpt>
      <trkpt lat="44.10924" lon="2.99878">
        <ele>605.4</ele>
        <time>2018-05-19T11:18:23Z</time>
      </trkpt>
      <trkpt lat="44.10921" lon="2.99876">
        <ele>605.7</ele>
        <time>2018-05-19T11:18:25Z</time>
      </trkpt>
      <trkpt lat="44.10917" lon="2.99875">
        <ele>606</ele>
        <time>2018-05-19T11:18:27Z</time>
      </trkpt>
      <trkpt lat="44.10914" lon="2.99874">
        <ele>606.3</ele>
        <time>2018-05-19T11:18:29Z</time>
      </trkpt>
      <trkpt lat="44.10909" lon="2.99871">
        <ele>606.6</ele>
        <time>2018-05-19T11:18:31Z</time>
      </trkpt>
      <trkpt lat="44.10904" lon="2.99868">
        <ele>606.9</ele>
        <time>2018-05-19T11:18:33Z</time>
      </trkpt>
      <trkpt lat="44.109" lon="2.99864">
        <ele>607.3</ele>
        <time>2018-05-19T11:18:35Z</time>
      </trkpt>
      <trkpt lat="44.10896" lon="2.99862">
        <ele>607.5</ele>
        <time>2018-05-19T11:18:37Z</time>
      </trkpt>
      <trkpt lat="44.10892" lon="2.99861">
        <ele>607.8</ele>
        <time>2018-05-19T11:18:39Z</time>
      </trkpt>
      <trkpt lat="44.10887" lon="2.9986">
        <ele>608.1</ele>
        <time>2018-05-19T11:18:41Z</time>
      </trkpt>
      <trkpt lat="44.10884" lon="2.9986">
        <ele>608.3</ele>
        <time>2018-05-19T11:18:43Z</time>
      </trkpt>
      <trkpt lat="44.10881" lon="2.9986">
        <ele>608.5</ele>
        <time>2018-05-19T11:18:45Z</time>
      </trkpt>
      <trkpt lat="44.10878" lon="2.99863">
        <ele>608.7</ele>
        <time>2018-05-19T11:18:47Z</time>
      </trkpt>
      <trkpt lat="44.10876" lon="2.99866">
        <ele>608.8</ele>
        <time>2018-05-19T11:18:49Z</time>
      </trkpt>
      <trkpt lat="44.10875" lon="2.99871">
        <ele>609</ele>
        <time>2018-05-19T11:18:51Z</time>
      </trkpt>
      <trkpt lat="44.10873" lon="2.99876">
        <ele>609.2</ele>
        <time>2018-05-19T11:18:53Z</time>
      </trkpt>
      <trkpt lat="44.10869" lon="2.9988">
        <ele>609.5</ele>
        <time>2018-05-19T11:18:55Z</time>
      </trkpt>
      <trkpt lat="44.10868" lon="2.99883">
        <ele>609.7</ele>
        <time>2018-05-19T11:18:56Z</time>
      </trkpt>
      <trkpt lat="44.10865" lon="2.99889">
        <ele>610</ele>
        <time>2018-05-19T11:18:58Z</time>
      </trkpt>
      <trkpt lat="44.10862" lon="2.99895">
        <ele>610.3</ele>
        <time>2018-05-19T11:19:00Z</time>
      </trkpt>
      <trkpt lat="44.10861" lon="2.99901">
        <ele>610.5</ele>
        <time>2018-05-19T11:19:02Z</time>
      </trkpt>
      <trkpt lat="44.10861" lon="2.99906">
        <ele>610.6</ele>
        <time>2018-05-19T11:19:04Z</time>
      </trkpt>
      <trkpt lat="44.10859" lon="2.9991">
        <ele>610.7</ele>
        <time>2018-05-19T11:19:06Z</time>
      </trkpt>
      <trkpt lat="44.10859" lon="2.99915">
        <ele>610.9</ele>
        <time>2018-05-19T11:19:08Z</time>
      </trkpt>
      <trkpt lat="44.10858" lon="2.9992">
        <ele>611</ele>
        <time>2018-05-19T11:19:10Z</time>
      </trkpt>
      <trkpt lat="44.10857" lon="2.99924">
        <ele>611.2</ele>
        <time>2018-05-19T11:19:12Z</time>
      </trkpt>
      <trkpt lat="44.10856" lon="2.99929">
        <ele>611.4</ele>
        <time>2018-05-19T11:19:14Z</time>
      </trkpt>
      <trkpt lat="44.10854" lon="2.99935">
        <ele>611.6</ele>
        <time>2018-05-19T11:19:16Z</time>
      </trkpt>
      <trkpt lat="44.10851" lon="2.99941">
        <ele>611.9</ele>
        <time>2018-05-19T11:19:18Z</time>
      </trkpt>
      <trkpt lat="44.10849" lon="2.99944">
        <ele>612</ele>
        <time>2018-05-19T11:19:19Z</time>
      </trkpt>
      <trkpt lat="44.10847" lon="2.99947">
        <ele>612.2</ele>
        <time>2018-05-19T11:19:20Z</time>
      </trkpt>
      <trkpt lat="44.10844" lon="2.99952">
        <ele>612.4</ele>
        <time>2018-05-19T11:19:22Z</time>
      </trkpt>
      <trkpt lat="44.10842" lon="2.99957">
        <ele>612.6</ele>
        <time>2018-05-19T11:19:24Z</time>
      </trkpt>
      <trkpt lat="44.10841" lon="2.99961">
        <ele>612.7</ele>
        <time>2018-05-19T11:19:26Z</time>
      </trkpt>
      <trkpt lat="44.10841" lon="2.99966">
        <ele>612.9</ele>
        <time>2018-05-19T11:19:28Z</time>
      </trkpt>
      <trkpt lat="44.10839" lon="2.9997">
        <ele>613.1</ele>
        <time>2018-05-19T11:19:30Z</time>
      </trkpt>
      <trkpt lat="44.10836" lon="2.99973">
        <ele>613.3</ele>
        <time>2018-05-19T11:19:32Z</time>
      </trkpt>
      <trkpt lat="44.10833" lon="2.99977">
        <ele>613.5</ele>
        <time>2018-05-19T11:19:34Z</time>
      </trkpt>
      <trkpt lat="44.10831" lon="2.99983">
        <ele>613.9</ele>
        <time>2018-05-19T11:19:36Z</time>
      </trkpt>
      <trkpt lat="44.1083" lon="2.99987">
        <ele>614.1</ele>
        <time>2018-05-19T11:19:38Z</time>
      </trkpt>
      <trkpt lat="44.10829" lon="2.99992">
        <ele>614.3</ele>
        <time>2018-05-19T11:19:41Z</time>
      </trkpt>
      <trkpt lat="44.10827" lon="2.99997">
        <ele>614.6</ele>
        <time>2018-05-19T11:19:43Z</time>
      </trkpt>
      <trkpt lat="44.10824" lon="3">
        <ele>614.9</ele>
        <time>2018-05-19T11:19:45Z</time>
      </trkpt>
      <trkpt lat="44.10821" lon="3.00003">
        <ele>615.2</ele>
        <time>2018-05-19T11:19:47Z</time>
      </trkpt>
      <trkpt lat="44.10818" lon="3.00008">
        <ele>615.6</ele>
        <time>2018-05-19T11:19:49Z</time>
      </trkpt>
      <trkpt lat="44.10814" lon="3.00012">
        <ele>616.1</ele>
        <time>2018-05-19T11:19:51Z</time>
      </trkpt>
      <trkpt lat="44.10812" lon="3.00017">
        <ele>616.3</ele>
        <time>2018-05-19T11:19:53Z</time>
      </trkpt>
      <trkpt lat="44.10811" lon="3.00022">
        <ele>616.5</ele>
        <time>2018-05-19T11:19:55Z</time>
      </trkpt>
      <trkpt lat="44.1081" lon="3.00026">
        <ele>616.7</ele>
        <time>2018-05-19T11:19:57Z</time>
      </trkpt>
      <trkpt lat="44.10809" lon="3.00031">
        <ele>616.9</ele>
        <time>2018-05-19T11:19:59Z</time>
      </trkpt>
      <trkpt lat="44.10806" lon="3.00035">
        <ele>617.1</ele>
        <time>2018-05-19T11:20:01Z</time>
      </trkpt>
      <trkpt lat="44.10803" lon="3.0004">
        <ele>617.3</ele>
        <time>2018-05-19T11:20:03Z</time>
      </trkpt>
      <trkpt lat="44.108" lon="3.00044">
        <ele>617.6</ele>
        <time>2018-05-19T11:20:05Z</time>
      </trkpt>
      <trkpt lat="44.10796" lon="3.00046">
        <ele>617.8</ele>
        <time>2018-05-19T11:20:07Z</time>
      </trkpt>
      <trkpt lat="44.10792" lon="3.00047">
        <ele>618</ele>
        <time>2018-05-19T11:20:09Z</time>
      </trkpt>
      <trkpt lat="44.10787" lon="3.00048">
        <ele>618.1</ele>
        <time>2018-05-19T11:20:11Z</time>
      </trkpt>
      <trkpt lat="44.10783" lon="3.0005">
        <ele>618.2</ele>
        <time>2018-05-19T11:20:13Z</time>
      </trkpt>
      <trkpt lat="44.10779" lon="3.00052">
        <ele>618.3</ele>
        <time>2018-05-19T11:20:15Z</time>
      </trkpt>
      <trkpt lat="44.10775" lon="3.00054">
        <ele>618.3</ele>
        <time>2018-05-19T11:20:17Z</time>
      </trkpt>
      <trkpt lat="44.1077" lon="3.00054">
        <ele>618.3</ele>
        <time>2018-05-19T11:20:19Z</time>
      </trkpt>
      <trkpt lat="44.10767" lon="3.00055">
        <ele>618.3</ele>
        <time>2018-05-19T11:20:21Z</time>
      </trkpt>
      <trkpt lat="44.10765" lon="3.0006">
        <ele>618.3</ele>
        <time>2018-05-19T11:20:24Z</time>
      </trkpt>
      <trkpt lat="44.10762" lon="3.00064">
        <ele>618.3</ele>
        <time>2018-05-19T11:20:26Z</time>
      </trkpt>
      <trkpt lat="44.10759" lon="3.00067">
        <ele>618.2</ele>
        <time>2018-05-19T11:20:28Z</time>
      </trkpt>
      <trkpt lat="44.10754" lon="3.00069">
        <ele>618.1</ele>
        <time>2018-05-19T11:20:30Z</time>
      </trkpt>
      <trkpt lat="44.10749" lon="3.0007">
        <ele>618</ele>
        <time>2018-05-19T11:20:32Z</time>
      </trkpt>
      <trkpt lat="44.10744" lon="3.0007">
        <ele>617.9</ele>
        <time>2018-05-19T11:20:34Z</time>
      </trkpt>
      <trkpt lat="44.10741" lon="3.00067">
        <ele>617.7</ele>
        <time>2018-05-19T11:20:35Z</time>
      </trkpt>
      <trkpt lat="44.10738" lon="3.00064">
        <ele>617.5</ele>
        <time>2018-05-19T11:20:36Z</time>
      </trkpt>
      <trkpt lat="44.10735" lon="3.00061">
        <ele>617</ele>
        <time>2018-05-19T11:20:37Z</time>
      </trkpt>
      <trkpt lat="44.10731" lon="3.0006">
        <ele>616.6</ele>
        <time>2018-05-19T11:20:38Z</time>
      </trkpt>
      <trkpt lat="44.10726" lon="3.00055">
        <ele>616.3</ele>
        <time>2018-05-19T11:20:39Z</time>
      </trkpt>
      <trkpt lat="44.10723" lon="3.00051">
        <ele>616.1</ele>
        <time>2018-05-19T11:20:40Z</time>
      </trkpt>
      <trkpt lat="44.10721" lon="3.00046">
        <ele>616</ele>
        <time>2018-05-19T11:20:41Z</time>
      </trkpt>
      <trkpt lat="44.10718" lon="3.00043">
        <ele>615.9</ele>
        <time>2018-05-19T11:20:42Z</time>
      </trkpt>
      <trkpt lat="44.10714" lon="3.0004">
        <ele>615.9</ele>
        <time>2018-05-19T11:20:43Z</time>
      </trkpt>
      <trkpt lat="44.1071" lon="3.0004">
        <ele>615.8</ele>
        <time>2018-05-19T11:20:44Z</time>
      </trkpt>
      <trkpt lat="44.10707" lon="3.00041">
        <ele>615.9</ele>
        <time>2018-05-19T11:20:45Z</time>
      </trkpt>
      <trkpt lat="44.10703" lon="3.00044">
        <ele>615.9</ele>
        <time>2018-05-19T11:20:47Z</time>
      </trkpt>
      <trkpt lat="44.10699" lon="3.00047">
        <ele>616.1</ele>
        <time>2018-05-19T11:20:49Z</time>
      </trkpt>
      <trkpt lat="44.10694" lon="3.0005">
        <ele>616.3</ele>
        <time>2018-05-19T11:20:51Z</time>
      </trkpt>
      <trkpt lat="44.10689" lon="3.00051">
        <ele>616.6</ele>
        <time>2018-05-19T11:20:53Z</time>
      </trkpt>
      <trkpt lat="44.10685" lon="3.00054">
        <ele>616.9</ele>
        <time>2018-05-19T11:20:55Z</time>
      </trkpt>
      <trkpt lat="44.10682" lon="3.00059">
        <ele>617.1</ele>
        <time>2018-05-19T11:20:57Z</time>
      </trkpt>
      <trkpt lat="44.10678" lon="3.00064">
        <ele>617.2</ele>
        <time>2018-05-19T11:20:59Z</time>
      </trkpt>
      <trkpt lat="44.10674" lon="3.00069">
        <ele>617.3</ele>
        <time>2018-05-19T11:21:01Z</time>
      </trkpt>
      <trkpt lat="44.10672" lon="3.00071">
        <ele>617.3</ele>
        <time>2018-05-19T11:21:02Z</time>
      </trkpt>
      <trkpt lat="44.1067" lon="3.00073">
        <ele>617.4</ele>
        <time>2018-05-19T11:21:03Z</time>
      </trkpt>
      <trkpt lat="44.10667" lon="3.00074">
        <ele>617.4</ele>
        <time>2018-05-19T11:21:04Z</time>
      </trkpt>
      <trkpt lat="44.10663" lon="3.00075">
        <ele>617.5</ele>
        <time>2018-05-19T11:21:05Z</time>
      </trkpt>
      <trkpt lat="44.1066" lon="3.00076">
        <ele>617.5</ele>
        <time>2018-05-19T11:21:06Z</time>
      </trkpt>
      <trkpt lat="44.10656" lon="3.00078">
        <ele>617.5</ele>
        <time>2018-05-19T11:21:07Z</time>
      </trkpt>
      <trkpt lat="44.10654" lon="3.0008">
        <ele>617.5</ele>
        <time>2018-05-19T11:21:08Z</time>
      </trkpt>
      <trkpt lat="44.10651" lon="3.00083">
        <ele>617.5</ele>
        <time>2018-05-19T11:21:09Z</time>
      </trkpt>
      <trkpt lat="44.10648" lon="3.00085">
        <ele>617.5</ele>
        <time>2018-05-19T11:21:10Z</time>
      </trkpt>
      <trkpt lat="44.10646" lon="3.00088">
        <ele>617.5</ele>
        <time>2018-05-19T11:21:11Z</time>
      </trkpt>
      <trkpt lat="44.10643" lon="3.00091">
        <ele>617.5</ele>
        <time>2018-05-19T11:21:12Z</time>
      </trkpt>
      <trkpt lat="44.10641" lon="3.00095">
        <ele>617.5</ele>
        <time>2018-05-19T11:21:13Z</time>
      </trkpt>
      <trkpt lat="44.10639" lon="3.00098">
        <ele>617.6</ele>
        <time>2018-05-19T11:21:14Z</time>
      </trkpt>
      <trkpt lat="44.10637" lon="3.00101">
        <ele>617.6</ele>
        <time>2018-05-19T11:21:15Z</time>
      </trkpt>
      <trkpt lat="44.10634" lon="3.00107">
        <ele>617.6</ele>
        <time>2018-05-19T11:21:17Z</time>
      </trkpt>
      <trkpt lat="44.10632" lon="3.00109">
        <ele>617.7</ele>
        <time>2018-05-19T11:21:18Z</time>
      </trkpt>
      <trkpt lat="44.1063" lon="3.00113">
        <ele>617.7</ele>
        <time>2018-05-19T11:21:19Z</time>
      </trkpt>
      <trkpt lat="44.10628" lon="3.00116">
        <ele>617.7</ele>
        <time>2018-05-19T11:21:20Z</time>
      </trkpt>
      <trkpt lat="44.10625" lon="3.00119">
        <ele>617.7</ele>
        <time>2018-05-19T11:21:21Z</time>
      </trkpt>
      <trkpt lat="44.10623" lon="3.00122">
        <ele>617.8</ele>
        <time>2018-05-19T11:21:22Z</time>
      </trkpt>
      <trkpt lat="44.10621" lon="3.00125">
        <ele>617.9</ele>
        <time>2018-05-19T11:21:23Z</time>
      </trkpt>
      <trkpt lat="44.10618" lon="3.00127">
        <ele>618.1</ele>
        <time>2018-05-19T11:21:24Z</time>
      </trkpt>
      <trkpt lat="44.10616" lon="3.0013">
        <ele>618.2</ele>
        <time>2018-05-19T11:21:25Z</time>
      </trkpt>
      <trkpt lat="44.10614" lon="3.00134">
        <ele>618.4</ele>
        <time>2018-05-19T11:21:26Z</time>
      </trkpt>
      <trkpt lat="44.10613" lon="3.00138">
        <ele>618.6</ele>
        <time>2018-05-19T11:21:27Z</time>
      </trkpt>
      <trkpt lat="44.10612" lon="3.00142">
        <ele>618.7</ele>
        <time>2018-05-19T11:21:28Z</time>
      </trkpt>
      <trkpt lat="44.10612" lon="3.00146">
        <ele>618.8</ele>
        <time>2018-05-19T11:21:29Z</time>
      </trkpt>
      <trkpt lat="44.1061" lon="3.0015">
        <ele>618.9</ele>
        <time>2018-05-19T11:21:30Z</time>
      </trkpt>
      <trkpt lat="44.10609" lon="3.00154">
        <ele>619</ele>
        <time>2018-05-19T11:21:31Z</time>
      </trkpt>
      <trkpt lat="44.10606" lon="3.00158">
        <ele>619.1</ele>
        <time>2018-05-19T11:21:32Z</time>
      </trkpt>
      <trkpt lat="44.10604" lon="3.00162">
        <ele>619.1</ele>
        <time>2018-05-19T11:21:33Z</time>
      </trkpt>
      <trkpt lat="44.10602" lon="3.00167">
        <ele>619.2</ele>
        <time>2018-05-19T11:21:34Z</time>
      </trkpt>
      <trkpt lat="44.106" lon="3.00172">
        <ele>619.4</ele>
        <time>2018-05-19T11:21:35Z</time>
      </trkpt>
      <trkpt lat="44.106" lon="3.00176">
        <ele>619.6</ele>
        <time>2018-05-19T11:21:36Z</time>
      </trkpt>
      <trkpt lat="44.106" lon="3.0018">
        <ele>619.8</ele>
        <time>2018-05-19T11:21:37Z</time>
      </trkpt>
      <trkpt lat="44.10599" lon="3.00185">
        <ele>620</ele>
        <time>2018-05-19T11:21:38Z</time>
      </trkpt>
      <trkpt lat="44.10598" lon="3.00189">
        <ele>620.2</ele>
        <time>2018-05-19T11:21:39Z</time>
      </trkpt>
      <trkpt lat="44.10597" lon="3.00193">
        <ele>620.5</ele>
        <time>2018-05-19T11:21:40Z</time>
      </trkpt>
      <trkpt lat="44.10596" lon="3.00199">
        <ele>620.9</ele>
        <time>2018-05-19T11:21:42Z</time>
      </trkpt>
      <trkpt lat="44.10596" lon="3.00204">
        <ele>621.1</ele>
        <time>2018-05-19T11:21:44Z</time>
      </trkpt>
      <trkpt lat="44.10597" lon="3.00209">
        <ele>621.1</ele>
        <time>2018-05-19T11:21:46Z</time>
      </trkpt>
      <trkpt lat="44.10597" lon="3.00213">
        <ele>621.2</ele>
        <time>2018-05-19T11:21:48Z</time>
      </trkpt>
      <trkpt lat="44.10598" lon="3.00217">
        <ele>621.3</ele>
        <time>2018-05-19T11:21:50Z</time>
      </trkpt>
      <trkpt lat="44.106" lon="3.00222">
        <ele>621.3</ele>
        <time>2018-05-19T11:21:53Z</time>
      </trkpt>
      <trkpt lat="44.10602" lon="3.00226">
        <ele>621.4</ele>
        <time>2018-05-19T11:21:55Z</time>
      </trkpt>
      <trkpt lat="44.10603" lon="3.0023">
        <ele>621.5</ele>
        <time>2018-05-19T11:21:57Z</time>
      </trkpt>
      <trkpt lat="44.10605" lon="3.00234">
        <ele>621.6</ele>
        <time>2018-05-19T11:21:59Z</time>
      </trkpt>
      <trkpt lat="44.10606" lon="3.00239">
        <ele>621.7</ele>
        <time>2018-05-19T11:22:01Z</time>
      </trkpt>
      <trkpt lat="44.10607" lon="3.00243">
        <ele>621.7</ele>
        <time>2018-05-19T11:22:03Z</time>
      </trkpt>
      <trkpt lat="44.10609" lon="3.00246">
        <ele>621.8</ele>
        <time>2018-05-19T11:22:05Z</time>
      </trkpt>
      <trkpt lat="44.10611" lon="3.0025">
        <ele>621.9</ele>
        <time>2018-05-19T11:22:08Z</time>
      </trkpt>
      <trkpt lat="44.10612" lon="3.00254">
        <ele>622</ele>
        <time>2018-05-19T11:22:11Z</time>
      </trkpt>
      <trkpt lat="44.10613" lon="3.00263">
        <ele>622.2</ele>
        <time>2018-05-19T11:25:13Z</time>
      </trkpt>
      <trkpt lat="44.10614" lon="3.00267">
        <ele>622.3</ele>
        <time>2018-05-19T11:25:15Z</time>
      </trkpt>
      <trkpt lat="44.10616" lon="3.00272">
        <ele>622.4</ele>
        <time>2018-05-19T11:25:17Z</time>
      </trkpt>
      <trkpt lat="44.10617" lon="3.00277">
        <ele>622.5</ele>
        <time>2018-05-19T11:25:19Z</time>
      </trkpt>
      <trkpt lat="44.10619" lon="3.00283">
        <ele>622.6</ele>
        <time>2018-05-19T11:25:21Z</time>
      </trkpt>
      <trkpt lat="44.10621" lon="3.00288">
        <ele>622.7</ele>
        <time>2018-05-19T11:25:23Z</time>
      </trkpt>
      <trkpt lat="44.10623" lon="3.00293">
        <ele>622.8</ele>
        <time>2018-05-19T11:25:25Z</time>
      </trkpt>
      <trkpt lat="44.10627" lon="3.00297">
        <ele>623.4</ele>
        <time>2018-05-19T11:25:27Z</time>
      </trkpt>
      <trkpt lat="44.10631" lon="3.003">
        <ele>623.6</ele>
        <time>2018-05-19T11:25:29Z</time>
      </trkpt>
      <trkpt lat="44.10634" lon="3.00304">
        <ele>623.7</ele>
        <time>2018-05-19T11:25:31Z</time>
      </trkpt>
      <trkpt lat="44.10636" lon="3.0031">
        <ele>623.8</ele>
        <time>2018-05-19T11:25:33Z</time>
      </trkpt>
      <trkpt lat="44.10639" lon="3.00315">
        <ele>623.9</ele>
        <time>2018-05-19T11:25:35Z</time>
      </trkpt>
      <trkpt lat="44.10641" lon="3.00321">
        <ele>624</ele>
        <time>2018-05-19T11:25:37Z</time>
      </trkpt>
      <trkpt lat="44.10642" lon="3.00326">
        <ele>624.1</ele>
        <time>2018-05-19T11:25:39Z</time>
      </trkpt>
      <trkpt lat="44.10643" lon="3.00332">
        <ele>624.2</ele>
        <time>2018-05-19T11:25:41Z</time>
      </trkpt>
      <trkpt lat="44.10645" lon="3.00339">
        <ele>624.3</ele>
        <time>2018-05-19T11:25:43Z</time>
      </trkpt>
      <trkpt lat="44.10646" lon="3.00342">
        <ele>624.4</ele>
        <time>2018-05-19T11:25:44Z</time>
      </trkpt>
      <trkpt lat="44.10648" lon="3.00346">
        <ele>624.5</ele>
        <time>2018-05-19T11:25:45Z</time>
      </trkpt>
      <trkpt lat="44.1065" lon="3.0035">
        <ele>624.6</ele>
        <time>2018-05-19T11:25:46Z</time>
      </trkpt>
      <trkpt lat="44.10652" lon="3.00355">
        <ele>624.7</ele>
        <time>2018-05-19T11:25:47Z</time>
      </trkpt>
      <trkpt lat="44.10654" lon="3.0036">
        <ele>624.8</ele>
        <time>2018-05-19T11:25:48Z</time>
      </trkpt>
      <trkpt lat="44.10656" lon="3.00367">
        <ele>625</ele>
        <time>2018-05-19T11:25:49Z</time>
      </trkpt>
      <trkpt lat="44.10657" lon="3.00373">
        <ele>625.2</ele>
        <time>2018-05-19T11:25:50Z</time>
      </trkpt>
      <trkpt lat="44.10659" lon="3.0038">
        <ele>625.3</ele>
        <time>2018-05-19T11:25:51Z</time>
      </trkpt>
      <trkpt lat="44.10661" lon="3.00387">
        <ele>625.5</ele>
        <time>2018-05-19T11:25:52Z</time>
      </trkpt>
      <trkpt lat="44.10663" lon="3.00396">
        <ele>625.8</ele>
        <time>2018-05-19T11:25:53Z</time>
      </trkpt>
      <trkpt lat="44.10666" lon="3.00404">
        <ele>626.1</ele>
        <time>2018-05-19T11:25:54Z</time>
      </trkpt>
      <trkpt lat="44.10669" lon="3.00412">
        <ele>626.5</ele>
        <time>2018-05-19T11:25:55Z</time>
      </trkpt>
      <trkpt lat="44.10673" lon="3.00418">
        <ele>626.8</ele>
        <time>2018-05-19T11:25:56Z</time>
      </trkpt>
      <trkpt lat="44.10675" lon="3.00424">
        <ele>627.1</ele>
        <time>2018-05-19T11:25:57Z</time>
      </trkpt>
      <trkpt lat="44.10677" lon="3.00431">
        <ele>627.3</ele>
        <time>2018-05-19T11:25:58Z</time>
      </trkpt>
      <trkpt lat="44.10678" lon="3.00439">
        <ele>627.5</ele>
        <time>2018-05-19T11:25:59Z</time>
      </trkpt>
      <trkpt lat="44.10681" lon="3.00448">
        <ele>627.9</ele>
        <time>2018-05-19T11:26:00Z</time>
      </trkpt>
      <trkpt lat="44.10682" lon="3.00456">
        <ele>628.3</ele>
        <time>2018-05-19T11:26:01Z</time>
      </trkpt>
      <trkpt lat="44.10683" lon="3.00464">
        <ele>628.7</ele>
        <time>2018-05-19T11:26:02Z</time>
      </trkpt>
      <trkpt lat="44.10684" lon="3.00472">
        <ele>629.2</ele>
        <time>2018-05-19T11:26:03Z</time>
      </trkpt>
      <trkpt lat="44.10684" lon="3.00481">
        <ele>629.8</ele>
        <time>2018-05-19T11:26:04Z</time>
      </trkpt>
      <trkpt lat="44.10684" lon="3.00489">
        <ele>630.3</ele>
        <time>2018-05-19T11:26:05Z</time>
      </trkpt>
      <trkpt lat="44.10686" lon="3.00495">
        <ele>630.8</ele>
        <time>2018-05-19T11:26:06Z</time>
      </trkpt>
      <trkpt lat="44.10685" lon="3.00501">
        <ele>631.2</ele>
        <time>2018-05-19T11:26:07Z</time>
      </trkpt>
      <trkpt lat="44.10685" lon="3.00508">
        <ele>631.7</ele>
        <time>2018-05-19T11:26:08Z</time>
      </trkpt>
      <trkpt lat="44.10683" lon="3.00515">
        <ele>632.3</ele>
        <time>2018-05-19T11:26:09Z</time>
      </trkpt>
      <trkpt lat="44.10682" lon="3.00522">
        <ele>632.8</ele>
        <time>2018-05-19T11:26:10Z</time>
      </trkpt>
      <trkpt lat="44.1068" lon="3.00528">
        <ele>633.3</ele>
        <time>2018-05-19T11:26:11Z</time>
      </trkpt>
      <trkpt lat="44.10678" lon="3.00535">
        <ele>633.7</ele>
        <time>2018-05-19T11:26:12Z</time>
      </trkpt>
      <trkpt lat="44.10677" lon="3.00542">
        <ele>634.3</ele>
        <time>2018-05-19T11:26:13Z</time>
      </trkpt>
      <trkpt lat="44.10675" lon="3.00551">
        <ele>634.8</ele>
        <time>2018-05-19T11:26:14Z</time>
      </trkpt>
      <trkpt lat="44.10675" lon="3.00556">
        <ele>635.1</ele>
        <time>2018-05-19T11:26:15Z</time>
      </trkpt>
      <trkpt lat="44.10675" lon="3.00562">
        <ele>635.4</ele>
        <time>2018-05-19T11:26:16Z</time>
      </trkpt>
      <trkpt lat="44.10675" lon="3.00567">
        <ele>635.6</ele>
        <time>2018-05-19T11:26:17Z</time>
      </trkpt>
      <trkpt lat="44.10674" lon="3.00573">
        <ele>635.8</ele>
        <time>2018-05-19T11:26:18Z</time>
      </trkpt>
      <trkpt lat="44.10674" lon="3.00579">
        <ele>636</ele>
        <time>2018-05-19T11:26:19Z</time>
      </trkpt>
      <trkpt lat="44.10673" lon="3.00584">
        <ele>636.1</ele>
        <time>2018-05-19T11:26:20Z</time>
      </trkpt>
      <trkpt lat="44.10673" lon="3.0059">
        <ele>636.3</ele>
        <time>2018-05-19T11:26:21Z</time>
      </trkpt>
      <trkpt lat="44.10672" lon="3.00595">
        <ele>636.4</ele>
        <time>2018-05-19T11:26:22Z</time>
      </trkpt>
      <trkpt lat="44.10672" lon="3.006">
        <ele>636.6</ele>
        <time>2018-05-19T11:26:23Z</time>
      </trkpt>
      <trkpt lat="44.10672" lon="3.00605">
        <ele>636.7</ele>
        <time>2018-05-19T11:26:24Z</time>
      </trkpt>
      <trkpt lat="44.10673" lon="3.00611">
        <ele>636.9</ele>
        <time>2018-05-19T11:26:25Z</time>
      </trkpt>
      <trkpt lat="44.10674" lon="3.00616">
        <ele>637</ele>
        <time>2018-05-19T11:26:26Z</time>
      </trkpt>
      <trkpt lat="44.10674" lon="3.00621">
        <ele>637.2</ele>
        <time>2018-05-19T11:26:27Z</time>
      </trkpt>
      <trkpt lat="44.10675" lon="3.00626">
        <ele>637.4</ele>
        <time>2018-05-19T11:26:28Z</time>
      </trkpt>
      <trkpt lat="44.10677" lon="3.0063">
        <ele>637.6</ele>
        <time>2018-05-19T11:26:29Z</time>
      </trkpt>
      <trkpt lat="44.10678" lon="3.00634">
        <ele>637.7</ele>
        <time>2018-05-19T11:26:30Z</time>
      </trkpt>
      <trkpt lat="44.10678" lon="3.00638">
        <ele>637.8</ele>
        <time>2018-05-19T11:26:31Z</time>
      </trkpt>
      <trkpt lat="44.10679" lon="3.00641">
        <ele>637.9</ele>
        <time>2018-05-19T11:26:32Z</time>
      </trkpt>
      <trkpt lat="44.1068" lon="3.00645">
        <ele>638</ele>
        <time>2018-05-19T11:26:33Z</time>
      </trkpt>
      <trkpt lat="44.10681" lon="3.00652">
        <ele>638.2</ele>
        <time>2018-05-19T11:26:35Z</time>
      </trkpt>
      <trkpt lat="44.10682" lon="3.00659">
        <ele>638.4</ele>
        <time>2018-05-19T11:26:37Z</time>
      </trkpt>
      <trkpt lat="44.10682" lon="3.00663">
        <ele>638.5</ele>
        <time>2018-05-19T11:26:38Z</time>
      </trkpt>
      <trkpt lat="44.10683" lon="3.00667">
        <ele>638.7</ele>
        <time>2018-05-19T11:26:39Z</time>
      </trkpt>
      <trkpt lat="44.10684" lon="3.00672">
        <ele>638.9</ele>
        <time>2018-05-19T11:26:40Z</time>
      </trkpt>
      <trkpt lat="44.10685" lon="3.00676">
        <ele>639</ele>
        <time>2018-05-19T11:26:41Z</time>
      </trkpt>
      <trkpt lat="44.10686" lon="3.0068">
        <ele>639.2</ele>
        <time>2018-05-19T11:26:42Z</time>
      </trkpt>
      <trkpt lat="44.10688" lon="3.00684">
        <ele>639.3</ele>
        <time>2018-05-19T11:26:43Z</time>
      </trkpt>
      <trkpt lat="44.10689" lon="3.00687">
        <ele>639.4</ele>
        <time>2018-05-19T11:26:44Z</time>
      </trkpt>
      <trkpt lat="44.10691" lon="3.00691">
        <ele>639.6</ele>
        <time>2018-05-19T11:26:45Z</time>
      </trkpt>
      <trkpt lat="44.10693" lon="3.00696">
        <ele>639.9</ele>
        <time>2018-05-19T11:26:46Z</time>
      </trkpt>
      <trkpt lat="44.10695" lon="3.007">
        <ele>640.1</ele>
        <time>2018-05-19T11:26:47Z</time>
      </trkpt>
      <trkpt lat="44.10696" lon="3.00705">
        <ele>640.2</ele>
        <time>2018-05-19T11:26:48Z</time>
      </trkpt>
      <trkpt lat="44.10696" lon="3.00711">
        <ele>640.4</ele>
        <time>2018-05-19T11:26:49Z</time>
      </trkpt>
      <trkpt lat="44.10697" lon="3.00717">
        <ele>640.6</ele>
        <time>2018-05-19T11:26:50Z</time>
      </trkpt>
      <trkpt lat="44.10694" lon="3.00725">
        <ele>640.9</ele>
        <time>2018-05-19T11:26:51Z</time>
      </trkpt>
      <trkpt lat="44.10694" lon="3.00732">
        <ele>641.3</ele>
        <time>2018-05-19T11:26:52Z</time>
      </trkpt>
      <trkpt lat="44.10691" lon="3.00741">
        <ele>641.8</ele>
        <time>2018-05-19T11:26:53Z</time>
      </trkpt>
      <trkpt lat="44.1069" lon="3.00749">
        <ele>642.3</ele>
        <time>2018-05-19T11:26:54Z</time>
      </trkpt>
      <trkpt lat="44.10689" lon="3.00758">
        <ele>642.8</ele>
        <time>2018-05-19T11:26:55Z</time>
      </trkpt>
      <trkpt lat="44.10688" lon="3.00767">
        <ele>643.3</ele>
        <time>2018-05-19T11:26:56Z</time>
      </trkpt>
      <trkpt lat="44.10688" lon="3.00774">
        <ele>643.8</ele>
        <time>2018-05-19T11:26:57Z</time>
      </trkpt>
      <trkpt lat="44.10687" lon="3.00783">
        <ele>644.4</ele>
        <time>2018-05-19T11:26:58Z</time>
      </trkpt>
      <trkpt lat="44.10686" lon="3.0079">
        <ele>644.9</ele>
        <time>2018-05-19T11:26:59Z</time>
      </trkpt>
      <trkpt lat="44.10685" lon="3.00798">
        <ele>645.4</ele>
        <time>2018-05-19T11:27:00Z</time>
      </trkpt>
      <trkpt lat="44.10685" lon="3.00804">
        <ele>645.9</ele>
        <time>2018-05-19T11:27:01Z</time>
      </trkpt>
      <trkpt lat="44.10684" lon="3.0081">
        <ele>646.3</ele>
        <time>2018-05-19T11:27:02Z</time>
      </trkpt>
      <trkpt lat="44.10683" lon="3.00814">
        <ele>646.6</ele>
        <time>2018-05-19T11:27:03Z</time>
      </trkpt>
      <trkpt lat="44.10683" lon="3.0082">
        <ele>647</ele>
        <time>2018-05-19T11:27:04Z</time>
      </trkpt>
      <trkpt lat="44.10683" lon="3.00824">
        <ele>647.2</ele>
        <time>2018-05-19T11:27:05Z</time>
      </trkpt>
      <trkpt lat="44.10682" lon="3.00828">
        <ele>647.5</ele>
        <time>2018-05-19T11:27:06Z</time>
      </trkpt>
      <trkpt lat="44.10682" lon="3.00835">
        <ele>647.9</ele>
        <time>2018-05-19T11:27:08Z</time>
      </trkpt>
      <trkpt lat="44.10683" lon="3.00839">
        <ele>648.2</ele>
        <time>2018-05-19T11:27:10Z</time>
      </trkpt>
      <trkpt lat="44.10684" lon="3.00845">
        <ele>648.5</ele>
        <time>2018-05-19T11:27:12Z</time>
      </trkpt>
      <trkpt lat="44.10686" lon="3.0085">
        <ele>648.7</ele>
        <time>2018-05-19T11:27:14Z</time>
      </trkpt>
      <trkpt lat="44.10687" lon="3.00855">
        <ele>648.9</ele>
        <time>2018-05-19T11:27:16Z</time>
      </trkpt>
      <trkpt lat="44.10688" lon="3.0086">
        <ele>649</ele>
        <time>2018-05-19T11:27:18Z</time>
      </trkpt>
      <trkpt lat="44.10691" lon="3.00865">
        <ele>649</ele>
        <time>2018-05-19T11:27:20Z</time>
      </trkpt>
      <trkpt lat="44.10691" lon="3.0087">
        <ele>649.1</ele>
        <time>2018-05-19T11:27:22Z</time>
      </trkpt>
      <trkpt lat="44.10692" lon="3.00875">
        <ele>649.1</ele>
        <time>2018-05-19T11:27:24Z</time>
      </trkpt>
      <trkpt lat="44.10693" lon="3.0088">
        <ele>649.2</ele>
        <time>2018-05-19T11:27:26Z</time>
      </trkpt>
      <trkpt lat="44.10695" lon="3.00885">
        <ele>649.2</ele>
        <time>2018-05-19T11:27:28Z</time>
      </trkpt>
      <trkpt lat="44.10697" lon="3.00891">
        <ele>649.3</ele>
        <time>2018-05-19T11:27:30Z</time>
      </trkpt>
      <trkpt lat="44.10697" lon="3.00896">
        <ele>649.3</ele>
        <time>2018-05-19T11:27:32Z</time>
      </trkpt>
      <trkpt lat="44.10698" lon="3.00902">
        <ele>649.4</ele>
        <time>2018-05-19T11:27:34Z</time>
      </trkpt>
      <trkpt lat="44.10699" lon="3.00908">
        <ele>649.4</ele>
        <time>2018-05-19T11:27:36Z</time>
      </trkpt>
      <trkpt lat="44.10699" lon="3.00914">
        <ele>649.5</ele>
        <time>2018-05-19T11:27:38Z</time>
      </trkpt>
      <trkpt lat="44.10699" lon="3.0092">
        <ele>649.5</ele>
        <time>2018-05-19T11:27:40Z</time>
      </trkpt>
      <trkpt lat="44.107" lon="3.00927">
        <ele>649.6</ele>
        <time>2018-05-19T11:27:42Z</time>
      </trkpt>
      <trkpt lat="44.107" lon="3.00934">
        <ele>649.6</ele>
        <time>2018-05-19T11:27:44Z</time>
      </trkpt>
      <trkpt lat="44.107" lon="3.00938">
        <ele>649.7</ele>
        <time>2018-05-19T11:27:45Z</time>
      </trkpt>
      <trkpt lat="44.107" lon="3.00942">
        <ele>649.7</ele>
        <time>2018-05-19T11:27:46Z</time>
      </trkpt>
      <trkpt lat="44.107" lon="3.00946">
        <ele>649.8</ele>
        <time>2018-05-19T11:27:47Z</time>
      </trkpt>
      <trkpt lat="44.107" lon="3.0095">
        <ele>649.8</ele>
        <time>2018-05-19T11:27:48Z</time>
      </trkpt>
      <trkpt lat="44.107" lon="3.00955">
        <ele>649.8</ele>
        <time>2018-05-19T11:27:49Z</time>
      </trkpt>
      <trkpt lat="44.10701" lon="3.00959">
        <ele>649.9</ele>
        <time>2018-05-19T11:27:50Z</time>
      </trkpt>
      <trkpt lat="44.107" lon="3.00964">
        <ele>649.9</ele>
        <time>2018-05-19T11:27:51Z</time>
      </trkpt>
      <trkpt lat="44.107" lon="3.00969">
        <ele>649.9</ele>
        <time>2018-05-19T11:27:52Z</time>
      </trkpt>
      <trkpt lat="44.107" lon="3.00974">
        <ele>650</ele>
        <time>2018-05-19T11:27:53Z</time>
      </trkpt>
      <trkpt lat="44.10699" lon="3.00979">
        <ele>650</ele>
        <time>2018-05-19T11:27:54Z</time>
      </trkpt>
      <trkpt lat="44.10699" lon="3.00984">
        <ele>649.9</ele>
        <time>2018-05-19T11:27:55Z</time>
      </trkpt>
      <trkpt lat="44.10699" lon="3.00989">
        <ele>649.9</ele>
        <time>2018-05-19T11:27:56Z</time>
      </trkpt>
      <trkpt lat="44.10698" lon="3.00993">
        <ele>649.9</ele>
        <time>2018-05-19T11:27:57Z</time>
      </trkpt>
      <trkpt lat="44.10698" lon="3.00999">
        <ele>649.8</ele>
        <time>2018-05-19T11:27:58Z</time>
      </trkpt>
      <trkpt lat="44.10697" lon="3.01004">
        <ele>649.8</ele>
        <time>2018-05-19T11:27:59Z</time>
      </trkpt>
      <trkpt lat="44.10696" lon="3.01009">
        <ele>649.7</ele>
        <time>2018-05-19T11:28:00Z</time>
      </trkpt>
      <trkpt lat="44.10695" lon="3.01015">
        <ele>649.6</ele>
        <time>2018-05-19T11:28:01Z</time>
      </trkpt>
      <trkpt lat="44.10695" lon="3.01021">
        <ele>649.6</ele>
        <time>2018-05-19T11:28:02Z</time>
      </trkpt>
      <trkpt lat="44.10695" lon="3.01029">
        <ele>649.6</ele>
        <time>2018-05-19T11:28:03Z</time>
      </trkpt>
      <trkpt lat="44.10696" lon="3.01035">
        <ele>649.5</ele>
        <time>2018-05-19T11:28:04Z</time>
      </trkpt>
      <trkpt lat="44.10699" lon="3.0104">
        <ele>649.5</ele>
        <time>2018-05-19T11:28:05Z</time>
      </trkpt>
      <trkpt lat="44.10703" lon="3.01044">
        <ele>649.5</ele>
        <time>2018-05-19T11:28:06Z</time>
      </trkpt>
      <trkpt lat="44.10707" lon="3.01047">
        <ele>649.6</ele>
        <time>2018-05-19T11:28:07Z</time>
      </trkpt>
      <trkpt lat="44.1071" lon="3.01049">
        <ele>649.7</ele>
        <time>2018-05-19T11:28:08Z</time>
      </trkpt>
      <trkpt lat="44.10713" lon="3.01049">
        <ele>649.7</ele>
        <time>2018-05-19T11:28:09Z</time>
      </trkpt>
      <trkpt lat="44.10716" lon="3.01051">
        <ele>649.8</ele>
        <time>2018-05-19T11:28:10Z</time>
      </trkpt>
      <trkpt lat="44.1072" lon="3.01052">
        <ele>649.9</ele>
        <time>2018-05-19T11:28:11Z</time>
      </trkpt>
      <trkpt lat="44.10725" lon="3.01053">
        <ele>650</ele>
        <time>2018-05-19T11:28:12Z</time>
      </trkpt>
      <trkpt lat="44.10729" lon="3.01053">
        <ele>650.1</ele>
        <time>2018-05-19T11:28:13Z</time>
      </trkpt>
      <trkpt lat="44.10732" lon="3.01055">
        <ele>650.2</ele>
        <time>2018-05-19T11:28:14Z</time>
      </trkpt>
      <trkpt lat="44.10737" lon="3.01057">
        <ele>650.2</ele>
        <time>2018-05-19T11:28:15Z</time>
      </trkpt>
      <trkpt lat="44.10741" lon="3.0106">
        <ele>650.2</ele>
        <time>2018-05-19T11:28:17Z</time>
      </trkpt>
      <trkpt lat="44.10744" lon="3.01061">
        <ele>650.2</ele>
        <time>2018-05-19T11:28:18Z</time>
      </trkpt>
      <trkpt lat="44.10747" lon="3.01062">
        <ele>650.2</ele>
        <time>2018-05-19T11:28:19Z</time>
      </trkpt>
      <trkpt lat="44.1075" lon="3.01064">
        <ele>650.2</ele>
        <time>2018-05-19T11:28:20Z</time>
      </trkpt>
      <trkpt lat="44.10754" lon="3.01066">
        <ele>650.2</ele>
        <time>2018-05-19T11:28:21Z</time>
      </trkpt>
      <trkpt lat="44.10757" lon="3.01069">
        <ele>650.1</ele>
        <time>2018-05-19T11:28:22Z</time>
      </trkpt>
      <trkpt lat="44.10761" lon="3.01071">
        <ele>650.1</ele>
        <time>2018-05-19T11:28:23Z</time>
      </trkpt>
      <trkpt lat="44.10764" lon="3.01073">
        <ele>650.1</ele>
        <time>2018-05-19T11:28:24Z</time>
      </trkpt>
      <trkpt lat="44.10768" lon="3.01075">
        <ele>650.1</ele>
        <time>2018-05-19T11:28:25Z</time>
      </trkpt>
      <trkpt lat="44.10771" lon="3.01077">
        <ele>650.1</ele>
        <time>2018-05-19T11:28:26Z</time>
      </trkpt>
      <trkpt lat="44.10774" lon="3.01079">
        <ele>650</ele>
        <time>2018-05-19T11:28:27Z</time>
      </trkpt>
      <trkpt lat="44.10777" lon="3.01081">
        <ele>650</ele>
        <time>2018-05-19T11:28:28Z</time>
      </trkpt>
      <trkpt lat="44.1078" lon="3.01083">
        <ele>649.9</ele>
        <time>2018-05-19T11:28:29Z</time>
      </trkpt>
      <trkpt lat="44.10783" lon="3.01084">
        <ele>649.9</ele>
        <time>2018-05-19T11:28:30Z</time>
      </trkpt>
      <trkpt lat="44.10787" lon="3.01087">
        <ele>649.8</ele>
        <time>2018-05-19T11:28:32Z</time>
      </trkpt>
      <trkpt lat="44.1079" lon="3.0109">
        <ele>649.7</ele>
        <time>2018-05-19T11:28:34Z</time>
      </trkpt>
      <trkpt lat="44.10793" lon="3.01092">
        <ele>649.5</ele>
        <time>2018-05-19T11:28:37Z</time>
      </trkpt>
      <trkpt lat="44.10792" lon="3.01088">
        <ele>649.4</ele>
        <time>2018-05-19T11:28:43Z</time>
      </trkpt>
      <trkpt lat="44.10789" lon="3.01088">
        <ele>649.2</ele>
        <time>2018-05-19T11:28:47Z</time>
      </trkpt>
      <trkpt lat="44.10789" lon="3.01084">
        <ele>649</ele>
        <time>2018-05-19T11:29:45Z</time>
      </trkpt>
      <trkpt lat="44.1079" lon="3.01088">
        <ele>649</ele>
        <time>2018-05-19T11:31:00Z</time>
      </trkpt>
      <trkpt lat="44.10789" lon="3.01091">
        <ele>648.9</ele>
        <time>2018-05-19T11:31:02Z</time>
      </trkpt>
      <trkpt lat="44.10787" lon="3.01096">
        <ele>648.8</ele>
        <time>2018-05-19T11:31:04Z</time>
      </trkpt>
      <trkpt lat="44.10787" lon="3.011">
        <ele>648.7</ele>
        <time>2018-05-19T11:31:05Z</time>
      </trkpt>
      <trkpt lat="44.10788" lon="3.01104">
        <ele>648.5</ele>
        <time>2018-05-19T11:31:06Z</time>
      </trkpt>
      <trkpt lat="44.10789" lon="3.01108">
        <ele>648.4</ele>
        <time>2018-05-19T11:31:07Z</time>
      </trkpt>
      <trkpt lat="44.10791" lon="3.01112">
        <ele>648.3</ele>
        <time>2018-05-19T11:31:08Z</time>
      </trkpt>
      <trkpt lat="44.10793" lon="3.01116">
        <ele>648.2</ele>
        <time>2018-05-19T11:31:09Z</time>
      </trkpt>
      <trkpt lat="44.10796" lon="3.0112">
        <ele>647.9</ele>
        <time>2018-05-19T11:31:10Z</time>
      </trkpt>
      <trkpt lat="44.10799" lon="3.01124">
        <ele>647.5</ele>
        <time>2018-05-19T11:31:11Z</time>
      </trkpt>
      <trkpt lat="44.10802" lon="3.01128">
        <ele>647.1</ele>
        <time>2018-05-19T11:31:12Z</time>
      </trkpt>
      <trkpt lat="44.10806" lon="3.01133">
        <ele>646.7</ele>
        <time>2018-05-19T11:31:13Z</time>
      </trkpt>
      <trkpt lat="44.10809" lon="3.01139">
        <ele>646.1</ele>
        <time>2018-05-19T11:31:14Z</time>
      </trkpt>
      <trkpt lat="44.10812" lon="3.01148">
        <ele>645.4</ele>
        <time>2018-05-19T11:31:15Z</time>
      </trkpt>
      <trkpt lat="44.10815" lon="3.01157">
        <ele>644.9</ele>
        <time>2018-05-19T11:31:16Z</time>
      </trkpt>
      <trkpt lat="44.10819" lon="3.01164">
        <ele>644.2</ele>
        <time>2018-05-19T11:31:17Z</time>
      </trkpt>
      <trkpt lat="44.10821" lon="3.01172">
        <ele>643.6</ele>
        <time>2018-05-19T11:31:18Z</time>
      </trkpt>
      <trkpt lat="44.10824" lon="3.0118">
        <ele>642.4</ele>
        <time>2018-05-19T11:31:19Z</time>
      </trkpt>
      <trkpt lat="44.10827" lon="3.01187">
        <ele>640.7</ele>
        <time>2018-05-19T11:31:20Z</time>
      </trkpt>
      <trkpt lat="44.10828" lon="3.01192">
        <ele>639.7</ele>
        <time>2018-05-19T11:31:21Z</time>
      </trkpt>
      <trkpt lat="44.1083" lon="3.01197">
        <ele>638.5</ele>
        <time>2018-05-19T11:31:22Z</time>
      </trkpt>
      <trkpt lat="44.10832" lon="3.01202">
        <ele>637.3</ele>
        <time>2018-05-19T11:31:23Z</time>
      </trkpt>
      <trkpt lat="44.10834" lon="3.01206">
        <ele>636.7</ele>
        <time>2018-05-19T11:31:24Z</time>
      </trkpt>
      <trkpt lat="44.10837" lon="3.01211">
        <ele>635.9</ele>
        <time>2018-05-19T11:31:25Z</time>
      </trkpt>
      <trkpt lat="44.10841" lon="3.01215">
        <ele>634.6</ele>
        <time>2018-05-19T11:31:26Z</time>
      </trkpt>
      <trkpt lat="44.10845" lon="3.01219">
        <ele>633.3</ele>
        <time>2018-05-19T11:31:27Z</time>
      </trkpt>
      <trkpt lat="44.10848" lon="3.01226">
        <ele>631.2</ele>
        <time>2018-05-19T11:31:28Z</time>
      </trkpt>
      <trkpt lat="44.10851" lon="3.01231">
        <ele>630</ele>
        <time>2018-05-19T11:31:29Z</time>
      </trkpt>
      <trkpt lat="44.10854" lon="3.01235">
        <ele>629.4</ele>
        <time>2018-05-19T11:31:30Z</time>
      </trkpt>
      <trkpt lat="44.10858" lon="3.0124">
        <ele>628.6</ele>
        <time>2018-05-19T11:31:31Z</time>
      </trkpt>
      <trkpt lat="44.10862" lon="3.01246">
        <ele>627.4</ele>
        <time>2018-05-19T11:31:32Z</time>
      </trkpt>
      <trkpt lat="44.10865" lon="3.01252">
        <ele>626.2</ele>
        <time>2018-05-19T11:31:33Z</time>
      </trkpt>
      <trkpt lat="44.10867" lon="3.01259">
        <ele>625.4</ele>
        <time>2018-05-19T11:31:34Z</time>
      </trkpt>
      <trkpt lat="44.10869" lon="3.01266">
        <ele>624.3</ele>
        <time>2018-05-19T11:31:35Z</time>
      </trkpt>
      <trkpt lat="44.10871" lon="3.01272">
        <ele>623.7</ele>
        <time>2018-05-19T11:31:36Z</time>
      </trkpt>
      <trkpt lat="44.10871" lon="3.01278">
        <ele>623</ele>
        <time>2018-05-19T11:31:37Z</time>
      </trkpt>
      <trkpt lat="44.10872" lon="3.01286">
        <ele>622.2</ele>
        <time>2018-05-19T11:31:38Z</time>
      </trkpt>
      <trkpt lat="44.10874" lon="3.01295">
        <ele>621.5</ele>
        <time>2018-05-19T11:31:39Z</time>
      </trkpt>
      <trkpt lat="44.10874" lon="3.01305">
        <ele>620.4</ele>
        <time>2018-05-19T11:31:40Z</time>
      </trkpt>
      <trkpt lat="44.10875" lon="3.01314">
        <ele>619.4</ele>
        <time>2018-05-19T11:31:41Z</time>
      </trkpt>
      <trkpt lat="44.10875" lon="3.01323">
        <ele>618.2</ele>
        <time>2018-05-19T11:31:42Z</time>
      </trkpt>
      <trkpt lat="44.10877" lon="3.0133">
        <ele>616.9</ele>
        <time>2018-05-19T11:31:43Z</time>
      </trkpt>
      <trkpt lat="44.10877" lon="3.01338">
        <ele>615.9</ele>
        <time>2018-05-19T11:31:44Z</time>
      </trkpt>
      <trkpt lat="44.10876" lon="3.01344">
        <ele>615.1</ele>
        <time>2018-05-19T11:31:45Z</time>
      </trkpt>
      <trkpt lat="44.10874" lon="3.0135">
        <ele>614.7</ele>
        <time>2018-05-19T11:31:46Z</time>
      </trkpt>
      <trkpt lat="44.10872" lon="3.01357">
        <ele>614</ele>
        <time>2018-05-19T11:31:47Z</time>
      </trkpt>
      <trkpt lat="44.10866" lon="3.01361">
        <ele>613.1</ele>
        <time>2018-05-19T11:31:48Z</time>
      </trkpt>
      <trkpt lat="44.10861" lon="3.01363">
        <ele>612.6</ele>
        <time>2018-05-19T11:31:49Z</time>
      </trkpt>
      <trkpt lat="44.10854" lon="3.01367">
        <ele>611.8</ele>
        <time>2018-05-19T11:31:50Z</time>
      </trkpt>
      <trkpt lat="44.10849" lon="3.01369">
        <ele>611.1</ele>
        <time>2018-05-19T11:31:51Z</time>
      </trkpt>
      <trkpt lat="44.10843" lon="3.01372">
        <ele>610.4</ele>
        <time>2018-05-19T11:31:52Z</time>
      </trkpt>
      <trkpt lat="44.10837" lon="3.01373">
        <ele>609.7</ele>
        <time>2018-05-19T11:31:53Z</time>
      </trkpt>
      <trkpt lat="44.1083" lon="3.01374">
        <ele>609.5</ele>
        <time>2018-05-19T11:31:54Z</time>
      </trkpt>
      <trkpt lat="44.10824" lon="3.01377">
        <ele>609.3</ele>
        <time>2018-05-19T11:31:55Z</time>
      </trkpt>
      <trkpt lat="44.10819" lon="3.01379">
        <ele>609.1</ele>
        <time>2018-05-19T11:31:56Z</time>
      </trkpt>
      <trkpt lat="44.10813" lon="3.01382">
        <ele>608.7</ele>
        <time>2018-05-19T11:31:57Z</time>
      </trkpt>
      <trkpt lat="44.10809" lon="3.01385">
        <ele>608.4</ele>
        <time>2018-05-19T11:31:58Z</time>
      </trkpt>
      <trkpt lat="44.10807" lon="3.01388">
        <ele>608.2</ele>
        <time>2018-05-19T11:32:00Z</time>
      </trkpt>
      <trkpt lat="44.1081" lon="3.01384">
        <ele>608</ele>
        <time>2018-05-19T11:32:16Z</time>
      </trkpt>
      <trkpt lat="44.10808" lon="3.01387">
        <ele>608</ele>
        <time>2018-05-19T11:32:50Z</time>
      </trkpt>
      <trkpt lat="44.10804" lon="3.01388">
        <ele>607.9</ele>
        <time>2018-05-19T11:33:05Z</time>
      </trkpt>
      <trkpt lat="44.10801" lon="3.01391">
        <ele>607.8</ele>
        <time>2018-05-19T11:33:07Z</time>
      </trkpt>
      <trkpt lat="44.10797" lon="3.01395">
        <ele>607.7</ele>
        <time>2018-05-19T11:33:09Z</time>
      </trkpt>
      <trkpt lat="44.10795" lon="3.01399">
        <ele>607.7</ele>
        <time>2018-05-19T11:33:11Z</time>
      </trkpt>
      <trkpt lat="44.10794" lon="3.01402">
        <ele>607.6</ele>
        <time>2018-05-19T11:33:14Z</time>
      </trkpt>
      <trkpt lat="44.10791" lon="3.01403">
        <ele>607.6</ele>
        <time>2018-05-19T11:33:22Z</time>
      </trkpt>
      <trkpt lat="44.10788" lon="3.01405">
        <ele>607.5</ele>
        <time>2018-05-19T11:33:26Z</time>
      </trkpt>
      <trkpt lat="44.10787" lon="3.01409">
        <ele>607.5</ele>
        <time>2018-05-19T11:33:28Z</time>
      </trkpt>
      <trkpt lat="44.10785" lon="3.01413">
        <ele>607.5</ele>
        <time>2018-05-19T11:33:31Z</time>
      </trkpt>
      <trkpt lat="44.10784" lon="3.01419">
        <ele>607.5</ele>
        <time>2018-05-19T11:33:34Z</time>
      </trkpt>
      <trkpt lat="44.10783" lon="3.01423">
        <ele>607.4</ele>
        <time>2018-05-19T11:33:35Z</time>
      </trkpt>
      <trkpt lat="44.10783" lon="3.01428">
        <ele>607.4</ele>
        <time>2018-05-19T11:33:36Z</time>
      </trkpt>
      <trkpt lat="44.10784" lon="3.01434">
        <ele>607.4</ele>
        <time>2018-05-19T11:33:37Z</time>
      </trkpt>
      <trkpt lat="44.10785" lon="3.01439">
        <ele>607.4</ele>
        <time>2018-05-19T11:33:38Z</time>
      </trkpt>
      <trkpt lat="44.10787" lon="3.01445">
        <ele>607.3</ele>
        <time>2018-05-19T11:33:39Z</time>
      </trkpt>
      <trkpt lat="44.10788" lon="3.01454">
        <ele>607.2</ele>
        <time>2018-05-19T11:33:40Z</time>
      </trkpt>
      <trkpt lat="44.10789" lon="3.01462">
        <ele>606</ele>
        <time>2018-05-19T11:33:41Z</time>
      </trkpt>
      <trkpt lat="44.10789" lon="3.0147">
        <ele>604.7</ele>
        <time>2018-05-19T11:33:42Z</time>
      </trkpt>
      <trkpt lat="44.10788" lon="3.01479">
        <ele>603.5</ele>
        <time>2018-05-19T11:33:43Z</time>
      </trkpt>
      <trkpt lat="44.10787" lon="3.01489">
        <ele>602.4</ele>
        <time>2018-05-19T11:33:44Z</time>
      </trkpt>
      <trkpt lat="44.10787" lon="3.01498">
        <ele>600.8</ele>
        <time>2018-05-19T11:33:45Z</time>
      </trkpt>
      <trkpt lat="44.10787" lon="3.01508">
        <ele>599.6</ele>
        <time>2018-05-19T11:33:46Z</time>
      </trkpt>
      <trkpt lat="44.10787" lon="3.01516">
        <ele>599.2</ele>
        <time>2018-05-19T11:33:47Z</time>
      </trkpt>
      <trkpt lat="44.10789" lon="3.01524">
        <ele>597.2</ele>
        <time>2018-05-19T11:33:48Z</time>
      </trkpt>
      <trkpt lat="44.10791" lon="3.01531">
        <ele>596.8</ele>
        <time>2018-05-19T11:33:49Z</time>
      </trkpt>
      <trkpt lat="44.10794" lon="3.01538">
        <ele>596.7</ele>
        <time>2018-05-19T11:33:50Z</time>
      </trkpt>
      <trkpt lat="44.10797" lon="3.01545">
        <ele>596.9</ele>
        <time>2018-05-19T11:33:51Z</time>
      </trkpt>
      <trkpt lat="44.10799" lon="3.01551">
        <ele>597.6</ele>
        <time>2018-05-19T11:33:52Z</time>
      </trkpt>
      <trkpt lat="44.108" lon="3.01557">
        <ele>598.5</ele>
        <time>2018-05-19T11:33:53Z</time>
      </trkpt>
      <trkpt lat="44.10802" lon="3.01562">
        <ele>599.4</ele>
        <time>2018-05-19T11:33:54Z</time>
      </trkpt>
      <trkpt lat="44.10802" lon="3.01567">
        <ele>600</ele>
        <time>2018-05-19T11:33:55Z</time>
      </trkpt>
      <trkpt lat="44.10803" lon="3.01571">
        <ele>600.5</ele>
        <time>2018-05-19T11:33:56Z</time>
      </trkpt>
      <trkpt lat="44.10802" lon="3.01575">
        <ele>600.8</ele>
        <time>2018-05-19T11:33:57Z</time>
      </trkpt>
      <trkpt lat="44.10803" lon="3.01582">
        <ele>601.2</ele>
        <time>2018-05-19T11:33:58Z</time>
      </trkpt>
      <trkpt lat="44.10805" lon="3.01587">
        <ele>601.6</ele>
        <time>2018-05-19T11:33:59Z</time>
      </trkpt>
      <trkpt lat="44.10805" lon="3.01594">
        <ele>602.1</ele>
        <time>2018-05-19T11:34:00Z</time>
      </trkpt>
      <trkpt lat="44.10806" lon="3.01599">
        <ele>602.5</ele>
        <time>2018-05-19T11:34:01Z</time>
      </trkpt>
      <trkpt lat="44.10807" lon="3.01604">
        <ele>602.8</ele>
        <time>2018-05-19T11:34:02Z</time>
      </trkpt>
      <trkpt lat="44.10809" lon="3.01609">
        <ele>603.2</ele>
        <time>2018-05-19T11:34:03Z</time>
      </trkpt>
      <trkpt lat="44.10811" lon="3.01615">
        <ele>603.6</ele>
        <time>2018-05-19T11:34:04Z</time>
      </trkpt>
      <trkpt lat="44.10812" lon="3.0162">
        <ele>603.8</ele>
        <time>2018-05-19T11:34:05Z</time>
      </trkpt>
      <trkpt lat="44.10814" lon="3.01624">
        <ele>604</ele>
        <time>2018-05-19T11:34:06Z</time>
      </trkpt>
      <trkpt lat="44.10815" lon="3.01629">
        <ele>604.3</ele>
        <time>2018-05-19T11:34:07Z</time>
      </trkpt>
      <trkpt lat="44.10816" lon="3.01633">
        <ele>604.5</ele>
        <time>2018-05-19T11:34:08Z</time>
      </trkpt>
      <trkpt lat="44.10818" lon="3.01638">
        <ele>604.8</ele>
        <time>2018-05-19T11:34:09Z</time>
      </trkpt>
      <trkpt lat="44.10819" lon="3.01642">
        <ele>605</ele>
        <time>2018-05-19T11:34:10Z</time>
      </trkpt>
      <trkpt lat="44.1082" lon="3.01647">
        <ele>605.3</ele>
        <time>2018-05-19T11:34:11Z</time>
      </trkpt>
      <trkpt lat="44.10822" lon="3.01651">
        <ele>605.5</ele>
        <time>2018-05-19T11:34:12Z</time>
      </trkpt>
      <trkpt lat="44.10823" lon="3.01655">
        <ele>605.7</ele>
        <time>2018-05-19T11:34:13Z</time>
      </trkpt>
      <trkpt lat="44.10825" lon="3.0166">
        <ele>605.9</ele>
        <time>2018-05-19T11:34:14Z</time>
      </trkpt>
      <trkpt lat="44.10826" lon="3.01664">
        <ele>606.1</ele>
        <time>2018-05-19T11:34:15Z</time>
      </trkpt>
      <trkpt lat="44.10827" lon="3.01669">
        <ele>606.2</ele>
        <time>2018-05-19T11:34:16Z</time>
      </trkpt>
      <trkpt lat="44.10828" lon="3.01674">
        <ele>606.3</ele>
        <time>2018-05-19T11:34:17Z</time>
      </trkpt>
      <trkpt lat="44.10829" lon="3.01679">
        <ele>606.4</ele>
        <time>2018-05-19T11:34:18Z</time>
      </trkpt>
      <trkpt lat="44.1083" lon="3.01683">
        <ele>606.4</ele>
        <time>2018-05-19T11:34:19Z</time>
      </trkpt>
      <trkpt lat="44.10831" lon="3.01688">
        <ele>606.5</ele>
        <time>2018-05-19T11:34:20Z</time>
      </trkpt>
      <trkpt lat="44.10831" lon="3.01692">
        <ele>606.5</ele>
        <time>2018-05-19T11:34:21Z</time>
      </trkpt>
      <trkpt lat="44.10832" lon="3.01696">
        <ele>606.6</ele>
        <time>2018-05-19T11:34:22Z</time>
      </trkpt>
      <trkpt lat="44.10833" lon="3.017">
        <ele>606.7</ele>
        <time>2018-05-19T11:34:23Z</time>
      </trkpt>
      <trkpt lat="44.10834" lon="3.01703">
        <ele>606.8</ele>
        <time>2018-05-19T11:34:24Z</time>
      </trkpt>
      <trkpt lat="44.10835" lon="3.01707">
        <ele>606.8</ele>
        <time>2018-05-19T11:34:25Z</time>
      </trkpt>
      <trkpt lat="44.10836" lon="3.01711">
        <ele>606.9</ele>
        <time>2018-05-19T11:34:26Z</time>
      </trkpt>
      <trkpt lat="44.10838" lon="3.01717">
        <ele>607</ele>
        <time>2018-05-19T11:34:28Z</time>
      </trkpt>
      <trkpt lat="44.1084" lon="3.01724">
        <ele>607.2</ele>
        <time>2018-05-19T11:34:30Z</time>
      </trkpt>
      <trkpt lat="44.10841" lon="3.01727">
        <ele>607.3</ele>
        <time>2018-05-19T11:34:31Z</time>
      </trkpt>
      <trkpt lat="44.10842" lon="3.01731">
        <ele>607.5</ele>
        <time>2018-05-19T11:34:32Z</time>
      </trkpt>
      <trkpt lat="44.10843" lon="3.01735">
        <ele>607.7</ele>
        <time>2018-05-19T11:34:33Z</time>
      </trkpt>
      <trkpt lat="44.10844" lon="3.01739">
        <ele>607.9</ele>
        <time>2018-05-19T11:34:34Z</time>
      </trkpt>
      <trkpt lat="44.10846" lon="3.01743">
        <ele>608.1</ele>
        <time>2018-05-19T11:34:35Z</time>
      </trkpt>
      <trkpt lat="44.10847" lon="3.01746">
        <ele>608.2</ele>
        <time>2018-05-19T11:34:36Z</time>
      </trkpt>
      <trkpt lat="44.10848" lon="3.0175">
        <ele>608.3</ele>
        <time>2018-05-19T11:34:37Z</time>
      </trkpt>
      <trkpt lat="44.1085" lon="3.01754">
        <ele>608.4</ele>
        <time>2018-05-19T11:34:38Z</time>
      </trkpt>
      <trkpt lat="44.10851" lon="3.01758">
        <ele>608.5</ele>
        <time>2018-05-19T11:34:39Z</time>
      </trkpt>
      <trkpt lat="44.10853" lon="3.01764">
        <ele>608.6</ele>
        <time>2018-05-19T11:34:41Z</time>
      </trkpt>
      <trkpt lat="44.10855" lon="3.01768">
        <ele>608.7</ele>
        <time>2018-05-19T11:34:42Z</time>
      </trkpt>
      <trkpt lat="44.10857" lon="3.01771">
        <ele>608.7</ele>
        <time>2018-05-19T11:34:43Z</time>
      </trkpt>
      <trkpt lat="44.10858" lon="3.01775">
        <ele>608.8</ele>
        <time>2018-05-19T11:34:44Z</time>
      </trkpt>
      <trkpt lat="44.10859" lon="3.01779">
        <ele>608.8</ele>
        <time>2018-05-19T11:34:45Z</time>
      </trkpt>
      <trkpt lat="44.1086" lon="3.01782">
        <ele>608.9</ele>
        <time>2018-05-19T11:34:46Z</time>
      </trkpt>
      <trkpt lat="44.10862" lon="3.01786">
        <ele>608.9</ele>
        <time>2018-05-19T11:34:47Z</time>
      </trkpt>
      <trkpt lat="44.10864" lon="3.01791">
        <ele>609</ele>
        <time>2018-05-19T11:34:49Z</time>
      </trkpt>
      <trkpt lat="44.10867" lon="3.01797">
        <ele>609</ele>
        <time>2018-05-19T11:34:51Z</time>
      </trkpt>
      <trkpt lat="44.10868" lon="3.01801">
        <ele>609.1</ele>
        <time>2018-05-19T11:34:52Z</time>
      </trkpt>
      <trkpt lat="44.10869" lon="3.01804">
        <ele>609.1</ele>
        <time>2018-05-19T11:34:53Z</time>
      </trkpt>
      <trkpt lat="44.10871" lon="3.01808">
        <ele>609.1</ele>
        <time>2018-05-19T11:34:54Z</time>
      </trkpt>
      <trkpt lat="44.10872" lon="3.01811">
        <ele>609.1</ele>
        <time>2018-05-19T11:34:55Z</time>
      </trkpt>
      <trkpt lat="44.10873" lon="3.01815">
        <ele>609.1</ele>
        <time>2018-05-19T11:34:56Z</time>
      </trkpt>
      <trkpt lat="44.10875" lon="3.01818">
        <ele>609.1</ele>
        <time>2018-05-19T11:34:57Z</time>
      </trkpt>
      <trkpt lat="44.10877" lon="3.01822">
        <ele>609.1</ele>
        <time>2018-05-19T11:34:58Z</time>
      </trkpt>
      <trkpt lat="44.10878" lon="3.01825">
        <ele>609.2</ele>
        <time>2018-05-19T11:34:59Z</time>
      </trkpt>
      <trkpt lat="44.1088" lon="3.01829">
        <ele>609.2</ele>
        <time>2018-05-19T11:35:00Z</time>
      </trkpt>
      <trkpt lat="44.10882" lon="3.01833">
        <ele>609.2</ele>
        <time>2018-05-19T11:35:01Z</time>
      </trkpt>
      <trkpt lat="44.10884" lon="3.01838">
        <ele>609.2</ele>
        <time>2018-05-19T11:35:02Z</time>
      </trkpt>
      <trkpt lat="44.10886" lon="3.01842">
        <ele>609.2</ele>
        <time>2018-05-19T11:35:03Z</time>
      </trkpt>
      <trkpt lat="44.10888" lon="3.01846">
        <ele>609.2</ele>
        <time>2018-05-19T11:35:04Z</time>
      </trkpt>
      <trkpt lat="44.10889" lon="3.0185">
        <ele>609.3</ele>
        <time>2018-05-19T11:35:05Z</time>
      </trkpt>
      <trkpt lat="44.10891" lon="3.01855">
        <ele>609.3</ele>
        <time>2018-05-19T11:35:06Z</time>
      </trkpt>
      <trkpt lat="44.10893" lon="3.01859">
        <ele>609.3</ele>
        <time>2018-05-19T11:35:07Z</time>
      </trkpt>
      <trkpt lat="44.10895" lon="3.01864">
        <ele>609.3</ele>
        <time>2018-05-19T11:35:08Z</time>
      </trkpt>
      <trkpt lat="44.10897" lon="3.01869">
        <ele>609.4</ele>
        <time>2018-05-19T11:35:09Z</time>
      </trkpt>
      <trkpt lat="44.10898" lon="3.01874">
        <ele>609.4</ele>
        <time>2018-05-19T11:35:10Z</time>
      </trkpt>
      <trkpt lat="44.109" lon="3.01879">
        <ele>609.4</ele>
        <time>2018-05-19T11:35:11Z</time>
      </trkpt>
      <trkpt lat="44.10902" lon="3.01883">
        <ele>609.4</ele>
        <time>2018-05-19T11:35:12Z</time>
      </trkpt>
      <trkpt lat="44.10904" lon="3.01888">
        <ele>609.5</ele>
        <time>2018-05-19T11:35:13Z</time>
      </trkpt>
      <trkpt lat="44.10906" lon="3.01892">
        <ele>609.5</ele>
        <time>2018-05-19T11:35:14Z</time>
      </trkpt>
      <trkpt lat="44.10908" lon="3.01897">
        <ele>609.5</ele>
        <time>2018-05-19T11:35:15Z</time>
      </trkpt>
      <trkpt lat="44.1091" lon="3.01901">
        <ele>609.5</ele>
        <time>2018-05-19T11:35:16Z</time>
      </trkpt>
      <trkpt lat="44.10912" lon="3.01906">
        <ele>609.5</ele>
        <time>2018-05-19T11:35:17Z</time>
      </trkpt>
      <trkpt lat="44.10913" lon="3.01911">
        <ele>609.6</ele>
        <time>2018-05-19T11:35:18Z</time>
      </trkpt>
      <trkpt lat="44.10915" lon="3.01915">
        <ele>609.6</ele>
        <time>2018-05-19T11:35:19Z</time>
      </trkpt>
      <trkpt lat="44.10917" lon="3.0192">
        <ele>609.6</ele>
        <time>2018-05-19T11:35:20Z</time>
      </trkpt>
      <trkpt lat="44.10919" lon="3.01924">
        <ele>609.6</ele>
        <time>2018-05-19T11:35:21Z</time>
      </trkpt>
      <trkpt lat="44.10921" lon="3.01929">
        <ele>609.6</ele>
        <time>2018-05-19T11:35:22Z</time>
      </trkpt>
      <trkpt lat="44.10923" lon="3.01933">
        <ele>609.6</ele>
        <time>2018-05-19T11:35:23Z</time>
      </trkpt>
      <trkpt lat="44.10925" lon="3.01938">
        <ele>609.7</ele>
        <time>2018-05-19T11:35:24Z</time>
      </trkpt>
      <trkpt lat="44.10928" lon="3.01942">
        <ele>609.7</ele>
        <time>2018-05-19T11:35:25Z</time>
      </trkpt>
      <trkpt lat="44.10929" lon="3.01947">
        <ele>609.7</ele>
        <time>2018-05-19T11:35:26Z</time>
      </trkpt>
      <trkpt lat="44.10931" lon="3.0195">
        <ele>609.7</ele>
        <time>2018-05-19T11:35:27Z</time>
      </trkpt>
      <trkpt lat="44.10932" lon="3.01953">
        <ele>609.7</ele>
        <time>2018-05-19T11:35:28Z</time>
      </trkpt>
      <trkpt lat="44.10934" lon="3.01957">
        <ele>609.7</ele>
        <time>2018-05-19T11:35:29Z</time>
      </trkpt>
      <trkpt lat="44.10936" lon="3.01961">
        <ele>609.8</ele>
        <time>2018-05-19T11:35:30Z</time>
      </trkpt>
      <trkpt lat="44.10938" lon="3.01964">
        <ele>609.8</ele>
        <time>2018-05-19T11:35:31Z</time>
      </trkpt>
      <trkpt lat="44.1094" lon="3.01967">
        <ele>609.8</ele>
        <time>2018-05-19T11:35:32Z</time>
      </trkpt>
      <trkpt lat="44.10943" lon="3.01971">
        <ele>609.8</ele>
        <time>2018-05-19T11:35:33Z</time>
      </trkpt>
      <trkpt lat="44.10946" lon="3.01974">
        <ele>609.8</ele>
        <time>2018-05-19T11:35:34Z</time>
      </trkpt>
      <trkpt lat="44.10948" lon="3.01976">
        <ele>609.9</ele>
        <time>2018-05-19T11:35:35Z</time>
      </trkpt>
      <trkpt lat="44.1095" lon="3.01979">
        <ele>609.9</ele>
        <time>2018-05-19T11:35:36Z</time>
      </trkpt>
      <trkpt lat="44.10952" lon="3.01982">
        <ele>609.9</ele>
        <time>2018-05-19T11:35:37Z</time>
      </trkpt>
      <trkpt lat="44.10954" lon="3.01985">
        <ele>609.9</ele>
        <time>2018-05-19T11:35:38Z</time>
      </trkpt>
      <trkpt lat="44.10958" lon="3.0199">
        <ele>610</ele>
        <time>2018-05-19T11:35:40Z</time>
      </trkpt>
      <trkpt lat="44.10962" lon="3.01995">
        <ele>610</ele>
        <time>2018-05-19T11:35:42Z</time>
      </trkpt>
      <trkpt lat="44.10964" lon="3.01999">
        <ele>610</ele>
        <time>2018-05-19T11:35:44Z</time>
      </trkpt>
      <trkpt lat="44.10967" lon="3.01998">
        <ele>609.9</ele>
        <time>2018-05-19T11:36:31Z</time>
      </trkpt>
      <trkpt lat="44.1097" lon="3.02">
        <ele>609.7</ele>
        <time>2018-05-19T11:36:45Z</time>
      </trkpt>
      <trkpt lat="44.10967" lon="3.02004">
        <ele>609.5</ele>
        <time>2018-05-19T11:37:29Z</time>
      </trkpt>
      <trkpt lat="44.10965" lon="3.02007">
        <ele>609.3</ele>
        <time>2018-05-19T11:37:32Z</time>
      </trkpt>
      <trkpt lat="44.10963" lon="3.02011">
        <ele>609.2</ele>
        <time>2018-05-19T11:37:34Z</time>
      </trkpt>
      <trkpt lat="44.10961" lon="3.02015">
        <ele>609</ele>
        <time>2018-05-19T11:37:36Z</time>
      </trkpt>
      <trkpt lat="44.10959" lon="3.0202">
        <ele>608.9</ele>
        <time>2018-05-19T11:37:38Z</time>
      </trkpt>
      <trkpt lat="44.10957" lon="3.02025">
        <ele>608.7</ele>
        <time>2018-05-19T11:37:40Z</time>
      </trkpt>
      <trkpt lat="44.10955" lon="3.02031">
        <ele>608.5</ele>
        <time>2018-05-19T11:37:42Z</time>
      </trkpt>
      <trkpt lat="44.10954" lon="3.02037">
        <ele>608.4</ele>
        <time>2018-05-19T11:37:44Z</time>
      </trkpt>
      <trkpt lat="44.10953" lon="3.02041">
        <ele>608.3</ele>
        <time>2018-05-19T11:37:46Z</time>
      </trkpt>
      <trkpt lat="44.10952" lon="3.02046">
        <ele>608.3</ele>
        <time>2018-05-19T11:37:48Z</time>
      </trkpt>
      <trkpt lat="44.10952" lon="3.02049">
        <ele>608.2</ele>
        <time>2018-05-19T11:37:50Z</time>
      </trkpt>
      <trkpt lat="44.10952" lon="3.02054">
        <ele>608.1</ele>
        <time>2018-05-19T11:37:53Z</time>
      </trkpt>
      <trkpt lat="44.10951" lon="3.02057">
        <ele>608</ele>
        <time>2018-05-19T11:37:58Z</time>
      </trkpt>
      <trkpt lat="44.10945" lon="3.02064">
        <ele>608.7</ele>
        <time>2018-05-19T11:39:21Z</time>
      </trkpt>
      <trkpt lat="44.10947" lon="3.02067">
        <ele>609.1</ele>
        <time>2018-05-19T11:39:23Z</time>
      </trkpt>
      <trkpt lat="44.1095" lon="3.02071">
        <ele>609.7</ele>
        <time>2018-05-19T11:39:25Z</time>
      </trkpt>
      <trkpt lat="44.10952" lon="3.02074">
        <ele>610.3</ele>
        <time>2018-05-19T11:39:27Z</time>
      </trkpt>
      <trkpt lat="44.10955" lon="3.02078">
        <ele>610.9</ele>
        <time>2018-05-19T11:39:29Z</time>
      </trkpt>
      <trkpt lat="44.10958" lon="3.02081">
        <ele>611.4</ele>
        <time>2018-05-19T11:39:31Z</time>
      </trkpt>
      <trkpt lat="44.10961" lon="3.02085">
        <ele>612</ele>
        <time>2018-05-19T11:39:33Z</time>
      </trkpt>
      <trkpt lat="44.10964" lon="3.02089">
        <ele>612.5</ele>
        <time>2018-05-19T11:39:35Z</time>
      </trkpt>
      <trkpt lat="44.10966" lon="3.02093">
        <ele>613</ele>
        <time>2018-05-19T11:39:37Z</time>
      </trkpt>
      <trkpt lat="44.10967" lon="3.02095">
        <ele>613.4</ele>
        <time>2018-05-19T11:39:39Z</time>
      </trkpt>
      <trkpt lat="44.1097" lon="3.02098">
        <ele>613.8</ele>
        <time>2018-05-19T11:39:41Z</time>
      </trkpt>
      <trkpt lat="44.10973" lon="3.02101">
        <ele>614.3</ele>
        <time>2018-05-19T11:39:44Z</time>
      </trkpt>
      <trkpt lat="44.10975" lon="3.02103">
        <ele>614.7</ele>
        <time>2018-05-19T11:39:46Z</time>
      </trkpt>
      <trkpt lat="44.10977" lon="3.02106">
        <ele>615.1</ele>
        <time>2018-05-19T11:39:48Z</time>
      </trkpt>
      <trkpt lat="44.10979" lon="3.0211">
        <ele>615.5</ele>
        <time>2018-05-19T11:39:50Z</time>
      </trkpt>
      <trkpt lat="44.10981" lon="3.02114">
        <ele>615.9</ele>
        <time>2018-05-19T11:39:52Z</time>
      </trkpt>
      <trkpt lat="44.10983" lon="3.02118">
        <ele>616.4</ele>
        <time>2018-05-19T11:39:55Z</time>
      </trkpt>
      <trkpt lat="44.10986" lon="3.02122">
        <ele>616.9</ele>
        <time>2018-05-19T11:39:57Z</time>
      </trkpt>
      <trkpt lat="44.10988" lon="3.02125">
        <ele>617.2</ele>
        <time>2018-05-19T11:39:59Z</time>
      </trkpt>
      <trkpt lat="44.1099" lon="3.02127">
        <ele>617.5</ele>
        <time>2018-05-19T11:40:01Z</time>
      </trkpt>
      <trkpt lat="44.10993" lon="3.02129">
        <ele>617.8</ele>
        <time>2018-05-19T11:40:03Z</time>
      </trkpt>
      <trkpt lat="44.10995" lon="3.02131">
        <ele>618.2</ele>
        <time>2018-05-19T11:40:05Z</time>
      </trkpt>
      <trkpt lat="44.10997" lon="3.02134">
        <ele>618.5</ele>
        <time>2018-05-19T11:40:07Z</time>
      </trkpt>
      <trkpt lat="44.11" lon="3.02138">
        <ele>619</ele>
        <time>2018-05-19T11:40:09Z</time>
      </trkpt>
      <trkpt lat="44.11002" lon="3.02141">
        <ele>619.2</ele>
        <time>2018-05-19T11:40:11Z</time>
      </trkpt>
      <trkpt lat="44.11005" lon="3.02143">
        <ele>619.6</ele>
        <time>2018-05-19T11:40:14Z</time>
      </trkpt>
      <trkpt lat="44.11007" lon="3.02145">
        <ele>619.9</ele>
        <time>2018-05-19T11:40:17Z</time>
      </trkpt>
      <trkpt lat="44.1101" lon="3.02148">
        <ele>620.3</ele>
        <time>2018-05-19T11:40:20Z</time>
      </trkpt>
      <trkpt lat="44.11012" lon="3.02151">
        <ele>620.6</ele>
        <time>2018-05-19T11:40:22Z</time>
      </trkpt>
      <trkpt lat="44.11014" lon="3.02155">
        <ele>621</ele>
        <time>2018-05-19T11:40:24Z</time>
      </trkpt>
      <trkpt lat="44.11017" lon="3.02158">
        <ele>621.4</ele>
        <time>2018-05-19T11:40:26Z</time>
      </trkpt>
      <trkpt lat="44.11019" lon="3.02161">
        <ele>621.7</ele>
        <time>2018-05-19T11:40:28Z</time>
      </trkpt>
      <trkpt lat="44.11021" lon="3.02164">
        <ele>622.1</ele>
        <time>2018-05-19T11:40:31Z</time>
      </trkpt>
      <trkpt lat="44.11024" lon="3.02168">
        <ele>622.4</ele>
        <time>2018-05-19T11:40:33Z</time>
      </trkpt>
      <trkpt lat="44.11026" lon="3.02172">
        <ele>622.8</ele>
        <time>2018-05-19T11:40:35Z</time>
      </trkpt>
      <trkpt lat="44.11029" lon="3.02175">
        <ele>623.2</ele>
        <time>2018-05-19T11:40:38Z</time>
      </trkpt>
      <trkpt lat="44.11031" lon="3.02177">
        <ele>623.6</ele>
        <time>2018-05-19T11:40:41Z</time>
      </trkpt>
      <trkpt lat="44.11035" lon="3.02179">
        <ele>624</ele>
        <time>2018-05-19T11:40:44Z</time>
      </trkpt>
      <trkpt lat="44.11038" lon="3.02181">
        <ele>624.4</ele>
        <time>2018-05-19T11:40:46Z</time>
      </trkpt>
      <trkpt lat="44.11041" lon="3.02182">
        <ele>624.8</ele>
        <time>2018-05-19T11:40:49Z</time>
      </trkpt>
      <trkpt lat="44.11043" lon="3.02184">
        <ele>625.1</ele>
        <time>2018-05-19T11:40:51Z</time>
      </trkpt>
      <trkpt lat="44.11046" lon="3.02187">
        <ele>625.6</ele>
        <time>2018-05-19T11:40:53Z</time>
      </trkpt>
      <trkpt lat="44.11049" lon="3.0219">
        <ele>625.9</ele>
        <time>2018-05-19T11:40:55Z</time>
      </trkpt>
      <trkpt lat="44.11051" lon="3.02192">
        <ele>626.4</ele>
        <time>2018-05-19T11:40:58Z</time>
      </trkpt>
      <trkpt lat="44.11054" lon="3.02195">
        <ele>626.9</ele>
        <time>2018-05-19T11:41:01Z</time>
      </trkpt>
      <trkpt lat="44.11057" lon="3.02196">
        <ele>627.4</ele>
        <time>2018-05-19T11:41:03Z</time>
      </trkpt>
      <trkpt lat="44.1106" lon="3.02199">
        <ele>628</ele>
        <time>2018-05-19T11:41:05Z</time>
      </trkpt>
      <trkpt lat="44.11063" lon="3.02202">
        <ele>628.6</ele>
        <time>2018-05-19T11:41:07Z</time>
      </trkpt>
      <trkpt lat="44.11065" lon="3.02205">
        <ele>629.2</ele>
        <time>2018-05-19T11:41:09Z</time>
      </trkpt>
      <trkpt lat="44.11063" lon="3.02209">
        <ele>629.9</ele>
        <time>2018-05-19T11:41:13Z</time>
      </trkpt>
      <trkpt lat="44.11059" lon="3.0221">
        <ele>630.8</ele>
        <time>2018-05-19T11:41:16Z</time>
      </trkpt>
      <trkpt lat="44.11056" lon="3.02212">
        <ele>631.6</ele>
        <time>2018-05-19T11:41:19Z</time>
      </trkpt>
      <trkpt lat="44.11052" lon="3.02212">
        <ele>632.2</ele>
        <time>2018-05-19T11:41:22Z</time>
      </trkpt>
      <trkpt lat="44.11049" lon="3.02213">
        <ele>632.4</ele>
        <time>2018-05-19T11:41:25Z</time>
      </trkpt>
      <trkpt lat="44.11046" lon="3.02213">
        <ele>632.5</ele>
        <time>2018-05-19T11:41:27Z</time>
      </trkpt>
      <trkpt lat="44.11043" lon="3.02214">
        <ele>632.7</ele>
        <time>2018-05-19T11:41:29Z</time>
      </trkpt>
      <trkpt lat="44.1104" lon="3.02215">
        <ele>632.9</ele>
        <time>2018-05-19T11:41:31Z</time>
      </trkpt>
      <trkpt lat="44.11037" lon="3.02216">
        <ele>633.1</ele>
        <time>2018-05-19T11:41:33Z</time>
      </trkpt>
      <trkpt lat="44.11033" lon="3.02217">
        <ele>633.3</ele>
        <time>2018-05-19T11:41:35Z</time>
      </trkpt>
      <trkpt lat="44.11029" lon="3.02218">
        <ele>633.5</ele>
        <time>2018-05-19T11:41:37Z</time>
      </trkpt>
      <trkpt lat="44.11026" lon="3.0222">
        <ele>633.8</ele>
        <time>2018-05-19T11:41:39Z</time>
      </trkpt>
      <trkpt lat="44.11022" lon="3.0222">
        <ele>634.2</ele>
        <time>2018-05-19T11:41:42Z</time>
      </trkpt>
      <trkpt lat="44.11018" lon="3.02221">
        <ele>634.6</ele>
        <time>2018-05-19T11:41:44Z</time>
      </trkpt>
      <trkpt lat="44.11015" lon="3.02222">
        <ele>634.9</ele>
        <time>2018-05-19T11:41:46Z</time>
      </trkpt>
      <trkpt lat="44.11012" lon="3.02222">
        <ele>635.2</ele>
        <time>2018-05-19T11:41:48Z</time>
      </trkpt>
      <trkpt lat="44.11008" lon="3.02222">
        <ele>635.5</ele>
        <time>2018-05-19T11:41:50Z</time>
      </trkpt>
      <trkpt lat="44.11005" lon="3.02222">
        <ele>635.7</ele>
        <time>2018-05-19T11:41:52Z</time>
      </trkpt>
      <trkpt lat="44.11001" lon="3.02224">
        <ele>636</ele>
        <time>2018-05-19T11:41:54Z</time>
      </trkpt>
      <trkpt lat="44.10998" lon="3.02227">
        <ele>636.2</ele>
        <time>2018-05-19T11:41:56Z</time>
      </trkpt>
      <trkpt lat="44.10996" lon="3.02232">
        <ele>636.4</ele>
        <time>2018-05-19T11:41:58Z</time>
      </trkpt>
      <trkpt lat="44.10996" lon="3.02236">
        <ele>636.6</ele>
        <time>2018-05-19T11:42:00Z</time>
      </trkpt>
      <trkpt lat="44.10996" lon="3.02241">
        <ele>636.7</ele>
        <time>2018-05-19T11:42:02Z</time>
      </trkpt>
      <trkpt lat="44.10994" lon="3.02246">
        <ele>636.9</ele>
        <time>2018-05-19T11:42:06Z</time>
      </trkpt>
      <trkpt lat="44.10993" lon="3.02249">
        <ele>637.1</ele>
        <time>2018-05-19T11:42:09Z</time>
      </trkpt>
      <trkpt lat="44.1099" lon="3.02253">
        <ele>637.4</ele>
        <time>2018-05-19T11:42:12Z</time>
      </trkpt>
      <trkpt lat="44.10987" lon="3.02256">
        <ele>637.6</ele>
        <time>2018-05-19T11:42:14Z</time>
      </trkpt>
      <trkpt lat="44.10985" lon="3.02257">
        <ele>637.7</ele>
        <time>2018-05-19T11:42:16Z</time>
      </trkpt>
      <trkpt lat="44.10982" lon="3.02256">
        <ele>637.8</ele>
        <time>2018-05-19T11:42:22Z</time>
      </trkpt>
      <trkpt lat="44.10984" lon="3.02257">
        <ele>637.9</ele>
        <time>2018-05-19T11:42:35Z</time>
      </trkpt>
      <trkpt lat="44.10987" lon="3.02259">
        <ele>638</ele>
        <time>2018-05-19T11:42:37Z</time>
      </trkpt>
      <trkpt lat="44.1099" lon="3.02261">
        <ele>638</ele>
        <time>2018-05-19T11:42:40Z</time>
      </trkpt>
      <trkpt lat="44.10993" lon="3.02263">
        <ele>637.6</ele>
        <time>2018-05-19T11:42:44Z</time>
      </trkpt>
      <trkpt lat="44.10995" lon="3.02266">
        <ele>637.2</ele>
        <time>2018-05-19T11:42:47Z</time>
      </trkpt>
      <trkpt lat="44.10992" lon="3.02269">
        <ele>636.9</ele>
        <time>2018-05-19T11:42:50Z</time>
      </trkpt>
      <trkpt lat="44.10989" lon="3.02266">
        <ele>636.4</ele>
        <time>2018-05-19T11:42:52Z</time>
      </trkpt>
      <trkpt lat="44.10987" lon="3.02263">
        <ele>636.1</ele>
        <time>2018-05-19T11:42:53Z</time>
      </trkpt>
      <trkpt lat="44.10985" lon="3.0226">
        <ele>635.9</ele>
        <time>2018-05-19T11:42:54Z</time>
      </trkpt>
      <trkpt lat="44.10982" lon="3.02256">
        <ele>635.8</ele>
        <time>2018-05-19T11:42:55Z</time>
      </trkpt>
      <trkpt lat="44.10979" lon="3.02253">
        <ele>635.6</ele>
        <time>2018-05-19T11:42:56Z</time>
      </trkpt>
      <trkpt lat="44.10975" lon="3.0225">
        <ele>635.5</ele>
        <time>2018-05-19T11:42:57Z</time>
      </trkpt>
      <trkpt lat="44.10971" lon="3.02247">
        <ele>635.4</ele>
        <time>2018-05-19T11:42:58Z</time>
      </trkpt>
      <trkpt lat="44.10968" lon="3.02245">
        <ele>635.3</ele>
        <time>2018-05-19T11:42:59Z</time>
      </trkpt>
      <trkpt lat="44.10964" lon="3.02242">
        <ele>635.2</ele>
        <time>2018-05-19T11:43:00Z</time>
      </trkpt>
      <trkpt lat="44.1096" lon="3.02239">
        <ele>635</ele>
        <time>2018-05-19T11:43:01Z</time>
      </trkpt>
      <trkpt lat="44.10957" lon="3.02236">
        <ele>634.9</ele>
        <time>2018-05-19T11:43:02Z</time>
      </trkpt>
      <trkpt lat="44.10952" lon="3.02232">
        <ele>634.7</ele>
        <time>2018-05-19T11:43:03Z</time>
      </trkpt>
      <trkpt lat="44.10948" lon="3.02228">
        <ele>634.6</ele>
        <time>2018-05-19T11:43:04Z</time>
      </trkpt>
      <trkpt lat="44.10943" lon="3.02224">
        <ele>634.4</ele>
        <time>2018-05-19T11:43:05Z</time>
      </trkpt>
      <trkpt lat="44.10938" lon="3.0222">
        <ele>634.3</ele>
        <time>2018-05-19T11:43:06Z</time>
      </trkpt>
      <trkpt lat="44.10933" lon="3.02216">
        <ele>634.1</ele>
        <time>2018-05-19T11:43:07Z</time>
      </trkpt>
      <trkpt lat="44.10929" lon="3.02213">
        <ele>633.9</ele>
        <time>2018-05-19T11:43:08Z</time>
      </trkpt>
      <trkpt lat="44.10924" lon="3.02208">
        <ele>633.5</ele>
        <time>2018-05-19T11:43:09Z</time>
      </trkpt>
      <trkpt lat="44.10919" lon="3.02204">
        <ele>632.8</ele>
        <time>2018-05-19T11:43:10Z</time>
      </trkpt>
      <trkpt lat="44.10914" lon="3.02199">
        <ele>632.3</ele>
        <time>2018-05-19T11:43:11Z</time>
      </trkpt>
      <trkpt lat="44.10909" lon="3.02194">
        <ele>632.2</ele>
        <time>2018-05-19T11:43:12Z</time>
      </trkpt>
      <trkpt lat="44.10904" lon="3.02188">
        <ele>632</ele>
        <time>2018-05-19T11:43:13Z</time>
      </trkpt>
      <trkpt lat="44.109" lon="3.02184">
        <ele>631.9</ele>
        <time>2018-05-19T11:43:14Z</time>
      </trkpt>
      <trkpt lat="44.10896" lon="3.02181">
        <ele>631.8</ele>
        <time>2018-05-19T11:43:15Z</time>
      </trkpt>
      <trkpt lat="44.10892" lon="3.02174">
        <ele>631.7</ele>
        <time>2018-05-19T11:43:16Z</time>
      </trkpt>
      <trkpt lat="44.10888" lon="3.02169">
        <ele>631.6</ele>
        <time>2018-05-19T11:43:17Z</time>
      </trkpt>
      <trkpt lat="44.10884" lon="3.02164">
        <ele>631.5</ele>
        <time>2018-05-19T11:43:18Z</time>
      </trkpt>
      <trkpt lat="44.1088" lon="3.02159">
        <ele>631.4</ele>
        <time>2018-05-19T11:43:19Z</time>
      </trkpt>
      <trkpt lat="44.10875" lon="3.02154">
        <ele>631.3</ele>
        <time>2018-05-19T11:43:20Z</time>
      </trkpt>
      <trkpt lat="44.10871" lon="3.02148">
        <ele>631.3</ele>
        <time>2018-05-19T11:43:21Z</time>
      </trkpt>
      <trkpt lat="44.10867" lon="3.02144">
        <ele>631.2</ele>
        <time>2018-05-19T11:43:22Z</time>
      </trkpt>
      <trkpt lat="44.10864" lon="3.02142">
        <ele>631.1</ele>
        <time>2018-05-19T11:43:23Z</time>
      </trkpt>
      <trkpt lat="44.1086" lon="3.02141">
        <ele>631.1</ele>
        <time>2018-05-19T11:43:24Z</time>
      </trkpt>
      <trkpt lat="44.10857" lon="3.02141">
        <ele>631</ele>
        <time>2018-05-19T11:43:25Z</time>
      </trkpt>
      <trkpt lat="44.10855" lon="3.02142">
        <ele>631</ele>
        <time>2018-05-19T11:43:26Z</time>
      </trkpt>
      <trkpt lat="44.10851" lon="3.02145">
        <ele>630.8</ele>
        <time>2018-05-19T11:43:28Z</time>
      </trkpt>
      <trkpt lat="44.1085" lon="3.0215">
        <ele>630.2</ele>
        <time>2018-05-19T11:43:30Z</time>
      </trkpt>
      <trkpt lat="44.10849" lon="3.02154">
        <ele>629.7</ele>
        <time>2018-05-19T11:43:32Z</time>
      </trkpt>
      <trkpt lat="44.10846" lon="3.0216">
        <ele>628.9</ele>
        <time>2018-05-19T11:43:34Z</time>
      </trkpt>
      <trkpt lat="44.10844" lon="3.02165">
        <ele>628.3</ele>
        <time>2018-05-19T11:43:35Z</time>
      </trkpt>
      <trkpt lat="44.10841" lon="3.02173">
        <ele>627.3</ele>
        <time>2018-05-19T11:43:36Z</time>
      </trkpt>
      <trkpt lat="44.10839" lon="3.02177">
        <ele>626.7</ele>
        <time>2018-05-19T11:43:37Z</time>
      </trkpt>
      <trkpt lat="44.10837" lon="3.02183">
        <ele>626</ele>
        <time>2018-05-19T11:43:38Z</time>
      </trkpt>
      <trkpt lat="44.10835" lon="3.0219">
        <ele>625.2</ele>
        <time>2018-05-19T11:43:39Z</time>
      </trkpt>
      <trkpt lat="44.10834" lon="3.02196">
        <ele>624.4</ele>
        <time>2018-05-19T11:43:40Z</time>
      </trkpt>
      <trkpt lat="44.1083" lon="3.02203">
        <ele>623.8</ele>
        <time>2018-05-19T11:43:41Z</time>
      </trkpt>
      <trkpt lat="44.10827" lon="3.02208">
        <ele>623.7</ele>
        <time>2018-05-19T11:43:42Z</time>
      </trkpt>
      <trkpt lat="44.10823" lon="3.02214">
        <ele>623.5</ele>
        <time>2018-05-19T11:43:43Z</time>
      </trkpt>
      <trkpt lat="44.10818" lon="3.0222">
        <ele>623.1</ele>
        <time>2018-05-19T11:43:44Z</time>
      </trkpt>
      <trkpt lat="44.10813" lon="3.02229">
        <ele>622.1</ele>
        <time>2018-05-19T11:43:45Z</time>
      </trkpt>
      <trkpt lat="44.10807" lon="3.02238">
        <ele>621.7</ele>
        <time>2018-05-19T11:43:46Z</time>
      </trkpt>
      <trkpt lat="44.10801" lon="3.02247">
        <ele>621.4</ele>
        <time>2018-05-19T11:43:47Z</time>
      </trkpt>
      <trkpt lat="44.10797" lon="3.02255">
        <ele>621.1</ele>
        <time>2018-05-19T11:43:48Z</time>
      </trkpt>
      <trkpt lat="44.10793" lon="3.02261">
        <ele>620.6</ele>
        <time>2018-05-19T11:43:49Z</time>
      </trkpt>
      <trkpt lat="44.1079" lon="3.02268">
        <ele>620.2</ele>
        <time>2018-05-19T11:43:50Z</time>
      </trkpt>
      <trkpt lat="44.10785" lon="3.02275">
        <ele>619.9</ele>
        <time>2018-05-19T11:43:51Z</time>
      </trkpt>
      <trkpt lat="44.10781" lon="3.02284">
        <ele>619.7</ele>
        <time>2018-05-19T11:43:52Z</time>
      </trkpt>
      <trkpt lat="44.10775" lon="3.02291">
        <ele>619.6</ele>
        <time>2018-05-19T11:43:53Z</time>
      </trkpt>
      <trkpt lat="44.10771" lon="3.023">
        <ele>619.5</ele>
        <time>2018-05-19T11:43:54Z</time>
      </trkpt>
      <trkpt lat="44.10766" lon="3.02308">
        <ele>619.5</ele>
        <time>2018-05-19T11:43:55Z</time>
      </trkpt>
      <trkpt lat="44.1076" lon="3.02316">
        <ele>619.4</ele>
        <time>2018-05-19T11:43:56Z</time>
      </trkpt>
      <trkpt lat="44.10756" lon="3.02324">
        <ele>619.4</ele>
        <time>2018-05-19T11:43:57Z</time>
      </trkpt>
      <trkpt lat="44.10751" lon="3.02331">
        <ele>619.3</ele>
        <time>2018-05-19T11:43:58Z</time>
      </trkpt>
      <trkpt lat="44.10746" lon="3.02338">
        <ele>619.3</ele>
        <time>2018-05-19T11:43:59Z</time>
      </trkpt>
      <trkpt lat="44.10741" lon="3.02345">
        <ele>619.2</ele>
        <time>2018-05-19T11:44:00Z</time>
      </trkpt>
      <trkpt lat="44.10736" lon="3.02351">
        <ele>619.1</ele>
        <time>2018-05-19T11:44:01Z</time>
      </trkpt>
      <trkpt lat="44.10732" lon="3.02359">
        <ele>619</ele>
        <time>2018-05-19T11:44:02Z</time>
      </trkpt>
      <trkpt lat="44.10728" lon="3.02365">
        <ele>618.9</ele>
        <time>2018-05-19T11:44:03Z</time>
      </trkpt>
      <trkpt lat="44.10723" lon="3.02372">
        <ele>618.4</ele>
        <time>2018-05-19T11:44:04Z</time>
      </trkpt>
      <trkpt lat="44.10718" lon="3.02378">
        <ele>618</ele>
        <time>2018-05-19T11:44:05Z</time>
      </trkpt>
      <trkpt lat="44.10713" lon="3.02386">
        <ele>617.7</ele>
        <time>2018-05-19T11:44:06Z</time>
      </trkpt>
      <trkpt lat="44.10707" lon="3.02393">
        <ele>617.5</ele>
        <time>2018-05-19T11:44:07Z</time>
      </trkpt>
      <trkpt lat="44.10702" lon="3.024">
        <ele>617.4</ele>
        <time>2018-05-19T11:44:08Z</time>
      </trkpt>
      <trkpt lat="44.10695" lon="3.02406">
        <ele>617.1</ele>
        <time>2018-05-19T11:44:09Z</time>
      </trkpt>
      <trkpt lat="44.10688" lon="3.02411">
        <ele>616.9</ele>
        <time>2018-05-19T11:44:10Z</time>
      </trkpt>
      <trkpt lat="44.10682" lon="3.02417">
        <ele>616.2</ele>
        <time>2018-05-19T11:44:11Z</time>
      </trkpt>
      <trkpt lat="44.10675" lon="3.02423">
        <ele>615.8</ele>
        <time>2018-05-19T11:44:12Z</time>
      </trkpt>
      <trkpt lat="44.10668" lon="3.02431">
        <ele>615.5</ele>
        <time>2018-05-19T11:44:13Z</time>
      </trkpt>
      <trkpt lat="44.1066" lon="3.02438">
        <ele>615.2</ele>
        <time>2018-05-19T11:44:14Z</time>
      </trkpt>
      <trkpt lat="44.10651" lon="3.02445">
        <ele>614.9</ele>
        <time>2018-05-19T11:44:15Z</time>
      </trkpt>
      <trkpt lat="44.10644" lon="3.02453">
        <ele>614.5</ele>
        <time>2018-05-19T11:44:16Z</time>
      </trkpt>
      <trkpt lat="44.10637" lon="3.02461">
        <ele>613.7</ele>
        <time>2018-05-19T11:44:17Z</time>
      </trkpt>
      <trkpt lat="44.10629" lon="3.02469">
        <ele>613.3</ele>
        <time>2018-05-19T11:44:18Z</time>
      </trkpt>
      <trkpt lat="44.10621" lon="3.02475">
        <ele>613</ele>
        <time>2018-05-19T11:44:19Z</time>
      </trkpt>
      <trkpt lat="44.10614" lon="3.02479">
        <ele>612.7</ele>
        <time>2018-05-19T11:44:20Z</time>
      </trkpt>
      <trkpt lat="44.10608" lon="3.02483">
        <ele>612</ele>
        <time>2018-05-19T11:44:21Z</time>
      </trkpt>
      <trkpt lat="44.10602" lon="3.02487">
        <ele>611.6</ele>
        <time>2018-05-19T11:44:22Z</time>
      </trkpt>
      <trkpt lat="44.10596" lon="3.02492">
        <ele>611.3</ele>
        <time>2018-05-19T11:44:23Z</time>
      </trkpt>
      <trkpt lat="44.10593" lon="3.02494">
        <ele>611.2</ele>
        <time>2018-05-19T11:44:24Z</time>
      </trkpt>
      <trkpt lat="44.1059" lon="3.02496">
        <ele>611.1</ele>
        <time>2018-05-19T11:44:26Z</time>
      </trkpt>
      <trkpt lat="44.10587" lon="3.02497">
        <ele>611</ele>
        <time>2018-05-19T11:44:28Z</time>
      </trkpt>
      <trkpt lat="44.10585" lon="3.02501">
        <ele>611</ele>
        <time>2018-05-19T11:44:38Z</time>
      </trkpt>
      <trkpt lat="44.10583" lon="3.02499">
        <ele>611</ele>
        <time>2018-05-19T11:44:58Z</time>
      </trkpt>
      <trkpt lat="44.10583" lon="3.02505">
        <ele>610.9</ele>
        <time>2018-05-19T11:47:15Z</time>
      </trkpt>
      <trkpt lat="44.10579" lon="3.02508">
        <ele>610.9</ele>
        <time>2018-05-19T11:47:17Z</time>
      </trkpt>
      <trkpt lat="44.10576" lon="3.0251">
        <ele>610.9</ele>
        <time>2018-05-19T11:47:18Z</time>
      </trkpt>
      <trkpt lat="44.10573" lon="3.02512">
        <ele>610.9</ele>
        <time>2018-05-19T11:47:19Z</time>
      </trkpt>
      <trkpt lat="44.1057" lon="3.02514">
        <ele>610.9</ele>
        <time>2018-05-19T11:47:20Z</time>
      </trkpt>
      <trkpt lat="44.10567" lon="3.02517">
        <ele>610.8</ele>
        <time>2018-05-19T11:47:21Z</time>
      </trkpt>
      <trkpt lat="44.10564" lon="3.02519">
        <ele>610.8</ele>
        <time>2018-05-19T11:47:22Z</time>
      </trkpt>
      <trkpt lat="44.10561" lon="3.02521">
        <ele>610.8</ele>
        <time>2018-05-19T11:47:23Z</time>
      </trkpt>
      <trkpt lat="44.10559" lon="3.02524">
        <ele>610.8</ele>
        <time>2018-05-19T11:47:24Z</time>
      </trkpt>
      <trkpt lat="44.10556" lon="3.02526">
        <ele>610.8</ele>
        <time>2018-05-19T11:47:25Z</time>
      </trkpt>
      <trkpt lat="44.10553" lon="3.02529">
        <ele>610.7</ele>
        <time>2018-05-19T11:47:26Z</time>
      </trkpt>
      <trkpt lat="44.1055" lon="3.02532">
        <ele>610.7</ele>
        <time>2018-05-19T11:47:27Z</time>
      </trkpt>
      <trkpt lat="44.10546" lon="3.02535">
        <ele>610.7</ele>
        <time>2018-05-19T11:47:28Z</time>
      </trkpt>
      <trkpt lat="44.10543" lon="3.02538">
        <ele>610.7</ele>
        <time>2018-05-19T11:47:29Z</time>
      </trkpt>
      <trkpt lat="44.10539" lon="3.02541">
        <ele>610.6</ele>
        <time>2018-05-19T11:47:30Z</time>
      </trkpt>
      <trkpt lat="44.10536" lon="3.02544">
        <ele>610.5</ele>
        <time>2018-05-19T11:47:31Z</time>
      </trkpt>
      <trkpt lat="44.10532" lon="3.02546">
        <ele>610.4</ele>
        <time>2018-05-19T11:47:32Z</time>
      </trkpt>
      <trkpt lat="44.10529" lon="3.02548">
        <ele>610.3</ele>
        <time>2018-05-19T11:47:33Z</time>
      </trkpt>
      <trkpt lat="44.10526" lon="3.02551">
        <ele>610.3</ele>
        <time>2018-05-19T11:47:34Z</time>
      </trkpt>
      <trkpt lat="44.10523" lon="3.02553">
        <ele>610.2</ele>
        <time>2018-05-19T11:47:35Z</time>
      </trkpt>
      <trkpt lat="44.1052" lon="3.02554">
        <ele>610.1</ele>
        <time>2018-05-19T11:47:36Z</time>
      </trkpt>
      <trkpt lat="44.10517" lon="3.02555">
        <ele>610.1</ele>
        <time>2018-05-19T11:47:37Z</time>
      </trkpt>
      <trkpt lat="44.10514" lon="3.02555">
        <ele>610</ele>
        <time>2018-05-19T11:47:38Z</time>
      </trkpt>
      <trkpt lat="44.1051" lon="3.02555">
        <ele>610</ele>
        <time>2018-05-19T11:47:39Z</time>
      </trkpt>
      <trkpt lat="44.10507" lon="3.02553">
        <ele>610</ele>
        <time>2018-05-19T11:47:40Z</time>
      </trkpt>
      <trkpt lat="44.10504" lon="3.02551">
        <ele>609.9</ele>
        <time>2018-05-19T11:47:41Z</time>
      </trkpt>
      <trkpt lat="44.10501" lon="3.02548">
        <ele>609.9</ele>
        <time>2018-05-19T11:47:42Z</time>
      </trkpt>
      <trkpt lat="44.10498" lon="3.02545">
        <ele>609.9</ele>
        <time>2018-05-19T11:47:43Z</time>
      </trkpt>
      <trkpt lat="44.10495" lon="3.02542">
        <ele>609.9</ele>
        <time>2018-05-19T11:47:44Z</time>
      </trkpt>
      <trkpt lat="44.10493" lon="3.02539">
        <ele>609.9</ele>
        <time>2018-05-19T11:47:45Z</time>
      </trkpt>
      <trkpt lat="44.1049" lon="3.02536">
        <ele>609.9</ele>
        <time>2018-05-19T11:47:46Z</time>
      </trkpt>
      <trkpt lat="44.10488" lon="3.02534">
        <ele>609.9</ele>
        <time>2018-05-19T11:47:47Z</time>
      </trkpt>
      <trkpt lat="44.10485" lon="3.02531">
        <ele>609.8</ele>
        <time>2018-05-19T11:47:48Z</time>
      </trkpt>
      <trkpt lat="44.10483" lon="3.02528">
        <ele>609.8</ele>
        <time>2018-05-19T11:47:49Z</time>
      </trkpt>
      <trkpt lat="44.1048" lon="3.02525">
        <ele>609.8</ele>
        <time>2018-05-19T11:47:50Z</time>
      </trkpt>
      <trkpt lat="44.10478" lon="3.02523">
        <ele>609.8</ele>
        <time>2018-05-19T11:47:51Z</time>
      </trkpt>
      <trkpt lat="44.10475" lon="3.0252">
        <ele>609.8</ele>
        <time>2018-05-19T11:47:52Z</time>
      </trkpt>
      <trkpt lat="44.10473" lon="3.02518">
        <ele>609.8</ele>
        <time>2018-05-19T11:47:53Z</time>
      </trkpt>
      <trkpt lat="44.10471" lon="3.02515">
        <ele>609.7</ele>
        <time>2018-05-19T11:47:54Z</time>
      </trkpt>
      <trkpt lat="44.10468" lon="3.02513">
        <ele>609.7</ele>
        <time>2018-05-19T11:47:55Z</time>
      </trkpt>
      <trkpt lat="44.10466" lon="3.0251">
        <ele>609.7</ele>
        <time>2018-05-19T11:47:56Z</time>
      </trkpt>
      <trkpt lat="44.10463" lon="3.02508">
        <ele>609.7</ele>
        <time>2018-05-19T11:47:57Z</time>
      </trkpt>
      <trkpt lat="44.10461" lon="3.02505">
        <ele>609.7</ele>
        <time>2018-05-19T11:47:58Z</time>
      </trkpt>
      <trkpt lat="44.10458" lon="3.02503">
        <ele>609.6</ele>
        <time>2018-05-19T11:47:59Z</time>
      </trkpt>
      <trkpt lat="44.10456" lon="3.02501">
        <ele>609.6</ele>
        <time>2018-05-19T11:48:00Z</time>
      </trkpt>
      <trkpt lat="44.10453" lon="3.02498">
        <ele>609.6</ele>
        <time>2018-05-19T11:48:01Z</time>
      </trkpt>
      <trkpt lat="44.1045" lon="3.02495">
        <ele>609.6</ele>
        <time>2018-05-19T11:48:02Z</time>
      </trkpt>
      <trkpt lat="44.10448" lon="3.02492">
        <ele>609.5</ele>
        <time>2018-05-19T11:48:03Z</time>
      </trkpt>
      <trkpt lat="44.10446" lon="3.0249">
        <ele>609.5</ele>
        <time>2018-05-19T11:48:04Z</time>
      </trkpt>
      <trkpt lat="44.10443" lon="3.02487">
        <ele>609.5</ele>
        <time>2018-05-19T11:48:05Z</time>
      </trkpt>
      <trkpt lat="44.1044" lon="3.02484">
        <ele>609.5</ele>
        <time>2018-05-19T11:48:06Z</time>
      </trkpt>
      <trkpt lat="44.10437" lon="3.02481">
        <ele>609.4</ele>
        <time>2018-05-19T11:48:07Z</time>
      </trkpt>
      <trkpt lat="44.10435" lon="3.02477">
        <ele>609.4</ele>
        <time>2018-05-19T11:48:08Z</time>
      </trkpt>
      <trkpt lat="44.10432" lon="3.02474">
        <ele>609.4</ele>
        <time>2018-05-19T11:48:09Z</time>
      </trkpt>
      <trkpt lat="44.1043" lon="3.0247">
        <ele>609.4</ele>
        <time>2018-05-19T11:48:10Z</time>
      </trkpt>
      <trkpt lat="44.10427" lon="3.02467">
        <ele>609.3</ele>
        <time>2018-05-19T11:48:11Z</time>
      </trkpt>
      <trkpt lat="44.10425" lon="3.02463">
        <ele>609.3</ele>
        <time>2018-05-19T11:48:12Z</time>
      </trkpt>
      <trkpt lat="44.10422" lon="3.0246">
        <ele>609.3</ele>
        <time>2018-05-19T11:48:13Z</time>
      </trkpt>
      <trkpt lat="44.1042" lon="3.02456">
        <ele>609.3</ele>
        <time>2018-05-19T11:48:14Z</time>
      </trkpt>
      <trkpt lat="44.10417" lon="3.02452">
        <ele>609.2</ele>
        <time>2018-05-19T11:48:15Z</time>
      </trkpt>
      <trkpt lat="44.10415" lon="3.02447">
        <ele>609.2</ele>
        <time>2018-05-19T11:48:16Z</time>
      </trkpt>
      <trkpt lat="44.10412" lon="3.02443">
        <ele>609.2</ele>
        <time>2018-05-19T11:48:17Z</time>
      </trkpt>
      <trkpt lat="44.10409" lon="3.02439">
        <ele>609.1</ele>
        <time>2018-05-19T11:48:18Z</time>
      </trkpt>
      <trkpt lat="44.10407" lon="3.02435">
        <ele>609.1</ele>
        <time>2018-05-19T11:48:19Z</time>
      </trkpt>
      <trkpt lat="44.10405" lon="3.02431">
        <ele>609.1</ele>
        <time>2018-05-19T11:48:20Z</time>
      </trkpt>
      <trkpt lat="44.10403" lon="3.02428">
        <ele>609</ele>
        <time>2018-05-19T11:48:21Z</time>
      </trkpt>
      <trkpt lat="44.104" lon="3.02424">
        <ele>609</ele>
        <time>2018-05-19T11:48:22Z</time>
      </trkpt>
      <trkpt lat="44.10397" lon="3.02421">
        <ele>609</ele>
        <time>2018-05-19T11:48:23Z</time>
      </trkpt>
      <trkpt lat="44.10395" lon="3.02417">
        <ele>609</ele>
        <time>2018-05-19T11:48:24Z</time>
      </trkpt>
      <trkpt lat="44.10392" lon="3.02414">
        <ele>608.9</ele>
        <time>2018-05-19T11:48:25Z</time>
      </trkpt>
      <trkpt lat="44.1039" lon="3.02411">
        <ele>608.9</ele>
        <time>2018-05-19T11:48:26Z</time>
      </trkpt>
      <trkpt lat="44.10387" lon="3.02407">
        <ele>608.8</ele>
        <time>2018-05-19T11:48:27Z</time>
      </trkpt>
      <trkpt lat="44.10385" lon="3.02403">
        <ele>608.8</ele>
        <time>2018-05-19T11:48:28Z</time>
      </trkpt>
      <trkpt lat="44.10382" lon="3.02399">
        <ele>608.8</ele>
        <time>2018-05-19T11:48:29Z</time>
      </trkpt>
      <trkpt lat="44.1038" lon="3.02395">
        <ele>608.7</ele>
        <time>2018-05-19T11:48:30Z</time>
      </trkpt>
      <trkpt lat="44.10378" lon="3.02392">
        <ele>608.7</ele>
        <time>2018-05-19T11:48:31Z</time>
      </trkpt>
      <trkpt lat="44.10376" lon="3.02387">
        <ele>608.7</ele>
        <time>2018-05-19T11:48:32Z</time>
      </trkpt>
      <trkpt lat="44.10374" lon="3.02383">
        <ele>608.6</ele>
        <time>2018-05-19T11:48:33Z</time>
      </trkpt>
      <trkpt lat="44.10372" lon="3.02378">
        <ele>608.6</ele>
        <time>2018-05-19T11:48:34Z</time>
      </trkpt>
      <trkpt lat="44.1037" lon="3.02373">
        <ele>608.6</ele>
        <time>2018-05-19T11:48:35Z</time>
      </trkpt>
      <trkpt lat="44.10368" lon="3.02368">
        <ele>608.6</ele>
        <time>2018-05-19T11:48:36Z</time>
      </trkpt>
      <trkpt lat="44.10366" lon="3.02364">
        <ele>608.5</ele>
        <time>2018-05-19T11:48:37Z</time>
      </trkpt>
      <trkpt lat="44.10365" lon="3.02359">
        <ele>608.5</ele>
        <time>2018-05-19T11:48:38Z</time>
      </trkpt>
      <trkpt lat="44.10363" lon="3.02354">
        <ele>608.5</ele>
        <time>2018-05-19T11:48:39Z</time>
      </trkpt>
      <trkpt lat="44.1036" lon="3.0235">
        <ele>608.4</ele>
        <time>2018-05-19T11:48:40Z</time>
      </trkpt>
      <trkpt lat="44.10358" lon="3.02345">
        <ele>608.4</ele>
        <time>2018-05-19T11:48:41Z</time>
      </trkpt>
      <trkpt lat="44.10355" lon="3.0234">
        <ele>608.4</ele>
        <time>2018-05-19T11:48:42Z</time>
      </trkpt>
      <trkpt lat="44.10353" lon="3.02336">
        <ele>608.4</ele>
        <time>2018-05-19T11:48:43Z</time>
      </trkpt>
      <trkpt lat="44.10349" lon="3.02331">
        <ele>608.3</ele>
        <time>2018-05-19T11:48:44Z</time>
      </trkpt>
      <trkpt lat="44.10345" lon="3.02327">
        <ele>608.3</ele>
        <time>2018-05-19T11:48:45Z</time>
      </trkpt>
      <trkpt lat="44.10342" lon="3.02323">
        <ele>608.3</ele>
        <time>2018-05-19T11:48:46Z</time>
      </trkpt>
      <trkpt lat="44.10337" lon="3.02318">
        <ele>608.2</ele>
        <time>2018-05-19T11:48:47Z</time>
      </trkpt>
      <trkpt lat="44.10333" lon="3.02314">
        <ele>608.1</ele>
        <time>2018-05-19T11:48:48Z</time>
      </trkpt>
      <trkpt lat="44.10328" lon="3.0231">
        <ele>608.1</ele>
        <time>2018-05-19T11:48:49Z</time>
      </trkpt>
      <trkpt lat="44.10325" lon="3.02306">
        <ele>608</ele>
        <time>2018-05-19T11:48:50Z</time>
      </trkpt>
      <trkpt lat="44.10321" lon="3.02302">
        <ele>608</ele>
        <time>2018-05-19T11:48:51Z</time>
      </trkpt>
      <trkpt lat="44.10316" lon="3.023">
        <ele>607.9</ele>
        <time>2018-05-19T11:48:52Z</time>
      </trkpt>
      <trkpt lat="44.10312" lon="3.02296">
        <ele>607.8</ele>
        <time>2018-05-19T11:48:53Z</time>
      </trkpt>
      <trkpt lat="44.10307" lon="3.02292">
        <ele>607.7</ele>
        <time>2018-05-19T11:48:54Z</time>
      </trkpt>
      <trkpt lat="44.10303" lon="3.02288">
        <ele>607.7</ele>
        <time>2018-05-19T11:48:55Z</time>
      </trkpt>
      <trkpt lat="44.10297" lon="3.02284">
        <ele>607.5</ele>
        <time>2018-05-19T11:48:56Z</time>
      </trkpt>
      <trkpt lat="44.10292" lon="3.02281">
        <ele>607.3</ele>
        <time>2018-05-19T11:48:57Z</time>
      </trkpt>
      <trkpt lat="44.10287" lon="3.02277">
        <ele>607</ele>
        <time>2018-05-19T11:48:58Z</time>
      </trkpt>
      <trkpt lat="44.10282" lon="3.02272">
        <ele>606.5</ele>
        <time>2018-05-19T11:48:59Z</time>
      </trkpt>
      <trkpt lat="44.10276" lon="3.02267">
        <ele>605.9</ele>
        <time>2018-05-19T11:49:00Z</time>
      </trkpt>
      <trkpt lat="44.1027" lon="3.02262">
        <ele>605.7</ele>
        <time>2018-05-19T11:49:01Z</time>
      </trkpt>
      <trkpt lat="44.10265" lon="3.02258">
        <ele>605.6</ele>
        <time>2018-05-19T11:49:02Z</time>
      </trkpt>
      <trkpt lat="44.10259" lon="3.02251">
        <ele>605.4</ele>
        <time>2018-05-19T11:49:03Z</time>
      </trkpt>
      <trkpt lat="44.10252" lon="3.02246">
        <ele>605.2</ele>
        <time>2018-05-19T11:49:04Z</time>
      </trkpt>
      <trkpt lat="44.10247" lon="3.0224">
        <ele>605.1</ele>
        <time>2018-05-19T11:49:05Z</time>
      </trkpt>
      <trkpt lat="44.1024" lon="3.02235">
        <ele>604.9</ele>
        <time>2018-05-19T11:49:06Z</time>
      </trkpt>
      <trkpt lat="44.10234" lon="3.02229">
        <ele>604.7</ele>
        <time>2018-05-19T11:49:07Z</time>
      </trkpt>
      <trkpt lat="44.10228" lon="3.02224">
        <ele>604.3</ele>
        <time>2018-05-19T11:49:08Z</time>
      </trkpt>
      <trkpt lat="44.10221" lon="3.02218">
        <ele>603.5</ele>
        <time>2018-05-19T11:49:09Z</time>
      </trkpt>
      <trkpt lat="44.10214" lon="3.02212">
        <ele>602.7</ele>
        <time>2018-05-19T11:49:10Z</time>
      </trkpt>
      <trkpt lat="44.10209" lon="3.02206">
        <ele>602.4</ele>
        <time>2018-05-19T11:49:11Z</time>
      </trkpt>
      <trkpt lat="44.10205" lon="3.022">
        <ele>602</ele>
        <time>2018-05-19T11:49:12Z</time>
      </trkpt>
      <trkpt lat="44.10201" lon="3.02193">
        <ele>600.7</ele>
        <time>2018-05-19T11:49:13Z</time>
      </trkpt>
      <trkpt lat="44.10197" lon="3.02187">
        <ele>599.9</ele>
        <time>2018-05-19T11:49:14Z</time>
      </trkpt>
      <trkpt lat="44.10193" lon="3.0218">
        <ele>599.5</ele>
        <time>2018-05-19T11:49:15Z</time>
      </trkpt>
      <trkpt lat="44.10189" lon="3.02174">
        <ele>599.2</ele>
        <time>2018-05-19T11:49:16Z</time>
      </trkpt>
      <trkpt lat="44.10185" lon="3.02168">
        <ele>599</ele>
        <time>2018-05-19T11:49:17Z</time>
      </trkpt>
      <trkpt lat="44.10182" lon="3.02162">
        <ele>598.8</ele>
        <time>2018-05-19T11:49:18Z</time>
      </trkpt>
      <trkpt lat="44.10179" lon="3.02156">
        <ele>598.6</ele>
        <time>2018-05-19T11:49:19Z</time>
      </trkpt>
      <trkpt lat="44.10175" lon="3.02149">
        <ele>598.4</ele>
        <time>2018-05-19T11:49:20Z</time>
      </trkpt>
      <trkpt lat="44.10169" lon="3.02144">
        <ele>598.1</ele>
        <time>2018-05-19T11:49:21Z</time>
      </trkpt>
      <trkpt lat="44.10163" lon="3.02141">
        <ele>597.8</ele>
        <time>2018-05-19T11:49:22Z</time>
      </trkpt>
      <trkpt lat="44.10156" lon="3.02137">
        <ele>597</ele>
        <time>2018-05-19T11:49:23Z</time>
      </trkpt>
      <trkpt lat="44.10149" lon="3.02135">
        <ele>596.1</ele>
        <time>2018-05-19T11:49:24Z</time>
      </trkpt>
      <trkpt lat="44.10142" lon="3.02132">
        <ele>595.5</ele>
        <time>2018-05-19T11:49:25Z</time>
      </trkpt>
      <trkpt lat="44.10134" lon="3.0213">
        <ele>595.1</ele>
        <time>2018-05-19T11:49:26Z</time>
      </trkpt>
      <trkpt lat="44.10127" lon="3.02127">
        <ele>594.9</ele>
        <time>2018-05-19T11:49:27Z</time>
      </trkpt>
      <trkpt lat="44.10119" lon="3.02125">
        <ele>594.6</ele>
        <time>2018-05-19T11:49:28Z</time>
      </trkpt>
      <trkpt lat="44.10112" lon="3.02121">
        <ele>594.4</ele>
        <time>2018-05-19T11:49:29Z</time>
      </trkpt>
      <trkpt lat="44.10104" lon="3.02118">
        <ele>594.2</ele>
        <time>2018-05-19T11:49:30Z</time>
      </trkpt>
      <trkpt lat="44.10096" lon="3.02114">
        <ele>594</ele>
        <time>2018-05-19T11:49:31Z</time>
      </trkpt>
      <trkpt lat="44.10088" lon="3.0211">
        <ele>593.8</ele>
        <time>2018-05-19T11:49:32Z</time>
      </trkpt>
      <trkpt lat="44.10081" lon="3.02107">
        <ele>593.6</ele>
        <time>2018-05-19T11:49:33Z</time>
      </trkpt>
      <trkpt lat="44.10073" lon="3.02103">
        <ele>593.1</ele>
        <time>2018-05-19T11:49:34Z</time>
      </trkpt>
      <trkpt lat="44.10065" lon="3.02099">
        <ele>592</ele>
        <time>2018-05-19T11:49:35Z</time>
      </trkpt>
      <trkpt lat="44.10057" lon="3.02096">
        <ele>591.3</ele>
        <time>2018-05-19T11:49:36Z</time>
      </trkpt>
      <trkpt lat="44.10048" lon="3.02092">
        <ele>590.8</ele>
        <time>2018-05-19T11:49:37Z</time>
      </trkpt>
      <trkpt lat="44.10039" lon="3.02088">
        <ele>590.4</ele>
        <time>2018-05-19T11:49:38Z</time>
      </trkpt>
      <trkpt lat="44.10029" lon="3.02085">
        <ele>590.1</ele>
        <time>2018-05-19T11:49:39Z</time>
      </trkpt>
      <trkpt lat="44.1002" lon="3.02081">
        <ele>589.7</ele>
        <time>2018-05-19T11:49:40Z</time>
      </trkpt>
      <trkpt lat="44.1001" lon="3.02078">
        <ele>589.1</ele>
        <time>2018-05-19T11:49:41Z</time>
      </trkpt>
      <trkpt lat="44.1" lon="3.02074">
        <ele>587.6</ele>
        <time>2018-05-19T11:49:42Z</time>
      </trkpt>
      <trkpt lat="44.0999" lon="3.0207">
        <ele>586.9</ele>
        <time>2018-05-19T11:49:43Z</time>
      </trkpt>
      <trkpt lat="44.09981" lon="3.02065">
        <ele>586.6</ele>
        <time>2018-05-19T11:49:44Z</time>
      </trkpt>
      <trkpt lat="44.09972" lon="3.02059">
        <ele>586.1</ele>
        <time>2018-05-19T11:49:45Z</time>
      </trkpt>
      <trkpt lat="44.09963" lon="3.02052">
        <ele>585.7</ele>
        <time>2018-05-19T11:49:46Z</time>
      </trkpt>
      <trkpt lat="44.09955" lon="3.02043">
        <ele>585.3</ele>
        <time>2018-05-19T11:49:47Z</time>
      </trkpt>
      <trkpt lat="44.09948" lon="3.02031">
        <ele>583.7</ele>
        <time>2018-05-19T11:49:48Z</time>
      </trkpt>
      <trkpt lat="44.09942" lon="3.02018">
        <ele>582.9</ele>
        <time>2018-05-19T11:49:49Z</time>
      </trkpt>
      <trkpt lat="44.09937" lon="3.02006">
        <ele>582.3</ele>
        <time>2018-05-19T11:49:50Z</time>
      </trkpt>
      <trkpt lat="44.09932" lon="3.01994">
        <ele>581.8</ele>
        <time>2018-05-19T11:49:51Z</time>
      </trkpt>
      <trkpt lat="44.09926" lon="3.01983">
        <ele>581.3</ele>
        <time>2018-05-19T11:49:52Z</time>
      </trkpt>
      <trkpt lat="44.09919" lon="3.01972">
        <ele>580.4</ele>
        <time>2018-05-19T11:49:53Z</time>
      </trkpt>
      <trkpt lat="44.09912" lon="3.0196">
        <ele>579.3</ele>
        <time>2018-05-19T11:49:54Z</time>
      </trkpt>
      <trkpt lat="44.09906" lon="3.01949">
        <ele>578.8</ele>
        <time>2018-05-19T11:49:55Z</time>
      </trkpt>
      <trkpt lat="44.099" lon="3.01939">
        <ele>578.4</ele>
        <time>2018-05-19T11:49:56Z</time>
      </trkpt>
      <trkpt lat="44.09894" lon="3.01928">
        <ele>578.2</ele>
        <time>2018-05-19T11:49:57Z</time>
      </trkpt>
      <trkpt lat="44.09889" lon="3.01918">
        <ele>578</ele>
        <time>2018-05-19T11:49:58Z</time>
      </trkpt>
      <trkpt lat="44.09884" lon="3.0191">
        <ele>577.9</ele>
        <time>2018-05-19T11:49:59Z</time>
      </trkpt>
      <trkpt lat="44.09878" lon="3.019">
        <ele>577.7</ele>
        <time>2018-05-19T11:50:00Z</time>
      </trkpt>
      <trkpt lat="44.09873" lon="3.01893">
        <ele>577.4</ele>
        <time>2018-05-19T11:50:01Z</time>
      </trkpt>
      <trkpt lat="44.09867" lon="3.01891">
        <ele>577.2</ele>
        <time>2018-05-19T11:50:02Z</time>
      </trkpt>
      <trkpt lat="44.09863" lon="3.01892">
        <ele>577</ele>
        <time>2018-05-19T11:50:03Z</time>
      </trkpt>
      <trkpt lat="44.0986" lon="3.01894">
        <ele>577</ele>
        <time>2018-05-19T11:50:04Z</time>
      </trkpt>
      <trkpt lat="44.09856" lon="3.01899">
        <ele>577</ele>
        <time>2018-05-19T11:50:06Z</time>
      </trkpt>
      <trkpt lat="44.09854" lon="3.01901">
        <ele>576.9</ele>
        <time>2018-05-19T11:50:07Z</time>
      </trkpt>
      <trkpt lat="44.09852" lon="3.01903">
        <ele>576.8</ele>
        <time>2018-05-19T11:50:08Z</time>
      </trkpt>
      <trkpt lat="44.09849" lon="3.01906">
        <ele>576.7</ele>
        <time>2018-05-19T11:50:09Z</time>
      </trkpt>
      <trkpt lat="44.09846" lon="3.01908">
        <ele>576.7</ele>
        <time>2018-05-19T11:50:10Z</time>
      </trkpt>
      <trkpt lat="44.09841" lon="3.01906">
        <ele>576.8</ele>
        <time>2018-05-19T11:50:12Z</time>
      </trkpt>
      <trkpt lat="44.09838" lon="3.01906">
        <ele>576.8</ele>
        <time>2018-05-19T11:50:13Z</time>
      </trkpt>
      <trkpt lat="44.09835" lon="3.01904">
        <ele>576.9</ele>
        <time>2018-05-19T11:50:14Z</time>
      </trkpt>
      <trkpt lat="44.09831" lon="3.01903">
        <ele>577</ele>
        <time>2018-05-19T11:50:15Z</time>
      </trkpt>
      <trkpt lat="44.09828" lon="3.01902">
        <ele>577.1</ele>
        <time>2018-05-19T11:50:16Z</time>
      </trkpt>
      <trkpt lat="44.09824" lon="3.01901">
        <ele>577.2</ele>
        <time>2018-05-19T11:50:17Z</time>
      </trkpt>
      <trkpt lat="44.0982" lon="3.019">
        <ele>577.4</ele>
        <time>2018-05-19T11:50:18Z</time>
      </trkpt>
      <trkpt lat="44.09817" lon="3.01899">
        <ele>577.5</ele>
        <time>2018-05-19T11:50:19Z</time>
      </trkpt>
      <trkpt lat="44.09813" lon="3.01899">
        <ele>577.5</ele>
        <time>2018-05-19T11:50:20Z</time>
      </trkpt>
      <trkpt lat="44.09809" lon="3.01899">
        <ele>577.5</ele>
        <time>2018-05-19T11:50:21Z</time>
      </trkpt>
      <trkpt lat="44.09805" lon="3.01899">
        <ele>577.5</ele>
        <time>2018-05-19T11:50:22Z</time>
      </trkpt>
      <trkpt lat="44.098" lon="3.019">
        <ele>577.5</ele>
        <time>2018-05-19T11:50:23Z</time>
      </trkpt>
      <trkpt lat="44.09795" lon="3.01904">
        <ele>577.4</ele>
        <time>2018-05-19T11:50:24Z</time>
      </trkpt>
      <trkpt lat="44.0979" lon="3.01906">
        <ele>577.2</ele>
        <time>2018-05-19T11:50:25Z</time>
      </trkpt>
      <trkpt lat="44.09785" lon="3.01908">
        <ele>576.9</ele>
        <time>2018-05-19T11:50:26Z</time>
      </trkpt>
      <trkpt lat="44.0978" lon="3.0191">
        <ele>576.6</ele>
        <time>2018-05-19T11:50:27Z</time>
      </trkpt>
      <trkpt lat="44.09774" lon="3.01913">
        <ele>576.1</ele>
        <time>2018-05-19T11:50:28Z</time>
      </trkpt>
      <trkpt lat="44.09769" lon="3.01915">
        <ele>575.9</ele>
        <time>2018-05-19T11:50:29Z</time>
      </trkpt>
      <trkpt lat="44.09764" lon="3.01919">
        <ele>575.6</ele>
        <time>2018-05-19T11:50:30Z</time>
      </trkpt>
      <trkpt lat="44.09758" lon="3.01921">
        <ele>575.2</ele>
        <time>2018-05-19T11:50:31Z</time>
      </trkpt>
      <trkpt lat="44.09752" lon="3.01924">
        <ele>574.8</ele>
        <time>2018-05-19T11:50:32Z</time>
      </trkpt>
      <trkpt lat="44.09745" lon="3.01927">
        <ele>574.5</ele>
        <time>2018-05-19T11:50:33Z</time>
      </trkpt>
      <trkpt lat="44.0974" lon="3.0193">
        <ele>574.4</ele>
        <time>2018-05-19T11:50:34Z</time>
      </trkpt>
      <trkpt lat="44.09734" lon="3.01933">
        <ele>574.3</ele>
        <time>2018-05-19T11:50:35Z</time>
      </trkpt>
      <trkpt lat="44.09728" lon="3.01937">
        <ele>574.2</ele>
        <time>2018-05-19T11:50:36Z</time>
      </trkpt>
      <trkpt lat="44.09723" lon="3.0194">
        <ele>574.2</ele>
        <time>2018-05-19T11:50:37Z</time>
      </trkpt>
      <trkpt lat="44.09717" lon="3.01944">
        <ele>574.3</ele>
        <time>2018-05-19T11:50:38Z</time>
      </trkpt>
      <trkpt lat="44.09711" lon="3.01947">
        <ele>574.4</ele>
        <time>2018-05-19T11:50:39Z</time>
      </trkpt>
      <trkpt lat="44.09706" lon="3.01949">
        <ele>574.5</ele>
        <time>2018-05-19T11:50:40Z</time>
      </trkpt>
      <trkpt lat="44.097" lon="3.01953">
        <ele>574.7</ele>
        <time>2018-05-19T11:50:41Z</time>
      </trkpt>
      <trkpt lat="44.09695" lon="3.01955">
        <ele>574.8</ele>
        <time>2018-05-19T11:50:42Z</time>
      </trkpt>
      <trkpt lat="44.0969" lon="3.01958">
        <ele>574.9</ele>
        <time>2018-05-19T11:50:43Z</time>
      </trkpt>
      <trkpt lat="44.09686" lon="3.01959">
        <ele>575</ele>
        <time>2018-05-19T11:50:44Z</time>
      </trkpt>
      <trkpt lat="44.09681" lon="3.01962">
        <ele>575.1</ele>
        <time>2018-05-19T11:50:45Z</time>
      </trkpt>
      <trkpt lat="44.09675" lon="3.01964">
        <ele>575.3</ele>
        <time>2018-05-19T11:50:46Z</time>
      </trkpt>
      <trkpt lat="44.0967" lon="3.01966">
        <ele>575.5</ele>
        <time>2018-05-19T11:50:47Z</time>
      </trkpt>
      <trkpt lat="44.09665" lon="3.01969">
        <ele>575.7</ele>
        <time>2018-05-19T11:50:48Z</time>
      </trkpt>
      <trkpt lat="44.0966" lon="3.01971">
        <ele>576</ele>
        <time>2018-05-19T11:50:49Z</time>
      </trkpt>
      <trkpt lat="44.09655" lon="3.01974">
        <ele>576.3</ele>
        <time>2018-05-19T11:50:50Z</time>
      </trkpt>
      <trkpt lat="44.0965" lon="3.01976">
        <ele>576.5</ele>
        <time>2018-05-19T11:50:51Z</time>
      </trkpt>
      <trkpt lat="44.09646" lon="3.01978">
        <ele>577</ele>
        <time>2018-05-19T11:50:52Z</time>
      </trkpt>
      <trkpt lat="44.09642" lon="3.01979">
        <ele>577.4</ele>
        <time>2018-05-19T11:50:53Z</time>
      </trkpt>
      <trkpt lat="44.09637" lon="3.01979">
        <ele>578</ele>
        <time>2018-05-19T11:50:54Z</time>
      </trkpt>
      <trkpt lat="44.09634" lon="3.01978">
        <ele>578.5</ele>
        <time>2018-05-19T11:50:55Z</time>
      </trkpt>
      <trkpt lat="44.09629" lon="3.01976">
        <ele>578.9</ele>
        <time>2018-05-19T11:50:56Z</time>
      </trkpt>
      <trkpt lat="44.09626" lon="3.01974">
        <ele>579</ele>
        <time>2018-05-19T11:50:57Z</time>
      </trkpt>
      <trkpt lat="44.09624" lon="3.0197">
        <ele>579</ele>
        <time>2018-05-19T11:50:58Z</time>
      </trkpt>
      <trkpt lat="44.09624" lon="3.01964">
        <ele>578.7</ele>
        <time>2018-05-19T11:50:59Z</time>
      </trkpt>
      <trkpt lat="44.09623" lon="3.01959">
        <ele>578.4</ele>
        <time>2018-05-19T11:51:00Z</time>
      </trkpt>
      <trkpt lat="44.09623" lon="3.01953">
        <ele>578</ele>
        <time>2018-05-19T11:51:01Z</time>
      </trkpt>
      <trkpt lat="44.09624" lon="3.01947">
        <ele>577.6</ele>
        <time>2018-05-19T11:51:02Z</time>
      </trkpt>
      <trkpt lat="44.09625" lon="3.01941">
        <ele>577.3</ele>
        <time>2018-05-19T11:51:03Z</time>
      </trkpt>
      <trkpt lat="44.09625" lon="3.01935">
        <ele>577</ele>
        <time>2018-05-19T11:51:04Z</time>
      </trkpt>
      <trkpt lat="44.09626" lon="3.01928">
        <ele>576.9</ele>
        <time>2018-05-19T11:51:05Z</time>
      </trkpt>
      <trkpt lat="44.09627" lon="3.01921">
        <ele>576.4</ele>
        <time>2018-05-19T11:51:06Z</time>
      </trkpt>
      <trkpt lat="44.09627" lon="3.01914">
        <ele>576</ele>
        <time>2018-05-19T11:51:07Z</time>
      </trkpt>
      <trkpt lat="44.09627" lon="3.01908">
        <ele>575.7</ele>
        <time>2018-05-19T11:51:08Z</time>
      </trkpt>
      <trkpt lat="44.09628" lon="3.01901">
        <ele>575.4</ele>
        <time>2018-05-19T11:51:09Z</time>
      </trkpt>
      <trkpt lat="44.09629" lon="3.01895">
        <ele>575.1</ele>
        <time>2018-05-19T11:51:10Z</time>
      </trkpt>
      <trkpt lat="44.09628" lon="3.01888">
        <ele>574.7</ele>
        <time>2018-05-19T11:51:11Z</time>
      </trkpt>
      <trkpt lat="44.09629" lon="3.01879">
        <ele>574</ele>
        <time>2018-05-19T11:51:12Z</time>
      </trkpt>
      <trkpt lat="44.09628" lon="3.01871">
        <ele>573.3</ele>
        <time>2018-05-19T11:51:13Z</time>
      </trkpt>
      <trkpt lat="44.09627" lon="3.01864">
        <ele>573</ele>
        <time>2018-05-19T11:51:14Z</time>
      </trkpt>
      <trkpt lat="44.09627" lon="3.01855">
        <ele>572.7</ele>
        <time>2018-05-19T11:51:15Z</time>
      </trkpt>
      <trkpt lat="44.09626" lon="3.01847">
        <ele>572.2</ele>
        <time>2018-05-19T11:51:16Z</time>
      </trkpt>
      <trkpt lat="44.09626" lon="3.01839">
        <ele>572</ele>
        <time>2018-05-19T11:51:17Z</time>
      </trkpt>
      <trkpt lat="44.09624" lon="3.01831">
        <ele>571.9</ele>
        <time>2018-05-19T11:51:18Z</time>
      </trkpt>
      <trkpt lat="44.09622" lon="3.01824">
        <ele>571.8</ele>
        <time>2018-05-19T11:51:19Z</time>
      </trkpt>
      <trkpt lat="44.0962" lon="3.0182">
        <ele>571.8</ele>
        <time>2018-05-19T11:51:20Z</time>
      </trkpt>
      <trkpt lat="44.09618" lon="3.01815">
        <ele>572</ele>
        <time>2018-05-19T11:51:21Z</time>
      </trkpt>
      <trkpt lat="44.09615" lon="3.01812">
        <ele>572.3</ele>
        <time>2018-05-19T11:51:22Z</time>
      </trkpt>
      <trkpt lat="44.09611" lon="3.01808">
        <ele>572.8</ele>
        <time>2018-05-19T11:51:24Z</time>
      </trkpt>
      <trkpt lat="44.09607" lon="3.01805">
        <ele>573.3</ele>
        <time>2018-05-19T11:51:26Z</time>
      </trkpt>
      <trkpt lat="44.09602" lon="3.01802">
        <ele>573.7</ele>
        <time>2018-05-19T11:51:28Z</time>
      </trkpt>
      <trkpt lat="44.09599" lon="3.01799">
        <ele>574.1</ele>
        <time>2018-05-19T11:51:30Z</time>
      </trkpt>
      <trkpt lat="44.09595" lon="3.01796">
        <ele>574.5</ele>
        <time>2018-05-19T11:51:32Z</time>
      </trkpt>
      <trkpt lat="44.09592" lon="3.01793">
        <ele>575</ele>
        <time>2018-05-19T11:51:34Z</time>
      </trkpt>
      <trkpt lat="44.09588" lon="3.0179">
        <ele>575.7</ele>
        <time>2018-05-19T11:51:36Z</time>
      </trkpt>
      <trkpt lat="44.09585" lon="3.01787">
        <ele>576.1</ele>
        <time>2018-05-19T11:51:38Z</time>
      </trkpt>
      <trkpt lat="44.09581" lon="3.01785">
        <ele>576.2</ele>
        <time>2018-05-19T11:51:40Z</time>
      </trkpt>
      <trkpt lat="44.09578" lon="3.01783">
        <ele>576.3</ele>
        <time>2018-05-19T11:51:42Z</time>
      </trkpt>
      <trkpt lat="44.09575" lon="3.01781">
        <ele>576.5</ele>
        <time>2018-05-19T11:51:44Z</time>
      </trkpt>
      <trkpt lat="44.09572" lon="3.01778">
        <ele>576.6</ele>
        <time>2018-05-19T11:51:46Z</time>
      </trkpt>
      <trkpt lat="44.09569" lon="3.01775">
        <ele>576.5</ele>
        <time>2018-05-19T11:51:48Z</time>
      </trkpt>
      <trkpt lat="44.09565" lon="3.01772">
        <ele>576.5</ele>
        <time>2018-05-19T11:51:50Z</time>
      </trkpt>
      <trkpt lat="44.09562" lon="3.0177">
        <ele>576.8</ele>
        <time>2018-05-19T11:51:52Z</time>
      </trkpt>
      <trkpt lat="44.09559" lon="3.01766">
        <ele>577</ele>
        <time>2018-05-19T11:51:54Z</time>
      </trkpt>
      <trkpt lat="44.09556" lon="3.01762">
        <ele>577</ele>
        <time>2018-05-19T11:51:56Z</time>
      </trkpt>
      <trkpt lat="44.09552" lon="3.01758">
        <ele>577.1</ele>
        <time>2018-05-19T11:51:58Z</time>
      </trkpt>
      <trkpt lat="44.09548" lon="3.01754">
        <ele>577.2</ele>
        <time>2018-05-19T11:52:00Z</time>
      </trkpt>
      <trkpt lat="44.09546" lon="3.01751">
        <ele>577.2</ele>
        <time>2018-05-19T11:52:01Z</time>
      </trkpt>
      <trkpt lat="44.09544" lon="3.01748">
        <ele>577.2</ele>
        <time>2018-05-19T11:52:02Z</time>
      </trkpt>
      <trkpt lat="44.09542" lon="3.01745">
        <ele>577.2</ele>
        <time>2018-05-19T11:52:03Z</time>
      </trkpt>
      <trkpt lat="44.0954" lon="3.01742">
        <ele>577.2</ele>
        <time>2018-05-19T11:52:04Z</time>
      </trkpt>
      <trkpt lat="44.09538" lon="3.0174">
        <ele>577.1</ele>
        <time>2018-05-19T11:52:05Z</time>
      </trkpt>
      <trkpt lat="44.09536" lon="3.01737">
        <ele>577</ele>
        <time>2018-05-19T11:52:06Z</time>
      </trkpt>
      <trkpt lat="44.09534" lon="3.01735">
        <ele>576.9</ele>
        <time>2018-05-19T11:52:07Z</time>
      </trkpt>
      <trkpt lat="44.09532" lon="3.01732">
        <ele>576.9</ele>
        <time>2018-05-19T11:52:08Z</time>
      </trkpt>
      <trkpt lat="44.0953" lon="3.01729">
        <ele>576.8</ele>
        <time>2018-05-19T11:52:09Z</time>
      </trkpt>
      <trkpt lat="44.09528" lon="3.01726">
        <ele>576.8</ele>
        <time>2018-05-19T11:52:10Z</time>
      </trkpt>
      <trkpt lat="44.09526" lon="3.01722">
        <ele>576.7</ele>
        <time>2018-05-19T11:52:11Z</time>
      </trkpt>
      <trkpt lat="44.09524" lon="3.01719">
        <ele>576.7</ele>
        <time>2018-05-19T11:52:12Z</time>
      </trkpt>
      <trkpt lat="44.09522" lon="3.01717">
        <ele>576.7</ele>
        <time>2018-05-19T11:52:13Z</time>
      </trkpt>
      <trkpt lat="44.0952" lon="3.01713">
        <ele>576.7</ele>
        <time>2018-05-19T11:52:14Z</time>
      </trkpt>
      <trkpt lat="44.09518" lon="3.0171">
        <ele>576.5</ele>
        <time>2018-05-19T11:52:15Z</time>
      </trkpt>
      <trkpt lat="44.09515" lon="3.01707">
        <ele>576.3</ele>
        <time>2018-05-19T11:52:16Z</time>
      </trkpt>
      <trkpt lat="44.09513" lon="3.01703">
        <ele>576.3</ele>
        <time>2018-05-19T11:52:17Z</time>
      </trkpt>
      <trkpt lat="44.09511" lon="3.017">
        <ele>576.2</ele>
        <time>2018-05-19T11:52:18Z</time>
      </trkpt>
      <trkpt lat="44.09509" lon="3.01697">
        <ele>576.1</ele>
        <time>2018-05-19T11:52:19Z</time>
      </trkpt>
      <trkpt lat="44.09507" lon="3.01693">
        <ele>575.9</ele>
        <time>2018-05-19T11:52:20Z</time>
      </trkpt>
      <trkpt lat="44.09505" lon="3.01689">
        <ele>575.7</ele>
        <time>2018-05-19T11:52:21Z</time>
      </trkpt>
      <trkpt lat="44.09503" lon="3.01685">
        <ele>575.8</ele>
        <time>2018-05-19T11:52:22Z</time>
      </trkpt>
      <trkpt lat="44.09501" lon="3.01681">
        <ele>575.9</ele>
        <time>2018-05-19T11:52:23Z</time>
      </trkpt>
      <trkpt lat="44.09499" lon="3.01676">
        <ele>575.8</ele>
        <time>2018-05-19T11:52:24Z</time>
      </trkpt>
      <trkpt lat="44.09497" lon="3.01672">
        <ele>575.7</ele>
        <time>2018-05-19T11:52:25Z</time>
      </trkpt>
      <trkpt lat="44.09494" lon="3.01667">
        <ele>575.4</ele>
        <time>2018-05-19T11:52:26Z</time>
      </trkpt>
      <trkpt lat="44.09492" lon="3.01662">
        <ele>575.1</ele>
        <time>2018-05-19T11:52:27Z</time>
      </trkpt>
      <trkpt lat="44.0949" lon="3.01657">
        <ele>574.9</ele>
        <time>2018-05-19T11:52:28Z</time>
      </trkpt>
      <trkpt lat="44.09488" lon="3.01652">
        <ele>574.8</ele>
        <time>2018-05-19T11:52:29Z</time>
      </trkpt>
      <trkpt lat="44.09486" lon="3.01646">
        <ele>574.9</ele>
        <time>2018-05-19T11:52:30Z</time>
      </trkpt>
      <trkpt lat="44.09483" lon="3.0164">
        <ele>575</ele>
        <time>2018-05-19T11:52:31Z</time>
      </trkpt>
      <trkpt lat="44.09482" lon="3.01635">
        <ele>574.7</ele>
        <time>2018-05-19T11:52:32Z</time>
      </trkpt>
      <trkpt lat="44.0948" lon="3.01629">
        <ele>574.4</ele>
        <time>2018-05-19T11:52:33Z</time>
      </trkpt>
      <trkpt lat="44.09478" lon="3.01623">
        <ele>574.4</ele>
        <time>2018-05-19T11:52:34Z</time>
      </trkpt>
      <trkpt lat="44.09476" lon="3.01618">
        <ele>574.4</ele>
        <time>2018-05-19T11:52:35Z</time>
      </trkpt>
      <trkpt lat="44.09473" lon="3.01611">
        <ele>574.9</ele>
        <time>2018-05-19T11:52:36Z</time>
      </trkpt>
      <trkpt lat="44.09472" lon="3.01605">
        <ele>575</ele>
        <time>2018-05-19T11:52:37Z</time>
      </trkpt>
      <trkpt lat="44.0947" lon="3.01596">
        <ele>574.9</ele>
        <time>2018-05-19T11:52:38Z</time>
      </trkpt>
      <trkpt lat="44.09469" lon="3.01587">
        <ele>574.4</ele>
        <time>2018-05-19T11:52:39Z</time>
      </trkpt>
      <trkpt lat="44.09467" lon="3.0158">
        <ele>573.9</ele>
        <time>2018-05-19T11:52:40Z</time>
      </trkpt>
      <trkpt lat="44.09464" lon="3.0157">
        <ele>573.5</ele>
        <time>2018-05-19T11:52:41Z</time>
      </trkpt>
      <trkpt lat="44.09463" lon="3.01561">
        <ele>572.9</ele>
        <time>2018-05-19T11:52:42Z</time>
      </trkpt>
      <trkpt lat="44.09462" lon="3.01551">
        <ele>572.1</ele>
        <time>2018-05-19T11:52:43Z</time>
      </trkpt>
      <trkpt lat="44.09462" lon="3.0154">
        <ele>571.8</ele>
        <time>2018-05-19T11:52:44Z</time>
      </trkpt>
      <trkpt lat="44.09464" lon="3.0153">
        <ele>571.1</ele>
        <time>2018-05-19T11:52:45Z</time>
      </trkpt>
      <trkpt lat="44.09466" lon="3.01519">
        <ele>570.7</ele>
        <time>2018-05-19T11:52:46Z</time>
      </trkpt>
      <trkpt lat="44.09468" lon="3.01508">
        <ele>570.3</ele>
        <time>2018-05-19T11:52:47Z</time>
      </trkpt>
      <trkpt lat="44.0947" lon="3.01497">
        <ele>569.9</ele>
        <time>2018-05-19T11:52:48Z</time>
      </trkpt>
      <trkpt lat="44.09473" lon="3.01486">
        <ele>569.8</ele>
        <time>2018-05-19T11:52:49Z</time>
      </trkpt>
      <trkpt lat="44.09474" lon="3.01476">
        <ele>569.7</ele>
        <time>2018-05-19T11:52:50Z</time>
      </trkpt>
      <trkpt lat="44.09473" lon="3.01467">
        <ele>569.7</ele>
        <time>2018-05-19T11:52:51Z</time>
      </trkpt>
      <trkpt lat="44.0947" lon="3.01458">
        <ele>570</ele>
        <time>2018-05-19T11:52:52Z</time>
      </trkpt>
      <trkpt lat="44.09466" lon="3.01452">
        <ele>570.3</ele>
        <time>2018-05-19T11:52:53Z</time>
      </trkpt>
      <trkpt lat="44.09462" lon="3.01445">
        <ele>570.5</ele>
        <time>2018-05-19T11:52:54Z</time>
      </trkpt>
      <trkpt lat="44.09458" lon="3.01438">
        <ele>570.8</ele>
        <time>2018-05-19T11:52:55Z</time>
      </trkpt>
      <trkpt lat="44.09453" lon="3.01429">
        <ele>571</ele>
        <time>2018-05-19T11:52:56Z</time>
      </trkpt>
      <trkpt lat="44.09448" lon="3.01421">
        <ele>571.1</ele>
        <time>2018-05-19T11:52:57Z</time>
      </trkpt>
      <trkpt lat="44.09445" lon="3.01414">
        <ele>571.1</ele>
        <time>2018-05-19T11:52:58Z</time>
      </trkpt>
      <trkpt lat="44.0944" lon="3.01407">
        <ele>571.1</ele>
        <time>2018-05-19T11:52:59Z</time>
      </trkpt>
      <trkpt lat="44.09436" lon="3.01401">
        <ele>570.9</ele>
        <time>2018-05-19T11:53:00Z</time>
      </trkpt>
      <trkpt lat="44.0943" lon="3.01393">
        <ele>570.7</ele>
        <time>2018-05-19T11:53:01Z</time>
      </trkpt>
      <trkpt lat="44.09425" lon="3.01386">
        <ele>570.5</ele>
        <time>2018-05-19T11:53:02Z</time>
      </trkpt>
      <trkpt lat="44.09419" lon="3.01378">
        <ele>570.3</ele>
        <time>2018-05-19T11:53:03Z</time>
      </trkpt>
      <trkpt lat="44.09415" lon="3.01372">
        <ele>570.1</ele>
        <time>2018-05-19T11:53:04Z</time>
      </trkpt>
      <trkpt lat="44.0941" lon="3.01366">
        <ele>569.9</ele>
        <time>2018-05-19T11:53:05Z</time>
      </trkpt>
      <trkpt lat="44.09404" lon="3.01359">
        <ele>569.6</ele>
        <time>2018-05-19T11:53:06Z</time>
      </trkpt>
      <trkpt lat="44.09399" lon="3.01353">
        <ele>569.2</ele>
        <time>2018-05-19T11:53:07Z</time>
      </trkpt>
      <trkpt lat="44.09393" lon="3.01347">
        <ele>568.6</ele>
        <time>2018-05-19T11:53:08Z</time>
      </trkpt>
      <trkpt lat="44.09387" lon="3.01342">
        <ele>568</ele>
        <time>2018-05-19T11:53:09Z</time>
      </trkpt>
      <trkpt lat="44.0938" lon="3.01334">
        <ele>567</ele>
        <time>2018-05-19T11:53:10Z</time>
      </trkpt>
      <trkpt lat="44.09373" lon="3.01326">
        <ele>566.4</ele>
        <time>2018-05-19T11:53:11Z</time>
      </trkpt>
      <trkpt lat="44.09366" lon="3.0132">
        <ele>565.8</ele>
        <time>2018-05-19T11:53:12Z</time>
      </trkpt>
      <trkpt lat="44.09359" lon="3.01315">
        <ele>565.1</ele>
        <time>2018-05-19T11:53:13Z</time>
      </trkpt>
      <trkpt lat="44.09352" lon="3.01308">
        <ele>564.2</ele>
        <time>2018-05-19T11:53:14Z</time>
      </trkpt>
      <trkpt lat="44.09345" lon="3.01302">
        <ele>563.2</ele>
        <time>2018-05-19T11:53:15Z</time>
      </trkpt>
      <trkpt lat="44.09339" lon="3.01296">
        <ele>562.4</ele>
        <time>2018-05-19T11:53:16Z</time>
      </trkpt>
      <trkpt lat="44.09337" lon="3.01293">
        <ele>562.1</ele>
        <time>2018-05-19T11:53:17Z</time>
      </trkpt>
      <trkpt lat="44.09335" lon="3.0129">
        <ele>561.9</ele>
        <time>2018-05-19T11:53:35Z</time>
      </trkpt>
      <trkpt lat="44.09334" lon="3.01295">
        <ele>561.6</ele>
        <time>2018-05-19T11:53:45Z</time>
      </trkpt>
      <trkpt lat="44.09331" lon="3.01299">
        <ele>561.3</ele>
        <time>2018-05-19T11:53:47Z</time>
      </trkpt>
      <trkpt lat="44.09327" lon="3.01302">
        <ele>560.7</ele>
        <time>2018-05-19T11:53:49Z</time>
      </trkpt>
      <trkpt lat="44.09323" lon="3.01304">
        <ele>559.9</ele>
        <time>2018-05-19T11:53:50Z</time>
      </trkpt>
      <trkpt lat="44.09318" lon="3.01307">
        <ele>558.7</ele>
        <time>2018-05-19T11:53:51Z</time>
      </trkpt>
      <trkpt lat="44.09313" lon="3.01309">
        <ele>558</ele>
        <time>2018-05-19T11:53:52Z</time>
      </trkpt>
      <trkpt lat="44.09309" lon="3.01311">
        <ele>557.5</ele>
        <time>2018-05-19T11:53:53Z</time>
      </trkpt>
      <trkpt lat="44.09305" lon="3.0131">
        <ele>556.8</ele>
        <time>2018-05-19T11:53:54Z</time>
      </trkpt>
      <trkpt lat="44.09302" lon="3.0131">
        <ele>556.2</ele>
        <time>2018-05-19T11:53:55Z</time>
      </trkpt>
      <trkpt lat="44.09298" lon="3.01313">
        <ele>555.1</ele>
        <time>2018-05-19T11:53:56Z</time>
      </trkpt>
      <trkpt lat="44.09293" lon="3.01317">
        <ele>554.3</ele>
        <time>2018-05-19T11:53:57Z</time>
      </trkpt>
      <trkpt lat="44.0929" lon="3.01321">
        <ele>554</ele>
        <time>2018-05-19T11:53:58Z</time>
      </trkpt>
      <trkpt lat="44.09285" lon="3.01327">
        <ele>553.3</ele>
        <time>2018-05-19T11:53:59Z</time>
      </trkpt>
      <trkpt lat="44.09281" lon="3.01331">
        <ele>553</ele>
        <time>2018-05-19T11:54:00Z</time>
      </trkpt>
      <trkpt lat="44.09279" lon="3.01336">
        <ele>552.7</ele>
        <time>2018-05-19T11:54:01Z</time>
      </trkpt>
      <trkpt lat="44.09277" lon="3.01342">
        <ele>552.5</ele>
        <time>2018-05-19T11:54:02Z</time>
      </trkpt>
      <trkpt lat="44.09274" lon="3.01347">
        <ele>552.3</ele>
        <time>2018-05-19T11:54:03Z</time>
      </trkpt>
      <trkpt lat="44.0927" lon="3.0135">
        <ele>552.1</ele>
        <time>2018-05-19T11:54:04Z</time>
      </trkpt>
      <trkpt lat="44.09266" lon="3.01353">
        <ele>552</ele>
        <time>2018-05-19T11:54:05Z</time>
      </trkpt>
      <trkpt lat="44.09262" lon="3.01361">
        <ele>551.8</ele>
        <time>2018-05-19T11:54:06Z</time>
      </trkpt>
      <trkpt lat="44.09261" lon="3.01367">
        <ele>551.7</ele>
        <time>2018-05-19T11:54:07Z</time>
      </trkpt>
      <trkpt lat="44.09258" lon="3.01372">
        <ele>551.5</ele>
        <time>2018-05-19T11:54:08Z</time>
      </trkpt>
      <trkpt lat="44.09253" lon="3.01377">
        <ele>551.3</ele>
        <time>2018-05-19T11:54:09Z</time>
      </trkpt>
      <trkpt lat="44.09247" lon="3.01384">
        <ele>551</ele>
        <time>2018-05-19T11:54:10Z</time>
      </trkpt>
      <trkpt lat="44.0924" lon="3.01388">
        <ele>550.5</ele>
        <time>2018-05-19T11:54:11Z</time>
      </trkpt>
      <trkpt lat="44.09234" lon="3.01391">
        <ele>549.6</ele>
        <time>2018-05-19T11:54:12Z</time>
      </trkpt>
      <trkpt lat="44.09226" lon="3.01392">
        <ele>548.7</ele>
        <time>2018-05-19T11:54:13Z</time>
      </trkpt>
      <trkpt lat="44.09217" lon="3.01393">
        <ele>548.3</ele>
        <time>2018-05-19T11:54:14Z</time>
      </trkpt>
      <trkpt lat="44.09208" lon="3.01395">
        <ele>547.7</ele>
        <time>2018-05-19T11:54:15Z</time>
      </trkpt>
      <trkpt lat="44.092" lon="3.01397">
        <ele>547.4</ele>
        <time>2018-05-19T11:54:16Z</time>
      </trkpt>
      <trkpt lat="44.09191" lon="3.014">
        <ele>547.1</ele>
        <time>2018-05-19T11:54:17Z</time>
      </trkpt>
      <trkpt lat="44.09183" lon="3.01403">
        <ele>546.6</ele>
        <time>2018-05-19T11:54:18Z</time>
      </trkpt>
      <trkpt lat="44.09177" lon="3.01405">
        <ele>546.3</ele>
        <time>2018-05-19T11:54:19Z</time>
      </trkpt>
      <trkpt lat="44.09173" lon="3.01407">
        <ele>545.1</ele>
        <time>2018-05-19T11:54:20Z</time>
      </trkpt>
      <trkpt lat="44.0917" lon="3.01407">
        <ele>543.9</ele>
        <time>2018-05-19T11:54:21Z</time>
      </trkpt>
      <trkpt lat="44.09167" lon="3.0141">
        <ele>543.2</ele>
        <time>2018-05-19T11:54:22Z</time>
      </trkpt>
      <trkpt lat="44.09163" lon="3.01412">
        <ele>542.6</ele>
        <time>2018-05-19T11:54:23Z</time>
      </trkpt>
      <trkpt lat="44.0916" lon="3.01413">
        <ele>542.1</ele>
        <time>2018-05-19T11:54:24Z</time>
      </trkpt>
      <trkpt lat="44.09157" lon="3.01414">
        <ele>541.8</ele>
        <time>2018-05-19T11:54:25Z</time>
      </trkpt>
      <trkpt lat="44.09153" lon="3.01417">
        <ele>541.3</ele>
        <time>2018-05-19T11:54:29Z</time>
      </trkpt>
      <trkpt lat="44.09151" lon="3.01419">
        <ele>540.6</ele>
        <time>2018-05-19T11:54:31Z</time>
      </trkpt>
      <trkpt lat="44.09147" lon="3.01421">
        <ele>539.3</ele>
        <time>2018-05-19T11:54:33Z</time>
      </trkpt>
      <trkpt lat="44.09144" lon="3.01421">
        <ele>538.6</ele>
        <time>2018-05-19T11:54:35Z</time>
      </trkpt>
      <trkpt lat="44.09139" lon="3.01419">
        <ele>538.1</ele>
        <time>2018-05-19T11:54:37Z</time>
      </trkpt>
      <trkpt lat="44.09135" lon="3.01419">
        <ele>537.5</ele>
        <time>2018-05-19T11:54:39Z</time>
      </trkpt>
      <trkpt lat="44.09132" lon="3.0142">
        <ele>537.1</ele>
        <time>2018-05-19T11:54:40Z</time>
      </trkpt>
      <trkpt lat="44.09127" lon="3.01422">
        <ele>536.8</ele>
        <time>2018-05-19T11:54:41Z</time>
      </trkpt>
      <trkpt lat="44.09121" lon="3.01427">
        <ele>536</ele>
        <time>2018-05-19T11:54:42Z</time>
      </trkpt>
      <trkpt lat="44.09117" lon="3.01431">
        <ele>535</ele>
        <time>2018-05-19T11:54:43Z</time>
      </trkpt>
      <trkpt lat="44.09112" lon="3.01435">
        <ele>534.4</ele>
        <time>2018-05-19T11:54:44Z</time>
      </trkpt>
      <trkpt lat="44.09108" lon="3.01437">
        <ele>534</ele>
        <time>2018-05-19T11:54:45Z</time>
      </trkpt>
      <trkpt lat="44.09105" lon="3.01438">
        <ele>533.7</ele>
        <time>2018-05-19T11:54:46Z</time>
      </trkpt>
      <trkpt lat="44.09102" lon="3.01439">
        <ele>533.5</ele>
        <time>2018-05-19T11:54:47Z</time>
      </trkpt>
      <trkpt lat="44.09101" lon="3.01443">
        <ele>533.3</ele>
        <time>2018-05-19T11:54:48Z</time>
      </trkpt>
      <trkpt lat="44.09098" lon="3.01448">
        <ele>532.8</ele>
        <time>2018-05-19T11:54:50Z</time>
      </trkpt>
      <trkpt lat="44.09096" lon="3.01451">
        <ele>532.3</ele>
        <time>2018-05-19T11:54:51Z</time>
      </trkpt>
      <trkpt lat="44.09091" lon="3.01454">
        <ele>530.9</ele>
        <time>2018-05-19T11:54:53Z</time>
      </trkpt>
      <trkpt lat="44.09088" lon="3.01456">
        <ele>530.4</ele>
        <time>2018-05-19T11:54:54Z</time>
      </trkpt>
      <trkpt lat="44.09085" lon="3.01458">
        <ele>529.8</ele>
        <time>2018-05-19T11:54:55Z</time>
      </trkpt>
      <trkpt lat="44.0908" lon="3.01462">
        <ele>529.4</ele>
        <time>2018-05-19T11:54:56Z</time>
      </trkpt>
      <trkpt lat="44.09075" lon="3.01464">
        <ele>529</ele>
        <time>2018-05-19T11:54:57Z</time>
      </trkpt>
      <trkpt lat="44.09067" lon="3.01462">
        <ele>528.6</ele>
        <time>2018-05-19T11:54:58Z</time>
      </trkpt>
      <trkpt lat="44.0906" lon="3.01462">
        <ele>527.6</ele>
        <time>2018-05-19T11:54:59Z</time>
      </trkpt>
      <trkpt lat="44.09053" lon="3.01463">
        <ele>526.5</ele>
        <time>2018-05-19T11:55:00Z</time>
      </trkpt>
      <trkpt lat="44.09044" lon="3.01464">
        <ele>525.9</ele>
        <time>2018-05-19T11:55:01Z</time>
      </trkpt>
      <trkpt lat="44.09039" lon="3.01467">
        <ele>525.6</ele>
        <time>2018-05-19T11:55:02Z</time>
      </trkpt>
      <trkpt lat="44.09034" lon="3.01471">
        <ele>525.1</ele>
        <time>2018-05-19T11:55:03Z</time>
      </trkpt>
      <trkpt lat="44.0903" lon="3.01476">
        <ele>524.2</ele>
        <time>2018-05-19T11:55:04Z</time>
      </trkpt>
      <trkpt lat="44.09026" lon="3.01481">
        <ele>523.8</ele>
        <time>2018-05-19T11:55:05Z</time>
      </trkpt>
      <trkpt lat="44.09022" lon="3.01487">
        <ele>523.2</ele>
        <time>2018-05-19T11:55:06Z</time>
      </trkpt>
      <trkpt lat="44.09017" lon="3.01495">
        <ele>522.7</ele>
        <time>2018-05-19T11:55:07Z</time>
      </trkpt>
      <trkpt lat="44.09013" lon="3.01502">
        <ele>522.3</ele>
        <time>2018-05-19T11:55:08Z</time>
      </trkpt>
      <trkpt lat="44.09009" lon="3.01507">
        <ele>521.3</ele>
        <time>2018-05-19T11:55:09Z</time>
      </trkpt>
      <trkpt lat="44.09006" lon="3.01511">
        <ele>520.8</ele>
        <time>2018-05-19T11:55:11Z</time>
      </trkpt>
      <trkpt lat="44.09003" lon="3.01514">
        <ele>520.5</ele>
        <time>2018-05-19T11:55:12Z</time>
      </trkpt>
      <trkpt lat="44.09001" lon="3.01517">
        <ele>520.3</ele>
        <time>2018-05-19T11:55:15Z</time>
      </trkpt>
      <trkpt lat="44.08999" lon="3.01519">
        <ele>520.2</ele>
        <time>2018-05-19T11:55:24Z</time>
      </trkpt>
      <trkpt lat="44.09" lon="3.01524">
        <ele>520</ele>
        <time>2018-05-19T11:56:06Z</time>
      </trkpt>
      <trkpt lat="44.08997" lon="3.01528">
        <ele>519.7</ele>
        <time>2018-05-19T11:56:10Z</time>
      </trkpt>
      <trkpt lat="44.08994" lon="3.01532">
        <ele>519.6</ele>
        <time>2018-05-19T11:56:12Z</time>
      </trkpt>
      <trkpt lat="44.08993" lon="3.01537">
        <ele>519.4</ele>
        <time>2018-05-19T11:56:13Z</time>
      </trkpt>
      <trkpt lat="44.08991" lon="3.01543">
        <ele>518.6</ele>
        <time>2018-05-19T11:56:14Z</time>
      </trkpt>
      <trkpt lat="44.08988" lon="3.0156">
        <ele>517.2</ele>
        <time>2018-05-19T11:56:15Z</time>
      </trkpt>
      <trkpt lat="44.08986" lon="3.0157">
        <ele>516.7</ele>
        <time>2018-05-19T11:56:16Z</time>
      </trkpt>
      <trkpt lat="44.08984" lon="3.0158">
        <ele>516.3</ele>
        <time>2018-05-19T11:56:17Z</time>
      </trkpt>
      <trkpt lat="44.08981" lon="3.01591">
        <ele>515.2</ele>
        <time>2018-05-19T11:56:18Z</time>
      </trkpt>
      <trkpt lat="44.08979" lon="3.01601">
        <ele>514.8</ele>
        <time>2018-05-19T11:56:19Z</time>
      </trkpt>
      <trkpt lat="44.08979" lon="3.01612">
        <ele>514.4</ele>
        <time>2018-05-19T11:56:20Z</time>
      </trkpt>
      <trkpt lat="44.08977" lon="3.01623">
        <ele>514.2</ele>
        <time>2018-05-19T11:56:21Z</time>
      </trkpt>
      <trkpt lat="44.08979" lon="3.0163">
        <ele>514.2</ele>
        <time>2018-05-19T11:56:22Z</time>
      </trkpt>
      <trkpt lat="44.0898" lon="3.01637">
        <ele>514.1</ele>
        <time>2018-05-19T11:56:23Z</time>
      </trkpt>
      <trkpt lat="44.0898" lon="3.01643">
        <ele>514.1</ele>
        <time>2018-05-19T11:56:24Z</time>
      </trkpt>
      <trkpt lat="44.08985" lon="3.0165">
        <ele>514</ele>
        <time>2018-05-19T11:56:26Z</time>
      </trkpt>
      <trkpt lat="44.08986" lon="3.01655">
        <ele>514</ele>
        <time>2018-05-19T11:56:27Z</time>
      </trkpt>
      <trkpt lat="44.08988" lon="3.0166">
        <ele>513.9</ele>
        <time>2018-05-19T11:56:28Z</time>
      </trkpt>
      <trkpt lat="44.08989" lon="3.01665">
        <ele>513.9</ele>
        <time>2018-05-19T11:56:29Z</time>
      </trkpt>
      <trkpt lat="44.0899" lon="3.01669">
        <ele>513.8</ele>
        <time>2018-05-19T11:56:30Z</time>
      </trkpt>
      <trkpt lat="44.08993" lon="3.01676">
        <ele>513.8</ele>
        <time>2018-05-19T11:56:32Z</time>
      </trkpt>
      <trkpt lat="44.08995" lon="3.01678">
        <ele>513.7</ele>
        <time>2018-05-19T11:56:33Z</time>
      </trkpt>
      <trkpt lat="44.08998" lon="3.01682">
        <ele>513.7</ele>
        <time>2018-05-19T11:56:35Z</time>
      </trkpt>
      <trkpt lat="44.09002" lon="3.01684">
        <ele>513.7</ele>
        <time>2018-05-19T11:56:37Z</time>
      </trkpt>
      <trkpt lat="44.09005" lon="3.01685">
        <ele>513.7</ele>
        <time>2018-05-19T11:56:39Z</time>
      </trkpt>
      <trkpt lat="44.09008" lon="3.01685">
        <ele>513.6</ele>
        <time>2018-05-19T11:56:42Z</time>
      </trkpt>
      <trkpt lat="44.09005" lon="3.01685">
        <ele>513.6</ele>
        <time>2018-05-19T11:57:27Z</time>
      </trkpt>
      <trkpt lat="44.09008" lon="3.01688">
        <ele>513.6</ele>
        <time>2018-05-19T11:57:33Z</time>
      </trkpt>
      <trkpt lat="44.09011" lon="3.01688">
        <ele>513.6</ele>
        <time>2018-05-19T11:57:38Z</time>
      </trkpt>
      <trkpt lat="44.09014" lon="3.0169">
        <ele>513.6</ele>
        <time>2018-05-19T11:57:42Z</time>
      </trkpt>
      <trkpt lat="44.09018" lon="3.01691">
        <ele>513.6</ele>
        <time>2018-05-19T11:57:45Z</time>
      </trkpt>
      <trkpt lat="44.0902" lon="3.01694">
        <ele>513.5</ele>
        <time>2018-05-19T11:57:51Z</time>
      </trkpt>
      <trkpt lat="44.09022" lon="3.01695">
        <ele>513.5</ele>
        <time>2018-05-19T11:57:54Z</time>
      </trkpt>
      <trkpt lat="44.09026" lon="3.01697">
        <ele>513.5</ele>
        <time>2018-05-19T11:57:58Z</time>
      </trkpt>
      <trkpt lat="44.09029" lon="3.01699">
        <ele>513.5</ele>
        <time>2018-05-19T11:58:02Z</time>
      </trkpt>
      <trkpt lat="44.09032" lon="3.017">
        <ele>513.5</ele>
        <time>2018-05-19T11:58:05Z</time>
      </trkpt>
      <trkpt lat="44.09035" lon="3.01703">
        <ele>513.5</ele>
        <time>2018-05-19T11:58:09Z</time>
      </trkpt>
      <trkpt lat="44.09038" lon="3.01703">
        <ele>513.5</ele>
        <time>2018-05-19T11:58:13Z</time>
      </trkpt>
      <trkpt lat="44.09043" lon="3.01704">
        <ele>513.4</ele>
        <time>2018-05-19T11:58:16Z</time>
      </trkpt>
      <trkpt lat="44.09046" lon="3.01705">
        <ele>513.4</ele>
        <time>2018-05-19T11:58:18Z</time>
      </trkpt>
      <trkpt lat="44.0905" lon="3.01706">
        <ele>513.4</ele>
        <time>2018-05-19T11:58:20Z</time>
      </trkpt>
      <trkpt lat="44.09054" lon="3.01707">
        <ele>513.4</ele>
        <time>2018-05-19T11:58:22Z</time>
      </trkpt>
      <trkpt lat="44.09058" lon="3.01709">
        <ele>513.4</ele>
        <time>2018-05-19T11:58:24Z</time>
      </trkpt>
      <trkpt lat="44.09061" lon="3.01711">
        <ele>513.3</ele>
        <time>2018-05-19T11:58:26Z</time>
      </trkpt>
      <trkpt lat="44.09066" lon="3.01714">
        <ele>513.3</ele>
        <time>2018-05-19T11:58:28Z</time>
      </trkpt>
      <trkpt lat="44.0907" lon="3.01716">
        <ele>513.3</ele>
        <time>2018-05-19T11:58:30Z</time>
      </trkpt>
      <trkpt lat="44.09073" lon="3.01718">
        <ele>513.3</ele>
        <time>2018-05-19T11:58:32Z</time>
      </trkpt>
      <trkpt lat="44.09077" lon="3.01721">
        <ele>513.2</ele>
        <time>2018-05-19T11:58:34Z</time>
      </trkpt>
      <trkpt lat="44.0908" lon="3.01724">
        <ele>513.2</ele>
        <time>2018-05-19T11:58:36Z</time>
      </trkpt>
      <trkpt lat="44.09083" lon="3.01727">
        <ele>513.2</ele>
        <time>2018-05-19T11:58:38Z</time>
      </trkpt>
      <trkpt lat="44.09085" lon="3.01729">
        <ele>513.2</ele>
        <time>2018-05-19T11:58:40Z</time>
      </trkpt>
      <trkpt lat="44.09088" lon="3.01731">
        <ele>513.2</ele>
        <time>2018-05-19T11:58:43Z</time>
      </trkpt>
      <trkpt lat="44.0909" lon="3.01733">
        <ele>513.2</ele>
        <time>2018-05-19T11:58:45Z</time>
      </trkpt>
      <trkpt lat="44.09092" lon="3.01736">
        <ele>513.1</ele>
        <time>2018-05-19T11:58:47Z</time>
      </trkpt>
      <trkpt lat="44.09095" lon="3.01739">
        <ele>513.1</ele>
        <time>2018-05-19T11:58:49Z</time>
      </trkpt>
      <trkpt lat="44.09098" lon="3.01742">
        <ele>513.1</ele>
        <time>2018-05-19T11:58:51Z</time>
      </trkpt>
      <trkpt lat="44.09101" lon="3.01745">
        <ele>513.1</ele>
        <time>2018-05-19T11:58:53Z</time>
      </trkpt>
      <trkpt lat="44.09103" lon="3.01747">
        <ele>513.1</ele>
        <time>2018-05-19T11:58:55Z</time>
      </trkpt>
      <trkpt lat="44.09106" lon="3.0175">
        <ele>513.1</ele>
        <time>2018-05-19T11:58:57Z</time>
      </trkpt>
      <trkpt lat="44.09108" lon="3.01752">
        <ele>513.1</ele>
        <time>2018-05-19T11:58:59Z</time>
      </trkpt>
      <trkpt lat="44.0911" lon="3.01755">
        <ele>513</ele>
        <time>2018-05-19T11:59:01Z</time>
      </trkpt>
      <trkpt lat="44.09112" lon="3.01758">
        <ele>513</ele>
        <time>2018-05-19T11:59:03Z</time>
      </trkpt>
      <trkpt lat="44.09114" lon="3.01761">
        <ele>513</ele>
        <time>2018-05-19T11:59:05Z</time>
      </trkpt>
      <trkpt lat="44.09116" lon="3.01764">
        <ele>513</ele>
        <time>2018-05-19T11:59:07Z</time>
      </trkpt>
      <trkpt lat="44.09118" lon="3.01768">
        <ele>512.9</ele>
        <time>2018-05-19T11:59:09Z</time>
      </trkpt>
      <trkpt lat="44.09121" lon="3.01771">
        <ele>512.9</ele>
        <time>2018-05-19T11:59:12Z</time>
      </trkpt>
      <trkpt lat="44.09123" lon="3.01773">
        <ele>512.9</ele>
        <time>2018-05-19T11:59:14Z</time>
      </trkpt>
      <trkpt lat="44.09126" lon="3.01776">
        <ele>512.9</ele>
        <time>2018-05-19T11:59:17Z</time>
      </trkpt>
      <trkpt lat="44.09129" lon="3.01778">
        <ele>512.9</ele>
        <time>2018-05-19T11:59:19Z</time>
      </trkpt>
      <trkpt lat="44.09132" lon="3.0178">
        <ele>512.8</ele>
        <time>2018-05-19T11:59:21Z</time>
      </trkpt>
      <trkpt lat="44.09135" lon="3.01783">
        <ele>512.8</ele>
        <time>2018-05-19T11:59:23Z</time>
      </trkpt>
      <trkpt lat="44.09138" lon="3.01786">
        <ele>512.8</ele>
        <time>2018-05-19T11:59:25Z</time>
      </trkpt>
      <trkpt lat="44.0914" lon="3.01789">
        <ele>512.7</ele>
        <time>2018-05-19T11:59:28Z</time>
      </trkpt>
      <trkpt lat="44.09142" lon="3.01792">
        <ele>512.7</ele>
        <time>2018-05-19T11:59:30Z</time>
      </trkpt>
      <trkpt lat="44.09144" lon="3.01795">
        <ele>512.7</ele>
        <time>2018-05-19T11:59:32Z</time>
      </trkpt>
      <trkpt lat="44.09148" lon="3.01798">
        <ele>512.6</ele>
        <time>2018-05-19T11:59:35Z</time>
      </trkpt>
      <trkpt lat="44.09151" lon="3.018">
        <ele>512.6</ele>
        <time>2018-05-19T11:59:38Z</time>
      </trkpt>
      <trkpt lat="44.09154" lon="3.01802">
        <ele>512.6</ele>
        <time>2018-05-19T11:59:42Z</time>
      </trkpt>
      <trkpt lat="44.09156" lon="3.01805">
        <ele>512.5</ele>
        <time>2018-05-19T11:59:45Z</time>
      </trkpt>
      <trkpt lat="44.09158" lon="3.01809">
        <ele>512.5</ele>
        <time>2018-05-19T11:59:47Z</time>
      </trkpt>
      <trkpt lat="44.0916" lon="3.01813">
        <ele>512.4</ele>
        <time>2018-05-19T11:59:49Z</time>
      </trkpt>
      <trkpt lat="44.09162" lon="3.01816">
        <ele>512.4</ele>
        <time>2018-05-19T11:59:51Z</time>
      </trkpt>
      <trkpt lat="44.09164" lon="3.0182">
        <ele>512.4</ele>
        <time>2018-05-19T11:59:54Z</time>
      </trkpt>
      <trkpt lat="44.09162" lon="3.01824">
        <ele>512.3</ele>
        <time>2018-05-19T12:04:12Z</time>
      </trkpt>
      <trkpt lat="44.09159" lon="3.01826">
        <ele>512.3</ele>
        <time>2018-05-19T12:04:14Z</time>
      </trkpt>
      <trkpt lat="44.09155" lon="3.0183">
        <ele>512.2</ele>
        <time>2018-05-19T12:04:16Z</time>
      </trkpt>
      <trkpt lat="44.09152" lon="3.01833">
        <ele>512.1</ele>
        <time>2018-05-19T12:04:18Z</time>
      </trkpt>
      <trkpt lat="44.09149" lon="3.01836">
        <ele>512</ele>
        <time>2018-05-19T12:04:20Z</time>
      </trkpt>
      <trkpt lat="44.09145" lon="3.01839">
        <ele>511.9</ele>
        <time>2018-05-19T12:04:22Z</time>
      </trkpt>
      <trkpt lat="44.09142" lon="3.01843">
        <ele>511.9</ele>
        <time>2018-05-19T12:04:24Z</time>
      </trkpt>
      <trkpt lat="44.0914" lon="3.01847">
        <ele>511.8</ele>
        <time>2018-05-19T12:04:26Z</time>
      </trkpt>
      <trkpt lat="44.09138" lon="3.01851">
        <ele>511.7</ele>
        <time>2018-05-19T12:04:28Z</time>
      </trkpt>
      <trkpt lat="44.09136" lon="3.01854">
        <ele>511.6</ele>
        <time>2018-05-19T12:04:30Z</time>
      </trkpt>
      <trkpt lat="44.09134" lon="3.01859">
        <ele>511.4</ele>
        <time>2018-05-19T12:04:32Z</time>
      </trkpt>
      <trkpt lat="44.09132" lon="3.01863">
        <ele>511.3</ele>
        <time>2018-05-19T12:04:35Z</time>
      </trkpt>
      <trkpt lat="44.0913" lon="3.01867">
        <ele>511.1</ele>
        <time>2018-05-19T12:04:37Z</time>
      </trkpt>
      <trkpt lat="44.09129" lon="3.01871">
        <ele>511</ele>
        <time>2018-05-19T12:04:39Z</time>
      </trkpt>
      <trkpt lat="44.09127" lon="3.01874">
        <ele>510.8</ele>
        <time>2018-05-19T12:04:41Z</time>
      </trkpt>
      <trkpt lat="44.09126" lon="3.01878">
        <ele>510.6</ele>
        <time>2018-05-19T12:04:43Z</time>
      </trkpt>
      <trkpt lat="44.09124" lon="3.01882">
        <ele>510.5</ele>
        <time>2018-05-19T12:04:45Z</time>
      </trkpt>
      <trkpt lat="44.09121" lon="3.01886">
        <ele>510.2</ele>
        <time>2018-05-19T12:04:47Z</time>
      </trkpt>
      <trkpt lat="44.09119" lon="3.0189">
        <ele>510</ele>
        <time>2018-05-19T12:04:49Z</time>
      </trkpt>
      <trkpt lat="44.09117" lon="3.01892">
        <ele>509.9</ele>
        <time>2018-05-19T12:04:51Z</time>
      </trkpt>
      <trkpt lat="44.09114" lon="3.01894">
        <ele>509.8</ele>
        <time>2018-05-19T12:04:53Z</time>
      </trkpt>
      <trkpt lat="44.09111" lon="3.01896">
        <ele>509.6</ele>
        <time>2018-05-19T12:04:55Z</time>
      </trkpt>
      <trkpt lat="44.09109" lon="3.01899">
        <ele>509.5</ele>
        <time>2018-05-19T12:04:57Z</time>
      </trkpt>
      <trkpt lat="44.09107" lon="3.01902">
        <ele>509.4</ele>
        <time>2018-05-19T12:04:59Z</time>
      </trkpt>
      <trkpt lat="44.09103" lon="3.01905">
        <ele>509.2</ele>
        <time>2018-05-19T12:05:01Z</time>
      </trkpt>
      <trkpt lat="44.09097" lon="3.01906">
        <ele>509</ele>
        <time>2018-05-19T12:05:03Z</time>
      </trkpt>
      <trkpt lat="44.09091" lon="3.01907">
        <ele>509.3</ele>
        <time>2018-05-19T12:05:04Z</time>
      </trkpt>
      <trkpt lat="44.09085" lon="3.01908">
        <ele>509.5</ele>
        <time>2018-05-19T12:05:05Z</time>
      </trkpt>
      <trkpt lat="44.09079" lon="3.01908">
        <ele>509.7</ele>
        <time>2018-05-19T12:05:06Z</time>
      </trkpt>
      <trkpt lat="44.09072" lon="3.01907">
        <ele>510.1</ele>
        <time>2018-05-19T12:05:07Z</time>
      </trkpt>
      <trkpt lat="44.09065" lon="3.01906">
        <ele>510.2</ele>
        <time>2018-05-19T12:05:08Z</time>
      </trkpt>
      <trkpt lat="44.09059" lon="3.01908">
        <ele>510.2</ele>
        <time>2018-05-19T12:05:09Z</time>
      </trkpt>
      <trkpt lat="44.09055" lon="3.01908">
        <ele>510.2</ele>
        <time>2018-05-19T12:05:10Z</time>
      </trkpt>
      <trkpt lat="44.09048" lon="3.01909">
        <ele>510.2</ele>
        <time>2018-05-19T12:05:11Z</time>
      </trkpt>
      <trkpt lat="44.09043" lon="3.0191">
        <ele>510.2</ele>
        <time>2018-05-19T12:05:12Z</time>
      </trkpt>
      <trkpt lat="44.09036" lon="3.01909">
        <ele>510.3</ele>
        <time>2018-05-19T12:05:13Z</time>
      </trkpt>
      <trkpt lat="44.0903" lon="3.01908">
        <ele>510.3</ele>
        <time>2018-05-19T12:05:14Z</time>
      </trkpt>
      <trkpt lat="44.09024" lon="3.01908">
        <ele>510.4</ele>
        <time>2018-05-19T12:05:15Z</time>
      </trkpt>
      <trkpt lat="44.09016" lon="3.0191">
        <ele>510.6</ele>
        <time>2018-05-19T12:05:16Z</time>
      </trkpt>
      <trkpt lat="44.0901" lon="3.01913">
        <ele>510.7</ele>
        <time>2018-05-19T12:05:17Z</time>
      </trkpt>
      <trkpt lat="44.09005" lon="3.01916">
        <ele>510.9</ele>
        <time>2018-05-19T12:05:18Z</time>
      </trkpt>
      <trkpt lat="44.08999" lon="3.01918">
        <ele>511</ele>
        <time>2018-05-19T12:05:19Z</time>
      </trkpt>
      <trkpt lat="44.08992" lon="3.01921">
        <ele>511.1</ele>
        <time>2018-05-19T12:05:20Z</time>
      </trkpt>
      <trkpt lat="44.08986" lon="3.01923">
        <ele>511.2</ele>
        <time>2018-05-19T12:05:21Z</time>
      </trkpt>
      <trkpt lat="44.08979" lon="3.01924">
        <ele>511.4</ele>
        <time>2018-05-19T12:05:22Z</time>
      </trkpt>
      <trkpt lat="44.08973" lon="3.01926">
        <ele>511.7</ele>
        <time>2018-05-19T12:05:23Z</time>
      </trkpt>
      <trkpt lat="44.08967" lon="3.01928">
        <ele>512</ele>
        <time>2018-05-19T12:05:24Z</time>
      </trkpt>
      <trkpt lat="44.08961" lon="3.01931">
        <ele>512.4</ele>
        <time>2018-05-19T12:05:25Z</time>
      </trkpt>
      <trkpt lat="44.08954" lon="3.01932">
        <ele>512.8</ele>
        <time>2018-05-19T12:05:26Z</time>
      </trkpt>
      <trkpt lat="44.08949" lon="3.01933">
        <ele>513</ele>
        <time>2018-05-19T12:05:27Z</time>
      </trkpt>
      <trkpt lat="44.08943" lon="3.01934">
        <ele>513.2</ele>
        <time>2018-05-19T12:05:28Z</time>
      </trkpt>
      <trkpt lat="44.08938" lon="3.01934">
        <ele>513.4</ele>
        <time>2018-05-19T12:05:29Z</time>
      </trkpt>
      <trkpt lat="44.08932" lon="3.01936">
        <ele>513.8</ele>
        <time>2018-05-19T12:05:30Z</time>
      </trkpt>
      <trkpt lat="44.08926" lon="3.0194">
        <ele>514</ele>
        <time>2018-05-19T12:05:31Z</time>
      </trkpt>
      <trkpt lat="44.08919" lon="3.01945">
        <ele>514.2</ele>
        <time>2018-05-19T12:05:32Z</time>
      </trkpt>
      <trkpt lat="44.08913" lon="3.01952">
        <ele>514.4</ele>
        <time>2018-05-19T12:05:33Z</time>
      </trkpt>
      <trkpt lat="44.08907" lon="3.01959">
        <ele>514.5</ele>
        <time>2018-05-19T12:05:34Z</time>
      </trkpt>
      <trkpt lat="44.08901" lon="3.01966">
        <ele>514.7</ele>
        <time>2018-05-19T12:05:35Z</time>
      </trkpt>
      <trkpt lat="44.08895" lon="3.01973">
        <ele>514.8</ele>
        <time>2018-05-19T12:05:36Z</time>
      </trkpt>
      <trkpt lat="44.0889" lon="3.01979">
        <ele>514.8</ele>
        <time>2018-05-19T12:05:37Z</time>
      </trkpt>
      <trkpt lat="44.08886" lon="3.01988">
        <ele>515</ele>
        <time>2018-05-19T12:05:38Z</time>
      </trkpt>
      <trkpt lat="44.08882" lon="3.01999">
        <ele>515.2</ele>
        <time>2018-05-19T12:05:39Z</time>
      </trkpt>
      <trkpt lat="44.08878" lon="3.02009">
        <ele>515.3</ele>
        <time>2018-05-19T12:05:40Z</time>
      </trkpt>
      <trkpt lat="44.08875" lon="3.02018">
        <ele>515.4</ele>
        <time>2018-05-19T12:05:41Z</time>
      </trkpt>
      <trkpt lat="44.08874" lon="3.02029">
        <ele>515.4</ele>
        <time>2018-05-19T12:05:42Z</time>
      </trkpt>
      <trkpt lat="44.08874" lon="3.02042">
        <ele>515.6</ele>
        <time>2018-05-19T12:05:43Z</time>
      </trkpt>
      <trkpt lat="44.08873" lon="3.02052">
        <ele>515.8</ele>
        <time>2018-05-19T12:05:44Z</time>
      </trkpt>
      <trkpt lat="44.08873" lon="3.02061">
        <ele>516</ele>
        <time>2018-05-19T12:05:45Z</time>
      </trkpt>
      <trkpt lat="44.08873" lon="3.02069">
        <ele>516.1</ele>
        <time>2018-05-19T12:05:46Z</time>
      </trkpt>
      <trkpt lat="44.08876" lon="3.02075">
        <ele>516.2</ele>
        <time>2018-05-19T12:05:47Z</time>
      </trkpt>
      <trkpt lat="44.08879" lon="3.0208">
        <ele>516.3</ele>
        <time>2018-05-19T12:05:48Z</time>
      </trkpt>
      <trkpt lat="44.08882" lon="3.02082">
        <ele>516.3</ele>
        <time>2018-05-19T12:05:49Z</time>
      </trkpt>
      <trkpt lat="44.08884" lon="3.02084">
        <ele>516.4</ele>
        <time>2018-05-19T12:05:50Z</time>
      </trkpt>
      <trkpt lat="44.08887" lon="3.02087">
        <ele>516.4</ele>
        <time>2018-05-19T12:05:52Z</time>
      </trkpt>
      <trkpt lat="44.0889" lon="3.02091">
        <ele>516.4</ele>
        <time>2018-05-19T12:05:55Z</time>
      </trkpt>
      <trkpt lat="44.08892" lon="3.02093">
        <ele>516.5</ele>
        <time>2018-05-19T12:05:58Z</time>
      </trkpt>
      <trkpt lat="44.08895" lon="3.02094">
        <ele>516.5</ele>
        <time>2018-05-19T12:06:01Z</time>
      </trkpt>
      <trkpt lat="44.08898" lon="3.02097">
        <ele>516.5</ele>
        <time>2018-05-19T12:06:04Z</time>
      </trkpt>
      <trkpt lat="44.08902" lon="3.02099">
        <ele>516.6</ele>
        <time>2018-05-19T12:06:07Z</time>
      </trkpt>
      <trkpt lat="44.08904" lon="3.02102">
        <ele>516.6</ele>
        <time>2018-05-19T12:06:09Z</time>
      </trkpt>
      <trkpt lat="44.08907" lon="3.02105">
        <ele>516.6</ele>
        <time>2018-05-19T12:06:11Z</time>
      </trkpt>
      <trkpt lat="44.08909" lon="3.02108">
        <ele>516.7</ele>
        <time>2018-05-19T12:06:13Z</time>
      </trkpt>
      <trkpt lat="44.08912" lon="3.02111">
        <ele>516.8</ele>
        <time>2018-05-19T12:06:15Z</time>
      </trkpt>
      <trkpt lat="44.08913" lon="3.02115">
        <ele>516.8</ele>
        <time>2018-05-19T12:06:27Z</time>
      </trkpt>
      <trkpt lat="44.08914" lon="3.02119">
        <ele>516.9</ele>
        <time>2018-05-19T12:06:31Z</time>
      </trkpt>
      <trkpt lat="44.08915" lon="3.02123">
        <ele>516.9</ele>
        <time>2018-05-19T12:06:34Z</time>
      </trkpt>
      <trkpt lat="44.08914" lon="3.02127">
        <ele>516</ele>
        <time>2018-05-19T12:06:44Z</time>
      </trkpt>
      <trkpt lat="44.08914" lon="3.02131">
        <ele>515.6</ele>
        <time>2018-05-19T12:06:52Z</time>
      </trkpt>
      <trkpt lat="44.08912" lon="3.02135">
        <ele>514.9</ele>
        <time>2018-05-19T12:09:47Z</time>
      </trkpt>
      <trkpt lat="44.08916" lon="3.02137">
        <ele>514.2</ele>
        <time>2018-05-19T12:09:50Z</time>
      </trkpt>
      <trkpt lat="44.08918" lon="3.02138">
        <ele>513.2</ele>
        <time>2018-05-19T12:09:53Z</time>
      </trkpt>
      <trkpt lat="44.08921" lon="3.0214">
        <ele>512.1</ele>
        <time>2018-05-19T12:09:59Z</time>
      </trkpt>
      <trkpt lat="44.08916" lon="3.02142">
        <ele>510.2</ele>
        <time>2018-05-19T12:12:13Z</time>
      </trkpt>
      <trkpt lat="44.08918" lon="3.02145">
        <ele>509.5</ele>
        <time>2018-05-19T12:12:16Z</time>
      </trkpt>
      <trkpt lat="44.0892" lon="3.02151">
        <ele>508.5</ele>
        <time>2018-05-19T12:12:18Z</time>
      </trkpt>
      <trkpt lat="44.08922" lon="3.02155">
        <ele>507.8</ele>
        <time>2018-05-19T12:12:19Z</time>
      </trkpt>
      <trkpt lat="44.08925" lon="3.02163">
        <ele>506.9</ele>
        <time>2018-05-19T12:12:20Z</time>
      </trkpt>
      <trkpt lat="44.08927" lon="3.0217">
        <ele>505.9</ele>
        <time>2018-05-19T12:12:21Z</time>
      </trkpt>
      <trkpt lat="44.0893" lon="3.02177">
        <ele>504.7</ele>
        <time>2018-05-19T12:12:22Z</time>
      </trkpt>
      <trkpt lat="44.08933" lon="3.02185">
        <ele>504</ele>
        <time>2018-05-19T12:12:23Z</time>
      </trkpt>
      <trkpt lat="44.08936" lon="3.02193">
        <ele>504</ele>
        <time>2018-05-19T12:12:24Z</time>
      </trkpt>
      <trkpt lat="44.08939" lon="3.02202">
        <ele>504</ele>
        <time>2018-05-19T12:12:25Z</time>
      </trkpt>
      <trkpt lat="44.08943" lon="3.02211">
        <ele>504</ele>
        <time>2018-05-19T12:12:26Z</time>
      </trkpt>
      <trkpt lat="44.08946" lon="3.02218">
        <ele>504</ele>
        <time>2018-05-19T12:12:27Z</time>
      </trkpt>
      <trkpt lat="44.08949" lon="3.02223">
        <ele>504</ele>
        <time>2018-05-19T12:12:28Z</time>
      </trkpt>
      <trkpt lat="44.08952" lon="3.02227">
        <ele>504</ele>
        <time>2018-05-19T12:12:29Z</time>
      </trkpt>
      <trkpt lat="44.08955" lon="3.0223">
        <ele>504</ele>
        <time>2018-05-19T12:12:30Z</time>
      </trkpt>
      <trkpt lat="44.08958" lon="3.02234">
        <ele>504</ele>
        <time>2018-05-19T12:12:32Z</time>
      </trkpt>
      <trkpt lat="44.0896" lon="3.02239">
        <ele>504</ele>
        <time>2018-05-19T12:12:35Z</time>
      </trkpt>
      <trkpt lat="44.0896" lon="3.02245">
        <ele>504</ele>
        <time>2018-05-19T12:12:37Z</time>
      </trkpt>
      <trkpt lat="44.08962" lon="3.0225">
        <ele>503.4</ele>
        <time>2018-05-19T12:12:38Z</time>
      </trkpt>
      <trkpt lat="44.08964" lon="3.02258">
        <ele>503.5</ele>
        <time>2018-05-19T12:12:39Z</time>
      </trkpt>
      <trkpt lat="44.08966" lon="3.02266">
        <ele>504.1</ele>
        <time>2018-05-19T12:12:40Z</time>
      </trkpt>
      <trkpt lat="44.08968" lon="3.02274">
        <ele>503.9</ele>
        <time>2018-05-19T12:12:41Z</time>
      </trkpt>
      <trkpt lat="44.0897" lon="3.02281">
        <ele>505.9</ele>
        <time>2018-05-19T12:12:42Z</time>
      </trkpt>
      <trkpt lat="44.08973" lon="3.02288">
        <ele>507.7</ele>
        <time>2018-05-19T12:12:43Z</time>
      </trkpt>
      <trkpt lat="44.08976" lon="3.02292">
        <ele>508.9</ele>
        <time>2018-05-19T12:12:44Z</time>
      </trkpt>
      <trkpt lat="44.08979" lon="3.02295">
        <ele>509.2</ele>
        <time>2018-05-19T12:12:45Z</time>
      </trkpt>
      <trkpt lat="44.08982" lon="3.02299">
        <ele>509.5</ele>
        <time>2018-05-19T12:12:47Z</time>
      </trkpt>
      <trkpt lat="44.08984" lon="3.02304">
        <ele>509.5</ele>
        <time>2018-05-19T12:12:49Z</time>
      </trkpt>
      <trkpt lat="44.08986" lon="3.02309">
        <ele>509.6</ele>
        <time>2018-05-19T12:12:50Z</time>
      </trkpt>
      <trkpt lat="44.08987" lon="3.02314">
        <ele>508.8</ele>
        <time>2018-05-19T12:12:51Z</time>
      </trkpt>
      <trkpt lat="44.08989" lon="3.0232">
        <ele>508</ele>
        <time>2018-05-19T12:12:52Z</time>
      </trkpt>
      <trkpt lat="44.0899" lon="3.02326">
        <ele>506.6</ele>
        <time>2018-05-19T12:12:53Z</time>
      </trkpt>
      <trkpt lat="44.08992" lon="3.0233">
        <ele>505.4</ele>
        <time>2018-05-19T12:12:54Z</time>
      </trkpt>
      <trkpt lat="44.08993" lon="3.02334">
        <ele>505</ele>
        <time>2018-05-19T12:12:55Z</time>
      </trkpt>
      <trkpt lat="44.08995" lon="3.02339">
        <ele>504.9</ele>
        <time>2018-05-19T12:12:56Z</time>
      </trkpt>
      <trkpt lat="44.08996" lon="3.02344">
        <ele>504.7</ele>
        <time>2018-05-19T12:12:57Z</time>
      </trkpt>
      <trkpt lat="44.08997" lon="3.02348">
        <ele>504</ele>
        <time>2018-05-19T12:12:58Z</time>
      </trkpt>
      <trkpt lat="44.08999" lon="3.02351">
        <ele>503.4</ele>
        <time>2018-05-19T12:12:59Z</time>
      </trkpt>
      <trkpt lat="44.09004" lon="3.02354">
        <ele>503</ele>
        <time>2018-05-19T12:13:00Z</time>
      </trkpt>
      <trkpt lat="44.09008" lon="3.02359">
        <ele>502.2</ele>
        <time>2018-05-19T12:13:01Z</time>
      </trkpt>
      <trkpt lat="44.09011" lon="3.02364">
        <ele>500.5</ele>
        <time>2018-05-19T12:13:02Z</time>
      </trkpt>
      <trkpt lat="44.09015" lon="3.02371">
        <ele>499.1</ele>
        <time>2018-05-19T12:13:03Z</time>
      </trkpt>
      <trkpt lat="44.09018" lon="3.02376">
        <ele>497.7</ele>
        <time>2018-05-19T12:13:04Z</time>
      </trkpt>
      <trkpt lat="44.09022" lon="3.02382">
        <ele>496.3</ele>
        <time>2018-05-19T12:13:05Z</time>
      </trkpt>
      <trkpt lat="44.09025" lon="3.02385">
        <ele>496.3</ele>
        <time>2018-05-19T12:13:06Z</time>
      </trkpt>
      <trkpt lat="44.09028" lon="3.02388">
        <ele>496.2</ele>
        <time>2018-05-19T12:13:07Z</time>
      </trkpt>
      <trkpt lat="44.09032" lon="3.02391">
        <ele>496.5</ele>
        <time>2018-05-19T12:13:09Z</time>
      </trkpt>
      <trkpt lat="44.09035" lon="3.02391">
        <ele>496.7</ele>
        <time>2018-05-19T12:13:11Z</time>
      </trkpt>
      <trkpt lat="44.09039" lon="3.02393">
        <ele>496.9</ele>
        <time>2018-05-19T12:13:14Z</time>
      </trkpt>
      <trkpt lat="44.09041" lon="3.02396">
        <ele>496.9</ele>
        <time>2018-05-19T12:13:16Z</time>
      </trkpt>
      <trkpt lat="44.09044" lon="3.02398">
        <ele>496.9</ele>
        <time>2018-05-19T12:13:18Z</time>
      </trkpt>
      <trkpt lat="44.09048" lon="3.024">
        <ele>497.5</ele>
        <time>2018-05-19T12:13:20Z</time>
      </trkpt>
      <trkpt lat="44.09051" lon="3.024">
        <ele>498.3</ele>
        <time>2018-05-19T12:13:22Z</time>
      </trkpt>
      <trkpt lat="44.09055" lon="3.02401">
        <ele>499.2</ele>
        <time>2018-05-19T12:13:25Z</time>
      </trkpt>
      <trkpt lat="44.09058" lon="3.02401">
        <ele>499</ele>
        <time>2018-05-19T12:13:27Z</time>
      </trkpt>
      <trkpt lat="44.09061" lon="3.02401">
        <ele>498.7</ele>
        <time>2018-05-19T12:13:29Z</time>
      </trkpt>
      <trkpt lat="44.09065" lon="3.02402">
        <ele>498.5</ele>
        <time>2018-05-19T12:13:32Z</time>
      </trkpt>
      <trkpt lat="44.09068" lon="3.02404">
        <ele>498.3</ele>
        <time>2018-05-19T12:13:34Z</time>
      </trkpt>
      <trkpt lat="44.09072" lon="3.02406">
        <ele>498.1</ele>
        <time>2018-05-19T12:13:37Z</time>
      </trkpt>
      <trkpt lat="44.09075" lon="3.02406">
        <ele>498</ele>
        <time>2018-05-19T12:13:39Z</time>
      </trkpt>
      <trkpt lat="44.09078" lon="3.02406">
        <ele>497.8</ele>
        <time>2018-05-19T12:13:41Z</time>
      </trkpt>
      <trkpt lat="44.09082" lon="3.02407">
        <ele>498.1</ele>
        <time>2018-05-19T12:13:43Z</time>
      </trkpt>
      <trkpt lat="44.09084" lon="3.02407">
        <ele>498.5</ele>
        <time>2018-05-19T12:13:45Z</time>
      </trkpt>
      <trkpt lat="44.09087" lon="3.02407">
        <ele>499</ele>
        <time>2018-05-19T12:13:47Z</time>
      </trkpt>
      <trkpt lat="44.09091" lon="3.02407">
        <ele>499.7</ele>
        <time>2018-05-19T12:13:49Z</time>
      </trkpt>
      <trkpt lat="44.09094" lon="3.02408">
        <ele>500.2</ele>
        <time>2018-05-19T12:13:51Z</time>
      </trkpt>
      <trkpt lat="44.09098" lon="3.02412">
        <ele>500.4</ele>
        <time>2018-05-19T12:13:53Z</time>
      </trkpt>
      <trkpt lat="44.09101" lon="3.02414">
        <ele>500.2</ele>
        <time>2018-05-19T12:13:54Z</time>
      </trkpt>
      <trkpt lat="44.09105" lon="3.02417">
        <ele>499.4</ele>
        <time>2018-05-19T12:13:55Z</time>
      </trkpt>
      <trkpt lat="44.09108" lon="3.0242">
        <ele>498.3</ele>
        <time>2018-05-19T12:13:56Z</time>
      </trkpt>
      <trkpt lat="44.09112" lon="3.02422">
        <ele>497.4</ele>
        <time>2018-05-19T12:13:58Z</time>
      </trkpt>
      <trkpt lat="44.09115" lon="3.02424">
        <ele>497.6</ele>
        <time>2018-05-19T12:14:00Z</time>
      </trkpt>
      <trkpt lat="44.09118" lon="3.02426">
        <ele>497.8</ele>
        <time>2018-05-19T12:14:02Z</time>
      </trkpt>
      <trkpt lat="44.09122" lon="3.0243">
        <ele>497.9</ele>
        <time>2018-05-19T12:14:04Z</time>
      </trkpt>
      <trkpt lat="44.09127" lon="3.02433">
        <ele>497.9</ele>
        <time>2018-05-19T12:14:06Z</time>
      </trkpt>
      <trkpt lat="44.09131" lon="3.02436">
        <ele>498.6</ele>
        <time>2018-05-19T12:14:08Z</time>
      </trkpt>
      <trkpt lat="44.09135" lon="3.0244">
        <ele>499.1</ele>
        <time>2018-05-19T12:14:10Z</time>
      </trkpt>
      <trkpt lat="44.09138" lon="3.02442">
        <ele>498.8</ele>
        <time>2018-05-19T12:14:11Z</time>
      </trkpt>
      <trkpt lat="44.0914" lon="3.02444">
        <ele>498.6</ele>
        <time>2018-05-19T12:14:12Z</time>
      </trkpt>
      <trkpt lat="44.09143" lon="3.02446">
        <ele>498.6</ele>
        <time>2018-05-19T12:14:13Z</time>
      </trkpt>
      <trkpt lat="44.09145" lon="3.02448">
        <ele>499.2</ele>
        <time>2018-05-19T12:14:14Z</time>
      </trkpt>
      <trkpt lat="44.09148" lon="3.02449">
        <ele>499.8</ele>
        <time>2018-05-19T12:14:15Z</time>
      </trkpt>
      <trkpt lat="44.09151" lon="3.0245">
        <ele>500.4</ele>
        <time>2018-05-19T12:14:16Z</time>
      </trkpt>
      <trkpt lat="44.09156" lon="3.0245">
        <ele>501.9</ele>
        <time>2018-05-19T12:14:18Z</time>
      </trkpt>
      <trkpt lat="44.0916" lon="3.02449">
        <ele>503.5</ele>
        <time>2018-05-19T12:14:20Z</time>
      </trkpt>
      <trkpt lat="44.09163" lon="3.0245">
        <ele>505.4</ele>
        <time>2018-05-19T12:14:23Z</time>
      </trkpt>
      <trkpt lat="44.09167" lon="3.02452">
        <ele>506.9</ele>
        <time>2018-05-19T12:14:25Z</time>
      </trkpt>
      <trkpt lat="44.09171" lon="3.02454">
        <ele>508.2</ele>
        <time>2018-05-19T12:14:28Z</time>
      </trkpt>
      <trkpt lat="44.09173" lon="3.02458">
        <ele>508.9</ele>
        <time>2018-05-19T12:14:30Z</time>
      </trkpt>
      <trkpt lat="44.09177" lon="3.02461">
        <ele>509.4</ele>
        <time>2018-05-19T12:14:32Z</time>
      </trkpt>
      <trkpt lat="44.09179" lon="3.02463">
        <ele>508.7</ele>
        <time>2018-05-19T12:14:34Z</time>
      </trkpt>
      <trkpt lat="44.09182" lon="3.02467">
        <ele>507.8</ele>
        <time>2018-05-19T12:14:36Z</time>
      </trkpt>
      <trkpt lat="44.09185" lon="3.02472">
        <ele>508.3</ele>
        <time>2018-05-19T12:14:38Z</time>
      </trkpt>
      <trkpt lat="44.09187" lon="3.02477">
        <ele>508.4</ele>
        <time>2018-05-19T12:14:40Z</time>
      </trkpt>
      <trkpt lat="44.09189" lon="3.02481">
        <ele>507.8</ele>
        <time>2018-05-19T12:14:42Z</time>
      </trkpt>
      <trkpt lat="44.09192" lon="3.02484">
        <ele>507.4</ele>
        <time>2018-05-19T12:14:44Z</time>
      </trkpt>
      <trkpt lat="44.09195" lon="3.02487">
        <ele>507.6</ele>
        <time>2018-05-19T12:14:47Z</time>
      </trkpt>
      <trkpt lat="44.09198" lon="3.0249">
        <ele>507.6</ele>
        <time>2018-05-19T12:14:52Z</time>
      </trkpt>
      <trkpt lat="44.092" lon="3.02492">
        <ele>507.3</ele>
        <time>2018-05-19T12:15:12Z</time>
      </trkpt>
      <trkpt lat="44.09203" lon="3.02495">
        <ele>507</ele>
        <time>2018-05-19T12:15:16Z</time>
      </trkpt>
      <trkpt lat="44.09205" lon="3.02498">
        <ele>507.4</ele>
        <time>2018-05-19T12:15:23Z</time>
      </trkpt>
      <trkpt lat="44.09208" lon="3.025">
        <ele>508</ele>
        <time>2018-05-19T12:15:26Z</time>
      </trkpt>
      <trkpt lat="44.09212" lon="3.02499">
        <ele>508.5</ele>
        <time>2018-05-19T12:15:29Z</time>
      </trkpt>
      <trkpt lat="44.09215" lon="3.025">
        <ele>509.1</ele>
        <time>2018-05-19T12:15:32Z</time>
      </trkpt>
      <trkpt lat="44.09218" lon="3.02502">
        <ele>509.6</ele>
        <time>2018-05-19T12:15:37Z</time>
      </trkpt>
      <trkpt lat="44.09221" lon="3.02504">
        <ele>510</ele>
        <time>2018-05-19T12:15:40Z</time>
      </trkpt>
      <trkpt lat="44.09223" lon="3.02506">
        <ele>510.6</ele>
        <time>2018-05-19T12:15:45Z</time>
      </trkpt>
      <trkpt lat="44.09225" lon="3.02508">
        <ele>511.4</ele>
        <time>2018-05-19T12:15:50Z</time>
      </trkpt>
      <trkpt lat="44.09228" lon="3.0251">
        <ele>512.3</ele>
        <time>2018-05-19T12:15:56Z</time>
      </trkpt>
      <trkpt lat="44.09231" lon="3.02509">
        <ele>513</ele>
        <time>2018-05-19T12:16:01Z</time>
      </trkpt>
      <trkpt lat="44.09235" lon="3.02509">
        <ele>513.9</ele>
        <time>2018-05-19T12:16:05Z</time>
      </trkpt>
      <trkpt lat="44.09238" lon="3.02509">
        <ele>514.8</ele>
        <time>2018-05-19T12:16:10Z</time>
      </trkpt>
      <trkpt lat="44.09241" lon="3.02509">
        <ele>515.6</ele>
        <time>2018-05-19T12:16:14Z</time>
      </trkpt>
      <trkpt lat="44.09244" lon="3.02507">
        <ele>516.4</ele>
        <time>2018-05-19T12:16:17Z</time>
      </trkpt>
      <trkpt lat="44.09247" lon="3.02506">
        <ele>516.9</ele>
        <time>2018-05-19T12:16:19Z</time>
      </trkpt>
      <trkpt lat="44.0925" lon="3.02506">
        <ele>517.5</ele>
        <time>2018-05-19T12:16:23Z</time>
      </trkpt>
      <trkpt lat="44.09252" lon="3.02508">
        <ele>518</ele>
        <time>2018-05-19T12:16:28Z</time>
      </trkpt>
      <trkpt lat="44.09255" lon="3.02509">
        <ele>518.5</ele>
        <time>2018-05-19T12:16:32Z</time>
      </trkpt>
      <trkpt lat="44.09258" lon="3.0251">
        <ele>518.8</ele>
        <time>2018-05-19T12:16:37Z</time>
      </trkpt>
      <trkpt lat="44.09261" lon="3.0251">
        <ele>519.2</ele>
        <time>2018-05-19T12:16:40Z</time>
      </trkpt>
      <trkpt lat="44.09265" lon="3.02511">
        <ele>519.4</ele>
        <time>2018-05-19T12:16:43Z</time>
      </trkpt>
      <trkpt lat="44.09269" lon="3.02511">
        <ele>519.5</ele>
        <time>2018-05-19T12:16:48Z</time>
      </trkpt>
      <trkpt lat="44.09271" lon="3.02513">
        <ele>519.6</ele>
        <time>2018-05-19T12:16:51Z</time>
      </trkpt>
      <trkpt lat="44.09274" lon="3.02515">
        <ele>520.1</ele>
        <time>2018-05-19T12:16:56Z</time>
      </trkpt>
      <trkpt lat="44.09277" lon="3.02516">
        <ele>520.5</ele>
        <time>2018-05-19T12:17:04Z</time>
      </trkpt>
      <trkpt lat="44.0928" lon="3.02518">
        <ele>520.7</ele>
        <time>2018-05-19T12:17:08Z</time>
      </trkpt>
      <trkpt lat="44.09282" lon="3.02521">
        <ele>520.8</ele>
        <time>2018-05-19T12:17:13Z</time>
      </trkpt>
      <trkpt lat="44.09285" lon="3.02523">
        <ele>520.8</ele>
        <time>2018-05-19T12:17:18Z</time>
      </trkpt>
      <trkpt lat="44.09286" lon="3.02527">
        <ele>520.6</ele>
        <time>2018-05-19T12:17:25Z</time>
      </trkpt>
      <trkpt lat="44.09289" lon="3.02529">
        <ele>520.4</ele>
        <time>2018-05-19T12:19:14Z</time>
      </trkpt>
      <trkpt lat="44.09287" lon="3.02527">
        <ele>520.1</ele>
        <time>2018-05-19T12:19:24Z</time>
      </trkpt>
      <trkpt lat="44.09284" lon="3.02526">
        <ele>519.8</ele>
        <time>2018-05-19T12:19:34Z</time>
      </trkpt>
      <trkpt lat="44.09287" lon="3.02521">
        <ele>519.1</ele>
        <time>2018-05-19T12:22:03Z</time>
      </trkpt>
      <trkpt lat="44.09288" lon="3.02517">
        <ele>518.5</ele>
        <time>2018-05-19T12:22:12Z</time>
      </trkpt>
      <trkpt lat="44.09289" lon="3.02522">
        <ele>517.8</ele>
        <time>2018-05-19T12:22:26Z</time>
      </trkpt>
      <trkpt lat="44.0929" lon="3.02526">
        <ele>517.2</ele>
        <time>2018-05-19T12:22:27Z</time>
      </trkpt>
      <trkpt lat="44.09291" lon="3.02532">
        <ele>516.5</ele>
        <time>2018-05-19T12:22:28Z</time>
      </trkpt>
      <trkpt lat="44.09292" lon="3.02543">
        <ele>516.4</ele>
        <time>2018-05-19T12:22:29Z</time>
      </trkpt>
      <trkpt lat="44.09294" lon="3.0255">
        <ele>516.2</ele>
        <time>2018-05-19T12:22:30Z</time>
      </trkpt>
      <trkpt lat="44.09296" lon="3.02559">
        <ele>516</ele>
        <time>2018-05-19T12:22:31Z</time>
      </trkpt>
      <trkpt lat="44.093" lon="3.02564">
        <ele>516</ele>
        <time>2018-05-19T12:22:32Z</time>
      </trkpt>
      <trkpt lat="44.09302" lon="3.02568">
        <ele>516.2</ele>
        <time>2018-05-19T12:22:33Z</time>
      </trkpt>
      <trkpt lat="44.09305" lon="3.02571">
        <ele>516.3</ele>
        <time>2018-05-19T12:22:34Z</time>
      </trkpt>
      <trkpt lat="44.09308" lon="3.02573">
        <ele>516.3</ele>
        <time>2018-05-19T12:22:35Z</time>
      </trkpt>
      <trkpt lat="44.09312" lon="3.02573">
        <ele>516.2</ele>
        <time>2018-05-19T12:22:36Z</time>
      </trkpt>
      <trkpt lat="44.09316" lon="3.02573">
        <ele>516.1</ele>
        <time>2018-05-19T12:22:37Z</time>
      </trkpt>
      <trkpt lat="44.09319" lon="3.02574">
        <ele>516</ele>
        <time>2018-05-19T12:22:38Z</time>
      </trkpt>
      <trkpt lat="44.09324" lon="3.02574">
        <ele>516.2</ele>
        <time>2018-05-19T12:22:39Z</time>
      </trkpt>
      <trkpt lat="44.09331" lon="3.02579">
        <ele>516.3</ele>
        <time>2018-05-19T12:22:40Z</time>
      </trkpt>
      <trkpt lat="44.09338" lon="3.02582">
        <ele>516.4</ele>
        <time>2018-05-19T12:22:41Z</time>
      </trkpt>
      <trkpt lat="44.09342" lon="3.02583">
        <ele>516.5</ele>
        <time>2018-05-19T12:22:42Z</time>
      </trkpt>
      <trkpt lat="44.09349" lon="3.02583">
        <ele>516.8</ele>
        <time>2018-05-19T12:22:43Z</time>
      </trkpt>
      <trkpt lat="44.09353" lon="3.02583">
        <ele>516.5</ele>
        <time>2018-05-19T12:22:44Z</time>
      </trkpt>
      <trkpt lat="44.09356" lon="3.02584">
        <ele>516.4</ele>
        <time>2018-05-19T12:22:45Z</time>
      </trkpt>
      <trkpt lat="44.0936" lon="3.02584">
        <ele>516.2</ele>
        <time>2018-05-19T12:22:46Z</time>
      </trkpt>
      <trkpt lat="44.09364" lon="3.02588">
        <ele>515.9</ele>
        <time>2018-05-19T12:22:48Z</time>
      </trkpt>
      <trkpt lat="44.09366" lon="3.0259">
        <ele>515.8</ele>
        <time>2018-05-19T12:22:50Z</time>
      </trkpt>
      <trkpt lat="44.09364" lon="3.02594">
        <ele>515.6</ele>
        <time>2018-05-19T12:22:51Z</time>
      </trkpt>
      <trkpt lat="44.09363" lon="3.026">
        <ele>515.4</ele>
        <time>2018-05-19T12:22:52Z</time>
      </trkpt>
      <trkpt lat="44.09361" lon="3.02604">
        <ele>515.1</ele>
        <time>2018-05-19T12:22:53Z</time>
      </trkpt>
      <trkpt lat="44.09361" lon="3.02609">
        <ele>514.9</ele>
        <time>2018-05-19T12:22:54Z</time>
      </trkpt>
      <trkpt lat="44.09359" lon="3.02617">
        <ele>514.5</ele>
        <time>2018-05-19T12:22:55Z</time>
      </trkpt>
      <trkpt lat="44.09356" lon="3.02621">
        <ele>514.1</ele>
        <time>2018-05-19T12:22:56Z</time>
      </trkpt>
      <trkpt lat="44.09353" lon="3.02627">
        <ele>513.6</ele>
        <time>2018-05-19T12:22:57Z</time>
      </trkpt>
      <trkpt lat="44.09349" lon="3.02635">
        <ele>513.1</ele>
        <time>2018-05-19T12:22:58Z</time>
      </trkpt>
      <trkpt lat="44.09347" lon="3.02641">
        <ele>512.8</ele>
        <time>2018-05-19T12:22:59Z</time>
      </trkpt>
      <trkpt lat="44.09343" lon="3.02647">
        <ele>512.6</ele>
        <time>2018-05-19T12:23:00Z</time>
      </trkpt>
      <trkpt lat="44.0934" lon="3.02651">
        <ele>512.4</ele>
        <time>2018-05-19T12:23:01Z</time>
      </trkpt>
      <trkpt lat="44.09339" lon="3.02656">
        <ele>512.3</ele>
        <time>2018-05-19T12:23:02Z</time>
      </trkpt>
      <trkpt lat="44.09339" lon="3.02662">
        <ele>512.2</ele>
        <time>2018-05-19T12:23:03Z</time>
      </trkpt>
      <trkpt lat="44.09337" lon="3.02668">
        <ele>512.2</ele>
        <time>2018-05-19T12:23:04Z</time>
      </trkpt>
      <trkpt lat="44.09337" lon="3.02673">
        <ele>512.2</ele>
        <time>2018-05-19T12:23:05Z</time>
      </trkpt>
      <trkpt lat="44.09337" lon="3.0268">
        <ele>512.2</ele>
        <time>2018-05-19T12:23:06Z</time>
      </trkpt>
      <trkpt lat="44.09338" lon="3.02686">
        <ele>512.1</ele>
        <time>2018-05-19T12:23:07Z</time>
      </trkpt>
      <trkpt lat="44.09338" lon="3.02693">
        <ele>511.9</ele>
        <time>2018-05-19T12:23:08Z</time>
      </trkpt>
      <trkpt lat="44.09339" lon="3.02698">
        <ele>511.9</ele>
        <time>2018-05-19T12:23:09Z</time>
      </trkpt>
      <trkpt lat="44.0934" lon="3.02704">
        <ele>511.9</ele>
        <time>2018-05-19T12:23:10Z</time>
      </trkpt>
      <trkpt lat="44.09342" lon="3.02707">
        <ele>511.7</ele>
        <time>2018-05-19T12:23:11Z</time>
      </trkpt>
      <trkpt lat="44.09343" lon="3.02713">
        <ele>511.4</ele>
        <time>2018-05-19T12:23:12Z</time>
      </trkpt>
      <trkpt lat="44.09345" lon="3.02719">
        <ele>511</ele>
        <time>2018-05-19T12:23:13Z</time>
      </trkpt>
      <trkpt lat="44.09346" lon="3.02724">
        <ele>510.6</ele>
        <time>2018-05-19T12:23:14Z</time>
      </trkpt>
      <trkpt lat="44.09347" lon="3.02729">
        <ele>510.2</ele>
        <time>2018-05-19T12:23:15Z</time>
      </trkpt>
      <trkpt lat="44.09349" lon="3.02734">
        <ele>509.8</ele>
        <time>2018-05-19T12:23:16Z</time>
      </trkpt>
      <trkpt lat="44.0935" lon="3.0274">
        <ele>509.2</ele>
        <time>2018-05-19T12:23:17Z</time>
      </trkpt>
      <trkpt lat="44.09352" lon="3.02746">
        <ele>508.6</ele>
        <time>2018-05-19T12:23:18Z</time>
      </trkpt>
      <trkpt lat="44.09353" lon="3.02751">
        <ele>507.9</ele>
        <time>2018-05-19T12:23:19Z</time>
      </trkpt>
      <trkpt lat="44.09354" lon="3.02756">
        <ele>507.2</ele>
        <time>2018-05-19T12:23:20Z</time>
      </trkpt>
      <trkpt lat="44.09355" lon="3.02762">
        <ele>507.7</ele>
        <time>2018-05-19T12:23:21Z</time>
      </trkpt>
      <trkpt lat="44.09356" lon="3.02768">
        <ele>508.5</ele>
        <time>2018-05-19T12:23:22Z</time>
      </trkpt>
      <trkpt lat="44.09357" lon="3.02773">
        <ele>509.2</ele>
        <time>2018-05-19T12:23:23Z</time>
      </trkpt>
      <trkpt lat="44.09358" lon="3.02776">
        <ele>509.7</ele>
        <time>2018-05-19T12:23:24Z</time>
      </trkpt>
      <trkpt lat="44.09361" lon="3.02778">
        <ele>510.2</ele>
        <time>2018-05-19T12:23:25Z</time>
      </trkpt>
      <trkpt lat="44.09364" lon="3.02779">
        <ele>510.6</ele>
        <time>2018-05-19T12:23:26Z</time>
      </trkpt>
      <trkpt lat="44.09367" lon="3.02779">
        <ele>511</ele>
        <time>2018-05-19T12:23:27Z</time>
      </trkpt>
      <trkpt lat="44.0937" lon="3.0278">
        <ele>511.5</ele>
        <time>2018-05-19T12:23:28Z</time>
      </trkpt>
      <trkpt lat="44.09373" lon="3.0278">
        <ele>512</ele>
        <time>2018-05-19T12:23:29Z</time>
      </trkpt>
      <trkpt lat="44.09376" lon="3.02781">
        <ele>512.5</ele>
        <time>2018-05-19T12:23:30Z</time>
      </trkpt>
      <trkpt lat="44.09379" lon="3.02782">
        <ele>512.9</ele>
        <time>2018-05-19T12:23:31Z</time>
      </trkpt>
      <trkpt lat="44.09382" lon="3.02783">
        <ele>513.2</ele>
        <time>2018-05-19T12:23:32Z</time>
      </trkpt>
      <trkpt lat="44.09385" lon="3.02784">
        <ele>513.5</ele>
        <time>2018-05-19T12:23:33Z</time>
      </trkpt>
      <trkpt lat="44.09388" lon="3.02785">
        <ele>513.8</ele>
        <time>2018-05-19T12:23:34Z</time>
      </trkpt>
      <trkpt lat="44.09391" lon="3.02787">
        <ele>514.1</ele>
        <time>2018-05-19T12:23:35Z</time>
      </trkpt>
      <trkpt lat="44.09394" lon="3.02788">
        <ele>514.4</ele>
        <time>2018-05-19T12:23:36Z</time>
      </trkpt>
      <trkpt lat="44.09397" lon="3.0279">
        <ele>514.6</ele>
        <time>2018-05-19T12:23:37Z</time>
      </trkpt>
      <trkpt lat="44.094" lon="3.02791">
        <ele>514.8</ele>
        <time>2018-05-19T12:23:38Z</time>
      </trkpt>
      <trkpt lat="44.09404" lon="3.02793">
        <ele>515</ele>
        <time>2018-05-19T12:23:39Z</time>
      </trkpt>
      <trkpt lat="44.09407" lon="3.02795">
        <ele>515.3</ele>
        <time>2018-05-19T12:23:40Z</time>
      </trkpt>
      <trkpt lat="44.0941" lon="3.02796">
        <ele>515.4</ele>
        <time>2018-05-19T12:23:41Z</time>
      </trkpt>
      <trkpt lat="44.09414" lon="3.02798">
        <ele>515.5</ele>
        <time>2018-05-19T12:23:42Z</time>
      </trkpt>
      <trkpt lat="44.09417" lon="3.028">
        <ele>515.3</ele>
        <time>2018-05-19T12:23:43Z</time>
      </trkpt>
      <trkpt lat="44.0942" lon="3.02802">
        <ele>515.1</ele>
        <time>2018-05-19T12:23:44Z</time>
      </trkpt>
      <trkpt lat="44.09424" lon="3.02805">
        <ele>515</ele>
        <time>2018-05-19T12:23:45Z</time>
      </trkpt>
      <trkpt lat="44.09428" lon="3.02807">
        <ele>515</ele>
        <time>2018-05-19T12:23:46Z</time>
      </trkpt>
      <trkpt lat="44.09431" lon="3.02811">
        <ele>514.8</ele>
        <time>2018-05-19T12:23:47Z</time>
      </trkpt>
      <trkpt lat="44.09435" lon="3.02816">
        <ele>514.4</ele>
        <time>2018-05-19T12:23:48Z</time>
      </trkpt>
      <trkpt lat="44.09439" lon="3.0282">
        <ele>514.3</ele>
        <time>2018-05-19T12:23:49Z</time>
      </trkpt>
      <trkpt lat="44.09442" lon="3.02825">
        <ele>514.1</ele>
        <time>2018-05-19T12:23:50Z</time>
      </trkpt>
      <trkpt lat="44.09445" lon="3.02829">
        <ele>513.7</ele>
        <time>2018-05-19T12:23:51Z</time>
      </trkpt>
      <trkpt lat="44.09447" lon="3.02833">
        <ele>513.3</ele>
        <time>2018-05-19T12:23:52Z</time>
      </trkpt>
      <trkpt lat="44.09449" lon="3.02838">
        <ele>513</ele>
        <time>2018-05-19T12:23:53Z</time>
      </trkpt>
      <trkpt lat="44.09452" lon="3.02842">
        <ele>512.8</ele>
        <time>2018-05-19T12:23:54Z</time>
      </trkpt>
      <trkpt lat="44.09454" lon="3.02846">
        <ele>512.4</ele>
        <time>2018-05-19T12:23:55Z</time>
      </trkpt>
      <trkpt lat="44.09456" lon="3.0285">
        <ele>511.8</ele>
        <time>2018-05-19T12:23:56Z</time>
      </trkpt>
      <trkpt lat="44.09459" lon="3.02854">
        <ele>511.3</ele>
        <time>2018-05-19T12:23:57Z</time>
      </trkpt>
      <trkpt lat="44.09461" lon="3.02859">
        <ele>510.8</ele>
        <time>2018-05-19T12:23:58Z</time>
      </trkpt>
      <trkpt lat="44.09464" lon="3.02864">
        <ele>510.3</ele>
        <time>2018-05-19T12:23:59Z</time>
      </trkpt>
      <trkpt lat="44.09466" lon="3.02868">
        <ele>509.7</ele>
        <time>2018-05-19T12:24:00Z</time>
      </trkpt>
      <trkpt lat="44.09468" lon="3.02873">
        <ele>509.2</ele>
        <time>2018-05-19T12:24:01Z</time>
      </trkpt>
      <trkpt lat="44.09471" lon="3.02877">
        <ele>508.9</ele>
        <time>2018-05-19T12:24:02Z</time>
      </trkpt>
      <trkpt lat="44.09473" lon="3.02881">
        <ele>508.6</ele>
        <time>2018-05-19T12:24:03Z</time>
      </trkpt>
      <trkpt lat="44.09478" lon="3.02889">
        <ele>508.3</ele>
        <time>2018-05-19T12:24:05Z</time>
      </trkpt>
      <trkpt lat="44.09481" lon="3.02893">
        <ele>508</ele>
        <time>2018-05-19T12:24:06Z</time>
      </trkpt>
      <trkpt lat="44.09483" lon="3.02896">
        <ele>507.7</ele>
        <time>2018-05-19T12:24:07Z</time>
      </trkpt>
      <trkpt lat="44.09486" lon="3.029">
        <ele>507.3</ele>
        <time>2018-05-19T12:24:08Z</time>
      </trkpt>
      <trkpt lat="44.09489" lon="3.02903">
        <ele>507</ele>
        <time>2018-05-19T12:24:09Z</time>
      </trkpt>
      <trkpt lat="44.09491" lon="3.02907">
        <ele>507</ele>
        <time>2018-05-19T12:24:10Z</time>
      </trkpt>
      <trkpt lat="44.09494" lon="3.0291">
        <ele>507.1</ele>
        <time>2018-05-19T12:24:11Z</time>
      </trkpt>
      <trkpt lat="44.09497" lon="3.02913">
        <ele>506.9</ele>
        <time>2018-05-19T12:24:12Z</time>
      </trkpt>
      <trkpt lat="44.095" lon="3.02917">
        <ele>506.6</ele>
        <time>2018-05-19T12:24:13Z</time>
      </trkpt>
      <trkpt lat="44.09503" lon="3.02921">
        <ele>506.9</ele>
        <time>2018-05-19T12:24:14Z</time>
      </trkpt>
      <trkpt lat="44.09506" lon="3.02923">
        <ele>507.5</ele>
        <time>2018-05-19T12:24:15Z</time>
      </trkpt>
      <trkpt lat="44.09509" lon="3.02926">
        <ele>508.1</ele>
        <time>2018-05-19T12:24:16Z</time>
      </trkpt>
      <trkpt lat="44.09513" lon="3.02927">
        <ele>508.6</ele>
        <time>2018-05-19T12:24:17Z</time>
      </trkpt>
      <trkpt lat="44.09517" lon="3.02927">
        <ele>509</ele>
        <time>2018-05-19T12:24:18Z</time>
      </trkpt>
      <trkpt lat="44.0952" lon="3.02926">
        <ele>509.9</ele>
        <time>2018-05-19T12:24:19Z</time>
      </trkpt>
      <trkpt lat="44.09524" lon="3.02923">
        <ele>511</ele>
        <time>2018-05-19T12:24:21Z</time>
      </trkpt>
      <trkpt lat="44.0953" lon="3.02916">
        <ele>512.1</ele>
        <time>2018-05-19T12:24:23Z</time>
      </trkpt>
      <trkpt lat="44.09535" lon="3.02913">
        <ele>513</ele>
        <time>2018-05-19T12:24:24Z</time>
      </trkpt>
      <trkpt lat="44.09539" lon="3.02909">
        <ele>514</ele>
        <time>2018-05-19T12:24:25Z</time>
      </trkpt>
      <trkpt lat="44.09545" lon="3.02903">
        <ele>515.3</ele>
        <time>2018-05-19T12:24:26Z</time>
      </trkpt>
      <trkpt lat="44.09552" lon="3.02896">
        <ele>516.3</ele>
        <time>2018-05-19T12:24:27Z</time>
      </trkpt>
      <trkpt lat="44.09557" lon="3.02888">
        <ele>517</ele>
        <time>2018-05-19T12:24:28Z</time>
      </trkpt>
      <trkpt lat="44.09563" lon="3.02882">
        <ele>517.6</ele>
        <time>2018-05-19T12:24:29Z</time>
      </trkpt>
      <trkpt lat="44.09569" lon="3.02875">
        <ele>518.2</ele>
        <time>2018-05-19T12:24:30Z</time>
      </trkpt>
      <trkpt lat="44.09576" lon="3.02869">
        <ele>518.9</ele>
        <time>2018-05-19T12:24:31Z</time>
      </trkpt>
      <trkpt lat="44.09584" lon="3.02864">
        <ele>519.8</ele>
        <time>2018-05-19T12:24:32Z</time>
      </trkpt>
      <trkpt lat="44.0959" lon="3.02858">
        <ele>520.6</ele>
        <time>2018-05-19T12:24:33Z</time>
      </trkpt>
      <trkpt lat="44.09594" lon="3.02853">
        <ele>521.1</ele>
        <time>2018-05-19T12:24:34Z</time>
      </trkpt>
      <trkpt lat="44.09598" lon="3.02849">
        <ele>521.4</ele>
        <time>2018-05-19T12:24:35Z</time>
      </trkpt>
      <trkpt lat="44.096" lon="3.02843">
        <ele>521.7</ele>
        <time>2018-05-19T12:24:37Z</time>
      </trkpt>
      <trkpt lat="44.09603" lon="3.02839">
        <ele>522</ele>
        <time>2018-05-19T12:24:38Z</time>
      </trkpt>
      <trkpt lat="44.09605" lon="3.02833">
        <ele>522.5</ele>
        <time>2018-05-19T12:24:40Z</time>
      </trkpt>
      <trkpt lat="44.09608" lon="3.02828">
        <ele>523</ele>
        <time>2018-05-19T12:24:42Z</time>
      </trkpt>
      <trkpt lat="44.09611" lon="3.02823">
        <ele>523.5</ele>
        <time>2018-05-19T12:24:44Z</time>
      </trkpt>
      <trkpt lat="44.09613" lon="3.02818">
        <ele>523.9</ele>
        <time>2018-05-19T12:24:46Z</time>
      </trkpt>
      <trkpt lat="44.09615" lon="3.02813">
        <ele>524.2</ele>
        <time>2018-05-19T12:24:48Z</time>
      </trkpt>
      <trkpt lat="44.09617" lon="3.02807">
        <ele>524.6</ele>
        <time>2018-05-19T12:24:50Z</time>
      </trkpt>
      <trkpt lat="44.09618" lon="3.02802">
        <ele>525.1</ele>
        <time>2018-05-19T12:24:52Z</time>
      </trkpt>
      <trkpt lat="44.0962" lon="3.02797">
        <ele>525.5</ele>
        <time>2018-05-19T12:24:54Z</time>
      </trkpt>
      <trkpt lat="44.09622" lon="3.02793">
        <ele>525.9</ele>
        <time>2018-05-19T12:24:56Z</time>
      </trkpt>
      <trkpt lat="44.09625" lon="3.0279">
        <ele>526.2</ele>
        <time>2018-05-19T12:24:58Z</time>
      </trkpt>
      <trkpt lat="44.09627" lon="3.02787">
        <ele>526.5</ele>
        <time>2018-05-19T12:25:00Z</time>
      </trkpt>
      <trkpt lat="44.09629" lon="3.02785">
        <ele>526.7</ele>
        <time>2018-05-19T12:25:02Z</time>
      </trkpt>
      <trkpt lat="44.09632" lon="3.02783">
        <ele>527.1</ele>
        <time>2018-05-19T12:25:04Z</time>
      </trkpt>
      <trkpt lat="44.09635" lon="3.0278">
        <ele>527.4</ele>
        <time>2018-05-19T12:25:06Z</time>
      </trkpt>
      <trkpt lat="44.09636" lon="3.02777">
        <ele>527.7</ele>
        <time>2018-05-19T12:25:08Z</time>
      </trkpt>
      <trkpt lat="44.09639" lon="3.02773">
        <ele>528.1</ele>
        <time>2018-05-19T12:25:10Z</time>
      </trkpt>
      <trkpt lat="44.09641" lon="3.02771">
        <ele>528.4</ele>
        <time>2018-05-19T12:25:12Z</time>
      </trkpt>
      <trkpt lat="44.09643" lon="3.02766">
        <ele>528.7</ele>
        <time>2018-05-19T12:25:19Z</time>
      </trkpt>
      <trkpt lat="44.09645" lon="3.02763">
        <ele>529</ele>
        <time>2018-05-19T12:25:22Z</time>
      </trkpt>
      <trkpt lat="44.09647" lon="3.02761">
        <ele>529.3</ele>
        <time>2018-05-19T12:25:26Z</time>
      </trkpt>
      <trkpt lat="44.0965" lon="3.02759">
        <ele>529.9</ele>
        <time>2018-05-19T12:25:30Z</time>
      </trkpt>
      <trkpt lat="44.09653" lon="3.02757">
        <ele>530.4</ele>
        <time>2018-05-19T12:25:33Z</time>
      </trkpt>
      <trkpt lat="44.09655" lon="3.02756">
        <ele>530.7</ele>
        <time>2018-05-19T12:25:38Z</time>
      </trkpt>
      <trkpt lat="44.09658" lon="3.02759">
        <ele>531.1</ele>
        <time>2018-05-19T12:25:48Z</time>
      </trkpt>
      <trkpt lat="44.0966" lon="3.02762">
        <ele>531.7</ele>
        <time>2018-05-19T12:25:52Z</time>
      </trkpt>
      <trkpt lat="44.09663" lon="3.02763">
        <ele>532.4</ele>
        <time>2018-05-19T12:25:56Z</time>
      </trkpt>
      <trkpt lat="44.09667" lon="3.02762">
        <ele>532.9</ele>
        <time>2018-05-19T12:25:59Z</time>
      </trkpt>
      <trkpt lat="44.0967" lon="3.02763">
        <ele>533.4</ele>
        <time>2018-05-19T12:26:05Z</time>
      </trkpt>
      <trkpt lat="44.09672" lon="3.02762">
        <ele>533.9</ele>
        <time>2018-05-19T12:26:08Z</time>
      </trkpt>
      <trkpt lat="44.09675" lon="3.02761">
        <ele>534.5</ele>
        <time>2018-05-19T12:26:12Z</time>
      </trkpt>
      <trkpt lat="44.09678" lon="3.02762">
        <ele>535.1</ele>
        <time>2018-05-19T12:26:17Z</time>
      </trkpt>
      <trkpt lat="44.09682" lon="3.02762">
        <ele>535.6</ele>
        <time>2018-05-19T12:26:21Z</time>
      </trkpt>
      <trkpt lat="44.09684" lon="3.0276">
        <ele>535.9</ele>
        <time>2018-05-19T12:26:25Z</time>
      </trkpt>
      <trkpt lat="44.09687" lon="3.02759">
        <ele>536.6</ele>
        <time>2018-05-19T12:26:29Z</time>
      </trkpt>
      <trkpt lat="44.09691" lon="3.02758">
        <ele>537.5</ele>
        <time>2018-05-19T12:26:34Z</time>
      </trkpt>
      <trkpt lat="44.09694" lon="3.02757">
        <ele>538.2</ele>
        <time>2018-05-19T12:26:37Z</time>
      </trkpt>
      <trkpt lat="44.09697" lon="3.02757">
        <ele>538.6</ele>
        <time>2018-05-19T12:26:40Z</time>
      </trkpt>
      <trkpt lat="44.097" lon="3.02758">
        <ele>539.1</ele>
        <time>2018-05-19T12:26:46Z</time>
      </trkpt>
      <trkpt lat="44.09703" lon="3.0276">
        <ele>539.6</ele>
        <time>2018-05-19T12:26:52Z</time>
      </trkpt>
      <trkpt lat="44.09706" lon="3.02759">
        <ele>540.3</ele>
        <time>2018-05-19T12:27:00Z</time>
      </trkpt>
      <trkpt lat="44.09709" lon="3.02759">
        <ele>541</ele>
        <time>2018-05-19T12:27:04Z</time>
      </trkpt>
      <trkpt lat="44.09713" lon="3.02757">
        <ele>542</ele>
        <time>2018-05-19T12:27:07Z</time>
      </trkpt>
      <trkpt lat="44.09716" lon="3.02756">
        <ele>542.9</ele>
        <time>2018-05-19T12:27:11Z</time>
      </trkpt>
      <trkpt lat="44.0972" lon="3.02756">
        <ele>543.8</ele>
        <time>2018-05-19T12:27:14Z</time>
      </trkpt>
      <trkpt lat="44.09722" lon="3.02758">
        <ele>544.4</ele>
        <time>2018-05-19T12:27:22Z</time>
      </trkpt>
      <trkpt lat="44.09725" lon="3.02759">
        <ele>545.1</ele>
        <time>2018-05-19T12:27:29Z</time>
      </trkpt>
      <trkpt lat="44.09728" lon="3.02758">
        <ele>545.4</ele>
        <time>2018-05-19T12:27:34Z</time>
      </trkpt>
      <trkpt lat="44.09731" lon="3.02757">
        <ele>545.6</ele>
        <time>2018-05-19T12:27:37Z</time>
      </trkpt>
      <trkpt lat="44.09734" lon="3.02757">
        <ele>546.3</ele>
        <time>2018-05-19T12:27:40Z</time>
      </trkpt>
      <trkpt lat="44.09737" lon="3.02755">
        <ele>547</ele>
        <time>2018-05-19T12:27:44Z</time>
      </trkpt>
      <trkpt lat="44.0974" lon="3.02754">
        <ele>547.7</ele>
        <time>2018-05-19T12:27:47Z</time>
      </trkpt>
      <trkpt lat="44.09742" lon="3.02752">
        <ele>548.4</ele>
        <time>2018-05-19T12:27:50Z</time>
      </trkpt>
      <trkpt lat="44.09746" lon="3.02751">
        <ele>549.1</ele>
        <time>2018-05-19T12:27:53Z</time>
      </trkpt>
      <trkpt lat="44.09748" lon="3.02749">
        <ele>549.7</ele>
        <time>2018-05-19T12:27:59Z</time>
      </trkpt>
      <trkpt lat="44.09751" lon="3.02751">
        <ele>550.3</ele>
        <time>2018-05-19T12:28:10Z</time>
      </trkpt>
      <trkpt lat="44.09754" lon="3.02751">
        <ele>550.9</ele>
        <time>2018-05-19T12:28:12Z</time>
      </trkpt>
      <trkpt lat="44.09757" lon="3.0275">
        <ele>551.5</ele>
        <time>2018-05-19T12:28:14Z</time>
      </trkpt>
      <trkpt lat="44.09761" lon="3.0275">
        <ele>552.5</ele>
        <time>2018-05-19T12:28:16Z</time>
      </trkpt>
      <trkpt lat="44.09765" lon="3.0275">
        <ele>553.3</ele>
        <time>2018-05-19T12:28:18Z</time>
      </trkpt>
      <trkpt lat="44.09768" lon="3.02751">
        <ele>553.9</ele>
        <time>2018-05-19T12:28:20Z</time>
      </trkpt>
      <trkpt lat="44.09771" lon="3.02752">
        <ele>554.4</ele>
        <time>2018-05-19T12:28:22Z</time>
      </trkpt>
      <trkpt lat="44.09773" lon="3.02755">
        <ele>554.8</ele>
        <time>2018-05-19T12:28:24Z</time>
      </trkpt>
      <trkpt lat="44.09777" lon="3.02757">
        <ele>555.5</ele>
        <time>2018-05-19T12:28:26Z</time>
      </trkpt>
      <trkpt lat="44.09781" lon="3.02758">
        <ele>556.3</ele>
        <time>2018-05-19T12:28:28Z</time>
      </trkpt>
      <trkpt lat="44.09784" lon="3.02759">
        <ele>556.9</ele>
        <time>2018-05-19T12:28:30Z</time>
      </trkpt>
      <trkpt lat="44.09788" lon="3.02759">
        <ele>557.4</ele>
        <time>2018-05-19T12:28:32Z</time>
      </trkpt>
      <trkpt lat="44.09791" lon="3.02758">
        <ele>557.9</ele>
        <time>2018-05-19T12:28:34Z</time>
      </trkpt>
      <trkpt lat="44.09795" lon="3.02758">
        <ele>558.3</ele>
        <time>2018-05-19T12:28:36Z</time>
      </trkpt>
      <trkpt lat="44.09797" lon="3.02757">
        <ele>558.6</ele>
        <time>2018-05-19T12:28:38Z</time>
      </trkpt>
      <trkpt lat="44.09801" lon="3.02757">
        <ele>559.1</ele>
        <time>2018-05-19T12:28:40Z</time>
      </trkpt>
      <trkpt lat="44.09804" lon="3.02757">
        <ele>559.7</ele>
        <time>2018-05-19T12:28:42Z</time>
      </trkpt>
      <trkpt lat="44.09808" lon="3.02756">
        <ele>560.2</ele>
        <time>2018-05-19T12:28:44Z</time>
      </trkpt>
      <trkpt lat="44.0981" lon="3.02756">
        <ele>560.5</ele>
        <time>2018-05-19T12:28:46Z</time>
      </trkpt>
      <trkpt lat="44.09814" lon="3.02754">
        <ele>560.9</ele>
        <time>2018-05-19T12:28:49Z</time>
      </trkpt>
      <trkpt lat="44.09817" lon="3.02754">
        <ele>561.2</ele>
        <time>2018-05-19T12:28:51Z</time>
      </trkpt>
      <trkpt lat="44.09821" lon="3.02753">
        <ele>561.5</ele>
        <time>2018-05-19T12:28:53Z</time>
      </trkpt>
      <trkpt lat="44.09825" lon="3.02752">
        <ele>561.9</ele>
        <time>2018-05-19T12:28:55Z</time>
      </trkpt>
      <trkpt lat="44.09828" lon="3.02751">
        <ele>562.4</ele>
        <time>2018-05-19T12:28:57Z</time>
      </trkpt>
      <trkpt lat="44.09831" lon="3.0275">
        <ele>562.8</ele>
        <time>2018-05-19T12:28:59Z</time>
      </trkpt>
      <trkpt lat="44.09833" lon="3.02749">
        <ele>563</ele>
        <time>2018-05-19T12:29:01Z</time>
      </trkpt>
      <trkpt lat="44.09836" lon="3.02747">
        <ele>563.3</ele>
        <time>2018-05-19T12:29:03Z</time>
      </trkpt>
      <trkpt lat="44.0984" lon="3.02746">
        <ele>563.7</ele>
        <time>2018-05-19T12:29:05Z</time>
      </trkpt>
      <trkpt lat="44.09843" lon="3.02744">
        <ele>564.2</ele>
        <time>2018-05-19T12:29:07Z</time>
      </trkpt>
      <trkpt lat="44.09846" lon="3.02743">
        <ele>564.6</ele>
        <time>2018-05-19T12:29:09Z</time>
      </trkpt>
      <trkpt lat="44.09849" lon="3.02742">
        <ele>564.9</ele>
        <time>2018-05-19T12:29:11Z</time>
      </trkpt>
      <trkpt lat="44.09852" lon="3.02742">
        <ele>565.2</ele>
        <time>2018-05-19T12:29:13Z</time>
      </trkpt>
      <trkpt lat="44.09855" lon="3.02742">
        <ele>565.5</ele>
        <time>2018-05-19T12:29:15Z</time>
      </trkpt>
      <trkpt lat="44.09858" lon="3.02742">
        <ele>565.9</ele>
        <time>2018-05-19T12:29:17Z</time>
      </trkpt>
      <trkpt lat="44.09861" lon="3.02742">
        <ele>566.2</ele>
        <time>2018-05-19T12:29:19Z</time>
      </trkpt>
      <trkpt lat="44.09866" lon="3.02743">
        <ele>566.6</ele>
        <time>2018-05-19T12:29:22Z</time>
      </trkpt>
      <trkpt lat="44.09869" lon="3.02744">
        <ele>567</ele>
        <time>2018-05-19T12:29:24Z</time>
      </trkpt>
      <trkpt lat="44.09873" lon="3.02744">
        <ele>567.4</ele>
        <time>2018-05-19T12:29:26Z</time>
      </trkpt>
      <trkpt lat="44.09877" lon="3.02745">
        <ele>567.7</ele>
        <time>2018-05-19T12:29:28Z</time>
      </trkpt>
      <trkpt lat="44.0988" lon="3.02746">
        <ele>567.9</ele>
        <time>2018-05-19T12:29:30Z</time>
      </trkpt>
      <trkpt lat="44.09883" lon="3.02748">
        <ele>568.2</ele>
        <time>2018-05-19T12:29:32Z</time>
      </trkpt>
      <trkpt lat="44.09886" lon="3.0275">
        <ele>568.4</ele>
        <time>2018-05-19T12:29:34Z</time>
      </trkpt>
      <trkpt lat="44.09889" lon="3.0275">
        <ele>568.7</ele>
        <time>2018-05-19T12:29:36Z</time>
      </trkpt>
      <trkpt lat="44.09892" lon="3.02752">
        <ele>569</ele>
        <time>2018-05-19T12:29:38Z</time>
      </trkpt>
      <trkpt lat="44.09895" lon="3.02753">
        <ele>569.2</ele>
        <time>2018-05-19T12:29:40Z</time>
      </trkpt>
      <trkpt lat="44.09898" lon="3.02754">
        <ele>569.4</ele>
        <time>2018-05-19T12:29:42Z</time>
      </trkpt>
      <trkpt lat="44.09901" lon="3.02756">
        <ele>569.6</ele>
        <time>2018-05-19T12:29:44Z</time>
      </trkpt>
      <trkpt lat="44.09903" lon="3.02758">
        <ele>569.8</ele>
        <time>2018-05-19T12:29:46Z</time>
      </trkpt>
      <trkpt lat="44.09906" lon="3.0276">
        <ele>570</ele>
        <time>2018-05-19T12:29:48Z</time>
      </trkpt>
      <trkpt lat="44.09909" lon="3.02763">
        <ele>570.1</ele>
        <time>2018-05-19T12:29:50Z</time>
      </trkpt>
      <trkpt lat="44.09912" lon="3.02764">
        <ele>570.3</ele>
        <time>2018-05-19T12:29:52Z</time>
      </trkpt>
      <trkpt lat="44.09915" lon="3.02766">
        <ele>570.6</ele>
        <time>2018-05-19T12:29:54Z</time>
      </trkpt>
      <trkpt lat="44.09918" lon="3.02767">
        <ele>570.8</ele>
        <time>2018-05-19T12:29:56Z</time>
      </trkpt>
      <trkpt lat="44.09921" lon="3.02769">
        <ele>571</ele>
        <time>2018-05-19T12:29:58Z</time>
      </trkpt>
      <trkpt lat="44.09924" lon="3.0277">
        <ele>571.1</ele>
        <time>2018-05-19T12:30:00Z</time>
      </trkpt>
      <trkpt lat="44.09927" lon="3.02772">
        <ele>571.2</ele>
        <time>2018-05-19T12:30:02Z</time>
      </trkpt>
      <trkpt lat="44.0993" lon="3.02772">
        <ele>571.3</ele>
        <time>2018-05-19T12:30:05Z</time>
      </trkpt>
      <trkpt lat="44.09933" lon="3.02772">
        <ele>571.3</ele>
        <time>2018-05-19T12:30:09Z</time>
      </trkpt>
      <trkpt lat="44.09936" lon="3.02773">
        <ele>571.4</ele>
        <time>2018-05-19T12:30:24Z</time>
      </trkpt>
      <trkpt lat="44.0994" lon="3.02777">
        <ele>571.6</ele>
        <time>2018-05-19T12:34:03Z</time>
      </trkpt>
      <trkpt lat="44.09944" lon="3.02779">
        <ele>571.7</ele>
        <time>2018-05-19T12:34:06Z</time>
      </trkpt>
      <trkpt lat="44.09948" lon="3.0278">
        <ele>571.9</ele>
        <time>2018-05-19T12:34:08Z</time>
      </trkpt>
      <trkpt lat="44.09953" lon="3.02781">
        <ele>571.8</ele>
        <time>2018-05-19T12:34:11Z</time>
      </trkpt>
      <trkpt lat="44.09956" lon="3.02783">
        <ele>571.6</ele>
        <time>2018-05-19T12:34:12Z</time>
      </trkpt>
      <trkpt lat="44.09963" lon="3.02787">
        <ele>570.9</ele>
        <time>2018-05-19T12:34:13Z</time>
      </trkpt>
      <trkpt lat="44.09969" lon="3.02789">
        <ele>570.4</ele>
        <time>2018-05-19T12:34:14Z</time>
      </trkpt>
      <trkpt lat="44.09974" lon="3.02792">
        <ele>569.9</ele>
        <time>2018-05-19T12:34:15Z</time>
      </trkpt>
      <trkpt lat="44.09978" lon="3.02793">
        <ele>569.7</ele>
        <time>2018-05-19T12:34:16Z</time>
      </trkpt>
      <trkpt lat="44.09983" lon="3.02795">
        <ele>569.4</ele>
        <time>2018-05-19T12:34:17Z</time>
      </trkpt>
      <trkpt lat="44.09987" lon="3.02797">
        <ele>569.3</ele>
        <time>2018-05-19T12:34:18Z</time>
      </trkpt>
      <trkpt lat="44.09991" lon="3.02799">
        <ele>569.1</ele>
        <time>2018-05-19T12:34:19Z</time>
      </trkpt>
      <trkpt lat="44.09995" lon="3.028">
        <ele>569.1</ele>
        <time>2018-05-19T12:34:20Z</time>
      </trkpt>
      <trkpt lat="44.09998" lon="3.02801">
        <ele>569</ele>
        <time>2018-05-19T12:34:21Z</time>
      </trkpt>
      <trkpt lat="44.10001" lon="3.02804">
        <ele>568.9</ele>
        <time>2018-05-19T12:34:22Z</time>
      </trkpt>
      <trkpt lat="44.10005" lon="3.02806">
        <ele>568.9</ele>
        <time>2018-05-19T12:34:23Z</time>
      </trkpt>
      <trkpt lat="44.10008" lon="3.02807">
        <ele>568.9</ele>
        <time>2018-05-19T12:34:24Z</time>
      </trkpt>
      <trkpt lat="44.1001" lon="3.02809">
        <ele>568.9</ele>
        <time>2018-05-19T12:34:25Z</time>
      </trkpt>
      <trkpt lat="44.10017" lon="3.02812">
        <ele>568.9</ele>
        <time>2018-05-19T12:34:26Z</time>
      </trkpt>
      <trkpt lat="44.10021" lon="3.02813">
        <ele>568.9</ele>
        <time>2018-05-19T12:34:27Z</time>
      </trkpt>
      <trkpt lat="44.10024" lon="3.02814">
        <ele>568.9</ele>
        <time>2018-05-19T12:34:28Z</time>
      </trkpt>
      <trkpt lat="44.10028" lon="3.02814">
        <ele>568.8</ele>
        <time>2018-05-19T12:34:29Z</time>
      </trkpt>
      <trkpt lat="44.10032" lon="3.02815">
        <ele>568.8</ele>
        <time>2018-05-19T12:34:30Z</time>
      </trkpt>
      <trkpt lat="44.1004" lon="3.02814">
        <ele>568.5</ele>
        <time>2018-05-19T12:34:31Z</time>
      </trkpt>
      <trkpt lat="44.10045" lon="3.02815">
        <ele>568.2</ele>
        <time>2018-05-19T12:34:32Z</time>
      </trkpt>
      <trkpt lat="44.10051" lon="3.02817">
        <ele>568</ele>
        <time>2018-05-19T12:34:33Z</time>
      </trkpt>
      <trkpt lat="44.1006" lon="3.02818">
        <ele>567.7</ele>
        <time>2018-05-19T12:34:34Z</time>
      </trkpt>
      <trkpt lat="44.10068" lon="3.02819">
        <ele>567.4</ele>
        <time>2018-05-19T12:34:35Z</time>
      </trkpt>
      <trkpt lat="44.10071" lon="3.02821">
        <ele>567.4</ele>
        <time>2018-05-19T12:34:36Z</time>
      </trkpt>
      <trkpt lat="44.10078" lon="3.02824">
        <ele>567.3</ele>
        <time>2018-05-19T12:34:37Z</time>
      </trkpt>
      <trkpt lat="44.10084" lon="3.02826">
        <ele>567.3</ele>
        <time>2018-05-19T12:34:38Z</time>
      </trkpt>
      <trkpt lat="44.1009" lon="3.02829">
        <ele>567.3</ele>
        <time>2018-05-19T12:34:39Z</time>
      </trkpt>
      <trkpt lat="44.10095" lon="3.0283">
        <ele>567.3</ele>
        <time>2018-05-19T12:34:40Z</time>
      </trkpt>
      <trkpt lat="44.10101" lon="3.02831">
        <ele>567.4</ele>
        <time>2018-05-19T12:34:41Z</time>
      </trkpt>
      <trkpt lat="44.10105" lon="3.02832">
        <ele>567.4</ele>
        <time>2018-05-19T12:34:42Z</time>
      </trkpt>
      <trkpt lat="44.10111" lon="3.02832">
        <ele>567.5</ele>
        <time>2018-05-19T12:34:43Z</time>
      </trkpt>
      <trkpt lat="44.10116" lon="3.02832">
        <ele>567.6</ele>
        <time>2018-05-19T12:34:44Z</time>
      </trkpt>
      <trkpt lat="44.1012" lon="3.02833">
        <ele>567.7</ele>
        <time>2018-05-19T12:34:45Z</time>
      </trkpt>
      <trkpt lat="44.10124" lon="3.02833">
        <ele>567.9</ele>
        <time>2018-05-19T12:34:46Z</time>
      </trkpt>
      <trkpt lat="44.10128" lon="3.02833">
        <ele>568</ele>
        <time>2018-05-19T12:34:47Z</time>
      </trkpt>
      <trkpt lat="44.10131" lon="3.02832">
        <ele>568.2</ele>
        <time>2018-05-19T12:34:48Z</time>
      </trkpt>
      <trkpt lat="44.10135" lon="3.02832">
        <ele>568.3</ele>
        <time>2018-05-19T12:34:49Z</time>
      </trkpt>
      <trkpt lat="44.10141" lon="3.02831">
        <ele>568.4</ele>
        <time>2018-05-19T12:34:50Z</time>
      </trkpt>
      <trkpt lat="44.10147" lon="3.0283">
        <ele>568.5</ele>
        <time>2018-05-19T12:34:51Z</time>
      </trkpt>
      <trkpt lat="44.10152" lon="3.0283">
        <ele>568.5</ele>
        <time>2018-05-19T12:34:52Z</time>
      </trkpt>
      <trkpt lat="44.10155" lon="3.02831">
        <ele>568.4</ele>
        <time>2018-05-19T12:34:53Z</time>
      </trkpt>
      <trkpt lat="44.10159" lon="3.02832">
        <ele>568.4</ele>
        <time>2018-05-19T12:34:54Z</time>
      </trkpt>
      <trkpt lat="44.10163" lon="3.02833">
        <ele>568.3</ele>
        <time>2018-05-19T12:34:55Z</time>
      </trkpt>
      <trkpt lat="44.10167" lon="3.02833">
        <ele>568.2</ele>
        <time>2018-05-19T12:34:56Z</time>
      </trkpt>
      <trkpt lat="44.10171" lon="3.02834">
        <ele>568.1</ele>
        <time>2018-05-19T12:34:57Z</time>
      </trkpt>
      <trkpt lat="44.10175" lon="3.02835">
        <ele>568.1</ele>
        <time>2018-05-19T12:34:58Z</time>
      </trkpt>
      <trkpt lat="44.1018" lon="3.02837">
        <ele>568</ele>
        <time>2018-05-19T12:34:59Z</time>
      </trkpt>
      <trkpt lat="44.10184" lon="3.02838">
        <ele>567.8</ele>
        <time>2018-05-19T12:35:00Z</time>
      </trkpt>
      <trkpt lat="44.10188" lon="3.0284">
        <ele>567.7</ele>
        <time>2018-05-19T12:35:01Z</time>
      </trkpt>
      <trkpt lat="44.10192" lon="3.02843">
        <ele>567.5</ele>
        <time>2018-05-19T12:35:02Z</time>
      </trkpt>
      <trkpt lat="44.10201" lon="3.02849">
        <ele>567.1</ele>
        <time>2018-05-19T12:35:03Z</time>
      </trkpt>
      <trkpt lat="44.10206" lon="3.0285">
        <ele>566.9</ele>
        <time>2018-05-19T12:35:04Z</time>
      </trkpt>
      <trkpt lat="44.1021" lon="3.02853">
        <ele>566.9</ele>
        <time>2018-05-19T12:35:05Z</time>
      </trkpt>
      <trkpt lat="44.10215" lon="3.02859">
        <ele>566.9</ele>
        <time>2018-05-19T12:35:06Z</time>
      </trkpt>
      <trkpt lat="44.10223" lon="3.02864">
        <ele>567.1</ele>
        <time>2018-05-19T12:35:07Z</time>
      </trkpt>
      <trkpt lat="44.10227" lon="3.02873">
        <ele>567.5</ele>
        <time>2018-05-19T12:35:08Z</time>
      </trkpt>
      <trkpt lat="44.10232" lon="3.0288">
        <ele>567.8</ele>
        <time>2018-05-19T12:35:09Z</time>
      </trkpt>
      <trkpt lat="44.10236" lon="3.02885">
        <ele>568</ele>
        <time>2018-05-19T12:35:10Z</time>
      </trkpt>
      <trkpt lat="44.10239" lon="3.02889">
        <ele>568.2</ele>
        <time>2018-05-19T12:35:11Z</time>
      </trkpt>
      <trkpt lat="44.1024" lon="3.02896">
        <ele>568.4</ele>
        <time>2018-05-19T12:35:12Z</time>
      </trkpt>
      <trkpt lat="44.10245" lon="3.02901">
        <ele>568.5</ele>
        <time>2018-05-19T12:35:13Z</time>
      </trkpt>
      <trkpt lat="44.10247" lon="3.02906">
        <ele>568.6</ele>
        <time>2018-05-19T12:35:14Z</time>
      </trkpt>
      <trkpt lat="44.10251" lon="3.02911">
        <ele>568.7</ele>
        <time>2018-05-19T12:35:15Z</time>
      </trkpt>
      <trkpt lat="44.10253" lon="3.02915">
        <ele>568.8</ele>
        <time>2018-05-19T12:35:16Z</time>
      </trkpt>
      <trkpt lat="44.10256" lon="3.02921">
        <ele>568.9</ele>
        <time>2018-05-19T12:35:17Z</time>
      </trkpt>
      <trkpt lat="44.10258" lon="3.02926">
        <ele>569.1</ele>
        <time>2018-05-19T12:35:18Z</time>
      </trkpt>
      <trkpt lat="44.1026" lon="3.02929">
        <ele>569.3</ele>
        <time>2018-05-19T12:35:19Z</time>
      </trkpt>
      <trkpt lat="44.10265" lon="3.02931">
        <ele>569.7</ele>
        <time>2018-05-19T12:35:21Z</time>
      </trkpt>
      <trkpt lat="44.10268" lon="3.02935">
        <ele>570.2</ele>
        <time>2018-05-19T12:35:23Z</time>
      </trkpt>
      <trkpt lat="44.10271" lon="3.02943">
        <ele>571.1</ele>
        <time>2018-05-19T12:35:25Z</time>
      </trkpt>
      <trkpt lat="44.10272" lon="3.02948">
        <ele>571.7</ele>
        <time>2018-05-19T12:35:26Z</time>
      </trkpt>
      <trkpt lat="44.10273" lon="3.02954">
        <ele>572.3</ele>
        <time>2018-05-19T12:35:27Z</time>
      </trkpt>
      <trkpt lat="44.10271" lon="3.02959">
        <ele>571.9</ele>
        <time>2018-05-19T12:35:29Z</time>
      </trkpt>
      <trkpt lat="44.10269" lon="3.02962">
        <ele>572</ele>
        <time>2018-05-19T12:35:35Z</time>
      </trkpt>
      <trkpt lat="44.1027" lon="3.02966">
        <ele>572.1</ele>
        <time>2018-05-19T12:35:43Z</time>
      </trkpt>
      <trkpt lat="44.10267" lon="3.02968">
        <ele>571.7</ele>
        <time>2018-05-19T12:35:52Z</time>
      </trkpt>
      <trkpt lat="44.10263" lon="3.02972">
        <ele>571.4</ele>
        <time>2018-05-19T12:35:54Z</time>
      </trkpt>
      <trkpt lat="44.10259" lon="3.02974">
        <ele>570.9</ele>
        <time>2018-05-19T12:35:56Z</time>
      </trkpt>
      <trkpt lat="44.10254" lon="3.02977">
        <ele>570.5</ele>
        <time>2018-05-19T12:35:58Z</time>
      </trkpt>
      <trkpt lat="44.10251" lon="3.02979">
        <ele>570.2</ele>
        <time>2018-05-19T12:35:59Z</time>
      </trkpt>
      <trkpt lat="44.10249" lon="3.02981">
        <ele>569.9</ele>
        <time>2018-05-19T12:36:00Z</time>
      </trkpt>
      <trkpt lat="44.10246" lon="3.02983">
        <ele>569.6</ele>
        <time>2018-05-19T12:36:01Z</time>
      </trkpt>
      <trkpt lat="44.10243" lon="3.02984">
        <ele>569.3</ele>
        <time>2018-05-19T12:36:02Z</time>
      </trkpt>
      <trkpt lat="44.10241" lon="3.02986">
        <ele>569</ele>
        <time>2018-05-19T12:36:03Z</time>
      </trkpt>
      <trkpt lat="44.10239" lon="3.02988">
        <ele>569.1</ele>
        <time>2018-05-19T12:36:04Z</time>
      </trkpt>
      <trkpt lat="44.10234" lon="3.02991">
        <ele>568.7</ele>
        <time>2018-05-19T12:36:06Z</time>
      </trkpt>
      <trkpt lat="44.10231" lon="3.02995">
        <ele>568.4</ele>
        <time>2018-05-19T12:36:08Z</time>
      </trkpt>
      <trkpt lat="44.10229" lon="3.02998">
        <ele>568.6</ele>
        <time>2018-05-19T12:36:10Z</time>
      </trkpt>
      <trkpt lat="44.10225" lon="3.03001">
        <ele>568.2</ele>
        <time>2018-05-19T12:36:12Z</time>
      </trkpt>
      <trkpt lat="44.10221" lon="3.03004">
        <ele>567.9</ele>
        <time>2018-05-19T12:36:14Z</time>
      </trkpt>
      <trkpt lat="44.10218" lon="3.03006">
        <ele>567.9</ele>
        <time>2018-05-19T12:36:16Z</time>
      </trkpt>
      <trkpt lat="44.10213" lon="3.03011">
        <ele>568</ele>
        <time>2018-05-19T12:36:18Z</time>
      </trkpt>
      <trkpt lat="44.10209" lon="3.03015">
        <ele>567.8</ele>
        <time>2018-05-19T12:36:20Z</time>
      </trkpt>
      <trkpt lat="44.10207" lon="3.03017">
        <ele>567.8</ele>
        <time>2018-05-19T12:36:21Z</time>
      </trkpt>
      <trkpt lat="44.10205" lon="3.0302">
        <ele>567.8</ele>
        <time>2018-05-19T12:36:22Z</time>
      </trkpt>
      <trkpt lat="44.10201" lon="3.03024">
        <ele>567.5</ele>
        <time>2018-05-19T12:36:24Z</time>
      </trkpt>
      <trkpt lat="44.10198" lon="3.03027">
        <ele>567.7</ele>
        <time>2018-05-19T12:36:25Z</time>
      </trkpt>
      <trkpt lat="44.10196" lon="3.03029">
        <ele>567.4</ele>
        <time>2018-05-19T12:36:26Z</time>
      </trkpt>
      <trkpt lat="44.10194" lon="3.03032">
        <ele>567.3</ele>
        <time>2018-05-19T12:36:27Z</time>
      </trkpt>
      <trkpt lat="44.10191" lon="3.03034">
        <ele>567.3</ele>
        <time>2018-05-19T12:36:28Z</time>
      </trkpt>
      <trkpt lat="44.10189" lon="3.03037">
        <ele>567.3</ele>
        <time>2018-05-19T12:36:29Z</time>
      </trkpt>
      <trkpt lat="44.10186" lon="3.03039">
        <ele>567.3</ele>
        <time>2018-05-19T12:36:30Z</time>
      </trkpt>
      <trkpt lat="44.10184" lon="3.03041">
        <ele>567.1</ele>
        <time>2018-05-19T12:36:31Z</time>
      </trkpt>
      <trkpt lat="44.10181" lon="3.03044">
        <ele>567.3</ele>
        <time>2018-05-19T12:36:32Z</time>
      </trkpt>
      <trkpt lat="44.10179" lon="3.03046">
        <ele>567.2</ele>
        <time>2018-05-19T12:36:33Z</time>
      </trkpt>
      <trkpt lat="44.10177" lon="3.03048">
        <ele>567.5</ele>
        <time>2018-05-19T12:36:34Z</time>
      </trkpt>
      <trkpt lat="44.10174" lon="3.0305">
        <ele>567.4</ele>
        <time>2018-05-19T12:36:35Z</time>
      </trkpt>
      <trkpt lat="44.10172" lon="3.03051">
        <ele>567.4</ele>
        <time>2018-05-19T12:36:36Z</time>
      </trkpt>
      <trkpt lat="44.10168" lon="3.03051">
        <ele>567.7</ele>
        <time>2018-05-19T12:36:37Z</time>
      </trkpt>
      <trkpt lat="44.10165" lon="3.03051">
        <ele>567.7</ele>
        <time>2018-05-19T12:36:38Z</time>
      </trkpt>
      <trkpt lat="44.10162" lon="3.03051">
        <ele>567.6</ele>
        <time>2018-05-19T12:36:39Z</time>
      </trkpt>
      <trkpt lat="44.10157" lon="3.03051">
        <ele>567.5</ele>
        <time>2018-05-19T12:36:41Z</time>
      </trkpt>
      <trkpt lat="44.10153" lon="3.03051">
        <ele>567.5</ele>
        <time>2018-05-19T12:36:42Z</time>
      </trkpt>
      <trkpt lat="44.10149" lon="3.03052">
        <ele>567.4</ele>
        <time>2018-05-19T12:36:43Z</time>
      </trkpt>
      <trkpt lat="44.10145" lon="3.03051">
        <ele>567.2</ele>
        <time>2018-05-19T12:36:44Z</time>
      </trkpt>
      <trkpt lat="44.10141" lon="3.03051">
        <ele>567.1</ele>
        <time>2018-05-19T12:36:45Z</time>
      </trkpt>
      <trkpt lat="44.10137" lon="3.0305">
        <ele>566.5</ele>
        <time>2018-05-19T12:36:46Z</time>
      </trkpt>
      <trkpt lat="44.10133" lon="3.03049">
        <ele>566.2</ele>
        <time>2018-05-19T12:36:47Z</time>
      </trkpt>
      <trkpt lat="44.10129" lon="3.03047">
        <ele>566.1</ele>
        <time>2018-05-19T12:36:48Z</time>
      </trkpt>
      <trkpt lat="44.10125" lon="3.03045">
        <ele>565.7</ele>
        <time>2018-05-19T12:36:49Z</time>
      </trkpt>
      <trkpt lat="44.1012" lon="3.03044">
        <ele>565.5</ele>
        <time>2018-05-19T12:36:50Z</time>
      </trkpt>
      <trkpt lat="44.10115" lon="3.0304">
        <ele>565</ele>
        <time>2018-05-19T12:36:51Z</time>
      </trkpt>
      <trkpt lat="44.10111" lon="3.03037">
        <ele>564.4</ele>
        <time>2018-05-19T12:36:52Z</time>
      </trkpt>
      <trkpt lat="44.10108" lon="3.03035">
        <ele>564.2</ele>
        <time>2018-05-19T12:36:53Z</time>
      </trkpt>
      <trkpt lat="44.10103" lon="3.03034">
        <ele>564.1</ele>
        <time>2018-05-19T12:36:54Z</time>
      </trkpt>
      <trkpt lat="44.10097" lon="3.03035">
        <ele>563.8</ele>
        <time>2018-05-19T12:36:55Z</time>
      </trkpt>
      <trkpt lat="44.10092" lon="3.03037">
        <ele>563.5</ele>
        <time>2018-05-19T12:36:56Z</time>
      </trkpt>
      <trkpt lat="44.10086" lon="3.03041">
        <ele>563.6</ele>
        <time>2018-05-19T12:36:57Z</time>
      </trkpt>
      <trkpt lat="44.10082" lon="3.03044">
        <ele>563.8</ele>
        <time>2018-05-19T12:36:58Z</time>
      </trkpt>
      <trkpt lat="44.10077" lon="3.03046">
        <ele>563.5</ele>
        <time>2018-05-19T12:36:59Z</time>
      </trkpt>
      <trkpt lat="44.10075" lon="3.03047">
        <ele>563.9</ele>
        <time>2018-05-19T12:37:00Z</time>
      </trkpt>
      <trkpt lat="44.10069" lon="3.03047">
        <ele>563.6</ele>
        <time>2018-05-19T12:37:01Z</time>
      </trkpt>
      <trkpt lat="44.10062" lon="3.03049">
        <ele>563.1</ele>
        <time>2018-05-19T12:37:03Z</time>
      </trkpt>
      <trkpt lat="44.10057" lon="3.03049">
        <ele>562.9</ele>
        <time>2018-05-19T12:37:04Z</time>
      </trkpt>
      <trkpt lat="44.10051" lon="3.03051">
        <ele>562.5</ele>
        <time>2018-05-19T12:37:05Z</time>
      </trkpt>
      <trkpt lat="44.10047" lon="3.03052">
        <ele>562.6</ele>
        <time>2018-05-19T12:37:06Z</time>
      </trkpt>
      <trkpt lat="44.10042" lon="3.03054">
        <ele>562.4</ele>
        <time>2018-05-19T12:37:07Z</time>
      </trkpt>
      <trkpt lat="44.10038" lon="3.03057">
        <ele>562.7</ele>
        <time>2018-05-19T12:37:08Z</time>
      </trkpt>
      <trkpt lat="44.10034" lon="3.03063">
        <ele>562.5</ele>
        <time>2018-05-19T12:37:09Z</time>
      </trkpt>
      <trkpt lat="44.10029" lon="3.03068">
        <ele>562.4</ele>
        <time>2018-05-19T12:37:10Z</time>
      </trkpt>
      <trkpt lat="44.1002" lon="3.03075">
        <ele>561.6</ele>
        <time>2018-05-19T12:37:11Z</time>
      </trkpt>
      <trkpt lat="44.10015" lon="3.0308">
        <ele>561</ele>
        <time>2018-05-19T12:37:12Z</time>
      </trkpt>
      <trkpt lat="44.1001" lon="3.03086">
        <ele>560.6</ele>
        <time>2018-05-19T12:37:13Z</time>
      </trkpt>
      <trkpt lat="44.10004" lon="3.03093">
        <ele>560.4</ele>
        <time>2018-05-19T12:37:14Z</time>
      </trkpt>
      <trkpt lat="44.09998" lon="3.03099">
        <ele>560.2</ele>
        <time>2018-05-19T12:37:15Z</time>
      </trkpt>
      <trkpt lat="44.09991" lon="3.03104">
        <ele>559.8</ele>
        <time>2018-05-19T12:37:16Z</time>
      </trkpt>
      <trkpt lat="44.09984" lon="3.03108">
        <ele>559.2</ele>
        <time>2018-05-19T12:37:17Z</time>
      </trkpt>
      <trkpt lat="44.09979" lon="3.03111">
        <ele>558.6</ele>
        <time>2018-05-19T12:37:18Z</time>
      </trkpt>
      <trkpt lat="44.09973" lon="3.03114">
        <ele>558.3</ele>
        <time>2018-05-19T12:37:19Z</time>
      </trkpt>
      <trkpt lat="44.09968" lon="3.03116">
        <ele>558.2</ele>
        <time>2018-05-19T12:37:20Z</time>
      </trkpt>
      <trkpt lat="44.09965" lon="3.0312">
        <ele>558</ele>
        <time>2018-05-19T12:37:21Z</time>
      </trkpt>
      <trkpt lat="44.09961" lon="3.03123">
        <ele>557.8</ele>
        <time>2018-05-19T12:37:23Z</time>
      </trkpt>
      <trkpt lat="44.09959" lon="3.03123">
        <ele>557.5</ele>
        <time>2018-05-19T12:38:15Z</time>
      </trkpt>
      <trkpt lat="44.09956" lon="3.03123">
        <ele>557.3</ele>
        <time>2018-05-19T12:38:21Z</time>
      </trkpt>
      <trkpt lat="44.09952" lon="3.03126">
        <ele>557.2</ele>
        <time>2018-05-19T12:38:24Z</time>
      </trkpt>
      <trkpt lat="44.09951" lon="3.0313">
        <ele>557.1</ele>
        <time>2018-05-19T12:38:27Z</time>
      </trkpt>
      <trkpt lat="44.0995" lon="3.03136">
        <ele>557.2</ele>
        <time>2018-05-19T12:38:30Z</time>
      </trkpt>
      <trkpt lat="44.09952" lon="3.0314">
        <ele>557.6</ele>
        <time>2018-05-19T12:38:32Z</time>
      </trkpt>
      <trkpt lat="44.09955" lon="3.03141">
        <ele>557.8</ele>
        <time>2018-05-19T12:38:34Z</time>
      </trkpt>
      <trkpt lat="44.09957" lon="3.03138">
        <ele>557.8</ele>
        <time>2018-05-19T12:38:36Z</time>
      </trkpt>
      <trkpt lat="44.09959" lon="3.03133">
        <ele>557.9</ele>
        <time>2018-05-19T12:38:38Z</time>
      </trkpt>
      <trkpt lat="44.09959" lon="3.03127">
        <ele>557.7</ele>
        <time>2018-05-19T12:38:40Z</time>
      </trkpt>
      <trkpt lat="44.0996" lon="3.03122">
        <ele>557.5</ele>
        <time>2018-05-19T12:38:42Z</time>
      </trkpt>
      <trkpt lat="44.09963" lon="3.03117">
        <ele>557.6</ele>
        <time>2018-05-19T12:38:44Z</time>
      </trkpt>
      <trkpt lat="44.09966" lon="3.03115">
        <ele>557.7</ele>
        <time>2018-05-19T12:38:46Z</time>
      </trkpt>
      <trkpt lat="44.09971" lon="3.03113">
        <ele>558.3</ele>
        <time>2018-05-19T12:38:48Z</time>
      </trkpt>
      <trkpt lat="44.09975" lon="3.03112">
        <ele>558.6</ele>
        <time>2018-05-19T12:38:50Z</time>
      </trkpt>
      <trkpt lat="44.09979" lon="3.0311">
        <ele>558.6</ele>
        <time>2018-05-19T12:38:52Z</time>
      </trkpt>
      <trkpt lat="44.09981" lon="3.03108">
        <ele>558.9</ele>
        <time>2018-05-19T12:38:54Z</time>
      </trkpt>
      <trkpt lat="44.09984" lon="3.03107">
        <ele>559</ele>
        <time>2018-05-19T12:38:56Z</time>
      </trkpt>
      <trkpt lat="44.09988" lon="3.03106">
        <ele>559.2</ele>
        <time>2018-05-19T12:38:59Z</time>
      </trkpt>
      <trkpt lat="44.0999" lon="3.03107">
        <ele>559.8</ele>
        <time>2018-05-19T12:39:02Z</time>
      </trkpt>
      <trkpt lat="44.09989" lon="3.03111">
        <ele>560</ele>
        <time>2018-05-19T12:39:05Z</time>
      </trkpt>
      <trkpt lat="44.09986" lon="3.03112">
        <ele>559.7</ele>
        <time>2018-05-19T12:39:07Z</time>
      </trkpt>
      <trkpt lat="44.09981" lon="3.03114">
        <ele>559.1</ele>
        <time>2018-05-19T12:39:09Z</time>
      </trkpt>
      <trkpt lat="44.09978" lon="3.03116">
        <ele>559</ele>
        <time>2018-05-19T12:39:10Z</time>
      </trkpt>
      <trkpt lat="44.09974" lon="3.03119">
        <ele>558.7</ele>
        <time>2018-05-19T12:39:11Z</time>
      </trkpt>
      <trkpt lat="44.09971" lon="3.03122">
        <ele>558.6</ele>
        <time>2018-05-19T12:39:12Z</time>
      </trkpt>
      <trkpt lat="44.09965" lon="3.03126">
        <ele>558.2</ele>
        <time>2018-05-19T12:39:13Z</time>
      </trkpt>
      <trkpt lat="44.0996" lon="3.0313">
        <ele>557.8</ele>
        <time>2018-05-19T12:39:14Z</time>
      </trkpt>
      <trkpt lat="44.09955" lon="3.03133">
        <ele>557.7</ele>
        <time>2018-05-19T12:39:15Z</time>
      </trkpt>
      <trkpt lat="44.0995" lon="3.03137">
        <ele>557.4</ele>
        <time>2018-05-19T12:39:16Z</time>
      </trkpt>
      <trkpt lat="44.09946" lon="3.0314">
        <ele>557.1</ele>
        <time>2018-05-19T12:39:17Z</time>
      </trkpt>
      <trkpt lat="44.09942" lon="3.0314">
        <ele>556.7</ele>
        <time>2018-05-19T12:39:18Z</time>
      </trkpt>
      <trkpt lat="44.0994" lon="3.03138">
        <ele>556.4</ele>
        <time>2018-05-19T12:39:24Z</time>
      </trkpt>
      <trkpt lat="44.09935" lon="3.03142">
        <ele>555.9</ele>
        <time>2018-05-19T12:41:00Z</time>
      </trkpt>
      <trkpt lat="44.09932" lon="3.03141">
        <ele>555.7</ele>
        <time>2018-05-19T12:41:58Z</time>
      </trkpt>
      <trkpt lat="44.09929" lon="3.03145">
        <ele>555.4</ele>
        <time>2018-05-19T12:42:00Z</time>
      </trkpt>
      <trkpt lat="44.09925" lon="3.0315">
        <ele>555.3</ele>
        <time>2018-05-19T12:42:02Z</time>
      </trkpt>
      <trkpt lat="44.09922" lon="3.03153">
        <ele>554.9</ele>
        <time>2018-05-19T12:42:03Z</time>
      </trkpt>
      <trkpt lat="44.09919" lon="3.03157">
        <ele>554.5</ele>
        <time>2018-05-19T12:42:04Z</time>
      </trkpt>
      <trkpt lat="44.09914" lon="3.03159">
        <ele>553.7</ele>
        <time>2018-05-19T12:42:05Z</time>
      </trkpt>
      <trkpt lat="44.09909" lon="3.03162">
        <ele>553.3</ele>
        <time>2018-05-19T12:42:06Z</time>
      </trkpt>
      <trkpt lat="44.09903" lon="3.03164">
        <ele>552.5</ele>
        <time>2018-05-19T12:42:07Z</time>
      </trkpt>
      <trkpt lat="44.09897" lon="3.03164">
        <ele>551.6</ele>
        <time>2018-05-19T12:42:08Z</time>
      </trkpt>
      <trkpt lat="44.09889" lon="3.03163">
        <ele>550.1</ele>
        <time>2018-05-19T12:42:09Z</time>
      </trkpt>
      <trkpt lat="44.09881" lon="3.03162">
        <ele>548.8</ele>
        <time>2018-05-19T12:42:10Z</time>
      </trkpt>
      <trkpt lat="44.09874" lon="3.03164">
        <ele>547.2</ele>
        <time>2018-05-19T12:42:11Z</time>
      </trkpt>
      <trkpt lat="44.09866" lon="3.03166">
        <ele>545.9</ele>
        <time>2018-05-19T12:42:12Z</time>
      </trkpt>
      <trkpt lat="44.09858" lon="3.03168">
        <ele>544</ele>
        <time>2018-05-19T12:42:13Z</time>
      </trkpt>
      <trkpt lat="44.09852" lon="3.03171">
        <ele>542.4</ele>
        <time>2018-05-19T12:42:14Z</time>
      </trkpt>
      <trkpt lat="44.09846" lon="3.03175">
        <ele>541.4</ele>
        <time>2018-05-19T12:42:15Z</time>
      </trkpt>
      <trkpt lat="44.09844" lon="3.03181">
        <ele>542.1</ele>
        <time>2018-05-19T12:42:16Z</time>
      </trkpt>
      <trkpt lat="44.09842" lon="3.03186">
        <ele>541.8</ele>
        <time>2018-05-19T12:42:17Z</time>
      </trkpt>
      <trkpt lat="44.09843" lon="3.03192">
        <ele>542.1</ele>
        <time>2018-05-19T12:42:18Z</time>
      </trkpt>
      <trkpt lat="44.09844" lon="3.03199">
        <ele>543.1</ele>
        <time>2018-05-19T12:42:19Z</time>
      </trkpt>
      <trkpt lat="44.09844" lon="3.03209">
        <ele>543.3</ele>
        <time>2018-05-19T12:42:20Z</time>
      </trkpt>
      <trkpt lat="44.09845" lon="3.03219">
        <ele>543.2</ele>
        <time>2018-05-19T12:42:21Z</time>
      </trkpt>
      <trkpt lat="44.09846" lon="3.03229">
        <ele>542.6</ele>
        <time>2018-05-19T12:42:22Z</time>
      </trkpt>
      <trkpt lat="44.09848" lon="3.03239">
        <ele>542.3</ele>
        <time>2018-05-19T12:42:23Z</time>
      </trkpt>
      <trkpt lat="44.09851" lon="3.03246">
        <ele>541.7</ele>
        <time>2018-05-19T12:42:24Z</time>
      </trkpt>
      <trkpt lat="44.09855" lon="3.03253">
        <ele>541</ele>
        <time>2018-05-19T12:42:25Z</time>
      </trkpt>
      <trkpt lat="44.09859" lon="3.03253">
        <ele>541.9</ele>
        <time>2018-05-19T12:42:26Z</time>
      </trkpt>
      <trkpt lat="44.09862" lon="3.03254">
        <ele>541.9</ele>
        <time>2018-05-19T12:42:27Z</time>
      </trkpt>
      <trkpt lat="44.09864" lon="3.03261">
        <ele>541.1</ele>
        <time>2018-05-19T12:42:29Z</time>
      </trkpt>
      <trkpt lat="44.09866" lon="3.03265">
        <ele>541.6</ele>
        <time>2018-05-19T12:42:30Z</time>
      </trkpt>
      <trkpt lat="44.09869" lon="3.03271">
        <ele>540.7</ele>
        <time>2018-05-19T12:42:31Z</time>
      </trkpt>
      <trkpt lat="44.09872" lon="3.03277">
        <ele>540.4</ele>
        <time>2018-05-19T12:42:32Z</time>
      </trkpt>
      <trkpt lat="44.09874" lon="3.03282">
        <ele>539.8</ele>
        <time>2018-05-19T12:42:33Z</time>
      </trkpt>
      <trkpt lat="44.09876" lon="3.03287">
        <ele>539.6</ele>
        <time>2018-05-19T12:42:34Z</time>
      </trkpt>
      <trkpt lat="44.09878" lon="3.03291">
        <ele>539.4</ele>
        <time>2018-05-19T12:42:35Z</time>
      </trkpt>
      <trkpt lat="44.09882" lon="3.03297">
        <ele>538.6</ele>
        <time>2018-05-19T12:42:36Z</time>
      </trkpt>
      <trkpt lat="44.09889" lon="3.03303">
        <ele>538.8</ele>
        <time>2018-05-19T12:42:37Z</time>
      </trkpt>
      <trkpt lat="44.09891" lon="3.03309">
        <ele>538</ele>
        <time>2018-05-19T12:42:38Z</time>
      </trkpt>
      <trkpt lat="44.09893" lon="3.03315">
        <ele>537.5</ele>
        <time>2018-05-19T12:42:39Z</time>
      </trkpt>
      <trkpt lat="44.09893" lon="3.03323">
        <ele>536.9</ele>
        <time>2018-05-19T12:42:40Z</time>
      </trkpt>
      <trkpt lat="44.09895" lon="3.0333">
        <ele>536.1</ele>
        <time>2018-05-19T12:42:41Z</time>
      </trkpt>
      <trkpt lat="44.09899" lon="3.03335">
        <ele>536.2</ele>
        <time>2018-05-19T12:42:42Z</time>
      </trkpt>
      <trkpt lat="44.09903" lon="3.03341">
        <ele>536.1</ele>
        <time>2018-05-19T12:42:43Z</time>
      </trkpt>
      <trkpt lat="44.09906" lon="3.03347">
        <ele>536</ele>
        <time>2018-05-19T12:42:44Z</time>
      </trkpt>
      <trkpt lat="44.09912" lon="3.0335">
        <ele>536.2</ele>
        <time>2018-05-19T12:42:45Z</time>
      </trkpt>
      <trkpt lat="44.09915" lon="3.03352">
        <ele>536.3</ele>
        <time>2018-05-19T12:42:46Z</time>
      </trkpt>
      <trkpt lat="44.09915" lon="3.03357">
        <ele>535.9</ele>
        <time>2018-05-19T12:42:47Z</time>
      </trkpt>
      <trkpt lat="44.09918" lon="3.03359">
        <ele>536.3</ele>
        <time>2018-05-19T12:42:48Z</time>
      </trkpt>
      <trkpt lat="44.09922" lon="3.03365">
        <ele>536.1</ele>
        <time>2018-05-19T12:42:50Z</time>
      </trkpt>
      <trkpt lat="44.09923" lon="3.03369">
        <ele>535.9</ele>
        <time>2018-05-19T12:42:51Z</time>
      </trkpt>
      <trkpt lat="44.09926" lon="3.03372">
        <ele>536.2</ele>
        <time>2018-05-19T12:42:52Z</time>
      </trkpt>
      <trkpt lat="44.09933" lon="3.03374">
        <ele>536.7</ele>
        <time>2018-05-19T12:42:54Z</time>
      </trkpt>
      <trkpt lat="44.09936" lon="3.03376">
        <ele>536.7</ele>
        <time>2018-05-19T12:42:55Z</time>
      </trkpt>
      <trkpt lat="44.09937" lon="3.0338">
        <ele>536.8</ele>
        <time>2018-05-19T12:42:56Z</time>
      </trkpt>
      <trkpt lat="44.09939" lon="3.03384">
        <ele>536.6</ele>
        <time>2018-05-19T12:42:57Z</time>
      </trkpt>
      <trkpt lat="44.09939" lon="3.03389">
        <ele>536.8</ele>
        <time>2018-05-19T12:42:59Z</time>
      </trkpt>
      <trkpt lat="44.09937" lon="3.03392">
        <ele>536.5</ele>
        <time>2018-05-19T12:43:01Z</time>
      </trkpt>
      <trkpt lat="44.09935" lon="3.03396">
        <ele>536.2</ele>
        <time>2018-05-19T12:43:03Z</time>
      </trkpt>
      <trkpt lat="44.09933" lon="3.034">
        <ele>535.9</ele>
        <time>2018-05-19T12:43:05Z</time>
      </trkpt>
      <trkpt lat="44.09931" lon="3.03405">
        <ele>535.9</ele>
        <time>2018-05-19T12:43:07Z</time>
      </trkpt>
      <trkpt lat="44.09928" lon="3.03408">
        <ele>535.6</ele>
        <time>2018-05-19T12:43:09Z</time>
      </trkpt>
      <trkpt lat="44.09925" lon="3.03412">
        <ele>535.3</ele>
        <time>2018-05-19T12:43:12Z</time>
      </trkpt>
      <trkpt lat="44.09922" lon="3.03415">
        <ele>535</ele>
        <time>2018-05-19T12:43:14Z</time>
      </trkpt>
      <trkpt lat="44.09919" lon="3.03418">
        <ele>534.7</ele>
        <time>2018-05-19T12:43:16Z</time>
      </trkpt>
      <trkpt lat="44.09916" lon="3.03421">
        <ele>534.4</ele>
        <time>2018-05-19T12:43:18Z</time>
      </trkpt>
      <trkpt lat="44.09914" lon="3.03424">
        <ele>534.1</ele>
        <time>2018-05-19T12:43:20Z</time>
      </trkpt>
      <trkpt lat="44.09911" lon="3.03428">
        <ele>534.2</ele>
        <time>2018-05-19T12:43:22Z</time>
      </trkpt>
      <trkpt lat="44.09909" lon="3.0343">
        <ele>534</ele>
        <time>2018-05-19T12:43:24Z</time>
      </trkpt>
      <trkpt lat="44.09907" lon="3.03433">
        <ele>533.7</ele>
        <time>2018-05-19T12:43:26Z</time>
      </trkpt>
      <trkpt lat="44.09904" lon="3.03436">
        <ele>533.6</ele>
        <time>2018-05-19T12:43:28Z</time>
      </trkpt>
      <trkpt lat="44.09902" lon="3.03439">
        <ele>533.8</ele>
        <time>2018-05-19T12:43:41Z</time>
      </trkpt>
      <trkpt lat="44.099" lon="3.03441">
        <ele>533.5</ele>
        <time>2018-05-19T12:43:46Z</time>
      </trkpt>
      <trkpt lat="44.09903" lon="3.0344">
        <ele>533.8</ele>
        <time>2018-05-19T12:43:55Z</time>
      </trkpt>
      <trkpt lat="44.099" lon="3.0344">
        <ele>533.5</ele>
        <time>2018-05-19T12:44:02Z</time>
      </trkpt>
      <trkpt lat="44.09896" lon="3.03442">
        <ele>533.4</ele>
        <time>2018-05-19T12:44:04Z</time>
      </trkpt>
      <trkpt lat="44.09891" lon="3.03446">
        <ele>532.6</ele>
        <time>2018-05-19T12:44:06Z</time>
      </trkpt>
      <trkpt lat="44.09888" lon="3.03448">
        <ele>532.5</ele>
        <time>2018-05-19T12:44:08Z</time>
      </trkpt>
      <trkpt lat="44.09885" lon="3.0345">
        <ele>532.1</ele>
        <time>2018-05-19T12:44:10Z</time>
      </trkpt>
      <trkpt lat="44.09882" lon="3.03453">
        <ele>532.1</ele>
        <time>2018-05-19T12:44:13Z</time>
      </trkpt>
      <trkpt lat="44.09879" lon="3.03454">
        <ele>531.6</ele>
        <time>2018-05-19T12:44:15Z</time>
      </trkpt>
      <trkpt lat="44.09876" lon="3.03457">
        <ele>531.7</ele>
        <time>2018-05-19T12:44:18Z</time>
      </trkpt>
      <trkpt lat="44.09873" lon="3.03459">
        <ele>531.8</ele>
        <time>2018-05-19T12:44:20Z</time>
      </trkpt>
      <trkpt lat="44.09869" lon="3.03461">
        <ele>531.4</ele>
        <time>2018-05-19T12:44:22Z</time>
      </trkpt>
      <trkpt lat="44.09866" lon="3.03462">
        <ele>531</ele>
        <time>2018-05-19T12:44:23Z</time>
      </trkpt>
      <trkpt lat="44.09863" lon="3.03463">
        <ele>531.1</ele>
        <time>2018-05-19T12:44:24Z</time>
      </trkpt>
      <trkpt lat="44.0986" lon="3.03464">
        <ele>530.7</ele>
        <time>2018-05-19T12:44:25Z</time>
      </trkpt>
      <trkpt lat="44.09857" lon="3.03466">
        <ele>530.3</ele>
        <time>2018-05-19T12:44:26Z</time>
      </trkpt>
      <trkpt lat="44.09854" lon="3.03467">
        <ele>529.8</ele>
        <time>2018-05-19T12:44:27Z</time>
      </trkpt>
      <trkpt lat="44.09851" lon="3.03468">
        <ele>530</ele>
        <time>2018-05-19T12:44:28Z</time>
      </trkpt>
      <trkpt lat="44.09848" lon="3.03469">
        <ele>529.6</ele>
        <time>2018-05-19T12:44:29Z</time>
      </trkpt>
      <trkpt lat="44.09845" lon="3.0347">
        <ele>529.1</ele>
        <time>2018-05-19T12:44:30Z</time>
      </trkpt>
      <trkpt lat="44.09842" lon="3.03471">
        <ele>528.6</ele>
        <time>2018-05-19T12:44:31Z</time>
      </trkpt>
      <trkpt lat="44.09838" lon="3.03472">
        <ele>528.9</ele>
        <time>2018-05-19T12:44:32Z</time>
      </trkpt>
      <trkpt lat="44.09834" lon="3.03473">
        <ele>527.8</ele>
        <time>2018-05-19T12:44:33Z</time>
      </trkpt>
      <trkpt lat="44.0983" lon="3.03474">
        <ele>527.2</ele>
        <time>2018-05-19T12:44:34Z</time>
      </trkpt>
      <trkpt lat="44.09826" lon="3.03476">
        <ele>526.6</ele>
        <time>2018-05-19T12:44:35Z</time>
      </trkpt>
      <trkpt lat="44.09822" lon="3.03477">
        <ele>526.8</ele>
        <time>2018-05-19T12:44:36Z</time>
      </trkpt>
      <trkpt lat="44.09816" lon="3.03478">
        <ele>525.6</ele>
        <time>2018-05-19T12:44:37Z</time>
      </trkpt>
      <trkpt lat="44.09811" lon="3.03479">
        <ele>524.4</ele>
        <time>2018-05-19T12:44:38Z</time>
      </trkpt>
      <trkpt lat="44.09805" lon="3.03482">
        <ele>523.6</ele>
        <time>2018-05-19T12:44:39Z</time>
      </trkpt>
      <trkpt lat="44.098" lon="3.03484">
        <ele>522.8</ele>
        <time>2018-05-19T12:44:40Z</time>
      </trkpt>
      <trkpt lat="44.09797" lon="3.03487">
        <ele>522.2</ele>
        <time>2018-05-19T12:44:41Z</time>
      </trkpt>
      <trkpt lat="44.09793" lon="3.0349">
        <ele>522.2</ele>
        <time>2018-05-19T12:44:42Z</time>
      </trkpt>
      <trkpt lat="44.0979" lon="3.03493">
        <ele>521.6</ele>
        <time>2018-05-19T12:44:43Z</time>
      </trkpt>
      <trkpt lat="44.09788" lon="3.03495">
        <ele>521.7</ele>
        <time>2018-05-19T12:44:44Z</time>
      </trkpt>
      <trkpt lat="44.09782" lon="3.03498">
        <ele>521.9</ele>
        <time>2018-05-19T12:44:46Z</time>
      </trkpt>
      <trkpt lat="44.09779" lon="3.035">
        <ele>520.5</ele>
        <time>2018-05-19T12:44:47Z</time>
      </trkpt>
      <trkpt lat="44.09775" lon="3.03502">
        <ele>520.7</ele>
        <time>2018-05-19T12:44:48Z</time>
      </trkpt>
      <trkpt lat="44.09771" lon="3.03506">
        <ele>520.9</ele>
        <time>2018-05-19T12:44:50Z</time>
      </trkpt>
      <trkpt lat="44.09769" lon="3.03509">
        <ele>520.2</ele>
        <time>2018-05-19T12:44:51Z</time>
      </trkpt>
      <trkpt lat="44.09766" lon="3.0351">
        <ele>520.4</ele>
        <time>2018-05-19T12:44:52Z</time>
      </trkpt>
      <trkpt lat="44.09763" lon="3.03512">
        <ele>519.7</ele>
        <time>2018-05-19T12:44:54Z</time>
      </trkpt>
      <trkpt lat="44.09761" lon="3.03511">
        <ele>519.7</ele>
        <time>2018-05-19T12:45:08Z</time>
      </trkpt>
      <trkpt lat="44.09763" lon="3.03514">
        <ele>519.6</ele>
        <time>2018-05-19T12:45:14Z</time>
      </trkpt>
      <trkpt lat="44.0976" lon="3.03514">
        <ele>519</ele>
        <time>2018-05-19T12:45:50Z</time>
      </trkpt>
      <trkpt lat="44.09756" lon="3.03515">
        <ele>519.2</ele>
        <time>2018-05-19T12:46:42Z</time>
      </trkpt>
      <trkpt lat="44.09753" lon="3.03515">
        <ele>518.5</ele>
        <time>2018-05-19T12:46:43Z</time>
      </trkpt>
      <trkpt lat="44.09749" lon="3.03515">
        <ele>517.9</ele>
        <time>2018-05-19T12:46:44Z</time>
      </trkpt>
      <trkpt lat="44.09746" lon="3.03515">
        <ele>517.3</ele>
        <time>2018-05-19T12:46:45Z</time>
      </trkpt>
      <trkpt lat="44.09742" lon="3.03515">
        <ele>516.2</ele>
        <time>2018-05-19T12:46:46Z</time>
      </trkpt>
      <trkpt lat="44.09734" lon="3.03514">
        <ele>514.3</ele>
        <time>2018-05-19T12:46:47Z</time>
      </trkpt>
      <trkpt lat="44.09728" lon="3.03512">
        <ele>513.5</ele>
        <time>2018-05-19T12:46:48Z</time>
      </trkpt>
      <trkpt lat="44.09721" lon="3.03511">
        <ele>512.6</ele>
        <time>2018-05-19T12:46:49Z</time>
      </trkpt>
      <trkpt lat="44.09714" lon="3.0351">
        <ele>510.8</ele>
        <time>2018-05-19T12:46:50Z</time>
      </trkpt>
      <trkpt lat="44.09707" lon="3.03509">
        <ele>509.8</ele>
        <time>2018-05-19T12:46:51Z</time>
      </trkpt>
      <trkpt lat="44.097" lon="3.03507">
        <ele>509</ele>
        <time>2018-05-19T12:46:52Z</time>
      </trkpt>
      <trkpt lat="44.09693" lon="3.03506">
        <ele>507.9</ele>
        <time>2018-05-19T12:46:53Z</time>
      </trkpt>
      <trkpt lat="44.09685" lon="3.03506">
        <ele>506.3</ele>
        <time>2018-05-19T12:46:54Z</time>
      </trkpt>
      <trkpt lat="44.09676" lon="3.03508">
        <ele>504.8</ele>
        <time>2018-05-19T12:46:55Z</time>
      </trkpt>
      <trkpt lat="44.0967" lon="3.0351">
        <ele>503.3</ele>
        <time>2018-05-19T12:46:56Z</time>
      </trkpt>
      <trkpt lat="44.09666" lon="3.03511">
        <ele>503.5</ele>
        <time>2018-05-19T12:46:57Z</time>
      </trkpt>
      <trkpt lat="44.09662" lon="3.03512">
        <ele>502.7</ele>
        <time>2018-05-19T12:46:58Z</time>
      </trkpt>
      <trkpt lat="44.0966" lon="3.03511">
        <ele>501.8</ele>
        <time>2018-05-19T12:46:59Z</time>
      </trkpt>
      <trkpt lat="44.09657" lon="3.03511">
        <ele>501</ele>
        <time>2018-05-19T12:47:00Z</time>
      </trkpt>
      <trkpt lat="44.09652" lon="3.03511">
        <ele>500.1</ele>
        <time>2018-05-19T12:47:01Z</time>
      </trkpt>
      <trkpt lat="44.09648" lon="3.03511">
        <ele>498.1</ele>
        <time>2018-05-19T12:47:02Z</time>
      </trkpt>
      <trkpt lat="44.09643" lon="3.03514">
        <ele>495.9</ele>
        <time>2018-05-19T12:47:03Z</time>
      </trkpt>
      <trkpt lat="44.09639" lon="3.03517">
        <ele>495.7</ele>
        <time>2018-05-19T12:47:04Z</time>
      </trkpt>
      <trkpt lat="44.09635" lon="3.03522">
        <ele>495.4</ele>
        <time>2018-05-19T12:47:05Z</time>
      </trkpt>
      <trkpt lat="44.09632" lon="3.03528">
        <ele>496.4</ele>
        <time>2018-05-19T12:47:06Z</time>
      </trkpt>
      <trkpt lat="44.09629" lon="3.03535">
        <ele>496.2</ele>
        <time>2018-05-19T12:47:07Z</time>
      </trkpt>
      <trkpt lat="44.09627" lon="3.03543">
        <ele>497.3</ele>
        <time>2018-05-19T12:47:08Z</time>
      </trkpt>
      <trkpt lat="44.09625" lon="3.03552">
        <ele>499.5</ele>
        <time>2018-05-19T12:47:09Z</time>
      </trkpt>
      <trkpt lat="44.09624" lon="3.0356">
        <ele>500.4</ele>
        <time>2018-05-19T12:47:10Z</time>
      </trkpt>
      <trkpt lat="44.09624" lon="3.03571">
        <ele>503.1</ele>
        <time>2018-05-19T12:47:11Z</time>
      </trkpt>
      <trkpt lat="44.09624" lon="3.03582">
        <ele>504.9</ele>
        <time>2018-05-19T12:47:12Z</time>
      </trkpt>
      <trkpt lat="44.09625" lon="3.03591">
        <ele>506.4</ele>
        <time>2018-05-19T12:47:13Z</time>
      </trkpt>
      <trkpt lat="44.09624" lon="3.036">
        <ele>507.5</ele>
        <time>2018-05-19T12:47:14Z</time>
      </trkpt>
      <trkpt lat="44.09623" lon="3.03609">
        <ele>508.5</ele>
        <time>2018-05-19T12:47:15Z</time>
      </trkpt>
      <trkpt lat="44.09621" lon="3.03618">
        <ele>509</ele>
        <time>2018-05-19T12:47:16Z</time>
      </trkpt>
      <trkpt lat="44.09617" lon="3.03627">
        <ele>508.9</ele>
        <time>2018-05-19T12:47:17Z</time>
      </trkpt>
      <trkpt lat="44.09613" lon="3.03634">
        <ele>508.3</ele>
        <time>2018-05-19T12:47:18Z</time>
      </trkpt>
      <trkpt lat="44.0961" lon="3.03643">
        <ele>508</ele>
        <time>2018-05-19T12:47:19Z</time>
      </trkpt>
      <trkpt lat="44.09606" lon="3.03651">
        <ele>506.6</ele>
        <time>2018-05-19T12:47:20Z</time>
      </trkpt>
      <trkpt lat="44.09602" lon="3.03659">
        <ele>506.4</ele>
        <time>2018-05-19T12:47:21Z</time>
      </trkpt>
      <trkpt lat="44.09597" lon="3.03666">
        <ele>506.3</ele>
        <time>2018-05-19T12:47:22Z</time>
      </trkpt>
      <trkpt lat="44.09595" lon="3.03673">
        <ele>505.7</ele>
        <time>2018-05-19T12:47:23Z</time>
      </trkpt>
      <trkpt lat="44.09594" lon="3.03683">
        <ele>505.7</ele>
        <time>2018-05-19T12:47:24Z</time>
      </trkpt>
      <trkpt lat="44.09594" lon="3.03692">
        <ele>507</ele>
        <time>2018-05-19T12:47:25Z</time>
      </trkpt>
      <trkpt lat="44.09596" lon="3.03702">
        <ele>507.2</ele>
        <time>2018-05-19T12:47:26Z</time>
      </trkpt>
      <trkpt lat="44.09596" lon="3.03712">
        <ele>507.7</ele>
        <time>2018-05-19T12:47:27Z</time>
      </trkpt>
      <trkpt lat="44.09595" lon="3.03723">
        <ele>507.9</ele>
        <time>2018-05-19T12:47:28Z</time>
      </trkpt>
      <trkpt lat="44.09594" lon="3.03734">
        <ele>507.6</ele>
        <time>2018-05-19T12:47:29Z</time>
      </trkpt>
      <trkpt lat="44.09593" lon="3.03742">
        <ele>507.8</ele>
        <time>2018-05-19T12:47:30Z</time>
      </trkpt>
      <trkpt lat="44.09592" lon="3.03749">
        <ele>507.9</ele>
        <time>2018-05-19T12:47:31Z</time>
      </trkpt>
      <trkpt lat="44.09591" lon="3.03754">
        <ele>508</ele>
        <time>2018-05-19T12:47:32Z</time>
      </trkpt>
      <trkpt lat="44.09591" lon="3.03758">
        <ele>508.1</ele>
        <time>2018-05-19T12:47:33Z</time>
      </trkpt>
      <trkpt lat="44.09589" lon="3.03762">
        <ele>507.3</ele>
        <time>2018-05-19T12:47:35Z</time>
      </trkpt>
      <trkpt lat="44.09591" lon="3.03753">
        <ele>507.8</ele>
        <time>2018-05-19T12:48:09Z</time>
      </trkpt>
      <trkpt lat="44.09592" lon="3.03749">
        <ele>507.6</ele>
        <time>2018-05-19T12:48:11Z</time>
      </trkpt>
      <trkpt lat="44.09593" lon="3.03743">
        <ele>507.3</ele>
        <time>2018-05-19T12:48:13Z</time>
      </trkpt>
      <trkpt lat="44.09595" lon="3.03739">
        <ele>507.9</ele>
        <time>2018-05-19T12:48:17Z</time>
      </trkpt>
      <trkpt lat="44.09595" lon="3.03743">
        <ele>508</ele>
        <time>2018-05-19T12:48:33Z</time>
      </trkpt>
      <trkpt lat="44.09596" lon="3.03747">
        <ele>508</ele>
        <time>2018-05-19T12:48:37Z</time>
      </trkpt>
      <trkpt lat="44.09596" lon="3.03752">
        <ele>508.1</ele>
        <time>2018-05-19T12:48:41Z</time>
      </trkpt>
      <trkpt lat="44.09596" lon="3.03756">
        <ele>508.2</ele>
        <time>2018-05-19T12:48:45Z</time>
      </trkpt>
      <trkpt lat="44.09597" lon="3.03761">
        <ele>508.2</ele>
        <time>2018-05-19T12:48:50Z</time>
      </trkpt>
      <trkpt lat="44.09599" lon="3.03764">
        <ele>508.9</ele>
        <time>2018-05-19T12:48:55Z</time>
      </trkpt>
      <trkpt lat="44.09599" lon="3.03768">
        <ele>508.9</ele>
        <time>2018-05-19T12:49:01Z</time>
      </trkpt>
      <trkpt lat="44.09601" lon="3.03773">
        <ele>509.4</ele>
        <time>2018-05-19T12:49:05Z</time>
      </trkpt>
      <trkpt lat="44.09603" lon="3.03776">
        <ele>509.5</ele>
        <time>2018-05-19T12:49:08Z</time>
      </trkpt>
      <trkpt lat="44.09603" lon="3.03781">
        <ele>510.1</ele>
        <time>2018-05-19T12:49:13Z</time>
      </trkpt>
      <trkpt lat="44.09605" lon="3.03785">
        <ele>510</ele>
        <time>2018-05-19T12:49:17Z</time>
      </trkpt>
      <trkpt lat="44.09608" lon="3.03788">
        <ele>510.7</ele>
        <time>2018-05-19T12:49:21Z</time>
      </trkpt>
      <trkpt lat="44.09608" lon="3.03792">
        <ele>510.6</ele>
        <time>2018-05-19T12:49:25Z</time>
      </trkpt>
      <trkpt lat="44.09609" lon="3.03796">
        <ele>510.4</ele>
        <time>2018-05-19T12:49:28Z</time>
      </trkpt>
      <trkpt lat="44.0961" lon="3.038">
        <ele>511.1</ele>
        <time>2018-05-19T12:49:32Z</time>
      </trkpt>
      <trkpt lat="44.0961" lon="3.03804">
        <ele>510.9</ele>
        <time>2018-05-19T12:49:36Z</time>
      </trkpt>
      <trkpt lat="44.0961" lon="3.03808">
        <ele>510.9</ele>
        <time>2018-05-19T12:49:40Z</time>
      </trkpt>
      <trkpt lat="44.09609" lon="3.03812">
        <ele>510.8</ele>
        <time>2018-05-19T12:49:46Z</time>
      </trkpt>
      <trkpt lat="44.09609" lon="3.03818">
        <ele>510.1</ele>
        <time>2018-05-19T12:49:48Z</time>
      </trkpt>
      <trkpt lat="44.09608" lon="3.03825">
        <ele>510</ele>
        <time>2018-05-19T12:49:50Z</time>
      </trkpt>
      <trkpt lat="44.09607" lon="3.03831">
        <ele>509.9</ele>
        <time>2018-05-19T12:49:52Z</time>
      </trkpt>
      <trkpt lat="44.09607" lon="3.03835">
        <ele>509.9</ele>
        <time>2018-05-19T12:49:53Z</time>
      </trkpt>
      <trkpt lat="44.09606" lon="3.03839">
        <ele>509.8</ele>
        <time>2018-05-19T12:49:54Z</time>
      </trkpt>
      <trkpt lat="44.09606" lon="3.03844">
        <ele>509.2</ele>
        <time>2018-05-19T12:49:55Z</time>
      </trkpt>
      <trkpt lat="44.09606" lon="3.03848">
        <ele>509.1</ele>
        <time>2018-05-19T12:49:56Z</time>
      </trkpt>
      <trkpt lat="44.09606" lon="3.03853">
        <ele>509</ele>
        <time>2018-05-19T12:49:57Z</time>
      </trkpt>
      <trkpt lat="44.09606" lon="3.03857">
        <ele>508.8</ele>
        <time>2018-05-19T12:49:58Z</time>
      </trkpt>
      <trkpt lat="44.09606" lon="3.03862">
        <ele>508.6</ele>
        <time>2018-05-19T12:49:59Z</time>
      </trkpt>
      <trkpt lat="44.09606" lon="3.03866">
        <ele>508.4</ele>
        <time>2018-05-19T12:50:00Z</time>
      </trkpt>
      <trkpt lat="44.09606" lon="3.0387">
        <ele>508.1</ele>
        <time>2018-05-19T12:50:01Z</time>
      </trkpt>
      <trkpt lat="44.09607" lon="3.03874">
        <ele>508.4</ele>
        <time>2018-05-19T12:50:02Z</time>
      </trkpt>
      <trkpt lat="44.09608" lon="3.03881">
        <ele>507.9</ele>
        <time>2018-05-19T12:50:04Z</time>
      </trkpt>
      <trkpt lat="44.09609" lon="3.03885">
        <ele>507.6</ele>
        <time>2018-05-19T12:50:05Z</time>
      </trkpt>
      <trkpt lat="44.09609" lon="3.03889">
        <ele>507.3</ele>
        <time>2018-05-19T12:50:06Z</time>
      </trkpt>
      <trkpt lat="44.0961" lon="3.03892">
        <ele>507.4</ele>
        <time>2018-05-19T12:50:07Z</time>
      </trkpt>
      <trkpt lat="44.09612" lon="3.03896">
        <ele>507.4</ele>
        <time>2018-05-19T12:50:08Z</time>
      </trkpt>
      <trkpt lat="44.09614" lon="3.03899">
        <ele>507.5</ele>
        <time>2018-05-19T12:50:09Z</time>
      </trkpt>
      <trkpt lat="44.09616" lon="3.03903">
        <ele>507.5</ele>
        <time>2018-05-19T12:50:10Z</time>
      </trkpt>
      <trkpt lat="44.09619" lon="3.03906">
        <ele>507.4</ele>
        <time>2018-05-19T12:50:11Z</time>
      </trkpt>
      <trkpt lat="44.09622" lon="3.03909">
        <ele>507.1</ele>
        <time>2018-05-19T12:50:12Z</time>
      </trkpt>
      <trkpt lat="44.09625" lon="3.03913">
        <ele>507.3</ele>
        <time>2018-05-19T12:50:13Z</time>
      </trkpt>
      <trkpt lat="44.09628" lon="3.03917">
        <ele>507</ele>
        <time>2018-05-19T12:50:14Z</time>
      </trkpt>
      <trkpt lat="44.09632" lon="3.03923">
        <ele>506.2</ele>
        <time>2018-05-19T12:50:15Z</time>
      </trkpt>
      <trkpt lat="44.09636" lon="3.03927">
        <ele>505.8</ele>
        <time>2018-05-19T12:50:16Z</time>
      </trkpt>
      <trkpt lat="44.0964" lon="3.03931">
        <ele>505.3</ele>
        <time>2018-05-19T12:50:17Z</time>
      </trkpt>
      <trkpt lat="44.09644" lon="3.03934">
        <ele>505.4</ele>
        <time>2018-05-19T12:50:18Z</time>
      </trkpt>
      <trkpt lat="44.09648" lon="3.03935">
        <ele>505.4</ele>
        <time>2018-05-19T12:50:19Z</time>
      </trkpt>
      <trkpt lat="44.09652" lon="3.03935">
        <ele>504.7</ele>
        <time>2018-05-19T12:50:20Z</time>
      </trkpt>
      <trkpt lat="44.09656" lon="3.03936">
        <ele>504.7</ele>
        <time>2018-05-19T12:50:21Z</time>
      </trkpt>
      <trkpt lat="44.0966" lon="3.03937">
        <ele>504.7</ele>
        <time>2018-05-19T12:50:22Z</time>
      </trkpt>
      <trkpt lat="44.09663" lon="3.03938">
        <ele>504.6</ele>
        <time>2018-05-19T12:50:23Z</time>
      </trkpt>
      <trkpt lat="44.09665" lon="3.03936">
        <ele>504.6</ele>
        <time>2018-05-19T12:50:24Z</time>
      </trkpt>
      <trkpt lat="44.09668" lon="3.03934">
        <ele>505.2</ele>
        <time>2018-05-19T12:50:25Z</time>
      </trkpt>
      <trkpt lat="44.09671" lon="3.03932">
        <ele>505.2</ele>
        <time>2018-05-19T12:50:26Z</time>
      </trkpt>
      <trkpt lat="44.09673" lon="3.0393">
        <ele>505.7</ele>
        <time>2018-05-19T12:50:27Z</time>
      </trkpt>
      <trkpt lat="44.09678" lon="3.03929">
        <ele>505.6</ele>
        <time>2018-05-19T12:50:30Z</time>
      </trkpt>
      <trkpt lat="44.09681" lon="3.03931">
        <ele>505.5</ele>
        <time>2018-05-19T12:50:31Z</time>
      </trkpt>
      <trkpt lat="44.09684" lon="3.03933">
        <ele>504.7</ele>
        <time>2018-05-19T12:50:32Z</time>
      </trkpt>
      <trkpt lat="44.09692" lon="3.03937">
        <ele>503.8</ele>
        <time>2018-05-19T12:50:33Z</time>
      </trkpt>
      <trkpt lat="44.09697" lon="3.03939">
        <ele>503.5</ele>
        <time>2018-05-19T12:50:34Z</time>
      </trkpt>
      <trkpt lat="44.09702" lon="3.0394">
        <ele>502.4</ele>
        <time>2018-05-19T12:50:35Z</time>
      </trkpt>
      <trkpt lat="44.09708" lon="3.03939">
        <ele>502.8</ele>
        <time>2018-05-19T12:50:36Z</time>
      </trkpt>
      <trkpt lat="44.09714" lon="3.03938">
        <ele>502.5</ele>
        <time>2018-05-19T12:50:37Z</time>
      </trkpt>
      <trkpt lat="44.0972" lon="3.03938">
        <ele>502.4</ele>
        <time>2018-05-19T12:50:38Z</time>
      </trkpt>
      <trkpt lat="44.09726" lon="3.03937">
        <ele>502.2</ele>
        <time>2018-05-19T12:50:39Z</time>
      </trkpt>
      <trkpt lat="44.09735" lon="3.03936">
        <ele>501.8</ele>
        <time>2018-05-19T12:50:40Z</time>
      </trkpt>
      <trkpt lat="44.09743" lon="3.03935">
        <ele>501.5</ele>
        <time>2018-05-19T12:50:41Z</time>
      </trkpt>
      <trkpt lat="44.09754" lon="3.03933">
        <ele>502.1</ele>
        <time>2018-05-19T12:50:42Z</time>
      </trkpt>
      <trkpt lat="44.09761" lon="3.03933">
        <ele>502.4</ele>
        <time>2018-05-19T12:50:43Z</time>
      </trkpt>
      <trkpt lat="44.0977" lon="3.03933">
        <ele>503.3</ele>
        <time>2018-05-19T12:50:44Z</time>
      </trkpt>
      <trkpt lat="44.09778" lon="3.03934">
        <ele>504.2</ele>
        <time>2018-05-19T12:50:45Z</time>
      </trkpt>
      <trkpt lat="44.09785" lon="3.03933">
        <ele>505.3</ele>
        <time>2018-05-19T12:50:46Z</time>
      </trkpt>
      <trkpt lat="44.09794" lon="3.03933">
        <ele>506.8</ele>
        <time>2018-05-19T12:50:47Z</time>
      </trkpt>
      <trkpt lat="44.09801" lon="3.03932">
        <ele>508.2</ele>
        <time>2018-05-19T12:50:48Z</time>
      </trkpt>
      <trkpt lat="44.09802" lon="3.03929">
        <ele>508.8</ele>
        <time>2018-05-19T12:50:49Z</time>
      </trkpt>
      <trkpt lat="44.09805" lon="3.03927">
        <ele>509.3</ele>
        <time>2018-05-19T12:50:50Z</time>
      </trkpt>
      <trkpt lat="44.09809" lon="3.03925">
        <ele>510.4</ele>
        <time>2018-05-19T12:50:51Z</time>
      </trkpt>
      <trkpt lat="44.09812" lon="3.03927">
        <ele>510.3</ele>
        <time>2018-05-19T12:50:52Z</time>
      </trkpt>
      <trkpt lat="44.09817" lon="3.03931">
        <ele>511.1</ele>
        <time>2018-05-19T12:50:54Z</time>
      </trkpt>
      <trkpt lat="44.0982" lon="3.03934">
        <ele>510.9</ele>
        <time>2018-05-19T12:50:55Z</time>
      </trkpt>
      <trkpt lat="44.09823" lon="3.03936">
        <ele>510.7</ele>
        <time>2018-05-19T12:50:57Z</time>
      </trkpt>
      <trkpt lat="44.09825" lon="3.0394">
        <ele>509.9</ele>
        <time>2018-05-19T12:50:59Z</time>
      </trkpt>
      <trkpt lat="44.09827" lon="3.03945">
        <ele>509.7</ele>
        <time>2018-05-19T12:51:01Z</time>
      </trkpt>
      <trkpt lat="44.09829" lon="3.03951">
        <ele>509.6</ele>
        <time>2018-05-19T12:51:03Z</time>
      </trkpt>
      <trkpt lat="44.09831" lon="3.03957">
        <ele>508.8</ele>
        <time>2018-05-19T12:51:05Z</time>
      </trkpt>
      <trkpt lat="44.09833" lon="3.03961">
        <ele>508.1</ele>
        <time>2018-05-19T12:51:07Z</time>
      </trkpt>
      <trkpt lat="44.09834" lon="3.03965">
        <ele>507.5</ele>
        <time>2018-05-19T12:51:08Z</time>
      </trkpt>
      <trkpt lat="44.09835" lon="3.0397">
        <ele>507.5</ele>
        <time>2018-05-19T12:51:09Z</time>
      </trkpt>
      <trkpt lat="44.09836" lon="3.03974">
        <ele>506.7</ele>
        <time>2018-05-19T12:51:10Z</time>
      </trkpt>
      <trkpt lat="44.0984" lon="3.0398">
        <ele>506.6</ele>
        <time>2018-05-19T12:51:12Z</time>
      </trkpt>
      <trkpt lat="44.09842" lon="3.03982">
        <ele>506.4</ele>
        <time>2018-05-19T12:51:13Z</time>
      </trkpt>
      <trkpt lat="44.09844" lon="3.03985">
        <ele>507</ele>
        <time>2018-05-19T12:51:14Z</time>
      </trkpt>
      <trkpt lat="44.09846" lon="3.03987">
        <ele>506.1</ele>
        <time>2018-05-19T12:51:15Z</time>
      </trkpt>
      <trkpt lat="44.09848" lon="3.0399">
        <ele>506.8</ele>
        <time>2018-05-19T12:51:16Z</time>
      </trkpt>
      <trkpt lat="44.09851" lon="3.03992">
        <ele>506.5</ele>
        <time>2018-05-19T12:51:17Z</time>
      </trkpt>
      <trkpt lat="44.09854" lon="3.03993">
        <ele>507.2</ele>
        <time>2018-05-19T12:51:18Z</time>
      </trkpt>
      <trkpt lat="44.09857" lon="3.03994">
        <ele>507.9</ele>
        <time>2018-05-19T12:51:19Z</time>
      </trkpt>
      <trkpt lat="44.0986" lon="3.03995">
        <ele>507.6</ele>
        <time>2018-05-19T12:51:20Z</time>
      </trkpt>
      <trkpt lat="44.09863" lon="3.03997">
        <ele>508.3</ele>
        <time>2018-05-19T12:51:21Z</time>
      </trkpt>
      <trkpt lat="44.09866" lon="3.03998">
        <ele>509</ele>
        <time>2018-05-19T12:51:22Z</time>
      </trkpt>
      <trkpt lat="44.0987" lon="3.03999">
        <ele>509.6</ele>
        <time>2018-05-19T12:51:23Z</time>
      </trkpt>
      <trkpt lat="44.09874" lon="3.04">
        <ele>509.3</ele>
        <time>2018-05-19T12:51:24Z</time>
      </trkpt>
      <trkpt lat="44.09877" lon="3.04001">
        <ele>509.9</ele>
        <time>2018-05-19T12:51:25Z</time>
      </trkpt>
      <trkpt lat="44.09881" lon="3.04003">
        <ele>511.1</ele>
        <time>2018-05-19T12:51:26Z</time>
      </trkpt>
      <trkpt lat="44.09885" lon="3.04004">
        <ele>510.7</ele>
        <time>2018-05-19T12:51:27Z</time>
      </trkpt>
      <trkpt lat="44.09889" lon="3.04006">
        <ele>511.4</ele>
        <time>2018-05-19T12:51:28Z</time>
      </trkpt>
      <trkpt lat="44.09893" lon="3.04008">
        <ele>511.7</ele>
        <time>2018-05-19T12:51:29Z</time>
      </trkpt>
      <trkpt lat="44.09897" lon="3.0401">
        <ele>512.3</ele>
        <time>2018-05-19T12:51:30Z</time>
      </trkpt>
      <trkpt lat="44.09901" lon="3.04011">
        <ele>512.9</ele>
        <time>2018-05-19T12:51:31Z</time>
      </trkpt>
      <trkpt lat="44.09904" lon="3.04013">
        <ele>512.3</ele>
        <time>2018-05-19T12:51:32Z</time>
      </trkpt>
      <trkpt lat="44.09907" lon="3.04015">
        <ele>512.8</ele>
        <time>2018-05-19T12:51:33Z</time>
      </trkpt>
      <trkpt lat="44.0991" lon="3.04017">
        <ele>512.1</ele>
        <time>2018-05-19T12:51:34Z</time>
      </trkpt>
      <trkpt lat="44.09913" lon="3.04018">
        <ele>512.7</ele>
        <time>2018-05-19T12:51:35Z</time>
      </trkpt>
      <trkpt lat="44.09915" lon="3.04019">
        <ele>513.3</ele>
        <time>2018-05-19T12:51:36Z</time>
      </trkpt>
      <trkpt lat="44.09921" lon="3.0402">
        <ele>514.5</ele>
        <time>2018-05-19T12:51:38Z</time>
      </trkpt>
      <trkpt lat="44.09924" lon="3.04021">
        <ele>514.5</ele>
        <time>2018-05-19T12:51:39Z</time>
      </trkpt>
      <trkpt lat="44.09928" lon="3.04021">
        <ele>514.2</ele>
        <time>2018-05-19T12:51:41Z</time>
      </trkpt>
      <trkpt lat="44.09931" lon="3.04022">
        <ele>514.7</ele>
        <time>2018-05-19T12:51:43Z</time>
      </trkpt>
      <trkpt lat="44.09934" lon="3.04023">
        <ele>515.2</ele>
        <time>2018-05-19T12:51:45Z</time>
      </trkpt>
      <trkpt lat="44.09938" lon="3.04023">
        <ele>515.7</ele>
        <time>2018-05-19T12:51:47Z</time>
      </trkpt>
      <trkpt lat="44.09941" lon="3.04022">
        <ele>516.3</ele>
        <time>2018-05-19T12:51:52Z</time>
      </trkpt>
      <trkpt lat="44.09943" lon="3.04025">
        <ele>515.5</ele>
        <time>2018-05-19T12:52:00Z</time>
      </trkpt>
      <trkpt lat="44.09945" lon="3.04028">
        <ele>516.1</ele>
        <time>2018-05-19T12:52:05Z</time>
      </trkpt>
      <trkpt lat="44.09948" lon="3.04027">
        <ele>516.1</ele>
        <time>2018-05-19T12:52:09Z</time>
      </trkpt>
      <trkpt lat="44.09951" lon="3.04027">
        <ele>516.7</ele>
        <time>2018-05-19T12:52:14Z</time>
      </trkpt>
      <trkpt lat="44.09954" lon="3.04027">
        <ele>517.2</ele>
        <time>2018-05-19T12:52:17Z</time>
      </trkpt>
      <trkpt lat="44.09957" lon="3.04027">
        <ele>517.6</ele>
        <time>2018-05-19T12:52:22Z</time>
      </trkpt>
      <trkpt lat="44.09958" lon="3.04024">
        <ele>519.4</ele>
        <time>2018-05-19T12:52:27Z</time>
      </trkpt>
      <trkpt lat="44.09963" lon="3.0403">
        <ele>517.1</ele>
        <time>2018-05-19T12:53:30Z</time>
      </trkpt>
      <trkpt lat="44.09965" lon="3.04027">
        <ele>518.9</ele>
        <time>2018-05-19T12:53:51Z</time>
      </trkpt>
      <trkpt lat="44.09968" lon="3.04027">
        <ele>519.4</ele>
        <time>2018-05-19T12:53:53Z</time>
      </trkpt>
      <trkpt lat="44.09972" lon="3.04028">
        <ele>519.8</ele>
        <time>2018-05-19T12:53:56Z</time>
      </trkpt>
      <trkpt lat="44.09974" lon="3.04029">
        <ele>520.2</ele>
        <time>2018-05-19T12:53:58Z</time>
      </trkpt>
      <trkpt lat="44.09979" lon="3.04029">
        <ele>520.9</ele>
        <time>2018-05-19T12:54:00Z</time>
      </trkpt>
      <trkpt lat="44.09984" lon="3.04028">
        <ele>521.2</ele>
        <time>2018-05-19T12:54:02Z</time>
      </trkpt>
      <trkpt lat="44.09988" lon="3.04029">
        <ele>521.5</ele>
        <time>2018-05-19T12:54:04Z</time>
      </trkpt>
      <trkpt lat="44.09991" lon="3.04029">
        <ele>521.9</ele>
        <time>2018-05-19T12:54:05Z</time>
      </trkpt>
      <trkpt lat="44.09995" lon="3.04031">
        <ele>521.2</ele>
        <time>2018-05-19T12:54:06Z</time>
      </trkpt>
      <trkpt lat="44.09998" lon="3.04032">
        <ele>521.6</ele>
        <time>2018-05-19T12:54:07Z</time>
      </trkpt>
      <trkpt lat="44.10002" lon="3.04034">
        <ele>520.7</ele>
        <time>2018-05-19T12:54:08Z</time>
      </trkpt>
      <trkpt lat="44.10005" lon="3.04036">
        <ele>521.1</ele>
        <time>2018-05-19T12:54:09Z</time>
      </trkpt>
      <trkpt lat="44.10009" lon="3.0404">
        <ele>520.3</ele>
        <time>2018-05-19T12:54:11Z</time>
      </trkpt>
      <trkpt lat="44.10012" lon="3.04042">
        <ele>520.7</ele>
        <time>2018-05-19T12:54:12Z</time>
      </trkpt>
      <trkpt lat="44.10016" lon="3.04044">
        <ele>520.3</ele>
        <time>2018-05-19T12:54:13Z</time>
      </trkpt>
      <trkpt lat="44.1002" lon="3.04045">
        <ele>520.6</ele>
        <time>2018-05-19T12:54:14Z</time>
      </trkpt>
      <trkpt lat="44.10024" lon="3.04045">
        <ele>521</ele>
        <time>2018-05-19T12:54:15Z</time>
      </trkpt>
      <trkpt lat="44.10028" lon="3.04046">
        <ele>521.4</ele>
        <time>2018-05-19T12:54:16Z</time>
      </trkpt>
      <trkpt lat="44.10031" lon="3.04048">
        <ele>520.6</ele>
        <time>2018-05-19T12:54:17Z</time>
      </trkpt>
      <trkpt lat="44.10035" lon="3.0405">
        <ele>521.4</ele>
        <time>2018-05-19T12:54:18Z</time>
      </trkpt>
      <trkpt lat="44.10039" lon="3.04052">
        <ele>520.5</ele>
        <time>2018-05-19T12:54:19Z</time>
      </trkpt>
      <trkpt lat="44.10042" lon="3.04053">
        <ele>520.8</ele>
        <time>2018-05-19T12:54:20Z</time>
      </trkpt>
      <trkpt lat="44.10045" lon="3.04053">
        <ele>521.1</ele>
        <time>2018-05-19T12:54:21Z</time>
      </trkpt>
      <trkpt lat="44.10047" lon="3.04054">
        <ele>521.5</ele>
        <time>2018-05-19T12:54:22Z</time>
      </trkpt>
      <trkpt lat="44.1005" lon="3.04056">
        <ele>520.7</ele>
        <time>2018-05-19T12:54:23Z</time>
      </trkpt>
      <trkpt lat="44.10053" lon="3.04057">
        <ele>520.7</ele>
        <time>2018-05-19T12:54:24Z</time>
      </trkpt>
      <trkpt lat="44.10057" lon="3.04061">
        <ele>520.2</ele>
        <time>2018-05-19T12:54:26Z</time>
      </trkpt>
      <trkpt lat="44.10061" lon="3.04064">
        <ele>519.4</ele>
        <time>2018-05-19T12:54:28Z</time>
      </trkpt>
      <trkpt lat="44.10065" lon="3.04065">
        <ele>519.6</ele>
        <time>2018-05-19T12:54:30Z</time>
      </trkpt>
      <trkpt lat="44.10069" lon="3.04065">
        <ele>520</ele>
        <time>2018-05-19T12:54:32Z</time>
      </trkpt>
      <trkpt lat="44.10073" lon="3.04065">
        <ele>520.2</ele>
        <time>2018-05-19T12:54:34Z</time>
      </trkpt>
      <trkpt lat="44.10078" lon="3.04065">
        <ele>520.5</ele>
        <time>2018-05-19T12:54:36Z</time>
      </trkpt>
      <trkpt lat="44.10082" lon="3.04065">
        <ele>520.6</ele>
        <time>2018-05-19T12:54:38Z</time>
      </trkpt>
      <trkpt lat="44.10084" lon="3.04066">
        <ele>520.7</ele>
        <time>2018-05-19T12:54:40Z</time>
      </trkpt>
      <trkpt lat="44.10087" lon="3.04069">
        <ele>519.7</ele>
        <time>2018-05-19T12:54:42Z</time>
      </trkpt>
      <trkpt lat="44.10091" lon="3.0407">
        <ele>519.9</ele>
        <time>2018-05-19T12:54:44Z</time>
      </trkpt>
      <trkpt lat="44.10094" lon="3.0407">
        <ele>520</ele>
        <time>2018-05-19T12:54:46Z</time>
      </trkpt>
      <trkpt lat="44.10098" lon="3.0407">
        <ele>520.1</ele>
        <time>2018-05-19T12:54:48Z</time>
      </trkpt>
      <trkpt lat="44.10103" lon="3.0407">
        <ele>520.5</ele>
        <time>2018-05-19T12:54:50Z</time>
      </trkpt>
      <trkpt lat="44.10108" lon="3.04069">
        <ele>520.7</ele>
        <time>2018-05-19T12:54:52Z</time>
      </trkpt>
      <trkpt lat="44.10111" lon="3.04069">
        <ele>520.9</ele>
        <time>2018-05-19T12:54:54Z</time>
      </trkpt>
      <trkpt lat="44.10114" lon="3.04069">
        <ele>521.2</ele>
        <time>2018-05-19T12:54:56Z</time>
      </trkpt>
      <trkpt lat="44.10117" lon="3.04069">
        <ele>521.4</ele>
        <time>2018-05-19T12:54:59Z</time>
      </trkpt>
      <trkpt lat="44.1012" lon="3.04068">
        <ele>522.7</ele>
        <time>2018-05-19T12:55:05Z</time>
      </trkpt>
      <trkpt lat="44.10123" lon="3.04067">
        <ele>522.9</ele>
        <time>2018-05-19T12:55:20Z</time>
      </trkpt>
      <trkpt lat="44.10126" lon="3.04069">
        <ele>522</ele>
        <time>2018-05-19T12:55:22Z</time>
      </trkpt>
      <trkpt lat="44.10128" lon="3.04073">
        <ele>521.2</ele>
        <time>2018-05-19T12:55:24Z</time>
      </trkpt>
      <trkpt lat="44.10129" lon="3.04077">
        <ele>521.2</ele>
        <time>2018-05-19T12:55:26Z</time>
      </trkpt>
      <trkpt lat="44.10133" lon="3.0408">
        <ele>520.3</ele>
        <time>2018-05-19T12:55:28Z</time>
      </trkpt>
      <trkpt lat="44.10137" lon="3.04084">
        <ele>519.5</ele>
        <time>2018-05-19T12:55:30Z</time>
      </trkpt>
      <trkpt lat="44.1014" lon="3.04087">
        <ele>518.6</ele>
        <time>2018-05-19T12:55:31Z</time>
      </trkpt>
      <trkpt lat="44.10144" lon="3.0409">
        <ele>517.8</ele>
        <time>2018-05-19T12:55:32Z</time>
      </trkpt>
      <trkpt lat="44.10148" lon="3.04093">
        <ele>518</ele>
        <time>2018-05-19T12:55:33Z</time>
      </trkpt>
      <trkpt lat="44.10155" lon="3.04098">
        <ele>517.6</ele>
        <time>2018-05-19T12:55:34Z</time>
      </trkpt>
      <trkpt lat="44.1016" lon="3.04101">
        <ele>517</ele>
        <time>2018-05-19T12:55:35Z</time>
      </trkpt>
      <trkpt lat="44.10164" lon="3.04105">
        <ele>516.7</ele>
        <time>2018-05-19T12:55:36Z</time>
      </trkpt>
      <trkpt lat="44.10167" lon="3.04108">
        <ele>516.1</ele>
        <time>2018-05-19T12:55:37Z</time>
      </trkpt>
      <trkpt lat="44.10171" lon="3.04111">
        <ele>516.4</ele>
        <time>2018-05-19T12:55:38Z</time>
      </trkpt>
      <trkpt lat="44.10176" lon="3.04114">
        <ele>516.1</ele>
        <time>2018-05-19T12:55:39Z</time>
      </trkpt>
      <trkpt lat="44.1018" lon="3.04119">
        <ele>515.5</ele>
        <time>2018-05-19T12:55:40Z</time>
      </trkpt>
      <trkpt lat="44.10184" lon="3.04124">
        <ele>515</ele>
        <time>2018-05-19T12:55:41Z</time>
      </trkpt>
      <trkpt lat="44.10187" lon="3.04128">
        <ele>514.6</ele>
        <time>2018-05-19T12:55:42Z</time>
      </trkpt>
      <trkpt lat="44.10191" lon="3.04132">
        <ele>514.2</ele>
        <time>2018-05-19T12:55:43Z</time>
      </trkpt>
      <trkpt lat="44.10197" lon="3.04136">
        <ele>514.4</ele>
        <time>2018-05-19T12:55:44Z</time>
      </trkpt>
      <trkpt lat="44.10201" lon="3.0414">
        <ele>514.2</ele>
        <time>2018-05-19T12:55:45Z</time>
      </trkpt>
      <trkpt lat="44.10203" lon="3.04143">
        <ele>514</ele>
        <time>2018-05-19T12:55:46Z</time>
      </trkpt>
      <trkpt lat="44.10206" lon="3.04146">
        <ele>513.8</ele>
        <time>2018-05-19T12:55:47Z</time>
      </trkpt>
      <trkpt lat="44.1021" lon="3.04153">
        <ele>513.6</ele>
        <time>2018-05-19T12:55:48Z</time>
      </trkpt>
      <trkpt lat="44.10212" lon="3.04161">
        <ele>512.7</ele>
        <time>2018-05-19T12:55:49Z</time>
      </trkpt>
      <trkpt lat="44.10217" lon="3.04166">
        <ele>512.9</ele>
        <time>2018-05-19T12:55:50Z</time>
      </trkpt>
      <trkpt lat="44.1022" lon="3.04169">
        <ele>512.7</ele>
        <time>2018-05-19T12:55:51Z</time>
      </trkpt>
      <trkpt lat="44.10222" lon="3.04176">
        <ele>511.4</ele>
        <time>2018-05-19T12:55:52Z</time>
      </trkpt>
      <trkpt lat="44.10224" lon="3.04179">
        <ele>511.9</ele>
        <time>2018-05-19T12:55:53Z</time>
      </trkpt>
      <trkpt lat="44.10227" lon="3.04185">
        <ele>511.2</ele>
        <time>2018-05-19T12:55:54Z</time>
      </trkpt>
      <trkpt lat="44.10232" lon="3.04191">
        <ele>511.5</ele>
        <time>2018-05-19T12:55:55Z</time>
      </trkpt>
      <trkpt lat="44.10237" lon="3.04195">
        <ele>511.3</ele>
        <time>2018-05-19T12:55:56Z</time>
      </trkpt>
      <trkpt lat="44.10242" lon="3.042">
        <ele>511.4</ele>
        <time>2018-05-19T12:55:57Z</time>
      </trkpt>
      <trkpt lat="44.10248" lon="3.04203">
        <ele>511.4</ele>
        <time>2018-05-19T12:55:58Z</time>
      </trkpt>
      <trkpt lat="44.10252" lon="3.04206">
        <ele>511.1</ele>
        <time>2018-05-19T12:55:59Z</time>
      </trkpt>
      <trkpt lat="44.10257" lon="3.0421">
        <ele>511.6</ele>
        <time>2018-05-19T12:56:00Z</time>
      </trkpt>
      <trkpt lat="44.10261" lon="3.04215">
        <ele>510.6</ele>
        <time>2018-05-19T12:56:01Z</time>
      </trkpt>
      <trkpt lat="44.10265" lon="3.04221">
        <ele>510.2</ele>
        <time>2018-05-19T12:56:02Z</time>
      </trkpt>
      <trkpt lat="44.1027" lon="3.04226">
        <ele>510.1</ele>
        <time>2018-05-19T12:56:03Z</time>
      </trkpt>
      <trkpt lat="44.10277" lon="3.04229">
        <ele>510</ele>
        <time>2018-05-19T12:56:04Z</time>
      </trkpt>
      <trkpt lat="44.10282" lon="3.04233">
        <ele>510</ele>
        <time>2018-05-19T12:56:05Z</time>
      </trkpt>
      <trkpt lat="44.10288" lon="3.0424">
        <ele>509.8</ele>
        <time>2018-05-19T12:56:06Z</time>
      </trkpt>
      <trkpt lat="44.10293" lon="3.04246">
        <ele>508.9</ele>
        <time>2018-05-19T12:56:07Z</time>
      </trkpt>
      <trkpt lat="44.10298" lon="3.04248">
        <ele>509</ele>
        <time>2018-05-19T12:56:08Z</time>
      </trkpt>
      <trkpt lat="44.10302" lon="3.04253">
        <ele>508.1</ele>
        <time>2018-05-19T12:56:09Z</time>
      </trkpt>
      <trkpt lat="44.10307" lon="3.04259">
        <ele>507.6</ele>
        <time>2018-05-19T12:56:10Z</time>
      </trkpt>
      <trkpt lat="44.10311" lon="3.04263">
        <ele>507.2</ele>
        <time>2018-05-19T12:56:11Z</time>
      </trkpt>
      <trkpt lat="44.10319" lon="3.04267">
        <ele>506.8</ele>
        <time>2018-05-19T12:56:12Z</time>
      </trkpt>
      <trkpt lat="44.10327" lon="3.04271">
        <ele>506.5</ele>
        <time>2018-05-19T12:56:13Z</time>
      </trkpt>
      <trkpt lat="44.10336" lon="3.04272">
        <ele>506.4</ele>
        <time>2018-05-19T12:56:14Z</time>
      </trkpt>
      <trkpt lat="44.10345" lon="3.04274">
        <ele>506.1</ele>
        <time>2018-05-19T12:56:15Z</time>
      </trkpt>
      <trkpt lat="44.10347" lon="3.04276">
        <ele>505.7</ele>
        <time>2018-05-19T12:56:16Z</time>
      </trkpt>
      <trkpt lat="44.10351" lon="3.04279">
        <ele>505.3</ele>
        <time>2018-05-19T12:56:17Z</time>
      </trkpt>
      <trkpt lat="44.10355" lon="3.04283">
        <ele>504.9</ele>
        <time>2018-05-19T12:56:18Z</time>
      </trkpt>
      <trkpt lat="44.1036" lon="3.04286">
        <ele>504.8</ele>
        <time>2018-05-19T12:56:20Z</time>
      </trkpt>
      <trkpt lat="44.10364" lon="3.04286">
        <ele>504.7</ele>
        <time>2018-05-19T12:56:26Z</time>
      </trkpt>
      <trkpt lat="44.10362" lon="3.0429">
        <ele>504.4</ele>
        <time>2018-05-19T12:56:34Z</time>
      </trkpt>
      <trkpt lat="44.10359" lon="3.04291">
        <ele>504.5</ele>
        <time>2018-05-19T12:56:50Z</time>
      </trkpt>
      <trkpt lat="44.10356" lon="3.04287">
        <ele>504.6</ele>
        <time>2018-05-19T12:56:59Z</time>
      </trkpt>
      <trkpt lat="44.10355" lon="3.04283">
        <ele>505</ele>
        <time>2018-05-19T12:57:01Z</time>
      </trkpt>
      <trkpt lat="44.10352" lon="3.0428">
        <ele>505.2</ele>
        <time>2018-05-19T12:57:03Z</time>
      </trkpt>
      <trkpt lat="44.10349" lon="3.04279">
        <ele>505.3</ele>
        <time>2018-05-19T12:57:05Z</time>
      </trkpt>
      <trkpt lat="44.10347" lon="3.04278">
        <ele>505.7</ele>
        <time>2018-05-19T12:57:09Z</time>
      </trkpt>
      <trkpt lat="44.10354" lon="3.04284">
        <ele>505</ele>
        <time>2018-05-19T12:58:05Z</time>
      </trkpt>
      <trkpt lat="44.10356" lon="3.04287">
        <ele>504.9</ele>
        <time>2018-05-19T12:58:07Z</time>
      </trkpt>
      <trkpt lat="44.1036" lon="3.04289">
        <ele>504.5</ele>
        <time>2018-05-19T12:58:09Z</time>
      </trkpt>
      <trkpt lat="44.10362" lon="3.04291">
        <ele>504.4</ele>
        <time>2018-05-19T12:58:10Z</time>
      </trkpt>
      <trkpt lat="44.10365" lon="3.04293">
        <ele>504.1</ele>
        <time>2018-05-19T12:58:11Z</time>
      </trkpt>
      <trkpt lat="44.10367" lon="3.04296">
        <ele>504.1</ele>
        <time>2018-05-19T12:58:12Z</time>
      </trkpt>
      <trkpt lat="44.1037" lon="3.04299">
        <ele>503.8</ele>
        <time>2018-05-19T12:58:13Z</time>
      </trkpt>
      <trkpt lat="44.10373" lon="3.04303">
        <ele>503.5</ele>
        <time>2018-05-19T12:58:14Z</time>
      </trkpt>
      <trkpt lat="44.10375" lon="3.04306">
        <ele>503.2</ele>
        <time>2018-05-19T12:58:15Z</time>
      </trkpt>
      <trkpt lat="44.10378" lon="3.0431">
        <ele>503</ele>
        <time>2018-05-19T12:58:16Z</time>
      </trkpt>
      <trkpt lat="44.1038" lon="3.04312">
        <ele>503</ele>
        <time>2018-05-19T12:58:17Z</time>
      </trkpt>
      <trkpt lat="44.10383" lon="3.04317">
        <ele>502.6</ele>
        <time>2018-05-19T12:58:19Z</time>
      </trkpt>
      <trkpt lat="44.10387" lon="3.04322">
        <ele>501.9</ele>
        <time>2018-05-19T12:58:21Z</time>
      </trkpt>
      <trkpt lat="44.1039" lon="3.04325">
        <ele>501.8</ele>
        <time>2018-05-19T12:58:23Z</time>
      </trkpt>
      <trkpt lat="44.10392" lon="3.04328">
        <ele>501.6</ele>
        <time>2018-05-19T12:58:25Z</time>
      </trkpt>
      <trkpt lat="44.10392" lon="3.04332">
        <ele>501.3</ele>
        <time>2018-05-19T12:58:31Z</time>
      </trkpt>
      <trkpt lat="44.10396" lon="3.04333">
        <ele>501.3</ele>
        <time>2018-05-19T12:58:43Z</time>
      </trkpt>
      <trkpt lat="44.10398" lon="3.04332">
        <ele>501.3</ele>
        <time>2018-05-19T12:58:47Z</time>
      </trkpt>
      <trkpt lat="44.10401" lon="3.04334">
        <ele>501</ele>
        <time>2018-05-19T12:58:53Z</time>
      </trkpt>
      <trkpt lat="44.10404" lon="3.04337">
        <ele>501</ele>
        <time>2018-05-19T12:58:59Z</time>
      </trkpt>
      <trkpt lat="44.10401" lon="3.04338">
        <ele>501</ele>
        <time>2018-05-19T12:59:16Z</time>
      </trkpt>
      <trkpt lat="44.10398" lon="3.04336">
        <ele>501</ele>
        <time>2018-05-19T12:59:19Z</time>
      </trkpt>
      <trkpt lat="44.10395" lon="3.04338">
        <ele>501</ele>
        <time>2018-05-19T12:59:23Z</time>
      </trkpt>
      <trkpt lat="44.10398" lon="3.0434">
        <ele>500.9</ele>
        <time>2018-05-19T12:59:48Z</time>
      </trkpt>
      <trkpt lat="44.104" lon="3.04337">
        <ele>501</ele>
        <time>2018-05-19T12:59:53Z</time>
      </trkpt>
      <trkpt lat="44.10397" lon="3.04338">
        <ele>501</ele>
        <time>2018-05-19T13:00:19Z</time>
      </trkpt>
      <trkpt lat="44.10399" lon="3.04335">
        <ele>501</ele>
        <time>2018-05-19T13:00:30Z</time>
      </trkpt>
      <trkpt lat="44.10402" lon="3.04337">
        <ele>501</ele>
        <time>2018-05-19T13:00:34Z</time>
      </trkpt>
      <trkpt lat="44.10404" lon="3.0434">
        <ele>500.9</ele>
        <time>2018-05-19T13:00:37Z</time>
      </trkpt>
      <trkpt lat="44.10406" lon="3.04344">
        <ele>500.8</ele>
        <time>2018-05-19T13:00:42Z</time>
      </trkpt>
      <trkpt lat="44.10408" lon="3.04347">
        <ele>500.9</ele>
        <time>2018-05-19T13:00:59Z</time>
      </trkpt>
      <trkpt lat="44.10405" lon="3.0435">
        <ele>500.9</ele>
        <time>2018-05-19T13:01:03Z</time>
      </trkpt>
      <trkpt lat="44.10404" lon="3.04354">
        <ele>501</ele>
        <time>2018-05-19T13:01:06Z</time>
      </trkpt>
      <trkpt lat="44.10404" lon="3.04359">
        <ele>501.2</ele>
        <time>2018-05-19T13:01:10Z</time>
      </trkpt>
      <trkpt lat="44.10402" lon="3.04362">
        <ele>501.5</ele>
        <time>2018-05-19T13:01:14Z</time>
      </trkpt>
      <trkpt lat="44.10402" lon="3.04366">
        <ele>501.8</ele>
        <time>2018-05-19T13:01:17Z</time>
      </trkpt>
      <trkpt lat="44.10403" lon="3.04371">
        <ele>502.1</ele>
        <time>2018-05-19T13:01:20Z</time>
      </trkpt>
      <trkpt lat="44.10404" lon="3.04376">
        <ele>502.4</ele>
        <time>2018-05-19T13:01:23Z</time>
      </trkpt>
      <trkpt lat="44.10404" lon="3.04381">
        <ele>502.6</ele>
        <time>2018-05-19T13:01:27Z</time>
      </trkpt>
      <trkpt lat="44.10405" lon="3.04385">
        <ele>502.9</ele>
        <time>2018-05-19T13:01:31Z</time>
      </trkpt>
      <trkpt lat="44.10406" lon="3.04389">
        <ele>503.1</ele>
        <time>2018-05-19T13:01:37Z</time>
      </trkpt>
      <trkpt lat="44.10407" lon="3.04393">
        <ele>503.3</ele>
        <time>2018-05-19T13:01:42Z</time>
      </trkpt>
      <trkpt lat="44.10409" lon="3.04398">
        <ele>503.4</ele>
        <time>2018-05-19T13:01:46Z</time>
      </trkpt>
      <trkpt lat="44.1041" lon="3.04401">
        <ele>503.6</ele>
        <time>2018-05-19T13:01:50Z</time>
      </trkpt>
      <trkpt lat="44.10412" lon="3.04405">
        <ele>503.8</ele>
        <time>2018-05-19T13:01:54Z</time>
      </trkpt>
      <trkpt lat="44.10415" lon="3.04408">
        <ele>504</ele>
        <time>2018-05-19T13:01:58Z</time>
      </trkpt>
      <trkpt lat="44.10417" lon="3.04411">
        <ele>504</ele>
        <time>2018-05-19T13:02:06Z</time>
      </trkpt>
      <trkpt lat="44.10418" lon="3.04415">
        <ele>504.2</ele>
        <time>2018-05-19T13:02:10Z</time>
      </trkpt>
      <trkpt lat="44.1042" lon="3.0442">
        <ele>504.5</ele>
        <time>2018-05-19T13:02:14Z</time>
      </trkpt>
      <trkpt lat="44.1042" lon="3.04423">
        <ele>504.8</ele>
        <time>2018-05-19T13:02:17Z</time>
      </trkpt>
      <trkpt lat="44.10421" lon="3.04428">
        <ele>505.1</ele>
        <time>2018-05-19T13:02:21Z</time>
      </trkpt>
      <trkpt lat="44.10422" lon="3.04432">
        <ele>505.4</ele>
        <time>2018-05-19T13:02:24Z</time>
      </trkpt>
      <trkpt lat="44.10423" lon="3.04436">
        <ele>505.7</ele>
        <time>2018-05-19T13:02:28Z</time>
      </trkpt>
      <trkpt lat="44.10425" lon="3.0444">
        <ele>506</ele>
        <time>2018-05-19T13:02:33Z</time>
      </trkpt>
      <trkpt lat="44.10422" lon="3.0444">
        <ele>506</ele>
        <time>2018-05-19T13:02:52Z</time>
      </trkpt>
      <trkpt lat="44.10415" lon="3.04436">
        <ele>505.7</ele>
        <time>2018-05-19T13:03:49Z</time>
      </trkpt>
      <trkpt lat="44.10412" lon="3.04433">
        <ele>505.4</ele>
        <time>2018-05-19T13:03:50Z</time>
      </trkpt>
      <trkpt lat="44.10408" lon="3.04429">
        <ele>505.1</ele>
        <time>2018-05-19T13:03:51Z</time>
      </trkpt>
      <trkpt lat="44.10401" lon="3.04422">
        <ele>504.9</ele>
        <time>2018-05-19T13:03:52Z</time>
      </trkpt>
      <trkpt lat="44.10397" lon="3.04418">
        <ele>504.8</ele>
        <time>2018-05-19T13:03:53Z</time>
      </trkpt>
      <trkpt lat="44.10391" lon="3.04413">
        <ele>504.7</ele>
        <time>2018-05-19T13:03:54Z</time>
      </trkpt>
      <trkpt lat="44.10386" lon="3.04409">
        <ele>504.6</ele>
        <time>2018-05-19T13:03:55Z</time>
      </trkpt>
      <trkpt lat="44.10379" lon="3.04405">
        <ele>504.4</ele>
        <time>2018-05-19T13:03:56Z</time>
      </trkpt>
      <trkpt lat="44.10373" lon="3.04402">
        <ele>504.3</ele>
        <time>2018-05-19T13:03:57Z</time>
      </trkpt>
      <trkpt lat="44.10367" lon="3.04398">
        <ele>504.2</ele>
        <time>2018-05-19T13:03:58Z</time>
      </trkpt>
      <trkpt lat="44.10358" lon="3.04395">
        <ele>504.3</ele>
        <time>2018-05-19T13:03:59Z</time>
      </trkpt>
      <trkpt lat="44.10351" lon="3.04391">
        <ele>504.2</ele>
        <time>2018-05-19T13:04:00Z</time>
      </trkpt>
      <trkpt lat="44.10345" lon="3.0439">
        <ele>504.2</ele>
        <time>2018-05-19T13:04:01Z</time>
      </trkpt>
      <trkpt lat="44.10341" lon="3.04393">
        <ele>504.3</ele>
        <time>2018-05-19T13:04:02Z</time>
      </trkpt>
      <trkpt lat="44.10337" lon="3.04395">
        <ele>504.3</ele>
        <time>2018-05-19T13:04:03Z</time>
      </trkpt>
      <trkpt lat="44.10329" lon="3.04393">
        <ele>504.3</ele>
        <time>2018-05-19T13:04:04Z</time>
      </trkpt>
      <trkpt lat="44.10324" lon="3.04393">
        <ele>504.3</ele>
        <time>2018-05-19T13:04:05Z</time>
      </trkpt>
      <trkpt lat="44.10318" lon="3.04391">
        <ele>504.2</ele>
        <time>2018-05-19T13:04:06Z</time>
      </trkpt>
      <trkpt lat="44.10313" lon="3.04391">
        <ele>504.2</ele>
        <time>2018-05-19T13:04:07Z</time>
      </trkpt>
      <trkpt lat="44.10308" lon="3.0439">
        <ele>504.1</ele>
        <time>2018-05-19T13:04:08Z</time>
      </trkpt>
      <trkpt lat="44.10303" lon="3.04389">
        <ele>504.1</ele>
        <time>2018-05-19T13:04:09Z</time>
      </trkpt>
      <trkpt lat="44.10297" lon="3.04389">
        <ele>504.1</ele>
        <time>2018-05-19T13:04:10Z</time>
      </trkpt>
      <trkpt lat="44.10293" lon="3.0439">
        <ele>504.2</ele>
        <time>2018-05-19T13:04:11Z</time>
      </trkpt>
      <trkpt lat="44.10287" lon="3.0439">
        <ele>504.2</ele>
        <time>2018-05-19T13:04:12Z</time>
      </trkpt>
      <trkpt lat="44.10283" lon="3.0439">
        <ele>504.1</ele>
        <time>2018-05-19T13:04:13Z</time>
      </trkpt>
      <trkpt lat="44.10277" lon="3.04389">
        <ele>504.2</ele>
        <time>2018-05-19T13:04:14Z</time>
      </trkpt>
      <trkpt lat="44.10273" lon="3.04388">
        <ele>504.3</ele>
        <time>2018-05-19T13:04:15Z</time>
      </trkpt>
      <trkpt lat="44.10268" lon="3.04386">
        <ele>504.2</ele>
        <time>2018-05-19T13:04:16Z</time>
      </trkpt>
      <trkpt lat="44.10264" lon="3.04383">
        <ele>504.2</ele>
        <time>2018-05-19T13:04:17Z</time>
      </trkpt>
      <trkpt lat="44.1026" lon="3.0438">
        <ele>504</ele>
        <time>2018-05-19T13:04:18Z</time>
      </trkpt>
      <trkpt lat="44.10255" lon="3.04377">
        <ele>503.8</ele>
        <time>2018-05-19T13:04:19Z</time>
      </trkpt>
      <trkpt lat="44.10252" lon="3.04375">
        <ele>503.8</ele>
        <time>2018-05-19T13:04:20Z</time>
      </trkpt>
      <trkpt lat="44.10245" lon="3.04372">
        <ele>503.7</ele>
        <time>2018-05-19T13:04:22Z</time>
      </trkpt>
      <trkpt lat="44.1024" lon="3.0437">
        <ele>504</ele>
        <time>2018-05-19T13:04:23Z</time>
      </trkpt>
      <trkpt lat="44.10236" lon="3.04369">
        <ele>504.1</ele>
        <time>2018-05-19T13:04:24Z</time>
      </trkpt>
      <trkpt lat="44.10231" lon="3.04366">
        <ele>504.3</ele>
        <time>2018-05-19T13:04:25Z</time>
      </trkpt>
      <trkpt lat="44.10226" lon="3.04364">
        <ele>504.4</ele>
        <time>2018-05-19T13:04:26Z</time>
      </trkpt>
      <trkpt lat="44.10223" lon="3.04362">
        <ele>504.4</ele>
        <time>2018-05-19T13:04:27Z</time>
      </trkpt>
      <trkpt lat="44.1022" lon="3.0436">
        <ele>504.5</ele>
        <time>2018-05-19T13:04:28Z</time>
      </trkpt>
      <trkpt lat="44.10216" lon="3.04359">
        <ele>504.3</ele>
        <time>2018-05-19T13:04:29Z</time>
      </trkpt>
      <trkpt lat="44.10212" lon="3.04357">
        <ele>504.2</ele>
        <time>2018-05-19T13:04:31Z</time>
      </trkpt>
      <trkpt lat="44.10209" lon="3.04356">
        <ele>504.2</ele>
        <time>2018-05-19T13:04:32Z</time>
      </trkpt>
      <trkpt lat="44.10206" lon="3.04354">
        <ele>503.6</ele>
        <time>2018-05-19T13:04:33Z</time>
      </trkpt>
      <trkpt lat="44.10203" lon="3.04353">
        <ele>503.5</ele>
        <time>2018-05-19T13:04:34Z</time>
      </trkpt>
      <trkpt lat="44.102" lon="3.04351">
        <ele>502.9</ele>
        <time>2018-05-19T13:04:35Z</time>
      </trkpt>
      <trkpt lat="44.10196" lon="3.04349">
        <ele>502.7</ele>
        <time>2018-05-19T13:04:36Z</time>
      </trkpt>
      <trkpt lat="44.10193" lon="3.04347">
        <ele>502</ele>
        <time>2018-05-19T13:04:37Z</time>
      </trkpt>
      <trkpt lat="44.10189" lon="3.04344">
        <ele>501.8</ele>
        <time>2018-05-19T13:04:38Z</time>
      </trkpt>
      <trkpt lat="44.10185" lon="3.04341">
        <ele>500.9</ele>
        <time>2018-05-19T13:04:39Z</time>
      </trkpt>
      <trkpt lat="44.10182" lon="3.04339">
        <ele>500.7</ele>
        <time>2018-05-19T13:04:40Z</time>
      </trkpt>
      <trkpt lat="44.10179" lon="3.04337">
        <ele>500.1</ele>
        <time>2018-05-19T13:04:41Z</time>
      </trkpt>
      <trkpt lat="44.10175" lon="3.04335">
        <ele>499.9</ele>
        <time>2018-05-19T13:04:42Z</time>
      </trkpt>
      <trkpt lat="44.10171" lon="3.04333">
        <ele>499.4</ele>
        <time>2018-05-19T13:04:43Z</time>
      </trkpt>
      <trkpt lat="44.10168" lon="3.04332">
        <ele>499.3</ele>
        <time>2018-05-19T13:04:44Z</time>
      </trkpt>
      <trkpt lat="44.10164" lon="3.0433">
        <ele>499.3</ele>
        <time>2018-05-19T13:04:46Z</time>
      </trkpt>
      <trkpt lat="44.10159" lon="3.04327">
        <ele>498.8</ele>
        <time>2018-05-19T13:05:50Z</time>
      </trkpt>
      <trkpt lat="44.10154" lon="3.04325">
        <ele>498.3</ele>
        <time>2018-05-19T13:05:53Z</time>
      </trkpt>
      <trkpt lat="44.10151" lon="3.04324">
        <ele>498.3</ele>
        <time>2018-05-19T13:05:54Z</time>
      </trkpt>
      <trkpt lat="44.10147" lon="3.04321">
        <ele>497.5</ele>
        <time>2018-05-19T13:05:56Z</time>
      </trkpt>
      <trkpt lat="44.10143" lon="3.04319">
        <ele>497.5</ele>
        <time>2018-05-19T13:05:58Z</time>
      </trkpt>
      <trkpt lat="44.10136" lon="3.04315">
        <ele>496.8</ele>
        <time>2018-05-19T13:05:59Z</time>
      </trkpt>
      <trkpt lat="44.1013" lon="3.0431">
        <ele>496.3</ele>
        <time>2018-05-19T13:06:00Z</time>
      </trkpt>
      <trkpt lat="44.10125" lon="3.04309">
        <ele>496.3</ele>
        <time>2018-05-19T13:06:01Z</time>
      </trkpt>
      <trkpt lat="44.10119" lon="3.04308">
        <ele>495.9</ele>
        <time>2018-05-19T13:06:02Z</time>
      </trkpt>
      <trkpt lat="44.10112" lon="3.04307">
        <ele>496.1</ele>
        <time>2018-05-19T13:06:03Z</time>
      </trkpt>
      <trkpt lat="44.10108" lon="3.04306">
        <ele>496.2</ele>
        <time>2018-05-19T13:06:04Z</time>
      </trkpt>
      <trkpt lat="44.10102" lon="3.04304">
        <ele>495.9</ele>
        <time>2018-05-19T13:06:05Z</time>
      </trkpt>
      <trkpt lat="44.10094" lon="3.04303">
        <ele>496</ele>
        <time>2018-05-19T13:06:06Z</time>
      </trkpt>
      <trkpt lat="44.10086" lon="3.04302">
        <ele>496.2</ele>
        <time>2018-05-19T13:06:07Z</time>
      </trkpt>
      <trkpt lat="44.1008" lon="3.043">
        <ele>496.3</ele>
        <time>2018-05-19T13:06:08Z</time>
      </trkpt>
      <trkpt lat="44.10074" lon="3.04299">
        <ele>495.9</ele>
        <time>2018-05-19T13:06:09Z</time>
      </trkpt>
      <trkpt lat="44.10067" lon="3.04299">
        <ele>496.1</ele>
        <time>2018-05-19T13:06:10Z</time>
      </trkpt>
      <trkpt lat="44.10061" lon="3.04296">
        <ele>496.3</ele>
        <time>2018-05-19T13:06:11Z</time>
      </trkpt>
      <trkpt lat="44.10055" lon="3.04293">
        <ele>495.9</ele>
        <time>2018-05-19T13:06:12Z</time>
      </trkpt>
      <trkpt lat="44.10049" lon="3.0429">
        <ele>495.6</ele>
        <time>2018-05-19T13:06:13Z</time>
      </trkpt>
      <trkpt lat="44.10042" lon="3.04288">
        <ele>495.7</ele>
        <time>2018-05-19T13:06:14Z</time>
      </trkpt>
      <trkpt lat="44.10035" lon="3.04286">
        <ele>495.2</ele>
        <time>2018-05-19T13:06:15Z</time>
      </trkpt>
      <trkpt lat="44.10027" lon="3.04283">
        <ele>495.1</ele>
        <time>2018-05-19T13:06:16Z</time>
      </trkpt>
      <trkpt lat="44.10021" lon="3.0428">
        <ele>494.4</ele>
        <time>2018-05-19T13:06:17Z</time>
      </trkpt>
      <trkpt lat="44.10014" lon="3.04276">
        <ele>493.7</ele>
        <time>2018-05-19T13:06:18Z</time>
      </trkpt>
      <trkpt lat="44.10008" lon="3.04273">
        <ele>492.8</ele>
        <time>2018-05-19T13:06:19Z</time>
      </trkpt>
      <trkpt lat="44.10004" lon="3.04269">
        <ele>491.9</ele>
        <time>2018-05-19T13:06:20Z</time>
      </trkpt>
      <trkpt lat="44.09999" lon="3.04266">
        <ele>491.8</ele>
        <time>2018-05-19T13:06:21Z</time>
      </trkpt>
      <trkpt lat="44.09994" lon="3.04264">
        <ele>490.9</ele>
        <time>2018-05-19T13:06:22Z</time>
      </trkpt>
      <trkpt lat="44.0999" lon="3.04261">
        <ele>490.8</ele>
        <time>2018-05-19T13:06:23Z</time>
      </trkpt>
      <trkpt lat="44.09985" lon="3.04259">
        <ele>489.8</ele>
        <time>2018-05-19T13:06:24Z</time>
      </trkpt>
      <trkpt lat="44.09982" lon="3.04258">
        <ele>489.7</ele>
        <time>2018-05-19T13:06:25Z</time>
      </trkpt>
      <trkpt lat="44.09977" lon="3.04256">
        <ele>488.9</ele>
        <time>2018-05-19T13:06:26Z</time>
      </trkpt>
      <trkpt lat="44.09972" lon="3.04256">
        <ele>488.4</ele>
        <time>2018-05-19T13:06:27Z</time>
      </trkpt>
      <trkpt lat="44.09967" lon="3.04255">
        <ele>487.9</ele>
        <time>2018-05-19T13:06:28Z</time>
      </trkpt>
      <trkpt lat="44.09962" lon="3.04253">
        <ele>487.6</ele>
        <time>2018-05-19T13:06:29Z</time>
      </trkpt>
      <trkpt lat="44.09957" lon="3.04253">
        <ele>486.2</ele>
        <time>2018-05-19T13:06:30Z</time>
      </trkpt>
      <trkpt lat="44.09952" lon="3.04252">
        <ele>485.9</ele>
        <time>2018-05-19T13:06:31Z</time>
      </trkpt>
      <trkpt lat="44.09946" lon="3.04251">
        <ele>485</ele>
        <time>2018-05-19T13:06:33Z</time>
      </trkpt>
      <trkpt lat="44.09939" lon="3.04251">
        <ele>483.5</ele>
        <time>2018-05-19T13:06:34Z</time>
      </trkpt>
      <trkpt lat="44.0993" lon="3.04253">
        <ele>482.6</ele>
        <time>2018-05-19T13:06:36Z</time>
      </trkpt>
      <trkpt lat="44.09925" lon="3.04256">
        <ele>482.4</ele>
        <time>2018-05-19T13:06:37Z</time>
      </trkpt>
      <trkpt lat="44.09921" lon="3.04257">
        <ele>482</ele>
        <time>2018-05-19T13:06:38Z</time>
      </trkpt>
      <trkpt lat="44.09915" lon="3.04256">
        <ele>481.1</ele>
        <time>2018-05-19T13:06:39Z</time>
      </trkpt>
      <trkpt lat="44.09908" lon="3.04257">
        <ele>479.8</ele>
        <time>2018-05-19T13:06:40Z</time>
      </trkpt>
      <trkpt lat="44.099" lon="3.04258">
        <ele>479.8</ele>
        <time>2018-05-19T13:06:41Z</time>
      </trkpt>
      <trkpt lat="44.09891" lon="3.0426">
        <ele>478.6</ele>
        <time>2018-05-19T13:06:42Z</time>
      </trkpt>
      <trkpt lat="44.09884" lon="3.04261">
        <ele>477.5</ele>
        <time>2018-05-19T13:06:43Z</time>
      </trkpt>
      <trkpt lat="44.09877" lon="3.04263">
        <ele>477.5</ele>
        <time>2018-05-19T13:06:44Z</time>
      </trkpt>
      <trkpt lat="44.0987" lon="3.04266">
        <ele>477.5</ele>
        <time>2018-05-19T13:06:45Z</time>
      </trkpt>
      <trkpt lat="44.09863" lon="3.04269">
        <ele>476.7</ele>
        <time>2018-05-19T13:06:46Z</time>
      </trkpt>
      <trkpt lat="44.09856" lon="3.04273">
        <ele>476.5</ele>
        <time>2018-05-19T13:06:47Z</time>
      </trkpt>
      <trkpt lat="44.09849" lon="3.04276">
        <ele>476.1</ele>
        <time>2018-05-19T13:06:48Z</time>
      </trkpt>
      <trkpt lat="44.09841" lon="3.04278">
        <ele>475.4</ele>
        <time>2018-05-19T13:06:49Z</time>
      </trkpt>
      <trkpt lat="44.09833" lon="3.04277">
        <ele>474.4</ele>
        <time>2018-05-19T13:06:50Z</time>
      </trkpt>
      <trkpt lat="44.09825" lon="3.04276">
        <ele>473.7</ele>
        <time>2018-05-19T13:06:51Z</time>
      </trkpt>
      <trkpt lat="44.09818" lon="3.04275">
        <ele>472.9</ele>
        <time>2018-05-19T13:06:52Z</time>
      </trkpt>
      <trkpt lat="44.09812" lon="3.04276">
        <ele>472.3</ele>
        <time>2018-05-19T13:06:53Z</time>
      </trkpt>
      <trkpt lat="44.09806" lon="3.04276">
        <ele>471.6</ele>
        <time>2018-05-19T13:06:54Z</time>
      </trkpt>
      <trkpt lat="44.09802" lon="3.04274">
        <ele>471.2</ele>
        <time>2018-05-19T13:06:55Z</time>
      </trkpt>
      <trkpt lat="44.09799" lon="3.04273">
        <ele>470.3</ele>
        <time>2018-05-19T13:06:56Z</time>
      </trkpt>
      <trkpt lat="44.09796" lon="3.04272">
        <ele>469.9</ele>
        <time>2018-05-19T13:06:57Z</time>
      </trkpt>
      <trkpt lat="44.09791" lon="3.04271">
        <ele>469.3</ele>
        <time>2018-05-19T13:06:59Z</time>
      </trkpt>
      <trkpt lat="44.09787" lon="3.04271">
        <ele>468.9</ele>
        <time>2018-05-19T13:07:01Z</time>
      </trkpt>
      <trkpt lat="44.09785" lon="3.04274">
        <ele>468.4</ele>
        <time>2018-05-19T13:07:21Z</time>
      </trkpt>
      <trkpt lat="44.09784" lon="3.04277">
        <ele>469</ele>
        <time>2018-05-19T13:07:29Z</time>
      </trkpt>
      <trkpt lat="44.0978" lon="3.04275">
        <ele>468.6</ele>
        <time>2018-05-19T13:07:48Z</time>
      </trkpt>
      <trkpt lat="44.09776" lon="3.04277">
        <ele>468.1</ele>
        <time>2018-05-19T13:07:50Z</time>
      </trkpt>
      <trkpt lat="44.0977" lon="3.04277">
        <ele>467.2</ele>
        <time>2018-05-19T13:07:52Z</time>
      </trkpt>
      <trkpt lat="44.09766" lon="3.04276">
        <ele>466.4</ele>
        <time>2018-05-19T13:07:53Z</time>
      </trkpt>
      <trkpt lat="44.09758" lon="3.04273">
        <ele>465</ele>
        <time>2018-05-19T13:07:54Z</time>
      </trkpt>
      <trkpt lat="44.09754" lon="3.04271">
        <ele>464.6</ele>
        <time>2018-05-19T13:07:55Z</time>
      </trkpt>
      <trkpt lat="44.09752" lon="3.04273">
        <ele>464.2</ele>
        <time>2018-05-19T13:07:56Z</time>
      </trkpt>
      <trkpt lat="44.09749" lon="3.04278">
        <ele>464.4</ele>
        <time>2018-05-19T13:07:57Z</time>
      </trkpt>
      <trkpt lat="44.09744" lon="3.04283">
        <ele>465</ele>
        <time>2018-05-19T13:07:58Z</time>
      </trkpt>
      <trkpt lat="44.09738" lon="3.04288">
        <ele>465</ele>
        <time>2018-05-19T13:08:00Z</time>
      </trkpt>
      <trkpt lat="44.09734" lon="3.04291">
        <ele>464.7</ele>
        <time>2018-05-19T13:08:01Z</time>
      </trkpt>
      <trkpt lat="44.09729" lon="3.04293">
        <ele>464.9</ele>
        <time>2018-05-19T13:08:02Z</time>
      </trkpt>
      <trkpt lat="44.09723" lon="3.04296">
        <ele>465.1</ele>
        <time>2018-05-19T13:08:03Z</time>
      </trkpt>
      <trkpt lat="44.09719" lon="3.04298">
        <ele>464.7</ele>
        <time>2018-05-19T13:08:04Z</time>
      </trkpt>
      <trkpt lat="44.09714" lon="3.04298">
        <ele>464.3</ele>
        <time>2018-05-19T13:08:05Z</time>
      </trkpt>
      <trkpt lat="44.0971" lon="3.04298">
        <ele>463.6</ele>
        <time>2018-05-19T13:08:06Z</time>
      </trkpt>
      <trkpt lat="44.09707" lon="3.04298">
        <ele>463.3</ele>
        <time>2018-05-19T13:08:07Z</time>
      </trkpt>
      <trkpt lat="44.09703" lon="3.04298">
        <ele>463</ele>
        <time>2018-05-19T13:08:08Z</time>
      </trkpt>
      <trkpt lat="44.09698" lon="3.04296">
        <ele>462.2</ele>
        <time>2018-05-19T13:08:09Z</time>
      </trkpt>
      <trkpt lat="44.09693" lon="3.04295">
        <ele>460.7</ele>
        <time>2018-05-19T13:08:10Z</time>
      </trkpt>
      <trkpt lat="44.09683" lon="3.04293">
        <ele>458.9</ele>
        <time>2018-05-19T13:08:11Z</time>
      </trkpt>
      <trkpt lat="44.09679" lon="3.04293">
        <ele>458.4</ele>
        <time>2018-05-19T13:08:12Z</time>
      </trkpt>
      <trkpt lat="44.09674" lon="3.04293">
        <ele>457.9</ele>
        <time>2018-05-19T13:08:13Z</time>
      </trkpt>
      <trkpt lat="44.0967" lon="3.04292">
        <ele>456.9</ele>
        <time>2018-05-19T13:08:15Z</time>
      </trkpt>
      <trkpt lat="44.09667" lon="3.04295">
        <ele>456.3</ele>
        <time>2018-05-19T13:08:17Z</time>
      </trkpt>
      <trkpt lat="44.09663" lon="3.04296">
        <ele>455.8</ele>
        <time>2018-05-19T13:08:19Z</time>
      </trkpt>
      <trkpt lat="44.0966" lon="3.04296">
        <ele>456.3</ele>
        <time>2018-05-19T13:08:20Z</time>
      </trkpt>
      <trkpt lat="44.09657" lon="3.04296">
        <ele>455.8</ele>
        <time>2018-05-19T13:08:21Z</time>
      </trkpt>
      <trkpt lat="44.09654" lon="3.04297">
        <ele>455.3</ele>
        <time>2018-05-19T13:08:22Z</time>
      </trkpt>
      <trkpt lat="44.09651" lon="3.04297">
        <ele>454.9</ele>
        <time>2018-05-19T13:08:23Z</time>
      </trkpt>
      <trkpt lat="44.09648" lon="3.04298">
        <ele>454.4</ele>
        <time>2018-05-19T13:08:24Z</time>
      </trkpt>
      <trkpt lat="44.09645" lon="3.04299">
        <ele>453.9</ele>
        <time>2018-05-19T13:08:25Z</time>
      </trkpt>
      <trkpt lat="44.09641" lon="3.04301">
        <ele>454.5</ele>
        <time>2018-05-19T13:08:27Z</time>
      </trkpt>
      <trkpt lat="44.09638" lon="3.04304">
        <ele>454</ele>
        <time>2018-05-19T13:08:29Z</time>
      </trkpt>
      <trkpt lat="44.09634" lon="3.04306">
        <ele>454.5</ele>
        <time>2018-05-19T13:08:31Z</time>
      </trkpt>
      <trkpt lat="44.0963" lon="3.04308">
        <ele>453.5</ele>
        <time>2018-05-19T13:08:33Z</time>
      </trkpt>
      <trkpt lat="44.09627" lon="3.04309">
        <ele>454.1</ele>
        <time>2018-05-19T13:08:35Z</time>
      </trkpt>
      <trkpt lat="44.09624" lon="3.0431">
        <ele>453.7</ele>
        <time>2018-05-19T13:08:50Z</time>
      </trkpt>
      <trkpt lat="44.09622" lon="3.0431">
        <ele>453.7</ele>
        <time>2018-05-19T13:09:04Z</time>
      </trkpt>
      <trkpt lat="44.09619" lon="3.04309">
        <ele>453.3</ele>
        <time>2018-05-19T13:09:05Z</time>
      </trkpt>
      <trkpt lat="44.09614" lon="3.04308">
        <ele>451.3</ele>
        <time>2018-05-19T13:09:06Z</time>
      </trkpt>
      <trkpt lat="44.0961" lon="3.04307">
        <ele>450.9</ele>
        <time>2018-05-19T13:09:07Z</time>
      </trkpt>
      <trkpt lat="44.09604" lon="3.04307">
        <ele>450</ele>
        <time>2018-05-19T13:09:08Z</time>
      </trkpt>
      <trkpt lat="44.09599" lon="3.04308">
        <ele>449.3</ele>
        <time>2018-05-19T13:09:09Z</time>
      </trkpt>
      <trkpt lat="44.09593" lon="3.04308">
        <ele>448.8</ele>
        <time>2018-05-19T13:09:10Z</time>
      </trkpt>
      <trkpt lat="44.09588" lon="3.04309">
        <ele>449.2</ele>
        <time>2018-05-19T13:09:11Z</time>
      </trkpt>
      <trkpt lat="44.09582" lon="3.0431">
        <ele>448.9</ele>
        <time>2018-05-19T13:09:12Z</time>
      </trkpt>
      <trkpt lat="44.09576" lon="3.0431">
        <ele>448.2</ele>
        <time>2018-05-19T13:09:13Z</time>
      </trkpt>
      <trkpt lat="44.09571" lon="3.04312">
        <ele>447.8</ele>
        <time>2018-05-19T13:09:14Z</time>
      </trkpt>
      <trkpt lat="44.09566" lon="3.04311">
        <ele>447.3</ele>
        <time>2018-05-19T13:09:15Z</time>
      </trkpt>
      <trkpt lat="44.0956" lon="3.0431">
        <ele>446.7</ele>
        <time>2018-05-19T13:09:16Z</time>
      </trkpt>
      <trkpt lat="44.09554" lon="3.04309">
        <ele>446</ele>
        <time>2018-05-19T13:09:17Z</time>
      </trkpt>
      <trkpt lat="44.09545" lon="3.04309">
        <ele>445.1</ele>
        <time>2018-05-19T13:09:18Z</time>
      </trkpt>
      <trkpt lat="44.0954" lon="3.0431">
        <ele>444.4</ele>
        <time>2018-05-19T13:09:19Z</time>
      </trkpt>
      <trkpt lat="44.09534" lon="3.04313">
        <ele>443.5</ele>
        <time>2018-05-19T13:09:20Z</time>
      </trkpt>
      <trkpt lat="44.09528" lon="3.04316">
        <ele>443.6</ele>
        <time>2018-05-19T13:09:21Z</time>
      </trkpt>
      <trkpt lat="44.09524" lon="3.04317">
        <ele>444.1</ele>
        <time>2018-05-19T13:09:22Z</time>
      </trkpt>
      <trkpt lat="44.09518" lon="3.04319">
        <ele>443.1</ele>
        <time>2018-05-19T13:09:23Z</time>
      </trkpt>
      <trkpt lat="44.09515" lon="3.04319">
        <ele>442.6</ele>
        <time>2018-05-19T13:09:24Z</time>
      </trkpt>
      <trkpt lat="44.09512" lon="3.0432">
        <ele>442.2</ele>
        <time>2018-05-19T13:09:25Z</time>
      </trkpt>
      <trkpt lat="44.09508" lon="3.04323">
        <ele>443.5</ele>
        <time>2018-05-19T13:09:26Z</time>
      </trkpt>
      <trkpt lat="44.09505" lon="3.04325">
        <ele>443</ele>
        <time>2018-05-19T13:09:27Z</time>
      </trkpt>
      <trkpt lat="44.09502" lon="3.04328">
        <ele>443.7</ele>
        <time>2018-05-19T13:09:28Z</time>
      </trkpt>
      <trkpt lat="44.09498" lon="3.0433">
        <ele>443.1</ele>
        <time>2018-05-19T13:09:29Z</time>
      </trkpt>
      <trkpt lat="44.09495" lon="3.04332">
        <ele>443.2</ele>
        <time>2018-05-19T13:09:30Z</time>
      </trkpt>
      <trkpt lat="44.09493" lon="3.04333">
        <ele>443.2</ele>
        <time>2018-05-19T13:09:31Z</time>
      </trkpt>
      <trkpt lat="44.09489" lon="3.04334">
        <ele>442.7</ele>
        <time>2018-05-19T13:09:32Z</time>
      </trkpt>
      <trkpt lat="44.09485" lon="3.04335">
        <ele>442.9</ele>
        <time>2018-05-19T13:09:33Z</time>
      </trkpt>
      <trkpt lat="44.0948" lon="3.04337">
        <ele>442.4</ele>
        <time>2018-05-19T13:09:34Z</time>
      </trkpt>
      <trkpt lat="44.09476" lon="3.04338">
        <ele>441.2</ele>
        <time>2018-05-19T13:09:35Z</time>
      </trkpt>
      <trkpt lat="44.09472" lon="3.0434">
        <ele>441.9</ele>
        <time>2018-05-19T13:09:36Z</time>
      </trkpt>
      <trkpt lat="44.09469" lon="3.04341">
        <ele>441.2</ele>
        <time>2018-05-19T13:09:37Z</time>
      </trkpt>
      <trkpt lat="44.09466" lon="3.04341">
        <ele>440.7</ele>
        <time>2018-05-19T13:09:38Z</time>
      </trkpt>
      <trkpt lat="44.09462" lon="3.04342">
        <ele>440.1</ele>
        <time>2018-05-19T13:09:40Z</time>
      </trkpt>
      <trkpt lat="44.09459" lon="3.04342">
        <ele>439.6</ele>
        <time>2018-05-19T13:09:43Z</time>
      </trkpt>
      <trkpt lat="44.09455" lon="3.04343">
        <ele>439.9</ele>
        <time>2018-05-19T13:09:45Z</time>
      </trkpt>
      <trkpt lat="44.09452" lon="3.04344">
        <ele>439.4</ele>
        <time>2018-05-19T13:09:46Z</time>
      </trkpt>
      <trkpt lat="44.09449" lon="3.04345">
        <ele>439.4</ele>
        <time>2018-05-19T13:09:47Z</time>
      </trkpt>
      <trkpt lat="44.09446" lon="3.04345">
        <ele>438.8</ele>
        <time>2018-05-19T13:09:48Z</time>
      </trkpt>
      <trkpt lat="44.09442" lon="3.04346">
        <ele>437.8</ele>
        <time>2018-05-19T13:09:49Z</time>
      </trkpt>
      <trkpt lat="44.09436" lon="3.04346">
        <ele>436.8</ele>
        <time>2018-05-19T13:09:50Z</time>
      </trkpt>
      <trkpt lat="44.09429" lon="3.04346">
        <ele>435.9</ele>
        <time>2018-05-19T13:09:51Z</time>
      </trkpt>
      <trkpt lat="44.09421" lon="3.04344">
        <ele>434.6</ele>
        <time>2018-05-19T13:09:52Z</time>
      </trkpt>
      <trkpt lat="44.09413" lon="3.04343">
        <ele>432.1</ele>
        <time>2018-05-19T13:09:53Z</time>
      </trkpt>
      <trkpt lat="44.09406" lon="3.04341">
        <ele>430.9</ele>
        <time>2018-05-19T13:09:54Z</time>
      </trkpt>
      <trkpt lat="44.09398" lon="3.04341">
        <ele>430.3</ele>
        <time>2018-05-19T13:09:55Z</time>
      </trkpt>
      <trkpt lat="44.09389" lon="3.0434">
        <ele>429.2</ele>
        <time>2018-05-19T13:09:56Z</time>
      </trkpt>
      <trkpt lat="44.09384" lon="3.04342">
        <ele>428.6</ele>
        <time>2018-05-19T13:09:57Z</time>
      </trkpt>
      <trkpt lat="44.09379" lon="3.04343">
        <ele>429.6</ele>
        <time>2018-05-19T13:09:58Z</time>
      </trkpt>
      <trkpt lat="44.09377" lon="3.04346">
        <ele>429.3</ele>
        <time>2018-05-19T13:09:59Z</time>
      </trkpt>
      <trkpt lat="44.09373" lon="3.04352">
        <ele>431.5</ele>
        <time>2018-05-19T13:10:00Z</time>
      </trkpt>
      <trkpt lat="44.09371" lon="3.04356">
        <ele>432.3</ele>
        <time>2018-05-19T13:10:01Z</time>
      </trkpt>
      <trkpt lat="44.09368" lon="3.04359">
        <ele>431.9</ele>
        <time>2018-05-19T13:10:02Z</time>
      </trkpt>
      <trkpt lat="44.09366" lon="3.04362">
        <ele>432.5</ele>
        <time>2018-05-19T13:10:04Z</time>
      </trkpt>
      <trkpt lat="44.09363" lon="3.04366">
        <ele>433.5</ele>
        <time>2018-05-19T13:10:06Z</time>
      </trkpt>
      <trkpt lat="44.09364" lon="3.04371">
        <ele>434.4</ele>
        <time>2018-05-19T13:10:07Z</time>
      </trkpt>
      <trkpt lat="44.09362" lon="3.04374">
        <ele>434.8</ele>
        <time>2018-05-19T13:10:08Z</time>
      </trkpt>
      <trkpt lat="44.0936" lon="3.04379">
        <ele>435.1</ele>
        <time>2018-05-19T13:10:09Z</time>
      </trkpt>
      <trkpt lat="44.09357" lon="3.04383">
        <ele>435.9</ele>
        <time>2018-05-19T13:10:10Z</time>
      </trkpt>
      <trkpt lat="44.09355" lon="3.04389">
        <ele>436.2</ele>
        <time>2018-05-19T13:10:11Z</time>
      </trkpt>
      <trkpt lat="44.09352" lon="3.04395">
        <ele>437.2</ele>
        <time>2018-05-19T13:10:12Z</time>
      </trkpt>
      <trkpt lat="44.09349" lon="3.04401">
        <ele>437.4</ele>
        <time>2018-05-19T13:10:13Z</time>
      </trkpt>
      <trkpt lat="44.09346" lon="3.04407">
        <ele>437.6</ele>
        <time>2018-05-19T13:10:14Z</time>
      </trkpt>
      <trkpt lat="44.0934" lon="3.04414">
        <ele>437.6</ele>
        <time>2018-05-19T13:10:15Z</time>
      </trkpt>
      <trkpt lat="44.09337" lon="3.04421">
        <ele>437.8</ele>
        <time>2018-05-19T13:10:16Z</time>
      </trkpt>
      <trkpt lat="44.09335" lon="3.0443">
        <ele>437.8</ele>
        <time>2018-05-19T13:10:17Z</time>
      </trkpt>
      <trkpt lat="44.0933" lon="3.04438">
        <ele>437.6</ele>
        <time>2018-05-19T13:10:18Z</time>
      </trkpt>
      <trkpt lat="44.09327" lon="3.04447">
        <ele>437.2</ele>
        <time>2018-05-19T13:10:19Z</time>
      </trkpt>
      <trkpt lat="44.09323" lon="3.04455">
        <ele>436.6</ele>
        <time>2018-05-19T13:10:20Z</time>
      </trkpt>
      <trkpt lat="44.09321" lon="3.04464">
        <ele>436</ele>
        <time>2018-05-19T13:10:21Z</time>
      </trkpt>
      <trkpt lat="44.09318" lon="3.04473">
        <ele>435.4</ele>
        <time>2018-05-19T13:10:22Z</time>
      </trkpt>
      <trkpt lat="44.09317" lon="3.04483">
        <ele>435.3</ele>
        <time>2018-05-19T13:10:23Z</time>
      </trkpt>
      <trkpt lat="44.09315" lon="3.04492">
        <ele>434.5</ele>
        <time>2018-05-19T13:10:24Z</time>
      </trkpt>
      <trkpt lat="44.09315" lon="3.04502">
        <ele>434</ele>
        <time>2018-05-19T13:10:25Z</time>
      </trkpt>
      <trkpt lat="44.09314" lon="3.04511">
        <ele>433.7</ele>
        <time>2018-05-19T13:10:26Z</time>
      </trkpt>
      <trkpt lat="44.09314" lon="3.04521">
        <ele>433.3</ele>
        <time>2018-05-19T13:10:27Z</time>
      </trkpt>
      <trkpt lat="44.09316" lon="3.04531">
        <ele>432.9</ele>
        <time>2018-05-19T13:10:28Z</time>
      </trkpt>
      <trkpt lat="44.09316" lon="3.0454">
        <ele>432.4</ele>
        <time>2018-05-19T13:10:29Z</time>
      </trkpt>
      <trkpt lat="44.09318" lon="3.04549">
        <ele>432.6</ele>
        <time>2018-05-19T13:10:30Z</time>
      </trkpt>
      <trkpt lat="44.09321" lon="3.04557">
        <ele>433.2</ele>
        <time>2018-05-19T13:10:31Z</time>
      </trkpt>
      <trkpt lat="44.09324" lon="3.04564">
        <ele>433.5</ele>
        <time>2018-05-19T13:10:32Z</time>
      </trkpt>
      <trkpt lat="44.09327" lon="3.0457">
        <ele>434</ele>
        <time>2018-05-19T13:10:33Z</time>
      </trkpt>
      <trkpt lat="44.0933" lon="3.04577">
        <ele>434.2</ele>
        <time>2018-05-19T13:10:34Z</time>
      </trkpt>
      <trkpt lat="44.09333" lon="3.04586">
        <ele>434.4</ele>
        <time>2018-05-19T13:10:35Z</time>
      </trkpt>
      <trkpt lat="44.09337" lon="3.04592">
        <ele>434.7</ele>
        <time>2018-05-19T13:10:36Z</time>
      </trkpt>
      <trkpt lat="44.0934" lon="3.04598">
        <ele>435.3</ele>
        <time>2018-05-19T13:10:37Z</time>
      </trkpt>
      <trkpt lat="44.09345" lon="3.04603">
        <ele>436.6</ele>
        <time>2018-05-19T13:10:38Z</time>
      </trkpt>
      <trkpt lat="44.09349" lon="3.04608">
        <ele>437</ele>
        <time>2018-05-19T13:10:39Z</time>
      </trkpt>
      <trkpt lat="44.09353" lon="3.04612">
        <ele>438</ele>
        <time>2018-05-19T13:10:40Z</time>
      </trkpt>
      <trkpt lat="44.09356" lon="3.04615">
        <ele>438</ele>
        <time>2018-05-19T13:10:41Z</time>
      </trkpt>
      <trkpt lat="44.09359" lon="3.04618">
        <ele>438</ele>
        <time>2018-05-19T13:10:42Z</time>
      </trkpt>
      <trkpt lat="44.09363" lon="3.04622">
        <ele>438</ele>
        <time>2018-05-19T13:10:44Z</time>
      </trkpt>
      <trkpt lat="44.09364" lon="3.04629">
        <ele>438</ele>
        <time>2018-05-19T13:10:46Z</time>
      </trkpt>
      <trkpt lat="44.09364" lon="3.04635">
        <ele>438</ele>
        <time>2018-05-19T13:10:47Z</time>
      </trkpt>
      <trkpt lat="44.09364" lon="3.04639">
        <ele>438</ele>
        <time>2018-05-19T13:10:48Z</time>
      </trkpt>
      <trkpt lat="44.09364" lon="3.04644">
        <ele>438</ele>
        <time>2018-05-19T13:10:50Z</time>
      </trkpt>
      <trkpt lat="44.09362" lon="3.0465">
        <ele>438</ele>
        <time>2018-05-19T13:10:52Z</time>
      </trkpt>
      <trkpt lat="44.09361" lon="3.04654">
        <ele>438.1</ele>
        <time>2018-05-19T13:10:54Z</time>
      </trkpt>
      <trkpt lat="44.09358" lon="3.04658">
        <ele>438.2</ele>
        <time>2018-05-19T13:10:56Z</time>
      </trkpt>
      <trkpt lat="44.09355" lon="3.04661">
        <ele>438.3</ele>
        <time>2018-05-19T13:10:58Z</time>
      </trkpt>
      <trkpt lat="44.09353" lon="3.04664">
        <ele>438.5</ele>
        <time>2018-05-19T13:11:00Z</time>
      </trkpt>
      <trkpt lat="44.09351" lon="3.04669">
        <ele>438.7</ele>
        <time>2018-05-19T13:11:02Z</time>
      </trkpt>
      <trkpt lat="44.09351" lon="3.04674">
        <ele>439</ele>
        <time>2018-05-19T13:11:04Z</time>
      </trkpt>
      <trkpt lat="44.09351" lon="3.04679">
        <ele>439.3</ele>
        <time>2018-05-19T13:11:06Z</time>
      </trkpt>
      <trkpt lat="44.0935" lon="3.04684">
        <ele>439.6</ele>
        <time>2018-05-19T13:11:08Z</time>
      </trkpt>
      <trkpt lat="44.09349" lon="3.04688">
        <ele>439.8</ele>
        <time>2018-05-19T13:11:10Z</time>
      </trkpt>
      <trkpt lat="44.09348" lon="3.04693">
        <ele>440</ele>
        <time>2018-05-19T13:11:12Z</time>
      </trkpt>
      <trkpt lat="44.09347" lon="3.04697">
        <ele>440.2</ele>
        <time>2018-05-19T13:11:14Z</time>
      </trkpt>
      <trkpt lat="44.09346" lon="3.04701">
        <ele>440.4</ele>
        <time>2018-05-19T13:11:16Z</time>
      </trkpt>
      <trkpt lat="44.09345" lon="3.04705">
        <ele>440.5</ele>
        <time>2018-05-19T13:11:19Z</time>
      </trkpt>
      <trkpt lat="44.09344" lon="3.04709">
        <ele>440.7</ele>
        <time>2018-05-19T13:11:22Z</time>
      </trkpt>
      <trkpt lat="44.09342" lon="3.04713">
        <ele>440.8</ele>
        <time>2018-05-19T13:11:24Z</time>
      </trkpt>
      <trkpt lat="44.0934" lon="3.04718">
        <ele>440.9</ele>
        <time>2018-05-19T13:11:27Z</time>
      </trkpt>
      <trkpt lat="44.09339" lon="3.04722">
        <ele>441</ele>
        <time>2018-05-19T13:11:29Z</time>
      </trkpt>
      <trkpt lat="44.09337" lon="3.04725">
        <ele>441</ele>
        <time>2018-05-19T13:11:31Z</time>
      </trkpt>
      <trkpt lat="44.09336" lon="3.04731">
        <ele>441.1</ele>
        <time>2018-05-19T13:11:34Z</time>
      </trkpt>
      <trkpt lat="44.09335" lon="3.04735">
        <ele>441.2</ele>
        <time>2018-05-19T13:11:36Z</time>
      </trkpt>
      <trkpt lat="44.09334" lon="3.04739">
        <ele>441.2</ele>
        <time>2018-05-19T13:11:38Z</time>
      </trkpt>
      <trkpt lat="44.09333" lon="3.04743">
        <ele>441.2</ele>
        <time>2018-05-19T13:11:40Z</time>
      </trkpt>
      <trkpt lat="44.09333" lon="3.04748">
        <ele>441.2</ele>
        <time>2018-05-19T13:11:42Z</time>
      </trkpt>
      <trkpt lat="44.09333" lon="3.04754">
        <ele>441.2</ele>
        <time>2018-05-19T13:11:44Z</time>
      </trkpt>
      <trkpt lat="44.09332" lon="3.04759">
        <ele>441.2</ele>
        <time>2018-05-19T13:11:46Z</time>
      </trkpt>
      <trkpt lat="44.09332" lon="3.04766">
        <ele>441.2</ele>
        <time>2018-05-19T13:11:48Z</time>
      </trkpt>
      <trkpt lat="44.09333" lon="3.04773">
        <ele>441.1</ele>
        <time>2018-05-19T13:11:50Z</time>
      </trkpt>
      <trkpt lat="44.09334" lon="3.0478">
        <ele>441.1</ele>
        <time>2018-05-19T13:11:52Z</time>
      </trkpt>
      <trkpt lat="44.09335" lon="3.04787">
        <ele>441.1</ele>
        <time>2018-05-19T13:11:54Z</time>
      </trkpt>
      <trkpt lat="44.09336" lon="3.04793">
        <ele>441</ele>
        <time>2018-05-19T13:11:56Z</time>
      </trkpt>
      <trkpt lat="44.09336" lon="3.04797">
        <ele>441</ele>
        <time>2018-05-19T13:11:58Z</time>
      </trkpt>
      <trkpt lat="44.09337" lon="3.04802">
        <ele>440.6</ele>
        <time>2018-05-19T13:12:00Z</time>
      </trkpt>
      <trkpt lat="44.09338" lon="3.04811">
        <ele>440.3</ele>
        <time>2018-05-19T13:12:02Z</time>
      </trkpt>
      <trkpt lat="44.09338" lon="3.04816">
        <ele>440.1</ele>
        <time>2018-05-19T13:12:03Z</time>
      </trkpt>
      <trkpt lat="44.09338" lon="3.04822">
        <ele>439.9</ele>
        <time>2018-05-19T13:12:04Z</time>
      </trkpt>
      <trkpt lat="44.09337" lon="3.04829">
        <ele>439.7</ele>
        <time>2018-05-19T13:12:05Z</time>
      </trkpt>
      <trkpt lat="44.09338" lon="3.04835">
        <ele>439.5</ele>
        <time>2018-05-19T13:12:06Z</time>
      </trkpt>
      <trkpt lat="44.09338" lon="3.0484">
        <ele>439.3</ele>
        <time>2018-05-19T13:12:07Z</time>
      </trkpt>
      <trkpt lat="44.09338" lon="3.04845">
        <ele>439.2</ele>
        <time>2018-05-19T13:12:08Z</time>
      </trkpt>
      <trkpt lat="44.09338" lon="3.0485">
        <ele>438.8</ele>
        <time>2018-05-19T13:12:09Z</time>
      </trkpt>
      <trkpt lat="44.09339" lon="3.04855">
        <ele>438.6</ele>
        <time>2018-05-19T13:12:10Z</time>
      </trkpt>
      <trkpt lat="44.09341" lon="3.04864">
        <ele>438</ele>
        <time>2018-05-19T13:12:12Z</time>
      </trkpt>
      <trkpt lat="44.09341" lon="3.04868">
        <ele>437.7</ele>
        <time>2018-05-19T13:12:13Z</time>
      </trkpt>
      <trkpt lat="44.09341" lon="3.04872">
        <ele>437.4</ele>
        <time>2018-05-19T13:12:15Z</time>
      </trkpt>
      <trkpt lat="44.09343" lon="3.04869">
        <ele>437.1</ele>
        <time>2018-05-19T13:12:27Z</time>
      </trkpt>
      <trkpt lat="44.09341" lon="3.04872">
        <ele>436.9</ele>
        <time>2018-05-19T13:13:29Z</time>
      </trkpt>
      <trkpt lat="44.09343" lon="3.04875">
        <ele>436.6</ele>
        <time>2018-05-19T13:13:43Z</time>
      </trkpt>
      <trkpt lat="44.09344" lon="3.04881">
        <ele>436.2</ele>
        <time>2018-05-19T13:13:55Z</time>
      </trkpt>
      <trkpt lat="44.09344" lon="3.04888">
        <ele>435.8</ele>
        <time>2018-05-19T13:13:57Z</time>
      </trkpt>
      <trkpt lat="44.09343" lon="3.04895">
        <ele>435.3</ele>
        <time>2018-05-19T13:13:59Z</time>
      </trkpt>
      <trkpt lat="44.09342" lon="3.049">
        <ele>435.1</ele>
        <time>2018-05-19T13:14:00Z</time>
      </trkpt>
      <trkpt lat="44.09341" lon="3.04905">
        <ele>434.9</ele>
        <time>2018-05-19T13:14:01Z</time>
      </trkpt>
      <trkpt lat="44.09341" lon="3.04911">
        <ele>434.7</ele>
        <time>2018-05-19T13:14:02Z</time>
      </trkpt>
      <trkpt lat="44.09339" lon="3.04917">
        <ele>434.6</ele>
        <time>2018-05-19T13:14:03Z</time>
      </trkpt>
      <trkpt lat="44.09339" lon="3.04924">
        <ele>434.5</ele>
        <time>2018-05-19T13:14:04Z</time>
      </trkpt>
      <trkpt lat="44.09339" lon="3.04931">
        <ele>434.4</ele>
        <time>2018-05-19T13:14:05Z</time>
      </trkpt>
      <trkpt lat="44.09338" lon="3.04939">
        <ele>434.3</ele>
        <time>2018-05-19T13:14:06Z</time>
      </trkpt>
      <trkpt lat="44.09337" lon="3.04948">
        <ele>434.2</ele>
        <time>2018-05-19T13:14:07Z</time>
      </trkpt>
      <trkpt lat="44.09336" lon="3.04956">
        <ele>434.2</ele>
        <time>2018-05-19T13:14:08Z</time>
      </trkpt>
      <trkpt lat="44.09335" lon="3.04965">
        <ele>434.1</ele>
        <time>2018-05-19T13:14:09Z</time>
      </trkpt>
      <trkpt lat="44.09335" lon="3.04975">
        <ele>434.2</ele>
        <time>2018-05-19T13:14:10Z</time>
      </trkpt>
      <trkpt lat="44.09335" lon="3.04985">
        <ele>434.4</ele>
        <time>2018-05-19T13:14:11Z</time>
      </trkpt>
      <trkpt lat="44.09336" lon="3.04996">
        <ele>434.7</ele>
        <time>2018-05-19T13:14:12Z</time>
      </trkpt>
      <trkpt lat="44.09335" lon="3.05004">
        <ele>434.9</ele>
        <time>2018-05-19T13:14:13Z</time>
      </trkpt>
      <trkpt lat="44.09335" lon="3.0501">
        <ele>435</ele>
        <time>2018-05-19T13:14:14Z</time>
      </trkpt>
      <trkpt lat="44.09334" lon="3.05019">
        <ele>434.1</ele>
        <time>2018-05-19T13:14:15Z</time>
      </trkpt>
      <trkpt lat="44.09333" lon="3.05027">
        <ele>432.7</ele>
        <time>2018-05-19T13:14:16Z</time>
      </trkpt>
      <trkpt lat="44.09331" lon="3.05035">
        <ele>431.1</ele>
        <time>2018-05-19T13:14:17Z</time>
      </trkpt>
      <trkpt lat="44.0933" lon="3.05044">
        <ele>429.7</ele>
        <time>2018-05-19T13:14:18Z</time>
      </trkpt>
      <trkpt lat="44.09328" lon="3.05055">
        <ele>428.2</ele>
        <time>2018-05-19T13:14:19Z</time>
      </trkpt>
      <trkpt lat="44.09325" lon="3.05066">
        <ele>426</ele>
        <time>2018-05-19T13:14:20Z</time>
      </trkpt>
      <trkpt lat="44.09323" lon="3.05079">
        <ele>424.1</ele>
        <time>2018-05-19T13:14:21Z</time>
      </trkpt>
      <trkpt lat="44.0932" lon="3.05092">
        <ele>422</ele>
        <time>2018-05-19T13:14:22Z</time>
      </trkpt>
      <trkpt lat="44.09316" lon="3.05106">
        <ele>419.4</ele>
        <time>2018-05-19T13:14:23Z</time>
      </trkpt>
      <trkpt lat="44.09312" lon="3.05122">
        <ele>416.5</ele>
        <time>2018-05-19T13:14:24Z</time>
      </trkpt>
      <trkpt lat="44.09309" lon="3.05136">
        <ele>414.2</ele>
        <time>2018-05-19T13:14:25Z</time>
      </trkpt>
      <trkpt lat="44.09304" lon="3.05151">
        <ele>411.3</ele>
        <time>2018-05-19T13:14:26Z</time>
      </trkpt>
      <trkpt lat="44.093" lon="3.05167">
        <ele>408.2</ele>
        <time>2018-05-19T13:14:27Z</time>
      </trkpt>
      <trkpt lat="44.09295" lon="3.05181">
        <ele>406.1</ele>
        <time>2018-05-19T13:14:28Z</time>
      </trkpt>
      <trkpt lat="44.09291" lon="3.05191">
        <ele>404.7</ele>
        <time>2018-05-19T13:14:29Z</time>
      </trkpt>
      <trkpt lat="44.09286" lon="3.05203">
        <ele>404.6</ele>
        <time>2018-05-19T13:14:30Z</time>
      </trkpt>
      <trkpt lat="44.09281" lon="3.05213">
        <ele>405.9</ele>
        <time>2018-05-19T13:14:31Z</time>
      </trkpt>
      <trkpt lat="44.09276" lon="3.05224">
        <ele>407.3</ele>
        <time>2018-05-19T13:14:32Z</time>
      </trkpt>
      <trkpt lat="44.09272" lon="3.05235">
        <ele>408.6</ele>
        <time>2018-05-19T13:14:33Z</time>
      </trkpt>
      <trkpt lat="44.09267" lon="3.05245">
        <ele>410.2</ele>
        <time>2018-05-19T13:14:34Z</time>
      </trkpt>
      <trkpt lat="44.09261" lon="3.05255">
        <ele>408.1</ele>
        <time>2018-05-19T13:14:35Z</time>
      </trkpt>
      <trkpt lat="44.09256" lon="3.05267">
        <ele>400.6</ele>
        <time>2018-05-19T13:14:36Z</time>
      </trkpt>
      <trkpt lat="44.09252" lon="3.05277">
        <ele>394.1</ele>
        <time>2018-05-19T13:14:37Z</time>
      </trkpt>
      <trkpt lat="44.09249" lon="3.05287">
        <ele>388.2</ele>
        <time>2018-05-19T13:14:38Z</time>
      </trkpt>
      <trkpt lat="44.09247" lon="3.05297">
        <ele>389.8</ele>
        <time>2018-05-19T13:14:39Z</time>
      </trkpt>
      <trkpt lat="44.09247" lon="3.05306">
        <ele>391.5</ele>
        <time>2018-05-19T13:14:40Z</time>
      </trkpt>
      <trkpt lat="44.09244" lon="3.05316">
        <ele>393.3</ele>
        <time>2018-05-19T13:14:41Z</time>
      </trkpt>
      <trkpt lat="44.09245" lon="3.05326">
        <ele>395.1</ele>
        <time>2018-05-19T13:14:42Z</time>
      </trkpt>
      <trkpt lat="44.09242" lon="3.05335">
        <ele>396.7</ele>
        <time>2018-05-19T13:14:43Z</time>
      </trkpt>
      <trkpt lat="44.09237" lon="3.05339">
        <ele>397.8</ele>
        <time>2018-05-19T13:14:44Z</time>
      </trkpt>
      <trkpt lat="44.0923" lon="3.05341">
        <ele>397.5</ele>
        <time>2018-05-19T13:14:45Z</time>
      </trkpt>
      <trkpt lat="44.09223" lon="3.0534">
        <ele>397.1</ele>
        <time>2018-05-19T13:14:46Z</time>
      </trkpt>
      <trkpt lat="44.09217" lon="3.05341">
        <ele>396.7</ele>
        <time>2018-05-19T13:14:47Z</time>
      </trkpt>
      <trkpt lat="44.09211" lon="3.05342">
        <ele>396.3</ele>
        <time>2018-05-19T13:14:48Z</time>
      </trkpt>
      <trkpt lat="44.09206" lon="3.05344">
        <ele>396</ele>
        <time>2018-05-19T13:14:49Z</time>
      </trkpt>
      <trkpt lat="44.09202" lon="3.05348">
        <ele>395.5</ele>
        <time>2018-05-19T13:14:50Z</time>
      </trkpt>
      <trkpt lat="44.09198" lon="3.05353">
        <ele>395.1</ele>
        <time>2018-05-19T13:14:51Z</time>
      </trkpt>
      <trkpt lat="44.09196" lon="3.05359">
        <ele>394.8</ele>
        <time>2018-05-19T13:14:52Z</time>
      </trkpt>
      <trkpt lat="44.09193" lon="3.05367">
        <ele>394.4</ele>
        <time>2018-05-19T13:14:53Z</time>
      </trkpt>
      <trkpt lat="44.0919" lon="3.05377">
        <ele>394</ele>
        <time>2018-05-19T13:14:54Z</time>
      </trkpt>
      <trkpt lat="44.09186" lon="3.05384">
        <ele>393.8</ele>
        <time>2018-05-19T13:14:55Z</time>
      </trkpt>
      <trkpt lat="44.09184" lon="3.05393">
        <ele>393.5</ele>
        <time>2018-05-19T13:14:56Z</time>
      </trkpt>
      <trkpt lat="44.09179" lon="3.05402">
        <ele>393.2</ele>
        <time>2018-05-19T13:14:57Z</time>
      </trkpt>
      <trkpt lat="44.09173" lon="3.05406">
        <ele>392.9</ele>
        <time>2018-05-19T13:14:58Z</time>
      </trkpt>
      <trkpt lat="44.09166" lon="3.05408">
        <ele>392.7</ele>
        <time>2018-05-19T13:14:59Z</time>
      </trkpt>
      <trkpt lat="44.09159" lon="3.0541">
        <ele>392.4</ele>
        <time>2018-05-19T13:15:00Z</time>
      </trkpt>
      <trkpt lat="44.0915" lon="3.05412">
        <ele>392.1</ele>
        <time>2018-05-19T13:15:01Z</time>
      </trkpt>
      <trkpt lat="44.09144" lon="3.05415">
        <ele>391.8</ele>
        <time>2018-05-19T13:15:02Z</time>
      </trkpt>
      <trkpt lat="44.09138" lon="3.05422">
        <ele>391.4</ele>
        <time>2018-05-19T13:15:03Z</time>
      </trkpt>
      <trkpt lat="44.09132" lon="3.05429">
        <ele>391.1</ele>
        <time>2018-05-19T13:15:04Z</time>
      </trkpt>
      <trkpt lat="44.09128" lon="3.05437">
        <ele>390.7</ele>
        <time>2018-05-19T13:15:05Z</time>
      </trkpt>
      <trkpt lat="44.09126" lon="3.05446">
        <ele>390.3</ele>
        <time>2018-05-19T13:15:06Z</time>
      </trkpt>
      <trkpt lat="44.09123" lon="3.05453">
        <ele>390</ele>
        <time>2018-05-19T13:15:07Z</time>
      </trkpt>
      <trkpt lat="44.0912" lon="3.05461">
        <ele>389.4</ele>
        <time>2018-05-19T13:15:08Z</time>
      </trkpt>
      <trkpt lat="44.09119" lon="3.05468">
        <ele>388.9</ele>
        <time>2018-05-19T13:15:09Z</time>
      </trkpt>
      <trkpt lat="44.09117" lon="3.05471">
        <ele>388.3</ele>
        <time>2018-05-19T13:15:10Z</time>
      </trkpt>
      <trkpt lat="44.09114" lon="3.05472">
        <ele>387.6</ele>
        <time>2018-05-19T13:15:11Z</time>
      </trkpt>
      <trkpt lat="44.09108" lon="3.05471">
        <ele>386.1</ele>
        <time>2018-05-19T13:15:13Z</time>
      </trkpt>
      <trkpt lat="44.09102" lon="3.0547">
        <ele>384.9</ele>
        <time>2018-05-19T13:15:14Z</time>
      </trkpt>
      <trkpt lat="44.09097" lon="3.0547">
        <ele>383.5</ele>
        <time>2018-05-19T13:15:15Z</time>
      </trkpt>
      <trkpt lat="44.09093" lon="3.0547">
        <ele>382.6</ele>
        <time>2018-05-19T13:15:16Z</time>
      </trkpt>
      <trkpt lat="44.09088" lon="3.05471">
        <ele>381.1</ele>
        <time>2018-05-19T13:15:17Z</time>
      </trkpt>
      <trkpt lat="44.09085" lon="3.05469">
        <ele>380.1</ele>
        <time>2018-05-19T13:15:25Z</time>
      </trkpt>
      <trkpt lat="44.09081" lon="3.05469">
        <ele>379</ele>
        <time>2018-05-19T13:15:28Z</time>
      </trkpt>
      <trkpt lat="44.0908" lon="3.05473">
        <ele>379</ele>
        <time>2018-05-19T13:15:41Z</time>
      </trkpt>
      <trkpt lat="44.09078" lon="3.05475">
        <ele>379</ele>
        <time>2018-05-19T13:16:09Z</time>
      </trkpt>
      <trkpt lat="44.09076" lon="3.05481">
        <ele>379</ele>
        <time>2018-05-19T13:16:11Z</time>
      </trkpt>
      <trkpt lat="44.09076" lon="3.05487">
        <ele>379</ele>
        <time>2018-05-19T13:16:13Z</time>
      </trkpt>
      <trkpt lat="44.09076" lon="3.05491">
        <ele>379</ele>
        <time>2018-05-19T13:16:14Z</time>
      </trkpt>
      <trkpt lat="44.09076" lon="3.05496">
        <ele>379</ele>
        <time>2018-05-19T13:16:15Z</time>
      </trkpt>
      <trkpt lat="44.09075" lon="3.055">
        <ele>379</ele>
        <time>2018-05-19T13:16:16Z</time>
      </trkpt>
      <trkpt lat="44.09075" lon="3.05505">
        <ele>379</ele>
        <time>2018-05-19T13:16:17Z</time>
      </trkpt>
      <trkpt lat="44.09074" lon="3.0551">
        <ele>379</ele>
        <time>2018-05-19T13:16:18Z</time>
      </trkpt>
      <trkpt lat="44.09073" lon="3.05515">
        <ele>379</ele>
        <time>2018-05-19T13:16:19Z</time>
      </trkpt>
      <trkpt lat="44.09071" lon="3.0552">
        <ele>378.5</ele>
        <time>2018-05-19T13:16:20Z</time>
      </trkpt>
      <trkpt lat="44.09067" lon="3.05523">
        <ele>378.1</ele>
        <time>2018-05-19T13:16:21Z</time>
      </trkpt>
      <trkpt lat="44.09063" lon="3.05526">
        <ele>377.7</ele>
        <time>2018-05-19T13:16:22Z</time>
      </trkpt>
      <trkpt lat="44.0906" lon="3.05527">
        <ele>377.3</ele>
        <time>2018-05-19T13:16:23Z</time>
      </trkpt>
      <trkpt lat="44.09056" lon="3.05529">
        <ele>376.9</ele>
        <time>2018-05-19T13:16:24Z</time>
      </trkpt>
      <trkpt lat="44.09048" lon="3.05531">
        <ele>376</ele>
        <time>2018-05-19T13:16:25Z</time>
      </trkpt>
      <trkpt lat="44.09045" lon="3.05534">
        <ele>375.4</ele>
        <time>2018-05-19T13:16:26Z</time>
      </trkpt>
      <trkpt lat="44.09041" lon="3.05537">
        <ele>375.1</ele>
        <time>2018-05-19T13:16:27Z</time>
      </trkpt>
      <trkpt lat="44.09038" lon="3.05541">
        <ele>374.8</ele>
        <time>2018-05-19T13:16:28Z</time>
      </trkpt>
      <trkpt lat="44.09033" lon="3.05546">
        <ele>374.4</ele>
        <time>2018-05-19T13:16:29Z</time>
      </trkpt>
      <trkpt lat="44.09029" lon="3.0555">
        <ele>374.1</ele>
        <time>2018-05-19T13:16:30Z</time>
      </trkpt>
      <trkpt lat="44.09026" lon="3.05554">
        <ele>373.8</ele>
        <time>2018-05-19T13:16:31Z</time>
      </trkpt>
      <trkpt lat="44.09022" lon="3.05559">
        <ele>373.5</ele>
        <time>2018-05-19T13:16:32Z</time>
      </trkpt>
      <trkpt lat="44.09019" lon="3.05565">
        <ele>373.2</ele>
        <time>2018-05-19T13:16:33Z</time>
      </trkpt>
      <trkpt lat="44.09016" lon="3.05571">
        <ele>372.9</ele>
        <time>2018-05-19T13:16:34Z</time>
      </trkpt>
      <trkpt lat="44.09013" lon="3.05578">
        <ele>372.5</ele>
        <time>2018-05-19T13:16:35Z</time>
      </trkpt>
      <trkpt lat="44.09009" lon="3.05585">
        <ele>372.1</ele>
        <time>2018-05-19T13:16:36Z</time>
      </trkpt>
      <trkpt lat="44.09007" lon="3.05594">
        <ele>371.8</ele>
        <time>2018-05-19T13:16:37Z</time>
      </trkpt>
      <trkpt lat="44.09004" lon="3.05601">
        <ele>371.5</ele>
        <time>2018-05-19T13:16:38Z</time>
      </trkpt>
      <trkpt lat="44.09" lon="3.05609">
        <ele>371.2</ele>
        <time>2018-05-19T13:16:39Z</time>
      </trkpt>
      <trkpt lat="44.08997" lon="3.05618">
        <ele>370.8</ele>
        <time>2018-05-19T13:16:40Z</time>
      </trkpt>
      <trkpt lat="44.08996" lon="3.05626">
        <ele>370.6</ele>
        <time>2018-05-19T13:16:41Z</time>
      </trkpt>
      <trkpt lat="44.08995" lon="3.05634">
        <ele>370.3</ele>
        <time>2018-05-19T13:16:42Z</time>
      </trkpt>
      <trkpt lat="44.08995" lon="3.05643">
        <ele>369.9</ele>
        <time>2018-05-19T13:16:43Z</time>
      </trkpt>
      <trkpt lat="44.08993" lon="3.0565">
        <ele>369.7</ele>
        <time>2018-05-19T13:16:44Z</time>
      </trkpt>
      <trkpt lat="44.08993" lon="3.05655">
        <ele>369.4</ele>
        <time>2018-05-19T13:16:45Z</time>
      </trkpt>
      <trkpt lat="44.08991" lon="3.05659">
        <ele>369.3</ele>
        <time>2018-05-19T13:16:46Z</time>
      </trkpt>
      <trkpt lat="44.08989" lon="3.05663">
        <ele>368.8</ele>
        <time>2018-05-19T13:16:47Z</time>
      </trkpt>
      <trkpt lat="44.08985" lon="3.05666">
        <ele>368</ele>
        <time>2018-05-19T13:16:48Z</time>
      </trkpt>
      <trkpt lat="44.08977" lon="3.05671">
        <ele>366.7</ele>
        <time>2018-05-19T13:16:49Z</time>
      </trkpt>
      <trkpt lat="44.08973" lon="3.05678">
        <ele>366</ele>
        <time>2018-05-19T13:16:50Z</time>
      </trkpt>
      <trkpt lat="44.08968" lon="3.05688">
        <ele>366.2</ele>
        <time>2018-05-19T13:16:51Z</time>
      </trkpt>
      <trkpt lat="44.08964" lon="3.05697">
        <ele>366.6</ele>
        <time>2018-05-19T13:16:52Z</time>
      </trkpt>
      <trkpt lat="44.0896" lon="3.05707">
        <ele>367.1</ele>
        <time>2018-05-19T13:16:53Z</time>
      </trkpt>
      <trkpt lat="44.08956" lon="3.05719">
        <ele>367.5</ele>
        <time>2018-05-19T13:16:54Z</time>
      </trkpt>
      <trkpt lat="44.08955" lon="3.0573">
        <ele>368.3</ele>
        <time>2018-05-19T13:16:55Z</time>
      </trkpt>
      <trkpt lat="44.08955" lon="3.05739">
        <ele>369.2</ele>
        <time>2018-05-19T13:16:56Z</time>
      </trkpt>
      <trkpt lat="44.08955" lon="3.05749">
        <ele>370.1</ele>
        <time>2018-05-19T13:16:57Z</time>
      </trkpt>
      <trkpt lat="44.08955" lon="3.05757">
        <ele>370.9</ele>
        <time>2018-05-19T13:16:58Z</time>
      </trkpt>
      <trkpt lat="44.08955" lon="3.05766">
        <ele>371.6</ele>
        <time>2018-05-19T13:16:59Z</time>
      </trkpt>
      <trkpt lat="44.08955" lon="3.05773">
        <ele>372.3</ele>
        <time>2018-05-19T13:17:00Z</time>
      </trkpt>
      <trkpt lat="44.08956" lon="3.05781">
        <ele>373.2</ele>
        <time>2018-05-19T13:17:01Z</time>
      </trkpt>
      <trkpt lat="44.08956" lon="3.05788">
        <ele>373.8</ele>
        <time>2018-05-19T13:17:02Z</time>
      </trkpt>
      <trkpt lat="44.08957" lon="3.05795">
        <ele>374.4</ele>
        <time>2018-05-19T13:17:03Z</time>
      </trkpt>
      <trkpt lat="44.08957" lon="3.05802">
        <ele>375</ele>
        <time>2018-05-19T13:17:04Z</time>
      </trkpt>
      <trkpt lat="44.08958" lon="3.05809">
        <ele>375</ele>
        <time>2018-05-19T13:17:05Z</time>
      </trkpt>
      <trkpt lat="44.08957" lon="3.05815">
        <ele>375</ele>
        <time>2018-05-19T13:17:06Z</time>
      </trkpt>
      <trkpt lat="44.08957" lon="3.05821">
        <ele>375</ele>
        <time>2018-05-19T13:17:07Z</time>
      </trkpt>
      <trkpt lat="44.08959" lon="3.05827">
        <ele>375</ele>
        <time>2018-05-19T13:17:08Z</time>
      </trkpt>
      <trkpt lat="44.08958" lon="3.05832">
        <ele>375</ele>
        <time>2018-05-19T13:17:09Z</time>
      </trkpt>
      <trkpt lat="44.08958" lon="3.05836">
        <ele>375</ele>
        <time>2018-05-19T13:17:10Z</time>
      </trkpt>
      <trkpt lat="44.08957" lon="3.0584">
        <ele>375</ele>
        <time>2018-05-19T13:17:11Z</time>
      </trkpt>
      <trkpt lat="44.08954" lon="3.05846">
        <ele>374.7</ele>
        <time>2018-05-19T13:17:12Z</time>
      </trkpt>
      <trkpt lat="44.0895" lon="3.05852">
        <ele>374.1</ele>
        <time>2018-05-19T13:17:13Z</time>
      </trkpt>
      <trkpt lat="44.08945" lon="3.05858">
        <ele>373.4</ele>
        <time>2018-05-19T13:17:14Z</time>
      </trkpt>
      <trkpt lat="44.08941" lon="3.05864">
        <ele>373</ele>
        <time>2018-05-19T13:17:15Z</time>
      </trkpt>
      <trkpt lat="44.08935" lon="3.0587">
        <ele>372.6</ele>
        <time>2018-05-19T13:17:16Z</time>
      </trkpt>
      <trkpt lat="44.08931" lon="3.05877">
        <ele>372</ele>
        <time>2018-05-19T13:17:17Z</time>
      </trkpt>
      <trkpt lat="44.08926" lon="3.05886">
        <ele>371.3</ele>
        <time>2018-05-19T13:17:18Z</time>
      </trkpt>
      <trkpt lat="44.08921" lon="3.05894">
        <ele>370.6</ele>
        <time>2018-05-19T13:17:19Z</time>
      </trkpt>
      <trkpt lat="44.08917" lon="3.05901">
        <ele>370.1</ele>
        <time>2018-05-19T13:17:20Z</time>
      </trkpt>
      <trkpt lat="44.08914" lon="3.05911">
        <ele>369.9</ele>
        <time>2018-05-19T13:17:21Z</time>
      </trkpt>
      <trkpt lat="44.08911" lon="3.0592">
        <ele>369.7</ele>
        <time>2018-05-19T13:17:22Z</time>
      </trkpt>
      <trkpt lat="44.08907" lon="3.0593">
        <ele>369.7</ele>
        <time>2018-05-19T13:17:23Z</time>
      </trkpt>
      <trkpt lat="44.08903" lon="3.0594">
        <ele>369.7</ele>
        <time>2018-05-19T13:17:24Z</time>
      </trkpt>
      <trkpt lat="44.08894" lon="3.05946">
        <ele>369.8</ele>
        <time>2018-05-19T13:17:25Z</time>
      </trkpt>
      <trkpt lat="44.08891" lon="3.05953">
        <ele>369.8</ele>
        <time>2018-05-19T13:17:26Z</time>
      </trkpt>
      <trkpt lat="44.08887" lon="3.05963">
        <ele>369.9</ele>
        <time>2018-05-19T13:17:27Z</time>
      </trkpt>
      <trkpt lat="44.08886" lon="3.05969">
        <ele>369.9</ele>
        <time>2018-05-19T13:17:28Z</time>
      </trkpt>
      <trkpt lat="44.08883" lon="3.05975">
        <ele>369.9</ele>
        <time>2018-05-19T13:17:29Z</time>
      </trkpt>
      <trkpt lat="44.08883" lon="3.05979">
        <ele>370</ele>
        <time>2018-05-19T13:17:30Z</time>
      </trkpt>
      <trkpt lat="44.08884" lon="3.05974">
        <ele>370</ele>
        <time>2018-05-19T13:17:35Z</time>
      </trkpt>
      <trkpt lat="44.08887" lon="3.05975">
        <ele>370</ele>
        <time>2018-05-19T13:17:39Z</time>
      </trkpt>
      <trkpt lat="44.08891" lon="3.05976">
        <ele>370</ele>
        <time>2018-05-19T13:17:44Z</time>
      </trkpt>
      <trkpt lat="44.08888" lon="3.05979">
        <ele>370</ele>
        <time>2018-05-19T13:18:01Z</time>
      </trkpt>
      <trkpt lat="44.08886" lon="3.05984">
        <ele>370</ele>
        <time>2018-05-19T13:18:03Z</time>
      </trkpt>
      <trkpt lat="44.08883" lon="3.05989">
        <ele>369.9</ele>
        <time>2018-05-19T13:18:05Z</time>
      </trkpt>
      <trkpt lat="44.08881" lon="3.05996">
        <ele>369.5</ele>
        <time>2018-05-19T13:18:07Z</time>
      </trkpt>
      <trkpt lat="44.08881" lon="3.06003">
        <ele>369.2</ele>
        <time>2018-05-19T13:18:09Z</time>
      </trkpt>
      <trkpt lat="44.08881" lon="3.06007">
        <ele>369</ele>
        <time>2018-05-19T13:18:10Z</time>
      </trkpt>
      <trkpt lat="44.08881" lon="3.06014">
        <ele>368.6</ele>
        <time>2018-05-19T13:18:11Z</time>
      </trkpt>
      <trkpt lat="44.0888" lon="3.0602">
        <ele>368.3</ele>
        <time>2018-05-19T13:18:12Z</time>
      </trkpt>
      <trkpt lat="44.0888" lon="3.06027">
        <ele>368</ele>
        <time>2018-05-19T13:18:13Z</time>
      </trkpt>
      <trkpt lat="44.08878" lon="3.06036">
        <ele>368.4</ele>
        <time>2018-05-19T13:18:14Z</time>
      </trkpt>
      <trkpt lat="44.08879" lon="3.06044">
        <ele>368.8</ele>
        <time>2018-05-19T13:18:15Z</time>
      </trkpt>
      <trkpt lat="44.08879" lon="3.0605">
        <ele>369.1</ele>
        <time>2018-05-19T13:18:16Z</time>
      </trkpt>
      <trkpt lat="44.08881" lon="3.06057">
        <ele>369.5</ele>
        <time>2018-05-19T13:18:17Z</time>
      </trkpt>
      <trkpt lat="44.08884" lon="3.06063">
        <ele>369.9</ele>
        <time>2018-05-19T13:18:18Z</time>
      </trkpt>
      <trkpt lat="44.08886" lon="3.0607">
        <ele>370.2</ele>
        <time>2018-05-19T13:18:19Z</time>
      </trkpt>
      <trkpt lat="44.08891" lon="3.0608">
        <ele>370.8</ele>
        <time>2018-05-19T13:18:20Z</time>
      </trkpt>
      <trkpt lat="44.08893" lon="3.06087">
        <ele>371.2</ele>
        <time>2018-05-19T13:18:21Z</time>
      </trkpt>
      <trkpt lat="44.08896" lon="3.06094">
        <ele>371.6</ele>
        <time>2018-05-19T13:18:22Z</time>
      </trkpt>
      <trkpt lat="44.08901" lon="3.061">
        <ele>372</ele>
        <time>2018-05-19T13:18:23Z</time>
      </trkpt>
      <trkpt lat="44.08905" lon="3.06107">
        <ele>372.5</ele>
        <time>2018-05-19T13:18:24Z</time>
      </trkpt>
      <trkpt lat="44.08909" lon="3.06114">
        <ele>372.9</ele>
        <time>2018-05-19T13:18:25Z</time>
      </trkpt>
      <trkpt lat="44.08914" lon="3.06121">
        <ele>373.4</ele>
        <time>2018-05-19T13:18:26Z</time>
      </trkpt>
      <trkpt lat="44.08919" lon="3.06126">
        <ele>373.9</ele>
        <time>2018-05-19T13:18:27Z</time>
      </trkpt>
      <trkpt lat="44.08925" lon="3.06132">
        <ele>373.9</ele>
        <time>2018-05-19T13:18:28Z</time>
      </trkpt>
      <trkpt lat="44.0893" lon="3.06136">
        <ele>373.6</ele>
        <time>2018-05-19T13:18:29Z</time>
      </trkpt>
      <trkpt lat="44.08936" lon="3.06141">
        <ele>373.4</ele>
        <time>2018-05-19T13:18:30Z</time>
      </trkpt>
      <trkpt lat="44.08941" lon="3.06143">
        <ele>373.2</ele>
        <time>2018-05-19T13:18:31Z</time>
      </trkpt>
      <trkpt lat="44.08948" lon="3.06145">
        <ele>373</ele>
        <time>2018-05-19T13:18:32Z</time>
      </trkpt>
      <trkpt lat="44.08954" lon="3.06148">
        <ele>372.8</ele>
        <time>2018-05-19T13:18:33Z</time>
      </trkpt>
      <trkpt lat="44.08959" lon="3.06152">
        <ele>372.6</ele>
        <time>2018-05-19T13:18:34Z</time>
      </trkpt>
      <trkpt lat="44.08964" lon="3.06155">
        <ele>372.4</ele>
        <time>2018-05-19T13:18:35Z</time>
      </trkpt>
      <trkpt lat="44.0897" lon="3.06156">
        <ele>372.3</ele>
        <time>2018-05-19T13:18:36Z</time>
      </trkpt>
      <trkpt lat="44.08976" lon="3.06157">
        <ele>372.1</ele>
        <time>2018-05-19T13:18:37Z</time>
      </trkpt>
      <trkpt lat="44.08983" lon="3.06159">
        <ele>371.9</ele>
        <time>2018-05-19T13:18:38Z</time>
      </trkpt>
      <trkpt lat="44.0899" lon="3.0616">
        <ele>371.6</ele>
        <time>2018-05-19T13:18:39Z</time>
      </trkpt>
      <trkpt lat="44.08995" lon="3.0616">
        <ele>371.5</ele>
        <time>2018-05-19T13:18:40Z</time>
      </trkpt>
      <trkpt lat="44.09001" lon="3.0616">
        <ele>371.3</ele>
        <time>2018-05-19T13:18:41Z</time>
      </trkpt>
      <trkpt lat="44.09007" lon="3.0616">
        <ele>371.1</ele>
        <time>2018-05-19T13:18:42Z</time>
      </trkpt>
      <trkpt lat="44.09013" lon="3.06161">
        <ele>370.9</ele>
        <time>2018-05-19T13:18:43Z</time>
      </trkpt>
      <trkpt lat="44.0902" lon="3.06162">
        <ele>370.6</ele>
        <time>2018-05-19T13:18:44Z</time>
      </trkpt>
      <trkpt lat="44.09026" lon="3.06162">
        <ele>370.4</ele>
        <time>2018-05-19T13:18:45Z</time>
      </trkpt>
      <trkpt lat="44.09031" lon="3.06163">
        <ele>370.1</ele>
        <time>2018-05-19T13:18:46Z</time>
      </trkpt>
      <trkpt lat="44.09037" lon="3.06164">
        <ele>369.9</ele>
        <time>2018-05-19T13:18:47Z</time>
      </trkpt>
      <trkpt lat="44.09044" lon="3.06165">
        <ele>369.7</ele>
        <time>2018-05-19T13:18:48Z</time>
      </trkpt>
      <trkpt lat="44.09051" lon="3.06166">
        <ele>369.4</ele>
        <time>2018-05-19T13:18:49Z</time>
      </trkpt>
      <trkpt lat="44.09057" lon="3.06168">
        <ele>369.2</ele>
        <time>2018-05-19T13:18:50Z</time>
      </trkpt>
      <trkpt lat="44.09063" lon="3.06171">
        <ele>369</ele>
        <time>2018-05-19T13:18:51Z</time>
      </trkpt>
      <trkpt lat="44.09069" lon="3.06175">
        <ele>368.8</ele>
        <time>2018-05-19T13:18:52Z</time>
      </trkpt>
      <trkpt lat="44.09075" lon="3.06178">
        <ele>368.5</ele>
        <time>2018-05-19T13:18:53Z</time>
      </trkpt>
      <trkpt lat="44.09081" lon="3.06181">
        <ele>368.3</ele>
        <time>2018-05-19T13:18:54Z</time>
      </trkpt>
      <trkpt lat="44.09086" lon="3.06185">
        <ele>368.1</ele>
        <time>2018-05-19T13:18:55Z</time>
      </trkpt>
      <trkpt lat="44.09092" lon="3.06188">
        <ele>367.9</ele>
        <time>2018-05-19T13:18:56Z</time>
      </trkpt>
      <trkpt lat="44.09097" lon="3.06192">
        <ele>367.7</ele>
        <time>2018-05-19T13:18:57Z</time>
      </trkpt>
      <trkpt lat="44.09103" lon="3.06196">
        <ele>367.5</ele>
        <time>2018-05-19T13:18:58Z</time>
      </trkpt>
      <trkpt lat="44.09108" lon="3.06201">
        <ele>367.2</ele>
        <time>2018-05-19T13:18:59Z</time>
      </trkpt>
      <trkpt lat="44.09113" lon="3.06205">
        <ele>367</ele>
        <time>2018-05-19T13:19:00Z</time>
      </trkpt>
      <trkpt lat="44.09118" lon="3.06209">
        <ele>366.8</ele>
        <time>2018-05-19T13:19:01Z</time>
      </trkpt>
      <trkpt lat="44.09123" lon="3.06214">
        <ele>366.6</ele>
        <time>2018-05-19T13:19:02Z</time>
      </trkpt>
      <trkpt lat="44.09127" lon="3.06219">
        <ele>366.5</ele>
        <time>2018-05-19T13:19:03Z</time>
      </trkpt>
      <trkpt lat="44.09131" lon="3.06224">
        <ele>366.3</ele>
        <time>2018-05-19T13:19:04Z</time>
      </trkpt>
      <trkpt lat="44.09136" lon="3.06228">
        <ele>366.1</ele>
        <time>2018-05-19T13:19:05Z</time>
      </trkpt>
      <trkpt lat="44.09141" lon="3.06233">
        <ele>365.9</ele>
        <time>2018-05-19T13:19:06Z</time>
      </trkpt>
      <trkpt lat="44.09146" lon="3.06236">
        <ele>365.7</ele>
        <time>2018-05-19T13:19:07Z</time>
      </trkpt>
      <trkpt lat="44.09151" lon="3.06243">
        <ele>365.5</ele>
        <time>2018-05-19T13:19:08Z</time>
      </trkpt>
      <trkpt lat="44.09156" lon="3.06248">
        <ele>365.2</ele>
        <time>2018-05-19T13:19:09Z</time>
      </trkpt>
      <trkpt lat="44.09161" lon="3.06254">
        <ele>365</ele>
        <time>2018-05-19T13:19:10Z</time>
      </trkpt>
      <trkpt lat="44.09166" lon="3.0626">
        <ele>364.8</ele>
        <time>2018-05-19T13:19:11Z</time>
      </trkpt>
      <trkpt lat="44.0917" lon="3.06266">
        <ele>364.5</ele>
        <time>2018-05-19T13:19:12Z</time>
      </trkpt>
      <trkpt lat="44.09175" lon="3.06272">
        <ele>364.2</ele>
        <time>2018-05-19T13:19:13Z</time>
      </trkpt>
      <trkpt lat="44.09179" lon="3.06278">
        <ele>363.9</ele>
        <time>2018-05-19T13:19:14Z</time>
      </trkpt>
      <trkpt lat="44.09184" lon="3.06284">
        <ele>363.6</ele>
        <time>2018-05-19T13:19:15Z</time>
      </trkpt>
      <trkpt lat="44.09189" lon="3.06291">
        <ele>363.3</ele>
        <time>2018-05-19T13:19:16Z</time>
      </trkpt>
      <trkpt lat="44.09193" lon="3.06297">
        <ele>363</ele>
        <time>2018-05-19T13:19:17Z</time>
      </trkpt>
      <trkpt lat="44.09198" lon="3.06301">
        <ele>362.7</ele>
        <time>2018-05-19T13:19:18Z</time>
      </trkpt>
      <trkpt lat="44.09203" lon="3.06307">
        <ele>362.4</ele>
        <time>2018-05-19T13:19:19Z</time>
      </trkpt>
      <trkpt lat="44.09205" lon="3.06311">
        <ele>362.3</ele>
        <time>2018-05-19T13:19:20Z</time>
      </trkpt>
      <trkpt lat="44.09208" lon="3.06319">
        <ele>361.9</ele>
        <time>2018-05-19T13:19:21Z</time>
      </trkpt>
      <trkpt lat="44.09213" lon="3.06327">
        <ele>361.6</ele>
        <time>2018-05-19T13:19:22Z</time>
      </trkpt>
      <trkpt lat="44.09216" lon="3.06334">
        <ele>361.3</ele>
        <time>2018-05-19T13:19:23Z</time>
      </trkpt>
      <trkpt lat="44.0922" lon="3.06341">
        <ele>361</ele>
        <time>2018-05-19T13:19:24Z</time>
      </trkpt>
      <trkpt lat="44.09224" lon="3.06348">
        <ele>361</ele>
        <time>2018-05-19T13:19:25Z</time>
      </trkpt>
      <trkpt lat="44.09228" lon="3.06355">
        <ele>361</ele>
        <time>2018-05-19T13:19:26Z</time>
      </trkpt>
      <trkpt lat="44.09231" lon="3.06359">
        <ele>361</ele>
        <time>2018-05-19T13:19:27Z</time>
      </trkpt>
      <trkpt lat="44.09234" lon="3.06366">
        <ele>361</ele>
        <time>2018-05-19T13:19:28Z</time>
      </trkpt>
      <trkpt lat="44.09237" lon="3.06373">
        <ele>361</ele>
        <time>2018-05-19T13:19:29Z</time>
      </trkpt>
      <trkpt lat="44.0924" lon="3.06381">
        <ele>361</ele>
        <time>2018-05-19T13:19:30Z</time>
      </trkpt>
      <trkpt lat="44.09242" lon="3.06387">
        <ele>361</ele>
        <time>2018-05-19T13:19:31Z</time>
      </trkpt>
      <trkpt lat="44.09244" lon="3.06395">
        <ele>361</ele>
        <time>2018-05-19T13:19:32Z</time>
      </trkpt>
      <trkpt lat="44.09244" lon="3.06404">
        <ele>361</ele>
        <time>2018-05-19T13:19:33Z</time>
      </trkpt>
      <trkpt lat="44.09241" lon="3.0641">
        <ele>360.3</ele>
        <time>2018-05-19T13:19:34Z</time>
      </trkpt>
      <trkpt lat="44.09238" lon="3.06417">
        <ele>359.1</ele>
        <time>2018-05-19T13:19:35Z</time>
      </trkpt>
      <trkpt lat="44.09236" lon="3.06423">
        <ele>358</ele>
        <time>2018-05-19T13:19:36Z</time>
      </trkpt>
      <trkpt lat="44.09233" lon="3.06425">
        <ele>358</ele>
        <time>2018-05-19T13:19:37Z</time>
      </trkpt>
      <trkpt lat="44.09227" lon="3.06433">
        <ele>357.7</ele>
        <time>2018-05-19T13:19:38Z</time>
      </trkpt>
      <trkpt lat="44.09223" lon="3.06439">
        <ele>357.4</ele>
        <time>2018-05-19T13:19:39Z</time>
      </trkpt>
      <trkpt lat="44.09218" lon="3.06445">
        <ele>357</ele>
        <time>2018-05-19T13:19:40Z</time>
      </trkpt>
      <trkpt lat="44.09214" lon="3.06452">
        <ele>356.7</ele>
        <time>2018-05-19T13:19:41Z</time>
      </trkpt>
      <trkpt lat="44.0921" lon="3.06459">
        <ele>356.5</ele>
        <time>2018-05-19T13:19:42Z</time>
      </trkpt>
      <trkpt lat="44.09206" lon="3.06469">
        <ele>356.2</ele>
        <time>2018-05-19T13:19:43Z</time>
      </trkpt>
      <trkpt lat="44.09201" lon="3.06476">
        <ele>355.9</ele>
        <time>2018-05-19T13:19:44Z</time>
      </trkpt>
      <trkpt lat="44.09197" lon="3.06483">
        <ele>355.6</ele>
        <time>2018-05-19T13:19:45Z</time>
      </trkpt>
      <trkpt lat="44.09192" lon="3.06491">
        <ele>355.3</ele>
        <time>2018-05-19T13:19:46Z</time>
      </trkpt>
      <trkpt lat="44.09188" lon="3.06501">
        <ele>355</ele>
        <time>2018-05-19T13:19:47Z</time>
      </trkpt>
      <trkpt lat="44.09183" lon="3.0651">
        <ele>354.7</ele>
        <time>2018-05-19T13:19:48Z</time>
      </trkpt>
      <trkpt lat="44.09178" lon="3.06519">
        <ele>354.4</ele>
        <time>2018-05-19T13:19:49Z</time>
      </trkpt>
      <trkpt lat="44.09173" lon="3.06527">
        <ele>354.1</ele>
        <time>2018-05-19T13:19:50Z</time>
      </trkpt>
      <trkpt lat="44.09169" lon="3.06535">
        <ele>353.9</ele>
        <time>2018-05-19T13:19:51Z</time>
      </trkpt>
      <trkpt lat="44.09166" lon="3.06538">
        <ele>353.7</ele>
        <time>2018-05-19T13:19:52Z</time>
      </trkpt>
      <trkpt lat="44.09162" lon="3.06546">
        <ele>353.5</ele>
        <time>2018-05-19T13:19:54Z</time>
      </trkpt>
      <trkpt lat="44.09158" lon="3.06551">
        <ele>353</ele>
        <time>2018-05-19T13:19:55Z</time>
      </trkpt>
      <trkpt lat="44.09149" lon="3.06558">
        <ele>353</ele>
        <time>2018-05-19T13:19:56Z</time>
      </trkpt>
      <trkpt lat="44.09146" lon="3.06563">
        <ele>353</ele>
        <time>2018-05-19T13:19:57Z</time>
      </trkpt>
      <trkpt lat="44.09143" lon="3.06568">
        <ele>353.1</ele>
        <time>2018-05-19T13:19:58Z</time>
      </trkpt>
      <trkpt lat="44.0914" lon="3.0657">
        <ele>353.1</ele>
        <time>2018-05-19T13:19:59Z</time>
      </trkpt>
      <trkpt lat="44.09133" lon="3.06583">
        <ele>353.1</ele>
        <time>2018-05-19T13:20:01Z</time>
      </trkpt>
      <trkpt lat="44.09133" lon="3.06591">
        <ele>353.1</ele>
        <time>2018-05-19T13:20:02Z</time>
      </trkpt>
      <trkpt lat="44.09133" lon="3.06599">
        <ele>353.2</ele>
        <time>2018-05-19T13:20:03Z</time>
      </trkpt>
      <trkpt lat="44.09132" lon="3.06607">
        <ele>353.3</ele>
        <time>2018-05-19T13:20:04Z</time>
      </trkpt>
      <trkpt lat="44.09129" lon="3.06616">
        <ele>353.4</ele>
        <time>2018-05-19T13:20:05Z</time>
      </trkpt>
      <trkpt lat="44.09128" lon="3.06623">
        <ele>353.5</ele>
        <time>2018-05-19T13:20:06Z</time>
      </trkpt>
      <trkpt lat="44.09125" lon="3.06632">
        <ele>353.6</ele>
        <time>2018-05-19T13:20:07Z</time>
      </trkpt>
      <trkpt lat="44.09122" lon="3.06642">
        <ele>353.7</ele>
        <time>2018-05-19T13:20:08Z</time>
      </trkpt>
      <trkpt lat="44.09119" lon="3.06652">
        <ele>353.8</ele>
        <time>2018-05-19T13:20:09Z</time>
      </trkpt>
      <trkpt lat="44.09118" lon="3.0666">
        <ele>353.9</ele>
        <time>2018-05-19T13:20:10Z</time>
      </trkpt>
      <trkpt lat="44.09116" lon="3.06668">
        <ele>353.9</ele>
        <time>2018-05-19T13:20:11Z</time>
      </trkpt>
      <trkpt lat="44.09115" lon="3.06677">
        <ele>354</ele>
        <time>2018-05-19T13:20:12Z</time>
      </trkpt>
      <trkpt lat="44.09115" lon="3.06686">
        <ele>354</ele>
        <time>2018-05-19T13:20:13Z</time>
      </trkpt>
      <trkpt lat="44.09116" lon="3.06696">
        <ele>354</ele>
        <time>2018-05-19T13:20:14Z</time>
      </trkpt>
      <trkpt lat="44.09116" lon="3.06705">
        <ele>354.1</ele>
        <time>2018-05-19T13:20:15Z</time>
      </trkpt>
      <trkpt lat="44.09116" lon="3.06714">
        <ele>354.5</ele>
        <time>2018-05-19T13:20:16Z</time>
      </trkpt>
      <trkpt lat="44.09116" lon="3.06722">
        <ele>354.8</ele>
        <time>2018-05-19T13:20:17Z</time>
      </trkpt>
      <trkpt lat="44.09116" lon="3.0673">
        <ele>355.1</ele>
        <time>2018-05-19T13:20:18Z</time>
      </trkpt>
      <trkpt lat="44.09117" lon="3.06739">
        <ele>355.5</ele>
        <time>2018-05-19T13:20:19Z</time>
      </trkpt>
      <trkpt lat="44.09118" lon="3.06747">
        <ele>355.8</ele>
        <time>2018-05-19T13:20:20Z</time>
      </trkpt>
      <trkpt lat="44.09119" lon="3.06754">
        <ele>356</ele>
        <time>2018-05-19T13:20:21Z</time>
      </trkpt>
      <trkpt lat="44.09121" lon="3.06762">
        <ele>356</ele>
        <time>2018-05-19T13:20:22Z</time>
      </trkpt>
      <trkpt lat="44.09123" lon="3.0677">
        <ele>356</ele>
        <time>2018-05-19T13:20:23Z</time>
      </trkpt>
      <trkpt lat="44.09125" lon="3.06781">
        <ele>356</ele>
        <time>2018-05-19T13:20:24Z</time>
      </trkpt>
      <trkpt lat="44.09126" lon="3.06789">
        <ele>356</ele>
        <time>2018-05-19T13:20:25Z</time>
      </trkpt>
      <trkpt lat="44.09128" lon="3.06797">
        <ele>356</ele>
        <time>2018-05-19T13:20:26Z</time>
      </trkpt>
      <trkpt lat="44.09128" lon="3.06803">
        <ele>356</ele>
        <time>2018-05-19T13:20:27Z</time>
      </trkpt>
      <trkpt lat="44.0913" lon="3.0681">
        <ele>356</ele>
        <time>2018-05-19T13:20:28Z</time>
      </trkpt>
      <trkpt lat="44.09132" lon="3.06817">
        <ele>356</ele>
        <time>2018-05-19T13:20:29Z</time>
      </trkpt>
      <trkpt lat="44.09133" lon="3.06824">
        <ele>356</ele>
        <time>2018-05-19T13:20:30Z</time>
      </trkpt>
      <trkpt lat="44.09135" lon="3.0683">
        <ele>355.9</ele>
        <time>2018-05-19T13:20:31Z</time>
      </trkpt>
      <trkpt lat="44.09135" lon="3.06837">
        <ele>355.6</ele>
        <time>2018-05-19T13:20:32Z</time>
      </trkpt>
      <trkpt lat="44.09137" lon="3.06844">
        <ele>355.2</ele>
        <time>2018-05-19T13:20:33Z</time>
      </trkpt>
      <trkpt lat="44.09138" lon="3.06848">
        <ele>355</ele>
        <time>2018-05-19T13:20:34Z</time>
      </trkpt>
      <trkpt lat="44.09139" lon="3.06855">
        <ele>355</ele>
        <time>2018-05-19T13:20:35Z</time>
      </trkpt>
      <trkpt lat="44.0914" lon="3.06861">
        <ele>354.9</ele>
        <time>2018-05-19T13:20:36Z</time>
      </trkpt>
      <trkpt lat="44.09141" lon="3.06867">
        <ele>354.6</ele>
        <time>2018-05-19T13:20:37Z</time>
      </trkpt>
      <trkpt lat="44.09144" lon="3.06875">
        <ele>354.3</ele>
        <time>2018-05-19T13:20:38Z</time>
      </trkpt>
      <trkpt lat="44.09145" lon="3.06883">
        <ele>354.1</ele>
        <time>2018-05-19T13:20:39Z</time>
      </trkpt>
      <trkpt lat="44.09146" lon="3.06889">
        <ele>353.9</ele>
        <time>2018-05-19T13:20:40Z</time>
      </trkpt>
      <trkpt lat="44.09147" lon="3.06896">
        <ele>353.6</ele>
        <time>2018-05-19T13:20:41Z</time>
      </trkpt>
      <trkpt lat="44.09149" lon="3.06905">
        <ele>353.3</ele>
        <time>2018-05-19T13:20:42Z</time>
      </trkpt>
      <trkpt lat="44.0915" lon="3.06911">
        <ele>353</ele>
        <time>2018-05-19T13:20:43Z</time>
      </trkpt>
      <trkpt lat="44.09151" lon="3.06918">
        <ele>352.8</ele>
        <time>2018-05-19T13:20:44Z</time>
      </trkpt>
      <trkpt lat="44.09151" lon="3.06928">
        <ele>352.4</ele>
        <time>2018-05-19T13:20:46Z</time>
      </trkpt>
      <trkpt lat="44.09154" lon="3.06935">
        <ele>352</ele>
        <time>2018-05-19T13:20:47Z</time>
      </trkpt>
      <trkpt lat="44.09155" lon="3.06941">
        <ele>352.2</ele>
        <time>2018-05-19T13:20:48Z</time>
      </trkpt>
      <trkpt lat="44.09157" lon="3.06948">
        <ele>352.5</ele>
        <time>2018-05-19T13:20:49Z</time>
      </trkpt>
      <trkpt lat="44.09159" lon="3.06955">
        <ele>352.7</ele>
        <time>2018-05-19T13:20:50Z</time>
      </trkpt>
      <trkpt lat="44.09161" lon="3.06963">
        <ele>353.1</ele>
        <time>2018-05-19T13:20:51Z</time>
      </trkpt>
      <trkpt lat="44.09164" lon="3.0697">
        <ele>353.4</ele>
        <time>2018-05-19T13:20:52Z</time>
      </trkpt>
      <trkpt lat="44.09166" lon="3.06977">
        <ele>353.7</ele>
        <time>2018-05-19T13:20:53Z</time>
      </trkpt>
      <trkpt lat="44.09169" lon="3.06983">
        <ele>354</ele>
        <time>2018-05-19T13:20:54Z</time>
      </trkpt>
      <trkpt lat="44.09173" lon="3.06992">
        <ele>354.4</ele>
        <time>2018-05-19T13:20:55Z</time>
      </trkpt>
      <trkpt lat="44.09175" lon="3.06997">
        <ele>354.7</ele>
        <time>2018-05-19T13:20:56Z</time>
      </trkpt>
      <trkpt lat="44.09176" lon="3.07003">
        <ele>355</ele>
        <time>2018-05-19T13:20:57Z</time>
      </trkpt>
      <trkpt lat="44.09177" lon="3.07008">
        <ele>355</ele>
        <time>2018-05-19T13:20:58Z</time>
      </trkpt>
      <trkpt lat="44.09179" lon="3.07011">
        <ele>355</ele>
        <time>2018-05-19T13:20:59Z</time>
      </trkpt>
      <trkpt lat="44.09181" lon="3.07013">
        <ele>355</ele>
        <time>2018-05-19T13:21:01Z</time>
      </trkpt>
      <trkpt lat="44.09183" lon="3.07018">
        <ele>355</ele>
        <time>2018-05-19T13:21:03Z</time>
      </trkpt>
      <trkpt lat="44.09182" lon="3.07022">
        <ele>355</ele>
        <time>2018-05-19T13:21:04Z</time>
      </trkpt>
      <trkpt lat="44.09184" lon="3.07024">
        <ele>355</ele>
        <time>2018-05-19T13:21:08Z</time>
      </trkpt>
      <trkpt lat="44.09187" lon="3.07027">
        <ele>355</ele>
        <time>2018-05-19T13:21:13Z</time>
      </trkpt>
      <trkpt lat="44.09189" lon="3.07031">
        <ele>355</ele>
        <time>2018-05-19T13:21:15Z</time>
      </trkpt>
      <trkpt lat="44.09192" lon="3.07037">
        <ele>355</ele>
        <time>2018-05-19T13:21:17Z</time>
      </trkpt>
      <trkpt lat="44.09193" lon="3.0704">
        <ele>355</ele>
        <time>2018-05-19T13:21:18Z</time>
      </trkpt>
      <trkpt lat="44.09196" lon="3.07044">
        <ele>355</ele>
        <time>2018-05-19T13:21:20Z</time>
      </trkpt>
      <trkpt lat="44.09198" lon="3.07048">
        <ele>354.9</ele>
        <time>2018-05-19T13:21:22Z</time>
      </trkpt>
      <trkpt lat="44.09198" lon="3.07053">
        <ele>354.9</ele>
        <time>2018-05-19T13:21:24Z</time>
      </trkpt>
      <trkpt lat="44.09198" lon="3.07059">
        <ele>354.9</ele>
        <time>2018-05-19T13:21:26Z</time>
      </trkpt>
      <trkpt lat="44.09199" lon="3.07063">
        <ele>354.9</ele>
        <time>2018-05-19T13:21:27Z</time>
      </trkpt>
      <trkpt lat="44.092" lon="3.07067">
        <ele>354.9</ele>
        <time>2018-05-19T13:21:28Z</time>
      </trkpt>
      <trkpt lat="44.09203" lon="3.0707">
        <ele>355</ele>
        <time>2018-05-19T13:21:29Z</time>
      </trkpt>
      <trkpt lat="44.09206" lon="3.07073">
        <ele>355</ele>
        <time>2018-05-19T13:21:30Z</time>
      </trkpt>
      <trkpt lat="44.09209" lon="3.07076">
        <ele>355</ele>
        <time>2018-05-19T13:21:31Z</time>
      </trkpt>
      <trkpt lat="44.09211" lon="3.07079">
        <ele>355</ele>
        <time>2018-05-19T13:21:32Z</time>
      </trkpt>
      <trkpt lat="44.09214" lon="3.07083">
        <ele>355</ele>
        <time>2018-05-19T13:21:33Z</time>
      </trkpt>
      <trkpt lat="44.09216" lon="3.07086">
        <ele>355</ele>
        <time>2018-05-19T13:21:34Z</time>
      </trkpt>
      <trkpt lat="44.09218" lon="3.0709">
        <ele>355.1</ele>
        <time>2018-05-19T13:21:35Z</time>
      </trkpt>
      <trkpt lat="44.09221" lon="3.07093">
        <ele>355.2</ele>
        <time>2018-05-19T13:21:36Z</time>
      </trkpt>
      <trkpt lat="44.09224" lon="3.07097">
        <ele>355.3</ele>
        <time>2018-05-19T13:21:37Z</time>
      </trkpt>
      <trkpt lat="44.09227" lon="3.07101">
        <ele>355.4</ele>
        <time>2018-05-19T13:21:38Z</time>
      </trkpt>
      <trkpt lat="44.09229" lon="3.07104">
        <ele>355.5</ele>
        <time>2018-05-19T13:21:39Z</time>
      </trkpt>
      <trkpt lat="44.09231" lon="3.07107">
        <ele>355.5</ele>
        <time>2018-05-19T13:21:40Z</time>
      </trkpt>
      <trkpt lat="44.09234" lon="3.07109">
        <ele>355.6</ele>
        <time>2018-05-19T13:21:41Z</time>
      </trkpt>
      <trkpt lat="44.09236" lon="3.07112">
        <ele>355.7</ele>
        <time>2018-05-19T13:21:42Z</time>
      </trkpt>
      <trkpt lat="44.09238" lon="3.07115">
        <ele>355.8</ele>
        <time>2018-05-19T13:21:43Z</time>
      </trkpt>
      <trkpt lat="44.0924" lon="3.07119">
        <ele>355.9</ele>
        <time>2018-05-19T13:21:44Z</time>
      </trkpt>
      <trkpt lat="44.09242" lon="3.07122">
        <ele>356</ele>
        <time>2018-05-19T13:21:45Z</time>
      </trkpt>
      <trkpt lat="44.09244" lon="3.07126">
        <ele>356.1</ele>
        <time>2018-05-19T13:21:46Z</time>
      </trkpt>
      <trkpt lat="44.09247" lon="3.0713">
        <ele>356.2</ele>
        <time>2018-05-19T13:21:47Z</time>
      </trkpt>
      <trkpt lat="44.09249" lon="3.07134">
        <ele>356.3</ele>
        <time>2018-05-19T13:21:49Z</time>
      </trkpt>
      <trkpt lat="44.09252" lon="3.07139">
        <ele>356.4</ele>
        <time>2018-05-19T13:21:51Z</time>
      </trkpt>
      <trkpt lat="44.09254" lon="3.07142">
        <ele>356.5</ele>
        <time>2018-05-19T13:21:52Z</time>
      </trkpt>
      <trkpt lat="44.09256" lon="3.07146">
        <ele>356.7</ele>
        <time>2018-05-19T13:21:53Z</time>
      </trkpt>
      <trkpt lat="44.09258" lon="3.0715">
        <ele>356.8</ele>
        <time>2018-05-19T13:21:54Z</time>
      </trkpt>
      <trkpt lat="44.0926" lon="3.07154">
        <ele>356.9</ele>
        <time>2018-05-19T13:21:55Z</time>
      </trkpt>
      <trkpt lat="44.09262" lon="3.07158">
        <ele>357</ele>
        <time>2018-05-19T13:21:56Z</time>
      </trkpt>
      <trkpt lat="44.09265" lon="3.07162">
        <ele>357</ele>
        <time>2018-05-19T13:21:57Z</time>
      </trkpt>
      <trkpt lat="44.09267" lon="3.07167">
        <ele>357</ele>
        <time>2018-05-19T13:21:59Z</time>
      </trkpt>
      <trkpt lat="44.09269" lon="3.07174">
        <ele>357</ele>
        <time>2018-05-19T13:22:01Z</time>
      </trkpt>
      <trkpt lat="44.0927" lon="3.07178">
        <ele>357</ele>
        <time>2018-05-19T13:22:02Z</time>
      </trkpt>
      <trkpt lat="44.09272" lon="3.07183">
        <ele>357</ele>
        <time>2018-05-19T13:22:03Z</time>
      </trkpt>
      <trkpt lat="44.09273" lon="3.07187">
        <ele>357</ele>
        <time>2018-05-19T13:22:04Z</time>
      </trkpt>
      <trkpt lat="44.09274" lon="3.07191">
        <ele>357</ele>
        <time>2018-05-19T13:22:05Z</time>
      </trkpt>
      <trkpt lat="44.09276" lon="3.07196">
        <ele>357</ele>
        <time>2018-05-19T13:22:06Z</time>
      </trkpt>
      <trkpt lat="44.09277" lon="3.072">
        <ele>357</ele>
        <time>2018-05-19T13:22:07Z</time>
      </trkpt>
      <trkpt lat="44.09278" lon="3.07205">
        <ele>357</ele>
        <time>2018-05-19T13:22:08Z</time>
      </trkpt>
      <trkpt lat="44.09278" lon="3.07209">
        <ele>357</ele>
        <time>2018-05-19T13:22:09Z</time>
      </trkpt>
      <trkpt lat="44.09279" lon="3.07214">
        <ele>356.9</ele>
        <time>2018-05-19T13:22:10Z</time>
      </trkpt>
      <trkpt lat="44.0928" lon="3.07218">
        <ele>356.9</ele>
        <time>2018-05-19T13:22:11Z</time>
      </trkpt>
      <trkpt lat="44.09281" lon="3.07223">
        <ele>356.9</ele>
        <time>2018-05-19T13:22:12Z</time>
      </trkpt>
      <trkpt lat="44.09282" lon="3.07228">
        <ele>356.8</ele>
        <time>2018-05-19T13:22:13Z</time>
      </trkpt>
      <trkpt lat="44.09283" lon="3.07232">
        <ele>356.8</ele>
        <time>2018-05-19T13:22:14Z</time>
      </trkpt>
      <trkpt lat="44.09285" lon="3.07236">
        <ele>356.7</ele>
        <time>2018-05-19T13:22:15Z</time>
      </trkpt>
      <trkpt lat="44.09287" lon="3.07239">
        <ele>356.7</ele>
        <time>2018-05-19T13:22:16Z</time>
      </trkpt>
      <trkpt lat="44.09289" lon="3.07243">
        <ele>356.6</ele>
        <time>2018-05-19T13:22:17Z</time>
      </trkpt>
      <trkpt lat="44.09291" lon="3.07246">
        <ele>356.5</ele>
        <time>2018-05-19T13:22:18Z</time>
      </trkpt>
      <trkpt lat="44.09293" lon="3.07249">
        <ele>356.5</ele>
        <time>2018-05-19T13:22:19Z</time>
      </trkpt>
      <trkpt lat="44.09294" lon="3.07253">
        <ele>356.4</ele>
        <time>2018-05-19T13:22:20Z</time>
      </trkpt>
      <trkpt lat="44.09296" lon="3.07256">
        <ele>356.4</ele>
        <time>2018-05-19T13:22:21Z</time>
      </trkpt>
      <trkpt lat="44.09299" lon="3.07262">
        <ele>356.3</ele>
        <time>2018-05-19T13:22:23Z</time>
      </trkpt>
      <trkpt lat="44.093" lon="3.07265">
        <ele>356</ele>
        <time>2018-05-19T13:22:24Z</time>
      </trkpt>
      <trkpt lat="44.09302" lon="3.07269">
        <ele>356</ele>
        <time>2018-05-19T13:22:25Z</time>
      </trkpt>
      <trkpt lat="44.09303" lon="3.07272">
        <ele>356</ele>
        <time>2018-05-19T13:22:26Z</time>
      </trkpt>
      <trkpt lat="44.09304" lon="3.07276">
        <ele>356</ele>
        <time>2018-05-19T13:22:27Z</time>
      </trkpt>
      <trkpt lat="44.09306" lon="3.07279">
        <ele>356</ele>
        <time>2018-05-19T13:22:28Z</time>
      </trkpt>
      <trkpt lat="44.09307" lon="3.07282">
        <ele>355.9</ele>
        <time>2018-05-19T13:22:29Z</time>
      </trkpt>
      <trkpt lat="44.09309" lon="3.07286">
        <ele>355.9</ele>
        <time>2018-05-19T13:22:30Z</time>
      </trkpt>
      <trkpt lat="44.0931" lon="3.07289">
        <ele>355.9</ele>
        <time>2018-05-19T13:22:31Z</time>
      </trkpt>
      <trkpt lat="44.09312" lon="3.07292">
        <ele>355.9</ele>
        <time>2018-05-19T13:22:32Z</time>
      </trkpt>
      <trkpt lat="44.09313" lon="3.07296">
        <ele>355.8</ele>
        <time>2018-05-19T13:22:33Z</time>
      </trkpt>
      <trkpt lat="44.09314" lon="3.073">
        <ele>355.8</ele>
        <time>2018-05-19T13:22:34Z</time>
      </trkpt>
      <trkpt lat="44.09316" lon="3.07303">
        <ele>355.8</ele>
        <time>2018-05-19T13:22:35Z</time>
      </trkpt>
      <trkpt lat="44.09317" lon="3.07307">
        <ele>355.8</ele>
        <time>2018-05-19T13:22:36Z</time>
      </trkpt>
      <trkpt lat="44.09319" lon="3.07313">
        <ele>355.9</ele>
        <time>2018-05-19T13:22:38Z</time>
      </trkpt>
      <trkpt lat="44.09321" lon="3.07317">
        <ele>355.9</ele>
        <time>2018-05-19T13:22:40Z</time>
      </trkpt>
      <trkpt lat="44.09323" lon="3.07323">
        <ele>356</ele>
        <time>2018-05-19T13:22:42Z</time>
      </trkpt>
      <trkpt lat="44.09324" lon="3.07327">
        <ele>356.1</ele>
        <time>2018-05-19T13:22:45Z</time>
      </trkpt>
      <trkpt lat="44.09325" lon="3.07331">
        <ele>356.1</ele>
        <time>2018-05-19T13:22:52Z</time>
      </trkpt>
      <trkpt lat="44.09328" lon="3.07336">
        <ele>356.2</ele>
        <time>2018-05-19T13:23:58Z</time>
      </trkpt>
      <trkpt lat="44.09329" lon="3.07339">
        <ele>356.2</ele>
        <time>2018-05-19T13:24:00Z</time>
      </trkpt>
      <trkpt lat="44.09331" lon="3.07343">
        <ele>356.2</ele>
        <time>2018-05-19T13:24:02Z</time>
      </trkpt>
      <trkpt lat="44.09333" lon="3.07348">
        <ele>356.2</ele>
        <time>2018-05-19T13:24:05Z</time>
      </trkpt>
      <trkpt lat="44.09335" lon="3.07351">
        <ele>356.2</ele>
        <time>2018-05-19T13:24:07Z</time>
      </trkpt>
      <trkpt lat="44.09337" lon="3.07355">
        <ele>356.2</ele>
        <time>2018-05-19T13:24:09Z</time>
      </trkpt>
      <trkpt lat="44.09339" lon="3.07359">
        <ele>356.2</ele>
        <time>2018-05-19T13:24:11Z</time>
      </trkpt>
      <trkpt lat="44.0934" lon="3.07365">
        <ele>356.3</ele>
        <time>2018-05-19T13:24:13Z</time>
      </trkpt>
      <trkpt lat="44.09342" lon="3.0737">
        <ele>356.3</ele>
        <time>2018-05-19T13:24:15Z</time>
      </trkpt>
      <trkpt lat="44.09344" lon="3.07377">
        <ele>356.3</ele>
        <time>2018-05-19T13:24:17Z</time>
      </trkpt>
      <trkpt lat="44.09346" lon="3.07384">
        <ele>356.3</ele>
        <time>2018-05-19T13:24:19Z</time>
      </trkpt>
      <trkpt lat="44.09347" lon="3.07388">
        <ele>356.2</ele>
        <time>2018-05-19T13:24:20Z</time>
      </trkpt>
      <trkpt lat="44.09348" lon="3.07394">
        <ele>356.2</ele>
        <time>2018-05-19T13:24:22Z</time>
      </trkpt>
      <trkpt lat="44.09349" lon="3.074">
        <ele>356</ele>
        <time>2018-05-19T13:24:24Z</time>
      </trkpt>
      <trkpt lat="44.09348" lon="3.07404">
        <ele>355.9</ele>
        <time>2018-05-19T13:24:25Z</time>
      </trkpt>
      <trkpt lat="44.09347" lon="3.07408">
        <ele>355.7</ele>
        <time>2018-05-19T13:24:26Z</time>
      </trkpt>
      <trkpt lat="44.09345" lon="3.07413">
        <ele>355.4</ele>
        <time>2018-05-19T13:24:27Z</time>
      </trkpt>
      <trkpt lat="44.09342" lon="3.07418">
        <ele>355</ele>
        <time>2018-05-19T13:24:28Z</time>
      </trkpt>
      <trkpt lat="44.09338" lon="3.07423">
        <ele>354.5</ele>
        <time>2018-05-19T13:24:29Z</time>
      </trkpt>
      <trkpt lat="44.09335" lon="3.07428">
        <ele>354.1</ele>
        <time>2018-05-19T13:24:30Z</time>
      </trkpt>
      <trkpt lat="44.09334" lon="3.07433">
        <ele>353.6</ele>
        <time>2018-05-19T13:24:31Z</time>
      </trkpt>
      <trkpt lat="44.09338" lon="3.07441">
        <ele>356.1</ele>
        <time>2018-05-19T13:24:32Z</time>
      </trkpt>
      <trkpt lat="44.09339" lon="3.07448">
        <ele>358.1</ele>
        <time>2018-05-19T13:24:34Z</time>
      </trkpt>
      <trkpt lat="44.09338" lon="3.07454">
        <ele>359</ele>
        <time>2018-05-19T13:24:35Z</time>
      </trkpt>
      <trkpt lat="44.09339" lon="3.07458">
        <ele>359</ele>
        <time>2018-05-19T13:24:37Z</time>
      </trkpt>
      <trkpt lat="44.09338" lon="3.07462">
        <ele>359</ele>
        <time>2018-05-19T13:24:38Z</time>
      </trkpt>
      <trkpt lat="44.09339" lon="3.07468">
        <ele>359</ele>
        <time>2018-05-19T13:24:41Z</time>
      </trkpt>
      <trkpt lat="44.09335" lon="3.07472">
        <ele>359</ele>
        <time>2018-05-19T13:24:42Z</time>
      </trkpt>
      <trkpt lat="44.09332" lon="3.07474">
        <ele>359</ele>
        <time>2018-05-19T13:24:43Z</time>
      </trkpt>
      <trkpt lat="44.0933" lon="3.07477">
        <ele>359</ele>
        <time>2018-05-19T13:24:44Z</time>
      </trkpt>
      <trkpt lat="44.09327" lon="3.0748">
        <ele>359</ele>
        <time>2018-05-19T13:24:45Z</time>
      </trkpt>
      <trkpt lat="44.09325" lon="3.07483">
        <ele>359.1</ele>
        <time>2018-05-19T13:24:46Z</time>
      </trkpt>
      <trkpt lat="44.09323" lon="3.07486">
        <ele>359.1</ele>
        <time>2018-05-19T13:24:47Z</time>
      </trkpt>
      <trkpt lat="44.0932" lon="3.07489">
        <ele>359.1</ele>
        <time>2018-05-19T13:24:48Z</time>
      </trkpt>
      <trkpt lat="44.09318" lon="3.07492">
        <ele>359.1</ele>
        <time>2018-05-19T13:24:49Z</time>
      </trkpt>
      <trkpt lat="44.09316" lon="3.07495">
        <ele>359.2</ele>
        <time>2018-05-19T13:24:50Z</time>
      </trkpt>
      <trkpt lat="44.09313" lon="3.07498">
        <ele>359.2</ele>
        <time>2018-05-19T13:24:51Z</time>
      </trkpt>
      <trkpt lat="44.0931" lon="3.07501">
        <ele>359.2</ele>
        <time>2018-05-19T13:24:52Z</time>
      </trkpt>
      <trkpt lat="44.09308" lon="3.07504">
        <ele>359.2</ele>
        <time>2018-05-19T13:24:53Z</time>
      </trkpt>
      <trkpt lat="44.09305" lon="3.07508">
        <ele>359.3</ele>
        <time>2018-05-19T13:24:54Z</time>
      </trkpt>
      <trkpt lat="44.09302" lon="3.07511">
        <ele>359.3</ele>
        <time>2018-05-19T13:24:55Z</time>
      </trkpt>
      <trkpt lat="44.09299" lon="3.07515">
        <ele>359.3</ele>
        <time>2018-05-19T13:24:56Z</time>
      </trkpt>
      <trkpt lat="44.09296" lon="3.07518">
        <ele>359.3</ele>
        <time>2018-05-19T13:24:57Z</time>
      </trkpt>
      <trkpt lat="44.09293" lon="3.07521">
        <ele>359.4</ele>
        <time>2018-05-19T13:24:58Z</time>
      </trkpt>
      <trkpt lat="44.0929" lon="3.07525">
        <ele>359.4</ele>
        <time>2018-05-19T13:24:59Z</time>
      </trkpt>
      <trkpt lat="44.09288" lon="3.07528">
        <ele>359.4</ele>
        <time>2018-05-19T13:25:00Z</time>
      </trkpt>
      <trkpt lat="44.09285" lon="3.07531">
        <ele>359.4</ele>
        <time>2018-05-19T13:25:01Z</time>
      </trkpt>
      <trkpt lat="44.09282" lon="3.07534">
        <ele>359.5</ele>
        <time>2018-05-19T13:25:02Z</time>
      </trkpt>
      <trkpt lat="44.09279" lon="3.07537">
        <ele>359.5</ele>
        <time>2018-05-19T13:25:03Z</time>
      </trkpt>
      <trkpt lat="44.09276" lon="3.07541">
        <ele>359.5</ele>
        <time>2018-05-19T13:25:04Z</time>
      </trkpt>
      <trkpt lat="44.09273" lon="3.07544">
        <ele>359.6</ele>
        <time>2018-05-19T13:25:05Z</time>
      </trkpt>
      <trkpt lat="44.0927" lon="3.07547">
        <ele>359.6</ele>
        <time>2018-05-19T13:25:06Z</time>
      </trkpt>
      <trkpt lat="44.09267" lon="3.07549">
        <ele>359.6</ele>
        <time>2018-05-19T13:25:07Z</time>
      </trkpt>
      <trkpt lat="44.09264" lon="3.07552">
        <ele>359.6</ele>
        <time>2018-05-19T13:25:08Z</time>
      </trkpt>
      <trkpt lat="44.0926" lon="3.07555">
        <ele>359.7</ele>
        <time>2018-05-19T13:25:09Z</time>
      </trkpt>
      <trkpt lat="44.09257" lon="3.07558">
        <ele>359.7</ele>
        <time>2018-05-19T13:25:10Z</time>
      </trkpt>
      <trkpt lat="44.09253" lon="3.07562">
        <ele>359.8</ele>
        <time>2018-05-19T13:25:11Z</time>
      </trkpt>
      <trkpt lat="44.09249" lon="3.07565">
        <ele>359.8</ele>
        <time>2018-05-19T13:25:12Z</time>
      </trkpt>
      <trkpt lat="44.09245" lon="3.07569">
        <ele>359.8</ele>
        <time>2018-05-19T13:25:13Z</time>
      </trkpt>
      <trkpt lat="44.09242" lon="3.07572">
        <ele>359.9</ele>
        <time>2018-05-19T13:25:14Z</time>
      </trkpt>
      <trkpt lat="44.09238" lon="3.07575">
        <ele>359.9</ele>
        <time>2018-05-19T13:25:15Z</time>
      </trkpt>
      <trkpt lat="44.09234" lon="3.07578">
        <ele>360</ele>
        <time>2018-05-19T13:25:16Z</time>
      </trkpt>
      <trkpt lat="44.0923" lon="3.07582">
        <ele>360</ele>
        <time>2018-05-19T13:25:17Z</time>
      </trkpt>
      <trkpt lat="44.09227" lon="3.07585">
        <ele>360</ele>
        <time>2018-05-19T13:25:18Z</time>
      </trkpt>
      <trkpt lat="44.09224" lon="3.07587">
        <ele>360</ele>
        <time>2018-05-19T13:25:19Z</time>
      </trkpt>
      <trkpt lat="44.09222" lon="3.07589">
        <ele>360</ele>
        <time>2018-05-19T13:25:20Z</time>
      </trkpt>
      <trkpt lat="44.09218" lon="3.07592">
        <ele>360</ele>
        <time>2018-05-19T13:25:21Z</time>
      </trkpt>
      <trkpt lat="44.09215" lon="3.07594">
        <ele>360</ele>
        <time>2018-05-19T13:25:22Z</time>
      </trkpt>
      <trkpt lat="44.09213" lon="3.07597">
        <ele>360</ele>
        <time>2018-05-19T13:25:23Z</time>
      </trkpt>
      <trkpt lat="44.0921" lon="3.07599">
        <ele>360</ele>
        <time>2018-05-19T13:25:24Z</time>
      </trkpt>
      <trkpt lat="44.09207" lon="3.07602">
        <ele>360</ele>
        <time>2018-05-19T13:25:26Z</time>
      </trkpt>
      <trkpt lat="44.09207" lon="3.07606">
        <ele>360</ele>
        <time>2018-05-19T13:25:28Z</time>
      </trkpt>
      <trkpt lat="44.09209" lon="3.07611">
        <ele>360</ele>
        <time>2018-05-19T13:25:30Z</time>
      </trkpt>
      <trkpt lat="44.09211" lon="3.07617">
        <ele>360</ele>
        <time>2018-05-19T13:25:32Z</time>
      </trkpt>
      <trkpt lat="44.0921" lon="3.07622">
        <ele>360</ele>
        <time>2018-05-19T13:25:34Z</time>
      </trkpt>
      <trkpt lat="44.09205" lon="3.07627">
        <ele>360.3</ele>
        <time>2018-05-19T13:25:36Z</time>
      </trkpt>
      <trkpt lat="44.09203" lon="3.0763">
        <ele>360.4</ele>
        <time>2018-05-19T13:25:37Z</time>
      </trkpt>
      <trkpt lat="44.092" lon="3.07634">
        <ele>360.5</ele>
        <time>2018-05-19T13:25:38Z</time>
      </trkpt>
      <trkpt lat="44.09198" lon="3.07637">
        <ele>360.6</ele>
        <time>2018-05-19T13:25:39Z</time>
      </trkpt>
      <trkpt lat="44.09196" lon="3.07639">
        <ele>360.7</ele>
        <time>2018-05-19T13:25:40Z</time>
      </trkpt>
      <trkpt lat="44.09192" lon="3.07645">
        <ele>360.9</ele>
        <time>2018-05-19T13:25:42Z</time>
      </trkpt>
      <trkpt lat="44.09189" lon="3.07649">
        <ele>361.1</ele>
        <time>2018-05-19T13:25:43Z</time>
      </trkpt>
      <trkpt lat="44.09185" lon="3.07653">
        <ele>361.2</ele>
        <time>2018-05-19T13:25:45Z</time>
      </trkpt>
      <trkpt lat="44.09183" lon="3.07656">
        <ele>361.4</ele>
        <time>2018-05-19T13:25:46Z</time>
      </trkpt>
      <trkpt lat="44.0918" lon="3.0766">
        <ele>361.6</ele>
        <time>2018-05-19T13:25:47Z</time>
      </trkpt>
      <trkpt lat="44.09176" lon="3.07663">
        <ele>362</ele>
        <time>2018-05-19T13:25:48Z</time>
      </trkpt>
      <trkpt lat="44.09172" lon="3.07666">
        <ele>362.1</ele>
        <time>2018-05-19T13:25:49Z</time>
      </trkpt>
      <trkpt lat="44.09169" lon="3.07668">
        <ele>362.2</ele>
        <time>2018-05-19T13:25:50Z</time>
      </trkpt>
      <trkpt lat="44.09165" lon="3.07672">
        <ele>362.3</ele>
        <time>2018-05-19T13:25:52Z</time>
      </trkpt>
      <trkpt lat="44.0916" lon="3.07679">
        <ele>362.6</ele>
        <time>2018-05-19T13:25:54Z</time>
      </trkpt>
      <trkpt lat="44.09158" lon="3.07683">
        <ele>362.7</ele>
        <time>2018-05-19T13:25:58Z</time>
      </trkpt>
      <trkpt lat="44.09156" lon="3.07686">
        <ele>362.8</ele>
        <time>2018-05-19T13:25:59Z</time>
      </trkpt>
      <trkpt lat="44.09154" lon="3.07693">
        <ele>362.9</ele>
        <time>2018-05-19T13:26:00Z</time>
      </trkpt>
      <trkpt lat="44.09153" lon="3.077">
        <ele>363</ele>
        <time>2018-05-19T13:26:01Z</time>
      </trkpt>
      <trkpt lat="44.09152" lon="3.07707">
        <ele>363</ele>
        <time>2018-05-19T13:26:02Z</time>
      </trkpt>
      <trkpt lat="44.09151" lon="3.07713">
        <ele>363</ele>
        <time>2018-05-19T13:26:03Z</time>
      </trkpt>
      <trkpt lat="44.0915" lon="3.07719">
        <ele>363</ele>
        <time>2018-05-19T13:26:04Z</time>
      </trkpt>
      <trkpt lat="44.09149" lon="3.07723">
        <ele>363</ele>
        <time>2018-05-19T13:26:05Z</time>
      </trkpt>
      <trkpt lat="44.09147" lon="3.07726">
        <ele>363</ele>
        <time>2018-05-19T13:26:06Z</time>
      </trkpt>
      <trkpt lat="44.09144" lon="3.07729">
        <ele>363</ele>
        <time>2018-05-19T13:26:07Z</time>
      </trkpt>
      <trkpt lat="44.09139" lon="3.07733">
        <ele>363</ele>
        <time>2018-05-19T13:26:08Z</time>
      </trkpt>
      <trkpt lat="44.09135" lon="3.07735">
        <ele>362.9</ele>
        <time>2018-05-19T13:26:09Z</time>
      </trkpt>
      <trkpt lat="44.0913" lon="3.07737">
        <ele>362.7</ele>
        <time>2018-05-19T13:26:10Z</time>
      </trkpt>
      <trkpt lat="44.09126" lon="3.07739">
        <ele>362.5</ele>
        <time>2018-05-19T13:26:11Z</time>
      </trkpt>
      <trkpt lat="44.09122" lon="3.07741">
        <ele>362.4</ele>
        <time>2018-05-19T13:26:12Z</time>
      </trkpt>
      <trkpt lat="44.09118" lon="3.07742">
        <ele>362.2</ele>
        <time>2018-05-19T13:26:13Z</time>
      </trkpt>
      <trkpt lat="44.09114" lon="3.07744">
        <ele>362.1</ele>
        <time>2018-05-19T13:26:14Z</time>
      </trkpt>
      <trkpt lat="44.09111" lon="3.07747">
        <ele>362</ele>
        <time>2018-05-19T13:26:15Z</time>
      </trkpt>
      <trkpt lat="44.09109" lon="3.0775">
        <ele>361.9</ele>
        <time>2018-05-19T13:26:16Z</time>
      </trkpt>
      <trkpt lat="44.09107" lon="3.07752">
        <ele>361.7</ele>
        <time>2018-05-19T13:26:17Z</time>
      </trkpt>
      <trkpt lat="44.09104" lon="3.07754">
        <ele>361.6</ele>
        <time>2018-05-19T13:26:21Z</time>
      </trkpt>
      <trkpt lat="44.09101" lon="3.07754">
        <ele>361.5</ele>
        <time>2018-05-19T13:26:26Z</time>
      </trkpt>
      <trkpt lat="44.09102" lon="3.07758">
        <ele>361.4</ele>
        <time>2018-05-19T13:26:39Z</time>
      </trkpt>
      <trkpt lat="44.09099" lon="3.07759">
        <ele>361.3</ele>
        <time>2018-05-19T13:26:45Z</time>
      </trkpt>
    </trkseg>
  </trk>
  <trk>
    <name><![CDATA[Trace 7]]></name>
    <desc><![CDATA[Corniches, village troglodyte, viaduc ! (variante + longue)]]></desc>
    <extensions>
      <line xmlns="http://www.topografix.com/GPX/gpx_style/0/2">
        <color>0000ff</color>
        <width>4</width>
          <extensions>
            <sens>1</sens>
          </extensions>
      </line>
    </extensions>
    <trkseg>
      <trkpt lat="44.06673" lon="3.0574">
        <ele>686.1</ele>
        <time>2018-05-19T08:23:38Z</time>
      </trkpt>
      <trkpt lat="44.06666" lon="3.05747">
        <ele>686.8</ele>
        <time>2018-05-19T08:23:40Z</time>
      </trkpt>
      <trkpt lat="44.06668" lon="3.05744">
        <ele>686.5</ele>
        <time>2018-05-19T08:23:44Z</time>
      </trkpt>
      <trkpt lat="44.06666" lon="3.05742">
        <ele>686.4</ele>
        <time>2018-05-19T08:23:58Z</time>
      </trkpt>
      <trkpt lat="44.06662" lon="3.05743">
        <ele>686.3</ele>
        <time>2018-05-19T08:24:00Z</time>
      </trkpt>
      <trkpt lat="44.06656" lon="3.05742">
        <ele>686.1</ele>
        <time>2018-05-19T08:24:02Z</time>
      </trkpt>
      <trkpt lat="44.06653" lon="3.05741">
        <ele>686</ele>
        <time>2018-05-19T08:24:03Z</time>
      </trkpt>
      <trkpt lat="44.0665" lon="3.0574">
        <ele>685.9</ele>
        <time>2018-05-19T08:24:04Z</time>
      </trkpt>
      <trkpt lat="44.06646" lon="3.0574">
        <ele>685.8</ele>
        <time>2018-05-19T08:24:05Z</time>
      </trkpt>
      <trkpt lat="44.06643" lon="3.05739">
        <ele>685.7</ele>
        <time>2018-05-19T08:24:06Z</time>
      </trkpt>
      <trkpt lat="44.0664" lon="3.05738">
        <ele>685.6</ele>
        <time>2018-05-19T08:24:07Z</time>
      </trkpt>
      <trkpt lat="44.06635" lon="3.05736">
        <ele>685.4</ele>
        <time>2018-05-19T08:24:09Z</time>
      </trkpt>
      <trkpt lat="44.06632" lon="3.05734">
        <ele>685.3</ele>
        <time>2018-05-19T08:24:10Z</time>
      </trkpt>
      <trkpt lat="44.06629" lon="3.05731">
        <ele>685.2</ele>
        <time>2018-05-19T08:24:11Z</time>
      </trkpt>
      <trkpt lat="44.06625" lon="3.05729">
        <ele>685.1</ele>
        <time>2018-05-19T08:24:12Z</time>
      </trkpt>
      <trkpt lat="44.06621" lon="3.05722">
        <ele>684.9</ele>
        <time>2018-05-19T08:24:13Z</time>
      </trkpt>
      <trkpt lat="44.06618" lon="3.05717">
        <ele>684.8</ele>
        <time>2018-05-19T08:24:14Z</time>
      </trkpt>
      <trkpt lat="44.06613" lon="3.05714">
        <ele>684.6</ele>
        <time>2018-05-19T08:24:15Z</time>
      </trkpt>
      <trkpt lat="44.06607" lon="3.05711">
        <ele>684.4</ele>
        <time>2018-05-19T08:24:16Z</time>
      </trkpt>
      <trkpt lat="44.06601" lon="3.05706">
        <ele>683.9</ele>
        <time>2018-05-19T08:24:17Z</time>
      </trkpt>
      <trkpt lat="44.06595" lon="3.05701">
        <ele>683.2</ele>
        <time>2018-05-19T08:24:18Z</time>
      </trkpt>
      <trkpt lat="44.06588" lon="3.05696">
        <ele>681.9</ele>
        <time>2018-05-19T08:24:19Z</time>
      </trkpt>
      <trkpt lat="44.06581" lon="3.05691">
        <ele>680.4</ele>
        <time>2018-05-19T08:24:20Z</time>
      </trkpt>
      <trkpt lat="44.06577" lon="3.05689">
        <ele>679.9</ele>
        <time>2018-05-19T08:24:21Z</time>
      </trkpt>
      <trkpt lat="44.06573" lon="3.0569">
        <ele>679.6</ele>
        <time>2018-05-19T08:24:22Z</time>
      </trkpt>
      <trkpt lat="44.06571" lon="3.05691">
        <ele>679.4</ele>
        <time>2018-05-19T08:24:26Z</time>
      </trkpt>
      <trkpt lat="44.06566" lon="3.05691">
        <ele>679.1</ele>
        <time>2018-05-19T08:24:31Z</time>
      </trkpt>
      <trkpt lat="44.06561" lon="3.05691">
        <ele>678.9</ele>
        <time>2018-05-19T08:24:33Z</time>
      </trkpt>
      <trkpt lat="44.06556" lon="3.05693">
        <ele>678.6</ele>
        <time>2018-05-19T08:24:35Z</time>
      </trkpt>
      <trkpt lat="44.06553" lon="3.05695">
        <ele>678.4</ele>
        <time>2018-05-19T08:24:36Z</time>
      </trkpt>
      <trkpt lat="44.06551" lon="3.05695">
        <ele>678</ele>
        <time>2018-05-19T08:24:37Z</time>
      </trkpt>
      <trkpt lat="44.06548" lon="3.05687">
        <ele>677.2</ele>
        <time>2018-05-19T08:24:38Z</time>
      </trkpt>
      <trkpt lat="44.06544" lon="3.05683">
        <ele>676.7</ele>
        <time>2018-05-19T08:24:39Z</time>
      </trkpt>
      <trkpt lat="44.0654" lon="3.05678">
        <ele>676.4</ele>
        <time>2018-05-19T08:24:40Z</time>
      </trkpt>
      <trkpt lat="44.06537" lon="3.05673">
        <ele>676.1</ele>
        <time>2018-05-19T08:24:41Z</time>
      </trkpt>
      <trkpt lat="44.06534" lon="3.05668">
        <ele>675.9</ele>
        <time>2018-05-19T08:24:42Z</time>
      </trkpt>
      <trkpt lat="44.0653" lon="3.05664">
        <ele>675.7</ele>
        <time>2018-05-19T08:24:43Z</time>
      </trkpt>
      <trkpt lat="44.06528" lon="3.05658">
        <ele>676.1</ele>
        <time>2018-05-19T08:24:44Z</time>
      </trkpt>
      <trkpt lat="44.06527" lon="3.05653">
        <ele>676.8</ele>
        <time>2018-05-19T08:24:45Z</time>
      </trkpt>
      <trkpt lat="44.06523" lon="3.05648">
        <ele>676.9</ele>
        <time>2018-05-19T08:24:46Z</time>
      </trkpt>
      <trkpt lat="44.0652" lon="3.05644">
        <ele>676.9</ele>
        <time>2018-05-19T08:24:47Z</time>
      </trkpt>
      <trkpt lat="44.06516" lon="3.05639">
        <ele>676.9</ele>
        <time>2018-05-19T08:24:48Z</time>
      </trkpt>
      <trkpt lat="44.06513" lon="3.05633">
        <ele>677</ele>
        <time>2018-05-19T08:24:49Z</time>
      </trkpt>
      <trkpt lat="44.06509" lon="3.05629">
        <ele>677</ele>
        <time>2018-05-19T08:24:50Z</time>
      </trkpt>
      <trkpt lat="44.06505" lon="3.05624">
        <ele>677</ele>
        <time>2018-05-19T08:24:51Z</time>
      </trkpt>
      <trkpt lat="44.06502" lon="3.0562">
        <ele>677.1</ele>
        <time>2018-05-19T08:24:52Z</time>
      </trkpt>
      <trkpt lat="44.06498" lon="3.05616">
        <ele>677.2</ele>
        <time>2018-05-19T08:24:53Z</time>
      </trkpt>
      <trkpt lat="44.06494" lon="3.05612">
        <ele>677.3</ele>
        <time>2018-05-19T08:24:54Z</time>
      </trkpt>
      <trkpt lat="44.0649" lon="3.0561">
        <ele>677.4</ele>
        <time>2018-05-19T08:24:55Z</time>
      </trkpt>
      <trkpt lat="44.06487" lon="3.05608">
        <ele>677.6</ele>
        <time>2018-05-19T08:24:56Z</time>
      </trkpt>
      <trkpt lat="44.06483" lon="3.05606">
        <ele>677.7</ele>
        <time>2018-05-19T08:24:57Z</time>
      </trkpt>
      <trkpt lat="44.0648" lon="3.05605">
        <ele>677.9</ele>
        <time>2018-05-19T08:24:58Z</time>
      </trkpt>
      <trkpt lat="44.06476" lon="3.05605">
        <ele>678.2</ele>
        <time>2018-05-19T08:24:59Z</time>
      </trkpt>
      <trkpt lat="44.06473" lon="3.05604">
        <ele>678.5</ele>
        <time>2018-05-19T08:25:00Z</time>
      </trkpt>
      <trkpt lat="44.0647" lon="3.05601">
        <ele>678.7</ele>
        <time>2018-05-19T08:25:01Z</time>
      </trkpt>
      <trkpt lat="44.06468" lon="3.05597">
        <ele>679</ele>
        <time>2018-05-19T08:25:02Z</time>
      </trkpt>
      <trkpt lat="44.06465" lon="3.05596">
        <ele>679.1</ele>
        <time>2018-05-19T08:25:03Z</time>
      </trkpt>
      <trkpt lat="44.06462" lon="3.05594">
        <ele>679.3</ele>
        <time>2018-05-19T08:25:04Z</time>
      </trkpt>
      <trkpt lat="44.06458" lon="3.05591">
        <ele>679.7</ele>
        <time>2018-05-19T08:25:06Z</time>
      </trkpt>
      <trkpt lat="44.06454" lon="3.05587">
        <ele>680</ele>
        <time>2018-05-19T08:25:08Z</time>
      </trkpt>
      <trkpt lat="44.06452" lon="3.05583">
        <ele>680.4</ele>
        <time>2018-05-19T08:25:10Z</time>
      </trkpt>
      <trkpt lat="44.06451" lon="3.05578">
        <ele>680.8</ele>
        <time>2018-05-19T08:25:12Z</time>
      </trkpt>
      <trkpt lat="44.0645" lon="3.05573">
        <ele>681.2</ele>
        <time>2018-05-19T08:25:14Z</time>
      </trkpt>
      <trkpt lat="44.0645" lon="3.05568">
        <ele>681.9</ele>
        <time>2018-05-19T08:25:16Z</time>
      </trkpt>
      <trkpt lat="44.06449" lon="3.05563">
        <ele>682.7</ele>
        <time>2018-05-19T08:25:18Z</time>
      </trkpt>
      <trkpt lat="44.06447" lon="3.05559">
        <ele>683.6</ele>
        <time>2018-05-19T08:25:20Z</time>
      </trkpt>
      <trkpt lat="44.06444" lon="3.05555">
        <ele>684.7</ele>
        <time>2018-05-19T08:25:23Z</time>
      </trkpt>
      <trkpt lat="44.06444" lon="3.05551">
        <ele>685.4</ele>
        <time>2018-05-19T08:25:25Z</time>
      </trkpt>
      <trkpt lat="44.06444" lon="3.05547">
        <ele>686</ele>
        <time>2018-05-19T08:25:27Z</time>
      </trkpt>
      <trkpt lat="44.06442" lon="3.05543">
        <ele>686.7</ele>
        <time>2018-05-19T08:25:29Z</time>
      </trkpt>
      <trkpt lat="44.0644" lon="3.0554">
        <ele>687.6</ele>
        <time>2018-05-19T08:25:31Z</time>
      </trkpt>
      <trkpt lat="44.06438" lon="3.05537">
        <ele>688.7</ele>
        <time>2018-05-19T08:25:33Z</time>
      </trkpt>
      <trkpt lat="44.06437" lon="3.05534">
        <ele>689.7</ele>
        <time>2018-05-19T08:25:37Z</time>
      </trkpt>
      <trkpt lat="44.06436" lon="3.0553">
        <ele>690.9</ele>
        <time>2018-05-19T08:25:41Z</time>
      </trkpt>
      <trkpt lat="44.06436" lon="3.05517">
        <ele>694.1</ele>
        <time>2018-05-19T08:28:03Z</time>
      </trkpt>
      <trkpt lat="44.06434" lon="3.05514">
        <ele>695.7</ele>
        <time>2018-05-19T08:28:05Z</time>
      </trkpt>
      <trkpt lat="44.06431" lon="3.05512">
        <ele>696</ele>
        <time>2018-05-19T08:28:07Z</time>
      </trkpt>
      <trkpt lat="44.06428" lon="3.0551">
        <ele>696.2</ele>
        <time>2018-05-19T08:28:09Z</time>
      </trkpt>
      <trkpt lat="44.06426" lon="3.05508">
        <ele>696.5</ele>
        <time>2018-05-19T08:28:11Z</time>
      </trkpt>
      <trkpt lat="44.06423" lon="3.05506">
        <ele>696.7</ele>
        <time>2018-05-19T08:28:13Z</time>
      </trkpt>
      <trkpt lat="44.0642" lon="3.05504">
        <ele>696.9</ele>
        <time>2018-05-19T08:28:15Z</time>
      </trkpt>
      <trkpt lat="44.06418" lon="3.05501">
        <ele>697.1</ele>
        <time>2018-05-19T08:28:17Z</time>
      </trkpt>
      <trkpt lat="44.06415" lon="3.05498">
        <ele>697.3</ele>
        <time>2018-05-19T08:28:19Z</time>
      </trkpt>
      <trkpt lat="44.06412" lon="3.05494">
        <ele>697.6</ele>
        <time>2018-05-19T08:28:21Z</time>
      </trkpt>
      <trkpt lat="44.06409" lon="3.05491">
        <ele>698.1</ele>
        <time>2018-05-19T08:28:23Z</time>
      </trkpt>
      <trkpt lat="44.06407" lon="3.05487">
        <ele>698.6</ele>
        <time>2018-05-19T08:28:25Z</time>
      </trkpt>
      <trkpt lat="44.06404" lon="3.05483">
        <ele>699</ele>
        <time>2018-05-19T08:28:27Z</time>
      </trkpt>
      <trkpt lat="44.06401" lon="3.05479">
        <ele>699.6</ele>
        <time>2018-05-19T08:28:29Z</time>
      </trkpt>
      <trkpt lat="44.06398" lon="3.05474">
        <ele>700.2</ele>
        <time>2018-05-19T08:28:31Z</time>
      </trkpt>
      <trkpt lat="44.06395" lon="3.0547">
        <ele>700.7</ele>
        <time>2018-05-19T08:28:33Z</time>
      </trkpt>
      <trkpt lat="44.06392" lon="3.05466">
        <ele>701.2</ele>
        <time>2018-05-19T08:28:35Z</time>
      </trkpt>
      <trkpt lat="44.0639" lon="3.05461">
        <ele>701.9</ele>
        <time>2018-05-19T08:28:37Z</time>
      </trkpt>
      <trkpt lat="44.06388" lon="3.05457">
        <ele>702.6</ele>
        <time>2018-05-19T08:28:39Z</time>
      </trkpt>
      <trkpt lat="44.06385" lon="3.05453">
        <ele>703.2</ele>
        <time>2018-05-19T08:28:41Z</time>
      </trkpt>
      <trkpt lat="44.06382" lon="3.0545">
        <ele>703.7</ele>
        <time>2018-05-19T08:28:43Z</time>
      </trkpt>
      <trkpt lat="44.06379" lon="3.05448">
        <ele>704.5</ele>
        <time>2018-05-19T08:28:45Z</time>
      </trkpt>
      <trkpt lat="44.06376" lon="3.05447">
        <ele>704.9</ele>
        <time>2018-05-19T08:28:47Z</time>
      </trkpt>
      <trkpt lat="44.06372" lon="3.05446">
        <ele>705.4</ele>
        <time>2018-05-19T08:28:49Z</time>
      </trkpt>
      <trkpt lat="44.06368" lon="3.05445">
        <ele>706</ele>
        <time>2018-05-19T08:28:51Z</time>
      </trkpt>
      <trkpt lat="44.06364" lon="3.05443">
        <ele>706.7</ele>
        <time>2018-05-19T08:28:53Z</time>
      </trkpt>
      <trkpt lat="44.06361" lon="3.05442">
        <ele>707.6</ele>
        <time>2018-05-19T08:28:55Z</time>
      </trkpt>
      <trkpt lat="44.06357" lon="3.05441">
        <ele>708.7</ele>
        <time>2018-05-19T08:28:57Z</time>
      </trkpt>
      <trkpt lat="44.06353" lon="3.05441">
        <ele>709.2</ele>
        <time>2018-05-19T08:28:59Z</time>
      </trkpt>
      <trkpt lat="44.06349" lon="3.05439">
        <ele>709.7</ele>
        <time>2018-05-19T08:29:01Z</time>
      </trkpt>
      <trkpt lat="44.06346" lon="3.05438">
        <ele>710.4</ele>
        <time>2018-05-19T08:29:03Z</time>
      </trkpt>
      <trkpt lat="44.06342" lon="3.05437">
        <ele>711</ele>
        <time>2018-05-19T08:29:05Z</time>
      </trkpt>
      <trkpt lat="44.06338" lon="3.05436">
        <ele>711.7</ele>
        <time>2018-05-19T08:29:07Z</time>
      </trkpt>
      <trkpt lat="44.06334" lon="3.05435">
        <ele>712.5</ele>
        <time>2018-05-19T08:29:09Z</time>
      </trkpt>
      <trkpt lat="44.0633" lon="3.05434">
        <ele>713</ele>
        <time>2018-05-19T08:29:11Z</time>
      </trkpt>
      <trkpt lat="44.06326" lon="3.05433">
        <ele>713.5</ele>
        <time>2018-05-19T08:29:13Z</time>
      </trkpt>
      <trkpt lat="44.06323" lon="3.05431">
        <ele>713.8</ele>
        <time>2018-05-19T08:29:15Z</time>
      </trkpt>
      <trkpt lat="44.06319" lon="3.05429">
        <ele>714.2</ele>
        <time>2018-05-19T08:29:17Z</time>
      </trkpt>
      <trkpt lat="44.06316" lon="3.05427">
        <ele>714.7</ele>
        <time>2018-05-19T08:29:19Z</time>
      </trkpt>
      <trkpt lat="44.06313" lon="3.05425">
        <ele>715</ele>
        <time>2018-05-19T08:29:21Z</time>
      </trkpt>
      <trkpt lat="44.06309" lon="3.05423">
        <ele>715.3</ele>
        <time>2018-05-19T08:29:23Z</time>
      </trkpt>
      <trkpt lat="44.06306" lon="3.0542">
        <ele>715.6</ele>
        <time>2018-05-19T08:29:25Z</time>
      </trkpt>
      <trkpt lat="44.06304" lon="3.05418">
        <ele>715.8</ele>
        <time>2018-05-19T08:29:27Z</time>
      </trkpt>
      <trkpt lat="44.063" lon="3.05416">
        <ele>716.2</ele>
        <time>2018-05-19T08:29:29Z</time>
      </trkpt>
      <trkpt lat="44.06298" lon="3.05413">
        <ele>716.5</ele>
        <time>2018-05-19T08:29:31Z</time>
      </trkpt>
      <trkpt lat="44.06296" lon="3.05409">
        <ele>717.1</ele>
        <time>2018-05-19T08:29:33Z</time>
      </trkpt>
      <trkpt lat="44.06293" lon="3.05406">
        <ele>717.6</ele>
        <time>2018-05-19T08:29:35Z</time>
      </trkpt>
      <trkpt lat="44.0629" lon="3.05403">
        <ele>718.1</ele>
        <time>2018-05-19T08:29:37Z</time>
      </trkpt>
      <trkpt lat="44.06287" lon="3.054">
        <ele>718.7</ele>
        <time>2018-05-19T08:29:39Z</time>
      </trkpt>
      <trkpt lat="44.06284" lon="3.05397">
        <ele>719.2</ele>
        <time>2018-05-19T08:29:41Z</time>
      </trkpt>
      <trkpt lat="44.06281" lon="3.05394">
        <ele>719.7</ele>
        <time>2018-05-19T08:29:43Z</time>
      </trkpt>
      <trkpt lat="44.06278" lon="3.05391">
        <ele>720.1</ele>
        <time>2018-05-19T08:29:45Z</time>
      </trkpt>
      <trkpt lat="44.06276" lon="3.05388">
        <ele>720.5</ele>
        <time>2018-05-19T08:29:47Z</time>
      </trkpt>
      <trkpt lat="44.06273" lon="3.05386">
        <ele>720.9</ele>
        <time>2018-05-19T08:29:49Z</time>
      </trkpt>
      <trkpt lat="44.0627" lon="3.05383">
        <ele>721.3</ele>
        <time>2018-05-19T08:29:51Z</time>
      </trkpt>
      <trkpt lat="44.06268" lon="3.05381">
        <ele>721.8</ele>
        <time>2018-05-19T08:29:53Z</time>
      </trkpt>
      <trkpt lat="44.06265" lon="3.05379">
        <ele>722.2</ele>
        <time>2018-05-19T08:29:55Z</time>
      </trkpt>
      <trkpt lat="44.06263" lon="3.05377">
        <ele>722.6</ele>
        <time>2018-05-19T08:29:57Z</time>
      </trkpt>
      <trkpt lat="44.0626" lon="3.05375">
        <ele>723</ele>
        <time>2018-05-19T08:29:59Z</time>
      </trkpt>
      <trkpt lat="44.06258" lon="3.05372">
        <ele>723.4</ele>
        <time>2018-05-19T08:30:01Z</time>
      </trkpt>
      <trkpt lat="44.06255" lon="3.0537">
        <ele>723.8</ele>
        <time>2018-05-19T08:30:03Z</time>
      </trkpt>
      <trkpt lat="44.06252" lon="3.05368">
        <ele>724.1</ele>
        <time>2018-05-19T08:30:05Z</time>
      </trkpt>
      <trkpt lat="44.06249" lon="3.05366">
        <ele>724.9</ele>
        <time>2018-05-19T08:30:08Z</time>
      </trkpt>
      <trkpt lat="44.06246" lon="3.05361">
        <ele>725.6</ele>
        <time>2018-05-19T08:30:11Z</time>
      </trkpt>
      <trkpt lat="44.06245" lon="3.05357">
        <ele>726.2</ele>
        <time>2018-05-19T08:30:13Z</time>
      </trkpt>
      <trkpt lat="44.06245" lon="3.05352">
        <ele>726.8</ele>
        <time>2018-05-19T08:30:15Z</time>
      </trkpt>
      <trkpt lat="44.06243" lon="3.05347">
        <ele>727.5</ele>
        <time>2018-05-19T08:30:17Z</time>
      </trkpt>
      <trkpt lat="44.06242" lon="3.05343">
        <ele>728</ele>
        <time>2018-05-19T08:30:19Z</time>
      </trkpt>
      <trkpt lat="44.0624" lon="3.05338">
        <ele>728.8</ele>
        <time>2018-05-19T08:30:22Z</time>
      </trkpt>
      <trkpt lat="44.0624" lon="3.05334">
        <ele>729.5</ele>
        <time>2018-05-19T08:30:24Z</time>
      </trkpt>
      <trkpt lat="44.06239" lon="3.05329">
        <ele>730.3</ele>
        <time>2018-05-19T08:30:26Z</time>
      </trkpt>
      <trkpt lat="44.06238" lon="3.05324">
        <ele>730.8</ele>
        <time>2018-05-19T08:30:28Z</time>
      </trkpt>
      <trkpt lat="44.06238" lon="3.0532">
        <ele>731.2</ele>
        <time>2018-05-19T08:30:30Z</time>
      </trkpt>
      <trkpt lat="44.06238" lon="3.05315">
        <ele>731.8</ele>
        <time>2018-05-19T08:30:32Z</time>
      </trkpt>
      <trkpt lat="44.06238" lon="3.05311">
        <ele>732.3</ele>
        <time>2018-05-19T08:30:34Z</time>
      </trkpt>
      <trkpt lat="44.06237" lon="3.05306">
        <ele>733.2</ele>
        <time>2018-05-19T08:30:37Z</time>
      </trkpt>
      <trkpt lat="44.06237" lon="3.05301">
        <ele>734</ele>
        <time>2018-05-19T08:30:39Z</time>
      </trkpt>
      <trkpt lat="44.06237" lon="3.05296">
        <ele>734.7</ele>
        <time>2018-05-19T08:30:41Z</time>
      </trkpt>
      <trkpt lat="44.06236" lon="3.05291">
        <ele>735.5</ele>
        <time>2018-05-19T08:30:43Z</time>
      </trkpt>
      <trkpt lat="44.06236" lon="3.05287">
        <ele>736.1</ele>
        <time>2018-05-19T08:30:45Z</time>
      </trkpt>
      <trkpt lat="44.06236" lon="3.05283">
        <ele>736.7</ele>
        <time>2018-05-19T08:30:47Z</time>
      </trkpt>
      <trkpt lat="44.06236" lon="3.05277">
        <ele>737.4</ele>
        <time>2018-05-19T08:30:50Z</time>
      </trkpt>
      <trkpt lat="44.06237" lon="3.05273">
        <ele>738.2</ele>
        <time>2018-05-19T08:30:52Z</time>
      </trkpt>
      <trkpt lat="44.06238" lon="3.05268">
        <ele>738.9</ele>
        <time>2018-05-19T08:30:54Z</time>
      </trkpt>
      <trkpt lat="44.06239" lon="3.05264">
        <ele>739.5</ele>
        <time>2018-05-19T08:30:56Z</time>
      </trkpt>
      <trkpt lat="44.06239" lon="3.0526">
        <ele>740</ele>
        <time>2018-05-19T08:30:58Z</time>
      </trkpt>
      <trkpt lat="44.06239" lon="3.05255">
        <ele>740.6</ele>
        <time>2018-05-19T08:31:01Z</time>
      </trkpt>
      <trkpt lat="44.06239" lon="3.0525">
        <ele>741.8</ele>
        <time>2018-05-19T08:31:04Z</time>
      </trkpt>
      <trkpt lat="44.06239" lon="3.05245">
        <ele>743.1</ele>
        <time>2018-05-19T08:31:07Z</time>
      </trkpt>
      <trkpt lat="44.06239" lon="3.0524">
        <ele>743.8</ele>
        <time>2018-05-19T08:31:09Z</time>
      </trkpt>
      <trkpt lat="44.06239" lon="3.05236">
        <ele>744.5</ele>
        <time>2018-05-19T08:31:12Z</time>
      </trkpt>
      <trkpt lat="44.06239" lon="3.05232">
        <ele>745.4</ele>
        <time>2018-05-19T08:31:14Z</time>
      </trkpt>
      <trkpt lat="44.06239" lon="3.05228">
        <ele>745.9</ele>
        <time>2018-05-19T08:31:16Z</time>
      </trkpt>
      <trkpt lat="44.06239" lon="3.05224">
        <ele>746.5</ele>
        <time>2018-05-19T08:31:18Z</time>
      </trkpt>
      <trkpt lat="44.0624" lon="3.05219">
        <ele>747</ele>
        <time>2018-05-19T08:31:20Z</time>
      </trkpt>
      <trkpt lat="44.0624" lon="3.05215">
        <ele>747.6</ele>
        <time>2018-05-19T08:31:23Z</time>
      </trkpt>
      <trkpt lat="44.0624" lon="3.0521">
        <ele>748.5</ele>
        <time>2018-05-19T08:31:26Z</time>
      </trkpt>
      <trkpt lat="44.0624" lon="3.05205">
        <ele>749.3</ele>
        <time>2018-05-19T08:31:29Z</time>
      </trkpt>
      <trkpt lat="44.0624" lon="3.05201">
        <ele>750</ele>
        <time>2018-05-19T08:31:32Z</time>
      </trkpt>
      <trkpt lat="44.06239" lon="3.05196">
        <ele>751</ele>
        <time>2018-05-19T08:31:36Z</time>
      </trkpt>
      <trkpt lat="44.06238" lon="3.05192">
        <ele>751.8</ele>
        <time>2018-05-19T08:31:39Z</time>
      </trkpt>
      <trkpt lat="44.06235" lon="3.05188">
        <ele>752.7</ele>
        <time>2018-05-19T08:31:42Z</time>
      </trkpt>
      <trkpt lat="44.06232" lon="3.05187">
        <ele>753.7</ele>
        <time>2018-05-19T08:31:45Z</time>
      </trkpt>
      <trkpt lat="44.0623" lon="3.05184">
        <ele>754.3</ele>
        <time>2018-05-19T08:31:48Z</time>
      </trkpt>
      <trkpt lat="44.06226" lon="3.05182">
        <ele>755.4</ele>
        <time>2018-05-19T08:31:51Z</time>
      </trkpt>
      <trkpt lat="44.06223" lon="3.0518">
        <ele>756</ele>
        <time>2018-05-19T08:31:54Z</time>
      </trkpt>
      <trkpt lat="44.06221" lon="3.05179">
        <ele>756.5</ele>
        <time>2018-05-19T08:31:57Z</time>
      </trkpt>
      <trkpt lat="44.06218" lon="3.05176">
        <ele>757</ele>
        <time>2018-05-19T08:32:01Z</time>
      </trkpt>
      <trkpt lat="44.06215" lon="3.05173">
        <ele>757.6</ele>
        <time>2018-05-19T08:32:04Z</time>
      </trkpt>
      <trkpt lat="44.06213" lon="3.05169">
        <ele>758.1</ele>
        <time>2018-05-19T08:32:07Z</time>
      </trkpt>
      <trkpt lat="44.06212" lon="3.05165">
        <ele>758.4</ele>
        <time>2018-05-19T08:32:11Z</time>
      </trkpt>
      <trkpt lat="44.06213" lon="3.05161">
        <ele>758.8</ele>
        <time>2018-05-19T08:32:14Z</time>
      </trkpt>
      <trkpt lat="44.06213" lon="3.05157">
        <ele>759.2</ele>
        <time>2018-05-19T08:32:17Z</time>
      </trkpt>
      <trkpt lat="44.06213" lon="3.05152">
        <ele>759.6</ele>
        <time>2018-05-19T08:32:20Z</time>
      </trkpt>
      <trkpt lat="44.06213" lon="3.05147">
        <ele>759.9</ele>
        <time>2018-05-19T08:32:23Z</time>
      </trkpt>
      <trkpt lat="44.06213" lon="3.05141">
        <ele>760.3</ele>
        <time>2018-05-19T08:32:26Z</time>
      </trkpt>
      <trkpt lat="44.06214" lon="3.05137">
        <ele>760.7</ele>
        <time>2018-05-19T08:32:28Z</time>
      </trkpt>
      <trkpt lat="44.06214" lon="3.05133">
        <ele>761.1</ele>
        <time>2018-05-19T08:32:30Z</time>
      </trkpt>
      <trkpt lat="44.06214" lon="3.05128">
        <ele>761.4</ele>
        <time>2018-05-19T08:32:32Z</time>
      </trkpt>
      <trkpt lat="44.06214" lon="3.05125">
        <ele>761.6</ele>
        <time>2018-05-19T08:32:34Z</time>
      </trkpt>
      <trkpt lat="44.06214" lon="3.0512">
        <ele>762.1</ele>
        <time>2018-05-19T08:32:37Z</time>
      </trkpt>
      <trkpt lat="44.06214" lon="3.05115">
        <ele>762.5</ele>
        <time>2018-05-19T08:32:40Z</time>
      </trkpt>
      <trkpt lat="44.06214" lon="3.05112">
        <ele>762.9</ele>
        <time>2018-05-19T08:32:42Z</time>
      </trkpt>
      <trkpt lat="44.06215" lon="3.05107">
        <ele>763.4</ele>
        <time>2018-05-19T08:32:45Z</time>
      </trkpt>
      <trkpt lat="44.06215" lon="3.05101">
        <ele>763.9</ele>
        <time>2018-05-19T08:32:48Z</time>
      </trkpt>
      <trkpt lat="44.06215" lon="3.05096">
        <ele>764.6</ele>
        <time>2018-05-19T08:32:51Z</time>
      </trkpt>
      <trkpt lat="44.06214" lon="3.0509">
        <ele>765</ele>
        <time>2018-05-19T08:32:54Z</time>
      </trkpt>
      <trkpt lat="44.06214" lon="3.05086">
        <ele>765.4</ele>
        <time>2018-05-19T08:32:56Z</time>
      </trkpt>
      <trkpt lat="44.06213" lon="3.05081">
        <ele>765.9</ele>
        <time>2018-05-19T08:32:58Z</time>
      </trkpt>
      <trkpt lat="44.06212" lon="3.05077">
        <ele>766.3</ele>
        <time>2018-05-19T08:33:00Z</time>
      </trkpt>
      <trkpt lat="44.0621" lon="3.05074">
        <ele>766.7</ele>
        <time>2018-05-19T08:33:03Z</time>
      </trkpt>
      <trkpt lat="44.06207" lon="3.05071">
        <ele>767.2</ele>
        <time>2018-05-19T08:33:06Z</time>
      </trkpt>
      <trkpt lat="44.06204" lon="3.0507">
        <ele>767.5</ele>
        <time>2018-05-19T08:33:09Z</time>
      </trkpt>
      <trkpt lat="44.062" lon="3.05069">
        <ele>767.7</ele>
        <time>2018-05-19T08:33:12Z</time>
      </trkpt>
      <trkpt lat="44.06196" lon="3.05069">
        <ele>770.8</ele>
        <time>2018-05-19T08:33:15Z</time>
      </trkpt>
      <trkpt lat="44.06193" lon="3.05069">
        <ele>771.5</ele>
        <time>2018-05-19T08:33:17Z</time>
      </trkpt>
      <trkpt lat="44.0619" lon="3.05068">
        <ele>771.1</ele>
        <time>2018-05-19T08:33:19Z</time>
      </trkpt>
      <trkpt lat="44.06187" lon="3.05068">
        <ele>771.8</ele>
        <time>2018-05-19T08:33:21Z</time>
      </trkpt>
      <trkpt lat="44.06183" lon="3.05068">
        <ele>772.3</ele>
        <time>2018-05-19T08:33:23Z</time>
      </trkpt>
      <trkpt lat="44.0618" lon="3.05068">
        <ele>772.8</ele>
        <time>2018-05-19T08:33:25Z</time>
      </trkpt>
      <trkpt lat="44.06176" lon="3.05068">
        <ele>773.4</ele>
        <time>2018-05-19T08:33:27Z</time>
      </trkpt>
      <trkpt lat="44.06173" lon="3.05067">
        <ele>774.2</ele>
        <time>2018-05-19T08:33:29Z</time>
      </trkpt>
      <trkpt lat="44.0617" lon="3.05067">
        <ele>774.5</ele>
        <time>2018-05-19T08:33:31Z</time>
      </trkpt>
      <trkpt lat="44.06166" lon="3.05066">
        <ele>774.7</ele>
        <time>2018-05-19T08:33:33Z</time>
      </trkpt>
      <trkpt lat="44.06162" lon="3.05065">
        <ele>775</ele>
        <time>2018-05-19T08:33:35Z</time>
      </trkpt>
      <trkpt lat="44.06159" lon="3.05064">
        <ele>775.3</ele>
        <time>2018-05-19T08:33:37Z</time>
      </trkpt>
      <trkpt lat="44.06156" lon="3.05063">
        <ele>775.5</ele>
        <time>2018-05-19T08:33:39Z</time>
      </trkpt>
      <trkpt lat="44.06152" lon="3.05063">
        <ele>775.7</ele>
        <time>2018-05-19T08:33:41Z</time>
      </trkpt>
      <trkpt lat="44.06149" lon="3.05061">
        <ele>775.9</ele>
        <time>2018-05-19T08:33:43Z</time>
      </trkpt>
      <trkpt lat="44.06146" lon="3.0506">
        <ele>776.1</ele>
        <time>2018-05-19T08:33:45Z</time>
      </trkpt>
      <trkpt lat="44.06144" lon="3.05057">
        <ele>776.3</ele>
        <time>2018-05-19T08:33:47Z</time>
      </trkpt>
      <trkpt lat="44.06142" lon="3.05053">
        <ele>776.4</ele>
        <time>2018-05-19T08:33:49Z</time>
      </trkpt>
      <trkpt lat="44.0614" lon="3.0505">
        <ele>776.5</ele>
        <time>2018-05-19T08:33:51Z</time>
      </trkpt>
      <trkpt lat="44.06137" lon="3.05047">
        <ele>776.5</ele>
        <time>2018-05-19T08:33:54Z</time>
      </trkpt>
      <trkpt lat="44.06134" lon="3.05046">
        <ele>776.6</ele>
        <time>2018-05-19T08:33:58Z</time>
      </trkpt>
      <trkpt lat="44.06132" lon="3.05042">
        <ele>776.6</ele>
        <time>2018-05-19T08:34:01Z</time>
      </trkpt>
      <trkpt lat="44.06131" lon="3.05037">
        <ele>776.6</ele>
        <time>2018-05-19T08:34:04Z</time>
      </trkpt>
      <trkpt lat="44.06132" lon="3.05033">
        <ele>776.6</ele>
        <time>2018-05-19T08:34:06Z</time>
      </trkpt>
      <trkpt lat="44.06132" lon="3.05028">
        <ele>776.6</ele>
        <time>2018-05-19T08:34:08Z</time>
      </trkpt>
      <trkpt lat="44.06132" lon="3.05024">
        <ele>776.6</ele>
        <time>2018-05-19T08:34:10Z</time>
      </trkpt>
      <trkpt lat="44.06132" lon="3.0502">
        <ele>776.6</ele>
        <time>2018-05-19T08:34:12Z</time>
      </trkpt>
      <trkpt lat="44.06132" lon="3.05015">
        <ele>776.6</ele>
        <time>2018-05-19T08:34:14Z</time>
      </trkpt>
      <trkpt lat="44.06131" lon="3.05011">
        <ele>776.5</ele>
        <time>2018-05-19T08:34:16Z</time>
      </trkpt>
      <trkpt lat="44.06131" lon="3.05006">
        <ele>776.5</ele>
        <time>2018-05-19T08:34:18Z</time>
      </trkpt>
      <trkpt lat="44.06131" lon="3.05002">
        <ele>776.5</ele>
        <time>2018-05-19T08:34:20Z</time>
      </trkpt>
      <trkpt lat="44.06132" lon="3.04998">
        <ele>776.5</ele>
        <time>2018-05-19T08:34:27Z</time>
      </trkpt>
      <trkpt lat="44.06132" lon="3.04994">
        <ele>776.5</ele>
        <time>2018-05-19T08:34:56Z</time>
      </trkpt>
      <trkpt lat="44.06131" lon="3.04989">
        <ele>776.5</ele>
        <time>2018-05-19T08:34:59Z</time>
      </trkpt>
      <trkpt lat="44.06131" lon="3.04985">
        <ele>776.5</ele>
        <time>2018-05-19T08:35:01Z</time>
      </trkpt>
      <trkpt lat="44.0613" lon="3.0498">
        <ele>776.4</ele>
        <time>2018-05-19T08:35:03Z</time>
      </trkpt>
      <trkpt lat="44.06129" lon="3.04974">
        <ele>776.4</ele>
        <time>2018-05-19T08:35:05Z</time>
      </trkpt>
      <trkpt lat="44.06127" lon="3.04968">
        <ele>776.4</ele>
        <time>2018-05-19T08:35:07Z</time>
      </trkpt>
      <trkpt lat="44.06127" lon="3.04964">
        <ele>776.4</ele>
        <time>2018-05-19T08:35:08Z</time>
      </trkpt>
      <trkpt lat="44.06126" lon="3.0496">
        <ele>776.5</ele>
        <time>2018-05-19T08:35:09Z</time>
      </trkpt>
      <trkpt lat="44.06126" lon="3.04953">
        <ele>776.5</ele>
        <time>2018-05-19T08:35:11Z</time>
      </trkpt>
      <trkpt lat="44.06127" lon="3.04945">
        <ele>776.5</ele>
        <time>2018-05-19T08:35:13Z</time>
      </trkpt>
      <trkpt lat="44.06127" lon="3.04941">
        <ele>776.5</ele>
        <time>2018-05-19T08:35:14Z</time>
      </trkpt>
      <trkpt lat="44.06128" lon="3.04936">
        <ele>776.5</ele>
        <time>2018-05-19T08:35:15Z</time>
      </trkpt>
      <trkpt lat="44.0613" lon="3.0493">
        <ele>776.5</ele>
        <time>2018-05-19T08:35:16Z</time>
      </trkpt>
      <trkpt lat="44.06132" lon="3.04924">
        <ele>776.5</ele>
        <time>2018-05-19T08:35:17Z</time>
      </trkpt>
      <trkpt lat="44.06134" lon="3.04918">
        <ele>776.5</ele>
        <time>2018-05-19T08:35:18Z</time>
      </trkpt>
      <trkpt lat="44.06136" lon="3.04912">
        <ele>776.5</ele>
        <time>2018-05-19T08:35:19Z</time>
      </trkpt>
      <trkpt lat="44.06137" lon="3.04907">
        <ele>776.5</ele>
        <time>2018-05-19T08:35:20Z</time>
      </trkpt>
      <trkpt lat="44.06138" lon="3.04901">
        <ele>776.5</ele>
        <time>2018-05-19T08:35:21Z</time>
      </trkpt>
      <trkpt lat="44.06139" lon="3.04896">
        <ele>776.4</ele>
        <time>2018-05-19T08:35:22Z</time>
      </trkpt>
      <trkpt lat="44.0614" lon="3.04891">
        <ele>776.4</ele>
        <time>2018-05-19T08:35:23Z</time>
      </trkpt>
      <trkpt lat="44.0614" lon="3.04887">
        <ele>776.4</ele>
        <time>2018-05-19T08:35:24Z</time>
      </trkpt>
      <trkpt lat="44.06141" lon="3.04882">
        <ele>776.3</ele>
        <time>2018-05-19T08:35:26Z</time>
      </trkpt>
      <trkpt lat="44.06142" lon="3.04877">
        <ele>776.3</ele>
        <time>2018-05-19T08:35:28Z</time>
      </trkpt>
      <trkpt lat="44.06143" lon="3.04871">
        <ele>776.2</ele>
        <time>2018-05-19T08:35:30Z</time>
      </trkpt>
      <trkpt lat="44.06145" lon="3.04865">
        <ele>776.1</ele>
        <time>2018-05-19T08:35:32Z</time>
      </trkpt>
      <trkpt lat="44.06146" lon="3.04861">
        <ele>776.1</ele>
        <time>2018-05-19T08:35:33Z</time>
      </trkpt>
      <trkpt lat="44.06148" lon="3.04857">
        <ele>776</ele>
        <time>2018-05-19T08:35:34Z</time>
      </trkpt>
      <trkpt lat="44.0615" lon="3.04853">
        <ele>775.9</ele>
        <time>2018-05-19T08:35:35Z</time>
      </trkpt>
      <trkpt lat="44.06151" lon="3.04849">
        <ele>775.8</ele>
        <time>2018-05-19T08:35:36Z</time>
      </trkpt>
      <trkpt lat="44.06152" lon="3.04845">
        <ele>775.6</ele>
        <time>2018-05-19T08:35:37Z</time>
      </trkpt>
      <trkpt lat="44.06154" lon="3.04841">
        <ele>775.5</ele>
        <time>2018-05-19T08:35:38Z</time>
      </trkpt>
      <trkpt lat="44.06154" lon="3.04836">
        <ele>775.3</ele>
        <time>2018-05-19T08:35:39Z</time>
      </trkpt>
      <trkpt lat="44.06155" lon="3.04832">
        <ele>775.2</ele>
        <time>2018-05-19T08:35:40Z</time>
      </trkpt>
      <trkpt lat="44.06156" lon="3.04827">
        <ele>775.1</ele>
        <time>2018-05-19T08:35:41Z</time>
      </trkpt>
      <trkpt lat="44.06156" lon="3.04822">
        <ele>775</ele>
        <time>2018-05-19T08:35:42Z</time>
      </trkpt>
      <trkpt lat="44.06156" lon="3.04816">
        <ele>774.9</ele>
        <time>2018-05-19T08:35:43Z</time>
      </trkpt>
      <trkpt lat="44.06157" lon="3.04811">
        <ele>774.7</ele>
        <time>2018-05-19T08:35:44Z</time>
      </trkpt>
      <trkpt lat="44.06157" lon="3.04806">
        <ele>774.6</ele>
        <time>2018-05-19T08:35:45Z</time>
      </trkpt>
      <trkpt lat="44.06158" lon="3.048">
        <ele>774.5</ele>
        <time>2018-05-19T08:35:46Z</time>
      </trkpt>
      <trkpt lat="44.06159" lon="3.04794">
        <ele>774.3</ele>
        <time>2018-05-19T08:35:47Z</time>
      </trkpt>
      <trkpt lat="44.06161" lon="3.04788">
        <ele>774.2</ele>
        <time>2018-05-19T08:35:48Z</time>
      </trkpt>
      <trkpt lat="44.06162" lon="3.04782">
        <ele>774</ele>
        <time>2018-05-19T08:35:49Z</time>
      </trkpt>
      <trkpt lat="44.06163" lon="3.04775">
        <ele>773.7</ele>
        <time>2018-05-19T08:35:50Z</time>
      </trkpt>
      <trkpt lat="44.06165" lon="3.04769">
        <ele>773.4</ele>
        <time>2018-05-19T08:35:51Z</time>
      </trkpt>
      <trkpt lat="44.06167" lon="3.04763">
        <ele>773.2</ele>
        <time>2018-05-19T08:35:52Z</time>
      </trkpt>
      <trkpt lat="44.06169" lon="3.0476">
        <ele>773</ele>
        <time>2018-05-19T08:35:53Z</time>
      </trkpt>
      <trkpt lat="44.06171" lon="3.04757">
        <ele>772.8</ele>
        <time>2018-05-19T08:35:54Z</time>
      </trkpt>
      <trkpt lat="44.06174" lon="3.04755">
        <ele>772.6</ele>
        <time>2018-05-19T08:36:07Z</time>
      </trkpt>
      <trkpt lat="44.06176" lon="3.04754">
        <ele>772.4</ele>
        <time>2018-05-19T08:36:22Z</time>
      </trkpt>
      <trkpt lat="44.06178" lon="3.0475">
        <ele>772.1</ele>
        <time>2018-05-19T08:36:28Z</time>
      </trkpt>
      <trkpt lat="44.0618" lon="3.04747">
        <ele>771.7</ele>
        <time>2018-05-19T08:36:29Z</time>
      </trkpt>
      <trkpt lat="44.06183" lon="3.04742">
        <ele>771.3</ele>
        <time>2018-05-19T08:36:30Z</time>
      </trkpt>
      <trkpt lat="44.06185" lon="3.04738">
        <ele>770.9</ele>
        <time>2018-05-19T08:36:31Z</time>
      </trkpt>
      <trkpt lat="44.0619" lon="3.04731">
        <ele>770.1</ele>
        <time>2018-05-19T08:36:32Z</time>
      </trkpt>
      <trkpt lat="44.06194" lon="3.04726">
        <ele>769.5</ele>
        <time>2018-05-19T08:36:33Z</time>
      </trkpt>
      <trkpt lat="44.06198" lon="3.0472">
        <ele>769</ele>
        <time>2018-05-19T08:36:34Z</time>
      </trkpt>
      <trkpt lat="44.06202" lon="3.04714">
        <ele>768.5</ele>
        <time>2018-05-19T08:36:35Z</time>
      </trkpt>
      <trkpt lat="44.06207" lon="3.04706">
        <ele>768</ele>
        <time>2018-05-19T08:36:36Z</time>
      </trkpt>
      <trkpt lat="44.06212" lon="3.04697">
        <ele>767.3</ele>
        <time>2018-05-19T08:36:37Z</time>
      </trkpt>
      <trkpt lat="44.06217" lon="3.04688">
        <ele>766.7</ele>
        <time>2018-05-19T08:36:38Z</time>
      </trkpt>
      <trkpt lat="44.06222" lon="3.0468">
        <ele>766.1</ele>
        <time>2018-05-19T08:36:39Z</time>
      </trkpt>
      <trkpt lat="44.06228" lon="3.04673">
        <ele>765.5</ele>
        <time>2018-05-19T08:36:40Z</time>
      </trkpt>
      <trkpt lat="44.06232" lon="3.04666">
        <ele>764.9</ele>
        <time>2018-05-19T08:36:41Z</time>
      </trkpt>
      <trkpt lat="44.06234" lon="3.04658">
        <ele>764.3</ele>
        <time>2018-05-19T08:36:42Z</time>
      </trkpt>
      <trkpt lat="44.06235" lon="3.04649">
        <ele>764.1</ele>
        <time>2018-05-19T08:36:43Z</time>
      </trkpt>
      <trkpt lat="44.06236" lon="3.04639">
        <ele>763.7</ele>
        <time>2018-05-19T08:36:44Z</time>
      </trkpt>
      <trkpt lat="44.06238" lon="3.04631">
        <ele>763.4</ele>
        <time>2018-05-19T08:36:45Z</time>
      </trkpt>
      <trkpt lat="44.0624" lon="3.04622">
        <ele>763.1</ele>
        <time>2018-05-19T08:36:46Z</time>
      </trkpt>
      <trkpt lat="44.06242" lon="3.04613">
        <ele>762.8</ele>
        <time>2018-05-19T08:36:47Z</time>
      </trkpt>
      <trkpt lat="44.06244" lon="3.04604">
        <ele>762.6</ele>
        <time>2018-05-19T08:36:48Z</time>
      </trkpt>
      <trkpt lat="44.06247" lon="3.04595">
        <ele>762.3</ele>
        <time>2018-05-19T08:36:49Z</time>
      </trkpt>
      <trkpt lat="44.06249" lon="3.04586">
        <ele>762</ele>
        <time>2018-05-19T08:36:50Z</time>
      </trkpt>
      <trkpt lat="44.06251" lon="3.04576">
        <ele>761.7</ele>
        <time>2018-05-19T08:36:51Z</time>
      </trkpt>
      <trkpt lat="44.06253" lon="3.04567">
        <ele>761.3</ele>
        <time>2018-05-19T08:36:52Z</time>
      </trkpt>
      <trkpt lat="44.06257" lon="3.0456">
        <ele>760.8</ele>
        <time>2018-05-19T08:36:53Z</time>
      </trkpt>
      <trkpt lat="44.06259" lon="3.04551">
        <ele>760.4</ele>
        <time>2018-05-19T08:36:54Z</time>
      </trkpt>
      <trkpt lat="44.06261" lon="3.04541">
        <ele>760</ele>
        <time>2018-05-19T08:36:55Z</time>
      </trkpt>
      <trkpt lat="44.06264" lon="3.04531">
        <ele>759.5</ele>
        <time>2018-05-19T08:36:56Z</time>
      </trkpt>
      <trkpt lat="44.06266" lon="3.0452">
        <ele>759.3</ele>
        <time>2018-05-19T08:36:57Z</time>
      </trkpt>
      <trkpt lat="44.06269" lon="3.04511">
        <ele>759.2</ele>
        <time>2018-05-19T08:36:58Z</time>
      </trkpt>
      <trkpt lat="44.06273" lon="3.04503">
        <ele>759.1</ele>
        <time>2018-05-19T08:36:59Z</time>
      </trkpt>
      <trkpt lat="44.06276" lon="3.04493">
        <ele>758.5</ele>
        <time>2018-05-19T08:37:00Z</time>
      </trkpt>
      <trkpt lat="44.06278" lon="3.04484">
        <ele>757.3</ele>
        <time>2018-05-19T08:37:01Z</time>
      </trkpt>
      <trkpt lat="44.0628" lon="3.04476">
        <ele>756.7</ele>
        <time>2018-05-19T08:37:02Z</time>
      </trkpt>
      <trkpt lat="44.06282" lon="3.0447">
        <ele>756</ele>
        <time>2018-05-19T08:37:03Z</time>
      </trkpt>
      <trkpt lat="44.06285" lon="3.04467">
        <ele>755.1</ele>
        <time>2018-05-19T08:37:04Z</time>
      </trkpt>
      <trkpt lat="44.06288" lon="3.04462">
        <ele>754.4</ele>
        <time>2018-05-19T08:37:05Z</time>
      </trkpt>
      <trkpt lat="44.0629" lon="3.04458">
        <ele>753.9</ele>
        <time>2018-05-19T08:37:06Z</time>
      </trkpt>
      <trkpt lat="44.06292" lon="3.04454">
        <ele>753.4</ele>
        <time>2018-05-19T08:37:07Z</time>
      </trkpt>
      <trkpt lat="44.06293" lon="3.04451">
        <ele>753.1</ele>
        <time>2018-05-19T08:37:09Z</time>
      </trkpt>
      <trkpt lat="44.06293" lon="3.04446">
        <ele>752.3</ele>
        <time>2018-05-19T08:37:25Z</time>
      </trkpt>
      <trkpt lat="44.06295" lon="3.04443">
        <ele>751.9</ele>
        <time>2018-05-19T08:37:27Z</time>
      </trkpt>
      <trkpt lat="44.06297" lon="3.04439">
        <ele>751.4</ele>
        <time>2018-05-19T08:37:28Z</time>
      </trkpt>
      <trkpt lat="44.06299" lon="3.04434">
        <ele>750.6</ele>
        <time>2018-05-19T08:37:29Z</time>
      </trkpt>
      <trkpt lat="44.063" lon="3.04429">
        <ele>749.4</ele>
        <time>2018-05-19T08:37:30Z</time>
      </trkpt>
      <trkpt lat="44.06303" lon="3.04424">
        <ele>748.9</ele>
        <time>2018-05-19T08:37:31Z</time>
      </trkpt>
      <trkpt lat="44.06306" lon="3.0442">
        <ele>748.4</ele>
        <time>2018-05-19T08:37:32Z</time>
      </trkpt>
      <trkpt lat="44.06309" lon="3.04415">
        <ele>747.7</ele>
        <time>2018-05-19T08:37:33Z</time>
      </trkpt>
      <trkpt lat="44.06311" lon="3.04413">
        <ele>747.4</ele>
        <time>2018-05-19T08:37:34Z</time>
      </trkpt>
      <trkpt lat="44.06314" lon="3.04415">
        <ele>747.2</ele>
        <time>2018-05-19T08:37:49Z</time>
      </trkpt>
      <trkpt lat="44.06313" lon="3.04419">
        <ele>747</ele>
        <time>2018-05-19T08:38:23Z</time>
      </trkpt>
      <trkpt lat="44.06312" lon="3.04423">
        <ele>746.8</ele>
        <time>2018-05-19T08:38:59Z</time>
      </trkpt>
      <trkpt lat="44.06312" lon="3.04429">
        <ele>746.1</ele>
        <time>2018-05-19T08:39:01Z</time>
      </trkpt>
      <trkpt lat="44.06312" lon="3.04433">
        <ele>745.5</ele>
        <time>2018-05-19T08:39:02Z</time>
      </trkpt>
      <trkpt lat="44.06311" lon="3.04439">
        <ele>744.8</ele>
        <time>2018-05-19T08:39:03Z</time>
      </trkpt>
      <trkpt lat="44.06309" lon="3.04446">
        <ele>744.3</ele>
        <time>2018-05-19T08:39:04Z</time>
      </trkpt>
      <trkpt lat="44.06309" lon="3.04451">
        <ele>743.7</ele>
        <time>2018-05-19T08:39:05Z</time>
      </trkpt>
      <trkpt lat="44.06309" lon="3.04457">
        <ele>743.1</ele>
        <time>2018-05-19T08:39:06Z</time>
      </trkpt>
      <trkpt lat="44.0631" lon="3.04462">
        <ele>742.9</ele>
        <time>2018-05-19T08:39:07Z</time>
      </trkpt>
      <trkpt lat="44.06312" lon="3.04464">
        <ele>742.8</ele>
        <time>2018-05-19T08:39:08Z</time>
      </trkpt>
      <trkpt lat="44.06317" lon="3.04459">
        <ele>742.1</ele>
        <time>2018-05-19T08:39:10Z</time>
      </trkpt>
      <trkpt lat="44.0632" lon="3.04455">
        <ele>741.7</ele>
        <time>2018-05-19T08:39:11Z</time>
      </trkpt>
      <trkpt lat="44.06324" lon="3.0445">
        <ele>741.1</ele>
        <time>2018-05-19T08:39:12Z</time>
      </trkpt>
      <trkpt lat="44.06328" lon="3.04444">
        <ele>740.3</ele>
        <time>2018-05-19T08:39:13Z</time>
      </trkpt>
      <trkpt lat="44.06334" lon="3.04437">
        <ele>739.3</ele>
        <time>2018-05-19T08:39:14Z</time>
      </trkpt>
      <trkpt lat="44.06338" lon="3.04431">
        <ele>738.2</ele>
        <time>2018-05-19T08:39:15Z</time>
      </trkpt>
      <trkpt lat="44.06343" lon="3.04424">
        <ele>737</ele>
        <time>2018-05-19T08:39:16Z</time>
      </trkpt>
      <trkpt lat="44.06348" lon="3.04416">
        <ele>735.6</ele>
        <time>2018-05-19T08:39:17Z</time>
      </trkpt>
      <trkpt lat="44.06352" lon="3.04408">
        <ele>734.4</ele>
        <time>2018-05-19T08:39:18Z</time>
      </trkpt>
      <trkpt lat="44.06354" lon="3.04401">
        <ele>733.6</ele>
        <time>2018-05-19T08:39:19Z</time>
      </trkpt>
      <trkpt lat="44.06359" lon="3.04396">
        <ele>732.8</ele>
        <time>2018-05-19T08:39:20Z</time>
      </trkpt>
      <trkpt lat="44.06361" lon="3.04392">
        <ele>732.6</ele>
        <time>2018-05-19T08:39:21Z</time>
      </trkpt>
      <trkpt lat="44.06363" lon="3.04386">
        <ele>732.3</ele>
        <time>2018-05-19T08:39:22Z</time>
      </trkpt>
      <trkpt lat="44.06363" lon="3.0438">
        <ele>731.9</ele>
        <time>2018-05-19T08:39:23Z</time>
      </trkpt>
      <trkpt lat="44.06366" lon="3.04377">
        <ele>731.5</ele>
        <time>2018-05-19T08:39:24Z</time>
      </trkpt>
      <trkpt lat="44.06369" lon="3.04374">
        <ele>731</ele>
        <time>2018-05-19T08:39:25Z</time>
      </trkpt>
      <trkpt lat="44.06372" lon="3.04371">
        <ele>730.6</ele>
        <time>2018-05-19T08:39:26Z</time>
      </trkpt>
      <trkpt lat="44.06376" lon="3.04366">
        <ele>729.8</ele>
        <time>2018-05-19T08:39:27Z</time>
      </trkpt>
      <trkpt lat="44.0638" lon="3.04359">
        <ele>728.4</ele>
        <time>2018-05-19T08:39:28Z</time>
      </trkpt>
      <trkpt lat="44.06385" lon="3.04353">
        <ele>727.2</ele>
        <time>2018-05-19T08:39:29Z</time>
      </trkpt>
      <trkpt lat="44.06389" lon="3.04348">
        <ele>726</ele>
        <time>2018-05-19T08:39:30Z</time>
      </trkpt>
      <trkpt lat="44.06395" lon="3.04343">
        <ele>725.2</ele>
        <time>2018-05-19T08:39:31Z</time>
      </trkpt>
      <trkpt lat="44.06401" lon="3.04341">
        <ele>723.9</ele>
        <time>2018-05-19T08:39:32Z</time>
      </trkpt>
      <trkpt lat="44.06403" lon="3.04344">
        <ele>723.4</ele>
        <time>2018-05-19T08:39:33Z</time>
      </trkpt>
      <trkpt lat="44.06406" lon="3.04346">
        <ele>722.7</ele>
        <time>2018-05-19T08:39:34Z</time>
      </trkpt>
      <trkpt lat="44.06409" lon="3.04349">
        <ele>722.1</ele>
        <time>2018-05-19T08:39:35Z</time>
      </trkpt>
      <trkpt lat="44.06414" lon="3.04354">
        <ele>721.1</ele>
        <time>2018-05-19T08:39:36Z</time>
      </trkpt>
      <trkpt lat="44.06418" lon="3.04361">
        <ele>720.2</ele>
        <time>2018-05-19T08:39:37Z</time>
      </trkpt>
      <trkpt lat="44.06418" lon="3.0437">
        <ele>719.5</ele>
        <time>2018-05-19T08:39:38Z</time>
      </trkpt>
      <trkpt lat="44.06417" lon="3.04377">
        <ele>718.8</ele>
        <time>2018-05-19T08:39:39Z</time>
      </trkpt>
      <trkpt lat="44.06418" lon="3.04385">
        <ele>717.9</ele>
        <time>2018-05-19T08:39:40Z</time>
      </trkpt>
      <trkpt lat="44.06416" lon="3.04389">
        <ele>717.3</ele>
        <time>2018-05-19T08:39:41Z</time>
      </trkpt>
      <trkpt lat="44.06414" lon="3.04394">
        <ele>716.5</ele>
        <time>2018-05-19T08:39:42Z</time>
      </trkpt>
      <trkpt lat="44.06413" lon="3.04398">
        <ele>715.7</ele>
        <time>2018-05-19T08:39:43Z</time>
      </trkpt>
      <trkpt lat="44.06415" lon="3.04401">
        <ele>715.1</ele>
        <time>2018-05-19T08:39:44Z</time>
      </trkpt>
      <trkpt lat="44.06419" lon="3.04402">
        <ele>714.4</ele>
        <time>2018-05-19T08:39:45Z</time>
      </trkpt>
      <trkpt lat="44.06423" lon="3.04401">
        <ele>713.6</ele>
        <time>2018-05-19T08:39:46Z</time>
      </trkpt>
      <trkpt lat="44.06428" lon="3.044">
        <ele>712.5</ele>
        <time>2018-05-19T08:39:47Z</time>
      </trkpt>
      <trkpt lat="44.06431" lon="3.04396">
        <ele>711.4</ele>
        <time>2018-05-19T08:39:48Z</time>
      </trkpt>
      <trkpt lat="44.06434" lon="3.04391">
        <ele>710</ele>
        <time>2018-05-19T08:39:49Z</time>
      </trkpt>
      <trkpt lat="44.06435" lon="3.04387">
        <ele>708.7</ele>
        <time>2018-05-19T08:39:50Z</time>
      </trkpt>
      <trkpt lat="44.06437" lon="3.04383">
        <ele>707.6</ele>
        <time>2018-05-19T08:39:51Z</time>
      </trkpt>
      <trkpt lat="44.06439" lon="3.04377">
        <ele>706.4</ele>
        <time>2018-05-19T08:39:52Z</time>
      </trkpt>
      <trkpt lat="44.06441" lon="3.0437">
        <ele>705</ele>
        <time>2018-05-19T08:39:54Z</time>
      </trkpt>
      <trkpt lat="44.06445" lon="3.04365">
        <ele>703.7</ele>
        <time>2018-05-19T08:39:56Z</time>
      </trkpt>
      <trkpt lat="44.06448" lon="3.04363">
        <ele>702.8</ele>
        <time>2018-05-19T08:39:58Z</time>
      </trkpt>
      <trkpt lat="44.0645" lon="3.0436">
        <ele>702.1</ele>
        <time>2018-05-19T08:40:12Z</time>
      </trkpt>
      <trkpt lat="44.06453" lon="3.04361">
        <ele>701.2</ele>
        <time>2018-05-19T08:40:19Z</time>
      </trkpt>
      <trkpt lat="44.06457" lon="3.04361">
        <ele>700.4</ele>
        <time>2018-05-19T08:40:21Z</time>
      </trkpt>
      <trkpt lat="44.06462" lon="3.04364">
        <ele>699.2</ele>
        <time>2018-05-19T08:40:23Z</time>
      </trkpt>
      <trkpt lat="44.06465" lon="3.04367">
        <ele>698.5</ele>
        <time>2018-05-19T08:40:24Z</time>
      </trkpt>
      <trkpt lat="44.06469" lon="3.04369">
        <ele>697.9</ele>
        <time>2018-05-19T08:40:25Z</time>
      </trkpt>
      <trkpt lat="44.06473" lon="3.0437">
        <ele>697.3</ele>
        <time>2018-05-19T08:40:26Z</time>
      </trkpt>
      <trkpt lat="44.06478" lon="3.0437">
        <ele>697.1</ele>
        <time>2018-05-19T08:40:27Z</time>
      </trkpt>
      <trkpt lat="44.06482" lon="3.04368">
        <ele>696.9</ele>
        <time>2018-05-19T08:40:28Z</time>
      </trkpt>
      <trkpt lat="44.06486" lon="3.04367">
        <ele>696.7</ele>
        <time>2018-05-19T08:40:30Z</time>
      </trkpt>
      <trkpt lat="44.06489" lon="3.04366">
        <ele>696.6</ele>
        <time>2018-05-19T08:40:33Z</time>
      </trkpt>
      <trkpt lat="44.06492" lon="3.04365">
        <ele>696.4</ele>
        <time>2018-05-19T08:40:48Z</time>
      </trkpt>
      <trkpt lat="44.06494" lon="3.04361">
        <ele>696.1</ele>
        <time>2018-05-19T08:40:50Z</time>
      </trkpt>
      <trkpt lat="44.06496" lon="3.04356">
        <ele>695.7</ele>
        <time>2018-05-19T08:40:52Z</time>
      </trkpt>
      <trkpt lat="44.06497" lon="3.04351">
        <ele>695.4</ele>
        <time>2018-05-19T08:40:54Z</time>
      </trkpt>
      <trkpt lat="44.06498" lon="3.04346">
        <ele>695</ele>
        <time>2018-05-19T08:40:57Z</time>
      </trkpt>
      <trkpt lat="44.06503" lon="3.04342">
        <ele>694.4</ele>
        <time>2018-05-19T08:40:59Z</time>
      </trkpt>
      <trkpt lat="44.06505" lon="3.0434">
        <ele>694.1</ele>
        <time>2018-05-19T08:41:00Z</time>
      </trkpt>
      <trkpt lat="44.06508" lon="3.04338">
        <ele>693.7</ele>
        <time>2018-05-19T08:41:01Z</time>
      </trkpt>
      <trkpt lat="44.06511" lon="3.04335">
        <ele>693.2</ele>
        <time>2018-05-19T08:41:02Z</time>
      </trkpt>
      <trkpt lat="44.06514" lon="3.04333">
        <ele>692.4</ele>
        <time>2018-05-19T08:41:03Z</time>
      </trkpt>
      <trkpt lat="44.06518" lon="3.0433">
        <ele>691.1</ele>
        <time>2018-05-19T08:41:05Z</time>
      </trkpt>
      <trkpt lat="44.06523" lon="3.0433">
        <ele>689.4</ele>
        <time>2018-05-19T08:41:07Z</time>
      </trkpt>
      <trkpt lat="44.06528" lon="3.04325">
        <ele>687.3</ele>
        <time>2018-05-19T08:41:09Z</time>
      </trkpt>
      <trkpt lat="44.0653" lon="3.04321">
        <ele>685.9</ele>
        <time>2018-05-19T08:41:10Z</time>
      </trkpt>
      <trkpt lat="44.06532" lon="3.04316">
        <ele>684.6</ele>
        <time>2018-05-19T08:41:11Z</time>
      </trkpt>
      <trkpt lat="44.06535" lon="3.04312">
        <ele>683.4</ele>
        <time>2018-05-19T08:41:12Z</time>
      </trkpt>
      <trkpt lat="44.06537" lon="3.04309">
        <ele>682.2</ele>
        <time>2018-05-19T08:41:13Z</time>
      </trkpt>
      <trkpt lat="44.06539" lon="3.04306">
        <ele>681.3</ele>
        <time>2018-05-19T08:41:14Z</time>
      </trkpt>
      <trkpt lat="44.06541" lon="3.04301">
        <ele>680.2</ele>
        <time>2018-05-19T08:41:16Z</time>
      </trkpt>
      <trkpt lat="44.06541" lon="3.04296">
        <ele>679</ele>
        <time>2018-05-19T08:41:26Z</time>
      </trkpt>
      <trkpt lat="44.06542" lon="3.0429">
        <ele>677.8</ele>
        <time>2018-05-19T08:41:28Z</time>
      </trkpt>
      <trkpt lat="44.06544" lon="3.04287">
        <ele>676.9</ele>
        <time>2018-05-19T08:41:29Z</time>
      </trkpt>
      <trkpt lat="44.06545" lon="3.04283">
        <ele>676.1</ele>
        <time>2018-05-19T08:41:30Z</time>
      </trkpt>
      <trkpt lat="44.06547" lon="3.04279">
        <ele>675.1</ele>
        <time>2018-05-19T08:41:31Z</time>
      </trkpt>
      <trkpt lat="44.06547" lon="3.04274">
        <ele>674.1</ele>
        <time>2018-05-19T08:41:32Z</time>
      </trkpt>
      <trkpt lat="44.06549" lon="3.04269">
        <ele>672.8</ele>
        <time>2018-05-19T08:41:34Z</time>
      </trkpt>
      <trkpt lat="44.06553" lon="3.0427">
        <ele>671.4</ele>
        <time>2018-05-19T08:41:36Z</time>
      </trkpt>
      <trkpt lat="44.06556" lon="3.04274">
        <ele>670</ele>
        <time>2018-05-19T08:41:37Z</time>
      </trkpt>
      <trkpt lat="44.06557" lon="3.04278">
        <ele>668.2</ele>
        <time>2018-05-19T08:41:38Z</time>
      </trkpt>
      <trkpt lat="44.0656" lon="3.04284">
        <ele>666.2</ele>
        <time>2018-05-19T08:41:40Z</time>
      </trkpt>
      <trkpt lat="44.06563" lon="3.04287">
        <ele>664.9</ele>
        <time>2018-05-19T08:41:42Z</time>
      </trkpt>
      <trkpt lat="44.06566" lon="3.04285">
        <ele>664.1</ele>
        <time>2018-05-19T08:41:46Z</time>
      </trkpt>
      <trkpt lat="44.06566" lon="3.04281">
        <ele>663.4</ele>
        <time>2018-05-19T08:41:49Z</time>
      </trkpt>
      <trkpt lat="44.06571" lon="3.04283">
        <ele>662.2</ele>
        <time>2018-05-19T08:41:54Z</time>
      </trkpt>
      <trkpt lat="44.06573" lon="3.04287">
        <ele>660.7</ele>
        <time>2018-05-19T08:41:55Z</time>
      </trkpt>
      <trkpt lat="44.06576" lon="3.04291">
        <ele>658.9</ele>
        <time>2018-05-19T08:41:56Z</time>
      </trkpt>
      <trkpt lat="44.06578" lon="3.04295">
        <ele>657</ele>
        <time>2018-05-19T08:41:57Z</time>
      </trkpt>
      <trkpt lat="44.06582" lon="3.04299">
        <ele>654.5</ele>
        <time>2018-05-19T08:41:59Z</time>
      </trkpt>
      <trkpt lat="44.06586" lon="3.04301">
        <ele>653.4</ele>
        <time>2018-05-19T08:42:00Z</time>
      </trkpt>
      <trkpt lat="44.0659" lon="3.04301">
        <ele>652.4</ele>
        <time>2018-05-19T08:42:01Z</time>
      </trkpt>
      <trkpt lat="44.06593" lon="3.043">
        <ele>652</ele>
        <time>2018-05-19T08:42:02Z</time>
      </trkpt>
      <trkpt lat="44.06596" lon="3.04295">
        <ele>651.8</ele>
        <time>2018-05-19T08:42:04Z</time>
      </trkpt>
      <trkpt lat="44.06596" lon="3.04291">
        <ele>651.7</ele>
        <time>2018-05-19T08:42:08Z</time>
      </trkpt>
      <trkpt lat="44.06592" lon="3.04282">
        <ele>650.7</ele>
        <time>2018-05-19T08:46:46Z</time>
      </trkpt>
      <trkpt lat="44.06591" lon="3.04275">
        <ele>650.4</ele>
        <time>2018-05-19T08:46:48Z</time>
      </trkpt>
      <trkpt lat="44.0659" lon="3.04271">
        <ele>650.2</ele>
        <time>2018-05-19T08:46:49Z</time>
      </trkpt>
      <trkpt lat="44.0659" lon="3.04267">
        <ele>650</ele>
        <time>2018-05-19T08:46:50Z</time>
      </trkpt>
      <trkpt lat="44.06592" lon="3.04259">
        <ele>649.5</ele>
        <time>2018-05-19T08:46:51Z</time>
      </trkpt>
      <trkpt lat="44.06593" lon="3.04251">
        <ele>648.8</ele>
        <time>2018-05-19T08:46:52Z</time>
      </trkpt>
      <trkpt lat="44.06593" lon="3.04243">
        <ele>648.1</ele>
        <time>2018-05-19T08:46:53Z</time>
      </trkpt>
      <trkpt lat="44.0659" lon="3.04237">
        <ele>647.3</ele>
        <time>2018-05-19T08:46:54Z</time>
      </trkpt>
      <trkpt lat="44.06588" lon="3.0423">
        <ele>646.5</ele>
        <time>2018-05-19T08:46:55Z</time>
      </trkpt>
      <trkpt lat="44.06585" lon="3.04224">
        <ele>645.5</ele>
        <time>2018-05-19T08:46:56Z</time>
      </trkpt>
      <trkpt lat="44.06582" lon="3.04221">
        <ele>645.3</ele>
        <time>2018-05-19T08:46:57Z</time>
      </trkpt>
      <trkpt lat="44.06579" lon="3.04218">
        <ele>645.3</ele>
        <time>2018-05-19T08:46:59Z</time>
      </trkpt>
      <trkpt lat="44.06575" lon="3.04215">
        <ele>645.5</ele>
        <time>2018-05-19T08:47:01Z</time>
      </trkpt>
      <trkpt lat="44.06571" lon="3.04212">
        <ele>646.1</ele>
        <time>2018-05-19T08:47:03Z</time>
      </trkpt>
      <trkpt lat="44.06567" lon="3.04208">
        <ele>647</ele>
        <time>2018-05-19T08:47:05Z</time>
      </trkpt>
      <trkpt lat="44.06563" lon="3.04205">
        <ele>647.3</ele>
        <time>2018-05-19T08:47:07Z</time>
      </trkpt>
      <trkpt lat="44.0656" lon="3.04202">
        <ele>647.7</ele>
        <time>2018-05-19T08:47:09Z</time>
      </trkpt>
      <trkpt lat="44.06557" lon="3.042">
        <ele>647.9</ele>
        <time>2018-05-19T08:47:12Z</time>
      </trkpt>
      <trkpt lat="44.06554" lon="3.04198">
        <ele>648.1</ele>
        <time>2018-05-19T08:47:14Z</time>
      </trkpt>
      <trkpt lat="44.0655" lon="3.04196">
        <ele>648.6</ele>
        <time>2018-05-19T08:47:16Z</time>
      </trkpt>
      <trkpt lat="44.06546" lon="3.04196">
        <ele>649.5</ele>
        <time>2018-05-19T08:47:18Z</time>
      </trkpt>
      <trkpt lat="44.06541" lon="3.04195">
        <ele>652.4</ele>
        <time>2018-05-19T08:47:20Z</time>
      </trkpt>
      <trkpt lat="44.06537" lon="3.04194">
        <ele>653.5</ele>
        <time>2018-05-19T08:47:22Z</time>
      </trkpt>
      <trkpt lat="44.06534" lon="3.04192">
        <ele>653.7</ele>
        <time>2018-05-19T08:47:24Z</time>
      </trkpt>
      <trkpt lat="44.06531" lon="3.04189">
        <ele>653.8</ele>
        <time>2018-05-19T08:47:26Z</time>
      </trkpt>
      <trkpt lat="44.06527" lon="3.04187">
        <ele>653.9</ele>
        <time>2018-05-19T08:47:28Z</time>
      </trkpt>
      <trkpt lat="44.06522" lon="3.04184">
        <ele>654</ele>
        <time>2018-05-19T08:47:30Z</time>
      </trkpt>
      <trkpt lat="44.0652" lon="3.04182">
        <ele>654</ele>
        <time>2018-05-19T08:47:31Z</time>
      </trkpt>
      <trkpt lat="44.06518" lon="3.0418">
        <ele>654</ele>
        <time>2018-05-19T08:47:32Z</time>
      </trkpt>
      <trkpt lat="44.06513" lon="3.04176">
        <ele>654.1</ele>
        <time>2018-05-19T08:47:34Z</time>
      </trkpt>
      <trkpt lat="44.06511" lon="3.04173">
        <ele>654.1</ele>
        <time>2018-05-19T08:47:35Z</time>
      </trkpt>
      <trkpt lat="44.06508" lon="3.0417">
        <ele>654.1</ele>
        <time>2018-05-19T08:47:36Z</time>
      </trkpt>
      <trkpt lat="44.06506" lon="3.04166">
        <ele>654.2</ele>
        <time>2018-05-19T08:47:37Z</time>
      </trkpt>
      <trkpt lat="44.06503" lon="3.04163">
        <ele>654.2</ele>
        <time>2018-05-19T08:47:38Z</time>
      </trkpt>
      <trkpt lat="44.065" lon="3.04161">
        <ele>654.3</ele>
        <time>2018-05-19T08:47:39Z</time>
      </trkpt>
      <trkpt lat="44.06498" lon="3.04158">
        <ele>654.3</ele>
        <time>2018-05-19T08:47:40Z</time>
      </trkpt>
      <trkpt lat="44.06495" lon="3.04156">
        <ele>654.4</ele>
        <time>2018-05-19T08:47:41Z</time>
      </trkpt>
      <trkpt lat="44.06493" lon="3.04154">
        <ele>654.5</ele>
        <time>2018-05-19T08:47:42Z</time>
      </trkpt>
      <trkpt lat="44.0649" lon="3.04152">
        <ele>654.6</ele>
        <time>2018-05-19T08:47:43Z</time>
      </trkpt>
      <trkpt lat="44.06486" lon="3.0415">
        <ele>654.7</ele>
        <time>2018-05-19T08:47:45Z</time>
      </trkpt>
      <trkpt lat="44.06481" lon="3.04148">
        <ele>655</ele>
        <time>2018-05-19T08:47:47Z</time>
      </trkpt>
      <trkpt lat="44.06476" lon="3.04147">
        <ele>655.7</ele>
        <time>2018-05-19T08:47:49Z</time>
      </trkpt>
      <trkpt lat="44.06472" lon="3.04147">
        <ele>656.1</ele>
        <time>2018-05-19T08:47:50Z</time>
      </trkpt>
      <trkpt lat="44.06469" lon="3.04147">
        <ele>656.3</ele>
        <time>2018-05-19T08:47:51Z</time>
      </trkpt>
      <trkpt lat="44.06465" lon="3.04146">
        <ele>656.5</ele>
        <time>2018-05-19T08:47:52Z</time>
      </trkpt>
      <trkpt lat="44.06462" lon="3.04146">
        <ele>656.6</ele>
        <time>2018-05-19T08:47:53Z</time>
      </trkpt>
      <trkpt lat="44.06459" lon="3.04144">
        <ele>656.7</ele>
        <time>2018-05-19T08:47:54Z</time>
      </trkpt>
      <trkpt lat="44.06456" lon="3.04141">
        <ele>656.8</ele>
        <time>2018-05-19T08:47:55Z</time>
      </trkpt>
      <trkpt lat="44.06453" lon="3.04138">
        <ele>656.8</ele>
        <time>2018-05-19T08:47:56Z</time>
      </trkpt>
      <trkpt lat="44.0645" lon="3.04135">
        <ele>656.9</ele>
        <time>2018-05-19T08:47:57Z</time>
      </trkpt>
      <trkpt lat="44.06448" lon="3.04133">
        <ele>656.9</ele>
        <time>2018-05-19T08:47:58Z</time>
      </trkpt>
      <trkpt lat="44.06446" lon="3.0413">
        <ele>657</ele>
        <time>2018-05-19T08:47:59Z</time>
      </trkpt>
      <trkpt lat="44.06443" lon="3.04127">
        <ele>657</ele>
        <time>2018-05-19T08:48:00Z</time>
      </trkpt>
      <trkpt lat="44.0644" lon="3.04124">
        <ele>657.1</ele>
        <time>2018-05-19T08:48:02Z</time>
      </trkpt>
      <trkpt lat="44.06436" lon="3.04122">
        <ele>657.1</ele>
        <time>2018-05-19T08:48:04Z</time>
      </trkpt>
      <trkpt lat="44.06431" lon="3.04119">
        <ele>657.1</ele>
        <time>2018-05-19T08:48:06Z</time>
      </trkpt>
      <trkpt lat="44.06427" lon="3.04116">
        <ele>657.2</ele>
        <time>2018-05-19T08:48:08Z</time>
      </trkpt>
      <trkpt lat="44.06424" lon="3.04114">
        <ele>657.2</ele>
        <time>2018-05-19T08:48:10Z</time>
      </trkpt>
      <trkpt lat="44.06422" lon="3.04112">
        <ele>657.2</ele>
        <time>2018-05-19T08:48:12Z</time>
      </trkpt>
      <trkpt lat="44.06419" lon="3.0411">
        <ele>657.2</ele>
        <time>2018-05-19T08:48:14Z</time>
      </trkpt>
      <trkpt lat="44.06417" lon="3.04107">
        <ele>657.3</ele>
        <time>2018-05-19T08:48:18Z</time>
      </trkpt>
      <trkpt lat="44.06416" lon="3.04104">
        <ele>657.3</ele>
        <time>2018-05-19T08:48:26Z</time>
      </trkpt>
      <trkpt lat="44.06415" lon="3.04099">
        <ele>657.3</ele>
        <time>2018-05-19T08:49:20Z</time>
      </trkpt>
      <trkpt lat="44.06412" lon="3.041">
        <ele>657.3</ele>
        <time>2018-05-19T08:49:29Z</time>
      </trkpt>
      <trkpt lat="44.0641" lon="3.04096">
        <ele>657.4</ele>
        <time>2018-05-19T08:49:40Z</time>
      </trkpt>
      <trkpt lat="44.06407" lon="3.04093">
        <ele>657.4</ele>
        <time>2018-05-19T08:49:42Z</time>
      </trkpt>
      <trkpt lat="44.06406" lon="3.04089">
        <ele>657.4</ele>
        <time>2018-05-19T08:49:44Z</time>
      </trkpt>
      <trkpt lat="44.06405" lon="3.04083">
        <ele>657.4</ele>
        <time>2018-05-19T08:49:46Z</time>
      </trkpt>
      <trkpt lat="44.06404" lon="3.0408">
        <ele>657.5</ele>
        <time>2018-05-19T08:49:47Z</time>
      </trkpt>
      <trkpt lat="44.06403" lon="3.04075">
        <ele>657.5</ele>
        <time>2018-05-19T08:49:48Z</time>
      </trkpt>
      <trkpt lat="44.06403" lon="3.0407">
        <ele>657.6</ele>
        <time>2018-05-19T08:49:49Z</time>
      </trkpt>
      <trkpt lat="44.06402" lon="3.04065">
        <ele>657.6</ele>
        <time>2018-05-19T08:49:50Z</time>
      </trkpt>
      <trkpt lat="44.06401" lon="3.04062">
        <ele>657.7</ele>
        <time>2018-05-19T08:49:51Z</time>
      </trkpt>
      <trkpt lat="44.06399" lon="3.04058">
        <ele>657.7</ele>
        <time>2018-05-19T08:49:52Z</time>
      </trkpt>
      <trkpt lat="44.06396" lon="3.04054">
        <ele>657.7</ele>
        <time>2018-05-19T08:49:53Z</time>
      </trkpt>
      <trkpt lat="44.06393" lon="3.04051">
        <ele>657.8</ele>
        <time>2018-05-19T08:49:55Z</time>
      </trkpt>
      <trkpt lat="44.0639" lon="3.04046">
        <ele>657.8</ele>
        <time>2018-05-19T08:50:01Z</time>
      </trkpt>
      <trkpt lat="44.06386" lon="3.04041">
        <ele>657.9</ele>
        <time>2018-05-19T08:50:03Z</time>
      </trkpt>
      <trkpt lat="44.06383" lon="3.04036">
        <ele>658.1</ele>
        <time>2018-05-19T08:50:05Z</time>
      </trkpt>
      <trkpt lat="44.06381" lon="3.04031">
        <ele>658.2</ele>
        <time>2018-05-19T08:50:07Z</time>
      </trkpt>
      <trkpt lat="44.06379" lon="3.04027">
        <ele>658.3</ele>
        <time>2018-05-19T08:50:09Z</time>
      </trkpt>
      <trkpt lat="44.06376" lon="3.04024">
        <ele>658.4</ele>
        <time>2018-05-19T08:50:11Z</time>
      </trkpt>
      <trkpt lat="44.06373" lon="3.04022">
        <ele>658.5</ele>
        <time>2018-05-19T08:50:13Z</time>
      </trkpt>
      <trkpt lat="44.06369" lon="3.0402">
        <ele>658.7</ele>
        <time>2018-05-19T08:50:15Z</time>
      </trkpt>
      <trkpt lat="44.06365" lon="3.04018">
        <ele>658.9</ele>
        <time>2018-05-19T08:50:17Z</time>
      </trkpt>
      <trkpt lat="44.06362" lon="3.04017">
        <ele>659.3</ele>
        <time>2018-05-19T08:50:19Z</time>
      </trkpt>
      <trkpt lat="44.06358" lon="3.04014">
        <ele>660.2</ele>
        <time>2018-05-19T08:50:21Z</time>
      </trkpt>
      <trkpt lat="44.06354" lon="3.04011">
        <ele>660.5</ele>
        <time>2018-05-19T08:50:23Z</time>
      </trkpt>
      <trkpt lat="44.0635" lon="3.04009">
        <ele>660.8</ele>
        <time>2018-05-19T08:50:25Z</time>
      </trkpt>
      <trkpt lat="44.06346" lon="3.04008">
        <ele>661</ele>
        <time>2018-05-19T08:50:27Z</time>
      </trkpt>
      <trkpt lat="44.06343" lon="3.04006">
        <ele>661</ele>
        <time>2018-05-19T08:50:29Z</time>
      </trkpt>
      <trkpt lat="44.06339" lon="3.04004">
        <ele>661.2</ele>
        <time>2018-05-19T08:50:31Z</time>
      </trkpt>
      <trkpt lat="44.06333" lon="3.04002">
        <ele>661.2</ele>
        <time>2018-05-19T08:50:33Z</time>
      </trkpt>
      <trkpt lat="44.06331" lon="3.04001">
        <ele>661.3</ele>
        <time>2018-05-19T08:50:34Z</time>
      </trkpt>
      <trkpt lat="44.06326" lon="3.03999">
        <ele>661.4</ele>
        <time>2018-05-19T08:50:36Z</time>
      </trkpt>
      <trkpt lat="44.06323" lon="3.03998">
        <ele>661.4</ele>
        <time>2018-05-19T08:50:38Z</time>
      </trkpt>
      <trkpt lat="44.0632" lon="3.03997">
        <ele>661.5</ele>
        <time>2018-05-19T08:50:40Z</time>
      </trkpt>
      <trkpt lat="44.06317" lon="3.03998">
        <ele>661.5</ele>
        <time>2018-05-19T08:50:42Z</time>
      </trkpt>
      <trkpt lat="44.06314" lon="3.03998">
        <ele>661.6</ele>
        <time>2018-05-19T08:50:44Z</time>
      </trkpt>
      <trkpt lat="44.06312" lon="3.03995">
        <ele>661.7</ele>
        <time>2018-05-19T08:50:46Z</time>
      </trkpt>
      <trkpt lat="44.06311" lon="3.03991">
        <ele>661.7</ele>
        <time>2018-05-19T08:50:48Z</time>
      </trkpt>
      <trkpt lat="44.06312" lon="3.03983">
        <ele>661.8</ele>
        <time>2018-05-19T08:50:50Z</time>
      </trkpt>
      <trkpt lat="44.06314" lon="3.03977">
        <ele>662</ele>
        <time>2018-05-19T08:50:52Z</time>
      </trkpt>
      <trkpt lat="44.06316" lon="3.03973">
        <ele>662</ele>
        <time>2018-05-19T08:50:53Z</time>
      </trkpt>
      <trkpt lat="44.06317" lon="3.03967">
        <ele>662.1</ele>
        <time>2018-05-19T08:50:55Z</time>
      </trkpt>
      <trkpt lat="44.06318" lon="3.03962">
        <ele>662.3</ele>
        <time>2018-05-19T08:50:57Z</time>
      </trkpt>
      <trkpt lat="44.06318" lon="3.03959">
        <ele>662.5</ele>
        <time>2018-05-19T08:50:59Z</time>
      </trkpt>
      <trkpt lat="44.06317" lon="3.03955">
        <ele>662.6</ele>
        <time>2018-05-19T08:51:03Z</time>
      </trkpt>
      <trkpt lat="44.06318" lon="3.03951">
        <ele>662.9</ele>
        <time>2018-05-19T08:51:05Z</time>
      </trkpt>
      <trkpt lat="44.06318" lon="3.03947">
        <ele>663.4</ele>
        <time>2018-05-19T08:51:08Z</time>
      </trkpt>
      <trkpt lat="44.06317" lon="3.03942">
        <ele>664.2</ele>
        <time>2018-05-19T08:51:12Z</time>
      </trkpt>
      <trkpt lat="44.06317" lon="3.03938">
        <ele>665.5</ele>
        <time>2018-05-19T08:51:15Z</time>
      </trkpt>
      <trkpt lat="44.06319" lon="3.03934">
        <ele>666.1</ele>
        <time>2018-05-19T08:51:18Z</time>
      </trkpt>
      <trkpt lat="44.0632" lon="3.03931">
        <ele>666.6</ele>
        <time>2018-05-19T08:51:22Z</time>
      </trkpt>
      <trkpt lat="44.06322" lon="3.03926">
        <ele>667.4</ele>
        <time>2018-05-19T08:51:25Z</time>
      </trkpt>
      <trkpt lat="44.06323" lon="3.03921">
        <ele>668.6</ele>
        <time>2018-05-19T08:51:27Z</time>
      </trkpt>
      <trkpt lat="44.06324" lon="3.03916">
        <ele>669.5</ele>
        <time>2018-05-19T08:51:30Z</time>
      </trkpt>
      <trkpt lat="44.06325" lon="3.03913">
        <ele>669.8</ele>
        <time>2018-05-19T08:51:34Z</time>
      </trkpt>
      <trkpt lat="44.06328" lon="3.03911">
        <ele>670.1</ele>
        <time>2018-05-19T08:51:38Z</time>
      </trkpt>
      <trkpt lat="44.06331" lon="3.03907">
        <ele>671.1</ele>
        <time>2018-05-19T08:51:45Z</time>
      </trkpt>
      <trkpt lat="44.06333" lon="3.03902">
        <ele>671.8</ele>
        <time>2018-05-19T08:51:48Z</time>
      </trkpt>
      <trkpt lat="44.06335" lon="3.03898">
        <ele>672.2</ele>
        <time>2018-05-19T08:51:50Z</time>
      </trkpt>
      <trkpt lat="44.06337" lon="3.03894">
        <ele>672.7</ele>
        <time>2018-05-19T08:51:52Z</time>
      </trkpt>
      <trkpt lat="44.0634" lon="3.0389">
        <ele>673.9</ele>
        <time>2018-05-19T08:51:54Z</time>
      </trkpt>
      <trkpt lat="44.06342" lon="3.03886">
        <ele>674.4</ele>
        <time>2018-05-19T08:51:56Z</time>
      </trkpt>
      <trkpt lat="44.06345" lon="3.03882">
        <ele>674.6</ele>
        <time>2018-05-19T08:51:58Z</time>
      </trkpt>
      <trkpt lat="44.06348" lon="3.03878">
        <ele>674.8</ele>
        <time>2018-05-19T08:52:00Z</time>
      </trkpt>
      <trkpt lat="44.0635" lon="3.03874">
        <ele>674.9</ele>
        <time>2018-05-19T08:52:02Z</time>
      </trkpt>
      <trkpt lat="44.06352" lon="3.0387">
        <ele>675</ele>
        <time>2018-05-19T08:52:04Z</time>
      </trkpt>
      <trkpt lat="44.06353" lon="3.03865">
        <ele>675.1</ele>
        <time>2018-05-19T08:52:06Z</time>
      </trkpt>
      <trkpt lat="44.06354" lon="3.03859">
        <ele>675.2</ele>
        <time>2018-05-19T08:52:08Z</time>
      </trkpt>
      <trkpt lat="44.06354" lon="3.03854">
        <ele>675.3</ele>
        <time>2018-05-19T08:52:10Z</time>
      </trkpt>
      <trkpt lat="44.06355" lon="3.03848">
        <ele>675.5</ele>
        <time>2018-05-19T08:52:12Z</time>
      </trkpt>
      <trkpt lat="44.06355" lon="3.03843">
        <ele>675.6</ele>
        <time>2018-05-19T08:52:15Z</time>
      </trkpt>
      <trkpt lat="44.06354" lon="3.03838">
        <ele>675.8</ele>
        <time>2018-05-19T08:52:17Z</time>
      </trkpt>
      <trkpt lat="44.06354" lon="3.03832">
        <ele>676.3</ele>
        <time>2018-05-19T08:52:19Z</time>
      </trkpt>
      <trkpt lat="44.06354" lon="3.03826">
        <ele>677</ele>
        <time>2018-05-19T08:52:21Z</time>
      </trkpt>
      <trkpt lat="44.06354" lon="3.0382">
        <ele>677.4</ele>
        <time>2018-05-19T08:52:23Z</time>
      </trkpt>
      <trkpt lat="44.06354" lon="3.03816">
        <ele>677.8</ele>
        <time>2018-05-19T08:52:24Z</time>
      </trkpt>
      <trkpt lat="44.06353" lon="3.03811">
        <ele>678.3</ele>
        <time>2018-05-19T08:52:25Z</time>
      </trkpt>
      <trkpt lat="44.06353" lon="3.03807">
        <ele>678.8</ele>
        <time>2018-05-19T08:52:26Z</time>
      </trkpt>
      <trkpt lat="44.06353" lon="3.03802">
        <ele>679.2</ele>
        <time>2018-05-19T08:52:27Z</time>
      </trkpt>
      <trkpt lat="44.0635" lon="3.03797">
        <ele>679.4</ele>
        <time>2018-05-19T08:52:29Z</time>
      </trkpt>
      <trkpt lat="44.06348" lon="3.03794">
        <ele>679.4</ele>
        <time>2018-05-19T08:52:30Z</time>
      </trkpt>
      <trkpt lat="44.06345" lon="3.03792">
        <ele>679.5</ele>
        <time>2018-05-19T08:52:31Z</time>
      </trkpt>
      <trkpt lat="44.06343" lon="3.03789">
        <ele>679.5</ele>
        <time>2018-05-19T08:52:32Z</time>
      </trkpt>
      <trkpt lat="44.06341" lon="3.03785">
        <ele>679.5</ele>
        <time>2018-05-19T08:52:34Z</time>
      </trkpt>
      <trkpt lat="44.06341" lon="3.03779">
        <ele>679.4</ele>
        <time>2018-05-19T08:52:36Z</time>
      </trkpt>
      <trkpt lat="44.06341" lon="3.03775">
        <ele>679.3</ele>
        <time>2018-05-19T08:52:38Z</time>
      </trkpt>
      <trkpt lat="44.06342" lon="3.03771">
        <ele>679.1</ele>
        <time>2018-05-19T08:52:41Z</time>
      </trkpt>
      <trkpt lat="44.06345" lon="3.03767">
        <ele>679.2</ele>
        <time>2018-05-19T08:52:43Z</time>
      </trkpt>
      <trkpt lat="44.06347" lon="3.03764">
        <ele>679.4</ele>
        <time>2018-05-19T08:52:46Z</time>
      </trkpt>
      <trkpt lat="44.06348" lon="3.0376">
        <ele>679.6</ele>
        <time>2018-05-19T08:52:48Z</time>
      </trkpt>
      <trkpt lat="44.06349" lon="3.03757">
        <ele>680</ele>
        <time>2018-05-19T08:52:50Z</time>
      </trkpt>
      <trkpt lat="44.06351" lon="3.03753">
        <ele>680.6</ele>
        <time>2018-05-19T08:52:53Z</time>
      </trkpt>
      <trkpt lat="44.06352" lon="3.0375">
        <ele>681</ele>
        <time>2018-05-19T08:52:59Z</time>
      </trkpt>
      <trkpt lat="44.06349" lon="3.03749">
        <ele>681.3</ele>
        <time>2018-05-19T08:53:11Z</time>
      </trkpt>
      <trkpt lat="44.06353" lon="3.03745">
        <ele>681.5</ele>
        <time>2018-05-19T08:56:55Z</time>
      </trkpt>
      <trkpt lat="44.06355" lon="3.0374">
        <ele>681.7</ele>
        <time>2018-05-19T08:56:57Z</time>
      </trkpt>
      <trkpt lat="44.06357" lon="3.03734">
        <ele>681.8</ele>
        <time>2018-05-19T08:56:59Z</time>
      </trkpt>
      <trkpt lat="44.06361" lon="3.03728">
        <ele>681.9</ele>
        <time>2018-05-19T08:57:01Z</time>
      </trkpt>
      <trkpt lat="44.06363" lon="3.03723">
        <ele>681.9</ele>
        <time>2018-05-19T08:57:03Z</time>
      </trkpt>
      <trkpt lat="44.06365" lon="3.0372">
        <ele>681.8</ele>
        <time>2018-05-19T08:57:04Z</time>
      </trkpt>
      <trkpt lat="44.06367" lon="3.03715">
        <ele>681.7</ele>
        <time>2018-05-19T08:57:05Z</time>
      </trkpt>
      <trkpt lat="44.06369" lon="3.03711">
        <ele>681.4</ele>
        <time>2018-05-19T08:57:06Z</time>
      </trkpt>
      <trkpt lat="44.06372" lon="3.03706">
        <ele>680.9</ele>
        <time>2018-05-19T08:57:07Z</time>
      </trkpt>
      <trkpt lat="44.06375" lon="3.03702">
        <ele>680.3</ele>
        <time>2018-05-19T08:57:08Z</time>
      </trkpt>
      <trkpt lat="44.06378" lon="3.03698">
        <ele>679.6</ele>
        <time>2018-05-19T08:57:09Z</time>
      </trkpt>
      <trkpt lat="44.06381" lon="3.03694">
        <ele>678.9</ele>
        <time>2018-05-19T08:57:10Z</time>
      </trkpt>
      <trkpt lat="44.06384" lon="3.03691">
        <ele>678.2</ele>
        <time>2018-05-19T08:57:11Z</time>
      </trkpt>
      <trkpt lat="44.06387" lon="3.03689">
        <ele>677.5</ele>
        <time>2018-05-19T08:57:12Z</time>
      </trkpt>
      <trkpt lat="44.06391" lon="3.03688">
        <ele>676.6</ele>
        <time>2018-05-19T08:57:13Z</time>
      </trkpt>
      <trkpt lat="44.06395" lon="3.03689">
        <ele>675.5</ele>
        <time>2018-05-19T08:57:14Z</time>
      </trkpt>
      <trkpt lat="44.064" lon="3.0369">
        <ele>674.6</ele>
        <time>2018-05-19T08:57:15Z</time>
      </trkpt>
      <trkpt lat="44.06403" lon="3.0369">
        <ele>673.8</ele>
        <time>2018-05-19T08:57:16Z</time>
      </trkpt>
      <trkpt lat="44.06406" lon="3.03689">
        <ele>673.1</ele>
        <time>2018-05-19T08:57:17Z</time>
      </trkpt>
      <trkpt lat="44.06411" lon="3.03685">
        <ele>672.1</ele>
        <time>2018-05-19T08:57:19Z</time>
      </trkpt>
      <trkpt lat="44.06414" lon="3.03683">
        <ele>671.5</ele>
        <time>2018-05-19T08:57:20Z</time>
      </trkpt>
      <trkpt lat="44.06416" lon="3.0368">
        <ele>671</ele>
        <time>2018-05-19T08:57:21Z</time>
      </trkpt>
      <trkpt lat="44.0642" lon="3.03677">
        <ele>670.2</ele>
        <time>2018-05-19T08:57:23Z</time>
      </trkpt>
      <trkpt lat="44.06423" lon="3.03677">
        <ele>669.6</ele>
        <time>2018-05-19T08:57:24Z</time>
      </trkpt>
      <trkpt lat="44.06427" lon="3.03677">
        <ele>668.9</ele>
        <time>2018-05-19T08:57:25Z</time>
      </trkpt>
      <trkpt lat="44.0643" lon="3.03677">
        <ele>668.1</ele>
        <time>2018-05-19T08:57:26Z</time>
      </trkpt>
      <trkpt lat="44.06435" lon="3.03678">
        <ele>667.3</ele>
        <time>2018-05-19T08:57:27Z</time>
      </trkpt>
      <trkpt lat="44.06439" lon="3.03678">
        <ele>666.2</ele>
        <time>2018-05-19T08:57:28Z</time>
      </trkpt>
      <trkpt lat="44.06443" lon="3.03678">
        <ele>666.1</ele>
        <time>2018-05-19T08:57:29Z</time>
      </trkpt>
      <trkpt lat="44.06445" lon="3.03676">
        <ele>666</ele>
        <time>2018-05-19T08:57:30Z</time>
      </trkpt>
      <trkpt lat="44.06447" lon="3.03672">
        <ele>665.9</ele>
        <time>2018-05-19T08:57:31Z</time>
      </trkpt>
      <trkpt lat="44.06447" lon="3.03666">
        <ele>665.8</ele>
        <time>2018-05-19T08:57:32Z</time>
      </trkpt>
      <trkpt lat="44.06448" lon="3.03657">
        <ele>665.4</ele>
        <time>2018-05-19T08:57:33Z</time>
      </trkpt>
      <trkpt lat="44.06448" lon="3.03649">
        <ele>665.1</ele>
        <time>2018-05-19T08:57:34Z</time>
      </trkpt>
      <trkpt lat="44.06448" lon="3.0364">
        <ele>664.8</ele>
        <time>2018-05-19T08:57:35Z</time>
      </trkpt>
      <trkpt lat="44.0645" lon="3.0363">
        <ele>664.5</ele>
        <time>2018-05-19T08:57:36Z</time>
      </trkpt>
      <trkpt lat="44.06451" lon="3.03621">
        <ele>664.3</ele>
        <time>2018-05-19T08:57:37Z</time>
      </trkpt>
      <trkpt lat="44.0645" lon="3.03612">
        <ele>664</ele>
        <time>2018-05-19T08:57:38Z</time>
      </trkpt>
      <trkpt lat="44.06451" lon="3.03605">
        <ele>663.6</ele>
        <time>2018-05-19T08:57:39Z</time>
      </trkpt>
      <trkpt lat="44.06452" lon="3.03601">
        <ele>663.3</ele>
        <time>2018-05-19T08:57:40Z</time>
      </trkpt>
      <trkpt lat="44.06455" lon="3.03598">
        <ele>663</ele>
        <time>2018-05-19T08:57:41Z</time>
      </trkpt>
      <trkpt lat="44.06458" lon="3.03605">
        <ele>662.5</ele>
        <time>2018-05-19T08:57:42Z</time>
      </trkpt>
      <trkpt lat="44.06461" lon="3.03611">
        <ele>662.1</ele>
        <time>2018-05-19T08:57:43Z</time>
      </trkpt>
      <trkpt lat="44.06466" lon="3.03618">
        <ele>661.7</ele>
        <time>2018-05-19T08:57:44Z</time>
      </trkpt>
      <trkpt lat="44.06471" lon="3.03626">
        <ele>661.2</ele>
        <time>2018-05-19T08:57:45Z</time>
      </trkpt>
      <trkpt lat="44.06477" lon="3.03636">
        <ele>660.4</ele>
        <time>2018-05-19T08:57:46Z</time>
      </trkpt>
      <trkpt lat="44.06483" lon="3.03644">
        <ele>659.7</ele>
        <time>2018-05-19T08:57:47Z</time>
      </trkpt>
      <trkpt lat="44.06489" lon="3.03651">
        <ele>659</ele>
        <time>2018-05-19T08:57:48Z</time>
      </trkpt>
      <trkpt lat="44.06493" lon="3.03659">
        <ele>658.3</ele>
        <time>2018-05-19T08:57:49Z</time>
      </trkpt>
      <trkpt lat="44.06497" lon="3.03666">
        <ele>657.4</ele>
        <time>2018-05-19T08:57:50Z</time>
      </trkpt>
      <trkpt lat="44.06503" lon="3.03672">
        <ele>656.5</ele>
        <time>2018-05-19T08:57:51Z</time>
      </trkpt>
      <trkpt lat="44.06504" lon="3.03665">
        <ele>655.8</ele>
        <time>2018-05-19T08:57:53Z</time>
      </trkpt>
      <trkpt lat="44.06504" lon="3.03658">
        <ele>655.3</ele>
        <time>2018-05-19T08:57:55Z</time>
      </trkpt>
      <trkpt lat="44.06502" lon="3.03646">
        <ele>654.5</ele>
        <time>2018-05-19T08:57:56Z</time>
      </trkpt>
      <trkpt lat="44.06499" lon="3.03636">
        <ele>653.9</ele>
        <time>2018-05-19T08:57:57Z</time>
      </trkpt>
      <trkpt lat="44.06497" lon="3.03629">
        <ele>653.4</ele>
        <time>2018-05-19T08:57:58Z</time>
      </trkpt>
      <trkpt lat="44.06496" lon="3.03621">
        <ele>653</ele>
        <time>2018-05-19T08:57:59Z</time>
      </trkpt>
      <trkpt lat="44.06497" lon="3.03612">
        <ele>652.4</ele>
        <time>2018-05-19T08:58:00Z</time>
      </trkpt>
      <trkpt lat="44.06497" lon="3.03602">
        <ele>651.7</ele>
        <time>2018-05-19T08:58:01Z</time>
      </trkpt>
      <trkpt lat="44.06498" lon="3.03591">
        <ele>651</ele>
        <time>2018-05-19T08:58:02Z</time>
      </trkpt>
      <trkpt lat="44.06495" lon="3.03582">
        <ele>650.4</ele>
        <time>2018-05-19T08:58:03Z</time>
      </trkpt>
      <trkpt lat="44.06493" lon="3.03574">
        <ele>649.8</ele>
        <time>2018-05-19T08:58:04Z</time>
      </trkpt>
      <trkpt lat="44.06489" lon="3.03566">
        <ele>649.3</ele>
        <time>2018-05-19T08:58:05Z</time>
      </trkpt>
      <trkpt lat="44.06487" lon="3.03559">
        <ele>648.8</ele>
        <time>2018-05-19T08:58:06Z</time>
      </trkpt>
      <trkpt lat="44.06483" lon="3.03553">
        <ele>648.4</ele>
        <time>2018-05-19T08:58:07Z</time>
      </trkpt>
      <trkpt lat="44.06479" lon="3.03547">
        <ele>648</ele>
        <time>2018-05-19T08:58:08Z</time>
      </trkpt>
      <trkpt lat="44.06475" lon="3.0354">
        <ele>647.6</ele>
        <time>2018-05-19T08:58:09Z</time>
      </trkpt>
      <trkpt lat="44.06471" lon="3.03535">
        <ele>647.1</ele>
        <time>2018-05-19T08:58:10Z</time>
      </trkpt>
      <trkpt lat="44.0647" lon="3.03526">
        <ele>646.6</ele>
        <time>2018-05-19T08:58:11Z</time>
      </trkpt>
      <trkpt lat="44.06468" lon="3.03518">
        <ele>646</ele>
        <time>2018-05-19T08:58:12Z</time>
      </trkpt>
      <trkpt lat="44.06467" lon="3.03507">
        <ele>645.4</ele>
        <time>2018-05-19T08:58:13Z</time>
      </trkpt>
      <trkpt lat="44.06466" lon="3.03498">
        <ele>645</ele>
        <time>2018-05-19T08:58:14Z</time>
      </trkpt>
      <trkpt lat="44.06463" lon="3.03488">
        <ele>644.5</ele>
        <time>2018-05-19T08:58:15Z</time>
      </trkpt>
      <trkpt lat="44.06459" lon="3.0348">
        <ele>644.1</ele>
        <time>2018-05-19T08:58:16Z</time>
      </trkpt>
      <trkpt lat="44.06454" lon="3.03474">
        <ele>643.7</ele>
        <time>2018-05-19T08:58:17Z</time>
      </trkpt>
      <trkpt lat="44.06448" lon="3.03469">
        <ele>643.2</ele>
        <time>2018-05-19T08:58:18Z</time>
      </trkpt>
      <trkpt lat="44.06442" lon="3.03463">
        <ele>642.8</ele>
        <time>2018-05-19T08:58:19Z</time>
      </trkpt>
      <trkpt lat="44.06439" lon="3.03454">
        <ele>642.4</ele>
        <time>2018-05-19T08:58:20Z</time>
      </trkpt>
      <trkpt lat="44.06437" lon="3.03446">
        <ele>641.9</ele>
        <time>2018-05-19T08:58:21Z</time>
      </trkpt>
      <trkpt lat="44.06434" lon="3.0344">
        <ele>641.6</ele>
        <time>2018-05-19T08:58:22Z</time>
      </trkpt>
      <trkpt lat="44.06431" lon="3.03436">
        <ele>641.2</ele>
        <time>2018-05-19T08:58:23Z</time>
      </trkpt>
      <trkpt lat="44.0643" lon="3.0343">
        <ele>640.9</ele>
        <time>2018-05-19T08:58:24Z</time>
      </trkpt>
      <trkpt lat="44.06428" lon="3.03423">
        <ele>640.5</ele>
        <time>2018-05-19T08:58:25Z</time>
      </trkpt>
      <trkpt lat="44.06426" lon="3.03417">
        <ele>640.3</ele>
        <time>2018-05-19T08:58:26Z</time>
      </trkpt>
      <trkpt lat="44.06425" lon="3.0341">
        <ele>640</ele>
        <time>2018-05-19T08:58:27Z</time>
      </trkpt>
      <trkpt lat="44.06423" lon="3.03403">
        <ele>639.9</ele>
        <time>2018-05-19T08:58:28Z</time>
      </trkpt>
      <trkpt lat="44.06421" lon="3.03396">
        <ele>639.8</ele>
        <time>2018-05-19T08:58:29Z</time>
      </trkpt>
      <trkpt lat="44.06418" lon="3.03389">
        <ele>639.7</ele>
        <time>2018-05-19T08:58:30Z</time>
      </trkpt>
      <trkpt lat="44.06414" lon="3.03385">
        <ele>639.6</ele>
        <time>2018-05-19T08:58:31Z</time>
      </trkpt>
      <trkpt lat="44.06411" lon="3.0338">
        <ele>639.6</ele>
        <time>2018-05-19T08:58:32Z</time>
      </trkpt>
      <trkpt lat="44.06408" lon="3.03375">
        <ele>639.5</ele>
        <time>2018-05-19T08:58:33Z</time>
      </trkpt>
      <trkpt lat="44.06405" lon="3.03371">
        <ele>639.4</ele>
        <time>2018-05-19T08:58:34Z</time>
      </trkpt>
      <trkpt lat="44.06399" lon="3.03365">
        <ele>639.3</ele>
        <time>2018-05-19T08:58:35Z</time>
      </trkpt>
      <trkpt lat="44.06393" lon="3.0336">
        <ele>639.1</ele>
        <time>2018-05-19T08:58:36Z</time>
      </trkpt>
      <trkpt lat="44.06386" lon="3.03354">
        <ele>638.8</ele>
        <time>2018-05-19T08:58:37Z</time>
      </trkpt>
      <trkpt lat="44.0638" lon="3.03349">
        <ele>638.5</ele>
        <time>2018-05-19T08:58:38Z</time>
      </trkpt>
      <trkpt lat="44.06375" lon="3.03344">
        <ele>638.3</ele>
        <time>2018-05-19T08:58:39Z</time>
      </trkpt>
      <trkpt lat="44.06369" lon="3.03341">
        <ele>638.2</ele>
        <time>2018-05-19T08:58:40Z</time>
      </trkpt>
      <trkpt lat="44.06363" lon="3.03339">
        <ele>638.1</ele>
        <time>2018-05-19T08:58:41Z</time>
      </trkpt>
      <trkpt lat="44.06357" lon="3.03338">
        <ele>637.9</ele>
        <time>2018-05-19T08:58:42Z</time>
      </trkpt>
      <trkpt lat="44.0635" lon="3.03337">
        <ele>637.7</ele>
        <time>2018-05-19T08:58:43Z</time>
      </trkpt>
      <trkpt lat="44.06348" lon="3.03328">
        <ele>637.4</ele>
        <time>2018-05-19T08:58:44Z</time>
      </trkpt>
      <trkpt lat="44.0635" lon="3.03322">
        <ele>637.2</ele>
        <time>2018-05-19T08:58:45Z</time>
      </trkpt>
      <trkpt lat="44.06352" lon="3.03317">
        <ele>637.1</ele>
        <time>2018-05-19T08:58:46Z</time>
      </trkpt>
      <trkpt lat="44.06355" lon="3.03312">
        <ele>637.1</ele>
        <time>2018-05-19T08:58:47Z</time>
      </trkpt>
      <trkpt lat="44.06357" lon="3.03307">
        <ele>637.1</ele>
        <time>2018-05-19T08:58:48Z</time>
      </trkpt>
      <trkpt lat="44.0636" lon="3.03301">
        <ele>637.1</ele>
        <time>2018-05-19T08:58:49Z</time>
      </trkpt>
      <trkpt lat="44.06362" lon="3.03297">
        <ele>637.2</ele>
        <time>2018-05-19T08:58:50Z</time>
      </trkpt>
      <trkpt lat="44.06364" lon="3.03292">
        <ele>637.2</ele>
        <time>2018-05-19T08:58:51Z</time>
      </trkpt>
      <trkpt lat="44.06366" lon="3.03287">
        <ele>637.2</ele>
        <time>2018-05-19T08:58:52Z</time>
      </trkpt>
      <trkpt lat="44.06369" lon="3.03283">
        <ele>637.3</ele>
        <time>2018-05-19T08:58:53Z</time>
      </trkpt>
      <trkpt lat="44.06373" lon="3.03278">
        <ele>637.3</ele>
        <time>2018-05-19T08:58:54Z</time>
      </trkpt>
      <trkpt lat="44.06378" lon="3.0327">
        <ele>637.4</ele>
        <time>2018-05-19T08:58:55Z</time>
      </trkpt>
      <trkpt lat="44.06381" lon="3.03265">
        <ele>637.5</ele>
        <time>2018-05-19T08:58:56Z</time>
      </trkpt>
      <trkpt lat="44.06385" lon="3.03261">
        <ele>637.5</ele>
        <time>2018-05-19T08:58:57Z</time>
      </trkpt>
      <trkpt lat="44.06387" lon="3.03258">
        <ele>637.6</ele>
        <time>2018-05-19T08:58:58Z</time>
      </trkpt>
      <trkpt lat="44.06391" lon="3.03254">
        <ele>637.7</ele>
        <time>2018-05-19T08:58:59Z</time>
      </trkpt>
      <trkpt lat="44.06395" lon="3.03251">
        <ele>637.8</ele>
        <time>2018-05-19T08:59:00Z</time>
      </trkpt>
      <trkpt lat="44.06399" lon="3.03248">
        <ele>637.9</ele>
        <time>2018-05-19T08:59:01Z</time>
      </trkpt>
      <trkpt lat="44.06402" lon="3.03245">
        <ele>638</ele>
        <time>2018-05-19T08:59:02Z</time>
      </trkpt>
      <trkpt lat="44.06406" lon="3.03241">
        <ele>638.1</ele>
        <time>2018-05-19T08:59:03Z</time>
      </trkpt>
      <trkpt lat="44.0641" lon="3.0324">
        <ele>638.3</ele>
        <time>2018-05-19T08:59:04Z</time>
      </trkpt>
      <trkpt lat="44.06414" lon="3.03238">
        <ele>638.5</ele>
        <time>2018-05-19T08:59:05Z</time>
      </trkpt>
      <trkpt lat="44.06417" lon="3.03234">
        <ele>638.8</ele>
        <time>2018-05-19T08:59:06Z</time>
      </trkpt>
      <trkpt lat="44.06419" lon="3.03231">
        <ele>639.2</ele>
        <time>2018-05-19T08:59:07Z</time>
      </trkpt>
      <trkpt lat="44.06421" lon="3.03226">
        <ele>639.6</ele>
        <time>2018-05-19T08:59:08Z</time>
      </trkpt>
      <trkpt lat="44.06422" lon="3.0322">
        <ele>639.8</ele>
        <time>2018-05-19T08:59:09Z</time>
      </trkpt>
      <trkpt lat="44.06423" lon="3.03214">
        <ele>639.9</ele>
        <time>2018-05-19T08:59:10Z</time>
      </trkpt>
      <trkpt lat="44.06423" lon="3.03209">
        <ele>640.1</ele>
        <time>2018-05-19T08:59:11Z</time>
      </trkpt>
      <trkpt lat="44.06424" lon="3.03201">
        <ele>640.2</ele>
        <time>2018-05-19T08:59:12Z</time>
      </trkpt>
      <trkpt lat="44.06424" lon="3.03193">
        <ele>640.2</ele>
        <time>2018-05-19T08:59:13Z</time>
      </trkpt>
      <trkpt lat="44.06424" lon="3.03184">
        <ele>640.3</ele>
        <time>2018-05-19T08:59:14Z</time>
      </trkpt>
      <trkpt lat="44.06424" lon="3.03176">
        <ele>640.4</ele>
        <time>2018-05-19T08:59:15Z</time>
      </trkpt>
      <trkpt lat="44.06423" lon="3.03167">
        <ele>640.5</ele>
        <time>2018-05-19T08:59:16Z</time>
      </trkpt>
      <trkpt lat="44.06423" lon="3.03158">
        <ele>640.5</ele>
        <time>2018-05-19T08:59:17Z</time>
      </trkpt>
      <trkpt lat="44.06425" lon="3.03148">
        <ele>640.6</ele>
        <time>2018-05-19T08:59:18Z</time>
      </trkpt>
      <trkpt lat="44.06426" lon="3.0314">
        <ele>640.7</ele>
        <time>2018-05-19T08:59:19Z</time>
      </trkpt>
      <trkpt lat="44.06428" lon="3.03134">
        <ele>640.7</ele>
        <time>2018-05-19T08:59:20Z</time>
      </trkpt>
      <trkpt lat="44.06429" lon="3.03126">
        <ele>640.8</ele>
        <time>2018-05-19T08:59:21Z</time>
      </trkpt>
      <trkpt lat="44.06429" lon="3.03118">
        <ele>640.8</ele>
        <time>2018-05-19T08:59:22Z</time>
      </trkpt>
      <trkpt lat="44.06432" lon="3.03108">
        <ele>640.8</ele>
        <time>2018-05-19T08:59:23Z</time>
      </trkpt>
      <trkpt lat="44.06434" lon="3.031">
        <ele>640.9</ele>
        <time>2018-05-19T08:59:24Z</time>
      </trkpt>
      <trkpt lat="44.06437" lon="3.03092">
        <ele>640.9</ele>
        <time>2018-05-19T08:59:25Z</time>
      </trkpt>
      <trkpt lat="44.06441" lon="3.03085">
        <ele>640.9</ele>
        <time>2018-05-19T08:59:26Z</time>
      </trkpt>
      <trkpt lat="44.06444" lon="3.03078">
        <ele>641</ele>
        <time>2018-05-19T08:59:27Z</time>
      </trkpt>
      <trkpt lat="44.06448" lon="3.03071">
        <ele>641</ele>
        <time>2018-05-19T08:59:28Z</time>
      </trkpt>
      <trkpt lat="44.06452" lon="3.03063">
        <ele>641</ele>
        <time>2018-05-19T08:59:29Z</time>
      </trkpt>
      <trkpt lat="44.06454" lon="3.03057">
        <ele>641</ele>
        <time>2018-05-19T08:59:30Z</time>
      </trkpt>
      <trkpt lat="44.06458" lon="3.03049">
        <ele>641</ele>
        <time>2018-05-19T08:59:31Z</time>
      </trkpt>
      <trkpt lat="44.0646" lon="3.03041">
        <ele>641</ele>
        <time>2018-05-19T08:59:32Z</time>
      </trkpt>
      <trkpt lat="44.06464" lon="3.03033">
        <ele>641</ele>
        <time>2018-05-19T08:59:33Z</time>
      </trkpt>
      <trkpt lat="44.06467" lon="3.03026">
        <ele>640.9</ele>
        <time>2018-05-19T08:59:34Z</time>
      </trkpt>
      <trkpt lat="44.06468" lon="3.03021">
        <ele>640.9</ele>
        <time>2018-05-19T08:59:35Z</time>
      </trkpt>
      <trkpt lat="44.06468" lon="3.03015">
        <ele>640.8</ele>
        <time>2018-05-19T08:59:36Z</time>
      </trkpt>
      <trkpt lat="44.06468" lon="3.03009">
        <ele>640.7</ele>
        <time>2018-05-19T08:59:37Z</time>
      </trkpt>
      <trkpt lat="44.06469" lon="3.03003">
        <ele>640.7</ele>
        <time>2018-05-19T08:59:38Z</time>
      </trkpt>
      <trkpt lat="44.06468" lon="3.02999">
        <ele>640.6</ele>
        <time>2018-05-19T08:59:39Z</time>
      </trkpt>
      <trkpt lat="44.0647" lon="3.02993">
        <ele>640.4</ele>
        <time>2018-05-19T08:59:40Z</time>
      </trkpt>
      <trkpt lat="44.06472" lon="3.02988">
        <ele>640.2</ele>
        <time>2018-05-19T08:59:41Z</time>
      </trkpt>
      <trkpt lat="44.06475" lon="3.02982">
        <ele>640</ele>
        <time>2018-05-19T08:59:42Z</time>
      </trkpt>
      <trkpt lat="44.06478" lon="3.02978">
        <ele>640</ele>
        <time>2018-05-19T08:59:43Z</time>
      </trkpt>
      <trkpt lat="44.0648" lon="3.02974">
        <ele>640</ele>
        <time>2018-05-19T08:59:44Z</time>
      </trkpt>
      <trkpt lat="44.06482" lon="3.0297">
        <ele>640</ele>
        <time>2018-05-19T08:59:45Z</time>
      </trkpt>
      <trkpt lat="44.06485" lon="3.02968">
        <ele>640</ele>
        <time>2018-05-19T08:59:46Z</time>
      </trkpt>
      <trkpt lat="44.06486" lon="3.02965">
        <ele>640</ele>
        <time>2018-05-19T08:59:47Z</time>
      </trkpt>
      <trkpt lat="44.06489" lon="3.02961">
        <ele>640.1</ele>
        <time>2018-05-19T08:59:48Z</time>
      </trkpt>
      <trkpt lat="44.06491" lon="3.02957">
        <ele>640.1</ele>
        <time>2018-05-19T08:59:49Z</time>
      </trkpt>
      <trkpt lat="44.06494" lon="3.02952">
        <ele>640.2</ele>
        <time>2018-05-19T08:59:50Z</time>
      </trkpt>
      <trkpt lat="44.06496" lon="3.02947">
        <ele>640.3</ele>
        <time>2018-05-19T08:59:51Z</time>
      </trkpt>
      <trkpt lat="44.06498" lon="3.02941">
        <ele>640.4</ele>
        <time>2018-05-19T08:59:52Z</time>
      </trkpt>
      <trkpt lat="44.065" lon="3.02936">
        <ele>640.4</ele>
        <time>2018-05-19T08:59:53Z</time>
      </trkpt>
      <trkpt lat="44.06502" lon="3.02931">
        <ele>640.5</ele>
        <time>2018-05-19T08:59:54Z</time>
      </trkpt>
      <trkpt lat="44.06503" lon="3.02926">
        <ele>640.8</ele>
        <time>2018-05-19T08:59:55Z</time>
      </trkpt>
      <trkpt lat="44.06504" lon="3.0292">
        <ele>641.2</ele>
        <time>2018-05-19T08:59:56Z</time>
      </trkpt>
      <trkpt lat="44.06506" lon="3.02915">
        <ele>641.6</ele>
        <time>2018-05-19T08:59:57Z</time>
      </trkpt>
      <trkpt lat="44.06507" lon="3.02909">
        <ele>642</ele>
        <time>2018-05-19T08:59:58Z</time>
      </trkpt>
      <trkpt lat="44.06509" lon="3.02905">
        <ele>642.2</ele>
        <time>2018-05-19T08:59:59Z</time>
      </trkpt>
      <trkpt lat="44.06511" lon="3.029">
        <ele>642.4</ele>
        <time>2018-05-19T09:00:00Z</time>
      </trkpt>
      <trkpt lat="44.06513" lon="3.02895">
        <ele>642.5</ele>
        <time>2018-05-19T09:00:02Z</time>
      </trkpt>
      <trkpt lat="44.06516" lon="3.02892">
        <ele>642.6</ele>
        <time>2018-05-19T09:00:04Z</time>
      </trkpt>
      <trkpt lat="44.06519" lon="3.0289">
        <ele>642.7</ele>
        <time>2018-05-19T09:00:06Z</time>
      </trkpt>
      <trkpt lat="44.06523" lon="3.0289">
        <ele>642.8</ele>
        <time>2018-05-19T09:00:08Z</time>
      </trkpt>
      <trkpt lat="44.06527" lon="3.02894">
        <ele>642.9</ele>
        <time>2018-05-19T09:00:10Z</time>
      </trkpt>
      <trkpt lat="44.06529" lon="3.02899">
        <ele>643</ele>
        <time>2018-05-19T09:00:12Z</time>
      </trkpt>
      <trkpt lat="44.06531" lon="3.02902">
        <ele>643.4</ele>
        <time>2018-05-19T09:00:14Z</time>
      </trkpt>
      <trkpt lat="44.06533" lon="3.02902">
        <ele>643.8</ele>
        <time>2018-05-19T09:00:20Z</time>
      </trkpt>
      <trkpt lat="44.06536" lon="3.02903">
        <ele>644.2</ele>
        <time>2018-05-19T09:00:35Z</time>
      </trkpt>
      <trkpt lat="44.0654" lon="3.02895">
        <ele>646.2</ele>
        <time>2018-05-19T09:02:58Z</time>
      </trkpt>
      <trkpt lat="44.0654" lon="3.0289">
        <ele>647.1</ele>
        <time>2018-05-19T09:03:01Z</time>
      </trkpt>
      <trkpt lat="44.06538" lon="3.02885">
        <ele>648.3</ele>
        <time>2018-05-19T09:03:04Z</time>
      </trkpt>
      <trkpt lat="44.06536" lon="3.02882">
        <ele>649.1</ele>
        <time>2018-05-19T09:03:06Z</time>
      </trkpt>
      <trkpt lat="44.06534" lon="3.02877">
        <ele>649</ele>
        <time>2018-05-19T09:03:09Z</time>
      </trkpt>
      <trkpt lat="44.06534" lon="3.02873">
        <ele>648.7</ele>
        <time>2018-05-19T09:03:11Z</time>
      </trkpt>
      <trkpt lat="44.06534" lon="3.02869">
        <ele>648.7</ele>
        <time>2018-05-19T09:03:15Z</time>
      </trkpt>
      <trkpt lat="44.06534" lon="3.02864">
        <ele>648.8</ele>
        <time>2018-05-19T09:03:20Z</time>
      </trkpt>
      <trkpt lat="44.06534" lon="3.0286">
        <ele>648.7</ele>
        <time>2018-05-19T09:03:23Z</time>
      </trkpt>
      <trkpt lat="44.06532" lon="3.02857">
        <ele>648.7</ele>
        <time>2018-05-19T09:03:26Z</time>
      </trkpt>
      <trkpt lat="44.0653" lon="3.02855">
        <ele>648.9</ele>
        <time>2018-05-19T09:03:30Z</time>
      </trkpt>
      <trkpt lat="44.06528" lon="3.02859">
        <ele>649.1</ele>
        <time>2018-05-19T09:03:40Z</time>
      </trkpt>
      <trkpt lat="44.06525" lon="3.02859">
        <ele>649.4</ele>
        <time>2018-05-19T09:03:42Z</time>
      </trkpt>
      <trkpt lat="44.06522" lon="3.0286">
        <ele>649.3</ele>
        <time>2018-05-19T09:03:44Z</time>
      </trkpt>
      <trkpt lat="44.06519" lon="3.0286">
        <ele>649</ele>
        <time>2018-05-19T09:03:46Z</time>
      </trkpt>
      <trkpt lat="44.06516" lon="3.02859">
        <ele>648.5</ele>
        <time>2018-05-19T09:03:49Z</time>
      </trkpt>
      <trkpt lat="44.06513" lon="3.02862">
        <ele>648</ele>
        <time>2018-05-19T09:03:53Z</time>
      </trkpt>
      <trkpt lat="44.06511" lon="3.02866">
        <ele>647.5</ele>
        <time>2018-05-19T09:03:55Z</time>
      </trkpt>
      <trkpt lat="44.06509" lon="3.02869">
        <ele>647.2</ele>
        <time>2018-05-19T09:03:58Z</time>
      </trkpt>
      <trkpt lat="44.06506" lon="3.02872">
        <ele>647</ele>
        <time>2018-05-19T09:04:02Z</time>
      </trkpt>
      <trkpt lat="44.06504" lon="3.02874">
        <ele>646.7</ele>
        <time>2018-05-19T09:04:04Z</time>
      </trkpt>
      <trkpt lat="44.06502" lon="3.02878">
        <ele>646.3</ele>
        <time>2018-05-19T09:04:06Z</time>
      </trkpt>
      <trkpt lat="44.065" lon="3.02882">
        <ele>646</ele>
        <time>2018-05-19T09:04:08Z</time>
      </trkpt>
      <trkpt lat="44.06497" lon="3.02884">
        <ele>645.7</ele>
        <time>2018-05-19T09:04:10Z</time>
      </trkpt>
      <trkpt lat="44.06495" lon="3.02887">
        <ele>645.4</ele>
        <time>2018-05-19T09:04:12Z</time>
      </trkpt>
      <trkpt lat="44.06494" lon="3.02891">
        <ele>645.2</ele>
        <time>2018-05-19T09:04:14Z</time>
      </trkpt>
      <trkpt lat="44.06494" lon="3.02896">
        <ele>645.2</ele>
        <time>2018-05-19T09:04:17Z</time>
      </trkpt>
      <trkpt lat="44.06492" lon="3.029">
        <ele>645.1</ele>
        <time>2018-05-19T09:04:22Z</time>
      </trkpt>
      <trkpt lat="44.0649" lon="3.02903">
        <ele>645.2</ele>
        <time>2018-05-19T09:04:24Z</time>
      </trkpt>
      <trkpt lat="44.06487" lon="3.02906">
        <ele>645.4</ele>
        <time>2018-05-19T09:04:27Z</time>
      </trkpt>
      <trkpt lat="44.06484" lon="3.02909">
        <ele>645.6</ele>
        <time>2018-05-19T09:04:30Z</time>
      </trkpt>
      <trkpt lat="44.06482" lon="3.02912">
        <ele>645.8</ele>
        <time>2018-05-19T09:04:32Z</time>
      </trkpt>
      <trkpt lat="44.06479" lon="3.02914">
        <ele>646.1</ele>
        <time>2018-05-19T09:04:34Z</time>
      </trkpt>
      <trkpt lat="44.06476" lon="3.02916">
        <ele>646.7</ele>
        <time>2018-05-19T09:04:36Z</time>
      </trkpt>
      <trkpt lat="44.06472" lon="3.02918">
        <ele>647.3</ele>
        <time>2018-05-19T09:04:38Z</time>
      </trkpt>
      <trkpt lat="44.0647" lon="3.02919">
        <ele>648.1</ele>
        <time>2018-05-19T09:04:40Z</time>
      </trkpt>
      <trkpt lat="44.06467" lon="3.0292">
        <ele>649</ele>
        <time>2018-05-19T09:04:44Z</time>
      </trkpt>
      <trkpt lat="44.06465" lon="3.02923">
        <ele>650</ele>
        <time>2018-05-19T09:04:48Z</time>
      </trkpt>
      <trkpt lat="44.06463" lon="3.02926">
        <ele>651</ele>
        <time>2018-05-19T09:04:51Z</time>
      </trkpt>
      <trkpt lat="44.06459" lon="3.02926">
        <ele>651.9</ele>
        <time>2018-05-19T09:04:54Z</time>
      </trkpt>
      <trkpt lat="44.06456" lon="3.02928">
        <ele>653</ele>
        <time>2018-05-19T09:04:57Z</time>
      </trkpt>
      <trkpt lat="44.06455" lon="3.02932">
        <ele>653.7</ele>
        <time>2018-05-19T09:05:00Z</time>
      </trkpt>
      <trkpt lat="44.06452" lon="3.02935">
        <ele>655.5</ele>
        <time>2018-05-19T09:05:03Z</time>
      </trkpt>
      <trkpt lat="44.06449" lon="3.02938">
        <ele>657.2</ele>
        <time>2018-05-19T09:05:05Z</time>
      </trkpt>
      <trkpt lat="44.06447" lon="3.02943">
        <ele>659</ele>
        <time>2018-05-19T09:05:08Z</time>
      </trkpt>
      <trkpt lat="44.06445" lon="3.02945">
        <ele>659.7</ele>
        <time>2018-05-19T09:05:10Z</time>
      </trkpt>
      <trkpt lat="44.06442" lon="3.02948">
        <ele>660.4</ele>
        <time>2018-05-19T09:05:12Z</time>
      </trkpt>
      <trkpt lat="44.0644" lon="3.02951">
        <ele>661.1</ele>
        <time>2018-05-19T09:05:14Z</time>
      </trkpt>
      <trkpt lat="44.06437" lon="3.02953">
        <ele>661.4</ele>
        <time>2018-05-19T09:05:16Z</time>
      </trkpt>
      <trkpt lat="44.06434" lon="3.02957">
        <ele>661.8</ele>
        <time>2018-05-19T09:05:19Z</time>
      </trkpt>
      <trkpt lat="44.06433" lon="3.02961">
        <ele>662.1</ele>
        <time>2018-05-19T09:05:22Z</time>
      </trkpt>
      <trkpt lat="44.06432" lon="3.02966">
        <ele>662.9</ele>
        <time>2018-05-19T09:05:26Z</time>
      </trkpt>
      <trkpt lat="44.06431" lon="3.0297">
        <ele>663.7</ele>
        <time>2018-05-19T09:05:29Z</time>
      </trkpt>
      <trkpt lat="44.06429" lon="3.02973">
        <ele>664.6</ele>
        <time>2018-05-19T09:05:32Z</time>
      </trkpt>
      <trkpt lat="44.06426" lon="3.02976">
        <ele>665.6</ele>
        <time>2018-05-19T09:05:35Z</time>
      </trkpt>
      <trkpt lat="44.06424" lon="3.0298">
        <ele>666.5</ele>
        <time>2018-05-19T09:05:39Z</time>
      </trkpt>
      <trkpt lat="44.06422" lon="3.02982">
        <ele>667.3</ele>
        <time>2018-05-19T09:05:41Z</time>
      </trkpt>
      <trkpt lat="44.06419" lon="3.02985">
        <ele>668.1</ele>
        <time>2018-05-19T09:05:43Z</time>
      </trkpt>
      <trkpt lat="44.06417" lon="3.02988">
        <ele>669</ele>
        <time>2018-05-19T09:05:45Z</time>
      </trkpt>
      <trkpt lat="44.06414" lon="3.02992">
        <ele>670</ele>
        <time>2018-05-19T09:05:48Z</time>
      </trkpt>
      <trkpt lat="44.06413" lon="3.02995">
        <ele>671.3</ele>
        <time>2018-05-19T09:05:51Z</time>
      </trkpt>
      <trkpt lat="44.06412" lon="3.02999">
        <ele>672.7</ele>
        <time>2018-05-19T09:05:54Z</time>
      </trkpt>
      <trkpt lat="44.06409" lon="3.03002">
        <ele>673.6</ele>
        <time>2018-05-19T09:06:01Z</time>
      </trkpt>
      <trkpt lat="44.06407" lon="3.03005">
        <ele>674.1</ele>
        <time>2018-05-19T09:06:08Z</time>
      </trkpt>
      <trkpt lat="44.06404" lon="3.03006">
        <ele>674.6</ele>
        <time>2018-05-19T09:06:14Z</time>
      </trkpt>
      <trkpt lat="44.06401" lon="3.03007">
        <ele>675.9</ele>
        <time>2018-05-19T09:06:17Z</time>
      </trkpt>
      <trkpt lat="44.06398" lon="3.03011">
        <ele>677.3</ele>
        <time>2018-05-19T09:06:21Z</time>
      </trkpt>
      <trkpt lat="44.06397" lon="3.03014">
        <ele>678.6</ele>
        <time>2018-05-19T09:06:24Z</time>
      </trkpt>
      <trkpt lat="44.06394" lon="3.03016">
        <ele>680.4</ele>
        <time>2018-05-19T09:06:27Z</time>
      </trkpt>
      <trkpt lat="44.06391" lon="3.03018">
        <ele>681.9</ele>
        <time>2018-05-19T09:06:32Z</time>
      </trkpt>
      <trkpt lat="44.06388" lon="3.03018">
        <ele>683.9</ele>
        <time>2018-05-19T09:06:38Z</time>
      </trkpt>
      <trkpt lat="44.06386" lon="3.03022">
        <ele>686.1</ele>
        <time>2018-05-19T09:06:43Z</time>
      </trkpt>
      <trkpt lat="44.06385" lon="3.03025">
        <ele>687.8</ele>
        <time>2018-05-19T09:06:47Z</time>
      </trkpt>
      <trkpt lat="44.06382" lon="3.03025">
        <ele>689</ele>
        <time>2018-05-19T09:06:51Z</time>
      </trkpt>
      <trkpt lat="44.06379" lon="3.03024">
        <ele>690.3</ele>
        <time>2018-05-19T09:07:01Z</time>
      </trkpt>
      <trkpt lat="44.06374" lon="3.03028">
        <ele>693.9</ele>
        <time>2018-05-19T09:08:52Z</time>
      </trkpt>
      <trkpt lat="44.06374" lon="3.03023">
        <ele>695.6</ele>
        <time>2018-05-19T09:09:28Z</time>
      </trkpt>
      <trkpt lat="44.06371" lon="3.03022">
        <ele>696</ele>
        <time>2018-05-19T09:09:32Z</time>
      </trkpt>
      <trkpt lat="44.06367" lon="3.03021">
        <ele>696</ele>
        <time>2018-05-19T09:09:35Z</time>
      </trkpt>
      <trkpt lat="44.06364" lon="3.03018">
        <ele>695.9</ele>
        <time>2018-05-19T09:09:37Z</time>
      </trkpt>
      <trkpt lat="44.06361" lon="3.03014">
        <ele>695.9</ele>
        <time>2018-05-19T09:09:39Z</time>
      </trkpt>
      <trkpt lat="44.0636" lon="3.0301">
        <ele>695.8</ele>
        <time>2018-05-19T09:09:41Z</time>
      </trkpt>
      <trkpt lat="44.06359" lon="3.03006">
        <ele>695.8</ele>
        <time>2018-05-19T09:09:43Z</time>
      </trkpt>
      <trkpt lat="44.06358" lon="3.03">
        <ele>695.7</ele>
        <time>2018-05-19T09:09:46Z</time>
      </trkpt>
      <trkpt lat="44.0636" lon="3.02994">
        <ele>695.6</ele>
        <time>2018-05-19T09:09:48Z</time>
      </trkpt>
      <trkpt lat="44.06362" lon="3.0299">
        <ele>695.5</ele>
        <time>2018-05-19T09:09:50Z</time>
      </trkpt>
      <trkpt lat="44.06365" lon="3.02985">
        <ele>695.4</ele>
        <time>2018-05-19T09:09:52Z</time>
      </trkpt>
      <trkpt lat="44.06367" lon="3.02982">
        <ele>695.4</ele>
        <time>2018-05-19T09:09:54Z</time>
      </trkpt>
      <trkpt lat="44.06369" lon="3.02979">
        <ele>695.3</ele>
        <time>2018-05-19T09:09:56Z</time>
      </trkpt>
      <trkpt lat="44.06372" lon="3.02976">
        <ele>695.3</ele>
        <time>2018-05-19T09:09:58Z</time>
      </trkpt>
      <trkpt lat="44.06374" lon="3.02973">
        <ele>695.2</ele>
        <time>2018-05-19T09:10:00Z</time>
      </trkpt>
      <trkpt lat="44.06378" lon="3.02969">
        <ele>695.1</ele>
        <time>2018-05-19T09:10:02Z</time>
      </trkpt>
      <trkpt lat="44.06382" lon="3.02965">
        <ele>695</ele>
        <time>2018-05-19T09:10:04Z</time>
      </trkpt>
      <trkpt lat="44.06385" lon="3.02962">
        <ele>694.9</ele>
        <time>2018-05-19T09:10:06Z</time>
      </trkpt>
      <trkpt lat="44.06388" lon="3.02957">
        <ele>694.9</ele>
        <time>2018-05-19T09:10:08Z</time>
      </trkpt>
      <trkpt lat="44.06391" lon="3.02953">
        <ele>694.8</ele>
        <time>2018-05-19T09:10:10Z</time>
      </trkpt>
      <trkpt lat="44.06393" lon="3.0295">
        <ele>694.8</ele>
        <time>2018-05-19T09:10:12Z</time>
      </trkpt>
      <trkpt lat="44.06395" lon="3.02946">
        <ele>694.8</ele>
        <time>2018-05-19T09:10:14Z</time>
      </trkpt>
      <trkpt lat="44.06397" lon="3.02942">
        <ele>694.7</ele>
        <time>2018-05-19T09:10:16Z</time>
      </trkpt>
      <trkpt lat="44.06399" lon="3.02938">
        <ele>694.7</ele>
        <time>2018-05-19T09:10:18Z</time>
      </trkpt>
      <trkpt lat="44.064" lon="3.02934">
        <ele>694.6</ele>
        <time>2018-05-19T09:10:20Z</time>
      </trkpt>
      <trkpt lat="44.06402" lon="3.0293">
        <ele>694.5</ele>
        <time>2018-05-19T09:10:22Z</time>
      </trkpt>
      <trkpt lat="44.06404" lon="3.02925">
        <ele>694.5</ele>
        <time>2018-05-19T09:10:24Z</time>
      </trkpt>
      <trkpt lat="44.06405" lon="3.0292">
        <ele>694.5</ele>
        <time>2018-05-19T09:10:26Z</time>
      </trkpt>
      <trkpt lat="44.06406" lon="3.02915">
        <ele>694.4</ele>
        <time>2018-05-19T09:10:29Z</time>
      </trkpt>
      <trkpt lat="44.06408" lon="3.02911">
        <ele>694.4</ele>
        <time>2018-05-19T09:10:31Z</time>
      </trkpt>
      <trkpt lat="44.0641" lon="3.02907">
        <ele>694.3</ele>
        <time>2018-05-19T09:10:33Z</time>
      </trkpt>
      <trkpt lat="44.06412" lon="3.02902">
        <ele>694.2</ele>
        <time>2018-05-19T09:10:35Z</time>
      </trkpt>
      <trkpt lat="44.06414" lon="3.02898">
        <ele>694.1</ele>
        <time>2018-05-19T09:10:37Z</time>
      </trkpt>
      <trkpt lat="44.06416" lon="3.02894">
        <ele>694</ele>
        <time>2018-05-19T09:10:39Z</time>
      </trkpt>
      <trkpt lat="44.06418" lon="3.02889">
        <ele>693.8</ele>
        <time>2018-05-19T09:10:41Z</time>
      </trkpt>
      <trkpt lat="44.06419" lon="3.02884">
        <ele>693.7</ele>
        <time>2018-05-19T09:10:43Z</time>
      </trkpt>
      <trkpt lat="44.06421" lon="3.02879">
        <ele>693.5</ele>
        <time>2018-05-19T09:10:45Z</time>
      </trkpt>
      <trkpt lat="44.06423" lon="3.02875">
        <ele>693.4</ele>
        <time>2018-05-19T09:10:47Z</time>
      </trkpt>
      <trkpt lat="44.06424" lon="3.02871">
        <ele>693.3</ele>
        <time>2018-05-19T09:10:49Z</time>
      </trkpt>
      <trkpt lat="44.06424" lon="3.02866">
        <ele>693.3</ele>
        <time>2018-05-19T09:10:51Z</time>
      </trkpt>
      <trkpt lat="44.06425" lon="3.02862">
        <ele>693.2</ele>
        <time>2018-05-19T09:10:53Z</time>
      </trkpt>
      <trkpt lat="44.06426" lon="3.02857">
        <ele>693.2</ele>
        <time>2018-05-19T09:10:55Z</time>
      </trkpt>
      <trkpt lat="44.06427" lon="3.02853">
        <ele>693.2</ele>
        <time>2018-05-19T09:10:57Z</time>
      </trkpt>
      <trkpt lat="44.06428" lon="3.02849">
        <ele>693.2</ele>
        <time>2018-05-19T09:10:59Z</time>
      </trkpt>
      <trkpt lat="44.06429" lon="3.02845">
        <ele>693.1</ele>
        <time>2018-05-19T09:11:01Z</time>
      </trkpt>
      <trkpt lat="44.0643" lon="3.0284">
        <ele>693.1</ele>
        <time>2018-05-19T09:11:03Z</time>
      </trkpt>
      <trkpt lat="44.0643" lon="3.02836">
        <ele>693.1</ele>
        <time>2018-05-19T09:11:05Z</time>
      </trkpt>
      <trkpt lat="44.06431" lon="3.02833">
        <ele>693</ele>
        <time>2018-05-19T09:11:07Z</time>
      </trkpt>
      <trkpt lat="44.06432" lon="3.02829">
        <ele>692.9</ele>
        <time>2018-05-19T09:11:09Z</time>
      </trkpt>
      <trkpt lat="44.06433" lon="3.02825">
        <ele>692.9</ele>
        <time>2018-05-19T09:11:11Z</time>
      </trkpt>
      <trkpt lat="44.06433" lon="3.0282">
        <ele>692.8</ele>
        <time>2018-05-19T09:11:13Z</time>
      </trkpt>
      <trkpt lat="44.06432" lon="3.02816">
        <ele>692.8</ele>
        <time>2018-05-19T09:11:15Z</time>
      </trkpt>
      <trkpt lat="44.06432" lon="3.02811">
        <ele>692.7</ele>
        <time>2018-05-19T09:11:18Z</time>
      </trkpt>
      <trkpt lat="44.0643" lon="3.02808">
        <ele>692.7</ele>
        <time>2018-05-19T09:11:22Z</time>
      </trkpt>
      <trkpt lat="44.06428" lon="3.02804">
        <ele>692.6</ele>
        <time>2018-05-19T09:11:24Z</time>
      </trkpt>
      <trkpt lat="44.06427" lon="3.02801">
        <ele>692.5</ele>
        <time>2018-05-19T09:11:26Z</time>
      </trkpt>
      <trkpt lat="44.06427" lon="3.02795">
        <ele>692.4</ele>
        <time>2018-05-19T09:11:29Z</time>
      </trkpt>
      <trkpt lat="44.06426" lon="3.02791">
        <ele>692.4</ele>
        <time>2018-05-19T09:11:31Z</time>
      </trkpt>
      <trkpt lat="44.06425" lon="3.02786">
        <ele>692.3</ele>
        <time>2018-05-19T09:11:33Z</time>
      </trkpt>
      <trkpt lat="44.06424" lon="3.0278">
        <ele>692.3</ele>
        <time>2018-05-19T09:11:35Z</time>
      </trkpt>
      <trkpt lat="44.06425" lon="3.02774">
        <ele>692.2</ele>
        <time>2018-05-19T09:11:37Z</time>
      </trkpt>
      <trkpt lat="44.06424" lon="3.02768">
        <ele>692.2</ele>
        <time>2018-05-19T09:11:39Z</time>
      </trkpt>
      <trkpt lat="44.06424" lon="3.02762">
        <ele>692.1</ele>
        <time>2018-05-19T09:11:41Z</time>
      </trkpt>
      <trkpt lat="44.06424" lon="3.02757">
        <ele>692.1</ele>
        <time>2018-05-19T09:11:43Z</time>
      </trkpt>
      <trkpt lat="44.06425" lon="3.0275">
        <ele>692</ele>
        <time>2018-05-19T09:11:45Z</time>
      </trkpt>
      <trkpt lat="44.06425" lon="3.02743">
        <ele>691.8</ele>
        <time>2018-05-19T09:11:47Z</time>
      </trkpt>
      <trkpt lat="44.06426" lon="3.02736">
        <ele>691.7</ele>
        <time>2018-05-19T09:11:49Z</time>
      </trkpt>
      <trkpt lat="44.06427" lon="3.0273">
        <ele>691.6</ele>
        <time>2018-05-19T09:11:51Z</time>
      </trkpt>
      <trkpt lat="44.06427" lon="3.02723">
        <ele>691.6</ele>
        <time>2018-05-19T09:11:53Z</time>
      </trkpt>
      <trkpt lat="44.06427" lon="3.02716">
        <ele>691.4</ele>
        <time>2018-05-19T09:11:55Z</time>
      </trkpt>
      <trkpt lat="44.06427" lon="3.02709">
        <ele>691.2</ele>
        <time>2018-05-19T09:11:57Z</time>
      </trkpt>
      <trkpt lat="44.06426" lon="3.02703">
        <ele>691.1</ele>
        <time>2018-05-19T09:11:59Z</time>
      </trkpt>
      <trkpt lat="44.06425" lon="3.02697">
        <ele>691</ele>
        <time>2018-05-19T09:12:01Z</time>
      </trkpt>
      <trkpt lat="44.06422" lon="3.02692">
        <ele>691.8</ele>
        <time>2018-05-19T09:12:03Z</time>
      </trkpt>
      <trkpt lat="44.06419" lon="3.02688">
        <ele>694.1</ele>
        <time>2018-05-19T09:12:05Z</time>
      </trkpt>
      <trkpt lat="44.06416" lon="3.02685">
        <ele>696.7</ele>
        <time>2018-05-19T09:12:07Z</time>
      </trkpt>
      <trkpt lat="44.06412" lon="3.02682">
        <ele>699.4</ele>
        <time>2018-05-19T09:12:09Z</time>
      </trkpt>
      <trkpt lat="44.06408" lon="3.02678">
        <ele>702.6</ele>
        <time>2018-05-19T09:12:11Z</time>
      </trkpt>
      <trkpt lat="44.06404" lon="3.02674">
        <ele>705.3</ele>
        <time>2018-05-19T09:12:13Z</time>
      </trkpt>
      <trkpt lat="44.064" lon="3.02669">
        <ele>707.5</ele>
        <time>2018-05-19T09:12:15Z</time>
      </trkpt>
      <trkpt lat="44.06398" lon="3.02664">
        <ele>709.2</ele>
        <time>2018-05-19T09:12:17Z</time>
      </trkpt>
      <trkpt lat="44.06395" lon="3.02659">
        <ele>710.8</ele>
        <time>2018-05-19T09:12:19Z</time>
      </trkpt>
      <trkpt lat="44.06393" lon="3.02654">
        <ele>711</ele>
        <time>2018-05-19T09:12:21Z</time>
      </trkpt>
      <trkpt lat="44.0639" lon="3.02647">
        <ele>711</ele>
        <time>2018-05-19T09:12:23Z</time>
      </trkpt>
      <trkpt lat="44.06388" lon="3.02642">
        <ele>711</ele>
        <time>2018-05-19T09:12:25Z</time>
      </trkpt>
      <trkpt lat="44.06386" lon="3.02637">
        <ele>711</ele>
        <time>2018-05-19T09:12:27Z</time>
      </trkpt>
      <trkpt lat="44.06385" lon="3.02631">
        <ele>711</ele>
        <time>2018-05-19T09:12:29Z</time>
      </trkpt>
      <trkpt lat="44.06384" lon="3.02627">
        <ele>711</ele>
        <time>2018-05-19T09:12:31Z</time>
      </trkpt>
      <trkpt lat="44.06381" lon="3.02623">
        <ele>711</ele>
        <time>2018-05-19T09:12:33Z</time>
      </trkpt>
      <trkpt lat="44.06379" lon="3.02617">
        <ele>711</ele>
        <time>2018-05-19T09:12:35Z</time>
      </trkpt>
      <trkpt lat="44.06378" lon="3.0261">
        <ele>711</ele>
        <time>2018-05-19T09:12:37Z</time>
      </trkpt>
      <trkpt lat="44.06377" lon="3.02605">
        <ele>710.8</ele>
        <time>2018-05-19T09:12:39Z</time>
      </trkpt>
      <trkpt lat="44.06375" lon="3.02599">
        <ele>710.6</ele>
        <time>2018-05-19T09:12:41Z</time>
      </trkpt>
      <trkpt lat="44.06374" lon="3.02593">
        <ele>710.5</ele>
        <time>2018-05-19T09:12:43Z</time>
      </trkpt>
      <trkpt lat="44.06373" lon="3.02588">
        <ele>710.3</ele>
        <time>2018-05-19T09:12:45Z</time>
      </trkpt>
      <trkpt lat="44.06371" lon="3.02583">
        <ele>710.1</ele>
        <time>2018-05-19T09:12:48Z</time>
      </trkpt>
      <trkpt lat="44.06371" lon="3.02577">
        <ele>709.9</ele>
        <time>2018-05-19T09:12:50Z</time>
      </trkpt>
      <trkpt lat="44.0637" lon="3.02573">
        <ele>709.8</ele>
        <time>2018-05-19T09:12:51Z</time>
      </trkpt>
      <trkpt lat="44.0637" lon="3.02569">
        <ele>709.7</ele>
        <time>2018-05-19T09:12:52Z</time>
      </trkpt>
      <trkpt lat="44.0637" lon="3.02566">
        <ele>709.5</ele>
        <time>2018-05-19T09:12:53Z</time>
      </trkpt>
      <trkpt lat="44.0637" lon="3.02562">
        <ele>709.4</ele>
        <time>2018-05-19T09:12:54Z</time>
      </trkpt>
      <trkpt lat="44.06369" lon="3.02558">
        <ele>709.2</ele>
        <time>2018-05-19T09:12:55Z</time>
      </trkpt>
      <trkpt lat="44.06369" lon="3.02554">
        <ele>709.1</ele>
        <time>2018-05-19T09:12:56Z</time>
      </trkpt>
      <trkpt lat="44.06368" lon="3.0255">
        <ele>708.9</ele>
        <time>2018-05-19T09:12:57Z</time>
      </trkpt>
      <trkpt lat="44.06367" lon="3.02544">
        <ele>708.6</ele>
        <time>2018-05-19T09:12:59Z</time>
      </trkpt>
      <trkpt lat="44.06366" lon="3.02537">
        <ele>708.1</ele>
        <time>2018-05-19T09:13:01Z</time>
      </trkpt>
      <trkpt lat="44.06366" lon="3.02529">
        <ele>707.6</ele>
        <time>2018-05-19T09:13:03Z</time>
      </trkpt>
      <trkpt lat="44.06365" lon="3.02526">
        <ele>707.2</ele>
        <time>2018-05-19T09:13:04Z</time>
      </trkpt>
      <trkpt lat="44.06364" lon="3.02522">
        <ele>706.9</ele>
        <time>2018-05-19T09:13:05Z</time>
      </trkpt>
      <trkpt lat="44.06363" lon="3.02519">
        <ele>706.7</ele>
        <time>2018-05-19T09:13:06Z</time>
      </trkpt>
      <trkpt lat="44.06362" lon="3.02515">
        <ele>706.5</ele>
        <time>2018-05-19T09:13:07Z</time>
      </trkpt>
      <trkpt lat="44.0636" lon="3.02508">
        <ele>706.1</ele>
        <time>2018-05-19T09:13:09Z</time>
      </trkpt>
      <trkpt lat="44.06358" lon="3.02502">
        <ele>705.7</ele>
        <time>2018-05-19T09:13:11Z</time>
      </trkpt>
      <trkpt lat="44.06356" lon="3.02496">
        <ele>705.3</ele>
        <time>2018-05-19T09:13:13Z</time>
      </trkpt>
      <trkpt lat="44.06354" lon="3.0249">
        <ele>704.9</ele>
        <time>2018-05-19T09:13:15Z</time>
      </trkpt>
      <trkpt lat="44.06352" lon="3.02484">
        <ele>704.5</ele>
        <time>2018-05-19T09:13:17Z</time>
      </trkpt>
      <trkpt lat="44.06349" lon="3.02478">
        <ele>704.1</ele>
        <time>2018-05-19T09:13:19Z</time>
      </trkpt>
      <trkpt lat="44.06347" lon="3.02472">
        <ele>705.3</ele>
        <time>2018-05-19T09:13:21Z</time>
      </trkpt>
      <trkpt lat="44.06345" lon="3.02466">
        <ele>707</ele>
        <time>2018-05-19T09:13:23Z</time>
      </trkpt>
      <trkpt lat="44.06344" lon="3.0246">
        <ele>708.5</ele>
        <time>2018-05-19T09:13:25Z</time>
      </trkpt>
      <trkpt lat="44.06343" lon="3.02455">
        <ele>709.2</ele>
        <time>2018-05-19T09:13:27Z</time>
      </trkpt>
      <trkpt lat="44.06342" lon="3.0245">
        <ele>710</ele>
        <time>2018-05-19T09:13:29Z</time>
      </trkpt>
      <trkpt lat="44.0634" lon="3.02445">
        <ele>710.8</ele>
        <time>2018-05-19T09:13:31Z</time>
      </trkpt>
      <trkpt lat="44.06338" lon="3.0244">
        <ele>711.9</ele>
        <time>2018-05-19T09:13:33Z</time>
      </trkpt>
      <trkpt lat="44.06337" lon="3.02436">
        <ele>713.3</ele>
        <time>2018-05-19T09:13:35Z</time>
      </trkpt>
      <trkpt lat="44.06335" lon="3.02432">
        <ele>714.9</ele>
        <time>2018-05-19T09:13:37Z</time>
      </trkpt>
      <trkpt lat="44.06333" lon="3.02427">
        <ele>715.8</ele>
        <time>2018-05-19T09:13:39Z</time>
      </trkpt>
      <trkpt lat="44.06332" lon="3.02422">
        <ele>716.8</ele>
        <time>2018-05-19T09:13:41Z</time>
      </trkpt>
      <trkpt lat="44.0633" lon="3.02418">
        <ele>717.8</ele>
        <time>2018-05-19T09:13:43Z</time>
      </trkpt>
      <trkpt lat="44.06328" lon="3.02414">
        <ele>719.5</ele>
        <time>2018-05-19T09:13:45Z</time>
      </trkpt>
      <trkpt lat="44.06325" lon="3.02409">
        <ele>721.8</ele>
        <time>2018-05-19T09:13:47Z</time>
      </trkpt>
      <trkpt lat="44.06323" lon="3.02405">
        <ele>723.9</ele>
        <time>2018-05-19T09:13:49Z</time>
      </trkpt>
      <trkpt lat="44.0632" lon="3.02402">
        <ele>724.7</ele>
        <time>2018-05-19T09:13:51Z</time>
      </trkpt>
      <trkpt lat="44.06318" lon="3.02401">
        <ele>725.3</ele>
        <time>2018-05-19T09:13:53Z</time>
      </trkpt>
      <trkpt lat="44.06315" lon="3.02397">
        <ele>726.1</ele>
        <time>2018-05-19T09:13:56Z</time>
      </trkpt>
      <trkpt lat="44.06313" lon="3.02394">
        <ele>726.7</ele>
        <time>2018-05-19T09:13:58Z</time>
      </trkpt>
      <trkpt lat="44.0631" lon="3.02394">
        <ele>727.1</ele>
        <time>2018-05-19T09:14:01Z</time>
      </trkpt>
      <trkpt lat="44.06307" lon="3.02395">
        <ele>727.2</ele>
        <time>2018-05-19T09:14:03Z</time>
      </trkpt>
      <trkpt lat="44.06304" lon="3.02398">
        <ele>727.4</ele>
        <time>2018-05-19T09:14:06Z</time>
      </trkpt>
      <trkpt lat="44.06303" lon="3.02403">
        <ele>727.7</ele>
        <time>2018-05-19T09:14:09Z</time>
      </trkpt>
      <trkpt lat="44.06303" lon="3.02408">
        <ele>728</ele>
        <time>2018-05-19T09:14:12Z</time>
      </trkpt>
      <trkpt lat="44.06304" lon="3.02411">
        <ele>728.2</ele>
        <time>2018-05-19T09:14:15Z</time>
      </trkpt>
      <trkpt lat="44.06303" lon="3.02416">
        <ele>728.5</ele>
        <time>2018-05-19T09:14:18Z</time>
      </trkpt>
      <trkpt lat="44.063" lon="3.02418">
        <ele>728.8</ele>
        <time>2018-05-19T09:14:27Z</time>
      </trkpt>
      <trkpt lat="44.063" lon="3.02422">
        <ele>729.1</ele>
        <time>2018-05-19T09:14:34Z</time>
      </trkpt>
      <trkpt lat="44.06299" lon="3.02427">
        <ele>729.3</ele>
        <time>2018-05-19T09:14:37Z</time>
      </trkpt>
      <trkpt lat="44.06299" lon="3.02431">
        <ele>729.5</ele>
        <time>2018-05-19T09:14:41Z</time>
      </trkpt>
      <trkpt lat="44.06297" lon="3.02435">
        <ele>729.6</ele>
        <time>2018-05-19T09:14:45Z</time>
      </trkpt>
      <trkpt lat="44.06295" lon="3.02438">
        <ele>729.7</ele>
        <time>2018-05-19T09:14:49Z</time>
      </trkpt>
      <trkpt lat="44.06296" lon="3.02442">
        <ele>729.7</ele>
        <time>2018-05-19T09:14:52Z</time>
      </trkpt>
      <trkpt lat="44.06295" lon="3.02446">
        <ele>729.6</ele>
        <time>2018-05-19T09:14:56Z</time>
      </trkpt>
      <trkpt lat="44.06294" lon="3.02451">
        <ele>729.5</ele>
        <time>2018-05-19T09:15:04Z</time>
      </trkpt>
      <trkpt lat="44.06294" lon="3.02455">
        <ele>728.6</ele>
        <time>2018-05-19T09:15:07Z</time>
      </trkpt>
      <trkpt lat="44.06293" lon="3.0246">
        <ele>728.4</ele>
        <time>2018-05-19T09:15:10Z</time>
      </trkpt>
      <trkpt lat="44.06292" lon="3.02464">
        <ele>728.2</ele>
        <time>2018-05-19T09:15:12Z</time>
      </trkpt>
      <trkpt lat="44.06291" lon="3.02468">
        <ele>728</ele>
        <time>2018-05-19T09:15:14Z</time>
      </trkpt>
      <trkpt lat="44.06291" lon="3.02472">
        <ele>727.8</ele>
        <time>2018-05-19T09:15:16Z</time>
      </trkpt>
      <trkpt lat="44.06289" lon="3.02477">
        <ele>727.7</ele>
        <time>2018-05-19T09:15:19Z</time>
      </trkpt>
      <trkpt lat="44.06289" lon="3.02482">
        <ele>727.6</ele>
        <time>2018-05-19T09:15:22Z</time>
      </trkpt>
      <trkpt lat="44.0629" lon="3.02487">
        <ele>727.6</ele>
        <time>2018-05-19T09:15:25Z</time>
      </trkpt>
      <trkpt lat="44.0629" lon="3.02491">
        <ele>727.6</ele>
        <time>2018-05-19T09:15:27Z</time>
      </trkpt>
      <trkpt lat="44.06289" lon="3.02496">
        <ele>727.7</ele>
        <time>2018-05-19T09:15:30Z</time>
      </trkpt>
      <trkpt lat="44.06287" lon="3.025">
        <ele>727.8</ele>
        <time>2018-05-19T09:15:33Z</time>
      </trkpt>
      <trkpt lat="44.06287" lon="3.02504">
        <ele>728</ele>
        <time>2018-05-19T09:15:36Z</time>
      </trkpt>
      <trkpt lat="44.06286" lon="3.02508">
        <ele>728.2</ele>
        <time>2018-05-19T09:15:38Z</time>
      </trkpt>
      <trkpt lat="44.06284" lon="3.02513">
        <ele>728.4</ele>
        <time>2018-05-19T09:15:41Z</time>
      </trkpt>
      <trkpt lat="44.06283" lon="3.02518">
        <ele>728.6</ele>
        <time>2018-05-19T09:15:44Z</time>
      </trkpt>
      <trkpt lat="44.06282" lon="3.02523">
        <ele>728.8</ele>
        <time>2018-05-19T09:15:47Z</time>
      </trkpt>
      <trkpt lat="44.0628" lon="3.02528">
        <ele>729</ele>
        <time>2018-05-19T09:15:50Z</time>
      </trkpt>
      <trkpt lat="44.06278" lon="3.0253">
        <ele>729.2</ele>
        <time>2018-05-19T09:15:52Z</time>
      </trkpt>
      <trkpt lat="44.06276" lon="3.02535">
        <ele>729.3</ele>
        <time>2018-05-19T09:15:55Z</time>
      </trkpt>
      <trkpt lat="44.06274" lon="3.0254">
        <ele>729.5</ele>
        <time>2018-05-19T09:15:58Z</time>
      </trkpt>
      <trkpt lat="44.06272" lon="3.02543">
        <ele>729.5</ele>
        <time>2018-05-19T09:16:00Z</time>
      </trkpt>
      <trkpt lat="44.06271" lon="3.02546">
        <ele>729.6</ele>
        <time>2018-05-19T09:16:02Z</time>
      </trkpt>
      <trkpt lat="44.06269" lon="3.02549">
        <ele>729.6</ele>
        <time>2018-05-19T09:16:04Z</time>
      </trkpt>
      <trkpt lat="44.06266" lon="3.02553">
        <ele>729.7</ele>
        <time>2018-05-19T09:16:06Z</time>
      </trkpt>
      <trkpt lat="44.06264" lon="3.02556">
        <ele>729.8</ele>
        <time>2018-05-19T09:16:08Z</time>
      </trkpt>
      <trkpt lat="44.06262" lon="3.02558">
        <ele>729.9</ele>
        <time>2018-05-19T09:16:10Z</time>
      </trkpt>
      <trkpt lat="44.06259" lon="3.0256">
        <ele>729.9</ele>
        <time>2018-05-19T09:16:13Z</time>
      </trkpt>
      <trkpt lat="44.06256" lon="3.02562">
        <ele>730</ele>
        <time>2018-05-19T09:16:16Z</time>
      </trkpt>
      <trkpt lat="44.06253" lon="3.02566">
        <ele>730</ele>
        <time>2018-05-19T09:16:19Z</time>
      </trkpt>
      <trkpt lat="44.06251" lon="3.02568">
        <ele>730.1</ele>
        <time>2018-05-19T09:16:21Z</time>
      </trkpt>
      <trkpt lat="44.06248" lon="3.0257">
        <ele>730.1</ele>
        <time>2018-05-19T09:16:23Z</time>
      </trkpt>
      <trkpt lat="44.06245" lon="3.02571">
        <ele>730.2</ele>
        <time>2018-05-19T09:16:25Z</time>
      </trkpt>
      <trkpt lat="44.06243" lon="3.02572">
        <ele>730.2</ele>
        <time>2018-05-19T09:16:27Z</time>
      </trkpt>
      <trkpt lat="44.0624" lon="3.02574">
        <ele>730.3</ele>
        <time>2018-05-19T09:16:29Z</time>
      </trkpt>
      <trkpt lat="44.06236" lon="3.02577">
        <ele>730.4</ele>
        <time>2018-05-19T09:16:32Z</time>
      </trkpt>
      <trkpt lat="44.06233" lon="3.02579">
        <ele>730.5</ele>
        <time>2018-05-19T09:16:35Z</time>
      </trkpt>
      <trkpt lat="44.0623" lon="3.02581">
        <ele>730.6</ele>
        <time>2018-05-19T09:16:37Z</time>
      </trkpt>
      <trkpt lat="44.06227" lon="3.02582">
        <ele>730.6</ele>
        <time>2018-05-19T09:16:39Z</time>
      </trkpt>
      <trkpt lat="44.06224" lon="3.02583">
        <ele>730.7</ele>
        <time>2018-05-19T09:16:41Z</time>
      </trkpt>
      <trkpt lat="44.06221" lon="3.02586">
        <ele>730.8</ele>
        <time>2018-05-19T09:16:43Z</time>
      </trkpt>
      <trkpt lat="44.06219" lon="3.02588">
        <ele>730.8</ele>
        <time>2018-05-19T09:16:45Z</time>
      </trkpt>
      <trkpt lat="44.06217" lon="3.02591">
        <ele>730.9</ele>
        <time>2018-05-19T09:16:47Z</time>
      </trkpt>
      <trkpt lat="44.06214" lon="3.02592">
        <ele>730.9</ele>
        <time>2018-05-19T09:16:49Z</time>
      </trkpt>
      <trkpt lat="44.06211" lon="3.02594">
        <ele>731</ele>
        <time>2018-05-19T09:16:51Z</time>
      </trkpt>
      <trkpt lat="44.06209" lon="3.02595">
        <ele>731</ele>
        <time>2018-05-19T09:16:53Z</time>
      </trkpt>
      <trkpt lat="44.06206" lon="3.02597">
        <ele>731</ele>
        <time>2018-05-19T09:16:55Z</time>
      </trkpt>
      <trkpt lat="44.06202" lon="3.02598">
        <ele>731</ele>
        <time>2018-05-19T09:16:57Z</time>
      </trkpt>
      <trkpt lat="44.06199" lon="3.026">
        <ele>731.1</ele>
        <time>2018-05-19T09:16:59Z</time>
      </trkpt>
      <trkpt lat="44.06196" lon="3.02602">
        <ele>731.1</ele>
        <time>2018-05-19T09:17:01Z</time>
      </trkpt>
      <trkpt lat="44.06193" lon="3.02603">
        <ele>731.1</ele>
        <time>2018-05-19T09:17:03Z</time>
      </trkpt>
      <trkpt lat="44.0619" lon="3.02604">
        <ele>731.1</ele>
        <time>2018-05-19T09:17:05Z</time>
      </trkpt>
      <trkpt lat="44.06187" lon="3.02605">
        <ele>731.1</ele>
        <time>2018-05-19T09:17:07Z</time>
      </trkpt>
      <trkpt lat="44.06184" lon="3.02606">
        <ele>731.1</ele>
        <time>2018-05-19T09:17:09Z</time>
      </trkpt>
      <trkpt lat="44.06182" lon="3.02608">
        <ele>731</ele>
        <time>2018-05-19T09:17:12Z</time>
      </trkpt>
      <trkpt lat="44.06179" lon="3.02612">
        <ele>731</ele>
        <time>2018-05-19T09:18:44Z</time>
      </trkpt>
      <trkpt lat="44.0618" lon="3.02618">
        <ele>731</ele>
        <time>2018-05-19T09:18:46Z</time>
      </trkpt>
      <trkpt lat="44.06182" lon="3.02621">
        <ele>731</ele>
        <time>2018-05-19T09:18:47Z</time>
      </trkpt>
      <trkpt lat="44.06184" lon="3.02623">
        <ele>731</ele>
        <time>2018-05-19T09:18:48Z</time>
      </trkpt>
      <trkpt lat="44.06189" lon="3.02626">
        <ele>730.5</ele>
        <time>2018-05-19T09:18:50Z</time>
      </trkpt>
      <trkpt lat="44.06192" lon="3.02627">
        <ele>730.1</ele>
        <time>2018-05-19T09:18:51Z</time>
      </trkpt>
      <trkpt lat="44.06196" lon="3.02629">
        <ele>729.5</ele>
        <time>2018-05-19T09:18:52Z</time>
      </trkpt>
      <trkpt lat="44.06199" lon="3.02632">
        <ele>728.8</ele>
        <time>2018-05-19T09:18:53Z</time>
      </trkpt>
      <trkpt lat="44.06202" lon="3.02635">
        <ele>728.3</ele>
        <time>2018-05-19T09:18:54Z</time>
      </trkpt>
      <trkpt lat="44.06199" lon="3.02636">
        <ele>728.8</ele>
        <time>2018-05-19T09:19:03Z</time>
      </trkpt>
      <trkpt lat="44.06196" lon="3.02635">
        <ele>729.5</ele>
        <time>2018-05-19T09:20:55Z</time>
      </trkpt>
      <trkpt lat="44.06193" lon="3.02633">
        <ele>730.3</ele>
        <time>2018-05-19T09:20:57Z</time>
      </trkpt>
      <trkpt lat="44.0619" lon="3.02629">
        <ele>730.9</ele>
        <time>2018-05-19T09:20:59Z</time>
      </trkpt>
      <trkpt lat="44.06188" lon="3.02625">
        <ele>731</ele>
        <time>2018-05-19T09:21:01Z</time>
      </trkpt>
      <trkpt lat="44.06185" lon="3.02621">
        <ele>731</ele>
        <time>2018-05-19T09:21:03Z</time>
      </trkpt>
      <trkpt lat="44.06182" lon="3.02618">
        <ele>731</ele>
        <time>2018-05-19T09:21:05Z</time>
      </trkpt>
      <trkpt lat="44.06178" lon="3.02613">
        <ele>731</ele>
        <time>2018-05-19T09:21:07Z</time>
      </trkpt>
      <trkpt lat="44.06176" lon="3.0261">
        <ele>731</ele>
        <time>2018-05-19T09:21:09Z</time>
      </trkpt>
      <trkpt lat="44.06173" lon="3.02606">
        <ele>731</ele>
        <time>2018-05-19T09:21:15Z</time>
      </trkpt>
      <trkpt lat="44.0617" lon="3.02603">
        <ele>730.8</ele>
        <time>2018-05-19T09:21:17Z</time>
      </trkpt>
      <trkpt lat="44.06166" lon="3.02599">
        <ele>730.5</ele>
        <time>2018-05-19T09:21:19Z</time>
      </trkpt>
      <trkpt lat="44.06163" lon="3.02595">
        <ele>730.3</ele>
        <time>2018-05-19T09:21:21Z</time>
      </trkpt>
      <trkpt lat="44.0616" lon="3.02588">
        <ele>729.3</ele>
        <time>2018-05-19T09:21:23Z</time>
      </trkpt>
      <trkpt lat="44.06158" lon="3.02582">
        <ele>728.9</ele>
        <time>2018-05-19T09:21:25Z</time>
      </trkpt>
      <trkpt lat="44.06157" lon="3.02575">
        <ele>728.4</ele>
        <time>2018-05-19T09:21:27Z</time>
      </trkpt>
      <trkpt lat="44.06156" lon="3.02568">
        <ele>727.8</ele>
        <time>2018-05-19T09:21:29Z</time>
      </trkpt>
      <trkpt lat="44.06156" lon="3.0256">
        <ele>727.3</ele>
        <time>2018-05-19T09:21:31Z</time>
      </trkpt>
      <trkpt lat="44.06155" lon="3.02556">
        <ele>727.1</ele>
        <time>2018-05-19T09:21:32Z</time>
      </trkpt>
      <trkpt lat="44.06155" lon="3.02552">
        <ele>726.9</ele>
        <time>2018-05-19T09:21:33Z</time>
      </trkpt>
      <trkpt lat="44.06155" lon="3.02548">
        <ele>726.7</ele>
        <time>2018-05-19T09:21:34Z</time>
      </trkpt>
      <trkpt lat="44.06155" lon="3.02543">
        <ele>726.5</ele>
        <time>2018-05-19T09:21:35Z</time>
      </trkpt>
      <trkpt lat="44.06154" lon="3.02539">
        <ele>726.4</ele>
        <time>2018-05-19T09:21:36Z</time>
      </trkpt>
      <trkpt lat="44.06154" lon="3.02535">
        <ele>726.4</ele>
        <time>2018-05-19T09:21:37Z</time>
      </trkpt>
      <trkpt lat="44.06154" lon="3.02531">
        <ele>726.3</ele>
        <time>2018-05-19T09:21:38Z</time>
      </trkpt>
      <trkpt lat="44.06153" lon="3.02527">
        <ele>726.2</ele>
        <time>2018-05-19T09:21:39Z</time>
      </trkpt>
      <trkpt lat="44.06153" lon="3.02523">
        <ele>726.2</ele>
        <time>2018-05-19T09:21:40Z</time>
      </trkpt>
      <trkpt lat="44.06152" lon="3.02518">
        <ele>726.1</ele>
        <time>2018-05-19T09:21:41Z</time>
      </trkpt>
      <trkpt lat="44.06152" lon="3.02513">
        <ele>726</ele>
        <time>2018-05-19T09:21:42Z</time>
      </trkpt>
      <trkpt lat="44.06152" lon="3.02508">
        <ele>725.9</ele>
        <time>2018-05-19T09:21:43Z</time>
      </trkpt>
      <trkpt lat="44.06151" lon="3.02502">
        <ele>725.9</ele>
        <time>2018-05-19T09:21:44Z</time>
      </trkpt>
      <trkpt lat="44.06151" lon="3.02496">
        <ele>725.8</ele>
        <time>2018-05-19T09:21:45Z</time>
      </trkpt>
      <trkpt lat="44.0615" lon="3.0249">
        <ele>725.7</ele>
        <time>2018-05-19T09:21:46Z</time>
      </trkpt>
      <trkpt lat="44.0615" lon="3.02481">
        <ele>725.5</ele>
        <time>2018-05-19T09:21:47Z</time>
      </trkpt>
      <trkpt lat="44.0615" lon="3.02472">
        <ele>725.1</ele>
        <time>2018-05-19T09:21:48Z</time>
      </trkpt>
      <trkpt lat="44.0615" lon="3.02463">
        <ele>724.8</ele>
        <time>2018-05-19T09:21:49Z</time>
      </trkpt>
      <trkpt lat="44.0615" lon="3.02454">
        <ele>724.4</ele>
        <time>2018-05-19T09:21:50Z</time>
      </trkpt>
      <trkpt lat="44.0615" lon="3.02444">
        <ele>724.1</ele>
        <time>2018-05-19T09:21:51Z</time>
      </trkpt>
      <trkpt lat="44.06149" lon="3.02432">
        <ele>723.8</ele>
        <time>2018-05-19T09:21:52Z</time>
      </trkpt>
      <trkpt lat="44.06148" lon="3.02419">
        <ele>723.5</ele>
        <time>2018-05-19T09:21:53Z</time>
      </trkpt>
      <trkpt lat="44.06147" lon="3.02407">
        <ele>723.1</ele>
        <time>2018-05-19T09:21:54Z</time>
      </trkpt>
      <trkpt lat="44.06147" lon="3.02394">
        <ele>722.6</ele>
        <time>2018-05-19T09:21:55Z</time>
      </trkpt>
      <trkpt lat="44.06146" lon="3.02382">
        <ele>722.2</ele>
        <time>2018-05-19T09:21:56Z</time>
      </trkpt>
      <trkpt lat="44.06145" lon="3.0237">
        <ele>721.9</ele>
        <time>2018-05-19T09:21:57Z</time>
      </trkpt>
      <trkpt lat="44.06145" lon="3.02358">
        <ele>721.8</ele>
        <time>2018-05-19T09:21:58Z</time>
      </trkpt>
      <trkpt lat="44.06144" lon="3.02348">
        <ele>721.6</ele>
        <time>2018-05-19T09:21:59Z</time>
      </trkpt>
      <trkpt lat="44.06143" lon="3.02341">
        <ele>721.5</ele>
        <time>2018-05-19T09:22:00Z</time>
      </trkpt>
      <trkpt lat="44.06142" lon="3.02333">
        <ele>721.4</ele>
        <time>2018-05-19T09:22:01Z</time>
      </trkpt>
      <trkpt lat="44.06141" lon="3.02324">
        <ele>721.3</ele>
        <time>2018-05-19T09:22:02Z</time>
      </trkpt>
      <trkpt lat="44.0614" lon="3.02318">
        <ele>721.2</ele>
        <time>2018-05-19T09:22:03Z</time>
      </trkpt>
      <trkpt lat="44.0614" lon="3.02313">
        <ele>721.2</ele>
        <time>2018-05-19T09:22:04Z</time>
      </trkpt>
      <trkpt lat="44.0614" lon="3.02309">
        <ele>721.1</ele>
        <time>2018-05-19T09:22:05Z</time>
      </trkpt>
      <trkpt lat="44.0614" lon="3.02304">
        <ele>721.1</ele>
        <time>2018-05-19T09:22:06Z</time>
      </trkpt>
      <trkpt lat="44.0614" lon="3.02298">
        <ele>721</ele>
        <time>2018-05-19T09:22:07Z</time>
      </trkpt>
      <trkpt lat="44.0614" lon="3.02293">
        <ele>721</ele>
        <time>2018-05-19T09:22:08Z</time>
      </trkpt>
      <trkpt lat="44.0614" lon="3.02289">
        <ele>721</ele>
        <time>2018-05-19T09:22:09Z</time>
      </trkpt>
      <trkpt lat="44.0614" lon="3.02283">
        <ele>721</ele>
        <time>2018-05-19T09:22:10Z</time>
      </trkpt>
      <trkpt lat="44.0614" lon="3.02276">
        <ele>721</ele>
        <time>2018-05-19T09:22:11Z</time>
      </trkpt>
      <trkpt lat="44.0614" lon="3.02271">
        <ele>721</ele>
        <time>2018-05-19T09:22:12Z</time>
      </trkpt>
      <trkpt lat="44.0614" lon="3.02267">
        <ele>721</ele>
        <time>2018-05-19T09:22:13Z</time>
      </trkpt>
      <trkpt lat="44.0614" lon="3.02261">
        <ele>721.1</ele>
        <time>2018-05-19T09:22:14Z</time>
      </trkpt>
      <trkpt lat="44.0614" lon="3.02256">
        <ele>721.1</ele>
        <time>2018-05-19T09:22:15Z</time>
      </trkpt>
      <trkpt lat="44.0614" lon="3.02252">
        <ele>721.2</ele>
        <time>2018-05-19T09:22:16Z</time>
      </trkpt>
      <trkpt lat="44.0614" lon="3.02247">
        <ele>721.3</ele>
        <time>2018-05-19T09:22:17Z</time>
      </trkpt>
      <trkpt lat="44.0614" lon="3.02243">
        <ele>721.3</ele>
        <time>2018-05-19T09:22:18Z</time>
      </trkpt>
      <trkpt lat="44.06141" lon="3.02239">
        <ele>721.4</ele>
        <time>2018-05-19T09:22:19Z</time>
      </trkpt>
      <trkpt lat="44.06141" lon="3.02235">
        <ele>721.4</ele>
        <time>2018-05-19T09:22:20Z</time>
      </trkpt>
      <trkpt lat="44.06141" lon="3.02231">
        <ele>721.5</ele>
        <time>2018-05-19T09:22:21Z</time>
      </trkpt>
      <trkpt lat="44.06142" lon="3.02226">
        <ele>721.6</ele>
        <time>2018-05-19T09:22:22Z</time>
      </trkpt>
      <trkpt lat="44.06142" lon="3.02222">
        <ele>721.6</ele>
        <time>2018-05-19T09:22:23Z</time>
      </trkpt>
      <trkpt lat="44.06143" lon="3.02217">
        <ele>721.7</ele>
        <time>2018-05-19T09:22:24Z</time>
      </trkpt>
      <trkpt lat="44.06143" lon="3.02213">
        <ele>721.8</ele>
        <time>2018-05-19T09:22:25Z</time>
      </trkpt>
      <trkpt lat="44.06144" lon="3.02208">
        <ele>721.8</ele>
        <time>2018-05-19T09:22:26Z</time>
      </trkpt>
      <trkpt lat="44.06144" lon="3.02203">
        <ele>721.9</ele>
        <time>2018-05-19T09:22:27Z</time>
      </trkpt>
      <trkpt lat="44.06145" lon="3.02198">
        <ele>722</ele>
        <time>2018-05-19T09:22:28Z</time>
      </trkpt>
      <trkpt lat="44.06146" lon="3.02192">
        <ele>722.1</ele>
        <time>2018-05-19T09:22:29Z</time>
      </trkpt>
      <trkpt lat="44.06147" lon="3.02186">
        <ele>722.2</ele>
        <time>2018-05-19T09:22:30Z</time>
      </trkpt>
      <trkpt lat="44.06148" lon="3.0218">
        <ele>722.3</ele>
        <time>2018-05-19T09:22:31Z</time>
      </trkpt>
      <trkpt lat="44.06149" lon="3.02175">
        <ele>722.4</ele>
        <time>2018-05-19T09:22:32Z</time>
      </trkpt>
      <trkpt lat="44.0615" lon="3.02166">
        <ele>722.6</ele>
        <time>2018-05-19T09:22:33Z</time>
      </trkpt>
      <trkpt lat="44.06151" lon="3.02159">
        <ele>722.8</ele>
        <time>2018-05-19T09:22:34Z</time>
      </trkpt>
      <trkpt lat="44.06151" lon="3.02152">
        <ele>723</ele>
        <time>2018-05-19T09:22:35Z</time>
      </trkpt>
      <trkpt lat="44.06151" lon="3.02145">
        <ele>723.2</ele>
        <time>2018-05-19T09:22:36Z</time>
      </trkpt>
      <trkpt lat="44.06153" lon="3.02138">
        <ele>723.3</ele>
        <time>2018-05-19T09:22:37Z</time>
      </trkpt>
      <trkpt lat="44.06153" lon="3.02131">
        <ele>723.5</ele>
        <time>2018-05-19T09:22:38Z</time>
      </trkpt>
      <trkpt lat="44.06155" lon="3.02125">
        <ele>723.7</ele>
        <time>2018-05-19T09:22:39Z</time>
      </trkpt>
      <trkpt lat="44.06156" lon="3.02117">
        <ele>723.9</ele>
        <time>2018-05-19T09:22:40Z</time>
      </trkpt>
      <trkpt lat="44.06158" lon="3.02109">
        <ele>724.2</ele>
        <time>2018-05-19T09:22:41Z</time>
      </trkpt>
      <trkpt lat="44.06158" lon="3.02102">
        <ele>724.4</ele>
        <time>2018-05-19T09:22:42Z</time>
      </trkpt>
      <trkpt lat="44.06159" lon="3.02096">
        <ele>724.6</ele>
        <time>2018-05-19T09:22:43Z</time>
      </trkpt>
      <trkpt lat="44.06159" lon="3.02088">
        <ele>724.8</ele>
        <time>2018-05-19T09:22:44Z</time>
      </trkpt>
      <trkpt lat="44.06161" lon="3.02081">
        <ele>725</ele>
        <time>2018-05-19T09:22:45Z</time>
      </trkpt>
      <trkpt lat="44.06162" lon="3.02075">
        <ele>725.2</ele>
        <time>2018-05-19T09:22:46Z</time>
      </trkpt>
      <trkpt lat="44.06163" lon="3.02069">
        <ele>725.3</ele>
        <time>2018-05-19T09:22:47Z</time>
      </trkpt>
      <trkpt lat="44.06165" lon="3.02062">
        <ele>725.6</ele>
        <time>2018-05-19T09:22:48Z</time>
      </trkpt>
      <trkpt lat="44.06166" lon="3.02057">
        <ele>725.7</ele>
        <time>2018-05-19T09:22:49Z</time>
      </trkpt>
      <trkpt lat="44.06166" lon="3.02051">
        <ele>725.9</ele>
        <time>2018-05-19T09:22:50Z</time>
      </trkpt>
      <trkpt lat="44.06167" lon="3.02045">
        <ele>726.1</ele>
        <time>2018-05-19T09:22:51Z</time>
      </trkpt>
      <trkpt lat="44.06168" lon="3.02038">
        <ele>726.4</ele>
        <time>2018-05-19T09:22:52Z</time>
      </trkpt>
      <trkpt lat="44.06169" lon="3.02031">
        <ele>726.7</ele>
        <time>2018-05-19T09:22:53Z</time>
      </trkpt>
      <trkpt lat="44.06169" lon="3.02025">
        <ele>726.8</ele>
        <time>2018-05-19T09:22:54Z</time>
      </trkpt>
      <trkpt lat="44.0617" lon="3.0202">
        <ele>726.9</ele>
        <time>2018-05-19T09:22:55Z</time>
      </trkpt>
      <trkpt lat="44.06171" lon="3.02014">
        <ele>727.1</ele>
        <time>2018-05-19T09:22:56Z</time>
      </trkpt>
      <trkpt lat="44.06172" lon="3.02008">
        <ele>727.2</ele>
        <time>2018-05-19T09:22:57Z</time>
      </trkpt>
      <trkpt lat="44.06173" lon="3.02002">
        <ele>727.4</ele>
        <time>2018-05-19T09:22:58Z</time>
      </trkpt>
      <trkpt lat="44.06174" lon="3.01996">
        <ele>727.6</ele>
        <time>2018-05-19T09:22:59Z</time>
      </trkpt>
      <trkpt lat="44.06174" lon="3.01992">
        <ele>727.7</ele>
        <time>2018-05-19T09:23:00Z</time>
      </trkpt>
      <trkpt lat="44.06174" lon="3.01986">
        <ele>727.9</ele>
        <time>2018-05-19T09:23:01Z</time>
      </trkpt>
      <trkpt lat="44.06173" lon="3.0198">
        <ele>728</ele>
        <time>2018-05-19T09:23:02Z</time>
      </trkpt>
      <trkpt lat="44.06173" lon="3.01973">
        <ele>728.3</ele>
        <time>2018-05-19T09:23:03Z</time>
      </trkpt>
      <trkpt lat="44.06172" lon="3.01968">
        <ele>728.5</ele>
        <time>2018-05-19T09:23:04Z</time>
      </trkpt>
      <trkpt lat="44.06171" lon="3.01963">
        <ele>728.7</ele>
        <time>2018-05-19T09:23:05Z</time>
      </trkpt>
      <trkpt lat="44.06168" lon="3.01959">
        <ele>728.9</ele>
        <time>2018-05-19T09:23:06Z</time>
      </trkpt>
      <trkpt lat="44.06167" lon="3.01953">
        <ele>729.2</ele>
        <time>2018-05-19T09:23:07Z</time>
      </trkpt>
      <trkpt lat="44.06165" lon="3.01948">
        <ele>729.4</ele>
        <time>2018-05-19T09:23:08Z</time>
      </trkpt>
      <trkpt lat="44.06164" lon="3.01943">
        <ele>729.6</ele>
        <time>2018-05-19T09:23:09Z</time>
      </trkpt>
      <trkpt lat="44.06162" lon="3.01938">
        <ele>729.9</ele>
        <time>2018-05-19T09:23:10Z</time>
      </trkpt>
      <trkpt lat="44.0616" lon="3.01933">
        <ele>730.1</ele>
        <time>2018-05-19T09:23:11Z</time>
      </trkpt>
      <trkpt lat="44.06158" lon="3.01928">
        <ele>730.5</ele>
        <time>2018-05-19T09:23:12Z</time>
      </trkpt>
      <trkpt lat="44.06156" lon="3.01924">
        <ele>730.7</ele>
        <time>2018-05-19T09:23:13Z</time>
      </trkpt>
      <trkpt lat="44.06154" lon="3.0192">
        <ele>730.9</ele>
        <time>2018-05-19T09:23:14Z</time>
      </trkpt>
      <trkpt lat="44.06153" lon="3.01915">
        <ele>731.1</ele>
        <time>2018-05-19T09:23:15Z</time>
      </trkpt>
      <trkpt lat="44.06151" lon="3.01911">
        <ele>731.2</ele>
        <time>2018-05-19T09:23:16Z</time>
      </trkpt>
      <trkpt lat="44.06149" lon="3.01907">
        <ele>731.4</ele>
        <time>2018-05-19T09:23:17Z</time>
      </trkpt>
      <trkpt lat="44.06147" lon="3.01903">
        <ele>731.6</ele>
        <time>2018-05-19T09:23:18Z</time>
      </trkpt>
      <trkpt lat="44.06145" lon="3.01899">
        <ele>731.7</ele>
        <time>2018-05-19T09:23:19Z</time>
      </trkpt>
      <trkpt lat="44.06143" lon="3.01895">
        <ele>731.8</ele>
        <time>2018-05-19T09:23:20Z</time>
      </trkpt>
      <trkpt lat="44.06142" lon="3.0189">
        <ele>731.9</ele>
        <time>2018-05-19T09:23:21Z</time>
      </trkpt>
      <trkpt lat="44.0614" lon="3.01886">
        <ele>732</ele>
        <time>2018-05-19T09:23:22Z</time>
      </trkpt>
      <trkpt lat="44.06138" lon="3.01882">
        <ele>732.1</ele>
        <time>2018-05-19T09:23:23Z</time>
      </trkpt>
      <trkpt lat="44.06136" lon="3.01877">
        <ele>732.3</ele>
        <time>2018-05-19T09:23:24Z</time>
      </trkpt>
      <trkpt lat="44.06133" lon="3.01873">
        <ele>732.4</ele>
        <time>2018-05-19T09:23:25Z</time>
      </trkpt>
      <trkpt lat="44.06131" lon="3.01869">
        <ele>732.5</ele>
        <time>2018-05-19T09:23:26Z</time>
      </trkpt>
      <trkpt lat="44.06129" lon="3.01865">
        <ele>732.6</ele>
        <time>2018-05-19T09:23:27Z</time>
      </trkpt>
      <trkpt lat="44.06126" lon="3.01861">
        <ele>732.8</ele>
        <time>2018-05-19T09:23:28Z</time>
      </trkpt>
      <trkpt lat="44.06124" lon="3.01857">
        <ele>732.9</ele>
        <time>2018-05-19T09:23:29Z</time>
      </trkpt>
      <trkpt lat="44.06122" lon="3.01853">
        <ele>733.1</ele>
        <time>2018-05-19T09:23:30Z</time>
      </trkpt>
      <trkpt lat="44.0612" lon="3.01849">
        <ele>733.2</ele>
        <time>2018-05-19T09:23:31Z</time>
      </trkpt>
      <trkpt lat="44.06118" lon="3.01844">
        <ele>733.4</ele>
        <time>2018-05-19T09:23:32Z</time>
      </trkpt>
      <trkpt lat="44.06116" lon="3.0184">
        <ele>733.6</ele>
        <time>2018-05-19T09:23:33Z</time>
      </trkpt>
      <trkpt lat="44.06113" lon="3.01836">
        <ele>733.8</ele>
        <time>2018-05-19T09:23:34Z</time>
      </trkpt>
      <trkpt lat="44.06111" lon="3.01832">
        <ele>734</ele>
        <time>2018-05-19T09:23:35Z</time>
      </trkpt>
      <trkpt lat="44.06108" lon="3.01828">
        <ele>734.1</ele>
        <time>2018-05-19T09:23:36Z</time>
      </trkpt>
      <trkpt lat="44.06106" lon="3.01823">
        <ele>734.3</ele>
        <time>2018-05-19T09:23:37Z</time>
      </trkpt>
      <trkpt lat="44.06103" lon="3.01819">
        <ele>734.4</ele>
        <time>2018-05-19T09:23:38Z</time>
      </trkpt>
      <trkpt lat="44.06101" lon="3.01815">
        <ele>734.6</ele>
        <time>2018-05-19T09:23:39Z</time>
      </trkpt>
      <trkpt lat="44.061" lon="3.01811">
        <ele>734.7</ele>
        <time>2018-05-19T09:23:40Z</time>
      </trkpt>
      <trkpt lat="44.06098" lon="3.01807">
        <ele>734.9</ele>
        <time>2018-05-19T09:23:41Z</time>
      </trkpt>
      <trkpt lat="44.06097" lon="3.01803">
        <ele>735</ele>
        <time>2018-05-19T09:23:42Z</time>
      </trkpt>
      <trkpt lat="44.06096" lon="3.01798">
        <ele>735</ele>
        <time>2018-05-19T09:23:43Z</time>
      </trkpt>
      <trkpt lat="44.06096" lon="3.01795">
        <ele>735</ele>
        <time>2018-05-19T09:23:44Z</time>
      </trkpt>
      <trkpt lat="44.06097" lon="3.01791">
        <ele>734.8</ele>
        <time>2018-05-19T09:23:45Z</time>
      </trkpt>
      <trkpt lat="44.061" lon="3.01784">
        <ele>734.4</ele>
        <time>2018-05-19T09:23:47Z</time>
      </trkpt>
      <trkpt lat="44.06101" lon="3.01781">
        <ele>734.2</ele>
        <time>2018-05-19T09:23:48Z</time>
      </trkpt>
      <trkpt lat="44.06104" lon="3.01778">
        <ele>733.9</ele>
        <time>2018-05-19T09:23:49Z</time>
      </trkpt>
      <trkpt lat="44.06106" lon="3.01774">
        <ele>733.6</ele>
        <time>2018-05-19T09:23:50Z</time>
      </trkpt>
      <trkpt lat="44.06109" lon="3.01771">
        <ele>733.4</ele>
        <time>2018-05-19T09:23:51Z</time>
      </trkpt>
      <trkpt lat="44.06111" lon="3.01768">
        <ele>733.3</ele>
        <time>2018-05-19T09:23:52Z</time>
      </trkpt>
      <trkpt lat="44.06114" lon="3.01764">
        <ele>733.1</ele>
        <time>2018-05-19T09:23:53Z</time>
      </trkpt>
      <trkpt lat="44.06116" lon="3.01761">
        <ele>733</ele>
        <time>2018-05-19T09:23:54Z</time>
      </trkpt>
      <trkpt lat="44.06119" lon="3.01758">
        <ele>732.9</ele>
        <time>2018-05-19T09:23:55Z</time>
      </trkpt>
      <trkpt lat="44.06122" lon="3.01755">
        <ele>732.8</ele>
        <time>2018-05-19T09:23:56Z</time>
      </trkpt>
      <trkpt lat="44.06125" lon="3.01752">
        <ele>732.6</ele>
        <time>2018-05-19T09:23:57Z</time>
      </trkpt>
      <trkpt lat="44.06128" lon="3.01748">
        <ele>732.5</ele>
        <time>2018-05-19T09:23:58Z</time>
      </trkpt>
      <trkpt lat="44.0613" lon="3.01745">
        <ele>732.4</ele>
        <time>2018-05-19T09:23:59Z</time>
      </trkpt>
      <trkpt lat="44.06133" lon="3.01742">
        <ele>732.3</ele>
        <time>2018-05-19T09:24:00Z</time>
      </trkpt>
      <trkpt lat="44.06136" lon="3.01739">
        <ele>732.2</ele>
        <time>2018-05-19T09:24:01Z</time>
      </trkpt>
      <trkpt lat="44.06139" lon="3.01735">
        <ele>732</ele>
        <time>2018-05-19T09:24:02Z</time>
      </trkpt>
      <trkpt lat="44.06141" lon="3.01732">
        <ele>731.9</ele>
        <time>2018-05-19T09:24:03Z</time>
      </trkpt>
      <trkpt lat="44.06144" lon="3.01728">
        <ele>731.7</ele>
        <time>2018-05-19T09:24:04Z</time>
      </trkpt>
      <trkpt lat="44.06147" lon="3.01724">
        <ele>731.6</ele>
        <time>2018-05-19T09:24:05Z</time>
      </trkpt>
      <trkpt lat="44.0615" lon="3.0172">
        <ele>731.5</ele>
        <time>2018-05-19T09:24:06Z</time>
      </trkpt>
      <trkpt lat="44.06153" lon="3.01716">
        <ele>731.2</ele>
        <time>2018-05-19T09:24:07Z</time>
      </trkpt>
      <trkpt lat="44.06157" lon="3.0171">
        <ele>730.8</ele>
        <time>2018-05-19T09:24:08Z</time>
      </trkpt>
      <trkpt lat="44.06161" lon="3.01705">
        <ele>730.4</ele>
        <time>2018-05-19T09:24:09Z</time>
      </trkpt>
      <trkpt lat="44.06165" lon="3.017">
        <ele>730.2</ele>
        <time>2018-05-19T09:24:10Z</time>
      </trkpt>
      <trkpt lat="44.06169" lon="3.01694">
        <ele>730</ele>
        <time>2018-05-19T09:24:11Z</time>
      </trkpt>
      <trkpt lat="44.06174" lon="3.01688">
        <ele>729.7</ele>
        <time>2018-05-19T09:24:12Z</time>
      </trkpt>
      <trkpt lat="44.06178" lon="3.01682">
        <ele>729.6</ele>
        <time>2018-05-19T09:24:13Z</time>
      </trkpt>
      <trkpt lat="44.06181" lon="3.01675">
        <ele>729.4</ele>
        <time>2018-05-19T09:24:14Z</time>
      </trkpt>
      <trkpt lat="44.06185" lon="3.01667">
        <ele>729.3</ele>
        <time>2018-05-19T09:24:15Z</time>
      </trkpt>
      <trkpt lat="44.0619" lon="3.0166">
        <ele>729.1</ele>
        <time>2018-05-19T09:24:16Z</time>
      </trkpt>
      <trkpt lat="44.06197" lon="3.01654">
        <ele>729</ele>
        <time>2018-05-19T09:24:17Z</time>
      </trkpt>
      <trkpt lat="44.06202" lon="3.01647">
        <ele>728.8</ele>
        <time>2018-05-19T09:24:18Z</time>
      </trkpt>
      <trkpt lat="44.06208" lon="3.0164">
        <ele>728.7</ele>
        <time>2018-05-19T09:24:19Z</time>
      </trkpt>
      <trkpt lat="44.06213" lon="3.01632">
        <ele>728.5</ele>
        <time>2018-05-19T09:24:20Z</time>
      </trkpt>
      <trkpt lat="44.06219" lon="3.01624">
        <ele>728.3</ele>
        <time>2018-05-19T09:24:21Z</time>
      </trkpt>
      <trkpt lat="44.06225" lon="3.01616">
        <ele>728.1</ele>
        <time>2018-05-19T09:24:22Z</time>
      </trkpt>
      <trkpt lat="44.06231" lon="3.01607">
        <ele>728</ele>
        <time>2018-05-19T09:24:23Z</time>
      </trkpt>
      <trkpt lat="44.06236" lon="3.016">
        <ele>727.8</ele>
        <time>2018-05-19T09:24:24Z</time>
      </trkpt>
      <trkpt lat="44.06241" lon="3.01591">
        <ele>727.6</ele>
        <time>2018-05-19T09:24:25Z</time>
      </trkpt>
      <trkpt lat="44.06247" lon="3.01584">
        <ele>727.4</ele>
        <time>2018-05-19T09:24:26Z</time>
      </trkpt>
      <trkpt lat="44.06251" lon="3.01577">
        <ele>727.1</ele>
        <time>2018-05-19T09:24:27Z</time>
      </trkpt>
      <trkpt lat="44.06255" lon="3.01569">
        <ele>726.9</ele>
        <time>2018-05-19T09:24:28Z</time>
      </trkpt>
      <trkpt lat="44.06259" lon="3.01561">
        <ele>726.6</ele>
        <time>2018-05-19T09:24:29Z</time>
      </trkpt>
      <trkpt lat="44.06263" lon="3.01554">
        <ele>726.4</ele>
        <time>2018-05-19T09:24:30Z</time>
      </trkpt>
      <trkpt lat="44.06266" lon="3.01548">
        <ele>726.2</ele>
        <time>2018-05-19T09:24:31Z</time>
      </trkpt>
      <trkpt lat="44.06271" lon="3.01541">
        <ele>726</ele>
        <time>2018-05-19T09:24:32Z</time>
      </trkpt>
      <trkpt lat="44.06275" lon="3.01535">
        <ele>725.8</ele>
        <time>2018-05-19T09:24:33Z</time>
      </trkpt>
      <trkpt lat="44.06278" lon="3.0153">
        <ele>725.6</ele>
        <time>2018-05-19T09:24:34Z</time>
      </trkpt>
      <trkpt lat="44.06281" lon="3.01525">
        <ele>725.5</ele>
        <time>2018-05-19T09:24:35Z</time>
      </trkpt>
      <trkpt lat="44.06284" lon="3.01518">
        <ele>725.2</ele>
        <time>2018-05-19T09:24:36Z</time>
      </trkpt>
      <trkpt lat="44.06288" lon="3.01512">
        <ele>725</ele>
        <time>2018-05-19T09:24:37Z</time>
      </trkpt>
      <trkpt lat="44.06291" lon="3.01507">
        <ele>724.8</ele>
        <time>2018-05-19T09:24:38Z</time>
      </trkpt>
      <trkpt lat="44.06294" lon="3.01503">
        <ele>724.6</ele>
        <time>2018-05-19T09:24:39Z</time>
      </trkpt>
      <trkpt lat="44.06297" lon="3.01497">
        <ele>724.4</ele>
        <time>2018-05-19T09:24:40Z</time>
      </trkpt>
      <trkpt lat="44.063" lon="3.01492">
        <ele>724.2</ele>
        <time>2018-05-19T09:24:41Z</time>
      </trkpt>
      <trkpt lat="44.06302" lon="3.01486">
        <ele>724</ele>
        <time>2018-05-19T09:24:42Z</time>
      </trkpt>
      <trkpt lat="44.06304" lon="3.01479">
        <ele>723.8</ele>
        <time>2018-05-19T09:24:43Z</time>
      </trkpt>
      <trkpt lat="44.06306" lon="3.01473">
        <ele>723.5</ele>
        <time>2018-05-19T09:24:44Z</time>
      </trkpt>
      <trkpt lat="44.06309" lon="3.01467">
        <ele>723.3</ele>
        <time>2018-05-19T09:24:45Z</time>
      </trkpt>
      <trkpt lat="44.0631" lon="3.0146">
        <ele>723</ele>
        <time>2018-05-19T09:24:46Z</time>
      </trkpt>
      <trkpt lat="44.06313" lon="3.01453">
        <ele>722.7</ele>
        <time>2018-05-19T09:24:47Z</time>
      </trkpt>
      <trkpt lat="44.06315" lon="3.01448">
        <ele>722.5</ele>
        <time>2018-05-19T09:24:48Z</time>
      </trkpt>
      <trkpt lat="44.06317" lon="3.01442">
        <ele>722.3</ele>
        <time>2018-05-19T09:24:49Z</time>
      </trkpt>
      <trkpt lat="44.06318" lon="3.01436">
        <ele>722.1</ele>
        <time>2018-05-19T09:24:50Z</time>
      </trkpt>
      <trkpt lat="44.06318" lon="3.01428">
        <ele>722</ele>
        <time>2018-05-19T09:24:51Z</time>
      </trkpt>
      <trkpt lat="44.0632" lon="3.01421">
        <ele>721.8</ele>
        <time>2018-05-19T09:24:52Z</time>
      </trkpt>
      <trkpt lat="44.0632" lon="3.01415">
        <ele>721.6</ele>
        <time>2018-05-19T09:24:53Z</time>
      </trkpt>
      <trkpt lat="44.06321" lon="3.0141">
        <ele>721.5</ele>
        <time>2018-05-19T09:24:54Z</time>
      </trkpt>
      <trkpt lat="44.06323" lon="3.01404">
        <ele>721.2</ele>
        <time>2018-05-19T09:24:55Z</time>
      </trkpt>
      <trkpt lat="44.06325" lon="3.01397">
        <ele>721</ele>
        <time>2018-05-19T09:24:56Z</time>
      </trkpt>
      <trkpt lat="44.06329" lon="3.0139">
        <ele>720.7</ele>
        <time>2018-05-19T09:24:57Z</time>
      </trkpt>
      <trkpt lat="44.06331" lon="3.01387">
        <ele>720.5</ele>
        <time>2018-05-19T09:24:58Z</time>
      </trkpt>
      <trkpt lat="44.06336" lon="3.01383">
        <ele>720.2</ele>
        <time>2018-05-19T09:24:59Z</time>
      </trkpt>
      <trkpt lat="44.06339" lon="3.0138">
        <ele>720.1</ele>
        <time>2018-05-19T09:25:00Z</time>
      </trkpt>
      <trkpt lat="44.06344" lon="3.01379">
        <ele>719.9</ele>
        <time>2018-05-19T09:25:01Z</time>
      </trkpt>
      <trkpt lat="44.0635" lon="3.01376">
        <ele>719.7</ele>
        <time>2018-05-19T09:25:02Z</time>
      </trkpt>
      <trkpt lat="44.06356" lon="3.01374">
        <ele>719.5</ele>
        <time>2018-05-19T09:25:03Z</time>
      </trkpt>
      <trkpt lat="44.06363" lon="3.01372">
        <ele>719.2</ele>
        <time>2018-05-19T09:25:04Z</time>
      </trkpt>
      <trkpt lat="44.0637" lon="3.01373">
        <ele>719</ele>
        <time>2018-05-19T09:25:05Z</time>
      </trkpt>
      <trkpt lat="44.06376" lon="3.01376">
        <ele>718.7</ele>
        <time>2018-05-19T09:25:06Z</time>
      </trkpt>
      <trkpt lat="44.06382" lon="3.01382">
        <ele>718.5</ele>
        <time>2018-05-19T09:25:07Z</time>
      </trkpt>
      <trkpt lat="44.06387" lon="3.0139">
        <ele>718.2</ele>
        <time>2018-05-19T09:25:08Z</time>
      </trkpt>
      <trkpt lat="44.06392" lon="3.01398">
        <ele>717.9</ele>
        <time>2018-05-19T09:25:09Z</time>
      </trkpt>
      <trkpt lat="44.06397" lon="3.01407">
        <ele>717.6</ele>
        <time>2018-05-19T09:25:10Z</time>
      </trkpt>
      <trkpt lat="44.06402" lon="3.01416">
        <ele>717.2</ele>
        <time>2018-05-19T09:25:11Z</time>
      </trkpt>
      <trkpt lat="44.06407" lon="3.01423">
        <ele>716.8</ele>
        <time>2018-05-19T09:25:12Z</time>
      </trkpt>
      <trkpt lat="44.06411" lon="3.01432">
        <ele>716.6</ele>
        <time>2018-05-19T09:25:13Z</time>
      </trkpt>
      <trkpt lat="44.06414" lon="3.01442">
        <ele>716.3</ele>
        <time>2018-05-19T09:25:14Z</time>
      </trkpt>
      <trkpt lat="44.06418" lon="3.0145">
        <ele>716</ele>
        <time>2018-05-19T09:25:15Z</time>
      </trkpt>
      <trkpt lat="44.06425" lon="3.01454">
        <ele>715.7</ele>
        <time>2018-05-19T09:25:16Z</time>
      </trkpt>
      <trkpt lat="44.06432" lon="3.01459">
        <ele>715.2</ele>
        <time>2018-05-19T09:25:17Z</time>
      </trkpt>
      <trkpt lat="44.06437" lon="3.0146">
        <ele>714.9</ele>
        <time>2018-05-19T09:25:18Z</time>
      </trkpt>
      <trkpt lat="44.06441" lon="3.0146">
        <ele>714.6</ele>
        <time>2018-05-19T09:25:19Z</time>
      </trkpt>
      <trkpt lat="44.06444" lon="3.01458">
        <ele>714.5</ele>
        <time>2018-05-19T09:25:20Z</time>
      </trkpt>
      <trkpt lat="44.06448" lon="3.01457">
        <ele>714.3</ele>
        <time>2018-05-19T09:25:21Z</time>
      </trkpt>
      <trkpt lat="44.06454" lon="3.01452">
        <ele>714</ele>
        <time>2018-05-19T09:25:23Z</time>
      </trkpt>
      <trkpt lat="44.06457" lon="3.0145">
        <ele>713.9</ele>
        <time>2018-05-19T09:25:24Z</time>
      </trkpt>
      <trkpt lat="44.06459" lon="3.01449">
        <ele>713.8</ele>
        <time>2018-05-19T09:25:25Z</time>
      </trkpt>
      <trkpt lat="44.06463" lon="3.01446">
        <ele>713.6</ele>
        <time>2018-05-19T09:25:26Z</time>
      </trkpt>
      <trkpt lat="44.06467" lon="3.01443">
        <ele>713.3</ele>
        <time>2018-05-19T09:25:27Z</time>
      </trkpt>
      <trkpt lat="44.06474" lon="3.01439">
        <ele>712.9</ele>
        <time>2018-05-19T09:25:29Z</time>
      </trkpt>
      <trkpt lat="44.06479" lon="3.01437">
        <ele>712.7</ele>
        <time>2018-05-19T09:25:30Z</time>
      </trkpt>
      <trkpt lat="44.06485" lon="3.01433">
        <ele>712.4</ele>
        <time>2018-05-19T09:25:31Z</time>
      </trkpt>
      <trkpt lat="44.06491" lon="3.0143">
        <ele>712.1</ele>
        <time>2018-05-19T09:25:32Z</time>
      </trkpt>
      <trkpt lat="44.06497" lon="3.01426">
        <ele>711.9</ele>
        <time>2018-05-19T09:25:33Z</time>
      </trkpt>
      <trkpt lat="44.06503" lon="3.01426">
        <ele>711.4</ele>
        <time>2018-05-19T09:25:34Z</time>
      </trkpt>
      <trkpt lat="44.06508" lon="3.01428">
        <ele>711</ele>
        <time>2018-05-19T09:25:35Z</time>
      </trkpt>
      <trkpt lat="44.06512" lon="3.01432">
        <ele>710.5</ele>
        <time>2018-05-19T09:25:36Z</time>
      </trkpt>
      <trkpt lat="44.06516" lon="3.01439">
        <ele>710</ele>
        <time>2018-05-19T09:25:37Z</time>
      </trkpt>
      <trkpt lat="44.0652" lon="3.01442">
        <ele>709.6</ele>
        <time>2018-05-19T09:25:38Z</time>
      </trkpt>
      <trkpt lat="44.06524" lon="3.01447">
        <ele>709.2</ele>
        <time>2018-05-19T09:25:39Z</time>
      </trkpt>
      <trkpt lat="44.06529" lon="3.01451">
        <ele>708.8</ele>
        <time>2018-05-19T09:25:40Z</time>
      </trkpt>
      <trkpt lat="44.06532" lon="3.0145">
        <ele>708.5</ele>
        <time>2018-05-19T09:25:41Z</time>
      </trkpt>
      <trkpt lat="44.06536" lon="3.01449">
        <ele>708.1</ele>
        <time>2018-05-19T09:25:42Z</time>
      </trkpt>
      <trkpt lat="44.06541" lon="3.01449">
        <ele>707.6</ele>
        <time>2018-05-19T09:25:43Z</time>
      </trkpt>
      <trkpt lat="44.06546" lon="3.01446">
        <ele>706.9</ele>
        <time>2018-05-19T09:25:44Z</time>
      </trkpt>
      <trkpt lat="44.06551" lon="3.01443">
        <ele>706.3</ele>
        <time>2018-05-19T09:25:45Z</time>
      </trkpt>
      <trkpt lat="44.06554" lon="3.0144">
        <ele>705.9</ele>
        <time>2018-05-19T09:25:46Z</time>
      </trkpt>
      <trkpt lat="44.06558" lon="3.01439">
        <ele>705.6</ele>
        <time>2018-05-19T09:25:47Z</time>
      </trkpt>
      <trkpt lat="44.06562" lon="3.01439">
        <ele>705.2</ele>
        <time>2018-05-19T09:25:49Z</time>
      </trkpt>
      <trkpt lat="44.06564" lon="3.01435">
        <ele>704.9</ele>
        <time>2018-05-19T09:25:51Z</time>
      </trkpt>
      <trkpt lat="44.06567" lon="3.01432">
        <ele>704.4</ele>
        <time>2018-05-19T09:25:52Z</time>
      </trkpt>
      <trkpt lat="44.0657" lon="3.01428">
        <ele>702.6</ele>
        <time>2018-05-19T09:25:53Z</time>
      </trkpt>
      <trkpt lat="44.06575" lon="3.01424">
        <ele>701.9</ele>
        <time>2018-05-19T09:25:55Z</time>
      </trkpt>
      <trkpt lat="44.06579" lon="3.01421">
        <ele>701.3</ele>
        <time>2018-05-19T09:25:56Z</time>
      </trkpt>
      <trkpt lat="44.06582" lon="3.01418">
        <ele>700.9</ele>
        <time>2018-05-19T09:25:57Z</time>
      </trkpt>
      <trkpt lat="44.06586" lon="3.01416">
        <ele>700.4</ele>
        <time>2018-05-19T09:25:59Z</time>
      </trkpt>
      <trkpt lat="44.06588" lon="3.01418">
        <ele>700.1</ele>
        <time>2018-05-19T09:26:04Z</time>
      </trkpt>
      <trkpt lat="44.06591" lon="3.01419">
        <ele>699.7</ele>
        <time>2018-05-19T09:26:13Z</time>
      </trkpt>
      <trkpt lat="44.06594" lon="3.01417">
        <ele>699.4</ele>
        <time>2018-05-19T09:26:15Z</time>
      </trkpt>
      <trkpt lat="44.06597" lon="3.01414">
        <ele>698.9</ele>
        <time>2018-05-19T09:26:17Z</time>
      </trkpt>
      <trkpt lat="44.06603" lon="3.01413">
        <ele>698.2</ele>
        <time>2018-05-19T09:26:19Z</time>
      </trkpt>
      <trkpt lat="44.06607" lon="3.01413">
        <ele>697.5</ele>
        <time>2018-05-19T09:26:20Z</time>
      </trkpt>
      <trkpt lat="44.06611" lon="3.01413">
        <ele>696.7</ele>
        <time>2018-05-19T09:26:21Z</time>
      </trkpt>
      <trkpt lat="44.06615" lon="3.01412">
        <ele>696.1</ele>
        <time>2018-05-19T09:26:22Z</time>
      </trkpt>
      <trkpt lat="44.06617" lon="3.01411">
        <ele>695.6</ele>
        <time>2018-05-19T09:26:23Z</time>
      </trkpt>
      <trkpt lat="44.06622" lon="3.0141">
        <ele>695.6</ele>
        <time>2018-05-19T09:26:25Z</time>
      </trkpt>
      <trkpt lat="44.06625" lon="3.0141">
        <ele>695.6</ele>
        <time>2018-05-19T09:26:26Z</time>
      </trkpt>
      <trkpt lat="44.0663" lon="3.01411">
        <ele>695.6</ele>
        <time>2018-05-19T09:26:28Z</time>
      </trkpt>
      <trkpt lat="44.06634" lon="3.01412">
        <ele>696.5</ele>
        <time>2018-05-19T09:26:29Z</time>
      </trkpt>
      <trkpt lat="44.06638" lon="3.01412">
        <ele>696.5</ele>
        <time>2018-05-19T09:26:30Z</time>
      </trkpt>
      <trkpt lat="44.06642" lon="3.01408">
        <ele>695.6</ele>
        <time>2018-05-19T09:26:32Z</time>
      </trkpt>
      <trkpt lat="44.06639" lon="3.01402">
        <ele>693.7</ele>
        <time>2018-05-19T09:26:34Z</time>
      </trkpt>
      <trkpt lat="44.06637" lon="3.01399">
        <ele>693.7</ele>
        <time>2018-05-19T09:26:35Z</time>
      </trkpt>
      <trkpt lat="44.06636" lon="3.01396">
        <ele>692.7</ele>
        <time>2018-05-19T09:26:36Z</time>
      </trkpt>
      <trkpt lat="44.06635" lon="3.0139">
        <ele>690.7</ele>
        <time>2018-05-19T09:26:38Z</time>
      </trkpt>
      <trkpt lat="44.06634" lon="3.01385">
        <ele>689.5</ele>
        <time>2018-05-19T09:26:53Z</time>
      </trkpt>
      <trkpt lat="44.06636" lon="3.01382">
        <ele>689.5</ele>
        <time>2018-05-19T09:26:57Z</time>
      </trkpt>
      <trkpt lat="44.06635" lon="3.01376">
        <ele>687.2</ele>
        <time>2018-05-19T09:26:59Z</time>
      </trkpt>
      <trkpt lat="44.06633" lon="3.0137">
        <ele>686.1</ele>
        <time>2018-05-19T09:27:01Z</time>
      </trkpt>
      <trkpt lat="44.06632" lon="3.01367">
        <ele>685.1</ele>
        <time>2018-05-19T09:27:03Z</time>
      </trkpt>
      <trkpt lat="44.0663" lon="3.01362">
        <ele>684</ele>
        <time>2018-05-19T09:27:06Z</time>
      </trkpt>
      <trkpt lat="44.06627" lon="3.01359">
        <ele>683</ele>
        <time>2018-05-19T09:27:08Z</time>
      </trkpt>
      <trkpt lat="44.06629" lon="3.01356">
        <ele>681.9</ele>
        <time>2018-05-19T09:27:12Z</time>
      </trkpt>
      <trkpt lat="44.06629" lon="3.01359">
        <ele>682.9</ele>
        <time>2018-05-19T09:27:18Z</time>
      </trkpt>
      <trkpt lat="44.06626" lon="3.0136">
        <ele>683</ele>
        <time>2018-05-19T09:27:40Z</time>
      </trkpt>
      <trkpt lat="44.06629" lon="3.01359">
        <ele>682.9</ele>
        <time>2018-05-19T09:27:44Z</time>
      </trkpt>
      <trkpt lat="44.06632" lon="3.01358">
        <ele>682.8</ele>
        <time>2018-05-19T09:27:51Z</time>
      </trkpt>
      <trkpt lat="44.06635" lon="3.01358">
        <ele>682.7</ele>
        <time>2018-05-19T09:28:34Z</time>
      </trkpt>
      <trkpt lat="44.06632" lon="3.01356">
        <ele>682.8</ele>
        <time>2018-05-19T09:28:37Z</time>
      </trkpt>
      <trkpt lat="44.06629" lon="3.01354">
        <ele>681.8</ele>
        <time>2018-05-19T09:28:41Z</time>
      </trkpt>
      <trkpt lat="44.06626" lon="3.01355">
        <ele>681.8</ele>
        <time>2018-05-19T09:28:45Z</time>
      </trkpt>
      <trkpt lat="44.06626" lon="3.01351">
        <ele>681.2</ele>
        <time>2018-05-19T09:28:52Z</time>
      </trkpt>
      <trkpt lat="44.06627" lon="3.01344">
        <ele>679.9</ele>
        <time>2018-05-19T09:28:55Z</time>
      </trkpt>
      <trkpt lat="44.06628" lon="3.01339">
        <ele>679.1</ele>
        <time>2018-05-19T09:28:56Z</time>
      </trkpt>
      <trkpt lat="44.06628" lon="3.01335">
        <ele>678.2</ele>
        <time>2018-05-19T09:28:57Z</time>
      </trkpt>
      <trkpt lat="44.06629" lon="3.01331">
        <ele>677.6</ele>
        <time>2018-05-19T09:28:58Z</time>
      </trkpt>
      <trkpt lat="44.06629" lon="3.01327">
        <ele>676.9</ele>
        <time>2018-05-19T09:29:00Z</time>
      </trkpt>
      <trkpt lat="44.06623" lon="3.01317">
        <ele>675.3</ele>
        <time>2018-05-19T09:29:02Z</time>
      </trkpt>
      <trkpt lat="44.06623" lon="3.01309">
        <ele>674.2</ele>
        <time>2018-05-19T09:29:03Z</time>
      </trkpt>
      <trkpt lat="44.0662" lon="3.01302">
        <ele>673.4</ele>
        <time>2018-05-19T09:29:04Z</time>
      </trkpt>
      <trkpt lat="44.06617" lon="3.01294">
        <ele>672.6</ele>
        <time>2018-05-19T09:29:05Z</time>
      </trkpt>
      <trkpt lat="44.06615" lon="3.01288">
        <ele>671.9</ele>
        <time>2018-05-19T09:29:06Z</time>
      </trkpt>
      <trkpt lat="44.06612" lon="3.01285">
        <ele>671.5</ele>
        <time>2018-05-19T09:29:07Z</time>
      </trkpt>
      <trkpt lat="44.06616" lon="3.01277">
        <ele>670.5</ele>
        <time>2018-05-19T09:29:09Z</time>
      </trkpt>
      <trkpt lat="44.06622" lon="3.01269">
        <ele>669.8</ele>
        <time>2018-05-19T09:29:10Z</time>
      </trkpt>
      <trkpt lat="44.06622" lon="3.01262">
        <ele>669.4</ele>
        <time>2018-05-19T09:29:11Z</time>
      </trkpt>
      <trkpt lat="44.06623" lon="3.01254">
        <ele>669</ele>
        <time>2018-05-19T09:29:12Z</time>
      </trkpt>
      <trkpt lat="44.06626" lon="3.01248">
        <ele>668.6</ele>
        <time>2018-05-19T09:29:13Z</time>
      </trkpt>
      <trkpt lat="44.06628" lon="3.01243">
        <ele>668.2</ele>
        <time>2018-05-19T09:29:14Z</time>
      </trkpt>
      <trkpt lat="44.0663" lon="3.01235">
        <ele>667.6</ele>
        <time>2018-05-19T09:29:15Z</time>
      </trkpt>
      <trkpt lat="44.06636" lon="3.01223">
        <ele>666.4</ele>
        <time>2018-05-19T09:29:16Z</time>
      </trkpt>
      <trkpt lat="44.06638" lon="3.0121">
        <ele>664.8</ele>
        <time>2018-05-19T09:29:17Z</time>
      </trkpt>
      <trkpt lat="44.06643" lon="3.01197">
        <ele>660.9</ele>
        <time>2018-05-19T09:29:18Z</time>
      </trkpt>
      <trkpt lat="44.06649" lon="3.01197">
        <ele>658.1</ele>
        <time>2018-05-19T09:29:19Z</time>
      </trkpt>
      <trkpt lat="44.06655" lon="3.01201">
        <ele>655.8</ele>
        <time>2018-05-19T09:29:20Z</time>
      </trkpt>
      <trkpt lat="44.06658" lon="3.01197">
        <ele>653.5</ele>
        <time>2018-05-19T09:29:21Z</time>
      </trkpt>
      <trkpt lat="44.06662" lon="3.01195">
        <ele>650.5</ele>
        <time>2018-05-19T09:29:22Z</time>
      </trkpt>
      <trkpt lat="44.06668" lon="3.01192">
        <ele>646.9</ele>
        <time>2018-05-19T09:29:23Z</time>
      </trkpt>
      <trkpt lat="44.06673" lon="3.01191">
        <ele>644</ele>
        <time>2018-05-19T09:29:24Z</time>
      </trkpt>
      <trkpt lat="44.06677" lon="3.01193">
        <ele>641.7</ele>
        <time>2018-05-19T09:29:25Z</time>
      </trkpt>
      <trkpt lat="44.06682" lon="3.01195">
        <ele>639.6</ele>
        <time>2018-05-19T09:29:26Z</time>
      </trkpt>
      <trkpt lat="44.06685" lon="3.01197">
        <ele>637.4</ele>
        <time>2018-05-19T09:29:27Z</time>
      </trkpt>
      <trkpt lat="44.06688" lon="3.01199">
        <ele>635.8</ele>
        <time>2018-05-19T09:29:28Z</time>
      </trkpt>
      <trkpt lat="44.06693" lon="3.012">
        <ele>633.1</ele>
        <time>2018-05-19T09:29:30Z</time>
      </trkpt>
      <trkpt lat="44.06699" lon="3.01201">
        <ele>630.9</ele>
        <time>2018-05-19T09:29:32Z</time>
      </trkpt>
      <trkpt lat="44.06702" lon="3.012">
        <ele>630.7</ele>
        <time>2018-05-19T09:29:33Z</time>
      </trkpt>
      <trkpt lat="44.06704" lon="3.01201">
        <ele>630.6</ele>
        <time>2018-05-19T09:29:34Z</time>
      </trkpt>
      <trkpt lat="44.06709" lon="3.01202">
        <ele>630.4</ele>
        <time>2018-05-19T09:29:36Z</time>
      </trkpt>
      <trkpt lat="44.06713" lon="3.01203">
        <ele>630.3</ele>
        <time>2018-05-19T09:29:38Z</time>
      </trkpt>
      <trkpt lat="44.06716" lon="3.01201">
        <ele>630.2</ele>
        <time>2018-05-19T09:29:40Z</time>
      </trkpt>
      <trkpt lat="44.06716" lon="3.01195">
        <ele>630</ele>
        <time>2018-05-19T09:29:44Z</time>
      </trkpt>
      <trkpt lat="44.06713" lon="3.01192">
        <ele>628.2</ele>
        <time>2018-05-19T09:29:45Z</time>
      </trkpt>
      <trkpt lat="44.06709" lon="3.01188">
        <ele>626.4</ele>
        <time>2018-05-19T09:29:46Z</time>
      </trkpt>
      <trkpt lat="44.06706" lon="3.01185">
        <ele>625.4</ele>
        <time>2018-05-19T09:29:47Z</time>
      </trkpt>
      <trkpt lat="44.06704" lon="3.01181">
        <ele>623.6</ele>
        <time>2018-05-19T09:29:49Z</time>
      </trkpt>
      <trkpt lat="44.06707" lon="3.01177">
        <ele>624.3</ele>
        <time>2018-05-19T09:29:50Z</time>
      </trkpt>
      <trkpt lat="44.06712" lon="3.01176">
        <ele>625.1</ele>
        <time>2018-05-19T09:29:51Z</time>
      </trkpt>
      <trkpt lat="44.06716" lon="3.01175">
        <ele>626</ele>
        <time>2018-05-19T09:29:52Z</time>
      </trkpt>
      <trkpt lat="44.06721" lon="3.01176">
        <ele>626.7</ele>
        <time>2018-05-19T09:29:53Z</time>
      </trkpt>
      <trkpt lat="44.06725" lon="3.01176">
        <ele>627.2</ele>
        <time>2018-05-19T09:29:54Z</time>
      </trkpt>
      <trkpt lat="44.06723" lon="3.01168">
        <ele>626.4</ele>
        <time>2018-05-19T09:29:57Z</time>
      </trkpt>
      <trkpt lat="44.06721" lon="3.01165">
        <ele>625.8</ele>
        <time>2018-05-19T09:29:58Z</time>
      </trkpt>
      <trkpt lat="44.06701" lon="3.0115">
        <ele>620.6</ele>
        <time>2018-05-19T09:30:00Z</time>
      </trkpt>
      <trkpt lat="44.06696" lon="3.01146">
        <ele>619</ele>
        <time>2018-05-19T09:30:01Z</time>
      </trkpt>
      <trkpt lat="44.06691" lon="3.01139">
        <ele>617</ele>
        <time>2018-05-19T09:30:02Z</time>
      </trkpt>
      <trkpt lat="44.06688" lon="3.01137">
        <ele>616.3</ele>
        <time>2018-05-19T09:30:03Z</time>
      </trkpt>
      <trkpt lat="44.06687" lon="3.01132">
        <ele>615.1</ele>
        <time>2018-05-19T09:30:04Z</time>
      </trkpt>
      <trkpt lat="44.06688" lon="3.01129">
        <ele>614.1</ele>
        <time>2018-05-19T09:30:06Z</time>
      </trkpt>
      <trkpt lat="44.06691" lon="3.01129">
        <ele>612.5</ele>
        <time>2018-05-19T09:30:09Z</time>
      </trkpt>
      <trkpt lat="44.06694" lon="3.01129">
        <ele>610.9</ele>
        <time>2018-05-19T09:30:10Z</time>
      </trkpt>
      <trkpt lat="44.06699" lon="3.01128">
        <ele>607.1</ele>
        <time>2018-05-19T09:30:12Z</time>
      </trkpt>
      <trkpt lat="44.06701" lon="3.01118">
        <ele>601.7</ele>
        <time>2018-05-19T09:30:15Z</time>
      </trkpt>
      <trkpt lat="44.06701" lon="3.01113">
        <ele>598.4</ele>
        <time>2018-05-19T09:30:16Z</time>
      </trkpt>
      <trkpt lat="44.06702" lon="3.01102">
        <ele>590.8</ele>
        <time>2018-05-19T09:30:17Z</time>
      </trkpt>
      <trkpt lat="44.06703" lon="3.01093">
        <ele>590.1</ele>
        <time>2018-05-19T09:30:18Z</time>
      </trkpt>
      <trkpt lat="44.06706" lon="3.01083">
        <ele>589.4</ele>
        <time>2018-05-19T09:30:19Z</time>
      </trkpt>
      <trkpt lat="44.0671" lon="3.01072">
        <ele>588</ele>
        <time>2018-05-19T09:30:20Z</time>
      </trkpt>
      <trkpt lat="44.06711" lon="3.01063">
        <ele>586.5</ele>
        <time>2018-05-19T09:30:21Z</time>
      </trkpt>
      <trkpt lat="44.0671" lon="3.01052">
        <ele>584.1</ele>
        <time>2018-05-19T09:30:22Z</time>
      </trkpt>
      <trkpt lat="44.06709" lon="3.01042">
        <ele>581.2</ele>
        <time>2018-05-19T09:30:23Z</time>
      </trkpt>
      <trkpt lat="44.06712" lon="3.01031">
        <ele>579.7</ele>
        <time>2018-05-19T09:30:24Z</time>
      </trkpt>
      <trkpt lat="44.06713" lon="3.0102">
        <ele>578.5</ele>
        <time>2018-05-19T09:30:25Z</time>
      </trkpt>
      <trkpt lat="44.06715" lon="3.0101">
        <ele>577.6</ele>
        <time>2018-05-19T09:30:26Z</time>
      </trkpt>
      <trkpt lat="44.06715" lon="3.00999">
        <ele>576.6</ele>
        <time>2018-05-19T09:30:27Z</time>
      </trkpt>
      <trkpt lat="44.06716" lon="3.00988">
        <ele>574.5</ele>
        <time>2018-05-19T09:30:28Z</time>
      </trkpt>
      <trkpt lat="44.06715" lon="3.00978">
        <ele>570.7</ele>
        <time>2018-05-19T09:30:29Z</time>
      </trkpt>
      <trkpt lat="44.06708" lon="3.00972">
        <ele>568.6</ele>
        <time>2018-05-19T09:30:30Z</time>
      </trkpt>
      <trkpt lat="44.06704" lon="3.00964">
        <ele>567.4</ele>
        <time>2018-05-19T09:30:31Z</time>
      </trkpt>
      <trkpt lat="44.06702" lon="3.00954">
        <ele>566</ele>
        <time>2018-05-19T09:30:32Z</time>
      </trkpt>
      <trkpt lat="44.06702" lon="3.00944">
        <ele>564.1</ele>
        <time>2018-05-19T09:30:33Z</time>
      </trkpt>
      <trkpt lat="44.06699" lon="3.00932">
        <ele>561.7</ele>
        <time>2018-05-19T09:30:34Z</time>
      </trkpt>
      <trkpt lat="44.06697" lon="3.00922">
        <ele>559.8</ele>
        <time>2018-05-19T09:30:35Z</time>
      </trkpt>
      <trkpt lat="44.06692" lon="3.00912">
        <ele>558.7</ele>
        <time>2018-05-19T09:30:36Z</time>
      </trkpt>
      <trkpt lat="44.06693" lon="3.00907">
        <ele>558.2</ele>
        <time>2018-05-19T09:30:37Z</time>
      </trkpt>
      <trkpt lat="44.06691" lon="3.009">
        <ele>557.6</ele>
        <time>2018-05-19T09:30:39Z</time>
      </trkpt>
      <trkpt lat="44.0669" lon="3.00904">
        <ele>557.3</ele>
        <time>2018-05-19T09:30:47Z</time>
      </trkpt>
      <trkpt lat="44.06694" lon="3.00905">
        <ele>556.4</ele>
        <time>2018-05-19T09:30:50Z</time>
      </trkpt>
      <trkpt lat="44.06699" lon="3.00908">
        <ele>555.6</ele>
        <time>2018-05-19T09:30:51Z</time>
      </trkpt>
      <trkpt lat="44.06706" lon="3.00911">
        <ele>554.3</ele>
        <time>2018-05-19T09:30:52Z</time>
      </trkpt>
      <trkpt lat="44.0671" lon="3.00921">
        <ele>552.3</ele>
        <time>2018-05-19T09:30:53Z</time>
      </trkpt>
      <trkpt lat="44.06713" lon="3.00926">
        <ele>551.5</ele>
        <time>2018-05-19T09:30:54Z</time>
      </trkpt>
      <trkpt lat="44.06713" lon="3.00922">
        <ele>550.9</ele>
        <time>2018-05-19T09:30:56Z</time>
      </trkpt>
      <trkpt lat="44.06716" lon="3.00918">
        <ele>550.3</ele>
        <time>2018-05-19T09:30:58Z</time>
      </trkpt>
      <trkpt lat="44.06719" lon="3.00916">
        <ele>549.9</ele>
        <time>2018-05-19T09:30:59Z</time>
      </trkpt>
      <trkpt lat="44.0672" lon="3.00911">
        <ele>549.5</ele>
        <time>2018-05-19T09:31:00Z</time>
      </trkpt>
      <trkpt lat="44.06723" lon="3.00905">
        <ele>549.1</ele>
        <time>2018-05-19T09:31:01Z</time>
      </trkpt>
      <trkpt lat="44.06727" lon="3.00899">
        <ele>548.6</ele>
        <time>2018-05-19T09:31:02Z</time>
      </trkpt>
      <trkpt lat="44.06731" lon="3.00894">
        <ele>548.2</ele>
        <time>2018-05-19T09:31:03Z</time>
      </trkpt>
      <trkpt lat="44.06734" lon="3.00887">
        <ele>547.8</ele>
        <time>2018-05-19T09:31:04Z</time>
      </trkpt>
      <trkpt lat="44.06737" lon="3.0088">
        <ele>547.4</ele>
        <time>2018-05-19T09:31:05Z</time>
      </trkpt>
      <trkpt lat="44.06741" lon="3.00869">
        <ele>546.7</ele>
        <time>2018-05-19T09:31:06Z</time>
      </trkpt>
      <trkpt lat="44.06746" lon="3.0086">
        <ele>546.1</ele>
        <time>2018-05-19T09:31:07Z</time>
      </trkpt>
      <trkpt lat="44.06749" lon="3.00855">
        <ele>545.7</ele>
        <time>2018-05-19T09:31:08Z</time>
      </trkpt>
      <trkpt lat="44.06763" lon="3.00831">
        <ele>542.8</ele>
        <time>2018-05-19T09:31:10Z</time>
      </trkpt>
      <trkpt lat="44.06768" lon="3.00816">
        <ele>541.2</ele>
        <time>2018-05-19T09:31:11Z</time>
      </trkpt>
      <trkpt lat="44.06773" lon="3.00802">
        <ele>539.7</ele>
        <time>2018-05-19T09:31:12Z</time>
      </trkpt>
      <trkpt lat="44.06779" lon="3.00796">
        <ele>538.8</ele>
        <time>2018-05-19T09:31:13Z</time>
      </trkpt>
      <trkpt lat="44.0678" lon="3.00791">
        <ele>538.1</ele>
        <time>2018-05-19T09:31:14Z</time>
      </trkpt>
      <trkpt lat="44.06785" lon="3.00788">
        <ele>537.1</ele>
        <time>2018-05-19T09:31:15Z</time>
      </trkpt>
      <trkpt lat="44.06789" lon="3.00784">
        <ele>536.1</ele>
        <time>2018-05-19T09:31:16Z</time>
      </trkpt>
      <trkpt lat="44.06794" lon="3.0078">
        <ele>535.1</ele>
        <time>2018-05-19T09:31:17Z</time>
      </trkpt>
      <trkpt lat="44.06799" lon="3.00774">
        <ele>534.1</ele>
        <time>2018-05-19T09:31:18Z</time>
      </trkpt>
      <trkpt lat="44.06801" lon="3.00768">
        <ele>533.4</ele>
        <time>2018-05-19T09:31:19Z</time>
      </trkpt>
      <trkpt lat="44.06805" lon="3.0076">
        <ele>532.7</ele>
        <time>2018-05-19T09:31:20Z</time>
      </trkpt>
      <trkpt lat="44.06808" lon="3.00753">
        <ele>532.1</ele>
        <time>2018-05-19T09:31:21Z</time>
      </trkpt>
      <trkpt lat="44.06811" lon="3.00746">
        <ele>531</ele>
        <time>2018-05-19T09:31:22Z</time>
      </trkpt>
      <trkpt lat="44.06815" lon="3.00738">
        <ele>529.9</ele>
        <time>2018-05-19T09:31:23Z</time>
      </trkpt>
      <trkpt lat="44.06819" lon="3.00728">
        <ele>528</ele>
        <time>2018-05-19T09:31:24Z</time>
      </trkpt>
      <trkpt lat="44.06821" lon="3.00723">
        <ele>526.9</ele>
        <time>2018-05-19T09:31:25Z</time>
      </trkpt>
      <trkpt lat="44.06822" lon="3.00717">
        <ele>525.9</ele>
        <time>2018-05-19T09:31:26Z</time>
      </trkpt>
      <trkpt lat="44.06823" lon="3.00711">
        <ele>524.9</ele>
        <time>2018-05-19T09:31:27Z</time>
      </trkpt>
      <trkpt lat="44.06823" lon="3.00701">
        <ele>524.1</ele>
        <time>2018-05-19T09:31:28Z</time>
      </trkpt>
      <trkpt lat="44.06822" lon="3.00691">
        <ele>523.4</ele>
        <time>2018-05-19T09:31:29Z</time>
      </trkpt>
      <trkpt lat="44.06821" lon="3.00682">
        <ele>522.6</ele>
        <time>2018-05-19T09:31:30Z</time>
      </trkpt>
      <trkpt lat="44.06821" lon="3.00672">
        <ele>521.4</ele>
        <time>2018-05-19T09:31:31Z</time>
      </trkpt>
      <trkpt lat="44.06825" lon="3.00665">
        <ele>520.1</ele>
        <time>2018-05-19T09:31:32Z</time>
      </trkpt>
      <trkpt lat="44.06825" lon="3.0066">
        <ele>519.1</ele>
        <time>2018-05-19T09:31:33Z</time>
      </trkpt>
      <trkpt lat="44.06829" lon="3.00653">
        <ele>517.7</ele>
        <time>2018-05-19T09:31:34Z</time>
      </trkpt>
      <trkpt lat="44.06833" lon="3.00643">
        <ele>515.4</ele>
        <time>2018-05-19T09:31:35Z</time>
      </trkpt>
      <trkpt lat="44.06833" lon="3.00635">
        <ele>514</ele>
        <time>2018-05-19T09:31:37Z</time>
      </trkpt>
      <trkpt lat="44.06834" lon="3.00628">
        <ele>512.9</ele>
        <time>2018-05-19T09:31:39Z</time>
      </trkpt>
      <trkpt lat="44.06836" lon="3.00625">
        <ele>512.3</ele>
        <time>2018-05-19T09:31:41Z</time>
      </trkpt>
      <trkpt lat="44.06843" lon="3.00628">
        <ele>510.9</ele>
        <time>2018-05-19T09:32:22Z</time>
      </trkpt>
      <trkpt lat="44.06848" lon="3.00625">
        <ele>509.9</ele>
        <time>2018-05-19T09:32:25Z</time>
      </trkpt>
      <trkpt lat="44.06853" lon="3.00622">
        <ele>508.9</ele>
        <time>2018-05-19T09:32:27Z</time>
      </trkpt>
      <trkpt lat="44.06858" lon="3.00619">
        <ele>508</ele>
        <time>2018-05-19T09:32:29Z</time>
      </trkpt>
      <trkpt lat="44.06861" lon="3.00617">
        <ele>507.4</ele>
        <time>2018-05-19T09:32:30Z</time>
      </trkpt>
      <trkpt lat="44.06864" lon="3.00614">
        <ele>506.8</ele>
        <time>2018-05-19T09:32:31Z</time>
      </trkpt>
      <trkpt lat="44.06866" lon="3.00611">
        <ele>506.2</ele>
        <time>2018-05-19T09:32:32Z</time>
      </trkpt>
      <trkpt lat="44.06869" lon="3.00609">
        <ele>505.6</ele>
        <time>2018-05-19T09:32:33Z</time>
      </trkpt>
      <trkpt lat="44.06872" lon="3.00606">
        <ele>505</ele>
        <time>2018-05-19T09:32:34Z</time>
      </trkpt>
      <trkpt lat="44.06875" lon="3.00603">
        <ele>504.5</ele>
        <time>2018-05-19T09:32:35Z</time>
      </trkpt>
      <trkpt lat="44.06878" lon="3.00601">
        <ele>503.9</ele>
        <time>2018-05-19T09:32:36Z</time>
      </trkpt>
      <trkpt lat="44.06881" lon="3.00597">
        <ele>503.2</ele>
        <time>2018-05-19T09:32:37Z</time>
      </trkpt>
      <trkpt lat="44.06884" lon="3.00593">
        <ele>502.5</ele>
        <time>2018-05-19T09:32:38Z</time>
      </trkpt>
      <trkpt lat="44.06887" lon="3.00589">
        <ele>501.8</ele>
        <time>2018-05-19T09:32:39Z</time>
      </trkpt>
      <trkpt lat="44.0689" lon="3.0058">
        <ele>500.5</ele>
        <time>2018-05-19T09:32:40Z</time>
      </trkpt>
      <trkpt lat="44.06893" lon="3.00574">
        <ele>499.7</ele>
        <time>2018-05-19T09:32:41Z</time>
      </trkpt>
      <trkpt lat="44.06895" lon="3.00568">
        <ele>498.9</ele>
        <time>2018-05-19T09:32:42Z</time>
      </trkpt>
      <trkpt lat="44.06898" lon="3.00565">
        <ele>498.3</ele>
        <time>2018-05-19T09:32:43Z</time>
      </trkpt>
      <trkpt lat="44.06901" lon="3.0056">
        <ele>497.6</ele>
        <time>2018-05-19T09:32:45Z</time>
      </trkpt>
      <trkpt lat="44.06903" lon="3.00556">
        <ele>497.1</ele>
        <time>2018-05-19T09:32:46Z</time>
      </trkpt>
      <trkpt lat="44.06905" lon="3.00552">
        <ele>496.6</ele>
        <time>2018-05-19T09:32:47Z</time>
      </trkpt>
      <trkpt lat="44.06908" lon="3.00547">
        <ele>496.2</ele>
        <time>2018-05-19T09:32:48Z</time>
      </trkpt>
      <trkpt lat="44.06913" lon="3.0054">
        <ele>495.5</ele>
        <time>2018-05-19T09:32:49Z</time>
      </trkpt>
      <trkpt lat="44.06916" lon="3.00536">
        <ele>495.2</ele>
        <time>2018-05-19T09:32:50Z</time>
      </trkpt>
      <trkpt lat="44.0692" lon="3.00529">
        <ele>494.7</ele>
        <time>2018-05-19T09:32:51Z</time>
      </trkpt>
      <trkpt lat="44.06923" lon="3.00525">
        <ele>494.4</ele>
        <time>2018-05-19T09:32:52Z</time>
      </trkpt>
      <trkpt lat="44.06928" lon="3.0052">
        <ele>494</ele>
        <time>2018-05-19T09:32:53Z</time>
      </trkpt>
      <trkpt lat="44.06934" lon="3.00515">
        <ele>493.2</ele>
        <time>2018-05-19T09:32:54Z</time>
      </trkpt>
      <trkpt lat="44.0694" lon="3.00512">
        <ele>492.2</ele>
        <time>2018-05-19T09:32:55Z</time>
      </trkpt>
      <trkpt lat="44.06947" lon="3.00509">
        <ele>491</ele>
        <time>2018-05-19T09:32:56Z</time>
      </trkpt>
      <trkpt lat="44.06952" lon="3.00506">
        <ele>490</ele>
        <time>2018-05-19T09:32:57Z</time>
      </trkpt>
      <trkpt lat="44.06959" lon="3.00502">
        <ele>488.8</ele>
        <time>2018-05-19T09:32:58Z</time>
      </trkpt>
      <trkpt lat="44.06963" lon="3.00498">
        <ele>488.2</ele>
        <time>2018-05-19T09:32:59Z</time>
      </trkpt>
      <trkpt lat="44.06967" lon="3.00495">
        <ele>487.9</ele>
        <time>2018-05-19T09:33:00Z</time>
      </trkpt>
      <trkpt lat="44.06969" lon="3.00492">
        <ele>487.6</ele>
        <time>2018-05-19T09:33:01Z</time>
      </trkpt>
      <trkpt lat="44.06973" lon="3.00488">
        <ele>487.2</ele>
        <time>2018-05-19T09:33:02Z</time>
      </trkpt>
      <trkpt lat="44.06977" lon="3.00487">
        <ele>486.7</ele>
        <time>2018-05-19T09:33:03Z</time>
      </trkpt>
      <trkpt lat="44.0698" lon="3.00483">
        <ele>486.2</ele>
        <time>2018-05-19T09:33:04Z</time>
      </trkpt>
      <trkpt lat="44.06984" lon="3.00481">
        <ele>485.7</ele>
        <time>2018-05-19T09:33:05Z</time>
      </trkpt>
      <trkpt lat="44.06988" lon="3.00476">
        <ele>485</ele>
        <time>2018-05-19T09:33:06Z</time>
      </trkpt>
      <trkpt lat="44.0699" lon="3.00471">
        <ele>484.2</ele>
        <time>2018-05-19T09:33:07Z</time>
      </trkpt>
      <trkpt lat="44.06992" lon="3.00467">
        <ele>483.6</ele>
        <time>2018-05-19T09:33:08Z</time>
      </trkpt>
      <trkpt lat="44.06994" lon="3.00463">
        <ele>482.9</ele>
        <time>2018-05-19T09:33:09Z</time>
      </trkpt>
      <trkpt lat="44.06995" lon="3.00459">
        <ele>482.4</ele>
        <time>2018-05-19T09:33:10Z</time>
      </trkpt>
      <trkpt lat="44.06996" lon="3.00455">
        <ele>481.8</ele>
        <time>2018-05-19T09:33:11Z</time>
      </trkpt>
      <trkpt lat="44.06997" lon="3.0045">
        <ele>481.3</ele>
        <time>2018-05-19T09:33:12Z</time>
      </trkpt>
      <trkpt lat="44.06998" lon="3.00445">
        <ele>480.7</ele>
        <time>2018-05-19T09:33:13Z</time>
      </trkpt>
      <trkpt lat="44.07001" lon="3.0044">
        <ele>480.1</ele>
        <time>2018-05-19T09:33:14Z</time>
      </trkpt>
      <trkpt lat="44.07003" lon="3.00435">
        <ele>479.7</ele>
        <time>2018-05-19T09:33:15Z</time>
      </trkpt>
      <trkpt lat="44.07005" lon="3.00431">
        <ele>479.5</ele>
        <time>2018-05-19T09:33:16Z</time>
      </trkpt>
      <trkpt lat="44.07008" lon="3.00426">
        <ele>479.2</ele>
        <time>2018-05-19T09:33:17Z</time>
      </trkpt>
      <trkpt lat="44.07013" lon="3.00422">
        <ele>478.9</ele>
        <time>2018-05-19T09:33:18Z</time>
      </trkpt>
      <trkpt lat="44.07016" lon="3.00416">
        <ele>478.6</ele>
        <time>2018-05-19T09:33:19Z</time>
      </trkpt>
      <trkpt lat="44.07018" lon="3.00408">
        <ele>478.2</ele>
        <time>2018-05-19T09:33:20Z</time>
      </trkpt>
      <trkpt lat="44.0702" lon="3.00401">
        <ele>477.8</ele>
        <time>2018-05-19T09:33:21Z</time>
      </trkpt>
      <trkpt lat="44.07021" lon="3.00396">
        <ele>477.5</ele>
        <time>2018-05-19T09:33:22Z</time>
      </trkpt>
      <trkpt lat="44.07022" lon="3.00391">
        <ele>477.3</ele>
        <time>2018-05-19T09:33:23Z</time>
      </trkpt>
      <trkpt lat="44.07024" lon="3.00385">
        <ele>476.9</ele>
        <time>2018-05-19T09:33:24Z</time>
      </trkpt>
      <trkpt lat="44.07025" lon="3.0038">
        <ele>476.5</ele>
        <time>2018-05-19T09:33:25Z</time>
      </trkpt>
      <trkpt lat="44.07026" lon="3.00375">
        <ele>476</ele>
        <time>2018-05-19T09:33:26Z</time>
      </trkpt>
      <trkpt lat="44.07029" lon="3.00371">
        <ele>475.5</ele>
        <time>2018-05-19T09:33:27Z</time>
      </trkpt>
      <trkpt lat="44.0703" lon="3.00365">
        <ele>474.8</ele>
        <time>2018-05-19T09:33:28Z</time>
      </trkpt>
      <trkpt lat="44.07032" lon="3.0036">
        <ele>474.1</ele>
        <time>2018-05-19T09:33:29Z</time>
      </trkpt>
      <trkpt lat="44.07036" lon="3.00352">
        <ele>473.1</ele>
        <time>2018-05-19T09:33:30Z</time>
      </trkpt>
      <trkpt lat="44.07037" lon="3.00342">
        <ele>471.8</ele>
        <time>2018-05-19T09:33:31Z</time>
      </trkpt>
      <trkpt lat="44.07039" lon="3.00333">
        <ele>470.8</ele>
        <time>2018-05-19T09:33:32Z</time>
      </trkpt>
      <trkpt lat="44.07039" lon="3.00324">
        <ele>469.9</ele>
        <time>2018-05-19T09:33:33Z</time>
      </trkpt>
      <trkpt lat="44.0704" lon="3.00315">
        <ele>469.1</ele>
        <time>2018-05-19T09:33:34Z</time>
      </trkpt>
      <trkpt lat="44.07043" lon="3.00305">
        <ele>467.8</ele>
        <time>2018-05-19T09:33:35Z</time>
      </trkpt>
      <trkpt lat="44.07049" lon="3.00296">
        <ele>466.2</ele>
        <time>2018-05-19T09:33:36Z</time>
      </trkpt>
      <trkpt lat="44.07054" lon="3.00289">
        <ele>466</ele>
        <time>2018-05-19T09:33:37Z</time>
      </trkpt>
      <trkpt lat="44.07059" lon="3.00283">
        <ele>466</ele>
        <time>2018-05-19T09:33:38Z</time>
      </trkpt>
      <trkpt lat="44.07065" lon="3.00278">
        <ele>466</ele>
        <time>2018-05-19T09:33:39Z</time>
      </trkpt>
      <trkpt lat="44.07068" lon="3.00275">
        <ele>466</ele>
        <time>2018-05-19T09:33:41Z</time>
      </trkpt>
      <trkpt lat="44.07071" lon="3.00277">
        <ele>466</ele>
        <time>2018-05-19T09:33:44Z</time>
      </trkpt>
      <trkpt lat="44.0707" lon="3.0028">
        <ele>466</ele>
        <time>2018-05-19T09:33:58Z</time>
      </trkpt>
      <trkpt lat="44.07069" lon="3.00275">
        <ele>466</ele>
        <time>2018-05-19T09:35:13Z</time>
      </trkpt>
      <trkpt lat="44.07074" lon="3.00269">
        <ele>466</ele>
        <time>2018-05-19T09:36:19Z</time>
      </trkpt>
      <trkpt lat="44.07075" lon="3.00265">
        <ele>466</ele>
        <time>2018-05-19T09:36:26Z</time>
      </trkpt>
      <trkpt lat="44.07072" lon="3.00267">
        <ele>466</ele>
        <time>2018-05-19T09:36:30Z</time>
      </trkpt>
      <trkpt lat="44.07072" lon="3.00272">
        <ele>466</ele>
        <time>2018-05-19T09:37:03Z</time>
      </trkpt>
      <trkpt lat="44.07071" lon="3.00276">
        <ele>466</ele>
        <time>2018-05-19T09:37:27Z</time>
      </trkpt>
      <trkpt lat="44.07072" lon="3.00279">
        <ele>465.9</ele>
        <time>2018-05-19T09:37:32Z</time>
      </trkpt>
      <trkpt lat="44.07074" lon="3.00276">
        <ele>465.8</ele>
        <time>2018-05-19T09:40:14Z</time>
      </trkpt>
      <trkpt lat="44.07077" lon="3.00276">
        <ele>465.7</ele>
        <time>2018-05-19T09:40:18Z</time>
      </trkpt>
      <trkpt lat="44.07079" lon="3.00273">
        <ele>465.7</ele>
        <time>2018-05-19T09:40:31Z</time>
      </trkpt>
      <trkpt lat="44.07083" lon="3.00273">
        <ele>465.6</ele>
        <time>2018-05-19T09:40:33Z</time>
      </trkpt>
      <trkpt lat="44.07088" lon="3.00273">
        <ele>465.4</ele>
        <time>2018-05-19T09:40:35Z</time>
      </trkpt>
      <trkpt lat="44.07093" lon="3.00275">
        <ele>465.2</ele>
        <time>2018-05-19T09:40:37Z</time>
      </trkpt>
      <trkpt lat="44.07096" lon="3.00275">
        <ele>465.2</ele>
        <time>2018-05-19T09:40:38Z</time>
      </trkpt>
      <trkpt lat="44.07099" lon="3.00275">
        <ele>465.1</ele>
        <time>2018-05-19T09:40:39Z</time>
      </trkpt>
      <trkpt lat="44.07102" lon="3.00273">
        <ele>465</ele>
        <time>2018-05-19T09:40:40Z</time>
      </trkpt>
      <trkpt lat="44.07104" lon="3.00272">
        <ele>464.9</ele>
        <time>2018-05-19T09:40:41Z</time>
      </trkpt>
      <trkpt lat="44.07109" lon="3.00268">
        <ele>464.7</ele>
        <time>2018-05-19T09:40:43Z</time>
      </trkpt>
      <trkpt lat="44.07113" lon="3.00265">
        <ele>464.5</ele>
        <time>2018-05-19T09:40:45Z</time>
      </trkpt>
      <trkpt lat="44.07116" lon="3.00263">
        <ele>464.4</ele>
        <time>2018-05-19T09:40:46Z</time>
      </trkpt>
      <trkpt lat="44.07119" lon="3.0026">
        <ele>464.3</ele>
        <time>2018-05-19T09:40:47Z</time>
      </trkpt>
      <trkpt lat="44.07121" lon="3.00257">
        <ele>464.2</ele>
        <time>2018-05-19T09:40:48Z</time>
      </trkpt>
      <trkpt lat="44.07124" lon="3.00254">
        <ele>464</ele>
        <time>2018-05-19T09:40:49Z</time>
      </trkpt>
      <trkpt lat="44.07126" lon="3.00249">
        <ele>463.9</ele>
        <time>2018-05-19T09:40:50Z</time>
      </trkpt>
      <trkpt lat="44.07128" lon="3.00244">
        <ele>463.8</ele>
        <time>2018-05-19T09:40:51Z</time>
      </trkpt>
      <trkpt lat="44.07129" lon="3.00238">
        <ele>463.7</ele>
        <time>2018-05-19T09:40:52Z</time>
      </trkpt>
      <trkpt lat="44.07131" lon="3.00233">
        <ele>463.6</ele>
        <time>2018-05-19T09:40:53Z</time>
      </trkpt>
      <trkpt lat="44.07133" lon="3.00227">
        <ele>463.4</ele>
        <time>2018-05-19T09:40:54Z</time>
      </trkpt>
      <trkpt lat="44.07135" lon="3.00223">
        <ele>463.3</ele>
        <time>2018-05-19T09:40:55Z</time>
      </trkpt>
      <trkpt lat="44.07138" lon="3.00219">
        <ele>463.3</ele>
        <time>2018-05-19T09:40:56Z</time>
      </trkpt>
      <trkpt lat="44.0714" lon="3.00216">
        <ele>463.2</ele>
        <time>2018-05-19T09:40:57Z</time>
      </trkpt>
      <trkpt lat="44.07142" lon="3.00213">
        <ele>463.2</ele>
        <time>2018-05-19T09:40:58Z</time>
      </trkpt>
      <trkpt lat="44.07145" lon="3.0021">
        <ele>463.2</ele>
        <time>2018-05-19T09:40:59Z</time>
      </trkpt>
      <trkpt lat="44.07147" lon="3.00208">
        <ele>463.1</ele>
        <time>2018-05-19T09:41:00Z</time>
      </trkpt>
      <trkpt lat="44.07149" lon="3.00205">
        <ele>463.1</ele>
        <time>2018-05-19T09:41:01Z</time>
      </trkpt>
      <trkpt lat="44.07152" lon="3.002">
        <ele>463</ele>
        <time>2018-05-19T09:41:03Z</time>
      </trkpt>
      <trkpt lat="44.07155" lon="3.00196">
        <ele>462.9</ele>
        <time>2018-05-19T09:41:05Z</time>
      </trkpt>
      <trkpt lat="44.07157" lon="3.00191">
        <ele>462.9</ele>
        <time>2018-05-19T09:41:07Z</time>
      </trkpt>
      <trkpt lat="44.0716" lon="3.00186">
        <ele>462.8</ele>
        <time>2018-05-19T09:41:09Z</time>
      </trkpt>
      <trkpt lat="44.07162" lon="3.00179">
        <ele>462.7</ele>
        <time>2018-05-19T09:41:11Z</time>
      </trkpt>
      <trkpt lat="44.07163" lon="3.00176">
        <ele>462.6</ele>
        <time>2018-05-19T09:41:12Z</time>
      </trkpt>
      <trkpt lat="44.07165" lon="3.00172">
        <ele>462.6</ele>
        <time>2018-05-19T09:41:13Z</time>
      </trkpt>
      <trkpt lat="44.07167" lon="3.00167">
        <ele>462.5</ele>
        <time>2018-05-19T09:41:14Z</time>
      </trkpt>
      <trkpt lat="44.07169" lon="3.00162">
        <ele>462.5</ele>
        <time>2018-05-19T09:41:15Z</time>
      </trkpt>
      <trkpt lat="44.07171" lon="3.00157">
        <ele>462.4</ele>
        <time>2018-05-19T09:41:16Z</time>
      </trkpt>
      <trkpt lat="44.07173" lon="3.00152">
        <ele>462.3</ele>
        <time>2018-05-19T09:41:17Z</time>
      </trkpt>
      <trkpt lat="44.07175" lon="3.00148">
        <ele>462.3</ele>
        <time>2018-05-19T09:41:18Z</time>
      </trkpt>
      <trkpt lat="44.07177" lon="3.00144">
        <ele>462.2</ele>
        <time>2018-05-19T09:41:19Z</time>
      </trkpt>
      <trkpt lat="44.07179" lon="3.00141">
        <ele>462.2</ele>
        <time>2018-05-19T09:41:20Z</time>
      </trkpt>
      <trkpt lat="44.07181" lon="3.00138">
        <ele>462.1</ele>
        <time>2018-05-19T09:41:21Z</time>
      </trkpt>
      <trkpt lat="44.07184" lon="3.00135">
        <ele>462</ele>
        <time>2018-05-19T09:41:22Z</time>
      </trkpt>
      <trkpt lat="44.07186" lon="3.00132">
        <ele>462</ele>
        <time>2018-05-19T09:41:23Z</time>
      </trkpt>
      <trkpt lat="44.07189" lon="3.00129">
        <ele>461.9</ele>
        <time>2018-05-19T09:41:24Z</time>
      </trkpt>
      <trkpt lat="44.07192" lon="3.00125">
        <ele>461.8</ele>
        <time>2018-05-19T09:41:25Z</time>
      </trkpt>
      <trkpt lat="44.07193" lon="3.0012">
        <ele>461.6</ele>
        <time>2018-05-19T09:41:26Z</time>
      </trkpt>
      <trkpt lat="44.07194" lon="3.00116">
        <ele>461.5</ele>
        <time>2018-05-19T09:41:27Z</time>
      </trkpt>
      <trkpt lat="44.07194" lon="3.00111">
        <ele>461.4</ele>
        <time>2018-05-19T09:41:28Z</time>
      </trkpt>
      <trkpt lat="44.07194" lon="3.00105">
        <ele>461.3</ele>
        <time>2018-05-19T09:41:29Z</time>
      </trkpt>
      <trkpt lat="44.07194" lon="3.00099">
        <ele>461.2</ele>
        <time>2018-05-19T09:41:30Z</time>
      </trkpt>
      <trkpt lat="44.07193" lon="3.0009">
        <ele>461</ele>
        <time>2018-05-19T09:41:31Z</time>
      </trkpt>
      <trkpt lat="44.07192" lon="3.00082">
        <ele>460.8</ele>
        <time>2018-05-19T09:41:32Z</time>
      </trkpt>
      <trkpt lat="44.07191" lon="3.00072">
        <ele>460.5</ele>
        <time>2018-05-19T09:41:33Z</time>
      </trkpt>
      <trkpt lat="44.07189" lon="3.0006">
        <ele>460.1</ele>
        <time>2018-05-19T09:41:34Z</time>
      </trkpt>
      <trkpt lat="44.07187" lon="3.00045">
        <ele>459.5</ele>
        <time>2018-05-19T09:41:35Z</time>
      </trkpt>
      <trkpt lat="44.07184" lon="3.00033">
        <ele>458.9</ele>
        <time>2018-05-19T09:41:36Z</time>
      </trkpt>
      <trkpt lat="44.07183" lon="3.00021">
        <ele>458</ele>
        <time>2018-05-19T09:41:37Z</time>
      </trkpt>
      <trkpt lat="44.07183" lon="3.00008">
        <ele>456.7</ele>
        <time>2018-05-19T09:41:38Z</time>
      </trkpt>
      <trkpt lat="44.07184" lon="2.99994">
        <ele>455.2</ele>
        <time>2018-05-19T09:41:39Z</time>
      </trkpt>
      <trkpt lat="44.07184" lon="2.99979">
        <ele>453.2</ele>
        <time>2018-05-19T09:41:40Z</time>
      </trkpt>
      <trkpt lat="44.07185" lon="2.99964">
        <ele>450.8</ele>
        <time>2018-05-19T09:41:41Z</time>
      </trkpt>
      <trkpt lat="44.07184" lon="2.9995">
        <ele>449.3</ele>
        <time>2018-05-19T09:41:42Z</time>
      </trkpt>
      <trkpt lat="44.07185" lon="2.99937">
        <ele>448.4</ele>
        <time>2018-05-19T09:41:43Z</time>
      </trkpt>
      <trkpt lat="44.07187" lon="2.99924">
        <ele>447.7</ele>
        <time>2018-05-19T09:41:44Z</time>
      </trkpt>
      <trkpt lat="44.07191" lon="2.9991">
        <ele>446.7</ele>
        <time>2018-05-19T09:41:45Z</time>
      </trkpt>
      <trkpt lat="44.07195" lon="2.99898">
        <ele>445.7</ele>
        <time>2018-05-19T09:41:46Z</time>
      </trkpt>
      <trkpt lat="44.072" lon="2.99889">
        <ele>445.1</ele>
        <time>2018-05-19T09:41:47Z</time>
      </trkpt>
      <trkpt lat="44.07204" lon="2.9988">
        <ele>444.7</ele>
        <time>2018-05-19T09:41:48Z</time>
      </trkpt>
      <trkpt lat="44.07207" lon="2.9987">
        <ele>444.4</ele>
        <time>2018-05-19T09:41:49Z</time>
      </trkpt>
      <trkpt lat="44.07209" lon="2.99863">
        <ele>444.2</ele>
        <time>2018-05-19T09:41:50Z</time>
      </trkpt>
      <trkpt lat="44.07211" lon="2.99858">
        <ele>444.1</ele>
        <time>2018-05-19T09:41:51Z</time>
      </trkpt>
      <trkpt lat="44.07213" lon="2.99853">
        <ele>444</ele>
        <time>2018-05-19T09:41:52Z</time>
      </trkpt>
      <trkpt lat="44.07215" lon="2.99849">
        <ele>443.8</ele>
        <time>2018-05-19T09:41:53Z</time>
      </trkpt>
      <trkpt lat="44.07217" lon="2.99846">
        <ele>443.7</ele>
        <time>2018-05-19T09:41:54Z</time>
      </trkpt>
      <trkpt lat="44.0722" lon="2.99844">
        <ele>443.5</ele>
        <time>2018-05-19T09:41:55Z</time>
      </trkpt>
      <trkpt lat="44.07225" lon="2.99844">
        <ele>443.3</ele>
        <time>2018-05-19T09:41:57Z</time>
      </trkpt>
      <trkpt lat="44.07228" lon="2.99841">
        <ele>443.2</ele>
        <time>2018-05-19T09:41:59Z</time>
      </trkpt>
      <trkpt lat="44.0723" lon="2.99838">
        <ele>442.8</ele>
        <time>2018-05-19T09:42:01Z</time>
      </trkpt>
      <trkpt lat="44.07234" lon="2.99833">
        <ele>442.3</ele>
        <time>2018-05-19T09:42:03Z</time>
      </trkpt>
      <trkpt lat="44.07236" lon="2.9983">
        <ele>442.1</ele>
        <time>2018-05-19T09:42:04Z</time>
      </trkpt>
      <trkpt lat="44.07239" lon="2.99826">
        <ele>441.9</ele>
        <time>2018-05-19T09:42:05Z</time>
      </trkpt>
      <trkpt lat="44.07241" lon="2.99819">
        <ele>441.9</ele>
        <time>2018-05-19T09:42:06Z</time>
      </trkpt>
      <trkpt lat="44.07244" lon="2.99814">
        <ele>441.9</ele>
        <time>2018-05-19T09:42:07Z</time>
      </trkpt>
      <trkpt lat="44.07246" lon="2.99807">
        <ele>442</ele>
        <time>2018-05-19T09:42:08Z</time>
      </trkpt>
      <trkpt lat="44.07247" lon="2.99801">
        <ele>442.1</ele>
        <time>2018-05-19T09:42:09Z</time>
      </trkpt>
      <trkpt lat="44.07248" lon="2.99797">
        <ele>442.3</ele>
        <time>2018-05-19T09:42:10Z</time>
      </trkpt>
      <trkpt lat="44.0725" lon="2.9979">
        <ele>442.6</ele>
        <time>2018-05-19T09:42:11Z</time>
      </trkpt>
      <trkpt lat="44.0725" lon="2.99783">
        <ele>443</ele>
        <time>2018-05-19T09:42:12Z</time>
      </trkpt>
      <trkpt lat="44.07252" lon="2.99777">
        <ele>443.2</ele>
        <time>2018-05-19T09:42:13Z</time>
      </trkpt>
      <trkpt lat="44.07253" lon="2.99773">
        <ele>443.4</ele>
        <time>2018-05-19T09:42:14Z</time>
      </trkpt>
      <trkpt lat="44.07255" lon="2.99768">
        <ele>443.6</ele>
        <time>2018-05-19T09:42:15Z</time>
      </trkpt>
      <trkpt lat="44.07256" lon="2.99761">
        <ele>443.8</ele>
        <time>2018-05-19T09:42:16Z</time>
      </trkpt>
      <trkpt lat="44.07258" lon="2.99757">
        <ele>444</ele>
        <time>2018-05-19T09:42:17Z</time>
      </trkpt>
      <trkpt lat="44.07261" lon="2.99752">
        <ele>444.1</ele>
        <time>2018-05-19T09:42:18Z</time>
      </trkpt>
      <trkpt lat="44.07262" lon="2.99747">
        <ele>444.2</ele>
        <time>2018-05-19T09:42:19Z</time>
      </trkpt>
      <trkpt lat="44.07264" lon="2.99742">
        <ele>444.3</ele>
        <time>2018-05-19T09:42:20Z</time>
      </trkpt>
      <trkpt lat="44.07267" lon="2.99737">
        <ele>444.4</ele>
        <time>2018-05-19T09:42:21Z</time>
      </trkpt>
      <trkpt lat="44.07269" lon="2.99732">
        <ele>444.6</ele>
        <time>2018-05-19T09:42:22Z</time>
      </trkpt>
      <trkpt lat="44.07272" lon="2.99728">
        <ele>444.8</ele>
        <time>2018-05-19T09:42:23Z</time>
      </trkpt>
      <trkpt lat="44.07275" lon="2.99725">
        <ele>445</ele>
        <time>2018-05-19T09:42:24Z</time>
      </trkpt>
      <trkpt lat="44.07278" lon="2.99722">
        <ele>445.3</ele>
        <time>2018-05-19T09:42:25Z</time>
      </trkpt>
      <trkpt lat="44.07282" lon="2.9972">
        <ele>445.6</ele>
        <time>2018-05-19T09:42:26Z</time>
      </trkpt>
      <trkpt lat="44.07285" lon="2.99718">
        <ele>446</ele>
        <time>2018-05-19T09:42:27Z</time>
      </trkpt>
      <trkpt lat="44.07288" lon="2.99715">
        <ele>446.4</ele>
        <time>2018-05-19T09:42:28Z</time>
      </trkpt>
      <trkpt lat="44.07292" lon="2.99713">
        <ele>446.8</ele>
        <time>2018-05-19T09:42:29Z</time>
      </trkpt>
      <trkpt lat="44.07295" lon="2.99712">
        <ele>447.1</ele>
        <time>2018-05-19T09:42:30Z</time>
      </trkpt>
      <trkpt lat="44.07299" lon="2.99711">
        <ele>447.4</ele>
        <time>2018-05-19T09:42:31Z</time>
      </trkpt>
      <trkpt lat="44.07303" lon="2.9971">
        <ele>447.7</ele>
        <time>2018-05-19T09:42:32Z</time>
      </trkpt>
      <trkpt lat="44.07307" lon="2.99709">
        <ele>448</ele>
        <time>2018-05-19T09:42:33Z</time>
      </trkpt>
      <trkpt lat="44.07311" lon="2.99709">
        <ele>448.3</ele>
        <time>2018-05-19T09:42:34Z</time>
      </trkpt>
      <trkpt lat="44.07315" lon="2.9971">
        <ele>448.5</ele>
        <time>2018-05-19T09:42:35Z</time>
      </trkpt>
      <trkpt lat="44.07319" lon="2.99711">
        <ele>448.8</ele>
        <time>2018-05-19T09:42:36Z</time>
      </trkpt>
      <trkpt lat="44.07324" lon="2.99713">
        <ele>449</ele>
        <time>2018-05-19T09:42:37Z</time>
      </trkpt>
      <trkpt lat="44.07328" lon="2.99715">
        <ele>449.3</ele>
        <time>2018-05-19T09:42:38Z</time>
      </trkpt>
      <trkpt lat="44.07333" lon="2.99717">
        <ele>449.6</ele>
        <time>2018-05-19T09:42:39Z</time>
      </trkpt>
      <trkpt lat="44.07337" lon="2.99719">
        <ele>449.8</ele>
        <time>2018-05-19T09:42:40Z</time>
      </trkpt>
      <trkpt lat="44.07341" lon="2.99722">
        <ele>450.1</ele>
        <time>2018-05-19T09:42:41Z</time>
      </trkpt>
      <trkpt lat="44.07345" lon="2.99724">
        <ele>450.4</ele>
        <time>2018-05-19T09:42:42Z</time>
      </trkpt>
      <trkpt lat="44.07348" lon="2.99726">
        <ele>450.6</ele>
        <time>2018-05-19T09:42:43Z</time>
      </trkpt>
      <trkpt lat="44.07352" lon="2.99729">
        <ele>450.8</ele>
        <time>2018-05-19T09:42:45Z</time>
      </trkpt>
      <trkpt lat="44.07357" lon="2.99731">
        <ele>451</ele>
        <time>2018-05-19T09:42:47Z</time>
      </trkpt>
      <trkpt lat="44.0736" lon="2.99733">
        <ele>451.2</ele>
        <time>2018-05-19T09:42:48Z</time>
      </trkpt>
      <trkpt lat="44.07363" lon="2.99735">
        <ele>451.4</ele>
        <time>2018-05-19T09:42:49Z</time>
      </trkpt>
      <trkpt lat="44.07367" lon="2.99736">
        <ele>451.6</ele>
        <time>2018-05-19T09:42:50Z</time>
      </trkpt>
      <trkpt lat="44.0737" lon="2.99738">
        <ele>451.9</ele>
        <time>2018-05-19T09:42:51Z</time>
      </trkpt>
      <trkpt lat="44.07373" lon="2.99739">
        <ele>452.2</ele>
        <time>2018-05-19T09:42:52Z</time>
      </trkpt>
      <trkpt lat="44.07376" lon="2.99741">
        <ele>452.5</ele>
        <time>2018-05-19T09:42:53Z</time>
      </trkpt>
      <trkpt lat="44.07379" lon="2.99743">
        <ele>452.9</ele>
        <time>2018-05-19T09:42:54Z</time>
      </trkpt>
      <trkpt lat="44.07382" lon="2.99745">
        <ele>453.3</ele>
        <time>2018-05-19T09:42:55Z</time>
      </trkpt>
      <trkpt lat="44.07385" lon="2.99747">
        <ele>453.6</ele>
        <time>2018-05-19T09:42:56Z</time>
      </trkpt>
      <trkpt lat="44.07388" lon="2.99749">
        <ele>454</ele>
        <time>2018-05-19T09:42:57Z</time>
      </trkpt>
      <trkpt lat="44.07391" lon="2.99751">
        <ele>454.4</ele>
        <time>2018-05-19T09:42:58Z</time>
      </trkpt>
      <trkpt lat="44.07394" lon="2.99753">
        <ele>454.8</ele>
        <time>2018-05-19T09:42:59Z</time>
      </trkpt>
      <trkpt lat="44.07397" lon="2.99756">
        <ele>455.1</ele>
        <time>2018-05-19T09:43:00Z</time>
      </trkpt>
      <trkpt lat="44.074" lon="2.99759">
        <ele>455.4</ele>
        <time>2018-05-19T09:43:01Z</time>
      </trkpt>
      <trkpt lat="44.07403" lon="2.99762">
        <ele>455.7</ele>
        <time>2018-05-19T09:43:02Z</time>
      </trkpt>
      <trkpt lat="44.07406" lon="2.99765">
        <ele>455.9</ele>
        <time>2018-05-19T09:43:03Z</time>
      </trkpt>
      <trkpt lat="44.07409" lon="2.99768">
        <ele>456.1</ele>
        <time>2018-05-19T09:43:04Z</time>
      </trkpt>
      <trkpt lat="44.07411" lon="2.99771">
        <ele>456.2</ele>
        <time>2018-05-19T09:43:05Z</time>
      </trkpt>
      <trkpt lat="44.07414" lon="2.99775">
        <ele>456.2</ele>
        <time>2018-05-19T09:43:06Z</time>
      </trkpt>
      <trkpt lat="44.07416" lon="2.99778">
        <ele>456.2</ele>
        <time>2018-05-19T09:43:07Z</time>
      </trkpt>
      <trkpt lat="44.07419" lon="2.99781">
        <ele>456.2</ele>
        <time>2018-05-19T09:43:08Z</time>
      </trkpt>
      <trkpt lat="44.07423" lon="2.99783">
        <ele>456.1</ele>
        <time>2018-05-19T09:43:09Z</time>
      </trkpt>
      <trkpt lat="44.07426" lon="2.99785">
        <ele>456</ele>
        <time>2018-05-19T09:43:10Z</time>
      </trkpt>
      <trkpt lat="44.0743" lon="2.99787">
        <ele>456</ele>
        <time>2018-05-19T09:43:11Z</time>
      </trkpt>
      <trkpt lat="44.07434" lon="2.99788">
        <ele>456.1</ele>
        <time>2018-05-19T09:43:12Z</time>
      </trkpt>
      <trkpt lat="44.07438" lon="2.99792">
        <ele>456.3</ele>
        <time>2018-05-19T09:43:13Z</time>
      </trkpt>
      <trkpt lat="44.07441" lon="2.99795">
        <ele>456.6</ele>
        <time>2018-05-19T09:43:14Z</time>
      </trkpt>
      <trkpt lat="44.07444" lon="2.99798">
        <ele>457</ele>
        <time>2018-05-19T09:43:15Z</time>
      </trkpt>
      <trkpt lat="44.07448" lon="2.99801">
        <ele>457.4</ele>
        <time>2018-05-19T09:43:16Z</time>
      </trkpt>
      <trkpt lat="44.07451" lon="2.99804">
        <ele>457.8</ele>
        <time>2018-05-19T09:43:17Z</time>
      </trkpt>
      <trkpt lat="44.07453" lon="2.99806">
        <ele>458</ele>
        <time>2018-05-19T09:43:18Z</time>
      </trkpt>
      <trkpt lat="44.07456" lon="2.99809">
        <ele>458.3</ele>
        <time>2018-05-19T09:43:19Z</time>
      </trkpt>
      <trkpt lat="44.07459" lon="2.99811">
        <ele>458.5</ele>
        <time>2018-05-19T09:43:20Z</time>
      </trkpt>
      <trkpt lat="44.07462" lon="2.99812">
        <ele>458.7</ele>
        <time>2018-05-19T09:43:21Z</time>
      </trkpt>
      <trkpt lat="44.07466" lon="2.99814">
        <ele>458.9</ele>
        <time>2018-05-19T09:43:22Z</time>
      </trkpt>
      <trkpt lat="44.07468" lon="2.99816">
        <ele>459.1</ele>
        <time>2018-05-19T09:43:23Z</time>
      </trkpt>
      <trkpt lat="44.07471" lon="2.99819">
        <ele>459.3</ele>
        <time>2018-05-19T09:43:24Z</time>
      </trkpt>
      <trkpt lat="44.07474" lon="2.99822">
        <ele>459.5</ele>
        <time>2018-05-19T09:43:25Z</time>
      </trkpt>
      <trkpt lat="44.07477" lon="2.99824">
        <ele>459.6</ele>
        <time>2018-05-19T09:43:26Z</time>
      </trkpt>
      <trkpt lat="44.07479" lon="2.99827">
        <ele>459.7</ele>
        <time>2018-05-19T09:43:27Z</time>
      </trkpt>
      <trkpt lat="44.07483" lon="2.99831">
        <ele>459.9</ele>
        <time>2018-05-19T09:43:28Z</time>
      </trkpt>
      <trkpt lat="44.07487" lon="2.99835">
        <ele>460.1</ele>
        <time>2018-05-19T09:43:29Z</time>
      </trkpt>
      <trkpt lat="44.0749" lon="2.99838">
        <ele>460.2</ele>
        <time>2018-05-19T09:43:30Z</time>
      </trkpt>
      <trkpt lat="44.07493" lon="2.9984">
        <ele>460.4</ele>
        <time>2018-05-19T09:43:31Z</time>
      </trkpt>
      <trkpt lat="44.07497" lon="2.99843">
        <ele>460.6</ele>
        <time>2018-05-19T09:43:32Z</time>
      </trkpt>
      <trkpt lat="44.075" lon="2.99845">
        <ele>460.8</ele>
        <time>2018-05-19T09:43:33Z</time>
      </trkpt>
      <trkpt lat="44.07503" lon="2.99847">
        <ele>460.9</ele>
        <time>2018-05-19T09:43:34Z</time>
      </trkpt>
      <trkpt lat="44.07506" lon="2.99849">
        <ele>461.1</ele>
        <time>2018-05-19T09:43:35Z</time>
      </trkpt>
      <trkpt lat="44.0751" lon="2.99852">
        <ele>461.2</ele>
        <time>2018-05-19T09:43:36Z</time>
      </trkpt>
      <trkpt lat="44.07513" lon="2.99855">
        <ele>461.4</ele>
        <time>2018-05-19T09:43:37Z</time>
      </trkpt>
      <trkpt lat="44.07516" lon="2.99859">
        <ele>461.6</ele>
        <time>2018-05-19T09:43:38Z</time>
      </trkpt>
      <trkpt lat="44.07519" lon="2.99862">
        <ele>461.7</ele>
        <time>2018-05-19T09:43:39Z</time>
      </trkpt>
      <trkpt lat="44.07521" lon="2.99866">
        <ele>461.9</ele>
        <time>2018-05-19T09:43:40Z</time>
      </trkpt>
      <trkpt lat="44.07525" lon="2.9987">
        <ele>462.1</ele>
        <time>2018-05-19T09:43:41Z</time>
      </trkpt>
      <trkpt lat="44.07528" lon="2.99874">
        <ele>462.3</ele>
        <time>2018-05-19T09:43:42Z</time>
      </trkpt>
      <trkpt lat="44.07531" lon="2.99877">
        <ele>462.5</ele>
        <time>2018-05-19T09:43:43Z</time>
      </trkpt>
      <trkpt lat="44.07534" lon="2.9988">
        <ele>462.8</ele>
        <time>2018-05-19T09:43:44Z</time>
      </trkpt>
      <trkpt lat="44.07537" lon="2.99884">
        <ele>463.1</ele>
        <time>2018-05-19T09:43:45Z</time>
      </trkpt>
      <trkpt lat="44.0754" lon="2.99888">
        <ele>463.4</ele>
        <time>2018-05-19T09:43:46Z</time>
      </trkpt>
      <trkpt lat="44.07542" lon="2.99892">
        <ele>463.7</ele>
        <time>2018-05-19T09:43:47Z</time>
      </trkpt>
      <trkpt lat="44.07545" lon="2.99895">
        <ele>463.9</ele>
        <time>2018-05-19T09:43:48Z</time>
      </trkpt>
      <trkpt lat="44.07547" lon="2.99898">
        <ele>464</ele>
        <time>2018-05-19T09:43:49Z</time>
      </trkpt>
      <trkpt lat="44.0755" lon="2.99902">
        <ele>464.1</ele>
        <time>2018-05-19T09:43:50Z</time>
      </trkpt>
      <trkpt lat="44.07554" lon="2.99905">
        <ele>464.2</ele>
        <time>2018-05-19T09:43:51Z</time>
      </trkpt>
      <trkpt lat="44.0756" lon="2.99913">
        <ele>464.4</ele>
        <time>2018-05-19T09:43:52Z</time>
      </trkpt>
      <trkpt lat="44.07563" lon="2.99916">
        <ele>464.5</ele>
        <time>2018-05-19T09:43:53Z</time>
      </trkpt>
      <trkpt lat="44.07566" lon="2.99922">
        <ele>464.7</ele>
        <time>2018-05-19T09:43:54Z</time>
      </trkpt>
      <trkpt lat="44.07569" lon="2.99925">
        <ele>464.9</ele>
        <time>2018-05-19T09:43:55Z</time>
      </trkpt>
      <trkpt lat="44.07572" lon="2.99929">
        <ele>465.1</ele>
        <time>2018-05-19T09:43:56Z</time>
      </trkpt>
      <trkpt lat="44.07576" lon="2.9993">
        <ele>465.5</ele>
        <time>2018-05-19T09:43:57Z</time>
      </trkpt>
      <trkpt lat="44.07582" lon="2.99931">
        <ele>466</ele>
        <time>2018-05-19T09:43:58Z</time>
      </trkpt>
      <trkpt lat="44.07585" lon="2.99932">
        <ele>466.3</ele>
        <time>2018-05-19T09:43:59Z</time>
      </trkpt>
      <trkpt lat="44.07589" lon="2.99932">
        <ele>466.7</ele>
        <time>2018-05-19T09:44:00Z</time>
      </trkpt>
      <trkpt lat="44.07593" lon="2.99932">
        <ele>467.1</ele>
        <time>2018-05-19T09:44:01Z</time>
      </trkpt>
      <trkpt lat="44.07597" lon="2.99933">
        <ele>467.5</ele>
        <time>2018-05-19T09:44:02Z</time>
      </trkpt>
      <trkpt lat="44.07601" lon="2.99934">
        <ele>467.9</ele>
        <time>2018-05-19T09:44:03Z</time>
      </trkpt>
      <trkpt lat="44.07605" lon="2.99935">
        <ele>468.2</ele>
        <time>2018-05-19T09:44:04Z</time>
      </trkpt>
      <trkpt lat="44.07608" lon="2.99935">
        <ele>468.6</ele>
        <time>2018-05-19T09:44:05Z</time>
      </trkpt>
      <trkpt lat="44.07612" lon="2.99936">
        <ele>468.9</ele>
        <time>2018-05-19T09:44:06Z</time>
      </trkpt>
      <trkpt lat="44.07615" lon="2.99937">
        <ele>469.2</ele>
        <time>2018-05-19T09:44:07Z</time>
      </trkpt>
      <trkpt lat="44.07618" lon="2.99939">
        <ele>469.6</ele>
        <time>2018-05-19T09:44:08Z</time>
      </trkpt>
      <trkpt lat="44.07621" lon="2.99941">
        <ele>469.9</ele>
        <time>2018-05-19T09:44:09Z</time>
      </trkpt>
      <trkpt lat="44.07623" lon="2.99944">
        <ele>470.1</ele>
        <time>2018-05-19T09:44:10Z</time>
      </trkpt>
      <trkpt lat="44.07625" lon="2.99947">
        <ele>470.5</ele>
        <time>2018-05-19T09:44:11Z</time>
      </trkpt>
      <trkpt lat="44.07627" lon="2.99951">
        <ele>470.8</ele>
        <time>2018-05-19T09:44:12Z</time>
      </trkpt>
      <trkpt lat="44.07629" lon="2.99954">
        <ele>471.1</ele>
        <time>2018-05-19T09:44:13Z</time>
      </trkpt>
      <trkpt lat="44.0763" lon="2.99958">
        <ele>471.3</ele>
        <time>2018-05-19T09:44:14Z</time>
      </trkpt>
      <trkpt lat="44.07632" lon="2.99964">
        <ele>471.8</ele>
        <time>2018-05-19T09:44:16Z</time>
      </trkpt>
      <trkpt lat="44.07633" lon="2.99968">
        <ele>472.1</ele>
        <time>2018-05-19T09:44:17Z</time>
      </trkpt>
      <trkpt lat="44.07633" lon="2.99972">
        <ele>472.4</ele>
        <time>2018-05-19T09:44:18Z</time>
      </trkpt>
      <trkpt lat="44.07633" lon="2.99977">
        <ele>472.7</ele>
        <time>2018-05-19T09:44:19Z</time>
      </trkpt>
      <trkpt lat="44.07633" lon="2.99982">
        <ele>473.1</ele>
        <time>2018-05-19T09:44:20Z</time>
      </trkpt>
      <trkpt lat="44.07633" lon="2.99986">
        <ele>473.3</ele>
        <time>2018-05-19T09:44:21Z</time>
      </trkpt>
      <trkpt lat="44.07632" lon="2.9999">
        <ele>473.6</ele>
        <time>2018-05-19T09:44:22Z</time>
      </trkpt>
      <trkpt lat="44.07631" lon="2.99994">
        <ele>473.8</ele>
        <time>2018-05-19T09:44:23Z</time>
      </trkpt>
      <trkpt lat="44.0763" lon="2.99998">
        <ele>473.9</ele>
        <time>2018-05-19T09:44:24Z</time>
      </trkpt>
      <trkpt lat="44.07629" lon="3.00002">
        <ele>473.9</ele>
        <time>2018-05-19T09:44:25Z</time>
      </trkpt>
      <trkpt lat="44.07627" lon="3.00006">
        <ele>473.9</ele>
        <time>2018-05-19T09:44:26Z</time>
      </trkpt>
      <trkpt lat="44.07626" lon="3.0001">
        <ele>473.9</ele>
        <time>2018-05-19T09:44:27Z</time>
      </trkpt>
      <trkpt lat="44.07624" lon="3.00013">
        <ele>473.8</ele>
        <time>2018-05-19T09:44:28Z</time>
      </trkpt>
      <trkpt lat="44.07622" lon="3.00018">
        <ele>473.6</ele>
        <time>2018-05-19T09:44:29Z</time>
      </trkpt>
      <trkpt lat="44.07621" lon="3.00022">
        <ele>473.5</ele>
        <time>2018-05-19T09:44:30Z</time>
      </trkpt>
      <trkpt lat="44.07618" lon="3.00026">
        <ele>473.3</ele>
        <time>2018-05-19T09:44:31Z</time>
      </trkpt>
      <trkpt lat="44.07616" lon="3.00031">
        <ele>473.1</ele>
        <time>2018-05-19T09:44:32Z</time>
      </trkpt>
      <trkpt lat="44.07614" lon="3.00036">
        <ele>472.9</ele>
        <time>2018-05-19T09:44:33Z</time>
      </trkpt>
      <trkpt lat="44.07612" lon="3.00041">
        <ele>472.7</ele>
        <time>2018-05-19T09:44:34Z</time>
      </trkpt>
      <trkpt lat="44.07607" lon="3.00047">
        <ele>472.5</ele>
        <time>2018-05-19T09:44:35Z</time>
      </trkpt>
      <trkpt lat="44.07604" lon="3.00055">
        <ele>472.3</ele>
        <time>2018-05-19T09:44:36Z</time>
      </trkpt>
      <trkpt lat="44.07601" lon="3.00062">
        <ele>472.2</ele>
        <time>2018-05-19T09:44:37Z</time>
      </trkpt>
      <trkpt lat="44.07597" lon="3.00071">
        <ele>472.1</ele>
        <time>2018-05-19T09:44:38Z</time>
      </trkpt>
      <trkpt lat="44.07596" lon="3.00078">
        <ele>472.1</ele>
        <time>2018-05-19T09:44:39Z</time>
      </trkpt>
      <trkpt lat="44.07594" lon="3.00086">
        <ele>472</ele>
        <time>2018-05-19T09:44:40Z</time>
      </trkpt>
      <trkpt lat="44.07595" lon="3.00092">
        <ele>472</ele>
        <time>2018-05-19T09:44:41Z</time>
      </trkpt>
      <trkpt lat="44.07597" lon="3.00096">
        <ele>472</ele>
        <time>2018-05-19T09:44:42Z</time>
      </trkpt>
      <trkpt lat="44.076" lon="3.001">
        <ele>472</ele>
        <time>2018-05-19T09:44:44Z</time>
      </trkpt>
      <trkpt lat="44.07604" lon="3.00104">
        <ele>472</ele>
        <time>2018-05-19T09:44:46Z</time>
      </trkpt>
      <trkpt lat="44.07608" lon="3.00105">
        <ele>472.1</ele>
        <time>2018-05-19T09:44:47Z</time>
      </trkpt>
      <trkpt lat="44.0761" lon="3.00112">
        <ele>472.2</ele>
        <time>2018-05-19T09:44:49Z</time>
      </trkpt>
      <trkpt lat="44.07613" lon="3.00114">
        <ele>472.3</ele>
        <time>2018-05-19T09:44:51Z</time>
      </trkpt>
      <trkpt lat="44.07615" lon="3.00119">
        <ele>472.5</ele>
        <time>2018-05-19T09:44:53Z</time>
      </trkpt>
      <trkpt lat="44.07618" lon="3.00124">
        <ele>472.7</ele>
        <time>2018-05-19T09:44:55Z</time>
      </trkpt>
      <trkpt lat="44.07621" lon="3.00129">
        <ele>472.9</ele>
        <time>2018-05-19T09:44:57Z</time>
      </trkpt>
      <trkpt lat="44.07624" lon="3.00131">
        <ele>473</ele>
        <time>2018-05-19T09:44:58Z</time>
      </trkpt>
      <trkpt lat="44.07627" lon="3.00133">
        <ele>473.1</ele>
        <time>2018-05-19T09:44:59Z</time>
      </trkpt>
      <trkpt lat="44.07631" lon="3.00133">
        <ele>473.3</ele>
        <time>2018-05-19T09:45:01Z</time>
      </trkpt>
      <trkpt lat="44.07635" lon="3.00133">
        <ele>473.6</ele>
        <time>2018-05-19T09:45:03Z</time>
      </trkpt>
      <trkpt lat="44.0764" lon="3.00134">
        <ele>474</ele>
        <time>2018-05-19T09:45:05Z</time>
      </trkpt>
      <trkpt lat="44.07644" lon="3.00136">
        <ele>474.4</ele>
        <time>2018-05-19T09:45:07Z</time>
      </trkpt>
      <trkpt lat="44.07648" lon="3.00141">
        <ele>475</ele>
        <time>2018-05-19T09:45:09Z</time>
      </trkpt>
      <trkpt lat="44.07651" lon="3.00147">
        <ele>475.8</ele>
        <time>2018-05-19T09:45:11Z</time>
      </trkpt>
      <trkpt lat="44.07653" lon="3.0015">
        <ele>476.3</ele>
        <time>2018-05-19T09:45:12Z</time>
      </trkpt>
      <trkpt lat="44.07656" lon="3.00155">
        <ele>477.2</ele>
        <time>2018-05-19T09:45:14Z</time>
      </trkpt>
      <trkpt lat="44.0766" lon="3.00158">
        <ele>477.9</ele>
        <time>2018-05-19T09:45:16Z</time>
      </trkpt>
      <trkpt lat="44.07663" lon="3.00161">
        <ele>478.7</ele>
        <time>2018-05-19T09:45:18Z</time>
      </trkpt>
      <trkpt lat="44.07667" lon="3.00163">
        <ele>479.4</ele>
        <time>2018-05-19T09:45:20Z</time>
      </trkpt>
      <trkpt lat="44.07671" lon="3.00166">
        <ele>480.1</ele>
        <time>2018-05-19T09:45:22Z</time>
      </trkpt>
      <trkpt lat="44.07674" lon="3.00169">
        <ele>480.8</ele>
        <time>2018-05-19T09:45:24Z</time>
      </trkpt>
      <trkpt lat="44.07679" lon="3.00171">
        <ele>481.6</ele>
        <time>2018-05-19T09:45:26Z</time>
      </trkpt>
      <trkpt lat="44.07684" lon="3.00173">
        <ele>482.4</ele>
        <time>2018-05-19T09:45:28Z</time>
      </trkpt>
      <trkpt lat="44.07689" lon="3.00175">
        <ele>483.2</ele>
        <time>2018-05-19T09:45:30Z</time>
      </trkpt>
      <trkpt lat="44.07694" lon="3.00178">
        <ele>484</ele>
        <time>2018-05-19T09:45:32Z</time>
      </trkpt>
      <trkpt lat="44.07698" lon="3.0018">
        <ele>484.8</ele>
        <time>2018-05-19T09:45:34Z</time>
      </trkpt>
      <trkpt lat="44.07703" lon="3.00183">
        <ele>485.6</ele>
        <time>2018-05-19T09:45:36Z</time>
      </trkpt>
      <trkpt lat="44.07706" lon="3.00185">
        <ele>486</ele>
        <time>2018-05-19T09:45:37Z</time>
      </trkpt>
      <trkpt lat="44.07709" lon="3.00187">
        <ele>486.3</ele>
        <time>2018-05-19T09:45:38Z</time>
      </trkpt>
      <trkpt lat="44.07712" lon="3.00187">
        <ele>486.5</ele>
        <time>2018-05-19T09:45:39Z</time>
      </trkpt>
      <trkpt lat="44.07715" lon="3.00187">
        <ele>486.8</ele>
        <time>2018-05-19T09:45:40Z</time>
      </trkpt>
      <trkpt lat="44.07718" lon="3.00186">
        <ele>486.9</ele>
        <time>2018-05-19T09:45:41Z</time>
      </trkpt>
      <trkpt lat="44.0772" lon="3.00183">
        <ele>487.1</ele>
        <time>2018-05-19T09:45:42Z</time>
      </trkpt>
      <trkpt lat="44.07722" lon="3.00179">
        <ele>487.3</ele>
        <time>2018-05-19T09:45:43Z</time>
      </trkpt>
      <trkpt lat="44.07724" lon="3.00175">
        <ele>487.5</ele>
        <time>2018-05-19T09:45:44Z</time>
      </trkpt>
      <trkpt lat="44.07725" lon="3.00172">
        <ele>487.7</ele>
        <time>2018-05-19T09:45:45Z</time>
      </trkpt>
      <trkpt lat="44.07727" lon="3.00166">
        <ele>488</ele>
        <time>2018-05-19T09:45:47Z</time>
      </trkpt>
      <trkpt lat="44.07729" lon="3.0016">
        <ele>488.5</ele>
        <time>2018-05-19T09:45:49Z</time>
      </trkpt>
      <trkpt lat="44.07732" lon="3.00155">
        <ele>489.1</ele>
        <time>2018-05-19T09:45:51Z</time>
      </trkpt>
      <trkpt lat="44.07736" lon="3.00151">
        <ele>489.8</ele>
        <time>2018-05-19T09:45:53Z</time>
      </trkpt>
      <trkpt lat="44.0774" lon="3.00148">
        <ele>490.6</ele>
        <time>2018-05-19T09:45:55Z</time>
      </trkpt>
      <trkpt lat="44.07745" lon="3.00146">
        <ele>491.5</ele>
        <time>2018-05-19T09:45:57Z</time>
      </trkpt>
      <trkpt lat="44.07749" lon="3.00145">
        <ele>492.2</ele>
        <time>2018-05-19T09:45:59Z</time>
      </trkpt>
      <trkpt lat="44.07752" lon="3.00143">
        <ele>492.8</ele>
        <time>2018-05-19T09:46:01Z</time>
      </trkpt>
      <trkpt lat="44.07756" lon="3.00143">
        <ele>493.5</ele>
        <time>2018-05-19T09:46:03Z</time>
      </trkpt>
      <trkpt lat="44.0776" lon="3.00145">
        <ele>494.4</ele>
        <time>2018-05-19T09:46:05Z</time>
      </trkpt>
      <trkpt lat="44.07764" lon="3.00145">
        <ele>495.1</ele>
        <time>2018-05-19T09:46:07Z</time>
      </trkpt>
      <trkpt lat="44.07767" lon="3.00144">
        <ele>495.9</ele>
        <time>2018-05-19T09:46:09Z</time>
      </trkpt>
      <trkpt lat="44.0777" lon="3.00142">
        <ele>496.5</ele>
        <time>2018-05-19T09:46:11Z</time>
      </trkpt>
      <trkpt lat="44.07774" lon="3.0014">
        <ele>497.3</ele>
        <time>2018-05-19T09:46:13Z</time>
      </trkpt>
      <trkpt lat="44.07778" lon="3.00138">
        <ele>497.9</ele>
        <time>2018-05-19T09:46:15Z</time>
      </trkpt>
      <trkpt lat="44.07781" lon="3.00135">
        <ele>498.5</ele>
        <time>2018-05-19T09:46:17Z</time>
      </trkpt>
      <trkpt lat="44.07785" lon="3.00132">
        <ele>499.1</ele>
        <time>2018-05-19T09:46:19Z</time>
      </trkpt>
      <trkpt lat="44.07788" lon="3.00128">
        <ele>499.7</ele>
        <time>2018-05-19T09:46:21Z</time>
      </trkpt>
      <trkpt lat="44.07791" lon="3.00124">
        <ele>500.3</ele>
        <time>2018-05-19T09:46:23Z</time>
      </trkpt>
      <trkpt lat="44.07794" lon="3.00119">
        <ele>500.9</ele>
        <time>2018-05-19T09:46:25Z</time>
      </trkpt>
      <trkpt lat="44.07796" lon="3.00115">
        <ele>501.6</ele>
        <time>2018-05-19T09:46:27Z</time>
      </trkpt>
      <trkpt lat="44.07799" lon="3.0011">
        <ele>502.3</ele>
        <time>2018-05-19T09:46:29Z</time>
      </trkpt>
      <trkpt lat="44.07801" lon="3.00105">
        <ele>503.2</ele>
        <time>2018-05-19T09:46:31Z</time>
      </trkpt>
      <trkpt lat="44.07803" lon="3.001">
        <ele>504</ele>
        <time>2018-05-19T09:46:33Z</time>
      </trkpt>
      <trkpt lat="44.07806" lon="3.00096">
        <ele>504.8</ele>
        <time>2018-05-19T09:46:35Z</time>
      </trkpt>
      <trkpt lat="44.07809" lon="3.00091">
        <ele>505.5</ele>
        <time>2018-05-19T09:46:37Z</time>
      </trkpt>
      <trkpt lat="44.07812" lon="3.00087">
        <ele>506.2</ele>
        <time>2018-05-19T09:46:39Z</time>
      </trkpt>
      <trkpt lat="44.07815" lon="3.00084">
        <ele>506.7</ele>
        <time>2018-05-19T09:46:41Z</time>
      </trkpt>
      <trkpt lat="44.07818" lon="3.00081">
        <ele>507.3</ele>
        <time>2018-05-19T09:46:43Z</time>
      </trkpt>
      <trkpt lat="44.0782" lon="3.00078">
        <ele>507.7</ele>
        <time>2018-05-19T09:46:45Z</time>
      </trkpt>
      <trkpt lat="44.07823" lon="3.00076">
        <ele>508.2</ele>
        <time>2018-05-19T09:46:47Z</time>
      </trkpt>
      <trkpt lat="44.07826" lon="3.00073">
        <ele>508.6</ele>
        <time>2018-05-19T09:46:49Z</time>
      </trkpt>
      <trkpt lat="44.07828" lon="3.00071">
        <ele>508.9</ele>
        <time>2018-05-19T09:46:51Z</time>
      </trkpt>
      <trkpt lat="44.07832" lon="3.00067">
        <ele>509.2</ele>
        <time>2018-05-19T09:46:53Z</time>
      </trkpt>
      <trkpt lat="44.07835" lon="3.00065">
        <ele>509.2</ele>
        <time>2018-05-19T09:46:54Z</time>
      </trkpt>
      <trkpt lat="44.07837" lon="3.00062">
        <ele>509.3</ele>
        <time>2018-05-19T09:46:55Z</time>
      </trkpt>
      <trkpt lat="44.07842" lon="3.00059">
        <ele>509.1</ele>
        <time>2018-05-19T09:46:56Z</time>
      </trkpt>
      <trkpt lat="44.07846" lon="3.00055">
        <ele>508.9</ele>
        <time>2018-05-19T09:46:57Z</time>
      </trkpt>
      <trkpt lat="44.0785" lon="3.0005">
        <ele>508.6</ele>
        <time>2018-05-19T09:46:58Z</time>
      </trkpt>
      <trkpt lat="44.07854" lon="3.00043">
        <ele>508.1</ele>
        <time>2018-05-19T09:46:59Z</time>
      </trkpt>
      <trkpt lat="44.07859" lon="3.00035">
        <ele>507.4</ele>
        <time>2018-05-19T09:47:00Z</time>
      </trkpt>
      <trkpt lat="44.07862" lon="3.00025">
        <ele>506.6</ele>
        <time>2018-05-19T09:47:01Z</time>
      </trkpt>
      <trkpt lat="44.07866" lon="3.00013">
        <ele>505.5</ele>
        <time>2018-05-19T09:47:02Z</time>
      </trkpt>
      <trkpt lat="44.07872" lon="3.00002">
        <ele>504.3</ele>
        <time>2018-05-19T09:47:03Z</time>
      </trkpt>
      <trkpt lat="44.07878" lon="2.99992">
        <ele>503</ele>
        <time>2018-05-19T09:47:04Z</time>
      </trkpt>
      <trkpt lat="44.07885" lon="2.99982">
        <ele>501.6</ele>
        <time>2018-05-19T09:47:05Z</time>
      </trkpt>
      <trkpt lat="44.07892" lon="2.99971">
        <ele>500</ele>
        <time>2018-05-19T09:47:06Z</time>
      </trkpt>
      <trkpt lat="44.07899" lon="2.99961">
        <ele>498.4</ele>
        <time>2018-05-19T09:47:07Z</time>
      </trkpt>
      <trkpt lat="44.07906" lon="2.99951">
        <ele>496.9</ele>
        <time>2018-05-19T09:47:08Z</time>
      </trkpt>
      <trkpt lat="44.07914" lon="2.99941">
        <ele>495.1</ele>
        <time>2018-05-19T09:47:09Z</time>
      </trkpt>
      <trkpt lat="44.07923" lon="2.99933">
        <ele>493.2</ele>
        <time>2018-05-19T09:47:10Z</time>
      </trkpt>
      <trkpt lat="44.07933" lon="2.99925">
        <ele>491.1</ele>
        <time>2018-05-19T09:47:11Z</time>
      </trkpt>
      <trkpt lat="44.07943" lon="2.99919">
        <ele>489.1</ele>
        <time>2018-05-19T09:47:12Z</time>
      </trkpt>
      <trkpt lat="44.07952" lon="2.99916">
        <ele>487.3</ele>
        <time>2018-05-19T09:47:13Z</time>
      </trkpt>
      <trkpt lat="44.07962" lon="2.99916">
        <ele>485.3</ele>
        <time>2018-05-19T09:47:14Z</time>
      </trkpt>
      <trkpt lat="44.0797" lon="2.9992">
        <ele>484</ele>
        <time>2018-05-19T09:47:15Z</time>
      </trkpt>
      <trkpt lat="44.07974" lon="2.99926">
        <ele>483.2</ele>
        <time>2018-05-19T09:47:16Z</time>
      </trkpt>
      <trkpt lat="44.07976" lon="2.99934">
        <ele>482.5</ele>
        <time>2018-05-19T09:47:17Z</time>
      </trkpt>
      <trkpt lat="44.07978" lon="2.99943">
        <ele>482</ele>
        <time>2018-05-19T09:47:18Z</time>
      </trkpt>
      <trkpt lat="44.0798" lon="2.99949">
        <ele>481.7</ele>
        <time>2018-05-19T09:47:19Z</time>
      </trkpt>
      <trkpt lat="44.07981" lon="2.99955">
        <ele>481.6</ele>
        <time>2018-05-19T09:47:20Z</time>
      </trkpt>
      <trkpt lat="44.07982" lon="2.9996">
        <ele>481.5</ele>
        <time>2018-05-19T09:47:21Z</time>
      </trkpt>
      <trkpt lat="44.07983" lon="2.99966">
        <ele>481.5</ele>
        <time>2018-05-19T09:47:22Z</time>
      </trkpt>
      <trkpt lat="44.07985" lon="2.99971">
        <ele>481.6</ele>
        <time>2018-05-19T09:47:23Z</time>
      </trkpt>
      <trkpt lat="44.07987" lon="2.99978">
        <ele>481.8</ele>
        <time>2018-05-19T09:47:24Z</time>
      </trkpt>
      <trkpt lat="44.07988" lon="2.99984">
        <ele>481.9</ele>
        <time>2018-05-19T09:47:25Z</time>
      </trkpt>
      <trkpt lat="44.0799" lon="2.99992">
        <ele>481.9</ele>
        <time>2018-05-19T09:47:26Z</time>
      </trkpt>
      <trkpt lat="44.07991" lon="3.00001">
        <ele>481.7</ele>
        <time>2018-05-19T09:47:27Z</time>
      </trkpt>
      <trkpt lat="44.07993" lon="3.00011">
        <ele>481.1</ele>
        <time>2018-05-19T09:47:28Z</time>
      </trkpt>
      <trkpt lat="44.07995" lon="3.00022">
        <ele>480.5</ele>
        <time>2018-05-19T09:47:29Z</time>
      </trkpt>
      <trkpt lat="44.07996" lon="3.00034">
        <ele>479.8</ele>
        <time>2018-05-19T09:47:30Z</time>
      </trkpt>
      <trkpt lat="44.07997" lon="3.00045">
        <ele>479.1</ele>
        <time>2018-05-19T09:47:31Z</time>
      </trkpt>
      <trkpt lat="44.07996" lon="3.00057">
        <ele>478.4</ele>
        <time>2018-05-19T09:47:32Z</time>
      </trkpt>
      <trkpt lat="44.07994" lon="3.00067">
        <ele>478</ele>
        <time>2018-05-19T09:47:33Z</time>
      </trkpt>
      <trkpt lat="44.07992" lon="3.00075">
        <ele>477.9</ele>
        <time>2018-05-19T09:47:34Z</time>
      </trkpt>
      <trkpt lat="44.07992" lon="3.00082">
        <ele>478</ele>
        <time>2018-05-19T09:47:35Z</time>
      </trkpt>
      <trkpt lat="44.07994" lon="3.00089">
        <ele>478.3</ele>
        <time>2018-05-19T09:47:36Z</time>
      </trkpt>
      <trkpt lat="44.07996" lon="3.00095">
        <ele>478.8</ele>
        <time>2018-05-19T09:47:37Z</time>
      </trkpt>
      <trkpt lat="44.07998" lon="3.00103">
        <ele>479.4</ele>
        <time>2018-05-19T09:47:38Z</time>
      </trkpt>
      <trkpt lat="44.07998" lon="3.0011">
        <ele>479.9</ele>
        <time>2018-05-19T09:47:39Z</time>
      </trkpt>
      <trkpt lat="44.07997" lon="3.00115">
        <ele>480.2</ele>
        <time>2018-05-19T09:47:40Z</time>
      </trkpt>
      <trkpt lat="44.07995" lon="3.00118">
        <ele>480.4</ele>
        <time>2018-05-19T09:47:41Z</time>
      </trkpt>
      <trkpt lat="44.07992" lon="3.00123">
        <ele>480.7</ele>
        <time>2018-05-19T09:47:43Z</time>
      </trkpt>
      <trkpt lat="44.07988" lon="3.00126">
        <ele>480.9</ele>
        <time>2018-05-19T09:47:46Z</time>
      </trkpt>
      <trkpt lat="44.07988" lon="3.00131">
        <ele>481.2</ele>
        <time>2018-05-19T09:47:48Z</time>
      </trkpt>
      <trkpt lat="44.07987" lon="3.00135">
        <ele>481.4</ele>
        <time>2018-05-19T09:47:52Z</time>
      </trkpt>
      <trkpt lat="44.07985" lon="3.00139">
        <ele>481.7</ele>
        <time>2018-05-19T09:47:56Z</time>
      </trkpt>
      <trkpt lat="44.07986" lon="3.00143">
        <ele>481.9</ele>
        <time>2018-05-19T09:47:58Z</time>
      </trkpt>
      <trkpt lat="44.07986" lon="3.00148">
        <ele>482.3</ele>
        <time>2018-05-19T09:48:00Z</time>
      </trkpt>
      <trkpt lat="44.07987" lon="3.00154">
        <ele>482.7</ele>
        <time>2018-05-19T09:48:02Z</time>
      </trkpt>
      <trkpt lat="44.07987" lon="3.00159">
        <ele>483.1</ele>
        <time>2018-05-19T09:48:04Z</time>
      </trkpt>
      <trkpt lat="44.07987" lon="3.00165">
        <ele>484</ele>
        <time>2018-05-19T09:48:06Z</time>
      </trkpt>
      <trkpt lat="44.07987" lon="3.00171">
        <ele>484.8</ele>
        <time>2018-05-19T09:48:08Z</time>
      </trkpt>
      <trkpt lat="44.07987" lon="3.00179">
        <ele>485.4</ele>
        <time>2018-05-19T09:48:10Z</time>
      </trkpt>
      <trkpt lat="44.07988" lon="3.00186">
        <ele>486.3</ele>
        <time>2018-05-19T09:48:12Z</time>
      </trkpt>
      <trkpt lat="44.07988" lon="3.0019">
        <ele>486.9</ele>
        <time>2018-05-19T09:48:13Z</time>
      </trkpt>
      <trkpt lat="44.07987" lon="3.00194">
        <ele>487.4</ele>
        <time>2018-05-19T09:48:14Z</time>
      </trkpt>
      <trkpt lat="44.07987" lon="3.00201">
        <ele>488.3</ele>
        <time>2018-05-19T09:48:16Z</time>
      </trkpt>
      <trkpt lat="44.07987" lon="3.00208">
        <ele>488.9</ele>
        <time>2018-05-19T09:48:18Z</time>
      </trkpt>
      <trkpt lat="44.07987" lon="3.00214">
        <ele>489.4</ele>
        <time>2018-05-19T09:48:20Z</time>
      </trkpt>
      <trkpt lat="44.07987" lon="3.0022">
        <ele>489.7</ele>
        <time>2018-05-19T09:48:22Z</time>
      </trkpt>
      <trkpt lat="44.07986" lon="3.00227">
        <ele>490</ele>
        <time>2018-05-19T09:48:24Z</time>
      </trkpt>
      <trkpt lat="44.07985" lon="3.00233">
        <ele>490.3</ele>
        <time>2018-05-19T09:48:26Z</time>
      </trkpt>
      <trkpt lat="44.07984" lon="3.0024">
        <ele>490.7</ele>
        <time>2018-05-19T09:48:28Z</time>
      </trkpt>
      <trkpt lat="44.07984" lon="3.00247">
        <ele>491.3</ele>
        <time>2018-05-19T09:48:30Z</time>
      </trkpt>
      <trkpt lat="44.07983" lon="3.00251">
        <ele>491.6</ele>
        <time>2018-05-19T09:48:31Z</time>
      </trkpt>
      <trkpt lat="44.07983" lon="3.00258">
        <ele>492.5</ele>
        <time>2018-05-19T09:48:33Z</time>
      </trkpt>
      <trkpt lat="44.07982" lon="3.00262">
        <ele>493</ele>
        <time>2018-05-19T09:48:34Z</time>
      </trkpt>
      <trkpt lat="44.07982" lon="3.00266">
        <ele>493.5</ele>
        <time>2018-05-19T09:48:35Z</time>
      </trkpt>
      <trkpt lat="44.07981" lon="3.0027">
        <ele>493.8</ele>
        <time>2018-05-19T09:48:36Z</time>
      </trkpt>
      <trkpt lat="44.07981" lon="3.00277">
        <ele>494.4</ele>
        <time>2018-05-19T09:48:38Z</time>
      </trkpt>
      <trkpt lat="44.07981" lon="3.00281">
        <ele>494.5</ele>
        <time>2018-05-19T09:48:39Z</time>
      </trkpt>
      <trkpt lat="44.0798" lon="3.00285">
        <ele>494.7</ele>
        <time>2018-05-19T09:48:40Z</time>
      </trkpt>
      <trkpt lat="44.0798" lon="3.00292">
        <ele>495</ele>
        <time>2018-05-19T09:48:42Z</time>
      </trkpt>
      <trkpt lat="44.0798" lon="3.00299">
        <ele>495.3</ele>
        <time>2018-05-19T09:48:44Z</time>
      </trkpt>
      <trkpt lat="44.0798" lon="3.00306">
        <ele>495.5</ele>
        <time>2018-05-19T09:48:46Z</time>
      </trkpt>
      <trkpt lat="44.0798" lon="3.00314">
        <ele>495.8</ele>
        <time>2018-05-19T09:48:48Z</time>
      </trkpt>
      <trkpt lat="44.0798" lon="3.00318">
        <ele>496</ele>
        <time>2018-05-19T09:48:49Z</time>
      </trkpt>
      <trkpt lat="44.0798" lon="3.00322">
        <ele>496.4</ele>
        <time>2018-05-19T09:48:50Z</time>
      </trkpt>
      <trkpt lat="44.0798" lon="3.00326">
        <ele>497</ele>
        <time>2018-05-19T09:48:51Z</time>
      </trkpt>
      <trkpt lat="44.0798" lon="3.0033">
        <ele>497.6</ele>
        <time>2018-05-19T09:48:52Z</time>
      </trkpt>
      <trkpt lat="44.07981" lon="3.00336">
        <ele>498.6</ele>
        <time>2018-05-19T09:48:54Z</time>
      </trkpt>
      <trkpt lat="44.07981" lon="3.00343">
        <ele>499.3</ele>
        <time>2018-05-19T09:48:56Z</time>
      </trkpt>
      <trkpt lat="44.07982" lon="3.00349">
        <ele>499.9</ele>
        <time>2018-05-19T09:48:58Z</time>
      </trkpt>
      <trkpt lat="44.07983" lon="3.00354">
        <ele>497.7</ele>
        <time>2018-05-19T09:49:00Z</time>
      </trkpt>
      <trkpt lat="44.07983" lon="3.00359">
        <ele>496</ele>
        <time>2018-05-19T09:49:02Z</time>
      </trkpt>
      <trkpt lat="44.07986" lon="3.00361">
        <ele>493.9</ele>
        <time>2018-05-19T09:49:24Z</time>
      </trkpt>
      <trkpt lat="44.07989" lon="3.00364">
        <ele>491.7</ele>
        <time>2018-05-19T09:49:28Z</time>
      </trkpt>
      <trkpt lat="44.07991" lon="3.00368">
        <ele>489.6</ele>
        <time>2018-05-19T09:49:30Z</time>
      </trkpt>
      <trkpt lat="44.07993" lon="3.00374">
        <ele>486.9</ele>
        <time>2018-05-19T09:49:32Z</time>
      </trkpt>
      <trkpt lat="44.07995" lon="3.00377">
        <ele>485.2</ele>
        <time>2018-05-19T09:49:33Z</time>
      </trkpt>
      <trkpt lat="44.07998" lon="3.00379">
        <ele>483.3</ele>
        <time>2018-05-19T09:49:34Z</time>
      </trkpt>
      <trkpt lat="44.08001" lon="3.00383">
        <ele>480.9</ele>
        <time>2018-05-19T09:49:35Z</time>
      </trkpt>
      <trkpt lat="44.08004" lon="3.00387">
        <ele>478.4</ele>
        <time>2018-05-19T09:49:36Z</time>
      </trkpt>
      <trkpt lat="44.08006" lon="3.00392">
        <ele>476.7</ele>
        <time>2018-05-19T09:49:37Z</time>
      </trkpt>
      <trkpt lat="44.08007" lon="3.00397">
        <ele>476.9</ele>
        <time>2018-05-19T09:49:38Z</time>
      </trkpt>
      <trkpt lat="44.08008" lon="3.004">
        <ele>477.1</ele>
        <time>2018-05-19T09:49:39Z</time>
      </trkpt>
      <trkpt lat="44.08009" lon="3.00404">
        <ele>477.3</ele>
        <time>2018-05-19T09:49:41Z</time>
      </trkpt>
      <trkpt lat="44.08011" lon="3.00407">
        <ele>477.4</ele>
        <time>2018-05-19T09:49:44Z</time>
      </trkpt>
      <trkpt lat="44.08016" lon="3.00408">
        <ele>477.7</ele>
        <time>2018-05-19T09:49:46Z</time>
      </trkpt>
      <trkpt lat="44.08021" lon="3.0041">
        <ele>478</ele>
        <time>2018-05-19T09:49:48Z</time>
      </trkpt>
      <trkpt lat="44.08023" lon="3.00413">
        <ele>478.2</ele>
        <time>2018-05-19T09:49:50Z</time>
      </trkpt>
      <trkpt lat="44.08025" lon="3.00417">
        <ele>478.4</ele>
        <time>2018-05-19T09:49:53Z</time>
      </trkpt>
      <trkpt lat="44.08027" lon="3.0042">
        <ele>478.6</ele>
        <time>2018-05-19T09:49:56Z</time>
      </trkpt>
      <trkpt lat="44.08028" lon="3.00425">
        <ele>478.8</ele>
        <time>2018-05-19T09:49:59Z</time>
      </trkpt>
      <trkpt lat="44.08028" lon="3.0043">
        <ele>479</ele>
        <time>2018-05-19T09:50:02Z</time>
      </trkpt>
      <trkpt lat="44.08028" lon="3.00434">
        <ele>479.1</ele>
        <time>2018-05-19T09:50:04Z</time>
      </trkpt>
      <trkpt lat="44.08029" lon="3.00438">
        <ele>479.3</ele>
        <time>2018-05-19T09:50:06Z</time>
      </trkpt>
      <trkpt lat="44.0803" lon="3.00442">
        <ele>479.5</ele>
        <time>2018-05-19T09:50:08Z</time>
      </trkpt>
      <trkpt lat="44.0803" lon="3.00447">
        <ele>479.7</ele>
        <time>2018-05-19T09:50:10Z</time>
      </trkpt>
      <trkpt lat="44.08031" lon="3.00452">
        <ele>479.9</ele>
        <time>2018-05-19T09:50:12Z</time>
      </trkpt>
      <trkpt lat="44.08031" lon="3.00456">
        <ele>482.9</ele>
        <time>2018-05-19T09:50:14Z</time>
      </trkpt>
      <trkpt lat="44.08034" lon="3.0046">
        <ele>482.9</ele>
        <time>2018-05-19T09:50:17Z</time>
      </trkpt>
      <trkpt lat="44.08037" lon="3.00461">
        <ele>482.9</ele>
        <time>2018-05-19T09:50:19Z</time>
      </trkpt>
      <trkpt lat="44.08039" lon="3.00463">
        <ele>482.9</ele>
        <time>2018-05-19T09:50:21Z</time>
      </trkpt>
      <trkpt lat="44.08042" lon="3.00464">
        <ele>482.9</ele>
        <time>2018-05-19T09:50:23Z</time>
      </trkpt>
      <trkpt lat="44.08044" lon="3.00465">
        <ele>482.9</ele>
        <time>2018-05-19T09:50:25Z</time>
      </trkpt>
      <trkpt lat="44.08048" lon="3.00466">
        <ele>482.8</ele>
        <time>2018-05-19T09:50:27Z</time>
      </trkpt>
      <trkpt lat="44.08052" lon="3.00466">
        <ele>482.8</ele>
        <time>2018-05-19T09:50:29Z</time>
      </trkpt>
      <trkpt lat="44.08056" lon="3.00467">
        <ele>482.8</ele>
        <time>2018-05-19T09:50:31Z</time>
      </trkpt>
      <trkpt lat="44.08059" lon="3.00467">
        <ele>482.8</ele>
        <time>2018-05-19T09:50:33Z</time>
      </trkpt>
      <trkpt lat="44.08063" lon="3.00468">
        <ele>482.8</ele>
        <time>2018-05-19T09:50:36Z</time>
      </trkpt>
      <trkpt lat="44.08066" lon="3.0047">
        <ele>482.7</ele>
        <time>2018-05-19T09:50:39Z</time>
      </trkpt>
      <trkpt lat="44.08065" lon="3.00466">
        <ele>482.7</ele>
        <time>2018-05-19T09:51:08Z</time>
      </trkpt>
      <trkpt lat="44.08068" lon="3.00466">
        <ele>482.6</ele>
        <time>2018-05-19T09:51:42Z</time>
      </trkpt>
      <trkpt lat="44.08069" lon="3.0047">
        <ele>482.6</ele>
        <time>2018-05-19T09:51:54Z</time>
      </trkpt>
      <trkpt lat="44.08071" lon="3.00472">
        <ele>482.5</ele>
        <time>2018-05-19T09:55:10Z</time>
      </trkpt>
      <trkpt lat="44.08073" lon="3.00475">
        <ele>482.5</ele>
        <time>2018-05-19T09:55:12Z</time>
      </trkpt>
      <trkpt lat="44.08076" lon="3.00479">
        <ele>482.4</ele>
        <time>2018-05-19T09:55:14Z</time>
      </trkpt>
      <trkpt lat="44.0808" lon="3.00482">
        <ele>482.1</ele>
        <time>2018-05-19T09:55:16Z</time>
      </trkpt>
      <trkpt lat="44.08085" lon="3.00485">
        <ele>481.7</ele>
        <time>2018-05-19T09:55:18Z</time>
      </trkpt>
      <trkpt lat="44.08089" lon="3.00485">
        <ele>481.5</ele>
        <time>2018-05-19T09:55:19Z</time>
      </trkpt>
      <trkpt lat="44.08092" lon="3.00486">
        <ele>481.3</ele>
        <time>2018-05-19T09:55:20Z</time>
      </trkpt>
      <trkpt lat="44.08096" lon="3.00487">
        <ele>481.1</ele>
        <time>2018-05-19T09:55:21Z</time>
      </trkpt>
      <trkpt lat="44.081" lon="3.00488">
        <ele>480.9</ele>
        <time>2018-05-19T09:55:22Z</time>
      </trkpt>
      <trkpt lat="44.08104" lon="3.00489">
        <ele>480.8</ele>
        <time>2018-05-19T09:55:23Z</time>
      </trkpt>
      <trkpt lat="44.08109" lon="3.0049">
        <ele>480.7</ele>
        <time>2018-05-19T09:55:24Z</time>
      </trkpt>
      <trkpt lat="44.08113" lon="3.0049">
        <ele>480.5</ele>
        <time>2018-05-19T09:55:25Z</time>
      </trkpt>
      <trkpt lat="44.08117" lon="3.00491">
        <ele>480.4</ele>
        <time>2018-05-19T09:55:26Z</time>
      </trkpt>
      <trkpt lat="44.08121" lon="3.00491">
        <ele>480.3</ele>
        <time>2018-05-19T09:55:27Z</time>
      </trkpt>
      <trkpt lat="44.08125" lon="3.0049">
        <ele>480.2</ele>
        <time>2018-05-19T09:55:28Z</time>
      </trkpt>
      <trkpt lat="44.08133" lon="3.00488">
        <ele>479.8</ele>
        <time>2018-05-19T09:55:29Z</time>
      </trkpt>
      <trkpt lat="44.0814" lon="3.00489">
        <ele>479.5</ele>
        <time>2018-05-19T09:55:30Z</time>
      </trkpt>
      <trkpt lat="44.08146" lon="3.0049">
        <ele>479.2</ele>
        <time>2018-05-19T09:55:31Z</time>
      </trkpt>
      <trkpt lat="44.08153" lon="3.0049">
        <ele>478.8</ele>
        <time>2018-05-19T09:55:32Z</time>
      </trkpt>
      <trkpt lat="44.0816" lon="3.0049">
        <ele>478.4</ele>
        <time>2018-05-19T09:55:33Z</time>
      </trkpt>
      <trkpt lat="44.08168" lon="3.00489">
        <ele>477.9</ele>
        <time>2018-05-19T09:55:34Z</time>
      </trkpt>
      <trkpt lat="44.08177" lon="3.0049">
        <ele>477.4</ele>
        <time>2018-05-19T09:55:35Z</time>
      </trkpt>
      <trkpt lat="44.08186" lon="3.00491">
        <ele>476.9</ele>
        <time>2018-05-19T09:55:36Z</time>
      </trkpt>
      <trkpt lat="44.08195" lon="3.00491">
        <ele>476.3</ele>
        <time>2018-05-19T09:55:37Z</time>
      </trkpt>
      <trkpt lat="44.08205" lon="3.00491">
        <ele>475.7</ele>
        <time>2018-05-19T09:55:38Z</time>
      </trkpt>
      <trkpt lat="44.08216" lon="3.00492">
        <ele>474.9</ele>
        <time>2018-05-19T09:55:39Z</time>
      </trkpt>
      <trkpt lat="44.08224" lon="3.00493">
        <ele>474.3</ele>
        <time>2018-05-19T09:55:40Z</time>
      </trkpt>
      <trkpt lat="44.08232" lon="3.00495">
        <ele>473.8</ele>
        <time>2018-05-19T09:55:41Z</time>
      </trkpt>
      <trkpt lat="44.0824" lon="3.00496">
        <ele>473.2</ele>
        <time>2018-05-19T09:55:42Z</time>
      </trkpt>
      <trkpt lat="44.0825" lon="3.00496">
        <ele>472.6</ele>
        <time>2018-05-19T09:55:43Z</time>
      </trkpt>
      <trkpt lat="44.08258" lon="3.00498">
        <ele>472</ele>
        <time>2018-05-19T09:55:44Z</time>
      </trkpt>
      <trkpt lat="44.08267" lon="3.005">
        <ele>471.5</ele>
        <time>2018-05-19T09:55:45Z</time>
      </trkpt>
      <trkpt lat="44.08274" lon="3.005">
        <ele>471</ele>
        <time>2018-05-19T09:55:46Z</time>
      </trkpt>
      <trkpt lat="44.08282" lon="3.005">
        <ele>470.6</ele>
        <time>2018-05-19T09:55:47Z</time>
      </trkpt>
      <trkpt lat="44.08288" lon="3.00494">
        <ele>470.4</ele>
        <time>2018-05-19T09:55:48Z</time>
      </trkpt>
      <trkpt lat="44.08293" lon="3.00489">
        <ele>470.2</ele>
        <time>2018-05-19T09:55:49Z</time>
      </trkpt>
      <trkpt lat="44.08298" lon="3.00483">
        <ele>470.1</ele>
        <time>2018-05-19T09:55:50Z</time>
      </trkpt>
      <trkpt lat="44.08301" lon="3.00476">
        <ele>469.9</ele>
        <time>2018-05-19T09:55:51Z</time>
      </trkpt>
      <trkpt lat="44.08304" lon="3.00469">
        <ele>469.7</ele>
        <time>2018-05-19T09:55:52Z</time>
      </trkpt>
      <trkpt lat="44.08308" lon="3.00462">
        <ele>469.5</ele>
        <time>2018-05-19T09:55:53Z</time>
      </trkpt>
      <trkpt lat="44.08312" lon="3.00455">
        <ele>469.4</ele>
        <time>2018-05-19T09:55:54Z</time>
      </trkpt>
      <trkpt lat="44.08314" lon="3.00448">
        <ele>469.2</ele>
        <time>2018-05-19T09:55:55Z</time>
      </trkpt>
      <trkpt lat="44.08316" lon="3.0044">
        <ele>469</ele>
        <time>2018-05-19T09:55:56Z</time>
      </trkpt>
      <trkpt lat="44.08317" lon="3.00433">
        <ele>468.8</ele>
        <time>2018-05-19T09:55:57Z</time>
      </trkpt>
      <trkpt lat="44.08318" lon="3.00425">
        <ele>468.6</ele>
        <time>2018-05-19T09:55:58Z</time>
      </trkpt>
      <trkpt lat="44.08319" lon="3.00418">
        <ele>468.5</ele>
        <time>2018-05-19T09:55:59Z</time>
      </trkpt>
      <trkpt lat="44.08319" lon="3.00412">
        <ele>468.4</ele>
        <time>2018-05-19T09:56:00Z</time>
      </trkpt>
      <trkpt lat="44.0832" lon="3.00402">
        <ele>468.2</ele>
        <time>2018-05-19T09:56:01Z</time>
      </trkpt>
      <trkpt lat="44.08321" lon="3.00395">
        <ele>468.1</ele>
        <time>2018-05-19T09:56:02Z</time>
      </trkpt>
      <trkpt lat="44.08321" lon="3.00388">
        <ele>468</ele>
        <time>2018-05-19T09:56:03Z</time>
      </trkpt>
      <trkpt lat="44.08321" lon="3.00382">
        <ele>467.9</ele>
        <time>2018-05-19T09:56:04Z</time>
      </trkpt>
      <trkpt lat="44.08321" lon="3.00377">
        <ele>467.7</ele>
        <time>2018-05-19T09:56:05Z</time>
      </trkpt>
      <trkpt lat="44.08321" lon="3.0037">
        <ele>467.6</ele>
        <time>2018-05-19T09:56:06Z</time>
      </trkpt>
      <trkpt lat="44.08321" lon="3.00363">
        <ele>467.4</ele>
        <time>2018-05-19T09:56:07Z</time>
      </trkpt>
      <trkpt lat="44.08322" lon="3.00356">
        <ele>467.1</ele>
        <time>2018-05-19T09:56:08Z</time>
      </trkpt>
      <trkpt lat="44.08325" lon="3.00346">
        <ele>466.9</ele>
        <time>2018-05-19T09:56:09Z</time>
      </trkpt>
      <trkpt lat="44.08325" lon="3.0034">
        <ele>466.8</ele>
        <time>2018-05-19T09:56:10Z</time>
      </trkpt>
      <trkpt lat="44.08325" lon="3.00334">
        <ele>466.7</ele>
        <time>2018-05-19T09:56:11Z</time>
      </trkpt>
      <trkpt lat="44.08326" lon="3.00329">
        <ele>466.5</ele>
        <time>2018-05-19T09:56:12Z</time>
      </trkpt>
      <trkpt lat="44.08327" lon="3.00322">
        <ele>466.2</ele>
        <time>2018-05-19T09:56:13Z</time>
      </trkpt>
      <trkpt lat="44.08328" lon="3.00316">
        <ele>466.1</ele>
        <time>2018-05-19T09:56:14Z</time>
      </trkpt>
      <trkpt lat="44.08329" lon="3.00309">
        <ele>465.9</ele>
        <time>2018-05-19T09:56:15Z</time>
      </trkpt>
      <trkpt lat="44.08329" lon="3.00302">
        <ele>465.7</ele>
        <time>2018-05-19T09:56:16Z</time>
      </trkpt>
      <trkpt lat="44.0833" lon="3.00296">
        <ele>465.3</ele>
        <time>2018-05-19T09:56:17Z</time>
      </trkpt>
      <trkpt lat="44.08331" lon="3.00289">
        <ele>465.1</ele>
        <time>2018-05-19T09:56:18Z</time>
      </trkpt>
      <trkpt lat="44.08332" lon="3.00284">
        <ele>464.9</ele>
        <time>2018-05-19T09:56:19Z</time>
      </trkpt>
      <trkpt lat="44.08333" lon="3.00277">
        <ele>464.7</ele>
        <time>2018-05-19T09:56:20Z</time>
      </trkpt>
      <trkpt lat="44.08335" lon="3.00271">
        <ele>464.5</ele>
        <time>2018-05-19T09:56:21Z</time>
      </trkpt>
      <trkpt lat="44.08337" lon="3.00267">
        <ele>464.3</ele>
        <time>2018-05-19T09:56:22Z</time>
      </trkpt>
      <trkpt lat="44.08339" lon="3.00261">
        <ele>464.1</ele>
        <time>2018-05-19T09:56:23Z</time>
      </trkpt>
      <trkpt lat="44.0834" lon="3.00256">
        <ele>463.8</ele>
        <time>2018-05-19T09:56:24Z</time>
      </trkpt>
      <trkpt lat="44.0834" lon="3.0025">
        <ele>463.6</ele>
        <time>2018-05-19T09:56:25Z</time>
      </trkpt>
      <trkpt lat="44.08341" lon="3.00245">
        <ele>463.5</ele>
        <time>2018-05-19T09:56:26Z</time>
      </trkpt>
      <trkpt lat="44.08343" lon="3.0024">
        <ele>463.3</ele>
        <time>2018-05-19T09:56:27Z</time>
      </trkpt>
      <trkpt lat="44.08343" lon="3.00234">
        <ele>463.1</ele>
        <time>2018-05-19T09:56:28Z</time>
      </trkpt>
      <trkpt lat="44.08345" lon="3.00227">
        <ele>462.9</ele>
        <time>2018-05-19T09:56:29Z</time>
      </trkpt>
      <trkpt lat="44.08344" lon="3.0022">
        <ele>462.6</ele>
        <time>2018-05-19T09:56:30Z</time>
      </trkpt>
      <trkpt lat="44.08343" lon="3.00212">
        <ele>462.2</ele>
        <time>2018-05-19T09:56:31Z</time>
      </trkpt>
      <trkpt lat="44.0834" lon="3.00203">
        <ele>461.9</ele>
        <time>2018-05-19T09:56:32Z</time>
      </trkpt>
      <trkpt lat="44.08338" lon="3.00195">
        <ele>461.7</ele>
        <time>2018-05-19T09:56:33Z</time>
      </trkpt>
      <trkpt lat="44.08335" lon="3.00188">
        <ele>461.5</ele>
        <time>2018-05-19T09:56:34Z</time>
      </trkpt>
      <trkpt lat="44.08334" lon="3.0018">
        <ele>461.2</ele>
        <time>2018-05-19T09:56:35Z</time>
      </trkpt>
      <trkpt lat="44.08333" lon="3.00173">
        <ele>460.8</ele>
        <time>2018-05-19T09:56:36Z</time>
      </trkpt>
      <trkpt lat="44.08333" lon="3.00166">
        <ele>460.5</ele>
        <time>2018-05-19T09:56:37Z</time>
      </trkpt>
      <trkpt lat="44.08332" lon="3.00161">
        <ele>460.4</ele>
        <time>2018-05-19T09:56:38Z</time>
      </trkpt>
      <trkpt lat="44.0833" lon="3.00156">
        <ele>460.2</ele>
        <time>2018-05-19T09:56:39Z</time>
      </trkpt>
      <trkpt lat="44.08327" lon="3.00152">
        <ele>459.9</ele>
        <time>2018-05-19T09:56:40Z</time>
      </trkpt>
      <trkpt lat="44.08322" lon="3.00149">
        <ele>459.8</ele>
        <time>2018-05-19T09:56:41Z</time>
      </trkpt>
      <trkpt lat="44.08315" lon="3.00147">
        <ele>459.7</ele>
        <time>2018-05-19T09:56:42Z</time>
      </trkpt>
      <trkpt lat="44.08307" lon="3.00144">
        <ele>459.5</ele>
        <time>2018-05-19T09:56:43Z</time>
      </trkpt>
      <trkpt lat="44.08301" lon="3.0014">
        <ele>459.2</ele>
        <time>2018-05-19T09:56:44Z</time>
      </trkpt>
      <trkpt lat="44.08293" lon="3.00138">
        <ele>458.7</ele>
        <time>2018-05-19T09:56:45Z</time>
      </trkpt>
      <trkpt lat="44.08283" lon="3.00133">
        <ele>457.8</ele>
        <time>2018-05-19T09:56:46Z</time>
      </trkpt>
      <trkpt lat="44.08275" lon="3.00128">
        <ele>457</ele>
        <time>2018-05-19T09:56:47Z</time>
      </trkpt>
      <trkpt lat="44.08268" lon="3.00121">
        <ele>455.9</ele>
        <time>2018-05-19T09:56:48Z</time>
      </trkpt>
      <trkpt lat="44.0826" lon="3.00115">
        <ele>454.6</ele>
        <time>2018-05-19T09:56:49Z</time>
      </trkpt>
      <trkpt lat="44.08252" lon="3.00106">
        <ele>452.9</ele>
        <time>2018-05-19T09:56:50Z</time>
      </trkpt>
      <trkpt lat="44.08244" lon="3.00098">
        <ele>451.3</ele>
        <time>2018-05-19T09:56:51Z</time>
      </trkpt>
      <trkpt lat="44.08236" lon="3.00091">
        <ele>449.8</ele>
        <time>2018-05-19T09:56:52Z</time>
      </trkpt>
      <trkpt lat="44.08226" lon="3.00083">
        <ele>448</ele>
        <time>2018-05-19T09:56:53Z</time>
      </trkpt>
      <trkpt lat="44.08218" lon="3.00073">
        <ele>446</ele>
        <time>2018-05-19T09:56:54Z</time>
      </trkpt>
      <trkpt lat="44.0821" lon="3.00066">
        <ele>443.4</ele>
        <time>2018-05-19T09:56:55Z</time>
      </trkpt>
      <trkpt lat="44.08201" lon="3.00058">
        <ele>441.5</ele>
        <time>2018-05-19T09:56:56Z</time>
      </trkpt>
      <trkpt lat="44.08192" lon="3.00051">
        <ele>439.3</ele>
        <time>2018-05-19T09:56:57Z</time>
      </trkpt>
      <trkpt lat="44.08181" lon="3.00043">
        <ele>436.7</ele>
        <time>2018-05-19T09:56:58Z</time>
      </trkpt>
      <trkpt lat="44.08172" lon="3.00036">
        <ele>435.5</ele>
        <time>2018-05-19T09:56:59Z</time>
      </trkpt>
      <trkpt lat="44.08165" lon="3.00029">
        <ele>434.8</ele>
        <time>2018-05-19T09:57:00Z</time>
      </trkpt>
      <trkpt lat="44.0816" lon="3.00017">
        <ele>434.2</ele>
        <time>2018-05-19T09:57:01Z</time>
      </trkpt>
      <trkpt lat="44.08157" lon="3.00006">
        <ele>433.6</ele>
        <time>2018-05-19T09:57:02Z</time>
      </trkpt>
      <trkpt lat="44.08156" lon="3">
        <ele>433.3</ele>
        <time>2018-05-19T09:57:03Z</time>
      </trkpt>
      <trkpt lat="44.08155" lon="2.99996">
        <ele>433.2</ele>
        <time>2018-05-19T09:57:04Z</time>
      </trkpt>
      <trkpt lat="44.08161" lon="2.99994">
        <ele>432.9</ele>
        <time>2018-05-19T09:57:06Z</time>
      </trkpt>
      <trkpt lat="44.08163" lon="2.99992">
        <ele>432.8</ele>
        <time>2018-05-19T09:57:08Z</time>
      </trkpt>
      <trkpt lat="44.08164" lon="2.99988">
        <ele>432.6</ele>
        <time>2018-05-19T09:57:09Z</time>
      </trkpt>
      <trkpt lat="44.08166" lon="2.99983">
        <ele>432.4</ele>
        <time>2018-05-19T09:57:11Z</time>
      </trkpt>
      <trkpt lat="44.08165" lon="2.99979">
        <ele>432.3</ele>
        <time>2018-05-19T09:57:15Z</time>
      </trkpt>
      <trkpt lat="44.08164" lon="2.99975">
        <ele>432.1</ele>
        <time>2018-05-19T09:57:21Z</time>
      </trkpt>
      <trkpt lat="44.08162" lon="2.9997">
        <ele>431.9</ele>
        <time>2018-05-19T09:57:24Z</time>
      </trkpt>
      <trkpt lat="44.08159" lon="2.99966">
        <ele>431.8</ele>
        <time>2018-05-19T09:57:26Z</time>
      </trkpt>
      <trkpt lat="44.08158" lon="2.99963">
        <ele>431.7</ele>
        <time>2018-05-19T09:57:27Z</time>
      </trkpt>
      <trkpt lat="44.08156" lon="2.99959">
        <ele>431.5</ele>
        <time>2018-05-19T09:57:28Z</time>
      </trkpt>
      <trkpt lat="44.08154" lon="2.99955">
        <ele>431.3</ele>
        <time>2018-05-19T09:57:29Z</time>
      </trkpt>
      <trkpt lat="44.08153" lon="2.9995">
        <ele>431.1</ele>
        <time>2018-05-19T09:57:30Z</time>
      </trkpt>
      <trkpt lat="44.08152" lon="2.99946">
        <ele>430.9</ele>
        <time>2018-05-19T09:57:31Z</time>
      </trkpt>
      <trkpt lat="44.08152" lon="2.99942">
        <ele>430.7</ele>
        <time>2018-05-19T09:57:32Z</time>
      </trkpt>
      <trkpt lat="44.08153" lon="2.99937">
        <ele>430.5</ele>
        <time>2018-05-19T09:57:33Z</time>
      </trkpt>
      <trkpt lat="44.08154" lon="2.99932">
        <ele>430.3</ele>
        <time>2018-05-19T09:57:34Z</time>
      </trkpt>
      <trkpt lat="44.08155" lon="2.99928">
        <ele>430.1</ele>
        <time>2018-05-19T09:57:35Z</time>
      </trkpt>
      <trkpt lat="44.08156" lon="2.99924">
        <ele>430</ele>
        <time>2018-05-19T09:57:36Z</time>
      </trkpt>
      <trkpt lat="44.08158" lon="2.99919">
        <ele>429.8</ele>
        <time>2018-05-19T09:57:37Z</time>
      </trkpt>
      <trkpt lat="44.08161" lon="2.99913">
        <ele>429.6</ele>
        <time>2018-05-19T09:57:38Z</time>
      </trkpt>
      <trkpt lat="44.08164" lon="2.99907">
        <ele>429.4</ele>
        <time>2018-05-19T09:57:39Z</time>
      </trkpt>
      <trkpt lat="44.08168" lon="2.999">
        <ele>429.1</ele>
        <time>2018-05-19T09:57:40Z</time>
      </trkpt>
      <trkpt lat="44.08173" lon="2.99894">
        <ele>428.9</ele>
        <time>2018-05-19T09:57:41Z</time>
      </trkpt>
      <trkpt lat="44.08182" lon="2.99881">
        <ele>428.5</ele>
        <time>2018-05-19T09:57:42Z</time>
      </trkpt>
      <trkpt lat="44.08186" lon="2.99875">
        <ele>427.9</ele>
        <time>2018-05-19T09:57:43Z</time>
      </trkpt>
      <trkpt lat="44.08189" lon="2.99867">
        <ele>427.8</ele>
        <time>2018-05-19T09:57:44Z</time>
      </trkpt>
      <trkpt lat="44.08193" lon="2.99859">
        <ele>427.7</ele>
        <time>2018-05-19T09:57:45Z</time>
      </trkpt>
      <trkpt lat="44.08195" lon="2.99852">
        <ele>427.5</ele>
        <time>2018-05-19T09:57:46Z</time>
      </trkpt>
      <trkpt lat="44.08199" lon="2.99844">
        <ele>427.4</ele>
        <time>2018-05-19T09:57:47Z</time>
      </trkpt>
      <trkpt lat="44.08204" lon="2.99839">
        <ele>427.1</ele>
        <time>2018-05-19T09:57:48Z</time>
      </trkpt>
      <trkpt lat="44.08212" lon="2.99835">
        <ele>426.6</ele>
        <time>2018-05-19T09:57:49Z</time>
      </trkpt>
      <trkpt lat="44.08214" lon="2.99828">
        <ele>426.5</ele>
        <time>2018-05-19T09:57:50Z</time>
      </trkpt>
      <trkpt lat="44.08219" lon="2.99822">
        <ele>426</ele>
        <time>2018-05-19T09:57:51Z</time>
      </trkpt>
      <trkpt lat="44.08218" lon="2.99813">
        <ele>425.1</ele>
        <time>2018-05-19T09:57:52Z</time>
      </trkpt>
      <trkpt lat="44.08218" lon="2.99804">
        <ele>424.7</ele>
        <time>2018-05-19T09:57:53Z</time>
      </trkpt>
      <trkpt lat="44.08217" lon="2.99797">
        <ele>424.3</ele>
        <time>2018-05-19T09:57:54Z</time>
      </trkpt>
      <trkpt lat="44.08218" lon="2.9979">
        <ele>423.9</ele>
        <time>2018-05-19T09:57:55Z</time>
      </trkpt>
      <trkpt lat="44.08217" lon="2.99782">
        <ele>423.7</ele>
        <time>2018-05-19T09:57:56Z</time>
      </trkpt>
      <trkpt lat="44.0822" lon="2.99772">
        <ele>423.1</ele>
        <time>2018-05-19T09:57:57Z</time>
      </trkpt>
      <trkpt lat="44.08222" lon="2.99766">
        <ele>422.5</ele>
        <time>2018-05-19T09:57:58Z</time>
      </trkpt>
      <trkpt lat="44.08222" lon="2.99758">
        <ele>421.8</ele>
        <time>2018-05-19T09:57:59Z</time>
      </trkpt>
      <trkpt lat="44.0822" lon="2.99748">
        <ele>421.2</ele>
        <time>2018-05-19T09:58:00Z</time>
      </trkpt>
      <trkpt lat="44.08217" lon="2.99738">
        <ele>420</ele>
        <time>2018-05-19T09:58:01Z</time>
      </trkpt>
      <trkpt lat="44.08216" lon="2.99729">
        <ele>418.5</ele>
        <time>2018-05-19T09:58:02Z</time>
      </trkpt>
      <trkpt lat="44.08214" lon="2.99721">
        <ele>417.7</ele>
        <time>2018-05-19T09:58:03Z</time>
      </trkpt>
      <trkpt lat="44.08212" lon="2.99714">
        <ele>416.5</ele>
        <time>2018-05-19T09:58:04Z</time>
      </trkpt>
      <trkpt lat="44.08211" lon="2.99705">
        <ele>415.2</ele>
        <time>2018-05-19T09:58:05Z</time>
      </trkpt>
      <trkpt lat="44.08213" lon="2.99696">
        <ele>414.3</ele>
        <time>2018-05-19T09:58:06Z</time>
      </trkpt>
      <trkpt lat="44.08212" lon="2.99688">
        <ele>413.3</ele>
        <time>2018-05-19T09:58:07Z</time>
      </trkpt>
      <trkpt lat="44.08211" lon="2.99679">
        <ele>412.5</ele>
        <time>2018-05-19T09:58:08Z</time>
      </trkpt>
      <trkpt lat="44.08213" lon="2.99668">
        <ele>411.3</ele>
        <time>2018-05-19T09:58:09Z</time>
      </trkpt>
      <trkpt lat="44.08213" lon="2.99657">
        <ele>410.4</ele>
        <time>2018-05-19T09:58:10Z</time>
      </trkpt>
      <trkpt lat="44.08215" lon="2.99646">
        <ele>409.5</ele>
        <time>2018-05-19T09:58:11Z</time>
      </trkpt>
      <trkpt lat="44.08216" lon="2.99639">
        <ele>409.2</ele>
        <time>2018-05-19T09:58:12Z</time>
      </trkpt>
      <trkpt lat="44.08219" lon="2.99631">
        <ele>408.9</ele>
        <time>2018-05-19T09:58:13Z</time>
      </trkpt>
      <trkpt lat="44.08221" lon="2.99625">
        <ele>408.9</ele>
        <time>2018-05-19T09:58:14Z</time>
      </trkpt>
      <trkpt lat="44.08222" lon="2.9962">
        <ele>409</ele>
        <time>2018-05-19T09:58:15Z</time>
      </trkpt>
      <trkpt lat="44.08222" lon="2.99615">
        <ele>408.6</ele>
        <time>2018-05-19T09:58:16Z</time>
      </trkpt>
      <trkpt lat="44.08223" lon="2.99609">
        <ele>408</ele>
        <time>2018-05-19T09:58:17Z</time>
      </trkpt>
      <trkpt lat="44.08224" lon="2.99603">
        <ele>407.6</ele>
        <time>2018-05-19T09:58:18Z</time>
      </trkpt>
      <trkpt lat="44.08227" lon="2.99596">
        <ele>406.9</ele>
        <time>2018-05-19T09:58:19Z</time>
      </trkpt>
      <trkpt lat="44.08227" lon="2.9959">
        <ele>406.3</ele>
        <time>2018-05-19T09:58:20Z</time>
      </trkpt>
      <trkpt lat="44.08226" lon="2.99581">
        <ele>405.3</ele>
        <time>2018-05-19T09:58:21Z</time>
      </trkpt>
      <trkpt lat="44.08224" lon="2.99572">
        <ele>404.4</ele>
        <time>2018-05-19T09:58:22Z</time>
      </trkpt>
      <trkpt lat="44.08226" lon="2.99562">
        <ele>403.8</ele>
        <time>2018-05-19T09:58:23Z</time>
      </trkpt>
      <trkpt lat="44.08225" lon="2.99553">
        <ele>403.4</ele>
        <time>2018-05-19T09:58:24Z</time>
      </trkpt>
      <trkpt lat="44.08226" lon="2.99542">
        <ele>402.8</ele>
        <time>2018-05-19T09:58:25Z</time>
      </trkpt>
      <trkpt lat="44.08227" lon="2.99532">
        <ele>402.5</ele>
        <time>2018-05-19T09:58:26Z</time>
      </trkpt>
      <trkpt lat="44.08227" lon="2.99521">
        <ele>402.1</ele>
        <time>2018-05-19T09:58:27Z</time>
      </trkpt>
      <trkpt lat="44.08227" lon="2.9951">
        <ele>401.8</ele>
        <time>2018-05-19T09:58:28Z</time>
      </trkpt>
      <trkpt lat="44.0823" lon="2.99496">
        <ele>401.3</ele>
        <time>2018-05-19T09:58:29Z</time>
      </trkpt>
      <trkpt lat="44.08228" lon="2.99484">
        <ele>400.4</ele>
        <time>2018-05-19T09:58:30Z</time>
      </trkpt>
      <trkpt lat="44.08227" lon="2.9947">
        <ele>399.6</ele>
        <time>2018-05-19T09:58:31Z</time>
      </trkpt>
      <trkpt lat="44.08227" lon="2.99456">
        <ele>398.4</ele>
        <time>2018-05-19T09:58:32Z</time>
      </trkpt>
      <trkpt lat="44.08227" lon="2.99444">
        <ele>397.2</ele>
        <time>2018-05-19T09:58:33Z</time>
      </trkpt>
      <trkpt lat="44.08228" lon="2.99432">
        <ele>396.2</ele>
        <time>2018-05-19T09:58:34Z</time>
      </trkpt>
      <trkpt lat="44.08227" lon="2.9942">
        <ele>395.6</ele>
        <time>2018-05-19T09:58:35Z</time>
      </trkpt>
      <trkpt lat="44.08228" lon="2.99408">
        <ele>394.6</ele>
        <time>2018-05-19T09:58:36Z</time>
      </trkpt>
      <trkpt lat="44.08227" lon="2.99394">
        <ele>393.2</ele>
        <time>2018-05-19T09:58:37Z</time>
      </trkpt>
      <trkpt lat="44.08226" lon="2.99379">
        <ele>391.7</ele>
        <time>2018-05-19T09:58:38Z</time>
      </trkpt>
      <trkpt lat="44.08225" lon="2.99366">
        <ele>390.3</ele>
        <time>2018-05-19T09:58:39Z</time>
      </trkpt>
      <trkpt lat="44.08226" lon="2.99351">
        <ele>389.1</ele>
        <time>2018-05-19T09:58:40Z</time>
      </trkpt>
      <trkpt lat="44.08227" lon="2.99338">
        <ele>387.7</ele>
        <time>2018-05-19T09:58:41Z</time>
      </trkpt>
      <trkpt lat="44.08225" lon="2.99326">
        <ele>386.5</ele>
        <time>2018-05-19T09:58:42Z</time>
      </trkpt>
      <trkpt lat="44.08224" lon="2.99312">
        <ele>385.1</ele>
        <time>2018-05-19T09:58:43Z</time>
      </trkpt>
      <trkpt lat="44.08223" lon="2.99299">
        <ele>383.7</ele>
        <time>2018-05-19T09:58:44Z</time>
      </trkpt>
      <trkpt lat="44.08223" lon="2.99284">
        <ele>382</ele>
        <time>2018-05-19T09:58:45Z</time>
      </trkpt>
      <trkpt lat="44.08223" lon="2.9927">
        <ele>380.6</ele>
        <time>2018-05-19T09:58:46Z</time>
      </trkpt>
      <trkpt lat="44.08222" lon="2.99258">
        <ele>379.3</ele>
        <time>2018-05-19T09:58:47Z</time>
      </trkpt>
      <trkpt lat="44.08219" lon="2.99245">
        <ele>377.8</ele>
        <time>2018-05-19T09:58:48Z</time>
      </trkpt>
      <trkpt lat="44.08214" lon="2.99233">
        <ele>376.7</ele>
        <time>2018-05-19T09:58:49Z</time>
      </trkpt>
      <trkpt lat="44.08211" lon="2.99222">
        <ele>375.8</ele>
        <time>2018-05-19T09:58:50Z</time>
      </trkpt>
      <trkpt lat="44.08209" lon="2.99212">
        <ele>374.8</ele>
        <time>2018-05-19T09:58:51Z</time>
      </trkpt>
      <trkpt lat="44.08205" lon="2.99202">
        <ele>373.8</ele>
        <time>2018-05-19T09:58:52Z</time>
      </trkpt>
      <trkpt lat="44.08203" lon="2.99193">
        <ele>372.6</ele>
        <time>2018-05-19T09:58:53Z</time>
      </trkpt>
      <trkpt lat="44.08202" lon="2.99184">
        <ele>371.2</ele>
        <time>2018-05-19T09:58:54Z</time>
      </trkpt>
      <trkpt lat="44.08199" lon="2.99175">
        <ele>370</ele>
        <time>2018-05-19T09:58:55Z</time>
      </trkpt>
      <trkpt lat="44.08197" lon="2.99167">
        <ele>369.3</ele>
        <time>2018-05-19T09:58:56Z</time>
      </trkpt>
      <trkpt lat="44.08196" lon="2.99159">
        <ele>368.4</ele>
        <time>2018-05-19T09:58:57Z</time>
      </trkpt>
      <trkpt lat="44.08195" lon="2.9915">
        <ele>368</ele>
        <time>2018-05-19T09:58:58Z</time>
      </trkpt>
      <trkpt lat="44.08194" lon="2.99141">
        <ele>367.4</ele>
        <time>2018-05-19T09:58:59Z</time>
      </trkpt>
      <trkpt lat="44.08196" lon="2.99132">
        <ele>366</ele>
        <time>2018-05-19T09:59:00Z</time>
      </trkpt>
      <trkpt lat="44.08196" lon="2.99124">
        <ele>364.8</ele>
        <time>2018-05-19T09:59:01Z</time>
      </trkpt>
      <trkpt lat="44.08194" lon="2.99116">
        <ele>363.9</ele>
        <time>2018-05-19T09:59:02Z</time>
      </trkpt>
      <trkpt lat="44.08194" lon="2.99109">
        <ele>363.2</ele>
        <time>2018-05-19T09:59:03Z</time>
      </trkpt>
      <trkpt lat="44.08194" lon="2.99101">
        <ele>362.9</ele>
        <time>2018-05-19T09:59:04Z</time>
      </trkpt>
      <trkpt lat="44.08193" lon="2.99092">
        <ele>362.1</ele>
        <time>2018-05-19T09:59:05Z</time>
      </trkpt>
      <trkpt lat="44.08191" lon="2.99085">
        <ele>361.1</ele>
        <time>2018-05-19T09:59:06Z</time>
      </trkpt>
      <trkpt lat="44.0819" lon="2.99078">
        <ele>360.4</ele>
        <time>2018-05-19T09:59:07Z</time>
      </trkpt>
      <trkpt lat="44.08189" lon="2.9907">
        <ele>359.8</ele>
        <time>2018-05-19T09:59:08Z</time>
      </trkpt>
      <trkpt lat="44.08189" lon="2.99062">
        <ele>359.4</ele>
        <time>2018-05-19T09:59:09Z</time>
      </trkpt>
      <trkpt lat="44.08192" lon="2.99054">
        <ele>358.3</ele>
        <time>2018-05-19T09:59:10Z</time>
      </trkpt>
      <trkpt lat="44.08197" lon="2.99045">
        <ele>355.9</ele>
        <time>2018-05-19T09:59:11Z</time>
      </trkpt>
      <trkpt lat="44.08203" lon="2.99035">
        <ele>353.6</ele>
        <time>2018-05-19T09:59:12Z</time>
      </trkpt>
      <trkpt lat="44.08208" lon="2.99026">
        <ele>351.8</ele>
        <time>2018-05-19T09:59:13Z</time>
      </trkpt>
      <trkpt lat="44.08211" lon="2.99016">
        <ele>350.3</ele>
        <time>2018-05-19T09:59:14Z</time>
      </trkpt>
      <trkpt lat="44.08212" lon="2.99007">
        <ele>348.8</ele>
        <time>2018-05-19T09:59:15Z</time>
      </trkpt>
      <trkpt lat="44.08211" lon="2.99">
        <ele>348.5</ele>
        <time>2018-05-19T09:59:16Z</time>
      </trkpt>
      <trkpt lat="44.08208" lon="2.98998">
        <ele>348.5</ele>
        <time>2018-05-19T09:59:17Z</time>
      </trkpt>
      <trkpt lat="44.082" lon="2.98995">
        <ele>349.1</ele>
        <time>2018-05-19T09:59:18Z</time>
      </trkpt>
      <trkpt lat="44.08195" lon="2.98996">
        <ele>350.6</ele>
        <time>2018-05-19T09:59:19Z</time>
      </trkpt>
      <trkpt lat="44.08188" lon="2.98998">
        <ele>352.6</ele>
        <time>2018-05-19T09:59:20Z</time>
      </trkpt>
      <trkpt lat="44.08183" lon="2.99001">
        <ele>354.4</ele>
        <time>2018-05-19T09:59:21Z</time>
      </trkpt>
      <trkpt lat="44.08177" lon="2.99004">
        <ele>355.8</ele>
        <time>2018-05-19T09:59:22Z</time>
      </trkpt>
      <trkpt lat="44.08172" lon="2.99006">
        <ele>357.1</ele>
        <time>2018-05-19T09:59:23Z</time>
      </trkpt>
      <trkpt lat="44.08167" lon="2.99007">
        <ele>358.5</ele>
        <time>2018-05-19T09:59:24Z</time>
      </trkpt>
      <trkpt lat="44.08164" lon="2.99005">
        <ele>358.8</ele>
        <time>2018-05-19T09:59:25Z</time>
      </trkpt>
      <trkpt lat="44.0816" lon="2.98996">
        <ele>358.9</ele>
        <time>2018-05-19T09:59:27Z</time>
      </trkpt>
      <trkpt lat="44.08157" lon="2.9899">
        <ele>358.9</ele>
        <time>2018-05-19T09:59:29Z</time>
      </trkpt>
      <trkpt lat="44.08159" lon="2.98984">
        <ele>358.9</ele>
        <time>2018-05-19T09:59:31Z</time>
      </trkpt>
      <trkpt lat="44.08159" lon="2.98979">
        <ele>358.8</ele>
        <time>2018-05-19T09:59:32Z</time>
      </trkpt>
      <trkpt lat="44.08158" lon="2.98973">
        <ele>358.8</ele>
        <time>2018-05-19T09:59:34Z</time>
      </trkpt>
      <trkpt lat="44.08154" lon="2.98972">
        <ele>359.3</ele>
        <time>2018-05-19T09:59:37Z</time>
      </trkpt>
      <trkpt lat="44.08151" lon="2.98971">
        <ele>359.8</ele>
        <time>2018-05-19T09:59:39Z</time>
      </trkpt>
      <trkpt lat="44.08146" lon="2.98969">
        <ele>360.3</ele>
        <time>2018-05-19T09:59:41Z</time>
      </trkpt>
      <trkpt lat="44.08142" lon="2.98967">
        <ele>360.8</ele>
        <time>2018-05-19T09:59:43Z</time>
      </trkpt>
      <trkpt lat="44.08139" lon="2.98965">
        <ele>361.4</ele>
        <time>2018-05-19T09:59:44Z</time>
      </trkpt>
      <trkpt lat="44.08136" lon="2.98963">
        <ele>361.9</ele>
        <time>2018-05-19T09:59:45Z</time>
      </trkpt>
      <trkpt lat="44.08133" lon="2.9896">
        <ele>362.6</ele>
        <time>2018-05-19T09:59:47Z</time>
      </trkpt>
      <trkpt lat="44.08129" lon="2.98957">
        <ele>363</ele>
        <time>2018-05-19T09:59:49Z</time>
      </trkpt>
      <trkpt lat="44.08127" lon="2.98954">
        <ele>363.4</ele>
        <time>2018-05-19T09:59:51Z</time>
      </trkpt>
      <trkpt lat="44.08124" lon="2.9895">
        <ele>364</ele>
        <time>2018-05-19T09:59:53Z</time>
      </trkpt>
      <trkpt lat="44.08121" lon="2.98945">
        <ele>364.6</ele>
        <time>2018-05-19T09:59:55Z</time>
      </trkpt>
      <trkpt lat="44.08119" lon="2.98943">
        <ele>364.9</ele>
        <time>2018-05-19T09:59:56Z</time>
      </trkpt>
      <trkpt lat="44.08116" lon="2.98941">
        <ele>365.2</ele>
        <time>2018-05-19T09:59:57Z</time>
      </trkpt>
      <trkpt lat="44.08113" lon="2.98938">
        <ele>365.4</ele>
        <time>2018-05-19T09:59:58Z</time>
      </trkpt>
      <trkpt lat="44.08111" lon="2.98936">
        <ele>365.7</ele>
        <time>2018-05-19T09:59:59Z</time>
      </trkpt>
      <trkpt lat="44.08109" lon="2.98933">
        <ele>366.1</ele>
        <time>2018-05-19T10:00:00Z</time>
      </trkpt>
      <trkpt lat="44.08106" lon="2.9893">
        <ele>366.5</ele>
        <time>2018-05-19T10:00:01Z</time>
      </trkpt>
      <trkpt lat="44.08104" lon="2.98926">
        <ele>366.7</ele>
        <time>2018-05-19T10:00:02Z</time>
      </trkpt>
      <trkpt lat="44.08101" lon="2.98923">
        <ele>366.8</ele>
        <time>2018-05-19T10:00:03Z</time>
      </trkpt>
      <trkpt lat="44.08098" lon="2.98919">
        <ele>366.9</ele>
        <time>2018-05-19T10:00:04Z</time>
      </trkpt>
      <trkpt lat="44.08095" lon="2.98916">
        <ele>366.9</ele>
        <time>2018-05-19T10:00:05Z</time>
      </trkpt>
      <trkpt lat="44.08092" lon="2.98912">
        <ele>366.9</ele>
        <time>2018-05-19T10:00:06Z</time>
      </trkpt>
      <trkpt lat="44.08089" lon="2.98908">
        <ele>366.7</ele>
        <time>2018-05-19T10:00:07Z</time>
      </trkpt>
      <trkpt lat="44.08086" lon="2.98905">
        <ele>366.6</ele>
        <time>2018-05-19T10:00:08Z</time>
      </trkpt>
      <trkpt lat="44.08083" lon="2.98901">
        <ele>366.5</ele>
        <time>2018-05-19T10:00:09Z</time>
      </trkpt>
      <trkpt lat="44.0808" lon="2.98897">
        <ele>366.3</ele>
        <time>2018-05-19T10:00:10Z</time>
      </trkpt>
      <trkpt lat="44.08077" lon="2.98893">
        <ele>366</ele>
        <time>2018-05-19T10:00:11Z</time>
      </trkpt>
      <trkpt lat="44.08075" lon="2.9889">
        <ele>365.8</ele>
        <time>2018-05-19T10:00:12Z</time>
      </trkpt>
      <trkpt lat="44.08072" lon="2.98887">
        <ele>365.7</ele>
        <time>2018-05-19T10:00:13Z</time>
      </trkpt>
      <trkpt lat="44.08068" lon="2.98883">
        <ele>365.7</ele>
        <time>2018-05-19T10:00:14Z</time>
      </trkpt>
      <trkpt lat="44.08064" lon="2.9888">
        <ele>365.3</ele>
        <time>2018-05-19T10:00:15Z</time>
      </trkpt>
      <trkpt lat="44.08061" lon="2.98877">
        <ele>364.6</ele>
        <time>2018-05-19T10:00:16Z</time>
      </trkpt>
      <trkpt lat="44.08058" lon="2.98873">
        <ele>364.6</ele>
        <time>2018-05-19T10:00:17Z</time>
      </trkpt>
      <trkpt lat="44.08055" lon="2.98868">
        <ele>364.2</ele>
        <time>2018-05-19T10:00:18Z</time>
      </trkpt>
      <trkpt lat="44.08051" lon="2.98865">
        <ele>363.5</ele>
        <time>2018-05-19T10:00:19Z</time>
      </trkpt>
      <trkpt lat="44.08048" lon="2.98862">
        <ele>363.1</ele>
        <time>2018-05-19T10:00:20Z</time>
      </trkpt>
      <trkpt lat="44.08045" lon="2.98858">
        <ele>362.7</ele>
        <time>2018-05-19T10:00:21Z</time>
      </trkpt>
      <trkpt lat="44.08041" lon="2.98855">
        <ele>362.5</ele>
        <time>2018-05-19T10:00:22Z</time>
      </trkpt>
      <trkpt lat="44.08038" lon="2.98852">
        <ele>362.3</ele>
        <time>2018-05-19T10:00:23Z</time>
      </trkpt>
      <trkpt lat="44.08035" lon="2.98849">
        <ele>362.1</ele>
        <time>2018-05-19T10:00:24Z</time>
      </trkpt>
      <trkpt lat="44.08033" lon="2.98846">
        <ele>361.8</ele>
        <time>2018-05-19T10:00:25Z</time>
      </trkpt>
      <trkpt lat="44.08031" lon="2.98843">
        <ele>361.5</ele>
        <time>2018-05-19T10:00:26Z</time>
      </trkpt>
      <trkpt lat="44.08028" lon="2.9884">
        <ele>361.1</ele>
        <time>2018-05-19T10:00:27Z</time>
      </trkpt>
      <trkpt lat="44.08026" lon="2.98837">
        <ele>360.9</ele>
        <time>2018-05-19T10:00:28Z</time>
      </trkpt>
      <trkpt lat="44.08023" lon="2.98833">
        <ele>360.8</ele>
        <time>2018-05-19T10:00:29Z</time>
      </trkpt>
      <trkpt lat="44.08021" lon="2.98831">
        <ele>360.5</ele>
        <time>2018-05-19T10:00:30Z</time>
      </trkpt>
      <trkpt lat="44.08018" lon="2.98827">
        <ele>359.6</ele>
        <time>2018-05-19T10:00:32Z</time>
      </trkpt>
      <trkpt lat="44.08016" lon="2.98823">
        <ele>359</ele>
        <time>2018-05-19T10:00:35Z</time>
      </trkpt>
      <trkpt lat="44.08011" lon="2.98815">
        <ele>358.5</ele>
        <time>2018-05-19T10:05:30Z</time>
      </trkpt>
      <trkpt lat="44.08014" lon="2.9881">
        <ele>358</ele>
        <time>2018-05-19T10:05:32Z</time>
      </trkpt>
      <trkpt lat="44.08014" lon="2.98801">
        <ele>357.7</ele>
        <time>2018-05-19T10:05:33Z</time>
      </trkpt>
      <trkpt lat="44.08015" lon="2.98792">
        <ele>357.4</ele>
        <time>2018-05-19T10:05:34Z</time>
      </trkpt>
      <trkpt lat="44.08016" lon="2.98782">
        <ele>357</ele>
        <time>2018-05-19T10:05:35Z</time>
      </trkpt>
      <trkpt lat="44.08018" lon="2.98771">
        <ele>356.5</ele>
        <time>2018-05-19T10:05:36Z</time>
      </trkpt>
      <trkpt lat="44.0802" lon="2.9876">
        <ele>355.7</ele>
        <time>2018-05-19T10:05:37Z</time>
      </trkpt>
      <trkpt lat="44.08023" lon="2.98748">
        <ele>355.1</ele>
        <time>2018-05-19T10:05:38Z</time>
      </trkpt>
      <trkpt lat="44.08026" lon="2.98736">
        <ele>354.8</ele>
        <time>2018-05-19T10:05:39Z</time>
      </trkpt>
      <trkpt lat="44.08029" lon="2.98724">
        <ele>354.4</ele>
        <time>2018-05-19T10:05:40Z</time>
      </trkpt>
      <trkpt lat="44.08033" lon="2.98712">
        <ele>354.1</ele>
        <time>2018-05-19T10:05:41Z</time>
      </trkpt>
      <trkpt lat="44.08038" lon="2.98699">
        <ele>353.6</ele>
        <time>2018-05-19T10:05:42Z</time>
      </trkpt>
      <trkpt lat="44.08043" lon="2.98687">
        <ele>353.2</ele>
        <time>2018-05-19T10:05:43Z</time>
      </trkpt>
      <trkpt lat="44.08045" lon="2.98677">
        <ele>352.7</ele>
        <time>2018-05-19T10:05:44Z</time>
      </trkpt>
      <trkpt lat="44.08045" lon="2.98667">
        <ele>351.9</ele>
        <time>2018-05-19T10:05:45Z</time>
      </trkpt>
      <trkpt lat="44.08041" lon="2.98657">
        <ele>351.2</ele>
        <time>2018-05-19T10:05:46Z</time>
      </trkpt>
      <trkpt lat="44.08036" lon="2.98649">
        <ele>350.4</ele>
        <time>2018-05-19T10:05:47Z</time>
      </trkpt>
      <trkpt lat="44.08029" lon="2.9864">
        <ele>349.5</ele>
        <time>2018-05-19T10:05:48Z</time>
      </trkpt>
      <trkpt lat="44.08023" lon="2.98631">
        <ele>349</ele>
        <time>2018-05-19T10:05:49Z</time>
      </trkpt>
      <trkpt lat="44.08014" lon="2.98623">
        <ele>348.3</ele>
        <time>2018-05-19T10:05:50Z</time>
      </trkpt>
      <trkpt lat="44.08006" lon="2.98615">
        <ele>347.2</ele>
        <time>2018-05-19T10:05:51Z</time>
      </trkpt>
      <trkpt lat="44.08001" lon="2.98605">
        <ele>346.1</ele>
        <time>2018-05-19T10:05:52Z</time>
      </trkpt>
      <trkpt lat="44.07996" lon="2.98597">
        <ele>344.5</ele>
        <time>2018-05-19T10:05:53Z</time>
      </trkpt>
      <trkpt lat="44.07998" lon="2.98592">
        <ele>343.4</ele>
        <time>2018-05-19T10:05:54Z</time>
      </trkpt>
      <trkpt lat="44.08007" lon="2.98588">
        <ele>341.5</ele>
        <time>2018-05-19T10:05:55Z</time>
      </trkpt>
      <trkpt lat="44.0801" lon="2.98582">
        <ele>341</ele>
        <time>2018-05-19T10:05:56Z</time>
      </trkpt>
      <trkpt lat="44.08015" lon="2.98575">
        <ele>341</ele>
        <time>2018-05-19T10:05:57Z</time>
      </trkpt>
      <trkpt lat="44.08018" lon="2.98569">
        <ele>341</ele>
        <time>2018-05-19T10:05:58Z</time>
      </trkpt>
      <trkpt lat="44.0802" lon="2.98563">
        <ele>341</ele>
        <time>2018-05-19T10:05:59Z</time>
      </trkpt>
      <trkpt lat="44.08022" lon="2.98558">
        <ele>341</ele>
        <time>2018-05-19T10:06:00Z</time>
      </trkpt>
      <trkpt lat="44.08024" lon="2.98554">
        <ele>341</ele>
        <time>2018-05-19T10:06:01Z</time>
      </trkpt>
      <trkpt lat="44.08026" lon="2.9855">
        <ele>341</ele>
        <time>2018-05-19T10:06:02Z</time>
      </trkpt>
      <trkpt lat="44.08027" lon="2.98544">
        <ele>341</ele>
        <time>2018-05-19T10:06:04Z</time>
      </trkpt>
      <trkpt lat="44.08028" lon="2.98539">
        <ele>341</ele>
        <time>2018-05-19T10:06:05Z</time>
      </trkpt>
      <trkpt lat="44.08028" lon="2.98532">
        <ele>341</ele>
        <time>2018-05-19T10:06:07Z</time>
      </trkpt>
      <trkpt lat="44.08029" lon="2.98527">
        <ele>341</ele>
        <time>2018-05-19T10:06:09Z</time>
      </trkpt>
      <trkpt lat="44.08029" lon="2.98522">
        <ele>341</ele>
        <time>2018-05-19T10:06:11Z</time>
      </trkpt>
      <trkpt lat="44.08028" lon="2.98517">
        <ele>341</ele>
        <time>2018-05-19T10:06:14Z</time>
      </trkpt>
      <trkpt lat="44.08029" lon="2.98511">
        <ele>341</ele>
        <time>2018-05-19T10:06:17Z</time>
      </trkpt>
      <trkpt lat="44.0803" lon="2.98504">
        <ele>341</ele>
        <time>2018-05-19T10:06:19Z</time>
      </trkpt>
      <trkpt lat="44.08031" lon="2.985">
        <ele>341.4</ele>
        <time>2018-05-19T10:06:20Z</time>
      </trkpt>
      <trkpt lat="44.08032" lon="2.98496">
        <ele>341.9</ele>
        <time>2018-05-19T10:06:21Z</time>
      </trkpt>
      <trkpt lat="44.08034" lon="2.9849">
        <ele>342.6</ele>
        <time>2018-05-19T10:06:23Z</time>
      </trkpt>
      <trkpt lat="44.08035" lon="2.98485">
        <ele>343.1</ele>
        <time>2018-05-19T10:06:25Z</time>
      </trkpt>
      <trkpt lat="44.08036" lon="2.98481">
        <ele>343.5</ele>
        <time>2018-05-19T10:06:28Z</time>
      </trkpt>
      <trkpt lat="44.08036" lon="2.98478">
        <ele>343.9</ele>
        <time>2018-05-19T10:06:32Z</time>
      </trkpt>
      <trkpt lat="44.08033" lon="2.9848">
        <ele>343.6</ele>
        <time>2018-05-19T10:06:55Z</time>
      </trkpt>
      <trkpt lat="44.08031" lon="2.98482">
        <ele>343.4</ele>
        <time>2018-05-19T10:06:58Z</time>
      </trkpt>
      <trkpt lat="44.08031" lon="2.98486">
        <ele>343.3</ele>
        <time>2018-05-19T10:07:08Z</time>
      </trkpt>
      <trkpt lat="44.08033" lon="2.98487">
        <ele>343.1</ele>
        <time>2018-05-19T10:07:16Z</time>
      </trkpt>
      <trkpt lat="44.08035" lon="2.9849">
        <ele>343</ele>
        <time>2018-05-19T10:07:19Z</time>
      </trkpt>
      <trkpt lat="44.08038" lon="2.98494">
        <ele>342.7</ele>
        <time>2018-05-19T10:07:22Z</time>
      </trkpt>
      <trkpt lat="44.08041" lon="2.98495">
        <ele>342.5</ele>
        <time>2018-05-19T10:07:25Z</time>
      </trkpt>
      <trkpt lat="44.08044" lon="2.98497">
        <ele>342.4</ele>
        <time>2018-05-19T10:07:27Z</time>
      </trkpt>
      <trkpt lat="44.08048" lon="2.98499">
        <ele>342.1</ele>
        <time>2018-05-19T10:07:30Z</time>
      </trkpt>
      <trkpt lat="44.08053" lon="2.98502">
        <ele>341.6</ele>
        <time>2018-05-19T10:07:32Z</time>
      </trkpt>
      <trkpt lat="44.08057" lon="2.98504">
        <ele>340.9</ele>
        <time>2018-05-19T10:07:34Z</time>
      </trkpt>
      <trkpt lat="44.08062" lon="2.98508">
        <ele>340.2</ele>
        <time>2018-05-19T10:07:36Z</time>
      </trkpt>
      <trkpt lat="44.08064" lon="2.9851">
        <ele>340.2</ele>
        <time>2018-05-19T10:07:37Z</time>
      </trkpt>
      <trkpt lat="44.08067" lon="2.98512">
        <ele>339.8</ele>
        <time>2018-05-19T10:07:38Z</time>
      </trkpt>
      <trkpt lat="44.08072" lon="2.98514">
        <ele>339.6</ele>
        <time>2018-05-19T10:07:40Z</time>
      </trkpt>
      <trkpt lat="44.08075" lon="2.98516">
        <ele>339.3</ele>
        <time>2018-05-19T10:07:41Z</time>
      </trkpt>
      <trkpt lat="44.08078" lon="2.98517">
        <ele>339.2</ele>
        <time>2018-05-19T10:07:42Z</time>
      </trkpt>
      <trkpt lat="44.08081" lon="2.98519">
        <ele>339.1</ele>
        <time>2018-05-19T10:07:43Z</time>
      </trkpt>
      <trkpt lat="44.08084" lon="2.9852">
        <ele>338.9</ele>
        <time>2018-05-19T10:07:44Z</time>
      </trkpt>
      <trkpt lat="44.08087" lon="2.98523">
        <ele>338.9</ele>
        <time>2018-05-19T10:07:45Z</time>
      </trkpt>
      <trkpt lat="44.0809" lon="2.98525">
        <ele>338.8</ele>
        <time>2018-05-19T10:07:46Z</time>
      </trkpt>
      <trkpt lat="44.08093" lon="2.98528">
        <ele>338.7</ele>
        <time>2018-05-19T10:07:47Z</time>
      </trkpt>
      <trkpt lat="44.08096" lon="2.9853">
        <ele>338.7</ele>
        <time>2018-05-19T10:07:48Z</time>
      </trkpt>
      <trkpt lat="44.08098" lon="2.98532">
        <ele>338.6</ele>
        <time>2018-05-19T10:07:49Z</time>
      </trkpt>
      <trkpt lat="44.08101" lon="2.98535">
        <ele>338.6</ele>
        <time>2018-05-19T10:07:50Z</time>
      </trkpt>
      <trkpt lat="44.08104" lon="2.98537">
        <ele>338.6</ele>
        <time>2018-05-19T10:07:51Z</time>
      </trkpt>
      <trkpt lat="44.08106" lon="2.98539">
        <ele>338.6</ele>
        <time>2018-05-19T10:07:52Z</time>
      </trkpt>
      <trkpt lat="44.08112" lon="2.98541">
        <ele>338.6</ele>
        <time>2018-05-19T10:07:54Z</time>
      </trkpt>
      <trkpt lat="44.08115" lon="2.98543">
        <ele>338.6</ele>
        <time>2018-05-19T10:07:55Z</time>
      </trkpt>
      <trkpt lat="44.08118" lon="2.98544">
        <ele>338.6</ele>
        <time>2018-05-19T10:07:56Z</time>
      </trkpt>
      <trkpt lat="44.08121" lon="2.98546">
        <ele>338.6</ele>
        <time>2018-05-19T10:07:57Z</time>
      </trkpt>
      <trkpt lat="44.08124" lon="2.98548">
        <ele>338.6</ele>
        <time>2018-05-19T10:07:58Z</time>
      </trkpt>
      <trkpt lat="44.08127" lon="2.9855">
        <ele>338.6</ele>
        <time>2018-05-19T10:07:59Z</time>
      </trkpt>
      <trkpt lat="44.08131" lon="2.98552">
        <ele>338.6</ele>
        <time>2018-05-19T10:08:00Z</time>
      </trkpt>
      <trkpt lat="44.08135" lon="2.98554">
        <ele>338.6</ele>
        <time>2018-05-19T10:08:01Z</time>
      </trkpt>
      <trkpt lat="44.08138" lon="2.98557">
        <ele>338.6</ele>
        <time>2018-05-19T10:08:02Z</time>
      </trkpt>
      <trkpt lat="44.08142" lon="2.9856">
        <ele>338.6</ele>
        <time>2018-05-19T10:08:03Z</time>
      </trkpt>
      <trkpt lat="44.08146" lon="2.98563">
        <ele>338.6</ele>
        <time>2018-05-19T10:08:04Z</time>
      </trkpt>
      <trkpt lat="44.0815" lon="2.98565">
        <ele>338.6</ele>
        <time>2018-05-19T10:08:05Z</time>
      </trkpt>
      <trkpt lat="44.08154" lon="2.98567">
        <ele>338.5</ele>
        <time>2018-05-19T10:08:06Z</time>
      </trkpt>
      <trkpt lat="44.08158" lon="2.9857">
        <ele>338.4</ele>
        <time>2018-05-19T10:08:07Z</time>
      </trkpt>
      <trkpt lat="44.08161" lon="2.98572">
        <ele>338.4</ele>
        <time>2018-05-19T10:08:08Z</time>
      </trkpt>
      <trkpt lat="44.08165" lon="2.98575">
        <ele>338.3</ele>
        <time>2018-05-19T10:08:09Z</time>
      </trkpt>
      <trkpt lat="44.08168" lon="2.98578">
        <ele>338.2</ele>
        <time>2018-05-19T10:08:10Z</time>
      </trkpt>
      <trkpt lat="44.08172" lon="2.9858">
        <ele>338.1</ele>
        <time>2018-05-19T10:08:11Z</time>
      </trkpt>
      <trkpt lat="44.08175" lon="2.98582">
        <ele>338</ele>
        <time>2018-05-19T10:08:12Z</time>
      </trkpt>
      <trkpt lat="44.08179" lon="2.98584">
        <ele>337.9</ele>
        <time>2018-05-19T10:08:13Z</time>
      </trkpt>
      <trkpt lat="44.08182" lon="2.98586">
        <ele>337.8</ele>
        <time>2018-05-19T10:08:14Z</time>
      </trkpt>
      <trkpt lat="44.08185" lon="2.98589">
        <ele>337.7</ele>
        <time>2018-05-19T10:08:15Z</time>
      </trkpt>
      <trkpt lat="44.08188" lon="2.98591">
        <ele>337.6</ele>
        <time>2018-05-19T10:08:16Z</time>
      </trkpt>
      <trkpt lat="44.08191" lon="2.98593">
        <ele>337.5</ele>
        <time>2018-05-19T10:08:17Z</time>
      </trkpt>
      <trkpt lat="44.08195" lon="2.98595">
        <ele>337.3</ele>
        <time>2018-05-19T10:08:18Z</time>
      </trkpt>
      <trkpt lat="44.08198" lon="2.98597">
        <ele>337.2</ele>
        <time>2018-05-19T10:08:19Z</time>
      </trkpt>
      <trkpt lat="44.08202" lon="2.986">
        <ele>337.1</ele>
        <time>2018-05-19T10:08:20Z</time>
      </trkpt>
      <trkpt lat="44.08205" lon="2.98602">
        <ele>336.9</ele>
        <time>2018-05-19T10:08:21Z</time>
      </trkpt>
      <trkpt lat="44.08209" lon="2.98604">
        <ele>336.7</ele>
        <time>2018-05-19T10:08:22Z</time>
      </trkpt>
      <trkpt lat="44.08212" lon="2.98607">
        <ele>336.5</ele>
        <time>2018-05-19T10:08:23Z</time>
      </trkpt>
      <trkpt lat="44.08215" lon="2.98609">
        <ele>336.2</ele>
        <time>2018-05-19T10:08:24Z</time>
      </trkpt>
      <trkpt lat="44.08218" lon="2.98611">
        <ele>335.9</ele>
        <time>2018-05-19T10:08:25Z</time>
      </trkpt>
      <trkpt lat="44.08221" lon="2.98613">
        <ele>335.7</ele>
        <time>2018-05-19T10:08:26Z</time>
      </trkpt>
      <trkpt lat="44.08224" lon="2.98615">
        <ele>335.4</ele>
        <time>2018-05-19T10:08:27Z</time>
      </trkpt>
      <trkpt lat="44.08227" lon="2.98616">
        <ele>335.1</ele>
        <time>2018-05-19T10:08:28Z</time>
      </trkpt>
      <trkpt lat="44.0823" lon="2.98618">
        <ele>334.9</ele>
        <time>2018-05-19T10:08:29Z</time>
      </trkpt>
      <trkpt lat="44.08232" lon="2.98619">
        <ele>334.7</ele>
        <time>2018-05-19T10:08:30Z</time>
      </trkpt>
      <trkpt lat="44.08235" lon="2.9862">
        <ele>334.5</ele>
        <time>2018-05-19T10:08:31Z</time>
      </trkpt>
      <trkpt lat="44.08239" lon="2.98622">
        <ele>334.4</ele>
        <time>2018-05-19T10:08:33Z</time>
      </trkpt>
      <trkpt lat="44.08243" lon="2.98624">
        <ele>334.3</ele>
        <time>2018-05-19T10:08:35Z</time>
      </trkpt>
      <trkpt lat="44.08247" lon="2.98626">
        <ele>334.3</ele>
        <time>2018-05-19T10:08:36Z</time>
      </trkpt>
      <trkpt lat="44.0825" lon="2.98629">
        <ele>334.4</ele>
        <time>2018-05-19T10:08:37Z</time>
      </trkpt>
      <trkpt lat="44.08254" lon="2.98631">
        <ele>334.4</ele>
        <time>2018-05-19T10:08:38Z</time>
      </trkpt>
      <trkpt lat="44.08258" lon="2.98634">
        <ele>334.4</ele>
        <time>2018-05-19T10:08:39Z</time>
      </trkpt>
      <trkpt lat="44.08262" lon="2.98637">
        <ele>334.4</ele>
        <time>2018-05-19T10:08:40Z</time>
      </trkpt>
      <trkpt lat="44.08266" lon="2.98639">
        <ele>334.1</ele>
        <time>2018-05-19T10:08:41Z</time>
      </trkpt>
      <trkpt lat="44.08269" lon="2.98642">
        <ele>333.9</ele>
        <time>2018-05-19T10:08:42Z</time>
      </trkpt>
      <trkpt lat="44.08272" lon="2.98644">
        <ele>333.8</ele>
        <time>2018-05-19T10:08:43Z</time>
      </trkpt>
      <trkpt lat="44.08275" lon="2.98646">
        <ele>333.7</ele>
        <time>2018-05-19T10:08:44Z</time>
      </trkpt>
      <trkpt lat="44.08278" lon="2.98648">
        <ele>333.6</ele>
        <time>2018-05-19T10:08:45Z</time>
      </trkpt>
      <trkpt lat="44.08282" lon="2.9865">
        <ele>333.6</ele>
        <time>2018-05-19T10:08:47Z</time>
      </trkpt>
      <trkpt lat="44.08286" lon="2.98651">
        <ele>333.6</ele>
        <time>2018-05-19T10:08:49Z</time>
      </trkpt>
      <trkpt lat="44.0829" lon="2.98653">
        <ele>334</ele>
        <time>2018-05-19T10:08:50Z</time>
      </trkpt>
      <trkpt lat="44.08293" lon="2.98655">
        <ele>334.4</ele>
        <time>2018-05-19T10:08:51Z</time>
      </trkpt>
      <trkpt lat="44.08297" lon="2.98657">
        <ele>334.8</ele>
        <time>2018-05-19T10:08:52Z</time>
      </trkpt>
      <trkpt lat="44.083" lon="2.98659">
        <ele>335.4</ele>
        <time>2018-05-19T10:08:53Z</time>
      </trkpt>
      <trkpt lat="44.08304" lon="2.98661">
        <ele>336.1</ele>
        <time>2018-05-19T10:08:54Z</time>
      </trkpt>
      <trkpt lat="44.08307" lon="2.98663">
        <ele>336.8</ele>
        <time>2018-05-19T10:08:55Z</time>
      </trkpt>
      <trkpt lat="44.0831" lon="2.98666">
        <ele>337.5</ele>
        <time>2018-05-19T10:08:56Z</time>
      </trkpt>
      <trkpt lat="44.08314" lon="2.98668">
        <ele>337.5</ele>
        <time>2018-05-19T10:08:57Z</time>
      </trkpt>
      <trkpt lat="44.08317" lon="2.9867">
        <ele>337.5</ele>
        <time>2018-05-19T10:08:58Z</time>
      </trkpt>
      <trkpt lat="44.08319" lon="2.98672">
        <ele>337.4</ele>
        <time>2018-05-19T10:08:59Z</time>
      </trkpt>
      <trkpt lat="44.08323" lon="2.98674">
        <ele>337.4</ele>
        <time>2018-05-19T10:09:00Z</time>
      </trkpt>
      <trkpt lat="44.08326" lon="2.98677">
        <ele>337.4</ele>
        <time>2018-05-19T10:09:01Z</time>
      </trkpt>
      <trkpt lat="44.08329" lon="2.98679">
        <ele>337.4</ele>
        <time>2018-05-19T10:09:02Z</time>
      </trkpt>
      <trkpt lat="44.08332" lon="2.9868">
        <ele>337.4</ele>
        <time>2018-05-19T10:09:03Z</time>
      </trkpt>
      <trkpt lat="44.08334" lon="2.98682">
        <ele>337.4</ele>
        <time>2018-05-19T10:09:04Z</time>
      </trkpt>
      <trkpt lat="44.08337" lon="2.98684">
        <ele>337.3</ele>
        <time>2018-05-19T10:09:05Z</time>
      </trkpt>
      <trkpt lat="44.0834" lon="2.98686">
        <ele>337.3</ele>
        <time>2018-05-19T10:09:06Z</time>
      </trkpt>
      <trkpt lat="44.08344" lon="2.98688">
        <ele>337.3</ele>
        <time>2018-05-19T10:09:08Z</time>
      </trkpt>
      <trkpt lat="44.08347" lon="2.9869">
        <ele>337.3</ele>
        <time>2018-05-19T10:09:25Z</time>
      </trkpt>
      <trkpt lat="44.08351" lon="2.98691">
        <ele>337.3</ele>
        <time>2018-05-19T10:09:28Z</time>
      </trkpt>
      <trkpt lat="44.08355" lon="2.98694">
        <ele>337.3</ele>
        <time>2018-05-19T10:09:30Z</time>
      </trkpt>
      <trkpt lat="44.08359" lon="2.98697">
        <ele>337.3</ele>
        <time>2018-05-19T10:09:32Z</time>
      </trkpt>
      <trkpt lat="44.08362" lon="2.98701">
        <ele>337.3</ele>
        <time>2018-05-19T10:09:34Z</time>
      </trkpt>
      <trkpt lat="44.08366" lon="2.98704">
        <ele>337.4</ele>
        <time>2018-05-19T10:09:36Z</time>
      </trkpt>
      <trkpt lat="44.0837" lon="2.98708">
        <ele>337.4</ele>
        <time>2018-05-19T10:09:38Z</time>
      </trkpt>
      <trkpt lat="44.08373" lon="2.9871">
        <ele>337.4</ele>
        <time>2018-05-19T10:09:40Z</time>
      </trkpt>
      <trkpt lat="44.08375" lon="2.98711">
        <ele>337.4</ele>
        <time>2018-05-19T10:09:47Z</time>
      </trkpt>
      <trkpt lat="44.08377" lon="2.98707">
        <ele>337.4</ele>
        <time>2018-05-19T10:09:51Z</time>
      </trkpt>
      <trkpt lat="44.08375" lon="2.98702">
        <ele>337.4</ele>
        <time>2018-05-19T10:09:53Z</time>
      </trkpt>
      <trkpt lat="44.08373" lon="2.98699">
        <ele>337.3</ele>
        <time>2018-05-19T10:09:54Z</time>
      </trkpt>
      <trkpt lat="44.0837" lon="2.98696">
        <ele>337.3</ele>
        <time>2018-05-19T10:09:55Z</time>
      </trkpt>
      <trkpt lat="44.08367" lon="2.98693">
        <ele>337.3</ele>
        <time>2018-05-19T10:09:56Z</time>
      </trkpt>
      <trkpt lat="44.08364" lon="2.9869">
        <ele>337.3</ele>
        <time>2018-05-19T10:09:57Z</time>
      </trkpt>
      <trkpt lat="44.08362" lon="2.98687">
        <ele>337.3</ele>
        <time>2018-05-19T10:10:02Z</time>
      </trkpt>
      <trkpt lat="44.0836" lon="2.98684">
        <ele>337.3</ele>
        <time>2018-05-19T10:10:16Z</time>
      </trkpt>
      <trkpt lat="44.08355" lon="2.98681">
        <ele>337.4</ele>
        <time>2018-05-19T10:11:14Z</time>
      </trkpt>
      <trkpt lat="44.08352" lon="2.9868">
        <ele>337.4</ele>
        <time>2018-05-19T10:11:17Z</time>
      </trkpt>
      <trkpt lat="44.0835" lon="2.98678">
        <ele>337.4</ele>
        <time>2018-05-19T10:11:19Z</time>
      </trkpt>
      <trkpt lat="44.08346" lon="2.98677">
        <ele>337.4</ele>
        <time>2018-05-19T10:11:22Z</time>
      </trkpt>
      <trkpt lat="44.08342" lon="2.98679">
        <ele>337.5</ele>
        <time>2018-05-19T10:11:25Z</time>
      </trkpt>
      <trkpt lat="44.08339" lon="2.9868">
        <ele>337.5</ele>
        <time>2018-05-19T10:11:27Z</time>
      </trkpt>
      <trkpt lat="44.08337" lon="2.98681">
        <ele>337.5</ele>
        <time>2018-05-19T10:11:29Z</time>
      </trkpt>
      <trkpt lat="44.08334" lon="2.98686">
        <ele>337.6</ele>
        <time>2018-05-19T10:11:31Z</time>
      </trkpt>
      <trkpt lat="44.08334" lon="2.98692">
        <ele>337.6</ele>
        <time>2018-05-19T10:11:33Z</time>
      </trkpt>
      <trkpt lat="44.08335" lon="2.98696">
        <ele>337.6</ele>
        <time>2018-05-19T10:11:35Z</time>
      </trkpt>
      <trkpt lat="44.08337" lon="2.987">
        <ele>337.6</ele>
        <time>2018-05-19T10:11:37Z</time>
      </trkpt>
      <trkpt lat="44.0834" lon="2.98703">
        <ele>337.7</ele>
        <time>2018-05-19T10:11:39Z</time>
      </trkpt>
      <trkpt lat="44.08345" lon="2.98707">
        <ele>337.7</ele>
        <time>2018-05-19T10:11:41Z</time>
      </trkpt>
      <trkpt lat="44.08349" lon="2.9871">
        <ele>337.7</ele>
        <time>2018-05-19T10:11:43Z</time>
      </trkpt>
      <trkpt lat="44.08353" lon="2.98712">
        <ele>337.7</ele>
        <time>2018-05-19T10:11:45Z</time>
      </trkpt>
      <trkpt lat="44.08357" lon="2.98716">
        <ele>337.8</ele>
        <time>2018-05-19T10:11:47Z</time>
      </trkpt>
      <trkpt lat="44.0836" lon="2.98718">
        <ele>337.8</ele>
        <time>2018-05-19T10:11:48Z</time>
      </trkpt>
      <trkpt lat="44.08362" lon="2.98722">
        <ele>337.8</ele>
        <time>2018-05-19T10:11:49Z</time>
      </trkpt>
      <trkpt lat="44.08364" lon="2.98725">
        <ele>337.8</ele>
        <time>2018-05-19T10:11:50Z</time>
      </trkpt>
      <trkpt lat="44.08365" lon="2.98729">
        <ele>337.8</ele>
        <time>2018-05-19T10:11:51Z</time>
      </trkpt>
      <trkpt lat="44.08366" lon="2.98733">
        <ele>337.8</ele>
        <time>2018-05-19T10:11:52Z</time>
      </trkpt>
      <trkpt lat="44.08367" lon="2.98737">
        <ele>337.8</ele>
        <time>2018-05-19T10:11:53Z</time>
      </trkpt>
      <trkpt lat="44.08367" lon="2.98742">
        <ele>337.9</ele>
        <time>2018-05-19T10:11:54Z</time>
      </trkpt>
      <trkpt lat="44.08367" lon="2.98747">
        <ele>337.9</ele>
        <time>2018-05-19T10:11:55Z</time>
      </trkpt>
      <trkpt lat="44.08367" lon="2.98751">
        <ele>337.9</ele>
        <time>2018-05-19T10:11:56Z</time>
      </trkpt>
      <trkpt lat="44.08366" lon="2.98755">
        <ele>337.9</ele>
        <time>2018-05-19T10:11:57Z</time>
      </trkpt>
      <trkpt lat="44.08365" lon="2.98761">
        <ele>337.9</ele>
        <time>2018-05-19T10:11:58Z</time>
      </trkpt>
      <trkpt lat="44.08364" lon="2.98766">
        <ele>337.9</ele>
        <time>2018-05-19T10:11:59Z</time>
      </trkpt>
      <trkpt lat="44.08364" lon="2.98772">
        <ele>338</ele>
        <time>2018-05-19T10:12:00Z</time>
      </trkpt>
      <trkpt lat="44.08363" lon="2.98777">
        <ele>338</ele>
        <time>2018-05-19T10:12:01Z</time>
      </trkpt>
      <trkpt lat="44.08363" lon="2.98781">
        <ele>338</ele>
        <time>2018-05-19T10:12:02Z</time>
      </trkpt>
      <trkpt lat="44.08363" lon="2.98785">
        <ele>338</ele>
        <time>2018-05-19T10:12:03Z</time>
      </trkpt>
      <trkpt lat="44.08363" lon="2.98789">
        <ele>338</ele>
        <time>2018-05-19T10:12:04Z</time>
      </trkpt>
      <trkpt lat="44.08363" lon="2.98794">
        <ele>338</ele>
        <time>2018-05-19T10:12:05Z</time>
      </trkpt>
      <trkpt lat="44.08363" lon="2.98799">
        <ele>338</ele>
        <time>2018-05-19T10:12:06Z</time>
      </trkpt>
      <trkpt lat="44.08363" lon="2.98804">
        <ele>338</ele>
        <time>2018-05-19T10:12:07Z</time>
      </trkpt>
      <trkpt lat="44.08363" lon="2.9881">
        <ele>338.1</ele>
        <time>2018-05-19T10:12:08Z</time>
      </trkpt>
      <trkpt lat="44.08364" lon="2.98816">
        <ele>338.1</ele>
        <time>2018-05-19T10:12:09Z</time>
      </trkpt>
      <trkpt lat="44.08364" lon="2.98822">
        <ele>338.1</ele>
        <time>2018-05-19T10:12:10Z</time>
      </trkpt>
      <trkpt lat="44.08365" lon="2.98828">
        <ele>338.1</ele>
        <time>2018-05-19T10:12:11Z</time>
      </trkpt>
      <trkpt lat="44.08366" lon="2.98833">
        <ele>338.1</ele>
        <time>2018-05-19T10:12:12Z</time>
      </trkpt>
      <trkpt lat="44.08367" lon="2.98837">
        <ele>338.1</ele>
        <time>2018-05-19T10:12:13Z</time>
      </trkpt>
      <trkpt lat="44.08367" lon="2.98842">
        <ele>338.2</ele>
        <time>2018-05-19T10:12:14Z</time>
      </trkpt>
      <trkpt lat="44.08368" lon="2.98847">
        <ele>338.2</ele>
        <time>2018-05-19T10:12:15Z</time>
      </trkpt>
      <trkpt lat="44.08368" lon="2.98853">
        <ele>338.2</ele>
        <time>2018-05-19T10:12:16Z</time>
      </trkpt>
      <trkpt lat="44.08369" lon="2.98859">
        <ele>338.2</ele>
        <time>2018-05-19T10:12:17Z</time>
      </trkpt>
      <trkpt lat="44.0837" lon="2.98865">
        <ele>338.2</ele>
        <time>2018-05-19T10:12:18Z</time>
      </trkpt>
      <trkpt lat="44.08371" lon="2.98871">
        <ele>338.2</ele>
        <time>2018-05-19T10:12:19Z</time>
      </trkpt>
      <trkpt lat="44.08372" lon="2.98876">
        <ele>338.2</ele>
        <time>2018-05-19T10:12:20Z</time>
      </trkpt>
      <trkpt lat="44.08373" lon="2.9888">
        <ele>338.2</ele>
        <time>2018-05-19T10:12:21Z</time>
      </trkpt>
      <trkpt lat="44.08374" lon="2.98885">
        <ele>338.3</ele>
        <time>2018-05-19T10:12:23Z</time>
      </trkpt>
      <trkpt lat="44.08375" lon="2.98891">
        <ele>338.3</ele>
        <time>2018-05-19T10:12:25Z</time>
      </trkpt>
      <trkpt lat="44.08375" lon="2.98896">
        <ele>338.3</ele>
        <time>2018-05-19T10:12:28Z</time>
      </trkpt>
      <trkpt lat="44.08376" lon="2.989">
        <ele>338.3</ele>
        <time>2018-05-19T10:12:30Z</time>
      </trkpt>
      <trkpt lat="44.08378" lon="2.98905">
        <ele>338.3</ele>
        <time>2018-05-19T10:12:32Z</time>
      </trkpt>
      <trkpt lat="44.08379" lon="2.98909">
        <ele>338.3</ele>
        <time>2018-05-19T10:12:35Z</time>
      </trkpt>
      <trkpt lat="44.08382" lon="2.98912">
        <ele>338.3</ele>
        <time>2018-05-19T10:12:40Z</time>
      </trkpt>
      <trkpt lat="44.08383" lon="2.98915">
        <ele>338.3</ele>
        <time>2018-05-19T10:12:45Z</time>
      </trkpt>
      <trkpt lat="44.08379" lon="2.98913">
        <ele>338.3</ele>
        <time>2018-05-19T10:13:22Z</time>
      </trkpt>
      <trkpt lat="44.08378" lon="2.98918">
        <ele>338.3</ele>
        <time>2018-05-19T10:13:28Z</time>
      </trkpt>
      <trkpt lat="44.0838" lon="2.98921">
        <ele>338.4</ele>
        <time>2018-05-19T10:13:32Z</time>
      </trkpt>
      <trkpt lat="44.08379" lon="2.98916">
        <ele>338.3</ele>
        <time>2018-05-19T10:13:48Z</time>
      </trkpt>
      <trkpt lat="44.08376" lon="2.98912">
        <ele>338.3</ele>
        <time>2018-05-19T10:13:51Z</time>
      </trkpt>
      <trkpt lat="44.08375" lon="2.98909">
        <ele>338.3</ele>
        <time>2018-05-19T10:13:53Z</time>
      </trkpt>
      <trkpt lat="44.08372" lon="2.98905">
        <ele>338.3</ele>
        <time>2018-05-19T10:13:55Z</time>
      </trkpt>
      <trkpt lat="44.0837" lon="2.98902">
        <ele>338.3</ele>
        <time>2018-05-19T10:13:57Z</time>
      </trkpt>
      <trkpt lat="44.08368" lon="2.98897">
        <ele>338.3</ele>
        <time>2018-05-19T10:13:59Z</time>
      </trkpt>
      <trkpt lat="44.08366" lon="2.98892">
        <ele>338.3</ele>
        <time>2018-05-19T10:14:01Z</time>
      </trkpt>
      <trkpt lat="44.08364" lon="2.98887">
        <ele>338.3</ele>
        <time>2018-05-19T10:14:03Z</time>
      </trkpt>
      <trkpt lat="44.08362" lon="2.98881">
        <ele>338.3</ele>
        <time>2018-05-19T10:14:05Z</time>
      </trkpt>
      <trkpt lat="44.08361" lon="2.98877">
        <ele>338.3</ele>
        <time>2018-05-19T10:14:07Z</time>
      </trkpt>
      <trkpt lat="44.0836" lon="2.98872">
        <ele>338.2</ele>
        <time>2018-05-19T10:14:09Z</time>
      </trkpt>
      <trkpt lat="44.08359" lon="2.98869">
        <ele>338.2</ele>
        <time>2018-05-19T10:14:11Z</time>
      </trkpt>
      <trkpt lat="44.08359" lon="2.98863">
        <ele>338.2</ele>
        <time>2018-05-19T10:14:13Z</time>
      </trkpt>
      <trkpt lat="44.08359" lon="2.98857">
        <ele>338.2</ele>
        <time>2018-05-19T10:14:15Z</time>
      </trkpt>
      <trkpt lat="44.08359" lon="2.98852">
        <ele>338.2</ele>
        <time>2018-05-19T10:14:18Z</time>
      </trkpt>
      <trkpt lat="44.08359" lon="2.98848">
        <ele>338.2</ele>
        <time>2018-05-19T10:14:21Z</time>
      </trkpt>
      <trkpt lat="44.08356" lon="2.98846">
        <ele>338.2</ele>
        <time>2018-05-19T10:14:24Z</time>
      </trkpt>
      <trkpt lat="44.08356" lon="2.98843">
        <ele>338.2</ele>
        <time>2018-05-19T10:14:27Z</time>
      </trkpt>
      <trkpt lat="44.08357" lon="2.98838">
        <ele>338.2</ele>
        <time>2018-05-19T10:14:30Z</time>
      </trkpt>
      <trkpt lat="44.08357" lon="2.98832">
        <ele>338.2</ele>
        <time>2018-05-19T10:16:41Z</time>
      </trkpt>
      <trkpt lat="44.0836" lon="2.98831">
        <ele>338.2</ele>
        <time>2018-05-19T10:16:58Z</time>
      </trkpt>
      <trkpt lat="44.08361" lon="2.98828">
        <ele>338.2</ele>
        <time>2018-05-19T10:17:05Z</time>
      </trkpt>
      <trkpt lat="44.08357" lon="2.98829">
        <ele>338.2</ele>
        <time>2018-05-19T10:22:02Z</time>
      </trkpt>
      <trkpt lat="44.0836" lon="2.98831">
        <ele>338.2</ele>
        <time>2018-05-19T10:22:13Z</time>
      </trkpt>
      <trkpt lat="44.08359" lon="2.98835">
        <ele>338.2</ele>
        <time>2018-05-19T10:22:24Z</time>
      </trkpt>
      <trkpt lat="44.0836" lon="2.9884">
        <ele>338.2</ele>
        <time>2018-05-19T10:22:27Z</time>
      </trkpt>
      <trkpt lat="44.08361" lon="2.98846">
        <ele>338.2</ele>
        <time>2018-05-19T10:22:30Z</time>
      </trkpt>
      <trkpt lat="44.08362" lon="2.98851">
        <ele>338.2</ele>
        <time>2018-05-19T10:22:32Z</time>
      </trkpt>
      <trkpt lat="44.08364" lon="2.98855">
        <ele>338.2</ele>
        <time>2018-05-19T10:22:34Z</time>
      </trkpt>
      <trkpt lat="44.08365" lon="2.9886">
        <ele>338.3</ele>
        <time>2018-05-19T10:22:36Z</time>
      </trkpt>
      <trkpt lat="44.08366" lon="2.98867">
        <ele>338.3</ele>
        <time>2018-05-19T10:22:38Z</time>
      </trkpt>
      <trkpt lat="44.08367" lon="2.98873">
        <ele>338.3</ele>
        <time>2018-05-19T10:22:40Z</time>
      </trkpt>
      <trkpt lat="44.08368" lon="2.98878">
        <ele>338.3</ele>
        <time>2018-05-19T10:22:41Z</time>
      </trkpt>
      <trkpt lat="44.08369" lon="2.98882">
        <ele>338.3</ele>
        <time>2018-05-19T10:22:42Z</time>
      </trkpt>
      <trkpt lat="44.0837" lon="2.98887">
        <ele>338.3</ele>
        <time>2018-05-19T10:22:43Z</time>
      </trkpt>
      <trkpt lat="44.08372" lon="2.98891">
        <ele>338.3</ele>
        <time>2018-05-19T10:22:44Z</time>
      </trkpt>
      <trkpt lat="44.08373" lon="2.98896">
        <ele>338.3</ele>
        <time>2018-05-19T10:22:45Z</time>
      </trkpt>
      <trkpt lat="44.08375" lon="2.989">
        <ele>338.3</ele>
        <time>2018-05-19T10:22:46Z</time>
      </trkpt>
      <trkpt lat="44.08377" lon="2.98904">
        <ele>338.3</ele>
        <time>2018-05-19T10:22:47Z</time>
      </trkpt>
      <trkpt lat="44.08378" lon="2.98908">
        <ele>338.4</ele>
        <time>2018-05-19T10:22:48Z</time>
      </trkpt>
      <trkpt lat="44.0838" lon="2.98912">
        <ele>338.4</ele>
        <time>2018-05-19T10:22:49Z</time>
      </trkpt>
      <trkpt lat="44.08382" lon="2.98918">
        <ele>338.4</ele>
        <time>2018-05-19T10:22:50Z</time>
      </trkpt>
      <trkpt lat="44.08385" lon="2.98923">
        <ele>338.4</ele>
        <time>2018-05-19T10:22:51Z</time>
      </trkpt>
      <trkpt lat="44.08387" lon="2.98929">
        <ele>338.4</ele>
        <time>2018-05-19T10:22:52Z</time>
      </trkpt>
      <trkpt lat="44.08389" lon="2.98934">
        <ele>338.4</ele>
        <time>2018-05-19T10:22:53Z</time>
      </trkpt>
      <trkpt lat="44.0839" lon="2.98939">
        <ele>338.4</ele>
        <time>2018-05-19T10:22:54Z</time>
      </trkpt>
      <trkpt lat="44.08392" lon="2.98943">
        <ele>338.4</ele>
        <time>2018-05-19T10:22:55Z</time>
      </trkpt>
      <trkpt lat="44.08394" lon="2.98947">
        <ele>338.4</ele>
        <time>2018-05-19T10:22:56Z</time>
      </trkpt>
      <trkpt lat="44.08395" lon="2.98951">
        <ele>338.5</ele>
        <time>2018-05-19T10:22:57Z</time>
      </trkpt>
      <trkpt lat="44.08397" lon="2.98954">
        <ele>338.5</ele>
        <time>2018-05-19T10:22:58Z</time>
      </trkpt>
      <trkpt lat="44.08398" lon="2.98958">
        <ele>338.5</ele>
        <time>2018-05-19T10:22:59Z</time>
      </trkpt>
      <trkpt lat="44.084" lon="2.98962">
        <ele>338.5</ele>
        <time>2018-05-19T10:23:00Z</time>
      </trkpt>
      <trkpt lat="44.08401" lon="2.98966">
        <ele>338.5</ele>
        <time>2018-05-19T10:23:01Z</time>
      </trkpt>
      <trkpt lat="44.08403" lon="2.9897">
        <ele>338.5</ele>
        <time>2018-05-19T10:23:02Z</time>
      </trkpt>
      <trkpt lat="44.08403" lon="2.98975">
        <ele>338.5</ele>
        <time>2018-05-19T10:23:03Z</time>
      </trkpt>
      <trkpt lat="44.08405" lon="2.9898">
        <ele>338.5</ele>
        <time>2018-05-19T10:23:04Z</time>
      </trkpt>
      <trkpt lat="44.08406" lon="2.98986">
        <ele>338.5</ele>
        <time>2018-05-19T10:23:05Z</time>
      </trkpt>
      <trkpt lat="44.08408" lon="2.98991">
        <ele>338.5</ele>
        <time>2018-05-19T10:23:06Z</time>
      </trkpt>
      <trkpt lat="44.0841" lon="2.98996">
        <ele>338.5</ele>
        <time>2018-05-19T10:23:07Z</time>
      </trkpt>
      <trkpt lat="44.08412" lon="2.99001">
        <ele>338.6</ele>
        <time>2018-05-19T10:23:08Z</time>
      </trkpt>
      <trkpt lat="44.08413" lon="2.99005">
        <ele>338.6</ele>
        <time>2018-05-19T10:23:09Z</time>
      </trkpt>
      <trkpt lat="44.08415" lon="2.9901">
        <ele>338.6</ele>
        <time>2018-05-19T10:23:10Z</time>
      </trkpt>
      <trkpt lat="44.08417" lon="2.99016">
        <ele>338.6</ele>
        <time>2018-05-19T10:23:11Z</time>
      </trkpt>
      <trkpt lat="44.08419" lon="2.99021">
        <ele>338.6</ele>
        <time>2018-05-19T10:23:12Z</time>
      </trkpt>
      <trkpt lat="44.08421" lon="2.99026">
        <ele>338.6</ele>
        <time>2018-05-19T10:23:13Z</time>
      </trkpt>
      <trkpt lat="44.08423" lon="2.9903">
        <ele>338.6</ele>
        <time>2018-05-19T10:23:14Z</time>
      </trkpt>
      <trkpt lat="44.08425" lon="2.99035">
        <ele>338.6</ele>
        <time>2018-05-19T10:23:15Z</time>
      </trkpt>
      <trkpt lat="44.08427" lon="2.99041">
        <ele>338.7</ele>
        <time>2018-05-19T10:23:16Z</time>
      </trkpt>
      <trkpt lat="44.08429" lon="2.99047">
        <ele>338.7</ele>
        <time>2018-05-19T10:23:17Z</time>
      </trkpt>
      <trkpt lat="44.08432" lon="2.99052">
        <ele>338.7</ele>
        <time>2018-05-19T10:23:18Z</time>
      </trkpt>
      <trkpt lat="44.08434" lon="2.99058">
        <ele>338.7</ele>
        <time>2018-05-19T10:23:19Z</time>
      </trkpt>
      <trkpt lat="44.08436" lon="2.99064">
        <ele>338.7</ele>
        <time>2018-05-19T10:23:20Z</time>
      </trkpt>
      <trkpt lat="44.08438" lon="2.99068">
        <ele>338.7</ele>
        <time>2018-05-19T10:23:21Z</time>
      </trkpt>
      <trkpt lat="44.08439" lon="2.99073">
        <ele>338.7</ele>
        <time>2018-05-19T10:23:22Z</time>
      </trkpt>
      <trkpt lat="44.08441" lon="2.99078">
        <ele>338.7</ele>
        <time>2018-05-19T10:23:23Z</time>
      </trkpt>
      <trkpt lat="44.08442" lon="2.99082">
        <ele>338.8</ele>
        <time>2018-05-19T10:23:24Z</time>
      </trkpt>
      <trkpt lat="44.08444" lon="2.99088">
        <ele>338.8</ele>
        <time>2018-05-19T10:23:25Z</time>
      </trkpt>
      <trkpt lat="44.08447" lon="2.99094">
        <ele>338.8</ele>
        <time>2018-05-19T10:23:26Z</time>
      </trkpt>
      <trkpt lat="44.08449" lon="2.991">
        <ele>338.8</ele>
        <time>2018-05-19T10:23:27Z</time>
      </trkpt>
      <trkpt lat="44.08451" lon="2.99105">
        <ele>338.8</ele>
        <time>2018-05-19T10:23:28Z</time>
      </trkpt>
      <trkpt lat="44.08452" lon="2.99109">
        <ele>338.8</ele>
        <time>2018-05-19T10:23:29Z</time>
      </trkpt>
      <trkpt lat="44.08454" lon="2.99113">
        <ele>338.8</ele>
        <time>2018-05-19T10:23:30Z</time>
      </trkpt>
      <trkpt lat="44.08456" lon="2.99118">
        <ele>338.8</ele>
        <time>2018-05-19T10:23:31Z</time>
      </trkpt>
      <trkpt lat="44.08458" lon="2.99122">
        <ele>338.9</ele>
        <time>2018-05-19T10:23:32Z</time>
      </trkpt>
      <trkpt lat="44.08459" lon="2.99126">
        <ele>338.9</ele>
        <time>2018-05-19T10:23:33Z</time>
      </trkpt>
      <trkpt lat="44.08461" lon="2.9913">
        <ele>338.9</ele>
        <time>2018-05-19T10:23:34Z</time>
      </trkpt>
      <trkpt lat="44.08463" lon="2.99135">
        <ele>338.9</ele>
        <time>2018-05-19T10:23:35Z</time>
      </trkpt>
      <trkpt lat="44.08465" lon="2.9914">
        <ele>338.9</ele>
        <time>2018-05-19T10:23:36Z</time>
      </trkpt>
      <trkpt lat="44.08466" lon="2.99144">
        <ele>338.9</ele>
        <time>2018-05-19T10:23:37Z</time>
      </trkpt>
      <trkpt lat="44.08468" lon="2.99148">
        <ele>338.9</ele>
        <time>2018-05-19T10:23:38Z</time>
      </trkpt>
      <trkpt lat="44.08469" lon="2.99152">
        <ele>339</ele>
        <time>2018-05-19T10:23:39Z</time>
      </trkpt>
      <trkpt lat="44.08471" lon="2.99156">
        <ele>339</ele>
        <time>2018-05-19T10:23:40Z</time>
      </trkpt>
      <trkpt lat="44.08472" lon="2.99159">
        <ele>339</ele>
        <time>2018-05-19T10:23:41Z</time>
      </trkpt>
      <trkpt lat="44.08473" lon="2.99164">
        <ele>339</ele>
        <time>2018-05-19T10:23:43Z</time>
      </trkpt>
      <trkpt lat="44.0847" lon="2.99169">
        <ele>339</ele>
        <time>2018-05-19T10:23:45Z</time>
      </trkpt>
      <trkpt lat="44.08466" lon="2.99171">
        <ele>339</ele>
        <time>2018-05-19T10:23:47Z</time>
      </trkpt>
      <trkpt lat="44.08464" lon="2.99173">
        <ele>339</ele>
        <time>2018-05-19T10:23:48Z</time>
      </trkpt>
      <trkpt lat="44.08462" lon="2.99176">
        <ele>339.1</ele>
        <time>2018-05-19T10:23:49Z</time>
      </trkpt>
      <trkpt lat="44.0846" lon="2.99183">
        <ele>339.2</ele>
        <time>2018-05-19T10:23:51Z</time>
      </trkpt>
      <trkpt lat="44.08459" lon="2.99188">
        <ele>339.3</ele>
        <time>2018-05-19T10:23:53Z</time>
      </trkpt>
      <trkpt lat="44.0846" lon="2.99192">
        <ele>339.4</ele>
        <time>2018-05-19T10:23:55Z</time>
      </trkpt>
      <trkpt lat="44.08462" lon="2.99195">
        <ele>339.3</ele>
        <time>2018-05-19T10:23:57Z</time>
      </trkpt>
      <trkpt lat="44.08465" lon="2.99198">
        <ele>339.3</ele>
        <time>2018-05-19T10:24:01Z</time>
      </trkpt>
      <trkpt lat="44.08466" lon="2.99202">
        <ele>339.3</ele>
        <time>2018-05-19T10:24:04Z</time>
      </trkpt>
      <trkpt lat="44.08469" lon="2.99206">
        <ele>339.2</ele>
        <time>2018-05-19T10:24:06Z</time>
      </trkpt>
      <trkpt lat="44.08472" lon="2.99211">
        <ele>339.2</ele>
        <time>2018-05-19T10:24:08Z</time>
      </trkpt>
      <trkpt lat="44.08474" lon="2.99206">
        <ele>339.1</ele>
        <time>2018-05-19T10:24:23Z</time>
      </trkpt>
      <trkpt lat="44.08475" lon="2.99203">
        <ele>339.1</ele>
        <time>2018-05-19T10:24:25Z</time>
      </trkpt>
      <trkpt lat="44.08478" lon="2.992">
        <ele>339.2</ele>
        <time>2018-05-19T10:24:28Z</time>
      </trkpt>
      <trkpt lat="44.08481" lon="2.99202">
        <ele>339.2</ele>
        <time>2018-05-19T10:24:30Z</time>
      </trkpt>
      <trkpt lat="44.08484" lon="2.99205">
        <ele>339.4</ele>
        <time>2018-05-19T10:24:32Z</time>
      </trkpt>
      <trkpt lat="44.08488" lon="2.99209">
        <ele>339.7</ele>
        <time>2018-05-19T10:24:34Z</time>
      </trkpt>
      <trkpt lat="44.08492" lon="2.99214">
        <ele>339.9</ele>
        <time>2018-05-19T10:24:36Z</time>
      </trkpt>
      <trkpt lat="44.08494" lon="2.99218">
        <ele>340.1</ele>
        <time>2018-05-19T10:24:37Z</time>
      </trkpt>
      <trkpt lat="44.08497" lon="2.99221">
        <ele>340.1</ele>
        <time>2018-05-19T10:24:38Z</time>
      </trkpt>
      <trkpt lat="44.08499" lon="2.99224">
        <ele>340.1</ele>
        <time>2018-05-19T10:24:39Z</time>
      </trkpt>
      <trkpt lat="44.08502" lon="2.99227">
        <ele>340</ele>
        <time>2018-05-19T10:24:40Z</time>
      </trkpt>
      <trkpt lat="44.08505" lon="2.99233">
        <ele>339.8</ele>
        <time>2018-05-19T10:24:42Z</time>
      </trkpt>
      <trkpt lat="44.08508" lon="2.99237">
        <ele>339.6</ele>
        <time>2018-05-19T10:24:43Z</time>
      </trkpt>
      <trkpt lat="44.0851" lon="2.99241">
        <ele>339.5</ele>
        <time>2018-05-19T10:24:44Z</time>
      </trkpt>
      <trkpt lat="44.08512" lon="2.99245">
        <ele>339.4</ele>
        <time>2018-05-19T10:24:45Z</time>
      </trkpt>
      <trkpt lat="44.08515" lon="2.99248">
        <ele>339.3</ele>
        <time>2018-05-19T10:24:46Z</time>
      </trkpt>
      <trkpt lat="44.08516" lon="2.99252">
        <ele>339.2</ele>
        <time>2018-05-19T10:24:47Z</time>
      </trkpt>
      <trkpt lat="44.08519" lon="2.99255">
        <ele>339.1</ele>
        <time>2018-05-19T10:24:48Z</time>
      </trkpt>
      <trkpt lat="44.08521" lon="2.99259">
        <ele>339.1</ele>
        <time>2018-05-19T10:24:49Z</time>
      </trkpt>
      <trkpt lat="44.08523" lon="2.99263">
        <ele>339.2</ele>
        <time>2018-05-19T10:24:50Z</time>
      </trkpt>
      <trkpt lat="44.08526" lon="2.99266">
        <ele>339.3</ele>
        <time>2018-05-19T10:24:51Z</time>
      </trkpt>
      <trkpt lat="44.08529" lon="2.9927">
        <ele>339.4</ele>
        <time>2018-05-19T10:24:52Z</time>
      </trkpt>
      <trkpt lat="44.08532" lon="2.99274">
        <ele>339.6</ele>
        <time>2018-05-19T10:24:53Z</time>
      </trkpt>
      <trkpt lat="44.08535" lon="2.99278">
        <ele>339.6</ele>
        <time>2018-05-19T10:24:54Z</time>
      </trkpt>
      <trkpt lat="44.08539" lon="2.99282">
        <ele>339.7</ele>
        <time>2018-05-19T10:24:55Z</time>
      </trkpt>
      <trkpt lat="44.08542" lon="2.99287">
        <ele>339.7</ele>
        <time>2018-05-19T10:24:56Z</time>
      </trkpt>
      <trkpt lat="44.08546" lon="2.99291">
        <ele>339.6</ele>
        <time>2018-05-19T10:24:57Z</time>
      </trkpt>
      <trkpt lat="44.08549" lon="2.99296">
        <ele>339.6</ele>
        <time>2018-05-19T10:24:58Z</time>
      </trkpt>
      <trkpt lat="44.08552" lon="2.993">
        <ele>339.5</ele>
        <time>2018-05-19T10:24:59Z</time>
      </trkpt>
      <trkpt lat="44.08554" lon="2.99304">
        <ele>339.5</ele>
        <time>2018-05-19T10:25:00Z</time>
      </trkpt>
      <trkpt lat="44.08557" lon="2.99308">
        <ele>339.5</ele>
        <time>2018-05-19T10:25:01Z</time>
      </trkpt>
      <trkpt lat="44.0856" lon="2.99312">
        <ele>339.5</ele>
        <time>2018-05-19T10:25:02Z</time>
      </trkpt>
      <trkpt lat="44.08563" lon="2.99317">
        <ele>339.6</ele>
        <time>2018-05-19T10:25:03Z</time>
      </trkpt>
      <trkpt lat="44.08566" lon="2.99321">
        <ele>339.6</ele>
        <time>2018-05-19T10:25:04Z</time>
      </trkpt>
      <trkpt lat="44.08569" lon="2.99325">
        <ele>339.6</ele>
        <time>2018-05-19T10:25:05Z</time>
      </trkpt>
      <trkpt lat="44.08572" lon="2.99329">
        <ele>339.6</ele>
        <time>2018-05-19T10:25:06Z</time>
      </trkpt>
      <trkpt lat="44.08574" lon="2.99333">
        <ele>339.6</ele>
        <time>2018-05-19T10:25:07Z</time>
      </trkpt>
      <trkpt lat="44.08577" lon="2.99337">
        <ele>339.6</ele>
        <time>2018-05-19T10:25:08Z</time>
      </trkpt>
      <trkpt lat="44.08579" lon="2.99341">
        <ele>339.5</ele>
        <time>2018-05-19T10:25:09Z</time>
      </trkpt>
      <trkpt lat="44.08582" lon="2.99344">
        <ele>339.4</ele>
        <time>2018-05-19T10:25:10Z</time>
      </trkpt>
      <trkpt lat="44.08585" lon="2.99348">
        <ele>339.4</ele>
        <time>2018-05-19T10:25:11Z</time>
      </trkpt>
      <trkpt lat="44.08587" lon="2.99352">
        <ele>339.3</ele>
        <time>2018-05-19T10:25:12Z</time>
      </trkpt>
      <trkpt lat="44.0859" lon="2.99356">
        <ele>339.3</ele>
        <time>2018-05-19T10:25:13Z</time>
      </trkpt>
      <trkpt lat="44.08592" lon="2.9936">
        <ele>339.3</ele>
        <time>2018-05-19T10:25:14Z</time>
      </trkpt>
      <trkpt lat="44.08594" lon="2.99363">
        <ele>339.2</ele>
        <time>2018-05-19T10:25:15Z</time>
      </trkpt>
      <trkpt lat="44.08597" lon="2.99367">
        <ele>339.1</ele>
        <time>2018-05-19T10:25:16Z</time>
      </trkpt>
      <trkpt lat="44.086" lon="2.99371">
        <ele>339.1</ele>
        <time>2018-05-19T10:25:17Z</time>
      </trkpt>
      <trkpt lat="44.08603" lon="2.99375">
        <ele>339</ele>
        <time>2018-05-19T10:25:18Z</time>
      </trkpt>
      <trkpt lat="44.08605" lon="2.99379">
        <ele>339</ele>
        <time>2018-05-19T10:25:19Z</time>
      </trkpt>
      <trkpt lat="44.08608" lon="2.99383">
        <ele>338.9</ele>
        <time>2018-05-19T10:25:20Z</time>
      </trkpt>
      <trkpt lat="44.08611" lon="2.99388">
        <ele>338.9</ele>
        <time>2018-05-19T10:25:21Z</time>
      </trkpt>
      <trkpt lat="44.08614" lon="2.99392">
        <ele>338.8</ele>
        <time>2018-05-19T10:25:22Z</time>
      </trkpt>
      <trkpt lat="44.08616" lon="2.99397">
        <ele>338.8</ele>
        <time>2018-05-19T10:25:23Z</time>
      </trkpt>
      <trkpt lat="44.08619" lon="2.99402">
        <ele>338.8</ele>
        <time>2018-05-19T10:25:24Z</time>
      </trkpt>
      <trkpt lat="44.08622" lon="2.99407">
        <ele>338.9</ele>
        <time>2018-05-19T10:25:25Z</time>
      </trkpt>
      <trkpt lat="44.08625" lon="2.99412">
        <ele>338.9</ele>
        <time>2018-05-19T10:25:26Z</time>
      </trkpt>
      <trkpt lat="44.08627" lon="2.99417">
        <ele>338.9</ele>
        <time>2018-05-19T10:25:27Z</time>
      </trkpt>
      <trkpt lat="44.0863" lon="2.99422">
        <ele>338.9</ele>
        <time>2018-05-19T10:25:28Z</time>
      </trkpt>
      <trkpt lat="44.08633" lon="2.99426">
        <ele>339</ele>
        <time>2018-05-19T10:25:29Z</time>
      </trkpt>
      <trkpt lat="44.08636" lon="2.9943">
        <ele>338.9</ele>
        <time>2018-05-19T10:25:30Z</time>
      </trkpt>
      <trkpt lat="44.08639" lon="2.99434">
        <ele>338.9</ele>
        <time>2018-05-19T10:25:31Z</time>
      </trkpt>
      <trkpt lat="44.08642" lon="2.99438">
        <ele>338.9</ele>
        <time>2018-05-19T10:25:32Z</time>
      </trkpt>
      <trkpt lat="44.08645" lon="2.99443">
        <ele>338.9</ele>
        <time>2018-05-19T10:25:33Z</time>
      </trkpt>
      <trkpt lat="44.08648" lon="2.99448">
        <ele>338.7</ele>
        <time>2018-05-19T10:25:34Z</time>
      </trkpt>
      <trkpt lat="44.08651" lon="2.99453">
        <ele>338.5</ele>
        <time>2018-05-19T10:25:35Z</time>
      </trkpt>
      <trkpt lat="44.08654" lon="2.99458">
        <ele>338.4</ele>
        <time>2018-05-19T10:25:36Z</time>
      </trkpt>
      <trkpt lat="44.08656" lon="2.99462">
        <ele>338.3</ele>
        <time>2018-05-19T10:25:37Z</time>
      </trkpt>
      <trkpt lat="44.08659" lon="2.99466">
        <ele>338.3</ele>
        <time>2018-05-19T10:25:38Z</time>
      </trkpt>
      <trkpt lat="44.08662" lon="2.99471">
        <ele>338.4</ele>
        <time>2018-05-19T10:25:39Z</time>
      </trkpt>
      <trkpt lat="44.08665" lon="2.99475">
        <ele>338.4</ele>
        <time>2018-05-19T10:25:40Z</time>
      </trkpt>
      <trkpt lat="44.08667" lon="2.99479">
        <ele>338.5</ele>
        <time>2018-05-19T10:25:41Z</time>
      </trkpt>
      <trkpt lat="44.0867" lon="2.99484">
        <ele>338.5</ele>
        <time>2018-05-19T10:25:42Z</time>
      </trkpt>
      <trkpt lat="44.08673" lon="2.99489">
        <ele>338.4</ele>
        <time>2018-05-19T10:25:43Z</time>
      </trkpt>
      <trkpt lat="44.08676" lon="2.99493">
        <ele>338.4</ele>
        <time>2018-05-19T10:25:44Z</time>
      </trkpt>
      <trkpt lat="44.08679" lon="2.99498">
        <ele>338.4</ele>
        <time>2018-05-19T10:25:45Z</time>
      </trkpt>
      <trkpt lat="44.08682" lon="2.99501">
        <ele>338.5</ele>
        <time>2018-05-19T10:25:46Z</time>
      </trkpt>
      <trkpt lat="44.08685" lon="2.99504">
        <ele>338.5</ele>
        <time>2018-05-19T10:25:47Z</time>
      </trkpt>
      <trkpt lat="44.08688" lon="2.99507">
        <ele>338.4</ele>
        <time>2018-05-19T10:25:48Z</time>
      </trkpt>
      <trkpt lat="44.08692" lon="2.99511">
        <ele>338.3</ele>
        <time>2018-05-19T10:25:49Z</time>
      </trkpt>
      <trkpt lat="44.08696" lon="2.99515">
        <ele>338.3</ele>
        <time>2018-05-19T10:25:50Z</time>
      </trkpt>
      <trkpt lat="44.087" lon="2.99518">
        <ele>338.2</ele>
        <time>2018-05-19T10:25:51Z</time>
      </trkpt>
      <trkpt lat="44.08704" lon="2.99521">
        <ele>338.2</ele>
        <time>2018-05-19T10:25:52Z</time>
      </trkpt>
      <trkpt lat="44.08708" lon="2.99525">
        <ele>338.1</ele>
        <time>2018-05-19T10:25:53Z</time>
      </trkpt>
      <trkpt lat="44.08711" lon="2.99529">
        <ele>338.1</ele>
        <time>2018-05-19T10:25:54Z</time>
      </trkpt>
      <trkpt lat="44.08715" lon="2.99531">
        <ele>338.1</ele>
        <time>2018-05-19T10:25:55Z</time>
      </trkpt>
      <trkpt lat="44.08718" lon="2.99532">
        <ele>338.1</ele>
        <time>2018-05-19T10:25:56Z</time>
      </trkpt>
      <trkpt lat="44.0872" lon="2.99536">
        <ele>338.1</ele>
        <time>2018-05-19T10:25:57Z</time>
      </trkpt>
      <trkpt lat="44.08724" lon="2.9954">
        <ele>338.1</ele>
        <time>2018-05-19T10:25:58Z</time>
      </trkpt>
      <trkpt lat="44.08728" lon="2.99543">
        <ele>338.2</ele>
        <time>2018-05-19T10:25:59Z</time>
      </trkpt>
      <trkpt lat="44.08732" lon="2.99546">
        <ele>338.3</ele>
        <time>2018-05-19T10:26:00Z</time>
      </trkpt>
      <trkpt lat="44.08735" lon="2.9955">
        <ele>338.3</ele>
        <time>2018-05-19T10:26:01Z</time>
      </trkpt>
      <trkpt lat="44.0874" lon="2.99556">
        <ele>338.4</ele>
        <time>2018-05-19T10:26:02Z</time>
      </trkpt>
      <trkpt lat="44.08743" lon="2.9956">
        <ele>338.3</ele>
        <time>2018-05-19T10:26:03Z</time>
      </trkpt>
      <trkpt lat="44.08747" lon="2.99564">
        <ele>338.3</ele>
        <time>2018-05-19T10:26:04Z</time>
      </trkpt>
      <trkpt lat="44.08751" lon="2.99567">
        <ele>338.3</ele>
        <time>2018-05-19T10:26:05Z</time>
      </trkpt>
      <trkpt lat="44.08756" lon="2.99571">
        <ele>338.4</ele>
        <time>2018-05-19T10:26:06Z</time>
      </trkpt>
      <trkpt lat="44.0876" lon="2.99577">
        <ele>338.6</ele>
        <time>2018-05-19T10:26:07Z</time>
      </trkpt>
      <trkpt lat="44.08764" lon="2.99581">
        <ele>338.9</ele>
        <time>2018-05-19T10:26:08Z</time>
      </trkpt>
      <trkpt lat="44.08769" lon="2.99586">
        <ele>339.1</ele>
        <time>2018-05-19T10:26:09Z</time>
      </trkpt>
      <trkpt lat="44.08774" lon="2.99593">
        <ele>339.4</ele>
        <time>2018-05-19T10:26:10Z</time>
      </trkpt>
      <trkpt lat="44.08777" lon="2.99596">
        <ele>339.6</ele>
        <time>2018-05-19T10:26:11Z</time>
      </trkpt>
      <trkpt lat="44.0878" lon="2.99598">
        <ele>339.7</ele>
        <time>2018-05-19T10:26:12Z</time>
      </trkpt>
      <trkpt lat="44.08784" lon="2.99603">
        <ele>340</ele>
        <time>2018-05-19T10:26:13Z</time>
      </trkpt>
      <trkpt lat="44.08788" lon="2.99607">
        <ele>340</ele>
        <time>2018-05-19T10:26:14Z</time>
      </trkpt>
      <trkpt lat="44.08792" lon="2.99612">
        <ele>340</ele>
        <time>2018-05-19T10:26:15Z</time>
      </trkpt>
      <trkpt lat="44.08796" lon="2.99614">
        <ele>340.7</ele>
        <time>2018-05-19T10:26:16Z</time>
      </trkpt>
      <trkpt lat="44.088" lon="2.99617">
        <ele>341.3</ele>
        <time>2018-05-19T10:26:17Z</time>
      </trkpt>
      <trkpt lat="44.08803" lon="2.99619">
        <ele>341.8</ele>
        <time>2018-05-19T10:26:18Z</time>
      </trkpt>
      <trkpt lat="44.08806" lon="2.99621">
        <ele>342.5</ele>
        <time>2018-05-19T10:26:19Z</time>
      </trkpt>
      <trkpt lat="44.0881" lon="2.99624">
        <ele>343</ele>
        <time>2018-05-19T10:26:20Z</time>
      </trkpt>
      <trkpt lat="44.08814" lon="2.99628">
        <ele>343.4</ele>
        <time>2018-05-19T10:26:21Z</time>
      </trkpt>
      <trkpt lat="44.08816" lon="2.99632">
        <ele>343.7</ele>
        <time>2018-05-19T10:26:22Z</time>
      </trkpt>
      <trkpt lat="44.08819" lon="2.99634">
        <ele>344.3</ele>
        <time>2018-05-19T10:26:23Z</time>
      </trkpt>
      <trkpt lat="44.08822" lon="2.99638">
        <ele>344.6</ele>
        <time>2018-05-19T10:26:24Z</time>
      </trkpt>
      <trkpt lat="44.08825" lon="2.99641">
        <ele>344.9</ele>
        <time>2018-05-19T10:26:25Z</time>
      </trkpt>
      <trkpt lat="44.08827" lon="2.99643">
        <ele>345.6</ele>
        <time>2018-05-19T10:26:26Z</time>
      </trkpt>
      <trkpt lat="44.0883" lon="2.99645">
        <ele>346</ele>
        <time>2018-05-19T10:26:27Z</time>
      </trkpt>
      <trkpt lat="44.08832" lon="2.99648">
        <ele>345.8</ele>
        <time>2018-05-19T10:26:28Z</time>
      </trkpt>
      <trkpt lat="44.08836" lon="2.99652">
        <ele>346.6</ele>
        <time>2018-05-19T10:26:30Z</time>
      </trkpt>
      <trkpt lat="44.08839" lon="2.99655">
        <ele>346.8</ele>
        <time>2018-05-19T10:26:31Z</time>
      </trkpt>
      <trkpt lat="44.08841" lon="2.99657">
        <ele>347.1</ele>
        <time>2018-05-19T10:26:32Z</time>
      </trkpt>
      <trkpt lat="44.08844" lon="2.99659">
        <ele>347.8</ele>
        <time>2018-05-19T10:26:33Z</time>
      </trkpt>
      <trkpt lat="44.08847" lon="2.99661">
        <ele>348</ele>
        <time>2018-05-19T10:26:34Z</time>
      </trkpt>
      <trkpt lat="44.08851" lon="2.99662">
        <ele>348.7</ele>
        <time>2018-05-19T10:26:35Z</time>
      </trkpt>
      <trkpt lat="44.08855" lon="2.99663">
        <ele>350</ele>
        <time>2018-05-19T10:26:37Z</time>
      </trkpt>
      <trkpt lat="44.0886" lon="2.99664">
        <ele>350.8</ele>
        <time>2018-05-19T10:26:39Z</time>
      </trkpt>
      <trkpt lat="44.08862" lon="2.99665">
        <ele>351.1</ele>
        <time>2018-05-19T10:26:40Z</time>
      </trkpt>
      <trkpt lat="44.08865" lon="2.99668">
        <ele>351.3</ele>
        <time>2018-05-19T10:26:41Z</time>
      </trkpt>
      <trkpt lat="44.08867" lon="2.9967">
        <ele>351.6</ele>
        <time>2018-05-19T10:26:42Z</time>
      </trkpt>
      <trkpt lat="44.08872" lon="2.99673">
        <ele>352</ele>
        <time>2018-05-19T10:26:44Z</time>
      </trkpt>
      <trkpt lat="44.08875" lon="2.99675">
        <ele>352.3</ele>
        <time>2018-05-19T10:26:45Z</time>
      </trkpt>
      <trkpt lat="44.08879" lon="2.99677">
        <ele>352.6</ele>
        <time>2018-05-19T10:26:46Z</time>
      </trkpt>
      <trkpt lat="44.08881" lon="2.99679">
        <ele>352.8</ele>
        <time>2018-05-19T10:26:47Z</time>
      </trkpt>
      <trkpt lat="44.08884" lon="2.99681">
        <ele>353.1</ele>
        <time>2018-05-19T10:26:48Z</time>
      </trkpt>
      <trkpt lat="44.08888" lon="2.99684">
        <ele>353.5</ele>
        <time>2018-05-19T10:26:49Z</time>
      </trkpt>
      <trkpt lat="44.08894" lon="2.99689">
        <ele>354.1</ele>
        <time>2018-05-19T10:26:50Z</time>
      </trkpt>
      <trkpt lat="44.08898" lon="2.99694">
        <ele>354.6</ele>
        <time>2018-05-19T10:26:51Z</time>
      </trkpt>
      <trkpt lat="44.08903" lon="2.99698">
        <ele>355.1</ele>
        <time>2018-05-19T10:26:52Z</time>
      </trkpt>
      <trkpt lat="44.08908" lon="2.99701">
        <ele>355.5</ele>
        <time>2018-05-19T10:26:53Z</time>
      </trkpt>
      <trkpt lat="44.08912" lon="2.99704">
        <ele>355.9</ele>
        <time>2018-05-19T10:26:54Z</time>
      </trkpt>
      <trkpt lat="44.08916" lon="2.99708">
        <ele>356.4</ele>
        <time>2018-05-19T10:26:55Z</time>
      </trkpt>
      <trkpt lat="44.08921" lon="2.9971">
        <ele>356.7</ele>
        <time>2018-05-19T10:26:56Z</time>
      </trkpt>
      <trkpt lat="44.08924" lon="2.99712">
        <ele>357.1</ele>
        <time>2018-05-19T10:26:57Z</time>
      </trkpt>
      <trkpt lat="44.08928" lon="2.99714">
        <ele>357.4</ele>
        <time>2018-05-19T10:26:58Z</time>
      </trkpt>
      <trkpt lat="44.08932" lon="2.99719">
        <ele>357.8</ele>
        <time>2018-05-19T10:26:59Z</time>
      </trkpt>
      <trkpt lat="44.08935" lon="2.99722">
        <ele>358.2</ele>
        <time>2018-05-19T10:27:01Z</time>
      </trkpt>
      <trkpt lat="44.0894" lon="2.99726">
        <ele>358.7</ele>
        <time>2018-05-19T10:27:03Z</time>
      </trkpt>
      <trkpt lat="44.08943" lon="2.99728">
        <ele>359</ele>
        <time>2018-05-19T10:27:04Z</time>
      </trkpt>
      <trkpt lat="44.08946" lon="2.99731">
        <ele>359</ele>
        <time>2018-05-19T10:27:06Z</time>
      </trkpt>
      <trkpt lat="44.08949" lon="2.99733">
        <ele>359.2</ele>
        <time>2018-05-19T10:27:11Z</time>
      </trkpt>
      <trkpt lat="44.08951" lon="2.99736">
        <ele>359.4</ele>
        <time>2018-05-19T10:27:24Z</time>
      </trkpt>
      <trkpt lat="44.08951" lon="2.99741">
        <ele>360</ele>
        <time>2018-05-19T10:27:27Z</time>
      </trkpt>
      <trkpt lat="44.08953" lon="2.99744">
        <ele>360.8</ele>
        <time>2018-05-19T10:27:28Z</time>
      </trkpt>
      <trkpt lat="44.08956" lon="2.99747">
        <ele>361.6</ele>
        <time>2018-05-19T10:27:29Z</time>
      </trkpt>
      <trkpt lat="44.08959" lon="2.99749">
        <ele>361.8</ele>
        <time>2018-05-19T10:27:30Z</time>
      </trkpt>
      <trkpt lat="44.08964" lon="2.9975">
        <ele>362.2</ele>
        <time>2018-05-19T10:27:32Z</time>
      </trkpt>
      <trkpt lat="44.08967" lon="2.99752">
        <ele>361.6</ele>
        <time>2018-05-19T10:27:33Z</time>
      </trkpt>
      <trkpt lat="44.08971" lon="2.99754">
        <ele>360.7</ele>
        <time>2018-05-19T10:27:34Z</time>
      </trkpt>
      <trkpt lat="44.08977" lon="2.99759">
        <ele>358.9</ele>
        <time>2018-05-19T10:27:35Z</time>
      </trkpt>
      <trkpt lat="44.08981" lon="2.99764">
        <ele>357</ele>
        <time>2018-05-19T10:27:36Z</time>
      </trkpt>
      <trkpt lat="44.08985" lon="2.99767">
        <ele>355.1</ele>
        <time>2018-05-19T10:27:37Z</time>
      </trkpt>
      <trkpt lat="44.08989" lon="2.9977">
        <ele>354.4</ele>
        <time>2018-05-19T10:27:38Z</time>
      </trkpt>
      <trkpt lat="44.08994" lon="2.99773">
        <ele>355</ele>
        <time>2018-05-19T10:27:39Z</time>
      </trkpt>
      <trkpt lat="44.08998" lon="2.99777">
        <ele>355.7</ele>
        <time>2018-05-19T10:27:40Z</time>
      </trkpt>
      <trkpt lat="44.09002" lon="2.9978">
        <ele>356</ele>
        <time>2018-05-19T10:27:41Z</time>
      </trkpt>
      <trkpt lat="44.09005" lon="2.99783">
        <ele>358.9</ele>
        <time>2018-05-19T10:27:42Z</time>
      </trkpt>
      <trkpt lat="44.09009" lon="2.99785">
        <ele>360.7</ele>
        <time>2018-05-19T10:27:44Z</time>
      </trkpt>
      <trkpt lat="44.09014" lon="2.99786">
        <ele>360.7</ele>
        <time>2018-05-19T10:27:45Z</time>
      </trkpt>
      <trkpt lat="44.09017" lon="2.99791">
        <ele>360.8</ele>
        <time>2018-05-19T10:27:46Z</time>
      </trkpt>
      <trkpt lat="44.09021" lon="2.99796">
        <ele>361</ele>
        <time>2018-05-19T10:27:47Z</time>
      </trkpt>
      <trkpt lat="44.09024" lon="2.99799">
        <ele>360</ele>
        <time>2018-05-19T10:27:48Z</time>
      </trkpt>
      <trkpt lat="44.09026" lon="2.99801">
        <ele>359.1</ele>
        <time>2018-05-19T10:27:49Z</time>
      </trkpt>
      <trkpt lat="44.09029" lon="2.99796">
        <ele>358.2</ele>
        <time>2018-05-19T10:27:53Z</time>
      </trkpt>
      <trkpt lat="44.0903" lon="2.998">
        <ele>358.2</ele>
        <time>2018-05-19T10:27:57Z</time>
      </trkpt>
      <trkpt lat="44.09031" lon="2.99804">
        <ele>358.2</ele>
        <time>2018-05-19T10:28:01Z</time>
      </trkpt>
      <trkpt lat="44.09033" lon="2.99807">
        <ele>359</ele>
        <time>2018-05-19T10:28:04Z</time>
      </trkpt>
      <trkpt lat="44.09037" lon="2.99811">
        <ele>360.8</ele>
        <time>2018-05-19T10:28:06Z</time>
      </trkpt>
      <trkpt lat="44.09039" lon="2.99813">
        <ele>361.7</ele>
        <time>2018-05-19T10:28:07Z</time>
      </trkpt>
      <trkpt lat="44.09042" lon="2.99816">
        <ele>362.4</ele>
        <time>2018-05-19T10:28:08Z</time>
      </trkpt>
      <trkpt lat="44.09044" lon="2.99818">
        <ele>363.2</ele>
        <time>2018-05-19T10:28:09Z</time>
      </trkpt>
      <trkpt lat="44.09046" lon="2.99822">
        <ele>364</ele>
        <time>2018-05-19T10:28:10Z</time>
      </trkpt>
      <trkpt lat="44.09047" lon="2.99825">
        <ele>363.8</ele>
        <time>2018-05-19T10:28:11Z</time>
      </trkpt>
      <trkpt lat="44.09049" lon="2.99829">
        <ele>363.7</ele>
        <time>2018-05-19T10:28:12Z</time>
      </trkpt>
      <trkpt lat="44.0905" lon="2.99832">
        <ele>363.4</ele>
        <time>2018-05-19T10:28:13Z</time>
      </trkpt>
      <trkpt lat="44.09052" lon="2.99837">
        <ele>362.6</ele>
        <time>2018-05-19T10:28:14Z</time>
      </trkpt>
      <trkpt lat="44.09054" lon="2.99841">
        <ele>361.5</ele>
        <time>2018-05-19T10:28:15Z</time>
      </trkpt>
      <trkpt lat="44.09056" lon="2.99845">
        <ele>360.6</ele>
        <time>2018-05-19T10:28:16Z</time>
      </trkpt>
      <trkpt lat="44.09059" lon="2.9985">
        <ele>360.6</ele>
        <time>2018-05-19T10:28:17Z</time>
      </trkpt>
      <trkpt lat="44.09061" lon="2.99854">
        <ele>360.6</ele>
        <time>2018-05-19T10:28:18Z</time>
      </trkpt>
      <trkpt lat="44.09062" lon="2.99859">
        <ele>360.8</ele>
        <time>2018-05-19T10:28:19Z</time>
      </trkpt>
      <trkpt lat="44.09064" lon="2.99863">
        <ele>361.1</ele>
        <time>2018-05-19T10:28:20Z</time>
      </trkpt>
      <trkpt lat="44.09066" lon="2.99867">
        <ele>361.3</ele>
        <time>2018-05-19T10:28:21Z</time>
      </trkpt>
      <trkpt lat="44.09067" lon="2.9987">
        <ele>360</ele>
        <time>2018-05-19T10:28:22Z</time>
      </trkpt>
      <trkpt lat="44.09069" lon="2.99873">
        <ele>358.4</ele>
        <time>2018-05-19T10:28:23Z</time>
      </trkpt>
      <trkpt lat="44.09071" lon="2.99877">
        <ele>356.6</ele>
        <time>2018-05-19T10:28:24Z</time>
      </trkpt>
      <trkpt lat="44.09073" lon="2.99882">
        <ele>354.9</ele>
        <time>2018-05-19T10:28:25Z</time>
      </trkpt>
      <trkpt lat="44.09075" lon="2.99887">
        <ele>353.2</ele>
        <time>2018-05-19T10:28:26Z</time>
      </trkpt>
      <trkpt lat="44.09077" lon="2.99892">
        <ele>352.1</ele>
        <time>2018-05-19T10:28:27Z</time>
      </trkpt>
      <trkpt lat="44.09079" lon="2.99896">
        <ele>351.1</ele>
        <time>2018-05-19T10:28:28Z</time>
      </trkpt>
      <trkpt lat="44.09081" lon="2.999">
        <ele>351.3</ele>
        <time>2018-05-19T10:28:29Z</time>
      </trkpt>
      <trkpt lat="44.09083" lon="2.99904">
        <ele>351.5</ele>
        <time>2018-05-19T10:28:30Z</time>
      </trkpt>
      <trkpt lat="44.09085" lon="2.99908">
        <ele>352.4</ele>
        <time>2018-05-19T10:28:31Z</time>
      </trkpt>
      <trkpt lat="44.09086" lon="2.99912">
        <ele>353.3</ele>
        <time>2018-05-19T10:28:32Z</time>
      </trkpt>
      <trkpt lat="44.09088" lon="2.99916">
        <ele>354.6</ele>
        <time>2018-05-19T10:28:34Z</time>
      </trkpt>
      <trkpt lat="44.09089" lon="2.9992">
        <ele>355.9</ele>
        <time>2018-05-19T10:28:37Z</time>
      </trkpt>
      <trkpt lat="44.09089" lon="2.99928">
        <ele>358</ele>
        <time>2018-05-19T10:29:33Z</time>
      </trkpt>
      <trkpt lat="44.09091" lon="2.99931">
        <ele>359.1</ele>
        <time>2018-05-19T10:29:34Z</time>
      </trkpt>
      <trkpt lat="44.09092" lon="2.99936">
        <ele>360.2</ele>
        <time>2018-05-19T10:29:35Z</time>
      </trkpt>
      <trkpt lat="44.09093" lon="2.9994">
        <ele>361.1</ele>
        <time>2018-05-19T10:29:36Z</time>
      </trkpt>
      <trkpt lat="44.09094" lon="2.99945">
        <ele>361.9</ele>
        <time>2018-05-19T10:29:37Z</time>
      </trkpt>
      <trkpt lat="44.09095" lon="2.9995">
        <ele>362.2</ele>
        <time>2018-05-19T10:29:38Z</time>
      </trkpt>
      <trkpt lat="44.09097" lon="2.99954">
        <ele>362</ele>
        <time>2018-05-19T10:29:39Z</time>
      </trkpt>
      <trkpt lat="44.09098" lon="2.99959">
        <ele>359.9</ele>
        <time>2018-05-19T10:29:40Z</time>
      </trkpt>
      <trkpt lat="44.09099" lon="2.99963">
        <ele>357.8</ele>
        <time>2018-05-19T10:29:41Z</time>
      </trkpt>
      <trkpt lat="44.091" lon="2.99968">
        <ele>356.4</ele>
        <time>2018-05-19T10:29:42Z</time>
      </trkpt>
      <trkpt lat="44.09101" lon="2.99971">
        <ele>355.4</ele>
        <time>2018-05-19T10:29:43Z</time>
      </trkpt>
      <trkpt lat="44.09103" lon="2.99977">
        <ele>353.5</ele>
        <time>2018-05-19T10:29:45Z</time>
      </trkpt>
      <trkpt lat="44.09102" lon="2.99981">
        <ele>351.9</ele>
        <time>2018-05-19T10:29:48Z</time>
      </trkpt>
      <trkpt lat="44.09101" lon="2.99986">
        <ele>350.2</ele>
        <time>2018-05-19T10:29:52Z</time>
      </trkpt>
      <trkpt lat="44.09102" lon="2.9999">
        <ele>349.8</ele>
        <time>2018-05-19T10:29:54Z</time>
      </trkpt>
      <trkpt lat="44.09104" lon="2.99992">
        <ele>351.2</ele>
        <time>2018-05-19T10:29:57Z</time>
      </trkpt>
      <trkpt lat="44.09109" lon="2.99993">
        <ele>353.9</ele>
        <time>2018-05-19T10:29:59Z</time>
      </trkpt>
      <trkpt lat="44.09114" lon="2.99991">
        <ele>356.4</ele>
        <time>2018-05-19T10:30:01Z</time>
      </trkpt>
      <trkpt lat="44.09119" lon="2.99991">
        <ele>358.7</ele>
        <time>2018-05-19T10:30:03Z</time>
      </trkpt>
      <trkpt lat="44.09124" lon="2.9999">
        <ele>360.3</ele>
        <time>2018-05-19T10:30:05Z</time>
      </trkpt>
      <trkpt lat="44.09127" lon="2.9999">
        <ele>361</ele>
        <time>2018-05-19T10:30:07Z</time>
      </trkpt>
      <trkpt lat="44.09132" lon="2.99988">
        <ele>360.7</ele>
        <time>2018-05-19T10:30:09Z</time>
      </trkpt>
      <trkpt lat="44.09135" lon="2.99984">
        <ele>358.5</ele>
        <time>2018-05-19T10:30:11Z</time>
      </trkpt>
      <trkpt lat="44.09136" lon="2.99978">
        <ele>357.1</ele>
        <time>2018-05-19T10:30:13Z</time>
      </trkpt>
      <trkpt lat="44.09135" lon="2.99972">
        <ele>355.7</ele>
        <time>2018-05-19T10:30:15Z</time>
      </trkpt>
      <trkpt lat="44.09134" lon="2.99967">
        <ele>354</ele>
        <time>2018-05-19T10:30:17Z</time>
      </trkpt>
      <trkpt lat="44.09133" lon="2.99962">
        <ele>351.6</ele>
        <time>2018-05-19T10:30:19Z</time>
      </trkpt>
      <trkpt lat="44.09132" lon="2.99956">
        <ele>349.1</ele>
        <time>2018-05-19T10:30:21Z</time>
      </trkpt>
      <trkpt lat="44.09131" lon="2.99952">
        <ele>349</ele>
        <time>2018-05-19T10:30:23Z</time>
      </trkpt>
      <trkpt lat="44.09132" lon="2.99948">
        <ele>348.8</ele>
        <time>2018-05-19T10:30:26Z</time>
      </trkpt>
      <trkpt lat="44.09135" lon="2.99946">
        <ele>348.6</ele>
        <time>2018-05-19T10:30:29Z</time>
      </trkpt>
      <trkpt lat="44.09137" lon="2.99947">
        <ele>348.4</ele>
        <time>2018-05-19T10:30:32Z</time>
      </trkpt>
      <trkpt lat="44.09137" lon="2.99951">
        <ele>348.2</ele>
        <time>2018-05-19T10:30:36Z</time>
      </trkpt>
      <trkpt lat="44.09139" lon="2.99952">
        <ele>348</ele>
        <time>2018-05-19T10:30:51Z</time>
      </trkpt>
      <trkpt lat="44.09141" lon="2.99956">
        <ele>347.7</ele>
        <time>2018-05-19T10:31:11Z</time>
      </trkpt>
      <trkpt lat="44.09142" lon="2.9996">
        <ele>347.6</ele>
        <time>2018-05-19T10:31:14Z</time>
      </trkpt>
      <trkpt lat="44.09142" lon="2.99957">
        <ele>347.5</ele>
        <time>2018-05-19T10:31:18Z</time>
      </trkpt>
      <trkpt lat="44.0914" lon="2.99954">
        <ele>347.4</ele>
        <time>2018-05-19T10:31:21Z</time>
      </trkpt>
      <trkpt lat="44.09138" lon="2.99957">
        <ele>347.3</ele>
        <time>2018-05-19T10:31:35Z</time>
      </trkpt>
      <trkpt lat="44.0914" lon="2.99959">
        <ele>347.1</ele>
        <time>2018-05-19T10:31:52Z</time>
      </trkpt>
      <trkpt lat="44.09141" lon="2.99964">
        <ele>347</ele>
        <time>2018-05-19T10:31:54Z</time>
      </trkpt>
      <trkpt lat="44.09143" lon="2.99968">
        <ele>346.9</ele>
        <time>2018-05-19T10:31:56Z</time>
      </trkpt>
      <trkpt lat="44.09146" lon="2.99971">
        <ele>346.7</ele>
        <time>2018-05-19T10:31:58Z</time>
      </trkpt>
      <trkpt lat="44.09147" lon="2.99976">
        <ele>346.6</ele>
        <time>2018-05-19T10:32:00Z</time>
      </trkpt>
      <trkpt lat="44.09148" lon="2.9998">
        <ele>346.5</ele>
        <time>2018-05-19T10:32:01Z</time>
      </trkpt>
      <trkpt lat="44.09149" lon="2.99984">
        <ele>346.3</ele>
        <time>2018-05-19T10:32:02Z</time>
      </trkpt>
      <trkpt lat="44.0915" lon="2.99988">
        <ele>346.2</ele>
        <time>2018-05-19T10:32:03Z</time>
      </trkpt>
      <trkpt lat="44.0915" lon="2.99992">
        <ele>346.1</ele>
        <time>2018-05-19T10:32:04Z</time>
      </trkpt>
      <trkpt lat="44.09151" lon="2.99996">
        <ele>346</ele>
        <time>2018-05-19T10:32:05Z</time>
      </trkpt>
      <trkpt lat="44.09152" lon="3.00001">
        <ele>345.8</ele>
        <time>2018-05-19T10:32:06Z</time>
      </trkpt>
      <trkpt lat="44.09153" lon="3.00006">
        <ele>345.6</ele>
        <time>2018-05-19T10:32:07Z</time>
      </trkpt>
      <trkpt lat="44.09154" lon="3.0001">
        <ele>345.4</ele>
        <time>2018-05-19T10:32:08Z</time>
      </trkpt>
      <trkpt lat="44.09154" lon="3.00014">
        <ele>345.2</ele>
        <time>2018-05-19T10:32:09Z</time>
      </trkpt>
      <trkpt lat="44.09155" lon="3.00018">
        <ele>345.2</ele>
        <time>2018-05-19T10:32:10Z</time>
      </trkpt>
      <trkpt lat="44.09155" lon="3.00022">
        <ele>345.1</ele>
        <time>2018-05-19T10:32:11Z</time>
      </trkpt>
      <trkpt lat="44.09154" lon="3.00026">
        <ele>345.1</ele>
        <time>2018-05-19T10:32:12Z</time>
      </trkpt>
      <trkpt lat="44.09154" lon="3.0003">
        <ele>345</ele>
        <time>2018-05-19T10:32:13Z</time>
      </trkpt>
      <trkpt lat="44.09154" lon="3.00035">
        <ele>344.9</ele>
        <time>2018-05-19T10:32:14Z</time>
      </trkpt>
      <trkpt lat="44.09153" lon="3.00039">
        <ele>344.8</ele>
        <time>2018-05-19T10:32:15Z</time>
      </trkpt>
      <trkpt lat="44.09152" lon="3.00044">
        <ele>344.8</ele>
        <time>2018-05-19T10:32:16Z</time>
      </trkpt>
      <trkpt lat="44.09151" lon="3.00048">
        <ele>344.7</ele>
        <time>2018-05-19T10:32:17Z</time>
      </trkpt>
      <trkpt lat="44.0915" lon="3.00052">
        <ele>344.6</ele>
        <time>2018-05-19T10:32:18Z</time>
      </trkpt>
      <trkpt lat="44.09149" lon="3.00056">
        <ele>344.6</ele>
        <time>2018-05-19T10:32:19Z</time>
      </trkpt>
      <trkpt lat="44.09148" lon="3.00061">
        <ele>344.5</ele>
        <time>2018-05-19T10:32:21Z</time>
      </trkpt>
      <trkpt lat="44.09147" lon="3.00068">
        <ele>344.3</ele>
        <time>2018-05-19T10:32:23Z</time>
      </trkpt>
      <trkpt lat="44.09147" lon="3.00073">
        <ele>344.3</ele>
        <time>2018-05-19T10:32:25Z</time>
      </trkpt>
      <trkpt lat="44.09148" lon="3.00079">
        <ele>344.3</ele>
        <time>2018-05-19T10:32:27Z</time>
      </trkpt>
      <trkpt lat="44.09151" lon="3.00081">
        <ele>344.6</ele>
        <time>2018-05-19T10:32:30Z</time>
      </trkpt>
      <trkpt lat="44.09154" lon="3.00078">
        <ele>344.9</ele>
        <time>2018-05-19T10:32:32Z</time>
      </trkpt>
      <trkpt lat="44.09156" lon="3.00072">
        <ele>345.5</ele>
        <time>2018-05-19T10:32:34Z</time>
      </trkpt>
      <trkpt lat="44.09158" lon="3.00065">
        <ele>346</ele>
        <time>2018-05-19T10:32:36Z</time>
      </trkpt>
      <trkpt lat="44.09159" lon="3.0006">
        <ele>346.7</ele>
        <time>2018-05-19T10:32:38Z</time>
      </trkpt>
      <trkpt lat="44.09159" lon="3.00055">
        <ele>347.7</ele>
        <time>2018-05-19T10:32:40Z</time>
      </trkpt>
      <trkpt lat="44.09159" lon="3.0005">
        <ele>357.5</ele>
        <time>2018-05-19T10:32:42Z</time>
      </trkpt>
      <trkpt lat="44.0916" lon="3.00045">
        <ele>358.3</ele>
        <time>2018-05-19T10:32:44Z</time>
      </trkpt>
      <trkpt lat="44.09161" lon="3.00041">
        <ele>359</ele>
        <time>2018-05-19T10:32:48Z</time>
      </trkpt>
      <trkpt lat="44.09161" lon="3.00035">
        <ele>359.6</ele>
        <time>2018-05-19T10:32:51Z</time>
      </trkpt>
      <trkpt lat="44.09161" lon="3.00031">
        <ele>360</ele>
        <time>2018-05-19T10:32:53Z</time>
      </trkpt>
      <trkpt lat="44.09162" lon="3.00026">
        <ele>360.5</ele>
        <time>2018-05-19T10:32:56Z</time>
      </trkpt>
      <trkpt lat="44.09163" lon="3.00022">
        <ele>360.9</ele>
        <time>2018-05-19T10:32:58Z</time>
      </trkpt>
      <trkpt lat="44.09165" lon="3.00017">
        <ele>362</ele>
        <time>2018-05-19T10:33:00Z</time>
      </trkpt>
      <trkpt lat="44.09167" lon="3.00012">
        <ele>362</ele>
        <time>2018-05-19T10:33:02Z</time>
      </trkpt>
      <trkpt lat="44.09169" lon="3.00008">
        <ele>362</ele>
        <time>2018-05-19T10:33:04Z</time>
      </trkpt>
      <trkpt lat="44.09172" lon="3.00004">
        <ele>362</ele>
        <time>2018-05-19T10:33:06Z</time>
      </trkpt>
      <trkpt lat="44.09175" lon="3.00001">
        <ele>362</ele>
        <time>2018-05-19T10:33:08Z</time>
      </trkpt>
      <trkpt lat="44.09179" lon="2.99998">
        <ele>362</ele>
        <time>2018-05-19T10:33:10Z</time>
      </trkpt>
      <trkpt lat="44.09182" lon="2.99997">
        <ele>362</ele>
        <time>2018-05-19T10:33:12Z</time>
      </trkpt>
      <trkpt lat="44.09185" lon="2.99999">
        <ele>362</ele>
        <time>2018-05-19T10:33:15Z</time>
      </trkpt>
      <trkpt lat="44.09182" lon="2.99999">
        <ele>362</ele>
        <time>2018-05-19T10:33:21Z</time>
      </trkpt>
      <trkpt lat="44.09181" lon="2.99994">
        <ele>362</ele>
        <time>2018-05-19T10:33:25Z</time>
      </trkpt>
      <trkpt lat="44.09178" lon="2.99997">
        <ele>362</ele>
        <time>2018-05-19T10:34:46Z</time>
      </trkpt>
      <trkpt lat="44.09178" lon="3.00001">
        <ele>362</ele>
        <time>2018-05-19T10:34:47Z</time>
      </trkpt>
      <trkpt lat="44.09176" lon="3.00005">
        <ele>362</ele>
        <time>2018-05-19T10:34:48Z</time>
      </trkpt>
      <trkpt lat="44.09175" lon="3.00009">
        <ele>362</ele>
        <time>2018-05-19T10:34:49Z</time>
      </trkpt>
      <trkpt lat="44.09174" lon="3.00013">
        <ele>362</ele>
        <time>2018-05-19T10:34:50Z</time>
      </trkpt>
      <trkpt lat="44.09173" lon="3.00018">
        <ele>362</ele>
        <time>2018-05-19T10:34:51Z</time>
      </trkpt>
      <trkpt lat="44.09172" lon="3.00023">
        <ele>362</ele>
        <time>2018-05-19T10:34:52Z</time>
      </trkpt>
      <trkpt lat="44.09172" lon="3.00028">
        <ele>362</ele>
        <time>2018-05-19T10:34:53Z</time>
      </trkpt>
      <trkpt lat="44.09172" lon="3.00032">
        <ele>362</ele>
        <time>2018-05-19T10:34:54Z</time>
      </trkpt>
      <trkpt lat="44.09174" lon="3.00039">
        <ele>362</ele>
        <time>2018-05-19T10:34:56Z</time>
      </trkpt>
      <trkpt lat="44.09176" lon="3.00045">
        <ele>362</ele>
        <time>2018-05-19T10:34:58Z</time>
      </trkpt>
      <trkpt lat="44.0918" lon="3.00049">
        <ele>362</ele>
        <time>2018-05-19T10:35:00Z</time>
      </trkpt>
      <trkpt lat="44.09185" lon="3.00051">
        <ele>362</ele>
        <time>2018-05-19T10:35:02Z</time>
      </trkpt>
      <trkpt lat="44.0919" lon="3.00049">
        <ele>362</ele>
        <time>2018-05-19T10:35:04Z</time>
      </trkpt>
      <trkpt lat="44.09194" lon="3.00046">
        <ele>362</ele>
        <time>2018-05-19T10:35:06Z</time>
      </trkpt>
      <trkpt lat="44.09197" lon="3.00042">
        <ele>362</ele>
        <time>2018-05-19T10:35:08Z</time>
      </trkpt>
      <trkpt lat="44.09198" lon="3.00036">
        <ele>362</ele>
        <time>2018-05-19T10:35:10Z</time>
      </trkpt>
      <trkpt lat="44.09199" lon="3.00029">
        <ele>362</ele>
        <time>2018-05-19T10:35:12Z</time>
      </trkpt>
      <trkpt lat="44.09198" lon="3.00023">
        <ele>362</ele>
        <time>2018-05-19T10:35:14Z</time>
      </trkpt>
      <trkpt lat="44.09196" lon="3.00017">
        <ele>362</ele>
        <time>2018-05-19T10:35:16Z</time>
      </trkpt>
      <trkpt lat="44.09195" lon="3.00011">
        <ele>362</ele>
        <time>2018-05-19T10:35:18Z</time>
      </trkpt>
      <trkpt lat="44.09194" lon="3.00007">
        <ele>362</ele>
        <time>2018-05-19T10:35:20Z</time>
      </trkpt>
      <trkpt lat="44.09193" lon="3.00001">
        <ele>362</ele>
        <time>2018-05-19T10:35:22Z</time>
      </trkpt>
      <trkpt lat="44.09193" lon="2.99996">
        <ele>363.8</ele>
        <time>2018-05-19T10:35:24Z</time>
      </trkpt>
      <trkpt lat="44.09192" lon="2.99992">
        <ele>365.2</ele>
        <time>2018-05-19T10:35:26Z</time>
      </trkpt>
      <trkpt lat="44.0919" lon="2.99987">
        <ele>367</ele>
        <time>2018-05-19T10:35:28Z</time>
      </trkpt>
      <trkpt lat="44.09189" lon="2.99982">
        <ele>368.5</ele>
        <time>2018-05-19T10:35:30Z</time>
      </trkpt>
      <trkpt lat="44.09188" lon="2.99978">
        <ele>369.8</ele>
        <time>2018-05-19T10:35:32Z</time>
      </trkpt>
      <trkpt lat="44.09186" lon="2.99974">
        <ele>371.3</ele>
        <time>2018-05-19T10:35:38Z</time>
      </trkpt>
      <trkpt lat="44.09188" lon="2.9997">
        <ele>372.8</ele>
        <time>2018-05-19T10:35:40Z</time>
      </trkpt>
      <trkpt lat="44.09189" lon="2.99965">
        <ele>374.3</ele>
        <time>2018-05-19T10:35:42Z</time>
      </trkpt>
      <trkpt lat="44.09187" lon="2.9996">
        <ele>376</ele>
        <time>2018-05-19T10:35:44Z</time>
      </trkpt>
      <trkpt lat="44.09185" lon="2.99957">
        <ele>375.3</ele>
        <time>2018-05-19T10:35:46Z</time>
      </trkpt>
      <trkpt lat="44.09183" lon="2.99953">
        <ele>374.7</ele>
        <time>2018-05-19T10:35:48Z</time>
      </trkpt>
      <trkpt lat="44.09182" lon="2.99949">
        <ele>374.1</ele>
        <time>2018-05-19T10:35:50Z</time>
      </trkpt>
      <trkpt lat="44.09179" lon="2.99946">
        <ele>373.4</ele>
        <time>2018-05-19T10:35:52Z</time>
      </trkpt>
      <trkpt lat="44.09176" lon="2.99943">
        <ele>372.7</ele>
        <time>2018-05-19T10:35:54Z</time>
      </trkpt>
      <trkpt lat="44.09174" lon="2.99941">
        <ele>372.2</ele>
        <time>2018-05-19T10:35:56Z</time>
      </trkpt>
      <trkpt lat="44.09172" lon="2.99938">
        <ele>371.6</ele>
        <time>2018-05-19T10:35:58Z</time>
      </trkpt>
      <trkpt lat="44.0917" lon="2.99935">
        <ele>370.9</ele>
        <time>2018-05-19T10:36:01Z</time>
      </trkpt>
      <trkpt lat="44.09167" lon="2.99931">
        <ele>370.2</ele>
        <time>2018-05-19T10:36:03Z</time>
      </trkpt>
      <trkpt lat="44.09165" lon="2.99926">
        <ele>369.5</ele>
        <time>2018-05-19T10:36:05Z</time>
      </trkpt>
      <trkpt lat="44.09164" lon="2.99922">
        <ele>368.8</ele>
        <time>2018-05-19T10:36:07Z</time>
      </trkpt>
      <trkpt lat="44.09163" lon="2.99919">
        <ele>368.3</ele>
        <time>2018-05-19T10:36:09Z</time>
      </trkpt>
      <trkpt lat="44.0916" lon="2.99915">
        <ele>367.6</ele>
        <time>2018-05-19T10:36:12Z</time>
      </trkpt>
      <trkpt lat="44.09159" lon="2.99912">
        <ele>367</ele>
        <time>2018-05-19T10:36:14Z</time>
      </trkpt>
      <trkpt lat="44.09158" lon="2.99908">
        <ele>367</ele>
        <time>2018-05-19T10:36:16Z</time>
      </trkpt>
      <trkpt lat="44.09156" lon="2.99904">
        <ele>367</ele>
        <time>2018-05-19T10:36:18Z</time>
      </trkpt>
      <trkpt lat="44.09155" lon="2.99901">
        <ele>367</ele>
        <time>2018-05-19T10:36:20Z</time>
      </trkpt>
      <trkpt lat="44.09152" lon="2.999">
        <ele>367</ele>
        <time>2018-05-19T10:36:24Z</time>
      </trkpt>
      <trkpt lat="44.09154" lon="2.99895">
        <ele>367</ele>
        <time>2018-05-19T10:36:29Z</time>
      </trkpt>
      <trkpt lat="44.09156" lon="2.99893">
        <ele>367</ele>
        <time>2018-05-19T10:36:45Z</time>
      </trkpt>
      <trkpt lat="44.09159" lon="2.99892">
        <ele>367</ele>
        <time>2018-05-19T10:36:49Z</time>
      </trkpt>
      <trkpt lat="44.09163" lon="2.99891">
        <ele>367</ele>
        <time>2018-05-19T10:36:54Z</time>
      </trkpt>
      <trkpt lat="44.09158" lon="2.99889">
        <ele>367</ele>
        <time>2018-05-19T10:39:07Z</time>
      </trkpt>
      <trkpt lat="44.09156" lon="2.99894">
        <ele>367</ele>
        <time>2018-05-19T10:39:29Z</time>
      </trkpt>
      <trkpt lat="44.09156" lon="2.99896">
        <ele>367</ele>
        <time>2018-05-19T10:43:00Z</time>
      </trkpt>
      <trkpt lat="44.09158" lon="2.99899">
        <ele>367</ele>
        <time>2018-05-19T10:43:04Z</time>
      </trkpt>
      <trkpt lat="44.09161" lon="2.999">
        <ele>367</ele>
        <time>2018-05-19T10:43:08Z</time>
      </trkpt>
      <trkpt lat="44.09164" lon="2.99903">
        <ele>367</ele>
        <time>2018-05-19T10:43:11Z</time>
      </trkpt>
      <trkpt lat="44.09167" lon="2.99906">
        <ele>368.1</ele>
        <time>2018-05-19T10:43:13Z</time>
      </trkpt>
      <trkpt lat="44.09171" lon="2.99909">
        <ele>369.7</ele>
        <time>2018-05-19T10:43:15Z</time>
      </trkpt>
      <trkpt lat="44.09176" lon="2.99912">
        <ele>371.3</ele>
        <time>2018-05-19T10:43:17Z</time>
      </trkpt>
      <trkpt lat="44.0918" lon="2.99916">
        <ele>372.9</ele>
        <time>2018-05-19T10:43:19Z</time>
      </trkpt>
      <trkpt lat="44.09184" lon="2.99919">
        <ele>374.5</ele>
        <time>2018-05-19T10:43:21Z</time>
      </trkpt>
      <trkpt lat="44.09188" lon="2.9992">
        <ele>376.1</ele>
        <time>2018-05-19T10:43:23Z</time>
      </trkpt>
      <trkpt lat="44.09191" lon="2.99923">
        <ele>377</ele>
        <time>2018-05-19T10:43:26Z</time>
      </trkpt>
      <trkpt lat="44.09195" lon="2.99924">
        <ele>378</ele>
        <time>2018-05-19T10:43:29Z</time>
      </trkpt>
      <trkpt lat="44.09198" lon="2.99924">
        <ele>378.6</ele>
        <time>2018-05-19T10:43:31Z</time>
      </trkpt>
      <trkpt lat="44.092" lon="2.99928">
        <ele>379.3</ele>
        <time>2018-05-19T10:43:35Z</time>
      </trkpt>
      <trkpt lat="44.09203" lon="2.9993">
        <ele>380</ele>
        <time>2018-05-19T10:43:38Z</time>
      </trkpt>
      <trkpt lat="44.09206" lon="2.9993">
        <ele>380.6</ele>
        <time>2018-05-19T10:43:40Z</time>
      </trkpt>
      <trkpt lat="44.09209" lon="2.99931">
        <ele>381.1</ele>
        <time>2018-05-19T10:43:42Z</time>
      </trkpt>
      <trkpt lat="44.09213" lon="2.99931">
        <ele>381.8</ele>
        <time>2018-05-19T10:43:44Z</time>
      </trkpt>
      <trkpt lat="44.09217" lon="2.99931">
        <ele>382.5</ele>
        <time>2018-05-19T10:43:46Z</time>
      </trkpt>
      <trkpt lat="44.09221" lon="2.99932">
        <ele>383.2</ele>
        <time>2018-05-19T10:43:48Z</time>
      </trkpt>
      <trkpt lat="44.09226" lon="2.99933">
        <ele>384</ele>
        <time>2018-05-19T10:43:50Z</time>
      </trkpt>
      <trkpt lat="44.0923" lon="2.99935">
        <ele>384.8</ele>
        <time>2018-05-19T10:43:52Z</time>
      </trkpt>
      <trkpt lat="44.09234" lon="2.99936">
        <ele>385.4</ele>
        <time>2018-05-19T10:43:54Z</time>
      </trkpt>
      <trkpt lat="44.09237" lon="2.99937">
        <ele>386</ele>
        <time>2018-05-19T10:43:56Z</time>
      </trkpt>
      <trkpt lat="44.0924" lon="2.99938">
        <ele>386.4</ele>
        <time>2018-05-19T10:43:58Z</time>
      </trkpt>
      <trkpt lat="44.09243" lon="2.99939">
        <ele>387</ele>
        <time>2018-05-19T10:44:00Z</time>
      </trkpt>
      <trkpt lat="44.09247" lon="2.99941">
        <ele>387.6</ele>
        <time>2018-05-19T10:44:02Z</time>
      </trkpt>
      <trkpt lat="44.0925" lon="2.99942">
        <ele>388.3</ele>
        <time>2018-05-19T10:44:04Z</time>
      </trkpt>
      <trkpt lat="44.09254" lon="2.99943">
        <ele>388.9</ele>
        <time>2018-05-19T10:44:06Z</time>
      </trkpt>
      <trkpt lat="44.09258" lon="2.99945">
        <ele>389.6</ele>
        <time>2018-05-19T10:44:08Z</time>
      </trkpt>
      <trkpt lat="44.09261" lon="2.99946">
        <ele>390.2</ele>
        <time>2018-05-19T10:44:10Z</time>
      </trkpt>
      <trkpt lat="44.09265" lon="2.99947">
        <ele>390.9</ele>
        <time>2018-05-19T10:44:12Z</time>
      </trkpt>
      <trkpt lat="44.09268" lon="2.99948">
        <ele>391.6</ele>
        <time>2018-05-19T10:44:14Z</time>
      </trkpt>
      <trkpt lat="44.09271" lon="2.99951">
        <ele>392.2</ele>
        <time>2018-05-19T10:44:16Z</time>
      </trkpt>
      <trkpt lat="44.09274" lon="2.99954">
        <ele>392.5</ele>
        <time>2018-05-19T10:44:18Z</time>
      </trkpt>
      <trkpt lat="44.09278" lon="2.99955">
        <ele>392.8</ele>
        <time>2018-05-19T10:44:20Z</time>
      </trkpt>
      <trkpt lat="44.09281" lon="2.99957">
        <ele>393.2</ele>
        <time>2018-05-19T10:44:22Z</time>
      </trkpt>
      <trkpt lat="44.09285" lon="2.99959">
        <ele>393.6</ele>
        <time>2018-05-19T10:44:24Z</time>
      </trkpt>
      <trkpt lat="44.09287" lon="2.99962">
        <ele>393.9</ele>
        <time>2018-05-19T10:44:26Z</time>
      </trkpt>
      <trkpt lat="44.0929" lon="2.99966">
        <ele>394.4</ele>
        <time>2018-05-19T10:44:28Z</time>
      </trkpt>
      <trkpt lat="44.09293" lon="2.9997">
        <ele>395</ele>
        <time>2018-05-19T10:44:30Z</time>
      </trkpt>
      <trkpt lat="44.09295" lon="2.99973">
        <ele>395.5</ele>
        <time>2018-05-19T10:44:32Z</time>
      </trkpt>
      <trkpt lat="44.09298" lon="2.99977">
        <ele>396.1</ele>
        <time>2018-05-19T10:44:34Z</time>
      </trkpt>
      <trkpt lat="44.09301" lon="2.99981">
        <ele>396.7</ele>
        <time>2018-05-19T10:44:36Z</time>
      </trkpt>
      <trkpt lat="44.09304" lon="2.99986">
        <ele>397.3</ele>
        <time>2018-05-19T10:44:38Z</time>
      </trkpt>
      <trkpt lat="44.09307" lon="2.9999">
        <ele>398</ele>
        <time>2018-05-19T10:44:40Z</time>
      </trkpt>
      <trkpt lat="44.09309" lon="2.99995">
        <ele>398.6</ele>
        <time>2018-05-19T10:44:42Z</time>
      </trkpt>
      <trkpt lat="44.09312" lon="2.99999">
        <ele>397.4</ele>
        <time>2018-05-19T10:44:44Z</time>
      </trkpt>
      <trkpt lat="44.09314" lon="3.00005">
        <ele>394.4</ele>
        <time>2018-05-19T10:44:46Z</time>
      </trkpt>
      <trkpt lat="44.09316" lon="3.00009">
        <ele>392</ele>
        <time>2018-05-19T10:44:48Z</time>
      </trkpt>
      <trkpt lat="44.09317" lon="3.00013">
        <ele>389.8</ele>
        <time>2018-05-19T10:44:50Z</time>
      </trkpt>
      <trkpt lat="44.09318" lon="3.00018">
        <ele>387.6</ele>
        <time>2018-05-19T10:44:52Z</time>
      </trkpt>
      <trkpt lat="44.0932" lon="3.00023">
        <ele>384.9</ele>
        <time>2018-05-19T10:44:54Z</time>
      </trkpt>
      <trkpt lat="44.09322" lon="3.00029">
        <ele>381.7</ele>
        <time>2018-05-19T10:44:56Z</time>
      </trkpt>
      <trkpt lat="44.09323" lon="3.00034">
        <ele>382.7</ele>
        <time>2018-05-19T10:44:58Z</time>
      </trkpt>
      <trkpt lat="44.09324" lon="3.00038">
        <ele>384</ele>
        <time>2018-05-19T10:45:00Z</time>
      </trkpt>
      <trkpt lat="44.09326" lon="3.00042">
        <ele>385.4</ele>
        <time>2018-05-19T10:45:03Z</time>
      </trkpt>
      <trkpt lat="44.09329" lon="3.00043">
        <ele>386.4</ele>
        <time>2018-05-19T10:45:05Z</time>
      </trkpt>
      <trkpt lat="44.09333" lon="3.0004">
        <ele>387.8</ele>
        <time>2018-05-19T10:45:08Z</time>
      </trkpt>
      <trkpt lat="44.09333" lon="3.00034">
        <ele>389.1</ele>
        <time>2018-05-19T10:45:10Z</time>
      </trkpt>
      <trkpt lat="44.09332" lon="3.00029">
        <ele>390.4</ele>
        <time>2018-05-19T10:45:12Z</time>
      </trkpt>
      <trkpt lat="44.09331" lon="3.00024">
        <ele>391.5</ele>
        <time>2018-05-19T10:45:14Z</time>
      </trkpt>
      <trkpt lat="44.09331" lon="3.00018">
        <ele>392.6</ele>
        <time>2018-05-19T10:45:16Z</time>
      </trkpt>
      <trkpt lat="44.09331" lon="3.00013">
        <ele>393.7</ele>
        <time>2018-05-19T10:45:18Z</time>
      </trkpt>
      <trkpt lat="44.0933" lon="3.00008">
        <ele>394.8</ele>
        <time>2018-05-19T10:45:20Z</time>
      </trkpt>
      <trkpt lat="44.0933" lon="3.00002">
        <ele>395.9</ele>
        <time>2018-05-19T10:45:22Z</time>
      </trkpt>
      <trkpt lat="44.0933" lon="2.99996">
        <ele>397</ele>
        <time>2018-05-19T10:45:24Z</time>
      </trkpt>
      <trkpt lat="44.0933" lon="2.99989">
        <ele>398.2</ele>
        <time>2018-05-19T10:45:26Z</time>
      </trkpt>
      <trkpt lat="44.0933" lon="2.99983">
        <ele>399.3</ele>
        <time>2018-05-19T10:45:28Z</time>
      </trkpt>
      <trkpt lat="44.09329" lon="2.99978">
        <ele>400.2</ele>
        <time>2018-05-19T10:45:30Z</time>
      </trkpt>
      <trkpt lat="44.09328" lon="2.99972">
        <ele>401.2</ele>
        <time>2018-05-19T10:45:32Z</time>
      </trkpt>
      <trkpt lat="44.09328" lon="2.99966">
        <ele>402.3</ele>
        <time>2018-05-19T10:45:34Z</time>
      </trkpt>
      <trkpt lat="44.09327" lon="2.99961">
        <ele>403.1</ele>
        <time>2018-05-19T10:45:36Z</time>
      </trkpt>
      <trkpt lat="44.09326" lon="2.99955">
        <ele>404</ele>
        <time>2018-05-19T10:45:38Z</time>
      </trkpt>
      <trkpt lat="44.09325" lon="2.9995">
        <ele>404.9</ele>
        <time>2018-05-19T10:45:40Z</time>
      </trkpt>
      <trkpt lat="44.09324" lon="2.99945">
        <ele>405.8</ele>
        <time>2018-05-19T10:45:42Z</time>
      </trkpt>
      <trkpt lat="44.09322" lon="2.9994">
        <ele>406.6</ele>
        <time>2018-05-19T10:45:44Z</time>
      </trkpt>
      <trkpt lat="44.0932" lon="2.99936">
        <ele>407.4</ele>
        <time>2018-05-19T10:45:46Z</time>
      </trkpt>
      <trkpt lat="44.09318" lon="2.99931">
        <ele>408.4</ele>
        <time>2018-05-19T10:45:48Z</time>
      </trkpt>
      <trkpt lat="44.09316" lon="2.99926">
        <ele>409.4</ele>
        <time>2018-05-19T10:45:50Z</time>
      </trkpt>
      <trkpt lat="44.09314" lon="2.99922">
        <ele>410.3</ele>
        <time>2018-05-19T10:45:52Z</time>
      </trkpt>
      <trkpt lat="44.09311" lon="2.99917">
        <ele>411.2</ele>
        <time>2018-05-19T10:45:54Z</time>
      </trkpt>
      <trkpt lat="44.09308" lon="2.99913">
        <ele>412.1</ele>
        <time>2018-05-19T10:45:56Z</time>
      </trkpt>
      <trkpt lat="44.09306" lon="2.99908">
        <ele>413.1</ele>
        <time>2018-05-19T10:45:58Z</time>
      </trkpt>
      <trkpt lat="44.09303" lon="2.99904">
        <ele>414.1</ele>
        <time>2018-05-19T10:46:00Z</time>
      </trkpt>
      <trkpt lat="44.093" lon="2.99899">
        <ele>415</ele>
        <time>2018-05-19T10:46:02Z</time>
      </trkpt>
      <trkpt lat="44.09297" lon="2.99896">
        <ele>415.8</ele>
        <time>2018-05-19T10:46:04Z</time>
      </trkpt>
      <trkpt lat="44.09294" lon="2.99893">
        <ele>416</ele>
        <time>2018-05-19T10:46:07Z</time>
      </trkpt>
      <trkpt lat="44.0929" lon="2.99889">
        <ele>416</ele>
        <time>2018-05-19T10:46:09Z</time>
      </trkpt>
      <trkpt lat="44.09287" lon="2.99886">
        <ele>416</ele>
        <time>2018-05-19T10:46:11Z</time>
      </trkpt>
      <trkpt lat="44.09284" lon="2.99883">
        <ele>416</ele>
        <time>2018-05-19T10:46:13Z</time>
      </trkpt>
      <trkpt lat="44.09281" lon="2.99879">
        <ele>416</ele>
        <time>2018-05-19T10:46:15Z</time>
      </trkpt>
      <trkpt lat="44.09278" lon="2.99875">
        <ele>416</ele>
        <time>2018-05-19T10:46:17Z</time>
      </trkpt>
      <trkpt lat="44.09275" lon="2.99871">
        <ele>416</ele>
        <time>2018-05-19T10:46:19Z</time>
      </trkpt>
      <trkpt lat="44.09272" lon="2.99868">
        <ele>416</ele>
        <time>2018-05-19T10:46:21Z</time>
      </trkpt>
      <trkpt lat="44.09269" lon="2.99863">
        <ele>416</ele>
        <time>2018-05-19T10:46:23Z</time>
      </trkpt>
      <trkpt lat="44.09267" lon="2.99859">
        <ele>416</ele>
        <time>2018-05-19T10:46:25Z</time>
      </trkpt>
      <trkpt lat="44.09264" lon="2.99855">
        <ele>416</ele>
        <time>2018-05-19T10:46:27Z</time>
      </trkpt>
      <trkpt lat="44.09261" lon="2.99851">
        <ele>416</ele>
        <time>2018-05-19T10:46:29Z</time>
      </trkpt>
      <trkpt lat="44.09259" lon="2.99848">
        <ele>415.9</ele>
        <time>2018-05-19T10:46:31Z</time>
      </trkpt>
      <trkpt lat="44.09256" lon="2.99845">
        <ele>415.9</ele>
        <time>2018-05-19T10:46:33Z</time>
      </trkpt>
      <trkpt lat="44.09253" lon="2.99841">
        <ele>415.9</ele>
        <time>2018-05-19T10:46:35Z</time>
      </trkpt>
      <trkpt lat="44.0925" lon="2.99836">
        <ele>415.9</ele>
        <time>2018-05-19T10:46:37Z</time>
      </trkpt>
      <trkpt lat="44.09247" lon="2.99831">
        <ele>415.9</ele>
        <time>2018-05-19T10:46:39Z</time>
      </trkpt>
      <trkpt lat="44.09244" lon="2.99826">
        <ele>415.9</ele>
        <time>2018-05-19T10:46:41Z</time>
      </trkpt>
      <trkpt lat="44.09242" lon="2.99822">
        <ele>415.9</ele>
        <time>2018-05-19T10:46:43Z</time>
      </trkpt>
      <trkpt lat="44.09239" lon="2.99817">
        <ele>415.9</ele>
        <time>2018-05-19T10:46:45Z</time>
      </trkpt>
      <trkpt lat="44.09236" lon="2.99811">
        <ele>415.9</ele>
        <time>2018-05-19T10:46:47Z</time>
      </trkpt>
      <trkpt lat="44.09233" lon="2.99805">
        <ele>415.9</ele>
        <time>2018-05-19T10:46:49Z</time>
      </trkpt>
      <trkpt lat="44.09231" lon="2.99802">
        <ele>415.9</ele>
        <time>2018-05-19T10:46:50Z</time>
      </trkpt>
      <trkpt lat="44.09229" lon="2.99798">
        <ele>415.9</ele>
        <time>2018-05-19T10:46:51Z</time>
      </trkpt>
      <trkpt lat="44.09228" lon="2.99794">
        <ele>415.9</ele>
        <time>2018-05-19T10:46:52Z</time>
      </trkpt>
      <trkpt lat="44.09226" lon="2.9979">
        <ele>415.9</ele>
        <time>2018-05-19T10:46:53Z</time>
      </trkpt>
      <trkpt lat="44.09224" lon="2.99787">
        <ele>415.9</ele>
        <time>2018-05-19T10:46:54Z</time>
      </trkpt>
      <trkpt lat="44.09221" lon="2.99783">
        <ele>415.9</ele>
        <time>2018-05-19T10:46:55Z</time>
      </trkpt>
      <trkpt lat="44.09219" lon="2.99779">
        <ele>415.9</ele>
        <time>2018-05-19T10:46:56Z</time>
      </trkpt>
      <trkpt lat="44.09217" lon="2.99776">
        <ele>415.9</ele>
        <time>2018-05-19T10:46:57Z</time>
      </trkpt>
      <trkpt lat="44.09216" lon="2.99773">
        <ele>415.9</ele>
        <time>2018-05-19T10:46:58Z</time>
      </trkpt>
      <trkpt lat="44.09214" lon="2.99769">
        <ele>415.9</ele>
        <time>2018-05-19T10:46:59Z</time>
      </trkpt>
      <trkpt lat="44.09212" lon="2.99765">
        <ele>416</ele>
        <time>2018-05-19T10:47:00Z</time>
      </trkpt>
      <trkpt lat="44.09211" lon="2.99761">
        <ele>416</ele>
        <time>2018-05-19T10:47:01Z</time>
      </trkpt>
      <trkpt lat="44.09209" lon="2.99757">
        <ele>416.1</ele>
        <time>2018-05-19T10:47:02Z</time>
      </trkpt>
      <trkpt lat="44.09208" lon="2.99754">
        <ele>416.1</ele>
        <time>2018-05-19T10:47:03Z</time>
      </trkpt>
      <trkpt lat="44.09207" lon="2.9975">
        <ele>416.2</ele>
        <time>2018-05-19T10:47:04Z</time>
      </trkpt>
      <trkpt lat="44.09205" lon="2.99747">
        <ele>416.3</ele>
        <time>2018-05-19T10:47:05Z</time>
      </trkpt>
      <trkpt lat="44.09204" lon="2.99743">
        <ele>416.4</ele>
        <time>2018-05-19T10:47:06Z</time>
      </trkpt>
      <trkpt lat="44.09203" lon="2.99739">
        <ele>416.5</ele>
        <time>2018-05-19T10:47:07Z</time>
      </trkpt>
      <trkpt lat="44.09202" lon="2.99734">
        <ele>416.7</ele>
        <time>2018-05-19T10:47:08Z</time>
      </trkpt>
      <trkpt lat="44.09201" lon="2.99729">
        <ele>416.8</ele>
        <time>2018-05-19T10:47:09Z</time>
      </trkpt>
      <trkpt lat="44.09201" lon="2.99723">
        <ele>417</ele>
        <time>2018-05-19T10:47:10Z</time>
      </trkpt>
      <trkpt lat="44.092" lon="2.99718">
        <ele>417.2</ele>
        <time>2018-05-19T10:47:11Z</time>
      </trkpt>
      <trkpt lat="44.092" lon="2.99713">
        <ele>417.4</ele>
        <time>2018-05-19T10:47:12Z</time>
      </trkpt>
      <trkpt lat="44.092" lon="2.99707">
        <ele>417.7</ele>
        <time>2018-05-19T10:47:13Z</time>
      </trkpt>
      <trkpt lat="44.09201" lon="2.99702">
        <ele>417.9</ele>
        <time>2018-05-19T10:47:14Z</time>
      </trkpt>
      <trkpt lat="44.09202" lon="2.99697">
        <ele>418.1</ele>
        <time>2018-05-19T10:47:15Z</time>
      </trkpt>
      <trkpt lat="44.09203" lon="2.99692">
        <ele>418.4</ele>
        <time>2018-05-19T10:47:16Z</time>
      </trkpt>
      <trkpt lat="44.09203" lon="2.99688">
        <ele>418.6</ele>
        <time>2018-05-19T10:47:17Z</time>
      </trkpt>
      <trkpt lat="44.09204" lon="2.99683">
        <ele>418.8</ele>
        <time>2018-05-19T10:47:18Z</time>
      </trkpt>
      <trkpt lat="44.09204" lon="2.99679">
        <ele>419</ele>
        <time>2018-05-19T10:47:19Z</time>
      </trkpt>
      <trkpt lat="44.09205" lon="2.99674">
        <ele>419.2</ele>
        <time>2018-05-19T10:47:20Z</time>
      </trkpt>
      <trkpt lat="44.09205" lon="2.9967">
        <ele>419.4</ele>
        <time>2018-05-19T10:47:21Z</time>
      </trkpt>
      <trkpt lat="44.09206" lon="2.99667">
        <ele>419.5</ele>
        <time>2018-05-19T10:47:22Z</time>
      </trkpt>
      <trkpt lat="44.09206" lon="2.9966">
        <ele>419.8</ele>
        <time>2018-05-19T10:47:24Z</time>
      </trkpt>
      <trkpt lat="44.09207" lon="2.99653">
        <ele>420.1</ele>
        <time>2018-05-19T10:47:26Z</time>
      </trkpt>
      <trkpt lat="44.09208" lon="2.99647">
        <ele>420.3</ele>
        <time>2018-05-19T10:47:28Z</time>
      </trkpt>
      <trkpt lat="44.09208" lon="2.99641">
        <ele>420.6</ele>
        <time>2018-05-19T10:47:30Z</time>
      </trkpt>
      <trkpt lat="44.09209" lon="2.99636">
        <ele>420.7</ele>
        <time>2018-05-19T10:47:32Z</time>
      </trkpt>
      <trkpt lat="44.09212" lon="2.99631">
        <ele>420.9</ele>
        <time>2018-05-19T10:47:34Z</time>
      </trkpt>
      <trkpt lat="44.09216" lon="2.99628">
        <ele>421.3</ele>
        <time>2018-05-19T10:47:36Z</time>
      </trkpt>
      <trkpt lat="44.0922" lon="2.99627">
        <ele>421.8</ele>
        <time>2018-05-19T10:47:38Z</time>
      </trkpt>
      <trkpt lat="44.09224" lon="2.99627">
        <ele>422.4</ele>
        <time>2018-05-19T10:47:40Z</time>
      </trkpt>
      <trkpt lat="44.09229" lon="2.99627">
        <ele>422.9</ele>
        <time>2018-05-19T10:47:42Z</time>
      </trkpt>
      <trkpt lat="44.09233" lon="2.99629">
        <ele>423.1</ele>
        <time>2018-05-19T10:47:44Z</time>
      </trkpt>
      <trkpt lat="44.09237" lon="2.9963">
        <ele>423.5</ele>
        <time>2018-05-19T10:47:46Z</time>
      </trkpt>
      <trkpt lat="44.09242" lon="2.99632">
        <ele>423.9</ele>
        <time>2018-05-19T10:47:48Z</time>
      </trkpt>
      <trkpt lat="44.09246" lon="2.99633">
        <ele>424.3</ele>
        <time>2018-05-19T10:47:50Z</time>
      </trkpt>
      <trkpt lat="44.09251" lon="2.99635">
        <ele>424.7</ele>
        <time>2018-05-19T10:47:52Z</time>
      </trkpt>
      <trkpt lat="44.09256" lon="2.99636">
        <ele>424.9</ele>
        <time>2018-05-19T10:47:54Z</time>
      </trkpt>
      <trkpt lat="44.0926" lon="2.99637">
        <ele>425.2</ele>
        <time>2018-05-19T10:47:56Z</time>
      </trkpt>
      <trkpt lat="44.09265" lon="2.99639">
        <ele>425.6</ele>
        <time>2018-05-19T10:47:58Z</time>
      </trkpt>
      <trkpt lat="44.09271" lon="2.9964">
        <ele>426.1</ele>
        <time>2018-05-19T10:48:00Z</time>
      </trkpt>
      <trkpt lat="44.09275" lon="2.99641">
        <ele>426.3</ele>
        <time>2018-05-19T10:48:02Z</time>
      </trkpt>
      <trkpt lat="44.0928" lon="2.99641">
        <ele>426.7</ele>
        <time>2018-05-19T10:48:04Z</time>
      </trkpt>
      <trkpt lat="44.09285" lon="2.99642">
        <ele>427.2</ele>
        <time>2018-05-19T10:48:06Z</time>
      </trkpt>
      <trkpt lat="44.0929" lon="2.99642">
        <ele>427.8</ele>
        <time>2018-05-19T10:48:08Z</time>
      </trkpt>
      <trkpt lat="44.09293" lon="2.99642">
        <ele>428.1</ele>
        <time>2018-05-19T10:48:09Z</time>
      </trkpt>
      <trkpt lat="44.09298" lon="2.99642">
        <ele>428.6</ele>
        <time>2018-05-19T10:48:11Z</time>
      </trkpt>
      <trkpt lat="44.09301" lon="2.99642">
        <ele>428.9</ele>
        <time>2018-05-19T10:48:12Z</time>
      </trkpt>
      <trkpt lat="44.09304" lon="2.99642">
        <ele>429.2</ele>
        <time>2018-05-19T10:48:13Z</time>
      </trkpt>
      <trkpt lat="44.09307" lon="2.99643">
        <ele>429.5</ele>
        <time>2018-05-19T10:48:14Z</time>
      </trkpt>
      <trkpt lat="44.0931" lon="2.99642">
        <ele>429.7</ele>
        <time>2018-05-19T10:48:15Z</time>
      </trkpt>
      <trkpt lat="44.09313" lon="2.99642">
        <ele>430.2</ele>
        <time>2018-05-19T10:48:16Z</time>
      </trkpt>
      <trkpt lat="44.09316" lon="2.99642">
        <ele>430.7</ele>
        <time>2018-05-19T10:48:17Z</time>
      </trkpt>
      <trkpt lat="44.09319" lon="2.99641">
        <ele>431.3</ele>
        <time>2018-05-19T10:48:18Z</time>
      </trkpt>
      <trkpt lat="44.09322" lon="2.99641">
        <ele>431.9</ele>
        <time>2018-05-19T10:48:19Z</time>
      </trkpt>
      <trkpt lat="44.09326" lon="2.99641">
        <ele>432.4</ele>
        <time>2018-05-19T10:48:20Z</time>
      </trkpt>
      <trkpt lat="44.09329" lon="2.99641">
        <ele>432.8</ele>
        <time>2018-05-19T10:48:21Z</time>
      </trkpt>
      <trkpt lat="44.09332" lon="2.99641">
        <ele>433.2</ele>
        <time>2018-05-19T10:48:22Z</time>
      </trkpt>
      <trkpt lat="44.09335" lon="2.9964">
        <ele>433.7</ele>
        <time>2018-05-19T10:48:23Z</time>
      </trkpt>
      <trkpt lat="44.09338" lon="2.9964">
        <ele>434.1</ele>
        <time>2018-05-19T10:48:24Z</time>
      </trkpt>
      <trkpt lat="44.09341" lon="2.99639">
        <ele>434.5</ele>
        <time>2018-05-19T10:48:25Z</time>
      </trkpt>
      <trkpt lat="44.09344" lon="2.99639">
        <ele>435</ele>
        <time>2018-05-19T10:48:26Z</time>
      </trkpt>
      <trkpt lat="44.09348" lon="2.99639">
        <ele>435.4</ele>
        <time>2018-05-19T10:48:27Z</time>
      </trkpt>
      <trkpt lat="44.09351" lon="2.99638">
        <ele>436</ele>
        <time>2018-05-19T10:48:28Z</time>
      </trkpt>
      <trkpt lat="44.09354" lon="2.99638">
        <ele>436.6</ele>
        <time>2018-05-19T10:48:29Z</time>
      </trkpt>
      <trkpt lat="44.09357" lon="2.99637">
        <ele>437</ele>
        <time>2018-05-19T10:48:30Z</time>
      </trkpt>
      <trkpt lat="44.0936" lon="2.99637">
        <ele>437.1</ele>
        <time>2018-05-19T10:48:31Z</time>
      </trkpt>
      <trkpt lat="44.09363" lon="2.99637">
        <ele>437.2</ele>
        <time>2018-05-19T10:48:32Z</time>
      </trkpt>
      <trkpt lat="44.09366" lon="2.99637">
        <ele>437.4</ele>
        <time>2018-05-19T10:48:33Z</time>
      </trkpt>
      <trkpt lat="44.09369" lon="2.99637">
        <ele>437.7</ele>
        <time>2018-05-19T10:48:34Z</time>
      </trkpt>
      <trkpt lat="44.09372" lon="2.99636">
        <ele>438</ele>
        <time>2018-05-19T10:48:35Z</time>
      </trkpt>
      <trkpt lat="44.09375" lon="2.99636">
        <ele>438.3</ele>
        <time>2018-05-19T10:48:36Z</time>
      </trkpt>
      <trkpt lat="44.09378" lon="2.99636">
        <ele>438.6</ele>
        <time>2018-05-19T10:48:37Z</time>
      </trkpt>
      <trkpt lat="44.09381" lon="2.99637">
        <ele>438.9</ele>
        <time>2018-05-19T10:48:38Z</time>
      </trkpt>
      <trkpt lat="44.09384" lon="2.99637">
        <ele>439.1</ele>
        <time>2018-05-19T10:48:39Z</time>
      </trkpt>
      <trkpt lat="44.09387" lon="2.99637">
        <ele>439.4</ele>
        <time>2018-05-19T10:48:40Z</time>
      </trkpt>
      <trkpt lat="44.0939" lon="2.99637">
        <ele>439.6</ele>
        <time>2018-05-19T10:48:41Z</time>
      </trkpt>
      <trkpt lat="44.09396" lon="2.99638">
        <ele>440.1</ele>
        <time>2018-05-19T10:48:43Z</time>
      </trkpt>
      <trkpt lat="44.09401" lon="2.99638">
        <ele>440.6</ele>
        <time>2018-05-19T10:48:45Z</time>
      </trkpt>
      <trkpt lat="44.09406" lon="2.99639">
        <ele>441.2</ele>
        <time>2018-05-19T10:48:47Z</time>
      </trkpt>
      <trkpt lat="44.09411" lon="2.99639">
        <ele>441.7</ele>
        <time>2018-05-19T10:48:49Z</time>
      </trkpt>
      <trkpt lat="44.09414" lon="2.9964">
        <ele>442</ele>
        <time>2018-05-19T10:48:50Z</time>
      </trkpt>
      <trkpt lat="44.09419" lon="2.99641">
        <ele>442.5</ele>
        <time>2018-05-19T10:48:52Z</time>
      </trkpt>
      <trkpt lat="44.09424" lon="2.99642">
        <ele>443</ele>
        <time>2018-05-19T10:48:54Z</time>
      </trkpt>
      <trkpt lat="44.0943" lon="2.99642">
        <ele>443.5</ele>
        <time>2018-05-19T10:48:56Z</time>
      </trkpt>
      <trkpt lat="44.09433" lon="2.99642">
        <ele>443.7</ele>
        <time>2018-05-19T10:48:57Z</time>
      </trkpt>
      <trkpt lat="44.09436" lon="2.99643">
        <ele>444</ele>
        <time>2018-05-19T10:48:58Z</time>
      </trkpt>
      <trkpt lat="44.09439" lon="2.99643">
        <ele>444.3</ele>
        <time>2018-05-19T10:48:59Z</time>
      </trkpt>
      <trkpt lat="44.09442" lon="2.99642">
        <ele>444.5</ele>
        <time>2018-05-19T10:49:00Z</time>
      </trkpt>
      <trkpt lat="44.09445" lon="2.99642">
        <ele>444.8</ele>
        <time>2018-05-19T10:49:01Z</time>
      </trkpt>
      <trkpt lat="44.09448" lon="2.99642">
        <ele>445</ele>
        <time>2018-05-19T10:49:02Z</time>
      </trkpt>
      <trkpt lat="44.09451" lon="2.99641">
        <ele>445.2</ele>
        <time>2018-05-19T10:49:03Z</time>
      </trkpt>
      <trkpt lat="44.09454" lon="2.99641">
        <ele>445.4</ele>
        <time>2018-05-19T10:49:04Z</time>
      </trkpt>
      <trkpt lat="44.09457" lon="2.99641">
        <ele>445.6</ele>
        <time>2018-05-19T10:49:05Z</time>
      </trkpt>
      <trkpt lat="44.0946" lon="2.9964">
        <ele>445.8</ele>
        <time>2018-05-19T10:49:06Z</time>
      </trkpt>
      <trkpt lat="44.09462" lon="2.9964">
        <ele>446</ele>
        <time>2018-05-19T10:49:07Z</time>
      </trkpt>
      <trkpt lat="44.09466" lon="2.99639">
        <ele>446</ele>
        <time>2018-05-19T10:49:08Z</time>
      </trkpt>
      <trkpt lat="44.09469" lon="2.99639">
        <ele>446</ele>
        <time>2018-05-19T10:49:09Z</time>
      </trkpt>
      <trkpt lat="44.09472" lon="2.99639">
        <ele>446</ele>
        <time>2018-05-19T10:49:10Z</time>
      </trkpt>
      <trkpt lat="44.09474" lon="2.99638">
        <ele>446.1</ele>
        <time>2018-05-19T10:49:11Z</time>
      </trkpt>
      <trkpt lat="44.09477" lon="2.99638">
        <ele>446.1</ele>
        <time>2018-05-19T10:49:12Z</time>
      </trkpt>
      <trkpt lat="44.0948" lon="2.99637">
        <ele>446.2</ele>
        <time>2018-05-19T10:49:13Z</time>
      </trkpt>
      <trkpt lat="44.09483" lon="2.99636">
        <ele>446.2</ele>
        <time>2018-05-19T10:49:14Z</time>
      </trkpt>
      <trkpt lat="44.09486" lon="2.99635">
        <ele>446.3</ele>
        <time>2018-05-19T10:49:15Z</time>
      </trkpt>
      <trkpt lat="44.09489" lon="2.99635">
        <ele>446.3</ele>
        <time>2018-05-19T10:49:16Z</time>
      </trkpt>
      <trkpt lat="44.09494" lon="2.99633">
        <ele>446.4</ele>
        <time>2018-05-19T10:49:18Z</time>
      </trkpt>
      <trkpt lat="44.09499" lon="2.99633">
        <ele>446.5</ele>
        <time>2018-05-19T10:49:20Z</time>
      </trkpt>
      <trkpt lat="44.09503" lon="2.99632">
        <ele>446.5</ele>
        <time>2018-05-19T10:49:22Z</time>
      </trkpt>
      <trkpt lat="44.09508" lon="2.99631">
        <ele>446.6</ele>
        <time>2018-05-19T10:49:24Z</time>
      </trkpt>
      <trkpt lat="44.09511" lon="2.9963">
        <ele>446.6</ele>
        <time>2018-05-19T10:49:25Z</time>
      </trkpt>
      <trkpt lat="44.09514" lon="2.99629">
        <ele>446.7</ele>
        <time>2018-05-19T10:49:26Z</time>
      </trkpt>
      <trkpt lat="44.09516" lon="2.99628">
        <ele>446.7</ele>
        <time>2018-05-19T10:49:27Z</time>
      </trkpt>
      <trkpt lat="44.09521" lon="2.99626">
        <ele>446.8</ele>
        <time>2018-05-19T10:49:29Z</time>
      </trkpt>
      <trkpt lat="44.09526" lon="2.99623">
        <ele>447</ele>
        <time>2018-05-19T10:49:31Z</time>
      </trkpt>
      <trkpt lat="44.09531" lon="2.99622">
        <ele>447.2</ele>
        <time>2018-05-19T10:49:33Z</time>
      </trkpt>
      <trkpt lat="44.09536" lon="2.99621">
        <ele>447.4</ele>
        <time>2018-05-19T10:49:35Z</time>
      </trkpt>
      <trkpt lat="44.0954" lon="2.99621">
        <ele>447.6</ele>
        <time>2018-05-19T10:49:37Z</time>
      </trkpt>
      <trkpt lat="44.09545" lon="2.9962">
        <ele>447.7</ele>
        <time>2018-05-19T10:49:39Z</time>
      </trkpt>
      <trkpt lat="44.0955" lon="2.9962">
        <ele>447.9</ele>
        <time>2018-05-19T10:49:41Z</time>
      </trkpt>
      <trkpt lat="44.09554" lon="2.99621">
        <ele>448.1</ele>
        <time>2018-05-19T10:49:43Z</time>
      </trkpt>
      <trkpt lat="44.09558" lon="2.99621">
        <ele>448.3</ele>
        <time>2018-05-19T10:49:45Z</time>
      </trkpt>
      <trkpt lat="44.09562" lon="2.99622">
        <ele>448.4</ele>
        <time>2018-05-19T10:49:47Z</time>
      </trkpt>
      <trkpt lat="44.09566" lon="2.99622">
        <ele>448.6</ele>
        <time>2018-05-19T10:49:49Z</time>
      </trkpt>
      <trkpt lat="44.09571" lon="2.99623">
        <ele>448.8</ele>
        <time>2018-05-19T10:49:51Z</time>
      </trkpt>
      <trkpt lat="44.09575" lon="2.99624">
        <ele>449</ele>
        <time>2018-05-19T10:49:53Z</time>
      </trkpt>
      <trkpt lat="44.0958" lon="2.99626">
        <ele>449.1</ele>
        <time>2018-05-19T10:49:55Z</time>
      </trkpt>
      <trkpt lat="44.09585" lon="2.99629">
        <ele>449.1</ele>
        <time>2018-05-19T10:49:57Z</time>
      </trkpt>
      <trkpt lat="44.09589" lon="2.99632">
        <ele>449.2</ele>
        <time>2018-05-19T10:49:59Z</time>
      </trkpt>
      <trkpt lat="44.09594" lon="2.99636">
        <ele>449.2</ele>
        <time>2018-05-19T10:50:01Z</time>
      </trkpt>
      <trkpt lat="44.09599" lon="2.99639">
        <ele>449.3</ele>
        <time>2018-05-19T10:50:03Z</time>
      </trkpt>
      <trkpt lat="44.09601" lon="2.99641">
        <ele>449.3</ele>
        <time>2018-05-19T10:50:04Z</time>
      </trkpt>
      <trkpt lat="44.09604" lon="2.99643">
        <ele>449.4</ele>
        <time>2018-05-19T10:50:05Z</time>
      </trkpt>
      <trkpt lat="44.09607" lon="2.99645">
        <ele>449.4</ele>
        <time>2018-05-19T10:50:06Z</time>
      </trkpt>
      <trkpt lat="44.0961" lon="2.99647">
        <ele>449.4</ele>
        <time>2018-05-19T10:50:07Z</time>
      </trkpt>
      <trkpt lat="44.09613" lon="2.99649">
        <ele>449.5</ele>
        <time>2018-05-19T10:50:08Z</time>
      </trkpt>
      <trkpt lat="44.09617" lon="2.99651">
        <ele>449.5</ele>
        <time>2018-05-19T10:50:09Z</time>
      </trkpt>
      <trkpt lat="44.0962" lon="2.99653">
        <ele>449.5</ele>
        <time>2018-05-19T10:50:10Z</time>
      </trkpt>
      <trkpt lat="44.09623" lon="2.99654">
        <ele>449.6</ele>
        <time>2018-05-19T10:50:11Z</time>
      </trkpt>
      <trkpt lat="44.09626" lon="2.99655">
        <ele>449.6</ele>
        <time>2018-05-19T10:50:12Z</time>
      </trkpt>
      <trkpt lat="44.09629" lon="2.99656">
        <ele>449.6</ele>
        <time>2018-05-19T10:50:13Z</time>
      </trkpt>
      <trkpt lat="44.09632" lon="2.99656">
        <ele>449.7</ele>
        <time>2018-05-19T10:50:14Z</time>
      </trkpt>
      <trkpt lat="44.09635" lon="2.99656">
        <ele>449.7</ele>
        <time>2018-05-19T10:50:15Z</time>
      </trkpt>
      <trkpt lat="44.09638" lon="2.99656">
        <ele>449.8</ele>
        <time>2018-05-19T10:50:16Z</time>
      </trkpt>
      <trkpt lat="44.09641" lon="2.99656">
        <ele>449.8</ele>
        <time>2018-05-19T10:50:17Z</time>
      </trkpt>
      <trkpt lat="44.09644" lon="2.99656">
        <ele>449.9</ele>
        <time>2018-05-19T10:50:18Z</time>
      </trkpt>
      <trkpt lat="44.09647" lon="2.99656">
        <ele>450</ele>
        <time>2018-05-19T10:50:19Z</time>
      </trkpt>
      <trkpt lat="44.0965" lon="2.99656">
        <ele>450.3</ele>
        <time>2018-05-19T10:50:20Z</time>
      </trkpt>
      <trkpt lat="44.09653" lon="2.99657">
        <ele>450.5</ele>
        <time>2018-05-19T10:50:21Z</time>
      </trkpt>
      <trkpt lat="44.09656" lon="2.99658">
        <ele>450.8</ele>
        <time>2018-05-19T10:50:22Z</time>
      </trkpt>
      <trkpt lat="44.09659" lon="2.99658">
        <ele>451</ele>
        <time>2018-05-19T10:50:23Z</time>
      </trkpt>
      <trkpt lat="44.09662" lon="2.99658">
        <ele>451.3</ele>
        <time>2018-05-19T10:50:24Z</time>
      </trkpt>
      <trkpt lat="44.09666" lon="2.99658">
        <ele>451.6</ele>
        <time>2018-05-19T10:50:25Z</time>
      </trkpt>
      <trkpt lat="44.09669" lon="2.99658">
        <ele>451.9</ele>
        <time>2018-05-19T10:50:26Z</time>
      </trkpt>
      <trkpt lat="44.09673" lon="2.99658">
        <ele>452</ele>
        <time>2018-05-19T10:50:27Z</time>
      </trkpt>
      <trkpt lat="44.09677" lon="2.99658">
        <ele>452</ele>
        <time>2018-05-19T10:50:28Z</time>
      </trkpt>
      <trkpt lat="44.0968" lon="2.99658">
        <ele>452</ele>
        <time>2018-05-19T10:50:29Z</time>
      </trkpt>
      <trkpt lat="44.09683" lon="2.99659">
        <ele>452</ele>
        <time>2018-05-19T10:50:30Z</time>
      </trkpt>
      <trkpt lat="44.09687" lon="2.9966">
        <ele>452.1</ele>
        <time>2018-05-19T10:50:31Z</time>
      </trkpt>
      <trkpt lat="44.0969" lon="2.9966">
        <ele>452.2</ele>
        <time>2018-05-19T10:50:32Z</time>
      </trkpt>
      <trkpt lat="44.09693" lon="2.99661">
        <ele>452.1</ele>
        <time>2018-05-19T10:50:33Z</time>
      </trkpt>
      <trkpt lat="44.09696" lon="2.99661">
        <ele>452</ele>
        <time>2018-05-19T10:50:34Z</time>
      </trkpt>
      <trkpt lat="44.09701" lon="2.99662">
        <ele>452.1</ele>
        <time>2018-05-19T10:50:36Z</time>
      </trkpt>
      <trkpt lat="44.09706" lon="2.99662">
        <ele>452.2</ele>
        <time>2018-05-19T10:50:38Z</time>
      </trkpt>
      <trkpt lat="44.09711" lon="2.99663">
        <ele>452.1</ele>
        <time>2018-05-19T10:50:40Z</time>
      </trkpt>
      <trkpt lat="44.09716" lon="2.99663">
        <ele>452.1</ele>
        <time>2018-05-19T10:50:42Z</time>
      </trkpt>
      <trkpt lat="44.09719" lon="2.99663">
        <ele>452.1</ele>
        <time>2018-05-19T10:50:43Z</time>
      </trkpt>
      <trkpt lat="44.09724" lon="2.99664">
        <ele>452.1</ele>
        <time>2018-05-19T10:50:45Z</time>
      </trkpt>
      <trkpt lat="44.09729" lon="2.99664">
        <ele>452</ele>
        <time>2018-05-19T10:50:47Z</time>
      </trkpt>
      <trkpt lat="44.09734" lon="2.99665">
        <ele>452</ele>
        <time>2018-05-19T10:50:49Z</time>
      </trkpt>
      <trkpt lat="44.09739" lon="2.99666">
        <ele>452</ele>
        <time>2018-05-19T10:50:51Z</time>
      </trkpt>
      <trkpt lat="44.09743" lon="2.99667">
        <ele>451.9</ele>
        <time>2018-05-19T10:50:53Z</time>
      </trkpt>
      <trkpt lat="44.09748" lon="2.99668">
        <ele>451.8</ele>
        <time>2018-05-19T10:50:55Z</time>
      </trkpt>
      <trkpt lat="44.09752" lon="2.99668">
        <ele>451.8</ele>
        <time>2018-05-19T10:50:57Z</time>
      </trkpt>
      <trkpt lat="44.09757" lon="2.99669">
        <ele>451.7</ele>
        <time>2018-05-19T10:50:59Z</time>
      </trkpt>
      <trkpt lat="44.09761" lon="2.9967">
        <ele>451.6</ele>
        <time>2018-05-19T10:51:01Z</time>
      </trkpt>
      <trkpt lat="44.09765" lon="2.99671">
        <ele>451.6</ele>
        <time>2018-05-19T10:51:03Z</time>
      </trkpt>
      <trkpt lat="44.09769" lon="2.99673">
        <ele>451.5</ele>
        <time>2018-05-19T10:51:05Z</time>
      </trkpt>
      <trkpt lat="44.09773" lon="2.99674">
        <ele>451.4</ele>
        <time>2018-05-19T10:51:07Z</time>
      </trkpt>
      <trkpt lat="44.09777" lon="2.99675">
        <ele>451.4</ele>
        <time>2018-05-19T10:51:09Z</time>
      </trkpt>
      <trkpt lat="44.09782" lon="2.99675">
        <ele>451.3</ele>
        <time>2018-05-19T10:51:11Z</time>
      </trkpt>
      <trkpt lat="44.09786" lon="2.99676">
        <ele>451.2</ele>
        <time>2018-05-19T10:51:13Z</time>
      </trkpt>
      <trkpt lat="44.0979" lon="2.99677">
        <ele>451.1</ele>
        <time>2018-05-19T10:51:15Z</time>
      </trkpt>
      <trkpt lat="44.09795" lon="2.99678">
        <ele>450.9</ele>
        <time>2018-05-19T10:51:17Z</time>
      </trkpt>
      <trkpt lat="44.09799" lon="2.99678">
        <ele>450.8</ele>
        <time>2018-05-19T10:51:19Z</time>
      </trkpt>
      <trkpt lat="44.09803" lon="2.99679">
        <ele>450.7</ele>
        <time>2018-05-19T10:51:21Z</time>
      </trkpt>
      <trkpt lat="44.09807" lon="2.99679">
        <ele>450.6</ele>
        <time>2018-05-19T10:51:23Z</time>
      </trkpt>
      <trkpt lat="44.09811" lon="2.9968">
        <ele>450.4</ele>
        <time>2018-05-19T10:51:25Z</time>
      </trkpt>
      <trkpt lat="44.09816" lon="2.9968">
        <ele>450.3</ele>
        <time>2018-05-19T10:51:27Z</time>
      </trkpt>
      <trkpt lat="44.09819" lon="2.9968">
        <ele>450.2</ele>
        <time>2018-05-19T10:51:29Z</time>
      </trkpt>
      <trkpt lat="44.09824" lon="2.9968">
        <ele>450</ele>
        <time>2018-05-19T10:51:31Z</time>
      </trkpt>
      <trkpt lat="44.09828" lon="2.9968">
        <ele>450.3</ele>
        <time>2018-05-19T10:51:33Z</time>
      </trkpt>
      <trkpt lat="44.09832" lon="2.9968">
        <ele>450.7</ele>
        <time>2018-05-19T10:51:35Z</time>
      </trkpt>
      <trkpt lat="44.09836" lon="2.9968">
        <ele>451</ele>
        <time>2018-05-19T10:51:37Z</time>
      </trkpt>
      <trkpt lat="44.0984" lon="2.99679">
        <ele>451.4</ele>
        <time>2018-05-19T10:51:39Z</time>
      </trkpt>
      <trkpt lat="44.09844" lon="2.99678">
        <ele>451.8</ele>
        <time>2018-05-19T10:51:41Z</time>
      </trkpt>
      <trkpt lat="44.09848" lon="2.99676">
        <ele>452.3</ele>
        <time>2018-05-19T10:51:43Z</time>
      </trkpt>
      <trkpt lat="44.09852" lon="2.99675">
        <ele>452.7</ele>
        <time>2018-05-19T10:51:45Z</time>
      </trkpt>
      <trkpt lat="44.09856" lon="2.99672">
        <ele>453</ele>
        <time>2018-05-19T10:51:47Z</time>
      </trkpt>
      <trkpt lat="44.0986" lon="2.9967">
        <ele>453.2</ele>
        <time>2018-05-19T10:51:49Z</time>
      </trkpt>
      <trkpt lat="44.09865" lon="2.99668">
        <ele>453.5</ele>
        <time>2018-05-19T10:51:51Z</time>
      </trkpt>
      <trkpt lat="44.09869" lon="2.99665">
        <ele>453.7</ele>
        <time>2018-05-19T10:51:53Z</time>
      </trkpt>
      <trkpt lat="44.09874" lon="2.99662">
        <ele>454</ele>
        <time>2018-05-19T10:51:55Z</time>
      </trkpt>
      <trkpt lat="44.09879" lon="2.9966">
        <ele>454.2</ele>
        <time>2018-05-19T10:51:57Z</time>
      </trkpt>
      <trkpt lat="44.09883" lon="2.99657">
        <ele>454.4</ele>
        <time>2018-05-19T10:51:59Z</time>
      </trkpt>
      <trkpt lat="44.09887" lon="2.99653">
        <ele>454.7</ele>
        <time>2018-05-19T10:52:01Z</time>
      </trkpt>
      <trkpt lat="44.09892" lon="2.9965">
        <ele>454.9</ele>
        <time>2018-05-19T10:52:03Z</time>
      </trkpt>
      <trkpt lat="44.09897" lon="2.99648">
        <ele>455.2</ele>
        <time>2018-05-19T10:52:05Z</time>
      </trkpt>
      <trkpt lat="44.09901" lon="2.99646">
        <ele>455.4</ele>
        <time>2018-05-19T10:52:07Z</time>
      </trkpt>
      <trkpt lat="44.09906" lon="2.99643">
        <ele>455.6</ele>
        <time>2018-05-19T10:52:09Z</time>
      </trkpt>
      <trkpt lat="44.09911" lon="2.99642">
        <ele>455.8</ele>
        <time>2018-05-19T10:52:11Z</time>
      </trkpt>
      <trkpt lat="44.09916" lon="2.99641">
        <ele>456.1</ele>
        <time>2018-05-19T10:52:13Z</time>
      </trkpt>
      <trkpt lat="44.09921" lon="2.9964">
        <ele>456.3</ele>
        <time>2018-05-19T10:52:15Z</time>
      </trkpt>
      <trkpt lat="44.09926" lon="2.99639">
        <ele>456.5</ele>
        <time>2018-05-19T10:52:17Z</time>
      </trkpt>
      <trkpt lat="44.09931" lon="2.99638">
        <ele>456.7</ele>
        <time>2018-05-19T10:52:19Z</time>
      </trkpt>
      <trkpt lat="44.09936" lon="2.99637">
        <ele>456.9</ele>
        <time>2018-05-19T10:52:21Z</time>
      </trkpt>
      <trkpt lat="44.0994" lon="2.99636">
        <ele>457.1</ele>
        <time>2018-05-19T10:52:23Z</time>
      </trkpt>
      <trkpt lat="44.09945" lon="2.99635">
        <ele>457.3</ele>
        <time>2018-05-19T10:52:25Z</time>
      </trkpt>
      <trkpt lat="44.09948" lon="2.99635">
        <ele>457.4</ele>
        <time>2018-05-19T10:52:26Z</time>
      </trkpt>
      <trkpt lat="44.09953" lon="2.99635">
        <ele>457.6</ele>
        <time>2018-05-19T10:52:28Z</time>
      </trkpt>
      <trkpt lat="44.09958" lon="2.99634">
        <ele>457.9</ele>
        <time>2018-05-19T10:52:30Z</time>
      </trkpt>
      <trkpt lat="44.09963" lon="2.99633">
        <ele>458.1</ele>
        <time>2018-05-19T10:52:32Z</time>
      </trkpt>
      <trkpt lat="44.09968" lon="2.99631">
        <ele>458.3</ele>
        <time>2018-05-19T10:52:34Z</time>
      </trkpt>
      <trkpt lat="44.09971" lon="2.9963">
        <ele>458.4</ele>
        <time>2018-05-19T10:52:35Z</time>
      </trkpt>
      <trkpt lat="44.09975" lon="2.99629">
        <ele>458.6</ele>
        <time>2018-05-19T10:52:36Z</time>
      </trkpt>
      <trkpt lat="44.09978" lon="2.99628">
        <ele>458.7</ele>
        <time>2018-05-19T10:52:37Z</time>
      </trkpt>
      <trkpt lat="44.09981" lon="2.99627">
        <ele>458.9</ele>
        <time>2018-05-19T10:52:38Z</time>
      </trkpt>
      <trkpt lat="44.09984" lon="2.99626">
        <ele>459</ele>
        <time>2018-05-19T10:52:39Z</time>
      </trkpt>
      <trkpt lat="44.09987" lon="2.99625">
        <ele>459.1</ele>
        <time>2018-05-19T10:52:40Z</time>
      </trkpt>
      <trkpt lat="44.0999" lon="2.99624">
        <ele>459.3</ele>
        <time>2018-05-19T10:52:41Z</time>
      </trkpt>
      <trkpt lat="44.09993" lon="2.99622">
        <ele>459.4</ele>
        <time>2018-05-19T10:52:42Z</time>
      </trkpt>
      <trkpt lat="44.09996" lon="2.99621">
        <ele>459.6</ele>
        <time>2018-05-19T10:52:43Z</time>
      </trkpt>
      <trkpt lat="44.09999" lon="2.9962">
        <ele>459.7</ele>
        <time>2018-05-19T10:52:44Z</time>
      </trkpt>
      <trkpt lat="44.10001" lon="2.99618">
        <ele>459.9</ele>
        <time>2018-05-19T10:52:45Z</time>
      </trkpt>
      <trkpt lat="44.10004" lon="2.99617">
        <ele>460</ele>
        <time>2018-05-19T10:52:46Z</time>
      </trkpt>
      <trkpt lat="44.10007" lon="2.99616">
        <ele>460.1</ele>
        <time>2018-05-19T10:52:47Z</time>
      </trkpt>
      <trkpt lat="44.1001" lon="2.99614">
        <ele>460.3</ele>
        <time>2018-05-19T10:52:48Z</time>
      </trkpt>
      <trkpt lat="44.10013" lon="2.99613">
        <ele>460.4</ele>
        <time>2018-05-19T10:52:49Z</time>
      </trkpt>
      <trkpt lat="44.10018" lon="2.99611">
        <ele>460.6</ele>
        <time>2018-05-19T10:52:51Z</time>
      </trkpt>
      <trkpt lat="44.1002" lon="2.9961">
        <ele>460.8</ele>
        <time>2018-05-19T10:52:52Z</time>
      </trkpt>
      <trkpt lat="44.10023" lon="2.99609">
        <ele>461</ele>
        <time>2018-05-19T10:52:53Z</time>
      </trkpt>
      <trkpt lat="44.10026" lon="2.99608">
        <ele>461.3</ele>
        <time>2018-05-19T10:52:54Z</time>
      </trkpt>
      <trkpt lat="44.10031" lon="2.99608">
        <ele>461.8</ele>
        <time>2018-05-19T10:52:56Z</time>
      </trkpt>
      <trkpt lat="44.10035" lon="2.99606">
        <ele>462.2</ele>
        <time>2018-05-19T10:52:58Z</time>
      </trkpt>
      <trkpt lat="44.10039" lon="2.99604">
        <ele>462.7</ele>
        <time>2018-05-19T10:53:00Z</time>
      </trkpt>
      <trkpt lat="44.10042" lon="2.99603">
        <ele>463.1</ele>
        <time>2018-05-19T10:53:01Z</time>
      </trkpt>
      <trkpt lat="44.10045" lon="2.99601">
        <ele>463.4</ele>
        <time>2018-05-19T10:53:02Z</time>
      </trkpt>
      <trkpt lat="44.10048" lon="2.99599">
        <ele>463.9</ele>
        <time>2018-05-19T10:53:04Z</time>
      </trkpt>
      <trkpt lat="44.10051" lon="2.99597">
        <ele>464.2</ele>
        <time>2018-05-19T10:53:05Z</time>
      </trkpt>
      <trkpt lat="44.10055" lon="2.99594">
        <ele>464.7</ele>
        <time>2018-05-19T10:53:07Z</time>
      </trkpt>
      <trkpt lat="44.10058" lon="2.9959">
        <ele>465</ele>
        <time>2018-05-19T10:53:09Z</time>
      </trkpt>
      <trkpt lat="44.1006" lon="2.99588">
        <ele>464.9</ele>
        <time>2018-05-19T10:53:12Z</time>
      </trkpt>
      <trkpt lat="44.10064" lon="2.99585">
        <ele>464.7</ele>
        <time>2018-05-19T10:53:28Z</time>
      </trkpt>
      <trkpt lat="44.10065" lon="2.99579">
        <ele>464.5</ele>
        <time>2018-05-19T10:53:30Z</time>
      </trkpt>
      <trkpt lat="44.10067" lon="2.99573">
        <ele>464.2</ele>
        <time>2018-05-19T10:53:32Z</time>
      </trkpt>
      <trkpt lat="44.10069" lon="2.9957">
        <ele>464.1</ele>
        <time>2018-05-19T10:53:33Z</time>
      </trkpt>
      <trkpt lat="44.10071" lon="2.99567">
        <ele>463.9</ele>
        <time>2018-05-19T10:53:34Z</time>
      </trkpt>
      <trkpt lat="44.10073" lon="2.99563">
        <ele>463.7</ele>
        <time>2018-05-19T10:53:35Z</time>
      </trkpt>
      <trkpt lat="44.10075" lon="2.99559">
        <ele>463.6</ele>
        <time>2018-05-19T10:53:36Z</time>
      </trkpt>
      <trkpt lat="44.10077" lon="2.99555">
        <ele>463.5</ele>
        <time>2018-05-19T10:53:37Z</time>
      </trkpt>
      <trkpt lat="44.1008" lon="2.9955">
        <ele>463.5</ele>
        <time>2018-05-19T10:53:38Z</time>
      </trkpt>
      <trkpt lat="44.10082" lon="2.99545">
        <ele>463.4</ele>
        <time>2018-05-19T10:53:39Z</time>
      </trkpt>
      <trkpt lat="44.10085" lon="2.9954">
        <ele>463.3</ele>
        <time>2018-05-19T10:53:40Z</time>
      </trkpt>
      <trkpt lat="44.10087" lon="2.99536">
        <ele>463.2</ele>
        <time>2018-05-19T10:53:41Z</time>
      </trkpt>
      <trkpt lat="44.1009" lon="2.99532">
        <ele>463.1</ele>
        <time>2018-05-19T10:53:42Z</time>
      </trkpt>
      <trkpt lat="44.10093" lon="2.9953">
        <ele>463</ele>
        <time>2018-05-19T10:53:43Z</time>
      </trkpt>
      <trkpt lat="44.10097" lon="2.99525">
        <ele>463</ele>
        <time>2018-05-19T10:53:44Z</time>
      </trkpt>
      <trkpt lat="44.101" lon="2.99521">
        <ele>462.9</ele>
        <time>2018-05-19T10:53:45Z</time>
      </trkpt>
      <trkpt lat="44.10104" lon="2.99516">
        <ele>462.9</ele>
        <time>2018-05-19T10:53:46Z</time>
      </trkpt>
      <trkpt lat="44.10108" lon="2.99511">
        <ele>462.8</ele>
        <time>2018-05-19T10:53:47Z</time>
      </trkpt>
      <trkpt lat="44.10113" lon="2.99507">
        <ele>462.8</ele>
        <time>2018-05-19T10:53:48Z</time>
      </trkpt>
      <trkpt lat="44.10117" lon="2.99504">
        <ele>462.7</ele>
        <time>2018-05-19T10:53:49Z</time>
      </trkpt>
      <trkpt lat="44.10121" lon="2.995">
        <ele>462.7</ele>
        <time>2018-05-19T10:53:50Z</time>
      </trkpt>
      <trkpt lat="44.10125" lon="2.99497">
        <ele>462.6</ele>
        <time>2018-05-19T10:53:51Z</time>
      </trkpt>
      <trkpt lat="44.10128" lon="2.99494">
        <ele>462.6</ele>
        <time>2018-05-19T10:53:52Z</time>
      </trkpt>
      <trkpt lat="44.10133" lon="2.99491">
        <ele>462.5</ele>
        <time>2018-05-19T10:53:53Z</time>
      </trkpt>
      <trkpt lat="44.10136" lon="2.99489">
        <ele>462.5</ele>
        <time>2018-05-19T10:53:54Z</time>
      </trkpt>
      <trkpt lat="44.1014" lon="2.99486">
        <ele>462.5</ele>
        <time>2018-05-19T10:53:55Z</time>
      </trkpt>
      <trkpt lat="44.10144" lon="2.99483">
        <ele>462.4</ele>
        <time>2018-05-19T10:53:56Z</time>
      </trkpt>
      <trkpt lat="44.10148" lon="2.9948">
        <ele>462.4</ele>
        <time>2018-05-19T10:53:57Z</time>
      </trkpt>
      <trkpt lat="44.10153" lon="2.99478">
        <ele>462.4</ele>
        <time>2018-05-19T10:53:58Z</time>
      </trkpt>
      <trkpt lat="44.10157" lon="2.99475">
        <ele>462.4</ele>
        <time>2018-05-19T10:53:59Z</time>
      </trkpt>
      <trkpt lat="44.10161" lon="2.99473">
        <ele>462.4</ele>
        <time>2018-05-19T10:54:00Z</time>
      </trkpt>
      <trkpt lat="44.10165" lon="2.99471">
        <ele>462.4</ele>
        <time>2018-05-19T10:54:01Z</time>
      </trkpt>
      <trkpt lat="44.10169" lon="2.99468">
        <ele>462.4</ele>
        <time>2018-05-19T10:54:02Z</time>
      </trkpt>
      <trkpt lat="44.10174" lon="2.99465">
        <ele>462.4</ele>
        <time>2018-05-19T10:54:03Z</time>
      </trkpt>
      <trkpt lat="44.10179" lon="2.99463">
        <ele>462.4</ele>
        <time>2018-05-19T10:54:04Z</time>
      </trkpt>
      <trkpt lat="44.10184" lon="2.99461">
        <ele>462.4</ele>
        <time>2018-05-19T10:54:05Z</time>
      </trkpt>
      <trkpt lat="44.10188" lon="2.99458">
        <ele>462.4</ele>
        <time>2018-05-19T10:54:06Z</time>
      </trkpt>
      <trkpt lat="44.10193" lon="2.99456">
        <ele>462.4</ele>
        <time>2018-05-19T10:54:07Z</time>
      </trkpt>
      <trkpt lat="44.10197" lon="2.99454">
        <ele>462.5</ele>
        <time>2018-05-19T10:54:08Z</time>
      </trkpt>
      <trkpt lat="44.10202" lon="2.99452">
        <ele>462.6</ele>
        <time>2018-05-19T10:54:09Z</time>
      </trkpt>
      <trkpt lat="44.10206" lon="2.9945">
        <ele>462.7</ele>
        <time>2018-05-19T10:54:10Z</time>
      </trkpt>
      <trkpt lat="44.1021" lon="2.99448">
        <ele>462.8</ele>
        <time>2018-05-19T10:54:11Z</time>
      </trkpt>
      <trkpt lat="44.10214" lon="2.99446">
        <ele>462.9</ele>
        <time>2018-05-19T10:54:12Z</time>
      </trkpt>
      <trkpt lat="44.10219" lon="2.99445">
        <ele>463</ele>
        <time>2018-05-19T10:54:13Z</time>
      </trkpt>
      <trkpt lat="44.10223" lon="2.99444">
        <ele>463.1</ele>
        <time>2018-05-19T10:54:14Z</time>
      </trkpt>
      <trkpt lat="44.10227" lon="2.99443">
        <ele>463.3</ele>
        <time>2018-05-19T10:54:15Z</time>
      </trkpt>
      <trkpt lat="44.10231" lon="2.99442">
        <ele>463.4</ele>
        <time>2018-05-19T10:54:16Z</time>
      </trkpt>
      <trkpt lat="44.10235" lon="2.9944">
        <ele>463.5</ele>
        <time>2018-05-19T10:54:17Z</time>
      </trkpt>
      <trkpt lat="44.10239" lon="2.9944">
        <ele>463.7</ele>
        <time>2018-05-19T10:54:18Z</time>
      </trkpt>
      <trkpt lat="44.10247" lon="2.99439">
        <ele>464.3</ele>
        <time>2018-05-19T10:54:20Z</time>
      </trkpt>
      <trkpt lat="44.10251" lon="2.99438">
        <ele>464.6</ele>
        <time>2018-05-19T10:54:21Z</time>
      </trkpt>
      <trkpt lat="44.10255" lon="2.99436">
        <ele>465</ele>
        <time>2018-05-19T10:54:22Z</time>
      </trkpt>
      <trkpt lat="44.1026" lon="2.99433">
        <ele>465.3</ele>
        <time>2018-05-19T10:54:23Z</time>
      </trkpt>
      <trkpt lat="44.10263" lon="2.99433">
        <ele>465.6</ele>
        <time>2018-05-19T10:54:24Z</time>
      </trkpt>
      <trkpt lat="44.10268" lon="2.99433">
        <ele>466</ele>
        <time>2018-05-19T10:54:25Z</time>
      </trkpt>
      <trkpt lat="44.10272" lon="2.99433">
        <ele>466.3</ele>
        <time>2018-05-19T10:54:26Z</time>
      </trkpt>
      <trkpt lat="44.10276" lon="2.99432">
        <ele>466.6</ele>
        <time>2018-05-19T10:54:27Z</time>
      </trkpt>
      <trkpt lat="44.10279" lon="2.99431">
        <ele>467.1</ele>
        <time>2018-05-19T10:54:28Z</time>
      </trkpt>
      <trkpt lat="44.10283" lon="2.9943">
        <ele>467.7</ele>
        <time>2018-05-19T10:54:29Z</time>
      </trkpt>
      <trkpt lat="44.10286" lon="2.9943">
        <ele>468.4</ele>
        <time>2018-05-19T10:54:30Z</time>
      </trkpt>
      <trkpt lat="44.1029" lon="2.99429">
        <ele>469</ele>
        <time>2018-05-19T10:54:31Z</time>
      </trkpt>
      <trkpt lat="44.10294" lon="2.99429">
        <ele>469.4</ele>
        <time>2018-05-19T10:54:32Z</time>
      </trkpt>
      <trkpt lat="44.10297" lon="2.99429">
        <ele>469.7</ele>
        <time>2018-05-19T10:54:33Z</time>
      </trkpt>
      <trkpt lat="44.10301" lon="2.99428">
        <ele>470</ele>
        <time>2018-05-19T10:54:34Z</time>
      </trkpt>
      <trkpt lat="44.10304" lon="2.99428">
        <ele>470.2</ele>
        <time>2018-05-19T10:54:35Z</time>
      </trkpt>
      <trkpt lat="44.10308" lon="2.99427">
        <ele>470.5</ele>
        <time>2018-05-19T10:54:36Z</time>
      </trkpt>
      <trkpt lat="44.10312" lon="2.99426">
        <ele>470.8</ele>
        <time>2018-05-19T10:54:37Z</time>
      </trkpt>
      <trkpt lat="44.10315" lon="2.99425">
        <ele>471.1</ele>
        <time>2018-05-19T10:54:38Z</time>
      </trkpt>
      <trkpt lat="44.1032" lon="2.99424">
        <ele>471.4</ele>
        <time>2018-05-19T10:54:39Z</time>
      </trkpt>
      <trkpt lat="44.10324" lon="2.99423">
        <ele>471.7</ele>
        <time>2018-05-19T10:54:40Z</time>
      </trkpt>
      <trkpt lat="44.10328" lon="2.99422">
        <ele>472.1</ele>
        <time>2018-05-19T10:54:41Z</time>
      </trkpt>
      <trkpt lat="44.10332" lon="2.99421">
        <ele>472.4</ele>
        <time>2018-05-19T10:54:42Z</time>
      </trkpt>
      <trkpt lat="44.10337" lon="2.9942">
        <ele>472.7</ele>
        <time>2018-05-19T10:54:43Z</time>
      </trkpt>
      <trkpt lat="44.10341" lon="2.99419">
        <ele>472.9</ele>
        <time>2018-05-19T10:54:44Z</time>
      </trkpt>
      <trkpt lat="44.10345" lon="2.99418">
        <ele>473.1</ele>
        <time>2018-05-19T10:54:45Z</time>
      </trkpt>
      <trkpt lat="44.10349" lon="2.99416">
        <ele>473.2</ele>
        <time>2018-05-19T10:54:46Z</time>
      </trkpt>
      <trkpt lat="44.10354" lon="2.99415">
        <ele>473.4</ele>
        <time>2018-05-19T10:54:47Z</time>
      </trkpt>
      <trkpt lat="44.10358" lon="2.99414">
        <ele>473.6</ele>
        <time>2018-05-19T10:54:48Z</time>
      </trkpt>
      <trkpt lat="44.10363" lon="2.99413">
        <ele>473.7</ele>
        <time>2018-05-19T10:54:49Z</time>
      </trkpt>
      <trkpt lat="44.10367" lon="2.99412">
        <ele>473.8</ele>
        <time>2018-05-19T10:54:50Z</time>
      </trkpt>
      <trkpt lat="44.10372" lon="2.9941">
        <ele>473.8</ele>
        <time>2018-05-19T10:54:51Z</time>
      </trkpt>
      <trkpt lat="44.10376" lon="2.99408">
        <ele>473.8</ele>
        <time>2018-05-19T10:54:52Z</time>
      </trkpt>
      <trkpt lat="44.10381" lon="2.99407">
        <ele>473.8</ele>
        <time>2018-05-19T10:54:53Z</time>
      </trkpt>
      <trkpt lat="44.10385" lon="2.99406">
        <ele>473.8</ele>
        <time>2018-05-19T10:54:54Z</time>
      </trkpt>
      <trkpt lat="44.10389" lon="2.99406">
        <ele>473.8</ele>
        <time>2018-05-19T10:54:55Z</time>
      </trkpt>
      <trkpt lat="44.10394" lon="2.99404">
        <ele>473.8</ele>
        <time>2018-05-19T10:54:56Z</time>
      </trkpt>
      <trkpt lat="44.10398" lon="2.99403">
        <ele>473.8</ele>
        <time>2018-05-19T10:54:57Z</time>
      </trkpt>
      <trkpt lat="44.10402" lon="2.99402">
        <ele>473.8</ele>
        <time>2018-05-19T10:54:58Z</time>
      </trkpt>
      <trkpt lat="44.10406" lon="2.99402">
        <ele>473.8</ele>
        <time>2018-05-19T10:54:59Z</time>
      </trkpt>
      <trkpt lat="44.1041" lon="2.99401">
        <ele>473.8</ele>
        <time>2018-05-19T10:55:00Z</time>
      </trkpt>
      <trkpt lat="44.10415" lon="2.994">
        <ele>473.7</ele>
        <time>2018-05-19T10:55:01Z</time>
      </trkpt>
      <trkpt lat="44.10419" lon="2.99399">
        <ele>473.6</ele>
        <time>2018-05-19T10:55:02Z</time>
      </trkpt>
      <trkpt lat="44.10424" lon="2.99398">
        <ele>473.6</ele>
        <time>2018-05-19T10:55:03Z</time>
      </trkpt>
      <trkpt lat="44.10428" lon="2.99397">
        <ele>473.5</ele>
        <time>2018-05-19T10:55:04Z</time>
      </trkpt>
      <trkpt lat="44.10432" lon="2.99396">
        <ele>473.4</ele>
        <time>2018-05-19T10:55:05Z</time>
      </trkpt>
      <trkpt lat="44.10436" lon="2.99395">
        <ele>473.4</ele>
        <time>2018-05-19T10:55:06Z</time>
      </trkpt>
      <trkpt lat="44.10439" lon="2.99395">
        <ele>473.3</ele>
        <time>2018-05-19T10:55:07Z</time>
      </trkpt>
      <trkpt lat="44.10443" lon="2.99396">
        <ele>473.3</ele>
        <time>2018-05-19T10:55:08Z</time>
      </trkpt>
      <trkpt lat="44.10448" lon="2.99395">
        <ele>473.2</ele>
        <time>2018-05-19T10:55:09Z</time>
      </trkpt>
      <trkpt lat="44.10453" lon="2.99393">
        <ele>473.1</ele>
        <time>2018-05-19T10:55:10Z</time>
      </trkpt>
      <trkpt lat="44.10458" lon="2.99393">
        <ele>473</ele>
        <time>2018-05-19T10:55:11Z</time>
      </trkpt>
      <trkpt lat="44.10463" lon="2.99391">
        <ele>472.9</ele>
        <time>2018-05-19T10:55:12Z</time>
      </trkpt>
      <trkpt lat="44.10467" lon="2.99391">
        <ele>472.8</ele>
        <time>2018-05-19T10:55:13Z</time>
      </trkpt>
      <trkpt lat="44.10473" lon="2.99389">
        <ele>472.7</ele>
        <time>2018-05-19T10:55:14Z</time>
      </trkpt>
      <trkpt lat="44.10478" lon="2.99389">
        <ele>472.5</ele>
        <time>2018-05-19T10:55:15Z</time>
      </trkpt>
      <trkpt lat="44.10482" lon="2.99389">
        <ele>472.4</ele>
        <time>2018-05-19T10:55:16Z</time>
      </trkpt>
      <trkpt lat="44.10488" lon="2.99388">
        <ele>472.3</ele>
        <time>2018-05-19T10:55:17Z</time>
      </trkpt>
      <trkpt lat="44.10492" lon="2.99386">
        <ele>472.2</ele>
        <time>2018-05-19T10:55:18Z</time>
      </trkpt>
      <trkpt lat="44.10496" lon="2.99386">
        <ele>472.1</ele>
        <time>2018-05-19T10:55:19Z</time>
      </trkpt>
      <trkpt lat="44.10501" lon="2.99386">
        <ele>472</ele>
        <time>2018-05-19T10:55:20Z</time>
      </trkpt>
      <trkpt lat="44.10506" lon="2.99385">
        <ele>471.9</ele>
        <time>2018-05-19T10:55:21Z</time>
      </trkpt>
      <trkpt lat="44.10511" lon="2.99385">
        <ele>471.8</ele>
        <time>2018-05-19T10:55:22Z</time>
      </trkpt>
      <trkpt lat="44.10516" lon="2.99384">
        <ele>471.7</ele>
        <time>2018-05-19T10:55:23Z</time>
      </trkpt>
      <trkpt lat="44.1052" lon="2.99385">
        <ele>471.7</ele>
        <time>2018-05-19T10:55:24Z</time>
      </trkpt>
      <trkpt lat="44.10525" lon="2.99385">
        <ele>471.6</ele>
        <time>2018-05-19T10:55:25Z</time>
      </trkpt>
      <trkpt lat="44.10529" lon="2.99385">
        <ele>471.5</ele>
        <time>2018-05-19T10:55:26Z</time>
      </trkpt>
      <trkpt lat="44.10533" lon="2.99386">
        <ele>471.4</ele>
        <time>2018-05-19T10:55:27Z</time>
      </trkpt>
      <trkpt lat="44.10537" lon="2.99387">
        <ele>471.4</ele>
        <time>2018-05-19T10:55:28Z</time>
      </trkpt>
      <trkpt lat="44.10541" lon="2.99387">
        <ele>471.3</ele>
        <time>2018-05-19T10:55:29Z</time>
      </trkpt>
      <trkpt lat="44.10546" lon="2.99387">
        <ele>471.2</ele>
        <time>2018-05-19T10:55:30Z</time>
      </trkpt>
      <trkpt lat="44.1055" lon="2.99387">
        <ele>471.1</ele>
        <time>2018-05-19T10:55:31Z</time>
      </trkpt>
      <trkpt lat="44.10555" lon="2.99387">
        <ele>471.1</ele>
        <time>2018-05-19T10:55:32Z</time>
      </trkpt>
      <trkpt lat="44.10559" lon="2.99387">
        <ele>471</ele>
        <time>2018-05-19T10:55:33Z</time>
      </trkpt>
      <trkpt lat="44.10563" lon="2.99387">
        <ele>470.8</ele>
        <time>2018-05-19T10:55:34Z</time>
      </trkpt>
      <trkpt lat="44.10568" lon="2.99387">
        <ele>470.6</ele>
        <time>2018-05-19T10:55:35Z</time>
      </trkpt>
      <trkpt lat="44.10572" lon="2.99387">
        <ele>470.4</ele>
        <time>2018-05-19T10:55:36Z</time>
      </trkpt>
      <trkpt lat="44.10576" lon="2.99387">
        <ele>470.3</ele>
        <time>2018-05-19T10:55:37Z</time>
      </trkpt>
      <trkpt lat="44.10579" lon="2.99387">
        <ele>470.1</ele>
        <time>2018-05-19T10:55:38Z</time>
      </trkpt>
      <trkpt lat="44.10583" lon="2.99388">
        <ele>470</ele>
        <time>2018-05-19T10:55:39Z</time>
      </trkpt>
      <trkpt lat="44.10587" lon="2.99388">
        <ele>469.8</ele>
        <time>2018-05-19T10:55:40Z</time>
      </trkpt>
      <trkpt lat="44.10591" lon="2.99387">
        <ele>469.6</ele>
        <time>2018-05-19T10:55:41Z</time>
      </trkpt>
      <trkpt lat="44.10595" lon="2.99387">
        <ele>469.5</ele>
        <time>2018-05-19T10:55:42Z</time>
      </trkpt>
      <trkpt lat="44.10599" lon="2.99386">
        <ele>469.3</ele>
        <time>2018-05-19T10:55:43Z</time>
      </trkpt>
      <trkpt lat="44.10603" lon="2.99386">
        <ele>469.1</ele>
        <time>2018-05-19T10:55:44Z</time>
      </trkpt>
      <trkpt lat="44.10607" lon="2.99386">
        <ele>469</ele>
        <time>2018-05-19T10:55:45Z</time>
      </trkpt>
      <trkpt lat="44.10611" lon="2.99386">
        <ele>469</ele>
        <time>2018-05-19T10:55:46Z</time>
      </trkpt>
      <trkpt lat="44.10616" lon="2.99387">
        <ele>469</ele>
        <time>2018-05-19T10:55:47Z</time>
      </trkpt>
      <trkpt lat="44.1062" lon="2.99387">
        <ele>469</ele>
        <time>2018-05-19T10:55:48Z</time>
      </trkpt>
      <trkpt lat="44.10624" lon="2.99387">
        <ele>469</ele>
        <time>2018-05-19T10:55:49Z</time>
      </trkpt>
      <trkpt lat="44.10628" lon="2.99387">
        <ele>469.1</ele>
        <time>2018-05-19T10:55:50Z</time>
      </trkpt>
      <trkpt lat="44.10632" lon="2.99388">
        <ele>469.1</ele>
        <time>2018-05-19T10:55:51Z</time>
      </trkpt>
      <trkpt lat="44.10636" lon="2.99388">
        <ele>469.1</ele>
        <time>2018-05-19T10:55:52Z</time>
      </trkpt>
      <trkpt lat="44.1064" lon="2.99388">
        <ele>469.1</ele>
        <time>2018-05-19T10:55:53Z</time>
      </trkpt>
      <trkpt lat="44.10644" lon="2.99388">
        <ele>469.1</ele>
        <time>2018-05-19T10:55:54Z</time>
      </trkpt>
      <trkpt lat="44.10648" lon="2.99388">
        <ele>469.1</ele>
        <time>2018-05-19T10:55:55Z</time>
      </trkpt>
      <trkpt lat="44.10652" lon="2.99389">
        <ele>469.1</ele>
        <time>2018-05-19T10:55:56Z</time>
      </trkpt>
      <trkpt lat="44.10656" lon="2.99389">
        <ele>469.1</ele>
        <time>2018-05-19T10:55:57Z</time>
      </trkpt>
      <trkpt lat="44.1066" lon="2.9939">
        <ele>469.1</ele>
        <time>2018-05-19T10:55:58Z</time>
      </trkpt>
      <trkpt lat="44.10664" lon="2.9939">
        <ele>469.1</ele>
        <time>2018-05-19T10:55:59Z</time>
      </trkpt>
      <trkpt lat="44.10668" lon="2.99391">
        <ele>469.2</ele>
        <time>2018-05-19T10:56:00Z</time>
      </trkpt>
      <trkpt lat="44.10672" lon="2.99391">
        <ele>469.2</ele>
        <time>2018-05-19T10:56:01Z</time>
      </trkpt>
      <trkpt lat="44.10676" lon="2.99391">
        <ele>469.2</ele>
        <time>2018-05-19T10:56:02Z</time>
      </trkpt>
      <trkpt lat="44.1068" lon="2.99392">
        <ele>469.2</ele>
        <time>2018-05-19T10:56:03Z</time>
      </trkpt>
      <trkpt lat="44.10684" lon="2.99392">
        <ele>469.2</ele>
        <time>2018-05-19T10:56:04Z</time>
      </trkpt>
      <trkpt lat="44.10689" lon="2.99392">
        <ele>469.2</ele>
        <time>2018-05-19T10:56:05Z</time>
      </trkpt>
      <trkpt lat="44.10693" lon="2.99392">
        <ele>469.2</ele>
        <time>2018-05-19T10:56:06Z</time>
      </trkpt>
      <trkpt lat="44.10697" lon="2.99393">
        <ele>469.2</ele>
        <time>2018-05-19T10:56:07Z</time>
      </trkpt>
      <trkpt lat="44.10702" lon="2.99393">
        <ele>469.2</ele>
        <time>2018-05-19T10:56:08Z</time>
      </trkpt>
      <trkpt lat="44.10706" lon="2.99393">
        <ele>469.3</ele>
        <time>2018-05-19T10:56:09Z</time>
      </trkpt>
      <trkpt lat="44.10711" lon="2.99394">
        <ele>469.3</ele>
        <time>2018-05-19T10:56:10Z</time>
      </trkpt>
      <trkpt lat="44.10716" lon="2.99394">
        <ele>469.3</ele>
        <time>2018-05-19T10:56:11Z</time>
      </trkpt>
      <trkpt lat="44.1072" lon="2.99394">
        <ele>469.4</ele>
        <time>2018-05-19T10:56:12Z</time>
      </trkpt>
      <trkpt lat="44.10725" lon="2.99395">
        <ele>469.4</ele>
        <time>2018-05-19T10:56:13Z</time>
      </trkpt>
      <trkpt lat="44.1073" lon="2.99395">
        <ele>469.4</ele>
        <time>2018-05-19T10:56:14Z</time>
      </trkpt>
      <trkpt lat="44.10734" lon="2.99395">
        <ele>469.4</ele>
        <time>2018-05-19T10:56:15Z</time>
      </trkpt>
      <trkpt lat="44.10738" lon="2.99396">
        <ele>469.5</ele>
        <time>2018-05-19T10:56:16Z</time>
      </trkpt>
      <trkpt lat="44.10742" lon="2.99396">
        <ele>469.5</ele>
        <time>2018-05-19T10:56:17Z</time>
      </trkpt>
      <trkpt lat="44.10747" lon="2.99397">
        <ele>469.5</ele>
        <time>2018-05-19T10:56:18Z</time>
      </trkpt>
      <trkpt lat="44.10751" lon="2.99397">
        <ele>469.5</ele>
        <time>2018-05-19T10:56:19Z</time>
      </trkpt>
      <trkpt lat="44.10755" lon="2.99398">
        <ele>469.6</ele>
        <time>2018-05-19T10:56:20Z</time>
      </trkpt>
      <trkpt lat="44.1076" lon="2.99398">
        <ele>469.6</ele>
        <time>2018-05-19T10:56:21Z</time>
      </trkpt>
      <trkpt lat="44.10763" lon="2.99399">
        <ele>469.7</ele>
        <time>2018-05-19T10:56:22Z</time>
      </trkpt>
      <trkpt lat="44.10767" lon="2.99399">
        <ele>469.8</ele>
        <time>2018-05-19T10:56:23Z</time>
      </trkpt>
      <trkpt lat="44.10771" lon="2.99399">
        <ele>469.9</ele>
        <time>2018-05-19T10:56:24Z</time>
      </trkpt>
      <trkpt lat="44.10776" lon="2.99399">
        <ele>470.1</ele>
        <time>2018-05-19T10:56:25Z</time>
      </trkpt>
      <trkpt lat="44.1078" lon="2.99399">
        <ele>470.2</ele>
        <time>2018-05-19T10:56:26Z</time>
      </trkpt>
      <trkpt lat="44.10784" lon="2.99399">
        <ele>470.4</ele>
        <time>2018-05-19T10:56:27Z</time>
      </trkpt>
      <trkpt lat="44.10788" lon="2.99399">
        <ele>470.5</ele>
        <time>2018-05-19T10:56:28Z</time>
      </trkpt>
      <trkpt lat="44.10792" lon="2.99399">
        <ele>470.7</ele>
        <time>2018-05-19T10:56:29Z</time>
      </trkpt>
      <trkpt lat="44.10796" lon="2.994">
        <ele>470.9</ele>
        <time>2018-05-19T10:56:30Z</time>
      </trkpt>
      <trkpt lat="44.108" lon="2.99401">
        <ele>471.1</ele>
        <time>2018-05-19T10:56:31Z</time>
      </trkpt>
      <trkpt lat="44.10803" lon="2.99402">
        <ele>471.2</ele>
        <time>2018-05-19T10:56:32Z</time>
      </trkpt>
      <trkpt lat="44.10807" lon="2.99402">
        <ele>471.4</ele>
        <time>2018-05-19T10:56:33Z</time>
      </trkpt>
      <trkpt lat="44.10811" lon="2.99403">
        <ele>471.6</ele>
        <time>2018-05-19T10:56:34Z</time>
      </trkpt>
      <trkpt lat="44.10815" lon="2.99403">
        <ele>471.8</ele>
        <time>2018-05-19T10:56:35Z</time>
      </trkpt>
      <trkpt lat="44.10818" lon="2.99403">
        <ele>471.9</ele>
        <time>2018-05-19T10:56:36Z</time>
      </trkpt>
      <trkpt lat="44.10822" lon="2.99402">
        <ele>472.1</ele>
        <time>2018-05-19T10:56:37Z</time>
      </trkpt>
      <trkpt lat="44.10825" lon="2.99403">
        <ele>472.2</ele>
        <time>2018-05-19T10:56:38Z</time>
      </trkpt>
      <trkpt lat="44.10828" lon="2.99403">
        <ele>472.4</ele>
        <time>2018-05-19T10:56:39Z</time>
      </trkpt>
      <trkpt lat="44.10832" lon="2.99404">
        <ele>472.5</ele>
        <time>2018-05-19T10:56:40Z</time>
      </trkpt>
      <trkpt lat="44.10836" lon="2.99404">
        <ele>472.7</ele>
        <time>2018-05-19T10:56:41Z</time>
      </trkpt>
      <trkpt lat="44.10839" lon="2.99404">
        <ele>472.9</ele>
        <time>2018-05-19T10:56:42Z</time>
      </trkpt>
      <trkpt lat="44.10843" lon="2.99405">
        <ele>473</ele>
        <time>2018-05-19T10:56:43Z</time>
      </trkpt>
      <trkpt lat="44.10847" lon="2.99405">
        <ele>473.2</ele>
        <time>2018-05-19T10:56:44Z</time>
      </trkpt>
      <trkpt lat="44.1085" lon="2.99406">
        <ele>473.4</ele>
        <time>2018-05-19T10:56:45Z</time>
      </trkpt>
      <trkpt lat="44.10854" lon="2.99407">
        <ele>473.5</ele>
        <time>2018-05-19T10:56:46Z</time>
      </trkpt>
      <trkpt lat="44.10858" lon="2.99408">
        <ele>473.7</ele>
        <time>2018-05-19T10:56:47Z</time>
      </trkpt>
      <trkpt lat="44.10861" lon="2.99408">
        <ele>473.9</ele>
        <time>2018-05-19T10:56:48Z</time>
      </trkpt>
      <trkpt lat="44.10865" lon="2.99409">
        <ele>474</ele>
        <time>2018-05-19T10:56:49Z</time>
      </trkpt>
      <trkpt lat="44.10869" lon="2.9941">
        <ele>474.2</ele>
        <time>2018-05-19T10:56:50Z</time>
      </trkpt>
      <trkpt lat="44.10873" lon="2.9941">
        <ele>474.3</ele>
        <time>2018-05-19T10:56:51Z</time>
      </trkpt>
      <trkpt lat="44.10877" lon="2.99411">
        <ele>474.4</ele>
        <time>2018-05-19T10:56:52Z</time>
      </trkpt>
      <trkpt lat="44.1088" lon="2.99411">
        <ele>474.5</ele>
        <time>2018-05-19T10:56:53Z</time>
      </trkpt>
      <trkpt lat="44.10883" lon="2.99412">
        <ele>474.6</ele>
        <time>2018-05-19T10:56:54Z</time>
      </trkpt>
      <trkpt lat="44.10887" lon="2.99412">
        <ele>474.7</ele>
        <time>2018-05-19T10:56:55Z</time>
      </trkpt>
      <trkpt lat="44.10891" lon="2.99413">
        <ele>474.8</ele>
        <time>2018-05-19T10:56:56Z</time>
      </trkpt>
      <trkpt lat="44.10894" lon="2.99414">
        <ele>474.9</ele>
        <time>2018-05-19T10:56:57Z</time>
      </trkpt>
      <trkpt lat="44.10898" lon="2.99416">
        <ele>474.9</ele>
        <time>2018-05-19T10:56:58Z</time>
      </trkpt>
      <trkpt lat="44.10901" lon="2.99417">
        <ele>475</ele>
        <time>2018-05-19T10:56:59Z</time>
      </trkpt>
      <trkpt lat="44.10905" lon="2.99418">
        <ele>475</ele>
        <time>2018-05-19T10:57:00Z</time>
      </trkpt>
      <trkpt lat="44.10909" lon="2.99419">
        <ele>475.1</ele>
        <time>2018-05-19T10:57:01Z</time>
      </trkpt>
      <trkpt lat="44.10913" lon="2.9942">
        <ele>475.1</ele>
        <time>2018-05-19T10:57:02Z</time>
      </trkpt>
      <trkpt lat="44.10916" lon="2.99421">
        <ele>475.1</ele>
        <time>2018-05-19T10:57:03Z</time>
      </trkpt>
      <trkpt lat="44.1092" lon="2.99422">
        <ele>475.2</ele>
        <time>2018-05-19T10:57:04Z</time>
      </trkpt>
      <trkpt lat="44.10924" lon="2.99422">
        <ele>475.2</ele>
        <time>2018-05-19T10:57:05Z</time>
      </trkpt>
      <trkpt lat="44.10928" lon="2.99423">
        <ele>475.3</ele>
        <time>2018-05-19T10:57:06Z</time>
      </trkpt>
      <trkpt lat="44.10932" lon="2.99424">
        <ele>475.3</ele>
        <time>2018-05-19T10:57:07Z</time>
      </trkpt>
      <trkpt lat="44.10936" lon="2.99425">
        <ele>475.3</ele>
        <time>2018-05-19T10:57:08Z</time>
      </trkpt>
      <trkpt lat="44.1094" lon="2.99425">
        <ele>475.4</ele>
        <time>2018-05-19T10:57:09Z</time>
      </trkpt>
      <trkpt lat="44.10943" lon="2.99425">
        <ele>475.4</ele>
        <time>2018-05-19T10:57:10Z</time>
      </trkpt>
      <trkpt lat="44.10947" lon="2.99426">
        <ele>475.5</ele>
        <time>2018-05-19T10:57:11Z</time>
      </trkpt>
      <trkpt lat="44.10951" lon="2.99427">
        <ele>475.6</ele>
        <time>2018-05-19T10:57:12Z</time>
      </trkpt>
      <trkpt lat="44.10955" lon="2.99427">
        <ele>475.7</ele>
        <time>2018-05-19T10:57:13Z</time>
      </trkpt>
      <trkpt lat="44.1096" lon="2.99428">
        <ele>475.8</ele>
        <time>2018-05-19T10:57:14Z</time>
      </trkpt>
      <trkpt lat="44.10964" lon="2.99428">
        <ele>476</ele>
        <time>2018-05-19T10:57:15Z</time>
      </trkpt>
      <trkpt lat="44.10968" lon="2.99428">
        <ele>476.1</ele>
        <time>2018-05-19T10:57:16Z</time>
      </trkpt>
      <trkpt lat="44.10972" lon="2.99428">
        <ele>476.3</ele>
        <time>2018-05-19T10:57:17Z</time>
      </trkpt>
      <trkpt lat="44.10976" lon="2.99429">
        <ele>476.5</ele>
        <time>2018-05-19T10:57:18Z</time>
      </trkpt>
      <trkpt lat="44.10981" lon="2.99429">
        <ele>476.7</ele>
        <time>2018-05-19T10:57:19Z</time>
      </trkpt>
      <trkpt lat="44.10985" lon="2.99429">
        <ele>476.9</ele>
        <time>2018-05-19T10:57:20Z</time>
      </trkpt>
      <trkpt lat="44.1099" lon="2.9943">
        <ele>477.1</ele>
        <time>2018-05-19T10:57:21Z</time>
      </trkpt>
      <trkpt lat="44.10995" lon="2.9943">
        <ele>477.2</ele>
        <time>2018-05-19T10:57:22Z</time>
      </trkpt>
      <trkpt lat="44.10998" lon="2.99431">
        <ele>477.4</ele>
        <time>2018-05-19T10:57:23Z</time>
      </trkpt>
      <trkpt lat="44.11003" lon="2.99431">
        <ele>477.5</ele>
        <time>2018-05-19T10:57:24Z</time>
      </trkpt>
      <trkpt lat="44.11007" lon="2.99432">
        <ele>477.6</ele>
        <time>2018-05-19T10:57:25Z</time>
      </trkpt>
      <trkpt lat="44.11011" lon="2.99434">
        <ele>477.7</ele>
        <time>2018-05-19T10:57:26Z</time>
      </trkpt>
      <trkpt lat="44.11015" lon="2.99435">
        <ele>477.8</ele>
        <time>2018-05-19T10:57:27Z</time>
      </trkpt>
      <trkpt lat="44.11019" lon="2.99437">
        <ele>477.8</ele>
        <time>2018-05-19T10:57:28Z</time>
      </trkpt>
      <trkpt lat="44.11022" lon="2.9944">
        <ele>477.9</ele>
        <time>2018-05-19T10:57:29Z</time>
      </trkpt>
      <trkpt lat="44.11025" lon="2.99443">
        <ele>477.9</ele>
        <time>2018-05-19T10:57:30Z</time>
      </trkpt>
      <trkpt lat="44.11029" lon="2.99448">
        <ele>477.9</ele>
        <time>2018-05-19T10:57:31Z</time>
      </trkpt>
      <trkpt lat="44.11033" lon="2.99452">
        <ele>478</ele>
        <time>2018-05-19T10:57:32Z</time>
      </trkpt>
      <trkpt lat="44.11036" lon="2.99456">
        <ele>478.6</ele>
        <time>2018-05-19T10:57:33Z</time>
      </trkpt>
      <trkpt lat="44.1104" lon="2.99461">
        <ele>479.1</ele>
        <time>2018-05-19T10:57:34Z</time>
      </trkpt>
      <trkpt lat="44.11043" lon="2.99465">
        <ele>479.6</ele>
        <time>2018-05-19T10:57:35Z</time>
      </trkpt>
      <trkpt lat="44.11046" lon="2.99468">
        <ele>480</ele>
        <time>2018-05-19T10:57:36Z</time>
      </trkpt>
      <trkpt lat="44.11049" lon="2.99472">
        <ele>480.3</ele>
        <time>2018-05-19T10:57:37Z</time>
      </trkpt>
      <trkpt lat="44.11051" lon="2.99476">
        <ele>480.4</ele>
        <time>2018-05-19T10:57:38Z</time>
      </trkpt>
      <trkpt lat="44.11054" lon="2.99479">
        <ele>480.6</ele>
        <time>2018-05-19T10:57:39Z</time>
      </trkpt>
      <trkpt lat="44.11057" lon="2.99483">
        <ele>480.8</ele>
        <time>2018-05-19T10:57:40Z</time>
      </trkpt>
      <trkpt lat="44.1106" lon="2.99487">
        <ele>480.9</ele>
        <time>2018-05-19T10:57:41Z</time>
      </trkpt>
      <trkpt lat="44.11062" lon="2.99491">
        <ele>481</ele>
        <time>2018-05-19T10:57:42Z</time>
      </trkpt>
      <trkpt lat="44.11065" lon="2.99495">
        <ele>481.1</ele>
        <time>2018-05-19T10:57:43Z</time>
      </trkpt>
      <trkpt lat="44.11068" lon="2.99498">
        <ele>481.2</ele>
        <time>2018-05-19T10:57:44Z</time>
      </trkpt>
      <trkpt lat="44.11071" lon="2.99502">
        <ele>481.3</ele>
        <time>2018-05-19T10:57:45Z</time>
      </trkpt>
      <trkpt lat="44.11074" lon="2.99506">
        <ele>481.4</ele>
        <time>2018-05-19T10:57:46Z</time>
      </trkpt>
      <trkpt lat="44.11077" lon="2.99509">
        <ele>481.6</ele>
        <time>2018-05-19T10:57:47Z</time>
      </trkpt>
      <trkpt lat="44.1108" lon="2.99513">
        <ele>481.7</ele>
        <time>2018-05-19T10:57:48Z</time>
      </trkpt>
      <trkpt lat="44.11083" lon="2.99517">
        <ele>481.9</ele>
        <time>2018-05-19T10:57:49Z</time>
      </trkpt>
      <trkpt lat="44.11086" lon="2.9952">
        <ele>482.1</ele>
        <time>2018-05-19T10:57:50Z</time>
      </trkpt>
      <trkpt lat="44.1109" lon="2.99524">
        <ele>482.4</ele>
        <time>2018-05-19T10:57:51Z</time>
      </trkpt>
      <trkpt lat="44.11093" lon="2.99527">
        <ele>482.6</ele>
        <time>2018-05-19T10:57:52Z</time>
      </trkpt>
      <trkpt lat="44.11096" lon="2.99531">
        <ele>482.9</ele>
        <time>2018-05-19T10:57:53Z</time>
      </trkpt>
      <trkpt lat="44.111" lon="2.99534">
        <ele>483.2</ele>
        <time>2018-05-19T10:57:54Z</time>
      </trkpt>
      <trkpt lat="44.11103" lon="2.99537">
        <ele>483.6</ele>
        <time>2018-05-19T10:57:55Z</time>
      </trkpt>
      <trkpt lat="44.11106" lon="2.9954">
        <ele>483.8</ele>
        <time>2018-05-19T10:57:56Z</time>
      </trkpt>
      <trkpt lat="44.11109" lon="2.99543">
        <ele>484.2</ele>
        <time>2018-05-19T10:57:57Z</time>
      </trkpt>
      <trkpt lat="44.11112" lon="2.99547">
        <ele>484.6</ele>
        <time>2018-05-19T10:57:58Z</time>
      </trkpt>
      <trkpt lat="44.11115" lon="2.99551">
        <ele>485</ele>
        <time>2018-05-19T10:57:59Z</time>
      </trkpt>
      <trkpt lat="44.11118" lon="2.99554">
        <ele>485.4</ele>
        <time>2018-05-19T10:58:00Z</time>
      </trkpt>
      <trkpt lat="44.1112" lon="2.99557">
        <ele>485.6</ele>
        <time>2018-05-19T10:58:01Z</time>
      </trkpt>
      <trkpt lat="44.11123" lon="2.99561">
        <ele>485.9</ele>
        <time>2018-05-19T10:58:02Z</time>
      </trkpt>
      <trkpt lat="44.11125" lon="2.99564">
        <ele>486.1</ele>
        <time>2018-05-19T10:58:03Z</time>
      </trkpt>
      <trkpt lat="44.11128" lon="2.99568">
        <ele>486.2</ele>
        <time>2018-05-19T10:58:04Z</time>
      </trkpt>
      <trkpt lat="44.1113" lon="2.99571">
        <ele>486.3</ele>
        <time>2018-05-19T10:58:05Z</time>
      </trkpt>
      <trkpt lat="44.11132" lon="2.99575">
        <ele>486.4</ele>
        <time>2018-05-19T10:58:06Z</time>
      </trkpt>
      <trkpt lat="44.11135" lon="2.99579">
        <ele>486.5</ele>
        <time>2018-05-19T10:58:07Z</time>
      </trkpt>
      <trkpt lat="44.11137" lon="2.99583">
        <ele>486.6</ele>
        <time>2018-05-19T10:58:08Z</time>
      </trkpt>
      <trkpt lat="44.1114" lon="2.99587">
        <ele>486.7</ele>
        <time>2018-05-19T10:58:09Z</time>
      </trkpt>
      <trkpt lat="44.11142" lon="2.9959">
        <ele>486.8</ele>
        <time>2018-05-19T10:58:10Z</time>
      </trkpt>
      <trkpt lat="44.11145" lon="2.99594">
        <ele>487</ele>
        <time>2018-05-19T10:58:11Z</time>
      </trkpt>
      <trkpt lat="44.11147" lon="2.99598">
        <ele>487.2</ele>
        <time>2018-05-19T10:58:12Z</time>
      </trkpt>
      <trkpt lat="44.1115" lon="2.99602">
        <ele>487.5</ele>
        <time>2018-05-19T10:58:13Z</time>
      </trkpt>
      <trkpt lat="44.11152" lon="2.99607">
        <ele>487.8</ele>
        <time>2018-05-19T10:58:14Z</time>
      </trkpt>
      <trkpt lat="44.11155" lon="2.99611">
        <ele>488.1</ele>
        <time>2018-05-19T10:58:15Z</time>
      </trkpt>
      <trkpt lat="44.11158" lon="2.99615">
        <ele>488.4</ele>
        <time>2018-05-19T10:58:16Z</time>
      </trkpt>
      <trkpt lat="44.1116" lon="2.99619">
        <ele>488.6</ele>
        <time>2018-05-19T10:58:17Z</time>
      </trkpt>
      <trkpt lat="44.11163" lon="2.99623">
        <ele>488.8</ele>
        <time>2018-05-19T10:58:18Z</time>
      </trkpt>
      <trkpt lat="44.11165" lon="2.99626">
        <ele>488.9</ele>
        <time>2018-05-19T10:58:19Z</time>
      </trkpt>
      <trkpt lat="44.11167" lon="2.99629">
        <ele>489</ele>
        <time>2018-05-19T10:58:20Z</time>
      </trkpt>
      <trkpt lat="44.11169" lon="2.99634">
        <ele>489.2</ele>
        <time>2018-05-19T10:58:22Z</time>
      </trkpt>
      <trkpt lat="44.11169" lon="2.99639">
        <ele>489.3</ele>
        <time>2018-05-19T10:58:24Z</time>
      </trkpt>
      <trkpt lat="44.11167" lon="2.99644">
        <ele>489.4</ele>
        <time>2018-05-19T10:58:26Z</time>
      </trkpt>
      <trkpt lat="44.11165" lon="2.99648">
        <ele>489.5</ele>
        <time>2018-05-19T10:58:28Z</time>
      </trkpt>
      <trkpt lat="44.11163" lon="2.99653">
        <ele>489.5</ele>
        <time>2018-05-19T10:58:30Z</time>
      </trkpt>
      <trkpt lat="44.11163" lon="2.99658">
        <ele>489.5</ele>
        <time>2018-05-19T10:58:32Z</time>
      </trkpt>
      <trkpt lat="44.11162" lon="2.99663">
        <ele>489.6</ele>
        <time>2018-05-19T10:58:34Z</time>
      </trkpt>
      <trkpt lat="44.11163" lon="2.99669">
        <ele>489.6</ele>
        <time>2018-05-19T10:58:36Z</time>
      </trkpt>
      <trkpt lat="44.11164" lon="2.99674">
        <ele>489.6</ele>
        <time>2018-05-19T10:58:38Z</time>
      </trkpt>
      <trkpt lat="44.11167" lon="2.99679">
        <ele>489.6</ele>
        <time>2018-05-19T10:58:40Z</time>
      </trkpt>
      <trkpt lat="44.11169" lon="2.99684">
        <ele>489.7</ele>
        <time>2018-05-19T10:58:42Z</time>
      </trkpt>
      <trkpt lat="44.11172" lon="2.9969">
        <ele>489.7</ele>
        <time>2018-05-19T10:58:44Z</time>
      </trkpt>
      <trkpt lat="44.11175" lon="2.99695">
        <ele>489.7</ele>
        <time>2018-05-19T10:58:46Z</time>
      </trkpt>
      <trkpt lat="44.11177" lon="2.997">
        <ele>489.8</ele>
        <time>2018-05-19T10:58:48Z</time>
      </trkpt>
      <trkpt lat="44.1118" lon="2.99706">
        <ele>489.8</ele>
        <time>2018-05-19T10:58:50Z</time>
      </trkpt>
      <trkpt lat="44.11182" lon="2.99712">
        <ele>489.9</ele>
        <time>2018-05-19T10:58:52Z</time>
      </trkpt>
      <trkpt lat="44.11184" lon="2.99715">
        <ele>489.9</ele>
        <time>2018-05-19T10:58:53Z</time>
      </trkpt>
      <trkpt lat="44.11185" lon="2.99719">
        <ele>489.9</ele>
        <time>2018-05-19T10:58:54Z</time>
      </trkpt>
      <trkpt lat="44.11186" lon="2.99722">
        <ele>489.9</ele>
        <time>2018-05-19T10:58:55Z</time>
      </trkpt>
      <trkpt lat="44.11189" lon="2.99728">
        <ele>490.1</ele>
        <time>2018-05-19T10:58:57Z</time>
      </trkpt>
      <trkpt lat="44.11191" lon="2.99732">
        <ele>490.1</ele>
        <time>2018-05-19T10:58:58Z</time>
      </trkpt>
      <trkpt lat="44.11192" lon="2.99735">
        <ele>490.2</ele>
        <time>2018-05-19T10:58:59Z</time>
      </trkpt>
      <trkpt lat="44.11194" lon="2.99741">
        <ele>490.4</ele>
        <time>2018-05-19T10:59:01Z</time>
      </trkpt>
      <trkpt lat="44.11197" lon="2.99748">
        <ele>490.6</ele>
        <time>2018-05-19T10:59:03Z</time>
      </trkpt>
      <trkpt lat="44.11198" lon="2.99752">
        <ele>490.7</ele>
        <time>2018-05-19T10:59:04Z</time>
      </trkpt>
      <trkpt lat="44.112" lon="2.99756">
        <ele>490.8</ele>
        <time>2018-05-19T10:59:05Z</time>
      </trkpt>
      <trkpt lat="44.11201" lon="2.9976">
        <ele>491</ele>
        <time>2018-05-19T10:59:06Z</time>
      </trkpt>
      <trkpt lat="44.11203" lon="2.99764">
        <ele>491.1</ele>
        <time>2018-05-19T10:59:07Z</time>
      </trkpt>
      <trkpt lat="44.11204" lon="2.99768">
        <ele>491.3</ele>
        <time>2018-05-19T10:59:08Z</time>
      </trkpt>
      <trkpt lat="44.11205" lon="2.99772">
        <ele>491.4</ele>
        <time>2018-05-19T10:59:09Z</time>
      </trkpt>
      <trkpt lat="44.11206" lon="2.99775">
        <ele>491.6</ele>
        <time>2018-05-19T10:59:10Z</time>
      </trkpt>
      <trkpt lat="44.11207" lon="2.99779">
        <ele>491.7</ele>
        <time>2018-05-19T10:59:11Z</time>
      </trkpt>
      <trkpt lat="44.11208" lon="2.99784">
        <ele>491.9</ele>
        <time>2018-05-19T10:59:12Z</time>
      </trkpt>
      <trkpt lat="44.11209" lon="2.99788">
        <ele>492</ele>
        <time>2018-05-19T10:59:13Z</time>
      </trkpt>
      <trkpt lat="44.11211" lon="2.99792">
        <ele>492.2</ele>
        <time>2018-05-19T10:59:14Z</time>
      </trkpt>
      <trkpt lat="44.11212" lon="2.99797">
        <ele>492.3</ele>
        <time>2018-05-19T10:59:15Z</time>
      </trkpt>
      <trkpt lat="44.11214" lon="2.99801">
        <ele>492.5</ele>
        <time>2018-05-19T10:59:16Z</time>
      </trkpt>
      <trkpt lat="44.11215" lon="2.99805">
        <ele>492.6</ele>
        <time>2018-05-19T10:59:17Z</time>
      </trkpt>
      <trkpt lat="44.11217" lon="2.99809">
        <ele>492.8</ele>
        <time>2018-05-19T10:59:18Z</time>
      </trkpt>
      <trkpt lat="44.11219" lon="2.99813">
        <ele>492.9</ele>
        <time>2018-05-19T10:59:19Z</time>
      </trkpt>
      <trkpt lat="44.1122" lon="2.99817">
        <ele>493</ele>
        <time>2018-05-19T10:59:20Z</time>
      </trkpt>
      <trkpt lat="44.11222" lon="2.99821">
        <ele>493.1</ele>
        <time>2018-05-19T10:59:21Z</time>
      </trkpt>
      <trkpt lat="44.11224" lon="2.99825">
        <ele>493.2</ele>
        <time>2018-05-19T10:59:22Z</time>
      </trkpt>
      <trkpt lat="44.11225" lon="2.99829">
        <ele>493.3</ele>
        <time>2018-05-19T10:59:23Z</time>
      </trkpt>
      <trkpt lat="44.11227" lon="2.99833">
        <ele>493.4</ele>
        <time>2018-05-19T10:59:24Z</time>
      </trkpt>
      <trkpt lat="44.11229" lon="2.99837">
        <ele>493.5</ele>
        <time>2018-05-19T10:59:25Z</time>
      </trkpt>
      <trkpt lat="44.1123" lon="2.99841">
        <ele>493.5</ele>
        <time>2018-05-19T10:59:26Z</time>
      </trkpt>
      <trkpt lat="44.11232" lon="2.99844">
        <ele>493.6</ele>
        <time>2018-05-19T10:59:27Z</time>
      </trkpt>
      <trkpt lat="44.11234" lon="2.99848">
        <ele>493.6</ele>
        <time>2018-05-19T10:59:28Z</time>
      </trkpt>
      <trkpt lat="44.11236" lon="2.99851">
        <ele>493.7</ele>
        <time>2018-05-19T10:59:29Z</time>
      </trkpt>
      <trkpt lat="44.11238" lon="2.99855">
        <ele>493.7</ele>
        <time>2018-05-19T10:59:30Z</time>
      </trkpt>
      <trkpt lat="44.11239" lon="2.99859">
        <ele>493.8</ele>
        <time>2018-05-19T10:59:31Z</time>
      </trkpt>
      <trkpt lat="44.11241" lon="2.99863">
        <ele>493.8</ele>
        <time>2018-05-19T10:59:32Z</time>
      </trkpt>
      <trkpt lat="44.11243" lon="2.99866">
        <ele>493.9</ele>
        <time>2018-05-19T10:59:33Z</time>
      </trkpt>
      <trkpt lat="44.11245" lon="2.9987">
        <ele>493.9</ele>
        <time>2018-05-19T10:59:34Z</time>
      </trkpt>
      <trkpt lat="44.11246" lon="2.99874">
        <ele>494</ele>
        <time>2018-05-19T10:59:35Z</time>
      </trkpt>
      <trkpt lat="44.11247" lon="2.99878">
        <ele>494.1</ele>
        <time>2018-05-19T10:59:36Z</time>
      </trkpt>
      <trkpt lat="44.11249" lon="2.99882">
        <ele>494.2</ele>
        <time>2018-05-19T10:59:37Z</time>
      </trkpt>
      <trkpt lat="44.1125" lon="2.99886">
        <ele>494.4</ele>
        <time>2018-05-19T10:59:38Z</time>
      </trkpt>
      <trkpt lat="44.11252" lon="2.99891">
        <ele>494.5</ele>
        <time>2018-05-19T10:59:39Z</time>
      </trkpt>
      <trkpt lat="44.11254" lon="2.99895">
        <ele>494.6</ele>
        <time>2018-05-19T10:59:40Z</time>
      </trkpt>
      <trkpt lat="44.11256" lon="2.99898">
        <ele>494.7</ele>
        <time>2018-05-19T10:59:41Z</time>
      </trkpt>
      <trkpt lat="44.11258" lon="2.99902">
        <ele>494.8</ele>
        <time>2018-05-19T10:59:42Z</time>
      </trkpt>
      <trkpt lat="44.11259" lon="2.99906">
        <ele>495</ele>
        <time>2018-05-19T10:59:43Z</time>
      </trkpt>
      <trkpt lat="44.11261" lon="2.9991">
        <ele>495</ele>
        <time>2018-05-19T10:59:44Z</time>
      </trkpt>
      <trkpt lat="44.11262" lon="2.99913">
        <ele>495.1</ele>
        <time>2018-05-19T10:59:45Z</time>
      </trkpt>
      <trkpt lat="44.11264" lon="2.99917">
        <ele>495.2</ele>
        <time>2018-05-19T10:59:46Z</time>
      </trkpt>
      <trkpt lat="44.11265" lon="2.99921">
        <ele>495.2</ele>
        <time>2018-05-19T10:59:47Z</time>
      </trkpt>
      <trkpt lat="44.11267" lon="2.99925">
        <ele>495.3</ele>
        <time>2018-05-19T10:59:48Z</time>
      </trkpt>
      <trkpt lat="44.11269" lon="2.99928">
        <ele>495.4</ele>
        <time>2018-05-19T10:59:49Z</time>
      </trkpt>
      <trkpt lat="44.11271" lon="2.99932">
        <ele>495.4</ele>
        <time>2018-05-19T10:59:50Z</time>
      </trkpt>
      <trkpt lat="44.11272" lon="2.99936">
        <ele>495.5</ele>
        <time>2018-05-19T10:59:51Z</time>
      </trkpt>
      <trkpt lat="44.11274" lon="2.9994">
        <ele>495.6</ele>
        <time>2018-05-19T10:59:52Z</time>
      </trkpt>
      <trkpt lat="44.11275" lon="2.99944">
        <ele>495.8</ele>
        <time>2018-05-19T10:59:53Z</time>
      </trkpt>
      <trkpt lat="44.11277" lon="2.99948">
        <ele>495.9</ele>
        <time>2018-05-19T10:59:54Z</time>
      </trkpt>
      <trkpt lat="44.11279" lon="2.99952">
        <ele>496.1</ele>
        <time>2018-05-19T10:59:55Z</time>
      </trkpt>
      <trkpt lat="44.1128" lon="2.99956">
        <ele>496.2</ele>
        <time>2018-05-19T10:59:56Z</time>
      </trkpt>
      <trkpt lat="44.11282" lon="2.9996">
        <ele>496.4</ele>
        <time>2018-05-19T10:59:57Z</time>
      </trkpt>
      <trkpt lat="44.11283" lon="2.99964">
        <ele>496.5</ele>
        <time>2018-05-19T10:59:58Z</time>
      </trkpt>
      <trkpt lat="44.11285" lon="2.99968">
        <ele>496.6</ele>
        <time>2018-05-19T10:59:59Z</time>
      </trkpt>
      <trkpt lat="44.11287" lon="2.99972">
        <ele>496.7</ele>
        <time>2018-05-19T11:00:00Z</time>
      </trkpt>
      <trkpt lat="44.11288" lon="2.99976">
        <ele>496.9</ele>
        <time>2018-05-19T11:00:01Z</time>
      </trkpt>
      <trkpt lat="44.1129" lon="2.9998">
        <ele>497</ele>
        <time>2018-05-19T11:00:02Z</time>
      </trkpt>
      <trkpt lat="44.11292" lon="2.99983">
        <ele>497</ele>
        <time>2018-05-19T11:00:03Z</time>
      </trkpt>
      <trkpt lat="44.11294" lon="2.99987">
        <ele>497.1</ele>
        <time>2018-05-19T11:00:04Z</time>
      </trkpt>
      <trkpt lat="44.11295" lon="2.9999">
        <ele>497.1</ele>
        <time>2018-05-19T11:00:05Z</time>
      </trkpt>
      <trkpt lat="44.11297" lon="2.99994">
        <ele>497.2</ele>
        <time>2018-05-19T11:00:06Z</time>
      </trkpt>
      <trkpt lat="44.11298" lon="2.99998">
        <ele>497.3</ele>
        <time>2018-05-19T11:00:07Z</time>
      </trkpt>
      <trkpt lat="44.113" lon="3.00002">
        <ele>497.4</ele>
        <time>2018-05-19T11:00:08Z</time>
      </trkpt>
      <trkpt lat="44.11302" lon="3.00006">
        <ele>497.4</ele>
        <time>2018-05-19T11:00:09Z</time>
      </trkpt>
      <trkpt lat="44.11304" lon="3.0001">
        <ele>497.5</ele>
        <time>2018-05-19T11:00:10Z</time>
      </trkpt>
      <trkpt lat="44.11305" lon="3.00014">
        <ele>497.6</ele>
        <time>2018-05-19T11:00:11Z</time>
      </trkpt>
      <trkpt lat="44.11307" lon="3.00019">
        <ele>497.6</ele>
        <time>2018-05-19T11:00:12Z</time>
      </trkpt>
      <trkpt lat="44.11309" lon="3.00023">
        <ele>497.7</ele>
        <time>2018-05-19T11:00:13Z</time>
      </trkpt>
      <trkpt lat="44.11311" lon="3.00027">
        <ele>497.8</ele>
        <time>2018-05-19T11:00:14Z</time>
      </trkpt>
      <trkpt lat="44.11313" lon="3.00031">
        <ele>497.9</ele>
        <time>2018-05-19T11:00:15Z</time>
      </trkpt>
      <trkpt lat="44.11315" lon="3.00036">
        <ele>498</ele>
        <time>2018-05-19T11:00:16Z</time>
      </trkpt>
      <trkpt lat="44.11317" lon="3.0004">
        <ele>498.1</ele>
        <time>2018-05-19T11:00:17Z</time>
      </trkpt>
      <trkpt lat="44.11318" lon="3.00044">
        <ele>498.2</ele>
        <time>2018-05-19T11:00:18Z</time>
      </trkpt>
      <trkpt lat="44.1132" lon="3.00048">
        <ele>498.3</ele>
        <time>2018-05-19T11:00:19Z</time>
      </trkpt>
      <trkpt lat="44.11322" lon="3.00051">
        <ele>498.4</ele>
        <time>2018-05-19T11:00:20Z</time>
      </trkpt>
      <trkpt lat="44.11323" lon="3.00055">
        <ele>498.5</ele>
        <time>2018-05-19T11:00:21Z</time>
      </trkpt>
      <trkpt lat="44.11325" lon="3.00059">
        <ele>498.6</ele>
        <time>2018-05-19T11:00:22Z</time>
      </trkpt>
      <trkpt lat="44.11327" lon="3.00062">
        <ele>498.8</ele>
        <time>2018-05-19T11:00:23Z</time>
      </trkpt>
      <trkpt lat="44.11329" lon="3.00066">
        <ele>498.9</ele>
        <time>2018-05-19T11:00:24Z</time>
      </trkpt>
      <trkpt lat="44.11331" lon="3.00069">
        <ele>499</ele>
        <time>2018-05-19T11:00:25Z</time>
      </trkpt>
      <trkpt lat="44.11333" lon="3.00072">
        <ele>499.1</ele>
        <time>2018-05-19T11:00:26Z</time>
      </trkpt>
      <trkpt lat="44.11335" lon="3.00075">
        <ele>499.2</ele>
        <time>2018-05-19T11:00:27Z</time>
      </trkpt>
      <trkpt lat="44.11338" lon="3.00081">
        <ele>499.3</ele>
        <time>2018-05-19T11:00:29Z</time>
      </trkpt>
      <trkpt lat="44.1134" lon="3.00087">
        <ele>499.4</ele>
        <time>2018-05-19T11:00:31Z</time>
      </trkpt>
      <trkpt lat="44.11344" lon="3.00092">
        <ele>499.5</ele>
        <time>2018-05-19T11:00:33Z</time>
      </trkpt>
      <trkpt lat="44.11347" lon="3.00097">
        <ele>499.6</ele>
        <time>2018-05-19T11:00:35Z</time>
      </trkpt>
      <trkpt lat="44.1135" lon="3.00102">
        <ele>499.8</ele>
        <time>2018-05-19T11:00:37Z</time>
      </trkpt>
      <trkpt lat="44.11353" lon="3.00107">
        <ele>500</ele>
        <time>2018-05-19T11:00:39Z</time>
      </trkpt>
      <trkpt lat="44.11355" lon="3.00113">
        <ele>500.2</ele>
        <time>2018-05-19T11:00:41Z</time>
      </trkpt>
      <trkpt lat="44.11357" lon="3.00119">
        <ele>500.4</ele>
        <time>2018-05-19T11:00:43Z</time>
      </trkpt>
      <trkpt lat="44.11359" lon="3.00124">
        <ele>500.6</ele>
        <time>2018-05-19T11:00:45Z</time>
      </trkpt>
      <trkpt lat="44.11361" lon="3.00129">
        <ele>500.7</ele>
        <time>2018-05-19T11:00:47Z</time>
      </trkpt>
      <trkpt lat="44.11364" lon="3.00134">
        <ele>500.8</ele>
        <time>2018-05-19T11:00:49Z</time>
      </trkpt>
      <trkpt lat="44.11366" lon="3.0014">
        <ele>500.9</ele>
        <time>2018-05-19T11:00:51Z</time>
      </trkpt>
      <trkpt lat="44.11367" lon="3.00143">
        <ele>500.9</ele>
        <time>2018-05-19T11:00:52Z</time>
      </trkpt>
      <trkpt lat="44.11369" lon="3.00147">
        <ele>501</ele>
        <time>2018-05-19T11:00:53Z</time>
      </trkpt>
      <trkpt lat="44.1137" lon="3.00151">
        <ele>501</ele>
        <time>2018-05-19T11:00:54Z</time>
      </trkpt>
      <trkpt lat="44.11372" lon="3.00155">
        <ele>501.1</ele>
        <time>2018-05-19T11:00:55Z</time>
      </trkpt>
      <trkpt lat="44.11374" lon="3.00158">
        <ele>501.1</ele>
        <time>2018-05-19T11:00:56Z</time>
      </trkpt>
      <trkpt lat="44.11376" lon="3.00161">
        <ele>501.1</ele>
        <time>2018-05-19T11:00:57Z</time>
      </trkpt>
      <trkpt lat="44.11377" lon="3.00165">
        <ele>501.2</ele>
        <time>2018-05-19T11:00:58Z</time>
      </trkpt>
      <trkpt lat="44.11379" lon="3.00168">
        <ele>501.2</ele>
        <time>2018-05-19T11:00:59Z</time>
      </trkpt>
      <trkpt lat="44.1138" lon="3.00172">
        <ele>501.3</ele>
        <time>2018-05-19T11:01:00Z</time>
      </trkpt>
      <trkpt lat="44.11382" lon="3.00176">
        <ele>501.3</ele>
        <time>2018-05-19T11:01:01Z</time>
      </trkpt>
      <trkpt lat="44.11384" lon="3.00179">
        <ele>501.3</ele>
        <time>2018-05-19T11:01:02Z</time>
      </trkpt>
      <trkpt lat="44.11386" lon="3.00183">
        <ele>501.4</ele>
        <time>2018-05-19T11:01:03Z</time>
      </trkpt>
      <trkpt lat="44.11388" lon="3.00186">
        <ele>501.4</ele>
        <time>2018-05-19T11:01:04Z</time>
      </trkpt>
      <trkpt lat="44.11391" lon="3.00189">
        <ele>501.4</ele>
        <time>2018-05-19T11:01:05Z</time>
      </trkpt>
      <trkpt lat="44.11393" lon="3.00192">
        <ele>501.4</ele>
        <time>2018-05-19T11:01:06Z</time>
      </trkpt>
      <trkpt lat="44.11396" lon="3.00195">
        <ele>501.5</ele>
        <time>2018-05-19T11:01:07Z</time>
      </trkpt>
      <trkpt lat="44.11398" lon="3.00198">
        <ele>501.5</ele>
        <time>2018-05-19T11:01:08Z</time>
      </trkpt>
      <trkpt lat="44.11402" lon="3.00203">
        <ele>501.6</ele>
        <time>2018-05-19T11:01:10Z</time>
      </trkpt>
      <trkpt lat="44.11405" lon="3.00207">
        <ele>501.7</ele>
        <time>2018-05-19T11:01:12Z</time>
      </trkpt>
      <trkpt lat="44.11408" lon="3.00212">
        <ele>501.7</ele>
        <time>2018-05-19T11:01:14Z</time>
      </trkpt>
      <trkpt lat="44.11411" lon="3.00215">
        <ele>501.9</ele>
        <time>2018-05-19T11:01:16Z</time>
      </trkpt>
      <trkpt lat="44.11413" lon="3.00219">
        <ele>502</ele>
        <time>2018-05-19T11:01:18Z</time>
      </trkpt>
      <trkpt lat="44.11415" lon="3.00222">
        <ele>502.2</ele>
        <time>2018-05-19T11:01:20Z</time>
      </trkpt>
      <trkpt lat="44.11418" lon="3.00225">
        <ele>502.5</ele>
        <time>2018-05-19T11:01:22Z</time>
      </trkpt>
      <trkpt lat="44.11421" lon="3.00228">
        <ele>502.7</ele>
        <time>2018-05-19T11:01:24Z</time>
      </trkpt>
      <trkpt lat="44.11422" lon="3.00232">
        <ele>503.2</ele>
        <time>2018-05-19T11:01:27Z</time>
      </trkpt>
      <trkpt lat="44.11419" lon="3.00234">
        <ele>511.7</ele>
        <time>2018-05-19T11:01:31Z</time>
      </trkpt>
      <trkpt lat="44.11415" lon="3.00233">
        <ele>515.1</ele>
        <time>2018-05-19T11:01:34Z</time>
      </trkpt>
      <trkpt lat="44.11412" lon="3.00232">
        <ele>515.3</ele>
        <time>2018-05-19T11:01:36Z</time>
      </trkpt>
      <trkpt lat="44.11409" lon="3.00229">
        <ele>515.5</ele>
        <time>2018-05-19T11:01:39Z</time>
      </trkpt>
      <trkpt lat="44.11406" lon="3.00226">
        <ele>515.8</ele>
        <time>2018-05-19T11:01:41Z</time>
      </trkpt>
      <trkpt lat="44.11404" lon="3.00224">
        <ele>516</ele>
        <time>2018-05-19T11:01:43Z</time>
      </trkpt>
      <trkpt lat="44.114" lon="3.00222">
        <ele>516.2</ele>
        <time>2018-05-19T11:01:45Z</time>
      </trkpt>
      <trkpt lat="44.11397" lon="3.0022">
        <ele>516.4</ele>
        <time>2018-05-19T11:01:47Z</time>
      </trkpt>
      <trkpt lat="44.11393" lon="3.00219">
        <ele>516.7</ele>
        <time>2018-05-19T11:01:49Z</time>
      </trkpt>
      <trkpt lat="44.11389" lon="3.00218">
        <ele>516.9</ele>
        <time>2018-05-19T11:01:51Z</time>
      </trkpt>
      <trkpt lat="44.11386" lon="3.00216">
        <ele>517.1</ele>
        <time>2018-05-19T11:01:53Z</time>
      </trkpt>
      <trkpt lat="44.11383" lon="3.00214">
        <ele>517.3</ele>
        <time>2018-05-19T11:01:55Z</time>
      </trkpt>
      <trkpt lat="44.11379" lon="3.00211">
        <ele>517.5</ele>
        <time>2018-05-19T11:01:57Z</time>
      </trkpt>
      <trkpt lat="44.11375" lon="3.00209">
        <ele>517.8</ele>
        <time>2018-05-19T11:01:59Z</time>
      </trkpt>
      <trkpt lat="44.11371" lon="3.00207">
        <ele>518</ele>
        <time>2018-05-19T11:02:01Z</time>
      </trkpt>
      <trkpt lat="44.11368" lon="3.00204">
        <ele>518.2</ele>
        <time>2018-05-19T11:02:03Z</time>
      </trkpt>
      <trkpt lat="44.11364" lon="3.00201">
        <ele>518.5</ele>
        <time>2018-05-19T11:02:06Z</time>
      </trkpt>
      <trkpt lat="44.11359" lon="3.002">
        <ele>518.7</ele>
        <time>2018-05-19T11:02:08Z</time>
      </trkpt>
      <trkpt lat="44.11356" lon="3.00199">
        <ele>518.9</ele>
        <time>2018-05-19T11:02:10Z</time>
      </trkpt>
      <trkpt lat="44.11352" lon="3.00197">
        <ele>519.2</ele>
        <time>2018-05-19T11:02:12Z</time>
      </trkpt>
      <trkpt lat="44.11348" lon="3.00196">
        <ele>519.4</ele>
        <time>2018-05-19T11:02:14Z</time>
      </trkpt>
      <trkpt lat="44.11345" lon="3.00194">
        <ele>519.6</ele>
        <time>2018-05-19T11:02:16Z</time>
      </trkpt>
      <trkpt lat="44.11342" lon="3.00193">
        <ele>519.9</ele>
        <time>2018-05-19T11:02:18Z</time>
      </trkpt>
      <trkpt lat="44.11338" lon="3.00192">
        <ele>520.1</ele>
        <time>2018-05-19T11:02:20Z</time>
      </trkpt>
      <trkpt lat="44.11334" lon="3.00191">
        <ele>520.3</ele>
        <time>2018-05-19T11:02:22Z</time>
      </trkpt>
      <trkpt lat="44.11331" lon="3.0019">
        <ele>520.6</ele>
        <time>2018-05-19T11:02:24Z</time>
      </trkpt>
      <trkpt lat="44.11327" lon="3.00188">
        <ele>520.9</ele>
        <time>2018-05-19T11:02:26Z</time>
      </trkpt>
      <trkpt lat="44.11323" lon="3.00187">
        <ele>521.2</ele>
        <time>2018-05-19T11:02:28Z</time>
      </trkpt>
      <trkpt lat="44.1132" lon="3.00185">
        <ele>521.5</ele>
        <time>2018-05-19T11:02:30Z</time>
      </trkpt>
      <trkpt lat="44.11317" lon="3.00183">
        <ele>521.8</ele>
        <time>2018-05-19T11:02:32Z</time>
      </trkpt>
      <trkpt lat="44.11313" lon="3.00181">
        <ele>522.1</ele>
        <time>2018-05-19T11:02:34Z</time>
      </trkpt>
      <trkpt lat="44.1131" lon="3.00177">
        <ele>522.4</ele>
        <time>2018-05-19T11:02:37Z</time>
      </trkpt>
      <trkpt lat="44.11308" lon="3.00173">
        <ele>522.8</ele>
        <time>2018-05-19T11:02:40Z</time>
      </trkpt>
      <trkpt lat="44.11305" lon="3.0017">
        <ele>523.1</ele>
        <time>2018-05-19T11:02:43Z</time>
      </trkpt>
      <trkpt lat="44.11301" lon="3.00168">
        <ele>523.5</ele>
        <time>2018-05-19T11:02:46Z</time>
      </trkpt>
      <trkpt lat="44.11298" lon="3.00167">
        <ele>523.9</ele>
        <time>2018-05-19T11:02:48Z</time>
      </trkpt>
      <trkpt lat="44.11294" lon="3.00166">
        <ele>524.2</ele>
        <time>2018-05-19T11:02:50Z</time>
      </trkpt>
      <trkpt lat="44.11292" lon="3.00165">
        <ele>524.5</ele>
        <time>2018-05-19T11:02:52Z</time>
      </trkpt>
      <trkpt lat="44.11289" lon="3.00162">
        <ele>524.8</ele>
        <time>2018-05-19T11:02:55Z</time>
      </trkpt>
      <trkpt lat="44.11286" lon="3.00159">
        <ele>525.3</ele>
        <time>2018-05-19T11:02:59Z</time>
      </trkpt>
      <trkpt lat="44.11284" lon="3.00157">
        <ele>525.6</ele>
        <time>2018-05-19T11:03:01Z</time>
      </trkpt>
      <trkpt lat="44.11283" lon="3.00153">
        <ele>526.1</ele>
        <time>2018-05-19T11:03:04Z</time>
      </trkpt>
      <trkpt lat="44.11281" lon="3.0015">
        <ele>526.5</ele>
        <time>2018-05-19T11:03:07Z</time>
      </trkpt>
      <trkpt lat="44.11278" lon="3.00146">
        <ele>527.2</ele>
        <time>2018-05-19T11:03:10Z</time>
      </trkpt>
      <trkpt lat="44.11275" lon="3.00144">
        <ele>527.9</ele>
        <time>2018-05-19T11:03:12Z</time>
      </trkpt>
      <trkpt lat="44.11272" lon="3.00142">
        <ele>528.4</ele>
        <time>2018-05-19T11:03:14Z</time>
      </trkpt>
      <trkpt lat="44.11269" lon="3.0014">
        <ele>529.1</ele>
        <time>2018-05-19T11:03:16Z</time>
      </trkpt>
      <trkpt lat="44.11266" lon="3.00137">
        <ele>529.9</ele>
        <time>2018-05-19T11:03:19Z</time>
      </trkpt>
      <trkpt lat="44.11263" lon="3.00135">
        <ele>530.5</ele>
        <time>2018-05-19T11:03:21Z</time>
      </trkpt>
      <trkpt lat="44.11261" lon="3.00133">
        <ele>531.1</ele>
        <time>2018-05-19T11:03:24Z</time>
      </trkpt>
      <trkpt lat="44.11258" lon="3.00131">
        <ele>531.7</ele>
        <time>2018-05-19T11:03:27Z</time>
      </trkpt>
      <trkpt lat="44.11256" lon="3.00129">
        <ele>532.2</ele>
        <time>2018-05-19T11:03:29Z</time>
      </trkpt>
      <trkpt lat="44.11252" lon="3.00126">
        <ele>532.9</ele>
        <time>2018-05-19T11:03:31Z</time>
      </trkpt>
      <trkpt lat="44.11248" lon="3.00124">
        <ele>533.6</ele>
        <time>2018-05-19T11:03:33Z</time>
      </trkpt>
      <trkpt lat="44.11245" lon="3.00122">
        <ele>534.2</ele>
        <time>2018-05-19T11:03:35Z</time>
      </trkpt>
      <trkpt lat="44.11242" lon="3.00121">
        <ele>534.8</ele>
        <time>2018-05-19T11:03:37Z</time>
      </trkpt>
      <trkpt lat="44.11239" lon="3.00119">
        <ele>535.3</ele>
        <time>2018-05-19T11:03:39Z</time>
      </trkpt>
      <trkpt lat="44.11237" lon="3.00116">
        <ele>535.8</ele>
        <time>2018-05-19T11:03:41Z</time>
      </trkpt>
      <trkpt lat="44.11235" lon="3.00112">
        <ele>536.5</ele>
        <time>2018-05-19T11:03:44Z</time>
      </trkpt>
      <trkpt lat="44.11232" lon="3.00109">
        <ele>537</ele>
        <time>2018-05-19T11:03:47Z</time>
      </trkpt>
      <trkpt lat="44.1123" lon="3.00105">
        <ele>537.6</ele>
        <time>2018-05-19T11:03:50Z</time>
      </trkpt>
      <trkpt lat="44.11227" lon="3.00103">
        <ele>538.1</ele>
        <time>2018-05-19T11:03:52Z</time>
      </trkpt>
      <trkpt lat="44.11223" lon="3.00102">
        <ele>538.7</ele>
        <time>2018-05-19T11:03:54Z</time>
      </trkpt>
      <trkpt lat="44.1122" lon="3.00101">
        <ele>539.3</ele>
        <time>2018-05-19T11:03:56Z</time>
      </trkpt>
      <trkpt lat="44.11217" lon="3.001">
        <ele>539.7</ele>
        <time>2018-05-19T11:03:58Z</time>
      </trkpt>
      <trkpt lat="44.11215" lon="3.00097">
        <ele>540.1</ele>
        <time>2018-05-19T11:04:00Z</time>
      </trkpt>
      <trkpt lat="44.11213" lon="3.00092">
        <ele>540.6</ele>
        <time>2018-05-19T11:04:04Z</time>
      </trkpt>
      <trkpt lat="44.11212" lon="3.00089">
        <ele>541</ele>
        <time>2018-05-19T11:04:07Z</time>
      </trkpt>
      <trkpt lat="44.1121" lon="3.00085">
        <ele>541.3</ele>
        <time>2018-05-19T11:04:10Z</time>
      </trkpt>
      <trkpt lat="44.11209" lon="3.00082">
        <ele>541.7</ele>
        <time>2018-05-19T11:04:13Z</time>
      </trkpt>
      <trkpt lat="44.11209" lon="3.00078">
        <ele>542.1</ele>
        <time>2018-05-19T11:04:16Z</time>
      </trkpt>
      <trkpt lat="44.11207" lon="3.00076">
        <ele>542.4</ele>
        <time>2018-05-19T11:04:18Z</time>
      </trkpt>
      <trkpt lat="44.11203" lon="3.00073">
        <ele>542.8</ele>
        <time>2018-05-19T11:04:20Z</time>
      </trkpt>
      <trkpt lat="44.112" lon="3.00071">
        <ele>543.2</ele>
        <time>2018-05-19T11:04:22Z</time>
      </trkpt>
      <trkpt lat="44.11196" lon="3.00069">
        <ele>543.6</ele>
        <time>2018-05-19T11:04:25Z</time>
      </trkpt>
      <trkpt lat="44.11193" lon="3.00065">
        <ele>544.1</ele>
        <time>2018-05-19T11:04:28Z</time>
      </trkpt>
      <trkpt lat="44.1119" lon="3.00063">
        <ele>544.4</ele>
        <time>2018-05-19T11:04:30Z</time>
      </trkpt>
      <trkpt lat="44.11185" lon="3.0006">
        <ele>544.9</ele>
        <time>2018-05-19T11:04:32Z</time>
      </trkpt>
      <trkpt lat="44.11183" lon="3.00059">
        <ele>545.2</ele>
        <time>2018-05-19T11:04:33Z</time>
      </trkpt>
      <trkpt lat="44.11178" lon="3.00056">
        <ele>545.7</ele>
        <time>2018-05-19T11:04:35Z</time>
      </trkpt>
      <trkpt lat="44.11175" lon="3.00053">
        <ele>546</ele>
        <time>2018-05-19T11:04:37Z</time>
      </trkpt>
      <trkpt lat="44.11171" lon="3.0005">
        <ele>546.5</ele>
        <time>2018-05-19T11:04:39Z</time>
      </trkpt>
      <trkpt lat="44.11167" lon="3.00049">
        <ele>546.8</ele>
        <time>2018-05-19T11:04:41Z</time>
      </trkpt>
      <trkpt lat="44.11164" lon="3.00048">
        <ele>547.2</ele>
        <time>2018-05-19T11:04:43Z</time>
      </trkpt>
      <trkpt lat="44.1116" lon="3.00046">
        <ele>547.6</ele>
        <time>2018-05-19T11:04:45Z</time>
      </trkpt>
      <trkpt lat="44.11156" lon="3.00044">
        <ele>548</ele>
        <time>2018-05-19T11:04:48Z</time>
      </trkpt>
      <trkpt lat="44.11154" lon="3.00042">
        <ele>548.3</ele>
        <time>2018-05-19T11:04:51Z</time>
      </trkpt>
      <trkpt lat="44.11151" lon="3.00038">
        <ele>548.6</ele>
        <time>2018-05-19T11:04:54Z</time>
      </trkpt>
      <trkpt lat="44.11149" lon="3.00034">
        <ele>549</ele>
        <time>2018-05-19T11:04:57Z</time>
      </trkpt>
      <trkpt lat="44.11148" lon="3.0003">
        <ele>549.3</ele>
        <time>2018-05-19T11:05:00Z</time>
      </trkpt>
      <trkpt lat="44.11147" lon="3.00025">
        <ele>549.7</ele>
        <time>2018-05-19T11:05:03Z</time>
      </trkpt>
      <trkpt lat="44.11145" lon="3.00021">
        <ele>550.1</ele>
        <time>2018-05-19T11:05:06Z</time>
      </trkpt>
      <trkpt lat="44.11143" lon="3.00018">
        <ele>550.4</ele>
        <time>2018-05-19T11:05:08Z</time>
      </trkpt>
      <trkpt lat="44.11141" lon="3.00016">
        <ele>550.7</ele>
        <time>2018-05-19T11:05:10Z</time>
      </trkpt>
      <trkpt lat="44.1114" lon="3.00012">
        <ele>551</ele>
        <time>2018-05-19T11:05:13Z</time>
      </trkpt>
      <trkpt lat="44.11137" lon="3.00007">
        <ele>551.4</ele>
        <time>2018-05-19T11:05:16Z</time>
      </trkpt>
      <trkpt lat="44.11136" lon="3.00004">
        <ele>551.7</ele>
        <time>2018-05-19T11:05:18Z</time>
      </trkpt>
      <trkpt lat="44.11136" lon="2.99999">
        <ele>552.1</ele>
        <time>2018-05-19T11:05:22Z</time>
      </trkpt>
      <trkpt lat="44.11136" lon="2.99993">
        <ele>552.5</ele>
        <time>2018-05-19T11:05:25Z</time>
      </trkpt>
      <trkpt lat="44.11134" lon="2.99989">
        <ele>552.9</ele>
        <time>2018-05-19T11:05:27Z</time>
      </trkpt>
      <trkpt lat="44.11131" lon="2.99986">
        <ele>553.3</ele>
        <time>2018-05-19T11:05:29Z</time>
      </trkpt>
      <trkpt lat="44.11129" lon="2.99982">
        <ele>553.7</ele>
        <time>2018-05-19T11:05:31Z</time>
      </trkpt>
      <trkpt lat="44.11125" lon="2.99979">
        <ele>554.1</ele>
        <time>2018-05-19T11:05:34Z</time>
      </trkpt>
      <trkpt lat="44.11122" lon="2.99977">
        <ele>554.5</ele>
        <time>2018-05-19T11:05:36Z</time>
      </trkpt>
      <trkpt lat="44.11119" lon="2.99975">
        <ele>554.9</ele>
        <time>2018-05-19T11:05:38Z</time>
      </trkpt>
      <trkpt lat="44.11116" lon="2.99974">
        <ele>555.2</ele>
        <time>2018-05-19T11:05:40Z</time>
      </trkpt>
      <trkpt lat="44.11113" lon="2.9997">
        <ele>555.6</ele>
        <time>2018-05-19T11:05:43Z</time>
      </trkpt>
      <trkpt lat="44.11111" lon="2.99967">
        <ele>556</ele>
        <time>2018-05-19T11:05:45Z</time>
      </trkpt>
      <trkpt lat="44.11108" lon="2.99965">
        <ele>556.3</ele>
        <time>2018-05-19T11:05:47Z</time>
      </trkpt>
      <trkpt lat="44.11106" lon="2.99961">
        <ele>556.6</ele>
        <time>2018-05-19T11:05:49Z</time>
      </trkpt>
      <trkpt lat="44.11105" lon="2.99958">
        <ele>556.9</ele>
        <time>2018-05-19T11:05:51Z</time>
      </trkpt>
      <trkpt lat="44.11103" lon="2.99954">
        <ele>557.3</ele>
        <time>2018-05-19T11:05:53Z</time>
      </trkpt>
      <trkpt lat="44.11101" lon="2.99951">
        <ele>557.6</ele>
        <time>2018-05-19T11:05:55Z</time>
      </trkpt>
      <trkpt lat="44.11101" lon="2.99946">
        <ele>558.1</ele>
        <time>2018-05-19T11:05:58Z</time>
      </trkpt>
      <trkpt lat="44.11099" lon="2.99943">
        <ele>558.4</ele>
        <time>2018-05-19T11:06:00Z</time>
      </trkpt>
      <trkpt lat="44.11095" lon="2.99941">
        <ele>558.9</ele>
        <time>2018-05-19T11:06:02Z</time>
      </trkpt>
      <trkpt lat="44.11091" lon="2.99938">
        <ele>559.5</ele>
        <time>2018-05-19T11:06:04Z</time>
      </trkpt>
      <trkpt lat="44.11088" lon="2.99936">
        <ele>559.9</ele>
        <time>2018-05-19T11:06:06Z</time>
      </trkpt>
      <trkpt lat="44.11085" lon="2.99931">
        <ele>560.4</ele>
        <time>2018-05-19T11:06:09Z</time>
      </trkpt>
      <trkpt lat="44.11081" lon="2.99929">
        <ele>561</ele>
        <time>2018-05-19T11:06:11Z</time>
      </trkpt>
      <trkpt lat="44.11076" lon="2.99926">
        <ele>561.6</ele>
        <time>2018-05-19T11:06:13Z</time>
      </trkpt>
      <trkpt lat="44.11072" lon="2.99924">
        <ele>562.1</ele>
        <time>2018-05-19T11:06:15Z</time>
      </trkpt>
      <trkpt lat="44.11069" lon="2.99921">
        <ele>562.6</ele>
        <time>2018-05-19T11:06:17Z</time>
      </trkpt>
      <trkpt lat="44.11067" lon="2.99918">
        <ele>563</ele>
        <time>2018-05-19T11:06:19Z</time>
      </trkpt>
      <trkpt lat="44.11065" lon="2.99914">
        <ele>563.4</ele>
        <time>2018-05-19T11:06:22Z</time>
      </trkpt>
      <trkpt lat="44.11062" lon="2.99909">
        <ele>563.9</ele>
        <time>2018-05-19T11:06:25Z</time>
      </trkpt>
      <trkpt lat="44.1106" lon="2.99907">
        <ele>564.2</ele>
        <time>2018-05-19T11:06:27Z</time>
      </trkpt>
      <trkpt lat="44.11057" lon="2.99905">
        <ele>564.5</ele>
        <time>2018-05-19T11:06:29Z</time>
      </trkpt>
      <trkpt lat="44.11056" lon="2.99902">
        <ele>564.8</ele>
        <time>2018-05-19T11:06:32Z</time>
      </trkpt>
      <trkpt lat="44.11054" lon="2.99898">
        <ele>565.2</ele>
        <time>2018-05-19T11:06:36Z</time>
      </trkpt>
      <trkpt lat="44.11052" lon="2.99894">
        <ele>565.5</ele>
        <time>2018-05-19T11:06:39Z</time>
      </trkpt>
      <trkpt lat="44.1105" lon="2.9989">
        <ele>565.8</ele>
        <time>2018-05-19T11:06:42Z</time>
      </trkpt>
      <trkpt lat="44.11049" lon="2.99886">
        <ele>566.2</ele>
        <time>2018-05-19T11:06:45Z</time>
      </trkpt>
      <trkpt lat="44.11047" lon="2.99883">
        <ele>566.4</ele>
        <time>2018-05-19T11:06:47Z</time>
      </trkpt>
      <trkpt lat="44.11044" lon="2.9988">
        <ele>566.8</ele>
        <time>2018-05-19T11:06:50Z</time>
      </trkpt>
      <trkpt lat="44.11042" lon="2.99877">
        <ele>567</ele>
        <time>2018-05-19T11:06:52Z</time>
      </trkpt>
      <trkpt lat="44.11039" lon="2.99873">
        <ele>567.4</ele>
        <time>2018-05-19T11:06:55Z</time>
      </trkpt>
      <trkpt lat="44.11036" lon="2.9987">
        <ele>567.7</ele>
        <time>2018-05-19T11:06:57Z</time>
      </trkpt>
      <trkpt lat="44.11034" lon="2.99866">
        <ele>568.1</ele>
        <time>2018-05-19T11:07:00Z</time>
      </trkpt>
      <trkpt lat="44.11034" lon="2.99861">
        <ele>568.4</ele>
        <time>2018-05-19T11:07:03Z</time>
      </trkpt>
      <trkpt lat="44.11033" lon="2.99858">
        <ele>568.6</ele>
        <time>2018-05-19T11:07:05Z</time>
      </trkpt>
      <trkpt lat="44.1103" lon="2.99854">
        <ele>568.9</ele>
        <time>2018-05-19T11:07:07Z</time>
      </trkpt>
      <trkpt lat="44.11028" lon="2.99851">
        <ele>569.2</ele>
        <time>2018-05-19T11:07:09Z</time>
      </trkpt>
      <trkpt lat="44.11027" lon="2.99848">
        <ele>569.4</ele>
        <time>2018-05-19T11:07:11Z</time>
      </trkpt>
      <trkpt lat="44.11024" lon="2.99844">
        <ele>569.7</ele>
        <time>2018-05-19T11:07:14Z</time>
      </trkpt>
      <trkpt lat="44.11022" lon="2.99842">
        <ele>569.9</ele>
        <time>2018-05-19T11:07:16Z</time>
      </trkpt>
      <trkpt lat="44.11018" lon="2.9984">
        <ele>570.2</ele>
        <time>2018-05-19T11:07:18Z</time>
      </trkpt>
      <trkpt lat="44.11016" lon="2.99837">
        <ele>570.4</ele>
        <time>2018-05-19T11:07:20Z</time>
      </trkpt>
      <trkpt lat="44.11013" lon="2.99833">
        <ele>570.7</ele>
        <time>2018-05-19T11:07:23Z</time>
      </trkpt>
      <trkpt lat="44.11011" lon="2.9983">
        <ele>570.9</ele>
        <time>2018-05-19T11:07:25Z</time>
      </trkpt>
      <trkpt lat="44.11007" lon="2.99828">
        <ele>571.2</ele>
        <time>2018-05-19T11:07:27Z</time>
      </trkpt>
      <trkpt lat="44.11003" lon="2.99826">
        <ele>571.5</ele>
        <time>2018-05-19T11:07:29Z</time>
      </trkpt>
      <trkpt lat="44.10999" lon="2.99823">
        <ele>571.8</ele>
        <time>2018-05-19T11:07:31Z</time>
      </trkpt>
      <trkpt lat="44.10996" lon="2.99821">
        <ele>572</ele>
        <time>2018-05-19T11:07:33Z</time>
      </trkpt>
      <trkpt lat="44.10993" lon="2.99817">
        <ele>572.3</ele>
        <time>2018-05-19T11:07:36Z</time>
      </trkpt>
      <trkpt lat="44.1099" lon="2.99815">
        <ele>572.6</ele>
        <time>2018-05-19T11:07:38Z</time>
      </trkpt>
      <trkpt lat="44.10987" lon="2.99812">
        <ele>572.8</ele>
        <time>2018-05-19T11:07:41Z</time>
      </trkpt>
      <trkpt lat="44.10984" lon="2.99808">
        <ele>573.1</ele>
        <time>2018-05-19T11:07:43Z</time>
      </trkpt>
      <trkpt lat="44.10981" lon="2.99805">
        <ele>573.3</ele>
        <time>2018-05-19T11:07:45Z</time>
      </trkpt>
      <trkpt lat="44.10978" lon="2.99802">
        <ele>573.6</ele>
        <time>2018-05-19T11:07:47Z</time>
      </trkpt>
      <trkpt lat="44.10975" lon="2.99801">
        <ele>573.9</ele>
        <time>2018-05-19T11:07:50Z</time>
      </trkpt>
      <trkpt lat="44.10972" lon="2.998">
        <ele>574.1</ele>
        <time>2018-05-19T11:07:52Z</time>
      </trkpt>
      <trkpt lat="44.10969" lon="2.99797">
        <ele>574.4</ele>
        <time>2018-05-19T11:07:54Z</time>
      </trkpt>
      <trkpt lat="44.10966" lon="2.99795">
        <ele>574.7</ele>
        <time>2018-05-19T11:07:56Z</time>
      </trkpt>
      <trkpt lat="44.10962" lon="2.99792">
        <ele>575</ele>
        <time>2018-05-19T11:07:58Z</time>
      </trkpt>
      <trkpt lat="44.10959" lon="2.99789">
        <ele>575.3</ele>
        <time>2018-05-19T11:08:00Z</time>
      </trkpt>
      <trkpt lat="44.10958" lon="2.99786">
        <ele>575.5</ele>
        <time>2018-05-19T11:08:02Z</time>
      </trkpt>
      <trkpt lat="44.10954" lon="2.99783">
        <ele>575.8</ele>
        <time>2018-05-19T11:08:04Z</time>
      </trkpt>
      <trkpt lat="44.10951" lon="2.9978">
        <ele>576</ele>
        <time>2018-05-19T11:08:06Z</time>
      </trkpt>
      <trkpt lat="44.10949" lon="2.99777">
        <ele>576.3</ele>
        <time>2018-05-19T11:08:08Z</time>
      </trkpt>
      <trkpt lat="44.10945" lon="2.99775">
        <ele>576.5</ele>
        <time>2018-05-19T11:08:10Z</time>
      </trkpt>
      <trkpt lat="44.10942" lon="2.99772">
        <ele>576.8</ele>
        <time>2018-05-19T11:08:12Z</time>
      </trkpt>
      <trkpt lat="44.10939" lon="2.99771">
        <ele>577</ele>
        <time>2018-05-19T11:08:14Z</time>
      </trkpt>
      <trkpt lat="44.10936" lon="2.9977">
        <ele>577.3</ele>
        <time>2018-05-19T11:08:17Z</time>
      </trkpt>
      <trkpt lat="44.10933" lon="2.99768">
        <ele>577.5</ele>
        <time>2018-05-19T11:08:19Z</time>
      </trkpt>
      <trkpt lat="44.10929" lon="2.99766">
        <ele>577.8</ele>
        <time>2018-05-19T11:08:21Z</time>
      </trkpt>
      <trkpt lat="44.10926" lon="2.99764">
        <ele>578.1</ele>
        <time>2018-05-19T11:08:23Z</time>
      </trkpt>
      <trkpt lat="44.10923" lon="2.99762">
        <ele>578.4</ele>
        <time>2018-05-19T11:08:25Z</time>
      </trkpt>
      <trkpt lat="44.1092" lon="2.9976">
        <ele>578.7</ele>
        <time>2018-05-19T11:08:27Z</time>
      </trkpt>
      <trkpt lat="44.10916" lon="2.99757">
        <ele>579.1</ele>
        <time>2018-05-19T11:08:29Z</time>
      </trkpt>
      <trkpt lat="44.10913" lon="2.99755">
        <ele>579.5</ele>
        <time>2018-05-19T11:08:31Z</time>
      </trkpt>
      <trkpt lat="44.1091" lon="2.99754">
        <ele>579.8</ele>
        <time>2018-05-19T11:08:33Z</time>
      </trkpt>
      <trkpt lat="44.10907" lon="2.99757">
        <ele>580.3</ele>
        <time>2018-05-19T11:08:36Z</time>
      </trkpt>
      <trkpt lat="44.10907" lon="2.99761">
        <ele>580.7</ele>
        <time>2018-05-19T11:08:39Z</time>
      </trkpt>
      <trkpt lat="44.10909" lon="2.99763">
        <ele>581.1</ele>
        <time>2018-05-19T11:08:42Z</time>
      </trkpt>
      <trkpt lat="44.10912" lon="2.99765">
        <ele>581.5</ele>
        <time>2018-05-19T11:08:52Z</time>
      </trkpt>
      <trkpt lat="44.10914" lon="2.99765">
        <ele>581.9</ele>
        <time>2018-05-19T11:09:45Z</time>
      </trkpt>
      <trkpt lat="44.10917" lon="2.99768">
        <ele>582.6</ele>
        <time>2018-05-19T11:09:48Z</time>
      </trkpt>
      <trkpt lat="44.1092" lon="2.99771">
        <ele>583.4</ele>
        <time>2018-05-19T11:09:51Z</time>
      </trkpt>
      <trkpt lat="44.10921" lon="2.99774">
        <ele>583.9</ele>
        <time>2018-05-19T11:09:53Z</time>
      </trkpt>
      <trkpt lat="44.10923" lon="2.99778">
        <ele>584.6</ele>
        <time>2018-05-19T11:09:55Z</time>
      </trkpt>
      <trkpt lat="44.10925" lon="2.99781">
        <ele>585.2</ele>
        <time>2018-05-19T11:09:57Z</time>
      </trkpt>
      <trkpt lat="44.10928" lon="2.99785">
        <ele>585.9</ele>
        <time>2018-05-19T11:10:00Z</time>
      </trkpt>
      <trkpt lat="44.1093" lon="2.99788">
        <ele>586.4</ele>
        <time>2018-05-19T11:10:02Z</time>
      </trkpt>
      <trkpt lat="44.10932" lon="2.99791">
        <ele>586.8</ele>
        <time>2018-05-19T11:10:04Z</time>
      </trkpt>
      <trkpt lat="44.10934" lon="2.99795">
        <ele>587.3</ele>
        <time>2018-05-19T11:10:07Z</time>
      </trkpt>
      <trkpt lat="44.10936" lon="2.99798">
        <ele>587.7</ele>
        <time>2018-05-19T11:10:09Z</time>
      </trkpt>
      <trkpt lat="44.10938" lon="2.99801">
        <ele>588</ele>
        <time>2018-05-19T11:10:11Z</time>
      </trkpt>
      <trkpt lat="44.10941" lon="2.99804">
        <ele>588.3</ele>
        <time>2018-05-19T11:10:13Z</time>
      </trkpt>
      <trkpt lat="44.10943" lon="2.99807">
        <ele>588.7</ele>
        <time>2018-05-19T11:10:15Z</time>
      </trkpt>
      <trkpt lat="44.10945" lon="2.99812">
        <ele>589</ele>
        <time>2018-05-19T11:10:18Z</time>
      </trkpt>
      <trkpt lat="44.10948" lon="2.99815">
        <ele>589.2</ele>
        <time>2018-05-19T11:10:20Z</time>
      </trkpt>
      <trkpt lat="44.1095" lon="2.99818">
        <ele>589.5</ele>
        <time>2018-05-19T11:10:22Z</time>
      </trkpt>
      <trkpt lat="44.10951" lon="2.99822">
        <ele>589.7</ele>
        <time>2018-05-19T11:10:24Z</time>
      </trkpt>
      <trkpt lat="44.10953" lon="2.99826">
        <ele>589.9</ele>
        <time>2018-05-19T11:10:26Z</time>
      </trkpt>
      <trkpt lat="44.10954" lon="2.9983">
        <ele>590.1</ele>
        <time>2018-05-19T11:10:28Z</time>
      </trkpt>
      <trkpt lat="44.10956" lon="2.99834">
        <ele>590.3</ele>
        <time>2018-05-19T11:10:30Z</time>
      </trkpt>
      <trkpt lat="44.10959" lon="2.99838">
        <ele>590.5</ele>
        <time>2018-05-19T11:10:32Z</time>
      </trkpt>
      <trkpt lat="44.10961" lon="2.99842">
        <ele>590.6</ele>
        <time>2018-05-19T11:10:34Z</time>
      </trkpt>
      <trkpt lat="44.10963" lon="2.99846">
        <ele>590.8</ele>
        <time>2018-05-19T11:10:37Z</time>
      </trkpt>
      <trkpt lat="44.10965" lon="2.9985">
        <ele>590.9</ele>
        <time>2018-05-19T11:10:39Z</time>
      </trkpt>
      <trkpt lat="44.10967" lon="2.99854">
        <ele>591</ele>
        <time>2018-05-19T11:10:41Z</time>
      </trkpt>
      <trkpt lat="44.10968" lon="2.99858">
        <ele>591.2</ele>
        <time>2018-05-19T11:10:43Z</time>
      </trkpt>
      <trkpt lat="44.1097" lon="2.99863">
        <ele>591.3</ele>
        <time>2018-05-19T11:10:45Z</time>
      </trkpt>
      <trkpt lat="44.10971" lon="2.99867">
        <ele>591.5</ele>
        <time>2018-05-19T11:10:47Z</time>
      </trkpt>
      <trkpt lat="44.10973" lon="2.99871">
        <ele>591.7</ele>
        <time>2018-05-19T11:10:49Z</time>
      </trkpt>
      <trkpt lat="44.10975" lon="2.99875">
        <ele>591.9</ele>
        <time>2018-05-19T11:10:51Z</time>
      </trkpt>
      <trkpt lat="44.10977" lon="2.9988">
        <ele>592.1</ele>
        <time>2018-05-19T11:10:53Z</time>
      </trkpt>
      <trkpt lat="44.10978" lon="2.99884">
        <ele>592.3</ele>
        <time>2018-05-19T11:10:55Z</time>
      </trkpt>
      <trkpt lat="44.1098" lon="2.99889">
        <ele>592.5</ele>
        <time>2018-05-19T11:10:57Z</time>
      </trkpt>
      <trkpt lat="44.10982" lon="2.99893">
        <ele>592.8</ele>
        <time>2018-05-19T11:10:59Z</time>
      </trkpt>
      <trkpt lat="44.10984" lon="2.99899">
        <ele>593</ele>
        <time>2018-05-19T11:11:01Z</time>
      </trkpt>
      <trkpt lat="44.10986" lon="2.99904">
        <ele>593.2</ele>
        <time>2018-05-19T11:11:03Z</time>
      </trkpt>
      <trkpt lat="44.10986" lon="2.99909">
        <ele>593.5</ele>
        <time>2018-05-19T11:11:05Z</time>
      </trkpt>
      <trkpt lat="44.10988" lon="2.99915">
        <ele>593.8</ele>
        <time>2018-05-19T11:11:07Z</time>
      </trkpt>
      <trkpt lat="44.1099" lon="2.9992">
        <ele>594</ele>
        <time>2018-05-19T11:11:09Z</time>
      </trkpt>
      <trkpt lat="44.10991" lon="2.99924">
        <ele>594.2</ele>
        <time>2018-05-19T11:11:11Z</time>
      </trkpt>
      <trkpt lat="44.10992" lon="2.99929">
        <ele>594.4</ele>
        <time>2018-05-19T11:11:13Z</time>
      </trkpt>
      <trkpt lat="44.10993" lon="2.99933">
        <ele>594.6</ele>
        <time>2018-05-19T11:11:15Z</time>
      </trkpt>
      <trkpt lat="44.10994" lon="2.99937">
        <ele>594.8</ele>
        <time>2018-05-19T11:11:17Z</time>
      </trkpt>
      <trkpt lat="44.10995" lon="2.99941">
        <ele>595</ele>
        <time>2018-05-19T11:11:19Z</time>
      </trkpt>
      <trkpt lat="44.10996" lon="2.99946">
        <ele>595.2</ele>
        <time>2018-05-19T11:11:21Z</time>
      </trkpt>
      <trkpt lat="44.10997" lon="2.9995">
        <ele>595.4</ele>
        <time>2018-05-19T11:11:23Z</time>
      </trkpt>
      <trkpt lat="44.10999" lon="2.99953">
        <ele>595.6</ele>
        <time>2018-05-19T11:11:25Z</time>
      </trkpt>
      <trkpt lat="44.11" lon="2.99959">
        <ele>595.8</ele>
        <time>2018-05-19T11:11:28Z</time>
      </trkpt>
      <trkpt lat="44.11001" lon="2.99963">
        <ele>596</ele>
        <time>2018-05-19T11:11:30Z</time>
      </trkpt>
      <trkpt lat="44.11002" lon="2.99968">
        <ele>596.1</ele>
        <time>2018-05-19T11:11:32Z</time>
      </trkpt>
      <trkpt lat="44.11002" lon="2.99972">
        <ele>596.2</ele>
        <time>2018-05-19T11:11:34Z</time>
      </trkpt>
      <trkpt lat="44.11003" lon="2.99977">
        <ele>596.4</ele>
        <time>2018-05-19T11:11:36Z</time>
      </trkpt>
      <trkpt lat="44.11005" lon="2.99981">
        <ele>596.5</ele>
        <time>2018-05-19T11:11:38Z</time>
      </trkpt>
      <trkpt lat="44.11006" lon="2.99986">
        <ele>596.7</ele>
        <time>2018-05-19T11:11:40Z</time>
      </trkpt>
      <trkpt lat="44.11007" lon="2.9999">
        <ele>596.8</ele>
        <time>2018-05-19T11:11:42Z</time>
      </trkpt>
      <trkpt lat="44.11007" lon="2.99994">
        <ele>597</ele>
        <time>2018-05-19T11:11:44Z</time>
      </trkpt>
      <trkpt lat="44.11009" lon="2.99998">
        <ele>597.2</ele>
        <time>2018-05-19T11:11:46Z</time>
      </trkpt>
      <trkpt lat="44.1101" lon="3.00003">
        <ele>597.5</ele>
        <time>2018-05-19T11:11:49Z</time>
      </trkpt>
      <trkpt lat="44.11012" lon="3.00008">
        <ele>597.7</ele>
        <time>2018-05-19T11:11:51Z</time>
      </trkpt>
      <trkpt lat="44.11013" lon="3.00011">
        <ele>597.9</ele>
        <time>2018-05-19T11:11:53Z</time>
      </trkpt>
      <trkpt lat="44.11014" lon="3.00015">
        <ele>598.1</ele>
        <time>2018-05-19T11:12:00Z</time>
      </trkpt>
      <trkpt lat="44.11014" lon="3.00019">
        <ele>598.2</ele>
        <time>2018-05-19T11:12:07Z</time>
      </trkpt>
      <trkpt lat="44.11012" lon="3.00022">
        <ele>598.3</ele>
        <time>2018-05-19T11:12:14Z</time>
      </trkpt>
      <trkpt lat="44.11014" lon="3.00024">
        <ele>598.4</ele>
        <time>2018-05-19T11:12:20Z</time>
      </trkpt>
      <trkpt lat="44.11011" lon="3.00023">
        <ele>598.4</ele>
        <time>2018-05-19T11:12:53Z</time>
      </trkpt>
      <trkpt lat="44.11008" lon="3.00023">
        <ele>598.5</ele>
        <time>2018-05-19T11:12:55Z</time>
      </trkpt>
      <trkpt lat="44.11005" lon="3.00024">
        <ele>598.6</ele>
        <time>2018-05-19T11:12:58Z</time>
      </trkpt>
      <trkpt lat="44.11008" lon="3.00025">
        <ele>598.7</ele>
        <time>2018-05-19T11:13:23Z</time>
      </trkpt>
      <trkpt lat="44.11011" lon="3.00025">
        <ele>598.8</ele>
        <time>2018-05-19T11:13:37Z</time>
      </trkpt>
      <trkpt lat="44.11015" lon="3.00028">
        <ele>598.9</ele>
        <time>2018-05-19T11:17:27Z</time>
      </trkpt>
      <trkpt lat="44.11012" lon="3.00027">
        <ele>599</ele>
        <time>2018-05-19T11:17:29Z</time>
      </trkpt>
      <trkpt lat="44.11009" lon="3.00023">
        <ele>599</ele>
        <time>2018-05-19T11:17:31Z</time>
      </trkpt>
      <trkpt lat="44.11007" lon="3.0002">
        <ele>599</ele>
        <time>2018-05-19T11:17:33Z</time>
      </trkpt>
      <trkpt lat="44.11004" lon="3.00016">
        <ele>599.1</ele>
        <time>2018-05-19T11:17:35Z</time>
      </trkpt>
      <trkpt lat="44.11002" lon="3.00011">
        <ele>599.2</ele>
        <time>2018-05-19T11:17:37Z</time>
      </trkpt>
      <trkpt lat="44.11001" lon="3.00007">
        <ele>599.2</ele>
        <time>2018-05-19T11:17:39Z</time>
      </trkpt>
      <trkpt lat="44.11" lon="3.00002">
        <ele>599.3</ele>
        <time>2018-05-19T11:17:41Z</time>
      </trkpt>
      <trkpt lat="44.10998" lon="2.99999">
        <ele>599.3</ele>
        <time>2018-05-19T11:17:42Z</time>
      </trkpt>
      <trkpt lat="44.10996" lon="2.99994">
        <ele>599.4</ele>
        <time>2018-05-19T11:17:44Z</time>
      </trkpt>
      <trkpt lat="44.10994" lon="2.9999">
        <ele>599.5</ele>
        <time>2018-05-19T11:17:46Z</time>
      </trkpt>
      <trkpt lat="44.10992" lon="2.99986">
        <ele>599.5</ele>
        <time>2018-05-19T11:17:48Z</time>
      </trkpt>
      <trkpt lat="44.10989" lon="2.99981">
        <ele>599.7</ele>
        <time>2018-05-19T11:17:50Z</time>
      </trkpt>
      <trkpt lat="44.10986" lon="2.99975">
        <ele>599.9</ele>
        <time>2018-05-19T11:17:52Z</time>
      </trkpt>
      <trkpt lat="44.10985" lon="2.99972">
        <ele>600.1</ele>
        <time>2018-05-19T11:17:53Z</time>
      </trkpt>
      <trkpt lat="44.10982" lon="2.99966">
        <ele>600.4</ele>
        <time>2018-05-19T11:17:55Z</time>
      </trkpt>
      <trkpt lat="44.1098" lon="2.99963">
        <ele>600.6</ele>
        <time>2018-05-19T11:17:56Z</time>
      </trkpt>
      <trkpt lat="44.10978" lon="2.99959">
        <ele>600.8</ele>
        <time>2018-05-19T11:17:57Z</time>
      </trkpt>
      <trkpt lat="44.10976" lon="2.99955">
        <ele>601</ele>
        <time>2018-05-19T11:17:58Z</time>
      </trkpt>
      <trkpt lat="44.10974" lon="2.9995">
        <ele>601.3</ele>
        <time>2018-05-19T11:17:59Z</time>
      </trkpt>
      <trkpt lat="44.10972" lon="2.99946">
        <ele>601.5</ele>
        <time>2018-05-19T11:18:00Z</time>
      </trkpt>
      <trkpt lat="44.1097" lon="2.99942">
        <ele>601.7</ele>
        <time>2018-05-19T11:18:01Z</time>
      </trkpt>
      <trkpt lat="44.10968" lon="2.99938">
        <ele>601.9</ele>
        <time>2018-05-19T11:18:02Z</time>
      </trkpt>
      <trkpt lat="44.10966" lon="2.99934">
        <ele>602.1</ele>
        <time>2018-05-19T11:18:03Z</time>
      </trkpt>
      <trkpt lat="44.10963" lon="2.99931">
        <ele>602.3</ele>
        <time>2018-05-19T11:18:04Z</time>
      </trkpt>
      <trkpt lat="44.10961" lon="2.99928">
        <ele>602.5</ele>
        <time>2018-05-19T11:18:05Z</time>
      </trkpt>
      <trkpt lat="44.10958" lon="2.99925">
        <ele>602.7</ele>
        <time>2018-05-19T11:18:06Z</time>
      </trkpt>
      <trkpt lat="44.10956" lon="2.99922">
        <ele>602.8</ele>
        <time>2018-05-19T11:18:07Z</time>
      </trkpt>
      <trkpt lat="44.10954" lon="2.99919">
        <ele>602.9</ele>
        <time>2018-05-19T11:18:08Z</time>
      </trkpt>
      <trkpt lat="44.10952" lon="2.99915">
        <ele>603</ele>
        <time>2018-05-19T11:18:09Z</time>
      </trkpt>
      <trkpt lat="44.1095" lon="2.99911">
        <ele>603.2</ele>
        <time>2018-05-19T11:18:10Z</time>
      </trkpt>
      <trkpt lat="44.10947" lon="2.99908">
        <ele>603.3</ele>
        <time>2018-05-19T11:18:11Z</time>
      </trkpt>
      <trkpt lat="44.10945" lon="2.99904">
        <ele>603.4</ele>
        <time>2018-05-19T11:18:12Z</time>
      </trkpt>
      <trkpt lat="44.10943" lon="2.99902">
        <ele>603.5</ele>
        <time>2018-05-19T11:18:13Z</time>
      </trkpt>
      <trkpt lat="44.1094" lon="2.99899">
        <ele>603.7</ele>
        <time>2018-05-19T11:18:14Z</time>
      </trkpt>
      <trkpt lat="44.10938" lon="2.99896">
        <ele>603.9</ele>
        <time>2018-05-19T11:18:15Z</time>
      </trkpt>
      <trkpt lat="44.10934" lon="2.99891">
        <ele>604.2</ele>
        <time>2018-05-19T11:18:17Z</time>
      </trkpt>
      <trkpt lat="44.10931" lon="2.99886">
        <ele>604.7</ele>
        <time>2018-05-19T11:18:19Z</time>
      </trkpt>
      <trkpt lat="44.10927" lon="2.99882">
        <ele>605.1</ele>
        <time>2018-05-19T11:18:21Z</time>
      </trkpt>
      <trkpt lat="44.10924" lon="2.99878">
        <ele>605.4</ele>
        <time>2018-05-19T11:18:23Z</time>
      </trkpt>
      <trkpt lat="44.10921" lon="2.99876">
        <ele>605.7</ele>
        <time>2018-05-19T11:18:25Z</time>
      </trkpt>
      <trkpt lat="44.10917" lon="2.99875">
        <ele>606</ele>
        <time>2018-05-19T11:18:27Z</time>
      </trkpt>
      <trkpt lat="44.10914" lon="2.99874">
        <ele>606.3</ele>
        <time>2018-05-19T11:18:29Z</time>
      </trkpt>
      <trkpt lat="44.10909" lon="2.99871">
        <ele>606.6</ele>
        <time>2018-05-19T11:18:31Z</time>
      </trkpt>
      <trkpt lat="44.10904" lon="2.99868">
        <ele>606.9</ele>
        <time>2018-05-19T11:18:33Z</time>
      </trkpt>
      <trkpt lat="44.109" lon="2.99864">
        <ele>607.3</ele>
        <time>2018-05-19T11:18:35Z</time>
      </trkpt>
      <trkpt lat="44.10896" lon="2.99862">
        <ele>607.5</ele>
        <time>2018-05-19T11:18:37Z</time>
      </trkpt>
      <trkpt lat="44.10892" lon="2.99861">
        <ele>607.8</ele>
        <time>2018-05-19T11:18:39Z</time>
      </trkpt>
      <trkpt lat="44.10887" lon="2.9986">
        <ele>608.1</ele>
        <time>2018-05-19T11:18:41Z</time>
      </trkpt>
      <trkpt lat="44.10884" lon="2.9986">
        <ele>608.3</ele>
        <time>2018-05-19T11:18:43Z</time>
      </trkpt>
      <trkpt lat="44.10881" lon="2.9986">
        <ele>608.5</ele>
        <time>2018-05-19T11:18:45Z</time>
      </trkpt>
      <trkpt lat="44.10878" lon="2.99863">
        <ele>608.7</ele>
        <time>2018-05-19T11:18:47Z</time>
      </trkpt>
      <trkpt lat="44.10876" lon="2.99866">
        <ele>608.8</ele>
        <time>2018-05-19T11:18:49Z</time>
      </trkpt>
      <trkpt lat="44.10875" lon="2.99871">
        <ele>609</ele>
        <time>2018-05-19T11:18:51Z</time>
      </trkpt>
      <trkpt lat="44.10873" lon="2.99876">
        <ele>609.2</ele>
        <time>2018-05-19T11:18:53Z</time>
      </trkpt>
      <trkpt lat="44.10869" lon="2.9988">
        <ele>609.5</ele>
        <time>2018-05-19T11:18:55Z</time>
      </trkpt>
      <trkpt lat="44.10868" lon="2.99883">
        <ele>609.7</ele>
        <time>2018-05-19T11:18:56Z</time>
      </trkpt>
      <trkpt lat="44.10865" lon="2.99889">
        <ele>610</ele>
        <time>2018-05-19T11:18:58Z</time>
      </trkpt>
      <trkpt lat="44.10862" lon="2.99895">
        <ele>610.3</ele>
        <time>2018-05-19T11:19:00Z</time>
      </trkpt>
      <trkpt lat="44.10861" lon="2.99901">
        <ele>610.5</ele>
        <time>2018-05-19T11:19:02Z</time>
      </trkpt>
      <trkpt lat="44.10861" lon="2.99906">
        <ele>610.6</ele>
        <time>2018-05-19T11:19:04Z</time>
      </trkpt>
      <trkpt lat="44.10859" lon="2.9991">
        <ele>610.7</ele>
        <time>2018-05-19T11:19:06Z</time>
      </trkpt>
      <trkpt lat="44.10859" lon="2.99915">
        <ele>610.9</ele>
        <time>2018-05-19T11:19:08Z</time>
      </trkpt>
      <trkpt lat="44.10858" lon="2.9992">
        <ele>611</ele>
        <time>2018-05-19T11:19:10Z</time>
      </trkpt>
      <trkpt lat="44.10857" lon="2.99924">
        <ele>611.2</ele>
        <time>2018-05-19T11:19:12Z</time>
      </trkpt>
      <trkpt lat="44.10856" lon="2.99929">
        <ele>611.4</ele>
        <time>2018-05-19T11:19:14Z</time>
      </trkpt>
      <trkpt lat="44.10854" lon="2.99935">
        <ele>611.6</ele>
        <time>2018-05-19T11:19:16Z</time>
      </trkpt>
      <trkpt lat="44.10851" lon="2.99941">
        <ele>611.9</ele>
        <time>2018-05-19T11:19:18Z</time>
      </trkpt>
      <trkpt lat="44.10849" lon="2.99944">
        <ele>612</ele>
        <time>2018-05-19T11:19:19Z</time>
      </trkpt>
      <trkpt lat="44.10847" lon="2.99947">
        <ele>612.2</ele>
        <time>2018-05-19T11:19:20Z</time>
      </trkpt>
      <trkpt lat="44.10844" lon="2.99952">
        <ele>612.4</ele>
        <time>2018-05-19T11:19:22Z</time>
      </trkpt>
      <trkpt lat="44.10842" lon="2.99957">
        <ele>612.6</ele>
        <time>2018-05-19T11:19:24Z</time>
      </trkpt>
      <trkpt lat="44.10841" lon="2.99961">
        <ele>612.7</ele>
        <time>2018-05-19T11:19:26Z</time>
      </trkpt>
      <trkpt lat="44.10841" lon="2.99966">
        <ele>612.9</ele>
        <time>2018-05-19T11:19:28Z</time>
      </trkpt>
      <trkpt lat="44.10839" lon="2.9997">
        <ele>613.1</ele>
        <time>2018-05-19T11:19:30Z</time>
      </trkpt>
      <trkpt lat="44.10836" lon="2.99973">
        <ele>613.3</ele>
        <time>2018-05-19T11:19:32Z</time>
      </trkpt>
      <trkpt lat="44.10833" lon="2.99977">
        <ele>613.5</ele>
        <time>2018-05-19T11:19:34Z</time>
      </trkpt>
      <trkpt lat="44.10831" lon="2.99983">
        <ele>613.9</ele>
        <time>2018-05-19T11:19:36Z</time>
      </trkpt>
      <trkpt lat="44.1083" lon="2.99987">
        <ele>614.1</ele>
        <time>2018-05-19T11:19:38Z</time>
      </trkpt>
      <trkpt lat="44.10829" lon="2.99992">
        <ele>614.3</ele>
        <time>2018-05-19T11:19:41Z</time>
      </trkpt>
      <trkpt lat="44.10827" lon="2.99997">
        <ele>614.6</ele>
        <time>2018-05-19T11:19:43Z</time>
      </trkpt>
      <trkpt lat="44.10824" lon="3">
        <ele>614.9</ele>
        <time>2018-05-19T11:19:45Z</time>
      </trkpt>
      <trkpt lat="44.10821" lon="3.00003">
        <ele>615.2</ele>
        <time>2018-05-19T11:19:47Z</time>
      </trkpt>
      <trkpt lat="44.10818" lon="3.00008">
        <ele>615.6</ele>
        <time>2018-05-19T11:19:49Z</time>
      </trkpt>
      <trkpt lat="44.10814" lon="3.00012">
        <ele>616.1</ele>
        <time>2018-05-19T11:19:51Z</time>
      </trkpt>
      <trkpt lat="44.10812" lon="3.00017">
        <ele>616.3</ele>
        <time>2018-05-19T11:19:53Z</time>
      </trkpt>
      <trkpt lat="44.10811" lon="3.00022">
        <ele>616.5</ele>
        <time>2018-05-19T11:19:55Z</time>
      </trkpt>
      <trkpt lat="44.1081" lon="3.00026">
        <ele>616.7</ele>
        <time>2018-05-19T11:19:57Z</time>
      </trkpt>
      <trkpt lat="44.10809" lon="3.00031">
        <ele>616.9</ele>
        <time>2018-05-19T11:19:59Z</time>
      </trkpt>
      <trkpt lat="44.10806" lon="3.00035">
        <ele>617.1</ele>
        <time>2018-05-19T11:20:01Z</time>
      </trkpt>
      <trkpt lat="44.10803" lon="3.0004">
        <ele>617.3</ele>
        <time>2018-05-19T11:20:03Z</time>
      </trkpt>
      <trkpt lat="44.108" lon="3.00044">
        <ele>617.6</ele>
        <time>2018-05-19T11:20:05Z</time>
      </trkpt>
      <trkpt lat="44.10796" lon="3.00046">
        <ele>617.8</ele>
        <time>2018-05-19T11:20:07Z</time>
      </trkpt>
      <trkpt lat="44.10792" lon="3.00047">
        <ele>618</ele>
        <time>2018-05-19T11:20:09Z</time>
      </trkpt>
      <trkpt lat="44.10787" lon="3.00048">
        <ele>618.1</ele>
        <time>2018-05-19T11:20:11Z</time>
      </trkpt>
      <trkpt lat="44.10783" lon="3.0005">
        <ele>618.2</ele>
        <time>2018-05-19T11:20:13Z</time>
      </trkpt>
      <trkpt lat="44.10779" lon="3.00052">
        <ele>618.3</ele>
        <time>2018-05-19T11:20:15Z</time>
      </trkpt>
      <trkpt lat="44.10775" lon="3.00054">
        <ele>618.3</ele>
        <time>2018-05-19T11:20:17Z</time>
      </trkpt>
      <trkpt lat="44.1077" lon="3.00054">
        <ele>618.3</ele>
        <time>2018-05-19T11:20:19Z</time>
      </trkpt>
      <trkpt lat="44.10767" lon="3.00055">
        <ele>618.3</ele>
        <time>2018-05-19T11:20:21Z</time>
      </trkpt>
      <trkpt lat="44.10765" lon="3.0006">
        <ele>618.3</ele>
        <time>2018-05-19T11:20:24Z</time>
      </trkpt>
      <trkpt lat="44.10762" lon="3.00064">
        <ele>618.3</ele>
        <time>2018-05-19T11:20:26Z</time>
      </trkpt>
      <trkpt lat="44.10759" lon="3.00067">
        <ele>618.2</ele>
        <time>2018-05-19T11:20:28Z</time>
      </trkpt>
      <trkpt lat="44.10754" lon="3.00069">
        <ele>618.1</ele>
        <time>2018-05-19T11:20:30Z</time>
      </trkpt>
      <trkpt lat="44.10749" lon="3.0007">
        <ele>618</ele>
        <time>2018-05-19T11:20:32Z</time>
      </trkpt>
      <trkpt lat="44.10744" lon="3.0007">
        <ele>617.9</ele>
        <time>2018-05-19T11:20:34Z</time>
      </trkpt>
      <trkpt lat="44.10741" lon="3.00067">
        <ele>617.7</ele>
        <time>2018-05-19T11:20:35Z</time>
      </trkpt>
      <trkpt lat="44.10738" lon="3.00064">
        <ele>617.5</ele>
        <time>2018-05-19T11:20:36Z</time>
      </trkpt>
      <trkpt lat="44.10735" lon="3.00061">
        <ele>617</ele>
        <time>2018-05-19T11:20:37Z</time>
      </trkpt>
      <trkpt lat="44.10731" lon="3.0006">
        <ele>616.6</ele>
        <time>2018-05-19T11:20:38Z</time>
      </trkpt>
      <trkpt lat="44.10726" lon="3.00055">
        <ele>616.3</ele>
        <time>2018-05-19T11:20:39Z</time>
      </trkpt>
      <trkpt lat="44.10723" lon="3.00051">
        <ele>616.1</ele>
        <time>2018-05-19T11:20:40Z</time>
      </trkpt>
      <trkpt lat="44.10721" lon="3.00046">
        <ele>616</ele>
        <time>2018-05-19T11:20:41Z</time>
      </trkpt>
      <trkpt lat="44.10718" lon="3.00043">
        <ele>615.9</ele>
        <time>2018-05-19T11:20:42Z</time>
      </trkpt>
      <trkpt lat="44.10714" lon="3.0004">
        <ele>615.9</ele>
        <time>2018-05-19T11:20:43Z</time>
      </trkpt>
      <trkpt lat="44.1071" lon="3.0004">
        <ele>615.8</ele>
        <time>2018-05-19T11:20:44Z</time>
      </trkpt>
      <trkpt lat="44.10707" lon="3.00041">
        <ele>615.9</ele>
        <time>2018-05-19T11:20:45Z</time>
      </trkpt>
      <trkpt lat="44.10703" lon="3.00044">
        <ele>615.9</ele>
        <time>2018-05-19T11:20:47Z</time>
      </trkpt>
      <trkpt lat="44.10699" lon="3.00047">
        <ele>616.1</ele>
        <time>2018-05-19T11:20:49Z</time>
      </trkpt>
      <trkpt lat="44.10694" lon="3.0005">
        <ele>616.3</ele>
        <time>2018-05-19T11:20:51Z</time>
      </trkpt>
      <trkpt lat="44.10689" lon="3.00051">
        <ele>616.6</ele>
        <time>2018-05-19T11:20:53Z</time>
      </trkpt>
      <trkpt lat="44.10685" lon="3.00054">
        <ele>616.9</ele>
        <time>2018-05-19T11:20:55Z</time>
      </trkpt>
      <trkpt lat="44.10682" lon="3.00059">
        <ele>617.1</ele>
        <time>2018-05-19T11:20:57Z</time>
      </trkpt>
      <trkpt lat="44.10678" lon="3.00064">
        <ele>617.2</ele>
        <time>2018-05-19T11:20:59Z</time>
      </trkpt>
      <trkpt lat="44.10674" lon="3.00069">
        <ele>617.3</ele>
        <time>2018-05-19T11:21:01Z</time>
      </trkpt>
      <trkpt lat="44.10672" lon="3.00071">
        <ele>617.3</ele>
        <time>2018-05-19T11:21:02Z</time>
      </trkpt>
      <trkpt lat="44.1067" lon="3.00073">
        <ele>617.4</ele>
        <time>2018-05-19T11:21:03Z</time>
      </trkpt>
      <trkpt lat="44.10667" lon="3.00074">
        <ele>617.4</ele>
        <time>2018-05-19T11:21:04Z</time>
      </trkpt>
      <trkpt lat="44.10663" lon="3.00075">
        <ele>617.5</ele>
        <time>2018-05-19T11:21:05Z</time>
      </trkpt>
      <trkpt lat="44.1066" lon="3.00076">
        <ele>617.5</ele>
        <time>2018-05-19T11:21:06Z</time>
      </trkpt>
      <trkpt lat="44.10656" lon="3.00078">
        <ele>617.5</ele>
        <time>2018-05-19T11:21:07Z</time>
      </trkpt>
      <trkpt lat="44.10654" lon="3.0008">
        <ele>617.5</ele>
        <time>2018-05-19T11:21:08Z</time>
      </trkpt>
      <trkpt lat="44.10651" lon="3.00083">
        <ele>617.5</ele>
        <time>2018-05-19T11:21:09Z</time>
      </trkpt>
      <trkpt lat="44.10648" lon="3.00085">
        <ele>617.5</ele>
        <time>2018-05-19T11:21:10Z</time>
      </trkpt>
      <trkpt lat="44.10646" lon="3.00088">
        <ele>617.5</ele>
        <time>2018-05-19T11:21:11Z</time>
      </trkpt>
      <trkpt lat="44.10643" lon="3.00091">
        <ele>617.5</ele>
        <time>2018-05-19T11:21:12Z</time>
      </trkpt>
      <trkpt lat="44.10641" lon="3.00095">
        <ele>617.5</ele>
        <time>2018-05-19T11:21:13Z</time>
      </trkpt>
      <trkpt lat="44.10639" lon="3.00098">
        <ele>617.6</ele>
        <time>2018-05-19T11:21:14Z</time>
      </trkpt>
      <trkpt lat="44.10637" lon="3.00101">
        <ele>617.6</ele>
        <time>2018-05-19T11:21:15Z</time>
      </trkpt>
      <trkpt lat="44.10634" lon="3.00107">
        <ele>617.6</ele>
        <time>2018-05-19T11:21:17Z</time>
      </trkpt>
      <trkpt lat="44.10632" lon="3.00109">
        <ele>617.7</ele>
        <time>2018-05-19T11:21:18Z</time>
      </trkpt>
      <trkpt lat="44.1063" lon="3.00113">
        <ele>617.7</ele>
        <time>2018-05-19T11:21:19Z</time>
      </trkpt>
      <trkpt lat="44.10628" lon="3.00116">
        <ele>617.7</ele>
        <time>2018-05-19T11:21:20Z</time>
      </trkpt>
      <trkpt lat="44.10625" lon="3.00119">
        <ele>617.7</ele>
        <time>2018-05-19T11:21:21Z</time>
      </trkpt>
      <trkpt lat="44.10623" lon="3.00122">
        <ele>617.8</ele>
        <time>2018-05-19T11:21:22Z</time>
      </trkpt>
      <trkpt lat="44.10621" lon="3.00125">
        <ele>617.9</ele>
        <time>2018-05-19T11:21:23Z</time>
      </trkpt>
      <trkpt lat="44.10618" lon="3.00127">
        <ele>618.1</ele>
        <time>2018-05-19T11:21:24Z</time>
      </trkpt>
      <trkpt lat="44.10616" lon="3.0013">
        <ele>618.2</ele>
        <time>2018-05-19T11:21:25Z</time>
      </trkpt>
      <trkpt lat="44.10614" lon="3.00134">
        <ele>618.4</ele>
        <time>2018-05-19T11:21:26Z</time>
      </trkpt>
      <trkpt lat="44.10613" lon="3.00138">
        <ele>618.6</ele>
        <time>2018-05-19T11:21:27Z</time>
      </trkpt>
      <trkpt lat="44.10612" lon="3.00142">
        <ele>618.7</ele>
        <time>2018-05-19T11:21:28Z</time>
      </trkpt>
      <trkpt lat="44.10612" lon="3.00146">
        <ele>618.8</ele>
        <time>2018-05-19T11:21:29Z</time>
      </trkpt>
      <trkpt lat="44.1061" lon="3.0015">
        <ele>618.9</ele>
        <time>2018-05-19T11:21:30Z</time>
      </trkpt>
      <trkpt lat="44.10609" lon="3.00154">
        <ele>619</ele>
        <time>2018-05-19T11:21:31Z</time>
      </trkpt>
      <trkpt lat="44.10606" lon="3.00158">
        <ele>619.1</ele>
        <time>2018-05-19T11:21:32Z</time>
      </trkpt>
      <trkpt lat="44.10604" lon="3.00162">
        <ele>619.1</ele>
        <time>2018-05-19T11:21:33Z</time>
      </trkpt>
      <trkpt lat="44.10602" lon="3.00167">
        <ele>619.2</ele>
        <time>2018-05-19T11:21:34Z</time>
      </trkpt>
      <trkpt lat="44.106" lon="3.00172">
        <ele>619.4</ele>
        <time>2018-05-19T11:21:35Z</time>
      </trkpt>
      <trkpt lat="44.106" lon="3.00176">
        <ele>619.6</ele>
        <time>2018-05-19T11:21:36Z</time>
      </trkpt>
      <trkpt lat="44.106" lon="3.0018">
        <ele>619.8</ele>
        <time>2018-05-19T11:21:37Z</time>
      </trkpt>
      <trkpt lat="44.10599" lon="3.00185">
        <ele>620</ele>
        <time>2018-05-19T11:21:38Z</time>
      </trkpt>
      <trkpt lat="44.10598" lon="3.00189">
        <ele>620.2</ele>
        <time>2018-05-19T11:21:39Z</time>
      </trkpt>
      <trkpt lat="44.10597" lon="3.00193">
        <ele>620.5</ele>
        <time>2018-05-19T11:21:40Z</time>
      </trkpt>
      <trkpt lat="44.10596" lon="3.00199">
        <ele>620.9</ele>
        <time>2018-05-19T11:21:42Z</time>
      </trkpt>
      <trkpt lat="44.10596" lon="3.00204">
        <ele>621.1</ele>
        <time>2018-05-19T11:21:44Z</time>
      </trkpt>
      <trkpt lat="44.10597" lon="3.00209">
        <ele>621.1</ele>
        <time>2018-05-19T11:21:46Z</time>
      </trkpt>
      <trkpt lat="44.10597" lon="3.00213">
        <ele>621.2</ele>
        <time>2018-05-19T11:21:48Z</time>
      </trkpt>
      <trkpt lat="44.10598" lon="3.00217">
        <ele>621.3</ele>
        <time>2018-05-19T11:21:50Z</time>
      </trkpt>
      <trkpt lat="44.106" lon="3.00222">
        <ele>621.3</ele>
        <time>2018-05-19T11:21:53Z</time>
      </trkpt>
      <trkpt lat="44.10602" lon="3.00226">
        <ele>621.4</ele>
        <time>2018-05-19T11:21:55Z</time>
      </trkpt>
      <trkpt lat="44.10603" lon="3.0023">
        <ele>621.5</ele>
        <time>2018-05-19T11:21:57Z</time>
      </trkpt>
      <trkpt lat="44.10605" lon="3.00234">
        <ele>621.6</ele>
        <time>2018-05-19T11:21:59Z</time>
      </trkpt>
      <trkpt lat="44.10606" lon="3.00239">
        <ele>621.7</ele>
        <time>2018-05-19T11:22:01Z</time>
      </trkpt>
      <trkpt lat="44.10607" lon="3.00243">
        <ele>621.7</ele>
        <time>2018-05-19T11:22:03Z</time>
      </trkpt>
      <trkpt lat="44.10609" lon="3.00246">
        <ele>621.8</ele>
        <time>2018-05-19T11:22:05Z</time>
      </trkpt>
      <trkpt lat="44.10611" lon="3.0025">
        <ele>621.9</ele>
        <time>2018-05-19T11:22:08Z</time>
      </trkpt>
      <trkpt lat="44.10612" lon="3.00254">
        <ele>622</ele>
        <time>2018-05-19T11:22:11Z</time>
      </trkpt>
      <trkpt lat="44.10613" lon="3.00263">
        <ele>622.2</ele>
        <time>2018-05-19T11:25:13Z</time>
      </trkpt>
      <trkpt lat="44.10614" lon="3.00267">
        <ele>622.3</ele>
        <time>2018-05-19T11:25:15Z</time>
      </trkpt>
      <trkpt lat="44.10616" lon="3.00272">
        <ele>622.4</ele>
        <time>2018-05-19T11:25:17Z</time>
      </trkpt>
      <trkpt lat="44.10617" lon="3.00277">
        <ele>622.5</ele>
        <time>2018-05-19T11:25:19Z</time>
      </trkpt>
      <trkpt lat="44.10619" lon="3.00283">
        <ele>622.6</ele>
        <time>2018-05-19T11:25:21Z</time>
      </trkpt>
      <trkpt lat="44.10621" lon="3.00288">
        <ele>622.7</ele>
        <time>2018-05-19T11:25:23Z</time>
      </trkpt>
      <trkpt lat="44.10623" lon="3.00293">
        <ele>622.8</ele>
        <time>2018-05-19T11:25:25Z</time>
      </trkpt>
      <trkpt lat="44.10627" lon="3.00297">
        <ele>623.4</ele>
        <time>2018-05-19T11:25:27Z</time>
      </trkpt>
      <trkpt lat="44.10631" lon="3.003">
        <ele>623.6</ele>
        <time>2018-05-19T11:25:29Z</time>
      </trkpt>
      <trkpt lat="44.10634" lon="3.00304">
        <ele>623.7</ele>
        <time>2018-05-19T11:25:31Z</time>
      </trkpt>
      <trkpt lat="44.10636" lon="3.0031">
        <ele>623.8</ele>
        <time>2018-05-19T11:25:33Z</time>
      </trkpt>
      <trkpt lat="44.10639" lon="3.00315">
        <ele>623.9</ele>
        <time>2018-05-19T11:25:35Z</time>
      </trkpt>
      <trkpt lat="44.10641" lon="3.00321">
        <ele>624</ele>
        <time>2018-05-19T11:25:37Z</time>
      </trkpt>
      <trkpt lat="44.10642" lon="3.00326">
        <ele>624.1</ele>
        <time>2018-05-19T11:25:39Z</time>
      </trkpt>
      <trkpt lat="44.10643" lon="3.00332">
        <ele>624.2</ele>
        <time>2018-05-19T11:25:41Z</time>
      </trkpt>
      <trkpt lat="44.10645" lon="3.00339">
        <ele>624.3</ele>
        <time>2018-05-19T11:25:43Z</time>
      </trkpt>
      <trkpt lat="44.10646" lon="3.00342">
        <ele>624.4</ele>
        <time>2018-05-19T11:25:44Z</time>
      </trkpt>
      <trkpt lat="44.10648" lon="3.00346">
        <ele>624.5</ele>
        <time>2018-05-19T11:25:45Z</time>
      </trkpt>
      <trkpt lat="44.1065" lon="3.0035">
        <ele>624.6</ele>
        <time>2018-05-19T11:25:46Z</time>
      </trkpt>
      <trkpt lat="44.10652" lon="3.00355">
        <ele>624.7</ele>
        <time>2018-05-19T11:25:47Z</time>
      </trkpt>
      <trkpt lat="44.10654" lon="3.0036">
        <ele>624.8</ele>
        <time>2018-05-19T11:25:48Z</time>
      </trkpt>
      <trkpt lat="44.10656" lon="3.00367">
        <ele>625</ele>
        <time>2018-05-19T11:25:49Z</time>
      </trkpt>
      <trkpt lat="44.10657" lon="3.00373">
        <ele>625.2</ele>
        <time>2018-05-19T11:25:50Z</time>
      </trkpt>
      <trkpt lat="44.10659" lon="3.0038">
        <ele>625.3</ele>
        <time>2018-05-19T11:25:51Z</time>
      </trkpt>
      <trkpt lat="44.10661" lon="3.00387">
        <ele>625.5</ele>
        <time>2018-05-19T11:25:52Z</time>
      </trkpt>
      <trkpt lat="44.10663" lon="3.00396">
        <ele>625.8</ele>
        <time>2018-05-19T11:25:53Z</time>
      </trkpt>
      <trkpt lat="44.10666" lon="3.00404">
        <ele>626.1</ele>
        <time>2018-05-19T11:25:54Z</time>
      </trkpt>
      <trkpt lat="44.10669" lon="3.00412">
        <ele>626.5</ele>
        <time>2018-05-19T11:25:55Z</time>
      </trkpt>
      <trkpt lat="44.10673" lon="3.00418">
        <ele>626.8</ele>
        <time>2018-05-19T11:25:56Z</time>
      </trkpt>
      <trkpt lat="44.10675" lon="3.00424">
        <ele>627.1</ele>
        <time>2018-05-19T11:25:57Z</time>
      </trkpt>
      <trkpt lat="44.10677" lon="3.00431">
        <ele>627.3</ele>
        <time>2018-05-19T11:25:58Z</time>
      </trkpt>
      <trkpt lat="44.10678" lon="3.00439">
        <ele>627.5</ele>
        <time>2018-05-19T11:25:59Z</time>
      </trkpt>
      <trkpt lat="44.10681" lon="3.00448">
        <ele>627.9</ele>
        <time>2018-05-19T11:26:00Z</time>
      </trkpt>
      <trkpt lat="44.10682" lon="3.00456">
        <ele>628.3</ele>
        <time>2018-05-19T11:26:01Z</time>
      </trkpt>
      <trkpt lat="44.10683" lon="3.00464">
        <ele>628.7</ele>
        <time>2018-05-19T11:26:02Z</time>
      </trkpt>
      <trkpt lat="44.10684" lon="3.00472">
        <ele>629.2</ele>
        <time>2018-05-19T11:26:03Z</time>
      </trkpt>
      <trkpt lat="44.10684" lon="3.00481">
        <ele>629.8</ele>
        <time>2018-05-19T11:26:04Z</time>
      </trkpt>
      <trkpt lat="44.10684" lon="3.00489">
        <ele>630.3</ele>
        <time>2018-05-19T11:26:05Z</time>
      </trkpt>
      <trkpt lat="44.10686" lon="3.00495">
        <ele>630.8</ele>
        <time>2018-05-19T11:26:06Z</time>
      </trkpt>
      <trkpt lat="44.10685" lon="3.00501">
        <ele>631.2</ele>
        <time>2018-05-19T11:26:07Z</time>
      </trkpt>
      <trkpt lat="44.10685" lon="3.00508">
        <ele>631.7</ele>
        <time>2018-05-19T11:26:08Z</time>
      </trkpt>
      <trkpt lat="44.10683" lon="3.00515">
        <ele>632.3</ele>
        <time>2018-05-19T11:26:09Z</time>
      </trkpt>
      <trkpt lat="44.10682" lon="3.00522">
        <ele>632.8</ele>
        <time>2018-05-19T11:26:10Z</time>
      </trkpt>
      <trkpt lat="44.1068" lon="3.00528">
        <ele>633.3</ele>
        <time>2018-05-19T11:26:11Z</time>
      </trkpt>
      <trkpt lat="44.10678" lon="3.00535">
        <ele>633.7</ele>
        <time>2018-05-19T11:26:12Z</time>
      </trkpt>
      <trkpt lat="44.10677" lon="3.00542">
        <ele>634.3</ele>
        <time>2018-05-19T11:26:13Z</time>
      </trkpt>
      <trkpt lat="44.10675" lon="3.00551">
        <ele>634.8</ele>
        <time>2018-05-19T11:26:14Z</time>
      </trkpt>
      <trkpt lat="44.10675" lon="3.00556">
        <ele>635.1</ele>
        <time>2018-05-19T11:26:15Z</time>
      </trkpt>
      <trkpt lat="44.10675" lon="3.00562">
        <ele>635.4</ele>
        <time>2018-05-19T11:26:16Z</time>
      </trkpt>
      <trkpt lat="44.10675" lon="3.00567">
        <ele>635.6</ele>
        <time>2018-05-19T11:26:17Z</time>
      </trkpt>
      <trkpt lat="44.10674" lon="3.00573">
        <ele>635.8</ele>
        <time>2018-05-19T11:26:18Z</time>
      </trkpt>
      <trkpt lat="44.10674" lon="3.00579">
        <ele>636</ele>
        <time>2018-05-19T11:26:19Z</time>
      </trkpt>
      <trkpt lat="44.10673" lon="3.00584">
        <ele>636.1</ele>
        <time>2018-05-19T11:26:20Z</time>
      </trkpt>
      <trkpt lat="44.10673" lon="3.0059">
        <ele>636.3</ele>
        <time>2018-05-19T11:26:21Z</time>
      </trkpt>
      <trkpt lat="44.10672" lon="3.00595">
        <ele>636.4</ele>
        <time>2018-05-19T11:26:22Z</time>
      </trkpt>
      <trkpt lat="44.10672" lon="3.006">
        <ele>636.6</ele>
        <time>2018-05-19T11:26:23Z</time>
      </trkpt>
      <trkpt lat="44.10672" lon="3.00605">
        <ele>636.7</ele>
        <time>2018-05-19T11:26:24Z</time>
      </trkpt>
      <trkpt lat="44.10673" lon="3.00611">
        <ele>636.9</ele>
        <time>2018-05-19T11:26:25Z</time>
      </trkpt>
      <trkpt lat="44.10674" lon="3.00616">
        <ele>637</ele>
        <time>2018-05-19T11:26:26Z</time>
      </trkpt>
      <trkpt lat="44.10674" lon="3.00621">
        <ele>637.2</ele>
        <time>2018-05-19T11:26:27Z</time>
      </trkpt>
      <trkpt lat="44.10675" lon="3.00626">
        <ele>637.4</ele>
        <time>2018-05-19T11:26:28Z</time>
      </trkpt>
      <trkpt lat="44.10677" lon="3.0063">
        <ele>637.6</ele>
        <time>2018-05-19T11:26:29Z</time>
      </trkpt>
      <trkpt lat="44.10678" lon="3.00634">
        <ele>637.7</ele>
        <time>2018-05-19T11:26:30Z</time>
      </trkpt>
      <trkpt lat="44.10678" lon="3.00638">
        <ele>637.8</ele>
        <time>2018-05-19T11:26:31Z</time>
      </trkpt>
      <trkpt lat="44.10679" lon="3.00641">
        <ele>637.9</ele>
        <time>2018-05-19T11:26:32Z</time>
      </trkpt>
      <trkpt lat="44.1068" lon="3.00645">
        <ele>638</ele>
        <time>2018-05-19T11:26:33Z</time>
      </trkpt>
      <trkpt lat="44.10681" lon="3.00652">
        <ele>638.2</ele>
        <time>2018-05-19T11:26:35Z</time>
      </trkpt>
      <trkpt lat="44.10682" lon="3.00659">
        <ele>638.4</ele>
        <time>2018-05-19T11:26:37Z</time>
      </trkpt>
      <trkpt lat="44.10682" lon="3.00663">
        <ele>638.5</ele>
        <time>2018-05-19T11:26:38Z</time>
      </trkpt>
      <trkpt lat="44.10683" lon="3.00667">
        <ele>638.7</ele>
        <time>2018-05-19T11:26:39Z</time>
      </trkpt>
      <trkpt lat="44.10684" lon="3.00672">
        <ele>638.9</ele>
        <time>2018-05-19T11:26:40Z</time>
      </trkpt>
      <trkpt lat="44.10685" lon="3.00676">
        <ele>639</ele>
        <time>2018-05-19T11:26:41Z</time>
      </trkpt>
      <trkpt lat="44.10686" lon="3.0068">
        <ele>639.2</ele>
        <time>2018-05-19T11:26:42Z</time>
      </trkpt>
      <trkpt lat="44.10688" lon="3.00684">
        <ele>639.3</ele>
        <time>2018-05-19T11:26:43Z</time>
      </trkpt>
      <trkpt lat="44.10689" lon="3.00687">
        <ele>639.4</ele>
        <time>2018-05-19T11:26:44Z</time>
      </trkpt>
      <trkpt lat="44.10691" lon="3.00691">
        <ele>639.6</ele>
        <time>2018-05-19T11:26:45Z</time>
      </trkpt>
      <trkpt lat="44.10693" lon="3.00696">
        <ele>639.9</ele>
        <time>2018-05-19T11:26:46Z</time>
      </trkpt>
      <trkpt lat="44.10695" lon="3.007">
        <ele>640.1</ele>
        <time>2018-05-19T11:26:47Z</time>
      </trkpt>
      <trkpt lat="44.10696" lon="3.00705">
        <ele>640.2</ele>
        <time>2018-05-19T11:26:48Z</time>
      </trkpt>
      <trkpt lat="44.10696" lon="3.00711">
        <ele>640.4</ele>
        <time>2018-05-19T11:26:49Z</time>
      </trkpt>
      <trkpt lat="44.10697" lon="3.00717">
        <ele>640.6</ele>
        <time>2018-05-19T11:26:50Z</time>
      </trkpt>
      <trkpt lat="44.10694" lon="3.00725">
        <ele>640.9</ele>
        <time>2018-05-19T11:26:51Z</time>
      </trkpt>
      <trkpt lat="44.10694" lon="3.00732">
        <ele>641.3</ele>
        <time>2018-05-19T11:26:52Z</time>
      </trkpt>
      <trkpt lat="44.10691" lon="3.00741">
        <ele>641.8</ele>
        <time>2018-05-19T11:26:53Z</time>
      </trkpt>
      <trkpt lat="44.1069" lon="3.00749">
        <ele>642.3</ele>
        <time>2018-05-19T11:26:54Z</time>
      </trkpt>
      <trkpt lat="44.10689" lon="3.00758">
        <ele>642.8</ele>
        <time>2018-05-19T11:26:55Z</time>
      </trkpt>
      <trkpt lat="44.10688" lon="3.00767">
        <ele>643.3</ele>
        <time>2018-05-19T11:26:56Z</time>
      </trkpt>
      <trkpt lat="44.10688" lon="3.00774">
        <ele>643.8</ele>
        <time>2018-05-19T11:26:57Z</time>
      </trkpt>
      <trkpt lat="44.10687" lon="3.00783">
        <ele>644.4</ele>
        <time>2018-05-19T11:26:58Z</time>
      </trkpt>
      <trkpt lat="44.10686" lon="3.0079">
        <ele>644.9</ele>
        <time>2018-05-19T11:26:59Z</time>
      </trkpt>
      <trkpt lat="44.10685" lon="3.00798">
        <ele>645.4</ele>
        <time>2018-05-19T11:27:00Z</time>
      </trkpt>
      <trkpt lat="44.10685" lon="3.00804">
        <ele>645.9</ele>
        <time>2018-05-19T11:27:01Z</time>
      </trkpt>
      <trkpt lat="44.10684" lon="3.0081">
        <ele>646.3</ele>
        <time>2018-05-19T11:27:02Z</time>
      </trkpt>
      <trkpt lat="44.10683" lon="3.00814">
        <ele>646.6</ele>
        <time>2018-05-19T11:27:03Z</time>
      </trkpt>
      <trkpt lat="44.10683" lon="3.0082">
        <ele>647</ele>
        <time>2018-05-19T11:27:04Z</time>
      </trkpt>
      <trkpt lat="44.10683" lon="3.00824">
        <ele>647.2</ele>
        <time>2018-05-19T11:27:05Z</time>
      </trkpt>
      <trkpt lat="44.10682" lon="3.00828">
        <ele>647.5</ele>
        <time>2018-05-19T11:27:06Z</time>
      </trkpt>
      <trkpt lat="44.10682" lon="3.00835">
        <ele>647.9</ele>
        <time>2018-05-19T11:27:08Z</time>
      </trkpt>
      <trkpt lat="44.10683" lon="3.00839">
        <ele>648.2</ele>
        <time>2018-05-19T11:27:10Z</time>
      </trkpt>
      <trkpt lat="44.10684" lon="3.00845">
        <ele>648.5</ele>
        <time>2018-05-19T11:27:12Z</time>
      </trkpt>
      <trkpt lat="44.10686" lon="3.0085">
        <ele>648.7</ele>
        <time>2018-05-19T11:27:14Z</time>
      </trkpt>
      <trkpt lat="44.10687" lon="3.00855">
        <ele>648.9</ele>
        <time>2018-05-19T11:27:16Z</time>
      </trkpt>
      <trkpt lat="44.10688" lon="3.0086">
        <ele>649</ele>
        <time>2018-05-19T11:27:18Z</time>
      </trkpt>
      <trkpt lat="44.10691" lon="3.00865">
        <ele>649</ele>
        <time>2018-05-19T11:27:20Z</time>
      </trkpt>
      <trkpt lat="44.10691" lon="3.0087">
        <ele>649.1</ele>
        <time>2018-05-19T11:27:22Z</time>
      </trkpt>
      <trkpt lat="44.10692" lon="3.00875">
        <ele>649.1</ele>
        <time>2018-05-19T11:27:24Z</time>
      </trkpt>
      <trkpt lat="44.10693" lon="3.0088">
        <ele>649.2</ele>
        <time>2018-05-19T11:27:26Z</time>
      </trkpt>
      <trkpt lat="44.10695" lon="3.00885">
        <ele>649.2</ele>
        <time>2018-05-19T11:27:28Z</time>
      </trkpt>
      <trkpt lat="44.10697" lon="3.00891">
        <ele>649.3</ele>
        <time>2018-05-19T11:27:30Z</time>
      </trkpt>
      <trkpt lat="44.10697" lon="3.00896">
        <ele>649.3</ele>
        <time>2018-05-19T11:27:32Z</time>
      </trkpt>
      <trkpt lat="44.10698" lon="3.00902">
        <ele>649.4</ele>
        <time>2018-05-19T11:27:34Z</time>
      </trkpt>
      <trkpt lat="44.10699" lon="3.00908">
        <ele>649.4</ele>
        <time>2018-05-19T11:27:36Z</time>
      </trkpt>
      <trkpt lat="44.10699" lon="3.00914">
        <ele>649.5</ele>
        <time>2018-05-19T11:27:38Z</time>
      </trkpt>
      <trkpt lat="44.10699" lon="3.0092">
        <ele>649.5</ele>
        <time>2018-05-19T11:27:40Z</time>
      </trkpt>
      <trkpt lat="44.107" lon="3.00927">
        <ele>649.6</ele>
        <time>2018-05-19T11:27:42Z</time>
      </trkpt>
      <trkpt lat="44.107" lon="3.00934">
        <ele>649.6</ele>
        <time>2018-05-19T11:27:44Z</time>
      </trkpt>
      <trkpt lat="44.107" lon="3.00938">
        <ele>649.7</ele>
        <time>2018-05-19T11:27:45Z</time>
      </trkpt>
      <trkpt lat="44.107" lon="3.00942">
        <ele>649.7</ele>
        <time>2018-05-19T11:27:46Z</time>
      </trkpt>
      <trkpt lat="44.107" lon="3.00946">
        <ele>649.8</ele>
        <time>2018-05-19T11:27:47Z</time>
      </trkpt>
      <trkpt lat="44.107" lon="3.0095">
        <ele>649.8</ele>
        <time>2018-05-19T11:27:48Z</time>
      </trkpt>
      <trkpt lat="44.107" lon="3.00955">
        <ele>649.8</ele>
        <time>2018-05-19T11:27:49Z</time>
      </trkpt>
      <trkpt lat="44.10701" lon="3.00959">
        <ele>649.9</ele>
        <time>2018-05-19T11:27:50Z</time>
      </trkpt>
      <trkpt lat="44.107" lon="3.00964">
        <ele>649.9</ele>
        <time>2018-05-19T11:27:51Z</time>
      </trkpt>
      <trkpt lat="44.107" lon="3.00969">
        <ele>649.9</ele>
        <time>2018-05-19T11:27:52Z</time>
      </trkpt>
      <trkpt lat="44.107" lon="3.00974">
        <ele>650</ele>
        <time>2018-05-19T11:27:53Z</time>
      </trkpt>
      <trkpt lat="44.10699" lon="3.00979">
        <ele>650</ele>
        <time>2018-05-19T11:27:54Z</time>
      </trkpt>
      <trkpt lat="44.10699" lon="3.00984">
        <ele>649.9</ele>
        <time>2018-05-19T11:27:55Z</time>
      </trkpt>
      <trkpt lat="44.10699" lon="3.00989">
        <ele>649.9</ele>
        <time>2018-05-19T11:27:56Z</time>
      </trkpt>
      <trkpt lat="44.10698" lon="3.00993">
        <ele>649.9</ele>
        <time>2018-05-19T11:27:57Z</time>
      </trkpt>
      <trkpt lat="44.10698" lon="3.00999">
        <ele>649.8</ele>
        <time>2018-05-19T11:27:58Z</time>
      </trkpt>
      <trkpt lat="44.10697" lon="3.01004">
        <ele>649.8</ele>
        <time>2018-05-19T11:27:59Z</time>
      </trkpt>
      <trkpt lat="44.10696" lon="3.01009">
        <ele>649.7</ele>
        <time>2018-05-19T11:28:00Z</time>
      </trkpt>
      <trkpt lat="44.10695" lon="3.01015">
        <ele>649.6</ele>
        <time>2018-05-19T11:28:01Z</time>
      </trkpt>
      <trkpt lat="44.10695" lon="3.01021">
        <ele>649.6</ele>
        <time>2018-05-19T11:28:02Z</time>
      </trkpt>
      <trkpt lat="44.10695" lon="3.01029">
        <ele>649.6</ele>
        <time>2018-05-19T11:28:03Z</time>
      </trkpt>
      <trkpt lat="44.10696" lon="3.01035">
        <ele>649.5</ele>
        <time>2018-05-19T11:28:04Z</time>
      </trkpt>
      <trkpt lat="44.10699" lon="3.0104">
        <ele>649.5</ele>
        <time>2018-05-19T11:28:05Z</time>
      </trkpt>
      <trkpt lat="44.10703" lon="3.01044">
        <ele>649.5</ele>
        <time>2018-05-19T11:28:06Z</time>
      </trkpt>
      <trkpt lat="44.10707" lon="3.01047">
        <ele>649.6</ele>
        <time>2018-05-19T11:28:07Z</time>
      </trkpt>
      <trkpt lat="44.1071" lon="3.01049">
        <ele>649.7</ele>
        <time>2018-05-19T11:28:08Z</time>
      </trkpt>
      <trkpt lat="44.10713" lon="3.01049">
        <ele>649.7</ele>
        <time>2018-05-19T11:28:09Z</time>
      </trkpt>
      <trkpt lat="44.10716" lon="3.01051">
        <ele>649.8</ele>
        <time>2018-05-19T11:28:10Z</time>
      </trkpt>
      <trkpt lat="44.1072" lon="3.01052">
        <ele>649.9</ele>
        <time>2018-05-19T11:28:11Z</time>
      </trkpt>
      <trkpt lat="44.10725" lon="3.01053">
        <ele>650</ele>
        <time>2018-05-19T11:28:12Z</time>
      </trkpt>
      <trkpt lat="44.10729" lon="3.01053">
        <ele>650.1</ele>
        <time>2018-05-19T11:28:13Z</time>
      </trkpt>
      <trkpt lat="44.10732" lon="3.01055">
        <ele>650.2</ele>
        <time>2018-05-19T11:28:14Z</time>
      </trkpt>
      <trkpt lat="44.10737" lon="3.01057">
        <ele>650.2</ele>
        <time>2018-05-19T11:28:15Z</time>
      </trkpt>
      <trkpt lat="44.10741" lon="3.0106">
        <ele>650.2</ele>
        <time>2018-05-19T11:28:17Z</time>
      </trkpt>
      <trkpt lat="44.10744" lon="3.01061">
        <ele>650.2</ele>
        <time>2018-05-19T11:28:18Z</time>
      </trkpt>
      <trkpt lat="44.10747" lon="3.01062">
        <ele>650.2</ele>
        <time>2018-05-19T11:28:19Z</time>
      </trkpt>
      <trkpt lat="44.1075" lon="3.01064">
        <ele>650.2</ele>
        <time>2018-05-19T11:28:20Z</time>
      </trkpt>
      <trkpt lat="44.10754" lon="3.01066">
        <ele>650.2</ele>
        <time>2018-05-19T11:28:21Z</time>
      </trkpt>
      <trkpt lat="44.10757" lon="3.01069">
        <ele>650.1</ele>
        <time>2018-05-19T11:28:22Z</time>
      </trkpt>
      <trkpt lat="44.10761" lon="3.01071">
        <ele>650.1</ele>
        <time>2018-05-19T11:28:23Z</time>
      </trkpt>
      <trkpt lat="44.10764" lon="3.01073">
        <ele>650.1</ele>
        <time>2018-05-19T11:28:24Z</time>
      </trkpt>
      <trkpt lat="44.10768" lon="3.01075">
        <ele>650.1</ele>
        <time>2018-05-19T11:28:25Z</time>
      </trkpt>
      <trkpt lat="44.10771" lon="3.01077">
        <ele>650.1</ele>
        <time>2018-05-19T11:28:26Z</time>
      </trkpt>
      <trkpt lat="44.10774" lon="3.01079">
        <ele>650</ele>
        <time>2018-05-19T11:28:27Z</time>
      </trkpt>
      <trkpt lat="44.10777" lon="3.01081">
        <ele>650</ele>
        <time>2018-05-19T11:28:28Z</time>
      </trkpt>
      <trkpt lat="44.1078" lon="3.01083">
        <ele>649.9</ele>
        <time>2018-05-19T11:28:29Z</time>
      </trkpt>
      <trkpt lat="44.10783" lon="3.01084">
        <ele>649.9</ele>
        <time>2018-05-19T11:28:30Z</time>
      </trkpt>
      <trkpt lat="44.10787" lon="3.01087">
        <ele>649.8</ele>
        <time>2018-05-19T11:28:32Z</time>
      </trkpt>
      <trkpt lat="44.1079" lon="3.0109">
        <ele>649.7</ele>
        <time>2018-05-19T11:28:34Z</time>
      </trkpt>
      <trkpt lat="44.10793" lon="3.01092">
        <ele>649.5</ele>
        <time>2018-05-19T11:28:37Z</time>
      </trkpt>
      <trkpt lat="44.10792" lon="3.01088">
        <ele>649.4</ele>
        <time>2018-05-19T11:28:43Z</time>
      </trkpt>
      <trkpt lat="44.10789" lon="3.01088">
        <ele>649.2</ele>
        <time>2018-05-19T11:28:47Z</time>
      </trkpt>
      <trkpt lat="44.10789" lon="3.01084">
        <ele>649</ele>
        <time>2018-05-19T11:29:45Z</time>
      </trkpt>
      <trkpt lat="44.1079" lon="3.01088">
        <ele>649</ele>
        <time>2018-05-19T11:31:00Z</time>
      </trkpt>
      <trkpt lat="44.10789" lon="3.01091">
        <ele>648.9</ele>
        <time>2018-05-19T11:31:02Z</time>
      </trkpt>
      <trkpt lat="44.10787" lon="3.01096">
        <ele>648.8</ele>
        <time>2018-05-19T11:31:04Z</time>
      </trkpt>
      <trkpt lat="44.10787" lon="3.011">
        <ele>648.7</ele>
        <time>2018-05-19T11:31:05Z</time>
      </trkpt>
      <trkpt lat="44.10788" lon="3.01104">
        <ele>648.5</ele>
        <time>2018-05-19T11:31:06Z</time>
      </trkpt>
      <trkpt lat="44.10789" lon="3.01108">
        <ele>648.4</ele>
        <time>2018-05-19T11:31:07Z</time>
      </trkpt>
      <trkpt lat="44.10791" lon="3.01112">
        <ele>648.3</ele>
        <time>2018-05-19T11:31:08Z</time>
      </trkpt>
      <trkpt lat="44.10793" lon="3.01116">
        <ele>648.2</ele>
        <time>2018-05-19T11:31:09Z</time>
      </trkpt>
      <trkpt lat="44.10796" lon="3.0112">
        <ele>647.9</ele>
        <time>2018-05-19T11:31:10Z</time>
      </trkpt>
      <trkpt lat="44.10799" lon="3.01124">
        <ele>647.5</ele>
        <time>2018-05-19T11:31:11Z</time>
      </trkpt>
      <trkpt lat="44.10802" lon="3.01128">
        <ele>647.1</ele>
        <time>2018-05-19T11:31:12Z</time>
      </trkpt>
      <trkpt lat="44.10806" lon="3.01133">
        <ele>646.7</ele>
        <time>2018-05-19T11:31:13Z</time>
      </trkpt>
      <trkpt lat="44.10809" lon="3.01139">
        <ele>646.1</ele>
        <time>2018-05-19T11:31:14Z</time>
      </trkpt>
      <trkpt lat="44.10812" lon="3.01148">
        <ele>645.4</ele>
        <time>2018-05-19T11:31:15Z</time>
      </trkpt>
      <trkpt lat="44.10815" lon="3.01157">
        <ele>644.9</ele>
        <time>2018-05-19T11:31:16Z</time>
      </trkpt>
      <trkpt lat="44.10819" lon="3.01164">
        <ele>644.2</ele>
        <time>2018-05-19T11:31:17Z</time>
      </trkpt>
      <trkpt lat="44.10821" lon="3.01172">
        <ele>643.6</ele>
        <time>2018-05-19T11:31:18Z</time>
      </trkpt>
      <trkpt lat="44.10824" lon="3.0118">
        <ele>642.4</ele>
        <time>2018-05-19T11:31:19Z</time>
      </trkpt>
      <trkpt lat="44.10827" lon="3.01187">
        <ele>640.7</ele>
        <time>2018-05-19T11:31:20Z</time>
      </trkpt>
      <trkpt lat="44.10828" lon="3.01192">
        <ele>639.7</ele>
        <time>2018-05-19T11:31:21Z</time>
      </trkpt>
      <trkpt lat="44.1083" lon="3.01197">
        <ele>638.5</ele>
        <time>2018-05-19T11:31:22Z</time>
      </trkpt>
      <trkpt lat="44.10832" lon="3.01202">
        <ele>637.3</ele>
        <time>2018-05-19T11:31:23Z</time>
      </trkpt>
      <trkpt lat="44.10834" lon="3.01206">
        <ele>636.7</ele>
        <time>2018-05-19T11:31:24Z</time>
      </trkpt>
      <trkpt lat="44.10837" lon="3.01211">
        <ele>635.9</ele>
        <time>2018-05-19T11:31:25Z</time>
      </trkpt>
      <trkpt lat="44.10841" lon="3.01215">
        <ele>634.6</ele>
        <time>2018-05-19T11:31:26Z</time>
      </trkpt>
      <trkpt lat="44.10845" lon="3.01219">
        <ele>633.3</ele>
        <time>2018-05-19T11:31:27Z</time>
      </trkpt>
      <trkpt lat="44.10848" lon="3.01226">
        <ele>631.2</ele>
        <time>2018-05-19T11:31:28Z</time>
      </trkpt>
      <trkpt lat="44.10851" lon="3.01231">
        <ele>630</ele>
        <time>2018-05-19T11:31:29Z</time>
      </trkpt>
      <trkpt lat="44.10854" lon="3.01235">
        <ele>629.4</ele>
        <time>2018-05-19T11:31:30Z</time>
      </trkpt>
      <trkpt lat="44.10858" lon="3.0124">
        <ele>628.6</ele>
        <time>2018-05-19T11:31:31Z</time>
      </trkpt>
      <trkpt lat="44.10862" lon="3.01246">
        <ele>627.4</ele>
        <time>2018-05-19T11:31:32Z</time>
      </trkpt>
      <trkpt lat="44.10865" lon="3.01252">
        <ele>626.2</ele>
        <time>2018-05-19T11:31:33Z</time>
      </trkpt>
      <trkpt lat="44.10867" lon="3.01259">
        <ele>625.4</ele>
        <time>2018-05-19T11:31:34Z</time>
      </trkpt>
      <trkpt lat="44.10869" lon="3.01266">
        <ele>624.3</ele>
        <time>2018-05-19T11:31:35Z</time>
      </trkpt>
      <trkpt lat="44.10871" lon="3.01272">
        <ele>623.7</ele>
        <time>2018-05-19T11:31:36Z</time>
      </trkpt>
      <trkpt lat="44.10871" lon="3.01278">
        <ele>623</ele>
        <time>2018-05-19T11:31:37Z</time>
      </trkpt>
      <trkpt lat="44.10872" lon="3.01286">
        <ele>622.2</ele>
        <time>2018-05-19T11:31:38Z</time>
      </trkpt>
      <trkpt lat="44.10874" lon="3.01295">
        <ele>621.5</ele>
        <time>2018-05-19T11:31:39Z</time>
      </trkpt>
      <trkpt lat="44.10874" lon="3.01305">
        <ele>620.4</ele>
        <time>2018-05-19T11:31:40Z</time>
      </trkpt>
      <trkpt lat="44.10875" lon="3.01314">
        <ele>619.4</ele>
        <time>2018-05-19T11:31:41Z</time>
      </trkpt>
      <trkpt lat="44.10875" lon="3.01323">
        <ele>618.2</ele>
        <time>2018-05-19T11:31:42Z</time>
      </trkpt>
      <trkpt lat="44.10877" lon="3.0133">
        <ele>616.9</ele>
        <time>2018-05-19T11:31:43Z</time>
      </trkpt>
      <trkpt lat="44.10877" lon="3.01338">
        <ele>615.9</ele>
        <time>2018-05-19T11:31:44Z</time>
      </trkpt>
      <trkpt lat="44.10876" lon="3.01344">
        <ele>615.1</ele>
        <time>2018-05-19T11:31:45Z</time>
      </trkpt>
      <trkpt lat="44.10874" lon="3.0135">
        <ele>614.7</ele>
        <time>2018-05-19T11:31:46Z</time>
      </trkpt>
      <trkpt lat="44.10872" lon="3.01357">
        <ele>614</ele>
        <time>2018-05-19T11:31:47Z</time>
      </trkpt>
      <trkpt lat="44.10866" lon="3.01361">
        <ele>613.1</ele>
        <time>2018-05-19T11:31:48Z</time>
      </trkpt>
      <trkpt lat="44.10861" lon="3.01363">
        <ele>612.6</ele>
        <time>2018-05-19T11:31:49Z</time>
      </trkpt>
      <trkpt lat="44.10854" lon="3.01367">
        <ele>611.8</ele>
        <time>2018-05-19T11:31:50Z</time>
      </trkpt>
      <trkpt lat="44.10849" lon="3.01369">
        <ele>611.1</ele>
        <time>2018-05-19T11:31:51Z</time>
      </trkpt>
      <trkpt lat="44.10843" lon="3.01372">
        <ele>610.4</ele>
        <time>2018-05-19T11:31:52Z</time>
      </trkpt>
      <trkpt lat="44.10837" lon="3.01373">
        <ele>609.7</ele>
        <time>2018-05-19T11:31:53Z</time>
      </trkpt>
      <trkpt lat="44.1083" lon="3.01374">
        <ele>609.5</ele>
        <time>2018-05-19T11:31:54Z</time>
      </trkpt>
      <trkpt lat="44.10824" lon="3.01377">
        <ele>609.3</ele>
        <time>2018-05-19T11:31:55Z</time>
      </trkpt>
      <trkpt lat="44.10819" lon="3.01379">
        <ele>609.1</ele>
        <time>2018-05-19T11:31:56Z</time>
      </trkpt>
      <trkpt lat="44.10813" lon="3.01382">
        <ele>608.7</ele>
        <time>2018-05-19T11:31:57Z</time>
      </trkpt>
      <trkpt lat="44.10809" lon="3.01385">
        <ele>608.4</ele>
        <time>2018-05-19T11:31:58Z</time>
      </trkpt>
      <trkpt lat="44.10807" lon="3.01388">
        <ele>608.2</ele>
        <time>2018-05-19T11:32:00Z</time>
      </trkpt>
      <trkpt lat="44.1081" lon="3.01384">
        <ele>608</ele>
        <time>2018-05-19T11:32:16Z</time>
      </trkpt>
      <trkpt lat="44.10808" lon="3.01387">
        <ele>608</ele>
        <time>2018-05-19T11:32:50Z</time>
      </trkpt>
      <trkpt lat="44.10804" lon="3.01388">
        <ele>607.9</ele>
        <time>2018-05-19T11:33:05Z</time>
      </trkpt>
      <trkpt lat="44.10801" lon="3.01391">
        <ele>607.8</ele>
        <time>2018-05-19T11:33:07Z</time>
      </trkpt>
      <trkpt lat="44.10797" lon="3.01395">
        <ele>607.7</ele>
        <time>2018-05-19T11:33:09Z</time>
      </trkpt>
      <trkpt lat="44.10795" lon="3.01399">
        <ele>607.7</ele>
        <time>2018-05-19T11:33:11Z</time>
      </trkpt>
      <trkpt lat="44.10794" lon="3.01402">
        <ele>607.6</ele>
        <time>2018-05-19T11:33:14Z</time>
      </trkpt>
      <trkpt lat="44.10791" lon="3.01403">
        <ele>607.6</ele>
        <time>2018-05-19T11:33:22Z</time>
      </trkpt>
      <trkpt lat="44.10788" lon="3.01405">
        <ele>607.5</ele>
        <time>2018-05-19T11:33:26Z</time>
      </trkpt>
      <trkpt lat="44.10787" lon="3.01409">
        <ele>607.5</ele>
        <time>2018-05-19T11:33:28Z</time>
      </trkpt>
      <trkpt lat="44.10785" lon="3.01413">
        <ele>607.5</ele>
        <time>2018-05-19T11:33:31Z</time>
      </trkpt>
      <trkpt lat="44.10784" lon="3.01419">
        <ele>607.5</ele>
        <time>2018-05-19T11:33:34Z</time>
      </trkpt>
      <trkpt lat="44.10783" lon="3.01423">
        <ele>607.4</ele>
        <time>2018-05-19T11:33:35Z</time>
      </trkpt>
      <trkpt lat="44.10783" lon="3.01428">
        <ele>607.4</ele>
        <time>2018-05-19T11:33:36Z</time>
      </trkpt>
      <trkpt lat="44.10784" lon="3.01434">
        <ele>607.4</ele>
        <time>2018-05-19T11:33:37Z</time>
      </trkpt>
      <trkpt lat="44.10785" lon="3.01439">
        <ele>607.4</ele>
        <time>2018-05-19T11:33:38Z</time>
      </trkpt>
      <trkpt lat="44.10787" lon="3.01445">
        <ele>607.3</ele>
        <time>2018-05-19T11:33:39Z</time>
      </trkpt>
      <trkpt lat="44.10788" lon="3.01454">
        <ele>607.2</ele>
        <time>2018-05-19T11:33:40Z</time>
      </trkpt>
      <trkpt lat="44.10789" lon="3.01462">
        <ele>606</ele>
        <time>2018-05-19T11:33:41Z</time>
      </trkpt>
      <trkpt lat="44.10789" lon="3.0147">
        <ele>604.7</ele>
        <time>2018-05-19T11:33:42Z</time>
      </trkpt>
      <trkpt lat="44.10788" lon="3.01479">
        <ele>603.5</ele>
        <time>2018-05-19T11:33:43Z</time>
      </trkpt>
      <trkpt lat="44.10787" lon="3.01489">
        <ele>602.4</ele>
        <time>2018-05-19T11:33:44Z</time>
      </trkpt>
      <trkpt lat="44.10787" lon="3.01498">
        <ele>600.8</ele>
        <time>2018-05-19T11:33:45Z</time>
      </trkpt>
      <trkpt lat="44.10787" lon="3.01508">
        <ele>599.6</ele>
        <time>2018-05-19T11:33:46Z</time>
      </trkpt>
      <trkpt lat="44.10787" lon="3.01516">
        <ele>599.2</ele>
        <time>2018-05-19T11:33:47Z</time>
      </trkpt>
      <trkpt lat="44.10788" lon="3.01535">
        <ele>598.8</ele>
      </trkpt>
      <trkpt lat="44.10786" lon="3.01538">
        <ele>596.9</ele>
      </trkpt>
      <trkpt lat="44.10784" lon="3.01539">
        <ele>611.8</ele>
        <time>2021-03-06T14:12:30Z</time>
      </trkpt>
      <trkpt lat="44.10776" lon="3.01543">
        <ele>611.2</ele>
        <time>2021-03-06T14:12:32Z</time>
      </trkpt>
      <trkpt lat="44.10767" lon="3.01532">
        <ele>610.3</ele>
        <time>2021-03-06T14:12:33Z</time>
      </trkpt>
      <trkpt lat="44.10763" lon="3.01525">
        <ele>609.8</ele>
        <time>2021-03-06T14:12:34Z</time>
      </trkpt>
      <trkpt lat="44.10756" lon="3.01509">
        <ele>608.8</ele>
        <time>2021-03-06T14:12:36Z</time>
      </trkpt>
      <trkpt lat="44.10747" lon="3.01498">
        <ele>607.9</ele>
        <time>2021-03-06T14:12:38Z</time>
      </trkpt>
      <trkpt lat="44.10733" lon="3.01487">
        <ele>606.6</ele>
        <time>2021-03-06T14:12:40Z</time>
      </trkpt>
      <trkpt lat="44.10725" lon="3.0148">
        <ele>605.9</ele>
        <time>2021-03-06T14:12:41Z</time>
      </trkpt>
      <trkpt lat="44.10712" lon="3.01464">
        <ele>604.6</ele>
        <time>2021-03-06T14:12:43Z</time>
      </trkpt>
      <trkpt lat="44.10704" lon="3.0146">
        <ele>604</ele>
        <time>2021-03-06T14:12:44Z</time>
      </trkpt>
      <trkpt lat="44.10692" lon="3.01451">
        <ele>603</ele>
        <time>2021-03-06T14:12:46Z</time>
      </trkpt>
      <trkpt lat="44.10683" lon="3.01437">
        <ele>602</ele>
        <time>2021-03-06T14:12:48Z</time>
      </trkpt>
      <trkpt lat="44.10678" lon="3.01432">
        <ele>601.5</ele>
        <time>2021-03-06T14:12:49Z</time>
      </trkpt>
      <trkpt lat="44.10669" lon="3.01421">
        <ele>600.6</ele>
        <time>2021-03-06T14:12:51Z</time>
      </trkpt>
      <trkpt lat="44.10669" lon="3.01411">
        <ele>600.1</ele>
        <time>2021-03-06T14:12:52Z</time>
      </trkpt>
      <trkpt lat="44.10668" lon="3.014">
        <ele>599.4</ele>
        <time>2021-03-06T14:12:53Z</time>
      </trkpt>
      <trkpt lat="44.10669" lon="3.01389">
        <ele>598.9</ele>
        <time>2021-03-06T14:12:54Z</time>
      </trkpt>
      <trkpt lat="44.10669" lon="3.0138">
        <ele>598.3</ele>
        <time>2021-03-06T14:12:55Z</time>
      </trkpt>
      <trkpt lat="44.10666" lon="3.01367">
        <ele>597.6</ele>
        <time>2021-03-06T14:12:57Z</time>
      </trkpt>
      <trkpt lat="44.10658" lon="3.01365">
        <ele>597</ele>
        <time>2021-03-06T14:12:59Z</time>
      </trkpt>
      <trkpt lat="44.1065" lon="3.01363">
        <ele>596.4</ele>
        <time>2021-03-06T14:13:00Z</time>
      </trkpt>
      <trkpt lat="44.10642" lon="3.01361">
        <ele>595.7</ele>
        <time>2021-03-06T14:13:01Z</time>
      </trkpt>
      <trkpt lat="44.10627" lon="3.01357">
        <ele>594.6</ele>
        <time>2021-03-06T14:13:03Z</time>
      </trkpt>
      <trkpt lat="44.10621" lon="3.01355">
        <ele>594.1</ele>
        <time>2021-03-06T14:13:04Z</time>
      </trkpt>
      <trkpt lat="44.10616" lon="3.01352">
        <ele>593.7</ele>
        <time>2021-03-06T14:13:05Z</time>
      </trkpt>
      <trkpt lat="44.1061" lon="3.01349">
        <ele>593.2</ele>
        <time>2021-03-06T14:13:06Z</time>
      </trkpt>
      <trkpt lat="44.10601" lon="3.01345">
        <ele>592.5</ele>
        <time>2021-03-06T14:13:08Z</time>
      </trkpt>
      <trkpt lat="44.10593" lon="3.01342">
        <ele>591.9</ele>
        <time>2021-03-06T14:13:10Z</time>
      </trkpt>
      <trkpt lat="44.1059" lon="3.01342">
        <ele>591.6</ele>
        <time>2021-03-06T14:13:11Z</time>
      </trkpt>
      <trkpt lat="44.10585" lon="3.01341">
        <ele>591.3</ele>
        <time>2021-03-06T14:13:12Z</time>
      </trkpt>
      <trkpt lat="44.10573" lon="3.01337">
        <ele>590.4</ele>
        <time>2021-03-06T14:13:14Z</time>
      </trkpt>
      <trkpt lat="44.10562" lon="3.01331">
        <ele>589.4</ele>
        <time>2021-03-06T14:13:16Z</time>
      </trkpt>
      <trkpt lat="44.10551" lon="3.01328">
        <ele>588.6</ele>
        <time>2021-03-06T14:13:18Z</time>
      </trkpt>
      <trkpt lat="44.10541" lon="3.01325">
        <ele>587.8</ele>
        <time>2021-03-06T14:13:20Z</time>
      </trkpt>
      <trkpt lat="44.10531" lon="3.01322">
        <ele>587.1</ele>
        <time>2021-03-06T14:13:22Z</time>
      </trkpt>
      <trkpt lat="44.10521" lon="3.0132">
        <ele>586.3</ele>
        <time>2021-03-06T14:13:24Z</time>
      </trkpt>
      <trkpt lat="44.10515" lon="3.01319">
        <ele>585.9</ele>
        <time>2021-03-06T14:13:25Z</time>
      </trkpt>
      <trkpt lat="44.10509" lon="3.01317">
        <ele>585.4</ele>
        <time>2021-03-06T14:13:26Z</time>
      </trkpt>
      <trkpt lat="44.10503" lon="3.01316">
        <ele>584.9</ele>
        <time>2021-03-06T14:13:27Z</time>
      </trkpt>
      <trkpt lat="44.10495" lon="3.01314">
        <ele>584.4</ele>
        <time>2021-03-06T14:13:28Z</time>
      </trkpt>
      <trkpt lat="44.10482" lon="3.01311">
        <ele>583.3</ele>
        <time>2021-03-06T14:13:30Z</time>
      </trkpt>
      <trkpt lat="44.10468" lon="3.01308">
        <ele>582.3</ele>
        <time>2021-03-06T14:13:32Z</time>
      </trkpt>
      <trkpt lat="44.1046" lon="3.01306">
        <ele>581.7</ele>
        <time>2021-03-06T14:13:33Z</time>
      </trkpt>
      <trkpt lat="44.10454" lon="3.01304">
        <ele>581.2</ele>
        <time>2021-03-06T14:13:34Z</time>
      </trkpt>
      <trkpt lat="44.1044" lon="3.01299">
        <ele>580.1</ele>
        <time>2021-03-06T14:13:36Z</time>
      </trkpt>
      <trkpt lat="44.10432" lon="3.01296">
        <ele>579.5</ele>
        <time>2021-03-06T14:13:37Z</time>
      </trkpt>
      <trkpt lat="44.10417" lon="3.0129">
        <ele>578.3</ele>
        <time>2021-03-06T14:13:39Z</time>
      </trkpt>
      <trkpt lat="44.1041" lon="3.01285">
        <ele>577.7</ele>
        <time>2021-03-06T14:13:40Z</time>
      </trkpt>
      <trkpt lat="44.10397" lon="3.01278">
        <ele>576.7</ele>
        <time>2021-03-06T14:13:42Z</time>
      </trkpt>
      <trkpt lat="44.10388" lon="3.0127">
        <ele>575.8</ele>
        <time>2021-03-06T14:13:44Z</time>
      </trkpt>
      <trkpt lat="44.10383" lon="3.01266">
        <ele>575.4</ele>
        <time>2021-03-06T14:13:45Z</time>
      </trkpt>
      <trkpt lat="44.10378" lon="3.01263">
        <ele>575</ele>
        <time>2021-03-06T14:13:46Z</time>
      </trkpt>
      <trkpt lat="44.10372" lon="3.01256">
        <ele>574.4</ele>
        <time>2021-03-06T14:13:48Z</time>
      </trkpt>
      <trkpt lat="44.1037" lon="3.01251">
        <ele>574.1</ele>
        <time>2021-03-06T14:13:49Z</time>
      </trkpt>
      <trkpt lat="44.10365" lon="3.01248">
        <ele>573.7</ele>
        <time>2021-03-06T14:13:50Z</time>
      </trkpt>
      <trkpt lat="44.10355" lon="3.01242">
        <ele>572.9</ele>
        <time>2021-03-06T14:13:52Z</time>
      </trkpt>
      <trkpt lat="44.10346" lon="3.01237">
        <ele>572.2</ele>
        <time>2021-03-06T14:13:54Z</time>
      </trkpt>
      <trkpt lat="44.10337" lon="3.01233">
        <ele>571.5</ele>
        <time>2021-03-06T14:13:55Z</time>
      </trkpt>
      <trkpt lat="44.10331" lon="3.0123">
        <ele>571</ele>
        <time>2021-03-06T14:13:57Z</time>
      </trkpt>
      <trkpt lat="44.10317" lon="3.01223">
        <ele>569.9</ele>
        <time>2021-03-06T14:13:59Z</time>
      </trkpt>
      <trkpt lat="44.10306" lon="3.01214">
        <ele>568.9</ele>
        <time>2021-03-06T14:14:01Z</time>
      </trkpt>
      <trkpt lat="44.10294" lon="3.01205">
        <ele>567.9</ele>
        <time>2021-03-06T14:14:03Z</time>
      </trkpt>
      <trkpt lat="44.10289" lon="3.01201">
        <ele>567.5</ele>
        <time>2021-03-06T14:14:04Z</time>
      </trkpt>
      <trkpt lat="44.10277" lon="3.01193">
        <ele>566.4</ele>
        <time>2021-03-06T14:14:06Z</time>
      </trkpt>
      <trkpt lat="44.10271" lon="3.01187">
        <ele>565.9</ele>
        <time>2021-03-06T14:14:07Z</time>
      </trkpt>
      <trkpt lat="44.10265" lon="3.01181">
        <ele>565.3</ele>
        <time>2021-03-06T14:14:08Z</time>
      </trkpt>
      <trkpt lat="44.10251" lon="3.01172">
        <ele>564.2</ele>
        <time>2021-03-06T14:14:10Z</time>
      </trkpt>
      <trkpt lat="44.10244" lon="3.01166">
        <ele>563.6</ele>
        <time>2021-03-06T14:14:11Z</time>
      </trkpt>
      <trkpt lat="44.1023" lon="3.01156">
        <ele>562.3</ele>
        <time>2021-03-06T14:14:13Z</time>
      </trkpt>
      <trkpt lat="44.10222" lon="3.01151">
        <ele>561.7</ele>
        <time>2021-03-06T14:14:14Z</time>
      </trkpt>
      <trkpt lat="44.10209" lon="3.01138">
        <ele>560.5</ele>
        <time>2021-03-06T14:14:16Z</time>
      </trkpt>
      <trkpt lat="44.10202" lon="3.01131">
        <ele>559.8</ele>
        <time>2021-03-06T14:14:17Z</time>
      </trkpt>
      <trkpt lat="44.10188" lon="3.01117">
        <ele>558.6</ele>
        <time>2021-03-06T14:14:19Z</time>
      </trkpt>
      <trkpt lat="44.10183" lon="3.01107">
        <ele>557.9</ele>
        <time>2021-03-06T14:14:20Z</time>
      </trkpt>
      <trkpt lat="44.10172" lon="3.01087">
        <ele>556.6</ele>
        <time>2021-03-06T14:14:22Z</time>
      </trkpt>
      <trkpt lat="44.10164" lon="3.01066">
        <ele>555.3</ele>
        <time>2021-03-06T14:14:24Z</time>
      </trkpt>
      <trkpt lat="44.1016" lon="3.01056">
        <ele>554.6</ele>
        <time>2021-03-06T14:14:25Z</time>
      </trkpt>
      <trkpt lat="44.10157" lon="3.01049">
        <ele>554.2</ele>
        <time>2021-03-06T14:14:26Z</time>
      </trkpt>
      <trkpt lat="44.10153" lon="3.01044">
        <ele>553.8</ele>
        <time>2021-03-06T14:14:28Z</time>
      </trkpt>
      <trkpt lat="44.10149" lon="3.01039">
        <ele>553.4</ele>
        <time>2021-03-06T14:14:30Z</time>
      </trkpt>
      <trkpt lat="44.10146" lon="3.01037">
        <ele>553.1</ele>
        <time>2021-03-06T14:14:31Z</time>
      </trkpt>
      <trkpt lat="44.10144" lon="3.01037">
        <ele>553</ele>
        <time>2021-03-06T14:14:32Z</time>
      </trkpt>
      <trkpt lat="44.1014" lon="3.01031">
        <ele>552.6</ele>
        <time>2021-03-06T14:14:34Z</time>
      </trkpt>
      <trkpt lat="44.1014" lon="3.01032">
        <ele>552.5</ele>
        <time>2021-03-06T14:14:35Z</time>
      </trkpt>
      <trkpt lat="44.10139" lon="3.01025">
        <ele>552.1</ele>
        <time>2021-03-06T14:14:37Z</time>
      </trkpt>
      <trkpt lat="44.10137" lon="3.01018">
        <ele>551.7</ele>
        <time>2021-03-06T14:14:38Z</time>
      </trkpt>
      <trkpt lat="44.10136" lon="3.01013">
        <ele>551.4</ele>
        <time>2021-03-06T14:14:39Z</time>
      </trkpt>
      <trkpt lat="44.10133" lon="3.01008">
        <ele>551.1</ele>
        <time>2021-03-06T14:14:41Z</time>
      </trkpt>
      <trkpt lat="44.1013" lon="3.01001">
        <ele>550.7</ele>
        <time>2021-03-06T14:14:42Z</time>
      </trkpt>
      <trkpt lat="44.10128" lon="3.00995">
        <ele>550.3</ele>
        <time>2021-03-06T14:14:44Z</time>
      </trkpt>
      <trkpt lat="44.10126" lon="3.00989">
        <ele>550</ele>
        <time>2021-03-06T14:14:45Z</time>
      </trkpt>
      <trkpt lat="44.10124" lon="3.00986">
        <ele>549.7</ele>
        <time>2021-03-06T14:14:46Z</time>
      </trkpt>
      <trkpt lat="44.10123" lon="3.0098">
        <ele>549.4</ele>
        <time>2021-03-06T14:14:48Z</time>
      </trkpt>
      <trkpt lat="44.10122" lon="3.00975">
        <ele>549.1</ele>
        <time>2021-03-06T14:14:49Z</time>
      </trkpt>
      <trkpt lat="44.10119" lon="3.0097">
        <ele>548.8</ele>
        <time>2021-03-06T14:14:51Z</time>
      </trkpt>
      <trkpt lat="44.10116" lon="3.00964">
        <ele>548.4</ele>
        <time>2021-03-06T14:14:52Z</time>
      </trkpt>
      <trkpt lat="44.10114" lon="3.00959">
        <ele>548.1</ele>
        <time>2021-03-06T14:14:54Z</time>
      </trkpt>
      <trkpt lat="44.10111" lon="3.00952">
        <ele>547.7</ele>
        <time>2021-03-06T14:14:55Z</time>
      </trkpt>
      <trkpt lat="44.10108" lon="3.00947">
        <ele>547.3</ele>
        <time>2021-03-06T14:14:57Z</time>
      </trkpt>
      <trkpt lat="44.10105" lon="3.00942">
        <ele>546.9</ele>
        <time>2021-03-06T14:14:59Z</time>
      </trkpt>
      <trkpt lat="44.10102" lon="3.00938">
        <ele>546.6</ele>
        <time>2021-03-06T14:15:00Z</time>
      </trkpt>
      <trkpt lat="44.10099" lon="3.00935">
        <ele>546.3</ele>
        <time>2021-03-06T14:15:02Z</time>
      </trkpt>
      <trkpt lat="44.10096" lon="3.00933">
        <ele>546.1</ele>
        <time>2021-03-06T14:15:03Z</time>
      </trkpt>
      <trkpt lat="44.10091" lon="3.00929">
        <ele>545.7</ele>
        <time>2021-03-06T14:15:04Z</time>
      </trkpt>
      <trkpt lat="44.10086" lon="3.00926">
        <ele>545.3</ele>
        <time>2021-03-06T14:15:06Z</time>
      </trkpt>
      <trkpt lat="44.10083" lon="3.00925">
        <ele>545.1</ele>
        <time>2021-03-06T14:15:07Z</time>
      </trkpt>
      <trkpt lat="44.10079" lon="3.00924">
        <ele>544.9</ele>
        <time>2021-03-06T14:15:08Z</time>
      </trkpt>
      <trkpt lat="44.10076" lon="3.00923">
        <ele>544.6</ele>
        <time>2021-03-06T14:15:10Z</time>
      </trkpt>
      <trkpt lat="44.10068" lon="3.00927">
        <ele>543.9</ele>
        <time>2021-03-06T14:15:11Z</time>
      </trkpt>
      <trkpt lat="44.10057" lon="3.00928">
        <ele>542.7</ele>
        <time>2021-03-06T14:15:13Z</time>
      </trkpt>
      <trkpt lat="44.10052" lon="3.00927">
        <ele>542.2</ele>
        <time>2021-03-06T14:15:14Z</time>
      </trkpt>
      <trkpt lat="44.10044" lon="3.00932">
        <ele>541.2</ele>
        <time>2021-03-06T14:15:16Z</time>
      </trkpt>
      <trkpt lat="44.10039" lon="3.00934">
        <ele>540.8</ele>
        <time>2021-03-06T14:15:17Z</time>
      </trkpt>
      <trkpt lat="44.10028" lon="3.00937">
        <ele>540.5</ele>
        <time>2021-03-06T14:15:19Z</time>
      </trkpt>
      <trkpt lat="44.10027" lon="3.00934">
        <ele>540.5</ele>
        <time>2021-03-06T14:15:20Z</time>
      </trkpt>
      <trkpt lat="44.10026" lon="3.00932">
        <ele>540.4</ele>
        <time>2021-03-06T14:15:21Z</time>
      </trkpt>
      <trkpt lat="44.10024" lon="3.00932">
        <ele>540.3</ele>
        <time>2021-03-06T14:15:23Z</time>
      </trkpt>
      <trkpt lat="44.10023" lon="3.00931">
        <ele>540.3</ele>
        <time>2021-03-06T14:15:24Z</time>
      </trkpt>
      <trkpt lat="44.10021" lon="3.00931">
        <ele>540.2</ele>
        <time>2021-03-06T14:15:25Z</time>
      </trkpt>
      <trkpt lat="44.10017" lon="3.00928">
        <ele>539.9</ele>
        <time>2021-03-06T14:15:26Z</time>
      </trkpt>
      <trkpt lat="44.10016" lon="3.00926">
        <ele>539.8</ele>
        <time>2021-03-06T14:15:27Z</time>
      </trkpt>
      <trkpt lat="44.10013" lon="3.00924">
        <ele>539.5</ele>
        <time>2021-03-06T14:15:28Z</time>
      </trkpt>
      <trkpt lat="44.1001" lon="3.00922">
        <ele>539.2</ele>
        <time>2021-03-06T14:15:30Z</time>
      </trkpt>
      <trkpt lat="44.10007" lon="3.00921">
        <ele>538.9</ele>
        <time>2021-03-06T14:15:31Z</time>
      </trkpt>
      <trkpt lat="44.10002" lon="3.00921">
        <ele>538.4</ele>
        <time>2021-03-06T14:15:32Z</time>
      </trkpt>
      <trkpt lat="44.09996" lon="3.00921">
        <ele>538</ele>
        <time>2021-03-06T14:15:34Z</time>
      </trkpt>
      <trkpt lat="44.09993" lon="3.0092">
        <ele>537.6</ele>
        <time>2021-03-06T14:15:35Z</time>
      </trkpt>
      <trkpt lat="44.0999" lon="3.00915">
        <ele>537.2</ele>
        <time>2021-03-06T14:15:36Z</time>
      </trkpt>
      <trkpt lat="44.09987" lon="3.0091">
        <ele>536.6</ele>
        <time>2021-03-06T14:15:38Z</time>
      </trkpt>
      <trkpt lat="44.09985" lon="3.00909">
        <ele>536.3</ele>
        <time>2021-03-06T14:15:39Z</time>
      </trkpt>
      <trkpt lat="44.09983" lon="3.00908">
        <ele>536</ele>
        <time>2021-03-06T14:15:40Z</time>
      </trkpt>
      <trkpt lat="44.09977" lon="3.00905">
        <ele>535</ele>
        <time>2021-03-06T14:15:42Z</time>
      </trkpt>
      <trkpt lat="44.09971" lon="3.00901">
        <ele>534</ele>
        <time>2021-03-06T14:15:44Z</time>
      </trkpt>
      <trkpt lat="44.09968" lon="3.00895">
        <ele>533.3</ele>
        <time>2021-03-06T14:15:45Z</time>
      </trkpt>
      <trkpt lat="44.09963" lon="3.00891">
        <ele>532.6</ele>
        <time>2021-03-06T14:15:46Z</time>
      </trkpt>
      <trkpt lat="44.09954" lon="3.00884">
        <ele>531.4</ele>
        <time>2021-03-06T14:15:48Z</time>
      </trkpt>
      <trkpt lat="44.09949" lon="3.00879">
        <ele>531.1</ele>
        <time>2021-03-06T14:15:49Z</time>
      </trkpt>
      <trkpt lat="44.09945" lon="3.00874">
        <ele>530.9</ele>
        <time>2021-03-06T14:15:50Z</time>
      </trkpt>
      <trkpt lat="44.0994" lon="3.00861">
        <ele>530.9</ele>
        <time>2021-03-06T14:15:52Z</time>
      </trkpt>
      <trkpt lat="44.09939" lon="3.00858">
        <ele>530.9</ele>
        <time>2021-03-06T14:15:53Z</time>
      </trkpt>
      <trkpt lat="44.09937" lon="3.0085">
        <ele>530.9</ele>
        <time>2021-03-06T14:15:55Z</time>
      </trkpt>
      <trkpt lat="44.0993" lon="3.00834">
        <ele>530.7</ele>
        <time>2021-03-06T14:15:57Z</time>
      </trkpt>
      <trkpt lat="44.09928" lon="3.00827">
        <ele>530.7</ele>
        <time>2021-03-06T14:15:58Z</time>
      </trkpt>
      <trkpt lat="44.09924" lon="3.00815">
        <ele>530.6</ele>
        <time>2021-03-06T14:16:00Z</time>
      </trkpt>
      <trkpt lat="44.09921" lon="3.00805">
        <ele>530.5</ele>
        <time>2021-03-06T14:16:02Z</time>
      </trkpt>
      <trkpt lat="44.09922" lon="3.00798">
        <ele>530.3</ele>
        <time>2021-03-06T14:16:03Z</time>
      </trkpt>
      <trkpt lat="44.0992" lon="3.00791">
        <ele>530.1</ele>
        <time>2021-03-06T14:16:05Z</time>
      </trkpt>
      <trkpt lat="44.09917" lon="3.00783">
        <ele>529.9</ele>
        <time>2021-03-06T14:16:06Z</time>
      </trkpt>
      <trkpt lat="44.09914" lon="3.00776">
        <ele>529.9</ele>
        <time>2021-03-06T14:16:08Z</time>
      </trkpt>
      <trkpt lat="44.09912" lon="3.00767">
        <ele>529.9</ele>
        <time>2021-03-06T14:16:09Z</time>
      </trkpt>
      <trkpt lat="44.0991" lon="3.00761">
        <ele>530</ele>
        <time>2021-03-06T14:16:10Z</time>
      </trkpt>
      <trkpt lat="44.09907" lon="3.00754">
        <ele>530.2</ele>
        <time>2021-03-06T14:16:11Z</time>
      </trkpt>
      <trkpt lat="44.09906" lon="3.00747">
        <ele>530.2</ele>
        <time>2021-03-06T14:16:12Z</time>
      </trkpt>
      <trkpt lat="44.09906" lon="3.0074">
        <ele>530.1</ele>
        <time>2021-03-06T14:16:14Z</time>
      </trkpt>
      <trkpt lat="44.09906" lon="3.00735">
        <ele>530</ele>
        <time>2021-03-06T14:16:15Z</time>
      </trkpt>
      <trkpt lat="44.09905" lon="3.00729">
        <ele>529.8</ele>
        <time>2021-03-06T14:16:16Z</time>
      </trkpt>
      <trkpt lat="44.09901" lon="3.0072">
        <ele>529.4</ele>
        <time>2021-03-06T14:16:17Z</time>
      </trkpt>
      <trkpt lat="44.09901" lon="3.00712">
        <ele>528.9</ele>
        <time>2021-03-06T14:16:19Z</time>
      </trkpt>
      <trkpt lat="44.099" lon="3.007">
        <ele>528</ele>
        <time>2021-03-06T14:16:21Z</time>
      </trkpt>
      <trkpt lat="44.09897" lon="3.00693">
        <ele>527.3</ele>
        <time>2021-03-06T14:16:22Z</time>
      </trkpt>
      <trkpt lat="44.09894" lon="3.00686">
        <ele>526.7</ele>
        <time>2021-03-06T14:16:23Z</time>
      </trkpt>
      <trkpt lat="44.09889" lon="3.00671">
        <ele>525.8</ele>
        <time>2021-03-06T14:16:25Z</time>
      </trkpt>
      <trkpt lat="44.09887" lon="3.00657">
        <ele>525</ele>
        <time>2021-03-06T14:16:27Z</time>
      </trkpt>
      <trkpt lat="44.09889" lon="3.00651">
        <ele>524.6</ele>
        <time>2021-03-06T14:16:28Z</time>
      </trkpt>
      <trkpt lat="44.0989" lon="3.00642">
        <ele>523.9</ele>
        <time>2021-03-06T14:16:30Z</time>
      </trkpt>
      <trkpt lat="44.09889" lon="3.00628">
        <ele>522.6</ele>
        <time>2021-03-06T14:16:32Z</time>
      </trkpt>
      <trkpt lat="44.09889" lon="3.0062">
        <ele>521.9</ele>
        <time>2021-03-06T14:16:33Z</time>
      </trkpt>
      <trkpt lat="44.0989" lon="3.00613">
        <ele>521.1</ele>
        <time>2021-03-06T14:16:34Z</time>
      </trkpt>
      <trkpt lat="44.09891" lon="3.00606">
        <ele>520.1</ele>
        <time>2021-03-06T14:16:35Z</time>
      </trkpt>
      <trkpt lat="44.09896" lon="3.00593">
        <ele>518.4</ele>
        <time>2021-03-06T14:16:37Z</time>
      </trkpt>
      <trkpt lat="44.09898" lon="3.00587">
        <ele>517.6</ele>
        <time>2021-03-06T14:16:38Z</time>
      </trkpt>
      <trkpt lat="44.099" lon="3.00581">
        <ele>516.9</ele>
        <time>2021-03-06T14:16:40Z</time>
      </trkpt>
      <trkpt lat="44.09903" lon="3.00572">
        <ele>516</ele>
        <time>2021-03-06T14:16:41Z</time>
      </trkpt>
      <trkpt lat="44.09901" lon="3.00567">
        <ele>515.6</ele>
        <time>2021-03-06T14:16:42Z</time>
      </trkpt>
      <trkpt lat="44.09904" lon="3.00562">
        <ele>515.3</ele>
        <time>2021-03-06T14:16:44Z</time>
      </trkpt>
      <trkpt lat="44.09909" lon="3.00559">
        <ele>514.8</ele>
        <time>2021-03-06T14:16:45Z</time>
      </trkpt>
      <trkpt lat="44.09912" lon="3.00556">
        <ele>514.5</ele>
        <time>2021-03-06T14:16:46Z</time>
      </trkpt>
      <trkpt lat="44.09916" lon="3.00551">
        <ele>513.8</ele>
        <time>2021-03-06T14:16:48Z</time>
      </trkpt>
      <trkpt lat="44.0992" lon="3.00548">
        <ele>513.1</ele>
        <time>2021-03-06T14:16:49Z</time>
      </trkpt>
      <trkpt lat="44.09924" lon="3.00545">
        <ele>512.2</ele>
        <time>2021-03-06T14:16:50Z</time>
      </trkpt>
      <trkpt lat="44.0993" lon="3.00536">
        <ele>509.9</ele>
        <time>2021-03-06T14:16:52Z</time>
      </trkpt>
      <trkpt lat="44.09932" lon="3.00531">
        <ele>508.7</ele>
        <time>2021-03-06T14:16:53Z</time>
      </trkpt>
      <trkpt lat="44.0993" lon="3.0052">
        <ele>506.7</ele>
        <time>2021-03-06T14:16:55Z</time>
      </trkpt>
      <trkpt lat="44.09928" lon="3.00515">
        <ele>505.8</ele>
        <time>2021-03-06T14:16:56Z</time>
      </trkpt>
      <trkpt lat="44.09926" lon="3.00505">
        <ele>504.3</ele>
        <time>2021-03-06T14:16:58Z</time>
      </trkpt>
      <trkpt lat="44.09921" lon="3.005">
        <ele>503.3</ele>
        <time>2021-03-06T14:16:59Z</time>
      </trkpt>
      <trkpt lat="44.09911" lon="3.00489">
        <ele>501.4</ele>
        <time>2021-03-06T14:17:01Z</time>
      </trkpt>
      <trkpt lat="44.09904" lon="3.0048">
        <ele>500.2</ele>
        <time>2021-03-06T14:17:03Z</time>
      </trkpt>
      <trkpt lat="44.09903" lon="3.00475">
        <ele>499.8</ele>
        <time>2021-03-06T14:17:04Z</time>
      </trkpt>
      <trkpt lat="44.09891" lon="3.00466">
        <ele>498</ele>
        <time>2021-03-06T14:17:06Z</time>
      </trkpt>
      <trkpt lat="44.09885" lon="3.0046">
        <ele>497.1</ele>
        <time>2021-03-06T14:17:07Z</time>
      </trkpt>
      <trkpt lat="44.09875" lon="3.00453">
        <ele>495.5</ele>
        <time>2021-03-06T14:17:09Z</time>
      </trkpt>
      <trkpt lat="44.09869" lon="3.00449">
        <ele>494.6</ele>
        <time>2021-03-06T14:17:10Z</time>
      </trkpt>
      <trkpt lat="44.09856" lon="3.00441">
        <ele>493</ele>
        <time>2021-03-06T14:17:12Z</time>
      </trkpt>
      <trkpt lat="44.09851" lon="3.00437">
        <ele>492.4</ele>
        <time>2021-03-06T14:17:13Z</time>
      </trkpt>
      <trkpt lat="44.09846" lon="3.00434">
        <ele>492</ele>
        <time>2021-03-06T14:17:14Z</time>
      </trkpt>
      <trkpt lat="44.09836" lon="3.00426">
        <ele>491.5</ele>
        <time>2021-03-06T14:17:16Z</time>
      </trkpt>
      <trkpt lat="44.09825" lon="3.0042">
        <ele>491.2</ele>
        <time>2021-03-06T14:17:18Z</time>
      </trkpt>
      <trkpt lat="44.09818" lon="3.00414">
        <ele>490.7</ele>
        <time>2021-03-06T14:17:20Z</time>
      </trkpt>
      <trkpt lat="44.09815" lon="3.00413">
        <ele>490.5</ele>
        <time>2021-03-06T14:17:21Z</time>
      </trkpt>
      <trkpt lat="44.09809" lon="3.00408">
        <ele>489.8</ele>
        <time>2021-03-06T14:17:23Z</time>
      </trkpt>
      <trkpt lat="44.09803" lon="3.00407">
        <ele>489.3</ele>
        <time>2021-03-06T14:17:24Z</time>
      </trkpt>
      <trkpt lat="44.0979" lon="3.00405">
        <ele>488.9</ele>
        <time>2021-03-06T14:17:26Z</time>
      </trkpt>
      <trkpt lat="44.09783" lon="3.00403">
        <ele>489.2</ele>
        <time>2021-03-06T14:17:27Z</time>
      </trkpt>
      <trkpt lat="44.09776" lon="3.00397">
        <ele>489.8</ele>
        <time>2021-03-06T14:17:29Z</time>
      </trkpt>
      <trkpt lat="44.09774" lon="3.00402">
        <ele>490.1</ele>
        <time>2021-03-06T14:17:30Z</time>
      </trkpt>
      <trkpt lat="44.09772" lon="3.00398">
        <ele>490.3</ele>
        <time>2021-03-06T14:17:31Z</time>
      </trkpt>
      <trkpt lat="44.0977" lon="3.00395">
        <ele>490.3</ele>
        <time>2021-03-06T14:17:32Z</time>
      </trkpt>
      <trkpt lat="44.09769" lon="3.00391">
        <ele>490.3</ele>
        <time>2021-03-06T14:17:33Z</time>
      </trkpt>
      <trkpt lat="44.09766" lon="3.00389">
        <ele>490.2</ele>
        <time>2021-03-06T14:17:34Z</time>
      </trkpt>
      <trkpt lat="44.09762" lon="3.00388">
        <ele>490</ele>
        <time>2021-03-06T14:17:36Z</time>
      </trkpt>
      <trkpt lat="44.09758" lon="3.00387">
        <ele>489.7</ele>
        <time>2021-03-06T14:17:37Z</time>
      </trkpt>
      <trkpt lat="44.09751" lon="3.00387">
        <ele>489.2</ele>
        <time>2021-03-06T14:17:38Z</time>
      </trkpt>
      <trkpt lat="44.09746" lon="3.00387">
        <ele>488.9</ele>
        <time>2021-03-06T14:17:40Z</time>
      </trkpt>
      <trkpt lat="44.09741" lon="3.00387">
        <ele>488.6</ele>
        <time>2021-03-06T14:17:41Z</time>
      </trkpt>
      <trkpt lat="44.09734" lon="3.00385">
        <ele>488.1</ele>
        <time>2021-03-06T14:17:42Z</time>
      </trkpt>
      <trkpt lat="44.0973" lon="3.00384">
        <ele>487.8</ele>
        <time>2021-03-06T14:17:44Z</time>
      </trkpt>
      <trkpt lat="44.09726" lon="3.00382">
        <ele>487.5</ele>
        <time>2021-03-06T14:17:45Z</time>
      </trkpt>
      <trkpt lat="44.0972" lon="3.00381">
        <ele>487.1</ele>
        <time>2021-03-06T14:17:46Z</time>
      </trkpt>
      <trkpt lat="44.09709" lon="3.0038">
        <ele>486.6</ele>
        <time>2021-03-06T14:17:48Z</time>
      </trkpt>
      <trkpt lat="44.09704" lon="3.00378">
        <ele>486.4</ele>
        <time>2021-03-06T14:17:49Z</time>
      </trkpt>
      <trkpt lat="44.09697" lon="3.00375">
        <ele>486.1</ele>
        <time>2021-03-06T14:17:51Z</time>
      </trkpt>
      <trkpt lat="44.09693" lon="3.00376">
        <ele>485.9</ele>
        <time>2021-03-06T14:17:52Z</time>
      </trkpt>
      <trkpt lat="44.09688" lon="3.00377">
        <ele>485.7</ele>
        <time>2021-03-06T14:17:54Z</time>
      </trkpt>
      <trkpt lat="44.0968" lon="3.00379">
        <ele>485.6</ele>
        <time>2021-03-06T14:17:55Z</time>
      </trkpt>
      <trkpt lat="44.09675" lon="3.0038">
        <ele>485.6</ele>
        <time>2021-03-06T14:17:56Z</time>
      </trkpt>
      <trkpt lat="44.09667" lon="3.00379">
        <ele>485.7</ele>
        <time>2021-03-06T14:17:58Z</time>
      </trkpt>
      <trkpt lat="44.09662" lon="3.00378">
        <ele>485.7</ele>
        <time>2021-03-06T14:17:59Z</time>
      </trkpt>
      <trkpt lat="44.09658" lon="3.00379">
        <ele>485.7</ele>
        <time>2021-03-06T14:18:01Z</time>
      </trkpt>
      <trkpt lat="44.09653" lon="3.00377">
        <ele>485.6</ele>
        <time>2021-03-06T14:18:02Z</time>
      </trkpt>
      <trkpt lat="44.09647" lon="3.00376">
        <ele>485.3</ele>
        <time>2021-03-06T14:18:03Z</time>
      </trkpt>
      <trkpt lat="44.09639" lon="3.00376">
        <ele>484.9</ele>
        <time>2021-03-06T14:18:05Z</time>
      </trkpt>
      <trkpt lat="44.09632" lon="3.00374">
        <ele>484.5</ele>
        <time>2021-03-06T14:18:06Z</time>
      </trkpt>
      <trkpt lat="44.0962" lon="3.00372">
        <ele>484.1</ele>
        <time>2021-03-06T14:18:08Z</time>
      </trkpt>
      <trkpt lat="44.09612" lon="3.00369">
        <ele>483.9</ele>
        <time>2021-03-06T14:18:10Z</time>
      </trkpt>
      <trkpt lat="44.09606" lon="3.00365">
        <ele>483.7</ele>
        <time>2021-03-06T14:18:11Z</time>
      </trkpt>
      <trkpt lat="44.09597" lon="3.00358">
        <ele>483.3</ele>
        <time>2021-03-06T14:18:13Z</time>
      </trkpt>
      <trkpt lat="44.09593" lon="3.00354">
        <ele>483.2</ele>
        <time>2021-03-06T14:18:14Z</time>
      </trkpt>
      <trkpt lat="44.09586" lon="3.00346">
        <ele>483.1</ele>
        <time>2021-03-06T14:18:16Z</time>
      </trkpt>
      <trkpt lat="44.09583" lon="3.00341">
        <ele>483</ele>
        <time>2021-03-06T14:18:17Z</time>
      </trkpt>
      <trkpt lat="44.09579" lon="3.00337">
        <ele>483</ele>
        <time>2021-03-06T14:18:18Z</time>
      </trkpt>
      <trkpt lat="44.09572" lon="3.0033">
        <ele>483</ele>
        <time>2021-03-06T14:18:20Z</time>
      </trkpt>
      <trkpt lat="44.09565" lon="3.00324">
        <ele>483</ele>
        <time>2021-03-06T14:18:22Z</time>
      </trkpt>
      <trkpt lat="44.09562" lon="3.00319">
        <ele>483</ele>
        <time>2021-03-06T14:18:23Z</time>
      </trkpt>
      <trkpt lat="44.09557" lon="3.00311">
        <ele>482.8</ele>
        <time>2021-03-06T14:18:25Z</time>
      </trkpt>
      <trkpt lat="44.09555" lon="3.00306">
        <ele>482.6</ele>
        <time>2021-03-06T14:18:26Z</time>
      </trkpt>
      <trkpt lat="44.09552" lon="3.003">
        <ele>482.2</ele>
        <time>2021-03-06T14:18:28Z</time>
      </trkpt>
      <trkpt lat="44.09549" lon="3.00297">
        <ele>481.9</ele>
        <time>2021-03-06T14:18:29Z</time>
      </trkpt>
      <trkpt lat="44.09547" lon="3.00291">
        <ele>481.4</ele>
        <time>2021-03-06T14:18:30Z</time>
      </trkpt>
      <trkpt lat="44.09541" lon="3.0028">
        <ele>480.5</ele>
        <time>2021-03-06T14:18:32Z</time>
      </trkpt>
      <trkpt lat="44.09537" lon="3.00276">
        <ele>480</ele>
        <time>2021-03-06T14:18:33Z</time>
      </trkpt>
      <trkpt lat="44.09534" lon="3.00274">
        <ele>479.8</ele>
        <time>2021-03-06T14:18:34Z</time>
      </trkpt>
      <trkpt lat="44.09524" lon="3.00266">
        <ele>479.1</ele>
        <time>2021-03-06T14:18:36Z</time>
      </trkpt>
      <trkpt lat="44.09519" lon="3.00261">
        <ele>478.9</ele>
        <time>2021-03-06T14:18:37Z</time>
      </trkpt>
      <trkpt lat="44.09515" lon="3.00257">
        <ele>478.8</ele>
        <time>2021-03-06T14:18:38Z</time>
      </trkpt>
      <trkpt lat="44.09509" lon="3.00249">
        <ele>478.9</ele>
        <time>2021-03-06T14:18:40Z</time>
      </trkpt>
      <trkpt lat="44.09505" lon="3.00244">
        <ele>479</ele>
        <time>2021-03-06T14:18:41Z</time>
      </trkpt>
      <trkpt lat="44.09501" lon="3.00239">
        <ele>478.9</ele>
        <time>2021-03-06T14:18:43Z</time>
      </trkpt>
      <trkpt lat="44.095" lon="3.00238">
        <ele>478.8</ele>
        <time>2021-03-06T14:18:44Z</time>
      </trkpt>
      <trkpt lat="44.09498" lon="3.00236">
        <ele>478.7</ele>
        <time>2021-03-06T14:18:45Z</time>
      </trkpt>
      <trkpt lat="44.09495" lon="3.00232">
        <ele>478.5</ele>
        <time>2021-03-06T14:18:46Z</time>
      </trkpt>
      <trkpt lat="44.09492" lon="3.00228">
        <ele>478.1</ele>
        <time>2021-03-06T14:18:48Z</time>
      </trkpt>
      <trkpt lat="44.09489" lon="3.00221">
        <ele>477.5</ele>
        <time>2021-03-06T14:18:49Z</time>
      </trkpt>
      <trkpt lat="44.09489" lon="3.00215">
        <ele>477.1</ele>
        <time>2021-03-06T14:18:50Z</time>
      </trkpt>
      <trkpt lat="44.09489" lon="3.0021">
        <ele>476.7</ele>
        <time>2021-03-06T14:18:52Z</time>
      </trkpt>
      <trkpt lat="44.09487" lon="3.00204">
        <ele>476.2</ele>
        <time>2021-03-06T14:18:54Z</time>
      </trkpt>
      <trkpt lat="44.09485" lon="3.00196">
        <ele>475.6</ele>
        <time>2021-03-06T14:18:56Z</time>
      </trkpt>
      <trkpt lat="44.09484" lon="3.00191">
        <ele>475.1</ele>
        <time>2021-03-06T14:18:57Z</time>
      </trkpt>
      <trkpt lat="44.09483" lon="3.00177">
        <ele>473.9</ele>
        <time>2021-03-06T14:18:59Z</time>
      </trkpt>
      <trkpt lat="44.09482" lon="3.00169">
        <ele>473</ele>
        <time>2021-03-06T14:19:00Z</time>
      </trkpt>
      <trkpt lat="44.09479" lon="3.00151">
        <ele>470.4</ele>
        <time>2021-03-06T14:19:02Z</time>
      </trkpt>
      <trkpt lat="44.09474" lon="3.00134">
        <ele>467.8</ele>
        <time>2021-03-06T14:19:04Z</time>
      </trkpt>
      <trkpt lat="44.09475" lon="3.00126">
        <ele>466.7</ele>
        <time>2021-03-06T14:19:05Z</time>
      </trkpt>
      <trkpt lat="44.09475" lon="3.00118">
        <ele>465.5</ele>
        <time>2021-03-06T14:19:06Z</time>
      </trkpt>
      <trkpt lat="44.09475" lon="3.00098">
        <ele>462.8</ele>
        <time>2021-03-06T14:19:08Z</time>
      </trkpt>
      <trkpt lat="44.09479" lon="3.00076">
        <ele>460</ele>
        <time>2021-03-06T14:19:10Z</time>
      </trkpt>
      <trkpt lat="44.0948" lon="3.00065">
        <ele>459</ele>
        <time>2021-03-06T14:19:11Z</time>
      </trkpt>
      <trkpt lat="44.09478" lon="3.00047">
        <ele>457.5</ele>
        <time>2021-03-06T14:19:13Z</time>
      </trkpt>
      <trkpt lat="44.09476" lon="3.00038">
        <ele>456.7</ele>
        <time>2021-03-06T14:19:14Z</time>
      </trkpt>
      <trkpt lat="44.09473" lon="3.00031">
        <ele>456</ele>
        <time>2021-03-06T14:19:15Z</time>
      </trkpt>
      <trkpt lat="44.09469" lon="3.00024">
        <ele>455.2</ele>
        <time>2021-03-06T14:19:16Z</time>
      </trkpt>
      <trkpt lat="44.09463" lon="3.00016">
        <ele>454.2</ele>
        <time>2021-03-06T14:19:17Z</time>
      </trkpt>
      <trkpt lat="44.09454" lon="2.99998">
        <ele>452.1</ele>
        <time>2021-03-06T14:19:19Z</time>
      </trkpt>
      <trkpt lat="44.09445" lon="2.99978">
        <ele>450</ele>
        <time>2021-03-06T14:19:21Z</time>
      </trkpt>
      <trkpt lat="44.09441" lon="2.99969">
        <ele>448.9</ele>
        <time>2021-03-06T14:19:22Z</time>
      </trkpt>
      <trkpt lat="44.09438" lon="2.99959">
        <ele>447.7</ele>
        <time>2021-03-06T14:19:23Z</time>
      </trkpt>
      <trkpt lat="44.0943" lon="2.99941">
        <ele>445.1</ele>
        <time>2021-03-06T14:19:25Z</time>
      </trkpt>
      <trkpt lat="44.09423" lon="2.99928">
        <ele>442.2</ele>
        <time>2021-03-06T14:19:27Z</time>
      </trkpt>
      <trkpt lat="44.09418" lon="2.99922">
        <ele>441.1</ele>
        <time>2021-03-06T14:19:28Z</time>
      </trkpt>
      <trkpt lat="44.09414" lon="2.99917">
        <ele>440.4</ele>
        <time>2021-03-06T14:19:29Z</time>
      </trkpt>
      <trkpt lat="44.09406" lon="2.99909">
        <ele>439.1</ele>
        <time>2021-03-06T14:19:31Z</time>
      </trkpt>
      <trkpt lat="44.09394" lon="2.99908">
        <ele>436.6</ele>
        <time>2021-03-06T14:19:33Z</time>
      </trkpt>
      <trkpt lat="44.09381" lon="2.99903">
        <ele>433.7</ele>
        <time>2021-03-06T14:19:35Z</time>
      </trkpt>
      <trkpt lat="44.09374" lon="2.99898">
        <ele>432.5</ele>
        <time>2021-03-06T14:19:36Z</time>
      </trkpt>
      <trkpt lat="44.09368" lon="2.9989">
        <ele>431.1</ele>
        <time>2021-03-06T14:19:37Z</time>
      </trkpt>
      <trkpt lat="44.09356" lon="2.99873">
        <ele>428.7</ele>
        <time>2021-03-06T14:19:39Z</time>
      </trkpt>
      <trkpt lat="44.09352" lon="2.99861">
        <ele>427.5</ele>
        <time>2021-03-06T14:19:40Z</time>
      </trkpt>
      <trkpt lat="44.0935" lon="2.99848">
        <ele>426.5</ele>
        <time>2021-03-06T14:19:41Z</time>
      </trkpt>
      <trkpt lat="44.09343" lon="2.99823">
        <ele>424.3</ele>
        <time>2021-03-06T14:19:43Z</time>
      </trkpt>
      <trkpt lat="44.0934" lon="2.99811">
        <ele>423.5</ele>
        <time>2021-03-06T14:19:44Z</time>
      </trkpt>
      <trkpt lat="44.09336" lon="2.99799">
        <ele>423.5</ele>
        <time>2021-03-06T14:19:45Z</time>
      </trkpt>
      <trkpt lat="44.09333" lon="2.99789">
        <ele>423.5</ele>
        <time>2021-03-06T14:19:46Z</time>
      </trkpt>
      <trkpt lat="44.09331" lon="2.99776">
        <ele>423.7</ele>
        <time>2021-03-06T14:19:48Z</time>
      </trkpt>
      <trkpt lat="44.0933" lon="2.99776">
        <ele>423.6</ele>
        <time>2021-03-06T14:19:49Z</time>
      </trkpt>
      <trkpt lat="44.09331" lon="2.99776">
        <ele>423.6</ele>
        <time>2021-03-06T14:19:51Z</time>
      </trkpt>
      <trkpt lat="44.09332" lon="2.99776">
        <ele>423.6</ele>
        <time>2021-03-06T14:19:52Z</time>
      </trkpt>
      <trkpt lat="44.09331" lon="2.99777">
        <ele>423.6</ele>
        <time>2021-03-06T14:19:53Z</time>
      </trkpt>
      <trkpt lat="44.09331" lon="2.99777">
        <ele>423.6</ele>
        <time>2021-03-06T14:19:54Z</time>
      </trkpt>
      <trkpt lat="44.09331" lon="2.99777">
        <ele>423.6</ele>
        <time>2021-03-06T14:19:55Z</time>
      </trkpt>
      <trkpt lat="44.09331" lon="2.99777">
        <ele>423.6</ele>
        <time>2021-03-06T14:19:57Z</time>
      </trkpt>
      <trkpt lat="44.09331" lon="2.99777">
        <ele>423.6</ele>
        <time>2021-03-06T14:19:58Z</time>
      </trkpt>
      <trkpt lat="44.09331" lon="2.99777">
        <ele>423.6</ele>
        <time>2021-03-06T14:20:00Z</time>
      </trkpt>
      <trkpt lat="44.09331" lon="2.99777">
        <ele>423.6</ele>
        <time>2021-03-06T14:20:01Z</time>
      </trkpt>
      <trkpt lat="44.09331" lon="2.99777">
        <ele>423.6</ele>
        <time>2021-03-06T14:20:03Z</time>
      </trkpt>
      <trkpt lat="44.09331" lon="2.99777">
        <ele>423.6</ele>
        <time>2021-03-06T14:20:04Z</time>
      </trkpt>
      <trkpt lat="44.09331" lon="2.99777">
        <ele>423.6</ele>
        <time>2021-03-06T14:20:06Z</time>
      </trkpt>
      <trkpt lat="44.09331" lon="2.99782">
        <ele>423.5</ele>
        <time>2021-03-06T14:20:58Z</time>
      </trkpt>
      <trkpt lat="44.09333" lon="2.99786">
        <ele>423.5</ele>
        <time>2021-03-06T14:20:59Z</time>
      </trkpt>
      <trkpt lat="44.09334" lon="2.99791">
        <ele>423.5</ele>
        <time>2021-03-06T14:21:01Z</time>
      </trkpt>
      <trkpt lat="44.09335" lon="2.99795">
        <ele>423.5</ele>
        <time>2021-03-06T14:21:02Z</time>
      </trkpt>
      <trkpt lat="44.09337" lon="2.99803">
        <ele>423.5</ele>
        <time>2021-03-06T14:21:04Z</time>
      </trkpt>
      <trkpt lat="44.09338" lon="2.99807">
        <ele>423.5</ele>
        <time>2021-03-06T14:21:05Z</time>
      </trkpt>
      <trkpt lat="44.09339" lon="2.99811">
        <ele>423.5</ele>
        <time>2021-03-06T14:21:07Z</time>
      </trkpt>
      <trkpt lat="44.09336" lon="2.99817">
        <ele>423.5</ele>
        <time>2021-03-06T14:21:09Z</time>
      </trkpt>
      <trkpt lat="44.09334" lon="2.99822">
        <ele>423.3</ele>
        <time>2021-03-06T14:21:10Z</time>
      </trkpt>
      <trkpt lat="44.09331" lon="2.9983">
        <ele>423.2</ele>
        <time>2021-03-06T14:21:12Z</time>
      </trkpt>
      <trkpt lat="44.09329" lon="2.99836">
        <ele>423.1</ele>
        <time>2021-03-06T14:21:13Z</time>
      </trkpt>
      <trkpt lat="44.09326" lon="2.99844">
        <ele>422.9</ele>
        <time>2021-03-06T14:21:14Z</time>
      </trkpt>
      <trkpt lat="44.09321" lon="2.99859">
        <ele>421.7</ele>
        <time>2021-03-06T14:21:16Z</time>
      </trkpt>
      <trkpt lat="44.09319" lon="2.99866">
        <ele>421</ele>
        <time>2021-03-06T14:21:17Z</time>
      </trkpt>
      <trkpt lat="44.09319" lon="2.99871">
        <ele>420.5</ele>
        <time>2021-03-06T14:21:18Z</time>
      </trkpt>
      <trkpt lat="44.09318" lon="2.99877">
        <ele>419.9</ele>
        <time>2021-03-06T14:21:19Z</time>
      </trkpt>
      <trkpt lat="44.0931" lon="2.99889">
        <ele>418.1</ele>
        <time>2021-03-06T14:21:21Z</time>
      </trkpt>
      <trkpt lat="44.09301" lon="2.99894">
        <ele>416.6</ele>
        <time>2021-03-06T14:21:23Z</time>
      </trkpt>
      <trkpt lat="44.09298" lon="2.99894">
        <ele>416.1</ele>
        <time>2021-03-06T14:21:24Z</time>
      </trkpt>
      <trkpt lat="44.09302" lon="2.99904">
        <ele>414.5</ele>
        <time>2021-03-06T14:21:26Z</time>
      </trkpt>
      <trkpt lat="44.09303" lon="2.99912">
        <ele>413.3</ele>
        <time>2021-03-06T14:21:27Z</time>
      </trkpt>
      <trkpt lat="44.09308" lon="2.9993">
        <ele>410.5</ele>
        <time>2021-03-06T14:21:29Z</time>
      </trkpt>
      <trkpt lat="44.09312" lon="2.99948">
        <ele>408.1</ele>
        <time>2021-03-06T14:21:31Z</time>
      </trkpt>
      <trkpt lat="44.09313" lon="2.99968">
        <ele>405.7</ele>
        <time>2021-03-06T14:21:33Z</time>
      </trkpt>
      <trkpt lat="44.09314" lon="2.9999">
        <ele>403.4</ele>
        <time>2021-03-06T14:21:35Z</time>
      </trkpt>
      <trkpt lat="44.0932" lon="3.00011">
        <ele>402.8</ele>
        <time>2021-03-06T14:21:37Z</time>
      </trkpt>
      <trkpt lat="44.09323" lon="3.00028">
        <ele>403</ele>
        <time>2021-03-06T14:21:39Z</time>
      </trkpt>
      <trkpt lat="44.09321" lon="3.00043">
        <ele>402.2</ele>
        <time>2021-03-06T14:21:41Z</time>
      </trkpt>
      <trkpt lat="44.09318" lon="3.00051">
        <ele>401.7</ele>
        <time>2021-03-06T14:21:42Z</time>
      </trkpt>
      <trkpt lat="44.09311" lon="3.00065">
        <ele>400</ele>
        <time>2021-03-06T14:21:44Z</time>
      </trkpt>
      <trkpt lat="44.09306" lon="3.00063">
        <ele>399.3</ele>
        <time>2021-03-06T14:21:46Z</time>
      </trkpt>
      <trkpt lat="44.09303" lon="3.00064">
        <ele>398.7</ele>
        <time>2021-03-06T14:21:47Z</time>
      </trkpt>
      <trkpt lat="44.09298" lon="3.00068">
        <ele>397.9</ele>
        <time>2021-03-06T14:21:48Z</time>
      </trkpt>
      <trkpt lat="44.09292" lon="3.00074">
        <ele>396.9</ele>
        <time>2021-03-06T14:21:49Z</time>
      </trkpt>
      <trkpt lat="44.09285" lon="3.00081">
        <ele>395.5</ele>
        <time>2021-03-06T14:21:51Z</time>
      </trkpt>
      <trkpt lat="44.09284" lon="3.00077">
        <ele>395.1</ele>
        <time>2021-03-06T14:21:52Z</time>
      </trkpt>
      <trkpt lat="44.09285" lon="3.00077">
        <ele>395</ele>
        <time>2021-03-06T14:21:54Z</time>
      </trkpt>
      <trkpt lat="44.09286" lon="3.00079">
        <ele>394.8</ele>
        <time>2021-03-06T14:21:55Z</time>
      </trkpt>
      <trkpt lat="44.09286" lon="3.00079">
        <ele>394.7</ele>
        <time>2021-03-06T14:21:57Z</time>
      </trkpt>
      <trkpt lat="44.09286" lon="3.00079">
        <ele>394.7</ele>
        <time>2021-03-06T14:21:58Z</time>
      </trkpt>
      <trkpt lat="44.09285" lon="3.00082">
        <ele>394.4</ele>
        <time>2021-03-06T14:22:00Z</time>
      </trkpt>
      <trkpt lat="44.09284" lon="3.00084">
        <ele>394.1</ele>
        <time>2021-03-06T14:22:01Z</time>
      </trkpt>
      <trkpt lat="44.09282" lon="3.00086">
        <ele>393.8</ele>
        <time>2021-03-06T14:22:02Z</time>
      </trkpt>
      <trkpt lat="44.09281" lon="3.00088">
        <ele>393.5</ele>
        <time>2021-03-06T14:22:58Z</time>
      </trkpt>
      <trkpt lat="44.09279" lon="3.0009">
        <ele>393.2</ele>
        <time>2021-03-06T14:23:00Z</time>
      </trkpt>
      <trkpt lat="44.09278" lon="3.00093">
        <ele>392.9</ele>
        <time>2021-03-06T14:23:01Z</time>
      </trkpt>
      <trkpt lat="44.09273" lon="3.00099">
        <ele>392.1</ele>
        <time>2021-03-06T14:23:02Z</time>
      </trkpt>
      <trkpt lat="44.09263" lon="3.00112">
        <ele>390.3</ele>
        <time>2021-03-06T14:23:04Z</time>
      </trkpt>
      <trkpt lat="44.09258" lon="3.0012">
        <ele>389.3</ele>
        <time>2021-03-06T14:23:05Z</time>
      </trkpt>
      <trkpt lat="44.09254" lon="3.0013">
        <ele>388.2</ele>
        <time>2021-03-06T14:23:06Z</time>
      </trkpt>
      <trkpt lat="44.09248" lon="3.00151">
        <ele>386.4</ele>
        <time>2021-03-06T14:23:08Z</time>
      </trkpt>
      <trkpt lat="44.09238" lon="3.00171">
        <ele>384.6</ele>
        <time>2021-03-06T14:23:10Z</time>
      </trkpt>
      <trkpt lat="44.09232" lon="3.00182">
        <ele>383.4</ele>
        <time>2021-03-06T14:23:11Z</time>
      </trkpt>
      <trkpt lat="44.0922" lon="3.00204">
        <ele>381</ele>
        <time>2021-03-06T14:23:13Z</time>
      </trkpt>
      <trkpt lat="44.09215" lon="3.00216">
        <ele>380</ele>
        <time>2021-03-06T14:23:14Z</time>
      </trkpt>
      <trkpt lat="44.09203" lon="3.00238">
        <ele>378.1</ele>
        <time>2021-03-06T14:23:16Z</time>
      </trkpt>
      <trkpt lat="44.09198" lon="3.0025">
        <ele>377.1</ele>
        <time>2021-03-06T14:23:17Z</time>
      </trkpt>
      <trkpt lat="44.09193" lon="3.00276">
        <ele>374.9</ele>
        <time>2021-03-06T14:23:19Z</time>
      </trkpt>
      <trkpt lat="44.09191" lon="3.00287">
        <ele>373.8</ele>
        <time>2021-03-06T14:23:20Z</time>
      </trkpt>
      <trkpt lat="44.09188" lon="3.00296">
        <ele>372.7</ele>
        <time>2021-03-06T14:23:21Z</time>
      </trkpt>
      <trkpt lat="44.09186" lon="3.00304">
        <ele>371.7</ele>
        <time>2021-03-06T14:23:22Z</time>
      </trkpt>
      <trkpt lat="44.09187" lon="3.00313">
        <ele>370.5</ele>
        <time>2021-03-06T14:23:24Z</time>
      </trkpt>
      <trkpt lat="44.09187" lon="3.00315">
        <ele>370.2</ele>
        <time>2021-03-06T14:23:25Z</time>
      </trkpt>
      <trkpt lat="44.09182" lon="3.00314">
        <ele>369</ele>
        <time>2021-03-06T14:23:27Z</time>
      </trkpt>
      <trkpt lat="44.09178" lon="3.00312">
        <ele>367.8</ele>
        <time>2021-03-06T14:23:28Z</time>
      </trkpt>
      <trkpt lat="44.09178" lon="3.00315">
        <ele>367.3</ele>
        <time>2021-03-06T14:23:30Z</time>
      </trkpt>
      <trkpt lat="44.09178" lon="3.00315">
        <ele>367.2</ele>
        <time>2021-03-06T14:23:31Z</time>
      </trkpt>
      <trkpt lat="44.0918" lon="3.00321">
        <ele>365.9</ele>
        <time>2021-03-06T14:23:33Z</time>
      </trkpt>
      <trkpt lat="44.09182" lon="3.00329">
        <ele>364.3</ele>
        <time>2021-03-06T14:23:35Z</time>
      </trkpt>
      <trkpt lat="44.0918" lon="3.00329">
        <ele>363.7</ele>
        <time>2021-03-06T14:23:36Z</time>
      </trkpt>
      <trkpt lat="44.09178" lon="3.00328">
        <ele>363.2</ele>
        <time>2021-03-06T14:23:37Z</time>
      </trkpt>
      <trkpt lat="44.09173" lon="3.00326">
        <ele>362.1</ele>
        <time>2021-03-06T14:23:38Z</time>
      </trkpt>
      <trkpt lat="44.09167" lon="3.00326">
        <ele>360.8</ele>
        <time>2021-03-06T14:23:40Z</time>
      </trkpt>
      <trkpt lat="44.09164" lon="3.00327">
        <ele>360</ele>
        <time>2021-03-06T14:23:41Z</time>
      </trkpt>
      <trkpt lat="44.09164" lon="3.00332">
        <ele>360</ele>
        <time>2021-03-06T14:23:42Z</time>
      </trkpt>
      <trkpt lat="44.09165" lon="3.00335">
        <ele>359.9</ele>
        <time>2021-03-06T14:23:43Z</time>
      </trkpt>
      <trkpt lat="44.09172" lon="3.00345">
        <ele>359.5</ele>
        <time>2021-03-06T14:23:45Z</time>
      </trkpt>
      <trkpt lat="44.0918" lon="3.00361">
        <ele>358.6</ele>
        <time>2021-03-06T14:23:47Z</time>
      </trkpt>
      <trkpt lat="44.09186" lon="3.00374">
        <ele>358.3</ele>
        <time>2021-03-06T14:23:49Z</time>
      </trkpt>
      <trkpt lat="44.09189" lon="3.0038">
        <ele>358.4</ele>
        <time>2021-03-06T14:23:50Z</time>
      </trkpt>
      <trkpt lat="44.09192" lon="3.00379">
        <ele>358.4</ele>
        <time>2021-03-06T14:23:51Z</time>
      </trkpt>
      <trkpt lat="44.09195" lon="3.0038">
        <ele>358.5</ele>
        <time>2021-03-06T14:23:52Z</time>
      </trkpt>
      <trkpt lat="44.09199" lon="3.00384">
        <ele>358.7</ele>
        <time>2021-03-06T14:23:54Z</time>
      </trkpt>
      <trkpt lat="44.09203" lon="3.0039">
        <ele>358.9</ele>
        <time>2021-03-06T14:23:56Z</time>
      </trkpt>
      <trkpt lat="44.09206" lon="3.00392">
        <ele>359</ele>
        <time>2021-03-06T14:23:57Z</time>
      </trkpt>
      <trkpt lat="44.09209" lon="3.00395">
        <ele>359.2</ele>
        <time>2021-03-06T14:23:58Z</time>
      </trkpt>
      <trkpt lat="44.09211" lon="3.00399">
        <ele>359.4</ele>
        <time>2021-03-06T14:23:59Z</time>
      </trkpt>
      <trkpt lat="44.09213" lon="3.00402">
        <ele>359.7</ele>
        <time>2021-03-06T14:24:01Z</time>
      </trkpt>
      <trkpt lat="44.09216" lon="3.00406">
        <ele>360</ele>
        <time>2021-03-06T14:24:02Z</time>
      </trkpt>
      <trkpt lat="44.09218" lon="3.0041">
        <ele>360.3</ele>
        <time>2021-03-06T14:24:04Z</time>
      </trkpt>
      <trkpt lat="44.0922" lon="3.00413">
        <ele>360.6</ele>
        <time>2021-03-06T14:24:05Z</time>
      </trkpt>
      <trkpt lat="44.09222" lon="3.00416">
        <ele>361</ele>
        <time>2021-03-06T14:24:07Z</time>
      </trkpt>
      <trkpt lat="44.09223" lon="3.00417">
        <ele>361.1</ele>
        <time>2021-03-06T14:24:08Z</time>
      </trkpt>
      <trkpt lat="44.09224" lon="3.00418">
        <ele>361.3</ele>
        <time>2021-03-06T14:24:09Z</time>
      </trkpt>
      <trkpt lat="44.09225" lon="3.00419">
        <ele>361.4</ele>
        <time>2021-03-06T14:24:10Z</time>
      </trkpt>
      <trkpt lat="44.09226" lon="3.00421">
        <ele>361.7</ele>
        <time>2021-03-06T14:24:11Z</time>
      </trkpt>
      <trkpt lat="44.09228" lon="3.00423">
        <ele>362</ele>
        <time>2021-03-06T14:24:12Z</time>
      </trkpt>
      <trkpt lat="44.09229" lon="3.00425">
        <ele>362.3</ele>
        <time>2021-03-06T14:24:14Z</time>
      </trkpt>
      <trkpt lat="44.0923" lon="3.00426">
        <ele>362.5</ele>
        <time>2021-03-06T14:24:15Z</time>
      </trkpt>
      <trkpt lat="44.09233" lon="3.0043">
        <ele>363.1</ele>
        <time>2021-03-06T14:24:16Z</time>
      </trkpt>
      <trkpt lat="44.09233" lon="3.00431">
        <ele>363.3</ele>
        <time>2021-03-06T14:24:17Z</time>
      </trkpt>
      <trkpt lat="44.09234" lon="3.00433">
        <ele>363.6</ele>
        <time>2021-03-06T14:24:18Z</time>
      </trkpt>
      <trkpt lat="44.09236" lon="3.00436">
        <ele>364</ele>
        <time>2021-03-06T14:24:20Z</time>
      </trkpt>
      <trkpt lat="44.09238" lon="3.00437">
        <ele>364.3</ele>
        <time>2021-03-06T14:24:21Z</time>
      </trkpt>
      <trkpt lat="44.09239" lon="3.0044">
        <ele>364.6</ele>
        <time>2021-03-06T14:24:23Z</time>
      </trkpt>
      <trkpt lat="44.0924" lon="3.00441">
        <ele>364.8</ele>
        <time>2021-03-06T14:24:24Z</time>
      </trkpt>
      <trkpt lat="44.09242" lon="3.00443">
        <ele>365.1</ele>
        <time>2021-03-06T14:24:25Z</time>
      </trkpt>
      <trkpt lat="44.09245" lon="3.00445">
        <ele>365.5</ele>
        <time>2021-03-06T14:24:26Z</time>
      </trkpt>
      <trkpt lat="44.09246" lon="3.00445">
        <ele>365.6</ele>
        <time>2021-03-06T14:24:27Z</time>
      </trkpt>
      <trkpt lat="44.09248" lon="3.00446">
        <ele>365.8</ele>
        <time>2021-03-06T14:24:28Z</time>
      </trkpt>
      <trkpt lat="44.0925" lon="3.00447">
        <ele>366</ele>
        <time>2021-03-06T14:24:30Z</time>
      </trkpt>
      <trkpt lat="44.09253" lon="3.0045">
        <ele>366.3</ele>
        <time>2021-03-06T14:24:31Z</time>
      </trkpt>
      <trkpt lat="44.09255" lon="3.00451">
        <ele>366.5</ele>
        <time>2021-03-06T14:24:32Z</time>
      </trkpt>
      <trkpt lat="44.09257" lon="3.00453">
        <ele>366.7</ele>
        <time>2021-03-06T14:24:33Z</time>
      </trkpt>
      <trkpt lat="44.09261" lon="3.00455">
        <ele>366.9</ele>
        <time>2021-03-06T14:24:35Z</time>
      </trkpt>
      <trkpt lat="44.09262" lon="3.00456">
        <ele>367</ele>
        <time>2021-03-06T14:24:36Z</time>
      </trkpt>
      <trkpt lat="44.09265" lon="3.00457">
        <ele>367.2</ele>
        <time>2021-03-06T14:24:37Z</time>
      </trkpt>
      <trkpt lat="44.09267" lon="3.00458">
        <ele>367.4</ele>
        <time>2021-03-06T14:24:38Z</time>
      </trkpt>
      <trkpt lat="44.0927" lon="3.00459">
        <ele>367.5</ele>
        <time>2021-03-06T14:24:40Z</time>
      </trkpt>
      <trkpt lat="44.09273" lon="3.00462">
        <ele>367.8</ele>
        <time>2021-03-06T14:24:41Z</time>
      </trkpt>
      <trkpt lat="44.09275" lon="3.00463">
        <ele>367.9</ele>
        <time>2021-03-06T14:24:42Z</time>
      </trkpt>
      <trkpt lat="44.09277" lon="3.00464">
        <ele>368</ele>
        <time>2021-03-06T14:24:43Z</time>
      </trkpt>
      <trkpt lat="44.09279" lon="3.00465">
        <ele>368.1</ele>
        <time>2021-03-06T14:24:45Z</time>
      </trkpt>
      <trkpt lat="44.09281" lon="3.00466">
        <ele>368.3</ele>
        <time>2021-03-06T14:24:46Z</time>
      </trkpt>
      <trkpt lat="44.09285" lon="3.00468">
        <ele>368.4</ele>
        <time>2021-03-06T14:24:48Z</time>
      </trkpt>
      <trkpt lat="44.09289" lon="3.00469">
        <ele>368.6</ele>
        <time>2021-03-06T14:24:49Z</time>
      </trkpt>
      <trkpt lat="44.09293" lon="3.0047">
        <ele>368.8</ele>
        <time>2021-03-06T14:24:51Z</time>
      </trkpt>
      <trkpt lat="44.09296" lon="3.00471">
        <ele>368.9</ele>
        <time>2021-03-06T14:24:52Z</time>
      </trkpt>
      <trkpt lat="44.09298" lon="3.00471">
        <ele>369</ele>
        <time>2021-03-06T14:24:53Z</time>
      </trkpt>
      <trkpt lat="44.09303" lon="3.00472">
        <ele>369.1</ele>
        <time>2021-03-06T14:24:54Z</time>
      </trkpt>
      <trkpt lat="44.09308" lon="3.00473">
        <ele>369.2</ele>
        <time>2021-03-06T14:24:56Z</time>
      </trkpt>
      <trkpt lat="44.09311" lon="3.00474">
        <ele>369.3</ele>
        <time>2021-03-06T14:24:58Z</time>
      </trkpt>
      <trkpt lat="44.09315" lon="3.00476">
        <ele>369.4</ele>
        <time>2021-03-06T14:24:59Z</time>
      </trkpt>
      <trkpt lat="44.09315" lon="3.00477">
        <ele>369.5</ele>
        <time>2021-03-06T14:25:00Z</time>
      </trkpt>
      <trkpt lat="44.09319" lon="3.0048">
        <ele>369.6</ele>
        <time>2021-03-06T14:25:01Z</time>
      </trkpt>
      <trkpt lat="44.0932" lon="3.00481">
        <ele>369.7</ele>
        <time>2021-03-06T14:25:02Z</time>
      </trkpt>
      <trkpt lat="44.09323" lon="3.00483">
        <ele>369.8</ele>
        <time>2021-03-06T14:25:03Z</time>
      </trkpt>
      <trkpt lat="44.09327" lon="3.00485">
        <ele>370.1</ele>
        <time>2021-03-06T14:25:05Z</time>
      </trkpt>
      <trkpt lat="44.09329" lon="3.00486">
        <ele>370.2</ele>
        <time>2021-03-06T14:25:06Z</time>
      </trkpt>
      <trkpt lat="44.0933" lon="3.00487">
        <ele>370.3</ele>
        <time>2021-03-06T14:25:07Z</time>
      </trkpt>
      <trkpt lat="44.09332" lon="3.00488">
        <ele>370.4</ele>
        <time>2021-03-06T14:25:08Z</time>
      </trkpt>
      <trkpt lat="44.09335" lon="3.00489">
        <ele>370.6</ele>
        <time>2021-03-06T14:25:10Z</time>
      </trkpt>
      <trkpt lat="44.09338" lon="3.0049">
        <ele>370.8</ele>
        <time>2021-03-06T14:25:11Z</time>
      </trkpt>
      <trkpt lat="44.09341" lon="3.00492">
        <ele>371</ele>
        <time>2021-03-06T14:25:13Z</time>
      </trkpt>
      <trkpt lat="44.09343" lon="3.00493">
        <ele>371.1</ele>
        <time>2021-03-06T14:25:14Z</time>
      </trkpt>
      <trkpt lat="44.09345" lon="3.00494">
        <ele>371.2</ele>
        <time>2021-03-06T14:25:16Z</time>
      </trkpt>
      <trkpt lat="44.09348" lon="3.00495">
        <ele>371.3</ele>
        <time>2021-03-06T14:25:17Z</time>
      </trkpt>
      <trkpt lat="44.09349" lon="3.00496">
        <ele>371.3</ele>
        <time>2021-03-06T14:25:18Z</time>
      </trkpt>
      <trkpt lat="44.09354" lon="3.00497">
        <ele>371.5</ele>
        <time>2021-03-06T14:25:19Z</time>
      </trkpt>
      <trkpt lat="44.09356" lon="3.00497">
        <ele>371.6</ele>
        <time>2021-03-06T14:25:20Z</time>
      </trkpt>
      <trkpt lat="44.09359" lon="3.00498">
        <ele>371.7</ele>
        <time>2021-03-06T14:25:22Z</time>
      </trkpt>
      <trkpt lat="44.09365" lon="3.00499">
        <ele>371.8</ele>
        <time>2021-03-06T14:25:24Z</time>
      </trkpt>
      <trkpt lat="44.09368" lon="3.005">
        <ele>371.9</ele>
        <time>2021-03-06T14:25:25Z</time>
      </trkpt>
      <trkpt lat="44.09375" lon="3.00502">
        <ele>372</ele>
        <time>2021-03-06T14:25:26Z</time>
      </trkpt>
      <trkpt lat="44.0938" lon="3.00504">
        <ele>372.1</ele>
        <time>2021-03-06T14:25:27Z</time>
      </trkpt>
      <trkpt lat="44.09384" lon="3.00506">
        <ele>372.2</ele>
        <time>2021-03-06T14:25:29Z</time>
      </trkpt>
      <trkpt lat="44.09387" lon="3.00507">
        <ele>372.3</ele>
        <time>2021-03-06T14:25:30Z</time>
      </trkpt>
      <trkpt lat="44.09389" lon="3.00509">
        <ele>372.4</ele>
        <time>2021-03-06T14:25:31Z</time>
      </trkpt>
      <trkpt lat="44.09392" lon="3.00511">
        <ele>372.5</ele>
        <time>2021-03-06T14:25:32Z</time>
      </trkpt>
      <trkpt lat="44.09397" lon="3.00513">
        <ele>372.7</ele>
        <time>2021-03-06T14:25:34Z</time>
      </trkpt>
      <trkpt lat="44.094" lon="3.00513">
        <ele>372.9</ele>
        <time>2021-03-06T14:25:35Z</time>
      </trkpt>
      <trkpt lat="44.09403" lon="3.00513">
        <ele>373</ele>
        <time>2021-03-06T14:25:36Z</time>
      </trkpt>
      <trkpt lat="44.09406" lon="3.00513">
        <ele>373.1</ele>
        <time>2021-03-06T14:25:37Z</time>
      </trkpt>
      <trkpt lat="44.0941" lon="3.00514">
        <ele>373.3</ele>
        <time>2021-03-06T14:25:39Z</time>
      </trkpt>
      <trkpt lat="44.09414" lon="3.00515">
        <ele>373.4</ele>
        <time>2021-03-06T14:25:40Z</time>
      </trkpt>
      <trkpt lat="44.09415" lon="3.00515">
        <ele>373.5</ele>
        <time>2021-03-06T14:25:41Z</time>
      </trkpt>
      <trkpt lat="44.09418" lon="3.00516">
        <ele>373.6</ele>
        <time>2021-03-06T14:25:43Z</time>
      </trkpt>
      <trkpt lat="44.09422" lon="3.00516">
        <ele>373.8</ele>
        <time>2021-03-06T14:25:44Z</time>
      </trkpt>
      <trkpt lat="44.09426" lon="3.00518">
        <ele>374</ele>
        <time>2021-03-06T14:25:45Z</time>
      </trkpt>
      <trkpt lat="44.09429" lon="3.00519">
        <ele>374.1</ele>
        <time>2021-03-06T14:25:47Z</time>
      </trkpt>
      <trkpt lat="44.0943" lon="3.00519">
        <ele>374.2</ele>
        <time>2021-03-06T14:25:48Z</time>
      </trkpt>
      <trkpt lat="44.09433" lon="3.00521">
        <ele>374.4</ele>
        <time>2021-03-06T14:25:49Z</time>
      </trkpt>
      <trkpt lat="44.09435" lon="3.00523">
        <ele>374.5</ele>
        <time>2021-03-06T14:25:50Z</time>
      </trkpt>
      <trkpt lat="44.09438" lon="3.00524">
        <ele>374.7</ele>
        <time>2021-03-06T14:25:52Z</time>
      </trkpt>
      <trkpt lat="44.09439" lon="3.00525">
        <ele>374.7</ele>
        <time>2021-03-06T14:25:53Z</time>
      </trkpt>
      <trkpt lat="44.09442" lon="3.00526">
        <ele>375</ele>
        <time>2021-03-06T14:25:54Z</time>
      </trkpt>
      <trkpt lat="44.09443" lon="3.00526">
        <ele>375</ele>
        <time>2021-03-06T14:25:55Z</time>
      </trkpt>
      <trkpt lat="44.09447" lon="3.00528">
        <ele>375.3</ele>
        <time>2021-03-06T14:25:56Z</time>
      </trkpt>
      <trkpt lat="44.0945" lon="3.00528">
        <ele>375.5</ele>
        <time>2021-03-06T14:25:58Z</time>
      </trkpt>
      <trkpt lat="44.09452" lon="3.00529">
        <ele>375.6</ele>
        <time>2021-03-06T14:25:59Z</time>
      </trkpt>
      <trkpt lat="44.09455" lon="3.00531">
        <ele>375.8</ele>
        <time>2021-03-06T14:26:00Z</time>
      </trkpt>
      <trkpt lat="44.09457" lon="3.00532">
        <ele>376</ele>
        <time>2021-03-06T14:26:01Z</time>
      </trkpt>
      <trkpt lat="44.0946" lon="3.00534">
        <ele>376.2</ele>
        <time>2021-03-06T14:26:03Z</time>
      </trkpt>
      <trkpt lat="44.09463" lon="3.00535">
        <ele>376.3</ele>
        <time>2021-03-06T14:26:04Z</time>
      </trkpt>
      <trkpt lat="44.09466" lon="3.00537">
        <ele>376.5</ele>
        <time>2021-03-06T14:26:05Z</time>
      </trkpt>
      <trkpt lat="44.09469" lon="3.00539">
        <ele>376.8</ele>
        <time>2021-03-06T14:26:06Z</time>
      </trkpt>
      <trkpt lat="44.09472" lon="3.00541">
        <ele>377</ele>
        <time>2021-03-06T14:26:08Z</time>
      </trkpt>
      <trkpt lat="44.09475" lon="3.00544">
        <ele>377.2</ele>
        <time>2021-03-06T14:26:09Z</time>
      </trkpt>
      <trkpt lat="44.09477" lon="3.00547">
        <ele>377.5</ele>
        <time>2021-03-06T14:26:11Z</time>
      </trkpt>
      <trkpt lat="44.09479" lon="3.00549">
        <ele>377.6</ele>
        <time>2021-03-06T14:26:12Z</time>
      </trkpt>
      <trkpt lat="44.09481" lon="3.00552">
        <ele>377.8</ele>
        <time>2021-03-06T14:26:14Z</time>
      </trkpt>
      <trkpt lat="44.09484" lon="3.00554">
        <ele>378.1</ele>
        <time>2021-03-06T14:26:16Z</time>
      </trkpt>
      <trkpt lat="44.09487" lon="3.00557">
        <ele>378.4</ele>
        <time>2021-03-06T14:26:17Z</time>
      </trkpt>
      <trkpt lat="44.09491" lon="3.00559">
        <ele>378.7</ele>
        <time>2021-03-06T14:26:19Z</time>
      </trkpt>
      <trkpt lat="44.09493" lon="3.0056">
        <ele>378.8</ele>
        <time>2021-03-06T14:26:21Z</time>
      </trkpt>
      <trkpt lat="44.09494" lon="3.0056">
        <ele>379</ele>
        <time>2021-03-06T14:26:22Z</time>
      </trkpt>
      <trkpt lat="44.09496" lon="3.00561">
        <ele>379.1</ele>
        <time>2021-03-06T14:26:23Z</time>
      </trkpt>
      <trkpt lat="44.09498" lon="3.00562">
        <ele>379.2</ele>
        <time>2021-03-06T14:26:24Z</time>
      </trkpt>
      <trkpt lat="44.095" lon="3.00562">
        <ele>379.4</ele>
        <time>2021-03-06T14:26:25Z</time>
      </trkpt>
      <trkpt lat="44.09502" lon="3.00564">
        <ele>379.6</ele>
        <time>2021-03-06T14:26:27Z</time>
      </trkpt>
      <trkpt lat="44.09505" lon="3.00566">
        <ele>379.8</ele>
        <time>2021-03-06T14:26:28Z</time>
      </trkpt>
      <trkpt lat="44.09507" lon="3.00569">
        <ele>380.1</ele>
        <time>2021-03-06T14:26:29Z</time>
      </trkpt>
      <trkpt lat="44.09508" lon="3.0057">
        <ele>380.2</ele>
        <time>2021-03-06T14:26:30Z</time>
      </trkpt>
      <trkpt lat="44.0951" lon="3.00573">
        <ele>380.5</ele>
        <time>2021-03-06T14:26:32Z</time>
      </trkpt>
      <trkpt lat="44.09511" lon="3.00574">
        <ele>380.5</ele>
        <time>2021-03-06T14:26:33Z</time>
      </trkpt>
      <trkpt lat="44.09513" lon="3.00576">
        <ele>380.8</ele>
        <time>2021-03-06T14:26:34Z</time>
      </trkpt>
      <trkpt lat="44.09515" lon="3.00579">
        <ele>381.1</ele>
        <time>2021-03-06T14:26:36Z</time>
      </trkpt>
      <trkpt lat="44.09516" lon="3.0058">
        <ele>381.1</ele>
        <time>2021-03-06T14:26:37Z</time>
      </trkpt>
      <trkpt lat="44.09518" lon="3.00583">
        <ele>381.4</ele>
        <time>2021-03-06T14:26:38Z</time>
      </trkpt>
      <trkpt lat="44.0952" lon="3.00584">
        <ele>381.5</ele>
        <time>2021-03-06T14:26:39Z</time>
      </trkpt>
      <trkpt lat="44.09523" lon="3.00588">
        <ele>381.9</ele>
        <time>2021-03-06T14:26:41Z</time>
      </trkpt>
      <trkpt lat="44.09524" lon="3.0059">
        <ele>382</ele>
        <time>2021-03-06T14:26:42Z</time>
      </trkpt>
      <trkpt lat="44.09526" lon="3.00591">
        <ele>382.2</ele>
        <time>2021-03-06T14:26:43Z</time>
      </trkpt>
      <trkpt lat="44.09529" lon="3.00595">
        <ele>382.6</ele>
        <time>2021-03-06T14:26:45Z</time>
      </trkpt>
      <trkpt lat="44.0953" lon="3.00596">
        <ele>382.7</ele>
        <time>2021-03-06T14:26:46Z</time>
      </trkpt>
      <trkpt lat="44.09531" lon="3.00598">
        <ele>382.8</ele>
        <time>2021-03-06T14:26:47Z</time>
      </trkpt>
      <trkpt lat="44.09533" lon="3.00601">
        <ele>383.1</ele>
        <time>2021-03-06T14:26:49Z</time>
      </trkpt>
      <trkpt lat="44.09535" lon="3.00603">
        <ele>383.3</ele>
        <time>2021-03-06T14:26:50Z</time>
      </trkpt>
      <trkpt lat="44.09538" lon="3.00607">
        <ele>383.7</ele>
        <time>2021-03-06T14:26:51Z</time>
      </trkpt>
      <trkpt lat="44.09538" lon="3.00608">
        <ele>383.8</ele>
        <time>2021-03-06T14:26:52Z</time>
      </trkpt>
      <trkpt lat="44.0954" lon="3.00609">
        <ele>384</ele>
        <time>2021-03-06T14:26:53Z</time>
      </trkpt>
      <trkpt lat="44.09541" lon="3.0061">
        <ele>384.1</ele>
        <time>2021-03-06T14:26:55Z</time>
      </trkpt>
      <trkpt lat="44.09542" lon="3.00611">
        <ele>384.2</ele>
        <time>2021-03-06T14:26:56Z</time>
      </trkpt>
      <trkpt lat="44.09544" lon="3.00612">
        <ele>384.5</ele>
        <time>2021-03-06T14:26:57Z</time>
      </trkpt>
      <trkpt lat="44.09546" lon="3.00613">
        <ele>384.7</ele>
        <time>2021-03-06T14:26:59Z</time>
      </trkpt>
      <trkpt lat="44.09548" lon="3.00614">
        <ele>384.9</ele>
        <time>2021-03-06T14:27:00Z</time>
      </trkpt>
      <trkpt lat="44.0955" lon="3.00613">
        <ele>385.1</ele>
        <time>2021-03-06T14:27:01Z</time>
      </trkpt>
      <trkpt lat="44.09551" lon="3.00614">
        <ele>385.3</ele>
        <time>2021-03-06T14:27:03Z</time>
      </trkpt>
      <trkpt lat="44.09554" lon="3.00615">
        <ele>385.6</ele>
        <time>2021-03-06T14:27:05Z</time>
      </trkpt>
      <trkpt lat="44.09556" lon="3.00616">
        <ele>385.8</ele>
        <time>2021-03-06T14:27:06Z</time>
      </trkpt>
      <trkpt lat="44.09558" lon="3.00616">
        <ele>386</ele>
        <time>2021-03-06T14:27:08Z</time>
      </trkpt>
      <trkpt lat="44.0956" lon="3.00617">
        <ele>386.1</ele>
        <time>2021-03-06T14:27:10Z</time>
      </trkpt>
      <trkpt lat="44.09561" lon="3.00618">
        <ele>386.2</ele>
        <time>2021-03-06T14:27:11Z</time>
      </trkpt>
      <trkpt lat="44.09562" lon="3.00619">
        <ele>386.3</ele>
        <time>2021-03-06T14:27:13Z</time>
      </trkpt>
      <trkpt lat="44.09563" lon="3.00619">
        <ele>386.4</ele>
        <time>2021-03-06T14:27:15Z</time>
      </trkpt>
      <trkpt lat="44.09564" lon="3.0062">
        <ele>386.4</ele>
        <time>2021-03-06T14:27:16Z</time>
      </trkpt>
      <trkpt lat="44.09565" lon="3.00621">
        <ele>386.5</ele>
        <time>2021-03-06T14:27:18Z</time>
      </trkpt>
      <trkpt lat="44.09566" lon="3.00622">
        <ele>386.6</ele>
        <time>2021-03-06T14:29:12Z</time>
      </trkpt>
      <trkpt lat="44.09567" lon="3.00622">
        <ele>386.6</ele>
        <time>2021-03-06T14:29:14Z</time>
      </trkpt>
      <trkpt lat="44.09568" lon="3.00623">
        <ele>386.7</ele>
        <time>2021-03-06T14:29:15Z</time>
      </trkpt>
      <trkpt lat="44.09569" lon="3.00624">
        <ele>386.7</ele>
        <time>2021-03-06T14:29:16Z</time>
      </trkpt>
      <trkpt lat="44.09572" lon="3.00623">
        <ele>386.9</ele>
        <time>2021-03-06T14:29:18Z</time>
      </trkpt>
      <trkpt lat="44.09573" lon="3.00624">
        <ele>387</ele>
        <time>2021-03-06T14:29:19Z</time>
      </trkpt>
      <trkpt lat="44.09574" lon="3.00625">
        <ele>387</ele>
        <time>2021-03-06T14:29:20Z</time>
      </trkpt>
      <trkpt lat="44.09577" lon="3.00626">
        <ele>387.2</ele>
        <time>2021-03-06T14:29:22Z</time>
      </trkpt>
      <trkpt lat="44.09578" lon="3.00626">
        <ele>387.2</ele>
        <time>2021-03-06T14:29:23Z</time>
      </trkpt>
      <trkpt lat="44.09581" lon="3.00628">
        <ele>387.4</ele>
        <time>2021-03-06T14:29:25Z</time>
      </trkpt>
      <trkpt lat="44.09584" lon="3.0063">
        <ele>387.5</ele>
        <time>2021-03-06T14:29:26Z</time>
      </trkpt>
      <trkpt lat="44.09586" lon="3.00632">
        <ele>387.7</ele>
        <time>2021-03-06T14:29:28Z</time>
      </trkpt>
      <trkpt lat="44.09589" lon="3.00635">
        <ele>387.8</ele>
        <time>2021-03-06T14:29:29Z</time>
      </trkpt>
      <trkpt lat="44.09593" lon="3.00637">
        <ele>388</ele>
        <time>2021-03-06T14:29:31Z</time>
      </trkpt>
      <trkpt lat="44.09595" lon="3.00639">
        <ele>388</ele>
        <time>2021-03-06T14:29:32Z</time>
      </trkpt>
      <trkpt lat="44.09597" lon="3.00641">
        <ele>388.2</ele>
        <time>2021-03-06T14:29:33Z</time>
      </trkpt>
      <trkpt lat="44.096" lon="3.00645">
        <ele>388.4</ele>
        <time>2021-03-06T14:29:35Z</time>
      </trkpt>
      <trkpt lat="44.09603" lon="3.00648">
        <ele>388.6</ele>
        <time>2021-03-06T14:29:37Z</time>
      </trkpt>
      <trkpt lat="44.09604" lon="3.00649">
        <ele>388.6</ele>
        <time>2021-03-06T14:29:38Z</time>
      </trkpt>
      <trkpt lat="44.09605" lon="3.00652">
        <ele>388.8</ele>
        <time>2021-03-06T14:29:39Z</time>
      </trkpt>
      <trkpt lat="44.09606" lon="3.00655">
        <ele>389</ele>
        <time>2021-03-06T14:29:41Z</time>
      </trkpt>
      <trkpt lat="44.09608" lon="3.00658">
        <ele>389.3</ele>
        <time>2021-03-06T14:29:42Z</time>
      </trkpt>
      <trkpt lat="44.09609" lon="3.00659">
        <ele>389.4</ele>
        <time>2021-03-06T14:29:43Z</time>
      </trkpt>
      <trkpt lat="44.09611" lon="3.00662">
        <ele>389.6</ele>
        <time>2021-03-06T14:29:44Z</time>
      </trkpt>
      <trkpt lat="44.09612" lon="3.00663">
        <ele>389.7</ele>
        <time>2021-03-06T14:29:45Z</time>
      </trkpt>
      <trkpt lat="44.09613" lon="3.00665">
        <ele>389.9</ele>
        <time>2021-03-06T14:29:46Z</time>
      </trkpt>
      <trkpt lat="44.09615" lon="3.00667">
        <ele>390.2</ele>
        <time>2021-03-06T14:29:48Z</time>
      </trkpt>
      <trkpt lat="44.09617" lon="3.00671">
        <ele>390.5</ele>
        <time>2021-03-06T14:29:50Z</time>
      </trkpt>
      <trkpt lat="44.0962" lon="3.00674">
        <ele>390.8</ele>
        <time>2021-03-06T14:29:52Z</time>
      </trkpt>
      <trkpt lat="44.09623" lon="3.00679">
        <ele>391.2</ele>
        <time>2021-03-06T14:29:54Z</time>
      </trkpt>
      <trkpt lat="44.09626" lon="3.00683">
        <ele>391.4</ele>
        <time>2021-03-06T14:29:55Z</time>
      </trkpt>
      <trkpt lat="44.09627" lon="3.00687">
        <ele>391.6</ele>
        <time>2021-03-06T14:29:56Z</time>
      </trkpt>
      <trkpt lat="44.09629" lon="3.0069">
        <ele>391.8</ele>
        <time>2021-03-06T14:29:58Z</time>
      </trkpt>
      <trkpt lat="44.0963" lon="3.00693">
        <ele>392</ele>
        <time>2021-03-06T14:29:59Z</time>
      </trkpt>
      <trkpt lat="44.09632" lon="3.00695">
        <ele>392.2</ele>
        <time>2021-03-06T14:30:01Z</time>
      </trkpt>
      <trkpt lat="44.09634" lon="3.00698">
        <ele>392.4</ele>
        <time>2021-03-06T14:30:02Z</time>
      </trkpt>
      <trkpt lat="44.09636" lon="3.007">
        <ele>392.6</ele>
        <time>2021-03-06T14:30:03Z</time>
      </trkpt>
      <trkpt lat="44.09638" lon="3.00703">
        <ele>392.9</ele>
        <time>2021-03-06T14:30:05Z</time>
      </trkpt>
      <trkpt lat="44.09641" lon="3.00707">
        <ele>393.2</ele>
        <time>2021-03-06T14:30:06Z</time>
      </trkpt>
      <trkpt lat="44.09642" lon="3.00708">
        <ele>393.3</ele>
        <time>2021-03-06T14:30:07Z</time>
      </trkpt>
      <trkpt lat="44.09644" lon="3.00713">
        <ele>393.8</ele>
        <time>2021-03-06T14:30:09Z</time>
      </trkpt>
      <trkpt lat="44.09645" lon="3.00715">
        <ele>393.9</ele>
        <time>2021-03-06T14:30:11Z</time>
      </trkpt>
      <trkpt lat="44.09646" lon="3.00717">
        <ele>394</ele>
        <time>2021-03-06T14:30:12Z</time>
      </trkpt>
      <trkpt lat="44.09649" lon="3.00719">
        <ele>394.3</ele>
        <time>2021-03-06T14:30:13Z</time>
      </trkpt>
      <trkpt lat="44.09649" lon="3.0072">
        <ele>394.4</ele>
        <time>2021-03-06T14:30:14Z</time>
      </trkpt>
      <trkpt lat="44.09652" lon="3.00725">
        <ele>394.8</ele>
        <time>2021-03-06T14:30:16Z</time>
      </trkpt>
      <trkpt lat="44.09653" lon="3.00726">
        <ele>394.9</ele>
        <time>2021-03-06T14:30:17Z</time>
      </trkpt>
      <trkpt lat="44.09653" lon="3.00728">
        <ele>395</ele>
        <time>2021-03-06T14:30:18Z</time>
      </trkpt>
      <trkpt lat="44.09655" lon="3.00731">
        <ele>395.2</ele>
        <time>2021-03-06T14:30:20Z</time>
      </trkpt>
      <trkpt lat="44.09656" lon="3.00737">
        <ele>395.5</ele>
        <time>2021-03-06T14:30:22Z</time>
      </trkpt>
      <trkpt lat="44.09657" lon="3.00741">
        <ele>395.7</ele>
        <time>2021-03-06T14:30:23Z</time>
      </trkpt>
      <trkpt lat="44.09658" lon="3.00742">
        <ele>395.7</ele>
        <time>2021-03-06T14:30:24Z</time>
      </trkpt>
      <trkpt lat="44.09659" lon="3.00746">
        <ele>395.9</ele>
        <time>2021-03-06T14:30:25Z</time>
      </trkpt>
      <trkpt lat="44.09661" lon="3.00752">
        <ele>396.1</ele>
        <time>2021-03-06T14:30:27Z</time>
      </trkpt>
      <trkpt lat="44.09663" lon="3.00757">
        <ele>396.2</ele>
        <time>2021-03-06T14:30:28Z</time>
      </trkpt>
      <trkpt lat="44.09665" lon="3.00762">
        <ele>396.3</ele>
        <time>2021-03-06T14:30:30Z</time>
      </trkpt>
      <trkpt lat="44.09667" lon="3.00767">
        <ele>396.4</ele>
        <time>2021-03-06T14:30:31Z</time>
      </trkpt>
      <trkpt lat="44.09667" lon="3.00768">
        <ele>396.4</ele>
        <time>2021-03-06T14:30:32Z</time>
      </trkpt>
      <trkpt lat="44.09669" lon="3.00774">
        <ele>396.6</ele>
        <time>2021-03-06T14:30:33Z</time>
      </trkpt>
      <trkpt lat="44.0967" lon="3.00776">
        <ele>396.7</ele>
        <time>2021-03-06T14:30:34Z</time>
      </trkpt>
      <trkpt lat="44.09672" lon="3.00781">
        <ele>396.9</ele>
        <time>2021-03-06T14:30:36Z</time>
      </trkpt>
      <trkpt lat="44.09673" lon="3.00787">
        <ele>397.2</ele>
        <time>2021-03-06T14:30:38Z</time>
      </trkpt>
      <trkpt lat="44.09674" lon="3.0079">
        <ele>397.4</ele>
        <time>2021-03-06T14:30:39Z</time>
      </trkpt>
      <trkpt lat="44.09674" lon="3.00792">
        <ele>397.5</ele>
        <time>2021-03-06T14:30:40Z</time>
      </trkpt>
      <trkpt lat="44.09677" lon="3.00797">
        <ele>397.9</ele>
        <time>2021-03-06T14:30:42Z</time>
      </trkpt>
      <trkpt lat="44.09677" lon="3.00799">
        <ele>398.1</ele>
        <time>2021-03-06T14:30:43Z</time>
      </trkpt>
      <trkpt lat="44.09678" lon="3.00801">
        <ele>398.3</ele>
        <time>2021-03-06T14:30:44Z</time>
      </trkpt>
      <trkpt lat="44.09679" lon="3.00805">
        <ele>398.6</ele>
        <time>2021-03-06T14:30:45Z</time>
      </trkpt>
      <trkpt lat="44.0968" lon="3.00806">
        <ele>398.7</ele>
        <time>2021-03-06T14:30:46Z</time>
      </trkpt>
      <trkpt lat="44.09681" lon="3.00811">
        <ele>399</ele>
        <time>2021-03-06T14:30:48Z</time>
      </trkpt>
      <trkpt lat="44.09682" lon="3.00813">
        <ele>399.2</ele>
        <time>2021-03-06T14:30:49Z</time>
      </trkpt>
      <trkpt lat="44.09684" lon="3.00818">
        <ele>399.5</ele>
        <time>2021-03-06T14:30:51Z</time>
      </trkpt>
      <trkpt lat="44.09685" lon="3.00819">
        <ele>399.6</ele>
        <time>2021-03-06T14:30:52Z</time>
      </trkpt>
      <trkpt lat="44.09685" lon="3.00821">
        <ele>399.6</ele>
        <time>2021-03-06T14:30:53Z</time>
      </trkpt>
      <trkpt lat="44.09687" lon="3.00825">
        <ele>399.8</ele>
        <time>2021-03-06T14:30:55Z</time>
      </trkpt>
      <trkpt lat="44.09688" lon="3.00827">
        <ele>399.9</ele>
        <time>2021-03-06T14:30:56Z</time>
      </trkpt>
      <trkpt lat="44.09689" lon="3.00829">
        <ele>400</ele>
        <time>2021-03-06T14:30:57Z</time>
      </trkpt>
      <trkpt lat="44.09691" lon="3.00831">
        <ele>400.1</ele>
        <time>2021-03-06T14:30:59Z</time>
      </trkpt>
      <trkpt lat="44.09693" lon="3.00834">
        <ele>400.2</ele>
        <time>2021-03-06T14:31:00Z</time>
      </trkpt>
      <trkpt lat="44.09693" lon="3.00836">
        <ele>400.2</ele>
        <time>2021-03-06T14:31:01Z</time>
      </trkpt>
      <trkpt lat="44.09695" lon="3.00839">
        <ele>400.3</ele>
        <time>2021-03-06T14:31:02Z</time>
      </trkpt>
      <trkpt lat="44.09696" lon="3.00843">
        <ele>400.4</ele>
        <time>2021-03-06T14:31:04Z</time>
      </trkpt>
      <trkpt lat="44.09697" lon="3.00845">
        <ele>400.4</ele>
        <time>2021-03-06T14:31:05Z</time>
      </trkpt>
      <trkpt lat="44.09698" lon="3.00848">
        <ele>400.5</ele>
        <time>2021-03-06T14:31:06Z</time>
      </trkpt>
      <trkpt lat="44.097" lon="3.00853">
        <ele>400.6</ele>
        <time>2021-03-06T14:31:08Z</time>
      </trkpt>
      <trkpt lat="44.09701" lon="3.00858">
        <ele>400.8</ele>
        <time>2021-03-06T14:31:09Z</time>
      </trkpt>
      <trkpt lat="44.09701" lon="3.00859">
        <ele>400.8</ele>
        <time>2021-03-06T14:31:10Z</time>
      </trkpt>
      <trkpt lat="44.09702" lon="3.00861">
        <ele>400.9</ele>
        <time>2021-03-06T14:31:11Z</time>
      </trkpt>
      <trkpt lat="44.09702" lon="3.00864">
        <ele>401</ele>
        <time>2021-03-06T14:31:13Z</time>
      </trkpt>
      <trkpt lat="44.09703" lon="3.00869">
        <ele>401.1</ele>
        <time>2021-03-06T14:31:14Z</time>
      </trkpt>
      <trkpt lat="44.09704" lon="3.00872">
        <ele>401.3</ele>
        <time>2021-03-06T14:31:15Z</time>
      </trkpt>
      <trkpt lat="44.09704" lon="3.00876">
        <ele>401.4</ele>
        <time>2021-03-06T14:31:17Z</time>
      </trkpt>
      <trkpt lat="44.09705" lon="3.00878">
        <ele>401.5</ele>
        <time>2021-03-06T14:31:18Z</time>
      </trkpt>
      <trkpt lat="44.09705" lon="3.00879">
        <ele>401.6</ele>
        <time>2021-03-06T14:31:19Z</time>
      </trkpt>
      <trkpt lat="44.09707" lon="3.00884">
        <ele>401.8</ele>
        <time>2021-03-06T14:31:21Z</time>
      </trkpt>
      <trkpt lat="44.09709" lon="3.00887">
        <ele>402</ele>
        <time>2021-03-06T14:31:22Z</time>
      </trkpt>
      <trkpt lat="44.0971" lon="3.00889">
        <ele>402.1</ele>
        <time>2021-03-06T14:31:23Z</time>
      </trkpt>
      <trkpt lat="44.09712" lon="3.00895">
        <ele>402.4</ele>
        <time>2021-03-06T14:31:25Z</time>
      </trkpt>
      <trkpt lat="44.09712" lon="3.00897">
        <ele>402.5</ele>
        <time>2021-03-06T14:31:26Z</time>
      </trkpt>
      <trkpt lat="44.09713" lon="3.00899">
        <ele>402.6</ele>
        <time>2021-03-06T14:31:27Z</time>
      </trkpt>
      <trkpt lat="44.09715" lon="3.00902">
        <ele>402.8</ele>
        <time>2021-03-06T14:31:28Z</time>
      </trkpt>
      <trkpt lat="44.09716" lon="3.00908">
        <ele>403.1</ele>
        <time>2021-03-06T14:31:30Z</time>
      </trkpt>
      <trkpt lat="44.09717" lon="3.00914">
        <ele>403.4</ele>
        <time>2021-03-06T14:31:31Z</time>
      </trkpt>
      <trkpt lat="44.09719" lon="3.00918">
        <ele>403.6</ele>
        <time>2021-03-06T14:31:33Z</time>
      </trkpt>
      <trkpt lat="44.0972" lon="3.0092">
        <ele>403.7</ele>
        <time>2021-03-06T14:31:34Z</time>
      </trkpt>
      <trkpt lat="44.09721" lon="3.00924">
        <ele>404</ele>
        <time>2021-03-06T14:31:36Z</time>
      </trkpt>
      <trkpt lat="44.09722" lon="3.00925">
        <ele>404.1</ele>
        <time>2021-03-06T14:31:37Z</time>
      </trkpt>
      <trkpt lat="44.09723" lon="3.00928">
        <ele>404.3</ele>
        <time>2021-03-06T14:31:39Z</time>
      </trkpt>
      <trkpt lat="44.09724" lon="3.00932">
        <ele>404.6</ele>
        <time>2021-03-06T14:31:40Z</time>
      </trkpt>
      <trkpt lat="44.09724" lon="3.00933">
        <ele>404.7</ele>
        <time>2021-03-06T14:31:41Z</time>
      </trkpt>
      <trkpt lat="44.09725" lon="3.00935">
        <ele>404.9</ele>
        <time>2021-03-06T14:31:43Z</time>
      </trkpt>
      <trkpt lat="44.09726" lon="3.00937">
        <ele>405</ele>
        <time>2021-03-06T14:31:44Z</time>
      </trkpt>
      <trkpt lat="44.09726" lon="3.0094">
        <ele>405.2</ele>
        <time>2021-03-06T14:31:46Z</time>
      </trkpt>
      <trkpt lat="44.09727" lon="3.00941">
        <ele>405.4</ele>
        <time>2021-03-06T14:31:47Z</time>
      </trkpt>
      <trkpt lat="44.09728" lon="3.00945">
        <ele>405.7</ele>
        <time>2021-03-06T14:31:48Z</time>
      </trkpt>
      <trkpt lat="44.09729" lon="3.00946">
        <ele>405.8</ele>
        <time>2021-03-06T14:31:49Z</time>
      </trkpt>
      <trkpt lat="44.0973" lon="3.00948">
        <ele>406</ele>
        <time>2021-03-06T14:31:50Z</time>
      </trkpt>
      <trkpt lat="44.09731" lon="3.00951">
        <ele>406.3</ele>
        <time>2021-03-06T14:31:52Z</time>
      </trkpt>
      <trkpt lat="44.09733" lon="3.00954">
        <ele>406.6</ele>
        <time>2021-03-06T14:31:53Z</time>
      </trkpt>
      <trkpt lat="44.09736" lon="3.00959">
        <ele>407.2</ele>
        <time>2021-03-06T14:31:55Z</time>
      </trkpt>
      <trkpt lat="44.09738" lon="3.00964">
        <ele>407.6</ele>
        <time>2021-03-06T14:31:56Z</time>
      </trkpt>
      <trkpt lat="44.0974" lon="3.00967">
        <ele>407.9</ele>
        <time>2021-03-06T14:31:58Z</time>
      </trkpt>
      <trkpt lat="44.09741" lon="3.00969">
        <ele>408.1</ele>
        <time>2021-03-06T14:31:59Z</time>
      </trkpt>
      <trkpt lat="44.09742" lon="3.00971">
        <ele>408.3</ele>
        <time>2021-03-06T14:32:00Z</time>
      </trkpt>
      <trkpt lat="44.09745" lon="3.00978">
        <ele>408.8</ele>
        <time>2021-03-06T14:32:01Z</time>
      </trkpt>
      <trkpt lat="44.09748" lon="3.00982">
        <ele>409.1</ele>
        <time>2021-03-06T14:32:03Z</time>
      </trkpt>
      <trkpt lat="44.09748" lon="3.00983">
        <ele>409.3</ele>
        <time>2021-03-06T14:32:04Z</time>
      </trkpt>
      <trkpt lat="44.0975" lon="3.00987">
        <ele>409.5</ele>
        <time>2021-03-06T14:32:05Z</time>
      </trkpt>
      <trkpt lat="44.09751" lon="3.00988">
        <ele>409.6</ele>
        <time>2021-03-06T14:32:06Z</time>
      </trkpt>
      <trkpt lat="44.09753" lon="3.00991">
        <ele>409.8</ele>
        <time>2021-03-06T14:32:07Z</time>
      </trkpt>
      <trkpt lat="44.09753" lon="3.00992">
        <ele>409.9</ele>
        <time>2021-03-06T14:32:08Z</time>
      </trkpt>
      <trkpt lat="44.09755" lon="3.00996">
        <ele>410.2</ele>
        <time>2021-03-06T14:32:10Z</time>
      </trkpt>
      <trkpt lat="44.09756" lon="3.00997">
        <ele>410.2</ele>
        <time>2021-03-06T14:32:11Z</time>
      </trkpt>
      <trkpt lat="44.09759" lon="3.01">
        <ele>410.5</ele>
        <time>2021-03-06T14:32:13Z</time>
      </trkpt>
      <trkpt lat="44.0976" lon="3.01001">
        <ele>410.6</ele>
        <time>2021-03-06T14:32:14Z</time>
      </trkpt>
      <trkpt lat="44.09762" lon="3.01002">
        <ele>410.7</ele>
        <time>2021-03-06T14:32:16Z</time>
      </trkpt>
      <trkpt lat="44.09763" lon="3.01003">
        <ele>410.9</ele>
        <time>2021-03-06T14:32:17Z</time>
      </trkpt>
      <trkpt lat="44.09766" lon="3.01007">
        <ele>411.2</ele>
        <time>2021-03-06T14:32:19Z</time>
      </trkpt>
      <trkpt lat="44.09766" lon="3.01009">
        <ele>411.3</ele>
        <time>2021-03-06T14:32:20Z</time>
      </trkpt>
      <trkpt lat="44.09767" lon="3.01011">
        <ele>411.4</ele>
        <time>2021-03-06T14:32:21Z</time>
      </trkpt>
      <trkpt lat="44.09768" lon="3.01013">
        <ele>411.6</ele>
        <time>2021-03-06T14:32:23Z</time>
      </trkpt>
      <trkpt lat="44.09769" lon="3.01014">
        <ele>411.8</ele>
        <time>2021-03-06T14:32:24Z</time>
      </trkpt>
      <trkpt lat="44.09771" lon="3.01017">
        <ele>412.1</ele>
        <time>2021-03-06T14:32:25Z</time>
      </trkpt>
      <trkpt lat="44.09772" lon="3.01018">
        <ele>412.2</ele>
        <time>2021-03-06T14:32:26Z</time>
      </trkpt>
      <trkpt lat="44.09773" lon="3.0102">
        <ele>412.3</ele>
        <time>2021-03-06T14:32:27Z</time>
      </trkpt>
      <trkpt lat="44.09775" lon="3.01022">
        <ele>412.6</ele>
        <time>2021-03-06T14:32:29Z</time>
      </trkpt>
      <trkpt lat="44.09776" lon="3.01023">
        <ele>412.8</ele>
        <time>2021-03-06T14:32:30Z</time>
      </trkpt>
      <trkpt lat="44.09777" lon="3.01024">
        <ele>413</ele>
        <time>2021-03-06T14:32:31Z</time>
      </trkpt>
      <trkpt lat="44.09779" lon="3.01024">
        <ele>413.1</ele>
        <time>2021-03-06T14:32:33Z</time>
      </trkpt>
      <trkpt lat="44.0978" lon="3.01025">
        <ele>413.3</ele>
        <time>2021-03-06T14:32:34Z</time>
      </trkpt>
      <trkpt lat="44.09782" lon="3.01025">
        <ele>413.5</ele>
        <time>2021-03-06T14:32:35Z</time>
      </trkpt>
      <trkpt lat="44.09783" lon="3.01025">
        <ele>413.6</ele>
        <time>2021-03-06T14:32:36Z</time>
      </trkpt>
      <trkpt lat="44.09784" lon="3.01025">
        <ele>413.7</ele>
        <time>2021-03-06T14:32:38Z</time>
      </trkpt>
      <trkpt lat="44.09785" lon="3.01025">
        <ele>413.8</ele>
        <time>2021-03-06T14:32:39Z</time>
      </trkpt>
      <trkpt lat="44.09786" lon="3.01025">
        <ele>414</ele>
        <time>2021-03-06T14:32:40Z</time>
      </trkpt>
      <trkpt lat="44.09787" lon="3.01026">
        <ele>414.2</ele>
        <time>2021-03-06T14:32:41Z</time>
      </trkpt>
      <trkpt lat="44.09789" lon="3.01027">
        <ele>414.3</ele>
        <time>2021-03-06T14:32:43Z</time>
      </trkpt>
      <trkpt lat="44.0979" lon="3.01028">
        <ele>414.5</ele>
        <time>2021-03-06T14:32:44Z</time>
      </trkpt>
      <trkpt lat="44.09792" lon="3.01031">
        <ele>414.7</ele>
        <time>2021-03-06T14:32:45Z</time>
      </trkpt>
      <trkpt lat="44.09793" lon="3.01032">
        <ele>414.9</ele>
        <time>2021-03-06T14:32:46Z</time>
      </trkpt>
      <trkpt lat="44.09795" lon="3.01035">
        <ele>415.1</ele>
        <time>2021-03-06T14:32:48Z</time>
      </trkpt>
      <trkpt lat="44.09795" lon="3.01037">
        <ele>415.2</ele>
        <time>2021-03-06T14:32:49Z</time>
      </trkpt>
      <trkpt lat="44.09797" lon="3.01038">
        <ele>415.4</ele>
        <time>2021-03-06T14:32:50Z</time>
      </trkpt>
      <trkpt lat="44.09798" lon="3.0104">
        <ele>415.5</ele>
        <time>2021-03-06T14:32:52Z</time>
      </trkpt>
      <trkpt lat="44.09799" lon="3.01044">
        <ele>415.7</ele>
        <time>2021-03-06T14:32:53Z</time>
      </trkpt>
      <trkpt lat="44.098" lon="3.01045">
        <ele>415.8</ele>
        <time>2021-03-06T14:32:54Z</time>
      </trkpt>
      <trkpt lat="44.09802" lon="3.01049">
        <ele>416</ele>
        <time>2021-03-06T14:32:56Z</time>
      </trkpt>
      <trkpt lat="44.09802" lon="3.0105">
        <ele>416.1</ele>
        <time>2021-03-06T14:32:57Z</time>
      </trkpt>
      <trkpt lat="44.09804" lon="3.01055">
        <ele>416.4</ele>
        <time>2021-03-06T14:32:59Z</time>
      </trkpt>
      <trkpt lat="44.09805" lon="3.01057">
        <ele>416.5</ele>
        <time>2021-03-06T14:33:00Z</time>
      </trkpt>
      <trkpt lat="44.09807" lon="3.01067">
        <ele>417.1</ele>
        <time>2021-03-06T14:33:02Z</time>
      </trkpt>
      <trkpt lat="44.09808" lon="3.01071">
        <ele>417.4</ele>
        <time>2021-03-06T14:33:03Z</time>
      </trkpt>
      <trkpt lat="44.09808" lon="3.01072">
        <ele>417.4</ele>
        <time>2021-03-06T14:33:04Z</time>
      </trkpt>
      <trkpt lat="44.09811" lon="3.01076">
        <ele>417.8</ele>
        <time>2021-03-06T14:33:06Z</time>
      </trkpt>
      <trkpt lat="44.09811" lon="3.01077">
        <ele>417.9</ele>
        <time>2021-03-06T14:33:07Z</time>
      </trkpt>
      <trkpt lat="44.09813" lon="3.01079">
        <ele>418.1</ele>
        <time>2021-03-06T14:33:08Z</time>
      </trkpt>
      <trkpt lat="44.09815" lon="3.01083">
        <ele>418.4</ele>
        <time>2021-03-06T14:33:10Z</time>
      </trkpt>
      <trkpt lat="44.09816" lon="3.01085">
        <ele>418.6</ele>
        <time>2021-03-06T14:33:11Z</time>
      </trkpt>
      <trkpt lat="44.09817" lon="3.01086">
        <ele>418.8</ele>
        <time>2021-03-06T14:33:12Z</time>
      </trkpt>
      <trkpt lat="44.09818" lon="3.01087">
        <ele>419</ele>
        <time>2021-03-06T14:33:13Z</time>
      </trkpt>
      <trkpt lat="44.0982" lon="3.01089">
        <ele>419.2</ele>
        <time>2021-03-06T14:33:15Z</time>
      </trkpt>
      <trkpt lat="44.09821" lon="3.0109">
        <ele>419.4</ele>
        <time>2021-03-06T14:33:16Z</time>
      </trkpt>
      <trkpt lat="44.09822" lon="3.01091">
        <ele>419.5</ele>
        <time>2021-03-06T14:33:17Z</time>
      </trkpt>
      <trkpt lat="44.09823" lon="3.01092">
        <ele>419.7</ele>
        <time>2021-03-06T14:33:19Z</time>
      </trkpt>
      <trkpt lat="44.09824" lon="3.01094">
        <ele>419.9</ele>
        <time>2021-03-06T14:33:20Z</time>
      </trkpt>
      <trkpt lat="44.09826" lon="3.01096">
        <ele>420.1</ele>
        <time>2021-03-06T14:33:21Z</time>
      </trkpt>
      <trkpt lat="44.09827" lon="3.01099">
        <ele>420.5</ele>
        <time>2021-03-06T14:33:22Z</time>
      </trkpt>
      <trkpt lat="44.09828" lon="3.01101">
        <ele>420.6</ele>
        <time>2021-03-06T14:33:23Z</time>
      </trkpt>
      <trkpt lat="44.09829" lon="3.01105">
        <ele>421</ele>
        <time>2021-03-06T14:33:24Z</time>
      </trkpt>
      <trkpt lat="44.09831" lon="3.01108">
        <ele>421.2</ele>
        <time>2021-03-06T14:33:25Z</time>
      </trkpt>
      <trkpt lat="44.09833" lon="3.0111">
        <ele>421.5</ele>
        <time>2021-03-06T14:33:27Z</time>
      </trkpt>
      <trkpt lat="44.09835" lon="3.01113">
        <ele>421.8</ele>
        <time>2021-03-06T14:33:29Z</time>
      </trkpt>
      <trkpt lat="44.09836" lon="3.01115">
        <ele>421.9</ele>
        <time>2021-03-06T14:33:30Z</time>
      </trkpt>
      <trkpt lat="44.09837" lon="3.01116">
        <ele>422.1</ele>
        <time>2021-03-06T14:33:31Z</time>
      </trkpt>
      <trkpt lat="44.09841" lon="3.0112">
        <ele>422.4</ele>
        <time>2021-03-06T14:33:33Z</time>
      </trkpt>
      <trkpt lat="44.09842" lon="3.01121">
        <ele>422.6</ele>
        <time>2021-03-06T14:33:34Z</time>
      </trkpt>
      <trkpt lat="44.09843" lon="3.01122">
        <ele>422.7</ele>
        <time>2021-03-06T14:33:35Z</time>
      </trkpt>
      <trkpt lat="44.09845" lon="3.01125">
        <ele>423</ele>
        <time>2021-03-06T14:33:37Z</time>
      </trkpt>
      <trkpt lat="44.09846" lon="3.01125">
        <ele>423.1</ele>
        <time>2021-03-06T14:33:38Z</time>
      </trkpt>
      <trkpt lat="44.09848" lon="3.01127">
        <ele>423.4</ele>
        <time>2021-03-06T14:33:39Z</time>
      </trkpt>
      <trkpt lat="44.0985" lon="3.01129">
        <ele>423.6</ele>
        <time>2021-03-06T14:33:41Z</time>
      </trkpt>
      <trkpt lat="44.09851" lon="3.0113">
        <ele>423.8</ele>
        <time>2021-03-06T14:33:43Z</time>
      </trkpt>
      <trkpt lat="44.09852" lon="3.01131">
        <ele>424</ele>
        <time>2021-03-06T14:33:44Z</time>
      </trkpt>
      <trkpt lat="44.09853" lon="3.01132">
        <ele>424.1</ele>
        <time>2021-03-06T14:33:46Z</time>
      </trkpt>
      <trkpt lat="44.09854" lon="3.01134">
        <ele>424.3</ele>
        <time>2021-03-06T14:33:47Z</time>
      </trkpt>
      <trkpt lat="44.09855" lon="3.01135">
        <ele>424.5</ele>
        <time>2021-03-06T14:33:49Z</time>
      </trkpt>
      <trkpt lat="44.09856" lon="3.01136">
        <ele>424.7</ele>
        <time>2021-03-06T14:33:50Z</time>
      </trkpt>
      <trkpt lat="44.09858" lon="3.01137">
        <ele>424.9</ele>
        <time>2021-03-06T14:33:52Z</time>
      </trkpt>
      <trkpt lat="44.09859" lon="3.01138">
        <ele>425.1</ele>
        <time>2021-03-06T14:33:53Z</time>
      </trkpt>
      <trkpt lat="44.09861" lon="3.01138">
        <ele>425.4</ele>
        <time>2021-03-06T14:33:54Z</time>
      </trkpt>
      <trkpt lat="44.09864" lon="3.01139">
        <ele>425.8</ele>
        <time>2021-03-06T14:33:56Z</time>
      </trkpt>
      <trkpt lat="44.09865" lon="3.01139">
        <ele>425.9</ele>
        <time>2021-03-06T14:33:57Z</time>
      </trkpt>
      <trkpt lat="44.09868" lon="3.01139">
        <ele>426.3</ele>
        <time>2021-03-06T14:33:59Z</time>
      </trkpt>
      <trkpt lat="44.09871" lon="3.01139">
        <ele>426.8</ele>
        <time>2021-03-06T14:34:00Z</time>
      </trkpt>
      <trkpt lat="44.09875" lon="3.01139">
        <ele>427.3</ele>
        <time>2021-03-06T14:34:01Z</time>
      </trkpt>
      <trkpt lat="44.09876" lon="3.01139">
        <ele>427.5</ele>
        <time>2021-03-06T14:34:03Z</time>
      </trkpt>
      <trkpt lat="44.09878" lon="3.01139">
        <ele>427.7</ele>
        <time>2021-03-06T14:34:05Z</time>
      </trkpt>
      <trkpt lat="44.09879" lon="3.01138">
        <ele>427.9</ele>
        <time>2021-03-06T14:34:06Z</time>
      </trkpt>
      <trkpt lat="44.09881" lon="3.01138">
        <ele>428.2</ele>
        <time>2021-03-06T14:34:08Z</time>
      </trkpt>
      <trkpt lat="44.09883" lon="3.01138">
        <ele>428.3</ele>
        <time>2021-03-06T14:34:09Z</time>
      </trkpt>
      <trkpt lat="44.09884" lon="3.01138">
        <ele>428.6</ele>
        <time>2021-03-06T14:34:10Z</time>
      </trkpt>
      <trkpt lat="44.09887" lon="3.01138">
        <ele>428.9</ele>
        <time>2021-03-06T14:34:12Z</time>
      </trkpt>
      <trkpt lat="44.09889" lon="3.01138">
        <ele>429.1</ele>
        <time>2021-03-06T14:34:13Z</time>
      </trkpt>
      <trkpt lat="44.09891" lon="3.01138">
        <ele>429.4</ele>
        <time>2021-03-06T14:34:15Z</time>
      </trkpt>
      <trkpt lat="44.09896" lon="3.01138">
        <ele>430</ele>
        <time>2021-03-06T14:34:17Z</time>
      </trkpt>
      <trkpt lat="44.09897" lon="3.01138">
        <ele>430.1</ele>
        <time>2021-03-06T14:34:18Z</time>
      </trkpt>
      <trkpt lat="44.09898" lon="3.01138">
        <ele>430.3</ele>
        <time>2021-03-06T14:34:19Z</time>
      </trkpt>
      <trkpt lat="44.099" lon="3.01138">
        <ele>430.6</ele>
        <time>2021-03-06T14:34:21Z</time>
      </trkpt>
      <trkpt lat="44.09902" lon="3.01138">
        <ele>430.8</ele>
        <time>2021-03-06T14:34:22Z</time>
      </trkpt>
      <trkpt lat="44.09905" lon="3.01139">
        <ele>431.2</ele>
        <time>2021-03-06T14:34:23Z</time>
      </trkpt>
      <trkpt lat="44.09906" lon="3.01139">
        <ele>431.3</ele>
        <time>2021-03-06T14:34:24Z</time>
      </trkpt>
      <trkpt lat="44.09908" lon="3.01138">
        <ele>431.6</ele>
        <time>2021-03-06T14:34:26Z</time>
      </trkpt>
      <trkpt lat="44.09908" lon="3.01138">
        <ele>431.7</ele>
        <time>2021-03-06T14:34:27Z</time>
      </trkpt>
      <trkpt lat="44.09909" lon="3.01137">
        <ele>431.8</ele>
        <time>2021-03-06T14:34:28Z</time>
      </trkpt>
      <trkpt lat="44.09912" lon="3.01136">
        <ele>432.3</ele>
        <time>2021-03-06T14:34:30Z</time>
      </trkpt>
      <trkpt lat="44.09913" lon="3.01136">
        <ele>432.5</ele>
        <time>2021-03-06T14:34:31Z</time>
      </trkpt>
      <trkpt lat="44.09914" lon="3.01135">
        <ele>432.7</ele>
        <time>2021-03-06T14:34:32Z</time>
      </trkpt>
      <trkpt lat="44.09916" lon="3.01134">
        <ele>433</ele>
        <time>2021-03-06T14:34:34Z</time>
      </trkpt>
      <trkpt lat="44.09917" lon="3.01134">
        <ele>433.2</ele>
        <time>2021-03-06T14:34:35Z</time>
      </trkpt>
      <trkpt lat="44.09919" lon="3.01134">
        <ele>433.6</ele>
        <time>2021-03-06T14:34:36Z</time>
      </trkpt>
      <trkpt lat="44.0992" lon="3.01134">
        <ele>433.7</ele>
        <time>2021-03-06T14:34:37Z</time>
      </trkpt>
      <trkpt lat="44.09921" lon="3.01134">
        <ele>433.9</ele>
        <time>2021-03-06T14:34:38Z</time>
      </trkpt>
      <trkpt lat="44.09922" lon="3.01135">
        <ele>434.1</ele>
        <time>2021-03-06T14:34:39Z</time>
      </trkpt>
      <trkpt lat="44.09924" lon="3.01136">
        <ele>434.4</ele>
        <time>2021-03-06T14:34:41Z</time>
      </trkpt>
      <trkpt lat="44.09925" lon="3.01137">
        <ele>434.7</ele>
        <time>2021-03-06T14:34:42Z</time>
      </trkpt>
      <trkpt lat="44.09926" lon="3.01137">
        <ele>434.9</ele>
        <time>2021-03-06T14:34:44Z</time>
      </trkpt>
      <trkpt lat="44.09927" lon="3.01137">
        <ele>435</ele>
        <time>2021-03-06T14:34:45Z</time>
      </trkpt>
      <trkpt lat="44.09929" lon="3.01137">
        <ele>435.5</ele>
        <time>2021-03-06T14:34:46Z</time>
      </trkpt>
      <trkpt lat="44.09931" lon="3.01138">
        <ele>435.7</ele>
        <time>2021-03-06T14:34:48Z</time>
      </trkpt>
      <trkpt lat="44.09932" lon="3.01138">
        <ele>435.9</ele>
        <time>2021-03-06T14:34:50Z</time>
      </trkpt>
      <trkpt lat="44.09934" lon="3.01138">
        <ele>436.2</ele>
        <time>2021-03-06T14:34:51Z</time>
      </trkpt>
      <trkpt lat="44.09936" lon="3.01138">
        <ele>436.5</ele>
        <time>2021-03-06T14:34:53Z</time>
      </trkpt>
      <trkpt lat="44.09939" lon="3.01138">
        <ele>437</ele>
        <time>2021-03-06T14:34:55Z</time>
      </trkpt>
      <trkpt lat="44.09942" lon="3.01139">
        <ele>437.2</ele>
        <time>2021-03-06T14:34:56Z</time>
      </trkpt>
      <trkpt lat="44.09945" lon="3.0114">
        <ele>437.6</ele>
        <time>2021-03-06T14:34:58Z</time>
      </trkpt>
      <trkpt lat="44.09947" lon="3.0114">
        <ele>437.8</ele>
        <time>2021-03-06T14:34:59Z</time>
      </trkpt>
      <trkpt lat="44.09948" lon="3.0114">
        <ele>437.9</ele>
        <time>2021-03-06T14:35:01Z</time>
      </trkpt>
      <trkpt lat="44.09952" lon="3.01139">
        <ele>438.1</ele>
        <time>2021-03-06T14:35:03Z</time>
      </trkpt>
      <trkpt lat="44.09953" lon="3.01139">
        <ele>438.2</ele>
        <time>2021-03-06T14:35:04Z</time>
      </trkpt>
      <trkpt lat="44.09954" lon="3.01139">
        <ele>438.3</ele>
        <time>2021-03-06T14:35:06Z</time>
      </trkpt>
      <trkpt lat="44.09957" lon="3.0114">
        <ele>438.5</ele>
        <time>2021-03-06T14:35:08Z</time>
      </trkpt>
      <trkpt lat="44.09959" lon="3.01141">
        <ele>438.6</ele>
        <time>2021-03-06T14:35:09Z</time>
      </trkpt>
      <trkpt lat="44.09961" lon="3.01144">
        <ele>438.8</ele>
        <time>2021-03-06T14:35:11Z</time>
      </trkpt>
      <trkpt lat="44.09964" lon="3.01146">
        <ele>439</ele>
        <time>2021-03-06T14:35:12Z</time>
      </trkpt>
      <trkpt lat="44.09964" lon="3.01147">
        <ele>439</ele>
        <time>2021-03-06T14:35:13Z</time>
      </trkpt>
      <trkpt lat="44.09966" lon="3.0115">
        <ele>439.2</ele>
        <time>2021-03-06T14:35:14Z</time>
      </trkpt>
      <trkpt lat="44.09968" lon="3.01153">
        <ele>439.3</ele>
        <time>2021-03-06T14:35:15Z</time>
      </trkpt>
      <trkpt lat="44.09969" lon="3.01156">
        <ele>439.4</ele>
        <time>2021-03-06T14:35:17Z</time>
      </trkpt>
      <trkpt lat="44.0997" lon="3.01157">
        <ele>439.5</ele>
        <time>2021-03-06T14:35:18Z</time>
      </trkpt>
      <trkpt lat="44.09973" lon="3.0116">
        <ele>439.7</ele>
        <time>2021-03-06T14:35:19Z</time>
      </trkpt>
      <trkpt lat="44.09974" lon="3.01162">
        <ele>439.8</ele>
        <time>2021-03-06T14:35:21Z</time>
      </trkpt>
      <trkpt lat="44.09976" lon="3.01163">
        <ele>439.9</ele>
        <time>2021-03-06T14:35:23Z</time>
      </trkpt>
      <trkpt lat="44.09977" lon="3.01165">
        <ele>440</ele>
        <time>2021-03-06T14:35:24Z</time>
      </trkpt>
      <trkpt lat="44.09978" lon="3.01166">
        <ele>440</ele>
        <time>2021-03-06T14:35:25Z</time>
      </trkpt>
      <trkpt lat="44.0998" lon="3.01168">
        <ele>440.2</ele>
        <time>2021-03-06T14:35:28Z</time>
      </trkpt>
      <trkpt lat="44.09982" lon="3.01169">
        <ele>440.4</ele>
        <time>2021-03-06T14:35:29Z</time>
      </trkpt>
      <trkpt lat="44.09984" lon="3.0117">
        <ele>440.5</ele>
        <time>2021-03-06T14:35:30Z</time>
      </trkpt>
      <trkpt lat="44.09985" lon="3.01171">
        <ele>440.6</ele>
        <time>2021-03-06T14:35:31Z</time>
      </trkpt>
      <trkpt lat="44.09987" lon="3.01172">
        <ele>440.8</ele>
        <time>2021-03-06T14:35:33Z</time>
      </trkpt>
      <trkpt lat="44.09989" lon="3.01172">
        <ele>440.9</ele>
        <time>2021-03-06T14:35:34Z</time>
      </trkpt>
      <trkpt lat="44.0999" lon="3.01173">
        <ele>441.1</ele>
        <time>2021-03-06T14:35:35Z</time>
      </trkpt>
      <trkpt lat="44.09991" lon="3.01174">
        <ele>441.2</ele>
        <time>2021-03-06T14:35:36Z</time>
      </trkpt>
      <trkpt lat="44.09993" lon="3.01175">
        <ele>441.3</ele>
        <time>2021-03-06T14:35:37Z</time>
      </trkpt>
      <trkpt lat="44.09994" lon="3.01176">
        <ele>441.5</ele>
        <time>2021-03-06T14:35:39Z</time>
      </trkpt>
      <trkpt lat="44.09996" lon="3.01178">
        <ele>441.7</ele>
        <time>2021-03-06T14:35:41Z</time>
      </trkpt>
      <trkpt lat="44.09997" lon="3.01178">
        <ele>441.8</ele>
        <time>2021-03-06T14:35:42Z</time>
      </trkpt>
      <trkpt lat="44.09999" lon="3.01179">
        <ele>442</ele>
        <time>2021-03-06T14:35:43Z</time>
      </trkpt>
      <trkpt lat="44.10002" lon="3.01181">
        <ele>442.3</ele>
        <time>2021-03-06T14:35:45Z</time>
      </trkpt>
      <trkpt lat="44.10002" lon="3.01182">
        <ele>442.4</ele>
        <time>2021-03-06T14:35:47Z</time>
      </trkpt>
      <trkpt lat="44.10003" lon="3.01183">
        <ele>442.5</ele>
        <time>2021-03-06T14:35:48Z</time>
      </trkpt>
      <trkpt lat="44.10004" lon="3.01184">
        <ele>442.7</ele>
        <time>2021-03-06T14:35:49Z</time>
      </trkpt>
      <trkpt lat="44.10005" lon="3.01185">
        <ele>442.8</ele>
        <time>2021-03-06T14:35:50Z</time>
      </trkpt>
      <trkpt lat="44.10006" lon="3.01187">
        <ele>443</ele>
        <time>2021-03-06T14:35:51Z</time>
      </trkpt>
      <trkpt lat="44.10007" lon="3.01189">
        <ele>443.2</ele>
        <time>2021-03-06T14:35:53Z</time>
      </trkpt>
      <trkpt lat="44.10008" lon="3.01191">
        <ele>443.4</ele>
        <time>2021-03-06T14:35:54Z</time>
      </trkpt>
      <trkpt lat="44.10009" lon="3.01192">
        <ele>443.6</ele>
        <time>2021-03-06T14:35:55Z</time>
      </trkpt>
      <trkpt lat="44.1001" lon="3.01194">
        <ele>443.7</ele>
        <time>2021-03-06T14:35:56Z</time>
      </trkpt>
      <trkpt lat="44.10011" lon="3.01195">
        <ele>443.9</ele>
        <time>2021-03-06T14:35:57Z</time>
      </trkpt>
      <trkpt lat="44.10013" lon="3.01198">
        <ele>444.3</ele>
        <time>2021-03-06T14:35:59Z</time>
      </trkpt>
      <trkpt lat="44.10014" lon="3.01199">
        <ele>444.4</ele>
        <time>2021-03-06T14:36:00Z</time>
      </trkpt>
      <trkpt lat="44.10015" lon="3.012">
        <ele>444.6</ele>
        <time>2021-03-06T14:36:01Z</time>
      </trkpt>
      <trkpt lat="44.10016" lon="3.01201">
        <ele>444.8</ele>
        <time>2021-03-06T14:36:02Z</time>
      </trkpt>
      <trkpt lat="44.10017" lon="3.01203">
        <ele>445</ele>
        <time>2021-03-06T14:36:03Z</time>
      </trkpt>
      <trkpt lat="44.10019" lon="3.01204">
        <ele>445.2</ele>
        <time>2021-03-06T14:36:04Z</time>
      </trkpt>
      <trkpt lat="44.1002" lon="3.01205">
        <ele>445.4</ele>
        <time>2021-03-06T14:36:05Z</time>
      </trkpt>
      <trkpt lat="44.10022" lon="3.01207">
        <ele>445.7</ele>
        <time>2021-03-06T14:36:07Z</time>
      </trkpt>
      <trkpt lat="44.10023" lon="3.01208">
        <ele>445.9</ele>
        <time>2021-03-06T14:36:08Z</time>
      </trkpt>
      <trkpt lat="44.10024" lon="3.01209">
        <ele>446.1</ele>
        <time>2021-03-06T14:36:09Z</time>
      </trkpt>
      <trkpt lat="44.10027" lon="3.0121">
        <ele>446.5</ele>
        <time>2021-03-06T14:36:11Z</time>
      </trkpt>
      <trkpt lat="44.10029" lon="3.01212">
        <ele>446.8</ele>
        <time>2021-03-06T14:36:12Z</time>
      </trkpt>
      <trkpt lat="44.1003" lon="3.01213">
        <ele>447</ele>
        <time>2021-03-06T14:36:14Z</time>
      </trkpt>
      <trkpt lat="44.10032" lon="3.01214">
        <ele>447.3</ele>
        <time>2021-03-06T14:36:15Z</time>
      </trkpt>
      <trkpt lat="44.10033" lon="3.01215">
        <ele>447.5</ele>
        <time>2021-03-06T14:36:16Z</time>
      </trkpt>
      <trkpt lat="44.10034" lon="3.01215">
        <ele>447.5</ele>
        <time>2021-03-06T14:36:17Z</time>
      </trkpt>
      <trkpt lat="44.10035" lon="3.01216">
        <ele>447.8</ele>
        <time>2021-03-06T14:36:18Z</time>
      </trkpt>
      <trkpt lat="44.10037" lon="3.01217">
        <ele>448</ele>
        <time>2021-03-06T14:36:19Z</time>
      </trkpt>
      <trkpt lat="44.10039" lon="3.01217">
        <ele>448.4</ele>
        <time>2021-03-06T14:36:21Z</time>
      </trkpt>
      <trkpt lat="44.1004" lon="3.01218">
        <ele>448.5</ele>
        <time>2021-03-06T14:36:22Z</time>
      </trkpt>
      <trkpt lat="44.10041" lon="3.01218">
        <ele>448.6</ele>
        <time>2021-03-06T14:36:23Z</time>
      </trkpt>
      <trkpt lat="44.10043" lon="3.01219">
        <ele>449</ele>
        <time>2021-03-06T14:36:25Z</time>
      </trkpt>
      <trkpt lat="44.10044" lon="3.01219">
        <ele>449.1</ele>
        <time>2021-03-06T14:36:26Z</time>
      </trkpt>
      <trkpt lat="44.10044" lon="3.0122">
        <ele>449.2</ele>
        <time>2021-03-06T14:36:27Z</time>
      </trkpt>
      <trkpt lat="44.10045" lon="3.01221">
        <ele>449.4</ele>
        <time>2021-03-06T14:36:29Z</time>
      </trkpt>
      <trkpt lat="44.10046" lon="3.01221">
        <ele>449.5</ele>
        <time>2021-03-06T14:36:30Z</time>
      </trkpt>
      <trkpt lat="44.10047" lon="3.01223">
        <ele>449.7</ele>
        <time>2021-03-06T14:36:31Z</time>
      </trkpt>
      <trkpt lat="44.10048" lon="3.01223">
        <ele>449.9</ele>
        <time>2021-03-06T14:36:33Z</time>
      </trkpt>
      <trkpt lat="44.10051" lon="3.01225">
        <ele>450.2</ele>
        <time>2021-03-06T14:36:35Z</time>
      </trkpt>
      <trkpt lat="44.10051" lon="3.01226">
        <ele>450.4</ele>
        <time>2021-03-06T14:36:36Z</time>
      </trkpt>
      <trkpt lat="44.10052" lon="3.01227">
        <ele>450.5</ele>
        <time>2021-03-06T14:36:37Z</time>
      </trkpt>
      <trkpt lat="44.10053" lon="3.01229">
        <ele>450.7</ele>
        <time>2021-03-06T14:36:38Z</time>
      </trkpt>
      <trkpt lat="44.10053" lon="3.0123">
        <ele>450.9</ele>
        <time>2021-03-06T14:36:39Z</time>
      </trkpt>
      <trkpt lat="44.10054" lon="3.01232">
        <ele>451</ele>
        <time>2021-03-06T14:36:41Z</time>
      </trkpt>
      <trkpt lat="44.10054" lon="3.01233">
        <ele>451.1</ele>
        <time>2021-03-06T14:36:42Z</time>
      </trkpt>
      <trkpt lat="44.10055" lon="3.01234">
        <ele>451.3</ele>
        <time>2021-03-06T14:36:43Z</time>
      </trkpt>
      <trkpt lat="44.10056" lon="3.01235">
        <ele>451.4</ele>
        <time>2021-03-06T14:36:45Z</time>
      </trkpt>
      <trkpt lat="44.10057" lon="3.01236">
        <ele>451.5</ele>
        <time>2021-03-06T14:36:46Z</time>
      </trkpt>
      <trkpt lat="44.10058" lon="3.01236">
        <ele>451.7</ele>
        <time>2021-03-06T14:36:48Z</time>
      </trkpt>
      <trkpt lat="44.10059" lon="3.01236">
        <ele>451.8</ele>
        <time>2021-03-06T14:36:50Z</time>
      </trkpt>
      <trkpt lat="44.10059" lon="3.01236">
        <ele>451.9</ele>
        <time>2021-03-06T14:36:51Z</time>
      </trkpt>
      <trkpt lat="44.1006" lon="3.01237">
        <ele>452</ele>
        <time>2021-03-06T14:36:52Z</time>
      </trkpt>
      <trkpt lat="44.10061" lon="3.01238">
        <ele>452.1</ele>
        <time>2021-03-06T14:36:54Z</time>
      </trkpt>
      <trkpt lat="44.10062" lon="3.01239">
        <ele>452.3</ele>
        <time>2021-03-06T14:36:55Z</time>
      </trkpt>
      <trkpt lat="44.10063" lon="3.01241">
        <ele>452.5</ele>
        <time>2021-03-06T14:36:57Z</time>
      </trkpt>
      <trkpt lat="44.10064" lon="3.01243">
        <ele>452.7</ele>
        <time>2021-03-06T14:36:59Z</time>
      </trkpt>
      <trkpt lat="44.10066" lon="3.01247">
        <ele>453</ele>
        <time>2021-03-06T14:37:01Z</time>
      </trkpt>
      <trkpt lat="44.10069" lon="3.01251">
        <ele>453.3</ele>
        <time>2021-03-06T14:37:02Z</time>
      </trkpt>
      <trkpt lat="44.10071" lon="3.01254">
        <ele>453.7</ele>
        <time>2021-03-06T14:37:05Z</time>
      </trkpt>
      <trkpt lat="44.10072" lon="3.01256">
        <ele>453.9</ele>
        <time>2021-03-06T14:37:06Z</time>
      </trkpt>
      <trkpt lat="44.10074" lon="3.01257">
        <ele>454.1</ele>
        <time>2021-03-06T14:37:07Z</time>
      </trkpt>
      <trkpt lat="44.10075" lon="3.01258">
        <ele>454.2</ele>
        <time>2021-03-06T14:37:08Z</time>
      </trkpt>
      <trkpt lat="44.10077" lon="3.01258">
        <ele>454.5</ele>
        <time>2021-03-06T14:37:09Z</time>
      </trkpt>
      <trkpt lat="44.1008" lon="3.01259">
        <ele>454.9</ele>
        <time>2021-03-06T14:37:11Z</time>
      </trkpt>
      <trkpt lat="44.10081" lon="3.01259">
        <ele>455</ele>
        <time>2021-03-06T14:37:12Z</time>
      </trkpt>
      <trkpt lat="44.10082" lon="3.01259">
        <ele>455.2</ele>
        <time>2021-03-06T14:37:13Z</time>
      </trkpt>
      <trkpt lat="44.10084" lon="3.01259">
        <ele>455.4</ele>
        <time>2021-03-06T14:37:15Z</time>
      </trkpt>
      <trkpt lat="44.10086" lon="3.0126">
        <ele>455.7</ele>
        <time>2021-03-06T14:37:16Z</time>
      </trkpt>
      <trkpt lat="44.10087" lon="3.0126">
        <ele>455.9</ele>
        <time>2021-03-06T14:37:17Z</time>
      </trkpt>
      <trkpt lat="44.1009" lon="3.01262">
        <ele>456.2</ele>
        <time>2021-03-06T14:37:19Z</time>
      </trkpt>
      <trkpt lat="44.1009" lon="3.01263">
        <ele>456.3</ele>
        <time>2021-03-06T14:37:20Z</time>
      </trkpt>
      <trkpt lat="44.1009" lon="3.01264">
        <ele>456.4</ele>
        <time>2021-03-06T14:37:21Z</time>
      </trkpt>
      <trkpt lat="44.10091" lon="3.01266">
        <ele>456.8</ele>
        <time>2021-03-06T14:37:22Z</time>
      </trkpt>
      <trkpt lat="44.10092" lon="3.01268">
        <ele>457</ele>
        <time>2021-03-06T14:37:24Z</time>
      </trkpt>
      <trkpt lat="44.10094" lon="3.01269">
        <ele>457.3</ele>
        <time>2021-03-06T14:37:25Z</time>
      </trkpt>
      <trkpt lat="44.10095" lon="3.01271">
        <ele>457.6</ele>
        <time>2021-03-06T14:37:26Z</time>
      </trkpt>
      <trkpt lat="44.10098" lon="3.01274">
        <ele>458.2</ele>
        <time>2021-03-06T14:37:28Z</time>
      </trkpt>
      <trkpt lat="44.10099" lon="3.01275">
        <ele>458.3</ele>
        <time>2021-03-06T14:37:29Z</time>
      </trkpt>
      <trkpt lat="44.101" lon="3.01277">
        <ele>458.5</ele>
        <time>2021-03-06T14:37:30Z</time>
      </trkpt>
      <trkpt lat="44.10102" lon="3.01278">
        <ele>458.8</ele>
        <time>2021-03-06T14:37:32Z</time>
      </trkpt>
      <trkpt lat="44.10103" lon="3.01279">
        <ele>458.9</ele>
        <time>2021-03-06T14:37:33Z</time>
      </trkpt>
      <trkpt lat="44.10104" lon="3.01281">
        <ele>459.1</ele>
        <time>2021-03-06T14:37:34Z</time>
      </trkpt>
      <trkpt lat="44.10106" lon="3.01283">
        <ele>459.4</ele>
        <time>2021-03-06T14:37:36Z</time>
      </trkpt>
      <trkpt lat="44.10106" lon="3.01284">
        <ele>459.5</ele>
        <time>2021-03-06T14:37:37Z</time>
      </trkpt>
      <trkpt lat="44.10108" lon="3.01285">
        <ele>459.7</ele>
        <time>2021-03-06T14:37:38Z</time>
      </trkpt>
      <trkpt lat="44.10109" lon="3.01286">
        <ele>459.9</ele>
        <time>2021-03-06T14:37:40Z</time>
      </trkpt>
      <trkpt lat="44.10112" lon="3.01289">
        <ele>460.3</ele>
        <time>2021-03-06T14:37:42Z</time>
      </trkpt>
      <trkpt lat="44.10112" lon="3.01289">
        <ele>460.4</ele>
        <time>2021-03-06T14:37:43Z</time>
      </trkpt>
      <trkpt lat="44.10114" lon="3.0129">
        <ele>460.5</ele>
        <time>2021-03-06T14:37:44Z</time>
      </trkpt>
      <trkpt lat="44.10115" lon="3.01291">
        <ele>460.7</ele>
        <time>2021-03-06T14:37:46Z</time>
      </trkpt>
      <trkpt lat="44.10116" lon="3.01291">
        <ele>460.9</ele>
        <time>2021-03-06T14:37:47Z</time>
      </trkpt>
      <trkpt lat="44.10116" lon="3.01291">
        <ele>461</ele>
        <time>2021-03-06T14:37:48Z</time>
      </trkpt>
      <trkpt lat="44.10117" lon="3.01291">
        <ele>461</ele>
        <time>2021-03-06T14:37:49Z</time>
      </trkpt>
      <trkpt lat="44.10117" lon="3.01291">
        <ele>461.1</ele>
        <time>2021-03-06T14:37:50Z</time>
      </trkpt>
      <trkpt lat="44.10118" lon="3.01291">
        <ele>461.2</ele>
        <time>2021-03-06T14:37:52Z</time>
      </trkpt>
      <trkpt lat="44.10118" lon="3.01291">
        <ele>461.2</ele>
        <time>2021-03-06T14:37:53Z</time>
      </trkpt>
      <trkpt lat="44.10119" lon="3.01291">
        <ele>461.3</ele>
        <time>2021-03-06T14:37:54Z</time>
      </trkpt>
      <trkpt lat="44.1012" lon="3.01291">
        <ele>461.5</ele>
        <time>2021-03-06T14:37:55Z</time>
      </trkpt>
      <trkpt lat="44.10121" lon="3.01292">
        <ele>461.7</ele>
        <time>2021-03-06T14:37:57Z</time>
      </trkpt>
      <trkpt lat="44.10122" lon="3.01293">
        <ele>461.9</ele>
        <time>2021-03-06T14:37:58Z</time>
      </trkpt>
      <trkpt lat="44.10124" lon="3.01294">
        <ele>462.1</ele>
        <time>2021-03-06T14:37:59Z</time>
      </trkpt>
      <trkpt lat="44.10126" lon="3.01294">
        <ele>462.4</ele>
        <time>2021-03-06T14:38:01Z</time>
      </trkpt>
      <trkpt lat="44.10127" lon="3.01294">
        <ele>462.6</ele>
        <time>2021-03-06T14:38:02Z</time>
      </trkpt>
      <trkpt lat="44.10129" lon="3.01295">
        <ele>462.9</ele>
        <time>2021-03-06T14:38:03Z</time>
      </trkpt>
      <trkpt lat="44.1013" lon="3.01296">
        <ele>463</ele>
        <time>2021-03-06T14:38:04Z</time>
      </trkpt>
      <trkpt lat="44.1013" lon="3.01296">
        <ele>463.2</ele>
        <time>2021-03-06T14:38:05Z</time>
      </trkpt>
      <trkpt lat="44.10133" lon="3.01298">
        <ele>463.6</ele>
        <time>2021-03-06T14:38:06Z</time>
      </trkpt>
      <trkpt lat="44.10134" lon="3.01299">
        <ele>463.8</ele>
        <time>2021-03-06T14:38:08Z</time>
      </trkpt>
      <trkpt lat="44.10135" lon="3.013">
        <ele>464</ele>
        <time>2021-03-06T14:38:09Z</time>
      </trkpt>
      <trkpt lat="44.10136" lon="3.01301">
        <ele>464.2</ele>
        <time>2021-03-06T14:38:10Z</time>
      </trkpt>
      <trkpt lat="44.10137" lon="3.01302">
        <ele>464.4</ele>
        <time>2021-03-06T14:38:12Z</time>
      </trkpt>
      <trkpt lat="44.10139" lon="3.01304">
        <ele>464.6</ele>
        <time>2021-03-06T14:38:13Z</time>
      </trkpt>
      <trkpt lat="44.1014" lon="3.01305">
        <ele>464.9</ele>
        <time>2021-03-06T14:38:15Z</time>
      </trkpt>
      <trkpt lat="44.10141" lon="3.01307">
        <ele>465.2</ele>
        <time>2021-03-06T14:38:16Z</time>
      </trkpt>
      <trkpt lat="44.10142" lon="3.01308">
        <ele>465.5</ele>
        <time>2021-03-06T14:38:18Z</time>
      </trkpt>
      <trkpt lat="44.10143" lon="3.01308">
        <ele>465.6</ele>
        <time>2021-03-06T14:38:19Z</time>
      </trkpt>
      <trkpt lat="44.10144" lon="3.01309">
        <ele>465.7</ele>
        <time>2021-03-06T14:38:20Z</time>
      </trkpt>
      <trkpt lat="44.10144" lon="3.01309">
        <ele>465.9</ele>
        <time>2021-03-06T14:38:21Z</time>
      </trkpt>
      <trkpt lat="44.10145" lon="3.0131">
        <ele>466.1</ele>
        <time>2021-03-06T14:38:22Z</time>
      </trkpt>
      <trkpt lat="44.10146" lon="3.01311">
        <ele>466.2</ele>
        <time>2021-03-06T14:38:24Z</time>
      </trkpt>
      <trkpt lat="44.10148" lon="3.01312">
        <ele>466.5</ele>
        <time>2021-03-06T14:38:25Z</time>
      </trkpt>
      <trkpt lat="44.10149" lon="3.01313">
        <ele>466.7</ele>
        <time>2021-03-06T14:38:26Z</time>
      </trkpt>
      <trkpt lat="44.1015" lon="3.01315">
        <ele>467</ele>
        <time>2021-03-06T14:38:27Z</time>
      </trkpt>
      <trkpt lat="44.10151" lon="3.01316">
        <ele>467.1</ele>
        <time>2021-03-06T14:38:28Z</time>
      </trkpt>
      <trkpt lat="44.10153" lon="3.01319">
        <ele>467.7</ele>
        <time>2021-03-06T14:38:31Z</time>
      </trkpt>
      <trkpt lat="44.10154" lon="3.01321">
        <ele>468</ele>
        <time>2021-03-06T14:38:32Z</time>
      </trkpt>
      <trkpt lat="44.10155" lon="3.01323">
        <ele>468.3</ele>
        <time>2021-03-06T14:38:34Z</time>
      </trkpt>
      <trkpt lat="44.10156" lon="3.01324">
        <ele>468.4</ele>
        <time>2021-03-06T14:38:35Z</time>
      </trkpt>
      <trkpt lat="44.10156" lon="3.01324">
        <ele>468.5</ele>
        <time>2021-03-06T14:38:36Z</time>
      </trkpt>
      <trkpt lat="44.10157" lon="3.01325">
        <ele>468.6</ele>
        <time>2021-03-06T14:38:37Z</time>
      </trkpt>
      <trkpt lat="44.10157" lon="3.01325">
        <ele>468.7</ele>
        <time>2021-03-06T14:38:39Z</time>
      </trkpt>
      <trkpt lat="44.10158" lon="3.01326">
        <ele>468.8</ele>
        <time>2021-03-06T14:38:40Z</time>
      </trkpt>
      <trkpt lat="44.10158" lon="3.01326">
        <ele>468.9</ele>
        <time>2021-03-06T14:38:42Z</time>
      </trkpt>
      <trkpt lat="44.10158" lon="3.01327">
        <ele>468.9</ele>
        <time>2021-03-06T14:38:44Z</time>
      </trkpt>
      <trkpt lat="44.10158" lon="3.01327">
        <ele>469</ele>
        <time>2021-03-06T14:38:45Z</time>
      </trkpt>
      <trkpt lat="44.10158" lon="3.01327">
        <ele>469.1</ele>
        <time>2021-03-06T14:38:47Z</time>
      </trkpt>
      <trkpt lat="44.10158" lon="3.01327">
        <ele>469.1</ele>
        <time>2021-03-06T14:38:48Z</time>
      </trkpt>
      <trkpt lat="44.1016" lon="3.01328">
        <ele>469.5</ele>
        <time>2021-03-06T14:39:10Z</time>
      </trkpt>
      <trkpt lat="44.10161" lon="3.01329">
        <ele>469.8</ele>
        <time>2021-03-06T14:39:12Z</time>
      </trkpt>
      <trkpt lat="44.10163" lon="3.0133">
        <ele>470.1</ele>
        <time>2021-03-06T14:39:13Z</time>
      </trkpt>
      <trkpt lat="44.10164" lon="3.0133">
        <ele>470.3</ele>
        <time>2021-03-06T14:39:14Z</time>
      </trkpt>
      <trkpt lat="44.10166" lon="3.0133">
        <ele>470.6</ele>
        <time>2021-03-06T14:39:15Z</time>
      </trkpt>
      <trkpt lat="44.10167" lon="3.01331">
        <ele>470.9</ele>
        <time>2021-03-06T14:39:17Z</time>
      </trkpt>
      <trkpt lat="44.10168" lon="3.01331">
        <ele>471</ele>
        <time>2021-03-06T14:39:18Z</time>
      </trkpt>
      <trkpt lat="44.10168" lon="3.01331">
        <ele>471.1</ele>
        <time>2021-03-06T14:39:19Z</time>
      </trkpt>
      <trkpt lat="44.10168" lon="3.01331">
        <ele>471.2</ele>
        <time>2021-03-06T14:39:20Z</time>
      </trkpt>
      <trkpt lat="44.10169" lon="3.01331">
        <ele>471.2</ele>
        <time>2021-03-06T14:39:22Z</time>
      </trkpt>
      <trkpt lat="44.10169" lon="3.01331">
        <ele>471.3</ele>
        <time>2021-03-06T14:39:23Z</time>
      </trkpt>
      <trkpt lat="44.10169" lon="3.01331">
        <ele>471.4</ele>
        <time>2021-03-06T14:39:24Z</time>
      </trkpt>
      <trkpt lat="44.1017" lon="3.0133">
        <ele>471.4</ele>
        <time>2021-03-06T14:39:25Z</time>
      </trkpt>
      <trkpt lat="44.1017" lon="3.0133">
        <ele>471.5</ele>
        <time>2021-03-06T14:39:26Z</time>
      </trkpt>
      <trkpt lat="44.10171" lon="3.0133">
        <ele>471.8</ele>
        <time>2021-03-06T14:39:28Z</time>
      </trkpt>
      <trkpt lat="44.10173" lon="3.01329">
        <ele>472.2</ele>
        <time>2021-03-06T14:39:29Z</time>
      </trkpt>
      <trkpt lat="44.10174" lon="3.01329">
        <ele>472.4</ele>
        <time>2021-03-06T14:39:31Z</time>
      </trkpt>
      <trkpt lat="44.10175" lon="3.01328">
        <ele>472.6</ele>
        <time>2021-03-06T14:39:32Z</time>
      </trkpt>
      <trkpt lat="44.10176" lon="3.01328">
        <ele>472.8</ele>
        <time>2021-03-06T14:39:34Z</time>
      </trkpt>
      <trkpt lat="44.10177" lon="3.01327">
        <ele>473</ele>
        <time>2021-03-06T14:39:35Z</time>
      </trkpt>
      <trkpt lat="44.10181" lon="3.01328">
        <ele>473.8</ele>
        <time>2021-03-06T14:39:38Z</time>
      </trkpt>
      <trkpt lat="44.10182" lon="3.01328">
        <ele>474</ele>
        <time>2021-03-06T14:39:39Z</time>
      </trkpt>
      <trkpt lat="44.10183" lon="3.01328">
        <ele>474.3</ele>
        <time>2021-03-06T14:39:41Z</time>
      </trkpt>
      <trkpt lat="44.10183" lon="3.01328">
        <ele>474.4</ele>
        <time>2021-03-06T14:39:42Z</time>
      </trkpt>
      <trkpt lat="44.10184" lon="3.01329">
        <ele>474.6</ele>
        <time>2021-03-06T14:39:44Z</time>
      </trkpt>
      <trkpt lat="44.10184" lon="3.0133">
        <ele>474.7</ele>
        <time>2021-03-06T14:39:46Z</time>
      </trkpt>
      <trkpt lat="44.10184" lon="3.01331">
        <ele>474.9</ele>
        <time>2021-03-06T14:39:48Z</time>
      </trkpt>
      <trkpt lat="44.10185" lon="3.01332">
        <ele>474.9</ele>
        <time>2021-03-06T14:39:49Z</time>
      </trkpt>
      <trkpt lat="44.10186" lon="3.01333">
        <ele>475.4</ele>
        <time>2021-03-06T14:40:00Z</time>
      </trkpt>
      <trkpt lat="44.10187" lon="3.01334">
        <ele>475.6</ele>
        <time>2021-03-06T14:40:01Z</time>
      </trkpt>
      <trkpt lat="44.10188" lon="3.01333">
        <ele>475.7</ele>
        <time>2021-03-06T14:40:02Z</time>
      </trkpt>
      <trkpt lat="44.10188" lon="3.01333">
        <ele>475.7</ele>
        <time>2021-03-06T14:40:04Z</time>
      </trkpt>
      <trkpt lat="44.10189" lon="3.01334">
        <ele>475.9</ele>
        <time>2021-03-06T14:40:05Z</time>
      </trkpt>
      <trkpt lat="44.1019" lon="3.01334">
        <ele>476.1</ele>
        <time>2021-03-06T14:40:07Z</time>
      </trkpt>
      <trkpt lat="44.1019" lon="3.01334">
        <ele>476.2</ele>
        <time>2021-03-06T14:40:08Z</time>
      </trkpt>
      <trkpt lat="44.10192" lon="3.01335">
        <ele>476.5</ele>
        <time>2021-03-06T14:40:10Z</time>
      </trkpt>
      <trkpt lat="44.10193" lon="3.01335">
        <ele>476.7</ele>
        <time>2021-03-06T14:40:11Z</time>
      </trkpt>
      <trkpt lat="44.10194" lon="3.01336">
        <ele>477</ele>
        <time>2021-03-06T14:40:12Z</time>
      </trkpt>
      <trkpt lat="44.10196" lon="3.01336">
        <ele>477.3</ele>
        <time>2021-03-06T14:40:13Z</time>
      </trkpt>
      <trkpt lat="44.10199" lon="3.01338">
        <ele>478</ele>
        <time>2021-03-06T14:40:15Z</time>
      </trkpt>
      <trkpt lat="44.10199" lon="3.01339">
        <ele>478.1</ele>
        <time>2021-03-06T14:40:16Z</time>
      </trkpt>
      <trkpt lat="44.10201" lon="3.0134">
        <ele>478.4</ele>
        <time>2021-03-06T14:40:17Z</time>
      </trkpt>
      <trkpt lat="44.10201" lon="3.01341">
        <ele>478.6</ele>
        <time>2021-03-06T14:40:19Z</time>
      </trkpt>
      <trkpt lat="44.10202" lon="3.01341">
        <ele>478.8</ele>
        <time>2021-03-06T14:40:20Z</time>
      </trkpt>
      <trkpt lat="44.10204" lon="3.01342">
        <ele>479.1</ele>
        <time>2021-03-06T14:40:21Z</time>
      </trkpt>
      <trkpt lat="44.10205" lon="3.01343">
        <ele>479.3</ele>
        <time>2021-03-06T14:40:23Z</time>
      </trkpt>
      <trkpt lat="44.10206" lon="3.01343">
        <ele>479.5</ele>
        <time>2021-03-06T14:40:24Z</time>
      </trkpt>
      <trkpt lat="44.10208" lon="3.01343">
        <ele>479.8</ele>
        <time>2021-03-06T14:40:25Z</time>
      </trkpt>
      <trkpt lat="44.10211" lon="3.01344">
        <ele>480.4</ele>
        <time>2021-03-06T14:40:27Z</time>
      </trkpt>
      <trkpt lat="44.10213" lon="3.01345">
        <ele>480.9</ele>
        <time>2021-03-06T14:40:29Z</time>
      </trkpt>
      <trkpt lat="44.10216" lon="3.01345">
        <ele>481.3</ele>
        <time>2021-03-06T14:40:31Z</time>
      </trkpt>
      <trkpt lat="44.10217" lon="3.01346">
        <ele>481.6</ele>
        <time>2021-03-06T14:40:32Z</time>
      </trkpt>
      <trkpt lat="44.10218" lon="3.01346">
        <ele>481.9</ele>
        <time>2021-03-06T14:40:33Z</time>
      </trkpt>
      <trkpt lat="44.10221" lon="3.01347">
        <ele>482.3</ele>
        <time>2021-03-06T14:40:34Z</time>
      </trkpt>
      <trkpt lat="44.10222" lon="3.01348">
        <ele>482.6</ele>
        <time>2021-03-06T14:40:36Z</time>
      </trkpt>
      <trkpt lat="44.10223" lon="3.01348">
        <ele>482.8</ele>
        <time>2021-03-06T14:40:37Z</time>
      </trkpt>
      <trkpt lat="44.10224" lon="3.01349">
        <ele>483</ele>
        <time>2021-03-06T14:40:38Z</time>
      </trkpt>
      <trkpt lat="44.10225" lon="3.01349">
        <ele>483.2</ele>
        <time>2021-03-06T14:40:39Z</time>
      </trkpt>
      <trkpt lat="44.10225" lon="3.01349">
        <ele>483.3</ele>
        <time>2021-03-06T14:40:41Z</time>
      </trkpt>
      <trkpt lat="44.10226" lon="3.01349">
        <ele>483.4</ele>
        <time>2021-03-06T14:40:43Z</time>
      </trkpt>
      <trkpt lat="44.10227" lon="3.01349">
        <ele>483.5</ele>
        <time>2021-03-06T14:40:44Z</time>
      </trkpt>
      <trkpt lat="44.10228" lon="3.01349">
        <ele>483.8</ele>
        <time>2021-03-06T14:40:46Z</time>
      </trkpt>
      <trkpt lat="44.1023" lon="3.01349">
        <ele>484.1</ele>
        <time>2021-03-06T14:40:48Z</time>
      </trkpt>
      <trkpt lat="44.10231" lon="3.0135">
        <ele>484.4</ele>
        <time>2021-03-06T14:40:49Z</time>
      </trkpt>
      <trkpt lat="44.10233" lon="3.01351">
        <ele>484.8</ele>
        <time>2021-03-06T14:40:51Z</time>
      </trkpt>
      <trkpt lat="44.10234" lon="3.01352">
        <ele>485.1</ele>
        <time>2021-03-06T14:40:52Z</time>
      </trkpt>
      <trkpt lat="44.10235" lon="3.01352">
        <ele>485.3</ele>
        <time>2021-03-06T14:40:53Z</time>
      </trkpt>
      <trkpt lat="44.10237" lon="3.01353">
        <ele>485.6</ele>
        <time>2021-03-06T14:40:54Z</time>
      </trkpt>
      <trkpt lat="44.10239" lon="3.01354">
        <ele>486</ele>
        <time>2021-03-06T14:40:56Z</time>
      </trkpt>
      <trkpt lat="44.1024" lon="3.01355">
        <ele>486.2</ele>
        <time>2021-03-06T14:40:57Z</time>
      </trkpt>
      <trkpt lat="44.10241" lon="3.01357">
        <ele>486.6</ele>
        <time>2021-03-06T14:40:58Z</time>
      </trkpt>
      <trkpt lat="44.10242" lon="3.01359">
        <ele>486.8</ele>
        <time>2021-03-06T14:41:00Z</time>
      </trkpt>
      <trkpt lat="44.10244" lon="3.0136">
        <ele>487</ele>
        <time>2021-03-06T14:41:01Z</time>
      </trkpt>
      <trkpt lat="44.10245" lon="3.01361">
        <ele>487.2</ele>
        <time>2021-03-06T14:41:02Z</time>
      </trkpt>
      <trkpt lat="44.10246" lon="3.01362">
        <ele>487.4</ele>
        <time>2021-03-06T14:41:03Z</time>
      </trkpt>
      <trkpt lat="44.10247" lon="3.01363">
        <ele>487.6</ele>
        <time>2021-03-06T14:41:05Z</time>
      </trkpt>
      <trkpt lat="44.10249" lon="3.01364">
        <ele>487.9</ele>
        <time>2021-03-06T14:41:07Z</time>
      </trkpt>
      <trkpt lat="44.1025" lon="3.01364">
        <ele>488</ele>
        <time>2021-03-06T14:41:08Z</time>
      </trkpt>
      <trkpt lat="44.10251" lon="3.01364">
        <ele>488.2</ele>
        <time>2021-03-06T14:41:10Z</time>
      </trkpt>
      <trkpt lat="44.10252" lon="3.01364">
        <ele>488.3</ele>
        <time>2021-03-06T14:41:11Z</time>
      </trkpt>
      <trkpt lat="44.10253" lon="3.01365">
        <ele>488.5</ele>
        <time>2021-03-06T14:41:12Z</time>
      </trkpt>
      <trkpt lat="44.10254" lon="3.01365">
        <ele>488.6</ele>
        <time>2021-03-06T14:41:14Z</time>
      </trkpt>
      <trkpt lat="44.10256" lon="3.01366">
        <ele>488.8</ele>
        <time>2021-03-06T14:41:15Z</time>
      </trkpt>
      <trkpt lat="44.10259" lon="3.01367">
        <ele>489.2</ele>
        <time>2021-03-06T14:41:16Z</time>
      </trkpt>
      <trkpt lat="44.1026" lon="3.01368">
        <ele>489.4</ele>
        <time>2021-03-06T14:41:18Z</time>
      </trkpt>
      <trkpt lat="44.10262" lon="3.01368">
        <ele>489.6</ele>
        <time>2021-03-06T14:41:19Z</time>
      </trkpt>
      <trkpt lat="44.10263" lon="3.01369">
        <ele>489.7</ele>
        <time>2021-03-06T14:41:20Z</time>
      </trkpt>
      <trkpt lat="44.10266" lon="3.01371">
        <ele>490.2</ele>
        <time>2021-03-06T14:41:22Z</time>
      </trkpt>
      <trkpt lat="44.10267" lon="3.01372">
        <ele>490.3</ele>
        <time>2021-03-06T14:41:23Z</time>
      </trkpt>
      <trkpt lat="44.10269" lon="3.01373">
        <ele>490.5</ele>
        <time>2021-03-06T14:41:25Z</time>
      </trkpt>
      <trkpt lat="44.1027" lon="3.01374">
        <ele>490.7</ele>
        <time>2021-03-06T14:41:26Z</time>
      </trkpt>
      <trkpt lat="44.10271" lon="3.01375">
        <ele>490.9</ele>
        <time>2021-03-06T14:41:27Z</time>
      </trkpt>
      <trkpt lat="44.10272" lon="3.01376">
        <ele>491.1</ele>
        <time>2021-03-06T14:41:29Z</time>
      </trkpt>
      <trkpt lat="44.10273" lon="3.01378">
        <ele>491.3</ele>
        <time>2021-03-06T14:41:30Z</time>
      </trkpt>
      <trkpt lat="44.10274" lon="3.01378">
        <ele>491.4</ele>
        <time>2021-03-06T14:41:31Z</time>
      </trkpt>
      <trkpt lat="44.10275" lon="3.0138">
        <ele>491.6</ele>
        <time>2021-03-06T14:41:33Z</time>
      </trkpt>
      <trkpt lat="44.10277" lon="3.01382">
        <ele>491.9</ele>
        <time>2021-03-06T14:41:34Z</time>
      </trkpt>
      <trkpt lat="44.10278" lon="3.01383">
        <ele>492</ele>
        <time>2021-03-06T14:41:35Z</time>
      </trkpt>
      <trkpt lat="44.10278" lon="3.01383">
        <ele>492.1</ele>
        <time>2021-03-06T14:41:36Z</time>
      </trkpt>
      <trkpt lat="44.10279" lon="3.01384">
        <ele>492.2</ele>
        <time>2021-03-06T14:41:38Z</time>
      </trkpt>
      <trkpt lat="44.1028" lon="3.01385">
        <ele>492.4</ele>
        <time>2021-03-06T14:41:39Z</time>
      </trkpt>
      <trkpt lat="44.10281" lon="3.01386">
        <ele>492.5</ele>
        <time>2021-03-06T14:41:40Z</time>
      </trkpt>
      <trkpt lat="44.10282" lon="3.01387">
        <ele>492.7</ele>
        <time>2021-03-06T14:41:42Z</time>
      </trkpt>
      <trkpt lat="44.10283" lon="3.01388">
        <ele>492.8</ele>
        <time>2021-03-06T14:41:43Z</time>
      </trkpt>
      <trkpt lat="44.10283" lon="3.01389">
        <ele>493</ele>
        <time>2021-03-06T14:41:45Z</time>
      </trkpt>
      <trkpt lat="44.10284" lon="3.0139">
        <ele>493.1</ele>
        <time>2021-03-06T14:41:46Z</time>
      </trkpt>
      <trkpt lat="44.10285" lon="3.01391">
        <ele>493.2</ele>
        <time>2021-03-06T14:41:47Z</time>
      </trkpt>
      <trkpt lat="44.10286" lon="3.01392">
        <ele>493.3</ele>
        <time>2021-03-06T14:41:48Z</time>
      </trkpt>
      <trkpt lat="44.10288" lon="3.01395">
        <ele>493.7</ele>
        <time>2021-03-06T14:41:50Z</time>
      </trkpt>
      <trkpt lat="44.10289" lon="3.01395">
        <ele>493.8</ele>
        <time>2021-03-06T14:41:51Z</time>
      </trkpt>
      <trkpt lat="44.10292" lon="3.01397">
        <ele>494.2</ele>
        <time>2021-03-06T14:41:53Z</time>
      </trkpt>
      <trkpt lat="44.10294" lon="3.01397">
        <ele>494.4</ele>
        <time>2021-03-06T14:41:54Z</time>
      </trkpt>
      <trkpt lat="44.10295" lon="3.01397">
        <ele>494.5</ele>
        <time>2021-03-06T14:41:56Z</time>
      </trkpt>
      <trkpt lat="44.10297" lon="3.01397">
        <ele>494.7</ele>
        <time>2021-03-06T14:41:57Z</time>
      </trkpt>
      <trkpt lat="44.10299" lon="3.01398">
        <ele>494.9</ele>
        <time>2021-03-06T14:41:58Z</time>
      </trkpt>
      <trkpt lat="44.10301" lon="3.01399">
        <ele>495.1</ele>
        <time>2021-03-06T14:41:59Z</time>
      </trkpt>
      <trkpt lat="44.10302" lon="3.01399">
        <ele>495.2</ele>
        <time>2021-03-06T14:42:01Z</time>
      </trkpt>
      <trkpt lat="44.10303" lon="3.014">
        <ele>495.4</ele>
        <time>2021-03-06T14:42:02Z</time>
      </trkpt>
      <trkpt lat="44.10305" lon="3.014">
        <ele>495.6</ele>
        <time>2021-03-06T14:42:03Z</time>
      </trkpt>
      <trkpt lat="44.10307" lon="3.01401">
        <ele>495.7</ele>
        <time>2021-03-06T14:42:05Z</time>
      </trkpt>
      <trkpt lat="44.10308" lon="3.01401">
        <ele>495.9</ele>
        <time>2021-03-06T14:42:06Z</time>
      </trkpt>
      <trkpt lat="44.1031" lon="3.01402">
        <ele>496.1</ele>
        <time>2021-03-06T14:42:07Z</time>
      </trkpt>
      <trkpt lat="44.10312" lon="3.01403">
        <ele>496.4</ele>
        <time>2021-03-06T14:42:08Z</time>
      </trkpt>
      <trkpt lat="44.10313" lon="3.01403">
        <ele>496.6</ele>
        <time>2021-03-06T14:42:10Z</time>
      </trkpt>
      <trkpt lat="44.10317" lon="3.01404">
        <ele>497</ele>
        <time>2021-03-06T14:42:11Z</time>
      </trkpt>
      <trkpt lat="44.10318" lon="3.01404">
        <ele>497.1</ele>
        <time>2021-03-06T14:42:12Z</time>
      </trkpt>
      <trkpt lat="44.1032" lon="3.01404">
        <ele>497.3</ele>
        <time>2021-03-06T14:42:14Z</time>
      </trkpt>
      <trkpt lat="44.10321" lon="3.01404">
        <ele>497.5</ele>
        <time>2021-03-06T14:42:15Z</time>
      </trkpt>
      <trkpt lat="44.10323" lon="3.01404">
        <ele>497.7</ele>
        <time>2021-03-06T14:42:17Z</time>
      </trkpt>
      <trkpt lat="44.10325" lon="3.01405">
        <ele>497.9</ele>
        <time>2021-03-06T14:42:18Z</time>
      </trkpt>
      <trkpt lat="44.10326" lon="3.01405">
        <ele>498.2</ele>
        <time>2021-03-06T14:42:19Z</time>
      </trkpt>
      <trkpt lat="44.10327" lon="3.01405">
        <ele>498.3</ele>
        <time>2021-03-06T14:42:20Z</time>
      </trkpt>
      <trkpt lat="44.1033" lon="3.01406">
        <ele>498.6</ele>
        <time>2021-03-06T14:42:21Z</time>
      </trkpt>
      <trkpt lat="44.10331" lon="3.01406">
        <ele>498.7</ele>
        <time>2021-03-06T14:42:23Z</time>
      </trkpt>
      <trkpt lat="44.10332" lon="3.01406">
        <ele>498.8</ele>
        <time>2021-03-06T14:42:24Z</time>
      </trkpt>
      <trkpt lat="44.10333" lon="3.01406">
        <ele>499</ele>
        <time>2021-03-06T14:42:25Z</time>
      </trkpt>
      <trkpt lat="44.10333" lon="3.01407">
        <ele>499.1</ele>
        <time>2021-03-06T14:42:26Z</time>
      </trkpt>
      <trkpt lat="44.10334" lon="3.01408">
        <ele>499.2</ele>
        <time>2021-03-06T14:42:28Z</time>
      </trkpt>
      <trkpt lat="44.10336" lon="3.01408">
        <ele>499.4</ele>
        <time>2021-03-06T14:42:29Z</time>
      </trkpt>
      <trkpt lat="44.10337" lon="3.01408">
        <ele>499.5</ele>
        <time>2021-03-06T14:42:30Z</time>
      </trkpt>
      <trkpt lat="44.10337" lon="3.01408">
        <ele>499.6</ele>
        <time>2021-03-06T14:42:32Z</time>
      </trkpt>
      <trkpt lat="44.10337" lon="3.01408">
        <ele>499.6</ele>
        <time>2021-03-06T14:42:33Z</time>
      </trkpt>
      <trkpt lat="44.10338" lon="3.01409">
        <ele>499.7</ele>
        <time>2021-03-06T14:42:34Z</time>
      </trkpt>
      <trkpt lat="44.10339" lon="3.01409">
        <ele>499.9</ele>
        <time>2021-03-06T14:42:36Z</time>
      </trkpt>
      <trkpt lat="44.1034" lon="3.01409">
        <ele>500</ele>
        <time>2021-03-06T14:42:37Z</time>
      </trkpt>
      <trkpt lat="44.10342" lon="3.01409">
        <ele>500.2</ele>
        <time>2021-03-06T14:42:38Z</time>
      </trkpt>
      <trkpt lat="44.10343" lon="3.01409">
        <ele>500.3</ele>
        <time>2021-03-06T14:42:39Z</time>
      </trkpt>
      <trkpt lat="44.10343" lon="3.01409">
        <ele>500.4</ele>
        <time>2021-03-06T14:42:41Z</time>
      </trkpt>
      <trkpt lat="44.10344" lon="3.01409">
        <ele>500.5</ele>
        <time>2021-03-06T14:42:42Z</time>
      </trkpt>
      <trkpt lat="44.10345" lon="3.01409">
        <ele>500.6</ele>
        <time>2021-03-06T14:42:43Z</time>
      </trkpt>
      <trkpt lat="44.10346" lon="3.01409">
        <ele>500.8</ele>
        <time>2021-03-06T14:42:45Z</time>
      </trkpt>
      <trkpt lat="44.10348" lon="3.0141">
        <ele>500.9</ele>
        <time>2021-03-06T14:42:46Z</time>
      </trkpt>
      <trkpt lat="44.10349" lon="3.01411">
        <ele>501.1</ele>
        <time>2021-03-06T14:42:47Z</time>
      </trkpt>
      <trkpt lat="44.10349" lon="3.01411">
        <ele>501.1</ele>
        <time>2021-03-06T14:42:49Z</time>
      </trkpt>
      <trkpt lat="44.1035" lon="3.01411">
        <ele>501.2</ele>
        <time>2021-03-06T14:42:50Z</time>
      </trkpt>
      <trkpt lat="44.1035" lon="3.01412">
        <ele>501.2</ele>
        <time>2021-03-06T14:42:51Z</time>
      </trkpt>
      <trkpt lat="44.10351" lon="3.01412">
        <ele>501.3</ele>
        <time>2021-03-06T14:42:53Z</time>
      </trkpt>
      <trkpt lat="44.10351" lon="3.01412">
        <ele>501.3</ele>
        <time>2021-03-06T14:42:54Z</time>
      </trkpt>
      <trkpt lat="44.10351" lon="3.01412">
        <ele>501.4</ele>
        <time>2021-03-06T14:42:56Z</time>
      </trkpt>
      <trkpt lat="44.10352" lon="3.01412">
        <ele>501.4</ele>
        <time>2021-03-06T14:42:57Z</time>
      </trkpt>
      <trkpt lat="44.10356" lon="3.01413">
        <ele>501.9</ele>
        <time>2021-03-06T14:43:34Z</time>
      </trkpt>
      <trkpt lat="44.10358" lon="3.01414">
        <ele>502</ele>
        <time>2021-03-06T14:43:35Z</time>
      </trkpt>
      <trkpt lat="44.1036" lon="3.01415">
        <ele>502.2</ele>
        <time>2021-03-06T14:43:37Z</time>
      </trkpt>
      <trkpt lat="44.10363" lon="3.01415">
        <ele>502.4</ele>
        <time>2021-03-06T14:43:38Z</time>
      </trkpt>
      <trkpt lat="44.10364" lon="3.01416">
        <ele>502.4</ele>
        <time>2021-03-06T14:43:40Z</time>
      </trkpt>
      <trkpt lat="44.10365" lon="3.01416">
        <ele>502.5</ele>
        <time>2021-03-06T14:43:41Z</time>
      </trkpt>
      <trkpt lat="44.10366" lon="3.01416">
        <ele>502.6</ele>
        <time>2021-03-06T14:43:42Z</time>
      </trkpt>
      <trkpt lat="44.10367" lon="3.01416">
        <ele>502.6</ele>
        <time>2021-03-06T14:43:43Z</time>
      </trkpt>
      <trkpt lat="44.10371" lon="3.01415">
        <ele>502.8</ele>
        <time>2021-03-06T14:43:45Z</time>
      </trkpt>
      <trkpt lat="44.10372" lon="3.01415">
        <ele>502.9</ele>
        <time>2021-03-06T14:43:46Z</time>
      </trkpt>
      <trkpt lat="44.10375" lon="3.01413">
        <ele>503.1</ele>
        <time>2021-03-06T14:43:49Z</time>
      </trkpt>
      <trkpt lat="44.10378" lon="3.01412">
        <ele>503.3</ele>
        <time>2021-03-06T14:43:50Z</time>
      </trkpt>
      <trkpt lat="44.1038" lon="3.01412">
        <ele>503.5</ele>
        <time>2021-03-06T14:43:51Z</time>
      </trkpt>
      <trkpt lat="44.10382" lon="3.01412">
        <ele>503.6</ele>
        <time>2021-03-06T14:43:53Z</time>
      </trkpt>
      <trkpt lat="44.10383" lon="3.01412">
        <ele>503.8</ele>
        <time>2021-03-06T14:43:54Z</time>
      </trkpt>
      <trkpt lat="44.10385" lon="3.01413">
        <ele>504</ele>
        <time>2021-03-06T14:43:55Z</time>
      </trkpt>
      <trkpt lat="44.10388" lon="3.01414">
        <ele>504.2</ele>
        <time>2021-03-06T14:43:56Z</time>
      </trkpt>
      <trkpt lat="44.1039" lon="3.01415">
        <ele>504.5</ele>
        <time>2021-03-06T14:43:58Z</time>
      </trkpt>
      <trkpt lat="44.10393" lon="3.01416">
        <ele>504.9</ele>
        <time>2021-03-06T14:43:59Z</time>
      </trkpt>
      <trkpt lat="44.10395" lon="3.01417">
        <ele>505.1</ele>
        <time>2021-03-06T14:44:00Z</time>
      </trkpt>
      <trkpt lat="44.10398" lon="3.01418">
        <ele>505.4</ele>
        <time>2021-03-06T14:44:02Z</time>
      </trkpt>
      <trkpt lat="44.10401" lon="3.01418">
        <ele>505.8</ele>
        <time>2021-03-06T14:44:04Z</time>
      </trkpt>
      <trkpt lat="44.10404" lon="3.0142">
        <ele>506.1</ele>
        <time>2021-03-06T14:44:05Z</time>
      </trkpt>
      <trkpt lat="44.10408" lon="3.01421">
        <ele>506.5</ele>
        <time>2021-03-06T14:44:06Z</time>
      </trkpt>
      <trkpt lat="44.10414" lon="3.01423">
        <ele>506.9</ele>
        <time>2021-03-06T14:44:08Z</time>
      </trkpt>
      <trkpt lat="44.10418" lon="3.01424">
        <ele>507</ele>
        <time>2021-03-06T14:44:09Z</time>
      </trkpt>
      <trkpt lat="44.10422" lon="3.01424">
        <ele>507.1</ele>
        <time>2021-03-06T14:44:10Z</time>
      </trkpt>
      <trkpt lat="44.10424" lon="3.01424">
        <ele>507.1</ele>
        <time>2021-03-06T14:44:11Z</time>
      </trkpt>
      <trkpt lat="44.10429" lon="3.01424">
        <ele>507.1</ele>
        <time>2021-03-06T14:44:13Z</time>
      </trkpt>
      <trkpt lat="44.10431" lon="3.01424">
        <ele>507.1</ele>
        <time>2021-03-06T14:44:14Z</time>
      </trkpt>
      <trkpt lat="44.10435" lon="3.01424">
        <ele>507.2</ele>
        <time>2021-03-06T14:44:15Z</time>
      </trkpt>
      <trkpt lat="44.10436" lon="3.01425">
        <ele>507.2</ele>
        <time>2021-03-06T14:44:16Z</time>
      </trkpt>
      <trkpt lat="44.10437" lon="3.01426">
        <ele>507.3</ele>
        <time>2021-03-06T14:44:17Z</time>
      </trkpt>
      <trkpt lat="44.10438" lon="3.01428">
        <ele>507.4</ele>
        <time>2021-03-06T14:44:18Z</time>
      </trkpt>
      <trkpt lat="44.10438" lon="3.01431">
        <ele>507.8</ele>
        <time>2021-03-06T14:44:19Z</time>
      </trkpt>
      <trkpt lat="44.10438" lon="3.01433">
        <ele>508</ele>
        <time>2021-03-06T14:44:21Z</time>
      </trkpt>
      <trkpt lat="44.10438" lon="3.01435">
        <ele>508.2</ele>
        <time>2021-03-06T14:44:22Z</time>
      </trkpt>
      <trkpt lat="44.10438" lon="3.01436">
        <ele>508.4</ele>
        <time>2021-03-06T14:44:23Z</time>
      </trkpt>
      <trkpt lat="44.10439" lon="3.01438">
        <ele>508.6</ele>
        <time>2021-03-06T14:44:24Z</time>
      </trkpt>
      <trkpt lat="44.10439" lon="3.0144">
        <ele>508.9</ele>
        <time>2021-03-06T14:44:25Z</time>
      </trkpt>
      <trkpt lat="44.10441" lon="3.01442">
        <ele>509.2</ele>
        <time>2021-03-06T14:44:27Z</time>
      </trkpt>
      <trkpt lat="44.10441" lon="3.01442">
        <ele>509.4</ele>
        <time>2021-03-06T14:44:28Z</time>
      </trkpt>
      <trkpt lat="44.10443" lon="3.01443">
        <ele>509.7</ele>
        <time>2021-03-06T14:44:30Z</time>
      </trkpt>
      <trkpt lat="44.10443" lon="3.01444">
        <ele>509.7</ele>
        <time>2021-03-06T14:44:31Z</time>
      </trkpt>
      <trkpt lat="44.10443" lon="3.01444">
        <ele>509.8</ele>
        <time>2021-03-06T14:44:32Z</time>
      </trkpt>
      <trkpt lat="44.10444" lon="3.01444">
        <ele>509.9</ele>
        <time>2021-03-06T14:44:34Z</time>
      </trkpt>
      <trkpt lat="44.10444" lon="3.01445">
        <ele>509.9</ele>
        <time>2021-03-06T14:44:35Z</time>
      </trkpt>
      <trkpt lat="44.10445" lon="3.01452">
        <ele>510.8</ele>
        <time>2021-03-06T14:44:58Z</time>
      </trkpt>
      <trkpt lat="44.10445" lon="3.01454">
        <ele>511</ele>
        <time>2021-03-06T14:44:59Z</time>
      </trkpt>
      <trkpt lat="44.10445" lon="3.01456">
        <ele>511.3</ele>
        <time>2021-03-06T14:45:00Z</time>
      </trkpt>
      <trkpt lat="44.10445" lon="3.01458">
        <ele>511.5</ele>
        <time>2021-03-06T14:45:02Z</time>
      </trkpt>
      <trkpt lat="44.10444" lon="3.01461">
        <ele>511.8</ele>
        <time>2021-03-06T14:45:04Z</time>
      </trkpt>
      <trkpt lat="44.10443" lon="3.01463">
        <ele>512.1</ele>
        <time>2021-03-06T14:45:05Z</time>
      </trkpt>
      <trkpt lat="44.10443" lon="3.01464">
        <ele>512.3</ele>
        <time>2021-03-06T14:45:06Z</time>
      </trkpt>
      <trkpt lat="44.10442" lon="3.01466">
        <ele>512.5</ele>
        <time>2021-03-06T14:45:07Z</time>
      </trkpt>
      <trkpt lat="44.10441" lon="3.01468">
        <ele>512.8</ele>
        <time>2021-03-06T14:45:09Z</time>
      </trkpt>
      <trkpt lat="44.1044" lon="3.01469">
        <ele>512.9</ele>
        <time>2021-03-06T14:45:10Z</time>
      </trkpt>
      <trkpt lat="44.1044" lon="3.0147">
        <ele>513.1</ele>
        <time>2021-03-06T14:45:11Z</time>
      </trkpt>
      <trkpt lat="44.10439" lon="3.01473">
        <ele>513.4</ele>
        <time>2021-03-06T14:45:13Z</time>
      </trkpt>
      <trkpt lat="44.10438" lon="3.01474">
        <ele>513.6</ele>
        <time>2021-03-06T14:45:14Z</time>
      </trkpt>
      <trkpt lat="44.10438" lon="3.01475">
        <ele>513.7</ele>
        <time>2021-03-06T14:45:15Z</time>
      </trkpt>
      <trkpt lat="44.10437" lon="3.01478">
        <ele>514</ele>
        <time>2021-03-06T14:45:17Z</time>
      </trkpt>
      <trkpt lat="44.10436" lon="3.01478">
        <ele>514.1</ele>
        <time>2021-03-06T14:45:18Z</time>
      </trkpt>
      <trkpt lat="44.10436" lon="3.0148">
        <ele>514.3</ele>
        <time>2021-03-06T14:45:19Z</time>
      </trkpt>
      <trkpt lat="44.10435" lon="3.01482">
        <ele>514.5</ele>
        <time>2021-03-06T14:45:21Z</time>
      </trkpt>
      <trkpt lat="44.10433" lon="3.01485">
        <ele>514.9</ele>
        <time>2021-03-06T14:45:23Z</time>
      </trkpt>
      <trkpt lat="44.10432" lon="3.01486">
        <ele>515</ele>
        <time>2021-03-06T14:45:24Z</time>
      </trkpt>
      <trkpt lat="44.10431" lon="3.01488">
        <ele>515.2</ele>
        <time>2021-03-06T14:45:26Z</time>
      </trkpt>
      <trkpt lat="44.1043" lon="3.01489">
        <ele>515.4</ele>
        <time>2021-03-06T14:45:27Z</time>
      </trkpt>
      <trkpt lat="44.10429" lon="3.0149">
        <ele>515.5</ele>
        <time>2021-03-06T14:45:29Z</time>
      </trkpt>
      <trkpt lat="44.10428" lon="3.01492">
        <ele>515.8</ele>
        <time>2021-03-06T14:45:31Z</time>
      </trkpt>
      <trkpt lat="44.10427" lon="3.01493">
        <ele>515.9</ele>
        <time>2021-03-06T14:45:32Z</time>
      </trkpt>
      <trkpt lat="44.10427" lon="3.01495">
        <ele>516.1</ele>
        <time>2021-03-06T14:45:34Z</time>
      </trkpt>
      <trkpt lat="44.10425" lon="3.01497">
        <ele>516.3</ele>
        <time>2021-03-06T14:45:35Z</time>
      </trkpt>
      <trkpt lat="44.10424" lon="3.01498">
        <ele>516.5</ele>
        <time>2021-03-06T14:45:37Z</time>
      </trkpt>
      <trkpt lat="44.10422" lon="3.01501">
        <ele>516.9</ele>
        <time>2021-03-06T14:45:38Z</time>
      </trkpt>
      <trkpt lat="44.10421" lon="3.01502">
        <ele>517</ele>
        <time>2021-03-06T14:45:39Z</time>
      </trkpt>
      <trkpt lat="44.1042" lon="3.01503">
        <ele>517.2</ele>
        <time>2021-03-06T14:45:40Z</time>
      </trkpt>
      <trkpt lat="44.10419" lon="3.01505">
        <ele>517.3</ele>
        <time>2021-03-06T14:45:41Z</time>
      </trkpt>
      <trkpt lat="44.10417" lon="3.01508">
        <ele>517.6</ele>
        <time>2021-03-06T14:45:43Z</time>
      </trkpt>
      <trkpt lat="44.10416" lon="3.01509">
        <ele>517.3</ele>
        <time>2021-03-06T14:45:44Z</time>
      </trkpt>
      <trkpt lat="44.10415" lon="3.01511">
        <ele>518.2</ele>
        <time>2021-03-06T14:45:46Z</time>
      </trkpt>
      <trkpt lat="44.10415" lon="3.01512">
        <ele>518.6</ele>
        <time>2021-03-06T14:45:47Z</time>
      </trkpt>
      <trkpt lat="44.10414" lon="3.01514">
        <ele>519</ele>
        <time>2021-03-06T14:45:48Z</time>
      </trkpt>
      <trkpt lat="44.10413" lon="3.01515">
        <ele>519.2</ele>
        <time>2021-03-06T14:45:50Z</time>
      </trkpt>
      <trkpt lat="44.10412" lon="3.01517">
        <ele>519.6</ele>
        <time>2021-03-06T14:45:52Z</time>
      </trkpt>
      <trkpt lat="44.10411" lon="3.01519">
        <ele>519.9</ele>
        <time>2021-03-06T14:45:53Z</time>
      </trkpt>
      <trkpt lat="44.10411" lon="3.01521">
        <ele>520.9</ele>
        <time>2021-03-06T14:45:55Z</time>
      </trkpt>
      <trkpt lat="44.1041" lon="3.01522">
        <ele>520.5</ele>
        <time>2021-03-06T14:45:56Z</time>
      </trkpt>
      <trkpt lat="44.10409" lon="3.01523">
        <ele>520.9</ele>
        <time>2021-03-06T14:45:58Z</time>
      </trkpt>
      <trkpt lat="44.10409" lon="3.01524">
        <ele>521.8</ele>
        <time>2021-03-06T14:45:59Z</time>
      </trkpt>
      <trkpt lat="44.10407" lon="3.01526">
        <ele>521.5</ele>
        <time>2021-03-06T14:46:00Z</time>
      </trkpt>
      <trkpt lat="44.10407" lon="3.01528">
        <ele>521.9</ele>
        <time>2021-03-06T14:46:01Z</time>
      </trkpt>
      <trkpt lat="44.10406" lon="3.01529">
        <ele>522.8</ele>
        <time>2021-03-06T14:46:02Z</time>
      </trkpt>
      <trkpt lat="44.10405" lon="3.01531">
        <ele>523.2</ele>
        <time>2021-03-06T14:46:03Z</time>
      </trkpt>
      <trkpt lat="44.10404" lon="3.01534">
        <ele>523.4</ele>
        <time>2021-03-06T14:46:05Z</time>
      </trkpt>
      <trkpt lat="44.10403" lon="3.01535">
        <ele>523.7</ele>
        <time>2021-03-06T14:46:07Z</time>
      </trkpt>
      <trkpt lat="44.10403" lon="3.01537">
        <ele>524.7</ele>
        <time>2021-03-06T14:46:08Z</time>
      </trkpt>
      <trkpt lat="44.10402" lon="3.01539">
        <ele>525</ele>
        <time>2021-03-06T14:46:09Z</time>
      </trkpt>
      <trkpt lat="44.10402" lon="3.01542">
        <ele>526</ele>
        <time>2021-03-06T14:46:10Z</time>
      </trkpt>
      <trkpt lat="44.10401" lon="3.01543">
        <ele>525.6</ele>
        <time>2021-03-06T14:46:11Z</time>
      </trkpt>
      <trkpt lat="44.104" lon="3.01545">
        <ele>525.8</ele>
        <time>2021-03-06T14:46:13Z</time>
      </trkpt>
      <trkpt lat="44.104" lon="3.01546">
        <ele>526</ele>
        <time>2021-03-06T14:46:14Z</time>
      </trkpt>
      <trkpt lat="44.10398" lon="3.01547">
        <ele>526.2</ele>
        <time>2021-03-06T14:46:16Z</time>
      </trkpt>
      <trkpt lat="44.10398" lon="3.01548">
        <ele>526.3</ele>
        <time>2021-03-06T14:46:17Z</time>
      </trkpt>
      <trkpt lat="44.10397" lon="3.0155">
        <ele>526.5</ele>
        <time>2021-03-06T14:46:19Z</time>
      </trkpt>
      <trkpt lat="44.10397" lon="3.01551">
        <ele>526.6</ele>
        <time>2021-03-06T14:46:20Z</time>
      </trkpt>
      <trkpt lat="44.10397" lon="3.01552">
        <ele>526.7</ele>
        <time>2021-03-06T14:46:22Z</time>
      </trkpt>
      <trkpt lat="44.10398" lon="3.01553">
        <ele>526.8</ele>
        <time>2021-03-06T14:46:23Z</time>
      </trkpt>
      <trkpt lat="44.10398" lon="3.01552">
        <ele>526.8</ele>
        <time>2021-03-06T14:46:24Z</time>
      </trkpt>
      <trkpt lat="44.10397" lon="3.01552">
        <ele>526.9</ele>
        <time>2021-03-06T14:46:26Z</time>
      </trkpt>
      <trkpt lat="44.10398" lon="3.01551">
        <ele>526.9</ele>
        <time>2021-03-06T14:46:27Z</time>
      </trkpt>
      <trkpt lat="44.10397" lon="3.01551">
        <ele>527</ele>
        <time>2021-03-06T14:46:28Z</time>
      </trkpt>
      <trkpt lat="44.10396" lon="3.0155">
        <ele>527.2</ele>
        <time>2021-03-06T14:46:30Z</time>
      </trkpt>
      <trkpt lat="44.10396" lon="3.01549">
        <ele>527.3</ele>
        <time>2021-03-06T14:46:31Z</time>
      </trkpt>
      <trkpt lat="44.10395" lon="3.01548">
        <ele>527.4</ele>
        <time>2021-03-06T14:46:32Z</time>
      </trkpt>
      <trkpt lat="44.10395" lon="3.01548">
        <ele>527.5</ele>
        <time>2021-03-06T14:46:33Z</time>
      </trkpt>
      <trkpt lat="44.10395" lon="3.01547">
        <ele>527.6</ele>
        <time>2021-03-06T14:46:34Z</time>
      </trkpt>
      <trkpt lat="44.10396" lon="3.01544">
        <ele>527.9</ele>
        <time>2021-03-06T14:46:36Z</time>
      </trkpt>
      <trkpt lat="44.10396" lon="3.01543">
        <ele>528</ele>
        <time>2021-03-06T14:46:37Z</time>
      </trkpt>
      <trkpt lat="44.10397" lon="3.01542">
        <ele>528.2</ele>
        <time>2021-03-06T14:46:38Z</time>
      </trkpt>
      <trkpt lat="44.10398" lon="3.01541">
        <ele>528.3</ele>
        <time>2021-03-06T14:46:40Z</time>
      </trkpt>
      <trkpt lat="44.10398" lon="3.01539">
        <ele>528.5</ele>
        <time>2021-03-06T14:46:41Z</time>
      </trkpt>
      <trkpt lat="44.10399" lon="3.01538">
        <ele>528.7</ele>
        <time>2021-03-06T14:46:42Z</time>
      </trkpt>
      <trkpt lat="44.104" lon="3.01537">
        <ele>529</ele>
        <time>2021-03-06T14:46:44Z</time>
      </trkpt>
      <trkpt lat="44.10402" lon="3.01534">
        <ele>529.3</ele>
        <time>2021-03-06T14:46:46Z</time>
      </trkpt>
      <trkpt lat="44.10403" lon="3.01533">
        <ele>529.5</ele>
        <time>2021-03-06T14:46:47Z</time>
      </trkpt>
      <trkpt lat="44.10404" lon="3.01533">
        <ele>529.6</ele>
        <time>2021-03-06T14:46:48Z</time>
      </trkpt>
      <trkpt lat="44.10405" lon="3.01532">
        <ele>529.8</ele>
        <time>2021-03-06T14:46:50Z</time>
      </trkpt>
      <trkpt lat="44.10405" lon="3.01532">
        <ele>529.9</ele>
        <time>2021-03-06T14:46:51Z</time>
      </trkpt>
      <trkpt lat="44.10406" lon="3.01531">
        <ele>530</ele>
        <time>2021-03-06T14:46:52Z</time>
      </trkpt>
      <trkpt lat="44.10407" lon="3.0153">
        <ele>530.2</ele>
        <time>2021-03-06T14:46:53Z</time>
      </trkpt>
      <trkpt lat="44.10408" lon="3.0153">
        <ele>530.3</ele>
        <time>2021-03-06T14:46:54Z</time>
      </trkpt>
      <trkpt lat="44.10409" lon="3.01529">
        <ele>530.6</ele>
        <time>2021-03-06T14:46:56Z</time>
      </trkpt>
      <trkpt lat="44.1041" lon="3.01528">
        <ele>530.8</ele>
        <time>2021-03-06T14:46:57Z</time>
      </trkpt>
      <trkpt lat="44.10412" lon="3.01527">
        <ele>531.1</ele>
        <time>2021-03-06T14:46:58Z</time>
      </trkpt>
      <trkpt lat="44.10413" lon="3.01527">
        <ele>531.2</ele>
        <time>2021-03-06T14:46:59Z</time>
      </trkpt>
      <trkpt lat="44.10414" lon="3.01527">
        <ele>531.4</ele>
        <time>2021-03-06T14:47:00Z</time>
      </trkpt>
      <trkpt lat="44.10415" lon="3.01526">
        <ele>531.6</ele>
        <time>2021-03-06T14:47:02Z</time>
      </trkpt>
      <trkpt lat="44.10416" lon="3.01526">
        <ele>531.8</ele>
        <time>2021-03-06T14:47:03Z</time>
      </trkpt>
      <trkpt lat="44.10418" lon="3.01525">
        <ele>532.1</ele>
        <time>2021-03-06T14:47:05Z</time>
      </trkpt>
      <trkpt lat="44.10421" lon="3.01524">
        <ele>532.6</ele>
        <time>2021-03-06T14:47:07Z</time>
      </trkpt>
      <trkpt lat="44.10422" lon="3.01523">
        <ele>532.7</ele>
        <time>2021-03-06T14:47:08Z</time>
      </trkpt>
      <trkpt lat="44.10423" lon="3.01523">
        <ele>532.8</ele>
        <time>2021-03-06T14:47:10Z</time>
      </trkpt>
      <trkpt lat="44.10424" lon="3.01522">
        <ele>533</ele>
        <time>2021-03-06T14:47:11Z</time>
      </trkpt>
      <trkpt lat="44.10425" lon="3.01522">
        <ele>533.1</ele>
        <time>2021-03-06T14:47:13Z</time>
      </trkpt>
      <trkpt lat="44.10425" lon="3.01521">
        <ele>533.3</ele>
        <time>2021-03-06T14:47:15Z</time>
      </trkpt>
      <trkpt lat="44.10426" lon="3.01521">
        <ele>533.4</ele>
        <time>2021-03-06T14:47:20Z</time>
      </trkpt>
      <trkpt lat="44.10427" lon="3.0152">
        <ele>533.6</ele>
        <time>2021-03-06T14:47:21Z</time>
      </trkpt>
      <trkpt lat="44.10428" lon="3.0152">
        <ele>533.7</ele>
        <time>2021-03-06T14:47:23Z</time>
      </trkpt>
      <trkpt lat="44.10429" lon="3.01519">
        <ele>533.8</ele>
        <time>2021-03-06T14:47:24Z</time>
      </trkpt>
      <trkpt lat="44.1043" lon="3.01519">
        <ele>534</ele>
        <time>2021-03-06T14:47:25Z</time>
      </trkpt>
      <trkpt lat="44.10431" lon="3.01519">
        <ele>534.2</ele>
        <time>2021-03-06T14:47:27Z</time>
      </trkpt>
      <trkpt lat="44.10433" lon="3.01519">
        <ele>534.5</ele>
        <time>2021-03-06T14:47:28Z</time>
      </trkpt>
      <trkpt lat="44.10436" lon="3.01519">
        <ele>534.9</ele>
        <time>2021-03-06T14:47:29Z</time>
      </trkpt>
      <trkpt lat="44.10437" lon="3.01519">
        <ele>535.1</ele>
        <time>2021-03-06T14:47:30Z</time>
      </trkpt>
      <trkpt lat="44.1044" lon="3.01518">
        <ele>535.6</ele>
        <time>2021-03-06T14:47:32Z</time>
      </trkpt>
      <trkpt lat="44.10442" lon="3.01517">
        <ele>535.8</ele>
        <time>2021-03-06T14:47:33Z</time>
      </trkpt>
      <trkpt lat="44.10445" lon="3.01517">
        <ele>536.2</ele>
        <time>2021-03-06T14:47:35Z</time>
      </trkpt>
      <trkpt lat="44.10446" lon="3.01517">
        <ele>536.4</ele>
        <time>2021-03-06T14:47:36Z</time>
      </trkpt>
      <trkpt lat="44.10449" lon="3.01517">
        <ele>536.9</ele>
        <time>2021-03-06T14:47:39Z</time>
      </trkpt>
      <trkpt lat="44.1045" lon="3.01517">
        <ele>536.9</ele>
        <time>2021-03-06T14:47:40Z</time>
      </trkpt>
      <trkpt lat="44.10451" lon="3.01517">
        <ele>537.2</ele>
        <time>2021-03-06T14:47:41Z</time>
      </trkpt>
      <trkpt lat="44.10452" lon="3.01516">
        <ele>537.4</ele>
        <time>2021-03-06T14:47:42Z</time>
      </trkpt>
      <trkpt lat="44.10454" lon="3.01516">
        <ele>537.6</ele>
        <time>2021-03-06T14:47:44Z</time>
      </trkpt>
      <trkpt lat="44.10455" lon="3.01516">
        <ele>537.8</ele>
        <time>2021-03-06T14:47:46Z</time>
      </trkpt>
      <trkpt lat="44.10457" lon="3.01515">
        <ele>538</ele>
        <time>2021-03-06T14:47:47Z</time>
      </trkpt>
      <trkpt lat="44.10457" lon="3.01515">
        <ele>538.1</ele>
        <time>2021-03-06T14:47:48Z</time>
      </trkpt>
      <trkpt lat="44.10459" lon="3.01515">
        <ele>538.4</ele>
        <time>2021-03-06T14:47:50Z</time>
      </trkpt>
      <trkpt lat="44.1046" lon="3.01514">
        <ele>538.5</ele>
        <time>2021-03-06T14:47:51Z</time>
      </trkpt>
      <trkpt lat="44.10461" lon="3.01513">
        <ele>538.6</ele>
        <time>2021-03-06T14:47:52Z</time>
      </trkpt>
      <trkpt lat="44.10462" lon="3.01513">
        <ele>538.9</ele>
        <time>2021-03-06T14:47:53Z</time>
      </trkpt>
      <trkpt lat="44.10464" lon="3.01513">
        <ele>539</ele>
        <time>2021-03-06T14:47:55Z</time>
      </trkpt>
      <trkpt lat="44.10465" lon="3.01513">
        <ele>539.3</ele>
        <time>2021-03-06T14:47:57Z</time>
      </trkpt>
      <trkpt lat="44.10467" lon="3.01512">
        <ele>539.6</ele>
        <time>2021-03-06T14:47:59Z</time>
      </trkpt>
      <trkpt lat="44.10469" lon="3.01512">
        <ele>539.8</ele>
        <time>2021-03-06T14:48:00Z</time>
      </trkpt>
      <trkpt lat="44.1047" lon="3.01512">
        <ele>540</ele>
        <time>2021-03-06T14:48:01Z</time>
      </trkpt>
      <trkpt lat="44.10472" lon="3.01513">
        <ele>540.2</ele>
        <time>2021-03-06T14:48:02Z</time>
      </trkpt>
      <trkpt lat="44.10473" lon="3.01513">
        <ele>540.4</ele>
        <time>2021-03-06T14:48:04Z</time>
      </trkpt>
      <trkpt lat="44.10474" lon="3.01513">
        <ele>540.5</ele>
        <time>2021-03-06T14:48:05Z</time>
      </trkpt>
      <trkpt lat="44.10475" lon="3.01513">
        <ele>540.6</ele>
        <time>2021-03-06T14:48:06Z</time>
      </trkpt>
      <trkpt lat="44.10476" lon="3.01513">
        <ele>540.8</ele>
        <time>2021-03-06T14:48:07Z</time>
      </trkpt>
      <trkpt lat="44.10477" lon="3.01513">
        <ele>541</ele>
        <time>2021-03-06T14:48:09Z</time>
      </trkpt>
      <trkpt lat="44.10478" lon="3.01513">
        <ele>541.1</ele>
        <time>2021-03-06T14:48:10Z</time>
      </trkpt>
      <trkpt lat="44.1048" lon="3.01514">
        <ele>541.3</ele>
        <time>2021-03-06T14:48:12Z</time>
      </trkpt>
      <trkpt lat="44.10481" lon="3.01514">
        <ele>541.5</ele>
        <time>2021-03-06T14:48:13Z</time>
      </trkpt>
      <trkpt lat="44.10482" lon="3.01515">
        <ele>541.6</ele>
        <time>2021-03-06T14:48:14Z</time>
      </trkpt>
      <trkpt lat="44.10483" lon="3.01515">
        <ele>541.8</ele>
        <time>2021-03-06T14:48:16Z</time>
      </trkpt>
      <trkpt lat="44.10485" lon="3.01516">
        <ele>542</ele>
        <time>2021-03-06T14:48:17Z</time>
      </trkpt>
      <trkpt lat="44.10486" lon="3.01516">
        <ele>542.2</ele>
        <time>2021-03-06T14:48:18Z</time>
      </trkpt>
      <trkpt lat="44.10487" lon="3.01516">
        <ele>542.3</ele>
        <time>2021-03-06T14:48:19Z</time>
      </trkpt>
      <trkpt lat="44.10488" lon="3.01516">
        <ele>542.4</ele>
        <time>2021-03-06T14:48:21Z</time>
      </trkpt>
      <trkpt lat="44.10488" lon="3.01515">
        <ele>542.5</ele>
        <time>2021-03-06T14:48:22Z</time>
      </trkpt>
      <trkpt lat="44.10489" lon="3.01515">
        <ele>542.6</ele>
        <time>2021-03-06T14:48:23Z</time>
      </trkpt>
      <trkpt lat="44.1049" lon="3.01515">
        <ele>542.7</ele>
        <time>2021-03-06T14:48:24Z</time>
      </trkpt>
      <trkpt lat="44.10491" lon="3.01515">
        <ele>542.9</ele>
        <time>2021-03-06T14:48:26Z</time>
      </trkpt>
      <trkpt lat="44.10492" lon="3.01515">
        <ele>543</ele>
        <time>2021-03-06T14:48:27Z</time>
      </trkpt>
      <trkpt lat="44.10493" lon="3.01515">
        <ele>543.1</ele>
        <time>2021-03-06T14:48:28Z</time>
      </trkpt>
      <trkpt lat="44.10494" lon="3.01515">
        <ele>543.3</ele>
        <time>2021-03-06T14:48:29Z</time>
      </trkpt>
      <trkpt lat="44.10495" lon="3.01516">
        <ele>543.4</ele>
        <time>2021-03-06T14:48:30Z</time>
      </trkpt>
      <trkpt lat="44.10498" lon="3.01517">
        <ele>543.8</ele>
        <time>2021-03-06T14:48:32Z</time>
      </trkpt>
      <trkpt lat="44.10499" lon="3.01516">
        <ele>543.9</ele>
        <time>2021-03-06T14:48:33Z</time>
      </trkpt>
      <trkpt lat="44.105" lon="3.01516">
        <ele>544.1</ele>
        <time>2021-03-06T14:48:34Z</time>
      </trkpt>
      <trkpt lat="44.10502" lon="3.01516">
        <ele>544.4</ele>
        <time>2021-03-06T14:48:36Z</time>
      </trkpt>
      <trkpt lat="44.10504" lon="3.01517">
        <ele>544.6</ele>
        <time>2021-03-06T14:48:37Z</time>
      </trkpt>
      <trkpt lat="44.10505" lon="3.01517">
        <ele>544.7</ele>
        <time>2021-03-06T14:48:39Z</time>
      </trkpt>
      <trkpt lat="44.10506" lon="3.01518">
        <ele>544.9</ele>
        <time>2021-03-06T14:48:40Z</time>
      </trkpt>
      <trkpt lat="44.10507" lon="3.01518">
        <ele>545</ele>
        <time>2021-03-06T14:48:41Z</time>
      </trkpt>
      <trkpt lat="44.10508" lon="3.01519">
        <ele>545.2</ele>
        <time>2021-03-06T14:48:42Z</time>
      </trkpt>
      <trkpt lat="44.10509" lon="3.01519">
        <ele>545.3</ele>
        <time>2021-03-06T14:48:44Z</time>
      </trkpt>
      <trkpt lat="44.1051" lon="3.01519">
        <ele>545.5</ele>
        <time>2021-03-06T14:49:21Z</time>
      </trkpt>
      <trkpt lat="44.10511" lon="3.0152">
        <ele>545.7</ele>
        <time>2021-03-06T14:49:22Z</time>
      </trkpt>
      <trkpt lat="44.10512" lon="3.0152">
        <ele>545.8</ele>
        <time>2021-03-06T14:49:24Z</time>
      </trkpt>
      <trkpt lat="44.10513" lon="3.01521">
        <ele>546</ele>
        <time>2021-03-06T14:49:25Z</time>
      </trkpt>
      <trkpt lat="44.10514" lon="3.01521">
        <ele>546.1</ele>
        <time>2021-03-06T14:49:26Z</time>
      </trkpt>
      <trkpt lat="44.10516" lon="3.01521">
        <ele>546.3</ele>
        <time>2021-03-06T14:49:28Z</time>
      </trkpt>
      <trkpt lat="44.10518" lon="3.01521">
        <ele>546.6</ele>
        <time>2021-03-06T14:49:29Z</time>
      </trkpt>
      <trkpt lat="44.1052" lon="3.0152">
        <ele>546.9</ele>
        <time>2021-03-06T14:49:31Z</time>
      </trkpt>
      <trkpt lat="44.10521" lon="3.01519">
        <ele>547</ele>
        <time>2021-03-06T14:49:32Z</time>
      </trkpt>
      <trkpt lat="44.10521" lon="3.01519">
        <ele>547.1</ele>
        <time>2021-03-06T14:49:33Z</time>
      </trkpt>
      <trkpt lat="44.10523" lon="3.01519">
        <ele>547.3</ele>
        <time>2021-03-06T14:49:34Z</time>
      </trkpt>
      <trkpt lat="44.10524" lon="3.01518">
        <ele>547.4</ele>
        <time>2021-03-06T14:49:35Z</time>
      </trkpt>
      <trkpt lat="44.10525" lon="3.01518">
        <ele>547.6</ele>
        <time>2021-03-06T14:49:36Z</time>
      </trkpt>
      <trkpt lat="44.10527" lon="3.01518">
        <ele>547.7</ele>
        <time>2021-03-06T14:49:37Z</time>
      </trkpt>
      <trkpt lat="44.10528" lon="3.01518">
        <ele>547.9</ele>
        <time>2021-03-06T14:49:38Z</time>
      </trkpt>
      <trkpt lat="44.10529" lon="3.01518">
        <ele>547.9</ele>
        <time>2021-03-06T14:49:40Z</time>
      </trkpt>
      <trkpt lat="44.1053" lon="3.01518">
        <ele>548.1</ele>
        <time>2021-03-06T14:49:41Z</time>
      </trkpt>
      <trkpt lat="44.10532" lon="3.01518">
        <ele>548.4</ele>
        <time>2021-03-06T14:49:43Z</time>
      </trkpt>
      <trkpt lat="44.10533" lon="3.01518">
        <ele>548.5</ele>
        <time>2021-03-06T14:49:44Z</time>
      </trkpt>
      <trkpt lat="44.10534" lon="3.01518">
        <ele>548.6</ele>
        <time>2021-03-06T14:49:46Z</time>
      </trkpt>
      <trkpt lat="44.10535" lon="3.01519">
        <ele>548.7</ele>
        <time>2021-03-06T14:49:47Z</time>
      </trkpt>
      <trkpt lat="44.10536" lon="3.01519">
        <ele>548.9</ele>
        <time>2021-03-06T14:49:49Z</time>
      </trkpt>
      <trkpt lat="44.10537" lon="3.0152">
        <ele>549</ele>
        <time>2021-03-06T14:49:50Z</time>
      </trkpt>
      <trkpt lat="44.10539" lon="3.0152">
        <ele>549.1</ele>
        <time>2021-03-06T14:49:51Z</time>
      </trkpt>
      <trkpt lat="44.1054" lon="3.01521">
        <ele>549.3</ele>
        <time>2021-03-06T14:49:53Z</time>
      </trkpt>
      <trkpt lat="44.10541" lon="3.01523">
        <ele>549.5</ele>
        <time>2021-03-06T14:49:54Z</time>
      </trkpt>
      <trkpt lat="44.10545" lon="3.01526">
        <ele>550</ele>
        <time>2021-03-06T14:49:56Z</time>
      </trkpt>
      <trkpt lat="44.10546" lon="3.01527">
        <ele>550.1</ele>
        <time>2021-03-06T14:49:57Z</time>
      </trkpt>
      <trkpt lat="44.10548" lon="3.01527">
        <ele>550.3</ele>
        <time>2021-03-06T14:49:58Z</time>
      </trkpt>
      <trkpt lat="44.1055" lon="3.01529">
        <ele>550.5</ele>
        <time>2021-03-06T14:50:00Z</time>
      </trkpt>
      <trkpt lat="44.1055" lon="3.01529">
        <ele>550.6</ele>
        <time>2021-03-06T14:50:01Z</time>
      </trkpt>
      <trkpt lat="44.10551" lon="3.0153">
        <ele>550.7</ele>
        <time>2021-03-06T14:50:02Z</time>
      </trkpt>
      <trkpt lat="44.10553" lon="3.0153">
        <ele>550.9</ele>
        <time>2021-03-06T14:50:03Z</time>
      </trkpt>
      <trkpt lat="44.10554" lon="3.01531">
        <ele>551</ele>
        <time>2021-03-06T14:50:05Z</time>
      </trkpt>
      <trkpt lat="44.10555" lon="3.01532">
        <ele>551.1</ele>
        <time>2021-03-06T14:50:06Z</time>
      </trkpt>
      <trkpt lat="44.10555" lon="3.01532">
        <ele>551.2</ele>
        <time>2021-03-06T14:50:08Z</time>
      </trkpt>
      <trkpt lat="44.10557" lon="3.01532">
        <ele>551.3</ele>
        <time>2021-03-06T14:50:10Z</time>
      </trkpt>
      <trkpt lat="44.10558" lon="3.01532">
        <ele>551.5</ele>
        <time>2021-03-06T14:50:11Z</time>
      </trkpt>
      <trkpt lat="44.10559" lon="3.01532">
        <ele>551.6</ele>
        <time>2021-03-06T14:50:12Z</time>
      </trkpt>
      <trkpt lat="44.10561" lon="3.01532">
        <ele>551.7</ele>
        <time>2021-03-06T14:50:13Z</time>
      </trkpt>
      <trkpt lat="44.10563" lon="3.01533">
        <ele>552</ele>
        <time>2021-03-06T14:50:15Z</time>
      </trkpt>
      <trkpt lat="44.10565" lon="3.01533">
        <ele>552.2</ele>
        <time>2021-03-06T14:50:17Z</time>
      </trkpt>
      <trkpt lat="44.10568" lon="3.01534">
        <ele>552.5</ele>
        <time>2021-03-06T14:50:18Z</time>
      </trkpt>
      <trkpt lat="44.10569" lon="3.01534">
        <ele>552.7</ele>
        <time>2021-03-06T14:50:20Z</time>
      </trkpt>
      <trkpt lat="44.10572" lon="3.01535">
        <ele>553</ele>
        <time>2021-03-06T14:50:21Z</time>
      </trkpt>
      <trkpt lat="44.10575" lon="3.01536">
        <ele>553.3</ele>
        <time>2021-03-06T14:50:23Z</time>
      </trkpt>
      <trkpt lat="44.10576" lon="3.01536">
        <ele>553.4</ele>
        <time>2021-03-06T14:50:24Z</time>
      </trkpt>
      <trkpt lat="44.10578" lon="3.01537">
        <ele>553.5</ele>
        <time>2021-03-06T14:50:25Z</time>
      </trkpt>
      <trkpt lat="44.10579" lon="3.01538">
        <ele>553.7</ele>
        <time>2021-03-06T14:50:26Z</time>
      </trkpt>
      <trkpt lat="44.10582" lon="3.0154">
        <ele>554</ele>
        <time>2021-03-06T14:50:28Z</time>
      </trkpt>
      <trkpt lat="44.10583" lon="3.0154">
        <ele>554.1</ele>
        <time>2021-03-06T14:50:29Z</time>
      </trkpt>
      <trkpt lat="44.10585" lon="3.01541">
        <ele>554.3</ele>
        <time>2021-03-06T14:50:30Z</time>
      </trkpt>
      <trkpt lat="44.10586" lon="3.01542">
        <ele>554.4</ele>
        <time>2021-03-06T14:50:31Z</time>
      </trkpt>
      <trkpt lat="44.1059" lon="3.01544">
        <ele>554.8</ele>
        <time>2021-03-06T14:50:33Z</time>
      </trkpt>
      <trkpt lat="44.10591" lon="3.01545">
        <ele>554.9</ele>
        <time>2021-03-06T14:50:34Z</time>
      </trkpt>
      <trkpt lat="44.10593" lon="3.01547">
        <ele>555.1</ele>
        <time>2021-03-06T14:50:35Z</time>
      </trkpt>
      <trkpt lat="44.10595" lon="3.01548">
        <ele>555.3</ele>
        <time>2021-03-06T14:50:37Z</time>
      </trkpt>
      <trkpt lat="44.10597" lon="3.0155">
        <ele>555.6</ele>
        <time>2021-03-06T14:50:38Z</time>
      </trkpt>
      <trkpt lat="44.10598" lon="3.0155">
        <ele>555.6</ele>
        <time>2021-03-06T14:50:39Z</time>
      </trkpt>
      <trkpt lat="44.10601" lon="3.01553">
        <ele>556</ele>
        <time>2021-03-06T14:50:41Z</time>
      </trkpt>
      <trkpt lat="44.10602" lon="3.01554">
        <ele>556.1</ele>
        <time>2021-03-06T14:50:42Z</time>
      </trkpt>
      <trkpt lat="44.10604" lon="3.01557">
        <ele>556.4</ele>
        <time>2021-03-06T14:50:44Z</time>
      </trkpt>
      <trkpt lat="44.10606" lon="3.01559">
        <ele>556.7</ele>
        <time>2021-03-06T14:50:45Z</time>
      </trkpt>
      <trkpt lat="44.10608" lon="3.0156">
        <ele>556.9</ele>
        <time>2021-03-06T14:50:47Z</time>
      </trkpt>
      <trkpt lat="44.1061" lon="3.01561">
        <ele>557.1</ele>
        <time>2021-03-06T14:50:49Z</time>
      </trkpt>
      <trkpt lat="44.10611" lon="3.01562">
        <ele>557.2</ele>
        <time>2021-03-06T14:50:50Z</time>
      </trkpt>
      <trkpt lat="44.10613" lon="3.01564">
        <ele>557.5</ele>
        <time>2021-03-06T14:50:51Z</time>
      </trkpt>
      <trkpt lat="44.10614" lon="3.01565">
        <ele>557.6</ele>
        <time>2021-03-06T14:50:52Z</time>
      </trkpt>
      <trkpt lat="44.10616" lon="3.01566">
        <ele>557.8</ele>
        <time>2021-03-06T14:50:54Z</time>
      </trkpt>
      <trkpt lat="44.10618" lon="3.01567">
        <ele>558</ele>
        <time>2021-03-06T14:50:56Z</time>
      </trkpt>
      <trkpt lat="44.10621" lon="3.01569">
        <ele>558.3</ele>
        <time>2021-03-06T14:50:57Z</time>
      </trkpt>
      <trkpt lat="44.10622" lon="3.01569">
        <ele>558.4</ele>
        <time>2021-03-06T14:50:58Z</time>
      </trkpt>
      <trkpt lat="44.10624" lon="3.0157">
        <ele>558.7</ele>
        <time>2021-03-06T14:50:59Z</time>
      </trkpt>
      <trkpt lat="44.10625" lon="3.01571">
        <ele>558.8</ele>
        <time>2021-03-06T14:51:01Z</time>
      </trkpt>
      <trkpt lat="44.10626" lon="3.01571">
        <ele>558.9</ele>
        <time>2021-03-06T14:51:02Z</time>
      </trkpt>
      <trkpt lat="44.10628" lon="3.01572">
        <ele>559.1</ele>
        <time>2021-03-06T14:51:04Z</time>
      </trkpt>
      <trkpt lat="44.10629" lon="3.01573">
        <ele>559.2</ele>
        <time>2021-03-06T14:51:05Z</time>
      </trkpt>
      <trkpt lat="44.10631" lon="3.01574">
        <ele>559.4</ele>
        <time>2021-03-06T14:51:07Z</time>
      </trkpt>
      <trkpt lat="44.10633" lon="3.01575">
        <ele>559.7</ele>
        <time>2021-03-06T14:51:08Z</time>
      </trkpt>
      <trkpt lat="44.10634" lon="3.01576">
        <ele>559.8</ele>
        <time>2021-03-06T14:51:10Z</time>
      </trkpt>
      <trkpt lat="44.10636" lon="3.01578">
        <ele>560.1</ele>
        <time>2021-03-06T14:51:11Z</time>
      </trkpt>
      <trkpt lat="44.10639" lon="3.0158">
        <ele>560.4</ele>
        <time>2021-03-06T14:51:13Z</time>
      </trkpt>
      <trkpt lat="44.10639" lon="3.01581">
        <ele>560.5</ele>
        <time>2021-03-06T14:51:14Z</time>
      </trkpt>
      <trkpt lat="44.10641" lon="3.01583">
        <ele>560.7</ele>
        <time>2021-03-06T14:51:15Z</time>
      </trkpt>
      <trkpt lat="44.10642" lon="3.01585">
        <ele>560.9</ele>
        <time>2021-03-06T14:51:17Z</time>
      </trkpt>
      <trkpt lat="44.10644" lon="3.01586">
        <ele>561.1</ele>
        <time>2021-03-06T14:51:18Z</time>
      </trkpt>
      <trkpt lat="44.10645" lon="3.01588">
        <ele>561.3</ele>
        <time>2021-03-06T14:51:19Z</time>
      </trkpt>
      <trkpt lat="44.10646" lon="3.0159">
        <ele>561.5</ele>
        <time>2021-03-06T14:51:21Z</time>
      </trkpt>
      <trkpt lat="44.10647" lon="3.01591">
        <ele>561.6</ele>
        <time>2021-03-06T14:51:22Z</time>
      </trkpt>
      <trkpt lat="44.10649" lon="3.01592">
        <ele>561.8</ele>
        <time>2021-03-06T14:51:23Z</time>
      </trkpt>
      <trkpt lat="44.1065" lon="3.01593">
        <ele>561.9</ele>
        <time>2021-03-06T14:51:25Z</time>
      </trkpt>
      <trkpt lat="44.10651" lon="3.01593">
        <ele>562.1</ele>
        <time>2021-03-06T14:51:26Z</time>
      </trkpt>
      <trkpt lat="44.10652" lon="3.01594">
        <ele>562.2</ele>
        <time>2021-03-06T14:51:27Z</time>
      </trkpt>
      <trkpt lat="44.10653" lon="3.01594">
        <ele>562.3</ele>
        <time>2021-03-06T14:51:28Z</time>
      </trkpt>
      <trkpt lat="44.10656" lon="3.01595">
        <ele>562.6</ele>
        <time>2021-03-06T14:51:30Z</time>
      </trkpt>
      <trkpt lat="44.10656" lon="3.01596">
        <ele>562.7</ele>
        <time>2021-03-06T14:51:31Z</time>
      </trkpt>
      <trkpt lat="44.10657" lon="3.01597">
        <ele>562.8</ele>
        <time>2021-03-06T14:51:32Z</time>
      </trkpt>
      <trkpt lat="44.10658" lon="3.01597">
        <ele>562.9</ele>
        <time>2021-03-06T14:51:33Z</time>
      </trkpt>
      <trkpt lat="44.1066" lon="3.01599">
        <ele>563.1</ele>
        <time>2021-03-06T14:51:34Z</time>
      </trkpt>
      <trkpt lat="44.10661" lon="3.016">
        <ele>563.3</ele>
        <time>2021-03-06T14:51:36Z</time>
      </trkpt>
      <trkpt lat="44.10662" lon="3.01602">
        <ele>563.4</ele>
        <time>2021-03-06T14:51:37Z</time>
      </trkpt>
      <trkpt lat="44.10663" lon="3.01603">
        <ele>563.6</ele>
        <time>2021-03-06T14:51:38Z</time>
      </trkpt>
      <trkpt lat="44.10665" lon="3.01605">
        <ele>563.9</ele>
        <time>2021-03-06T14:51:40Z</time>
      </trkpt>
      <trkpt lat="44.10667" lon="3.01607">
        <ele>564.1</ele>
        <time>2021-03-06T14:51:42Z</time>
      </trkpt>
      <trkpt lat="44.10669" lon="3.01608">
        <ele>564.4</ele>
        <time>2021-03-06T14:51:44Z</time>
      </trkpt>
      <trkpt lat="44.1067" lon="3.01608">
        <ele>564.5</ele>
        <time>2021-03-06T14:51:45Z</time>
      </trkpt>
      <trkpt lat="44.10671" lon="3.01608">
        <ele>564.6</ele>
        <time>2021-03-06T14:51:46Z</time>
      </trkpt>
      <trkpt lat="44.10672" lon="3.01609">
        <ele>564.8</ele>
        <time>2021-03-06T14:51:48Z</time>
      </trkpt>
      <trkpt lat="44.10673" lon="3.01609">
        <ele>564.9</ele>
        <time>2021-03-06T14:51:49Z</time>
      </trkpt>
      <trkpt lat="44.10674" lon="3.0161">
        <ele>565</ele>
        <time>2021-03-06T14:51:50Z</time>
      </trkpt>
      <trkpt lat="44.10674" lon="3.0161">
        <ele>564.8</ele>
        <time>2021-03-06T14:51:51Z</time>
      </trkpt>
      <trkpt lat="44.10674" lon="3.01611">
        <ele>564.6</ele>
        <time>2021-03-06T14:51:53Z</time>
      </trkpt>
      <trkpt lat="44.10674" lon="3.01611">
        <ele>564.4</ele>
        <time>2021-03-06T14:51:54Z</time>
      </trkpt>
      <trkpt lat="44.10674" lon="3.01611">
        <ele>564.2</ele>
        <time>2021-03-06T14:51:55Z</time>
      </trkpt>
      <trkpt lat="44.10673" lon="3.01611">
        <ele>563.9</ele>
        <time>2021-03-06T14:51:57Z</time>
      </trkpt>
      <trkpt lat="44.10673" lon="3.01612">
        <ele>563.7</ele>
        <time>2021-03-06T14:51:59Z</time>
      </trkpt>
      <trkpt lat="44.10673" lon="3.01612">
        <ele>563.5</ele>
        <time>2021-03-06T14:52:00Z</time>
      </trkpt>
      <trkpt lat="44.10673" lon="3.01612">
        <ele>563.3</ele>
        <time>2021-03-06T14:52:01Z</time>
      </trkpt>
      <trkpt lat="44.10669" lon="3.01611">
        <ele>562.3</ele>
        <time>2021-03-06T14:52:11Z</time>
      </trkpt>
      <trkpt lat="44.10668" lon="3.01611">
        <ele>562.1</ele>
        <time>2021-03-06T14:52:12Z</time>
      </trkpt>
      <trkpt lat="44.10666" lon="3.0161">
        <ele>561.5</ele>
        <time>2021-03-06T14:52:13Z</time>
      </trkpt>
      <trkpt lat="44.10664" lon="3.0161">
        <ele>561.3</ele>
        <time>2021-03-06T14:52:14Z</time>
      </trkpt>
      <trkpt lat="44.10662" lon="3.0161">
        <ele>560.9</ele>
        <time>2021-03-06T14:52:16Z</time>
      </trkpt>
      <trkpt lat="44.10661" lon="3.0161">
        <ele>560.7</ele>
        <time>2021-03-06T14:52:18Z</time>
      </trkpt>
      <trkpt lat="44.10659" lon="3.0161">
        <ele>560.3</ele>
        <time>2021-03-06T14:52:19Z</time>
      </trkpt>
      <trkpt lat="44.10658" lon="3.01611">
        <ele>560.1</ele>
        <time>2021-03-06T14:52:20Z</time>
      </trkpt>
      <trkpt lat="44.10656" lon="3.01611">
        <ele>559.7</ele>
        <time>2021-03-06T14:52:21Z</time>
      </trkpt>
      <trkpt lat="44.10655" lon="3.01612">
        <ele>559.5</ele>
        <time>2021-03-06T14:52:22Z</time>
      </trkpt>
      <trkpt lat="44.10654" lon="3.01613">
        <ele>559.2</ele>
        <time>2021-03-06T14:52:23Z</time>
      </trkpt>
      <trkpt lat="44.10653" lon="3.01614">
        <ele>559.5</ele>
        <time>2021-03-06T14:52:25Z</time>
      </trkpt>
      <trkpt lat="44.10652" lon="3.01614">
        <ele>559.3</ele>
        <time>2021-03-06T14:52:27Z</time>
      </trkpt>
      <trkpt lat="44.10651" lon="3.01614">
        <ele>559.1</ele>
        <time>2021-03-06T14:52:28Z</time>
      </trkpt>
      <trkpt lat="44.1065" lon="3.01613">
        <ele>558.3</ele>
        <time>2021-03-06T14:52:29Z</time>
      </trkpt>
      <trkpt lat="44.1065" lon="3.01612">
        <ele>558.1</ele>
        <time>2021-03-06T14:52:31Z</time>
      </trkpt>
      <trkpt lat="44.1065" lon="3.01612">
        <ele>557.9</ele>
        <time>2021-03-06T14:52:32Z</time>
      </trkpt>
      <trkpt lat="44.10649" lon="3.01612">
        <ele>557.7</ele>
        <time>2021-03-06T14:52:33Z</time>
      </trkpt>
      <trkpt lat="44.10648" lon="3.01612">
        <ele>557.4</ele>
        <time>2021-03-06T14:52:34Z</time>
      </trkpt>
      <trkpt lat="44.10646" lon="3.01611">
        <ele>557.2</ele>
        <time>2021-03-06T14:52:35Z</time>
      </trkpt>
      <trkpt lat="44.10645" lon="3.0161">
        <ele>557</ele>
        <time>2021-03-06T14:52:37Z</time>
      </trkpt>
      <trkpt lat="44.10643" lon="3.01609">
        <ele>556.7</ele>
        <time>2021-03-06T14:52:38Z</time>
      </trkpt>
      <trkpt lat="44.10641" lon="3.01609">
        <ele>555.9</ele>
        <time>2021-03-06T14:52:40Z</time>
      </trkpt>
      <trkpt lat="44.10637" lon="3.01608">
        <ele>555.7</ele>
        <time>2021-03-06T14:52:41Z</time>
      </trkpt>
      <trkpt lat="44.10636" lon="3.01608">
        <ele>555.5</ele>
        <time>2021-03-06T14:52:42Z</time>
      </trkpt>
      <trkpt lat="44.10633" lon="3.01608">
        <ele>555.4</ele>
        <time>2021-03-06T14:52:44Z</time>
      </trkpt>
      <trkpt lat="44.10632" lon="3.01608">
        <ele>555.2</ele>
        <time>2021-03-06T14:52:45Z</time>
      </trkpt>
      <trkpt lat="44.10629" lon="3.01608">
        <ele>555</ele>
        <time>2021-03-06T14:52:46Z</time>
      </trkpt>
      <trkpt lat="44.10629" lon="3.01608">
        <ele>554.9</ele>
        <time>2021-03-06T14:52:47Z</time>
      </trkpt>
      <trkpt lat="44.10625" lon="3.01607">
        <ele>554.8</ele>
        <time>2021-03-06T14:52:49Z</time>
      </trkpt>
      <trkpt lat="44.10624" lon="3.01607">
        <ele>554.6</ele>
        <time>2021-03-06T14:52:50Z</time>
      </trkpt>
      <trkpt lat="44.10623" lon="3.01607">
        <ele>554.6</ele>
        <time>2021-03-06T14:52:51Z</time>
      </trkpt>
      <trkpt lat="44.1062" lon="3.01606">
        <ele>554.6</ele>
        <time>2021-03-06T14:52:53Z</time>
      </trkpt>
      <trkpt lat="44.10617" lon="3.01605">
        <ele>554.3</ele>
        <time>2021-03-06T14:52:54Z</time>
      </trkpt>
      <trkpt lat="44.10616" lon="3.01605">
        <ele>553.5</ele>
        <time>2021-03-06T14:52:55Z</time>
      </trkpt>
      <trkpt lat="44.1061" lon="3.01603">
        <ele>553.6</ele>
        <time>2021-03-06T14:52:57Z</time>
      </trkpt>
      <trkpt lat="44.10608" lon="3.01602">
        <ele>553.4</ele>
        <time>2021-03-06T14:52:58Z</time>
      </trkpt>
      <trkpt lat="44.10606" lon="3.01602">
        <ele>553.3</ele>
        <time>2021-03-06T14:52:59Z</time>
      </trkpt>
      <trkpt lat="44.106" lon="3.01602">
        <ele>553.5</ele>
        <time>2021-03-06T14:53:01Z</time>
      </trkpt>
      <trkpt lat="44.10595" lon="3.01601">
        <ele>553.7</ele>
        <time>2021-03-06T14:53:02Z</time>
      </trkpt>
      <trkpt lat="44.10591" lon="3.016">
        <ele>552.4</ele>
        <time>2021-03-06T14:53:03Z</time>
      </trkpt>
      <trkpt lat="44.10588" lon="3.016">
        <ele>552.4</ele>
        <time>2021-03-06T14:53:04Z</time>
      </trkpt>
      <trkpt lat="44.10584" lon="3.01601">
        <ele>553.6</ele>
        <time>2021-03-06T14:53:06Z</time>
      </trkpt>
      <trkpt lat="44.1058" lon="3.01601">
        <ele>553.6</ele>
        <time>2021-03-06T14:53:07Z</time>
      </trkpt>
      <trkpt lat="44.10575" lon="3.01601">
        <ele>553.7</ele>
        <time>2021-03-06T14:53:08Z</time>
      </trkpt>
      <trkpt lat="44.10571" lon="3.01602">
        <ele>553.6</ele>
        <time>2021-03-06T14:53:10Z</time>
      </trkpt>
      <trkpt lat="44.10567" lon="3.01602">
        <ele>553.6</ele>
        <time>2021-03-06T14:53:11Z</time>
      </trkpt>
      <trkpt lat="44.10564" lon="3.01602">
        <ele>553.5</ele>
        <time>2021-03-06T14:53:12Z</time>
      </trkpt>
      <trkpt lat="44.10561" lon="3.01602">
        <ele>553.3</ele>
        <time>2021-03-06T14:53:13Z</time>
      </trkpt>
      <trkpt lat="44.10558" lon="3.01602">
        <ele>553.2</ele>
        <time>2021-03-06T14:53:14Z</time>
      </trkpt>
      <trkpt lat="44.10555" lon="3.01603">
        <ele>553</ele>
        <time>2021-03-06T14:53:15Z</time>
      </trkpt>
      <trkpt lat="44.10552" lon="3.01604">
        <ele>552.8</ele>
        <time>2021-03-06T14:53:16Z</time>
      </trkpt>
      <trkpt lat="44.10548" lon="3.01604">
        <ele>552.6</ele>
        <time>2021-03-06T14:53:18Z</time>
      </trkpt>
      <trkpt lat="44.10544" lon="3.01605">
        <ele>554.2</ele>
        <time>2021-03-06T14:53:19Z</time>
      </trkpt>
      <trkpt lat="44.10541" lon="3.01605">
        <ele>554</ele>
        <time>2021-03-06T14:53:20Z</time>
      </trkpt>
      <trkpt lat="44.10537" lon="3.01606">
        <ele>553.8</ele>
        <time>2021-03-06T14:53:22Z</time>
      </trkpt>
      <trkpt lat="44.10534" lon="3.01606">
        <ele>553.5</ele>
        <time>2021-03-06T14:53:23Z</time>
      </trkpt>
      <trkpt lat="44.10531" lon="3.01607">
        <ele>553.3</ele>
        <time>2021-03-06T14:53:24Z</time>
      </trkpt>
      <trkpt lat="44.10527" lon="3.01607">
        <ele>552.9</ele>
        <time>2021-03-06T14:53:25Z</time>
      </trkpt>
      <trkpt lat="44.10524" lon="3.01608">
        <ele>552.6</ele>
        <time>2021-03-06T14:53:27Z</time>
      </trkpt>
      <trkpt lat="44.10521" lon="3.01609">
        <ele>552.2</ele>
        <time>2021-03-06T14:53:28Z</time>
      </trkpt>
      <trkpt lat="44.10517" lon="3.0161">
        <ele>553.6</ele>
        <time>2021-03-06T14:53:29Z</time>
      </trkpt>
      <trkpt lat="44.10516" lon="3.0161">
        <ele>553.4</ele>
        <time>2021-03-06T14:53:30Z</time>
      </trkpt>
      <trkpt lat="44.10513" lon="3.01612">
        <ele>553</ele>
        <time>2021-03-06T14:53:31Z</time>
      </trkpt>
      <trkpt lat="44.10511" lon="3.01613">
        <ele>552.5</ele>
        <time>2021-03-06T14:53:32Z</time>
      </trkpt>
      <trkpt lat="44.10508" lon="3.01615">
        <ele>553.8</ele>
        <time>2021-03-06T14:53:34Z</time>
      </trkpt>
      <trkpt lat="44.10504" lon="3.01617">
        <ele>553.2</ele>
        <time>2021-03-06T14:53:36Z</time>
      </trkpt>
      <trkpt lat="44.10501" lon="3.0162">
        <ele>554.2</ele>
        <time>2021-03-06T14:53:37Z</time>
      </trkpt>
      <trkpt lat="44.105" lon="3.0162">
        <ele>553.4</ele>
        <time>2021-03-06T14:53:38Z</time>
      </trkpt>
      <trkpt lat="44.10497" lon="3.01622">
        <ele>553.2</ele>
        <time>2021-03-06T14:53:39Z</time>
      </trkpt>
      <trkpt lat="44.10495" lon="3.01624">
        <ele>554</ele>
        <time>2021-03-06T14:53:40Z</time>
      </trkpt>
      <trkpt lat="44.10492" lon="3.01626">
        <ele>553.2</ele>
        <time>2021-03-06T14:53:42Z</time>
      </trkpt>
      <trkpt lat="44.10489" lon="3.01629">
        <ele>553.9</ele>
        <time>2021-03-06T14:53:43Z</time>
      </trkpt>
      <trkpt lat="44.10487" lon="3.01631">
        <ele>554.6</ele>
        <time>2021-03-06T14:53:45Z</time>
      </trkpt>
      <trkpt lat="44.10486" lon="3.01635">
        <ele>554.4</ele>
        <time>2021-03-06T14:53:47Z</time>
      </trkpt>
      <trkpt lat="44.10485" lon="3.01638">
        <ele>555.7</ele>
        <time>2021-03-06T14:53:48Z</time>
      </trkpt>
      <trkpt lat="44.10484" lon="3.0164">
        <ele>556.5</ele>
        <time>2021-03-06T14:53:49Z</time>
      </trkpt>
      <trkpt lat="44.10484" lon="3.01644">
        <ele>557.9</ele>
        <time>2021-03-06T14:53:51Z</time>
      </trkpt>
      <trkpt lat="44.10483" lon="3.01646">
        <ele>557.7</ele>
        <time>2021-03-06T14:53:52Z</time>
      </trkpt>
      <trkpt lat="44.10482" lon="3.01649">
        <ele>559.1</ele>
        <time>2021-03-06T14:53:53Z</time>
      </trkpt>
      <trkpt lat="44.10481" lon="3.01651">
        <ele>558.9</ele>
        <time>2021-03-06T14:53:55Z</time>
      </trkpt>
      <trkpt lat="44.1048" lon="3.01655">
        <ele>559.5</ele>
        <time>2021-03-06T14:53:56Z</time>
      </trkpt>
      <trkpt lat="44.1048" lon="3.01657">
        <ele>560.7</ele>
        <time>2021-03-06T14:53:57Z</time>
      </trkpt>
      <trkpt lat="44.10479" lon="3.01659">
        <ele>560.5</ele>
        <time>2021-03-06T14:53:59Z</time>
      </trkpt>
      <trkpt lat="44.10479" lon="3.01662">
        <ele>561.7</ele>
        <time>2021-03-06T14:54:00Z</time>
      </trkpt>
      <trkpt lat="44.10478" lon="3.01665">
        <ele>562.8</ele>
        <time>2021-03-06T14:54:01Z</time>
      </trkpt>
      <trkpt lat="44.10478" lon="3.01667">
        <ele>561.8</ele>
        <time>2021-03-06T14:54:02Z</time>
      </trkpt>
      <trkpt lat="44.10478" lon="3.0167">
        <ele>562.7</ele>
        <time>2021-03-06T14:54:04Z</time>
      </trkpt>
      <trkpt lat="44.10477" lon="3.01673">
        <ele>562.5</ele>
        <time>2021-03-06T14:54:06Z</time>
      </trkpt>
      <trkpt lat="44.10476" lon="3.01674">
        <ele>563.4</ele>
        <time>2021-03-06T14:54:07Z</time>
      </trkpt>
      <trkpt lat="44.10476" lon="3.01677">
        <ele>563.2</ele>
        <time>2021-03-06T14:54:09Z</time>
      </trkpt>
      <trkpt lat="44.10475" lon="3.01679">
        <ele>564</ele>
        <time>2021-03-06T14:54:10Z</time>
      </trkpt>
      <trkpt lat="44.10476" lon="3.01682">
        <ele>563.8</ele>
        <time>2021-03-06T14:54:12Z</time>
      </trkpt>
      <trkpt lat="44.10476" lon="3.01684">
        <ele>564.5</ele>
        <time>2021-03-06T14:54:13Z</time>
      </trkpt>
      <trkpt lat="44.10476" lon="3.01686">
        <ele>564.3</ele>
        <time>2021-03-06T14:54:14Z</time>
      </trkpt>
      <trkpt lat="44.10476" lon="3.01688">
        <ele>565.1</ele>
        <time>2021-03-06T14:54:15Z</time>
      </trkpt>
      <trkpt lat="44.10476" lon="3.0169">
        <ele>564.9</ele>
        <time>2021-03-06T14:54:16Z</time>
      </trkpt>
      <trkpt lat="44.10475" lon="3.01692">
        <ele>564.7</ele>
        <time>2021-03-06T14:54:18Z</time>
      </trkpt>
      <trkpt lat="44.10475" lon="3.01694">
        <ele>565.5</ele>
        <time>2021-03-06T14:54:19Z</time>
      </trkpt>
      <trkpt lat="44.10475" lon="3.01695">
        <ele>565.2</ele>
        <time>2021-03-06T14:54:20Z</time>
      </trkpt>
      <trkpt lat="44.10475" lon="3.01696">
        <ele>566</ele>
        <time>2021-03-06T14:54:21Z</time>
      </trkpt>
      <trkpt lat="44.10475" lon="3.01698">
        <ele>565.8</ele>
        <time>2021-03-06T14:54:22Z</time>
      </trkpt>
      <trkpt lat="44.10475" lon="3.01699">
        <ele>565.6</ele>
        <time>2021-03-06T14:54:23Z</time>
      </trkpt>
      <trkpt lat="44.10475" lon="3.01701">
        <ele>565.2</ele>
        <time>2021-03-06T14:54:25Z</time>
      </trkpt>
      <trkpt lat="44.10475" lon="3.01702">
        <ele>565</ele>
        <time>2021-03-06T14:54:26Z</time>
      </trkpt>
      <trkpt lat="44.10475" lon="3.01704">
        <ele>565.6</ele>
        <time>2021-03-06T14:54:27Z</time>
      </trkpt>
      <trkpt lat="44.10475" lon="3.01706">
        <ele>565.4</ele>
        <time>2021-03-06T14:54:29Z</time>
      </trkpt>
      <trkpt lat="44.10474" lon="3.01708">
        <ele>565.2</ele>
        <time>2021-03-06T14:54:30Z</time>
      </trkpt>
      <trkpt lat="44.10474" lon="3.01712">
        <ele>566.4</ele>
        <time>2021-03-06T14:54:32Z</time>
      </trkpt>
      <trkpt lat="44.10473" lon="3.01713">
        <ele>566.2</ele>
        <time>2021-03-06T14:54:33Z</time>
      </trkpt>
      <trkpt lat="44.10473" lon="3.01716">
        <ele>566</ele>
        <time>2021-03-06T14:54:35Z</time>
      </trkpt>
      <trkpt lat="44.10472" lon="3.01719">
        <ele>565.3</ele>
        <time>2021-03-06T14:54:37Z</time>
      </trkpt>
      <trkpt lat="44.10471" lon="3.01721">
        <ele>565.8</ele>
        <time>2021-03-06T14:54:38Z</time>
      </trkpt>
      <trkpt lat="44.10471" lon="3.01722">
        <ele>565.6</ele>
        <time>2021-03-06T14:54:39Z</time>
      </trkpt>
      <trkpt lat="44.1047" lon="3.01724">
        <ele>565.4</ele>
        <time>2021-03-06T14:54:40Z</time>
      </trkpt>
      <trkpt lat="44.10469" lon="3.01726">
        <ele>564.7</ele>
        <time>2021-03-06T14:54:41Z</time>
      </trkpt>
      <trkpt lat="44.10468" lon="3.01729">
        <ele>564.5</ele>
        <time>2021-03-06T14:54:42Z</time>
      </trkpt>
      <trkpt lat="44.10467" lon="3.01732">
        <ele>564.9</ele>
        <time>2021-03-06T14:54:44Z</time>
      </trkpt>
      <trkpt lat="44.10466" lon="3.01736">
        <ele>564.3</ele>
        <time>2021-03-06T14:54:45Z</time>
      </trkpt>
      <trkpt lat="44.10464" lon="3.01741">
        <ele>564.8</ele>
        <time>2021-03-06T14:54:47Z</time>
      </trkpt>
      <trkpt lat="44.10462" lon="3.01746">
        <ele>564.3</ele>
        <time>2021-03-06T14:54:48Z</time>
      </trkpt>
      <trkpt lat="44.10462" lon="3.01747">
        <ele>564.8</ele>
        <time>2021-03-06T14:54:49Z</time>
      </trkpt>
      <trkpt lat="44.1046" lon="3.01752">
        <ele>565.2</ele>
        <time>2021-03-06T14:54:50Z</time>
      </trkpt>
      <trkpt lat="44.10458" lon="3.01757">
        <ele>564.6</ele>
        <time>2021-03-06T14:54:52Z</time>
      </trkpt>
      <trkpt lat="44.10457" lon="3.01761">
        <ele>564.9</ele>
        <time>2021-03-06T14:54:53Z</time>
      </trkpt>
      <trkpt lat="44.10456" lon="3.01766">
        <ele>564.2</ele>
        <time>2021-03-06T14:54:54Z</time>
      </trkpt>
      <trkpt lat="44.10455" lon="3.01771">
        <ele>564.5</ele>
        <time>2021-03-06T14:54:55Z</time>
      </trkpt>
      <trkpt lat="44.10454" lon="3.01774">
        <ele>564.7</ele>
        <time>2021-03-06T14:54:56Z</time>
      </trkpt>
      <trkpt lat="44.10453" lon="3.01778">
        <ele>564</ele>
        <time>2021-03-06T14:54:58Z</time>
      </trkpt>
      <trkpt lat="44.10451" lon="3.01784">
        <ele>564.2</ele>
        <time>2021-03-06T14:55:00Z</time>
      </trkpt>
      <trkpt lat="44.10449" lon="3.01789">
        <ele>563.4</ele>
        <time>2021-03-06T14:55:01Z</time>
      </trkpt>
      <trkpt lat="44.10449" lon="3.01793">
        <ele>563.6</ele>
        <time>2021-03-06T14:55:02Z</time>
      </trkpt>
      <trkpt lat="44.10448" lon="3.01801">
        <ele>564.1</ele>
        <time>2021-03-06T14:55:04Z</time>
      </trkpt>
      <trkpt lat="44.10447" lon="3.01805">
        <ele>563.1</ele>
        <time>2021-03-06T14:55:05Z</time>
      </trkpt>
      <trkpt lat="44.10447" lon="3.0181">
        <ele>563.2</ele>
        <time>2021-03-06T14:55:06Z</time>
      </trkpt>
      <trkpt lat="44.10447" lon="3.01814">
        <ele>563.3</ele>
        <time>2021-03-06T14:55:07Z</time>
      </trkpt>
      <trkpt lat="44.10446" lon="3.01818">
        <ele>563.4</ele>
        <time>2021-03-06T14:55:08Z</time>
      </trkpt>
      <trkpt lat="44.10445" lon="3.01823">
        <ele>563.4</ele>
        <time>2021-03-06T14:55:09Z</time>
      </trkpt>
      <trkpt lat="44.10445" lon="3.01828">
        <ele>563.5</ele>
        <time>2021-03-06T14:55:11Z</time>
      </trkpt>
      <trkpt lat="44.10445" lon="3.01832">
        <ele>563.6</ele>
        <time>2021-03-06T14:55:12Z</time>
      </trkpt>
      <trkpt lat="44.10445" lon="3.01837">
        <ele>564</ele>
        <time>2021-03-06T14:55:13Z</time>
      </trkpt>
      <trkpt lat="44.10445" lon="3.01842">
        <ele>564</ele>
        <time>2021-03-06T14:55:14Z</time>
      </trkpt>
      <trkpt lat="44.10446" lon="3.01846">
        <ele>564.5</ele>
        <time>2021-03-06T14:55:16Z</time>
      </trkpt>
      <trkpt lat="44.10447" lon="3.01852">
        <ele>565.2</ele>
        <time>2021-03-06T14:55:18Z</time>
      </trkpt>
      <trkpt lat="44.10449" lon="3.01858">
        <ele>565.8</ele>
        <time>2021-03-06T14:55:20Z</time>
      </trkpt>
      <trkpt lat="44.10451" lon="3.01863">
        <ele>566.4</ele>
        <time>2021-03-06T14:55:21Z</time>
      </trkpt>
      <trkpt lat="44.10452" lon="3.01865">
        <ele>566.7</ele>
        <time>2021-03-06T14:55:22Z</time>
      </trkpt>
      <trkpt lat="44.10453" lon="3.01869">
        <ele>567.1</ele>
        <time>2021-03-06T14:55:24Z</time>
      </trkpt>
      <trkpt lat="44.10454" lon="3.01872">
        <ele>567.4</ele>
        <time>2021-03-06T14:55:25Z</time>
      </trkpt>
      <trkpt lat="44.10455" lon="3.01874">
        <ele>567.7</ele>
        <time>2021-03-06T14:55:27Z</time>
      </trkpt>
      <trkpt lat="44.10456" lon="3.01876">
        <ele>568</ele>
        <time>2021-03-06T14:55:28Z</time>
      </trkpt>
      <trkpt lat="44.10457" lon="3.01878">
        <ele>568.3</ele>
        <time>2021-03-06T14:55:29Z</time>
      </trkpt>
      <trkpt lat="44.10458" lon="3.01879">
        <ele>568.4</ele>
        <time>2021-03-06T14:55:31Z</time>
      </trkpt>
      <trkpt lat="44.10459" lon="3.01878">
        <ele>568.6</ele>
        <time>2021-03-06T14:55:32Z</time>
      </trkpt>
      <trkpt lat="44.10459" lon="3.0188">
        <ele>568.7</ele>
        <time>2021-03-06T14:55:33Z</time>
      </trkpt>
      <trkpt lat="44.1046" lon="3.01881">
        <ele>568.9</ele>
        <time>2021-03-06T14:55:34Z</time>
      </trkpt>
      <trkpt lat="44.1046" lon="3.01882">
        <ele>569</ele>
        <time>2021-03-06T14:55:35Z</time>
      </trkpt>
      <trkpt lat="44.1046" lon="3.01884">
        <ele>569.2</ele>
        <time>2021-03-06T14:55:37Z</time>
      </trkpt>
      <trkpt lat="44.10461" lon="3.01885">
        <ele>569.3</ele>
        <time>2021-03-06T14:55:38Z</time>
      </trkpt>
      <trkpt lat="44.10461" lon="3.01885">
        <ele>569.4</ele>
        <time>2021-03-06T14:55:39Z</time>
      </trkpt>
      <trkpt lat="44.10462" lon="3.01886">
        <ele>569.5</ele>
        <time>2021-03-06T14:55:40Z</time>
      </trkpt>
      <trkpt lat="44.10463" lon="3.01888">
        <ele>569.7</ele>
        <time>2021-03-06T14:55:41Z</time>
      </trkpt>
      <trkpt lat="44.10463" lon="3.01889">
        <ele>569.9</ele>
        <time>2021-03-06T14:55:43Z</time>
      </trkpt>
      <trkpt lat="44.10463" lon="3.01889">
        <ele>570</ele>
        <time>2021-03-06T14:55:44Z</time>
      </trkpt>
      <trkpt lat="44.10463" lon="3.01889">
        <ele>570</ele>
        <time>2021-03-06T14:55:46Z</time>
      </trkpt>
      <trkpt lat="44.10463" lon="3.01889">
        <ele>570</ele>
        <time>2021-03-06T14:55:47Z</time>
      </trkpt>
      <trkpt lat="44.10463" lon="3.01889">
        <ele>570</ele>
        <time>2021-03-06T14:55:49Z</time>
      </trkpt>
      <trkpt lat="44.10463" lon="3.01889">
        <ele>570</ele>
        <time>2021-03-06T14:55:51Z</time>
      </trkpt>
      <trkpt lat="44.10466" lon="3.01889">
        <ele>570.4</ele>
        <time>2021-03-06T14:56:21Z</time>
      </trkpt>
      <trkpt lat="44.10467" lon="3.01888">
        <ele>570.5</ele>
        <time>2021-03-06T14:56:22Z</time>
      </trkpt>
      <trkpt lat="44.10468" lon="3.01888">
        <ele>570.7</ele>
        <time>2021-03-06T14:56:24Z</time>
      </trkpt>
      <trkpt lat="44.10469" lon="3.01888">
        <ele>570.8</ele>
        <time>2021-03-06T14:56:25Z</time>
      </trkpt>
      <trkpt lat="44.1047" lon="3.01888">
        <ele>571</ele>
        <time>2021-03-06T14:56:26Z</time>
      </trkpt>
      <trkpt lat="44.10471" lon="3.01888">
        <ele>571.1</ele>
        <time>2021-03-06T14:56:27Z</time>
      </trkpt>
      <trkpt lat="44.10472" lon="3.01889">
        <ele>571.3</ele>
        <time>2021-03-06T14:56:29Z</time>
      </trkpt>
      <trkpt lat="44.10473" lon="3.01889">
        <ele>571.5</ele>
        <time>2021-03-06T14:56:31Z</time>
      </trkpt>
      <trkpt lat="44.10474" lon="3.0189">
        <ele>571.6</ele>
        <time>2021-03-06T14:56:32Z</time>
      </trkpt>
      <trkpt lat="44.10475" lon="3.0189">
        <ele>571.8</ele>
        <time>2021-03-06T14:56:34Z</time>
      </trkpt>
      <trkpt lat="44.10476" lon="3.01889">
        <ele>572</ele>
        <time>2021-03-06T14:56:36Z</time>
      </trkpt>
      <trkpt lat="44.10477" lon="3.01888">
        <ele>572.1</ele>
        <time>2021-03-06T14:56:37Z</time>
      </trkpt>
      <trkpt lat="44.10478" lon="3.01888">
        <ele>572.3</ele>
        <time>2021-03-06T14:56:38Z</time>
      </trkpt>
      <trkpt lat="44.10479" lon="3.01889">
        <ele>572.4</ele>
        <time>2021-03-06T14:56:39Z</time>
      </trkpt>
      <trkpt lat="44.10481" lon="3.0189">
        <ele>572.7</ele>
        <time>2021-03-06T14:56:41Z</time>
      </trkpt>
      <trkpt lat="44.10481" lon="3.0189">
        <ele>572.8</ele>
        <time>2021-03-06T14:56:42Z</time>
      </trkpt>
      <trkpt lat="44.10483" lon="3.01891">
        <ele>573</ele>
        <time>2021-03-06T14:56:43Z</time>
      </trkpt>
      <trkpt lat="44.10484" lon="3.01891">
        <ele>573.2</ele>
        <time>2021-03-06T14:56:45Z</time>
      </trkpt>
      <trkpt lat="44.10485" lon="3.01891">
        <ele>573.3</ele>
        <time>2021-03-06T14:56:46Z</time>
      </trkpt>
      <trkpt lat="44.10487" lon="3.01892">
        <ele>573.6</ele>
        <time>2021-03-06T14:56:47Z</time>
      </trkpt>
      <trkpt lat="44.10489" lon="3.01894">
        <ele>574</ele>
        <time>2021-03-06T14:56:49Z</time>
      </trkpt>
      <trkpt lat="44.1049" lon="3.01895">
        <ele>574.2</ele>
        <time>2021-03-06T14:56:50Z</time>
      </trkpt>
      <trkpt lat="44.10491" lon="3.01897">
        <ele>574.4</ele>
        <time>2021-03-06T14:56:51Z</time>
      </trkpt>
      <trkpt lat="44.10492" lon="3.01898">
        <ele>574.6</ele>
        <time>2021-03-06T14:56:53Z</time>
      </trkpt>
      <trkpt lat="44.10494" lon="3.019">
        <ele>574.9</ele>
        <time>2021-03-06T14:56:55Z</time>
      </trkpt>
      <trkpt lat="44.10495" lon="3.01901">
        <ele>575.1</ele>
        <time>2021-03-06T14:56:56Z</time>
      </trkpt>
      <trkpt lat="44.10496" lon="3.01902">
        <ele>575.3</ele>
        <time>2021-03-06T14:56:58Z</time>
      </trkpt>
      <trkpt lat="44.10497" lon="3.01903">
        <ele>575.5</ele>
        <time>2021-03-06T14:56:59Z</time>
      </trkpt>
      <trkpt lat="44.10498" lon="3.01904">
        <ele>575.7</ele>
        <time>2021-03-06T14:57:01Z</time>
      </trkpt>
      <trkpt lat="44.10498" lon="3.01905">
        <ele>575.8</ele>
        <time>2021-03-06T14:57:02Z</time>
      </trkpt>
      <trkpt lat="44.10499" lon="3.01906">
        <ele>575.9</ele>
        <time>2021-03-06T14:57:03Z</time>
      </trkpt>
      <trkpt lat="44.105" lon="3.01907">
        <ele>576.1</ele>
        <time>2021-03-06T14:57:05Z</time>
      </trkpt>
      <trkpt lat="44.10502" lon="3.01908">
        <ele>576.4</ele>
        <time>2021-03-06T14:57:06Z</time>
      </trkpt>
      <trkpt lat="44.10503" lon="3.01909">
        <ele>576.5</ele>
        <time>2021-03-06T14:57:07Z</time>
      </trkpt>
      <trkpt lat="44.10503" lon="3.0191">
        <ele>576.7</ele>
        <time>2021-03-06T14:57:09Z</time>
      </trkpt>
      <trkpt lat="44.10504" lon="3.01911">
        <ele>576.9</ele>
        <time>2021-03-06T14:57:10Z</time>
      </trkpt>
      <trkpt lat="44.10505" lon="3.01912">
        <ele>577</ele>
        <time>2021-03-06T14:57:11Z</time>
      </trkpt>
      <trkpt lat="44.10507" lon="3.01913">
        <ele>577.3</ele>
        <time>2021-03-06T14:57:13Z</time>
      </trkpt>
      <trkpt lat="44.10507" lon="3.01914">
        <ele>577.4</ele>
        <time>2021-03-06T14:57:15Z</time>
      </trkpt>
      <trkpt lat="44.10508" lon="3.01914">
        <ele>577.4</ele>
        <time>2021-03-06T14:57:16Z</time>
      </trkpt>
      <trkpt lat="44.10508" lon="3.01915">
        <ele>577.5</ele>
        <time>2021-03-06T14:57:18Z</time>
      </trkpt>
      <trkpt lat="44.10508" lon="3.01915">
        <ele>577.6</ele>
        <time>2021-03-06T14:57:19Z</time>
      </trkpt>
      <trkpt lat="44.1051" lon="3.01917">
        <ele>577.9</ele>
        <time>2021-03-06T14:57:21Z</time>
      </trkpt>
      <trkpt lat="44.1051" lon="3.01919">
        <ele>578.1</ele>
        <time>2021-03-06T14:57:22Z</time>
      </trkpt>
      <trkpt lat="44.10511" lon="3.0192">
        <ele>578.3</ele>
        <time>2021-03-06T14:57:23Z</time>
      </trkpt>
      <trkpt lat="44.10512" lon="3.01921">
        <ele>578.5</ele>
        <time>2021-03-06T14:57:24Z</time>
      </trkpt>
      <trkpt lat="44.10514" lon="3.01922">
        <ele>578.7</ele>
        <time>2021-03-06T14:57:26Z</time>
      </trkpt>
      <trkpt lat="44.10515" lon="3.01923">
        <ele>578.9</ele>
        <time>2021-03-06T14:57:27Z</time>
      </trkpt>
      <trkpt lat="44.10517" lon="3.01924">
        <ele>579.2</ele>
        <time>2021-03-06T14:57:29Z</time>
      </trkpt>
      <trkpt lat="44.1052" lon="3.01927">
        <ele>579.7</ele>
        <time>2021-03-06T14:57:31Z</time>
      </trkpt>
      <trkpt lat="44.10521" lon="3.01928">
        <ele>579.9</ele>
        <time>2021-03-06T14:57:32Z</time>
      </trkpt>
      <trkpt lat="44.10523" lon="3.0193">
        <ele>580.3</ele>
        <time>2021-03-06T14:57:34Z</time>
      </trkpt>
      <trkpt lat="44.10524" lon="3.01931">
        <ele>580.5</ele>
        <time>2021-03-06T14:57:35Z</time>
      </trkpt>
      <trkpt lat="44.10527" lon="3.01932">
        <ele>580.8</ele>
        <time>2021-03-06T14:57:37Z</time>
      </trkpt>
      <trkpt lat="44.10527" lon="3.01933">
        <ele>581</ele>
        <time>2021-03-06T14:57:38Z</time>
      </trkpt>
      <trkpt lat="44.10529" lon="3.01934">
        <ele>581.2</ele>
        <time>2021-03-06T14:57:39Z</time>
      </trkpt>
      <trkpt lat="44.1053" lon="3.01935">
        <ele>581.4</ele>
        <time>2021-03-06T14:57:41Z</time>
      </trkpt>
      <trkpt lat="44.10531" lon="3.01936">
        <ele>581.7</ele>
        <time>2021-03-06T14:57:43Z</time>
      </trkpt>
      <trkpt lat="44.10533" lon="3.01937">
        <ele>581.9</ele>
        <time>2021-03-06T14:57:45Z</time>
      </trkpt>
      <trkpt lat="44.10534" lon="3.01937">
        <ele>582.1</ele>
        <time>2021-03-06T14:57:46Z</time>
      </trkpt>
      <trkpt lat="44.10536" lon="3.01939">
        <ele>582.4</ele>
        <time>2021-03-06T14:57:48Z</time>
      </trkpt>
      <trkpt lat="44.10538" lon="3.0194">
        <ele>582.7</ele>
        <time>2021-03-06T14:57:50Z</time>
      </trkpt>
      <trkpt lat="44.10539" lon="3.01941">
        <ele>582.9</ele>
        <time>2021-03-06T14:57:51Z</time>
      </trkpt>
      <trkpt lat="44.10541" lon="3.01941">
        <ele>583.1</ele>
        <time>2021-03-06T14:57:53Z</time>
      </trkpt>
      <trkpt lat="44.10542" lon="3.01942">
        <ele>583.3</ele>
        <time>2021-03-06T14:57:54Z</time>
      </trkpt>
      <trkpt lat="44.10543" lon="3.01942">
        <ele>583.5</ele>
        <time>2021-03-06T14:57:56Z</time>
      </trkpt>
      <trkpt lat="44.10545" lon="3.01942">
        <ele>583.7</ele>
        <time>2021-03-06T14:57:57Z</time>
      </trkpt>
      <trkpt lat="44.10545" lon="3.01943">
        <ele>583.8</ele>
        <time>2021-03-06T14:57:58Z</time>
      </trkpt>
      <trkpt lat="44.10547" lon="3.01945">
        <ele>584.1</ele>
        <time>2021-03-06T14:57:59Z</time>
      </trkpt>
      <trkpt lat="44.10548" lon="3.01945">
        <ele>584.3</ele>
        <time>2021-03-06T14:58:01Z</time>
      </trkpt>
      <trkpt lat="44.10551" lon="3.01946">
        <ele>584.7</ele>
        <time>2021-03-06T14:58:03Z</time>
      </trkpt>
      <trkpt lat="44.10552" lon="3.01947">
        <ele>584.9</ele>
        <time>2021-03-06T14:58:04Z</time>
      </trkpt>
      <trkpt lat="44.10553" lon="3.01948">
        <ele>585.1</ele>
        <time>2021-03-06T14:58:06Z</time>
      </trkpt>
      <trkpt lat="44.10555" lon="3.0195">
        <ele>585.5</ele>
        <time>2021-03-06T14:58:08Z</time>
      </trkpt>
      <trkpt lat="44.10557" lon="3.01952">
        <ele>585.9</ele>
        <time>2021-03-06T14:58:10Z</time>
      </trkpt>
      <trkpt lat="44.10559" lon="3.01954">
        <ele>586.2</ele>
        <time>2021-03-06T14:58:12Z</time>
      </trkpt>
      <trkpt lat="44.10561" lon="3.01956">
        <ele>586.5</ele>
        <time>2021-03-06T14:58:13Z</time>
      </trkpt>
      <trkpt lat="44.10562" lon="3.01956">
        <ele>586.6</ele>
        <time>2021-03-06T14:58:14Z</time>
      </trkpt>
      <trkpt lat="44.10563" lon="3.01957">
        <ele>586.8</ele>
        <time>2021-03-06T14:58:15Z</time>
      </trkpt>
      <trkpt lat="44.10565" lon="3.01959">
        <ele>587.2</ele>
        <time>2021-03-06T14:58:17Z</time>
      </trkpt>
      <trkpt lat="44.10566" lon="3.0196">
        <ele>587.4</ele>
        <time>2021-03-06T14:58:18Z</time>
      </trkpt>
      <trkpt lat="44.10568" lon="3.0196">
        <ele>587.6</ele>
        <time>2021-03-06T14:58:19Z</time>
      </trkpt>
      <trkpt lat="44.10569" lon="3.01961">
        <ele>587.8</ele>
        <time>2021-03-06T14:58:21Z</time>
      </trkpt>
      <trkpt lat="44.1057" lon="3.01962">
        <ele>588</ele>
        <time>2021-03-06T14:58:22Z</time>
      </trkpt>
      <trkpt lat="44.10572" lon="3.01964">
        <ele>588.3</ele>
        <time>2021-03-06T14:58:24Z</time>
      </trkpt>
      <trkpt lat="44.10574" lon="3.01965">
        <ele>588.6</ele>
        <time>2021-03-06T14:58:25Z</time>
      </trkpt>
      <trkpt lat="44.10575" lon="3.01966">
        <ele>588.8</ele>
        <time>2021-03-06T14:58:26Z</time>
      </trkpt>
      <trkpt lat="44.10575" lon="3.01967">
        <ele>588.9</ele>
        <time>2021-03-06T14:58:27Z</time>
      </trkpt>
      <trkpt lat="44.10577" lon="3.01968">
        <ele>589.1</ele>
        <time>2021-03-06T14:58:29Z</time>
      </trkpt>
      <trkpt lat="44.10578" lon="3.01969">
        <ele>589.3</ele>
        <time>2021-03-06T14:58:30Z</time>
      </trkpt>
      <trkpt lat="44.1058" lon="3.01971">
        <ele>589.7</ele>
        <time>2021-03-06T14:58:31Z</time>
      </trkpt>
      <trkpt lat="44.10581" lon="3.01972">
        <ele>589.9</ele>
        <time>2021-03-06T14:58:33Z</time>
      </trkpt>
      <trkpt lat="44.10584" lon="3.01973">
        <ele>590.3</ele>
        <time>2021-03-06T14:58:34Z</time>
      </trkpt>
      <trkpt lat="44.10585" lon="3.01973">
        <ele>590.5</ele>
        <time>2021-03-06T14:58:35Z</time>
      </trkpt>
      <trkpt lat="44.10587" lon="3.01974">
        <ele>590.8</ele>
        <time>2021-03-06T14:58:36Z</time>
      </trkpt>
      <trkpt lat="44.10589" lon="3.01976">
        <ele>591.1</ele>
        <time>2021-03-06T14:58:38Z</time>
      </trkpt>
      <trkpt lat="44.10591" lon="3.01977">
        <ele>591.4</ele>
        <time>2021-03-06T14:58:39Z</time>
      </trkpt>
      <trkpt lat="44.10594" lon="3.01978">
        <ele>591.8</ele>
        <time>2021-03-06T14:58:41Z</time>
      </trkpt>
      <trkpt lat="44.10595" lon="3.01978">
        <ele>592</ele>
        <time>2021-03-06T14:58:42Z</time>
      </trkpt>
      <trkpt lat="44.10596" lon="3.01978">
        <ele>592.2</ele>
        <time>2021-03-06T14:58:43Z</time>
      </trkpt>
      <trkpt lat="44.10599" lon="3.0198">
        <ele>592.6</ele>
        <time>2021-03-06T14:58:45Z</time>
      </trkpt>
      <trkpt lat="44.10601" lon="3.01981">
        <ele>593</ele>
        <time>2021-03-06T14:58:46Z</time>
      </trkpt>
      <trkpt lat="44.10602" lon="3.01981">
        <ele>593.1</ele>
        <time>2021-03-06T14:58:47Z</time>
      </trkpt>
      <trkpt lat="44.10603" lon="3.01982">
        <ele>593.3</ele>
        <time>2021-03-06T14:58:48Z</time>
      </trkpt>
      <trkpt lat="44.10606" lon="3.01984">
        <ele>593.7</ele>
        <time>2021-03-06T14:58:50Z</time>
      </trkpt>
      <trkpt lat="44.10607" lon="3.01984">
        <ele>593.8</ele>
        <time>2021-03-06T14:58:51Z</time>
      </trkpt>
      <trkpt lat="44.10609" lon="3.01985">
        <ele>594.1</ele>
        <time>2021-03-06T14:58:52Z</time>
      </trkpt>
      <trkpt lat="44.10611" lon="3.01986">
        <ele>594.6</ele>
        <time>2021-03-06T14:58:54Z</time>
      </trkpt>
      <trkpt lat="44.10613" lon="3.01987">
        <ele>594.9</ele>
        <time>2021-03-06T14:58:55Z</time>
      </trkpt>
      <trkpt lat="44.10616" lon="3.01989">
        <ele>595.3</ele>
        <time>2021-03-06T14:58:57Z</time>
      </trkpt>
      <trkpt lat="44.10617" lon="3.01989">
        <ele>595.5</ele>
        <time>2021-03-06T14:58:58Z</time>
      </trkpt>
      <trkpt lat="44.1062" lon="3.01991">
        <ele>595.8</ele>
        <time>2021-03-06T14:59:00Z</time>
      </trkpt>
      <trkpt lat="44.10621" lon="3.01991">
        <ele>596</ele>
        <time>2021-03-06T14:59:01Z</time>
      </trkpt>
      <trkpt lat="44.10623" lon="3.01992">
        <ele>596.4</ele>
        <time>2021-03-06T14:59:03Z</time>
      </trkpt>
      <trkpt lat="44.10626" lon="3.01993">
        <ele>596.8</ele>
        <time>2021-03-06T14:59:05Z</time>
      </trkpt>
      <trkpt lat="44.10628" lon="3.01994">
        <ele>597.1</ele>
        <time>2021-03-06T14:59:07Z</time>
      </trkpt>
      <trkpt lat="44.10629" lon="3.01994">
        <ele>597.3</ele>
        <time>2021-03-06T14:59:08Z</time>
      </trkpt>
      <trkpt lat="44.10631" lon="3.01995">
        <ele>597.6</ele>
        <time>2021-03-06T14:59:09Z</time>
      </trkpt>
      <trkpt lat="44.10633" lon="3.01996">
        <ele>597.8</ele>
        <time>2021-03-06T14:59:10Z</time>
      </trkpt>
      <trkpt lat="44.10634" lon="3.01997">
        <ele>598.1</ele>
        <time>2021-03-06T14:59:11Z</time>
      </trkpt>
      <trkpt lat="44.10637" lon="3.02">
        <ele>598.6</ele>
        <time>2021-03-06T14:59:12Z</time>
      </trkpt>
      <trkpt lat="44.10638" lon="3.02002">
        <ele>598.8</ele>
        <time>2021-03-06T14:59:13Z</time>
      </trkpt>
      <trkpt lat="44.10639" lon="3.02004">
        <ele>599.1</ele>
        <time>2021-03-06T14:59:15Z</time>
      </trkpt>
      <trkpt lat="44.1064" lon="3.02005">
        <ele>599.3</ele>
        <time>2021-03-06T14:59:16Z</time>
      </trkpt>
      <trkpt lat="44.10643" lon="3.02007">
        <ele>599.7</ele>
        <time>2021-03-06T14:59:17Z</time>
      </trkpt>
      <trkpt lat="44.10645" lon="3.02008">
        <ele>600</ele>
        <time>2021-03-06T14:59:18Z</time>
      </trkpt>
      <trkpt lat="44.10647" lon="3.02009">
        <ele>600.4</ele>
        <time>2021-03-06T14:59:20Z</time>
      </trkpt>
      <trkpt lat="44.1065" lon="3.02011">
        <ele>600.9</ele>
        <time>2021-03-06T14:59:22Z</time>
      </trkpt>
      <trkpt lat="44.10652" lon="3.02013">
        <ele>601.2</ele>
        <time>2021-03-06T14:59:24Z</time>
      </trkpt>
      <trkpt lat="44.10656" lon="3.02014">
        <ele>601.8</ele>
        <time>2021-03-06T14:59:26Z</time>
      </trkpt>
      <trkpt lat="44.10658" lon="3.02016">
        <ele>602.2</ele>
        <time>2021-03-06T14:59:27Z</time>
      </trkpt>
      <trkpt lat="44.10663" lon="3.0202">
        <ele>602.9</ele>
        <time>2021-03-06T14:59:29Z</time>
      </trkpt>
      <trkpt lat="44.10664" lon="3.02021">
        <ele>603.2</ele>
        <time>2021-03-06T14:59:30Z</time>
      </trkpt>
      <trkpt lat="44.10665" lon="3.02022">
        <ele>603.4</ele>
        <time>2021-03-06T14:59:31Z</time>
      </trkpt>
      <trkpt lat="44.10669" lon="3.02024">
        <ele>603.9</ele>
        <time>2021-03-06T14:59:33Z</time>
      </trkpt>
      <trkpt lat="44.10672" lon="3.02026">
        <ele>604.5</ele>
        <time>2021-03-06T14:59:35Z</time>
      </trkpt>
      <trkpt lat="44.10675" lon="3.02028">
        <ele>604.9</ele>
        <time>2021-03-06T14:59:36Z</time>
      </trkpt>
      <trkpt lat="44.10676" lon="3.02029">
        <ele>605.1</ele>
        <time>2021-03-06T14:59:37Z</time>
      </trkpt>
      <trkpt lat="44.10678" lon="3.0203">
        <ele>605.4</ele>
        <time>2021-03-06T14:59:38Z</time>
      </trkpt>
      <trkpt lat="44.1068" lon="3.02032">
        <ele>605.8</ele>
        <time>2021-03-06T14:59:40Z</time>
      </trkpt>
      <trkpt lat="44.10681" lon="3.02033">
        <ele>605.9</ele>
        <time>2021-03-06T14:59:41Z</time>
      </trkpt>
      <trkpt lat="44.10684" lon="3.02035">
        <ele>606.5</ele>
        <time>2021-03-06T14:59:42Z</time>
      </trkpt>
      <trkpt lat="44.10686" lon="3.02037">
        <ele>606.8</ele>
        <time>2021-03-06T14:59:43Z</time>
      </trkpt>
      <trkpt lat="44.10689" lon="3.02039">
        <ele>607.2</ele>
        <time>2021-03-06T14:59:45Z</time>
      </trkpt>
      <trkpt lat="44.10693" lon="3.02042">
        <ele>607.9</ele>
        <time>2021-03-06T14:59:47Z</time>
      </trkpt>
      <trkpt lat="44.10696" lon="3.02044">
        <ele>608.4</ele>
        <time>2021-03-06T14:59:48Z</time>
      </trkpt>
      <trkpt lat="44.10699" lon="3.02046">
        <ele>608.9</ele>
        <time>2021-03-06T14:59:50Z</time>
      </trkpt>
      <trkpt lat="44.10701" lon="3.02049">
        <ele>609.4</ele>
        <time>2021-03-06T14:59:51Z</time>
      </trkpt>
      <trkpt lat="44.10705" lon="3.02052">
        <ele>610</ele>
        <time>2021-03-06T14:59:52Z</time>
      </trkpt>
      <trkpt lat="44.10706" lon="3.02054">
        <ele>610.2</ele>
        <time>2021-03-06T14:59:53Z</time>
      </trkpt>
      <trkpt lat="44.1071" lon="3.02058">
        <ele>610.9</ele>
        <time>2021-03-06T14:59:55Z</time>
      </trkpt>
      <trkpt lat="44.10711" lon="3.0206">
        <ele>611.2</ele>
        <time>2021-03-06T14:59:56Z</time>
      </trkpt>
      <trkpt lat="44.10714" lon="3.02064">
        <ele>611.8</ele>
        <time>2021-03-06T14:59:58Z</time>
      </trkpt>
      <trkpt lat="44.10719" lon="3.0207">
        <ele>612.7</ele>
        <time>2021-03-06T15:00:00Z</time>
      </trkpt>
      <trkpt lat="44.10721" lon="3.02073">
        <ele>613.2</ele>
        <time>2021-03-06T15:00:01Z</time>
      </trkpt>
      <trkpt lat="44.10725" lon="3.02078">
        <ele>613.9</ele>
        <time>2021-03-06T15:00:03Z</time>
      </trkpt>
      <trkpt lat="44.10727" lon="3.02081">
        <ele>614.4</ele>
        <time>2021-03-06T15:00:04Z</time>
      </trkpt>
      <trkpt lat="44.1073" lon="3.02084">
        <ele>614.8</ele>
        <time>2021-03-06T15:00:05Z</time>
      </trkpt>
      <trkpt lat="44.10733" lon="3.02088">
        <ele>615.6</ele>
        <time>2021-03-06T15:00:07Z</time>
      </trkpt>
      <trkpt lat="44.10736" lon="3.02091">
        <ele>616</ele>
        <time>2021-03-06T15:00:08Z</time>
      </trkpt>
      <trkpt lat="44.10739" lon="3.02094">
        <ele>616.6</ele>
        <time>2021-03-06T15:00:10Z</time>
      </trkpt>
      <trkpt lat="44.10742" lon="3.02097">
        <ele>617.1</ele>
        <time>2021-03-06T15:00:11Z</time>
      </trkpt>
      <trkpt lat="44.10745" lon="3.02099">
        <ele>617.6</ele>
        <time>2021-03-06T15:00:12Z</time>
      </trkpt>
      <trkpt lat="44.10746" lon="3.021">
        <ele>617.7</ele>
        <time>2021-03-06T15:00:13Z</time>
      </trkpt>
      <trkpt lat="44.10749" lon="3.02102">
        <ele>618.3</ele>
        <time>2021-03-06T15:00:14Z</time>
      </trkpt>
      <trkpt lat="44.10752" lon="3.02105">
        <ele>618.9</ele>
        <time>2021-03-06T15:00:16Z</time>
      </trkpt>
      <trkpt lat="44.10755" lon="3.02108">
        <ele>619.3</ele>
        <time>2021-03-06T15:00:17Z</time>
      </trkpt>
      <trkpt lat="44.10756" lon="3.02108">
        <ele>619.5</ele>
        <time>2021-03-06T15:00:18Z</time>
      </trkpt>
      <trkpt lat="44.10759" lon="3.02109">
        <ele>619.9</ele>
        <time>2021-03-06T15:00:20Z</time>
      </trkpt>
      <trkpt lat="44.10762" lon="3.02111">
        <ele>620.4</ele>
        <time>2021-03-06T15:00:21Z</time>
      </trkpt>
      <trkpt lat="44.10765" lon="3.02112">
        <ele>620.8</ele>
        <time>2021-03-06T15:00:22Z</time>
      </trkpt>
      <trkpt lat="44.10768" lon="3.02115">
        <ele>621.3</ele>
        <time>2021-03-06T15:00:24Z</time>
      </trkpt>
      <trkpt lat="44.10773" lon="3.02118">
        <ele>622.1</ele>
        <time>2021-03-06T15:00:26Z</time>
      </trkpt>
      <trkpt lat="44.10775" lon="3.0212">
        <ele>622.5</ele>
        <time>2021-03-06T15:00:27Z</time>
      </trkpt>
      <trkpt lat="44.10779" lon="3.02123">
        <ele>623.2</ele>
        <time>2021-03-06T15:00:29Z</time>
      </trkpt>
      <trkpt lat="44.10783" lon="3.02124">
        <ele>623.8</ele>
        <time>2021-03-06T15:00:30Z</time>
      </trkpt>
      <trkpt lat="44.10785" lon="3.02124">
        <ele>624</ele>
        <time>2021-03-06T15:00:31Z</time>
      </trkpt>
      <trkpt lat="44.10788" lon="3.02125">
        <ele>624.5</ele>
        <time>2021-03-06T15:00:33Z</time>
      </trkpt>
      <trkpt lat="44.10789" lon="3.02126">
        <ele>624.6</ele>
        <time>2021-03-06T15:00:34Z</time>
      </trkpt>
      <trkpt lat="44.10793" lon="3.02127">
        <ele>625.2</ele>
        <time>2021-03-06T15:00:36Z</time>
      </trkpt>
      <trkpt lat="44.10797" lon="3.02129">
        <ele>625.9</ele>
        <time>2021-03-06T15:00:38Z</time>
      </trkpt>
      <trkpt lat="44.10801" lon="3.02131">
        <ele>626.4</ele>
        <time>2021-03-06T15:00:39Z</time>
      </trkpt>
      <trkpt lat="44.10802" lon="3.02132">
        <ele>626.7</ele>
        <time>2021-03-06T15:00:40Z</time>
      </trkpt>
      <trkpt lat="44.10807" lon="3.02133">
        <ele>627.4</ele>
        <time>2021-03-06T15:00:42Z</time>
      </trkpt>
      <trkpt lat="44.10809" lon="3.02134">
        <ele>627.7</ele>
        <time>2021-03-06T15:00:44Z</time>
      </trkpt>
      <trkpt lat="44.10811" lon="3.02135">
        <ele>628</ele>
        <time>2021-03-06T15:00:45Z</time>
      </trkpt>
      <trkpt lat="44.10812" lon="3.02135">
        <ele>628.3</ele>
        <time>2021-03-06T15:00:46Z</time>
      </trkpt>
      <trkpt lat="44.10816" lon="3.02137">
        <ele>628.8</ele>
        <time>2021-03-06T15:00:48Z</time>
      </trkpt>
      <trkpt lat="44.10819" lon="3.02137">
        <ele>629.2</ele>
        <time>2021-03-06T15:00:49Z</time>
      </trkpt>
      <trkpt lat="44.10823" lon="3.02138">
        <ele>629.8</ele>
        <time>2021-03-06T15:00:51Z</time>
      </trkpt>
      <trkpt lat="44.10825" lon="3.02138">
        <ele>630.2</ele>
        <time>2021-03-06T15:00:52Z</time>
      </trkpt>
      <trkpt lat="44.10826" lon="3.02138">
        <ele>630.3</ele>
        <time>2021-03-06T15:00:53Z</time>
      </trkpt>
      <trkpt lat="44.1083" lon="3.02138">
        <ele>630.9</ele>
        <time>2021-03-06T15:00:55Z</time>
      </trkpt>
      <trkpt lat="44.10834" lon="3.02139">
        <ele>631.5</ele>
        <time>2021-03-06T15:00:57Z</time>
      </trkpt>
      <trkpt lat="44.10836" lon="3.0214">
        <ele>631.7</ele>
        <time>2021-03-06T15:00:58Z</time>
      </trkpt>
      <trkpt lat="44.10838" lon="3.02139">
        <ele>632</ele>
        <time>2021-03-06T15:00:59Z</time>
      </trkpt>
      <trkpt lat="44.10842" lon="3.02138">
        <ele>632.6</ele>
        <time>2021-03-06T15:01:01Z</time>
      </trkpt>
      <trkpt lat="44.10843" lon="3.02138">
        <ele>632.8</ele>
        <time>2021-03-06T15:01:02Z</time>
      </trkpt>
      <trkpt lat="44.10845" lon="3.02138">
        <ele>633</ele>
        <time>2021-03-06T15:01:03Z</time>
      </trkpt>
      <trkpt lat="44.10848" lon="3.02138">
        <ele>633.5</ele>
        <time>2021-03-06T15:01:04Z</time>
      </trkpt>
      <trkpt lat="44.10849" lon="3.02139">
        <ele>633.7</ele>
        <time>2021-03-06T15:01:05Z</time>
      </trkpt>
      <trkpt lat="44.10852" lon="3.02141">
        <ele>634.1</ele>
        <time>2021-03-06T15:01:07Z</time>
      </trkpt>
      <trkpt lat="44.10852" lon="3.02145">
        <ele>634.5</ele>
        <time>2021-03-06T15:01:08Z</time>
      </trkpt>
      <trkpt lat="44.10852" lon="3.02151">
        <ele>635.2</ele>
        <time>2021-03-06T15:01:10Z</time>
      </trkpt>
      <trkpt lat="44.10851" lon="3.02159">
        <ele>634.2</ele>
        <time>2021-03-06T15:01:11Z</time>
      </trkpt>
      <trkpt lat="44.10846" lon="3.0216">
        <ele>628.9</ele>
        <time>2018-05-19T11:43:34Z</time>
      </trkpt>
      <trkpt lat="44.10844" lon="3.02165">
        <ele>628.3</ele>
        <time>2018-05-19T11:43:35Z</time>
      </trkpt>
      <trkpt lat="44.10841" lon="3.02173">
        <ele>627.3</ele>
        <time>2018-05-19T11:43:36Z</time>
      </trkpt>
      <trkpt lat="44.10839" lon="3.02177">
        <ele>626.7</ele>
        <time>2018-05-19T11:43:37Z</time>
      </trkpt>
      <trkpt lat="44.10837" lon="3.02183">
        <ele>626</ele>
        <time>2018-05-19T11:43:38Z</time>
      </trkpt>
      <trkpt lat="44.10835" lon="3.0219">
        <ele>625.2</ele>
        <time>2018-05-19T11:43:39Z</time>
      </trkpt>
      <trkpt lat="44.10834" lon="3.02196">
        <ele>624.4</ele>
        <time>2018-05-19T11:43:40Z</time>
      </trkpt>
      <trkpt lat="44.1083" lon="3.02203">
        <ele>623.8</ele>
        <time>2018-05-19T11:43:41Z</time>
      </trkpt>
      <trkpt lat="44.10827" lon="3.02208">
        <ele>623.7</ele>
        <time>2018-05-19T11:43:42Z</time>
      </trkpt>
      <trkpt lat="44.10823" lon="3.02214">
        <ele>623.5</ele>
        <time>2018-05-19T11:43:43Z</time>
      </trkpt>
      <trkpt lat="44.10818" lon="3.0222">
        <ele>623.1</ele>
        <time>2018-05-19T11:43:44Z</time>
      </trkpt>
      <trkpt lat="44.10813" lon="3.02229">
        <ele>622.1</ele>
        <time>2018-05-19T11:43:45Z</time>
      </trkpt>
      <trkpt lat="44.10807" lon="3.02238">
        <ele>621.7</ele>
        <time>2018-05-19T11:43:46Z</time>
      </trkpt>
      <trkpt lat="44.10801" lon="3.02247">
        <ele>621.4</ele>
        <time>2018-05-19T11:43:47Z</time>
      </trkpt>
      <trkpt lat="44.10797" lon="3.02255">
        <ele>621.1</ele>
        <time>2018-05-19T11:43:48Z</time>
      </trkpt>
      <trkpt lat="44.10793" lon="3.02261">
        <ele>620.6</ele>
        <time>2018-05-19T11:43:49Z</time>
      </trkpt>
      <trkpt lat="44.1079" lon="3.02268">
        <ele>620.2</ele>
        <time>2018-05-19T11:43:50Z</time>
      </trkpt>
      <trkpt lat="44.10785" lon="3.02275">
        <ele>619.9</ele>
        <time>2018-05-19T11:43:51Z</time>
      </trkpt>
      <trkpt lat="44.10781" lon="3.02284">
        <ele>619.7</ele>
        <time>2018-05-19T11:43:52Z</time>
      </trkpt>
      <trkpt lat="44.10775" lon="3.02291">
        <ele>619.6</ele>
        <time>2018-05-19T11:43:53Z</time>
      </trkpt>
      <trkpt lat="44.10771" lon="3.023">
        <ele>619.5</ele>
        <time>2018-05-19T11:43:54Z</time>
      </trkpt>
      <trkpt lat="44.10766" lon="3.02308">
        <ele>619.5</ele>
        <time>2018-05-19T11:43:55Z</time>
      </trkpt>
      <trkpt lat="44.1076" lon="3.02316">
        <ele>619.4</ele>
        <time>2018-05-19T11:43:56Z</time>
      </trkpt>
      <trkpt lat="44.10756" lon="3.02324">
        <ele>619.4</ele>
        <time>2018-05-19T11:43:57Z</time>
      </trkpt>
      <trkpt lat="44.10751" lon="3.02331">
        <ele>619.3</ele>
        <time>2018-05-19T11:43:58Z</time>
      </trkpt>
      <trkpt lat="44.10746" lon="3.02338">
        <ele>619.3</ele>
        <time>2018-05-19T11:43:59Z</time>
      </trkpt>
      <trkpt lat="44.10741" lon="3.02345">
        <ele>619.2</ele>
        <time>2018-05-19T11:44:00Z</time>
      </trkpt>
      <trkpt lat="44.10736" lon="3.02351">
        <ele>619.1</ele>
        <time>2018-05-19T11:44:01Z</time>
      </trkpt>
      <trkpt lat="44.10732" lon="3.02359">
        <ele>619</ele>
        <time>2018-05-19T11:44:02Z</time>
      </trkpt>
      <trkpt lat="44.10728" lon="3.02365">
        <ele>618.9</ele>
        <time>2018-05-19T11:44:03Z</time>
      </trkpt>
      <trkpt lat="44.10723" lon="3.02372">
        <ele>618.4</ele>
        <time>2018-05-19T11:44:04Z</time>
      </trkpt>
      <trkpt lat="44.10718" lon="3.02378">
        <ele>618</ele>
        <time>2018-05-19T11:44:05Z</time>
      </trkpt>
      <trkpt lat="44.10713" lon="3.02386">
        <ele>617.7</ele>
        <time>2018-05-19T11:44:06Z</time>
      </trkpt>
      <trkpt lat="44.10707" lon="3.02393">
        <ele>617.5</ele>
        <time>2018-05-19T11:44:07Z</time>
      </trkpt>
      <trkpt lat="44.10702" lon="3.024">
        <ele>617.4</ele>
        <time>2018-05-19T11:44:08Z</time>
      </trkpt>
      <trkpt lat="44.10695" lon="3.02406">
        <ele>617.1</ele>
        <time>2018-05-19T11:44:09Z</time>
      </trkpt>
      <trkpt lat="44.10688" lon="3.02411">
        <ele>616.9</ele>
        <time>2018-05-19T11:44:10Z</time>
      </trkpt>
      <trkpt lat="44.10682" lon="3.02417">
        <ele>616.2</ele>
        <time>2018-05-19T11:44:11Z</time>
      </trkpt>
      <trkpt lat="44.10675" lon="3.02423">
        <ele>615.8</ele>
        <time>2018-05-19T11:44:12Z</time>
      </trkpt>
      <trkpt lat="44.10668" lon="3.02431">
        <ele>615.5</ele>
        <time>2018-05-19T11:44:13Z</time>
      </trkpt>
      <trkpt lat="44.1066" lon="3.02438">
        <ele>615.2</ele>
        <time>2018-05-19T11:44:14Z</time>
      </trkpt>
      <trkpt lat="44.10651" lon="3.02445">
        <ele>614.9</ele>
        <time>2018-05-19T11:44:15Z</time>
      </trkpt>
      <trkpt lat="44.10644" lon="3.02453">
        <ele>614.5</ele>
        <time>2018-05-19T11:44:16Z</time>
      </trkpt>
      <trkpt lat="44.10637" lon="3.02461">
        <ele>613.7</ele>
        <time>2018-05-19T11:44:17Z</time>
      </trkpt>
      <trkpt lat="44.10629" lon="3.02469">
        <ele>613.3</ele>
        <time>2018-05-19T11:44:18Z</time>
      </trkpt>
      <trkpt lat="44.10621" lon="3.02475">
        <ele>613</ele>
        <time>2018-05-19T11:44:19Z</time>
      </trkpt>
      <trkpt lat="44.10614" lon="3.02479">
        <ele>612.7</ele>
        <time>2018-05-19T11:44:20Z</time>
      </trkpt>
      <trkpt lat="44.10608" lon="3.02483">
        <ele>612</ele>
        <time>2018-05-19T11:44:21Z</time>
      </trkpt>
      <trkpt lat="44.10602" lon="3.02487">
        <ele>611.6</ele>
        <time>2018-05-19T11:44:22Z</time>
      </trkpt>
      <trkpt lat="44.10596" lon="3.02492">
        <ele>611.3</ele>
        <time>2018-05-19T11:44:23Z</time>
      </trkpt>
      <trkpt lat="44.10593" lon="3.02494">
        <ele>611.2</ele>
        <time>2018-05-19T11:44:24Z</time>
      </trkpt>
      <trkpt lat="44.1059" lon="3.02496">
        <ele>611.1</ele>
        <time>2018-05-19T11:44:26Z</time>
      </trkpt>
      <trkpt lat="44.10587" lon="3.02497">
        <ele>611</ele>
        <time>2018-05-19T11:44:28Z</time>
      </trkpt>
      <trkpt lat="44.10585" lon="3.02501">
        <ele>611</ele>
        <time>2018-05-19T11:44:38Z</time>
      </trkpt>
      <trkpt lat="44.10583" lon="3.02499">
        <ele>611</ele>
        <time>2018-05-19T11:44:58Z</time>
      </trkpt>
      <trkpt lat="44.10583" lon="3.02505">
        <ele>610.9</ele>
        <time>2018-05-19T11:47:15Z</time>
      </trkpt>
      <trkpt lat="44.10579" lon="3.02508">
        <ele>610.9</ele>
        <time>2018-05-19T11:47:17Z</time>
      </trkpt>
      <trkpt lat="44.10576" lon="3.0251">
        <ele>610.9</ele>
        <time>2018-05-19T11:47:18Z</time>
      </trkpt>
      <trkpt lat="44.10573" lon="3.02512">
        <ele>610.9</ele>
        <time>2018-05-19T11:47:19Z</time>
      </trkpt>
      <trkpt lat="44.1057" lon="3.02514">
        <ele>610.9</ele>
        <time>2018-05-19T11:47:20Z</time>
      </trkpt>
      <trkpt lat="44.10567" lon="3.02517">
        <ele>610.8</ele>
        <time>2018-05-19T11:47:21Z</time>
      </trkpt>
      <trkpt lat="44.10564" lon="3.02519">
        <ele>610.8</ele>
        <time>2018-05-19T11:47:22Z</time>
      </trkpt>
      <trkpt lat="44.10561" lon="3.02521">
        <ele>610.8</ele>
        <time>2018-05-19T11:47:23Z</time>
      </trkpt>
      <trkpt lat="44.10559" lon="3.02524">
        <ele>610.8</ele>
        <time>2018-05-19T11:47:24Z</time>
      </trkpt>
      <trkpt lat="44.10556" lon="3.02526">
        <ele>610.8</ele>
        <time>2018-05-19T11:47:25Z</time>
      </trkpt>
      <trkpt lat="44.10553" lon="3.02529">
        <ele>610.7</ele>
        <time>2018-05-19T11:47:26Z</time>
      </trkpt>
      <trkpt lat="44.1055" lon="3.02532">
        <ele>610.7</ele>
        <time>2018-05-19T11:47:27Z</time>
      </trkpt>
      <trkpt lat="44.10546" lon="3.02535">
        <ele>610.7</ele>
        <time>2018-05-19T11:47:28Z</time>
      </trkpt>
      <trkpt lat="44.10543" lon="3.02538">
        <ele>610.7</ele>
        <time>2018-05-19T11:47:29Z</time>
      </trkpt>
      <trkpt lat="44.10539" lon="3.02541">
        <ele>610.6</ele>
        <time>2018-05-19T11:47:30Z</time>
      </trkpt>
      <trkpt lat="44.10536" lon="3.02544">
        <ele>610.5</ele>
        <time>2018-05-19T11:47:31Z</time>
      </trkpt>
      <trkpt lat="44.10532" lon="3.02546">
        <ele>610.4</ele>
        <time>2018-05-19T11:47:32Z</time>
      </trkpt>
      <trkpt lat="44.10529" lon="3.02548">
        <ele>610.3</ele>
        <time>2018-05-19T11:47:33Z</time>
      </trkpt>
      <trkpt lat="44.10526" lon="3.02551">
        <ele>610.3</ele>
        <time>2018-05-19T11:47:34Z</time>
      </trkpt>
      <trkpt lat="44.10523" lon="3.02553">
        <ele>610.2</ele>
        <time>2018-05-19T11:47:35Z</time>
      </trkpt>
      <trkpt lat="44.1052" lon="3.02554">
        <ele>610.1</ele>
        <time>2018-05-19T11:47:36Z</time>
      </trkpt>
      <trkpt lat="44.10517" lon="3.02555">
        <ele>610.1</ele>
        <time>2018-05-19T11:47:37Z</time>
      </trkpt>
      <trkpt lat="44.10514" lon="3.02555">
        <ele>610</ele>
        <time>2018-05-19T11:47:38Z</time>
      </trkpt>
      <trkpt lat="44.1051" lon="3.02555">
        <ele>610</ele>
        <time>2018-05-19T11:47:39Z</time>
      </trkpt>
      <trkpt lat="44.10507" lon="3.02553">
        <ele>610</ele>
        <time>2018-05-19T11:47:40Z</time>
      </trkpt>
      <trkpt lat="44.10504" lon="3.02551">
        <ele>609.9</ele>
        <time>2018-05-19T11:47:41Z</time>
      </trkpt>
      <trkpt lat="44.10501" lon="3.02548">
        <ele>609.9</ele>
        <time>2018-05-19T11:47:42Z</time>
      </trkpt>
      <trkpt lat="44.10498" lon="3.02545">
        <ele>609.9</ele>
        <time>2018-05-19T11:47:43Z</time>
      </trkpt>
      <trkpt lat="44.10495" lon="3.02542">
        <ele>609.9</ele>
        <time>2018-05-19T11:47:44Z</time>
      </trkpt>
      <trkpt lat="44.10493" lon="3.02539">
        <ele>609.9</ele>
        <time>2018-05-19T11:47:45Z</time>
      </trkpt>
      <trkpt lat="44.1049" lon="3.02536">
        <ele>609.9</ele>
        <time>2018-05-19T11:47:46Z</time>
      </trkpt>
      <trkpt lat="44.10488" lon="3.02534">
        <ele>609.9</ele>
        <time>2018-05-19T11:47:47Z</time>
      </trkpt>
      <trkpt lat="44.10485" lon="3.02531">
        <ele>609.8</ele>
        <time>2018-05-19T11:47:48Z</time>
      </trkpt>
      <trkpt lat="44.10483" lon="3.02528">
        <ele>609.8</ele>
        <time>2018-05-19T11:47:49Z</time>
      </trkpt>
      <trkpt lat="44.1048" lon="3.02525">
        <ele>609.8</ele>
        <time>2018-05-19T11:47:50Z</time>
      </trkpt>
      <trkpt lat="44.10478" lon="3.02523">
        <ele>609.8</ele>
        <time>2018-05-19T11:47:51Z</time>
      </trkpt>
      <trkpt lat="44.10475" lon="3.0252">
        <ele>609.8</ele>
        <time>2018-05-19T11:47:52Z</time>
      </trkpt>
      <trkpt lat="44.10473" lon="3.02518">
        <ele>609.8</ele>
        <time>2018-05-19T11:47:53Z</time>
      </trkpt>
      <trkpt lat="44.10471" lon="3.02515">
        <ele>609.7</ele>
        <time>2018-05-19T11:47:54Z</time>
      </trkpt>
      <trkpt lat="44.10468" lon="3.02513">
        <ele>609.7</ele>
        <time>2018-05-19T11:47:55Z</time>
      </trkpt>
      <trkpt lat="44.10466" lon="3.0251">
        <ele>609.7</ele>
        <time>2018-05-19T11:47:56Z</time>
      </trkpt>
      <trkpt lat="44.10463" lon="3.02508">
        <ele>609.7</ele>
        <time>2018-05-19T11:47:57Z</time>
      </trkpt>
      <trkpt lat="44.10461" lon="3.02505">
        <ele>609.7</ele>
        <time>2018-05-19T11:47:58Z</time>
      </trkpt>
      <trkpt lat="44.10458" lon="3.02503">
        <ele>609.6</ele>
        <time>2018-05-19T11:47:59Z</time>
      </trkpt>
      <trkpt lat="44.10456" lon="3.02501">
        <ele>609.6</ele>
        <time>2018-05-19T11:48:00Z</time>
      </trkpt>
      <trkpt lat="44.10453" lon="3.02498">
        <ele>609.6</ele>
        <time>2018-05-19T11:48:01Z</time>
      </trkpt>
      <trkpt lat="44.1045" lon="3.02495">
        <ele>609.6</ele>
        <time>2018-05-19T11:48:02Z</time>
      </trkpt>
      <trkpt lat="44.10448" lon="3.02492">
        <ele>609.5</ele>
        <time>2018-05-19T11:48:03Z</time>
      </trkpt>
      <trkpt lat="44.10446" lon="3.0249">
        <ele>609.5</ele>
        <time>2018-05-19T11:48:04Z</time>
      </trkpt>
      <trkpt lat="44.10443" lon="3.02487">
        <ele>609.5</ele>
        <time>2018-05-19T11:48:05Z</time>
      </trkpt>
      <trkpt lat="44.1044" lon="3.02484">
        <ele>609.5</ele>
        <time>2018-05-19T11:48:06Z</time>
      </trkpt>
      <trkpt lat="44.10437" lon="3.02481">
        <ele>609.4</ele>
        <time>2018-05-19T11:48:07Z</time>
      </trkpt>
      <trkpt lat="44.10435" lon="3.02477">
        <ele>609.4</ele>
        <time>2018-05-19T11:48:08Z</time>
      </trkpt>
      <trkpt lat="44.10432" lon="3.02474">
        <ele>609.4</ele>
        <time>2018-05-19T11:48:09Z</time>
      </trkpt>
      <trkpt lat="44.1043" lon="3.0247">
        <ele>609.4</ele>
        <time>2018-05-19T11:48:10Z</time>
      </trkpt>
      <trkpt lat="44.10427" lon="3.02467">
        <ele>609.3</ele>
        <time>2018-05-19T11:48:11Z</time>
      </trkpt>
      <trkpt lat="44.10425" lon="3.02463">
        <ele>609.3</ele>
        <time>2018-05-19T11:48:12Z</time>
      </trkpt>
      <trkpt lat="44.10422" lon="3.0246">
        <ele>609.3</ele>
        <time>2018-05-19T11:48:13Z</time>
      </trkpt>
      <trkpt lat="44.1042" lon="3.02456">
        <ele>609.3</ele>
        <time>2018-05-19T11:48:14Z</time>
      </trkpt>
      <trkpt lat="44.10417" lon="3.02452">
        <ele>609.2</ele>
        <time>2018-05-19T11:48:15Z</time>
      </trkpt>
      <trkpt lat="44.10415" lon="3.02447">
        <ele>609.2</ele>
        <time>2018-05-19T11:48:16Z</time>
      </trkpt>
      <trkpt lat="44.10412" lon="3.02443">
        <ele>609.2</ele>
        <time>2018-05-19T11:48:17Z</time>
      </trkpt>
      <trkpt lat="44.10409" lon="3.02439">
        <ele>609.1</ele>
        <time>2018-05-19T11:48:18Z</time>
      </trkpt>
      <trkpt lat="44.10407" lon="3.02435">
        <ele>609.1</ele>
        <time>2018-05-19T11:48:19Z</time>
      </trkpt>
      <trkpt lat="44.10405" lon="3.02431">
        <ele>609.1</ele>
        <time>2018-05-19T11:48:20Z</time>
      </trkpt>
      <trkpt lat="44.10403" lon="3.02428">
        <ele>609</ele>
        <time>2018-05-19T11:48:21Z</time>
      </trkpt>
      <trkpt lat="44.104" lon="3.02424">
        <ele>609</ele>
        <time>2018-05-19T11:48:22Z</time>
      </trkpt>
      <trkpt lat="44.10397" lon="3.02421">
        <ele>609</ele>
        <time>2018-05-19T11:48:23Z</time>
      </trkpt>
      <trkpt lat="44.10395" lon="3.02417">
        <ele>609</ele>
        <time>2018-05-19T11:48:24Z</time>
      </trkpt>
      <trkpt lat="44.10392" lon="3.02414">
        <ele>608.9</ele>
        <time>2018-05-19T11:48:25Z</time>
      </trkpt>
      <trkpt lat="44.1039" lon="3.02411">
        <ele>608.9</ele>
        <time>2018-05-19T11:48:26Z</time>
      </trkpt>
      <trkpt lat="44.10387" lon="3.02407">
        <ele>608.8</ele>
        <time>2018-05-19T11:48:27Z</time>
      </trkpt>
      <trkpt lat="44.10385" lon="3.02403">
        <ele>608.8</ele>
        <time>2018-05-19T11:48:28Z</time>
      </trkpt>
      <trkpt lat="44.10382" lon="3.02399">
        <ele>608.8</ele>
        <time>2018-05-19T11:48:29Z</time>
      </trkpt>
      <trkpt lat="44.1038" lon="3.02395">
        <ele>608.7</ele>
        <time>2018-05-19T11:48:30Z</time>
      </trkpt>
      <trkpt lat="44.10378" lon="3.02392">
        <ele>608.7</ele>
        <time>2018-05-19T11:48:31Z</time>
      </trkpt>
      <trkpt lat="44.10376" lon="3.02387">
        <ele>608.7</ele>
        <time>2018-05-19T11:48:32Z</time>
      </trkpt>
      <trkpt lat="44.10374" lon="3.02383">
        <ele>608.6</ele>
        <time>2018-05-19T11:48:33Z</time>
      </trkpt>
      <trkpt lat="44.10372" lon="3.02378">
        <ele>608.6</ele>
        <time>2018-05-19T11:48:34Z</time>
      </trkpt>
      <trkpt lat="44.1037" lon="3.02373">
        <ele>608.6</ele>
        <time>2018-05-19T11:48:35Z</time>
      </trkpt>
      <trkpt lat="44.10368" lon="3.02368">
        <ele>608.6</ele>
        <time>2018-05-19T11:48:36Z</time>
      </trkpt>
      <trkpt lat="44.10366" lon="3.02364">
        <ele>608.5</ele>
        <time>2018-05-19T11:48:37Z</time>
      </trkpt>
      <trkpt lat="44.10365" lon="3.02359">
        <ele>608.5</ele>
        <time>2018-05-19T11:48:38Z</time>
      </trkpt>
      <trkpt lat="44.10363" lon="3.02354">
        <ele>608.5</ele>
        <time>2018-05-19T11:48:39Z</time>
      </trkpt>
      <trkpt lat="44.1036" lon="3.0235">
        <ele>608.4</ele>
        <time>2018-05-19T11:48:40Z</time>
      </trkpt>
      <trkpt lat="44.10358" lon="3.02345">
        <ele>608.4</ele>
        <time>2018-05-19T11:48:41Z</time>
      </trkpt>
      <trkpt lat="44.10355" lon="3.0234">
        <ele>608.4</ele>
        <time>2018-05-19T11:48:42Z</time>
      </trkpt>
      <trkpt lat="44.10353" lon="3.02336">
        <ele>608.4</ele>
        <time>2018-05-19T11:48:43Z</time>
      </trkpt>
      <trkpt lat="44.10349" lon="3.02331">
        <ele>608.3</ele>
        <time>2018-05-19T11:48:44Z</time>
      </trkpt>
      <trkpt lat="44.10345" lon="3.02327">
        <ele>608.3</ele>
        <time>2018-05-19T11:48:45Z</time>
      </trkpt>
      <trkpt lat="44.10342" lon="3.02323">
        <ele>608.3</ele>
        <time>2018-05-19T11:48:46Z</time>
      </trkpt>
      <trkpt lat="44.10337" lon="3.02318">
        <ele>608.2</ele>
        <time>2018-05-19T11:48:47Z</time>
      </trkpt>
      <trkpt lat="44.10333" lon="3.02314">
        <ele>608.1</ele>
        <time>2018-05-19T11:48:48Z</time>
      </trkpt>
      <trkpt lat="44.10328" lon="3.0231">
        <ele>608.1</ele>
        <time>2018-05-19T11:48:49Z</time>
      </trkpt>
      <trkpt lat="44.10325" lon="3.02306">
        <ele>608</ele>
        <time>2018-05-19T11:48:50Z</time>
      </trkpt>
      <trkpt lat="44.10321" lon="3.02302">
        <ele>608</ele>
        <time>2018-05-19T11:48:51Z</time>
      </trkpt>
      <trkpt lat="44.10316" lon="3.023">
        <ele>607.9</ele>
        <time>2018-05-19T11:48:52Z</time>
      </trkpt>
      <trkpt lat="44.10312" lon="3.02296">
        <ele>607.8</ele>
        <time>2018-05-19T11:48:53Z</time>
      </trkpt>
      <trkpt lat="44.10307" lon="3.02292">
        <ele>607.7</ele>
        <time>2018-05-19T11:48:54Z</time>
      </trkpt>
      <trkpt lat="44.10303" lon="3.02288">
        <ele>607.7</ele>
        <time>2018-05-19T11:48:55Z</time>
      </trkpt>
      <trkpt lat="44.10297" lon="3.02284">
        <ele>607.5</ele>
        <time>2018-05-19T11:48:56Z</time>
      </trkpt>
      <trkpt lat="44.10292" lon="3.02281">
        <ele>607.3</ele>
        <time>2018-05-19T11:48:57Z</time>
      </trkpt>
      <trkpt lat="44.10287" lon="3.02277">
        <ele>607</ele>
        <time>2018-05-19T11:48:58Z</time>
      </trkpt>
      <trkpt lat="44.10282" lon="3.02272">
        <ele>606.5</ele>
        <time>2018-05-19T11:48:59Z</time>
      </trkpt>
      <trkpt lat="44.10276" lon="3.02267">
        <ele>605.9</ele>
        <time>2018-05-19T11:49:00Z</time>
      </trkpt>
      <trkpt lat="44.1027" lon="3.02262">
        <ele>605.7</ele>
        <time>2018-05-19T11:49:01Z</time>
      </trkpt>
      <trkpt lat="44.10265" lon="3.02258">
        <ele>605.6</ele>
        <time>2018-05-19T11:49:02Z</time>
      </trkpt>
      <trkpt lat="44.10259" lon="3.02251">
        <ele>605.4</ele>
        <time>2018-05-19T11:49:03Z</time>
      </trkpt>
      <trkpt lat="44.10252" lon="3.02246">
        <ele>605.2</ele>
        <time>2018-05-19T11:49:04Z</time>
      </trkpt>
      <trkpt lat="44.10247" lon="3.0224">
        <ele>605.1</ele>
        <time>2018-05-19T11:49:05Z</time>
      </trkpt>
      <trkpt lat="44.1024" lon="3.02235">
        <ele>604.9</ele>
        <time>2018-05-19T11:49:06Z</time>
      </trkpt>
      <trkpt lat="44.10234" lon="3.02229">
        <ele>604.7</ele>
        <time>2018-05-19T11:49:07Z</time>
      </trkpt>
      <trkpt lat="44.10228" lon="3.02224">
        <ele>604.3</ele>
        <time>2018-05-19T11:49:08Z</time>
      </trkpt>
      <trkpt lat="44.10221" lon="3.02218">
        <ele>603.5</ele>
        <time>2018-05-19T11:49:09Z</time>
      </trkpt>
      <trkpt lat="44.10214" lon="3.02212">
        <ele>602.7</ele>
        <time>2018-05-19T11:49:10Z</time>
      </trkpt>
      <trkpt lat="44.10209" lon="3.02206">
        <ele>602.4</ele>
        <time>2018-05-19T11:49:11Z</time>
      </trkpt>
      <trkpt lat="44.10205" lon="3.022">
        <ele>602</ele>
        <time>2018-05-19T11:49:12Z</time>
      </trkpt>
      <trkpt lat="44.10201" lon="3.02193">
        <ele>600.7</ele>
        <time>2018-05-19T11:49:13Z</time>
      </trkpt>
      <trkpt lat="44.10197" lon="3.02187">
        <ele>599.9</ele>
        <time>2018-05-19T11:49:14Z</time>
      </trkpt>
      <trkpt lat="44.10193" lon="3.0218">
        <ele>599.5</ele>
        <time>2018-05-19T11:49:15Z</time>
      </trkpt>
      <trkpt lat="44.10189" lon="3.02174">
        <ele>599.2</ele>
        <time>2018-05-19T11:49:16Z</time>
      </trkpt>
      <trkpt lat="44.10185" lon="3.02168">
        <ele>599</ele>
        <time>2018-05-19T11:49:17Z</time>
      </trkpt>
      <trkpt lat="44.10182" lon="3.02162">
        <ele>598.8</ele>
        <time>2018-05-19T11:49:18Z</time>
      </trkpt>
      <trkpt lat="44.10179" lon="3.02156">
        <ele>598.6</ele>
        <time>2018-05-19T11:49:19Z</time>
      </trkpt>
      <trkpt lat="44.10175" lon="3.02149">
        <ele>598.4</ele>
        <time>2018-05-19T11:49:20Z</time>
      </trkpt>
      <trkpt lat="44.10169" lon="3.02144">
        <ele>598.1</ele>
        <time>2018-05-19T11:49:21Z</time>
      </trkpt>
      <trkpt lat="44.10163" lon="3.02141">
        <ele>597.8</ele>
        <time>2018-05-19T11:49:22Z</time>
      </trkpt>
      <trkpt lat="44.10156" lon="3.02137">
        <ele>597</ele>
        <time>2018-05-19T11:49:23Z</time>
      </trkpt>
      <trkpt lat="44.10149" lon="3.02135">
        <ele>596.1</ele>
        <time>2018-05-19T11:49:24Z</time>
      </trkpt>
      <trkpt lat="44.10142" lon="3.02132">
        <ele>595.5</ele>
        <time>2018-05-19T11:49:25Z</time>
      </trkpt>
      <trkpt lat="44.10134" lon="3.0213">
        <ele>595.1</ele>
        <time>2018-05-19T11:49:26Z</time>
      </trkpt>
      <trkpt lat="44.10127" lon="3.02127">
        <ele>594.9</ele>
        <time>2018-05-19T11:49:27Z</time>
      </trkpt>
      <trkpt lat="44.10119" lon="3.02125">
        <ele>594.6</ele>
        <time>2018-05-19T11:49:28Z</time>
      </trkpt>
      <trkpt lat="44.10112" lon="3.02121">
        <ele>594.4</ele>
        <time>2018-05-19T11:49:29Z</time>
      </trkpt>
      <trkpt lat="44.10104" lon="3.02118">
        <ele>594.2</ele>
        <time>2018-05-19T11:49:30Z</time>
      </trkpt>
      <trkpt lat="44.10096" lon="3.02114">
        <ele>594</ele>
        <time>2018-05-19T11:49:31Z</time>
      </trkpt>
      <trkpt lat="44.10088" lon="3.0211">
        <ele>593.8</ele>
        <time>2018-05-19T11:49:32Z</time>
      </trkpt>
      <trkpt lat="44.10081" lon="3.02107">
        <ele>593.6</ele>
        <time>2018-05-19T11:49:33Z</time>
      </trkpt>
      <trkpt lat="44.10073" lon="3.02103">
        <ele>593.1</ele>
        <time>2018-05-19T11:49:34Z</time>
      </trkpt>
      <trkpt lat="44.10065" lon="3.02099">
        <ele>592</ele>
        <time>2018-05-19T11:49:35Z</time>
      </trkpt>
      <trkpt lat="44.10057" lon="3.02096">
        <ele>591.3</ele>
        <time>2018-05-19T11:49:36Z</time>
      </trkpt>
      <trkpt lat="44.10048" lon="3.02092">
        <ele>590.8</ele>
        <time>2018-05-19T11:49:37Z</time>
      </trkpt>
      <trkpt lat="44.10039" lon="3.02088">
        <ele>590.4</ele>
        <time>2018-05-19T11:49:38Z</time>
      </trkpt>
      <trkpt lat="44.10029" lon="3.02085">
        <ele>590.1</ele>
        <time>2018-05-19T11:49:39Z</time>
      </trkpt>
      <trkpt lat="44.1002" lon="3.02081">
        <ele>589.7</ele>
        <time>2018-05-19T11:49:40Z</time>
      </trkpt>
      <trkpt lat="44.1001" lon="3.02078">
        <ele>589.1</ele>
        <time>2018-05-19T11:49:41Z</time>
      </trkpt>
      <trkpt lat="44.1" lon="3.02074">
        <ele>587.6</ele>
        <time>2018-05-19T11:49:42Z</time>
      </trkpt>
      <trkpt lat="44.0999" lon="3.0207">
        <ele>586.9</ele>
        <time>2018-05-19T11:49:43Z</time>
      </trkpt>
      <trkpt lat="44.09981" lon="3.02065">
        <ele>586.6</ele>
        <time>2018-05-19T11:49:44Z</time>
      </trkpt>
      <trkpt lat="44.09972" lon="3.02059">
        <ele>586.1</ele>
        <time>2018-05-19T11:49:45Z</time>
      </trkpt>
      <trkpt lat="44.09963" lon="3.02052">
        <ele>585.7</ele>
        <time>2018-05-19T11:49:46Z</time>
      </trkpt>
      <trkpt lat="44.09955" lon="3.02043">
        <ele>585.3</ele>
        <time>2018-05-19T11:49:47Z</time>
      </trkpt>
      <trkpt lat="44.09948" lon="3.02031">
        <ele>583.7</ele>
        <time>2018-05-19T11:49:48Z</time>
      </trkpt>
      <trkpt lat="44.09942" lon="3.02018">
        <ele>582.9</ele>
        <time>2018-05-19T11:49:49Z</time>
      </trkpt>
      <trkpt lat="44.09937" lon="3.02006">
        <ele>582.3</ele>
        <time>2018-05-19T11:49:50Z</time>
      </trkpt>
      <trkpt lat="44.09932" lon="3.01994">
        <ele>581.8</ele>
        <time>2018-05-19T11:49:51Z</time>
      </trkpt>
      <trkpt lat="44.09926" lon="3.01983">
        <ele>581.3</ele>
        <time>2018-05-19T11:49:52Z</time>
      </trkpt>
      <trkpt lat="44.09919" lon="3.01972">
        <ele>580.4</ele>
        <time>2018-05-19T11:49:53Z</time>
      </trkpt>
      <trkpt lat="44.09912" lon="3.0196">
        <ele>579.3</ele>
        <time>2018-05-19T11:49:54Z</time>
      </trkpt>
      <trkpt lat="44.09906" lon="3.01949">
        <ele>578.8</ele>
        <time>2018-05-19T11:49:55Z</time>
      </trkpt>
      <trkpt lat="44.099" lon="3.01939">
        <ele>578.4</ele>
        <time>2018-05-19T11:49:56Z</time>
      </trkpt>
      <trkpt lat="44.09894" lon="3.01928">
        <ele>578.2</ele>
        <time>2018-05-19T11:49:57Z</time>
      </trkpt>
      <trkpt lat="44.09889" lon="3.01918">
        <ele>578</ele>
        <time>2018-05-19T11:49:58Z</time>
      </trkpt>
      <trkpt lat="44.09884" lon="3.0191">
        <ele>577.9</ele>
        <time>2018-05-19T11:49:59Z</time>
      </trkpt>
      <trkpt lat="44.09878" lon="3.019">
        <ele>577.7</ele>
        <time>2018-05-19T11:50:00Z</time>
      </trkpt>
      <trkpt lat="44.09873" lon="3.01893">
        <ele>577.4</ele>
        <time>2018-05-19T11:50:01Z</time>
      </trkpt>
      <trkpt lat="44.09867" lon="3.01891">
        <ele>577.2</ele>
        <time>2018-05-19T11:50:02Z</time>
      </trkpt>
      <trkpt lat="44.09863" lon="3.01892">
        <ele>577</ele>
        <time>2018-05-19T11:50:03Z</time>
      </trkpt>
      <trkpt lat="44.0986" lon="3.01894">
        <ele>577</ele>
        <time>2018-05-19T11:50:04Z</time>
      </trkpt>
      <trkpt lat="44.09856" lon="3.01899">
        <ele>577</ele>
        <time>2018-05-19T11:50:06Z</time>
      </trkpt>
      <trkpt lat="44.09854" lon="3.01901">
        <ele>576.9</ele>
        <time>2018-05-19T11:50:07Z</time>
      </trkpt>
      <trkpt lat="44.09852" lon="3.01903">
        <ele>576.8</ele>
        <time>2018-05-19T11:50:08Z</time>
      </trkpt>
      <trkpt lat="44.09849" lon="3.01906">
        <ele>576.7</ele>
        <time>2018-05-19T11:50:09Z</time>
      </trkpt>
      <trkpt lat="44.09846" lon="3.01908">
        <ele>576.7</ele>
        <time>2018-05-19T11:50:10Z</time>
      </trkpt>
      <trkpt lat="44.09841" lon="3.01906">
        <ele>576.8</ele>
        <time>2018-05-19T11:50:12Z</time>
      </trkpt>
      <trkpt lat="44.09838" lon="3.01906">
        <ele>576.8</ele>
        <time>2018-05-19T11:50:13Z</time>
      </trkpt>
      <trkpt lat="44.09835" lon="3.01904">
        <ele>576.9</ele>
        <time>2018-05-19T11:50:14Z</time>
      </trkpt>
      <trkpt lat="44.09831" lon="3.01903">
        <ele>577</ele>
        <time>2018-05-19T11:50:15Z</time>
      </trkpt>
      <trkpt lat="44.09828" lon="3.01902">
        <ele>577.1</ele>
        <time>2018-05-19T11:50:16Z</time>
      </trkpt>
      <trkpt lat="44.09824" lon="3.01901">
        <ele>577.2</ele>
        <time>2018-05-19T11:50:17Z</time>
      </trkpt>
      <trkpt lat="44.0982" lon="3.019">
        <ele>577.4</ele>
        <time>2018-05-19T11:50:18Z</time>
      </trkpt>
      <trkpt lat="44.09817" lon="3.01899">
        <ele>577.5</ele>
        <time>2018-05-19T11:50:19Z</time>
      </trkpt>
      <trkpt lat="44.09813" lon="3.01899">
        <ele>577.5</ele>
        <time>2018-05-19T11:50:20Z</time>
      </trkpt>
      <trkpt lat="44.09809" lon="3.01899">
        <ele>577.5</ele>
        <time>2018-05-19T11:50:21Z</time>
      </trkpt>
      <trkpt lat="44.09805" lon="3.01899">
        <ele>577.5</ele>
        <time>2018-05-19T11:50:22Z</time>
      </trkpt>
      <trkpt lat="44.098" lon="3.019">
        <ele>577.5</ele>
        <time>2018-05-19T11:50:23Z</time>
      </trkpt>
      <trkpt lat="44.09795" lon="3.01904">
        <ele>577.4</ele>
        <time>2018-05-19T11:50:24Z</time>
      </trkpt>
      <trkpt lat="44.0979" lon="3.01906">
        <ele>577.2</ele>
        <time>2018-05-19T11:50:25Z</time>
      </trkpt>
      <trkpt lat="44.09785" lon="3.01908">
        <ele>576.9</ele>
        <time>2018-05-19T11:50:26Z</time>
      </trkpt>
      <trkpt lat="44.0978" lon="3.0191">
        <ele>576.6</ele>
        <time>2018-05-19T11:50:27Z</time>
      </trkpt>
      <trkpt lat="44.09774" lon="3.01913">
        <ele>576.1</ele>
        <time>2018-05-19T11:50:28Z</time>
      </trkpt>
      <trkpt lat="44.09769" lon="3.01915">
        <ele>575.9</ele>
        <time>2018-05-19T11:50:29Z</time>
      </trkpt>
      <trkpt lat="44.09764" lon="3.01919">
        <ele>575.6</ele>
        <time>2018-05-19T11:50:30Z</time>
      </trkpt>
      <trkpt lat="44.09758" lon="3.01921">
        <ele>575.2</ele>
        <time>2018-05-19T11:50:31Z</time>
      </trkpt>
      <trkpt lat="44.09752" lon="3.01924">
        <ele>574.8</ele>
        <time>2018-05-19T11:50:32Z</time>
      </trkpt>
      <trkpt lat="44.09745" lon="3.01927">
        <ele>574.5</ele>
        <time>2018-05-19T11:50:33Z</time>
      </trkpt>
      <trkpt lat="44.0974" lon="3.0193">
        <ele>574.4</ele>
        <time>2018-05-19T11:50:34Z</time>
      </trkpt>
      <trkpt lat="44.09734" lon="3.01933">
        <ele>574.3</ele>
        <time>2018-05-19T11:50:35Z</time>
      </trkpt>
      <trkpt lat="44.09728" lon="3.01937">
        <ele>574.2</ele>
        <time>2018-05-19T11:50:36Z</time>
      </trkpt>
      <trkpt lat="44.09723" lon="3.0194">
        <ele>574.2</ele>
        <time>2018-05-19T11:50:37Z</time>
      </trkpt>
      <trkpt lat="44.09717" lon="3.01944">
        <ele>574.3</ele>
        <time>2018-05-19T11:50:38Z</time>
      </trkpt>
      <trkpt lat="44.09711" lon="3.01947">
        <ele>574.4</ele>
        <time>2018-05-19T11:50:39Z</time>
      </trkpt>
      <trkpt lat="44.09706" lon="3.01949">
        <ele>574.5</ele>
        <time>2018-05-19T11:50:40Z</time>
      </trkpt>
      <trkpt lat="44.097" lon="3.01953">
        <ele>574.7</ele>
        <time>2018-05-19T11:50:41Z</time>
      </trkpt>
      <trkpt lat="44.09695" lon="3.01955">
        <ele>574.8</ele>
        <time>2018-05-19T11:50:42Z</time>
      </trkpt>
      <trkpt lat="44.0969" lon="3.01958">
        <ele>574.9</ele>
        <time>2018-05-19T11:50:43Z</time>
      </trkpt>
      <trkpt lat="44.09686" lon="3.01959">
        <ele>575</ele>
        <time>2018-05-19T11:50:44Z</time>
      </trkpt>
      <trkpt lat="44.09681" lon="3.01962">
        <ele>575.1</ele>
        <time>2018-05-19T11:50:45Z</time>
      </trkpt>
      <trkpt lat="44.09675" lon="3.01964">
        <ele>575.3</ele>
        <time>2018-05-19T11:50:46Z</time>
      </trkpt>
      <trkpt lat="44.0967" lon="3.01966">
        <ele>575.5</ele>
        <time>2018-05-19T11:50:47Z</time>
      </trkpt>
      <trkpt lat="44.09665" lon="3.01969">
        <ele>575.7</ele>
        <time>2018-05-19T11:50:48Z</time>
      </trkpt>
      <trkpt lat="44.0966" lon="3.01971">
        <ele>576</ele>
        <time>2018-05-19T11:50:49Z</time>
      </trkpt>
      <trkpt lat="44.09655" lon="3.01974">
        <ele>576.3</ele>
        <time>2018-05-19T11:50:50Z</time>
      </trkpt>
      <trkpt lat="44.0965" lon="3.01976">
        <ele>576.5</ele>
        <time>2018-05-19T11:50:51Z</time>
      </trkpt>
      <trkpt lat="44.09646" lon="3.01978">
        <ele>577</ele>
        <time>2018-05-19T11:50:52Z</time>
      </trkpt>
      <trkpt lat="44.09642" lon="3.01979">
        <ele>577.4</ele>
        <time>2018-05-19T11:50:53Z</time>
      </trkpt>
      <trkpt lat="44.09637" lon="3.01979">
        <ele>578</ele>
        <time>2018-05-19T11:50:54Z</time>
      </trkpt>
      <trkpt lat="44.09634" lon="3.01978">
        <ele>578.5</ele>
        <time>2018-05-19T11:50:55Z</time>
      </trkpt>
      <trkpt lat="44.09629" lon="3.01976">
        <ele>578.9</ele>
        <time>2018-05-19T11:50:56Z</time>
      </trkpt>
      <trkpt lat="44.09626" lon="3.01974">
        <ele>579</ele>
        <time>2018-05-19T11:50:57Z</time>
      </trkpt>
      <trkpt lat="44.09624" lon="3.0197">
        <ele>579</ele>
        <time>2018-05-19T11:50:58Z</time>
      </trkpt>
      <trkpt lat="44.09624" lon="3.01964">
        <ele>578.7</ele>
        <time>2018-05-19T11:50:59Z</time>
      </trkpt>
      <trkpt lat="44.09623" lon="3.01959">
        <ele>578.4</ele>
        <time>2018-05-19T11:51:00Z</time>
      </trkpt>
      <trkpt lat="44.09623" lon="3.01953">
        <ele>578</ele>
        <time>2018-05-19T11:51:01Z</time>
      </trkpt>
      <trkpt lat="44.09624" lon="3.01947">
        <ele>577.6</ele>
        <time>2018-05-19T11:51:02Z</time>
      </trkpt>
      <trkpt lat="44.09625" lon="3.01941">
        <ele>577.3</ele>
        <time>2018-05-19T11:51:03Z</time>
      </trkpt>
      <trkpt lat="44.09625" lon="3.01935">
        <ele>577</ele>
        <time>2018-05-19T11:51:04Z</time>
      </trkpt>
      <trkpt lat="44.09626" lon="3.01928">
        <ele>576.9</ele>
        <time>2018-05-19T11:51:05Z</time>
      </trkpt>
      <trkpt lat="44.09627" lon="3.01921">
        <ele>576.4</ele>
        <time>2018-05-19T11:51:06Z</time>
      </trkpt>
      <trkpt lat="44.09627" lon="3.01914">
        <ele>576</ele>
        <time>2018-05-19T11:51:07Z</time>
      </trkpt>
      <trkpt lat="44.09627" lon="3.01908">
        <ele>575.7</ele>
        <time>2018-05-19T11:51:08Z</time>
      </trkpt>
      <trkpt lat="44.09628" lon="3.01901">
        <ele>575.4</ele>
        <time>2018-05-19T11:51:09Z</time>
      </trkpt>
      <trkpt lat="44.09629" lon="3.01895">
        <ele>575.1</ele>
        <time>2018-05-19T11:51:10Z</time>
      </trkpt>
      <trkpt lat="44.09628" lon="3.01888">
        <ele>574.7</ele>
        <time>2018-05-19T11:51:11Z</time>
      </trkpt>
      <trkpt lat="44.09629" lon="3.01879">
        <ele>574</ele>
        <time>2018-05-19T11:51:12Z</time>
      </trkpt>
      <trkpt lat="44.09628" lon="3.01871">
        <ele>573.3</ele>
        <time>2018-05-19T11:51:13Z</time>
      </trkpt>
      <trkpt lat="44.09627" lon="3.01864">
        <ele>573</ele>
        <time>2018-05-19T11:51:14Z</time>
      </trkpt>
      <trkpt lat="44.09627" lon="3.01855">
        <ele>572.7</ele>
        <time>2018-05-19T11:51:15Z</time>
      </trkpt>
      <trkpt lat="44.09626" lon="3.01847">
        <ele>572.2</ele>
        <time>2018-05-19T11:51:16Z</time>
      </trkpt>
      <trkpt lat="44.09626" lon="3.01839">
        <ele>572</ele>
        <time>2018-05-19T11:51:17Z</time>
      </trkpt>
      <trkpt lat="44.09624" lon="3.01831">
        <ele>571.9</ele>
        <time>2018-05-19T11:51:18Z</time>
      </trkpt>
      <trkpt lat="44.09622" lon="3.01824">
        <ele>571.8</ele>
        <time>2018-05-19T11:51:19Z</time>
      </trkpt>
      <trkpt lat="44.0962" lon="3.0182">
        <ele>571.8</ele>
        <time>2018-05-19T11:51:20Z</time>
      </trkpt>
      <trkpt lat="44.09618" lon="3.01815">
        <ele>572</ele>
        <time>2018-05-19T11:51:21Z</time>
      </trkpt>
      <trkpt lat="44.09615" lon="3.01812">
        <ele>572.3</ele>
        <time>2018-05-19T11:51:22Z</time>
      </trkpt>
      <trkpt lat="44.09611" lon="3.01808">
        <ele>572.8</ele>
        <time>2018-05-19T11:51:24Z</time>
      </trkpt>
      <trkpt lat="44.09607" lon="3.01805">
        <ele>573.3</ele>
        <time>2018-05-19T11:51:26Z</time>
      </trkpt>
      <trkpt lat="44.09602" lon="3.01802">
        <ele>573.7</ele>
        <time>2018-05-19T11:51:28Z</time>
      </trkpt>
      <trkpt lat="44.09599" lon="3.01799">
        <ele>574.1</ele>
        <time>2018-05-19T11:51:30Z</time>
      </trkpt>
      <trkpt lat="44.09595" lon="3.01796">
        <ele>574.5</ele>
        <time>2018-05-19T11:51:32Z</time>
      </trkpt>
      <trkpt lat="44.09592" lon="3.01793">
        <ele>575</ele>
        <time>2018-05-19T11:51:34Z</time>
      </trkpt>
      <trkpt lat="44.09588" lon="3.0179">
        <ele>575.7</ele>
        <time>2018-05-19T11:51:36Z</time>
      </trkpt>
      <trkpt lat="44.09585" lon="3.01787">
        <ele>576.1</ele>
        <time>2018-05-19T11:51:38Z</time>
      </trkpt>
      <trkpt lat="44.09581" lon="3.01785">
        <ele>576.2</ele>
        <time>2018-05-19T11:51:40Z</time>
      </trkpt>
      <trkpt lat="44.09578" lon="3.01783">
        <ele>576.3</ele>
        <time>2018-05-19T11:51:42Z</time>
      </trkpt>
      <trkpt lat="44.09575" lon="3.01781">
        <ele>576.5</ele>
        <time>2018-05-19T11:51:44Z</time>
      </trkpt>
      <trkpt lat="44.09572" lon="3.01778">
        <ele>576.6</ele>
        <time>2018-05-19T11:51:46Z</time>
      </trkpt>
      <trkpt lat="44.09569" lon="3.01775">
        <ele>576.5</ele>
        <time>2018-05-19T11:51:48Z</time>
      </trkpt>
      <trkpt lat="44.09565" lon="3.01772">
        <ele>576.5</ele>
        <time>2018-05-19T11:51:50Z</time>
      </trkpt>
      <trkpt lat="44.09562" lon="3.0177">
        <ele>576.8</ele>
        <time>2018-05-19T11:51:52Z</time>
      </trkpt>
      <trkpt lat="44.09559" lon="3.01766">
        <ele>577</ele>
        <time>2018-05-19T11:51:54Z</time>
      </trkpt>
      <trkpt lat="44.09556" lon="3.01762">
        <ele>577</ele>
        <time>2018-05-19T11:51:56Z</time>
      </trkpt>
      <trkpt lat="44.09552" lon="3.01758">
        <ele>577.1</ele>
        <time>2018-05-19T11:51:58Z</time>
      </trkpt>
      <trkpt lat="44.09548" lon="3.01754">
        <ele>577.2</ele>
        <time>2018-05-19T11:52:00Z</time>
      </trkpt>
      <trkpt lat="44.09546" lon="3.01751">
        <ele>577.2</ele>
        <time>2018-05-19T11:52:01Z</time>
      </trkpt>
      <trkpt lat="44.09544" lon="3.01748">
        <ele>577.2</ele>
        <time>2018-05-19T11:52:02Z</time>
      </trkpt>
      <trkpt lat="44.09542" lon="3.01745">
        <ele>577.2</ele>
        <time>2018-05-19T11:52:03Z</time>
      </trkpt>
      <trkpt lat="44.0954" lon="3.01742">
        <ele>577.2</ele>
        <time>2018-05-19T11:52:04Z</time>
      </trkpt>
      <trkpt lat="44.09538" lon="3.0174">
        <ele>577.1</ele>
        <time>2018-05-19T11:52:05Z</time>
      </trkpt>
      <trkpt lat="44.09536" lon="3.01737">
        <ele>577</ele>
        <time>2018-05-19T11:52:06Z</time>
      </trkpt>
      <trkpt lat="44.09534" lon="3.01735">
        <ele>576.9</ele>
        <time>2018-05-19T11:52:07Z</time>
      </trkpt>
      <trkpt lat="44.09532" lon="3.01732">
        <ele>576.9</ele>
        <time>2018-05-19T11:52:08Z</time>
      </trkpt>
      <trkpt lat="44.0953" lon="3.01729">
        <ele>576.8</ele>
        <time>2018-05-19T11:52:09Z</time>
      </trkpt>
      <trkpt lat="44.09528" lon="3.01726">
        <ele>576.8</ele>
        <time>2018-05-19T11:52:10Z</time>
      </trkpt>
      <trkpt lat="44.09526" lon="3.01722">
        <ele>576.7</ele>
        <time>2018-05-19T11:52:11Z</time>
      </trkpt>
      <trkpt lat="44.09524" lon="3.01719">
        <ele>576.7</ele>
        <time>2018-05-19T11:52:12Z</time>
      </trkpt>
      <trkpt lat="44.09522" lon="3.01717">
        <ele>576.7</ele>
        <time>2018-05-19T11:52:13Z</time>
      </trkpt>
      <trkpt lat="44.0952" lon="3.01713">
        <ele>576.7</ele>
        <time>2018-05-19T11:52:14Z</time>
      </trkpt>
      <trkpt lat="44.09518" lon="3.0171">
        <ele>576.5</ele>
        <time>2018-05-19T11:52:15Z</time>
      </trkpt>
      <trkpt lat="44.09515" lon="3.01707">
        <ele>576.3</ele>
        <time>2018-05-19T11:52:16Z</time>
      </trkpt>
      <trkpt lat="44.09513" lon="3.01703">
        <ele>576.3</ele>
        <time>2018-05-19T11:52:17Z</time>
      </trkpt>
      <trkpt lat="44.09511" lon="3.017">
        <ele>576.2</ele>
        <time>2018-05-19T11:52:18Z</time>
      </trkpt>
      <trkpt lat="44.09509" lon="3.01697">
        <ele>576.1</ele>
        <time>2018-05-19T11:52:19Z</time>
      </trkpt>
      <trkpt lat="44.09507" lon="3.01693">
        <ele>575.9</ele>
        <time>2018-05-19T11:52:20Z</time>
      </trkpt>
      <trkpt lat="44.09505" lon="3.01689">
        <ele>575.7</ele>
        <time>2018-05-19T11:52:21Z</time>
      </trkpt>
      <trkpt lat="44.09503" lon="3.01685">
        <ele>575.8</ele>
        <time>2018-05-19T11:52:22Z</time>
      </trkpt>
      <trkpt lat="44.09501" lon="3.01681">
        <ele>575.9</ele>
        <time>2018-05-19T11:52:23Z</time>
      </trkpt>
      <trkpt lat="44.09499" lon="3.01676">
        <ele>575.8</ele>
        <time>2018-05-19T11:52:24Z</time>
      </trkpt>
      <trkpt lat="44.09497" lon="3.01672">
        <ele>575.7</ele>
        <time>2018-05-19T11:52:25Z</time>
      </trkpt>
      <trkpt lat="44.09494" lon="3.01667">
        <ele>575.4</ele>
        <time>2018-05-19T11:52:26Z</time>
      </trkpt>
      <trkpt lat="44.09492" lon="3.01662">
        <ele>575.1</ele>
        <time>2018-05-19T11:52:27Z</time>
      </trkpt>
      <trkpt lat="44.0949" lon="3.01657">
        <ele>574.9</ele>
        <time>2018-05-19T11:52:28Z</time>
      </trkpt>
      <trkpt lat="44.09488" lon="3.01652">
        <ele>574.8</ele>
        <time>2018-05-19T11:52:29Z</time>
      </trkpt>
      <trkpt lat="44.09486" lon="3.01646">
        <ele>574.9</ele>
        <time>2018-05-19T11:52:30Z</time>
      </trkpt>
      <trkpt lat="44.09483" lon="3.0164">
        <ele>575</ele>
        <time>2018-05-19T11:52:31Z</time>
      </trkpt>
      <trkpt lat="44.09482" lon="3.01635">
        <ele>574.7</ele>
        <time>2018-05-19T11:52:32Z</time>
      </trkpt>
      <trkpt lat="44.0948" lon="3.01629">
        <ele>574.4</ele>
        <time>2018-05-19T11:52:33Z</time>
      </trkpt>
      <trkpt lat="44.09478" lon="3.01623">
        <ele>574.4</ele>
        <time>2018-05-19T11:52:34Z</time>
      </trkpt>
      <trkpt lat="44.09476" lon="3.01618">
        <ele>574.4</ele>
        <time>2018-05-19T11:52:35Z</time>
      </trkpt>
      <trkpt lat="44.09473" lon="3.01611">
        <ele>574.9</ele>
        <time>2018-05-19T11:52:36Z</time>
      </trkpt>
      <trkpt lat="44.09472" lon="3.01605">
        <ele>575</ele>
        <time>2018-05-19T11:52:37Z</time>
      </trkpt>
      <trkpt lat="44.0947" lon="3.01596">
        <ele>574.9</ele>
        <time>2018-05-19T11:52:38Z</time>
      </trkpt>
      <trkpt lat="44.09469" lon="3.01587">
        <ele>574.4</ele>
        <time>2018-05-19T11:52:39Z</time>
      </trkpt>
      <trkpt lat="44.09467" lon="3.0158">
        <ele>573.9</ele>
        <time>2018-05-19T11:52:40Z</time>
      </trkpt>
      <trkpt lat="44.09464" lon="3.0157">
        <ele>573.5</ele>
        <time>2018-05-19T11:52:41Z</time>
      </trkpt>
      <trkpt lat="44.09463" lon="3.01561">
        <ele>572.9</ele>
        <time>2018-05-19T11:52:42Z</time>
      </trkpt>
      <trkpt lat="44.09462" lon="3.01551">
        <ele>572.1</ele>
        <time>2018-05-19T11:52:43Z</time>
      </trkpt>
      <trkpt lat="44.09462" lon="3.0154">
        <ele>571.8</ele>
        <time>2018-05-19T11:52:44Z</time>
      </trkpt>
      <trkpt lat="44.09464" lon="3.0153">
        <ele>571.1</ele>
        <time>2018-05-19T11:52:45Z</time>
      </trkpt>
      <trkpt lat="44.09466" lon="3.01519">
        <ele>570.7</ele>
        <time>2018-05-19T11:52:46Z</time>
      </trkpt>
      <trkpt lat="44.09468" lon="3.01508">
        <ele>570.3</ele>
        <time>2018-05-19T11:52:47Z</time>
      </trkpt>
      <trkpt lat="44.0947" lon="3.01497">
        <ele>569.9</ele>
        <time>2018-05-19T11:52:48Z</time>
      </trkpt>
      <trkpt lat="44.09473" lon="3.01486">
        <ele>569.8</ele>
        <time>2018-05-19T11:52:49Z</time>
      </trkpt>
      <trkpt lat="44.09474" lon="3.01476">
        <ele>569.7</ele>
        <time>2018-05-19T11:52:50Z</time>
      </trkpt>
      <trkpt lat="44.09473" lon="3.01467">
        <ele>569.7</ele>
        <time>2018-05-19T11:52:51Z</time>
      </trkpt>
      <trkpt lat="44.0947" lon="3.01458">
        <ele>570</ele>
        <time>2018-05-19T11:52:52Z</time>
      </trkpt>
      <trkpt lat="44.09466" lon="3.01452">
        <ele>570.3</ele>
        <time>2018-05-19T11:52:53Z</time>
      </trkpt>
      <trkpt lat="44.09462" lon="3.01445">
        <ele>570.5</ele>
        <time>2018-05-19T11:52:54Z</time>
      </trkpt>
      <trkpt lat="44.09458" lon="3.01438">
        <ele>570.8</ele>
        <time>2018-05-19T11:52:55Z</time>
      </trkpt>
      <trkpt lat="44.09453" lon="3.01429">
        <ele>571</ele>
        <time>2018-05-19T11:52:56Z</time>
      </trkpt>
      <trkpt lat="44.09448" lon="3.01421">
        <ele>571.1</ele>
        <time>2018-05-19T11:52:57Z</time>
      </trkpt>
      <trkpt lat="44.09445" lon="3.01414">
        <ele>571.1</ele>
        <time>2018-05-19T11:52:58Z</time>
      </trkpt>
      <trkpt lat="44.0944" lon="3.01407">
        <ele>571.1</ele>
        <time>2018-05-19T11:52:59Z</time>
      </trkpt>
      <trkpt lat="44.09436" lon="3.01401">
        <ele>570.9</ele>
        <time>2018-05-19T11:53:00Z</time>
      </trkpt>
      <trkpt lat="44.0943" lon="3.01393">
        <ele>570.7</ele>
        <time>2018-05-19T11:53:01Z</time>
      </trkpt>
      <trkpt lat="44.09425" lon="3.01386">
        <ele>570.5</ele>
        <time>2018-05-19T11:53:02Z</time>
      </trkpt>
      <trkpt lat="44.09419" lon="3.01378">
        <ele>570.3</ele>
        <time>2018-05-19T11:53:03Z</time>
      </trkpt>
      <trkpt lat="44.09415" lon="3.01372">
        <ele>570.1</ele>
        <time>2018-05-19T11:53:04Z</time>
      </trkpt>
      <trkpt lat="44.0941" lon="3.01366">
        <ele>569.9</ele>
        <time>2018-05-19T11:53:05Z</time>
      </trkpt>
      <trkpt lat="44.09404" lon="3.01359">
        <ele>569.6</ele>
        <time>2018-05-19T11:53:06Z</time>
      </trkpt>
      <trkpt lat="44.09399" lon="3.01353">
        <ele>569.2</ele>
        <time>2018-05-19T11:53:07Z</time>
      </trkpt>
      <trkpt lat="44.09393" lon="3.01347">
        <ele>568.6</ele>
        <time>2018-05-19T11:53:08Z</time>
      </trkpt>
      <trkpt lat="44.09387" lon="3.01342">
        <ele>568</ele>
        <time>2018-05-19T11:53:09Z</time>
      </trkpt>
      <trkpt lat="44.0938" lon="3.01334">
        <ele>567</ele>
        <time>2018-05-19T11:53:10Z</time>
      </trkpt>
      <trkpt lat="44.09373" lon="3.01326">
        <ele>566.4</ele>
        <time>2018-05-19T11:53:11Z</time>
      </trkpt>
      <trkpt lat="44.09366" lon="3.0132">
        <ele>565.8</ele>
        <time>2018-05-19T11:53:12Z</time>
      </trkpt>
      <trkpt lat="44.09359" lon="3.01315">
        <ele>565.1</ele>
        <time>2018-05-19T11:53:13Z</time>
      </trkpt>
      <trkpt lat="44.09352" lon="3.01308">
        <ele>564.2</ele>
        <time>2018-05-19T11:53:14Z</time>
      </trkpt>
      <trkpt lat="44.09345" lon="3.01302">
        <ele>563.2</ele>
        <time>2018-05-19T11:53:15Z</time>
      </trkpt>
      <trkpt lat="44.09339" lon="3.01296">
        <ele>562.4</ele>
        <time>2018-05-19T11:53:16Z</time>
      </trkpt>
      <trkpt lat="44.09337" lon="3.01293">
        <ele>562.1</ele>
        <time>2018-05-19T11:53:17Z</time>
      </trkpt>
      <trkpt lat="44.09335" lon="3.0129">
        <ele>561.9</ele>
        <time>2018-05-19T11:53:35Z</time>
      </trkpt>
      <trkpt lat="44.09334" lon="3.01295">
        <ele>561.6</ele>
        <time>2018-05-19T11:53:45Z</time>
      </trkpt>
      <trkpt lat="44.09331" lon="3.01299">
        <ele>561.3</ele>
        <time>2018-05-19T11:53:47Z</time>
      </trkpt>
      <trkpt lat="44.09327" lon="3.01302">
        <ele>560.7</ele>
        <time>2018-05-19T11:53:49Z</time>
      </trkpt>
      <trkpt lat="44.09323" lon="3.01304">
        <ele>559.9</ele>
        <time>2018-05-19T11:53:50Z</time>
      </trkpt>
      <trkpt lat="44.09318" lon="3.01307">
        <ele>558.7</ele>
        <time>2018-05-19T11:53:51Z</time>
      </trkpt>
      <trkpt lat="44.09313" lon="3.01309">
        <ele>558</ele>
        <time>2018-05-19T11:53:52Z</time>
      </trkpt>
      <trkpt lat="44.09309" lon="3.01311">
        <ele>557.5</ele>
        <time>2018-05-19T11:53:53Z</time>
      </trkpt>
      <trkpt lat="44.09305" lon="3.0131">
        <ele>556.8</ele>
        <time>2018-05-19T11:53:54Z</time>
      </trkpt>
      <trkpt lat="44.09302" lon="3.0131">
        <ele>556.2</ele>
        <time>2018-05-19T11:53:55Z</time>
      </trkpt>
      <trkpt lat="44.09298" lon="3.01313">
        <ele>555.1</ele>
        <time>2018-05-19T11:53:56Z</time>
      </trkpt>
      <trkpt lat="44.09293" lon="3.01317">
        <ele>554.3</ele>
        <time>2018-05-19T11:53:57Z</time>
      </trkpt>
      <trkpt lat="44.0929" lon="3.01321">
        <ele>554</ele>
        <time>2018-05-19T11:53:58Z</time>
      </trkpt>
      <trkpt lat="44.09285" lon="3.01327">
        <ele>553.3</ele>
        <time>2018-05-19T11:53:59Z</time>
      </trkpt>
      <trkpt lat="44.09281" lon="3.01331">
        <ele>553</ele>
        <time>2018-05-19T11:54:00Z</time>
      </trkpt>
      <trkpt lat="44.09279" lon="3.01336">
        <ele>552.7</ele>
        <time>2018-05-19T11:54:01Z</time>
      </trkpt>
      <trkpt lat="44.09277" lon="3.01342">
        <ele>552.5</ele>
        <time>2018-05-19T11:54:02Z</time>
      </trkpt>
      <trkpt lat="44.09274" lon="3.01347">
        <ele>552.3</ele>
        <time>2018-05-19T11:54:03Z</time>
      </trkpt>
      <trkpt lat="44.0927" lon="3.0135">
        <ele>552.1</ele>
        <time>2018-05-19T11:54:04Z</time>
      </trkpt>
      <trkpt lat="44.09266" lon="3.01353">
        <ele>552</ele>
        <time>2018-05-19T11:54:05Z</time>
      </trkpt>
      <trkpt lat="44.09262" lon="3.01361">
        <ele>551.8</ele>
        <time>2018-05-19T11:54:06Z</time>
      </trkpt>
      <trkpt lat="44.09261" lon="3.01367">
        <ele>551.7</ele>
        <time>2018-05-19T11:54:07Z</time>
      </trkpt>
      <trkpt lat="44.09258" lon="3.01372">
        <ele>551.5</ele>
        <time>2018-05-19T11:54:08Z</time>
      </trkpt>
      <trkpt lat="44.09253" lon="3.01377">
        <ele>551.3</ele>
        <time>2018-05-19T11:54:09Z</time>
      </trkpt>
      <trkpt lat="44.09247" lon="3.01384">
        <ele>551</ele>
        <time>2018-05-19T11:54:10Z</time>
      </trkpt>
      <trkpt lat="44.0924" lon="3.01388">
        <ele>550.5</ele>
        <time>2018-05-19T11:54:11Z</time>
      </trkpt>
      <trkpt lat="44.09234" lon="3.01391">
        <ele>549.6</ele>
        <time>2018-05-19T11:54:12Z</time>
      </trkpt>
      <trkpt lat="44.09226" lon="3.01392">
        <ele>548.7</ele>
        <time>2018-05-19T11:54:13Z</time>
      </trkpt>
      <trkpt lat="44.09217" lon="3.01393">
        <ele>548.3</ele>
        <time>2018-05-19T11:54:14Z</time>
      </trkpt>
      <trkpt lat="44.09208" lon="3.01395">
        <ele>547.7</ele>
        <time>2018-05-19T11:54:15Z</time>
      </trkpt>
      <trkpt lat="44.092" lon="3.01397">
        <ele>547.4</ele>
        <time>2018-05-19T11:54:16Z</time>
      </trkpt>
      <trkpt lat="44.09191" lon="3.014">
        <ele>547.1</ele>
        <time>2018-05-19T11:54:17Z</time>
      </trkpt>
      <trkpt lat="44.09183" lon="3.01403">
        <ele>546.6</ele>
        <time>2018-05-19T11:54:18Z</time>
      </trkpt>
      <trkpt lat="44.09177" lon="3.01405">
        <ele>546.3</ele>
        <time>2018-05-19T11:54:19Z</time>
      </trkpt>
      <trkpt lat="44.09173" lon="3.01407">
        <ele>545.1</ele>
        <time>2018-05-19T11:54:20Z</time>
      </trkpt>
      <trkpt lat="44.0917" lon="3.01407">
        <ele>543.9</ele>
        <time>2018-05-19T11:54:21Z</time>
      </trkpt>
      <trkpt lat="44.09167" lon="3.0141">
        <ele>543.2</ele>
        <time>2018-05-19T11:54:22Z</time>
      </trkpt>
      <trkpt lat="44.09163" lon="3.01412">
        <ele>542.6</ele>
        <time>2018-05-19T11:54:23Z</time>
      </trkpt>
      <trkpt lat="44.0916" lon="3.01413">
        <ele>542.1</ele>
        <time>2018-05-19T11:54:24Z</time>
      </trkpt>
      <trkpt lat="44.09157" lon="3.01414">
        <ele>541.8</ele>
        <time>2018-05-19T11:54:25Z</time>
      </trkpt>
      <trkpt lat="44.09153" lon="3.01417">
        <ele>541.3</ele>
        <time>2018-05-19T11:54:29Z</time>
      </trkpt>
      <trkpt lat="44.09151" lon="3.01419">
        <ele>540.6</ele>
        <time>2018-05-19T11:54:31Z</time>
      </trkpt>
      <trkpt lat="44.09147" lon="3.01421">
        <ele>539.3</ele>
        <time>2018-05-19T11:54:33Z</time>
      </trkpt>
      <trkpt lat="44.09144" lon="3.01421">
        <ele>538.6</ele>
        <time>2018-05-19T11:54:35Z</time>
      </trkpt>
      <trkpt lat="44.09139" lon="3.01419">
        <ele>538.1</ele>
        <time>2018-05-19T11:54:37Z</time>
      </trkpt>
      <trkpt lat="44.09135" lon="3.01419">
        <ele>537.5</ele>
        <time>2018-05-19T11:54:39Z</time>
      </trkpt>
      <trkpt lat="44.09132" lon="3.0142">
        <ele>537.1</ele>
        <time>2018-05-19T11:54:40Z</time>
      </trkpt>
      <trkpt lat="44.09127" lon="3.01422">
        <ele>536.8</ele>
        <time>2018-05-19T11:54:41Z</time>
      </trkpt>
      <trkpt lat="44.09121" lon="3.01427">
        <ele>536</ele>
        <time>2018-05-19T11:54:42Z</time>
      </trkpt>
      <trkpt lat="44.09117" lon="3.01431">
        <ele>535</ele>
        <time>2018-05-19T11:54:43Z</time>
      </trkpt>
      <trkpt lat="44.09112" lon="3.01435">
        <ele>534.4</ele>
        <time>2018-05-19T11:54:44Z</time>
      </trkpt>
      <trkpt lat="44.09108" lon="3.01437">
        <ele>534</ele>
        <time>2018-05-19T11:54:45Z</time>
      </trkpt>
      <trkpt lat="44.09105" lon="3.01438">
        <ele>533.7</ele>
        <time>2018-05-19T11:54:46Z</time>
      </trkpt>
      <trkpt lat="44.09102" lon="3.01439">
        <ele>533.5</ele>
        <time>2018-05-19T11:54:47Z</time>
      </trkpt>
      <trkpt lat="44.09101" lon="3.01443">
        <ele>533.3</ele>
        <time>2018-05-19T11:54:48Z</time>
      </trkpt>
      <trkpt lat="44.09098" lon="3.01448">
        <ele>532.8</ele>
        <time>2018-05-19T11:54:50Z</time>
      </trkpt>
      <trkpt lat="44.09096" lon="3.01451">
        <ele>532.3</ele>
        <time>2018-05-19T11:54:51Z</time>
      </trkpt>
      <trkpt lat="44.09091" lon="3.01454">
        <ele>530.9</ele>
        <time>2018-05-19T11:54:53Z</time>
      </trkpt>
      <trkpt lat="44.09088" lon="3.01456">
        <ele>530.4</ele>
        <time>2018-05-19T11:54:54Z</time>
      </trkpt>
      <trkpt lat="44.09085" lon="3.01458">
        <ele>529.8</ele>
        <time>2018-05-19T11:54:55Z</time>
      </trkpt>
      <trkpt lat="44.0908" lon="3.01462">
        <ele>529.4</ele>
        <time>2018-05-19T11:54:56Z</time>
      </trkpt>
      <trkpt lat="44.09075" lon="3.01464">
        <ele>529</ele>
        <time>2018-05-19T11:54:57Z</time>
      </trkpt>
      <trkpt lat="44.09067" lon="3.01462">
        <ele>528.6</ele>
        <time>2018-05-19T11:54:58Z</time>
      </trkpt>
      <trkpt lat="44.0906" lon="3.01462">
        <ele>527.6</ele>
        <time>2018-05-19T11:54:59Z</time>
      </trkpt>
      <trkpt lat="44.09053" lon="3.01463">
        <ele>526.5</ele>
        <time>2018-05-19T11:55:00Z</time>
      </trkpt>
      <trkpt lat="44.09044" lon="3.01464">
        <ele>525.9</ele>
        <time>2018-05-19T11:55:01Z</time>
      </trkpt>
      <trkpt lat="44.09039" lon="3.01467">
        <ele>525.6</ele>
        <time>2018-05-19T11:55:02Z</time>
      </trkpt>
      <trkpt lat="44.09034" lon="3.01471">
        <ele>525.1</ele>
        <time>2018-05-19T11:55:03Z</time>
      </trkpt>
      <trkpt lat="44.0903" lon="3.01476">
        <ele>524.2</ele>
        <time>2018-05-19T11:55:04Z</time>
      </trkpt>
      <trkpt lat="44.09026" lon="3.01481">
        <ele>523.8</ele>
        <time>2018-05-19T11:55:05Z</time>
      </trkpt>
      <trkpt lat="44.09022" lon="3.01487">
        <ele>523.2</ele>
        <time>2018-05-19T11:55:06Z</time>
      </trkpt>
      <trkpt lat="44.09017" lon="3.01495">
        <ele>522.7</ele>
        <time>2018-05-19T11:55:07Z</time>
      </trkpt>
      <trkpt lat="44.09013" lon="3.01502">
        <ele>522.3</ele>
        <time>2018-05-19T11:55:08Z</time>
      </trkpt>
      <trkpt lat="44.09009" lon="3.01507">
        <ele>521.3</ele>
        <time>2018-05-19T11:55:09Z</time>
      </trkpt>
      <trkpt lat="44.09006" lon="3.01511">
        <ele>520.8</ele>
        <time>2018-05-19T11:55:11Z</time>
      </trkpt>
      <trkpt lat="44.09003" lon="3.01514">
        <ele>520.5</ele>
        <time>2018-05-19T11:55:12Z</time>
      </trkpt>
      <trkpt lat="44.09001" lon="3.01517">
        <ele>520.3</ele>
        <time>2018-05-19T11:55:15Z</time>
      </trkpt>
      <trkpt lat="44.08999" lon="3.01519">
        <ele>520.2</ele>
        <time>2018-05-19T11:55:24Z</time>
      </trkpt>
      <trkpt lat="44.09" lon="3.01524">
        <ele>520</ele>
        <time>2018-05-19T11:56:06Z</time>
      </trkpt>
      <trkpt lat="44.08997" lon="3.01528">
        <ele>519.7</ele>
        <time>2018-05-19T11:56:10Z</time>
      </trkpt>
      <trkpt lat="44.08994" lon="3.01532">
        <ele>519.6</ele>
        <time>2018-05-19T11:56:12Z</time>
      </trkpt>
      <trkpt lat="44.08993" lon="3.01537">
        <ele>519.4</ele>
        <time>2018-05-19T11:56:13Z</time>
      </trkpt>
      <trkpt lat="44.08991" lon="3.01543">
        <ele>518.6</ele>
        <time>2018-05-19T11:56:14Z</time>
      </trkpt>
      <trkpt lat="44.08988" lon="3.0156">
        <ele>517.2</ele>
        <time>2018-05-19T11:56:15Z</time>
      </trkpt>
      <trkpt lat="44.08986" lon="3.0157">
        <ele>516.7</ele>
        <time>2018-05-19T11:56:16Z</time>
      </trkpt>
      <trkpt lat="44.08984" lon="3.0158">
        <ele>516.3</ele>
        <time>2018-05-19T11:56:17Z</time>
      </trkpt>
      <trkpt lat="44.08981" lon="3.01591">
        <ele>515.2</ele>
        <time>2018-05-19T11:56:18Z</time>
      </trkpt>
      <trkpt lat="44.08979" lon="3.01601">
        <ele>514.8</ele>
        <time>2018-05-19T11:56:19Z</time>
      </trkpt>
      <trkpt lat="44.08979" lon="3.01612">
        <ele>514.4</ele>
        <time>2018-05-19T11:56:20Z</time>
      </trkpt>
      <trkpt lat="44.08977" lon="3.01623">
        <ele>514.2</ele>
        <time>2018-05-19T11:56:21Z</time>
      </trkpt>
      <trkpt lat="44.08979" lon="3.0163">
        <ele>514.2</ele>
        <time>2018-05-19T11:56:22Z</time>
      </trkpt>
      <trkpt lat="44.0898" lon="3.01637">
        <ele>514.1</ele>
        <time>2018-05-19T11:56:23Z</time>
      </trkpt>
      <trkpt lat="44.0898" lon="3.01643">
        <ele>514.1</ele>
        <time>2018-05-19T11:56:24Z</time>
      </trkpt>
      <trkpt lat="44.08985" lon="3.0165">
        <ele>514</ele>
        <time>2018-05-19T11:56:26Z</time>
      </trkpt>
      <trkpt lat="44.08986" lon="3.01655">
        <ele>514</ele>
        <time>2018-05-19T11:56:27Z</time>
      </trkpt>
      <trkpt lat="44.08988" lon="3.0166">
        <ele>513.9</ele>
        <time>2018-05-19T11:56:28Z</time>
      </trkpt>
      <trkpt lat="44.08989" lon="3.01665">
        <ele>513.9</ele>
        <time>2018-05-19T11:56:29Z</time>
      </trkpt>
      <trkpt lat="44.0899" lon="3.01669">
        <ele>513.8</ele>
        <time>2018-05-19T11:56:30Z</time>
      </trkpt>
      <trkpt lat="44.08993" lon="3.01676">
        <ele>513.8</ele>
        <time>2018-05-19T11:56:32Z</time>
      </trkpt>
      <trkpt lat="44.08995" lon="3.01678">
        <ele>513.7</ele>
        <time>2018-05-19T11:56:33Z</time>
      </trkpt>
      <trkpt lat="44.08998" lon="3.01682">
        <ele>513.7</ele>
        <time>2018-05-19T11:56:35Z</time>
      </trkpt>
      <trkpt lat="44.09002" lon="3.01684">
        <ele>513.7</ele>
        <time>2018-05-19T11:56:37Z</time>
      </trkpt>
      <trkpt lat="44.09005" lon="3.01685">
        <ele>513.7</ele>
        <time>2018-05-19T11:56:39Z</time>
      </trkpt>
      <trkpt lat="44.09008" lon="3.01685">
        <ele>513.6</ele>
        <time>2018-05-19T11:56:42Z</time>
      </trkpt>
      <trkpt lat="44.09005" lon="3.01685">
        <ele>513.6</ele>
        <time>2018-05-19T11:57:27Z</time>
      </trkpt>
      <trkpt lat="44.09008" lon="3.01688">
        <ele>513.6</ele>
        <time>2018-05-19T11:57:33Z</time>
      </trkpt>
      <trkpt lat="44.09011" lon="3.01688">
        <ele>513.6</ele>
        <time>2018-05-19T11:57:38Z</time>
      </trkpt>
      <trkpt lat="44.09014" lon="3.0169">
        <ele>513.6</ele>
        <time>2018-05-19T11:57:42Z</time>
      </trkpt>
      <trkpt lat="44.09018" lon="3.01691">
        <ele>513.6</ele>
        <time>2018-05-19T11:57:45Z</time>
      </trkpt>
      <trkpt lat="44.0902" lon="3.01694">
        <ele>513.5</ele>
        <time>2018-05-19T11:57:51Z</time>
      </trkpt>
      <trkpt lat="44.09022" lon="3.01695">
        <ele>513.5</ele>
        <time>2018-05-19T11:57:54Z</time>
      </trkpt>
      <trkpt lat="44.09026" lon="3.01697">
        <ele>513.5</ele>
        <time>2018-05-19T11:57:58Z</time>
      </trkpt>
      <trkpt lat="44.09029" lon="3.01699">
        <ele>513.5</ele>
        <time>2018-05-19T11:58:02Z</time>
      </trkpt>
      <trkpt lat="44.09032" lon="3.017">
        <ele>513.5</ele>
        <time>2018-05-19T11:58:05Z</time>
      </trkpt>
      <trkpt lat="44.09035" lon="3.01703">
        <ele>513.5</ele>
        <time>2018-05-19T11:58:09Z</time>
      </trkpt>
      <trkpt lat="44.09038" lon="3.01703">
        <ele>513.5</ele>
        <time>2018-05-19T11:58:13Z</time>
      </trkpt>
      <trkpt lat="44.09043" lon="3.01704">
        <ele>513.4</ele>
        <time>2018-05-19T11:58:16Z</time>
      </trkpt>
      <trkpt lat="44.09046" lon="3.01705">
        <ele>513.4</ele>
        <time>2018-05-19T11:58:18Z</time>
      </trkpt>
      <trkpt lat="44.0905" lon="3.01706">
        <ele>513.4</ele>
        <time>2018-05-19T11:58:20Z</time>
      </trkpt>
      <trkpt lat="44.09054" lon="3.01707">
        <ele>513.4</ele>
        <time>2018-05-19T11:58:22Z</time>
      </trkpt>
      <trkpt lat="44.09058" lon="3.01709">
        <ele>513.4</ele>
        <time>2018-05-19T11:58:24Z</time>
      </trkpt>
      <trkpt lat="44.09061" lon="3.01711">
        <ele>513.3</ele>
        <time>2018-05-19T11:58:26Z</time>
      </trkpt>
      <trkpt lat="44.09066" lon="3.01714">
        <ele>513.3</ele>
        <time>2018-05-19T11:58:28Z</time>
      </trkpt>
      <trkpt lat="44.0907" lon="3.01716">
        <ele>513.3</ele>
        <time>2018-05-19T11:58:30Z</time>
      </trkpt>
      <trkpt lat="44.09073" lon="3.01718">
        <ele>513.3</ele>
        <time>2018-05-19T11:58:32Z</time>
      </trkpt>
      <trkpt lat="44.09077" lon="3.01721">
        <ele>513.2</ele>
        <time>2018-05-19T11:58:34Z</time>
      </trkpt>
      <trkpt lat="44.0908" lon="3.01724">
        <ele>513.2</ele>
        <time>2018-05-19T11:58:36Z</time>
      </trkpt>
      <trkpt lat="44.09083" lon="3.01727">
        <ele>513.2</ele>
        <time>2018-05-19T11:58:38Z</time>
      </trkpt>
      <trkpt lat="44.09085" lon="3.01729">
        <ele>513.2</ele>
        <time>2018-05-19T11:58:40Z</time>
      </trkpt>
      <trkpt lat="44.09088" lon="3.01731">
        <ele>513.2</ele>
        <time>2018-05-19T11:58:43Z</time>
      </trkpt>
      <trkpt lat="44.0909" lon="3.01733">
        <ele>513.2</ele>
        <time>2018-05-19T11:58:45Z</time>
      </trkpt>
      <trkpt lat="44.09092" lon="3.01736">
        <ele>513.1</ele>
        <time>2018-05-19T11:58:47Z</time>
      </trkpt>
      <trkpt lat="44.09095" lon="3.01739">
        <ele>513.1</ele>
        <time>2018-05-19T11:58:49Z</time>
      </trkpt>
      <trkpt lat="44.09098" lon="3.01742">
        <ele>513.1</ele>
        <time>2018-05-19T11:58:51Z</time>
      </trkpt>
      <trkpt lat="44.09101" lon="3.01745">
        <ele>513.1</ele>
        <time>2018-05-19T11:58:53Z</time>
      </trkpt>
      <trkpt lat="44.09103" lon="3.01747">
        <ele>513.1</ele>
        <time>2018-05-19T11:58:55Z</time>
      </trkpt>
      <trkpt lat="44.09106" lon="3.0175">
        <ele>513.1</ele>
        <time>2018-05-19T11:58:57Z</time>
      </trkpt>
      <trkpt lat="44.09108" lon="3.01752">
        <ele>513.1</ele>
        <time>2018-05-19T11:58:59Z</time>
      </trkpt>
      <trkpt lat="44.0911" lon="3.01755">
        <ele>513</ele>
        <time>2018-05-19T11:59:01Z</time>
      </trkpt>
      <trkpt lat="44.09112" lon="3.01758">
        <ele>513</ele>
        <time>2018-05-19T11:59:03Z</time>
      </trkpt>
      <trkpt lat="44.09114" lon="3.01761">
        <ele>513</ele>
        <time>2018-05-19T11:59:05Z</time>
      </trkpt>
      <trkpt lat="44.09116" lon="3.01764">
        <ele>513</ele>
        <time>2018-05-19T11:59:07Z</time>
      </trkpt>
      <trkpt lat="44.09118" lon="3.01768">
        <ele>512.9</ele>
        <time>2018-05-19T11:59:09Z</time>
      </trkpt>
      <trkpt lat="44.09121" lon="3.01771">
        <ele>512.9</ele>
        <time>2018-05-19T11:59:12Z</time>
      </trkpt>
      <trkpt lat="44.09123" lon="3.01773">
        <ele>512.9</ele>
        <time>2018-05-19T11:59:14Z</time>
      </trkpt>
      <trkpt lat="44.09126" lon="3.01776">
        <ele>512.9</ele>
        <time>2018-05-19T11:59:17Z</time>
      </trkpt>
      <trkpt lat="44.09129" lon="3.01778">
        <ele>512.9</ele>
        <time>2018-05-19T11:59:19Z</time>
      </trkpt>
      <trkpt lat="44.09132" lon="3.0178">
        <ele>512.8</ele>
        <time>2018-05-19T11:59:21Z</time>
      </trkpt>
      <trkpt lat="44.09135" lon="3.01783">
        <ele>512.8</ele>
        <time>2018-05-19T11:59:23Z</time>
      </trkpt>
      <trkpt lat="44.09138" lon="3.01786">
        <ele>512.8</ele>
        <time>2018-05-19T11:59:25Z</time>
      </trkpt>
      <trkpt lat="44.0914" lon="3.01789">
        <ele>512.7</ele>
        <time>2018-05-19T11:59:28Z</time>
      </trkpt>
      <trkpt lat="44.09142" lon="3.01792">
        <ele>512.7</ele>
        <time>2018-05-19T11:59:30Z</time>
      </trkpt>
      <trkpt lat="44.09144" lon="3.01795">
        <ele>512.7</ele>
        <time>2018-05-19T11:59:32Z</time>
      </trkpt>
      <trkpt lat="44.09148" lon="3.01798">
        <ele>512.6</ele>
        <time>2018-05-19T11:59:35Z</time>
      </trkpt>
      <trkpt lat="44.09151" lon="3.018">
        <ele>512.6</ele>
        <time>2018-05-19T11:59:38Z</time>
      </trkpt>
      <trkpt lat="44.09154" lon="3.01802">
        <ele>512.6</ele>
        <time>2018-05-19T11:59:42Z</time>
      </trkpt>
      <trkpt lat="44.09156" lon="3.01805">
        <ele>512.5</ele>
        <time>2018-05-19T11:59:45Z</time>
      </trkpt>
      <trkpt lat="44.09158" lon="3.01809">
        <ele>512.5</ele>
        <time>2018-05-19T11:59:47Z</time>
      </trkpt>
      <trkpt lat="44.0916" lon="3.01813">
        <ele>512.4</ele>
        <time>2018-05-19T11:59:49Z</time>
      </trkpt>
      <trkpt lat="44.09162" lon="3.01816">
        <ele>512.4</ele>
        <time>2018-05-19T11:59:51Z</time>
      </trkpt>
      <trkpt lat="44.09164" lon="3.0182">
        <ele>512.4</ele>
        <time>2018-05-19T11:59:54Z</time>
      </trkpt>
      <trkpt lat="44.09162" lon="3.01824">
        <ele>512.3</ele>
        <time>2018-05-19T12:04:12Z</time>
      </trkpt>
      <trkpt lat="44.09159" lon="3.01826">
        <ele>512.3</ele>
        <time>2018-05-19T12:04:14Z</time>
      </trkpt>
      <trkpt lat="44.09155" lon="3.0183">
        <ele>512.2</ele>
        <time>2018-05-19T12:04:16Z</time>
      </trkpt>
      <trkpt lat="44.09152" lon="3.01833">
        <ele>512.1</ele>
        <time>2018-05-19T12:04:18Z</time>
      </trkpt>
      <trkpt lat="44.09149" lon="3.01836">
        <ele>512</ele>
        <time>2018-05-19T12:04:20Z</time>
      </trkpt>
      <trkpt lat="44.09145" lon="3.01839">
        <ele>511.9</ele>
        <time>2018-05-19T12:04:22Z</time>
      </trkpt>
      <trkpt lat="44.09142" lon="3.01843">
        <ele>511.9</ele>
        <time>2018-05-19T12:04:24Z</time>
      </trkpt>
      <trkpt lat="44.0914" lon="3.01847">
        <ele>511.8</ele>
        <time>2018-05-19T12:04:26Z</time>
      </trkpt>
      <trkpt lat="44.09138" lon="3.01851">
        <ele>511.7</ele>
        <time>2018-05-19T12:04:28Z</time>
      </trkpt>
      <trkpt lat="44.09136" lon="3.01854">
        <ele>511.6</ele>
        <time>2018-05-19T12:04:30Z</time>
      </trkpt>
      <trkpt lat="44.09134" lon="3.01859">
        <ele>511.4</ele>
        <time>2018-05-19T12:04:32Z</time>
      </trkpt>
      <trkpt lat="44.09132" lon="3.01863">
        <ele>511.3</ele>
        <time>2018-05-19T12:04:35Z</time>
      </trkpt>
      <trkpt lat="44.0913" lon="3.01867">
        <ele>511.1</ele>
        <time>2018-05-19T12:04:37Z</time>
      </trkpt>
      <trkpt lat="44.09129" lon="3.01871">
        <ele>511</ele>
        <time>2018-05-19T12:04:39Z</time>
      </trkpt>
      <trkpt lat="44.09127" lon="3.01874">
        <ele>510.8</ele>
        <time>2018-05-19T12:04:41Z</time>
      </trkpt>
      <trkpt lat="44.09126" lon="3.01878">
        <ele>510.6</ele>
        <time>2018-05-19T12:04:43Z</time>
      </trkpt>
      <trkpt lat="44.09124" lon="3.01882">
        <ele>510.5</ele>
        <time>2018-05-19T12:04:45Z</time>
      </trkpt>
      <trkpt lat="44.09121" lon="3.01886">
        <ele>510.2</ele>
        <time>2018-05-19T12:04:47Z</time>
      </trkpt>
      <trkpt lat="44.09119" lon="3.0189">
        <ele>510</ele>
        <time>2018-05-19T12:04:49Z</time>
      </trkpt>
      <trkpt lat="44.09117" lon="3.01892">
        <ele>509.9</ele>
        <time>2018-05-19T12:04:51Z</time>
      </trkpt>
      <trkpt lat="44.09114" lon="3.01894">
        <ele>509.8</ele>
        <time>2018-05-19T12:04:53Z</time>
      </trkpt>
      <trkpt lat="44.09111" lon="3.01896">
        <ele>509.6</ele>
        <time>2018-05-19T12:04:55Z</time>
      </trkpt>
      <trkpt lat="44.09109" lon="3.01899">
        <ele>509.5</ele>
        <time>2018-05-19T12:04:57Z</time>
      </trkpt>
      <trkpt lat="44.09107" lon="3.01902">
        <ele>509.4</ele>
        <time>2018-05-19T12:04:59Z</time>
      </trkpt>
      <trkpt lat="44.09103" lon="3.01905">
        <ele>509.2</ele>
        <time>2018-05-19T12:05:01Z</time>
      </trkpt>
      <trkpt lat="44.09097" lon="3.01906">
        <ele>509</ele>
        <time>2018-05-19T12:05:03Z</time>
      </trkpt>
      <trkpt lat="44.09091" lon="3.01907">
        <ele>509.3</ele>
        <time>2018-05-19T12:05:04Z</time>
      </trkpt>
      <trkpt lat="44.09085" lon="3.01908">
        <ele>509.5</ele>
        <time>2018-05-19T12:05:05Z</time>
      </trkpt>
      <trkpt lat="44.09079" lon="3.01908">
        <ele>509.7</ele>
        <time>2018-05-19T12:05:06Z</time>
      </trkpt>
      <trkpt lat="44.09072" lon="3.01907">
        <ele>510.1</ele>
        <time>2018-05-19T12:05:07Z</time>
      </trkpt>
      <trkpt lat="44.09065" lon="3.01906">
        <ele>510.2</ele>
        <time>2018-05-19T12:05:08Z</time>
      </trkpt>
      <trkpt lat="44.09059" lon="3.01908">
        <ele>510.2</ele>
        <time>2018-05-19T12:05:09Z</time>
      </trkpt>
      <trkpt lat="44.09055" lon="3.01908">
        <ele>510.2</ele>
        <time>2018-05-19T12:05:10Z</time>
      </trkpt>
      <trkpt lat="44.09048" lon="3.01909">
        <ele>510.2</ele>
        <time>2018-05-19T12:05:11Z</time>
      </trkpt>
      <trkpt lat="44.09043" lon="3.0191">
        <ele>510.2</ele>
        <time>2018-05-19T12:05:12Z</time>
      </trkpt>
      <trkpt lat="44.09036" lon="3.01909">
        <ele>510.3</ele>
        <time>2018-05-19T12:05:13Z</time>
      </trkpt>
      <trkpt lat="44.0903" lon="3.01908">
        <ele>510.3</ele>
        <time>2018-05-19T12:05:14Z</time>
      </trkpt>
      <trkpt lat="44.09024" lon="3.01908">
        <ele>510.4</ele>
        <time>2018-05-19T12:05:15Z</time>
      </trkpt>
      <trkpt lat="44.09016" lon="3.0191">
        <ele>510.6</ele>
        <time>2018-05-19T12:05:16Z</time>
      </trkpt>
      <trkpt lat="44.0901" lon="3.01913">
        <ele>510.7</ele>
        <time>2018-05-19T12:05:17Z</time>
      </trkpt>
      <trkpt lat="44.09005" lon="3.01916">
        <ele>510.9</ele>
        <time>2018-05-19T12:05:18Z</time>
      </trkpt>
      <trkpt lat="44.08999" lon="3.01918">
        <ele>511</ele>
        <time>2018-05-19T12:05:19Z</time>
      </trkpt>
      <trkpt lat="44.08992" lon="3.01921">
        <ele>511.1</ele>
        <time>2018-05-19T12:05:20Z</time>
      </trkpt>
      <trkpt lat="44.08986" lon="3.01923">
        <ele>511.2</ele>
        <time>2018-05-19T12:05:21Z</time>
      </trkpt>
      <trkpt lat="44.08979" lon="3.01924">
        <ele>511.4</ele>
        <time>2018-05-19T12:05:22Z</time>
      </trkpt>
      <trkpt lat="44.08973" lon="3.01926">
        <ele>511.7</ele>
        <time>2018-05-19T12:05:23Z</time>
      </trkpt>
      <trkpt lat="44.08967" lon="3.01928">
        <ele>512</ele>
        <time>2018-05-19T12:05:24Z</time>
      </trkpt>
      <trkpt lat="44.08961" lon="3.01931">
        <ele>512.4</ele>
        <time>2018-05-19T12:05:25Z</time>
      </trkpt>
      <trkpt lat="44.08954" lon="3.01932">
        <ele>512.8</ele>
        <time>2018-05-19T12:05:26Z</time>
      </trkpt>
      <trkpt lat="44.08949" lon="3.01933">
        <ele>513</ele>
        <time>2018-05-19T12:05:27Z</time>
      </trkpt>
      <trkpt lat="44.08943" lon="3.01934">
        <ele>513.2</ele>
        <time>2018-05-19T12:05:28Z</time>
      </trkpt>
      <trkpt lat="44.08938" lon="3.01934">
        <ele>513.4</ele>
        <time>2018-05-19T12:05:29Z</time>
      </trkpt>
      <trkpt lat="44.08932" lon="3.01936">
        <ele>513.8</ele>
        <time>2018-05-19T12:05:30Z</time>
      </trkpt>
      <trkpt lat="44.08926" lon="3.0194">
        <ele>514</ele>
        <time>2018-05-19T12:05:31Z</time>
      </trkpt>
      <trkpt lat="44.08919" lon="3.01945">
        <ele>514.2</ele>
        <time>2018-05-19T12:05:32Z</time>
      </trkpt>
      <trkpt lat="44.08913" lon="3.01952">
        <ele>514.4</ele>
        <time>2018-05-19T12:05:33Z</time>
      </trkpt>
      <trkpt lat="44.08907" lon="3.01959">
        <ele>514.5</ele>
        <time>2018-05-19T12:05:34Z</time>
      </trkpt>
      <trkpt lat="44.08901" lon="3.01966">
        <ele>514.7</ele>
        <time>2018-05-19T12:05:35Z</time>
      </trkpt>
      <trkpt lat="44.08895" lon="3.01973">
        <ele>514.8</ele>
        <time>2018-05-19T12:05:36Z</time>
      </trkpt>
      <trkpt lat="44.0889" lon="3.01979">
        <ele>514.8</ele>
        <time>2018-05-19T12:05:37Z</time>
      </trkpt>
      <trkpt lat="44.08886" lon="3.01988">
        <ele>515</ele>
        <time>2018-05-19T12:05:38Z</time>
      </trkpt>
      <trkpt lat="44.08882" lon="3.01999">
        <ele>515.2</ele>
        <time>2018-05-19T12:05:39Z</time>
      </trkpt>
      <trkpt lat="44.08878" lon="3.02009">
        <ele>515.3</ele>
        <time>2018-05-19T12:05:40Z</time>
      </trkpt>
      <trkpt lat="44.08875" lon="3.02018">
        <ele>515.4</ele>
        <time>2018-05-19T12:05:41Z</time>
      </trkpt>
      <trkpt lat="44.08874" lon="3.02029">
        <ele>515.4</ele>
        <time>2018-05-19T12:05:42Z</time>
      </trkpt>
      <trkpt lat="44.08874" lon="3.02042">
        <ele>515.6</ele>
        <time>2018-05-19T12:05:43Z</time>
      </trkpt>
      <trkpt lat="44.08873" lon="3.02052">
        <ele>515.8</ele>
        <time>2018-05-19T12:05:44Z</time>
      </trkpt>
      <trkpt lat="44.08873" lon="3.02061">
        <ele>516</ele>
        <time>2018-05-19T12:05:45Z</time>
      </trkpt>
      <trkpt lat="44.08873" lon="3.02069">
        <ele>516.1</ele>
        <time>2018-05-19T12:05:46Z</time>
      </trkpt>
      <trkpt lat="44.08876" lon="3.02075">
        <ele>516.2</ele>
        <time>2018-05-19T12:05:47Z</time>
      </trkpt>
      <trkpt lat="44.08879" lon="3.0208">
        <ele>516.3</ele>
        <time>2018-05-19T12:05:48Z</time>
      </trkpt>
      <trkpt lat="44.08882" lon="3.02082">
        <ele>516.3</ele>
        <time>2018-05-19T12:05:49Z</time>
      </trkpt>
      <trkpt lat="44.08884" lon="3.02084">
        <ele>516.4</ele>
        <time>2018-05-19T12:05:50Z</time>
      </trkpt>
      <trkpt lat="44.08887" lon="3.02087">
        <ele>516.4</ele>
        <time>2018-05-19T12:05:52Z</time>
      </trkpt>
      <trkpt lat="44.0889" lon="3.02091">
        <ele>516.4</ele>
        <time>2018-05-19T12:05:55Z</time>
      </trkpt>
      <trkpt lat="44.08892" lon="3.02093">
        <ele>516.5</ele>
        <time>2018-05-19T12:05:58Z</time>
      </trkpt>
      <trkpt lat="44.08895" lon="3.02094">
        <ele>516.5</ele>
        <time>2018-05-19T12:06:01Z</time>
      </trkpt>
      <trkpt lat="44.08898" lon="3.02097">
        <ele>516.5</ele>
        <time>2018-05-19T12:06:04Z</time>
      </trkpt>
      <trkpt lat="44.08902" lon="3.02099">
        <ele>516.6</ele>
        <time>2018-05-19T12:06:07Z</time>
      </trkpt>
      <trkpt lat="44.08904" lon="3.02102">
        <ele>516.6</ele>
        <time>2018-05-19T12:06:09Z</time>
      </trkpt>
      <trkpt lat="44.08907" lon="3.02105">
        <ele>516.6</ele>
        <time>2018-05-19T12:06:11Z</time>
      </trkpt>
      <trkpt lat="44.08909" lon="3.02108">
        <ele>516.7</ele>
        <time>2018-05-19T12:06:13Z</time>
      </trkpt>
      <trkpt lat="44.08912" lon="3.02111">
        <ele>516.8</ele>
        <time>2018-05-19T12:06:15Z</time>
      </trkpt>
      <trkpt lat="44.08913" lon="3.02115">
        <ele>516.8</ele>
        <time>2018-05-19T12:06:27Z</time>
      </trkpt>
      <trkpt lat="44.08914" lon="3.02119">
        <ele>516.9</ele>
        <time>2018-05-19T12:06:31Z</time>
      </trkpt>
      <trkpt lat="44.08915" lon="3.02123">
        <ele>516.9</ele>
        <time>2018-05-19T12:06:34Z</time>
      </trkpt>
      <trkpt lat="44.08914" lon="3.02127">
        <ele>516</ele>
        <time>2018-05-19T12:06:44Z</time>
      </trkpt>
      <trkpt lat="44.08914" lon="3.02131">
        <ele>515.6</ele>
        <time>2018-05-19T12:06:52Z</time>
      </trkpt>
      <trkpt lat="44.08912" lon="3.02135">
        <ele>514.9</ele>
        <time>2018-05-19T12:09:47Z</time>
      </trkpt>
      <trkpt lat="44.08916" lon="3.02137">
        <ele>514.2</ele>
        <time>2018-05-19T12:09:50Z</time>
      </trkpt>
      <trkpt lat="44.08918" lon="3.02138">
        <ele>513.2</ele>
        <time>2018-05-19T12:09:53Z</time>
      </trkpt>
      <trkpt lat="44.08921" lon="3.0214">
        <ele>512.1</ele>
        <time>2018-05-19T12:09:59Z</time>
      </trkpt>
      <trkpt lat="44.08916" lon="3.02142">
        <ele>510.2</ele>
        <time>2018-05-19T12:12:13Z</time>
      </trkpt>
      <trkpt lat="44.08918" lon="3.02145">
        <ele>509.5</ele>
        <time>2018-05-19T12:12:16Z</time>
      </trkpt>
      <trkpt lat="44.0892" lon="3.02151">
        <ele>508.5</ele>
        <time>2018-05-19T12:12:18Z</time>
      </trkpt>
      <trkpt lat="44.08922" lon="3.02155">
        <ele>507.8</ele>
        <time>2018-05-19T12:12:19Z</time>
      </trkpt>
      <trkpt lat="44.08925" lon="3.02163">
        <ele>506.9</ele>
        <time>2018-05-19T12:12:20Z</time>
      </trkpt>
      <trkpt lat="44.08927" lon="3.0217">
        <ele>505.9</ele>
        <time>2018-05-19T12:12:21Z</time>
      </trkpt>
      <trkpt lat="44.0893" lon="3.02177">
        <ele>504.7</ele>
        <time>2018-05-19T12:12:22Z</time>
      </trkpt>
      <trkpt lat="44.08933" lon="3.02185">
        <ele>504</ele>
        <time>2018-05-19T12:12:23Z</time>
      </trkpt>
      <trkpt lat="44.08936" lon="3.02193">
        <ele>504</ele>
        <time>2018-05-19T12:12:24Z</time>
      </trkpt>
      <trkpt lat="44.08939" lon="3.02202">
        <ele>504</ele>
        <time>2018-05-19T12:12:25Z</time>
      </trkpt>
      <trkpt lat="44.08943" lon="3.02211">
        <ele>504</ele>
        <time>2018-05-19T12:12:26Z</time>
      </trkpt>
      <trkpt lat="44.08946" lon="3.02218">
        <ele>504</ele>
        <time>2018-05-19T12:12:27Z</time>
      </trkpt>
      <trkpt lat="44.08949" lon="3.02223">
        <ele>504</ele>
        <time>2018-05-19T12:12:28Z</time>
      </trkpt>
      <trkpt lat="44.08952" lon="3.02227">
        <ele>504</ele>
        <time>2018-05-19T12:12:29Z</time>
      </trkpt>
      <trkpt lat="44.08955" lon="3.0223">
        <ele>504</ele>
        <time>2018-05-19T12:12:30Z</time>
      </trkpt>
      <trkpt lat="44.08958" lon="3.02234">
        <ele>504</ele>
        <time>2018-05-19T12:12:32Z</time>
      </trkpt>
      <trkpt lat="44.0896" lon="3.02239">
        <ele>504</ele>
        <time>2018-05-19T12:12:35Z</time>
      </trkpt>
      <trkpt lat="44.0896" lon="3.02245">
        <ele>504</ele>
        <time>2018-05-19T12:12:37Z</time>
      </trkpt>
      <trkpt lat="44.08962" lon="3.0225">
        <ele>503.4</ele>
        <time>2018-05-19T12:12:38Z</time>
      </trkpt>
      <trkpt lat="44.08964" lon="3.02258">
        <ele>503.5</ele>
        <time>2018-05-19T12:12:39Z</time>
      </trkpt>
      <trkpt lat="44.08966" lon="3.02266">
        <ele>504.1</ele>
        <time>2018-05-19T12:12:40Z</time>
      </trkpt>
      <trkpt lat="44.08968" lon="3.02274">
        <ele>503.9</ele>
        <time>2018-05-19T12:12:41Z</time>
      </trkpt>
      <trkpt lat="44.0897" lon="3.02281">
        <ele>505.9</ele>
        <time>2018-05-19T12:12:42Z</time>
      </trkpt>
      <trkpt lat="44.08973" lon="3.02288">
        <ele>507.7</ele>
        <time>2018-05-19T12:12:43Z</time>
      </trkpt>
      <trkpt lat="44.08976" lon="3.02292">
        <ele>508.9</ele>
        <time>2018-05-19T12:12:44Z</time>
      </trkpt>
      <trkpt lat="44.08979" lon="3.02295">
        <ele>509.2</ele>
        <time>2018-05-19T12:12:45Z</time>
      </trkpt>
      <trkpt lat="44.08982" lon="3.02299">
        <ele>509.5</ele>
        <time>2018-05-19T12:12:47Z</time>
      </trkpt>
      <trkpt lat="44.08984" lon="3.02304">
        <ele>509.5</ele>
        <time>2018-05-19T12:12:49Z</time>
      </trkpt>
      <trkpt lat="44.08986" lon="3.02309">
        <ele>509.6</ele>
        <time>2018-05-19T12:12:50Z</time>
      </trkpt>
      <trkpt lat="44.08987" lon="3.02314">
        <ele>508.8</ele>
        <time>2018-05-19T12:12:51Z</time>
      </trkpt>
      <trkpt lat="44.08989" lon="3.0232">
        <ele>508</ele>
        <time>2018-05-19T12:12:52Z</time>
      </trkpt>
      <trkpt lat="44.0899" lon="3.02326">
        <ele>506.6</ele>
        <time>2018-05-19T12:12:53Z</time>
      </trkpt>
      <trkpt lat="44.08992" lon="3.0233">
        <ele>505.4</ele>
        <time>2018-05-19T12:12:54Z</time>
      </trkpt>
      <trkpt lat="44.08993" lon="3.02334">
        <ele>505</ele>
        <time>2018-05-19T12:12:55Z</time>
      </trkpt>
      <trkpt lat="44.08995" lon="3.02339">
        <ele>504.9</ele>
        <time>2018-05-19T12:12:56Z</time>
      </trkpt>
      <trkpt lat="44.08996" lon="3.02344">
        <ele>504.7</ele>
        <time>2018-05-19T12:12:57Z</time>
      </trkpt>
      <trkpt lat="44.08997" lon="3.02348">
        <ele>504</ele>
        <time>2018-05-19T12:12:58Z</time>
      </trkpt>
      <trkpt lat="44.08999" lon="3.02351">
        <ele>503.4</ele>
        <time>2018-05-19T12:12:59Z</time>
      </trkpt>
      <trkpt lat="44.09004" lon="3.02354">
        <ele>503</ele>
        <time>2018-05-19T12:13:00Z</time>
      </trkpt>
      <trkpt lat="44.09008" lon="3.02359">
        <ele>502.2</ele>
        <time>2018-05-19T12:13:01Z</time>
      </trkpt>
      <trkpt lat="44.09011" lon="3.02364">
        <ele>500.5</ele>
        <time>2018-05-19T12:13:02Z</time>
      </trkpt>
      <trkpt lat="44.09015" lon="3.02371">
        <ele>499.1</ele>
        <time>2018-05-19T12:13:03Z</time>
      </trkpt>
      <trkpt lat="44.09018" lon="3.02376">
        <ele>497.7</ele>
        <time>2018-05-19T12:13:04Z</time>
      </trkpt>
      <trkpt lat="44.09022" lon="3.02382">
        <ele>496.3</ele>
        <time>2018-05-19T12:13:05Z</time>
      </trkpt>
      <trkpt lat="44.09025" lon="3.02385">
        <ele>496.3</ele>
        <time>2018-05-19T12:13:06Z</time>
      </trkpt>
      <trkpt lat="44.09028" lon="3.02388">
        <ele>496.2</ele>
        <time>2018-05-19T12:13:07Z</time>
      </trkpt>
      <trkpt lat="44.09032" lon="3.02391">
        <ele>496.5</ele>
        <time>2018-05-19T12:13:09Z</time>
      </trkpt>
      <trkpt lat="44.09035" lon="3.02391">
        <ele>496.7</ele>
        <time>2018-05-19T12:13:11Z</time>
      </trkpt>
      <trkpt lat="44.09039" lon="3.02393">
        <ele>496.9</ele>
        <time>2018-05-19T12:13:14Z</time>
      </trkpt>
      <trkpt lat="44.09041" lon="3.02396">
        <ele>496.9</ele>
        <time>2018-05-19T12:13:16Z</time>
      </trkpt>
      <trkpt lat="44.09044" lon="3.02398">
        <ele>496.9</ele>
        <time>2018-05-19T12:13:18Z</time>
      </trkpt>
      <trkpt lat="44.09048" lon="3.024">
        <ele>497.5</ele>
        <time>2018-05-19T12:13:20Z</time>
      </trkpt>
      <trkpt lat="44.09051" lon="3.024">
        <ele>498.3</ele>
        <time>2018-05-19T12:13:22Z</time>
      </trkpt>
      <trkpt lat="44.09055" lon="3.02401">
        <ele>499.2</ele>
        <time>2018-05-19T12:13:25Z</time>
      </trkpt>
      <trkpt lat="44.09058" lon="3.02401">
        <ele>499</ele>
        <time>2018-05-19T12:13:27Z</time>
      </trkpt>
      <trkpt lat="44.09061" lon="3.02401">
        <ele>498.7</ele>
        <time>2018-05-19T12:13:29Z</time>
      </trkpt>
      <trkpt lat="44.09065" lon="3.02402">
        <ele>498.5</ele>
        <time>2018-05-19T12:13:32Z</time>
      </trkpt>
      <trkpt lat="44.09068" lon="3.02404">
        <ele>498.3</ele>
        <time>2018-05-19T12:13:34Z</time>
      </trkpt>
      <trkpt lat="44.09072" lon="3.02406">
        <ele>498.1</ele>
        <time>2018-05-19T12:13:37Z</time>
      </trkpt>
      <trkpt lat="44.09075" lon="3.02406">
        <ele>498</ele>
        <time>2018-05-19T12:13:39Z</time>
      </trkpt>
      <trkpt lat="44.09078" lon="3.02406">
        <ele>497.8</ele>
        <time>2018-05-19T12:13:41Z</time>
      </trkpt>
      <trkpt lat="44.09082" lon="3.02407">
        <ele>498.1</ele>
        <time>2018-05-19T12:13:43Z</time>
      </trkpt>
      <trkpt lat="44.09084" lon="3.02407">
        <ele>498.5</ele>
        <time>2018-05-19T12:13:45Z</time>
      </trkpt>
      <trkpt lat="44.09087" lon="3.02407">
        <ele>499</ele>
        <time>2018-05-19T12:13:47Z</time>
      </trkpt>
      <trkpt lat="44.09091" lon="3.02407">
        <ele>499.7</ele>
        <time>2018-05-19T12:13:49Z</time>
      </trkpt>
      <trkpt lat="44.09094" lon="3.02408">
        <ele>500.2</ele>
        <time>2018-05-19T12:13:51Z</time>
      </trkpt>
      <trkpt lat="44.09098" lon="3.02412">
        <ele>500.4</ele>
        <time>2018-05-19T12:13:53Z</time>
      </trkpt>
      <trkpt lat="44.09101" lon="3.02414">
        <ele>500.2</ele>
        <time>2018-05-19T12:13:54Z</time>
      </trkpt>
      <trkpt lat="44.09105" lon="3.02417">
        <ele>499.4</ele>
        <time>2018-05-19T12:13:55Z</time>
      </trkpt>
      <trkpt lat="44.09108" lon="3.0242">
        <ele>498.3</ele>
        <time>2018-05-19T12:13:56Z</time>
      </trkpt>
      <trkpt lat="44.09112" lon="3.02422">
        <ele>497.4</ele>
        <time>2018-05-19T12:13:58Z</time>
      </trkpt>
      <trkpt lat="44.09115" lon="3.02424">
        <ele>497.6</ele>
        <time>2018-05-19T12:14:00Z</time>
      </trkpt>
      <trkpt lat="44.09118" lon="3.02426">
        <ele>497.8</ele>
        <time>2018-05-19T12:14:02Z</time>
      </trkpt>
      <trkpt lat="44.09122" lon="3.0243">
        <ele>497.9</ele>
        <time>2018-05-19T12:14:04Z</time>
      </trkpt>
      <trkpt lat="44.09127" lon="3.02433">
        <ele>497.9</ele>
        <time>2018-05-19T12:14:06Z</time>
      </trkpt>
      <trkpt lat="44.09131" lon="3.02436">
        <ele>498.6</ele>
        <time>2018-05-19T12:14:08Z</time>
      </trkpt>
      <trkpt lat="44.09135" lon="3.0244">
        <ele>499.1</ele>
        <time>2018-05-19T12:14:10Z</time>
      </trkpt>
      <trkpt lat="44.09138" lon="3.02442">
        <ele>498.8</ele>
        <time>2018-05-19T12:14:11Z</time>
      </trkpt>
      <trkpt lat="44.0914" lon="3.02444">
        <ele>498.6</ele>
        <time>2018-05-19T12:14:12Z</time>
      </trkpt>
      <trkpt lat="44.09143" lon="3.02446">
        <ele>498.6</ele>
        <time>2018-05-19T12:14:13Z</time>
      </trkpt>
      <trkpt lat="44.09145" lon="3.02448">
        <ele>499.2</ele>
        <time>2018-05-19T12:14:14Z</time>
      </trkpt>
      <trkpt lat="44.09148" lon="3.02449">
        <ele>499.8</ele>
        <time>2018-05-19T12:14:15Z</time>
      </trkpt>
      <trkpt lat="44.09151" lon="3.0245">
        <ele>500.4</ele>
        <time>2018-05-19T12:14:16Z</time>
      </trkpt>
      <trkpt lat="44.09156" lon="3.0245">
        <ele>501.9</ele>
        <time>2018-05-19T12:14:18Z</time>
      </trkpt>
      <trkpt lat="44.0916" lon="3.02449">
        <ele>503.5</ele>
        <time>2018-05-19T12:14:20Z</time>
      </trkpt>
      <trkpt lat="44.09163" lon="3.0245">
        <ele>505.4</ele>
        <time>2018-05-19T12:14:23Z</time>
      </trkpt>
      <trkpt lat="44.09167" lon="3.02452">
        <ele>506.9</ele>
        <time>2018-05-19T12:14:25Z</time>
      </trkpt>
      <trkpt lat="44.09171" lon="3.02454">
        <ele>508.2</ele>
        <time>2018-05-19T12:14:28Z</time>
      </trkpt>
      <trkpt lat="44.09173" lon="3.02458">
        <ele>508.9</ele>
        <time>2018-05-19T12:14:30Z</time>
      </trkpt>
      <trkpt lat="44.09177" lon="3.02461">
        <ele>509.4</ele>
        <time>2018-05-19T12:14:32Z</time>
      </trkpt>
      <trkpt lat="44.09179" lon="3.02463">
        <ele>508.7</ele>
        <time>2018-05-19T12:14:34Z</time>
      </trkpt>
      <trkpt lat="44.09182" lon="3.02467">
        <ele>507.8</ele>
        <time>2018-05-19T12:14:36Z</time>
      </trkpt>
      <trkpt lat="44.09185" lon="3.02472">
        <ele>508.3</ele>
        <time>2018-05-19T12:14:38Z</time>
      </trkpt>
      <trkpt lat="44.09187" lon="3.02477">
        <ele>508.4</ele>
        <time>2018-05-19T12:14:40Z</time>
      </trkpt>
      <trkpt lat="44.09189" lon="3.02481">
        <ele>507.8</ele>
        <time>2018-05-19T12:14:42Z</time>
      </trkpt>
      <trkpt lat="44.09192" lon="3.02484">
        <ele>507.4</ele>
        <time>2018-05-19T12:14:44Z</time>
      </trkpt>
      <trkpt lat="44.09195" lon="3.02487">
        <ele>507.6</ele>
        <time>2018-05-19T12:14:47Z</time>
      </trkpt>
      <trkpt lat="44.09198" lon="3.0249">
        <ele>507.6</ele>
        <time>2018-05-19T12:14:52Z</time>
      </trkpt>
      <trkpt lat="44.092" lon="3.02492">
        <ele>507.3</ele>
        <time>2018-05-19T12:15:12Z</time>
      </trkpt>
      <trkpt lat="44.09203" lon="3.02495">
        <ele>507</ele>
        <time>2018-05-19T12:15:16Z</time>
      </trkpt>
      <trkpt lat="44.09205" lon="3.02498">
        <ele>507.4</ele>
        <time>2018-05-19T12:15:23Z</time>
      </trkpt>
      <trkpt lat="44.09208" lon="3.025">
        <ele>508</ele>
        <time>2018-05-19T12:15:26Z</time>
      </trkpt>
      <trkpt lat="44.09212" lon="3.02499">
        <ele>508.5</ele>
        <time>2018-05-19T12:15:29Z</time>
      </trkpt>
      <trkpt lat="44.09215" lon="3.025">
        <ele>509.1</ele>
        <time>2018-05-19T12:15:32Z</time>
      </trkpt>
      <trkpt lat="44.09218" lon="3.02502">
        <ele>509.6</ele>
        <time>2018-05-19T12:15:37Z</time>
      </trkpt>
      <trkpt lat="44.09221" lon="3.02504">
        <ele>510</ele>
        <time>2018-05-19T12:15:40Z</time>
      </trkpt>
      <trkpt lat="44.09223" lon="3.02506">
        <ele>510.6</ele>
        <time>2018-05-19T12:15:45Z</time>
      </trkpt>
      <trkpt lat="44.09225" lon="3.02508">
        <ele>511.4</ele>
        <time>2018-05-19T12:15:50Z</time>
      </trkpt>
      <trkpt lat="44.09228" lon="3.0251">
        <ele>512.3</ele>
        <time>2018-05-19T12:15:56Z</time>
      </trkpt>
      <trkpt lat="44.09231" lon="3.02509">
        <ele>513</ele>
        <time>2018-05-19T12:16:01Z</time>
      </trkpt>
      <trkpt lat="44.09235" lon="3.02509">
        <ele>513.9</ele>
        <time>2018-05-19T12:16:05Z</time>
      </trkpt>
      <trkpt lat="44.09238" lon="3.02509">
        <ele>514.8</ele>
        <time>2018-05-19T12:16:10Z</time>
      </trkpt>
      <trkpt lat="44.09241" lon="3.02509">
        <ele>515.6</ele>
        <time>2018-05-19T12:16:14Z</time>
      </trkpt>
      <trkpt lat="44.09244" lon="3.02507">
        <ele>516.4</ele>
        <time>2018-05-19T12:16:17Z</time>
      </trkpt>
      <trkpt lat="44.09247" lon="3.02506">
        <ele>516.9</ele>
        <time>2018-05-19T12:16:19Z</time>
      </trkpt>
      <trkpt lat="44.0925" lon="3.02506">
        <ele>517.5</ele>
        <time>2018-05-19T12:16:23Z</time>
      </trkpt>
      <trkpt lat="44.09252" lon="3.02508">
        <ele>518</ele>
        <time>2018-05-19T12:16:28Z</time>
      </trkpt>
      <trkpt lat="44.09255" lon="3.02509">
        <ele>518.5</ele>
        <time>2018-05-19T12:16:32Z</time>
      </trkpt>
      <trkpt lat="44.09258" lon="3.0251">
        <ele>518.8</ele>
        <time>2018-05-19T12:16:37Z</time>
      </trkpt>
      <trkpt lat="44.09261" lon="3.0251">
        <ele>519.2</ele>
        <time>2018-05-19T12:16:40Z</time>
      </trkpt>
      <trkpt lat="44.09265" lon="3.02511">
        <ele>519.4</ele>
        <time>2018-05-19T12:16:43Z</time>
      </trkpt>
      <trkpt lat="44.09269" lon="3.02511">
        <ele>519.5</ele>
        <time>2018-05-19T12:16:48Z</time>
      </trkpt>
      <trkpt lat="44.09271" lon="3.02513">
        <ele>519.6</ele>
        <time>2018-05-19T12:16:51Z</time>
      </trkpt>
      <trkpt lat="44.09274" lon="3.02515">
        <ele>520.1</ele>
        <time>2018-05-19T12:16:56Z</time>
      </trkpt>
      <trkpt lat="44.09277" lon="3.02516">
        <ele>520.5</ele>
        <time>2018-05-19T12:17:04Z</time>
      </trkpt>
      <trkpt lat="44.0928" lon="3.02518">
        <ele>520.7</ele>
        <time>2018-05-19T12:17:08Z</time>
      </trkpt>
      <trkpt lat="44.09282" lon="3.02521">
        <ele>520.8</ele>
        <time>2018-05-19T12:17:13Z</time>
      </trkpt>
      <trkpt lat="44.09285" lon="3.02523">
        <ele>520.8</ele>
        <time>2018-05-19T12:17:18Z</time>
      </trkpt>
      <trkpt lat="44.09286" lon="3.02527">
        <ele>520.6</ele>
        <time>2018-05-19T12:17:25Z</time>
      </trkpt>
      <trkpt lat="44.09289" lon="3.02529">
        <ele>520.4</ele>
        <time>2018-05-19T12:19:14Z</time>
      </trkpt>
      <trkpt lat="44.09287" lon="3.02527">
        <ele>520.1</ele>
        <time>2018-05-19T12:19:24Z</time>
      </trkpt>
      <trkpt lat="44.09284" lon="3.02526">
        <ele>519.8</ele>
        <time>2018-05-19T12:19:34Z</time>
      </trkpt>
      <trkpt lat="44.09287" lon="3.02521">
        <ele>519.1</ele>
        <time>2018-05-19T12:22:03Z</time>
      </trkpt>
      <trkpt lat="44.09288" lon="3.02517">
        <ele>518.5</ele>
        <time>2018-05-19T12:22:12Z</time>
      </trkpt>
      <trkpt lat="44.09289" lon="3.02522">
        <ele>517.8</ele>
        <time>2018-05-19T12:22:26Z</time>
      </trkpt>
      <trkpt lat="44.0929" lon="3.02526">
        <ele>517.2</ele>
        <time>2018-05-19T12:22:27Z</time>
      </trkpt>
      <trkpt lat="44.09291" lon="3.02532">
        <ele>516.5</ele>
        <time>2018-05-19T12:22:28Z</time>
      </trkpt>
      <trkpt lat="44.09292" lon="3.02543">
        <ele>516.4</ele>
        <time>2018-05-19T12:22:29Z</time>
      </trkpt>
      <trkpt lat="44.09294" lon="3.0255">
        <ele>516.2</ele>
        <time>2018-05-19T12:22:30Z</time>
      </trkpt>
      <trkpt lat="44.09296" lon="3.02559">
        <ele>516</ele>
        <time>2018-05-19T12:22:31Z</time>
      </trkpt>
      <trkpt lat="44.093" lon="3.02564">
        <ele>516</ele>
        <time>2018-05-19T12:22:32Z</time>
      </trkpt>
      <trkpt lat="44.09302" lon="3.02568">
        <ele>516.2</ele>
        <time>2018-05-19T12:22:33Z</time>
      </trkpt>
      <trkpt lat="44.09305" lon="3.02571">
        <ele>516.3</ele>
        <time>2018-05-19T12:22:34Z</time>
      </trkpt>
      <trkpt lat="44.09308" lon="3.02573">
        <ele>516.3</ele>
        <time>2018-05-19T12:22:35Z</time>
      </trkpt>
      <trkpt lat="44.09312" lon="3.02573">
        <ele>516.2</ele>
        <time>2018-05-19T12:22:36Z</time>
      </trkpt>
      <trkpt lat="44.09316" lon="3.02573">
        <ele>516.1</ele>
        <time>2018-05-19T12:22:37Z</time>
      </trkpt>
      <trkpt lat="44.09319" lon="3.02574">
        <ele>516</ele>
        <time>2018-05-19T12:22:38Z</time>
      </trkpt>
      <trkpt lat="44.09324" lon="3.02574">
        <ele>516.2</ele>
        <time>2018-05-19T12:22:39Z</time>
      </trkpt>
      <trkpt lat="44.09331" lon="3.02579">
        <ele>516.3</ele>
        <time>2018-05-19T12:22:40Z</time>
      </trkpt>
      <trkpt lat="44.09338" lon="3.02582">
        <ele>516.4</ele>
        <time>2018-05-19T12:22:41Z</time>
      </trkpt>
      <trkpt lat="44.09342" lon="3.02583">
        <ele>516.5</ele>
        <time>2018-05-19T12:22:42Z</time>
      </trkpt>
      <trkpt lat="44.09349" lon="3.02583">
        <ele>516.8</ele>
        <time>2018-05-19T12:22:43Z</time>
      </trkpt>
      <trkpt lat="44.09353" lon="3.02583">
        <ele>516.5</ele>
        <time>2018-05-19T12:22:44Z</time>
      </trkpt>
      <trkpt lat="44.09356" lon="3.02584">
        <ele>516.4</ele>
        <time>2018-05-19T12:22:45Z</time>
      </trkpt>
      <trkpt lat="44.0936" lon="3.02584">
        <ele>516.2</ele>
        <time>2018-05-19T12:22:46Z</time>
      </trkpt>
      <trkpt lat="44.09364" lon="3.02588">
        <ele>515.9</ele>
        <time>2018-05-19T12:22:48Z</time>
      </trkpt>
      <trkpt lat="44.09366" lon="3.0259">
        <ele>515.8</ele>
        <time>2018-05-19T12:22:50Z</time>
      </trkpt>
      <trkpt lat="44.09364" lon="3.02594">
        <ele>515.6</ele>
        <time>2018-05-19T12:22:51Z</time>
      </trkpt>
      <trkpt lat="44.09363" lon="3.026">
        <ele>515.4</ele>
        <time>2018-05-19T12:22:52Z</time>
      </trkpt>
      <trkpt lat="44.09361" lon="3.02604">
        <ele>515.1</ele>
        <time>2018-05-19T12:22:53Z</time>
      </trkpt>
      <trkpt lat="44.09361" lon="3.02609">
        <ele>514.9</ele>
        <time>2018-05-19T12:22:54Z</time>
      </trkpt>
      <trkpt lat="44.09359" lon="3.02617">
        <ele>514.5</ele>
        <time>2018-05-19T12:22:55Z</time>
      </trkpt>
      <trkpt lat="44.09356" lon="3.02621">
        <ele>514.1</ele>
        <time>2018-05-19T12:22:56Z</time>
      </trkpt>
      <trkpt lat="44.09353" lon="3.02627">
        <ele>513.6</ele>
        <time>2018-05-19T12:22:57Z</time>
      </trkpt>
      <trkpt lat="44.09349" lon="3.02635">
        <ele>513.1</ele>
        <time>2018-05-19T12:22:58Z</time>
      </trkpt>
      <trkpt lat="44.09347" lon="3.02641">
        <ele>512.8</ele>
        <time>2018-05-19T12:22:59Z</time>
      </trkpt>
      <trkpt lat="44.09343" lon="3.02647">
        <ele>512.6</ele>
        <time>2018-05-19T12:23:00Z</time>
      </trkpt>
      <trkpt lat="44.0934" lon="3.02651">
        <ele>512.4</ele>
        <time>2018-05-19T12:23:01Z</time>
      </trkpt>
      <trkpt lat="44.09339" lon="3.02656">
        <ele>512.3</ele>
        <time>2018-05-19T12:23:02Z</time>
      </trkpt>
      <trkpt lat="44.09339" lon="3.02662">
        <ele>512.2</ele>
        <time>2018-05-19T12:23:03Z</time>
      </trkpt>
      <trkpt lat="44.09337" lon="3.02668">
        <ele>512.2</ele>
        <time>2018-05-19T12:23:04Z</time>
      </trkpt>
      <trkpt lat="44.09337" lon="3.02673">
        <ele>512.2</ele>
        <time>2018-05-19T12:23:05Z</time>
      </trkpt>
      <trkpt lat="44.09337" lon="3.0268">
        <ele>512.2</ele>
        <time>2018-05-19T12:23:06Z</time>
      </trkpt>
      <trkpt lat="44.09338" lon="3.02686">
        <ele>512.1</ele>
        <time>2018-05-19T12:23:07Z</time>
      </trkpt>
      <trkpt lat="44.09338" lon="3.02693">
        <ele>511.9</ele>
        <time>2018-05-19T12:23:08Z</time>
      </trkpt>
      <trkpt lat="44.09339" lon="3.02698">
        <ele>511.9</ele>
        <time>2018-05-19T12:23:09Z</time>
      </trkpt>
      <trkpt lat="44.0934" lon="3.02704">
        <ele>511.9</ele>
        <time>2018-05-19T12:23:10Z</time>
      </trkpt>
      <trkpt lat="44.09342" lon="3.02707">
        <ele>511.7</ele>
        <time>2018-05-19T12:23:11Z</time>
      </trkpt>
      <trkpt lat="44.09343" lon="3.02713">
        <ele>511.4</ele>
        <time>2018-05-19T12:23:12Z</time>
      </trkpt>
      <trkpt lat="44.09345" lon="3.02719">
        <ele>511</ele>
        <time>2018-05-19T12:23:13Z</time>
      </trkpt>
      <trkpt lat="44.09346" lon="3.02724">
        <ele>510.6</ele>
        <time>2018-05-19T12:23:14Z</time>
      </trkpt>
      <trkpt lat="44.09347" lon="3.02729">
        <ele>510.2</ele>
        <time>2018-05-19T12:23:15Z</time>
      </trkpt>
      <trkpt lat="44.09349" lon="3.02734">
        <ele>509.8</ele>
        <time>2018-05-19T12:23:16Z</time>
      </trkpt>
      <trkpt lat="44.0935" lon="3.0274">
        <ele>509.2</ele>
        <time>2018-05-19T12:23:17Z</time>
      </trkpt>
      <trkpt lat="44.09352" lon="3.02746">
        <ele>508.6</ele>
        <time>2018-05-19T12:23:18Z</time>
      </trkpt>
      <trkpt lat="44.09353" lon="3.02751">
        <ele>507.9</ele>
        <time>2018-05-19T12:23:19Z</time>
      </trkpt>
      <trkpt lat="44.09354" lon="3.02756">
        <ele>507.2</ele>
        <time>2018-05-19T12:23:20Z</time>
      </trkpt>
      <trkpt lat="44.09355" lon="3.02762">
        <ele>507.7</ele>
        <time>2018-05-19T12:23:21Z</time>
      </trkpt>
      <trkpt lat="44.09356" lon="3.02768">
        <ele>508.5</ele>
        <time>2018-05-19T12:23:22Z</time>
      </trkpt>
      <trkpt lat="44.09357" lon="3.02773">
        <ele>509.2</ele>
        <time>2018-05-19T12:23:23Z</time>
      </trkpt>
      <trkpt lat="44.09358" lon="3.02776">
        <ele>509.7</ele>
        <time>2018-05-19T12:23:24Z</time>
      </trkpt>
      <trkpt lat="44.09361" lon="3.02778">
        <ele>510.2</ele>
        <time>2018-05-19T12:23:25Z</time>
      </trkpt>
      <trkpt lat="44.09364" lon="3.02779">
        <ele>510.6</ele>
        <time>2018-05-19T12:23:26Z</time>
      </trkpt>
      <trkpt lat="44.09367" lon="3.02779">
        <ele>511</ele>
        <time>2018-05-19T12:23:27Z</time>
      </trkpt>
      <trkpt lat="44.0937" lon="3.0278">
        <ele>511.5</ele>
        <time>2018-05-19T12:23:28Z</time>
      </trkpt>
      <trkpt lat="44.09373" lon="3.0278">
        <ele>512</ele>
        <time>2018-05-19T12:23:29Z</time>
      </trkpt>
      <trkpt lat="44.09376" lon="3.02781">
        <ele>512.5</ele>
        <time>2018-05-19T12:23:30Z</time>
      </trkpt>
      <trkpt lat="44.09379" lon="3.02782">
        <ele>512.9</ele>
        <time>2018-05-19T12:23:31Z</time>
      </trkpt>
      <trkpt lat="44.09382" lon="3.02783">
        <ele>513.2</ele>
        <time>2018-05-19T12:23:32Z</time>
      </trkpt>
      <trkpt lat="44.09385" lon="3.02784">
        <ele>513.5</ele>
        <time>2018-05-19T12:23:33Z</time>
      </trkpt>
      <trkpt lat="44.09388" lon="3.02785">
        <ele>513.8</ele>
        <time>2018-05-19T12:23:34Z</time>
      </trkpt>
      <trkpt lat="44.09391" lon="3.02787">
        <ele>514.1</ele>
        <time>2018-05-19T12:23:35Z</time>
      </trkpt>
      <trkpt lat="44.09394" lon="3.02788">
        <ele>514.4</ele>
        <time>2018-05-19T12:23:36Z</time>
      </trkpt>
      <trkpt lat="44.09397" lon="3.0279">
        <ele>514.6</ele>
        <time>2018-05-19T12:23:37Z</time>
      </trkpt>
      <trkpt lat="44.094" lon="3.02791">
        <ele>514.8</ele>
        <time>2018-05-19T12:23:38Z</time>
      </trkpt>
      <trkpt lat="44.09404" lon="3.02793">
        <ele>515</ele>
        <time>2018-05-19T12:23:39Z</time>
      </trkpt>
      <trkpt lat="44.09407" lon="3.02795">
        <ele>515.3</ele>
        <time>2018-05-19T12:23:40Z</time>
      </trkpt>
      <trkpt lat="44.0941" lon="3.02796">
        <ele>515.4</ele>
        <time>2018-05-19T12:23:41Z</time>
      </trkpt>
      <trkpt lat="44.09414" lon="3.02798">
        <ele>515.5</ele>
        <time>2018-05-19T12:23:42Z</time>
      </trkpt>
      <trkpt lat="44.09417" lon="3.028">
        <ele>515.3</ele>
        <time>2018-05-19T12:23:43Z</time>
      </trkpt>
      <trkpt lat="44.0942" lon="3.02802">
        <ele>515.1</ele>
        <time>2018-05-19T12:23:44Z</time>
      </trkpt>
      <trkpt lat="44.09424" lon="3.02805">
        <ele>515</ele>
        <time>2018-05-19T12:23:45Z</time>
      </trkpt>
      <trkpt lat="44.09428" lon="3.02807">
        <ele>515</ele>
        <time>2018-05-19T12:23:46Z</time>
      </trkpt>
      <trkpt lat="44.09431" lon="3.02811">
        <ele>514.8</ele>
        <time>2018-05-19T12:23:47Z</time>
      </trkpt>
      <trkpt lat="44.09435" lon="3.02816">
        <ele>514.4</ele>
        <time>2018-05-19T12:23:48Z</time>
      </trkpt>
      <trkpt lat="44.09439" lon="3.0282">
        <ele>514.3</ele>
        <time>2018-05-19T12:23:49Z</time>
      </trkpt>
      <trkpt lat="44.09442" lon="3.02825">
        <ele>514.1</ele>
        <time>2018-05-19T12:23:50Z</time>
      </trkpt>
      <trkpt lat="44.09445" lon="3.02829">
        <ele>513.7</ele>
        <time>2018-05-19T12:23:51Z</time>
      </trkpt>
      <trkpt lat="44.09447" lon="3.02833">
        <ele>513.3</ele>
        <time>2018-05-19T12:23:52Z</time>
      </trkpt>
      <trkpt lat="44.09449" lon="3.02838">
        <ele>513</ele>
        <time>2018-05-19T12:23:53Z</time>
      </trkpt>
      <trkpt lat="44.09452" lon="3.02842">
        <ele>512.8</ele>
        <time>2018-05-19T12:23:54Z</time>
      </trkpt>
      <trkpt lat="44.09454" lon="3.02846">
        <ele>512.4</ele>
        <time>2018-05-19T12:23:55Z</time>
      </trkpt>
      <trkpt lat="44.09456" lon="3.0285">
        <ele>511.8</ele>
        <time>2018-05-19T12:23:56Z</time>
      </trkpt>
      <trkpt lat="44.09459" lon="3.02854">
        <ele>511.3</ele>
        <time>2018-05-19T12:23:57Z</time>
      </trkpt>
      <trkpt lat="44.09461" lon="3.02859">
        <ele>510.8</ele>
        <time>2018-05-19T12:23:58Z</time>
      </trkpt>
      <trkpt lat="44.09464" lon="3.02864">
        <ele>510.3</ele>
        <time>2018-05-19T12:23:59Z</time>
      </trkpt>
      <trkpt lat="44.09466" lon="3.02868">
        <ele>509.7</ele>
        <time>2018-05-19T12:24:00Z</time>
      </trkpt>
      <trkpt lat="44.09468" lon="3.02873">
        <ele>509.2</ele>
        <time>2018-05-19T12:24:01Z</time>
      </trkpt>
      <trkpt lat="44.09471" lon="3.02877">
        <ele>508.9</ele>
        <time>2018-05-19T12:24:02Z</time>
      </trkpt>
      <trkpt lat="44.09473" lon="3.02881">
        <ele>508.6</ele>
        <time>2018-05-19T12:24:03Z</time>
      </trkpt>
      <trkpt lat="44.09478" lon="3.02889">
        <ele>508.3</ele>
        <time>2018-05-19T12:24:05Z</time>
      </trkpt>
      <trkpt lat="44.09481" lon="3.02893">
        <ele>508</ele>
        <time>2018-05-19T12:24:06Z</time>
      </trkpt>
      <trkpt lat="44.09483" lon="3.02896">
        <ele>507.7</ele>
        <time>2018-05-19T12:24:07Z</time>
      </trkpt>
      <trkpt lat="44.09486" lon="3.029">
        <ele>507.3</ele>
        <time>2018-05-19T12:24:08Z</time>
      </trkpt>
      <trkpt lat="44.09489" lon="3.02903">
        <ele>507</ele>
        <time>2018-05-19T12:24:09Z</time>
      </trkpt>
      <trkpt lat="44.09491" lon="3.02907">
        <ele>507</ele>
        <time>2018-05-19T12:24:10Z</time>
      </trkpt>
      <trkpt lat="44.09494" lon="3.0291">
        <ele>507.1</ele>
        <time>2018-05-19T12:24:11Z</time>
      </trkpt>
      <trkpt lat="44.09497" lon="3.02913">
        <ele>506.9</ele>
        <time>2018-05-19T12:24:12Z</time>
      </trkpt>
      <trkpt lat="44.095" lon="3.02917">
        <ele>506.6</ele>
        <time>2018-05-19T12:24:13Z</time>
      </trkpt>
      <trkpt lat="44.09503" lon="3.02921">
        <ele>506.9</ele>
        <time>2018-05-19T12:24:14Z</time>
      </trkpt>
      <trkpt lat="44.09506" lon="3.02923">
        <ele>507.5</ele>
        <time>2018-05-19T12:24:15Z</time>
      </trkpt>
      <trkpt lat="44.09509" lon="3.02926">
        <ele>508.1</ele>
        <time>2018-05-19T12:24:16Z</time>
      </trkpt>
      <trkpt lat="44.09513" lon="3.02927">
        <ele>508.6</ele>
        <time>2018-05-19T12:24:17Z</time>
      </trkpt>
      <trkpt lat="44.09517" lon="3.02927">
        <ele>509</ele>
        <time>2018-05-19T12:24:18Z</time>
      </trkpt>
      <trkpt lat="44.0952" lon="3.02926">
        <ele>509.9</ele>
        <time>2018-05-19T12:24:19Z</time>
      </trkpt>
      <trkpt lat="44.09524" lon="3.02923">
        <ele>511</ele>
        <time>2018-05-19T12:24:21Z</time>
      </trkpt>
      <trkpt lat="44.0953" lon="3.02916">
        <ele>512.1</ele>
        <time>2018-05-19T12:24:23Z</time>
      </trkpt>
      <trkpt lat="44.09535" lon="3.02913">
        <ele>513</ele>
        <time>2018-05-19T12:24:24Z</time>
      </trkpt>
      <trkpt lat="44.09539" lon="3.02909">
        <ele>514</ele>
        <time>2018-05-19T12:24:25Z</time>
      </trkpt>
      <trkpt lat="44.09545" lon="3.02903">
        <ele>515.3</ele>
        <time>2018-05-19T12:24:26Z</time>
      </trkpt>
      <trkpt lat="44.09552" lon="3.02896">
        <ele>516.3</ele>
        <time>2018-05-19T12:24:27Z</time>
      </trkpt>
      <trkpt lat="44.09557" lon="3.02888">
        <ele>517</ele>
        <time>2018-05-19T12:24:28Z</time>
      </trkpt>
      <trkpt lat="44.09563" lon="3.02882">
        <ele>517.6</ele>
        <time>2018-05-19T12:24:29Z</time>
      </trkpt>
      <trkpt lat="44.09569" lon="3.02875">
        <ele>518.2</ele>
        <time>2018-05-19T12:24:30Z</time>
      </trkpt>
      <trkpt lat="44.09576" lon="3.02869">
        <ele>518.9</ele>
        <time>2018-05-19T12:24:31Z</time>
      </trkpt>
      <trkpt lat="44.09584" lon="3.02864">
        <ele>519.8</ele>
        <time>2018-05-19T12:24:32Z</time>
      </trkpt>
      <trkpt lat="44.0959" lon="3.02858">
        <ele>520.6</ele>
        <time>2018-05-19T12:24:33Z</time>
      </trkpt>
      <trkpt lat="44.09594" lon="3.02853">
        <ele>521.1</ele>
        <time>2018-05-19T12:24:34Z</time>
      </trkpt>
      <trkpt lat="44.09598" lon="3.02849">
        <ele>521.4</ele>
        <time>2018-05-19T12:24:35Z</time>
      </trkpt>
      <trkpt lat="44.096" lon="3.02843">
        <ele>521.7</ele>
        <time>2018-05-19T12:24:37Z</time>
      </trkpt>
      <trkpt lat="44.09603" lon="3.02839">
        <ele>522</ele>
        <time>2018-05-19T12:24:38Z</time>
      </trkpt>
      <trkpt lat="44.09605" lon="3.02833">
        <ele>522.5</ele>
        <time>2018-05-19T12:24:40Z</time>
      </trkpt>
      <trkpt lat="44.09608" lon="3.02828">
        <ele>523</ele>
        <time>2018-05-19T12:24:42Z</time>
      </trkpt>
      <trkpt lat="44.09611" lon="3.02823">
        <ele>523.5</ele>
        <time>2018-05-19T12:24:44Z</time>
      </trkpt>
      <trkpt lat="44.09613" lon="3.02818">
        <ele>523.9</ele>
        <time>2018-05-19T12:24:46Z</time>
      </trkpt>
      <trkpt lat="44.09615" lon="3.02813">
        <ele>524.2</ele>
        <time>2018-05-19T12:24:48Z</time>
      </trkpt>
      <trkpt lat="44.09617" lon="3.02807">
        <ele>524.6</ele>
        <time>2018-05-19T12:24:50Z</time>
      </trkpt>
      <trkpt lat="44.09618" lon="3.02802">
        <ele>525.1</ele>
        <time>2018-05-19T12:24:52Z</time>
      </trkpt>
      <trkpt lat="44.0962" lon="3.02797">
        <ele>525.5</ele>
        <time>2018-05-19T12:24:54Z</time>
      </trkpt>
      <trkpt lat="44.09622" lon="3.02793">
        <ele>525.9</ele>
        <time>2018-05-19T12:24:56Z</time>
      </trkpt>
      <trkpt lat="44.09625" lon="3.0279">
        <ele>526.2</ele>
        <time>2018-05-19T12:24:58Z</time>
      </trkpt>
      <trkpt lat="44.09627" lon="3.02787">
        <ele>526.5</ele>
        <time>2018-05-19T12:25:00Z</time>
      </trkpt>
      <trkpt lat="44.09629" lon="3.02785">
        <ele>526.7</ele>
        <time>2018-05-19T12:25:02Z</time>
      </trkpt>
      <trkpt lat="44.09632" lon="3.02783">
        <ele>527.1</ele>
        <time>2018-05-19T12:25:04Z</time>
      </trkpt>
      <trkpt lat="44.09635" lon="3.0278">
        <ele>527.4</ele>
        <time>2018-05-19T12:25:06Z</time>
      </trkpt>
      <trkpt lat="44.09636" lon="3.02777">
        <ele>527.7</ele>
        <time>2018-05-19T12:25:08Z</time>
      </trkpt>
      <trkpt lat="44.09639" lon="3.02773">
        <ele>528.1</ele>
        <time>2018-05-19T12:25:10Z</time>
      </trkpt>
      <trkpt lat="44.09641" lon="3.02771">
        <ele>528.4</ele>
        <time>2018-05-19T12:25:12Z</time>
      </trkpt>
      <trkpt lat="44.09643" lon="3.02766">
        <ele>528.7</ele>
        <time>2018-05-19T12:25:19Z</time>
      </trkpt>
      <trkpt lat="44.09645" lon="3.02763">
        <ele>529</ele>
        <time>2018-05-19T12:25:22Z</time>
      </trkpt>
      <trkpt lat="44.09647" lon="3.02761">
        <ele>529.3</ele>
        <time>2018-05-19T12:25:26Z</time>
      </trkpt>
      <trkpt lat="44.0965" lon="3.02759">
        <ele>529.9</ele>
        <time>2018-05-19T12:25:30Z</time>
      </trkpt>
      <trkpt lat="44.09653" lon="3.02757">
        <ele>530.4</ele>
        <time>2018-05-19T12:25:33Z</time>
      </trkpt>
      <trkpt lat="44.09655" lon="3.02756">
        <ele>530.7</ele>
        <time>2018-05-19T12:25:38Z</time>
      </trkpt>
      <trkpt lat="44.09658" lon="3.02759">
        <ele>531.1</ele>
        <time>2018-05-19T12:25:48Z</time>
      </trkpt>
      <trkpt lat="44.0966" lon="3.02762">
        <ele>531.7</ele>
        <time>2018-05-19T12:25:52Z</time>
      </trkpt>
      <trkpt lat="44.09663" lon="3.02763">
        <ele>532.4</ele>
        <time>2018-05-19T12:25:56Z</time>
      </trkpt>
      <trkpt lat="44.09667" lon="3.02762">
        <ele>532.9</ele>
        <time>2018-05-19T12:25:59Z</time>
      </trkpt>
      <trkpt lat="44.0967" lon="3.02763">
        <ele>533.4</ele>
        <time>2018-05-19T12:26:05Z</time>
      </trkpt>
      <trkpt lat="44.09672" lon="3.02762">
        <ele>533.9</ele>
        <time>2018-05-19T12:26:08Z</time>
      </trkpt>
      <trkpt lat="44.09675" lon="3.02761">
        <ele>534.5</ele>
        <time>2018-05-19T12:26:12Z</time>
      </trkpt>
      <trkpt lat="44.09678" lon="3.02762">
        <ele>535.1</ele>
        <time>2018-05-19T12:26:17Z</time>
      </trkpt>
      <trkpt lat="44.09682" lon="3.02762">
        <ele>535.6</ele>
        <time>2018-05-19T12:26:21Z</time>
      </trkpt>
      <trkpt lat="44.09684" lon="3.0276">
        <ele>535.9</ele>
        <time>2018-05-19T12:26:25Z</time>
      </trkpt>
      <trkpt lat="44.09687" lon="3.02759">
        <ele>536.6</ele>
        <time>2018-05-19T12:26:29Z</time>
      </trkpt>
      <trkpt lat="44.09691" lon="3.02758">
        <ele>537.5</ele>
        <time>2018-05-19T12:26:34Z</time>
      </trkpt>
      <trkpt lat="44.09694" lon="3.02757">
        <ele>538.2</ele>
        <time>2018-05-19T12:26:37Z</time>
      </trkpt>
      <trkpt lat="44.09697" lon="3.02757">
        <ele>538.6</ele>
        <time>2018-05-19T12:26:40Z</time>
      </trkpt>
      <trkpt lat="44.097" lon="3.02758">
        <ele>539.1</ele>
        <time>2018-05-19T12:26:46Z</time>
      </trkpt>
      <trkpt lat="44.09703" lon="3.0276">
        <ele>539.6</ele>
        <time>2018-05-19T12:26:52Z</time>
      </trkpt>
      <trkpt lat="44.09706" lon="3.02759">
        <ele>540.3</ele>
        <time>2018-05-19T12:27:00Z</time>
      </trkpt>
      <trkpt lat="44.09709" lon="3.02759">
        <ele>541</ele>
        <time>2018-05-19T12:27:04Z</time>
      </trkpt>
      <trkpt lat="44.09713" lon="3.02757">
        <ele>542</ele>
        <time>2018-05-19T12:27:07Z</time>
      </trkpt>
      <trkpt lat="44.09716" lon="3.02756">
        <ele>542.9</ele>
        <time>2018-05-19T12:27:11Z</time>
      </trkpt>
      <trkpt lat="44.0972" lon="3.02756">
        <ele>543.8</ele>
        <time>2018-05-19T12:27:14Z</time>
      </trkpt>
      <trkpt lat="44.09722" lon="3.02758">
        <ele>544.4</ele>
        <time>2018-05-19T12:27:22Z</time>
      </trkpt>
      <trkpt lat="44.09725" lon="3.02759">
        <ele>545.1</ele>
        <time>2018-05-19T12:27:29Z</time>
      </trkpt>
      <trkpt lat="44.09728" lon="3.02758">
        <ele>545.4</ele>
        <time>2018-05-19T12:27:34Z</time>
      </trkpt>
      <trkpt lat="44.09731" lon="3.02757">
        <ele>545.6</ele>
        <time>2018-05-19T12:27:37Z</time>
      </trkpt>
      <trkpt lat="44.09734" lon="3.02757">
        <ele>546.3</ele>
        <time>2018-05-19T12:27:40Z</time>
      </trkpt>
      <trkpt lat="44.09737" lon="3.02755">
        <ele>547</ele>
        <time>2018-05-19T12:27:44Z</time>
      </trkpt>
      <trkpt lat="44.0974" lon="3.02754">
        <ele>547.7</ele>
        <time>2018-05-19T12:27:47Z</time>
      </trkpt>
      <trkpt lat="44.09742" lon="3.02752">
        <ele>548.4</ele>
        <time>2018-05-19T12:27:50Z</time>
      </trkpt>
      <trkpt lat="44.09746" lon="3.02751">
        <ele>549.1</ele>
        <time>2018-05-19T12:27:53Z</time>
      </trkpt>
      <trkpt lat="44.09748" lon="3.02749">
        <ele>549.7</ele>
        <time>2018-05-19T12:27:59Z</time>
      </trkpt>
      <trkpt lat="44.09751" lon="3.02751">
        <ele>550.3</ele>
        <time>2018-05-19T12:28:10Z</time>
      </trkpt>
      <trkpt lat="44.09754" lon="3.02751">
        <ele>550.9</ele>
        <time>2018-05-19T12:28:12Z</time>
      </trkpt>
      <trkpt lat="44.09757" lon="3.0275">
        <ele>551.5</ele>
        <time>2018-05-19T12:28:14Z</time>
      </trkpt>
      <trkpt lat="44.09761" lon="3.0275">
        <ele>552.5</ele>
        <time>2018-05-19T12:28:16Z</time>
      </trkpt>
      <trkpt lat="44.09765" lon="3.0275">
        <ele>553.3</ele>
        <time>2018-05-19T12:28:18Z</time>
      </trkpt>
      <trkpt lat="44.09768" lon="3.02751">
        <ele>553.9</ele>
        <time>2018-05-19T12:28:20Z</time>
      </trkpt>
      <trkpt lat="44.09771" lon="3.02752">
        <ele>554.4</ele>
        <time>2018-05-19T12:28:22Z</time>
      </trkpt>
      <trkpt lat="44.09773" lon="3.02755">
        <ele>554.8</ele>
        <time>2018-05-19T12:28:24Z</time>
      </trkpt>
      <trkpt lat="44.09777" lon="3.02757">
        <ele>555.5</ele>
        <time>2018-05-19T12:28:26Z</time>
      </trkpt>
      <trkpt lat="44.09781" lon="3.02758">
        <ele>556.3</ele>
        <time>2018-05-19T12:28:28Z</time>
      </trkpt>
      <trkpt lat="44.09784" lon="3.02759">
        <ele>556.9</ele>
        <time>2018-05-19T12:28:30Z</time>
      </trkpt>
      <trkpt lat="44.09788" lon="3.02759">
        <ele>557.4</ele>
        <time>2018-05-19T12:28:32Z</time>
      </trkpt>
      <trkpt lat="44.09791" lon="3.02758">
        <ele>557.9</ele>
        <time>2018-05-19T12:28:34Z</time>
      </trkpt>
      <trkpt lat="44.09795" lon="3.02758">
        <ele>558.3</ele>
        <time>2018-05-19T12:28:36Z</time>
      </trkpt>
      <trkpt lat="44.09797" lon="3.02757">
        <ele>558.6</ele>
        <time>2018-05-19T12:28:38Z</time>
      </trkpt>
      <trkpt lat="44.09801" lon="3.02757">
        <ele>559.1</ele>
        <time>2018-05-19T12:28:40Z</time>
      </trkpt>
      <trkpt lat="44.09804" lon="3.02757">
        <ele>559.7</ele>
        <time>2018-05-19T12:28:42Z</time>
      </trkpt>
      <trkpt lat="44.09808" lon="3.02756">
        <ele>560.2</ele>
        <time>2018-05-19T12:28:44Z</time>
      </trkpt>
      <trkpt lat="44.0981" lon="3.02756">
        <ele>560.5</ele>
        <time>2018-05-19T12:28:46Z</time>
      </trkpt>
      <trkpt lat="44.09814" lon="3.02754">
        <ele>560.9</ele>
        <time>2018-05-19T12:28:49Z</time>
      </trkpt>
      <trkpt lat="44.09817" lon="3.02754">
        <ele>561.2</ele>
        <time>2018-05-19T12:28:51Z</time>
      </trkpt>
      <trkpt lat="44.09821" lon="3.02753">
        <ele>561.5</ele>
        <time>2018-05-19T12:28:53Z</time>
      </trkpt>
      <trkpt lat="44.09825" lon="3.02752">
        <ele>561.9</ele>
        <time>2018-05-19T12:28:55Z</time>
      </trkpt>
      <trkpt lat="44.09828" lon="3.02751">
        <ele>562.4</ele>
        <time>2018-05-19T12:28:57Z</time>
      </trkpt>
      <trkpt lat="44.09831" lon="3.0275">
        <ele>562.8</ele>
        <time>2018-05-19T12:28:59Z</time>
      </trkpt>
      <trkpt lat="44.09833" lon="3.02749">
        <ele>563</ele>
        <time>2018-05-19T12:29:01Z</time>
      </trkpt>
      <trkpt lat="44.09836" lon="3.02747">
        <ele>563.3</ele>
        <time>2018-05-19T12:29:03Z</time>
      </trkpt>
      <trkpt lat="44.0984" lon="3.02746">
        <ele>563.7</ele>
        <time>2018-05-19T12:29:05Z</time>
      </trkpt>
      <trkpt lat="44.09843" lon="3.02744">
        <ele>564.2</ele>
        <time>2018-05-19T12:29:07Z</time>
      </trkpt>
      <trkpt lat="44.09846" lon="3.02743">
        <ele>564.6</ele>
        <time>2018-05-19T12:29:09Z</time>
      </trkpt>
      <trkpt lat="44.09849" lon="3.02742">
        <ele>564.9</ele>
        <time>2018-05-19T12:29:11Z</time>
      </trkpt>
      <trkpt lat="44.09852" lon="3.02742">
        <ele>565.2</ele>
        <time>2018-05-19T12:29:13Z</time>
      </trkpt>
      <trkpt lat="44.09855" lon="3.02742">
        <ele>565.5</ele>
        <time>2018-05-19T12:29:15Z</time>
      </trkpt>
      <trkpt lat="44.09858" lon="3.02742">
        <ele>565.9</ele>
        <time>2018-05-19T12:29:17Z</time>
      </trkpt>
      <trkpt lat="44.09861" lon="3.02742">
        <ele>566.2</ele>
        <time>2018-05-19T12:29:19Z</time>
      </trkpt>
      <trkpt lat="44.09866" lon="3.02743">
        <ele>566.6</ele>
        <time>2018-05-19T12:29:22Z</time>
      </trkpt>
      <trkpt lat="44.09869" lon="3.02744">
        <ele>567</ele>
        <time>2018-05-19T12:29:24Z</time>
      </trkpt>
      <trkpt lat="44.09873" lon="3.02744">
        <ele>567.4</ele>
        <time>2018-05-19T12:29:26Z</time>
      </trkpt>
      <trkpt lat="44.09877" lon="3.02745">
        <ele>567.7</ele>
        <time>2018-05-19T12:29:28Z</time>
      </trkpt>
      <trkpt lat="44.0988" lon="3.02746">
        <ele>567.9</ele>
        <time>2018-05-19T12:29:30Z</time>
      </trkpt>
      <trkpt lat="44.09883" lon="3.02748">
        <ele>568.2</ele>
        <time>2018-05-19T12:29:32Z</time>
      </trkpt>
      <trkpt lat="44.09886" lon="3.0275">
        <ele>568.4</ele>
        <time>2018-05-19T12:29:34Z</time>
      </trkpt>
      <trkpt lat="44.09889" lon="3.0275">
        <ele>568.7</ele>
        <time>2018-05-19T12:29:36Z</time>
      </trkpt>
      <trkpt lat="44.09892" lon="3.02752">
        <ele>569</ele>
        <time>2018-05-19T12:29:38Z</time>
      </trkpt>
      <trkpt lat="44.09895" lon="3.02753">
        <ele>569.2</ele>
        <time>2018-05-19T12:29:40Z</time>
      </trkpt>
      <trkpt lat="44.09898" lon="3.02754">
        <ele>569.4</ele>
        <time>2018-05-19T12:29:42Z</time>
      </trkpt>
      <trkpt lat="44.09901" lon="3.02756">
        <ele>569.6</ele>
        <time>2018-05-19T12:29:44Z</time>
      </trkpt>
      <trkpt lat="44.09903" lon="3.02758">
        <ele>569.8</ele>
        <time>2018-05-19T12:29:46Z</time>
      </trkpt>
      <trkpt lat="44.09906" lon="3.0276">
        <ele>570</ele>
        <time>2018-05-19T12:29:48Z</time>
      </trkpt>
      <trkpt lat="44.09909" lon="3.02763">
        <ele>570.1</ele>
        <time>2018-05-19T12:29:50Z</time>
      </trkpt>
      <trkpt lat="44.09912" lon="3.02764">
        <ele>570.3</ele>
        <time>2018-05-19T12:29:52Z</time>
      </trkpt>
      <trkpt lat="44.09915" lon="3.02766">
        <ele>570.6</ele>
        <time>2018-05-19T12:29:54Z</time>
      </trkpt>
      <trkpt lat="44.09918" lon="3.02767">
        <ele>570.8</ele>
        <time>2018-05-19T12:29:56Z</time>
      </trkpt>
      <trkpt lat="44.09921" lon="3.02769">
        <ele>571</ele>
        <time>2018-05-19T12:29:58Z</time>
      </trkpt>
      <trkpt lat="44.09924" lon="3.0277">
        <ele>571.1</ele>
        <time>2018-05-19T12:30:00Z</time>
      </trkpt>
      <trkpt lat="44.09927" lon="3.02772">
        <ele>571.2</ele>
        <time>2018-05-19T12:30:02Z</time>
      </trkpt>
      <trkpt lat="44.0993" lon="3.02772">
        <ele>571.3</ele>
        <time>2018-05-19T12:30:05Z</time>
      </trkpt>
      <trkpt lat="44.09933" lon="3.02772">
        <ele>571.3</ele>
        <time>2018-05-19T12:30:09Z</time>
      </trkpt>
      <trkpt lat="44.09936" lon="3.02773">
        <ele>571.4</ele>
        <time>2018-05-19T12:30:24Z</time>
      </trkpt>
      <trkpt lat="44.0994" lon="3.02777">
        <ele>571.6</ele>
        <time>2018-05-19T12:34:03Z</time>
      </trkpt>
      <trkpt lat="44.09944" lon="3.02779">
        <ele>571.7</ele>
        <time>2018-05-19T12:34:06Z</time>
      </trkpt>
      <trkpt lat="44.09948" lon="3.0278">
        <ele>571.9</ele>
        <time>2018-05-19T12:34:08Z</time>
      </trkpt>
      <trkpt lat="44.09953" lon="3.02781">
        <ele>571.8</ele>
        <time>2018-05-19T12:34:11Z</time>
      </trkpt>
      <trkpt lat="44.09956" lon="3.02783">
        <ele>571.6</ele>
        <time>2018-05-19T12:34:12Z</time>
      </trkpt>
      <trkpt lat="44.09963" lon="3.02787">
        <ele>570.9</ele>
        <time>2018-05-19T12:34:13Z</time>
      </trkpt>
      <trkpt lat="44.09969" lon="3.02789">
        <ele>570.4</ele>
        <time>2018-05-19T12:34:14Z</time>
      </trkpt>
      <trkpt lat="44.09974" lon="3.02792">
        <ele>569.9</ele>
        <time>2018-05-19T12:34:15Z</time>
      </trkpt>
      <trkpt lat="44.09978" lon="3.02793">
        <ele>569.7</ele>
        <time>2018-05-19T12:34:16Z</time>
      </trkpt>
      <trkpt lat="44.09983" lon="3.02795">
        <ele>569.4</ele>
        <time>2018-05-19T12:34:17Z</time>
      </trkpt>
      <trkpt lat="44.09987" lon="3.02797">
        <ele>569.3</ele>
        <time>2018-05-19T12:34:18Z</time>
      </trkpt>
      <trkpt lat="44.09991" lon="3.02799">
        <ele>569.1</ele>
        <time>2018-05-19T12:34:19Z</time>
      </trkpt>
      <trkpt lat="44.09995" lon="3.028">
        <ele>569.1</ele>
        <time>2018-05-19T12:34:20Z</time>
      </trkpt>
      <trkpt lat="44.09998" lon="3.02801">
        <ele>569</ele>
        <time>2018-05-19T12:34:21Z</time>
      </trkpt>
      <trkpt lat="44.10001" lon="3.02804">
        <ele>568.9</ele>
        <time>2018-05-19T12:34:22Z</time>
      </trkpt>
      <trkpt lat="44.10005" lon="3.02806">
        <ele>568.9</ele>
        <time>2018-05-19T12:34:23Z</time>
      </trkpt>
      <trkpt lat="44.10008" lon="3.02807">
        <ele>568.9</ele>
        <time>2018-05-19T12:34:24Z</time>
      </trkpt>
      <trkpt lat="44.1001" lon="3.02809">
        <ele>568.9</ele>
        <time>2018-05-19T12:34:25Z</time>
      </trkpt>
      <trkpt lat="44.10017" lon="3.02812">
        <ele>568.9</ele>
        <time>2018-05-19T12:34:26Z</time>
      </trkpt>
      <trkpt lat="44.10021" lon="3.02813">
        <ele>568.9</ele>
        <time>2018-05-19T12:34:27Z</time>
      </trkpt>
      <trkpt lat="44.10024" lon="3.02814">
        <ele>568.9</ele>
        <time>2018-05-19T12:34:28Z</time>
      </trkpt>
      <trkpt lat="44.10028" lon="3.02814">
        <ele>568.8</ele>
        <time>2018-05-19T12:34:29Z</time>
      </trkpt>
      <trkpt lat="44.10032" lon="3.02815">
        <ele>568.8</ele>
        <time>2018-05-19T12:34:30Z</time>
      </trkpt>
      <trkpt lat="44.1004" lon="3.02814">
        <ele>568.5</ele>
        <time>2018-05-19T12:34:31Z</time>
      </trkpt>
      <trkpt lat="44.10045" lon="3.02815">
        <ele>568.2</ele>
        <time>2018-05-19T12:34:32Z</time>
      </trkpt>
      <trkpt lat="44.10051" lon="3.02817">
        <ele>568</ele>
        <time>2018-05-19T12:34:33Z</time>
      </trkpt>
      <trkpt lat="44.1006" lon="3.02818">
        <ele>567.7</ele>
        <time>2018-05-19T12:34:34Z</time>
      </trkpt>
      <trkpt lat="44.10068" lon="3.02819">
        <ele>567.4</ele>
        <time>2018-05-19T12:34:35Z</time>
      </trkpt>
      <trkpt lat="44.10071" lon="3.02821">
        <ele>567.4</ele>
        <time>2018-05-19T12:34:36Z</time>
      </trkpt>
      <trkpt lat="44.10078" lon="3.02824">
        <ele>567.3</ele>
        <time>2018-05-19T12:34:37Z</time>
      </trkpt>
      <trkpt lat="44.10084" lon="3.02826">
        <ele>567.3</ele>
        <time>2018-05-19T12:34:38Z</time>
      </trkpt>
      <trkpt lat="44.1009" lon="3.02829">
        <ele>567.3</ele>
        <time>2018-05-19T12:34:39Z</time>
      </trkpt>
      <trkpt lat="44.10095" lon="3.0283">
        <ele>567.3</ele>
        <time>2018-05-19T12:34:40Z</time>
      </trkpt>
      <trkpt lat="44.10101" lon="3.02831">
        <ele>567.4</ele>
        <time>2018-05-19T12:34:41Z</time>
      </trkpt>
      <trkpt lat="44.10105" lon="3.02832">
        <ele>567.4</ele>
        <time>2018-05-19T12:34:42Z</time>
      </trkpt>
      <trkpt lat="44.10111" lon="3.02832">
        <ele>567.5</ele>
        <time>2018-05-19T12:34:43Z</time>
      </trkpt>
      <trkpt lat="44.10116" lon="3.02832">
        <ele>567.6</ele>
        <time>2018-05-19T12:34:44Z</time>
      </trkpt>
      <trkpt lat="44.1012" lon="3.02833">
        <ele>567.7</ele>
        <time>2018-05-19T12:34:45Z</time>
      </trkpt>
      <trkpt lat="44.10124" lon="3.02833">
        <ele>567.9</ele>
        <time>2018-05-19T12:34:46Z</time>
      </trkpt>
      <trkpt lat="44.10128" lon="3.02833">
        <ele>568</ele>
        <time>2018-05-19T12:34:47Z</time>
      </trkpt>
      <trkpt lat="44.10131" lon="3.02832">
        <ele>568.2</ele>
        <time>2018-05-19T12:34:48Z</time>
      </trkpt>
      <trkpt lat="44.10135" lon="3.02832">
        <ele>568.3</ele>
        <time>2018-05-19T12:34:49Z</time>
      </trkpt>
      <trkpt lat="44.10141" lon="3.02831">
        <ele>568.4</ele>
        <time>2018-05-19T12:34:50Z</time>
      </trkpt>
      <trkpt lat="44.10147" lon="3.0283">
        <ele>568.5</ele>
        <time>2018-05-19T12:34:51Z</time>
      </trkpt>
      <trkpt lat="44.10152" lon="3.0283">
        <ele>568.5</ele>
        <time>2018-05-19T12:34:52Z</time>
      </trkpt>
      <trkpt lat="44.10155" lon="3.02831">
        <ele>568.4</ele>
        <time>2018-05-19T12:34:53Z</time>
      </trkpt>
      <trkpt lat="44.10159" lon="3.02832">
        <ele>568.4</ele>
        <time>2018-05-19T12:34:54Z</time>
      </trkpt>
      <trkpt lat="44.10163" lon="3.02833">
        <ele>568.3</ele>
        <time>2018-05-19T12:34:55Z</time>
      </trkpt>
      <trkpt lat="44.10167" lon="3.02833">
        <ele>568.2</ele>
        <time>2018-05-19T12:34:56Z</time>
      </trkpt>
      <trkpt lat="44.10171" lon="3.02834">
        <ele>568.1</ele>
        <time>2018-05-19T12:34:57Z</time>
      </trkpt>
      <trkpt lat="44.10175" lon="3.02835">
        <ele>568.1</ele>
        <time>2018-05-19T12:34:58Z</time>
      </trkpt>
      <trkpt lat="44.1018" lon="3.02837">
        <ele>568</ele>
        <time>2018-05-19T12:34:59Z</time>
      </trkpt>
      <trkpt lat="44.10184" lon="3.02838">
        <ele>567.8</ele>
        <time>2018-05-19T12:35:00Z</time>
      </trkpt>
      <trkpt lat="44.10188" lon="3.0284">
        <ele>567.7</ele>
        <time>2018-05-19T12:35:01Z</time>
      </trkpt>
      <trkpt lat="44.10192" lon="3.02843">
        <ele>567.5</ele>
        <time>2018-05-19T12:35:02Z</time>
      </trkpt>
      <trkpt lat="44.10201" lon="3.02849">
        <ele>567.1</ele>
        <time>2018-05-19T12:35:03Z</time>
      </trkpt>
      <trkpt lat="44.10206" lon="3.0285">
        <ele>566.9</ele>
        <time>2018-05-19T12:35:04Z</time>
      </trkpt>
      <trkpt lat="44.1021" lon="3.02853">
        <ele>566.9</ele>
        <time>2018-05-19T12:35:05Z</time>
      </trkpt>
      <trkpt lat="44.10215" lon="3.02859">
        <ele>566.9</ele>
        <time>2018-05-19T12:35:06Z</time>
      </trkpt>
      <trkpt lat="44.10223" lon="3.02864">
        <ele>567.1</ele>
        <time>2018-05-19T12:35:07Z</time>
      </trkpt>
      <trkpt lat="44.10227" lon="3.02873">
        <ele>567.5</ele>
        <time>2018-05-19T12:35:08Z</time>
      </trkpt>
      <trkpt lat="44.10232" lon="3.0288">
        <ele>567.8</ele>
        <time>2018-05-19T12:35:09Z</time>
      </trkpt>
      <trkpt lat="44.10236" lon="3.02885">
        <ele>568</ele>
        <time>2018-05-19T12:35:10Z</time>
      </trkpt>
      <trkpt lat="44.10239" lon="3.02889">
        <ele>568.2</ele>
        <time>2018-05-19T12:35:11Z</time>
      </trkpt>
      <trkpt lat="44.1024" lon="3.02896">
        <ele>568.4</ele>
        <time>2018-05-19T12:35:12Z</time>
      </trkpt>
      <trkpt lat="44.10245" lon="3.02901">
        <ele>568.5</ele>
        <time>2018-05-19T12:35:13Z</time>
      </trkpt>
      <trkpt lat="44.10247" lon="3.02906">
        <ele>568.6</ele>
        <time>2018-05-19T12:35:14Z</time>
      </trkpt>
      <trkpt lat="44.10251" lon="3.02911">
        <ele>568.7</ele>
        <time>2018-05-19T12:35:15Z</time>
      </trkpt>
      <trkpt lat="44.10253" lon="3.02915">
        <ele>568.8</ele>
        <time>2018-05-19T12:35:16Z</time>
      </trkpt>
      <trkpt lat="44.10256" lon="3.02921">
        <ele>568.9</ele>
        <time>2018-05-19T12:35:17Z</time>
      </trkpt>
      <trkpt lat="44.10258" lon="3.02926">
        <ele>569.1</ele>
        <time>2018-05-19T12:35:18Z</time>
      </trkpt>
      <trkpt lat="44.1026" lon="3.02929">
        <ele>569.3</ele>
        <time>2018-05-19T12:35:19Z</time>
      </trkpt>
      <trkpt lat="44.10265" lon="3.02931">
        <ele>569.7</ele>
        <time>2018-05-19T12:35:21Z</time>
      </trkpt>
      <trkpt lat="44.10268" lon="3.02935">
        <ele>570.2</ele>
        <time>2018-05-19T12:35:23Z</time>
      </trkpt>
      <trkpt lat="44.10271" lon="3.02943">
        <ele>571.1</ele>
        <time>2018-05-19T12:35:25Z</time>
      </trkpt>
      <trkpt lat="44.10272" lon="3.02948">
        <ele>571.7</ele>
        <time>2018-05-19T12:35:26Z</time>
      </trkpt>
      <trkpt lat="44.10273" lon="3.02954">
        <ele>572.3</ele>
        <time>2018-05-19T12:35:27Z</time>
      </trkpt>
      <trkpt lat="44.10271" lon="3.02959">
        <ele>571.9</ele>
        <time>2018-05-19T12:35:29Z</time>
      </trkpt>
      <trkpt lat="44.10269" lon="3.02962">
        <ele>572</ele>
        <time>2018-05-19T12:35:35Z</time>
      </trkpt>
      <trkpt lat="44.1027" lon="3.02966">
        <ele>572.1</ele>
        <time>2018-05-19T12:35:43Z</time>
      </trkpt>
      <trkpt lat="44.10267" lon="3.02968">
        <ele>571.7</ele>
        <time>2018-05-19T12:35:52Z</time>
      </trkpt>
      <trkpt lat="44.10263" lon="3.02972">
        <ele>571.4</ele>
        <time>2018-05-19T12:35:54Z</time>
      </trkpt>
      <trkpt lat="44.10259" lon="3.02974">
        <ele>570.9</ele>
        <time>2018-05-19T12:35:56Z</time>
      </trkpt>
      <trkpt lat="44.10254" lon="3.02977">
        <ele>570.5</ele>
        <time>2018-05-19T12:35:58Z</time>
      </trkpt>
      <trkpt lat="44.10251" lon="3.02979">
        <ele>570.2</ele>
        <time>2018-05-19T12:35:59Z</time>
      </trkpt>
      <trkpt lat="44.10249" lon="3.02981">
        <ele>569.9</ele>
        <time>2018-05-19T12:36:00Z</time>
      </trkpt>
      <trkpt lat="44.10246" lon="3.02983">
        <ele>569.6</ele>
        <time>2018-05-19T12:36:01Z</time>
      </trkpt>
      <trkpt lat="44.10243" lon="3.02984">
        <ele>569.3</ele>
        <time>2018-05-19T12:36:02Z</time>
      </trkpt>
      <trkpt lat="44.10241" lon="3.02986">
        <ele>569</ele>
        <time>2018-05-19T12:36:03Z</time>
      </trkpt>
      <trkpt lat="44.10239" lon="3.02988">
        <ele>569.1</ele>
        <time>2018-05-19T12:36:04Z</time>
      </trkpt>
      <trkpt lat="44.10234" lon="3.02991">
        <ele>568.7</ele>
        <time>2018-05-19T12:36:06Z</time>
      </trkpt>
      <trkpt lat="44.10231" lon="3.02995">
        <ele>568.4</ele>
        <time>2018-05-19T12:36:08Z</time>
      </trkpt>
      <trkpt lat="44.10229" lon="3.02998">
        <ele>568.6</ele>
        <time>2018-05-19T12:36:10Z</time>
      </trkpt>
      <trkpt lat="44.10225" lon="3.03001">
        <ele>568.2</ele>
        <time>2018-05-19T12:36:12Z</time>
      </trkpt>
      <trkpt lat="44.10221" lon="3.03004">
        <ele>567.9</ele>
        <time>2018-05-19T12:36:14Z</time>
      </trkpt>
      <trkpt lat="44.10218" lon="3.03006">
        <ele>567.9</ele>
        <time>2018-05-19T12:36:16Z</time>
      </trkpt>
      <trkpt lat="44.10213" lon="3.03011">
        <ele>568</ele>
        <time>2018-05-19T12:36:18Z</time>
      </trkpt>
      <trkpt lat="44.10209" lon="3.03015">
        <ele>567.8</ele>
        <time>2018-05-19T12:36:20Z</time>
      </trkpt>
      <trkpt lat="44.10207" lon="3.03017">
        <ele>567.8</ele>
        <time>2018-05-19T12:36:21Z</time>
      </trkpt>
      <trkpt lat="44.10205" lon="3.0302">
        <ele>567.8</ele>
        <time>2018-05-19T12:36:22Z</time>
      </trkpt>
      <trkpt lat="44.10201" lon="3.03024">
        <ele>567.5</ele>
        <time>2018-05-19T12:36:24Z</time>
      </trkpt>
      <trkpt lat="44.10198" lon="3.03027">
        <ele>567.7</ele>
        <time>2018-05-19T12:36:25Z</time>
      </trkpt>
      <trkpt lat="44.10196" lon="3.03029">
        <ele>567.4</ele>
        <time>2018-05-19T12:36:26Z</time>
      </trkpt>
      <trkpt lat="44.10194" lon="3.03032">
        <ele>567.3</ele>
        <time>2018-05-19T12:36:27Z</time>
      </trkpt>
      <trkpt lat="44.10191" lon="3.03034">
        <ele>567.3</ele>
        <time>2018-05-19T12:36:28Z</time>
      </trkpt>
      <trkpt lat="44.10189" lon="3.03037">
        <ele>567.3</ele>
        <time>2018-05-19T12:36:29Z</time>
      </trkpt>
      <trkpt lat="44.10186" lon="3.03039">
        <ele>567.3</ele>
        <time>2018-05-19T12:36:30Z</time>
      </trkpt>
      <trkpt lat="44.10184" lon="3.03041">
        <ele>567.1</ele>
        <time>2018-05-19T12:36:31Z</time>
      </trkpt>
      <trkpt lat="44.10181" lon="3.03044">
        <ele>567.3</ele>
        <time>2018-05-19T12:36:32Z</time>
      </trkpt>
      <trkpt lat="44.10179" lon="3.03046">
        <ele>567.2</ele>
        <time>2018-05-19T12:36:33Z</time>
      </trkpt>
      <trkpt lat="44.10177" lon="3.03048">
        <ele>567.5</ele>
        <time>2018-05-19T12:36:34Z</time>
      </trkpt>
      <trkpt lat="44.10174" lon="3.0305">
        <ele>567.4</ele>
        <time>2018-05-19T12:36:35Z</time>
      </trkpt>
      <trkpt lat="44.10172" lon="3.03051">
        <ele>567.4</ele>
        <time>2018-05-19T12:36:36Z</time>
      </trkpt>
      <trkpt lat="44.10168" lon="3.03051">
        <ele>567.7</ele>
        <time>2018-05-19T12:36:37Z</time>
      </trkpt>
      <trkpt lat="44.10165" lon="3.03051">
        <ele>567.7</ele>
        <time>2018-05-19T12:36:38Z</time>
      </trkpt>
      <trkpt lat="44.10162" lon="3.03051">
        <ele>567.6</ele>
        <time>2018-05-19T12:36:39Z</time>
      </trkpt>
      <trkpt lat="44.10157" lon="3.03051">
        <ele>567.5</ele>
        <time>2018-05-19T12:36:41Z</time>
      </trkpt>
      <trkpt lat="44.10153" lon="3.03051">
        <ele>567.5</ele>
        <time>2018-05-19T12:36:42Z</time>
      </trkpt>
      <trkpt lat="44.10149" lon="3.03052">
        <ele>567.4</ele>
        <time>2018-05-19T12:36:43Z</time>
      </trkpt>
      <trkpt lat="44.10145" lon="3.03051">
        <ele>567.2</ele>
        <time>2018-05-19T12:36:44Z</time>
      </trkpt>
      <trkpt lat="44.10141" lon="3.03051">
        <ele>567.1</ele>
        <time>2018-05-19T12:36:45Z</time>
      </trkpt>
      <trkpt lat="44.10137" lon="3.0305">
        <ele>566.5</ele>
        <time>2018-05-19T12:36:46Z</time>
      </trkpt>
      <trkpt lat="44.10133" lon="3.03049">
        <ele>566.2</ele>
        <time>2018-05-19T12:36:47Z</time>
      </trkpt>
      <trkpt lat="44.10129" lon="3.03047">
        <ele>566.1</ele>
        <time>2018-05-19T12:36:48Z</time>
      </trkpt>
      <trkpt lat="44.10125" lon="3.03045">
        <ele>565.7</ele>
        <time>2018-05-19T12:36:49Z</time>
      </trkpt>
      <trkpt lat="44.1012" lon="3.03044">
        <ele>565.5</ele>
        <time>2018-05-19T12:36:50Z</time>
      </trkpt>
      <trkpt lat="44.10115" lon="3.0304">
        <ele>565</ele>
        <time>2018-05-19T12:36:51Z</time>
      </trkpt>
      <trkpt lat="44.10111" lon="3.03037">
        <ele>564.4</ele>
        <time>2018-05-19T12:36:52Z</time>
      </trkpt>
      <trkpt lat="44.10108" lon="3.03035">
        <ele>564.2</ele>
        <time>2018-05-19T12:36:53Z</time>
      </trkpt>
      <trkpt lat="44.10103" lon="3.03034">
        <ele>564.1</ele>
        <time>2018-05-19T12:36:54Z</time>
      </trkpt>
      <trkpt lat="44.10097" lon="3.03035">
        <ele>563.8</ele>
        <time>2018-05-19T12:36:55Z</time>
      </trkpt>
      <trkpt lat="44.10092" lon="3.03037">
        <ele>563.5</ele>
        <time>2018-05-19T12:36:56Z</time>
      </trkpt>
      <trkpt lat="44.10086" lon="3.03041">
        <ele>563.6</ele>
        <time>2018-05-19T12:36:57Z</time>
      </trkpt>
      <trkpt lat="44.10082" lon="3.03044">
        <ele>563.8</ele>
        <time>2018-05-19T12:36:58Z</time>
      </trkpt>
      <trkpt lat="44.10077" lon="3.03046">
        <ele>563.5</ele>
        <time>2018-05-19T12:36:59Z</time>
      </trkpt>
      <trkpt lat="44.10075" lon="3.03047">
        <ele>563.9</ele>
        <time>2018-05-19T12:37:00Z</time>
      </trkpt>
      <trkpt lat="44.10069" lon="3.03047">
        <ele>563.6</ele>
        <time>2018-05-19T12:37:01Z</time>
      </trkpt>
      <trkpt lat="44.10062" lon="3.03049">
        <ele>563.1</ele>
        <time>2018-05-19T12:37:03Z</time>
      </trkpt>
      <trkpt lat="44.10057" lon="3.03049">
        <ele>562.9</ele>
        <time>2018-05-19T12:37:04Z</time>
      </trkpt>
      <trkpt lat="44.10051" lon="3.03051">
        <ele>562.5</ele>
        <time>2018-05-19T12:37:05Z</time>
      </trkpt>
      <trkpt lat="44.10047" lon="3.03052">
        <ele>562.6</ele>
        <time>2018-05-19T12:37:06Z</time>
      </trkpt>
      <trkpt lat="44.10042" lon="3.03054">
        <ele>562.4</ele>
        <time>2018-05-19T12:37:07Z</time>
      </trkpt>
      <trkpt lat="44.10038" lon="3.03057">
        <ele>562.7</ele>
        <time>2018-05-19T12:37:08Z</time>
      </trkpt>
      <trkpt lat="44.10034" lon="3.03063">
        <ele>562.5</ele>
        <time>2018-05-19T12:37:09Z</time>
      </trkpt>
      <trkpt lat="44.10029" lon="3.03068">
        <ele>562.4</ele>
        <time>2018-05-19T12:37:10Z</time>
      </trkpt>
      <trkpt lat="44.1002" lon="3.03075">
        <ele>561.6</ele>
        <time>2018-05-19T12:37:11Z</time>
      </trkpt>
      <trkpt lat="44.10015" lon="3.0308">
        <ele>561</ele>
        <time>2018-05-19T12:37:12Z</time>
      </trkpt>
      <trkpt lat="44.1001" lon="3.03086">
        <ele>560.6</ele>
        <time>2018-05-19T12:37:13Z</time>
      </trkpt>
      <trkpt lat="44.10004" lon="3.03093">
        <ele>560.4</ele>
        <time>2018-05-19T12:37:14Z</time>
      </trkpt>
      <trkpt lat="44.09998" lon="3.03099">
        <ele>560.2</ele>
        <time>2018-05-19T12:37:15Z</time>
      </trkpt>
      <trkpt lat="44.09991" lon="3.03104">
        <ele>559.8</ele>
        <time>2018-05-19T12:37:16Z</time>
      </trkpt>
      <trkpt lat="44.09984" lon="3.03108">
        <ele>559.2</ele>
        <time>2018-05-19T12:37:17Z</time>
      </trkpt>
      <trkpt lat="44.09979" lon="3.03111">
        <ele>558.6</ele>
        <time>2018-05-19T12:37:18Z</time>
      </trkpt>
      <trkpt lat="44.09973" lon="3.03114">
        <ele>558.3</ele>
        <time>2018-05-19T12:37:19Z</time>
      </trkpt>
      <trkpt lat="44.09968" lon="3.03116">
        <ele>558.2</ele>
        <time>2018-05-19T12:37:20Z</time>
      </trkpt>
      <trkpt lat="44.09965" lon="3.0312">
        <ele>558</ele>
        <time>2018-05-19T12:37:21Z</time>
      </trkpt>
      <trkpt lat="44.09961" lon="3.03123">
        <ele>557.8</ele>
        <time>2018-05-19T12:37:23Z</time>
      </trkpt>
      <trkpt lat="44.09959" lon="3.03123">
        <ele>557.5</ele>
        <time>2018-05-19T12:38:15Z</time>
      </trkpt>
      <trkpt lat="44.09956" lon="3.03123">
        <ele>557.3</ele>
        <time>2018-05-19T12:38:21Z</time>
      </trkpt>
      <trkpt lat="44.09952" lon="3.03126">
        <ele>557.2</ele>
        <time>2018-05-19T12:38:24Z</time>
      </trkpt>
      <trkpt lat="44.09951" lon="3.0313">
        <ele>557.1</ele>
        <time>2018-05-19T12:38:27Z</time>
      </trkpt>
      <trkpt lat="44.0995" lon="3.03136">
        <ele>557.2</ele>
        <time>2018-05-19T12:38:30Z</time>
      </trkpt>
      <trkpt lat="44.09952" lon="3.0314">
        <ele>557.6</ele>
        <time>2018-05-19T12:38:32Z</time>
      </trkpt>
      <trkpt lat="44.09955" lon="3.03141">
        <ele>557.8</ele>
        <time>2018-05-19T12:38:34Z</time>
      </trkpt>
      <trkpt lat="44.09957" lon="3.03138">
        <ele>557.8</ele>
        <time>2018-05-19T12:38:36Z</time>
      </trkpt>
      <trkpt lat="44.09959" lon="3.03133">
        <ele>557.9</ele>
        <time>2018-05-19T12:38:38Z</time>
      </trkpt>
      <trkpt lat="44.09959" lon="3.03127">
        <ele>557.7</ele>
        <time>2018-05-19T12:38:40Z</time>
      </trkpt>
      <trkpt lat="44.0996" lon="3.03122">
        <ele>557.5</ele>
        <time>2018-05-19T12:38:42Z</time>
      </trkpt>
      <trkpt lat="44.09963" lon="3.03117">
        <ele>557.6</ele>
        <time>2018-05-19T12:38:44Z</time>
      </trkpt>
      <trkpt lat="44.09966" lon="3.03115">
        <ele>557.7</ele>
        <time>2018-05-19T12:38:46Z</time>
      </trkpt>
      <trkpt lat="44.09971" lon="3.03113">
        <ele>558.3</ele>
        <time>2018-05-19T12:38:48Z</time>
      </trkpt>
      <trkpt lat="44.09975" lon="3.03112">
        <ele>558.6</ele>
        <time>2018-05-19T12:38:50Z</time>
      </trkpt>
      <trkpt lat="44.09979" lon="3.0311">
        <ele>558.6</ele>
        <time>2018-05-19T12:38:52Z</time>
      </trkpt>
      <trkpt lat="44.09981" lon="3.03108">
        <ele>558.9</ele>
        <time>2018-05-19T12:38:54Z</time>
      </trkpt>
      <trkpt lat="44.09984" lon="3.03107">
        <ele>559</ele>
        <time>2018-05-19T12:38:56Z</time>
      </trkpt>
      <trkpt lat="44.09988" lon="3.03106">
        <ele>559.2</ele>
        <time>2018-05-19T12:38:59Z</time>
      </trkpt>
      <trkpt lat="44.0999" lon="3.03107">
        <ele>559.8</ele>
        <time>2018-05-19T12:39:02Z</time>
      </trkpt>
      <trkpt lat="44.09989" lon="3.03111">
        <ele>560</ele>
        <time>2018-05-19T12:39:05Z</time>
      </trkpt>
      <trkpt lat="44.09986" lon="3.03112">
        <ele>559.7</ele>
        <time>2018-05-19T12:39:07Z</time>
      </trkpt>
      <trkpt lat="44.09981" lon="3.03114">
        <ele>559.1</ele>
        <time>2018-05-19T12:39:09Z</time>
      </trkpt>
      <trkpt lat="44.09978" lon="3.03116">
        <ele>559</ele>
        <time>2018-05-19T12:39:10Z</time>
      </trkpt>
      <trkpt lat="44.09974" lon="3.03119">
        <ele>558.7</ele>
        <time>2018-05-19T12:39:11Z</time>
      </trkpt>
      <trkpt lat="44.09971" lon="3.03122">
        <ele>558.6</ele>
        <time>2018-05-19T12:39:12Z</time>
      </trkpt>
      <trkpt lat="44.09965" lon="3.03126">
        <ele>558.2</ele>
        <time>2018-05-19T12:39:13Z</time>
      </trkpt>
      <trkpt lat="44.0996" lon="3.0313">
        <ele>557.8</ele>
        <time>2018-05-19T12:39:14Z</time>
      </trkpt>
      <trkpt lat="44.09955" lon="3.03133">
        <ele>557.7</ele>
        <time>2018-05-19T12:39:15Z</time>
      </trkpt>
      <trkpt lat="44.0995" lon="3.03137">
        <ele>557.4</ele>
        <time>2018-05-19T12:39:16Z</time>
      </trkpt>
      <trkpt lat="44.09946" lon="3.0314">
        <ele>557.1</ele>
        <time>2018-05-19T12:39:17Z</time>
      </trkpt>
      <trkpt lat="44.09942" lon="3.0314">
        <ele>556.7</ele>
        <time>2018-05-19T12:39:18Z</time>
      </trkpt>
      <trkpt lat="44.0994" lon="3.03138">
        <ele>556.4</ele>
        <time>2018-05-19T12:39:24Z</time>
      </trkpt>
      <trkpt lat="44.09935" lon="3.03142">
        <ele>555.9</ele>
        <time>2018-05-19T12:41:00Z</time>
      </trkpt>
      <trkpt lat="44.09932" lon="3.03141">
        <ele>555.7</ele>
        <time>2018-05-19T12:41:58Z</time>
      </trkpt>
      <trkpt lat="44.09929" lon="3.03145">
        <ele>555.4</ele>
        <time>2018-05-19T12:42:00Z</time>
      </trkpt>
      <trkpt lat="44.09925" lon="3.0315">
        <ele>555.3</ele>
        <time>2018-05-19T12:42:02Z</time>
      </trkpt>
      <trkpt lat="44.09922" lon="3.03153">
        <ele>554.9</ele>
        <time>2018-05-19T12:42:03Z</time>
      </trkpt>
      <trkpt lat="44.09919" lon="3.03157">
        <ele>554.5</ele>
        <time>2018-05-19T12:42:04Z</time>
      </trkpt>
      <trkpt lat="44.09914" lon="3.03159">
        <ele>553.7</ele>
        <time>2018-05-19T12:42:05Z</time>
      </trkpt>
      <trkpt lat="44.09909" lon="3.03162">
        <ele>553.3</ele>
        <time>2018-05-19T12:42:06Z</time>
      </trkpt>
      <trkpt lat="44.09903" lon="3.03164">
        <ele>552.5</ele>
        <time>2018-05-19T12:42:07Z</time>
      </trkpt>
      <trkpt lat="44.09897" lon="3.03164">
        <ele>551.6</ele>
        <time>2018-05-19T12:42:08Z</time>
      </trkpt>
      <trkpt lat="44.09889" lon="3.03163">
        <ele>550.1</ele>
        <time>2018-05-19T12:42:09Z</time>
      </trkpt>
      <trkpt lat="44.09881" lon="3.03162">
        <ele>548.8</ele>
        <time>2018-05-19T12:42:10Z</time>
      </trkpt>
      <trkpt lat="44.09874" lon="3.03164">
        <ele>547.2</ele>
        <time>2018-05-19T12:42:11Z</time>
      </trkpt>
      <trkpt lat="44.09866" lon="3.03166">
        <ele>545.9</ele>
        <time>2018-05-19T12:42:12Z</time>
      </trkpt>
      <trkpt lat="44.09858" lon="3.03168">
        <ele>544</ele>
        <time>2018-05-19T12:42:13Z</time>
      </trkpt>
      <trkpt lat="44.09852" lon="3.03171">
        <ele>542.4</ele>
        <time>2018-05-19T12:42:14Z</time>
      </trkpt>
      <trkpt lat="44.09846" lon="3.03175">
        <ele>541.4</ele>
        <time>2018-05-19T12:42:15Z</time>
      </trkpt>
      <trkpt lat="44.09844" lon="3.03181">
        <ele>542.1</ele>
        <time>2018-05-19T12:42:16Z</time>
      </trkpt>
      <trkpt lat="44.09842" lon="3.03186">
        <ele>541.8</ele>
        <time>2018-05-19T12:42:17Z</time>
      </trkpt>
      <trkpt lat="44.09843" lon="3.03192">
        <ele>542.1</ele>
        <time>2018-05-19T12:42:18Z</time>
      </trkpt>
      <trkpt lat="44.09844" lon="3.03199">
        <ele>543.1</ele>
        <time>2018-05-19T12:42:19Z</time>
      </trkpt>
      <trkpt lat="44.09844" lon="3.03209">
        <ele>543.3</ele>
        <time>2018-05-19T12:42:20Z</time>
      </trkpt>
      <trkpt lat="44.09845" lon="3.03219">
        <ele>543.2</ele>
        <time>2018-05-19T12:42:21Z</time>
      </trkpt>
      <trkpt lat="44.09846" lon="3.03229">
        <ele>542.6</ele>
        <time>2018-05-19T12:42:22Z</time>
      </trkpt>
      <trkpt lat="44.09848" lon="3.03239">
        <ele>542.3</ele>
        <time>2018-05-19T12:42:23Z</time>
      </trkpt>
      <trkpt lat="44.09851" lon="3.03246">
        <ele>541.7</ele>
        <time>2018-05-19T12:42:24Z</time>
      </trkpt>
      <trkpt lat="44.09855" lon="3.03253">
        <ele>541</ele>
        <time>2018-05-19T12:42:25Z</time>
      </trkpt>
      <trkpt lat="44.09859" lon="3.03253">
        <ele>541.9</ele>
        <time>2018-05-19T12:42:26Z</time>
      </trkpt>
      <trkpt lat="44.09862" lon="3.03254">
        <ele>541.9</ele>
        <time>2018-05-19T12:42:27Z</time>
      </trkpt>
      <trkpt lat="44.09864" lon="3.03261">
        <ele>541.1</ele>
        <time>2018-05-19T12:42:29Z</time>
      </trkpt>
      <trkpt lat="44.09866" lon="3.03265">
        <ele>541.6</ele>
        <time>2018-05-19T12:42:30Z</time>
      </trkpt>
      <trkpt lat="44.09869" lon="3.03271">
        <ele>540.7</ele>
        <time>2018-05-19T12:42:31Z</time>
      </trkpt>
      <trkpt lat="44.09872" lon="3.03277">
        <ele>540.4</ele>
        <time>2018-05-19T12:42:32Z</time>
      </trkpt>
      <trkpt lat="44.09874" lon="3.03282">
        <ele>539.8</ele>
        <time>2018-05-19T12:42:33Z</time>
      </trkpt>
      <trkpt lat="44.09876" lon="3.03287">
        <ele>539.6</ele>
        <time>2018-05-19T12:42:34Z</time>
      </trkpt>
      <trkpt lat="44.09878" lon="3.03291">
        <ele>539.4</ele>
        <time>2018-05-19T12:42:35Z</time>
      </trkpt>
      <trkpt lat="44.09882" lon="3.03297">
        <ele>538.6</ele>
        <time>2018-05-19T12:42:36Z</time>
      </trkpt>
      <trkpt lat="44.09889" lon="3.03303">
        <ele>538.8</ele>
        <time>2018-05-19T12:42:37Z</time>
      </trkpt>
      <trkpt lat="44.09891" lon="3.03309">
        <ele>538</ele>
        <time>2018-05-19T12:42:38Z</time>
      </trkpt>
      <trkpt lat="44.09893" lon="3.03315">
        <ele>537.5</ele>
        <time>2018-05-19T12:42:39Z</time>
      </trkpt>
      <trkpt lat="44.09893" lon="3.03323">
        <ele>536.9</ele>
        <time>2018-05-19T12:42:40Z</time>
      </trkpt>
      <trkpt lat="44.09895" lon="3.0333">
        <ele>536.1</ele>
        <time>2018-05-19T12:42:41Z</time>
      </trkpt>
      <trkpt lat="44.09899" lon="3.03335">
        <ele>536.2</ele>
        <time>2018-05-19T12:42:42Z</time>
      </trkpt>
      <trkpt lat="44.09903" lon="3.03341">
        <ele>536.1</ele>
        <time>2018-05-19T12:42:43Z</time>
      </trkpt>
      <trkpt lat="44.09906" lon="3.03347">
        <ele>536</ele>
        <time>2018-05-19T12:42:44Z</time>
      </trkpt>
      <trkpt lat="44.09912" lon="3.0335">
        <ele>536.2</ele>
        <time>2018-05-19T12:42:45Z</time>
      </trkpt>
      <trkpt lat="44.09915" lon="3.03352">
        <ele>536.3</ele>
        <time>2018-05-19T12:42:46Z</time>
      </trkpt>
      <trkpt lat="44.09915" lon="3.03357">
        <ele>535.9</ele>
        <time>2018-05-19T12:42:47Z</time>
      </trkpt>
      <trkpt lat="44.09918" lon="3.03359">
        <ele>536.3</ele>
        <time>2018-05-19T12:42:48Z</time>
      </trkpt>
      <trkpt lat="44.09922" lon="3.03365">
        <ele>536.1</ele>
        <time>2018-05-19T12:42:50Z</time>
      </trkpt>
      <trkpt lat="44.09923" lon="3.03369">
        <ele>535.9</ele>
        <time>2018-05-19T12:42:51Z</time>
      </trkpt>
      <trkpt lat="44.09926" lon="3.03372">
        <ele>536.2</ele>
        <time>2018-05-19T12:42:52Z</time>
      </trkpt>
      <trkpt lat="44.09933" lon="3.03374">
        <ele>536.7</ele>
        <time>2018-05-19T12:42:54Z</time>
      </trkpt>
      <trkpt lat="44.09936" lon="3.03376">
        <ele>536.7</ele>
        <time>2018-05-19T12:42:55Z</time>
      </trkpt>
      <trkpt lat="44.09937" lon="3.0338">
        <ele>536.8</ele>
        <time>2018-05-19T12:42:56Z</time>
      </trkpt>
      <trkpt lat="44.09939" lon="3.03384">
        <ele>536.6</ele>
        <time>2018-05-19T12:42:57Z</time>
      </trkpt>
      <trkpt lat="44.09939" lon="3.03389">
        <ele>536.8</ele>
        <time>2018-05-19T12:42:59Z</time>
      </trkpt>
      <trkpt lat="44.09937" lon="3.03392">
        <ele>536.5</ele>
        <time>2018-05-19T12:43:01Z</time>
      </trkpt>
      <trkpt lat="44.09935" lon="3.03396">
        <ele>536.2</ele>
        <time>2018-05-19T12:43:03Z</time>
      </trkpt>
      <trkpt lat="44.09933" lon="3.034">
        <ele>535.9</ele>
        <time>2018-05-19T12:43:05Z</time>
      </trkpt>
      <trkpt lat="44.09931" lon="3.03405">
        <ele>535.9</ele>
        <time>2018-05-19T12:43:07Z</time>
      </trkpt>
      <trkpt lat="44.09928" lon="3.03408">
        <ele>535.6</ele>
        <time>2018-05-19T12:43:09Z</time>
      </trkpt>
      <trkpt lat="44.09925" lon="3.03412">
        <ele>535.3</ele>
        <time>2018-05-19T12:43:12Z</time>
      </trkpt>
      <trkpt lat="44.09922" lon="3.03415">
        <ele>535</ele>
        <time>2018-05-19T12:43:14Z</time>
      </trkpt>
      <trkpt lat="44.09919" lon="3.03418">
        <ele>534.7</ele>
        <time>2018-05-19T12:43:16Z</time>
      </trkpt>
      <trkpt lat="44.09916" lon="3.03421">
        <ele>534.4</ele>
        <time>2018-05-19T12:43:18Z</time>
      </trkpt>
      <trkpt lat="44.09914" lon="3.03424">
        <ele>534.1</ele>
        <time>2018-05-19T12:43:20Z</time>
      </trkpt>
      <trkpt lat="44.09911" lon="3.03428">
        <ele>534.2</ele>
        <time>2018-05-19T12:43:22Z</time>
      </trkpt>
      <trkpt lat="44.09909" lon="3.0343">
        <ele>534</ele>
        <time>2018-05-19T12:43:24Z</time>
      </trkpt>
      <trkpt lat="44.09907" lon="3.03433">
        <ele>533.7</ele>
        <time>2018-05-19T12:43:26Z</time>
      </trkpt>
      <trkpt lat="44.09904" lon="3.03436">
        <ele>533.6</ele>
        <time>2018-05-19T12:43:28Z</time>
      </trkpt>
      <trkpt lat="44.09902" lon="3.03439">
        <ele>533.8</ele>
        <time>2018-05-19T12:43:41Z</time>
      </trkpt>
      <trkpt lat="44.099" lon="3.03441">
        <ele>533.5</ele>
        <time>2018-05-19T12:43:46Z</time>
      </trkpt>
      <trkpt lat="44.09903" lon="3.0344">
        <ele>533.8</ele>
        <time>2018-05-19T12:43:55Z</time>
      </trkpt>
      <trkpt lat="44.099" lon="3.0344">
        <ele>533.5</ele>
        <time>2018-05-19T12:44:02Z</time>
      </trkpt>
      <trkpt lat="44.09896" lon="3.03442">
        <ele>533.4</ele>
        <time>2018-05-19T12:44:04Z</time>
      </trkpt>
      <trkpt lat="44.09891" lon="3.03446">
        <ele>532.6</ele>
        <time>2018-05-19T12:44:06Z</time>
      </trkpt>
      <trkpt lat="44.09888" lon="3.03448">
        <ele>532.5</ele>
        <time>2018-05-19T12:44:08Z</time>
      </trkpt>
      <trkpt lat="44.09885" lon="3.0345">
        <ele>532.1</ele>
        <time>2018-05-19T12:44:10Z</time>
      </trkpt>
      <trkpt lat="44.09882" lon="3.03453">
        <ele>532.1</ele>
        <time>2018-05-19T12:44:13Z</time>
      </trkpt>
      <trkpt lat="44.09879" lon="3.03454">
        <ele>531.6</ele>
        <time>2018-05-19T12:44:15Z</time>
      </trkpt>
      <trkpt lat="44.09876" lon="3.03457">
        <ele>531.7</ele>
        <time>2018-05-19T12:44:18Z</time>
      </trkpt>
      <trkpt lat="44.09873" lon="3.03459">
        <ele>531.8</ele>
        <time>2018-05-19T12:44:20Z</time>
      </trkpt>
      <trkpt lat="44.09869" lon="3.03461">
        <ele>531.4</ele>
        <time>2018-05-19T12:44:22Z</time>
      </trkpt>
      <trkpt lat="44.09866" lon="3.03462">
        <ele>531</ele>
        <time>2018-05-19T12:44:23Z</time>
      </trkpt>
      <trkpt lat="44.09863" lon="3.03463">
        <ele>531.1</ele>
        <time>2018-05-19T12:44:24Z</time>
      </trkpt>
      <trkpt lat="44.0986" lon="3.03464">
        <ele>530.7</ele>
        <time>2018-05-19T12:44:25Z</time>
      </trkpt>
      <trkpt lat="44.09857" lon="3.03466">
        <ele>530.3</ele>
        <time>2018-05-19T12:44:26Z</time>
      </trkpt>
      <trkpt lat="44.09854" lon="3.03467">
        <ele>529.8</ele>
        <time>2018-05-19T12:44:27Z</time>
      </trkpt>
      <trkpt lat="44.09851" lon="3.03468">
        <ele>530</ele>
        <time>2018-05-19T12:44:28Z</time>
      </trkpt>
      <trkpt lat="44.09848" lon="3.03469">
        <ele>529.6</ele>
        <time>2018-05-19T12:44:29Z</time>
      </trkpt>
      <trkpt lat="44.09845" lon="3.0347">
        <ele>529.1</ele>
        <time>2018-05-19T12:44:30Z</time>
      </trkpt>
      <trkpt lat="44.09842" lon="3.03471">
        <ele>528.6</ele>
        <time>2018-05-19T12:44:31Z</time>
      </trkpt>
      <trkpt lat="44.09838" lon="3.03472">
        <ele>528.9</ele>
        <time>2018-05-19T12:44:32Z</time>
      </trkpt>
      <trkpt lat="44.09834" lon="3.03473">
        <ele>527.8</ele>
        <time>2018-05-19T12:44:33Z</time>
      </trkpt>
      <trkpt lat="44.0983" lon="3.03474">
        <ele>527.2</ele>
        <time>2018-05-19T12:44:34Z</time>
      </trkpt>
      <trkpt lat="44.09826" lon="3.03476">
        <ele>526.6</ele>
        <time>2018-05-19T12:44:35Z</time>
      </trkpt>
      <trkpt lat="44.09822" lon="3.03477">
        <ele>526.8</ele>
        <time>2018-05-19T12:44:36Z</time>
      </trkpt>
      <trkpt lat="44.09816" lon="3.03478">
        <ele>525.6</ele>
        <time>2018-05-19T12:44:37Z</time>
      </trkpt>
      <trkpt lat="44.09811" lon="3.03479">
        <ele>524.4</ele>
        <time>2018-05-19T12:44:38Z</time>
      </trkpt>
      <trkpt lat="44.09805" lon="3.03482">
        <ele>523.6</ele>
        <time>2018-05-19T12:44:39Z</time>
      </trkpt>
      <trkpt lat="44.098" lon="3.03484">
        <ele>522.8</ele>
        <time>2018-05-19T12:44:40Z</time>
      </trkpt>
      <trkpt lat="44.09797" lon="3.03487">
        <ele>522.2</ele>
        <time>2018-05-19T12:44:41Z</time>
      </trkpt>
      <trkpt lat="44.09793" lon="3.0349">
        <ele>522.2</ele>
        <time>2018-05-19T12:44:42Z</time>
      </trkpt>
      <trkpt lat="44.0979" lon="3.03493">
        <ele>521.6</ele>
        <time>2018-05-19T12:44:43Z</time>
      </trkpt>
      <trkpt lat="44.09788" lon="3.03495">
        <ele>521.7</ele>
        <time>2018-05-19T12:44:44Z</time>
      </trkpt>
      <trkpt lat="44.09782" lon="3.03498">
        <ele>521.9</ele>
        <time>2018-05-19T12:44:46Z</time>
      </trkpt>
      <trkpt lat="44.09779" lon="3.035">
        <ele>520.5</ele>
        <time>2018-05-19T12:44:47Z</time>
      </trkpt>
      <trkpt lat="44.09775" lon="3.03502">
        <ele>520.7</ele>
        <time>2018-05-19T12:44:48Z</time>
      </trkpt>
      <trkpt lat="44.09771" lon="3.03506">
        <ele>520.9</ele>
        <time>2018-05-19T12:44:50Z</time>
      </trkpt>
      <trkpt lat="44.09769" lon="3.03509">
        <ele>520.2</ele>
        <time>2018-05-19T12:44:51Z</time>
      </trkpt>
      <trkpt lat="44.09766" lon="3.0351">
        <ele>520.4</ele>
        <time>2018-05-19T12:44:52Z</time>
      </trkpt>
      <trkpt lat="44.09763" lon="3.03512">
        <ele>519.7</ele>
        <time>2018-05-19T12:44:54Z</time>
      </trkpt>
      <trkpt lat="44.09761" lon="3.03511">
        <ele>519.7</ele>
        <time>2018-05-19T12:45:08Z</time>
      </trkpt>
      <trkpt lat="44.09763" lon="3.03514">
        <ele>519.6</ele>
        <time>2018-05-19T12:45:14Z</time>
      </trkpt>
      <trkpt lat="44.0976" lon="3.03514">
        <ele>519</ele>
        <time>2018-05-19T12:45:50Z</time>
      </trkpt>
      <trkpt lat="44.09756" lon="3.03515">
        <ele>519.2</ele>
        <time>2018-05-19T12:46:42Z</time>
      </trkpt>
      <trkpt lat="44.09753" lon="3.03515">
        <ele>518.5</ele>
        <time>2018-05-19T12:46:43Z</time>
      </trkpt>
      <trkpt lat="44.09749" lon="3.03515">
        <ele>517.9</ele>
        <time>2018-05-19T12:46:44Z</time>
      </trkpt>
      <trkpt lat="44.09746" lon="3.03515">
        <ele>517.3</ele>
        <time>2018-05-19T12:46:45Z</time>
      </trkpt>
      <trkpt lat="44.09742" lon="3.03515">
        <ele>516.2</ele>
        <time>2018-05-19T12:46:46Z</time>
      </trkpt>
      <trkpt lat="44.09734" lon="3.03514">
        <ele>514.3</ele>
        <time>2018-05-19T12:46:47Z</time>
      </trkpt>
      <trkpt lat="44.09728" lon="3.03512">
        <ele>513.5</ele>
        <time>2018-05-19T12:46:48Z</time>
      </trkpt>
      <trkpt lat="44.09721" lon="3.03511">
        <ele>512.6</ele>
        <time>2018-05-19T12:46:49Z</time>
      </trkpt>
      <trkpt lat="44.09714" lon="3.0351">
        <ele>510.8</ele>
        <time>2018-05-19T12:46:50Z</time>
      </trkpt>
      <trkpt lat="44.09707" lon="3.03509">
        <ele>509.8</ele>
        <time>2018-05-19T12:46:51Z</time>
      </trkpt>
      <trkpt lat="44.097" lon="3.03507">
        <ele>509</ele>
        <time>2018-05-19T12:46:52Z</time>
      </trkpt>
      <trkpt lat="44.09693" lon="3.03506">
        <ele>507.9</ele>
        <time>2018-05-19T12:46:53Z</time>
      </trkpt>
      <trkpt lat="44.09685" lon="3.03506">
        <ele>506.3</ele>
        <time>2018-05-19T12:46:54Z</time>
      </trkpt>
      <trkpt lat="44.09676" lon="3.03508">
        <ele>504.8</ele>
        <time>2018-05-19T12:46:55Z</time>
      </trkpt>
      <trkpt lat="44.0967" lon="3.0351">
        <ele>503.3</ele>
        <time>2018-05-19T12:46:56Z</time>
      </trkpt>
      <trkpt lat="44.09666" lon="3.03511">
        <ele>503.5</ele>
        <time>2018-05-19T12:46:57Z</time>
      </trkpt>
      <trkpt lat="44.09662" lon="3.03512">
        <ele>502.7</ele>
        <time>2018-05-19T12:46:58Z</time>
      </trkpt>
      <trkpt lat="44.0966" lon="3.03511">
        <ele>501.8</ele>
        <time>2018-05-19T12:46:59Z</time>
      </trkpt>
      <trkpt lat="44.09657" lon="3.03511">
        <ele>501</ele>
        <time>2018-05-19T12:47:00Z</time>
      </trkpt>
      <trkpt lat="44.09652" lon="3.03511">
        <ele>500.1</ele>
        <time>2018-05-19T12:47:01Z</time>
      </trkpt>
      <trkpt lat="44.09648" lon="3.03511">
        <ele>498.1</ele>
        <time>2018-05-19T12:47:02Z</time>
      </trkpt>
      <trkpt lat="44.09643" lon="3.03514">
        <ele>495.9</ele>
        <time>2018-05-19T12:47:03Z</time>
      </trkpt>
      <trkpt lat="44.09639" lon="3.03517">
        <ele>495.7</ele>
        <time>2018-05-19T12:47:04Z</time>
      </trkpt>
      <trkpt lat="44.09635" lon="3.03522">
        <ele>495.4</ele>
        <time>2018-05-19T12:47:05Z</time>
      </trkpt>
      <trkpt lat="44.09632" lon="3.03528">
        <ele>496.4</ele>
        <time>2018-05-19T12:47:06Z</time>
      </trkpt>
      <trkpt lat="44.09629" lon="3.03535">
        <ele>496.2</ele>
        <time>2018-05-19T12:47:07Z</time>
      </trkpt>
      <trkpt lat="44.09627" lon="3.03543">
        <ele>497.3</ele>
        <time>2018-05-19T12:47:08Z</time>
      </trkpt>
      <trkpt lat="44.09625" lon="3.03552">
        <ele>499.5</ele>
        <time>2018-05-19T12:47:09Z</time>
      </trkpt>
      <trkpt lat="44.09624" lon="3.0356">
        <ele>500.4</ele>
        <time>2018-05-19T12:47:10Z</time>
      </trkpt>
      <trkpt lat="44.09624" lon="3.03571">
        <ele>503.1</ele>
        <time>2018-05-19T12:47:11Z</time>
      </trkpt>
      <trkpt lat="44.09624" lon="3.03582">
        <ele>504.9</ele>
        <time>2018-05-19T12:47:12Z</time>
      </trkpt>
      <trkpt lat="44.09625" lon="3.03591">
        <ele>506.4</ele>
        <time>2018-05-19T12:47:13Z</time>
      </trkpt>
      <trkpt lat="44.09624" lon="3.036">
        <ele>507.5</ele>
        <time>2018-05-19T12:47:14Z</time>
      </trkpt>
      <trkpt lat="44.09623" lon="3.03609">
        <ele>508.5</ele>
        <time>2018-05-19T12:47:15Z</time>
      </trkpt>
      <trkpt lat="44.09621" lon="3.03618">
        <ele>509</ele>
        <time>2018-05-19T12:47:16Z</time>
      </trkpt>
      <trkpt lat="44.09617" lon="3.03627">
        <ele>508.9</ele>
        <time>2018-05-19T12:47:17Z</time>
      </trkpt>
      <trkpt lat="44.09613" lon="3.03634">
        <ele>508.3</ele>
        <time>2018-05-19T12:47:18Z</time>
      </trkpt>
      <trkpt lat="44.0961" lon="3.03643">
        <ele>508</ele>
        <time>2018-05-19T12:47:19Z</time>
      </trkpt>
      <trkpt lat="44.09606" lon="3.03651">
        <ele>506.6</ele>
        <time>2018-05-19T12:47:20Z</time>
      </trkpt>
      <trkpt lat="44.09602" lon="3.03659">
        <ele>506.4</ele>
        <time>2018-05-19T12:47:21Z</time>
      </trkpt>
      <trkpt lat="44.09597" lon="3.03666">
        <ele>506.3</ele>
        <time>2018-05-19T12:47:22Z</time>
      </trkpt>
      <trkpt lat="44.09595" lon="3.03673">
        <ele>505.7</ele>
        <time>2018-05-19T12:47:23Z</time>
      </trkpt>
      <trkpt lat="44.09594" lon="3.03683">
        <ele>505.7</ele>
        <time>2018-05-19T12:47:24Z</time>
      </trkpt>
      <trkpt lat="44.09594" lon="3.03692">
        <ele>507</ele>
        <time>2018-05-19T12:47:25Z</time>
      </trkpt>
      <trkpt lat="44.09596" lon="3.03702">
        <ele>507.2</ele>
        <time>2018-05-19T12:47:26Z</time>
      </trkpt>
      <trkpt lat="44.09596" lon="3.03712">
        <ele>507.7</ele>
        <time>2018-05-19T12:47:27Z</time>
      </trkpt>
      <trkpt lat="44.09595" lon="3.03723">
        <ele>507.9</ele>
        <time>2018-05-19T12:47:28Z</time>
      </trkpt>
      <trkpt lat="44.09594" lon="3.03734">
        <ele>507.6</ele>
        <time>2018-05-19T12:47:29Z</time>
      </trkpt>
      <trkpt lat="44.09593" lon="3.03742">
        <ele>507.8</ele>
        <time>2018-05-19T12:47:30Z</time>
      </trkpt>
      <trkpt lat="44.09592" lon="3.03749">
        <ele>507.9</ele>
        <time>2018-05-19T12:47:31Z</time>
      </trkpt>
      <trkpt lat="44.09591" lon="3.03754">
        <ele>508</ele>
        <time>2018-05-19T12:47:32Z</time>
      </trkpt>
      <trkpt lat="44.09591" lon="3.03758">
        <ele>508.1</ele>
        <time>2018-05-19T12:47:33Z</time>
      </trkpt>
      <trkpt lat="44.09589" lon="3.03762">
        <ele>507.3</ele>
        <time>2018-05-19T12:47:35Z</time>
      </trkpt>
      <trkpt lat="44.09591" lon="3.03753">
        <ele>507.8</ele>
        <time>2018-05-19T12:48:09Z</time>
      </trkpt>
      <trkpt lat="44.09592" lon="3.03749">
        <ele>507.6</ele>
        <time>2018-05-19T12:48:11Z</time>
      </trkpt>
      <trkpt lat="44.09593" lon="3.03743">
        <ele>507.3</ele>
        <time>2018-05-19T12:48:13Z</time>
      </trkpt>
      <trkpt lat="44.09595" lon="3.03739">
        <ele>507.9</ele>
        <time>2018-05-19T12:48:17Z</time>
      </trkpt>
      <trkpt lat="44.09595" lon="3.03743">
        <ele>508</ele>
        <time>2018-05-19T12:48:33Z</time>
      </trkpt>
      <trkpt lat="44.09596" lon="3.03747">
        <ele>508</ele>
        <time>2018-05-19T12:48:37Z</time>
      </trkpt>
      <trkpt lat="44.09596" lon="3.03752">
        <ele>508.1</ele>
        <time>2018-05-19T12:48:41Z</time>
      </trkpt>
      <trkpt lat="44.09596" lon="3.03756">
        <ele>508.2</ele>
        <time>2018-05-19T12:48:45Z</time>
      </trkpt>
      <trkpt lat="44.09597" lon="3.03761">
        <ele>508.2</ele>
        <time>2018-05-19T12:48:50Z</time>
      </trkpt>
      <trkpt lat="44.09599" lon="3.03764">
        <ele>508.9</ele>
        <time>2018-05-19T12:48:55Z</time>
      </trkpt>
      <trkpt lat="44.09599" lon="3.03768">
        <ele>508.9</ele>
        <time>2018-05-19T12:49:01Z</time>
      </trkpt>
      <trkpt lat="44.09601" lon="3.03773">
        <ele>509.4</ele>
        <time>2018-05-19T12:49:05Z</time>
      </trkpt>
      <trkpt lat="44.09603" lon="3.03776">
        <ele>509.5</ele>
        <time>2018-05-19T12:49:08Z</time>
      </trkpt>
      <trkpt lat="44.09603" lon="3.03781">
        <ele>510.1</ele>
        <time>2018-05-19T12:49:13Z</time>
      </trkpt>
      <trkpt lat="44.09605" lon="3.03785">
        <ele>510</ele>
        <time>2018-05-19T12:49:17Z</time>
      </trkpt>
      <trkpt lat="44.09608" lon="3.03788">
        <ele>510.7</ele>
        <time>2018-05-19T12:49:21Z</time>
      </trkpt>
      <trkpt lat="44.09608" lon="3.03792">
        <ele>510.6</ele>
        <time>2018-05-19T12:49:25Z</time>
      </trkpt>
      <trkpt lat="44.09609" lon="3.03796">
        <ele>510.4</ele>
        <time>2018-05-19T12:49:28Z</time>
      </trkpt>
      <trkpt lat="44.0961" lon="3.038">
        <ele>511.1</ele>
        <time>2018-05-19T12:49:32Z</time>
      </trkpt>
      <trkpt lat="44.0961" lon="3.03804">
        <ele>510.9</ele>
        <time>2018-05-19T12:49:36Z</time>
      </trkpt>
      <trkpt lat="44.0961" lon="3.03808">
        <ele>510.9</ele>
        <time>2018-05-19T12:49:40Z</time>
      </trkpt>
      <trkpt lat="44.09609" lon="3.03812">
        <ele>510.8</ele>
        <time>2018-05-19T12:49:46Z</time>
      </trkpt>
      <trkpt lat="44.09609" lon="3.03818">
        <ele>510.1</ele>
        <time>2018-05-19T12:49:48Z</time>
      </trkpt>
      <trkpt lat="44.09608" lon="3.03825">
        <ele>510</ele>
        <time>2018-05-19T12:49:50Z</time>
      </trkpt>
      <trkpt lat="44.09607" lon="3.03831">
        <ele>509.9</ele>
        <time>2018-05-19T12:49:52Z</time>
      </trkpt>
      <trkpt lat="44.09607" lon="3.03835">
        <ele>509.9</ele>
        <time>2018-05-19T12:49:53Z</time>
      </trkpt>
      <trkpt lat="44.09606" lon="3.03839">
        <ele>509.8</ele>
        <time>2018-05-19T12:49:54Z</time>
      </trkpt>
      <trkpt lat="44.09606" lon="3.03844">
        <ele>509.2</ele>
        <time>2018-05-19T12:49:55Z</time>
      </trkpt>
      <trkpt lat="44.09606" lon="3.03848">
        <ele>509.1</ele>
        <time>2018-05-19T12:49:56Z</time>
      </trkpt>
      <trkpt lat="44.09606" lon="3.03853">
        <ele>509</ele>
        <time>2018-05-19T12:49:57Z</time>
      </trkpt>
      <trkpt lat="44.09606" lon="3.03857">
        <ele>508.8</ele>
        <time>2018-05-19T12:49:58Z</time>
      </trkpt>
      <trkpt lat="44.09606" lon="3.03862">
        <ele>508.6</ele>
        <time>2018-05-19T12:49:59Z</time>
      </trkpt>
      <trkpt lat="44.09606" lon="3.03866">
        <ele>508.4</ele>
        <time>2018-05-19T12:50:00Z</time>
      </trkpt>
      <trkpt lat="44.09606" lon="3.0387">
        <ele>508.1</ele>
        <time>2018-05-19T12:50:01Z</time>
      </trkpt>
      <trkpt lat="44.09607" lon="3.03874">
        <ele>508.4</ele>
        <time>2018-05-19T12:50:02Z</time>
      </trkpt>
      <trkpt lat="44.09608" lon="3.03881">
        <ele>507.9</ele>
        <time>2018-05-19T12:50:04Z</time>
      </trkpt>
      <trkpt lat="44.09609" lon="3.03885">
        <ele>507.6</ele>
        <time>2018-05-19T12:50:05Z</time>
      </trkpt>
      <trkpt lat="44.09609" lon="3.03889">
        <ele>507.3</ele>
        <time>2018-05-19T12:50:06Z</time>
      </trkpt>
      <trkpt lat="44.0961" lon="3.03892">
        <ele>507.4</ele>
        <time>2018-05-19T12:50:07Z</time>
      </trkpt>
      <trkpt lat="44.09612" lon="3.03896">
        <ele>507.4</ele>
        <time>2018-05-19T12:50:08Z</time>
      </trkpt>
      <trkpt lat="44.09614" lon="3.03899">
        <ele>507.5</ele>
        <time>2018-05-19T12:50:09Z</time>
      </trkpt>
      <trkpt lat="44.09616" lon="3.03903">
        <ele>507.5</ele>
        <time>2018-05-19T12:50:10Z</time>
      </trkpt>
      <trkpt lat="44.09619" lon="3.03906">
        <ele>507.4</ele>
        <time>2018-05-19T12:50:11Z</time>
      </trkpt>
      <trkpt lat="44.09622" lon="3.03909">
        <ele>507.1</ele>
        <time>2018-05-19T12:50:12Z</time>
      </trkpt>
      <trkpt lat="44.09625" lon="3.03913">
        <ele>507.3</ele>
        <time>2018-05-19T12:50:13Z</time>
      </trkpt>
      <trkpt lat="44.09628" lon="3.03917">
        <ele>507</ele>
        <time>2018-05-19T12:50:14Z</time>
      </trkpt>
      <trkpt lat="44.09632" lon="3.03923">
        <ele>506.2</ele>
        <time>2018-05-19T12:50:15Z</time>
      </trkpt>
      <trkpt lat="44.09636" lon="3.03927">
        <ele>505.8</ele>
        <time>2018-05-19T12:50:16Z</time>
      </trkpt>
      <trkpt lat="44.0964" lon="3.03931">
        <ele>505.3</ele>
        <time>2018-05-19T12:50:17Z</time>
      </trkpt>
      <trkpt lat="44.09644" lon="3.03934">
        <ele>505.4</ele>
        <time>2018-05-19T12:50:18Z</time>
      </trkpt>
      <trkpt lat="44.09648" lon="3.03935">
        <ele>505.4</ele>
        <time>2018-05-19T12:50:19Z</time>
      </trkpt>
      <trkpt lat="44.09652" lon="3.03935">
        <ele>504.7</ele>
        <time>2018-05-19T12:50:20Z</time>
      </trkpt>
      <trkpt lat="44.09656" lon="3.03936">
        <ele>504.7</ele>
        <time>2018-05-19T12:50:21Z</time>
      </trkpt>
      <trkpt lat="44.0966" lon="3.03937">
        <ele>504.7</ele>
        <time>2018-05-19T12:50:22Z</time>
      </trkpt>
      <trkpt lat="44.09663" lon="3.03938">
        <ele>504.6</ele>
        <time>2018-05-19T12:50:23Z</time>
      </trkpt>
      <trkpt lat="44.09665" lon="3.03936">
        <ele>504.6</ele>
        <time>2018-05-19T12:50:24Z</time>
      </trkpt>
      <trkpt lat="44.09668" lon="3.03934">
        <ele>505.2</ele>
        <time>2018-05-19T12:50:25Z</time>
      </trkpt>
      <trkpt lat="44.09671" lon="3.03932">
        <ele>505.2</ele>
        <time>2018-05-19T12:50:26Z</time>
      </trkpt>
      <trkpt lat="44.09673" lon="3.0393">
        <ele>505.7</ele>
        <time>2018-05-19T12:50:27Z</time>
      </trkpt>
      <trkpt lat="44.09678" lon="3.03929">
        <ele>505.6</ele>
        <time>2018-05-19T12:50:30Z</time>
      </trkpt>
      <trkpt lat="44.09681" lon="3.03931">
        <ele>505.5</ele>
        <time>2018-05-19T12:50:31Z</time>
      </trkpt>
      <trkpt lat="44.09684" lon="3.03933">
        <ele>504.7</ele>
        <time>2018-05-19T12:50:32Z</time>
      </trkpt>
      <trkpt lat="44.09692" lon="3.03937">
        <ele>503.8</ele>
        <time>2018-05-19T12:50:33Z</time>
      </trkpt>
      <trkpt lat="44.09697" lon="3.03939">
        <ele>503.5</ele>
        <time>2018-05-19T12:50:34Z</time>
      </trkpt>
      <trkpt lat="44.09702" lon="3.0394">
        <ele>502.4</ele>
        <time>2018-05-19T12:50:35Z</time>
      </trkpt>
      <trkpt lat="44.09708" lon="3.03939">
        <ele>502.8</ele>
        <time>2018-05-19T12:50:36Z</time>
      </trkpt>
      <trkpt lat="44.09714" lon="3.03938">
        <ele>502.5</ele>
        <time>2018-05-19T12:50:37Z</time>
      </trkpt>
      <trkpt lat="44.0972" lon="3.03938">
        <ele>502.4</ele>
        <time>2018-05-19T12:50:38Z</time>
      </trkpt>
      <trkpt lat="44.09726" lon="3.03937">
        <ele>502.2</ele>
        <time>2018-05-19T12:50:39Z</time>
      </trkpt>
      <trkpt lat="44.09735" lon="3.03936">
        <ele>501.8</ele>
        <time>2018-05-19T12:50:40Z</time>
      </trkpt>
      <trkpt lat="44.09743" lon="3.03935">
        <ele>501.5</ele>
        <time>2018-05-19T12:50:41Z</time>
      </trkpt>
      <trkpt lat="44.09754" lon="3.03933">
        <ele>502.1</ele>
        <time>2018-05-19T12:50:42Z</time>
      </trkpt>
      <trkpt lat="44.09761" lon="3.03933">
        <ele>502.4</ele>
        <time>2018-05-19T12:50:43Z</time>
      </trkpt>
      <trkpt lat="44.0977" lon="3.03933">
        <ele>503.3</ele>
        <time>2018-05-19T12:50:44Z</time>
      </trkpt>
      <trkpt lat="44.09778" lon="3.03934">
        <ele>504.2</ele>
        <time>2018-05-19T12:50:45Z</time>
      </trkpt>
      <trkpt lat="44.09785" lon="3.03933">
        <ele>505.3</ele>
        <time>2018-05-19T12:50:46Z</time>
      </trkpt>
      <trkpt lat="44.09794" lon="3.03933">
        <ele>506.8</ele>
        <time>2018-05-19T12:50:47Z</time>
      </trkpt>
      <trkpt lat="44.09801" lon="3.03932">
        <ele>508.2</ele>
        <time>2018-05-19T12:50:48Z</time>
      </trkpt>
      <trkpt lat="44.09802" lon="3.03929">
        <ele>508.8</ele>
        <time>2018-05-19T12:50:49Z</time>
      </trkpt>
      <trkpt lat="44.09805" lon="3.03927">
        <ele>509.3</ele>
        <time>2018-05-19T12:50:50Z</time>
      </trkpt>
      <trkpt lat="44.09809" lon="3.03925">
        <ele>510.4</ele>
        <time>2018-05-19T12:50:51Z</time>
      </trkpt>
      <trkpt lat="44.09812" lon="3.03927">
        <ele>510.3</ele>
        <time>2018-05-19T12:50:52Z</time>
      </trkpt>
      <trkpt lat="44.09817" lon="3.03931">
        <ele>511.1</ele>
        <time>2018-05-19T12:50:54Z</time>
      </trkpt>
      <trkpt lat="44.0982" lon="3.03934">
        <ele>510.9</ele>
        <time>2018-05-19T12:50:55Z</time>
      </trkpt>
      <trkpt lat="44.09823" lon="3.03936">
        <ele>510.7</ele>
        <time>2018-05-19T12:50:57Z</time>
      </trkpt>
      <trkpt lat="44.09825" lon="3.0394">
        <ele>509.9</ele>
        <time>2018-05-19T12:50:59Z</time>
      </trkpt>
      <trkpt lat="44.09827" lon="3.03945">
        <ele>509.7</ele>
        <time>2018-05-19T12:51:01Z</time>
      </trkpt>
      <trkpt lat="44.09829" lon="3.03951">
        <ele>509.6</ele>
        <time>2018-05-19T12:51:03Z</time>
      </trkpt>
      <trkpt lat="44.09831" lon="3.03957">
        <ele>508.8</ele>
        <time>2018-05-19T12:51:05Z</time>
      </trkpt>
      <trkpt lat="44.09833" lon="3.03961">
        <ele>508.1</ele>
        <time>2018-05-19T12:51:07Z</time>
      </trkpt>
      <trkpt lat="44.09834" lon="3.03965">
        <ele>507.5</ele>
        <time>2018-05-19T12:51:08Z</time>
      </trkpt>
      <trkpt lat="44.09835" lon="3.0397">
        <ele>507.5</ele>
        <time>2018-05-19T12:51:09Z</time>
      </trkpt>
      <trkpt lat="44.09836" lon="3.03974">
        <ele>506.7</ele>
        <time>2018-05-19T12:51:10Z</time>
      </trkpt>
      <trkpt lat="44.0984" lon="3.0398">
        <ele>506.6</ele>
        <time>2018-05-19T12:51:12Z</time>
      </trkpt>
      <trkpt lat="44.09842" lon="3.03982">
        <ele>506.4</ele>
        <time>2018-05-19T12:51:13Z</time>
      </trkpt>
      <trkpt lat="44.09844" lon="3.03985">
        <ele>507</ele>
        <time>2018-05-19T12:51:14Z</time>
      </trkpt>
      <trkpt lat="44.09846" lon="3.03987">
        <ele>506.1</ele>
        <time>2018-05-19T12:51:15Z</time>
      </trkpt>
      <trkpt lat="44.09848" lon="3.0399">
        <ele>506.8</ele>
        <time>2018-05-19T12:51:16Z</time>
      </trkpt>
      <trkpt lat="44.09851" lon="3.03992">
        <ele>506.5</ele>
        <time>2018-05-19T12:51:17Z</time>
      </trkpt>
      <trkpt lat="44.09854" lon="3.03993">
        <ele>507.2</ele>
        <time>2018-05-19T12:51:18Z</time>
      </trkpt>
      <trkpt lat="44.09857" lon="3.03994">
        <ele>507.9</ele>
        <time>2018-05-19T12:51:19Z</time>
      </trkpt>
      <trkpt lat="44.0986" lon="3.03995">
        <ele>507.6</ele>
        <time>2018-05-19T12:51:20Z</time>
      </trkpt>
      <trkpt lat="44.09863" lon="3.03997">
        <ele>508.3</ele>
        <time>2018-05-19T12:51:21Z</time>
      </trkpt>
      <trkpt lat="44.09866" lon="3.03998">
        <ele>509</ele>
        <time>2018-05-19T12:51:22Z</time>
      </trkpt>
      <trkpt lat="44.0987" lon="3.03999">
        <ele>509.6</ele>
        <time>2018-05-19T12:51:23Z</time>
      </trkpt>
      <trkpt lat="44.09874" lon="3.04">
        <ele>509.3</ele>
        <time>2018-05-19T12:51:24Z</time>
      </trkpt>
      <trkpt lat="44.09877" lon="3.04001">
        <ele>509.9</ele>
        <time>2018-05-19T12:51:25Z</time>
      </trkpt>
      <trkpt lat="44.09881" lon="3.04003">
        <ele>511.1</ele>
        <time>2018-05-19T12:51:26Z</time>
      </trkpt>
      <trkpt lat="44.09885" lon="3.04004">
        <ele>510.7</ele>
        <time>2018-05-19T12:51:27Z</time>
      </trkpt>
      <trkpt lat="44.09889" lon="3.04006">
        <ele>511.4</ele>
        <time>2018-05-19T12:51:28Z</time>
      </trkpt>
      <trkpt lat="44.09893" lon="3.04008">
        <ele>511.7</ele>
        <time>2018-05-19T12:51:29Z</time>
      </trkpt>
      <trkpt lat="44.09897" lon="3.0401">
        <ele>512.3</ele>
        <time>2018-05-19T12:51:30Z</time>
      </trkpt>
      <trkpt lat="44.09901" lon="3.04011">
        <ele>512.9</ele>
        <time>2018-05-19T12:51:31Z</time>
      </trkpt>
      <trkpt lat="44.09904" lon="3.04013">
        <ele>512.3</ele>
        <time>2018-05-19T12:51:32Z</time>
      </trkpt>
      <trkpt lat="44.09907" lon="3.04015">
        <ele>512.8</ele>
        <time>2018-05-19T12:51:33Z</time>
      </trkpt>
      <trkpt lat="44.0991" lon="3.04017">
        <ele>512.1</ele>
        <time>2018-05-19T12:51:34Z</time>
      </trkpt>
      <trkpt lat="44.09913" lon="3.04018">
        <ele>512.7</ele>
        <time>2018-05-19T12:51:35Z</time>
      </trkpt>
      <trkpt lat="44.09915" lon="3.04019">
        <ele>513.3</ele>
        <time>2018-05-19T12:51:36Z</time>
      </trkpt>
      <trkpt lat="44.09921" lon="3.0402">
        <ele>514.5</ele>
        <time>2018-05-19T12:51:38Z</time>
      </trkpt>
      <trkpt lat="44.09924" lon="3.04021">
        <ele>514.5</ele>
        <time>2018-05-19T12:51:39Z</time>
      </trkpt>
      <trkpt lat="44.09928" lon="3.04021">
        <ele>514.2</ele>
        <time>2018-05-19T12:51:41Z</time>
      </trkpt>
      <trkpt lat="44.09931" lon="3.04022">
        <ele>514.7</ele>
        <time>2018-05-19T12:51:43Z</time>
      </trkpt>
      <trkpt lat="44.09934" lon="3.04023">
        <ele>515.2</ele>
        <time>2018-05-19T12:51:45Z</time>
      </trkpt>
      <trkpt lat="44.09938" lon="3.04023">
        <ele>515.7</ele>
        <time>2018-05-19T12:51:47Z</time>
      </trkpt>
      <trkpt lat="44.09941" lon="3.04022">
        <ele>516.3</ele>
        <time>2018-05-19T12:51:52Z</time>
      </trkpt>
      <trkpt lat="44.09943" lon="3.04025">
        <ele>515.5</ele>
        <time>2018-05-19T12:52:00Z</time>
      </trkpt>
      <trkpt lat="44.09945" lon="3.04028">
        <ele>516.1</ele>
        <time>2018-05-19T12:52:05Z</time>
      </trkpt>
      <trkpt lat="44.09948" lon="3.04027">
        <ele>516.1</ele>
        <time>2018-05-19T12:52:09Z</time>
      </trkpt>
      <trkpt lat="44.09951" lon="3.04027">
        <ele>516.7</ele>
        <time>2018-05-19T12:52:14Z</time>
      </trkpt>
      <trkpt lat="44.09954" lon="3.04027">
        <ele>517.2</ele>
        <time>2018-05-19T12:52:17Z</time>
      </trkpt>
      <trkpt lat="44.09957" lon="3.04027">
        <ele>517.6</ele>
        <time>2018-05-19T12:52:22Z</time>
      </trkpt>
      <trkpt lat="44.09958" lon="3.04024">
        <ele>519.4</ele>
        <time>2018-05-19T12:52:27Z</time>
      </trkpt>
      <trkpt lat="44.09963" lon="3.0403">
        <ele>517.1</ele>
        <time>2018-05-19T12:53:30Z</time>
      </trkpt>
      <trkpt lat="44.09965" lon="3.04027">
        <ele>518.9</ele>
        <time>2018-05-19T12:53:51Z</time>
      </trkpt>
      <trkpt lat="44.09968" lon="3.04027">
        <ele>519.4</ele>
        <time>2018-05-19T12:53:53Z</time>
      </trkpt>
      <trkpt lat="44.09972" lon="3.04028">
        <ele>519.8</ele>
        <time>2018-05-19T12:53:56Z</time>
      </trkpt>
      <trkpt lat="44.09974" lon="3.04029">
        <ele>520.2</ele>
        <time>2018-05-19T12:53:58Z</time>
      </trkpt>
      <trkpt lat="44.09979" lon="3.04029">
        <ele>520.9</ele>
        <time>2018-05-19T12:54:00Z</time>
      </trkpt>
      <trkpt lat="44.09984" lon="3.04028">
        <ele>521.2</ele>
        <time>2018-05-19T12:54:02Z</time>
      </trkpt>
      <trkpt lat="44.09988" lon="3.04029">
        <ele>521.5</ele>
        <time>2018-05-19T12:54:04Z</time>
      </trkpt>
      <trkpt lat="44.09991" lon="3.04029">
        <ele>521.9</ele>
        <time>2018-05-19T12:54:05Z</time>
      </trkpt>
      <trkpt lat="44.09995" lon="3.04031">
        <ele>521.2</ele>
        <time>2018-05-19T12:54:06Z</time>
      </trkpt>
      <trkpt lat="44.09998" lon="3.04032">
        <ele>521.6</ele>
        <time>2018-05-19T12:54:07Z</time>
      </trkpt>
      <trkpt lat="44.10002" lon="3.04034">
        <ele>520.7</ele>
        <time>2018-05-19T12:54:08Z</time>
      </trkpt>
      <trkpt lat="44.10005" lon="3.04036">
        <ele>521.1</ele>
        <time>2018-05-19T12:54:09Z</time>
      </trkpt>
      <trkpt lat="44.10009" lon="3.0404">
        <ele>520.3</ele>
        <time>2018-05-19T12:54:11Z</time>
      </trkpt>
      <trkpt lat="44.10012" lon="3.04042">
        <ele>520.7</ele>
        <time>2018-05-19T12:54:12Z</time>
      </trkpt>
      <trkpt lat="44.10016" lon="3.04044">
        <ele>520.3</ele>
        <time>2018-05-19T12:54:13Z</time>
      </trkpt>
      <trkpt lat="44.1002" lon="3.04045">
        <ele>520.6</ele>
        <time>2018-05-19T12:54:14Z</time>
      </trkpt>
      <trkpt lat="44.10024" lon="3.04045">
        <ele>521</ele>
        <time>2018-05-19T12:54:15Z</time>
      </trkpt>
      <trkpt lat="44.10028" lon="3.04046">
        <ele>521.4</ele>
        <time>2018-05-19T12:54:16Z</time>
      </trkpt>
      <trkpt lat="44.10031" lon="3.04048">
        <ele>520.6</ele>
        <time>2018-05-19T12:54:17Z</time>
      </trkpt>
      <trkpt lat="44.10035" lon="3.0405">
        <ele>521.4</ele>
        <time>2018-05-19T12:54:18Z</time>
      </trkpt>
      <trkpt lat="44.10039" lon="3.04052">
        <ele>520.5</ele>
        <time>2018-05-19T12:54:19Z</time>
      </trkpt>
      <trkpt lat="44.10042" lon="3.04053">
        <ele>520.8</ele>
        <time>2018-05-19T12:54:20Z</time>
      </trkpt>
      <trkpt lat="44.10045" lon="3.04053">
        <ele>521.1</ele>
        <time>2018-05-19T12:54:21Z</time>
      </trkpt>
      <trkpt lat="44.10047" lon="3.04054">
        <ele>521.5</ele>
        <time>2018-05-19T12:54:22Z</time>
      </trkpt>
      <trkpt lat="44.1005" lon="3.04056">
        <ele>520.7</ele>
        <time>2018-05-19T12:54:23Z</time>
      </trkpt>
      <trkpt lat="44.10053" lon="3.04057">
        <ele>520.7</ele>
        <time>2018-05-19T12:54:24Z</time>
      </trkpt>
      <trkpt lat="44.10057" lon="3.04061">
        <ele>520.2</ele>
        <time>2018-05-19T12:54:26Z</time>
      </trkpt>
      <trkpt lat="44.10061" lon="3.04064">
        <ele>519.4</ele>
        <time>2018-05-19T12:54:28Z</time>
      </trkpt>
      <trkpt lat="44.10065" lon="3.04065">
        <ele>519.6</ele>
        <time>2018-05-19T12:54:30Z</time>
      </trkpt>
      <trkpt lat="44.10069" lon="3.04065">
        <ele>520</ele>
        <time>2018-05-19T12:54:32Z</time>
      </trkpt>
      <trkpt lat="44.10073" lon="3.04065">
        <ele>520.2</ele>
        <time>2018-05-19T12:54:34Z</time>
      </trkpt>
      <trkpt lat="44.10078" lon="3.04065">
        <ele>520.5</ele>
        <time>2018-05-19T12:54:36Z</time>
      </trkpt>
      <trkpt lat="44.10082" lon="3.04065">
        <ele>520.6</ele>
        <time>2018-05-19T12:54:38Z</time>
      </trkpt>
      <trkpt lat="44.10084" lon="3.04066">
        <ele>520.7</ele>
        <time>2018-05-19T12:54:40Z</time>
      </trkpt>
      <trkpt lat="44.10087" lon="3.04069">
        <ele>519.7</ele>
        <time>2018-05-19T12:54:42Z</time>
      </trkpt>
      <trkpt lat="44.10091" lon="3.0407">
        <ele>519.9</ele>
        <time>2018-05-19T12:54:44Z</time>
      </trkpt>
      <trkpt lat="44.10094" lon="3.0407">
        <ele>520</ele>
        <time>2018-05-19T12:54:46Z</time>
      </trkpt>
      <trkpt lat="44.10098" lon="3.0407">
        <ele>520.1</ele>
        <time>2018-05-19T12:54:48Z</time>
      </trkpt>
      <trkpt lat="44.10103" lon="3.0407">
        <ele>520.5</ele>
        <time>2018-05-19T12:54:50Z</time>
      </trkpt>
      <trkpt lat="44.10108" lon="3.04069">
        <ele>520.7</ele>
        <time>2018-05-19T12:54:52Z</time>
      </trkpt>
      <trkpt lat="44.10111" lon="3.04069">
        <ele>520.9</ele>
        <time>2018-05-19T12:54:54Z</time>
      </trkpt>
      <trkpt lat="44.10114" lon="3.04069">
        <ele>521.2</ele>
        <time>2018-05-19T12:54:56Z</time>
      </trkpt>
      <trkpt lat="44.10117" lon="3.04069">
        <ele>521.4</ele>
        <time>2018-05-19T12:54:59Z</time>
      </trkpt>
      <trkpt lat="44.1012" lon="3.04068">
        <ele>522.7</ele>
        <time>2018-05-19T12:55:05Z</time>
      </trkpt>
      <trkpt lat="44.10123" lon="3.04067">
        <ele>522.9</ele>
        <time>2018-05-19T12:55:20Z</time>
      </trkpt>
      <trkpt lat="44.10126" lon="3.04069">
        <ele>522</ele>
        <time>2018-05-19T12:55:22Z</time>
      </trkpt>
      <trkpt lat="44.10128" lon="3.04073">
        <ele>521.2</ele>
        <time>2018-05-19T12:55:24Z</time>
      </trkpt>
      <trkpt lat="44.10129" lon="3.04077">
        <ele>521.2</ele>
        <time>2018-05-19T12:55:26Z</time>
      </trkpt>
      <trkpt lat="44.10133" lon="3.0408">
        <ele>520.3</ele>
        <time>2018-05-19T12:55:28Z</time>
      </trkpt>
      <trkpt lat="44.10137" lon="3.04084">
        <ele>519.5</ele>
        <time>2018-05-19T12:55:30Z</time>
      </trkpt>
      <trkpt lat="44.1014" lon="3.04087">
        <ele>518.6</ele>
        <time>2018-05-19T12:55:31Z</time>
      </trkpt>
      <trkpt lat="44.10144" lon="3.0409">
        <ele>517.8</ele>
        <time>2018-05-19T12:55:32Z</time>
      </trkpt>
      <trkpt lat="44.10148" lon="3.04093">
        <ele>518</ele>
        <time>2018-05-19T12:55:33Z</time>
      </trkpt>
      <trkpt lat="44.10155" lon="3.04098">
        <ele>517.6</ele>
        <time>2018-05-19T12:55:34Z</time>
      </trkpt>
      <trkpt lat="44.1016" lon="3.04101">
        <ele>517</ele>
        <time>2018-05-19T12:55:35Z</time>
      </trkpt>
      <trkpt lat="44.10164" lon="3.04105">
        <ele>516.7</ele>
        <time>2018-05-19T12:55:36Z</time>
      </trkpt>
      <trkpt lat="44.10167" lon="3.04108">
        <ele>516.1</ele>
        <time>2018-05-19T12:55:37Z</time>
      </trkpt>
      <trkpt lat="44.10171" lon="3.04111">
        <ele>516.4</ele>
        <time>2018-05-19T12:55:38Z</time>
      </trkpt>
      <trkpt lat="44.10176" lon="3.04114">
        <ele>516.1</ele>
        <time>2018-05-19T12:55:39Z</time>
      </trkpt>
      <trkpt lat="44.1018" lon="3.04119">
        <ele>515.5</ele>
        <time>2018-05-19T12:55:40Z</time>
      </trkpt>
      <trkpt lat="44.10184" lon="3.04124">
        <ele>515</ele>
        <time>2018-05-19T12:55:41Z</time>
      </trkpt>
      <trkpt lat="44.10187" lon="3.04128">
        <ele>514.6</ele>
        <time>2018-05-19T12:55:42Z</time>
      </trkpt>
      <trkpt lat="44.10191" lon="3.04132">
        <ele>514.2</ele>
        <time>2018-05-19T12:55:43Z</time>
      </trkpt>
      <trkpt lat="44.10197" lon="3.04136">
        <ele>514.4</ele>
        <time>2018-05-19T12:55:44Z</time>
      </trkpt>
      <trkpt lat="44.10201" lon="3.0414">
        <ele>514.2</ele>
        <time>2018-05-19T12:55:45Z</time>
      </trkpt>
      <trkpt lat="44.10203" lon="3.04143">
        <ele>514</ele>
        <time>2018-05-19T12:55:46Z</time>
      </trkpt>
      <trkpt lat="44.10206" lon="3.04146">
        <ele>513.8</ele>
        <time>2018-05-19T12:55:47Z</time>
      </trkpt>
      <trkpt lat="44.1021" lon="3.04153">
        <ele>513.6</ele>
        <time>2018-05-19T12:55:48Z</time>
      </trkpt>
      <trkpt lat="44.10212" lon="3.04161">
        <ele>512.7</ele>
        <time>2018-05-19T12:55:49Z</time>
      </trkpt>
      <trkpt lat="44.10217" lon="3.04166">
        <ele>512.9</ele>
        <time>2018-05-19T12:55:50Z</time>
      </trkpt>
      <trkpt lat="44.1022" lon="3.04169">
        <ele>512.7</ele>
        <time>2018-05-19T12:55:51Z</time>
      </trkpt>
      <trkpt lat="44.10222" lon="3.04176">
        <ele>511.4</ele>
        <time>2018-05-19T12:55:52Z</time>
      </trkpt>
      <trkpt lat="44.10224" lon="3.04179">
        <ele>511.9</ele>
        <time>2018-05-19T12:55:53Z</time>
      </trkpt>
      <trkpt lat="44.10227" lon="3.04185">
        <ele>511.2</ele>
        <time>2018-05-19T12:55:54Z</time>
      </trkpt>
      <trkpt lat="44.10232" lon="3.04191">
        <ele>511.5</ele>
        <time>2018-05-19T12:55:55Z</time>
      </trkpt>
      <trkpt lat="44.10237" lon="3.04195">
        <ele>511.3</ele>
        <time>2018-05-19T12:55:56Z</time>
      </trkpt>
      <trkpt lat="44.10242" lon="3.042">
        <ele>511.4</ele>
        <time>2018-05-19T12:55:57Z</time>
      </trkpt>
      <trkpt lat="44.10248" lon="3.04203">
        <ele>511.4</ele>
        <time>2018-05-19T12:55:58Z</time>
      </trkpt>
      <trkpt lat="44.10252" lon="3.04206">
        <ele>511.1</ele>
        <time>2018-05-19T12:55:59Z</time>
      </trkpt>
      <trkpt lat="44.10257" lon="3.0421">
        <ele>511.6</ele>
        <time>2018-05-19T12:56:00Z</time>
      </trkpt>
      <trkpt lat="44.10261" lon="3.04215">
        <ele>510.6</ele>
        <time>2018-05-19T12:56:01Z</time>
      </trkpt>
      <trkpt lat="44.10265" lon="3.04221">
        <ele>510.2</ele>
        <time>2018-05-19T12:56:02Z</time>
      </trkpt>
      <trkpt lat="44.1027" lon="3.04226">
        <ele>510.1</ele>
        <time>2018-05-19T12:56:03Z</time>
      </trkpt>
      <trkpt lat="44.10277" lon="3.04229">
        <ele>510</ele>
        <time>2018-05-19T12:56:04Z</time>
      </trkpt>
      <trkpt lat="44.10282" lon="3.04233">
        <ele>510</ele>
        <time>2018-05-19T12:56:05Z</time>
      </trkpt>
      <trkpt lat="44.10288" lon="3.0424">
        <ele>509.8</ele>
        <time>2018-05-19T12:56:06Z</time>
      </trkpt>
      <trkpt lat="44.10293" lon="3.04246">
        <ele>508.9</ele>
        <time>2018-05-19T12:56:07Z</time>
      </trkpt>
      <trkpt lat="44.10298" lon="3.04248">
        <ele>509</ele>
        <time>2018-05-19T12:56:08Z</time>
      </trkpt>
      <trkpt lat="44.10302" lon="3.04253">
        <ele>508.1</ele>
        <time>2018-05-19T12:56:09Z</time>
      </trkpt>
      <trkpt lat="44.10307" lon="3.04259">
        <ele>507.6</ele>
        <time>2018-05-19T12:56:10Z</time>
      </trkpt>
      <trkpt lat="44.10311" lon="3.04263">
        <ele>507.2</ele>
        <time>2018-05-19T12:56:11Z</time>
      </trkpt>
      <trkpt lat="44.10319" lon="3.04267">
        <ele>506.8</ele>
        <time>2018-05-19T12:56:12Z</time>
      </trkpt>
      <trkpt lat="44.10327" lon="3.04271">
        <ele>506.5</ele>
        <time>2018-05-19T12:56:13Z</time>
      </trkpt>
      <trkpt lat="44.10336" lon="3.04272">
        <ele>506.4</ele>
        <time>2018-05-19T12:56:14Z</time>
      </trkpt>
      <trkpt lat="44.10345" lon="3.04274">
        <ele>506.1</ele>
        <time>2018-05-19T12:56:15Z</time>
      </trkpt>
      <trkpt lat="44.10347" lon="3.04276">
        <ele>505.7</ele>
        <time>2018-05-19T12:56:16Z</time>
      </trkpt>
      <trkpt lat="44.10351" lon="3.04279">
        <ele>505.3</ele>
        <time>2018-05-19T12:56:17Z</time>
      </trkpt>
      <trkpt lat="44.10355" lon="3.04283">
        <ele>504.9</ele>
        <time>2018-05-19T12:56:18Z</time>
      </trkpt>
      <trkpt lat="44.1036" lon="3.04286">
        <ele>504.8</ele>
        <time>2018-05-19T12:56:20Z</time>
      </trkpt>
      <trkpt lat="44.10364" lon="3.04286">
        <ele>504.7</ele>
        <time>2018-05-19T12:56:26Z</time>
      </trkpt>
      <trkpt lat="44.10362" lon="3.0429">
        <ele>504.4</ele>
        <time>2018-05-19T12:56:34Z</time>
      </trkpt>
      <trkpt lat="44.10359" lon="3.04291">
        <ele>504.5</ele>
        <time>2018-05-19T12:56:50Z</time>
      </trkpt>
      <trkpt lat="44.10356" lon="3.04287">
        <ele>504.6</ele>
        <time>2018-05-19T12:56:59Z</time>
      </trkpt>
      <trkpt lat="44.10355" lon="3.04283">
        <ele>505</ele>
        <time>2018-05-19T12:57:01Z</time>
      </trkpt>
      <trkpt lat="44.10352" lon="3.0428">
        <ele>505.2</ele>
        <time>2018-05-19T12:57:03Z</time>
      </trkpt>
      <trkpt lat="44.10349" lon="3.04279">
        <ele>505.3</ele>
        <time>2018-05-19T12:57:05Z</time>
      </trkpt>
      <trkpt lat="44.10347" lon="3.04278">
        <ele>505.7</ele>
        <time>2018-05-19T12:57:09Z</time>
      </trkpt>
      <trkpt lat="44.10354" lon="3.04284">
        <ele>505</ele>
        <time>2018-05-19T12:58:05Z</time>
      </trkpt>
      <trkpt lat="44.10356" lon="3.04287">
        <ele>504.9</ele>
        <time>2018-05-19T12:58:07Z</time>
      </trkpt>
      <trkpt lat="44.1036" lon="3.04289">
        <ele>504.5</ele>
        <time>2018-05-19T12:58:09Z</time>
      </trkpt>
      <trkpt lat="44.10362" lon="3.04291">
        <ele>504.4</ele>
        <time>2018-05-19T12:58:10Z</time>
      </trkpt>
      <trkpt lat="44.10365" lon="3.04293">
        <ele>504.1</ele>
        <time>2018-05-19T12:58:11Z</time>
      </trkpt>
      <trkpt lat="44.10367" lon="3.04296">
        <ele>504.1</ele>
        <time>2018-05-19T12:58:12Z</time>
      </trkpt>
      <trkpt lat="44.1037" lon="3.04299">
        <ele>503.8</ele>
        <time>2018-05-19T12:58:13Z</time>
      </trkpt>
      <trkpt lat="44.10373" lon="3.04303">
        <ele>503.5</ele>
        <time>2018-05-19T12:58:14Z</time>
      </trkpt>
      <trkpt lat="44.10375" lon="3.04306">
        <ele>503.2</ele>
        <time>2018-05-19T12:58:15Z</time>
      </trkpt>
      <trkpt lat="44.10378" lon="3.0431">
        <ele>503</ele>
        <time>2018-05-19T12:58:16Z</time>
      </trkpt>
      <trkpt lat="44.1038" lon="3.04312">
        <ele>503</ele>
        <time>2018-05-19T12:58:17Z</time>
      </trkpt>
      <trkpt lat="44.10383" lon="3.04317">
        <ele>502.6</ele>
        <time>2018-05-19T12:58:19Z</time>
      </trkpt>
      <trkpt lat="44.10387" lon="3.04322">
        <ele>501.9</ele>
        <time>2018-05-19T12:58:21Z</time>
      </trkpt>
      <trkpt lat="44.1039" lon="3.04325">
        <ele>501.8</ele>
        <time>2018-05-19T12:58:23Z</time>
      </trkpt>
      <trkpt lat="44.10392" lon="3.04328">
        <ele>501.6</ele>
        <time>2018-05-19T12:58:25Z</time>
      </trkpt>
      <trkpt lat="44.10392" lon="3.04332">
        <ele>501.3</ele>
        <time>2018-05-19T12:58:31Z</time>
      </trkpt>
      <trkpt lat="44.10396" lon="3.04333">
        <ele>501.3</ele>
        <time>2018-05-19T12:58:43Z</time>
      </trkpt>
      <trkpt lat="44.10398" lon="3.04332">
        <ele>501.3</ele>
        <time>2018-05-19T12:58:47Z</time>
      </trkpt>
      <trkpt lat="44.10401" lon="3.04334">
        <ele>501</ele>
        <time>2018-05-19T12:58:53Z</time>
      </trkpt>
      <trkpt lat="44.10404" lon="3.04337">
        <ele>501</ele>
        <time>2018-05-19T12:58:59Z</time>
      </trkpt>
      <trkpt lat="44.10401" lon="3.04338">
        <ele>501</ele>
        <time>2018-05-19T12:59:16Z</time>
      </trkpt>
      <trkpt lat="44.10398" lon="3.04336">
        <ele>501</ele>
        <time>2018-05-19T12:59:19Z</time>
      </trkpt>
      <trkpt lat="44.10395" lon="3.04338">
        <ele>501</ele>
        <time>2018-05-19T12:59:23Z</time>
      </trkpt>
      <trkpt lat="44.10398" lon="3.0434">
        <ele>500.9</ele>
        <time>2018-05-19T12:59:48Z</time>
      </trkpt>
      <trkpt lat="44.104" lon="3.04337">
        <ele>501</ele>
        <time>2018-05-19T12:59:53Z</time>
      </trkpt>
      <trkpt lat="44.10397" lon="3.04338">
        <ele>501</ele>
        <time>2018-05-19T13:00:19Z</time>
      </trkpt>
      <trkpt lat="44.10399" lon="3.04335">
        <ele>501</ele>
        <time>2018-05-19T13:00:30Z</time>
      </trkpt>
      <trkpt lat="44.10402" lon="3.04337">
        <ele>501</ele>
        <time>2018-05-19T13:00:34Z</time>
      </trkpt>
      <trkpt lat="44.10404" lon="3.0434">
        <ele>500.9</ele>
        <time>2018-05-19T13:00:37Z</time>
      </trkpt>
      <trkpt lat="44.10406" lon="3.04344">
        <ele>500.8</ele>
        <time>2018-05-19T13:00:42Z</time>
      </trkpt>
      <trkpt lat="44.10408" lon="3.04347">
        <ele>500.9</ele>
        <time>2018-05-19T13:00:59Z</time>
      </trkpt>
      <trkpt lat="44.10405" lon="3.0435">
        <ele>500.9</ele>
        <time>2018-05-19T13:01:03Z</time>
      </trkpt>
      <trkpt lat="44.10404" lon="3.04354">
        <ele>501</ele>
        <time>2018-05-19T13:01:06Z</time>
      </trkpt>
      <trkpt lat="44.10404" lon="3.04359">
        <ele>501.2</ele>
        <time>2018-05-19T13:01:10Z</time>
      </trkpt>
      <trkpt lat="44.10402" lon="3.04362">
        <ele>501.5</ele>
        <time>2018-05-19T13:01:14Z</time>
      </trkpt>
      <trkpt lat="44.10402" lon="3.04366">
        <ele>501.8</ele>
        <time>2018-05-19T13:01:17Z</time>
      </trkpt>
      <trkpt lat="44.10403" lon="3.04371">
        <ele>502.1</ele>
        <time>2018-05-19T13:01:20Z</time>
      </trkpt>
      <trkpt lat="44.10404" lon="3.04376">
        <ele>502.4</ele>
        <time>2018-05-19T13:01:23Z</time>
      </trkpt>
      <trkpt lat="44.10404" lon="3.04381">
        <ele>502.6</ele>
        <time>2018-05-19T13:01:27Z</time>
      </trkpt>
      <trkpt lat="44.10405" lon="3.04385">
        <ele>502.9</ele>
        <time>2018-05-19T13:01:31Z</time>
      </trkpt>
      <trkpt lat="44.10406" lon="3.04389">
        <ele>503.1</ele>
        <time>2018-05-19T13:01:37Z</time>
      </trkpt>
      <trkpt lat="44.10407" lon="3.04393">
        <ele>503.3</ele>
        <time>2018-05-19T13:01:42Z</time>
      </trkpt>
      <trkpt lat="44.10409" lon="3.04398">
        <ele>503.4</ele>
        <time>2018-05-19T13:01:46Z</time>
      </trkpt>
      <trkpt lat="44.1041" lon="3.04401">
        <ele>503.6</ele>
        <time>2018-05-19T13:01:50Z</time>
      </trkpt>
      <trkpt lat="44.10412" lon="3.04405">
        <ele>503.8</ele>
        <time>2018-05-19T13:01:54Z</time>
      </trkpt>
      <trkpt lat="44.10415" lon="3.04408">
        <ele>504</ele>
        <time>2018-05-19T13:01:58Z</time>
      </trkpt>
      <trkpt lat="44.10417" lon="3.04411">
        <ele>504</ele>
        <time>2018-05-19T13:02:06Z</time>
      </trkpt>
      <trkpt lat="44.10418" lon="3.04415">
        <ele>504.2</ele>
        <time>2018-05-19T13:02:10Z</time>
      </trkpt>
      <trkpt lat="44.1042" lon="3.0442">
        <ele>504.5</ele>
        <time>2018-05-19T13:02:14Z</time>
      </trkpt>
      <trkpt lat="44.1042" lon="3.04423">
        <ele>504.8</ele>
        <time>2018-05-19T13:02:17Z</time>
      </trkpt>
      <trkpt lat="44.10421" lon="3.04428">
        <ele>505.1</ele>
        <time>2018-05-19T13:02:21Z</time>
      </trkpt>
      <trkpt lat="44.10422" lon="3.04432">
        <ele>505.4</ele>
        <time>2018-05-19T13:02:24Z</time>
      </trkpt>
      <trkpt lat="44.10423" lon="3.04436">
        <ele>505.7</ele>
        <time>2018-05-19T13:02:28Z</time>
      </trkpt>
      <trkpt lat="44.10425" lon="3.0444">
        <ele>506</ele>
        <time>2018-05-19T13:02:33Z</time>
      </trkpt>
      <trkpt lat="44.10422" lon="3.0444">
        <ele>506</ele>
        <time>2018-05-19T13:02:52Z</time>
      </trkpt>
      <trkpt lat="44.10415" lon="3.04436">
        <ele>505.7</ele>
        <time>2018-05-19T13:03:49Z</time>
      </trkpt>
      <trkpt lat="44.10412" lon="3.04433">
        <ele>505.4</ele>
        <time>2018-05-19T13:03:50Z</time>
      </trkpt>
      <trkpt lat="44.10408" lon="3.04429">
        <ele>505.1</ele>
        <time>2018-05-19T13:03:51Z</time>
      </trkpt>
      <trkpt lat="44.10401" lon="3.04422">
        <ele>504.9</ele>
        <time>2018-05-19T13:03:52Z</time>
      </trkpt>
      <trkpt lat="44.10397" lon="3.04418">
        <ele>504.8</ele>
        <time>2018-05-19T13:03:53Z</time>
      </trkpt>
      <trkpt lat="44.10391" lon="3.04413">
        <ele>504.7</ele>
        <time>2018-05-19T13:03:54Z</time>
      </trkpt>
      <trkpt lat="44.10386" lon="3.04409">
        <ele>504.6</ele>
        <time>2018-05-19T13:03:55Z</time>
      </trkpt>
      <trkpt lat="44.10379" lon="3.04405">
        <ele>504.4</ele>
        <time>2018-05-19T13:03:56Z</time>
      </trkpt>
      <trkpt lat="44.10373" lon="3.04402">
        <ele>504.3</ele>
        <time>2018-05-19T13:03:57Z</time>
      </trkpt>
      <trkpt lat="44.10367" lon="3.04398">
        <ele>504.2</ele>
        <time>2018-05-19T13:03:58Z</time>
      </trkpt>
      <trkpt lat="44.10358" lon="3.04395">
        <ele>504.3</ele>
        <time>2018-05-19T13:03:59Z</time>
      </trkpt>
      <trkpt lat="44.10351" lon="3.04391">
        <ele>504.2</ele>
        <time>2018-05-19T13:04:00Z</time>
      </trkpt>
      <trkpt lat="44.10345" lon="3.0439">
        <ele>504.2</ele>
        <time>2018-05-19T13:04:01Z</time>
      </trkpt>
      <trkpt lat="44.10341" lon="3.04393">
        <ele>504.3</ele>
        <time>2018-05-19T13:04:02Z</time>
      </trkpt>
      <trkpt lat="44.10337" lon="3.04395">
        <ele>504.3</ele>
        <time>2018-05-19T13:04:03Z</time>
      </trkpt>
      <trkpt lat="44.10329" lon="3.04393">
        <ele>504.3</ele>
        <time>2018-05-19T13:04:04Z</time>
      </trkpt>
      <trkpt lat="44.10324" lon="3.04393">
        <ele>504.3</ele>
        <time>2018-05-19T13:04:05Z</time>
      </trkpt>
      <trkpt lat="44.10318" lon="3.04391">
        <ele>504.2</ele>
        <time>2018-05-19T13:04:06Z</time>
      </trkpt>
      <trkpt lat="44.10313" lon="3.04391">
        <ele>504.2</ele>
        <time>2018-05-19T13:04:07Z</time>
      </trkpt>
      <trkpt lat="44.10308" lon="3.0439">
        <ele>504.1</ele>
        <time>2018-05-19T13:04:08Z</time>
      </trkpt>
      <trkpt lat="44.10303" lon="3.04389">
        <ele>504.1</ele>
        <time>2018-05-19T13:04:09Z</time>
      </trkpt>
      <trkpt lat="44.10297" lon="3.04389">
        <ele>504.1</ele>
        <time>2018-05-19T13:04:10Z</time>
      </trkpt>
      <trkpt lat="44.10293" lon="3.0439">
        <ele>504.2</ele>
        <time>2018-05-19T13:04:11Z</time>
      </trkpt>
      <trkpt lat="44.10287" lon="3.0439">
        <ele>504.2</ele>
        <time>2018-05-19T13:04:12Z</time>
      </trkpt>
      <trkpt lat="44.10283" lon="3.0439">
        <ele>504.1</ele>
        <time>2018-05-19T13:04:13Z</time>
      </trkpt>
      <trkpt lat="44.10277" lon="3.04389">
        <ele>504.2</ele>
        <time>2018-05-19T13:04:14Z</time>
      </trkpt>
      <trkpt lat="44.10273" lon="3.04388">
        <ele>504.3</ele>
        <time>2018-05-19T13:04:15Z</time>
      </trkpt>
      <trkpt lat="44.10268" lon="3.04386">
        <ele>504.2</ele>
        <time>2018-05-19T13:04:16Z</time>
      </trkpt>
      <trkpt lat="44.10264" lon="3.04383">
        <ele>504.2</ele>
        <time>2018-05-19T13:04:17Z</time>
      </trkpt>
      <trkpt lat="44.1026" lon="3.0438">
        <ele>504</ele>
        <time>2018-05-19T13:04:18Z</time>
      </trkpt>
      <trkpt lat="44.10255" lon="3.04377">
        <ele>503.8</ele>
        <time>2018-05-19T13:04:19Z</time>
      </trkpt>
      <trkpt lat="44.10252" lon="3.04375">
        <ele>503.8</ele>
        <time>2018-05-19T13:04:20Z</time>
      </trkpt>
      <trkpt lat="44.10245" lon="3.04372">
        <ele>503.7</ele>
        <time>2018-05-19T13:04:22Z</time>
      </trkpt>
      <trkpt lat="44.1024" lon="3.0437">
        <ele>504</ele>
        <time>2018-05-19T13:04:23Z</time>
      </trkpt>
      <trkpt lat="44.10236" lon="3.04369">
        <ele>504.1</ele>
        <time>2018-05-19T13:04:24Z</time>
      </trkpt>
      <trkpt lat="44.10231" lon="3.04366">
        <ele>504.3</ele>
        <time>2018-05-19T13:04:25Z</time>
      </trkpt>
      <trkpt lat="44.10226" lon="3.04364">
        <ele>504.4</ele>
        <time>2018-05-19T13:04:26Z</time>
      </trkpt>
      <trkpt lat="44.10223" lon="3.04362">
        <ele>504.4</ele>
        <time>2018-05-19T13:04:27Z</time>
      </trkpt>
      <trkpt lat="44.1022" lon="3.0436">
        <ele>504.5</ele>
        <time>2018-05-19T13:04:28Z</time>
      </trkpt>
      <trkpt lat="44.10216" lon="3.04359">
        <ele>504.3</ele>
        <time>2018-05-19T13:04:29Z</time>
      </trkpt>
      <trkpt lat="44.10212" lon="3.04357">
        <ele>504.2</ele>
        <time>2018-05-19T13:04:31Z</time>
      </trkpt>
      <trkpt lat="44.10209" lon="3.04356">
        <ele>504.2</ele>
        <time>2018-05-19T13:04:32Z</time>
      </trkpt>
      <trkpt lat="44.10206" lon="3.04354">
        <ele>503.6</ele>
        <time>2018-05-19T13:04:33Z</time>
      </trkpt>
      <trkpt lat="44.10203" lon="3.04353">
        <ele>503.5</ele>
        <time>2018-05-19T13:04:34Z</time>
      </trkpt>
      <trkpt lat="44.102" lon="3.04351">
        <ele>502.9</ele>
        <time>2018-05-19T13:04:35Z</time>
      </trkpt>
      <trkpt lat="44.10196" lon="3.04349">
        <ele>502.7</ele>
        <time>2018-05-19T13:04:36Z</time>
      </trkpt>
      <trkpt lat="44.10193" lon="3.04347">
        <ele>502</ele>
        <time>2018-05-19T13:04:37Z</time>
      </trkpt>
      <trkpt lat="44.10189" lon="3.04344">
        <ele>501.8</ele>
        <time>2018-05-19T13:04:38Z</time>
      </trkpt>
      <trkpt lat="44.10185" lon="3.04341">
        <ele>500.9</ele>
        <time>2018-05-19T13:04:39Z</time>
      </trkpt>
      <trkpt lat="44.10182" lon="3.04339">
        <ele>500.7</ele>
        <time>2018-05-19T13:04:40Z</time>
      </trkpt>
      <trkpt lat="44.10179" lon="3.04337">
        <ele>500.1</ele>
        <time>2018-05-19T13:04:41Z</time>
      </trkpt>
      <trkpt lat="44.10175" lon="3.04335">
        <ele>499.9</ele>
        <time>2018-05-19T13:04:42Z</time>
      </trkpt>
      <trkpt lat="44.10171" lon="3.04333">
        <ele>499.4</ele>
        <time>2018-05-19T13:04:43Z</time>
      </trkpt>
      <trkpt lat="44.10168" lon="3.04332">
        <ele>499.3</ele>
        <time>2018-05-19T13:04:44Z</time>
      </trkpt>
      <trkpt lat="44.10164" lon="3.0433">
        <ele>499.3</ele>
        <time>2018-05-19T13:04:46Z</time>
      </trkpt>
      <trkpt lat="44.10159" lon="3.04327">
        <ele>498.8</ele>
        <time>2018-05-19T13:05:50Z</time>
      </trkpt>
      <trkpt lat="44.10154" lon="3.04325">
        <ele>498.3</ele>
        <time>2018-05-19T13:05:53Z</time>
      </trkpt>
      <trkpt lat="44.10151" lon="3.04324">
        <ele>498.3</ele>
        <time>2018-05-19T13:05:54Z</time>
      </trkpt>
      <trkpt lat="44.10147" lon="3.04321">
        <ele>497.5</ele>
        <time>2018-05-19T13:05:56Z</time>
      </trkpt>
      <trkpt lat="44.10143" lon="3.04319">
        <ele>497.5</ele>
        <time>2018-05-19T13:05:58Z</time>
      </trkpt>
      <trkpt lat="44.10136" lon="3.04315">
        <ele>496.8</ele>
        <time>2018-05-19T13:05:59Z</time>
      </trkpt>
      <trkpt lat="44.1013" lon="3.0431">
        <ele>496.3</ele>
        <time>2018-05-19T13:06:00Z</time>
      </trkpt>
      <trkpt lat="44.10125" lon="3.04309">
        <ele>496.3</ele>
        <time>2018-05-19T13:06:01Z</time>
      </trkpt>
      <trkpt lat="44.10119" lon="3.04308">
        <ele>495.9</ele>
        <time>2018-05-19T13:06:02Z</time>
      </trkpt>
      <trkpt lat="44.10112" lon="3.04307">
        <ele>496.1</ele>
        <time>2018-05-19T13:06:03Z</time>
      </trkpt>
      <trkpt lat="44.10108" lon="3.04306">
        <ele>496.2</ele>
        <time>2018-05-19T13:06:04Z</time>
      </trkpt>
      <trkpt lat="44.10102" lon="3.04304">
        <ele>495.9</ele>
        <time>2018-05-19T13:06:05Z</time>
      </trkpt>
      <trkpt lat="44.10094" lon="3.04303">
        <ele>496</ele>
        <time>2018-05-19T13:06:06Z</time>
      </trkpt>
      <trkpt lat="44.10086" lon="3.04302">
        <ele>496.2</ele>
        <time>2018-05-19T13:06:07Z</time>
      </trkpt>
      <trkpt lat="44.1008" lon="3.043">
        <ele>496.3</ele>
        <time>2018-05-19T13:06:08Z</time>
      </trkpt>
      <trkpt lat="44.10074" lon="3.04299">
        <ele>495.9</ele>
        <time>2018-05-19T13:06:09Z</time>
      </trkpt>
      <trkpt lat="44.10067" lon="3.04299">
        <ele>496.1</ele>
        <time>2018-05-19T13:06:10Z</time>
      </trkpt>
      <trkpt lat="44.10061" lon="3.04296">
        <ele>496.3</ele>
        <time>2018-05-19T13:06:11Z</time>
      </trkpt>
      <trkpt lat="44.10055" lon="3.04293">
        <ele>495.9</ele>
        <time>2018-05-19T13:06:12Z</time>
      </trkpt>
      <trkpt lat="44.10049" lon="3.0429">
        <ele>495.6</ele>
        <time>2018-05-19T13:06:13Z</time>
      </trkpt>
      <trkpt lat="44.10042" lon="3.04288">
        <ele>495.7</ele>
        <time>2018-05-19T13:06:14Z</time>
      </trkpt>
      <trkpt lat="44.10035" lon="3.04286">
        <ele>495.2</ele>
        <time>2018-05-19T13:06:15Z</time>
      </trkpt>
      <trkpt lat="44.10027" lon="3.04283">
        <ele>495.1</ele>
        <time>2018-05-19T13:06:16Z</time>
      </trkpt>
      <trkpt lat="44.10021" lon="3.0428">
        <ele>494.4</ele>
        <time>2018-05-19T13:06:17Z</time>
      </trkpt>
      <trkpt lat="44.10014" lon="3.04276">
        <ele>493.7</ele>
        <time>2018-05-19T13:06:18Z</time>
      </trkpt>
      <trkpt lat="44.10008" lon="3.04273">
        <ele>492.8</ele>
        <time>2018-05-19T13:06:19Z</time>
      </trkpt>
      <trkpt lat="44.10004" lon="3.04269">
        <ele>491.9</ele>
        <time>2018-05-19T13:06:20Z</time>
      </trkpt>
      <trkpt lat="44.09999" lon="3.04266">
        <ele>491.8</ele>
        <time>2018-05-19T13:06:21Z</time>
      </trkpt>
      <trkpt lat="44.09994" lon="3.04264">
        <ele>490.9</ele>
        <time>2018-05-19T13:06:22Z</time>
      </trkpt>
      <trkpt lat="44.0999" lon="3.04261">
        <ele>490.8</ele>
        <time>2018-05-19T13:06:23Z</time>
      </trkpt>
      <trkpt lat="44.09985" lon="3.04259">
        <ele>489.8</ele>
        <time>2018-05-19T13:06:24Z</time>
      </trkpt>
      <trkpt lat="44.09982" lon="3.04258">
        <ele>489.7</ele>
        <time>2018-05-19T13:06:25Z</time>
      </trkpt>
      <trkpt lat="44.09977" lon="3.04256">
        <ele>488.9</ele>
        <time>2018-05-19T13:06:26Z</time>
      </trkpt>
      <trkpt lat="44.09972" lon="3.04256">
        <ele>488.4</ele>
        <time>2018-05-19T13:06:27Z</time>
      </trkpt>
      <trkpt lat="44.09967" lon="3.04255">
        <ele>487.9</ele>
        <time>2018-05-19T13:06:28Z</time>
      </trkpt>
      <trkpt lat="44.09962" lon="3.04253">
        <ele>487.6</ele>
        <time>2018-05-19T13:06:29Z</time>
      </trkpt>
      <trkpt lat="44.09957" lon="3.04253">
        <ele>486.2</ele>
        <time>2018-05-19T13:06:30Z</time>
      </trkpt>
      <trkpt lat="44.09952" lon="3.04252">
        <ele>485.9</ele>
        <time>2018-05-19T13:06:31Z</time>
      </trkpt>
      <trkpt lat="44.09946" lon="3.04251">
        <ele>485</ele>
        <time>2018-05-19T13:06:33Z</time>
      </trkpt>
      <trkpt lat="44.09939" lon="3.04251">
        <ele>483.5</ele>
        <time>2018-05-19T13:06:34Z</time>
      </trkpt>
      <trkpt lat="44.0993" lon="3.04253">
        <ele>482.6</ele>
        <time>2018-05-19T13:06:36Z</time>
      </trkpt>
      <trkpt lat="44.09925" lon="3.04256">
        <ele>482.4</ele>
        <time>2018-05-19T13:06:37Z</time>
      </trkpt>
      <trkpt lat="44.09921" lon="3.04257">
        <ele>482</ele>
        <time>2018-05-19T13:06:38Z</time>
      </trkpt>
      <trkpt lat="44.09915" lon="3.04256">
        <ele>481.1</ele>
        <time>2018-05-19T13:06:39Z</time>
      </trkpt>
      <trkpt lat="44.09908" lon="3.04257">
        <ele>479.8</ele>
        <time>2018-05-19T13:06:40Z</time>
      </trkpt>
      <trkpt lat="44.099" lon="3.04258">
        <ele>479.8</ele>
        <time>2018-05-19T13:06:41Z</time>
      </trkpt>
      <trkpt lat="44.09891" lon="3.0426">
        <ele>478.6</ele>
        <time>2018-05-19T13:06:42Z</time>
      </trkpt>
      <trkpt lat="44.09884" lon="3.04261">
        <ele>477.5</ele>
        <time>2018-05-19T13:06:43Z</time>
      </trkpt>
      <trkpt lat="44.09877" lon="3.04263">
        <ele>477.5</ele>
        <time>2018-05-19T13:06:44Z</time>
      </trkpt>
      <trkpt lat="44.0987" lon="3.04266">
        <ele>477.5</ele>
        <time>2018-05-19T13:06:45Z</time>
      </trkpt>
      <trkpt lat="44.09863" lon="3.04269">
        <ele>476.7</ele>
        <time>2018-05-19T13:06:46Z</time>
      </trkpt>
      <trkpt lat="44.09856" lon="3.04273">
        <ele>476.5</ele>
        <time>2018-05-19T13:06:47Z</time>
      </trkpt>
      <trkpt lat="44.09849" lon="3.04276">
        <ele>476.1</ele>
        <time>2018-05-19T13:06:48Z</time>
      </trkpt>
      <trkpt lat="44.09841" lon="3.04278">
        <ele>475.4</ele>
        <time>2018-05-19T13:06:49Z</time>
      </trkpt>
      <trkpt lat="44.09833" lon="3.04277">
        <ele>474.4</ele>
        <time>2018-05-19T13:06:50Z</time>
      </trkpt>
      <trkpt lat="44.09825" lon="3.04276">
        <ele>473.7</ele>
        <time>2018-05-19T13:06:51Z</time>
      </trkpt>
      <trkpt lat="44.09818" lon="3.04275">
        <ele>472.9</ele>
        <time>2018-05-19T13:06:52Z</time>
      </trkpt>
      <trkpt lat="44.09812" lon="3.04276">
        <ele>472.3</ele>
        <time>2018-05-19T13:06:53Z</time>
      </trkpt>
      <trkpt lat="44.09806" lon="3.04276">
        <ele>471.6</ele>
        <time>2018-05-19T13:06:54Z</time>
      </trkpt>
      <trkpt lat="44.09802" lon="3.04274">
        <ele>471.2</ele>
        <time>2018-05-19T13:06:55Z</time>
      </trkpt>
      <trkpt lat="44.09799" lon="3.04273">
        <ele>470.3</ele>
        <time>2018-05-19T13:06:56Z</time>
      </trkpt>
      <trkpt lat="44.09796" lon="3.04272">
        <ele>469.9</ele>
        <time>2018-05-19T13:06:57Z</time>
      </trkpt>
      <trkpt lat="44.09791" lon="3.04271">
        <ele>469.3</ele>
        <time>2018-05-19T13:06:59Z</time>
      </trkpt>
      <trkpt lat="44.09787" lon="3.04271">
        <ele>468.9</ele>
        <time>2018-05-19T13:07:01Z</time>
      </trkpt>
      <trkpt lat="44.09785" lon="3.04274">
        <ele>468.4</ele>
        <time>2018-05-19T13:07:21Z</time>
      </trkpt>
      <trkpt lat="44.09784" lon="3.04277">
        <ele>469</ele>
        <time>2018-05-19T13:07:29Z</time>
      </trkpt>
      <trkpt lat="44.0978" lon="3.04275">
        <ele>468.6</ele>
        <time>2018-05-19T13:07:48Z</time>
      </trkpt>
      <trkpt lat="44.09776" lon="3.04277">
        <ele>468.1</ele>
        <time>2018-05-19T13:07:50Z</time>
      </trkpt>
      <trkpt lat="44.0977" lon="3.04277">
        <ele>467.2</ele>
        <time>2018-05-19T13:07:52Z</time>
      </trkpt>
      <trkpt lat="44.09766" lon="3.04276">
        <ele>466.4</ele>
        <time>2018-05-19T13:07:53Z</time>
      </trkpt>
      <trkpt lat="44.09758" lon="3.04273">
        <ele>465</ele>
        <time>2018-05-19T13:07:54Z</time>
      </trkpt>
      <trkpt lat="44.09754" lon="3.04271">
        <ele>464.6</ele>
        <time>2018-05-19T13:07:55Z</time>
      </trkpt>
      <trkpt lat="44.09752" lon="3.04273">
        <ele>464.2</ele>
        <time>2018-05-19T13:07:56Z</time>
      </trkpt>
      <trkpt lat="44.09749" lon="3.04278">
        <ele>464.4</ele>
        <time>2018-05-19T13:07:57Z</time>
      </trkpt>
      <trkpt lat="44.09744" lon="3.04283">
        <ele>465</ele>
        <time>2018-05-19T13:07:58Z</time>
      </trkpt>
      <trkpt lat="44.09738" lon="3.04288">
        <ele>465</ele>
        <time>2018-05-19T13:08:00Z</time>
      </trkpt>
      <trkpt lat="44.09734" lon="3.04291">
        <ele>464.7</ele>
        <time>2018-05-19T13:08:01Z</time>
      </trkpt>
      <trkpt lat="44.09729" lon="3.04293">
        <ele>464.9</ele>
        <time>2018-05-19T13:08:02Z</time>
      </trkpt>
      <trkpt lat="44.09723" lon="3.04296">
        <ele>465.1</ele>
        <time>2018-05-19T13:08:03Z</time>
      </trkpt>
      <trkpt lat="44.09719" lon="3.04298">
        <ele>464.7</ele>
        <time>2018-05-19T13:08:04Z</time>
      </trkpt>
      <trkpt lat="44.09714" lon="3.04298">
        <ele>464.3</ele>
        <time>2018-05-19T13:08:05Z</time>
      </trkpt>
      <trkpt lat="44.0971" lon="3.04298">
        <ele>463.6</ele>
        <time>2018-05-19T13:08:06Z</time>
      </trkpt>
      <trkpt lat="44.09707" lon="3.04298">
        <ele>463.3</ele>
        <time>2018-05-19T13:08:07Z</time>
      </trkpt>
      <trkpt lat="44.09703" lon="3.04298">
        <ele>463</ele>
        <time>2018-05-19T13:08:08Z</time>
      </trkpt>
      <trkpt lat="44.09698" lon="3.04296">
        <ele>462.2</ele>
        <time>2018-05-19T13:08:09Z</time>
      </trkpt>
      <trkpt lat="44.09693" lon="3.04295">
        <ele>460.7</ele>
        <time>2018-05-19T13:08:10Z</time>
      </trkpt>
      <trkpt lat="44.09683" lon="3.04293">
        <ele>458.9</ele>
        <time>2018-05-19T13:08:11Z</time>
      </trkpt>
      <trkpt lat="44.09679" lon="3.04293">
        <ele>458.4</ele>
        <time>2018-05-19T13:08:12Z</time>
      </trkpt>
      <trkpt lat="44.09674" lon="3.04293">
        <ele>457.9</ele>
        <time>2018-05-19T13:08:13Z</time>
      </trkpt>
      <trkpt lat="44.0967" lon="3.04292">
        <ele>456.9</ele>
        <time>2018-05-19T13:08:15Z</time>
      </trkpt>
      <trkpt lat="44.09667" lon="3.04295">
        <ele>456.3</ele>
        <time>2018-05-19T13:08:17Z</time>
      </trkpt>
      <trkpt lat="44.09663" lon="3.04296">
        <ele>455.8</ele>
        <time>2018-05-19T13:08:19Z</time>
      </trkpt>
      <trkpt lat="44.0966" lon="3.04296">
        <ele>456.3</ele>
        <time>2018-05-19T13:08:20Z</time>
      </trkpt>
      <trkpt lat="44.09657" lon="3.04296">
        <ele>455.8</ele>
        <time>2018-05-19T13:08:21Z</time>
      </trkpt>
      <trkpt lat="44.09654" lon="3.04297">
        <ele>455.3</ele>
        <time>2018-05-19T13:08:22Z</time>
      </trkpt>
      <trkpt lat="44.09651" lon="3.04297">
        <ele>454.9</ele>
        <time>2018-05-19T13:08:23Z</time>
      </trkpt>
      <trkpt lat="44.09648" lon="3.04298">
        <ele>454.4</ele>
        <time>2018-05-19T13:08:24Z</time>
      </trkpt>
      <trkpt lat="44.09645" lon="3.04299">
        <ele>453.9</ele>
        <time>2018-05-19T13:08:25Z</time>
      </trkpt>
      <trkpt lat="44.09641" lon="3.04301">
        <ele>454.5</ele>
        <time>2018-05-19T13:08:27Z</time>
      </trkpt>
      <trkpt lat="44.09638" lon="3.04304">
        <ele>454</ele>
        <time>2018-05-19T13:08:29Z</time>
      </trkpt>
      <trkpt lat="44.09634" lon="3.04306">
        <ele>454.5</ele>
        <time>2018-05-19T13:08:31Z</time>
      </trkpt>
      <trkpt lat="44.0963" lon="3.04308">
        <ele>453.5</ele>
        <time>2018-05-19T13:08:33Z</time>
      </trkpt>
      <trkpt lat="44.09627" lon="3.04309">
        <ele>454.1</ele>
        <time>2018-05-19T13:08:35Z</time>
      </trkpt>
      <trkpt lat="44.09624" lon="3.0431">
        <ele>453.7</ele>
        <time>2018-05-19T13:08:50Z</time>
      </trkpt>
      <trkpt lat="44.09622" lon="3.0431">
        <ele>453.7</ele>
        <time>2018-05-19T13:09:04Z</time>
      </trkpt>
      <trkpt lat="44.09619" lon="3.04309">
        <ele>453.3</ele>
        <time>2018-05-19T13:09:05Z</time>
      </trkpt>
      <trkpt lat="44.09614" lon="3.04308">
        <ele>451.3</ele>
        <time>2018-05-19T13:09:06Z</time>
      </trkpt>
      <trkpt lat="44.0961" lon="3.04307">
        <ele>450.9</ele>
        <time>2018-05-19T13:09:07Z</time>
      </trkpt>
      <trkpt lat="44.09604" lon="3.04307">
        <ele>450</ele>
        <time>2018-05-19T13:09:08Z</time>
      </trkpt>
      <trkpt lat="44.09599" lon="3.04308">
        <ele>449.3</ele>
        <time>2018-05-19T13:09:09Z</time>
      </trkpt>
      <trkpt lat="44.09593" lon="3.04308">
        <ele>448.8</ele>
        <time>2018-05-19T13:09:10Z</time>
      </trkpt>
      <trkpt lat="44.09588" lon="3.04309">
        <ele>449.2</ele>
        <time>2018-05-19T13:09:11Z</time>
      </trkpt>
      <trkpt lat="44.09582" lon="3.0431">
        <ele>448.9</ele>
        <time>2018-05-19T13:09:12Z</time>
      </trkpt>
      <trkpt lat="44.09576" lon="3.0431">
        <ele>448.2</ele>
        <time>2018-05-19T13:09:13Z</time>
      </trkpt>
      <trkpt lat="44.09571" lon="3.04312">
        <ele>447.8</ele>
        <time>2018-05-19T13:09:14Z</time>
      </trkpt>
      <trkpt lat="44.09566" lon="3.04311">
        <ele>447.3</ele>
        <time>2018-05-19T13:09:15Z</time>
      </trkpt>
      <trkpt lat="44.0956" lon="3.0431">
        <ele>446.7</ele>
        <time>2018-05-19T13:09:16Z</time>
      </trkpt>
      <trkpt lat="44.09554" lon="3.04309">
        <ele>446</ele>
        <time>2018-05-19T13:09:17Z</time>
      </trkpt>
      <trkpt lat="44.09545" lon="3.04309">
        <ele>445.1</ele>
        <time>2018-05-19T13:09:18Z</time>
      </trkpt>
      <trkpt lat="44.0954" lon="3.0431">
        <ele>444.4</ele>
        <time>2018-05-19T13:09:19Z</time>
      </trkpt>
      <trkpt lat="44.09534" lon="3.04313">
        <ele>443.5</ele>
        <time>2018-05-19T13:09:20Z</time>
      </trkpt>
      <trkpt lat="44.09528" lon="3.04316">
        <ele>443.6</ele>
        <time>2018-05-19T13:09:21Z</time>
      </trkpt>
      <trkpt lat="44.09524" lon="3.04317">
        <ele>444.1</ele>
        <time>2018-05-19T13:09:22Z</time>
      </trkpt>
      <trkpt lat="44.09518" lon="3.04319">
        <ele>443.1</ele>
        <time>2018-05-19T13:09:23Z</time>
      </trkpt>
      <trkpt lat="44.09515" lon="3.04319">
        <ele>442.6</ele>
        <time>2018-05-19T13:09:24Z</time>
      </trkpt>
      <trkpt lat="44.09512" lon="3.0432">
        <ele>442.2</ele>
        <time>2018-05-19T13:09:25Z</time>
      </trkpt>
      <trkpt lat="44.09508" lon="3.04323">
        <ele>443.5</ele>
        <time>2018-05-19T13:09:26Z</time>
      </trkpt>
      <trkpt lat="44.09505" lon="3.04325">
        <ele>443</ele>
        <time>2018-05-19T13:09:27Z</time>
      </trkpt>
      <trkpt lat="44.09502" lon="3.04328">
        <ele>443.7</ele>
        <time>2018-05-19T13:09:28Z</time>
      </trkpt>
      <trkpt lat="44.09498" lon="3.0433">
        <ele>443.1</ele>
        <time>2018-05-19T13:09:29Z</time>
      </trkpt>
      <trkpt lat="44.09495" lon="3.04332">
        <ele>443.2</ele>
        <time>2018-05-19T13:09:30Z</time>
      </trkpt>
      <trkpt lat="44.09493" lon="3.04333">
        <ele>443.2</ele>
        <time>2018-05-19T13:09:31Z</time>
      </trkpt>
      <trkpt lat="44.09489" lon="3.04334">
        <ele>442.7</ele>
        <time>2018-05-19T13:09:32Z</time>
      </trkpt>
      <trkpt lat="44.09485" lon="3.04335">
        <ele>442.9</ele>
        <time>2018-05-19T13:09:33Z</time>
      </trkpt>
      <trkpt lat="44.0948" lon="3.04337">
        <ele>442.4</ele>
        <time>2018-05-19T13:09:34Z</time>
      </trkpt>
      <trkpt lat="44.09476" lon="3.04338">
        <ele>441.2</ele>
        <time>2018-05-19T13:09:35Z</time>
      </trkpt>
      <trkpt lat="44.09472" lon="3.0434">
        <ele>441.9</ele>
        <time>2018-05-19T13:09:36Z</time>
      </trkpt>
      <trkpt lat="44.09469" lon="3.04341">
        <ele>441.2</ele>
        <time>2018-05-19T13:09:37Z</time>
      </trkpt>
      <trkpt lat="44.09466" lon="3.04341">
        <ele>440.7</ele>
        <time>2018-05-19T13:09:38Z</time>
      </trkpt>
      <trkpt lat="44.09462" lon="3.04342">
        <ele>440.1</ele>
        <time>2018-05-19T13:09:40Z</time>
      </trkpt>
      <trkpt lat="44.09459" lon="3.04342">
        <ele>439.6</ele>
        <time>2018-05-19T13:09:43Z</time>
      </trkpt>
      <trkpt lat="44.09455" lon="3.04343">
        <ele>439.9</ele>
        <time>2018-05-19T13:09:45Z</time>
      </trkpt>
      <trkpt lat="44.09452" lon="3.04344">
        <ele>439.4</ele>
        <time>2018-05-19T13:09:46Z</time>
      </trkpt>
      <trkpt lat="44.09449" lon="3.04345">
        <ele>439.4</ele>
        <time>2018-05-19T13:09:47Z</time>
      </trkpt>
      <trkpt lat="44.09446" lon="3.04345">
        <ele>438.8</ele>
        <time>2018-05-19T13:09:48Z</time>
      </trkpt>
      <trkpt lat="44.09442" lon="3.04346">
        <ele>437.8</ele>
        <time>2018-05-19T13:09:49Z</time>
      </trkpt>
      <trkpt lat="44.09436" lon="3.04346">
        <ele>436.8</ele>
        <time>2018-05-19T13:09:50Z</time>
      </trkpt>
      <trkpt lat="44.09429" lon="3.04346">
        <ele>435.9</ele>
        <time>2018-05-19T13:09:51Z</time>
      </trkpt>
      <trkpt lat="44.09421" lon="3.04344">
        <ele>434.6</ele>
        <time>2018-05-19T13:09:52Z</time>
      </trkpt>
      <trkpt lat="44.09413" lon="3.04343">
        <ele>432.1</ele>
        <time>2018-05-19T13:09:53Z</time>
      </trkpt>
      <trkpt lat="44.09406" lon="3.04341">
        <ele>430.9</ele>
        <time>2018-05-19T13:09:54Z</time>
      </trkpt>
      <trkpt lat="44.09398" lon="3.04341">
        <ele>430.3</ele>
        <time>2018-05-19T13:09:55Z</time>
      </trkpt>
      <trkpt lat="44.09389" lon="3.0434">
        <ele>429.2</ele>
        <time>2018-05-19T13:09:56Z</time>
      </trkpt>
      <trkpt lat="44.09384" lon="3.04342">
        <ele>428.6</ele>
        <time>2018-05-19T13:09:57Z</time>
      </trkpt>
      <trkpt lat="44.09379" lon="3.04343">
        <ele>429.6</ele>
        <time>2018-05-19T13:09:58Z</time>
      </trkpt>
      <trkpt lat="44.09377" lon="3.04346">
        <ele>429.3</ele>
        <time>2018-05-19T13:09:59Z</time>
      </trkpt>
      <trkpt lat="44.09373" lon="3.04352">
        <ele>431.5</ele>
        <time>2018-05-19T13:10:00Z</time>
      </trkpt>
      <trkpt lat="44.09371" lon="3.04356">
        <ele>432.3</ele>
        <time>2018-05-19T13:10:01Z</time>
      </trkpt>
      <trkpt lat="44.09368" lon="3.04359">
        <ele>431.9</ele>
        <time>2018-05-19T13:10:02Z</time>
      </trkpt>
      <trkpt lat="44.09366" lon="3.04362">
        <ele>432.5</ele>
        <time>2018-05-19T13:10:04Z</time>
      </trkpt>
      <trkpt lat="44.09363" lon="3.04366">
        <ele>433.5</ele>
        <time>2018-05-19T13:10:06Z</time>
      </trkpt>
      <trkpt lat="44.09364" lon="3.04371">
        <ele>434.4</ele>
        <time>2018-05-19T13:10:07Z</time>
      </trkpt>
      <trkpt lat="44.09362" lon="3.04374">
        <ele>434.8</ele>
        <time>2018-05-19T13:10:08Z</time>
      </trkpt>
      <trkpt lat="44.0936" lon="3.04379">
        <ele>435.1</ele>
        <time>2018-05-19T13:10:09Z</time>
      </trkpt>
      <trkpt lat="44.09357" lon="3.04383">
        <ele>435.9</ele>
        <time>2018-05-19T13:10:10Z</time>
      </trkpt>
      <trkpt lat="44.09355" lon="3.04389">
        <ele>436.2</ele>
        <time>2018-05-19T13:10:11Z</time>
      </trkpt>
      <trkpt lat="44.09352" lon="3.04395">
        <ele>437.2</ele>
        <time>2018-05-19T13:10:12Z</time>
      </trkpt>
      <trkpt lat="44.09349" lon="3.04401">
        <ele>437.4</ele>
        <time>2018-05-19T13:10:13Z</time>
      </trkpt>
      <trkpt lat="44.09346" lon="3.04407">
        <ele>437.6</ele>
        <time>2018-05-19T13:10:14Z</time>
      </trkpt>
      <trkpt lat="44.0934" lon="3.04414">
        <ele>437.6</ele>
        <time>2018-05-19T13:10:15Z</time>
      </trkpt>
      <trkpt lat="44.09337" lon="3.04421">
        <ele>437.8</ele>
        <time>2018-05-19T13:10:16Z</time>
      </trkpt>
      <trkpt lat="44.09335" lon="3.0443">
        <ele>437.8</ele>
        <time>2018-05-19T13:10:17Z</time>
      </trkpt>
      <trkpt lat="44.0933" lon="3.04438">
        <ele>437.6</ele>
        <time>2018-05-19T13:10:18Z</time>
      </trkpt>
      <trkpt lat="44.09327" lon="3.04447">
        <ele>437.2</ele>
        <time>2018-05-19T13:10:19Z</time>
      </trkpt>
      <trkpt lat="44.09323" lon="3.04455">
        <ele>436.6</ele>
        <time>2018-05-19T13:10:20Z</time>
      </trkpt>
      <trkpt lat="44.09321" lon="3.04464">
        <ele>436</ele>
        <time>2018-05-19T13:10:21Z</time>
      </trkpt>
      <trkpt lat="44.09318" lon="3.04473">
        <ele>435.4</ele>
        <time>2018-05-19T13:10:22Z</time>
      </trkpt>
      <trkpt lat="44.09317" lon="3.04483">
        <ele>435.3</ele>
        <time>2018-05-19T13:10:23Z</time>
      </trkpt>
      <trkpt lat="44.09315" lon="3.04492">
        <ele>434.5</ele>
        <time>2018-05-19T13:10:24Z</time>
      </trkpt>
      <trkpt lat="44.09315" lon="3.04502">
        <ele>434</ele>
        <time>2018-05-19T13:10:25Z</time>
      </trkpt>
      <trkpt lat="44.09314" lon="3.04511">
        <ele>433.7</ele>
        <time>2018-05-19T13:10:26Z</time>
      </trkpt>
      <trkpt lat="44.09314" lon="3.04521">
        <ele>433.3</ele>
        <time>2018-05-19T13:10:27Z</time>
      </trkpt>
      <trkpt lat="44.09316" lon="3.04531">
        <ele>432.9</ele>
        <time>2018-05-19T13:10:28Z</time>
      </trkpt>
      <trkpt lat="44.09316" lon="3.0454">
        <ele>432.4</ele>
        <time>2018-05-19T13:10:29Z</time>
      </trkpt>
      <trkpt lat="44.09318" lon="3.04549">
        <ele>432.6</ele>
        <time>2018-05-19T13:10:30Z</time>
      </trkpt>
      <trkpt lat="44.09321" lon="3.04557">
        <ele>433.2</ele>
        <time>2018-05-19T13:10:31Z</time>
      </trkpt>
      <trkpt lat="44.09324" lon="3.04564">
        <ele>433.5</ele>
        <time>2018-05-19T13:10:32Z</time>
      </trkpt>
      <trkpt lat="44.09327" lon="3.0457">
        <ele>434</ele>
        <time>2018-05-19T13:10:33Z</time>
      </trkpt>
      <trkpt lat="44.0933" lon="3.04577">
        <ele>434.2</ele>
        <time>2018-05-19T13:10:34Z</time>
      </trkpt>
      <trkpt lat="44.09333" lon="3.04586">
        <ele>434.4</ele>
        <time>2018-05-19T13:10:35Z</time>
      </trkpt>
      <trkpt lat="44.09337" lon="3.04592">
        <ele>434.7</ele>
        <time>2018-05-19T13:10:36Z</time>
      </trkpt>
      <trkpt lat="44.0934" lon="3.04598">
        <ele>435.3</ele>
        <time>2018-05-19T13:10:37Z</time>
      </trkpt>
      <trkpt lat="44.09345" lon="3.04603">
        <ele>436.6</ele>
        <time>2018-05-19T13:10:38Z</time>
      </trkpt>
      <trkpt lat="44.09349" lon="3.04608">
        <ele>437</ele>
        <time>2018-05-19T13:10:39Z</time>
      </trkpt>
      <trkpt lat="44.09353" lon="3.04612">
        <ele>438</ele>
        <time>2018-05-19T13:10:40Z</time>
      </trkpt>
      <trkpt lat="44.09356" lon="3.04615">
        <ele>438</ele>
        <time>2018-05-19T13:10:41Z</time>
      </trkpt>
      <trkpt lat="44.09359" lon="3.04618">
        <ele>438</ele>
        <time>2018-05-19T13:10:42Z</time>
      </trkpt>
      <trkpt lat="44.09363" lon="3.04622">
        <ele>438</ele>
        <time>2018-05-19T13:10:44Z</time>
      </trkpt>
      <trkpt lat="44.09364" lon="3.04629">
        <ele>438</ele>
        <time>2018-05-19T13:10:46Z</time>
      </trkpt>
      <trkpt lat="44.09364" lon="3.04635">
        <ele>438</ele>
        <time>2018-05-19T13:10:47Z</time>
      </trkpt>
      <trkpt lat="44.09364" lon="3.04639">
        <ele>438</ele>
        <time>2018-05-19T13:10:48Z</time>
      </trkpt>
      <trkpt lat="44.09364" lon="3.04644">
        <ele>438</ele>
        <time>2018-05-19T13:10:50Z</time>
      </trkpt>
      <trkpt lat="44.09362" lon="3.0465">
        <ele>438</ele>
        <time>2018-05-19T13:10:52Z</time>
      </trkpt>
      <trkpt lat="44.09361" lon="3.04654">
        <ele>438.1</ele>
        <time>2018-05-19T13:10:54Z</time>
      </trkpt>
      <trkpt lat="44.09358" lon="3.04658">
        <ele>438.2</ele>
        <time>2018-05-19T13:10:56Z</time>
      </trkpt>
      <trkpt lat="44.09355" lon="3.04661">
        <ele>438.3</ele>
        <time>2018-05-19T13:10:58Z</time>
      </trkpt>
      <trkpt lat="44.09353" lon="3.04664">
        <ele>438.5</ele>
        <time>2018-05-19T13:11:00Z</time>
      </trkpt>
      <trkpt lat="44.09351" lon="3.04669">
        <ele>438.7</ele>
        <time>2018-05-19T13:11:02Z</time>
      </trkpt>
      <trkpt lat="44.09351" lon="3.04674">
        <ele>439</ele>
        <time>2018-05-19T13:11:04Z</time>
      </trkpt>
      <trkpt lat="44.09351" lon="3.04679">
        <ele>439.3</ele>
        <time>2018-05-19T13:11:06Z</time>
      </trkpt>
      <trkpt lat="44.0935" lon="3.04684">
        <ele>439.6</ele>
        <time>2018-05-19T13:11:08Z</time>
      </trkpt>
      <trkpt lat="44.09349" lon="3.04688">
        <ele>439.8</ele>
        <time>2018-05-19T13:11:10Z</time>
      </trkpt>
      <trkpt lat="44.09348" lon="3.04693">
        <ele>440</ele>
        <time>2018-05-19T13:11:12Z</time>
      </trkpt>
      <trkpt lat="44.09347" lon="3.04697">
        <ele>440.2</ele>
        <time>2018-05-19T13:11:14Z</time>
      </trkpt>
      <trkpt lat="44.09346" lon="3.04701">
        <ele>440.4</ele>
        <time>2018-05-19T13:11:16Z</time>
      </trkpt>
      <trkpt lat="44.09345" lon="3.04705">
        <ele>440.5</ele>
        <time>2018-05-19T13:11:19Z</time>
      </trkpt>
      <trkpt lat="44.09344" lon="3.04709">
        <ele>440.7</ele>
        <time>2018-05-19T13:11:22Z</time>
      </trkpt>
      <trkpt lat="44.09342" lon="3.04713">
        <ele>440.8</ele>
        <time>2018-05-19T13:11:24Z</time>
      </trkpt>
      <trkpt lat="44.0934" lon="3.04718">
        <ele>440.9</ele>
        <time>2018-05-19T13:11:27Z</time>
      </trkpt>
      <trkpt lat="44.09339" lon="3.04722">
        <ele>441</ele>
        <time>2018-05-19T13:11:29Z</time>
      </trkpt>
      <trkpt lat="44.09337" lon="3.04725">
        <ele>441</ele>
        <time>2018-05-19T13:11:31Z</time>
      </trkpt>
      <trkpt lat="44.09336" lon="3.04731">
        <ele>441.1</ele>
        <time>2018-05-19T13:11:34Z</time>
      </trkpt>
      <trkpt lat="44.09335" lon="3.04735">
        <ele>441.2</ele>
        <time>2018-05-19T13:11:36Z</time>
      </trkpt>
      <trkpt lat="44.09334" lon="3.04739">
        <ele>441.2</ele>
        <time>2018-05-19T13:11:38Z</time>
      </trkpt>
      <trkpt lat="44.09333" lon="3.04743">
        <ele>441.2</ele>
        <time>2018-05-19T13:11:40Z</time>
      </trkpt>
      <trkpt lat="44.09333" lon="3.04748">
        <ele>441.2</ele>
        <time>2018-05-19T13:11:42Z</time>
      </trkpt>
      <trkpt lat="44.09333" lon="3.04754">
        <ele>441.2</ele>
        <time>2018-05-19T13:11:44Z</time>
      </trkpt>
      <trkpt lat="44.09332" lon="3.04759">
        <ele>441.2</ele>
        <time>2018-05-19T13:11:46Z</time>
      </trkpt>
      <trkpt lat="44.09332" lon="3.04766">
        <ele>441.2</ele>
        <time>2018-05-19T13:11:48Z</time>
      </trkpt>
      <trkpt lat="44.09333" lon="3.04773">
        <ele>441.1</ele>
        <time>2018-05-19T13:11:50Z</time>
      </trkpt>
      <trkpt lat="44.09334" lon="3.0478">
        <ele>441.1</ele>
        <time>2018-05-19T13:11:52Z</time>
      </trkpt>
      <trkpt lat="44.09335" lon="3.04787">
        <ele>441.1</ele>
        <time>2018-05-19T13:11:54Z</time>
      </trkpt>
      <trkpt lat="44.09336" lon="3.04793">
        <ele>441</ele>
        <time>2018-05-19T13:11:56Z</time>
      </trkpt>
      <trkpt lat="44.09336" lon="3.04797">
        <ele>441</ele>
        <time>2018-05-19T13:11:58Z</time>
      </trkpt>
      <trkpt lat="44.09337" lon="3.04802">
        <ele>440.6</ele>
        <time>2018-05-19T13:12:00Z</time>
      </trkpt>
      <trkpt lat="44.09338" lon="3.04811">
        <ele>440.3</ele>
        <time>2018-05-19T13:12:02Z</time>
      </trkpt>
      <trkpt lat="44.09338" lon="3.04816">
        <ele>440.1</ele>
        <time>2018-05-19T13:12:03Z</time>
      </trkpt>
      <trkpt lat="44.09338" lon="3.04822">
        <ele>439.9</ele>
        <time>2018-05-19T13:12:04Z</time>
      </trkpt>
      <trkpt lat="44.09337" lon="3.04829">
        <ele>439.7</ele>
        <time>2018-05-19T13:12:05Z</time>
      </trkpt>
      <trkpt lat="44.09338" lon="3.04835">
        <ele>439.5</ele>
        <time>2018-05-19T13:12:06Z</time>
      </trkpt>
      <trkpt lat="44.09338" lon="3.0484">
        <ele>439.3</ele>
        <time>2018-05-19T13:12:07Z</time>
      </trkpt>
      <trkpt lat="44.09338" lon="3.04845">
        <ele>439.2</ele>
        <time>2018-05-19T13:12:08Z</time>
      </trkpt>
      <trkpt lat="44.09338" lon="3.0485">
        <ele>438.8</ele>
        <time>2018-05-19T13:12:09Z</time>
      </trkpt>
      <trkpt lat="44.09339" lon="3.04855">
        <ele>438.6</ele>
        <time>2018-05-19T13:12:10Z</time>
      </trkpt>
      <trkpt lat="44.09341" lon="3.04864">
        <ele>438</ele>
        <time>2018-05-19T13:12:12Z</time>
      </trkpt>
      <trkpt lat="44.09341" lon="3.04868">
        <ele>437.7</ele>
        <time>2018-05-19T13:12:13Z</time>
      </trkpt>
      <trkpt lat="44.09341" lon="3.04872">
        <ele>437.4</ele>
        <time>2018-05-19T13:12:15Z</time>
      </trkpt>
      <trkpt lat="44.09343" lon="3.04869">
        <ele>437.1</ele>
        <time>2018-05-19T13:12:27Z</time>
      </trkpt>
      <trkpt lat="44.09341" lon="3.04872">
        <ele>436.9</ele>
        <time>2018-05-19T13:13:29Z</time>
      </trkpt>
      <trkpt lat="44.09343" lon="3.04875">
        <ele>436.6</ele>
        <time>2018-05-19T13:13:43Z</time>
      </trkpt>
      <trkpt lat="44.09344" lon="3.04881">
        <ele>436.2</ele>
        <time>2018-05-19T13:13:55Z</time>
      </trkpt>
      <trkpt lat="44.09344" lon="3.04888">
        <ele>435.8</ele>
        <time>2018-05-19T13:13:57Z</time>
      </trkpt>
      <trkpt lat="44.09343" lon="3.04895">
        <ele>435.3</ele>
        <time>2018-05-19T13:13:59Z</time>
      </trkpt>
      <trkpt lat="44.09342" lon="3.049">
        <ele>435.1</ele>
        <time>2018-05-19T13:14:00Z</time>
      </trkpt>
      <trkpt lat="44.09341" lon="3.04905">
        <ele>434.9</ele>
        <time>2018-05-19T13:14:01Z</time>
      </trkpt>
      <trkpt lat="44.09341" lon="3.04911">
        <ele>434.7</ele>
        <time>2018-05-19T13:14:02Z</time>
      </trkpt>
      <trkpt lat="44.09339" lon="3.04917">
        <ele>434.6</ele>
        <time>2018-05-19T13:14:03Z</time>
      </trkpt>
      <trkpt lat="44.09339" lon="3.04924">
        <ele>434.5</ele>
        <time>2018-05-19T13:14:04Z</time>
      </trkpt>
      <trkpt lat="44.09339" lon="3.04931">
        <ele>434.4</ele>
        <time>2018-05-19T13:14:05Z</time>
      </trkpt>
      <trkpt lat="44.09338" lon="3.04939">
        <ele>434.3</ele>
        <time>2018-05-19T13:14:06Z</time>
      </trkpt>
      <trkpt lat="44.09337" lon="3.04948">
        <ele>434.2</ele>
        <time>2018-05-19T13:14:07Z</time>
      </trkpt>
      <trkpt lat="44.09336" lon="3.04956">
        <ele>434.2</ele>
        <time>2018-05-19T13:14:08Z</time>
      </trkpt>
      <trkpt lat="44.09335" lon="3.04965">
        <ele>434.1</ele>
        <time>2018-05-19T13:14:09Z</time>
      </trkpt>
      <trkpt lat="44.09335" lon="3.04975">
        <ele>434.2</ele>
        <time>2018-05-19T13:14:10Z</time>
      </trkpt>
      <trkpt lat="44.09335" lon="3.04985">
        <ele>434.4</ele>
        <time>2018-05-19T13:14:11Z</time>
      </trkpt>
      <trkpt lat="44.09336" lon="3.04996">
        <ele>434.7</ele>
        <time>2018-05-19T13:14:12Z</time>
      </trkpt>
      <trkpt lat="44.09335" lon="3.05004">
        <ele>434.9</ele>
        <time>2018-05-19T13:14:13Z</time>
      </trkpt>
      <trkpt lat="44.09335" lon="3.0501">
        <ele>435</ele>
        <time>2018-05-19T13:14:14Z</time>
      </trkpt>
      <trkpt lat="44.09334" lon="3.05019">
        <ele>434.1</ele>
        <time>2018-05-19T13:14:15Z</time>
      </trkpt>
      <trkpt lat="44.09333" lon="3.05027">
        <ele>432.7</ele>
        <time>2018-05-19T13:14:16Z</time>
      </trkpt>
      <trkpt lat="44.09331" lon="3.05035">
        <ele>431.1</ele>
        <time>2018-05-19T13:14:17Z</time>
      </trkpt>
      <trkpt lat="44.0933" lon="3.05044">
        <ele>429.7</ele>
        <time>2018-05-19T13:14:18Z</time>
      </trkpt>
      <trkpt lat="44.09328" lon="3.05055">
        <ele>428.2</ele>
        <time>2018-05-19T13:14:19Z</time>
      </trkpt>
      <trkpt lat="44.09325" lon="3.05066">
        <ele>426</ele>
        <time>2018-05-19T13:14:20Z</time>
      </trkpt>
      <trkpt lat="44.09323" lon="3.05079">
        <ele>424.1</ele>
        <time>2018-05-19T13:14:21Z</time>
      </trkpt>
      <trkpt lat="44.0932" lon="3.05092">
        <ele>422</ele>
        <time>2018-05-19T13:14:22Z</time>
      </trkpt>
      <trkpt lat="44.09316" lon="3.05106">
        <ele>419.4</ele>
        <time>2018-05-19T13:14:23Z</time>
      </trkpt>
      <trkpt lat="44.09312" lon="3.05122">
        <ele>416.5</ele>
        <time>2018-05-19T13:14:24Z</time>
      </trkpt>
      <trkpt lat="44.09309" lon="3.05136">
        <ele>414.2</ele>
        <time>2018-05-19T13:14:25Z</time>
      </trkpt>
      <trkpt lat="44.09304" lon="3.05151">
        <ele>411.3</ele>
        <time>2018-05-19T13:14:26Z</time>
      </trkpt>
      <trkpt lat="44.093" lon="3.05167">
        <ele>408.2</ele>
        <time>2018-05-19T13:14:27Z</time>
      </trkpt>
      <trkpt lat="44.09295" lon="3.05181">
        <ele>406.1</ele>
        <time>2018-05-19T13:14:28Z</time>
      </trkpt>
      <trkpt lat="44.09291" lon="3.05191">
        <ele>404.7</ele>
        <time>2018-05-19T13:14:29Z</time>
      </trkpt>
      <trkpt lat="44.09286" lon="3.05203">
        <ele>404.6</ele>
        <time>2018-05-19T13:14:30Z</time>
      </trkpt>
      <trkpt lat="44.09281" lon="3.05213">
        <ele>405.9</ele>
        <time>2018-05-19T13:14:31Z</time>
      </trkpt>
      <trkpt lat="44.09276" lon="3.05224">
        <ele>407.3</ele>
        <time>2018-05-19T13:14:32Z</time>
      </trkpt>
      <trkpt lat="44.09272" lon="3.05235">
        <ele>408.6</ele>
        <time>2018-05-19T13:14:33Z</time>
      </trkpt>
      <trkpt lat="44.09267" lon="3.05245">
        <ele>410.2</ele>
        <time>2018-05-19T13:14:34Z</time>
      </trkpt>
      <trkpt lat="44.09261" lon="3.05255">
        <ele>408.1</ele>
        <time>2018-05-19T13:14:35Z</time>
      </trkpt>
      <trkpt lat="44.09256" lon="3.05267">
        <ele>400.6</ele>
        <time>2018-05-19T13:14:36Z</time>
      </trkpt>
      <trkpt lat="44.09252" lon="3.05277">
        <ele>394.1</ele>
        <time>2018-05-19T13:14:37Z</time>
      </trkpt>
      <trkpt lat="44.09249" lon="3.05287">
        <ele>388.2</ele>
        <time>2018-05-19T13:14:38Z</time>
      </trkpt>
      <trkpt lat="44.09247" lon="3.05297">
        <ele>389.8</ele>
        <time>2018-05-19T13:14:39Z</time>
      </trkpt>
      <trkpt lat="44.09247" lon="3.05306">
        <ele>391.5</ele>
        <time>2018-05-19T13:14:40Z</time>
      </trkpt>
      <trkpt lat="44.09244" lon="3.05316">
        <ele>393.3</ele>
        <time>2018-05-19T13:14:41Z</time>
      </trkpt>
      <trkpt lat="44.09245" lon="3.05326">
        <ele>395.1</ele>
        <time>2018-05-19T13:14:42Z</time>
      </trkpt>
      <trkpt lat="44.09242" lon="3.05335">
        <ele>396.7</ele>
        <time>2018-05-19T13:14:43Z</time>
      </trkpt>
      <trkpt lat="44.09237" lon="3.05339">
        <ele>397.8</ele>
        <time>2018-05-19T13:14:44Z</time>
      </trkpt>
      <trkpt lat="44.0923" lon="3.05341">
        <ele>397.5</ele>
        <time>2018-05-19T13:14:45Z</time>
      </trkpt>
      <trkpt lat="44.09223" lon="3.0534">
        <ele>397.1</ele>
        <time>2018-05-19T13:14:46Z</time>
      </trkpt>
      <trkpt lat="44.09217" lon="3.05341">
        <ele>396.7</ele>
        <time>2018-05-19T13:14:47Z</time>
      </trkpt>
      <trkpt lat="44.09211" lon="3.05342">
        <ele>396.3</ele>
        <time>2018-05-19T13:14:48Z</time>
      </trkpt>
      <trkpt lat="44.09206" lon="3.05344">
        <ele>396</ele>
        <time>2018-05-19T13:14:49Z</time>
      </trkpt>
      <trkpt lat="44.09202" lon="3.05348">
        <ele>395.5</ele>
        <time>2018-05-19T13:14:50Z</time>
      </trkpt>
      <trkpt lat="44.09198" lon="3.05353">
        <ele>395.1</ele>
        <time>2018-05-19T13:14:51Z</time>
      </trkpt>
      <trkpt lat="44.09196" lon="3.05359">
        <ele>394.8</ele>
        <time>2018-05-19T13:14:52Z</time>
      </trkpt>
      <trkpt lat="44.09193" lon="3.05367">
        <ele>394.4</ele>
        <time>2018-05-19T13:14:53Z</time>
      </trkpt>
      <trkpt lat="44.0919" lon="3.05377">
        <ele>394</ele>
        <time>2018-05-19T13:14:54Z</time>
      </trkpt>
      <trkpt lat="44.09186" lon="3.05384">
        <ele>393.8</ele>
        <time>2018-05-19T13:14:55Z</time>
      </trkpt>
      <trkpt lat="44.09184" lon="3.05393">
        <ele>393.5</ele>
        <time>2018-05-19T13:14:56Z</time>
      </trkpt>
      <trkpt lat="44.09179" lon="3.05402">
        <ele>393.2</ele>
        <time>2018-05-19T13:14:57Z</time>
      </trkpt>
      <trkpt lat="44.09173" lon="3.05406">
        <ele>392.9</ele>
        <time>2018-05-19T13:14:58Z</time>
      </trkpt>
      <trkpt lat="44.09166" lon="3.05408">
        <ele>392.7</ele>
        <time>2018-05-19T13:14:59Z</time>
      </trkpt>
      <trkpt lat="44.09159" lon="3.0541">
        <ele>392.4</ele>
        <time>2018-05-19T13:15:00Z</time>
      </trkpt>
      <trkpt lat="44.0915" lon="3.05412">
        <ele>392.1</ele>
        <time>2018-05-19T13:15:01Z</time>
      </trkpt>
      <trkpt lat="44.09144" lon="3.05415">
        <ele>391.8</ele>
        <time>2018-05-19T13:15:02Z</time>
      </trkpt>
      <trkpt lat="44.09138" lon="3.05422">
        <ele>391.4</ele>
        <time>2018-05-19T13:15:03Z</time>
      </trkpt>
      <trkpt lat="44.09132" lon="3.05429">
        <ele>391.1</ele>
        <time>2018-05-19T13:15:04Z</time>
      </trkpt>
      <trkpt lat="44.09128" lon="3.05437">
        <ele>390.7</ele>
        <time>2018-05-19T13:15:05Z</time>
      </trkpt>
      <trkpt lat="44.09126" lon="3.05446">
        <ele>390.3</ele>
        <time>2018-05-19T13:15:06Z</time>
      </trkpt>
      <trkpt lat="44.09123" lon="3.05453">
        <ele>390</ele>
        <time>2018-05-19T13:15:07Z</time>
      </trkpt>
      <trkpt lat="44.0912" lon="3.05461">
        <ele>389.4</ele>
        <time>2018-05-19T13:15:08Z</time>
      </trkpt>
      <trkpt lat="44.09119" lon="3.05468">
        <ele>388.9</ele>
        <time>2018-05-19T13:15:09Z</time>
      </trkpt>
      <trkpt lat="44.09117" lon="3.05471">
        <ele>388.3</ele>
        <time>2018-05-19T13:15:10Z</time>
      </trkpt>
      <trkpt lat="44.09114" lon="3.05472">
        <ele>387.6</ele>
        <time>2018-05-19T13:15:11Z</time>
      </trkpt>
      <trkpt lat="44.09108" lon="3.05471">
        <ele>386.1</ele>
        <time>2018-05-19T13:15:13Z</time>
      </trkpt>
      <trkpt lat="44.09102" lon="3.0547">
        <ele>384.9</ele>
        <time>2018-05-19T13:15:14Z</time>
      </trkpt>
      <trkpt lat="44.09097" lon="3.0547">
        <ele>383.5</ele>
        <time>2018-05-19T13:15:15Z</time>
      </trkpt>
      <trkpt lat="44.09093" lon="3.0547">
        <ele>382.6</ele>
        <time>2018-05-19T13:15:16Z</time>
      </trkpt>
      <trkpt lat="44.09088" lon="3.05471">
        <ele>381.1</ele>
        <time>2018-05-19T13:15:17Z</time>
      </trkpt>
      <trkpt lat="44.09085" lon="3.05469">
        <ele>380.1</ele>
        <time>2018-05-19T13:15:25Z</time>
      </trkpt>
      <trkpt lat="44.09081" lon="3.05469">
        <ele>379</ele>
        <time>2018-05-19T13:15:28Z</time>
      </trkpt>
      <trkpt lat="44.0908" lon="3.05473">
        <ele>379</ele>
        <time>2018-05-19T13:15:41Z</time>
      </trkpt>
      <trkpt lat="44.09078" lon="3.05475">
        <ele>379</ele>
        <time>2018-05-19T13:16:09Z</time>
      </trkpt>
      <trkpt lat="44.09076" lon="3.05481">
        <ele>379</ele>
        <time>2018-05-19T13:16:11Z</time>
      </trkpt>
      <trkpt lat="44.09076" lon="3.05487">
        <ele>379</ele>
        <time>2018-05-19T13:16:13Z</time>
      </trkpt>
      <trkpt lat="44.09076" lon="3.05491">
        <ele>379</ele>
        <time>2018-05-19T13:16:14Z</time>
      </trkpt>
      <trkpt lat="44.09076" lon="3.05496">
        <ele>379</ele>
        <time>2018-05-19T13:16:15Z</time>
      </trkpt>
      <trkpt lat="44.09075" lon="3.055">
        <ele>379</ele>
        <time>2018-05-19T13:16:16Z</time>
      </trkpt>
      <trkpt lat="44.09075" lon="3.05505">
        <ele>379</ele>
        <time>2018-05-19T13:16:17Z</time>
      </trkpt>
      <trkpt lat="44.09074" lon="3.0551">
        <ele>379</ele>
        <time>2018-05-19T13:16:18Z</time>
      </trkpt>
      <trkpt lat="44.09073" lon="3.05515">
        <ele>379</ele>
        <time>2018-05-19T13:16:19Z</time>
      </trkpt>
      <trkpt lat="44.09071" lon="3.0552">
        <ele>378.5</ele>
        <time>2018-05-19T13:16:20Z</time>
      </trkpt>
      <trkpt lat="44.09067" lon="3.05523">
        <ele>378.1</ele>
        <time>2018-05-19T13:16:21Z</time>
      </trkpt>
      <trkpt lat="44.09063" lon="3.05526">
        <ele>377.7</ele>
        <time>2018-05-19T13:16:22Z</time>
      </trkpt>
      <trkpt lat="44.0906" lon="3.05527">
        <ele>377.3</ele>
        <time>2018-05-19T13:16:23Z</time>
      </trkpt>
      <trkpt lat="44.09056" lon="3.05529">
        <ele>376.9</ele>
        <time>2018-05-19T13:16:24Z</time>
      </trkpt>
      <trkpt lat="44.09048" lon="3.05531">
        <ele>376</ele>
        <time>2018-05-19T13:16:25Z</time>
      </trkpt>
      <trkpt lat="44.09045" lon="3.05534">
        <ele>375.4</ele>
        <time>2018-05-19T13:16:26Z</time>
      </trkpt>
      <trkpt lat="44.09041" lon="3.05537">
        <ele>375.1</ele>
        <time>2018-05-19T13:16:27Z</time>
      </trkpt>
      <trkpt lat="44.09038" lon="3.05541">
        <ele>374.8</ele>
        <time>2018-05-19T13:16:28Z</time>
      </trkpt>
      <trkpt lat="44.09033" lon="3.05546">
        <ele>374.4</ele>
        <time>2018-05-19T13:16:29Z</time>
      </trkpt>
      <trkpt lat="44.09029" lon="3.0555">
        <ele>374.1</ele>
        <time>2018-05-19T13:16:30Z</time>
      </trkpt>
      <trkpt lat="44.09026" lon="3.05554">
        <ele>373.8</ele>
        <time>2018-05-19T13:16:31Z</time>
      </trkpt>
      <trkpt lat="44.09022" lon="3.05559">
        <ele>373.5</ele>
        <time>2018-05-19T13:16:32Z</time>
      </trkpt>
      <trkpt lat="44.09019" lon="3.05565">
        <ele>373.2</ele>
        <time>2018-05-19T13:16:33Z</time>
      </trkpt>
      <trkpt lat="44.09016" lon="3.05571">
        <ele>372.9</ele>
        <time>2018-05-19T13:16:34Z</time>
      </trkpt>
      <trkpt lat="44.09013" lon="3.05578">
        <ele>372.5</ele>
        <time>2018-05-19T13:16:35Z</time>
      </trkpt>
      <trkpt lat="44.09009" lon="3.05585">
        <ele>372.1</ele>
        <time>2018-05-19T13:16:36Z</time>
      </trkpt>
      <trkpt lat="44.09007" lon="3.05594">
        <ele>371.8</ele>
        <time>2018-05-19T13:16:37Z</time>
      </trkpt>
      <trkpt lat="44.09004" lon="3.05601">
        <ele>371.5</ele>
        <time>2018-05-19T13:16:38Z</time>
      </trkpt>
      <trkpt lat="44.09" lon="3.05609">
        <ele>371.2</ele>
        <time>2018-05-19T13:16:39Z</time>
      </trkpt>
      <trkpt lat="44.08997" lon="3.05618">
        <ele>370.8</ele>
        <time>2018-05-19T13:16:40Z</time>
      </trkpt>
      <trkpt lat="44.08996" lon="3.05626">
        <ele>370.6</ele>
        <time>2018-05-19T13:16:41Z</time>
      </trkpt>
      <trkpt lat="44.08995" lon="3.05634">
        <ele>370.3</ele>
        <time>2018-05-19T13:16:42Z</time>
      </trkpt>
      <trkpt lat="44.08995" lon="3.05643">
        <ele>369.9</ele>
        <time>2018-05-19T13:16:43Z</time>
      </trkpt>
      <trkpt lat="44.08993" lon="3.0565">
        <ele>369.7</ele>
        <time>2018-05-19T13:16:44Z</time>
      </trkpt>
      <trkpt lat="44.08993" lon="3.05655">
        <ele>369.4</ele>
        <time>2018-05-19T13:16:45Z</time>
      </trkpt>
      <trkpt lat="44.08991" lon="3.05659">
        <ele>369.3</ele>
        <time>2018-05-19T13:16:46Z</time>
      </trkpt>
      <trkpt lat="44.08989" lon="3.05663">
        <ele>368.8</ele>
        <time>2018-05-19T13:16:47Z</time>
      </trkpt>
      <trkpt lat="44.08985" lon="3.05666">
        <ele>368</ele>
        <time>2018-05-19T13:16:48Z</time>
      </trkpt>
      <trkpt lat="44.08977" lon="3.05671">
        <ele>366.7</ele>
        <time>2018-05-19T13:16:49Z</time>
      </trkpt>
      <trkpt lat="44.08973" lon="3.05678">
        <ele>366</ele>
        <time>2018-05-19T13:16:50Z</time>
      </trkpt>
      <trkpt lat="44.08968" lon="3.05688">
        <ele>366.2</ele>
        <time>2018-05-19T13:16:51Z</time>
      </trkpt>
      <trkpt lat="44.08964" lon="3.05697">
        <ele>366.6</ele>
        <time>2018-05-19T13:16:52Z</time>
      </trkpt>
      <trkpt lat="44.0896" lon="3.05707">
        <ele>367.1</ele>
        <time>2018-05-19T13:16:53Z</time>
      </trkpt>
      <trkpt lat="44.08956" lon="3.05719">
        <ele>367.5</ele>
        <time>2018-05-19T13:16:54Z</time>
      </trkpt>
      <trkpt lat="44.08955" lon="3.0573">
        <ele>368.3</ele>
        <time>2018-05-19T13:16:55Z</time>
      </trkpt>
      <trkpt lat="44.08955" lon="3.05739">
        <ele>369.2</ele>
        <time>2018-05-19T13:16:56Z</time>
      </trkpt>
      <trkpt lat="44.08955" lon="3.05749">
        <ele>370.1</ele>
        <time>2018-05-19T13:16:57Z</time>
      </trkpt>
      <trkpt lat="44.08955" lon="3.05757">
        <ele>370.9</ele>
        <time>2018-05-19T13:16:58Z</time>
      </trkpt>
      <trkpt lat="44.08955" lon="3.05766">
        <ele>371.6</ele>
        <time>2018-05-19T13:16:59Z</time>
      </trkpt>
      <trkpt lat="44.08955" lon="3.05773">
        <ele>372.3</ele>
        <time>2018-05-19T13:17:00Z</time>
      </trkpt>
      <trkpt lat="44.08956" lon="3.05781">
        <ele>373.2</ele>
        <time>2018-05-19T13:17:01Z</time>
      </trkpt>
      <trkpt lat="44.08956" lon="3.05788">
        <ele>373.8</ele>
        <time>2018-05-19T13:17:02Z</time>
      </trkpt>
      <trkpt lat="44.08957" lon="3.05795">
        <ele>374.4</ele>
        <time>2018-05-19T13:17:03Z</time>
      </trkpt>
      <trkpt lat="44.08957" lon="3.05802">
        <ele>375</ele>
        <time>2018-05-19T13:17:04Z</time>
      </trkpt>
      <trkpt lat="44.08958" lon="3.05809">
        <ele>375</ele>
        <time>2018-05-19T13:17:05Z</time>
      </trkpt>
      <trkpt lat="44.08957" lon="3.05815">
        <ele>375</ele>
        <time>2018-05-19T13:17:06Z</time>
      </trkpt>
      <trkpt lat="44.08957" lon="3.05821">
        <ele>375</ele>
        <time>2018-05-19T13:17:07Z</time>
      </trkpt>
      <trkpt lat="44.08959" lon="3.05827">
        <ele>375</ele>
        <time>2018-05-19T13:17:08Z</time>
      </trkpt>
      <trkpt lat="44.08958" lon="3.05832">
        <ele>375</ele>
        <time>2018-05-19T13:17:09Z</time>
      </trkpt>
      <trkpt lat="44.08958" lon="3.05836">
        <ele>375</ele>
        <time>2018-05-19T13:17:10Z</time>
      </trkpt>
      <trkpt lat="44.08957" lon="3.0584">
        <ele>375</ele>
        <time>2018-05-19T13:17:11Z</time>
      </trkpt>
      <trkpt lat="44.08954" lon="3.05846">
        <ele>374.7</ele>
        <time>2018-05-19T13:17:12Z</time>
      </trkpt>
      <trkpt lat="44.0895" lon="3.05852">
        <ele>374.1</ele>
        <time>2018-05-19T13:17:13Z</time>
      </trkpt>
      <trkpt lat="44.08945" lon="3.05858">
        <ele>373.4</ele>
        <time>2018-05-19T13:17:14Z</time>
      </trkpt>
      <trkpt lat="44.08941" lon="3.05864">
        <ele>373</ele>
        <time>2018-05-19T13:17:15Z</time>
      </trkpt>
      <trkpt lat="44.08935" lon="3.0587">
        <ele>372.6</ele>
        <time>2018-05-19T13:17:16Z</time>
      </trkpt>
      <trkpt lat="44.08931" lon="3.05877">
        <ele>372</ele>
        <time>2018-05-19T13:17:17Z</time>
      </trkpt>
      <trkpt lat="44.08926" lon="3.05886">
        <ele>371.3</ele>
        <time>2018-05-19T13:17:18Z</time>
      </trkpt>
      <trkpt lat="44.08921" lon="3.05894">
        <ele>370.6</ele>
        <time>2018-05-19T13:17:19Z</time>
      </trkpt>
      <trkpt lat="44.08917" lon="3.05901">
        <ele>370.1</ele>
        <time>2018-05-19T13:17:20Z</time>
      </trkpt>
      <trkpt lat="44.08914" lon="3.05911">
        <ele>369.9</ele>
        <time>2018-05-19T13:17:21Z</time>
      </trkpt>
      <trkpt lat="44.08911" lon="3.0592">
        <ele>369.7</ele>
        <time>2018-05-19T13:17:22Z</time>
      </trkpt>
      <trkpt lat="44.08907" lon="3.0593">
        <ele>369.7</ele>
        <time>2018-05-19T13:17:23Z</time>
      </trkpt>
      <trkpt lat="44.08903" lon="3.0594">
        <ele>369.7</ele>
        <time>2018-05-19T13:17:24Z</time>
      </trkpt>
      <trkpt lat="44.08894" lon="3.05946">
        <ele>369.8</ele>
        <time>2018-05-19T13:17:25Z</time>
      </trkpt>
      <trkpt lat="44.08891" lon="3.05953">
        <ele>369.8</ele>
        <time>2018-05-19T13:17:26Z</time>
      </trkpt>
      <trkpt lat="44.08887" lon="3.05963">
        <ele>369.9</ele>
        <time>2018-05-19T13:17:27Z</time>
      </trkpt>
      <trkpt lat="44.08886" lon="3.05969">
        <ele>369.9</ele>
        <time>2018-05-19T13:17:28Z</time>
      </trkpt>
      <trkpt lat="44.08883" lon="3.05975">
        <ele>369.9</ele>
        <time>2018-05-19T13:17:29Z</time>
      </trkpt>
      <trkpt lat="44.08883" lon="3.05979">
        <ele>370</ele>
        <time>2018-05-19T13:17:30Z</time>
      </trkpt>
      <trkpt lat="44.08884" lon="3.05974">
        <ele>370</ele>
        <time>2018-05-19T13:17:35Z</time>
      </trkpt>
      <trkpt lat="44.08887" lon="3.05975">
        <ele>370</ele>
        <time>2018-05-19T13:17:39Z</time>
      </trkpt>
      <trkpt lat="44.08891" lon="3.05976">
        <ele>370</ele>
        <time>2018-05-19T13:17:44Z</time>
      </trkpt>
      <trkpt lat="44.08888" lon="3.05979">
        <ele>370</ele>
        <time>2018-05-19T13:18:01Z</time>
      </trkpt>
      <trkpt lat="44.08886" lon="3.05984">
        <ele>370</ele>
        <time>2018-05-19T13:18:03Z</time>
      </trkpt>
      <trkpt lat="44.08883" lon="3.05989">
        <ele>369.9</ele>
        <time>2018-05-19T13:18:05Z</time>
      </trkpt>
      <trkpt lat="44.08881" lon="3.05996">
        <ele>369.5</ele>
        <time>2018-05-19T13:18:07Z</time>
      </trkpt>
      <trkpt lat="44.08881" lon="3.06003">
        <ele>369.2</ele>
        <time>2018-05-19T13:18:09Z</time>
      </trkpt>
      <trkpt lat="44.08881" lon="3.06007">
        <ele>369</ele>
        <time>2018-05-19T13:18:10Z</time>
      </trkpt>
      <trkpt lat="44.08881" lon="3.06014">
        <ele>368.6</ele>
        <time>2018-05-19T13:18:11Z</time>
      </trkpt>
      <trkpt lat="44.0888" lon="3.0602">
        <ele>368.3</ele>
        <time>2018-05-19T13:18:12Z</time>
      </trkpt>
      <trkpt lat="44.0888" lon="3.06027">
        <ele>368</ele>
        <time>2018-05-19T13:18:13Z</time>
      </trkpt>
      <trkpt lat="44.08878" lon="3.06036">
        <ele>368.4</ele>
        <time>2018-05-19T13:18:14Z</time>
      </trkpt>
      <trkpt lat="44.08879" lon="3.06044">
        <ele>368.8</ele>
        <time>2018-05-19T13:18:15Z</time>
      </trkpt>
      <trkpt lat="44.08879" lon="3.0605">
        <ele>369.1</ele>
        <time>2018-05-19T13:18:16Z</time>
      </trkpt>
      <trkpt lat="44.08881" lon="3.06057">
        <ele>369.5</ele>
        <time>2018-05-19T13:18:17Z</time>
      </trkpt>
      <trkpt lat="44.08884" lon="3.06063">
        <ele>369.9</ele>
        <time>2018-05-19T13:18:18Z</time>
      </trkpt>
      <trkpt lat="44.08886" lon="3.0607">
        <ele>370.2</ele>
        <time>2018-05-19T13:18:19Z</time>
      </trkpt>
      <trkpt lat="44.08891" lon="3.0608">
        <ele>370.8</ele>
        <time>2018-05-19T13:18:20Z</time>
      </trkpt>
      <trkpt lat="44.08893" lon="3.06087">
        <ele>371.2</ele>
        <time>2018-05-19T13:18:21Z</time>
      </trkpt>
      <trkpt lat="44.08896" lon="3.06094">
        <ele>371.6</ele>
        <time>2018-05-19T13:18:22Z</time>
      </trkpt>
      <trkpt lat="44.08901" lon="3.061">
        <ele>372</ele>
        <time>2018-05-19T13:18:23Z</time>
      </trkpt>
      <trkpt lat="44.08905" lon="3.06107">
        <ele>372.5</ele>
        <time>2018-05-19T13:18:24Z</time>
      </trkpt>
      <trkpt lat="44.08909" lon="3.06114">
        <ele>372.9</ele>
        <time>2018-05-19T13:18:25Z</time>
      </trkpt>
      <trkpt lat="44.08914" lon="3.06121">
        <ele>373.4</ele>
        <time>2018-05-19T13:18:26Z</time>
      </trkpt>
      <trkpt lat="44.08919" lon="3.06126">
        <ele>373.9</ele>
        <time>2018-05-19T13:18:27Z</time>
      </trkpt>
      <trkpt lat="44.08925" lon="3.06132">
        <ele>373.9</ele>
        <time>2018-05-19T13:18:28Z</time>
      </trkpt>
      <trkpt lat="44.0893" lon="3.06136">
        <ele>373.6</ele>
        <time>2018-05-19T13:18:29Z</time>
      </trkpt>
      <trkpt lat="44.08936" lon="3.06141">
        <ele>373.4</ele>
        <time>2018-05-19T13:18:30Z</time>
      </trkpt>
      <trkpt lat="44.08941" lon="3.06143">
        <ele>373.2</ele>
        <time>2018-05-19T13:18:31Z</time>
      </trkpt>
      <trkpt lat="44.08948" lon="3.06145">
        <ele>373</ele>
        <time>2018-05-19T13:18:32Z</time>
      </trkpt>
      <trkpt lat="44.08954" lon="3.06148">
        <ele>372.8</ele>
        <time>2018-05-19T13:18:33Z</time>
      </trkpt>
      <trkpt lat="44.08959" lon="3.06152">
        <ele>372.6</ele>
        <time>2018-05-19T13:18:34Z</time>
      </trkpt>
      <trkpt lat="44.08964" lon="3.06155">
        <ele>372.4</ele>
        <time>2018-05-19T13:18:35Z</time>
      </trkpt>
      <trkpt lat="44.0897" lon="3.06156">
        <ele>372.3</ele>
        <time>2018-05-19T13:18:36Z</time>
      </trkpt>
      <trkpt lat="44.08976" lon="3.06157">
        <ele>372.1</ele>
        <time>2018-05-19T13:18:37Z</time>
      </trkpt>
      <trkpt lat="44.08983" lon="3.06159">
        <ele>371.9</ele>
        <time>2018-05-19T13:18:38Z</time>
      </trkpt>
      <trkpt lat="44.0899" lon="3.0616">
        <ele>371.6</ele>
        <time>2018-05-19T13:18:39Z</time>
      </trkpt>
      <trkpt lat="44.08995" lon="3.0616">
        <ele>371.5</ele>
        <time>2018-05-19T13:18:40Z</time>
      </trkpt>
      <trkpt lat="44.09001" lon="3.0616">
        <ele>371.3</ele>
        <time>2018-05-19T13:18:41Z</time>
      </trkpt>
      <trkpt lat="44.09007" lon="3.0616">
        <ele>371.1</ele>
        <time>2018-05-19T13:18:42Z</time>
      </trkpt>
      <trkpt lat="44.09013" lon="3.06161">
        <ele>370.9</ele>
        <time>2018-05-19T13:18:43Z</time>
      </trkpt>
      <trkpt lat="44.0902" lon="3.06162">
        <ele>370.6</ele>
        <time>2018-05-19T13:18:44Z</time>
      </trkpt>
      <trkpt lat="44.09026" lon="3.06162">
        <ele>370.4</ele>
        <time>2018-05-19T13:18:45Z</time>
      </trkpt>
      <trkpt lat="44.09031" lon="3.06163">
        <ele>370.1</ele>
        <time>2018-05-19T13:18:46Z</time>
      </trkpt>
      <trkpt lat="44.09037" lon="3.06164">
        <ele>369.9</ele>
        <time>2018-05-19T13:18:47Z</time>
      </trkpt>
      <trkpt lat="44.09044" lon="3.06165">
        <ele>369.7</ele>
        <time>2018-05-19T13:18:48Z</time>
      </trkpt>
      <trkpt lat="44.09051" lon="3.06166">
        <ele>369.4</ele>
        <time>2018-05-19T13:18:49Z</time>
      </trkpt>
      <trkpt lat="44.09057" lon="3.06168">
        <ele>369.2</ele>
        <time>2018-05-19T13:18:50Z</time>
      </trkpt>
      <trkpt lat="44.09063" lon="3.06171">
        <ele>369</ele>
        <time>2018-05-19T13:18:51Z</time>
      </trkpt>
      <trkpt lat="44.09069" lon="3.06175">
        <ele>368.8</ele>
        <time>2018-05-19T13:18:52Z</time>
      </trkpt>
      <trkpt lat="44.09075" lon="3.06178">
        <ele>368.5</ele>
        <time>2018-05-19T13:18:53Z</time>
      </trkpt>
      <trkpt lat="44.09081" lon="3.06181">
        <ele>368.3</ele>
        <time>2018-05-19T13:18:54Z</time>
      </trkpt>
      <trkpt lat="44.09086" lon="3.06185">
        <ele>368.1</ele>
        <time>2018-05-19T13:18:55Z</time>
      </trkpt>
      <trkpt lat="44.09092" lon="3.06188">
        <ele>367.9</ele>
        <time>2018-05-19T13:18:56Z</time>
      </trkpt>
      <trkpt lat="44.09097" lon="3.06192">
        <ele>367.7</ele>
        <time>2018-05-19T13:18:57Z</time>
      </trkpt>
      <trkpt lat="44.09103" lon="3.06196">
        <ele>367.5</ele>
        <time>2018-05-19T13:18:58Z</time>
      </trkpt>
      <trkpt lat="44.09108" lon="3.06201">
        <ele>367.2</ele>
        <time>2018-05-19T13:18:59Z</time>
      </trkpt>
      <trkpt lat="44.09113" lon="3.06205">
        <ele>367</ele>
        <time>2018-05-19T13:19:00Z</time>
      </trkpt>
      <trkpt lat="44.09118" lon="3.06209">
        <ele>366.8</ele>
        <time>2018-05-19T13:19:01Z</time>
      </trkpt>
      <trkpt lat="44.09123" lon="3.06214">
        <ele>366.6</ele>
        <time>2018-05-19T13:19:02Z</time>
      </trkpt>
      <trkpt lat="44.09127" lon="3.06219">
        <ele>366.5</ele>
        <time>2018-05-19T13:19:03Z</time>
      </trkpt>
      <trkpt lat="44.09131" lon="3.06224">
        <ele>366.3</ele>
        <time>2018-05-19T13:19:04Z</time>
      </trkpt>
      <trkpt lat="44.09136" lon="3.06228">
        <ele>366.1</ele>
        <time>2018-05-19T13:19:05Z</time>
      </trkpt>
      <trkpt lat="44.09141" lon="3.06233">
        <ele>365.9</ele>
        <time>2018-05-19T13:19:06Z</time>
      </trkpt>
      <trkpt lat="44.09146" lon="3.06236">
        <ele>365.7</ele>
        <time>2018-05-19T13:19:07Z</time>
      </trkpt>
      <trkpt lat="44.09151" lon="3.06243">
        <ele>365.5</ele>
        <time>2018-05-19T13:19:08Z</time>
      </trkpt>
      <trkpt lat="44.09156" lon="3.06248">
        <ele>365.2</ele>
        <time>2018-05-19T13:19:09Z</time>
      </trkpt>
      <trkpt lat="44.09161" lon="3.06254">
        <ele>365</ele>
        <time>2018-05-19T13:19:10Z</time>
      </trkpt>
      <trkpt lat="44.09166" lon="3.0626">
        <ele>364.8</ele>
        <time>2018-05-19T13:19:11Z</time>
      </trkpt>
      <trkpt lat="44.0917" lon="3.06266">
        <ele>364.5</ele>
        <time>2018-05-19T13:19:12Z</time>
      </trkpt>
      <trkpt lat="44.09175" lon="3.06272">
        <ele>364.2</ele>
        <time>2018-05-19T13:19:13Z</time>
      </trkpt>
      <trkpt lat="44.09179" lon="3.06278">
        <ele>363.9</ele>
        <time>2018-05-19T13:19:14Z</time>
      </trkpt>
      <trkpt lat="44.09184" lon="3.06284">
        <ele>363.6</ele>
        <time>2018-05-19T13:19:15Z</time>
      </trkpt>
      <trkpt lat="44.09189" lon="3.06291">
        <ele>363.3</ele>
        <time>2018-05-19T13:19:16Z</time>
      </trkpt>
      <trkpt lat="44.09193" lon="3.06297">
        <ele>363</ele>
        <time>2018-05-19T13:19:17Z</time>
      </trkpt>
      <trkpt lat="44.09198" lon="3.06301">
        <ele>362.7</ele>
        <time>2018-05-19T13:19:18Z</time>
      </trkpt>
      <trkpt lat="44.09203" lon="3.06307">
        <ele>362.4</ele>
        <time>2018-05-19T13:19:19Z</time>
      </trkpt>
      <trkpt lat="44.09205" lon="3.06311">
        <ele>362.3</ele>
        <time>2018-05-19T13:19:20Z</time>
      </trkpt>
      <trkpt lat="44.09208" lon="3.06319">
        <ele>361.9</ele>
        <time>2018-05-19T13:19:21Z</time>
      </trkpt>
      <trkpt lat="44.09213" lon="3.06327">
        <ele>361.6</ele>
        <time>2018-05-19T13:19:22Z</time>
      </trkpt>
      <trkpt lat="44.09216" lon="3.06334">
        <ele>361.3</ele>
        <time>2018-05-19T13:19:23Z</time>
      </trkpt>
      <trkpt lat="44.0922" lon="3.06341">
        <ele>361</ele>
        <time>2018-05-19T13:19:24Z</time>
      </trkpt>
      <trkpt lat="44.09224" lon="3.06348">
        <ele>361</ele>
        <time>2018-05-19T13:19:25Z</time>
      </trkpt>
      <trkpt lat="44.09228" lon="3.06355">
        <ele>361</ele>
        <time>2018-05-19T13:19:26Z</time>
      </trkpt>
      <trkpt lat="44.09231" lon="3.06359">
        <ele>361</ele>
        <time>2018-05-19T13:19:27Z</time>
      </trkpt>
      <trkpt lat="44.09234" lon="3.06366">
        <ele>361</ele>
        <time>2018-05-19T13:19:28Z</time>
      </trkpt>
      <trkpt lat="44.09237" lon="3.06373">
        <ele>361</ele>
        <time>2018-05-19T13:19:29Z</time>
      </trkpt>
      <trkpt lat="44.0924" lon="3.06381">
        <ele>361</ele>
        <time>2018-05-19T13:19:30Z</time>
      </trkpt>
      <trkpt lat="44.09242" lon="3.06387">
        <ele>361</ele>
        <time>2018-05-19T13:19:31Z</time>
      </trkpt>
      <trkpt lat="44.09244" lon="3.06395">
        <ele>361</ele>
        <time>2018-05-19T13:19:32Z</time>
      </trkpt>
      <trkpt lat="44.09244" lon="3.06404">
        <ele>361</ele>
        <time>2018-05-19T13:19:33Z</time>
      </trkpt>
      <trkpt lat="44.09241" lon="3.0641">
        <ele>360.3</ele>
        <time>2018-05-19T13:19:34Z</time>
      </trkpt>
      <trkpt lat="44.09238" lon="3.06417">
        <ele>359.1</ele>
        <time>2018-05-19T13:19:35Z</time>
      </trkpt>
      <trkpt lat="44.09236" lon="3.06423">
        <ele>358</ele>
        <time>2018-05-19T13:19:36Z</time>
      </trkpt>
      <trkpt lat="44.09233" lon="3.06425">
        <ele>358</ele>
        <time>2018-05-19T13:19:37Z</time>
      </trkpt>
      <trkpt lat="44.09227" lon="3.06433">
        <ele>357.7</ele>
        <time>2018-05-19T13:19:38Z</time>
      </trkpt>
      <trkpt lat="44.09223" lon="3.06439">
        <ele>357.4</ele>
        <time>2018-05-19T13:19:39Z</time>
      </trkpt>
      <trkpt lat="44.09218" lon="3.06445">
        <ele>357</ele>
        <time>2018-05-19T13:19:40Z</time>
      </trkpt>
      <trkpt lat="44.09214" lon="3.06452">
        <ele>356.7</ele>
        <time>2018-05-19T13:19:41Z</time>
      </trkpt>
      <trkpt lat="44.0921" lon="3.06459">
        <ele>356.5</ele>
        <time>2018-05-19T13:19:42Z</time>
      </trkpt>
      <trkpt lat="44.09206" lon="3.06469">
        <ele>356.2</ele>
        <time>2018-05-19T13:19:43Z</time>
      </trkpt>
      <trkpt lat="44.09201" lon="3.06476">
        <ele>355.9</ele>
        <time>2018-05-19T13:19:44Z</time>
      </trkpt>
      <trkpt lat="44.09197" lon="3.06483">
        <ele>355.6</ele>
        <time>2018-05-19T13:19:45Z</time>
      </trkpt>
      <trkpt lat="44.09192" lon="3.06491">
        <ele>355.3</ele>
        <time>2018-05-19T13:19:46Z</time>
      </trkpt>
      <trkpt lat="44.09188" lon="3.06501">
        <ele>355</ele>
        <time>2018-05-19T13:19:47Z</time>
      </trkpt>
      <trkpt lat="44.09183" lon="3.0651">
        <ele>354.7</ele>
        <time>2018-05-19T13:19:48Z</time>
      </trkpt>
      <trkpt lat="44.09178" lon="3.06519">
        <ele>354.4</ele>
        <time>2018-05-19T13:19:49Z</time>
      </trkpt>
      <trkpt lat="44.09173" lon="3.06527">
        <ele>354.1</ele>
        <time>2018-05-19T13:19:50Z</time>
      </trkpt>
      <trkpt lat="44.09169" lon="3.06535">
        <ele>353.9</ele>
        <time>2018-05-19T13:19:51Z</time>
      </trkpt>
      <trkpt lat="44.09166" lon="3.06538">
        <ele>353.7</ele>
        <time>2018-05-19T13:19:52Z</time>
      </trkpt>
      <trkpt lat="44.09162" lon="3.06546">
        <ele>353.5</ele>
        <time>2018-05-19T13:19:54Z</time>
      </trkpt>
      <trkpt lat="44.09158" lon="3.06551">
        <ele>353</ele>
        <time>2018-05-19T13:19:55Z</time>
      </trkpt>
      <trkpt lat="44.09149" lon="3.06558">
        <ele>353</ele>
        <time>2018-05-19T13:19:56Z</time>
      </trkpt>
      <trkpt lat="44.09146" lon="3.06563">
        <ele>353</ele>
        <time>2018-05-19T13:19:57Z</time>
      </trkpt>
      <trkpt lat="44.09143" lon="3.06568">
        <ele>353.1</ele>
        <time>2018-05-19T13:19:58Z</time>
      </trkpt>
      <trkpt lat="44.0914" lon="3.0657">
        <ele>353.1</ele>
        <time>2018-05-19T13:19:59Z</time>
      </trkpt>
      <trkpt lat="44.09133" lon="3.06583">
        <ele>353.1</ele>
        <time>2018-05-19T13:20:01Z</time>
      </trkpt>
      <trkpt lat="44.09133" lon="3.06591">
        <ele>353.1</ele>
        <time>2018-05-19T13:20:02Z</time>
      </trkpt>
      <trkpt lat="44.09133" lon="3.06599">
        <ele>353.2</ele>
        <time>2018-05-19T13:20:03Z</time>
      </trkpt>
      <trkpt lat="44.09132" lon="3.06607">
        <ele>353.3</ele>
        <time>2018-05-19T13:20:04Z</time>
      </trkpt>
      <trkpt lat="44.09129" lon="3.06616">
        <ele>353.4</ele>
        <time>2018-05-19T13:20:05Z</time>
      </trkpt>
      <trkpt lat="44.09128" lon="3.06623">
        <ele>353.5</ele>
        <time>2018-05-19T13:20:06Z</time>
      </trkpt>
      <trkpt lat="44.09125" lon="3.06632">
        <ele>353.6</ele>
        <time>2018-05-19T13:20:07Z</time>
      </trkpt>
      <trkpt lat="44.09122" lon="3.06642">
        <ele>353.7</ele>
        <time>2018-05-19T13:20:08Z</time>
      </trkpt>
      <trkpt lat="44.09119" lon="3.06652">
        <ele>353.8</ele>
        <time>2018-05-19T13:20:09Z</time>
      </trkpt>
      <trkpt lat="44.09118" lon="3.0666">
        <ele>353.9</ele>
        <time>2018-05-19T13:20:10Z</time>
      </trkpt>
      <trkpt lat="44.09116" lon="3.06668">
        <ele>353.9</ele>
        <time>2018-05-19T13:20:11Z</time>
      </trkpt>
      <trkpt lat="44.09115" lon="3.06677">
        <ele>354</ele>
        <time>2018-05-19T13:20:12Z</time>
      </trkpt>
      <trkpt lat="44.09115" lon="3.06686">
        <ele>354</ele>
        <time>2018-05-19T13:20:13Z</time>
      </trkpt>
      <trkpt lat="44.09116" lon="3.06696">
        <ele>354</ele>
        <time>2018-05-19T13:20:14Z</time>
      </trkpt>
      <trkpt lat="44.09116" lon="3.06705">
        <ele>354.1</ele>
        <time>2018-05-19T13:20:15Z</time>
      </trkpt>
      <trkpt lat="44.09116" lon="3.06714">
        <ele>354.5</ele>
        <time>2018-05-19T13:20:16Z</time>
      </trkpt>
      <trkpt lat="44.09116" lon="3.06722">
        <ele>354.8</ele>
        <time>2018-05-19T13:20:17Z</time>
      </trkpt>
      <trkpt lat="44.09116" lon="3.0673">
        <ele>355.1</ele>
        <time>2018-05-19T13:20:18Z</time>
      </trkpt>
      <trkpt lat="44.09117" lon="3.06739">
        <ele>355.5</ele>
        <time>2018-05-19T13:20:19Z</time>
      </trkpt>
      <trkpt lat="44.09118" lon="3.06747">
        <ele>355.8</ele>
        <time>2018-05-19T13:20:20Z</time>
      </trkpt>
      <trkpt lat="44.09119" lon="3.06754">
        <ele>356</ele>
        <time>2018-05-19T13:20:21Z</time>
      </trkpt>
      <trkpt lat="44.09121" lon="3.06762">
        <ele>356</ele>
        <time>2018-05-19T13:20:22Z</time>
      </trkpt>
      <trkpt lat="44.09123" lon="3.0677">
        <ele>356</ele>
        <time>2018-05-19T13:20:23Z</time>
      </trkpt>
      <trkpt lat="44.09125" lon="3.06781">
        <ele>356</ele>
        <time>2018-05-19T13:20:24Z</time>
      </trkpt>
      <trkpt lat="44.09126" lon="3.06789">
        <ele>356</ele>
        <time>2018-05-19T13:20:25Z</time>
      </trkpt>
      <trkpt lat="44.09128" lon="3.06797">
        <ele>356</ele>
        <time>2018-05-19T13:20:26Z</time>
      </trkpt>
      <trkpt lat="44.09128" lon="3.06803">
        <ele>356</ele>
        <time>2018-05-19T13:20:27Z</time>
      </trkpt>
      <trkpt lat="44.0913" lon="3.0681">
        <ele>356</ele>
        <time>2018-05-19T13:20:28Z</time>
      </trkpt>
      <trkpt lat="44.09132" lon="3.06817">
        <ele>356</ele>
        <time>2018-05-19T13:20:29Z</time>
      </trkpt>
      <trkpt lat="44.09133" lon="3.06824">
        <ele>356</ele>
        <time>2018-05-19T13:20:30Z</time>
      </trkpt>
      <trkpt lat="44.09135" lon="3.0683">
        <ele>355.9</ele>
        <time>2018-05-19T13:20:31Z</time>
      </trkpt>
      <trkpt lat="44.09135" lon="3.06837">
        <ele>355.6</ele>
        <time>2018-05-19T13:20:32Z</time>
      </trkpt>
      <trkpt lat="44.09137" lon="3.06844">
        <ele>355.2</ele>
        <time>2018-05-19T13:20:33Z</time>
      </trkpt>
      <trkpt lat="44.09138" lon="3.06848">
        <ele>355</ele>
        <time>2018-05-19T13:20:34Z</time>
      </trkpt>
      <trkpt lat="44.09139" lon="3.06855">
        <ele>355</ele>
        <time>2018-05-19T13:20:35Z</time>
      </trkpt>
      <trkpt lat="44.0914" lon="3.06861">
        <ele>354.9</ele>
        <time>2018-05-19T13:20:36Z</time>
      </trkpt>
      <trkpt lat="44.09141" lon="3.06867">
        <ele>354.6</ele>
        <time>2018-05-19T13:20:37Z</time>
      </trkpt>
      <trkpt lat="44.09144" lon="3.06875">
        <ele>354.3</ele>
        <time>2018-05-19T13:20:38Z</time>
      </trkpt>
      <trkpt lat="44.09145" lon="3.06883">
        <ele>354.1</ele>
        <time>2018-05-19T13:20:39Z</time>
      </trkpt>
      <trkpt lat="44.09146" lon="3.06889">
        <ele>353.9</ele>
        <time>2018-05-19T13:20:40Z</time>
      </trkpt>
      <trkpt lat="44.09147" lon="3.06896">
        <ele>353.6</ele>
        <time>2018-05-19T13:20:41Z</time>
      </trkpt>
      <trkpt lat="44.09149" lon="3.06905">
        <ele>353.3</ele>
        <time>2018-05-19T13:20:42Z</time>
      </trkpt>
      <trkpt lat="44.0915" lon="3.06911">
        <ele>353</ele>
        <time>2018-05-19T13:20:43Z</time>
      </trkpt>
      <trkpt lat="44.09151" lon="3.06918">
        <ele>352.8</ele>
        <time>2018-05-19T13:20:44Z</time>
      </trkpt>
      <trkpt lat="44.09151" lon="3.06928">
        <ele>352.4</ele>
        <time>2018-05-19T13:20:46Z</time>
      </trkpt>
      <trkpt lat="44.09154" lon="3.06935">
        <ele>352</ele>
        <time>2018-05-19T13:20:47Z</time>
      </trkpt>
      <trkpt lat="44.09155" lon="3.06941">
        <ele>352.2</ele>
        <time>2018-05-19T13:20:48Z</time>
      </trkpt>
      <trkpt lat="44.09157" lon="3.06948">
        <ele>352.5</ele>
        <time>2018-05-19T13:20:49Z</time>
      </trkpt>
      <trkpt lat="44.09159" lon="3.06955">
        <ele>352.7</ele>
        <time>2018-05-19T13:20:50Z</time>
      </trkpt>
      <trkpt lat="44.09161" lon="3.06963">
        <ele>353.1</ele>
        <time>2018-05-19T13:20:51Z</time>
      </trkpt>
      <trkpt lat="44.09164" lon="3.0697">
        <ele>353.4</ele>
        <time>2018-05-19T13:20:52Z</time>
      </trkpt>
      <trkpt lat="44.09166" lon="3.06977">
        <ele>353.7</ele>
        <time>2018-05-19T13:20:53Z</time>
      </trkpt>
      <trkpt lat="44.09169" lon="3.06983">
        <ele>354</ele>
        <time>2018-05-19T13:20:54Z</time>
      </trkpt>
      <trkpt lat="44.09173" lon="3.06992">
        <ele>354.4</ele>
        <time>2018-05-19T13:20:55Z</time>
      </trkpt>
      <trkpt lat="44.09175" lon="3.06997">
        <ele>354.7</ele>
        <time>2018-05-19T13:20:56Z</time>
      </trkpt>
      <trkpt lat="44.09176" lon="3.07003">
        <ele>355</ele>
        <time>2018-05-19T13:20:57Z</time>
      </trkpt>
      <trkpt lat="44.09177" lon="3.07008">
        <ele>355</ele>
        <time>2018-05-19T13:20:58Z</time>
      </trkpt>
      <trkpt lat="44.09179" lon="3.07011">
        <ele>355</ele>
        <time>2018-05-19T13:20:59Z</time>
      </trkpt>
      <trkpt lat="44.09181" lon="3.07013">
        <ele>355</ele>
        <time>2018-05-19T13:21:01Z</time>
      </trkpt>
      <trkpt lat="44.09183" lon="3.07018">
        <ele>355</ele>
        <time>2018-05-19T13:21:03Z</time>
      </trkpt>
      <trkpt lat="44.09182" lon="3.07022">
        <ele>355</ele>
        <time>2018-05-19T13:21:04Z</time>
      </trkpt>
      <trkpt lat="44.09184" lon="3.07024">
        <ele>355</ele>
        <time>2018-05-19T13:21:08Z</time>
      </trkpt>
      <trkpt lat="44.09187" lon="3.07027">
        <ele>355</ele>
        <time>2018-05-19T13:21:13Z</time>
      </trkpt>
      <trkpt lat="44.09189" lon="3.07031">
        <ele>355</ele>
        <time>2018-05-19T13:21:15Z</time>
      </trkpt>
      <trkpt lat="44.09192" lon="3.07037">
        <ele>355</ele>
        <time>2018-05-19T13:21:17Z</time>
      </trkpt>
      <trkpt lat="44.09193" lon="3.0704">
        <ele>355</ele>
        <time>2018-05-19T13:21:18Z</time>
      </trkpt>
      <trkpt lat="44.09196" lon="3.07044">
        <ele>355</ele>
        <time>2018-05-19T13:21:20Z</time>
      </trkpt>
      <trkpt lat="44.09198" lon="3.07048">
        <ele>354.9</ele>
        <time>2018-05-19T13:21:22Z</time>
      </trkpt>
      <trkpt lat="44.09198" lon="3.07053">
        <ele>354.9</ele>
        <time>2018-05-19T13:21:24Z</time>
      </trkpt>
      <trkpt lat="44.09198" lon="3.07059">
        <ele>354.9</ele>
        <time>2018-05-19T13:21:26Z</time>
      </trkpt>
      <trkpt lat="44.09199" lon="3.07063">
        <ele>354.9</ele>
        <time>2018-05-19T13:21:27Z</time>
      </trkpt>
      <trkpt lat="44.092" lon="3.07067">
        <ele>354.9</ele>
        <time>2018-05-19T13:21:28Z</time>
      </trkpt>
      <trkpt lat="44.09203" lon="3.0707">
        <ele>355</ele>
        <time>2018-05-19T13:21:29Z</time>
      </trkpt>
      <trkpt lat="44.09206" lon="3.07073">
        <ele>355</ele>
        <time>2018-05-19T13:21:30Z</time>
      </trkpt>
      <trkpt lat="44.09209" lon="3.07076">
        <ele>355</ele>
        <time>2018-05-19T13:21:31Z</time>
      </trkpt>
      <trkpt lat="44.09211" lon="3.07079">
        <ele>355</ele>
        <time>2018-05-19T13:21:32Z</time>
      </trkpt>
      <trkpt lat="44.09214" lon="3.07083">
        <ele>355</ele>
        <time>2018-05-19T13:21:33Z</time>
      </trkpt>
      <trkpt lat="44.09216" lon="3.07086">
        <ele>355</ele>
        <time>2018-05-19T13:21:34Z</time>
      </trkpt>
      <trkpt lat="44.09218" lon="3.0709">
        <ele>355.1</ele>
        <time>2018-05-19T13:21:35Z</time>
      </trkpt>
      <trkpt lat="44.09221" lon="3.07093">
        <ele>355.2</ele>
        <time>2018-05-19T13:21:36Z</time>
      </trkpt>
      <trkpt lat="44.09224" lon="3.07097">
        <ele>355.3</ele>
        <time>2018-05-19T13:21:37Z</time>
      </trkpt>
      <trkpt lat="44.09227" lon="3.07101">
        <ele>355.4</ele>
        <time>2018-05-19T13:21:38Z</time>
      </trkpt>
      <trkpt lat="44.09229" lon="3.07104">
        <ele>355.5</ele>
        <time>2018-05-19T13:21:39Z</time>
      </trkpt>
      <trkpt lat="44.09231" lon="3.07107">
        <ele>355.5</ele>
        <time>2018-05-19T13:21:40Z</time>
      </trkpt>
      <trkpt lat="44.09234" lon="3.07109">
        <ele>355.6</ele>
        <time>2018-05-19T13:21:41Z</time>
      </trkpt>
      <trkpt lat="44.09236" lon="3.07112">
        <ele>355.7</ele>
        <time>2018-05-19T13:21:42Z</time>
      </trkpt>
      <trkpt lat="44.09238" lon="3.07115">
        <ele>355.8</ele>
        <time>2018-05-19T13:21:43Z</time>
      </trkpt>
      <trkpt lat="44.0924" lon="3.07119">
        <ele>355.9</ele>
        <time>2018-05-19T13:21:44Z</time>
      </trkpt>
      <trkpt lat="44.09242" lon="3.07122">
        <ele>356</ele>
        <time>2018-05-19T13:21:45Z</time>
      </trkpt>
      <trkpt lat="44.09244" lon="3.07126">
        <ele>356.1</ele>
        <time>2018-05-19T13:21:46Z</time>
      </trkpt>
      <trkpt lat="44.09247" lon="3.0713">
        <ele>356.2</ele>
        <time>2018-05-19T13:21:47Z</time>
      </trkpt>
      <trkpt lat="44.09249" lon="3.07134">
        <ele>356.3</ele>
        <time>2018-05-19T13:21:49Z</time>
      </trkpt>
      <trkpt lat="44.09252" lon="3.07139">
        <ele>356.4</ele>
        <time>2018-05-19T13:21:51Z</time>
      </trkpt>
      <trkpt lat="44.09254" lon="3.07142">
        <ele>356.5</ele>
        <time>2018-05-19T13:21:52Z</time>
      </trkpt>
      <trkpt lat="44.09256" lon="3.07146">
        <ele>356.7</ele>
        <time>2018-05-19T13:21:53Z</time>
      </trkpt>
      <trkpt lat="44.09258" lon="3.0715">
        <ele>356.8</ele>
        <time>2018-05-19T13:21:54Z</time>
      </trkpt>
      <trkpt lat="44.0926" lon="3.07154">
        <ele>356.9</ele>
        <time>2018-05-19T13:21:55Z</time>
      </trkpt>
      <trkpt lat="44.09262" lon="3.07158">
        <ele>357</ele>
        <time>2018-05-19T13:21:56Z</time>
      </trkpt>
      <trkpt lat="44.09265" lon="3.07162">
        <ele>357</ele>
        <time>2018-05-19T13:21:57Z</time>
      </trkpt>
      <trkpt lat="44.09267" lon="3.07167">
        <ele>357</ele>
        <time>2018-05-19T13:21:59Z</time>
      </trkpt>
      <trkpt lat="44.09269" lon="3.07174">
        <ele>357</ele>
        <time>2018-05-19T13:22:01Z</time>
      </trkpt>
      <trkpt lat="44.0927" lon="3.07178">
        <ele>357</ele>
        <time>2018-05-19T13:22:02Z</time>
      </trkpt>
      <trkpt lat="44.09272" lon="3.07183">
        <ele>357</ele>
        <time>2018-05-19T13:22:03Z</time>
      </trkpt>
      <trkpt lat="44.09273" lon="3.07187">
        <ele>357</ele>
        <time>2018-05-19T13:22:04Z</time>
      </trkpt>
      <trkpt lat="44.09274" lon="3.07191">
        <ele>357</ele>
        <time>2018-05-19T13:22:05Z</time>
      </trkpt>
      <trkpt lat="44.09276" lon="3.07196">
        <ele>357</ele>
        <time>2018-05-19T13:22:06Z</time>
      </trkpt>
      <trkpt lat="44.09277" lon="3.072">
        <ele>357</ele>
        <time>2018-05-19T13:22:07Z</time>
      </trkpt>
      <trkpt lat="44.09278" lon="3.07205">
        <ele>357</ele>
        <time>2018-05-19T13:22:08Z</time>
      </trkpt>
      <trkpt lat="44.09278" lon="3.07209">
        <ele>357</ele>
        <time>2018-05-19T13:22:09Z</time>
      </trkpt>
      <trkpt lat="44.09279" lon="3.07214">
        <ele>356.9</ele>
        <time>2018-05-19T13:22:10Z</time>
      </trkpt>
      <trkpt lat="44.0928" lon="3.07218">
        <ele>356.9</ele>
        <time>2018-05-19T13:22:11Z</time>
      </trkpt>
      <trkpt lat="44.09281" lon="3.07223">
        <ele>356.9</ele>
        <time>2018-05-19T13:22:12Z</time>
      </trkpt>
      <trkpt lat="44.09282" lon="3.07228">
        <ele>356.8</ele>
        <time>2018-05-19T13:22:13Z</time>
      </trkpt>
      <trkpt lat="44.09283" lon="3.07232">
        <ele>356.8</ele>
        <time>2018-05-19T13:22:14Z</time>
      </trkpt>
      <trkpt lat="44.09285" lon="3.07236">
        <ele>356.7</ele>
        <time>2018-05-19T13:22:15Z</time>
      </trkpt>
      <trkpt lat="44.09287" lon="3.07239">
        <ele>356.7</ele>
        <time>2018-05-19T13:22:16Z</time>
      </trkpt>
      <trkpt lat="44.09289" lon="3.07243">
        <ele>356.6</ele>
        <time>2018-05-19T13:22:17Z</time>
      </trkpt>
      <trkpt lat="44.09291" lon="3.07246">
        <ele>356.5</ele>
        <time>2018-05-19T13:22:18Z</time>
      </trkpt>
      <trkpt lat="44.09293" lon="3.07249">
        <ele>356.5</ele>
        <time>2018-05-19T13:22:19Z</time>
      </trkpt>
      <trkpt lat="44.09294" lon="3.07253">
        <ele>356.4</ele>
        <time>2018-05-19T13:22:20Z</time>
      </trkpt>
      <trkpt lat="44.09296" lon="3.07256">
        <ele>356.4</ele>
        <time>2018-05-19T13:22:21Z</time>
      </trkpt>
      <trkpt lat="44.09299" lon="3.07262">
        <ele>356.3</ele>
        <time>2018-05-19T13:22:23Z</time>
      </trkpt>
      <trkpt lat="44.093" lon="3.07265">
        <ele>356</ele>
        <time>2018-05-19T13:22:24Z</time>
      </trkpt>
      <trkpt lat="44.09302" lon="3.07269">
        <ele>356</ele>
        <time>2018-05-19T13:22:25Z</time>
      </trkpt>
      <trkpt lat="44.09303" lon="3.07272">
        <ele>356</ele>
        <time>2018-05-19T13:22:26Z</time>
      </trkpt>
      <trkpt lat="44.09304" lon="3.07276">
        <ele>356</ele>
        <time>2018-05-19T13:22:27Z</time>
      </trkpt>
      <trkpt lat="44.09306" lon="3.07279">
        <ele>356</ele>
        <time>2018-05-19T13:22:28Z</time>
      </trkpt>
      <trkpt lat="44.09307" lon="3.07282">
        <ele>355.9</ele>
        <time>2018-05-19T13:22:29Z</time>
      </trkpt>
      <trkpt lat="44.09309" lon="3.07286">
        <ele>355.9</ele>
        <time>2018-05-19T13:22:30Z</time>
      </trkpt>
      <trkpt lat="44.0931" lon="3.07289">
        <ele>355.9</ele>
        <time>2018-05-19T13:22:31Z</time>
      </trkpt>
      <trkpt lat="44.09312" lon="3.07292">
        <ele>355.9</ele>
        <time>2018-05-19T13:22:32Z</time>
      </trkpt>
      <trkpt lat="44.09313" lon="3.07296">
        <ele>355.8</ele>
        <time>2018-05-19T13:22:33Z</time>
      </trkpt>
      <trkpt lat="44.09314" lon="3.073">
        <ele>355.8</ele>
        <time>2018-05-19T13:22:34Z</time>
      </trkpt>
      <trkpt lat="44.09316" lon="3.07303">
        <ele>355.8</ele>
        <time>2018-05-19T13:22:35Z</time>
      </trkpt>
      <trkpt lat="44.09317" lon="3.07307">
        <ele>355.8</ele>
        <time>2018-05-19T13:22:36Z</time>
      </trkpt>
      <trkpt lat="44.09319" lon="3.07313">
        <ele>355.9</ele>
        <time>2018-05-19T13:22:38Z</time>
      </trkpt>
      <trkpt lat="44.09321" lon="3.07317">
        <ele>355.9</ele>
        <time>2018-05-19T13:22:40Z</time>
      </trkpt>
      <trkpt lat="44.09323" lon="3.07323">
        <ele>356</ele>
        <time>2018-05-19T13:22:42Z</time>
      </trkpt>
      <trkpt lat="44.09324" lon="3.07327">
        <ele>356.1</ele>
        <time>2018-05-19T13:22:45Z</time>
      </trkpt>
      <trkpt lat="44.09325" lon="3.07331">
        <ele>356.1</ele>
        <time>2018-05-19T13:22:52Z</time>
      </trkpt>
      <trkpt lat="44.09328" lon="3.07336">
        <ele>356.2</ele>
        <time>2018-05-19T13:23:58Z</time>
      </trkpt>
      <trkpt lat="44.09329" lon="3.07339">
        <ele>356.2</ele>
        <time>2018-05-19T13:24:00Z</time>
      </trkpt>
      <trkpt lat="44.09331" lon="3.07343">
        <ele>356.2</ele>
        <time>2018-05-19T13:24:02Z</time>
      </trkpt>
      <trkpt lat="44.09333" lon="3.07348">
        <ele>356.2</ele>
        <time>2018-05-19T13:24:05Z</time>
      </trkpt>
      <trkpt lat="44.09335" lon="3.07351">
        <ele>356.2</ele>
        <time>2018-05-19T13:24:07Z</time>
      </trkpt>
      <trkpt lat="44.09337" lon="3.07355">
        <ele>356.2</ele>
        <time>2018-05-19T13:24:09Z</time>
      </trkpt>
      <trkpt lat="44.09339" lon="3.07359">
        <ele>356.2</ele>
        <time>2018-05-19T13:24:11Z</time>
      </trkpt>
      <trkpt lat="44.0934" lon="3.07365">
        <ele>356.3</ele>
        <time>2018-05-19T13:24:13Z</time>
      </trkpt>
      <trkpt lat="44.09342" lon="3.0737">
        <ele>356.3</ele>
        <time>2018-05-19T13:24:15Z</time>
      </trkpt>
      <trkpt lat="44.09344" lon="3.07377">
        <ele>356.3</ele>
        <time>2018-05-19T13:24:17Z</time>
      </trkpt>
      <trkpt lat="44.09346" lon="3.07384">
        <ele>356.3</ele>
        <time>2018-05-19T13:24:19Z</time>
      </trkpt>
      <trkpt lat="44.09347" lon="3.07388">
        <ele>356.2</ele>
        <time>2018-05-19T13:24:20Z</time>
      </trkpt>
      <trkpt lat="44.09348" lon="3.07394">
        <ele>356.2</ele>
        <time>2018-05-19T13:24:22Z</time>
      </trkpt>
      <trkpt lat="44.09349" lon="3.074">
        <ele>356</ele>
        <time>2018-05-19T13:24:24Z</time>
      </trkpt>
      <trkpt lat="44.09348" lon="3.07404">
        <ele>355.9</ele>
        <time>2018-05-19T13:24:25Z</time>
      </trkpt>
      <trkpt lat="44.09347" lon="3.07408">
        <ele>355.7</ele>
        <time>2018-05-19T13:24:26Z</time>
      </trkpt>
      <trkpt lat="44.09345" lon="3.07413">
        <ele>355.4</ele>
        <time>2018-05-19T13:24:27Z</time>
      </trkpt>
      <trkpt lat="44.09342" lon="3.07418">
        <ele>355</ele>
        <time>2018-05-19T13:24:28Z</time>
      </trkpt>
      <trkpt lat="44.09338" lon="3.07423">
        <ele>354.5</ele>
        <time>2018-05-19T13:24:29Z</time>
      </trkpt>
      <trkpt lat="44.09335" lon="3.07428">
        <ele>354.1</ele>
        <time>2018-05-19T13:24:30Z</time>
      </trkpt>
      <trkpt lat="44.09334" lon="3.07433">
        <ele>353.6</ele>
        <time>2018-05-19T13:24:31Z</time>
      </trkpt>
      <trkpt lat="44.09338" lon="3.07441">
        <ele>356.1</ele>
        <time>2018-05-19T13:24:32Z</time>
      </trkpt>
      <trkpt lat="44.09339" lon="3.07448">
        <ele>358.1</ele>
        <time>2018-05-19T13:24:34Z</time>
      </trkpt>
      <trkpt lat="44.09338" lon="3.07454">
        <ele>359</ele>
        <time>2018-05-19T13:24:35Z</time>
      </trkpt>
      <trkpt lat="44.09339" lon="3.07458">
        <ele>359</ele>
        <time>2018-05-19T13:24:37Z</time>
      </trkpt>
      <trkpt lat="44.09338" lon="3.07462">
        <ele>359</ele>
        <time>2018-05-19T13:24:38Z</time>
      </trkpt>
      <trkpt lat="44.09339" lon="3.07468">
        <ele>359</ele>
        <time>2018-05-19T13:24:41Z</time>
      </trkpt>
      <trkpt lat="44.09335" lon="3.07472">
        <ele>359</ele>
        <time>2018-05-19T13:24:42Z</time>
      </trkpt>
      <trkpt lat="44.09332" lon="3.07474">
        <ele>359</ele>
        <time>2018-05-19T13:24:43Z</time>
      </trkpt>
      <trkpt lat="44.0933" lon="3.07477">
        <ele>359</ele>
        <time>2018-05-19T13:24:44Z</time>
      </trkpt>
      <trkpt lat="44.09327" lon="3.0748">
        <ele>359</ele>
        <time>2018-05-19T13:24:45Z</time>
      </trkpt>
      <trkpt lat="44.09325" lon="3.07483">
        <ele>359.1</ele>
        <time>2018-05-19T13:24:46Z</time>
      </trkpt>
      <trkpt lat="44.09323" lon="3.07486">
        <ele>359.1</ele>
        <time>2018-05-19T13:24:47Z</time>
      </trkpt>
      <trkpt lat="44.0932" lon="3.07489">
        <ele>359.1</ele>
        <time>2018-05-19T13:24:48Z</time>
      </trkpt>
      <trkpt lat="44.09318" lon="3.07492">
        <ele>359.1</ele>
        <time>2018-05-19T13:24:49Z</time>
      </trkpt>
      <trkpt lat="44.09316" lon="3.07495">
        <ele>359.2</ele>
        <time>2018-05-19T13:24:50Z</time>
      </trkpt>
      <trkpt lat="44.09313" lon="3.07498">
        <ele>359.2</ele>
        <time>2018-05-19T13:24:51Z</time>
      </trkpt>
      <trkpt lat="44.0931" lon="3.07501">
        <ele>359.2</ele>
        <time>2018-05-19T13:24:52Z</time>
      </trkpt>
      <trkpt lat="44.09308" lon="3.07504">
        <ele>359.2</ele>
        <time>2018-05-19T13:24:53Z</time>
      </trkpt>
      <trkpt lat="44.09305" lon="3.07508">
        <ele>359.3</ele>
        <time>2018-05-19T13:24:54Z</time>
      </trkpt>
      <trkpt lat="44.09302" lon="3.07511">
        <ele>359.3</ele>
        <time>2018-05-19T13:24:55Z</time>
      </trkpt>
      <trkpt lat="44.09299" lon="3.07515">
        <ele>359.3</ele>
        <time>2018-05-19T13:24:56Z</time>
      </trkpt>
      <trkpt lat="44.09296" lon="3.07518">
        <ele>359.3</ele>
        <time>2018-05-19T13:24:57Z</time>
      </trkpt>
      <trkpt lat="44.09293" lon="3.07521">
        <ele>359.4</ele>
        <time>2018-05-19T13:24:58Z</time>
      </trkpt>
      <trkpt lat="44.0929" lon="3.07525">
        <ele>359.4</ele>
        <time>2018-05-19T13:24:59Z</time>
      </trkpt>
      <trkpt lat="44.09288" lon="3.07528">
        <ele>359.4</ele>
        <time>2018-05-19T13:25:00Z</time>
      </trkpt>
      <trkpt lat="44.09285" lon="3.07531">
        <ele>359.4</ele>
        <time>2018-05-19T13:25:01Z</time>
      </trkpt>
      <trkpt lat="44.09282" lon="3.07534">
        <ele>359.5</ele>
        <time>2018-05-19T13:25:02Z</time>
      </trkpt>
      <trkpt lat="44.09279" lon="3.07537">
        <ele>359.5</ele>
        <time>2018-05-19T13:25:03Z</time>
      </trkpt>
      <trkpt lat="44.09276" lon="3.07541">
        <ele>359.5</ele>
        <time>2018-05-19T13:25:04Z</time>
      </trkpt>
      <trkpt lat="44.09273" lon="3.07544">
        <ele>359.6</ele>
        <time>2018-05-19T13:25:05Z</time>
      </trkpt>
      <trkpt lat="44.0927" lon="3.07547">
        <ele>359.6</ele>
        <time>2018-05-19T13:25:06Z</time>
      </trkpt>
      <trkpt lat="44.09267" lon="3.07549">
        <ele>359.6</ele>
        <time>2018-05-19T13:25:07Z</time>
      </trkpt>
      <trkpt lat="44.09264" lon="3.07552">
        <ele>359.6</ele>
        <time>2018-05-19T13:25:08Z</time>
      </trkpt>
      <trkpt lat="44.0926" lon="3.07555">
        <ele>359.7</ele>
        <time>2018-05-19T13:25:09Z</time>
      </trkpt>
      <trkpt lat="44.09257" lon="3.07558">
        <ele>359.7</ele>
        <time>2018-05-19T13:25:10Z</time>
      </trkpt>
      <trkpt lat="44.09253" lon="3.07562">
        <ele>359.8</ele>
        <time>2018-05-19T13:25:11Z</time>
      </trkpt>
      <trkpt lat="44.09249" lon="3.07565">
        <ele>359.8</ele>
        <time>2018-05-19T13:25:12Z</time>
      </trkpt>
      <trkpt lat="44.09245" lon="3.07569">
        <ele>359.8</ele>
        <time>2018-05-19T13:25:13Z</time>
      </trkpt>
      <trkpt lat="44.09242" lon="3.07572">
        <ele>359.9</ele>
        <time>2018-05-19T13:25:14Z</time>
      </trkpt>
      <trkpt lat="44.09238" lon="3.07575">
        <ele>359.9</ele>
        <time>2018-05-19T13:25:15Z</time>
      </trkpt>
      <trkpt lat="44.09234" lon="3.07578">
        <ele>360</ele>
        <time>2018-05-19T13:25:16Z</time>
      </trkpt>
      <trkpt lat="44.0923" lon="3.07582">
        <ele>360</ele>
        <time>2018-05-19T13:25:17Z</time>
      </trkpt>
      <trkpt lat="44.09227" lon="3.07585">
        <ele>360</ele>
        <time>2018-05-19T13:25:18Z</time>
      </trkpt>
      <trkpt lat="44.09224" lon="3.07587">
        <ele>360</ele>
        <time>2018-05-19T13:25:19Z</time>
      </trkpt>
      <trkpt lat="44.09222" lon="3.07589">
        <ele>360</ele>
        <time>2018-05-19T13:25:20Z</time>
      </trkpt>
      <trkpt lat="44.09218" lon="3.07592">
        <ele>360</ele>
        <time>2018-05-19T13:25:21Z</time>
      </trkpt>
      <trkpt lat="44.09215" lon="3.07594">
        <ele>360</ele>
        <time>2018-05-19T13:25:22Z</time>
      </trkpt>
      <trkpt lat="44.09213" lon="3.07597">
        <ele>360</ele>
        <time>2018-05-19T13:25:23Z</time>
      </trkpt>
      <trkpt lat="44.0921" lon="3.07599">
        <ele>360</ele>
        <time>2018-05-19T13:25:24Z</time>
      </trkpt>
      <trkpt lat="44.09207" lon="3.07602">
        <ele>360</ele>
        <time>2018-05-19T13:25:26Z</time>
      </trkpt>
      <trkpt lat="44.09207" lon="3.07606">
        <ele>360</ele>
        <time>2018-05-19T13:25:28Z</time>
      </trkpt>
      <trkpt lat="44.09209" lon="3.07611">
        <ele>360</ele>
        <time>2018-05-19T13:25:30Z</time>
      </trkpt>
      <trkpt lat="44.09211" lon="3.07617">
        <ele>360</ele>
        <time>2018-05-19T13:25:32Z</time>
      </trkpt>
      <trkpt lat="44.0921" lon="3.07622">
        <ele>360</ele>
        <time>2018-05-19T13:25:34Z</time>
      </trkpt>
      <trkpt lat="44.09205" lon="3.07627">
        <ele>360.3</ele>
        <time>2018-05-19T13:25:36Z</time>
      </trkpt>
      <trkpt lat="44.09203" lon="3.0763">
        <ele>360.4</ele>
        <time>2018-05-19T13:25:37Z</time>
      </trkpt>
      <trkpt lat="44.092" lon="3.07634">
        <ele>360.5</ele>
        <time>2018-05-19T13:25:38Z</time>
      </trkpt>
      <trkpt lat="44.09198" lon="3.07637">
        <ele>360.6</ele>
        <time>2018-05-19T13:25:39Z</time>
      </trkpt>
      <trkpt lat="44.09196" lon="3.07639">
        <ele>360.7</ele>
        <time>2018-05-19T13:25:40Z</time>
      </trkpt>
      <trkpt lat="44.09192" lon="3.07645">
        <ele>360.9</ele>
        <time>2018-05-19T13:25:42Z</time>
      </trkpt>
      <trkpt lat="44.09189" lon="3.07649">
        <ele>361.1</ele>
        <time>2018-05-19T13:25:43Z</time>
      </trkpt>
      <trkpt lat="44.09185" lon="3.07653">
        <ele>361.2</ele>
        <time>2018-05-19T13:25:45Z</time>
      </trkpt>
      <trkpt lat="44.09183" lon="3.07656">
        <ele>361.4</ele>
        <time>2018-05-19T13:25:46Z</time>
      </trkpt>
      <trkpt lat="44.0918" lon="3.0766">
        <ele>361.6</ele>
        <time>2018-05-19T13:25:47Z</time>
      </trkpt>
      <trkpt lat="44.09176" lon="3.07663">
        <ele>362</ele>
        <time>2018-05-19T13:25:48Z</time>
      </trkpt>
      <trkpt lat="44.09172" lon="3.07666">
        <ele>362.1</ele>
        <time>2018-05-19T13:25:49Z</time>
      </trkpt>
      <trkpt lat="44.09169" lon="3.07668">
        <ele>362.2</ele>
        <time>2018-05-19T13:25:50Z</time>
      </trkpt>
      <trkpt lat="44.09165" lon="3.07672">
        <ele>362.3</ele>
        <time>2018-05-19T13:25:52Z</time>
      </trkpt>
      <trkpt lat="44.0916" lon="3.07679">
        <ele>362.6</ele>
        <time>2018-05-19T13:25:54Z</time>
      </trkpt>
      <trkpt lat="44.09158" lon="3.07683">
        <ele>362.7</ele>
        <time>2018-05-19T13:25:58Z</time>
      </trkpt>
      <trkpt lat="44.09156" lon="3.07686">
        <ele>362.8</ele>
        <time>2018-05-19T13:25:59Z</time>
      </trkpt>
      <trkpt lat="44.09154" lon="3.07693">
        <ele>362.9</ele>
        <time>2018-05-19T13:26:00Z</time>
      </trkpt>
      <trkpt lat="44.09153" lon="3.077">
        <ele>363</ele>
        <time>2018-05-19T13:26:01Z</time>
      </trkpt>
      <trkpt lat="44.09152" lon="3.07707">
        <ele>363</ele>
        <time>2018-05-19T13:26:02Z</time>
      </trkpt>
      <trkpt lat="44.09151" lon="3.07713">
        <ele>363</ele>
        <time>2018-05-19T13:26:03Z</time>
      </trkpt>
      <trkpt lat="44.0915" lon="3.07719">
        <ele>363</ele>
        <time>2018-05-19T13:26:04Z</time>
      </trkpt>
      <trkpt lat="44.09149" lon="3.07723">
        <ele>363</ele>
        <time>2018-05-19T13:26:05Z</time>
      </trkpt>
      <trkpt lat="44.09147" lon="3.07726">
        <ele>363</ele>
        <time>2018-05-19T13:26:06Z</time>
      </trkpt>
      <trkpt lat="44.09144" lon="3.07729">
        <ele>363</ele>
        <time>2018-05-19T13:26:07Z</time>
      </trkpt>
      <trkpt lat="44.09139" lon="3.07733">
        <ele>363</ele>
        <time>2018-05-19T13:26:08Z</time>
      </trkpt>
      <trkpt lat="44.09135" lon="3.07735">
        <ele>362.9</ele>
        <time>2018-05-19T13:26:09Z</time>
      </trkpt>
      <trkpt lat="44.0913" lon="3.07737">
        <ele>362.7</ele>
        <time>2018-05-19T13:26:10Z</time>
      </trkpt>
      <trkpt lat="44.09126" lon="3.07739">
        <ele>362.5</ele>
        <time>2018-05-19T13:26:11Z</time>
      </trkpt>
      <trkpt lat="44.09122" lon="3.07741">
        <ele>362.4</ele>
        <time>2018-05-19T13:26:12Z</time>
      </trkpt>
      <trkpt lat="44.09118" lon="3.07742">
        <ele>362.2</ele>
        <time>2018-05-19T13:26:13Z</time>
      </trkpt>
      <trkpt lat="44.09114" lon="3.07744">
        <ele>362.1</ele>
        <time>2018-05-19T13:26:14Z</time>
      </trkpt>
      <trkpt lat="44.09111" lon="3.07747">
        <ele>362</ele>
        <time>2018-05-19T13:26:15Z</time>
      </trkpt>
      <trkpt lat="44.09109" lon="3.0775">
        <ele>361.9</ele>
        <time>2018-05-19T13:26:16Z</time>
      </trkpt>
      <trkpt lat="44.09107" lon="3.07752">
        <ele>361.7</ele>
        <time>2018-05-19T13:26:17Z</time>
      </trkpt>
      <trkpt lat="44.09104" lon="3.07754">
        <ele>361.6</ele>
        <time>2018-05-19T13:26:21Z</time>
      </trkpt>
      <trkpt lat="44.09101" lon="3.07754">
        <ele>361.5</ele>
        <time>2018-05-19T13:26:26Z</time>
      </trkpt>
      <trkpt lat="44.09102" lon="3.07758">
        <ele>361.4</ele>
        <time>2018-05-19T13:26:39Z</time>
      </trkpt>
      <trkpt lat="44.09099" lon="3.07759">
        <ele>361.3</ele>
        <time>2018-05-19T13:26:45Z</time>
      </trkpt>
    </trkseg>
  </trk>
  <trk>
    <name><![CDATA[Trace 8]]></name>
    <desc><![CDATA[Ruisseau, village troglodyte, viaduc !]]></desc>
    <extensions>
      <line xmlns="http://www.topografix.com/GPX/gpx_style/0/2">
        <color>ff0000</color>
        <width>4</width>
          <extensions>
            <sens>1</sens>
          </extensions>
      </line>
    </extensions>
    <trkseg>
      <trkpt lat="44.18632" lon="3.12743">
        <ele>412</ele>
        <time>2022-04-05T15:54:44Z</time>
      </trkpt>
      <trkpt lat="44.18632" lon="3.12743">
        <ele>412</ele>
        <time>2022-04-05T15:54:43Z</time>
      </trkpt>
      <trkpt lat="44.18634" lon="3.12743">
        <ele>411.8</ele>
        <time>2022-04-05T15:54:42Z</time>
      </trkpt>
      <trkpt lat="44.18635" lon="3.12744">
        <ele>411.8</ele>
        <time>2022-04-05T15:54:41Z</time>
      </trkpt>
      <trkpt lat="44.18636" lon="3.12747">
        <ele>411.8</ele>
        <time>2022-04-05T15:54:40Z</time>
      </trkpt>
      <trkpt lat="44.18637" lon="3.1275">
        <ele>411.6</ele>
        <time>2022-04-05T15:54:39Z</time>
      </trkpt>
      <trkpt lat="44.18637" lon="3.12754">
        <ele>411.2</ele>
        <time>2022-04-05T15:54:38Z</time>
      </trkpt>
      <trkpt lat="44.18638" lon="3.12757">
        <ele>411.2</ele>
        <time>2022-04-05T15:54:37Z</time>
      </trkpt>
      <trkpt lat="44.18638" lon="3.1276">
        <ele>410.8</ele>
        <time>2022-04-05T15:54:36Z</time>
      </trkpt>
      <trkpt lat="44.18639" lon="3.12764">
        <ele>410.8</ele>
        <time>2022-04-05T15:54:35Z</time>
      </trkpt>
      <trkpt lat="44.1864" lon="3.12768">
        <ele>410.6</ele>
        <time>2022-04-05T15:54:34Z</time>
      </trkpt>
      <trkpt lat="44.1864" lon="3.12772">
        <ele>410.4</ele>
        <time>2022-04-05T15:54:33Z</time>
      </trkpt>
      <trkpt lat="44.18639" lon="3.12776">
        <ele>410.2</ele>
        <time>2022-04-05T15:54:32Z</time>
      </trkpt>
      <trkpt lat="44.18638" lon="3.1278">
        <ele>410</ele>
        <time>2022-04-05T15:54:31Z</time>
      </trkpt>
      <trkpt lat="44.18636" lon="3.12784">
        <ele>409.8</ele>
        <time>2022-04-05T15:54:30Z</time>
      </trkpt>
      <trkpt lat="44.18634" lon="3.12787">
        <ele>409.6</ele>
        <time>2022-04-05T15:54:29Z</time>
      </trkpt>
      <trkpt lat="44.18632" lon="3.12791">
        <ele>409.4</ele>
        <time>2022-04-05T15:54:28Z</time>
      </trkpt>
      <trkpt lat="44.18629" lon="3.12794">
        <ele>409.2</ele>
        <time>2022-04-05T15:54:27Z</time>
      </trkpt>
      <trkpt lat="44.18627" lon="3.12797">
        <ele>409.2</ele>
        <time>2022-04-05T15:54:26Z</time>
      </trkpt>
      <trkpt lat="44.18625" lon="3.12799">
        <ele>409</ele>
        <time>2022-04-05T15:54:25Z</time>
      </trkpt>
      <trkpt lat="44.18622" lon="3.12803">
        <ele>408.8</ele>
        <time>2022-04-05T15:54:24Z</time>
      </trkpt>
      <trkpt lat="44.1862" lon="3.12805">
        <ele>408.8</ele>
        <time>2022-04-05T15:54:23Z</time>
      </trkpt>
      <trkpt lat="44.18617" lon="3.12808">
        <ele>409</ele>
        <time>2022-04-05T15:54:22Z</time>
      </trkpt>
      <trkpt lat="44.18614" lon="3.1281">
        <ele>408.8</ele>
        <time>2022-04-05T15:54:21Z</time>
      </trkpt>
      <trkpt lat="44.1861" lon="3.12812">
        <ele>408.8</ele>
        <time>2022-04-05T15:54:20Z</time>
      </trkpt>
      <trkpt lat="44.18606" lon="3.12812">
        <ele>408.8</ele>
        <time>2022-04-05T15:54:19Z</time>
      </trkpt>
      <trkpt lat="44.18602" lon="3.12811">
        <ele>408.8</ele>
        <time>2022-04-05T15:54:18Z</time>
      </trkpt>
      <trkpt lat="44.18598" lon="3.1281">
        <ele>408.8</ele>
        <time>2022-04-05T15:54:17Z</time>
      </trkpt>
      <trkpt lat="44.18594" lon="3.1281">
        <ele>408.8</ele>
        <time>2022-04-05T15:54:16Z</time>
      </trkpt>
      <trkpt lat="44.18591" lon="3.12812">
        <ele>408.8</ele>
        <time>2022-04-05T15:54:15Z</time>
      </trkpt>
      <trkpt lat="44.18588" lon="3.12816">
        <ele>408.8</ele>
        <time>2022-04-05T15:54:14Z</time>
      </trkpt>
      <trkpt lat="44.18586" lon="3.12821">
        <ele>408.8</ele>
        <time>2022-04-05T15:54:13Z</time>
      </trkpt>
      <trkpt lat="44.18584" lon="3.12827">
        <ele>409</ele>
        <time>2022-04-05T15:54:12Z</time>
      </trkpt>
      <trkpt lat="44.18585" lon="3.12833">
        <ele>409</ele>
        <time>2022-04-05T15:54:11Z</time>
      </trkpt>
      <trkpt lat="44.18586" lon="3.12838">
        <ele>409</ele>
        <time>2022-04-05T15:54:10Z</time>
      </trkpt>
      <trkpt lat="44.1859" lon="3.12842">
        <ele>409</ele>
        <time>2022-04-05T15:54:09Z</time>
      </trkpt>
      <trkpt lat="44.18594" lon="3.12845">
        <ele>409</ele>
        <time>2022-04-05T15:54:08Z</time>
      </trkpt>
      <trkpt lat="44.18598" lon="3.12848">
        <ele>409</ele>
        <time>2022-04-05T15:54:07Z</time>
      </trkpt>
      <trkpt lat="44.18601" lon="3.12852">
        <ele>409</ele>
        <time>2022-04-05T15:54:06Z</time>
      </trkpt>
      <trkpt lat="44.18605" lon="3.12855">
        <ele>409</ele>
        <time>2022-04-05T15:54:05Z</time>
      </trkpt>
      <trkpt lat="44.18609" lon="3.12858">
        <ele>409</ele>
        <time>2022-04-05T15:54:04Z</time>
      </trkpt>
      <trkpt lat="44.18613" lon="3.12861">
        <ele>409</ele>
        <time>2022-04-05T15:54:03Z</time>
      </trkpt>
      <trkpt lat="44.18618" lon="3.12865">
        <ele>409</ele>
        <time>2022-04-05T15:54:02Z</time>
      </trkpt>
      <trkpt lat="44.18622" lon="3.12868">
        <ele>409</ele>
        <time>2022-04-05T15:54:01Z</time>
      </trkpt>
      <trkpt lat="44.18626" lon="3.12871">
        <ele>409</ele>
        <time>2022-04-05T15:54:00Z</time>
      </trkpt>
      <trkpt lat="44.18629" lon="3.12874">
        <ele>409</ele>
        <time>2022-04-05T15:53:59Z</time>
      </trkpt>
      <trkpt lat="44.18633" lon="3.12878">
        <ele>409</ele>
        <time>2022-04-05T15:53:58Z</time>
      </trkpt>
      <trkpt lat="44.18637" lon="3.12881">
        <ele>409</ele>
        <time>2022-04-05T15:53:57Z</time>
      </trkpt>
      <trkpt lat="44.18641" lon="3.12884">
        <ele>409</ele>
        <time>2022-04-05T15:53:56Z</time>
      </trkpt>
      <trkpt lat="44.18645" lon="3.12887">
        <ele>409</ele>
        <time>2022-04-05T15:53:55Z</time>
      </trkpt>
      <trkpt lat="44.18649" lon="3.12891">
        <ele>409</ele>
        <time>2022-04-05T15:53:54Z</time>
      </trkpt>
      <trkpt lat="44.18653" lon="3.12894">
        <ele>409</ele>
        <time>2022-04-05T15:53:53Z</time>
      </trkpt>
      <trkpt lat="44.18656" lon="3.12897">
        <ele>408.8</ele>
        <time>2022-04-05T15:53:52Z</time>
      </trkpt>
      <trkpt lat="44.1866" lon="3.129">
        <ele>408.8</ele>
        <time>2022-04-05T15:53:51Z</time>
      </trkpt>
      <trkpt lat="44.18663" lon="3.12903">
        <ele>408.8</ele>
        <time>2022-04-05T15:53:50Z</time>
      </trkpt>
      <trkpt lat="44.18666" lon="3.12906">
        <ele>408.8</ele>
        <time>2022-04-05T15:53:49Z</time>
      </trkpt>
      <trkpt lat="44.18668" lon="3.1291">
        <ele>408.8</ele>
        <time>2022-04-05T15:53:48Z</time>
      </trkpt>
      <trkpt lat="44.18669" lon="3.12913">
        <ele>408.6</ele>
        <time>2022-04-05T15:53:47Z</time>
      </trkpt>
      <trkpt lat="44.1867" lon="3.12916">
        <ele>408.6</ele>
        <time>2022-04-05T15:53:46Z</time>
      </trkpt>
      <trkpt lat="44.18669" lon="3.12918">
        <ele>408.6</ele>
        <time>2022-04-05T15:53:45Z</time>
      </trkpt>
      <trkpt lat="44.18667" lon="3.12922">
        <ele>408.2</ele>
        <time>2022-04-05T15:53:43Z</time>
      </trkpt>
      <trkpt lat="44.18666" lon="3.12924">
        <ele>408</ele>
        <time>2022-04-05T15:53:42Z</time>
      </trkpt>
      <trkpt lat="44.18664" lon="3.12926">
        <ele>407.8</ele>
        <time>2022-04-05T15:53:41Z</time>
      </trkpt>
      <trkpt lat="44.18662" lon="3.12929">
        <ele>407.6</ele>
        <time>2022-04-05T15:53:40Z</time>
      </trkpt>
      <trkpt lat="44.1866" lon="3.12931">
        <ele>407.6</ele>
        <time>2022-04-05T15:53:39Z</time>
      </trkpt>
      <trkpt lat="44.18658" lon="3.12934">
        <ele>407.4</ele>
        <time>2022-04-05T15:53:38Z</time>
      </trkpt>
      <trkpt lat="44.18655" lon="3.12936">
        <ele>407.4</ele>
        <time>2022-04-05T15:53:37Z</time>
      </trkpt>
      <trkpt lat="44.18653" lon="3.12938">
        <ele>407.2</ele>
        <time>2022-04-05T15:53:36Z</time>
      </trkpt>
      <trkpt lat="44.18651" lon="3.1294">
        <ele>407.2</ele>
        <time>2022-04-05T15:53:35Z</time>
      </trkpt>
      <trkpt lat="44.18648" lon="3.12942">
        <ele>406.8</ele>
        <time>2022-04-05T15:53:34Z</time>
      </trkpt>
      <trkpt lat="44.18646" lon="3.12944">
        <ele>407</ele>
        <time>2022-04-05T15:53:33Z</time>
      </trkpt>
      <trkpt lat="44.18643" lon="3.12947">
        <ele>406.6</ele>
        <time>2022-04-05T15:53:32Z</time>
      </trkpt>
      <trkpt lat="44.18641" lon="3.12949">
        <ele>406.4</ele>
        <time>2022-04-05T15:53:31Z</time>
      </trkpt>
      <trkpt lat="44.18639" lon="3.12951">
        <ele>406.2</ele>
        <time>2022-04-05T15:53:30Z</time>
      </trkpt>
      <trkpt lat="44.18637" lon="3.12953">
        <ele>406.2</ele>
        <time>2022-04-05T15:53:29Z</time>
      </trkpt>
      <trkpt lat="44.18635" lon="3.12955">
        <ele>406</ele>
        <time>2022-04-05T15:53:28Z</time>
      </trkpt>
      <trkpt lat="44.18632" lon="3.12958">
        <ele>405.8</ele>
        <time>2022-04-05T15:53:27Z</time>
      </trkpt>
      <trkpt lat="44.1863" lon="3.1296">
        <ele>405.8</ele>
        <time>2022-04-05T15:53:26Z</time>
      </trkpt>
      <trkpt lat="44.18628" lon="3.12962">
        <ele>405.6</ele>
        <time>2022-04-05T15:53:25Z</time>
      </trkpt>
      <trkpt lat="44.18626" lon="3.12965">
        <ele>405.4</ele>
        <time>2022-04-05T15:53:24Z</time>
      </trkpt>
      <trkpt lat="44.18623" lon="3.12967">
        <ele>405.4</ele>
        <time>2022-04-05T15:53:23Z</time>
      </trkpt>
      <trkpt lat="44.18621" lon="3.12969">
        <ele>405.2</ele>
        <time>2022-04-05T15:53:22Z</time>
      </trkpt>
      <trkpt lat="44.18619" lon="3.12971">
        <ele>405</ele>
        <time>2022-04-05T15:53:21Z</time>
      </trkpt>
      <trkpt lat="44.18616" lon="3.12973">
        <ele>405</ele>
        <time>2022-04-05T15:53:20Z</time>
      </trkpt>
      <trkpt lat="44.18614" lon="3.12975">
        <ele>404.8</ele>
        <time>2022-04-05T15:53:19Z</time>
      </trkpt>
      <trkpt lat="44.18612" lon="3.12977">
        <ele>404.8</ele>
        <time>2022-04-05T15:53:18Z</time>
      </trkpt>
      <trkpt lat="44.18609" lon="3.12979">
        <ele>404.6</ele>
        <time>2022-04-05T15:53:17Z</time>
      </trkpt>
      <trkpt lat="44.18607" lon="3.12981">
        <ele>404.6</ele>
        <time>2022-04-05T15:53:16Z</time>
      </trkpt>
      <trkpt lat="44.18605" lon="3.12984">
        <ele>404.4</ele>
        <time>2022-04-05T15:53:15Z</time>
      </trkpt>
      <trkpt lat="44.18603" lon="3.12986">
        <ele>404.4</ele>
        <time>2022-04-05T15:53:14Z</time>
      </trkpt>
      <trkpt lat="44.18601" lon="3.12989">
        <ele>404.2</ele>
        <time>2022-04-05T15:53:13Z</time>
      </trkpt>
      <trkpt lat="44.18599" lon="3.12991">
        <ele>404.2</ele>
        <time>2022-04-05T15:53:12Z</time>
      </trkpt>
      <trkpt lat="44.18596" lon="3.12994">
        <ele>404</ele>
        <time>2022-04-05T15:53:11Z</time>
      </trkpt>
      <trkpt lat="44.18594" lon="3.12996">
        <ele>403.8</ele>
        <time>2022-04-05T15:53:10Z</time>
      </trkpt>
      <trkpt lat="44.18592" lon="3.12999">
        <ele>403.8</ele>
        <time>2022-04-05T15:53:09Z</time>
      </trkpt>
      <trkpt lat="44.1859" lon="3.13001">
        <ele>403.4</ele>
        <time>2022-04-05T15:53:08Z</time>
      </trkpt>
      <trkpt lat="44.18587" lon="3.13003">
        <ele>403.4</ele>
        <time>2022-04-05T15:53:07Z</time>
      </trkpt>
      <trkpt lat="44.18585" lon="3.13006">
        <ele>403</ele>
        <time>2022-04-05T15:53:06Z</time>
      </trkpt>
      <trkpt lat="44.18583" lon="3.13009">
        <ele>402.8</ele>
        <time>2022-04-05T15:53:05Z</time>
      </trkpt>
      <trkpt lat="44.18581" lon="3.13012">
        <ele>402.8</ele>
        <time>2022-04-05T15:53:04Z</time>
      </trkpt>
      <trkpt lat="44.1858" lon="3.13015">
        <ele>402.6</ele>
        <time>2022-04-05T15:53:03Z</time>
      </trkpt>
      <trkpt lat="44.18578" lon="3.13018">
        <ele>402.6</ele>
        <time>2022-04-05T15:53:02Z</time>
      </trkpt>
      <trkpt lat="44.18576" lon="3.13021">
        <ele>402.4</ele>
        <time>2022-04-05T15:53:01Z</time>
      </trkpt>
      <trkpt lat="44.18574" lon="3.13024">
        <ele>402.4</ele>
        <time>2022-04-05T15:53:00Z</time>
      </trkpt>
      <trkpt lat="44.18572" lon="3.13027">
        <ele>402.2</ele>
        <time>2022-04-05T15:52:59Z</time>
      </trkpt>
      <trkpt lat="44.1857" lon="3.1303">
        <ele>402.2</ele>
        <time>2022-04-05T15:52:58Z</time>
      </trkpt>
      <trkpt lat="44.18568" lon="3.13033">
        <ele>402</ele>
        <time>2022-04-05T15:52:57Z</time>
      </trkpt>
      <trkpt lat="44.18566" lon="3.13037">
        <ele>402</ele>
        <time>2022-04-05T15:52:56Z</time>
      </trkpt>
      <trkpt lat="44.18565" lon="3.1304">
        <ele>402</ele>
        <time>2022-04-05T15:52:55Z</time>
      </trkpt>
      <trkpt lat="44.18563" lon="3.13043">
        <ele>402</ele>
        <time>2022-04-05T15:52:54Z</time>
      </trkpt>
      <trkpt lat="44.18562" lon="3.13046">
        <ele>402</ele>
        <time>2022-04-05T15:52:53Z</time>
      </trkpt>
      <trkpt lat="44.1856" lon="3.13049">
        <ele>401.8</ele>
        <time>2022-04-05T15:52:52Z</time>
      </trkpt>
      <trkpt lat="44.18558" lon="3.13052">
        <ele>401.8</ele>
        <time>2022-04-05T15:52:51Z</time>
      </trkpt>
      <trkpt lat="44.18557" lon="3.13055">
        <ele>401.8</ele>
        <time>2022-04-05T15:52:50Z</time>
      </trkpt>
      <trkpt lat="44.18555" lon="3.13058">
        <ele>401.8</ele>
        <time>2022-04-05T15:52:49Z</time>
      </trkpt>
      <trkpt lat="44.18553" lon="3.13059">
        <ele>402</ele>
        <time>2022-04-05T15:52:48Z</time>
      </trkpt>
      <trkpt lat="44.18549" lon="3.13059">
        <ele>402.2</ele>
        <time>2022-04-05T15:52:47Z</time>
      </trkpt>
      <trkpt lat="44.18546" lon="3.13056">
        <ele>402</ele>
        <time>2022-04-05T15:52:46Z</time>
      </trkpt>
      <trkpt lat="44.18543" lon="3.13054">
        <ele>402</ele>
        <time>2022-04-05T15:52:45Z</time>
      </trkpt>
      <trkpt lat="44.1854" lon="3.13051">
        <ele>402</ele>
        <time>2022-04-05T15:52:44Z</time>
      </trkpt>
      <trkpt lat="44.18537" lon="3.13049">
        <ele>402</ele>
        <time>2022-04-05T15:52:43Z</time>
      </trkpt>
      <trkpt lat="44.18534" lon="3.13046">
        <ele>402</ele>
        <time>2022-04-05T15:52:42Z</time>
      </trkpt>
      <trkpt lat="44.18531" lon="3.13043">
        <ele>401.8</ele>
        <time>2022-04-05T15:52:41Z</time>
      </trkpt>
      <trkpt lat="44.18527" lon="3.13039">
        <ele>401.8</ele>
        <time>2022-04-05T15:52:40Z</time>
      </trkpt>
      <trkpt lat="44.18524" lon="3.13035">
        <ele>401.6</ele>
        <time>2022-04-05T15:52:39Z</time>
      </trkpt>
      <trkpt lat="44.18521" lon="3.13031">
        <ele>401.6</ele>
        <time>2022-04-05T15:52:38Z</time>
      </trkpt>
      <trkpt lat="44.18517" lon="3.13027">
        <ele>401.4</ele>
        <time>2022-04-05T15:52:37Z</time>
      </trkpt>
      <trkpt lat="44.18513" lon="3.13022">
        <ele>401.4</ele>
        <time>2022-04-05T15:52:36Z</time>
      </trkpt>
      <trkpt lat="44.1851" lon="3.13017">
        <ele>401.4</ele>
        <time>2022-04-05T15:52:35Z</time>
      </trkpt>
      <trkpt lat="44.18506" lon="3.13012">
        <ele>401.4</ele>
        <time>2022-04-05T15:52:34Z</time>
      </trkpt>
      <trkpt lat="44.18502" lon="3.13006">
        <ele>401.2</ele>
        <time>2022-04-05T15:52:33Z</time>
      </trkpt>
      <trkpt lat="44.18499" lon="3.13003">
        <ele>401.2</ele>
        <time>2022-04-05T15:52:32Z</time>
      </trkpt>
      <trkpt lat="44.18495" lon="3.13">
        <ele>401.2</ele>
        <time>2022-04-05T15:52:31Z</time>
      </trkpt>
      <trkpt lat="44.18491" lon="3.12999">
        <ele>401.4</ele>
        <time>2022-04-05T15:52:30Z</time>
      </trkpt>
      <trkpt lat="44.18488" lon="3.12997">
        <ele>401.4</ele>
        <time>2022-04-05T15:52:29Z</time>
      </trkpt>
      <trkpt lat="44.18485" lon="3.12995">
        <ele>401.2</ele>
        <time>2022-04-05T15:52:28Z</time>
      </trkpt>
      <trkpt lat="44.18481" lon="3.12993">
        <ele>401.2</ele>
        <time>2022-04-05T15:52:27Z</time>
      </trkpt>
      <trkpt lat="44.18477" lon="3.1299">
        <ele>401</ele>
        <time>2022-04-05T15:52:26Z</time>
      </trkpt>
      <trkpt lat="44.18472" lon="3.12988">
        <ele>400.8</ele>
        <time>2022-04-05T15:52:25Z</time>
      </trkpt>
      <trkpt lat="44.18469" lon="3.12986">
        <ele>400.8</ele>
        <time>2022-04-05T15:52:24Z</time>
      </trkpt>
      <trkpt lat="44.18465" lon="3.12983">
        <ele>400.8</ele>
        <time>2022-04-05T15:52:23Z</time>
      </trkpt>
      <trkpt lat="44.18462" lon="3.1298">
        <ele>401</ele>
        <time>2022-04-05T15:52:22Z</time>
      </trkpt>
      <trkpt lat="44.18459" lon="3.12977">
        <ele>401</ele>
        <time>2022-04-05T15:52:21Z</time>
      </trkpt>
      <trkpt lat="44.18456" lon="3.12973">
        <ele>401</ele>
        <time>2022-04-05T15:52:20Z</time>
      </trkpt>
      <trkpt lat="44.18453" lon="3.1297">
        <ele>401</ele>
        <time>2022-04-05T15:52:19Z</time>
      </trkpt>
      <trkpt lat="44.1845" lon="3.12967">
        <ele>401</ele>
        <time>2022-04-05T15:52:18Z</time>
      </trkpt>
      <trkpt lat="44.18447" lon="3.12964">
        <ele>401</ele>
        <time>2022-04-05T15:52:17Z</time>
      </trkpt>
      <trkpt lat="44.18444" lon="3.1296">
        <ele>401.2</ele>
        <time>2022-04-05T15:52:16Z</time>
      </trkpt>
      <trkpt lat="44.18442" lon="3.12956">
        <ele>401.2</ele>
        <time>2022-04-05T15:52:15Z</time>
      </trkpt>
      <trkpt lat="44.18439" lon="3.12952">
        <ele>401.2</ele>
        <time>2022-04-05T15:52:14Z</time>
      </trkpt>
      <trkpt lat="44.18436" lon="3.12948">
        <ele>401.2</ele>
        <time>2022-04-05T15:52:13Z</time>
      </trkpt>
      <trkpt lat="44.18434" lon="3.12945">
        <ele>401.4</ele>
        <time>2022-04-05T15:52:12Z</time>
      </trkpt>
      <trkpt lat="44.18431" lon="3.12941">
        <ele>401.4</ele>
        <time>2022-04-05T15:52:11Z</time>
      </trkpt>
      <trkpt lat="44.18428" lon="3.12937">
        <ele>401.4</ele>
        <time>2022-04-05T15:52:10Z</time>
      </trkpt>
      <trkpt lat="44.18425" lon="3.12932">
        <ele>401.4</ele>
        <time>2022-04-05T15:52:09Z</time>
      </trkpt>
      <trkpt lat="44.18422" lon="3.12929">
        <ele>401.6</ele>
        <time>2022-04-05T15:52:08Z</time>
      </trkpt>
      <trkpt lat="44.18419" lon="3.12924">
        <ele>401.6</ele>
        <time>2022-04-05T15:52:07Z</time>
      </trkpt>
      <trkpt lat="44.18415" lon="3.12919">
        <ele>401.8</ele>
        <time>2022-04-05T15:52:06Z</time>
      </trkpt>
      <trkpt lat="44.18412" lon="3.12916">
        <ele>401.8</ele>
        <time>2022-04-05T15:52:05Z</time>
      </trkpt>
      <trkpt lat="44.18409" lon="3.12912">
        <ele>401.8</ele>
        <time>2022-04-05T15:52:04Z</time>
      </trkpt>
      <trkpt lat="44.18406" lon="3.12908">
        <ele>402</ele>
        <time>2022-04-05T15:52:03Z</time>
      </trkpt>
      <trkpt lat="44.18403" lon="3.12905">
        <ele>402</ele>
        <time>2022-04-05T15:52:02Z</time>
      </trkpt>
      <trkpt lat="44.184" lon="3.12902">
        <ele>402</ele>
        <time>2022-04-05T15:52:01Z</time>
      </trkpt>
      <trkpt lat="44.18397" lon="3.12899">
        <ele>402</ele>
        <time>2022-04-05T15:52:00Z</time>
      </trkpt>
      <trkpt lat="44.18395" lon="3.12896">
        <ele>402</ele>
        <time>2022-04-05T15:51:59Z</time>
      </trkpt>
      <trkpt lat="44.18393" lon="3.12892">
        <ele>402</ele>
        <time>2022-04-05T15:51:58Z</time>
      </trkpt>
      <trkpt lat="44.18391" lon="3.12889">
        <ele>402</ele>
        <time>2022-04-05T15:51:57Z</time>
      </trkpt>
      <trkpt lat="44.18389" lon="3.12885">
        <ele>402</ele>
        <time>2022-04-05T15:51:56Z</time>
      </trkpt>
      <trkpt lat="44.18386" lon="3.12883">
        <ele>401.8</ele>
        <time>2022-04-05T15:51:55Z</time>
      </trkpt>
      <trkpt lat="44.18383" lon="3.1288">
        <ele>401.8</ele>
        <time>2022-04-05T15:51:54Z</time>
      </trkpt>
      <trkpt lat="44.1838" lon="3.12876">
        <ele>401.6</ele>
        <time>2022-04-05T15:51:53Z</time>
      </trkpt>
      <trkpt lat="44.18376" lon="3.12872">
        <ele>401.6</ele>
        <time>2022-04-05T15:51:52Z</time>
      </trkpt>
      <trkpt lat="44.18372" lon="3.12867">
        <ele>401.2</ele>
        <time>2022-04-05T15:51:51Z</time>
      </trkpt>
      <trkpt lat="44.18368" lon="3.12863">
        <ele>401.4</ele>
        <time>2022-04-05T15:51:50Z</time>
      </trkpt>
      <trkpt lat="44.18365" lon="3.12861">
        <ele>401.2</ele>
        <time>2022-04-05T15:51:49Z</time>
      </trkpt>
      <trkpt lat="44.18361" lon="3.12856">
        <ele>400.8</ele>
        <time>2022-04-05T15:51:48Z</time>
      </trkpt>
      <trkpt lat="44.18358" lon="3.12852">
        <ele>400.8</ele>
        <time>2022-04-05T15:51:47Z</time>
      </trkpt>
      <trkpt lat="44.18354" lon="3.12848">
        <ele>400.6</ele>
        <time>2022-04-05T15:51:46Z</time>
      </trkpt>
      <trkpt lat="44.18351" lon="3.12846">
        <ele>400.6</ele>
        <time>2022-04-05T15:51:45Z</time>
      </trkpt>
      <trkpt lat="44.18348" lon="3.12843">
        <ele>400.4</ele>
        <time>2022-04-05T15:51:44Z</time>
      </trkpt>
      <trkpt lat="44.18344" lon="3.1284">
        <ele>400.4</ele>
        <time>2022-04-05T15:51:43Z</time>
      </trkpt>
      <trkpt lat="44.18341" lon="3.12838">
        <ele>400.4</ele>
        <time>2022-04-05T15:51:42Z</time>
      </trkpt>
      <trkpt lat="44.18338" lon="3.12836">
        <ele>400.4</ele>
        <time>2022-04-05T15:51:41Z</time>
      </trkpt>
      <trkpt lat="44.18335" lon="3.12833">
        <ele>400.2</ele>
        <time>2022-04-05T15:51:40Z</time>
      </trkpt>
      <trkpt lat="44.1833" lon="3.12829">
        <ele>400</ele>
        <time>2022-04-05T15:51:39Z</time>
      </trkpt>
      <trkpt lat="44.18327" lon="3.12826">
        <ele>400</ele>
        <time>2022-04-05T15:51:38Z</time>
      </trkpt>
      <trkpt lat="44.18323" lon="3.12823">
        <ele>399.8</ele>
        <time>2022-04-05T15:51:37Z</time>
      </trkpt>
      <trkpt lat="44.18321" lon="3.1282">
        <ele>399.8</ele>
        <time>2022-04-05T15:51:36Z</time>
      </trkpt>
      <trkpt lat="44.18319" lon="3.12817">
        <ele>399.8</ele>
        <time>2022-04-05T15:51:35Z</time>
      </trkpt>
      <trkpt lat="44.18316" lon="3.12814">
        <ele>399.8</ele>
        <time>2022-04-05T15:51:34Z</time>
      </trkpt>
      <trkpt lat="44.18311" lon="3.1281">
        <ele>399.8</ele>
        <time>2022-04-05T15:51:33Z</time>
      </trkpt>
      <trkpt lat="44.18309" lon="3.12808">
        <ele>399.6</ele>
        <time>2022-04-05T15:51:32Z</time>
      </trkpt>
      <trkpt lat="44.18305" lon="3.12805">
        <ele>399.6</ele>
        <time>2022-04-05T15:51:31Z</time>
      </trkpt>
      <trkpt lat="44.18303" lon="3.12803">
        <ele>399.6</ele>
        <time>2022-04-05T15:51:30Z</time>
      </trkpt>
      <trkpt lat="44.18299" lon="3.12802">
        <ele>399.6</ele>
        <time>2022-04-05T15:51:29Z</time>
      </trkpt>
      <trkpt lat="44.18295" lon="3.12798">
        <ele>399.6</ele>
        <time>2022-04-05T15:51:28Z</time>
      </trkpt>
      <trkpt lat="44.18292" lon="3.12796">
        <ele>399.6</ele>
        <time>2022-04-05T15:51:27Z</time>
      </trkpt>
      <trkpt lat="44.18287" lon="3.12793">
        <ele>399.6</ele>
        <time>2022-04-05T15:51:26Z</time>
      </trkpt>
      <trkpt lat="44.18284" lon="3.1279">
        <ele>399.8</ele>
        <time>2022-04-05T15:51:25Z</time>
      </trkpt>
      <trkpt lat="44.18281" lon="3.12788">
        <ele>399.8</ele>
        <time>2022-04-05T15:51:24Z</time>
      </trkpt>
      <trkpt lat="44.18277" lon="3.12787">
        <ele>400</ele>
        <time>2022-04-05T15:51:23Z</time>
      </trkpt>
      <trkpt lat="44.18273" lon="3.12784">
        <ele>400.2</ele>
        <time>2022-04-05T15:51:22Z</time>
      </trkpt>
      <trkpt lat="44.1827" lon="3.12781">
        <ele>400.4</ele>
        <time>2022-04-05T15:51:21Z</time>
      </trkpt>
      <trkpt lat="44.18266" lon="3.12777">
        <ele>400.6</ele>
        <time>2022-04-05T15:51:20Z</time>
      </trkpt>
      <trkpt lat="44.18263" lon="3.12774">
        <ele>400.8</ele>
        <time>2022-04-05T15:51:19Z</time>
      </trkpt>
      <trkpt lat="44.1826" lon="3.12771">
        <ele>401</ele>
        <time>2022-04-05T15:51:18Z</time>
      </trkpt>
      <trkpt lat="44.18256" lon="3.12768">
        <ele>401</ele>
        <time>2022-04-05T15:51:17Z</time>
      </trkpt>
      <trkpt lat="44.18253" lon="3.12765">
        <ele>401.2</ele>
        <time>2022-04-05T15:51:16Z</time>
      </trkpt>
      <trkpt lat="44.18248" lon="3.12761">
        <ele>401.2</ele>
        <time>2022-04-05T15:51:15Z</time>
      </trkpt>
      <trkpt lat="44.18243" lon="3.12757">
        <ele>401.2</ele>
        <time>2022-04-05T15:51:14Z</time>
      </trkpt>
      <trkpt lat="44.18239" lon="3.12754">
        <ele>401.4</ele>
        <time>2022-04-05T15:51:13Z</time>
      </trkpt>
      <trkpt lat="44.18236" lon="3.1275">
        <ele>401.4</ele>
        <time>2022-04-05T15:51:12Z</time>
      </trkpt>
      <trkpt lat="44.18234" lon="3.12748">
        <ele>401.4</ele>
        <time>2022-04-05T15:51:11Z</time>
      </trkpt>
      <trkpt lat="44.18231" lon="3.12746">
        <ele>401.4</ele>
        <time>2022-04-05T15:51:10Z</time>
      </trkpt>
      <trkpt lat="44.18229" lon="3.12744">
        <ele>401.2</ele>
        <time>2022-04-05T15:51:09Z</time>
      </trkpt>
      <trkpt lat="44.18226" lon="3.12743">
        <ele>401.4</ele>
        <time>2022-04-05T15:51:08Z</time>
      </trkpt>
      <trkpt lat="44.18223" lon="3.12741">
        <ele>401.4</ele>
        <time>2022-04-05T15:51:07Z</time>
      </trkpt>
      <trkpt lat="44.18221" lon="3.12738">
        <ele>401.6</ele>
        <time>2022-04-05T15:51:06Z</time>
      </trkpt>
      <trkpt lat="44.18217" lon="3.12735">
        <ele>401.6</ele>
        <time>2022-04-05T15:51:05Z</time>
      </trkpt>
      <trkpt lat="44.18214" lon="3.12733">
        <ele>401.4</ele>
        <time>2022-04-05T15:51:04Z</time>
      </trkpt>
      <trkpt lat="44.18212" lon="3.12731">
        <ele>401.4</ele>
        <time>2022-04-05T15:51:03Z</time>
      </trkpt>
      <trkpt lat="44.18209" lon="3.12729">
        <ele>401.4</ele>
        <time>2022-04-05T15:51:02Z</time>
      </trkpt>
      <trkpt lat="44.18207" lon="3.12728">
        <ele>401.4</ele>
        <time>2022-04-05T15:51:01Z</time>
      </trkpt>
      <trkpt lat="44.18205" lon="3.12726">
        <ele>401.4</ele>
        <time>2022-04-05T15:51:00Z</time>
      </trkpt>
      <trkpt lat="44.18201" lon="3.12723">
        <ele>401.4</ele>
        <time>2022-04-05T15:50:59Z</time>
      </trkpt>
      <trkpt lat="44.18197" lon="3.12722">
        <ele>401.4</ele>
        <time>2022-04-05T15:50:58Z</time>
      </trkpt>
      <trkpt lat="44.18194" lon="3.1272">
        <ele>401.4</ele>
        <time>2022-04-05T15:50:57Z</time>
      </trkpt>
      <trkpt lat="44.18191" lon="3.12718">
        <ele>401.4</ele>
        <time>2022-04-05T15:50:56Z</time>
      </trkpt>
      <trkpt lat="44.18187" lon="3.12715">
        <ele>401.4</ele>
        <time>2022-04-05T15:50:55Z</time>
      </trkpt>
      <trkpt lat="44.18184" lon="3.12712">
        <ele>401.4</ele>
        <time>2022-04-05T15:50:54Z</time>
      </trkpt>
      <trkpt lat="44.18181" lon="3.12711">
        <ele>401</ele>
        <time>2022-04-05T15:50:53Z</time>
      </trkpt>
      <trkpt lat="44.18178" lon="3.1271">
        <ele>401</ele>
        <time>2022-04-05T15:50:52Z</time>
      </trkpt>
      <trkpt lat="44.18174" lon="3.12708">
        <ele>401</ele>
        <time>2022-04-05T15:50:51Z</time>
      </trkpt>
      <trkpt lat="44.1817" lon="3.12706">
        <ele>401</ele>
        <time>2022-04-05T15:50:50Z</time>
      </trkpt>
      <trkpt lat="44.18166" lon="3.12704">
        <ele>400.8</ele>
        <time>2022-04-05T15:50:49Z</time>
      </trkpt>
      <trkpt lat="44.18162" lon="3.12703">
        <ele>400.8</ele>
        <time>2022-04-05T15:50:48Z</time>
      </trkpt>
      <trkpt lat="44.18156" lon="3.12701">
        <ele>400.6</ele>
        <time>2022-04-05T15:50:47Z</time>
      </trkpt>
      <trkpt lat="44.18154" lon="3.127">
        <ele>400.6</ele>
        <time>2022-04-05T15:50:46Z</time>
      </trkpt>
      <trkpt lat="44.18152" lon="3.12699">
        <ele>400.4</ele>
        <time>2022-04-05T15:50:45Z</time>
      </trkpt>
      <trkpt lat="44.18148" lon="3.12698">
        <ele>400.2</ele>
        <time>2022-04-05T15:50:44Z</time>
      </trkpt>
      <trkpt lat="44.18144" lon="3.12697">
        <ele>400.2</ele>
        <time>2022-04-05T15:50:43Z</time>
      </trkpt>
      <trkpt lat="44.18142" lon="3.12695">
        <ele>400</ele>
        <time>2022-04-05T15:50:42Z</time>
      </trkpt>
      <trkpt lat="44.18138" lon="3.12694">
        <ele>400</ele>
        <time>2022-04-05T15:50:41Z</time>
      </trkpt>
      <trkpt lat="44.18135" lon="3.12693">
        <ele>399.8</ele>
        <time>2022-04-05T15:50:40Z</time>
      </trkpt>
      <trkpt lat="44.18131" lon="3.12693">
        <ele>399.6</ele>
        <time>2022-04-05T15:50:39Z</time>
      </trkpt>
      <trkpt lat="44.18128" lon="3.12691">
        <ele>399.4</ele>
        <time>2022-04-05T15:50:38Z</time>
      </trkpt>
      <trkpt lat="44.18125" lon="3.1269">
        <ele>399.2</ele>
        <time>2022-04-05T15:50:37Z</time>
      </trkpt>
      <trkpt lat="44.18121" lon="3.12688">
        <ele>399.2</ele>
        <time>2022-04-05T15:50:36Z</time>
      </trkpt>
      <trkpt lat="44.18115" lon="3.12684">
        <ele>399.2</ele>
        <time>2022-04-05T15:50:35Z</time>
      </trkpt>
      <trkpt lat="44.18112" lon="3.12682">
        <ele>399.2</ele>
        <time>2022-04-05T15:50:33Z</time>
      </trkpt>
      <trkpt lat="44.1811" lon="3.12681">
        <ele>399.4</ele>
        <time>2022-04-05T15:50:32Z</time>
      </trkpt>
      <trkpt lat="44.18107" lon="3.12679">
        <ele>399.4</ele>
        <time>2022-04-05T15:50:31Z</time>
      </trkpt>
      <trkpt lat="44.18105" lon="3.12677">
        <ele>399.4</ele>
        <time>2022-04-05T15:50:30Z</time>
      </trkpt>
      <trkpt lat="44.18102" lon="3.12673">
        <ele>399.4</ele>
        <time>2022-04-05T15:50:29Z</time>
      </trkpt>
      <trkpt lat="44.181" lon="3.12671">
        <ele>399.4</ele>
        <time>2022-04-05T15:50:28Z</time>
      </trkpt>
      <trkpt lat="44.18098" lon="3.12668">
        <ele>399.4</ele>
        <time>2022-04-05T15:50:27Z</time>
      </trkpt>
      <trkpt lat="44.18096" lon="3.12665">
        <ele>399.4</ele>
        <time>2022-04-05T15:50:26Z</time>
      </trkpt>
      <trkpt lat="44.18093" lon="3.12663">
        <ele>399.6</ele>
        <time>2022-04-05T15:50:25Z</time>
      </trkpt>
      <trkpt lat="44.1809" lon="3.12661">
        <ele>399.6</ele>
        <time>2022-04-05T15:50:24Z</time>
      </trkpt>
      <trkpt lat="44.18087" lon="3.12658">
        <ele>399.6</ele>
        <time>2022-04-05T15:50:23Z</time>
      </trkpt>
      <trkpt lat="44.18085" lon="3.12656">
        <ele>399.6</ele>
        <time>2022-04-05T15:50:22Z</time>
      </trkpt>
      <trkpt lat="44.18082" lon="3.12653">
        <ele>399.8</ele>
        <time>2022-04-05T15:50:21Z</time>
      </trkpt>
      <trkpt lat="44.18079" lon="3.12649">
        <ele>399.8</ele>
        <time>2022-04-05T15:50:20Z</time>
      </trkpt>
      <trkpt lat="44.18077" lon="3.12646">
        <ele>400</ele>
        <time>2022-04-05T15:50:19Z</time>
      </trkpt>
      <trkpt lat="44.18074" lon="3.12643">
        <ele>400.2</ele>
        <time>2022-04-05T15:50:18Z</time>
      </trkpt>
      <trkpt lat="44.18071" lon="3.1264">
        <ele>400.4</ele>
        <time>2022-04-05T15:50:17Z</time>
      </trkpt>
      <trkpt lat="44.18068" lon="3.12637">
        <ele>400.4</ele>
        <time>2022-04-05T15:50:16Z</time>
      </trkpt>
      <trkpt lat="44.18065" lon="3.12634">
        <ele>400.6</ele>
        <time>2022-04-05T15:50:15Z</time>
      </trkpt>
      <trkpt lat="44.18063" lon="3.12632">
        <ele>401.2</ele>
        <time>2022-04-05T15:50:14Z</time>
      </trkpt>
      <trkpt lat="44.1806" lon="3.12628">
        <ele>401</ele>
        <time>2022-04-05T15:50:13Z</time>
      </trkpt>
      <trkpt lat="44.18058" lon="3.12625">
        <ele>401.4</ele>
        <time>2022-04-05T15:50:12Z</time>
      </trkpt>
      <trkpt lat="44.18055" lon="3.12622">
        <ele>401.6</ele>
        <time>2022-04-05T15:50:11Z</time>
      </trkpt>
      <trkpt lat="44.18052" lon="3.1262">
        <ele>401.6</ele>
        <time>2022-04-05T15:50:10Z</time>
      </trkpt>
      <trkpt lat="44.18049" lon="3.12617">
        <ele>401.6</ele>
        <time>2022-04-05T15:50:09Z</time>
      </trkpt>
      <trkpt lat="44.18046" lon="3.12613">
        <ele>401.6</ele>
        <time>2022-04-05T15:50:08Z</time>
      </trkpt>
      <trkpt lat="44.18043" lon="3.12608">
        <ele>401.6</ele>
        <time>2022-04-05T15:50:07Z</time>
      </trkpt>
      <trkpt lat="44.1804" lon="3.12602">
        <ele>401.6</ele>
        <time>2022-04-05T15:50:06Z</time>
      </trkpt>
      <trkpt lat="44.18037" lon="3.12597">
        <ele>401.6</ele>
        <time>2022-04-05T15:50:05Z</time>
      </trkpt>
      <trkpt lat="44.18033" lon="3.12592">
        <ele>401.6</ele>
        <time>2022-04-05T15:50:04Z</time>
      </trkpt>
      <trkpt lat="44.18028" lon="3.12588">
        <ele>401.4</ele>
        <time>2022-04-05T15:50:03Z</time>
      </trkpt>
      <trkpt lat="44.18023" lon="3.12584">
        <ele>401.4</ele>
        <time>2022-04-05T15:50:02Z</time>
      </trkpt>
      <trkpt lat="44.18019" lon="3.12582">
        <ele>401.4</ele>
        <time>2022-04-05T15:50:01Z</time>
      </trkpt>
      <trkpt lat="44.18016" lon="3.12579">
        <ele>401.4</ele>
        <time>2022-04-05T15:50:00Z</time>
      </trkpt>
      <trkpt lat="44.18013" lon="3.12576">
        <ele>401.2</ele>
        <time>2022-04-05T15:49:59Z</time>
      </trkpt>
      <trkpt lat="44.1801" lon="3.12573">
        <ele>401.2</ele>
        <time>2022-04-05T15:49:58Z</time>
      </trkpt>
      <trkpt lat="44.18003" lon="3.12568">
        <ele>401.2</ele>
        <time>2022-04-05T15:49:57Z</time>
      </trkpt>
      <trkpt lat="44.18001" lon="3.12567">
        <ele>401.2</ele>
        <time>2022-04-05T15:49:56Z</time>
      </trkpt>
      <trkpt lat="44.17999" lon="3.12566">
        <ele>401.2</ele>
        <time>2022-04-05T15:49:55Z</time>
      </trkpt>
      <trkpt lat="44.17996" lon="3.12564">
        <ele>401.2</ele>
        <time>2022-04-05T15:49:54Z</time>
      </trkpt>
      <trkpt lat="44.17992" lon="3.12562">
        <ele>401.2</ele>
        <time>2022-04-05T15:49:53Z</time>
      </trkpt>
      <trkpt lat="44.17988" lon="3.12559">
        <ele>401.2</ele>
        <time>2022-04-05T15:49:52Z</time>
      </trkpt>
      <trkpt lat="44.17984" lon="3.12556">
        <ele>401</ele>
        <time>2022-04-05T15:49:51Z</time>
      </trkpt>
      <trkpt lat="44.17982" lon="3.12552">
        <ele>401</ele>
        <time>2022-04-05T15:49:50Z</time>
      </trkpt>
      <trkpt lat="44.17979" lon="3.12549">
        <ele>400.8</ele>
        <time>2022-04-05T15:49:49Z</time>
      </trkpt>
      <trkpt lat="44.17976" lon="3.12547">
        <ele>400.8</ele>
        <time>2022-04-05T15:49:48Z</time>
      </trkpt>
      <trkpt lat="44.17973" lon="3.12545">
        <ele>400.8</ele>
        <time>2022-04-05T15:49:47Z</time>
      </trkpt>
      <trkpt lat="44.1797" lon="3.12544">
        <ele>400.6</ele>
        <time>2022-04-05T15:49:46Z</time>
      </trkpt>
      <trkpt lat="44.17967" lon="3.12542">
        <ele>400.4</ele>
        <time>2022-04-05T15:49:45Z</time>
      </trkpt>
      <trkpt lat="44.17965" lon="3.12541">
        <ele>400.4</ele>
        <time>2022-04-05T15:49:44Z</time>
      </trkpt>
      <trkpt lat="44.17962" lon="3.1254">
        <ele>400</ele>
        <time>2022-04-05T15:49:43Z</time>
      </trkpt>
      <trkpt lat="44.1796" lon="3.12538">
        <ele>400</ele>
        <time>2022-04-05T15:49:42Z</time>
      </trkpt>
      <trkpt lat="44.17957" lon="3.12538">
        <ele>399.6</ele>
        <time>2022-04-05T15:49:41Z</time>
      </trkpt>
      <trkpt lat="44.17955" lon="3.12537">
        <ele>399.4</ele>
        <time>2022-04-05T15:49:40Z</time>
      </trkpt>
      <trkpt lat="44.17953" lon="3.12536">
        <ele>399.2</ele>
        <time>2022-04-05T15:49:39Z</time>
      </trkpt>
      <trkpt lat="44.1795" lon="3.12535">
        <ele>398.8</ele>
        <time>2022-04-05T15:49:38Z</time>
      </trkpt>
      <trkpt lat="44.17948" lon="3.12535">
        <ele>398.6</ele>
        <time>2022-04-05T15:49:37Z</time>
      </trkpt>
      <trkpt lat="44.17947" lon="3.12535">
        <ele>398.6</ele>
        <time>2022-04-05T15:49:36Z</time>
      </trkpt>
      <trkpt lat="44.17945" lon="3.12535">
        <ele>398.6</ele>
        <time>2022-04-05T15:49:35Z</time>
      </trkpt>
      <trkpt lat="44.17942" lon="3.12537">
        <ele>398.4</ele>
        <time>2022-04-05T15:49:33Z</time>
      </trkpt>
      <trkpt lat="44.17941" lon="3.12538">
        <ele>398.2</ele>
        <time>2022-04-05T15:49:32Z</time>
      </trkpt>
      <trkpt lat="44.1794" lon="3.12537">
        <ele>398.2</ele>
        <time>2022-04-05T15:49:31Z</time>
      </trkpt>
      <trkpt lat="44.17939" lon="3.12536">
        <ele>398</ele>
        <time>2022-04-05T15:49:30Z</time>
      </trkpt>
      <trkpt lat="44.17938" lon="3.12536">
        <ele>398</ele>
        <time>2022-04-05T15:49:29Z</time>
      </trkpt>
      <trkpt lat="44.17936" lon="3.12536">
        <ele>398</ele>
        <time>2022-04-05T15:49:28Z</time>
      </trkpt>
      <trkpt lat="44.17933" lon="3.12537">
        <ele>398</ele>
        <time>2022-04-05T15:49:27Z</time>
      </trkpt>
      <trkpt lat="44.17931" lon="3.12536">
        <ele>398</ele>
        <time>2022-04-05T15:49:26Z</time>
      </trkpt>
      <trkpt lat="44.1793" lon="3.12536">
        <ele>398</ele>
        <time>2022-04-05T15:49:25Z</time>
      </trkpt>
      <trkpt lat="44.17929" lon="3.12535">
        <ele>398</ele>
        <time>2022-04-05T15:49:24Z</time>
      </trkpt>
      <trkpt lat="44.17927" lon="3.12534">
        <ele>398</ele>
        <time>2022-04-05T15:49:23Z</time>
      </trkpt>
      <trkpt lat="44.17925" lon="3.12533">
        <ele>398</ele>
        <time>2022-04-05T15:49:22Z</time>
      </trkpt>
      <trkpt lat="44.17923" lon="3.12532">
        <ele>398</ele>
        <time>2022-04-05T15:49:21Z</time>
      </trkpt>
      <trkpt lat="44.17922" lon="3.12531">
        <ele>398</ele>
        <time>2022-04-05T15:49:20Z</time>
      </trkpt>
      <trkpt lat="44.17919" lon="3.1253">
        <ele>398</ele>
        <time>2022-04-05T15:49:19Z</time>
      </trkpt>
      <trkpt lat="44.17916" lon="3.12528">
        <ele>398</ele>
        <time>2022-04-05T15:49:18Z</time>
      </trkpt>
      <trkpt lat="44.17914" lon="3.12528">
        <ele>398.2</ele>
        <time>2022-04-05T15:49:17Z</time>
      </trkpt>
      <trkpt lat="44.17912" lon="3.12527">
        <ele>398.2</ele>
        <time>2022-04-05T15:49:16Z</time>
      </trkpt>
      <trkpt lat="44.17909" lon="3.12526">
        <ele>398.4</ele>
        <time>2022-04-05T15:49:15Z</time>
      </trkpt>
      <trkpt lat="44.17905" lon="3.12526">
        <ele>398.6</ele>
        <time>2022-04-05T15:49:14Z</time>
      </trkpt>
      <trkpt lat="44.17902" lon="3.12525">
        <ele>398.6</ele>
        <time>2022-04-05T15:49:13Z</time>
      </trkpt>
      <trkpt lat="44.179" lon="3.12524">
        <ele>399</ele>
        <time>2022-04-05T15:49:12Z</time>
      </trkpt>
      <trkpt lat="44.17898" lon="3.12524">
        <ele>399</ele>
        <time>2022-04-05T15:49:11Z</time>
      </trkpt>
      <trkpt lat="44.17896" lon="3.12523">
        <ele>399.2</ele>
        <time>2022-04-05T15:49:10Z</time>
      </trkpt>
      <trkpt lat="44.17893" lon="3.1252">
        <ele>399.2</ele>
        <time>2022-04-05T15:49:09Z</time>
      </trkpt>
      <trkpt lat="44.1789" lon="3.12518">
        <ele>399.4</ele>
        <time>2022-04-05T15:49:08Z</time>
      </trkpt>
      <trkpt lat="44.17888" lon="3.12516">
        <ele>399.4</ele>
        <time>2022-04-05T15:49:07Z</time>
      </trkpt>
      <trkpt lat="44.17884" lon="3.12514">
        <ele>399.6</ele>
        <time>2022-04-05T15:49:06Z</time>
      </trkpt>
      <trkpt lat="44.17881" lon="3.12513">
        <ele>399.8</ele>
        <time>2022-04-05T15:49:04Z</time>
      </trkpt>
      <trkpt lat="44.17881" lon="3.12513">
        <ele>400.2</ele>
        <time>2022-04-05T15:49:03Z</time>
      </trkpt>
      <trkpt lat="44.17877" lon="3.12509">
        <ele>400.4</ele>
        <time>2022-04-05T15:49:02Z</time>
      </trkpt>
      <trkpt lat="44.17874" lon="3.12508">
        <ele>401.2</ele>
        <time>2022-04-05T15:49:00Z</time>
      </trkpt>
      <trkpt lat="44.17871" lon="3.12508">
        <ele>401.8</ele>
        <time>2022-04-05T15:48:59Z</time>
      </trkpt>
      <trkpt lat="44.17869" lon="3.12508">
        <ele>402.2</ele>
        <time>2022-04-05T15:48:58Z</time>
      </trkpt>
      <trkpt lat="44.17868" lon="3.12506">
        <ele>403.6</ele>
        <time>2022-04-05T15:48:57Z</time>
      </trkpt>
      <trkpt lat="44.17867" lon="3.12506">
        <ele>403.8</ele>
        <time>2022-04-05T15:48:56Z</time>
      </trkpt>
      <trkpt lat="44.17865" lon="3.12505">
        <ele>404.2</ele>
        <time>2022-04-05T15:48:55Z</time>
      </trkpt>
      <trkpt lat="44.17862" lon="3.12505">
        <ele>405</ele>
        <time>2022-04-05T15:48:54Z</time>
      </trkpt>
      <trkpt lat="44.17858" lon="3.12505">
        <ele>405.2</ele>
        <time>2022-04-05T15:48:53Z</time>
      </trkpt>
      <trkpt lat="44.17855" lon="3.12504">
        <ele>405.6</ele>
        <time>2022-04-05T15:48:52Z</time>
      </trkpt>
      <trkpt lat="44.17849" lon="3.12504">
        <ele>405.8</ele>
        <time>2022-04-05T15:48:51Z</time>
      </trkpt>
      <trkpt lat="44.17842" lon="3.12504">
        <ele>406.4</ele>
        <time>2022-04-05T15:48:50Z</time>
      </trkpt>
      <trkpt lat="44.17837" lon="3.12505">
        <ele>406.4</ele>
        <time>2022-04-05T15:48:49Z</time>
      </trkpt>
      <trkpt lat="44.17832" lon="3.12505">
        <ele>406.4</ele>
        <time>2022-04-05T15:48:48Z</time>
      </trkpt>
      <trkpt lat="44.17828" lon="3.12504">
        <ele>406.4</ele>
        <time>2022-04-05T15:48:47Z</time>
      </trkpt>
      <trkpt lat="44.17822" lon="3.12503">
        <ele>406.4</ele>
        <time>2022-04-05T15:48:46Z</time>
      </trkpt>
      <trkpt lat="44.17817" lon="3.12503">
        <ele>406.6</ele>
        <time>2022-04-05T15:48:45Z</time>
      </trkpt>
      <trkpt lat="44.17813" lon="3.12504">
        <ele>406.6</ele>
        <time>2022-04-05T15:48:44Z</time>
      </trkpt>
      <trkpt lat="44.17812" lon="3.12504">
        <ele>406.6</ele>
        <time>2022-04-05T15:48:43Z</time>
      </trkpt>
      <trkpt lat="44.17808" lon="3.12503">
        <ele>406.6</ele>
        <time>2022-04-05T15:48:42Z</time>
      </trkpt>
      <trkpt lat="44.17805" lon="3.12503">
        <ele>406.8</ele>
        <time>2022-04-05T15:48:41Z</time>
      </trkpt>
      <trkpt lat="44.17802" lon="3.12504">
        <ele>406.8</ele>
        <time>2022-04-05T15:48:40Z</time>
      </trkpt>
      <trkpt lat="44.178" lon="3.12504">
        <ele>406.8</ele>
        <time>2022-04-05T15:48:39Z</time>
      </trkpt>
      <trkpt lat="44.17797" lon="3.12506">
        <ele>407</ele>
        <time>2022-04-05T15:48:38Z</time>
      </trkpt>
      <trkpt lat="44.17796" lon="3.12506">
        <ele>407</ele>
        <time>2022-04-05T15:48:37Z</time>
      </trkpt>
      <trkpt lat="44.17794" lon="3.12507">
        <ele>407.2</ele>
        <time>2022-04-05T15:48:36Z</time>
      </trkpt>
      <trkpt lat="44.17793" lon="3.12507">
        <ele>407.2</ele>
        <time>2022-04-05T15:48:35Z</time>
      </trkpt>
      <trkpt lat="44.17792" lon="3.12507">
        <ele>407.2</ele>
        <time>2022-04-05T15:48:34Z</time>
      </trkpt>
      <trkpt lat="44.17788" lon="3.12508">
        <ele>407.4</ele>
        <time>2022-04-05T15:48:33Z</time>
      </trkpt>
      <trkpt lat="44.17786" lon="3.12508">
        <ele>407.6</ele>
        <time>2022-04-05T15:48:32Z</time>
      </trkpt>
      <trkpt lat="44.17783" lon="3.12509">
        <ele>407.6</ele>
        <time>2022-04-05T15:48:31Z</time>
      </trkpt>
      <trkpt lat="44.1778" lon="3.12509">
        <ele>408</ele>
        <time>2022-04-05T15:48:30Z</time>
      </trkpt>
      <trkpt lat="44.17778" lon="3.1251">
        <ele>408</ele>
        <time>2022-04-05T15:48:29Z</time>
      </trkpt>
      <trkpt lat="44.17775" lon="3.12511">
        <ele>408.4</ele>
        <time>2022-04-05T15:48:28Z</time>
      </trkpt>
      <trkpt lat="44.17772" lon="3.12512">
        <ele>408.6</ele>
        <time>2022-04-05T15:48:27Z</time>
      </trkpt>
      <trkpt lat="44.17769" lon="3.12513">
        <ele>408.8</ele>
        <time>2022-04-05T15:48:26Z</time>
      </trkpt>
      <trkpt lat="44.17767" lon="3.12514">
        <ele>408.8</ele>
        <time>2022-04-05T15:48:25Z</time>
      </trkpt>
      <trkpt lat="44.17765" lon="3.12516">
        <ele>409.2</ele>
        <time>2022-04-05T15:48:24Z</time>
      </trkpt>
      <trkpt lat="44.17762" lon="3.12516">
        <ele>409.2</ele>
        <time>2022-04-05T15:48:23Z</time>
      </trkpt>
      <trkpt lat="44.17759" lon="3.12516">
        <ele>409.2</ele>
        <time>2022-04-05T15:48:22Z</time>
      </trkpt>
      <trkpt lat="44.17756" lon="3.12516">
        <ele>409.4</ele>
        <time>2022-04-05T15:48:21Z</time>
      </trkpt>
      <trkpt lat="44.17754" lon="3.12517">
        <ele>409.4</ele>
        <time>2022-04-05T15:48:20Z</time>
      </trkpt>
      <trkpt lat="44.17752" lon="3.12518">
        <ele>409.4</ele>
        <time>2022-04-05T15:48:19Z</time>
      </trkpt>
      <trkpt lat="44.17749" lon="3.12519">
        <ele>409.4</ele>
        <time>2022-04-05T15:48:18Z</time>
      </trkpt>
      <trkpt lat="44.17745" lon="3.1252">
        <ele>409.4</ele>
        <time>2022-04-05T15:48:17Z</time>
      </trkpt>
      <trkpt lat="44.17741" lon="3.12521">
        <ele>409.4</ele>
        <time>2022-04-05T15:48:16Z</time>
      </trkpt>
      <trkpt lat="44.17737" lon="3.12521">
        <ele>409.4</ele>
        <time>2022-04-05T15:48:15Z</time>
      </trkpt>
      <trkpt lat="44.17733" lon="3.12521">
        <ele>409.6</ele>
        <time>2022-04-05T15:48:14Z</time>
      </trkpt>
      <trkpt lat="44.17729" lon="3.1252">
        <ele>409.6</ele>
        <time>2022-04-05T15:48:13Z</time>
      </trkpt>
      <trkpt lat="44.17725" lon="3.1252">
        <ele>409.4</ele>
        <time>2022-04-05T15:48:12Z</time>
      </trkpt>
      <trkpt lat="44.17721" lon="3.1252">
        <ele>409.4</ele>
        <time>2022-04-05T15:48:11Z</time>
      </trkpt>
      <trkpt lat="44.17717" lon="3.12519">
        <ele>409.4</ele>
        <time>2022-04-05T15:48:10Z</time>
      </trkpt>
      <trkpt lat="44.17714" lon="3.12518">
        <ele>409.4</ele>
        <time>2022-04-05T15:48:09Z</time>
      </trkpt>
      <trkpt lat="44.17711" lon="3.12518">
        <ele>409.2</ele>
        <time>2022-04-05T15:48:08Z</time>
      </trkpt>
      <trkpt lat="44.17707" lon="3.12519">
        <ele>409.2</ele>
        <time>2022-04-05T15:48:07Z</time>
      </trkpt>
      <trkpt lat="44.17705" lon="3.1252">
        <ele>409</ele>
        <time>2022-04-05T15:48:06Z</time>
      </trkpt>
      <trkpt lat="44.17702" lon="3.12521">
        <ele>409</ele>
        <time>2022-04-05T15:48:05Z</time>
      </trkpt>
      <trkpt lat="44.177" lon="3.12523">
        <ele>408.8</ele>
        <time>2022-04-05T15:48:04Z</time>
      </trkpt>
      <trkpt lat="44.17698" lon="3.12524">
        <ele>408.6</ele>
        <time>2022-04-05T15:48:03Z</time>
      </trkpt>
      <trkpt lat="44.17696" lon="3.12525">
        <ele>407.8</ele>
        <time>2022-04-05T15:48:02Z</time>
      </trkpt>
      <trkpt lat="44.17694" lon="3.12526">
        <ele>407.6</ele>
        <time>2022-04-05T15:48:01Z</time>
      </trkpt>
      <trkpt lat="44.17693" lon="3.12527">
        <ele>407.4</ele>
        <time>2022-04-05T15:48:00Z</time>
      </trkpt>
      <trkpt lat="44.17692" lon="3.12528">
        <ele>407.2</ele>
        <time>2022-04-05T15:47:59Z</time>
      </trkpt>
      <trkpt lat="44.1769" lon="3.12529">
        <ele>407</ele>
        <time>2022-04-05T15:47:58Z</time>
      </trkpt>
      <trkpt lat="44.17688" lon="3.12529">
        <ele>406.6</ele>
        <time>2022-04-05T15:47:57Z</time>
      </trkpt>
      <trkpt lat="44.17686" lon="3.1253">
        <ele>406.4</ele>
        <time>2022-04-05T15:47:56Z</time>
      </trkpt>
      <trkpt lat="44.17684" lon="3.1253">
        <ele>406.4</ele>
        <time>2022-04-05T15:47:55Z</time>
      </trkpt>
      <trkpt lat="44.17682" lon="3.1253">
        <ele>406.2</ele>
        <time>2022-04-05T15:47:54Z</time>
      </trkpt>
      <trkpt lat="44.17681" lon="3.12532">
        <ele>405.8</ele>
        <time>2022-04-05T15:47:53Z</time>
      </trkpt>
      <trkpt lat="44.17679" lon="3.12534">
        <ele>405.6</ele>
        <time>2022-04-05T15:47:52Z</time>
      </trkpt>
      <trkpt lat="44.17676" lon="3.12536">
        <ele>405</ele>
        <time>2022-04-05T15:47:50Z</time>
      </trkpt>
      <trkpt lat="44.17674" lon="3.12537">
        <ele>404.8</ele>
        <time>2022-04-05T15:47:49Z</time>
      </trkpt>
      <trkpt lat="44.17672" lon="3.12539">
        <ele>404.4</ele>
        <time>2022-04-05T15:47:48Z</time>
      </trkpt>
      <trkpt lat="44.1767" lon="3.12538">
        <ele>404.2</ele>
        <time>2022-04-05T15:47:47Z</time>
      </trkpt>
      <trkpt lat="44.17668" lon="3.12538">
        <ele>404</ele>
        <time>2022-04-05T15:47:46Z</time>
      </trkpt>
      <trkpt lat="44.17665" lon="3.12538">
        <ele>403.8</ele>
        <time>2022-04-05T15:47:45Z</time>
      </trkpt>
      <trkpt lat="44.17664" lon="3.12539">
        <ele>403.2</ele>
        <time>2022-04-05T15:47:44Z</time>
      </trkpt>
      <trkpt lat="44.17661" lon="3.12539">
        <ele>403</ele>
        <time>2022-04-05T15:47:43Z</time>
      </trkpt>
      <trkpt lat="44.17659" lon="3.1254">
        <ele>402.6</ele>
        <time>2022-04-05T15:47:42Z</time>
      </trkpt>
      <trkpt lat="44.17658" lon="3.12541">
        <ele>402.4</ele>
        <time>2022-04-05T15:47:41Z</time>
      </trkpt>
      <trkpt lat="44.17656" lon="3.12542">
        <ele>402.2</ele>
        <time>2022-04-05T15:47:40Z</time>
      </trkpt>
      <trkpt lat="44.17654" lon="3.12543">
        <ele>402</ele>
        <time>2022-04-05T15:47:39Z</time>
      </trkpt>
      <trkpt lat="44.17652" lon="3.12544">
        <ele>402</ele>
        <time>2022-04-05T15:47:38Z</time>
      </trkpt>
      <trkpt lat="44.1765" lon="3.12545">
        <ele>401.8</ele>
        <time>2022-04-05T15:47:37Z</time>
      </trkpt>
      <trkpt lat="44.17648" lon="3.12545">
        <ele>401.8</ele>
        <time>2022-04-05T15:47:36Z</time>
      </trkpt>
      <trkpt lat="44.17646" lon="3.12545">
        <ele>401.4</ele>
        <time>2022-04-05T15:47:34Z</time>
      </trkpt>
      <trkpt lat="44.17645" lon="3.12546">
        <ele>401.2</ele>
        <time>2022-04-05T15:47:33Z</time>
      </trkpt>
      <trkpt lat="44.17644" lon="3.12547">
        <ele>401</ele>
        <time>2022-04-05T15:47:32Z</time>
      </trkpt>
      <trkpt lat="44.17643" lon="3.12548">
        <ele>400.6</ele>
        <time>2022-04-05T15:47:31Z</time>
      </trkpt>
      <trkpt lat="44.17641" lon="3.12549">
        <ele>400.6</ele>
        <time>2022-04-05T15:47:30Z</time>
      </trkpt>
      <trkpt lat="44.1764" lon="3.12551">
        <ele>400.6</ele>
        <time>2022-04-05T15:47:29Z</time>
      </trkpt>
      <trkpt lat="44.17638" lon="3.12552">
        <ele>400.4</ele>
        <time>2022-04-05T15:47:28Z</time>
      </trkpt>
      <trkpt lat="44.17632" lon="3.12555">
        <ele>400.4</ele>
        <time>2022-04-05T15:47:27Z</time>
      </trkpt>
      <trkpt lat="44.17628" lon="3.12557">
        <ele>400.4</ele>
        <time>2022-04-05T15:47:25Z</time>
      </trkpt>
      <trkpt lat="44.17624" lon="3.12559">
        <ele>400.4</ele>
        <time>2022-04-05T15:47:24Z</time>
      </trkpt>
      <trkpt lat="44.1762" lon="3.12561">
        <ele>400.4</ele>
        <time>2022-04-05T15:47:23Z</time>
      </trkpt>
      <trkpt lat="44.17616" lon="3.12562">
        <ele>400.2</ele>
        <time>2022-04-05T15:47:22Z</time>
      </trkpt>
      <trkpt lat="44.17612" lon="3.12565">
        <ele>400.2</ele>
        <time>2022-04-05T15:47:21Z</time>
      </trkpt>
      <trkpt lat="44.17608" lon="3.12566">
        <ele>400.4</ele>
        <time>2022-04-05T15:47:20Z</time>
      </trkpt>
      <trkpt lat="44.17603" lon="3.12568">
        <ele>400.4</ele>
        <time>2022-04-05T15:47:19Z</time>
      </trkpt>
      <trkpt lat="44.17598" lon="3.1257">
        <ele>400.4</ele>
        <time>2022-04-05T15:47:18Z</time>
      </trkpt>
      <trkpt lat="44.17594" lon="3.12572">
        <ele>400.4</ele>
        <time>2022-04-05T15:47:17Z</time>
      </trkpt>
      <trkpt lat="44.17585" lon="3.12576">
        <ele>400.4</ele>
        <time>2022-04-05T15:47:16Z</time>
      </trkpt>
      <trkpt lat="44.17583" lon="3.12577">
        <ele>400.6</ele>
        <time>2022-04-05T15:47:15Z</time>
      </trkpt>
      <trkpt lat="44.17581" lon="3.12578">
        <ele>400.6</ele>
        <time>2022-04-05T15:47:14Z</time>
      </trkpt>
      <trkpt lat="44.17576" lon="3.1258">
        <ele>400.6</ele>
        <time>2022-04-05T15:47:13Z</time>
      </trkpt>
      <trkpt lat="44.17572" lon="3.12583">
        <ele>400.6</ele>
        <time>2022-04-05T15:47:12Z</time>
      </trkpt>
      <trkpt lat="44.17567" lon="3.12585">
        <ele>400.8</ele>
        <time>2022-04-05T15:47:11Z</time>
      </trkpt>
      <trkpt lat="44.17564" lon="3.12587">
        <ele>400.8</ele>
        <time>2022-04-05T15:47:10Z</time>
      </trkpt>
      <trkpt lat="44.17559" lon="3.12589">
        <ele>400.8</ele>
        <time>2022-04-05T15:47:09Z</time>
      </trkpt>
      <trkpt lat="44.17554" lon="3.12591">
        <ele>400.8</ele>
        <time>2022-04-05T15:47:08Z</time>
      </trkpt>
      <trkpt lat="44.1755" lon="3.12593">
        <ele>401</ele>
        <time>2022-04-05T15:47:07Z</time>
      </trkpt>
      <trkpt lat="44.17545" lon="3.12594">
        <ele>401.2</ele>
        <time>2022-04-05T15:47:06Z</time>
      </trkpt>
      <trkpt lat="44.1754" lon="3.12595">
        <ele>401.2</ele>
        <time>2022-04-05T15:47:05Z</time>
      </trkpt>
      <trkpt lat="44.17535" lon="3.12596">
        <ele>401.2</ele>
        <time>2022-04-05T15:47:04Z</time>
      </trkpt>
      <trkpt lat="44.17531" lon="3.12597">
        <ele>401.2</ele>
        <time>2022-04-05T15:47:03Z</time>
      </trkpt>
      <trkpt lat="44.17526" lon="3.12598">
        <ele>401.2</ele>
        <time>2022-04-05T15:47:02Z</time>
      </trkpt>
      <trkpt lat="44.17521" lon="3.126">
        <ele>401.2</ele>
        <time>2022-04-05T15:47:01Z</time>
      </trkpt>
      <trkpt lat="44.17516" lon="3.12601">
        <ele>401.4</ele>
        <time>2022-04-05T15:47:00Z</time>
      </trkpt>
      <trkpt lat="44.17512" lon="3.12603">
        <ele>401.4</ele>
        <time>2022-04-05T15:46:59Z</time>
      </trkpt>
      <trkpt lat="44.17503" lon="3.12604">
        <ele>401.4</ele>
        <time>2022-04-05T15:46:58Z</time>
      </trkpt>
      <trkpt lat="44.17501" lon="3.12605">
        <ele>401.4</ele>
        <time>2022-04-05T15:46:57Z</time>
      </trkpt>
      <trkpt lat="44.17499" lon="3.12605">
        <ele>401.4</ele>
        <time>2022-04-05T15:46:56Z</time>
      </trkpt>
      <trkpt lat="44.17495" lon="3.12607">
        <ele>401.4</ele>
        <time>2022-04-05T15:46:55Z</time>
      </trkpt>
      <trkpt lat="44.17491" lon="3.12608">
        <ele>401.4</ele>
        <time>2022-04-05T15:46:54Z</time>
      </trkpt>
      <trkpt lat="44.17486" lon="3.12609">
        <ele>401.4</ele>
        <time>2022-04-05T15:46:53Z</time>
      </trkpt>
      <trkpt lat="44.17482" lon="3.1261">
        <ele>401.4</ele>
        <time>2022-04-05T15:46:52Z</time>
      </trkpt>
      <trkpt lat="44.17478" lon="3.12611">
        <ele>401.4</ele>
        <time>2022-04-05T15:46:51Z</time>
      </trkpt>
      <trkpt lat="44.17473" lon="3.12612">
        <ele>401.4</ele>
        <time>2022-04-05T15:46:50Z</time>
      </trkpt>
      <trkpt lat="44.17469" lon="3.12612">
        <ele>401.2</ele>
        <time>2022-04-05T15:46:49Z</time>
      </trkpt>
      <trkpt lat="44.17464" lon="3.12613">
        <ele>401.2</ele>
        <time>2022-04-05T15:46:48Z</time>
      </trkpt>
      <trkpt lat="44.1746" lon="3.12614">
        <ele>401</ele>
        <time>2022-04-05T15:46:47Z</time>
      </trkpt>
      <trkpt lat="44.17456" lon="3.12614">
        <ele>401</ele>
        <time>2022-04-05T15:46:46Z</time>
      </trkpt>
      <trkpt lat="44.17451" lon="3.12615">
        <ele>401</ele>
        <time>2022-04-05T15:46:45Z</time>
      </trkpt>
      <trkpt lat="44.17447" lon="3.12615">
        <ele>400.8</ele>
        <time>2022-04-05T15:46:44Z</time>
      </trkpt>
      <trkpt lat="44.17443" lon="3.12616">
        <ele>400.8</ele>
        <time>2022-04-05T15:46:43Z</time>
      </trkpt>
      <trkpt lat="44.17438" lon="3.12617">
        <ele>400.6</ele>
        <time>2022-04-05T15:46:42Z</time>
      </trkpt>
      <trkpt lat="44.17434" lon="3.12618">
        <ele>400.6</ele>
        <time>2022-04-05T15:46:41Z</time>
      </trkpt>
      <trkpt lat="44.1743" lon="3.12619">
        <ele>400.4</ele>
        <time>2022-04-05T15:46:40Z</time>
      </trkpt>
      <trkpt lat="44.17426" lon="3.1262">
        <ele>400.4</ele>
        <time>2022-04-05T15:46:39Z</time>
      </trkpt>
      <trkpt lat="44.17422" lon="3.12622">
        <ele>400.4</ele>
        <time>2022-04-05T15:46:38Z</time>
      </trkpt>
      <trkpt lat="44.17418" lon="3.12624">
        <ele>400.4</ele>
        <time>2022-04-05T15:46:37Z</time>
      </trkpt>
      <trkpt lat="44.1741" lon="3.12628">
        <ele>400.4</ele>
        <time>2022-04-05T15:46:36Z</time>
      </trkpt>
      <trkpt lat="44.17406" lon="3.1263">
        <ele>400.4</ele>
        <time>2022-04-05T15:46:35Z</time>
      </trkpt>
      <trkpt lat="44.17404" lon="3.12631">
        <ele>400.4</ele>
        <time>2022-04-05T15:46:34Z</time>
      </trkpt>
      <trkpt lat="44.17402" lon="3.12632">
        <ele>400.4</ele>
        <time>2022-04-05T15:46:33Z</time>
      </trkpt>
      <trkpt lat="44.17398" lon="3.12633">
        <ele>400.4</ele>
        <time>2022-04-05T15:46:32Z</time>
      </trkpt>
      <trkpt lat="44.17394" lon="3.12635">
        <ele>400.4</ele>
        <time>2022-04-05T15:46:31Z</time>
      </trkpt>
      <trkpt lat="44.1739" lon="3.12637">
        <ele>400.4</ele>
        <time>2022-04-05T15:46:30Z</time>
      </trkpt>
      <trkpt lat="44.17386" lon="3.12638">
        <ele>400.2</ele>
        <time>2022-04-05T15:46:29Z</time>
      </trkpt>
      <trkpt lat="44.17382" lon="3.12639">
        <ele>400.2</ele>
        <time>2022-04-05T15:46:28Z</time>
      </trkpt>
      <trkpt lat="44.17378" lon="3.1264">
        <ele>400.2</ele>
        <time>2022-04-05T15:46:27Z</time>
      </trkpt>
      <trkpt lat="44.17373" lon="3.12641">
        <ele>400.2</ele>
        <time>2022-04-05T15:46:26Z</time>
      </trkpt>
      <trkpt lat="44.17369" lon="3.12642">
        <ele>400.2</ele>
        <time>2022-04-05T15:46:25Z</time>
      </trkpt>
      <trkpt lat="44.17365" lon="3.12643">
        <ele>400.2</ele>
        <time>2022-04-05T15:46:24Z</time>
      </trkpt>
      <trkpt lat="44.1736" lon="3.12644">
        <ele>400.2</ele>
        <time>2022-04-05T15:46:23Z</time>
      </trkpt>
      <trkpt lat="44.17356" lon="3.12644">
        <ele>400.2</ele>
        <time>2022-04-05T15:46:22Z</time>
      </trkpt>
      <trkpt lat="44.17351" lon="3.12645">
        <ele>400.2</ele>
        <time>2022-04-05T15:46:21Z</time>
      </trkpt>
      <trkpt lat="44.17345" lon="3.12646">
        <ele>400.2</ele>
        <time>2022-04-05T15:46:20Z</time>
      </trkpt>
      <trkpt lat="44.1734" lon="3.12647">
        <ele>400.2</ele>
        <time>2022-04-05T15:46:19Z</time>
      </trkpt>
      <trkpt lat="44.17336" lon="3.12646">
        <ele>400.4</ele>
        <time>2022-04-05T15:46:18Z</time>
      </trkpt>
      <trkpt lat="44.17331" lon="3.12646">
        <ele>400.4</ele>
        <time>2022-04-05T15:46:17Z</time>
      </trkpt>
      <trkpt lat="44.17327" lon="3.12646">
        <ele>400.6</ele>
        <time>2022-04-05T15:46:16Z</time>
      </trkpt>
      <trkpt lat="44.17323" lon="3.12646">
        <ele>400.6</ele>
        <time>2022-04-05T15:46:15Z</time>
      </trkpt>
      <trkpt lat="44.17319" lon="3.12644">
        <ele>400.6</ele>
        <time>2022-04-05T15:46:14Z</time>
      </trkpt>
      <trkpt lat="44.17312" lon="3.12639">
        <ele>400.6</ele>
        <time>2022-04-05T15:46:13Z</time>
      </trkpt>
      <trkpt lat="44.17309" lon="3.12636">
        <ele>400.4</ele>
        <time>2022-04-05T15:46:12Z</time>
      </trkpt>
      <trkpt lat="44.17305" lon="3.12634">
        <ele>400.4</ele>
        <time>2022-04-05T15:46:11Z</time>
      </trkpt>
      <trkpt lat="44.173" lon="3.1263">
        <ele>400.4</ele>
        <time>2022-04-05T15:46:10Z</time>
      </trkpt>
      <trkpt lat="44.17297" lon="3.12628">
        <ele>400.2</ele>
        <time>2022-04-05T15:46:09Z</time>
      </trkpt>
      <trkpt lat="44.17288" lon="3.12625">
        <ele>400.2</ele>
        <time>2022-04-05T15:46:08Z</time>
      </trkpt>
      <trkpt lat="44.17284" lon="3.12624">
        <ele>400.2</ele>
        <time>2022-04-05T15:46:07Z</time>
      </trkpt>
      <trkpt lat="44.17282" lon="3.12623">
        <ele>400.2</ele>
        <time>2022-04-05T15:46:06Z</time>
      </trkpt>
      <trkpt lat="44.1728" lon="3.12622">
        <ele>400.2</ele>
        <time>2022-04-05T15:46:05Z</time>
      </trkpt>
      <trkpt lat="44.17274" lon="3.1262">
        <ele>400.2</ele>
        <time>2022-04-05T15:46:04Z</time>
      </trkpt>
      <trkpt lat="44.17271" lon="3.12619">
        <ele>400.2</ele>
        <time>2022-04-05T15:46:03Z</time>
      </trkpt>
      <trkpt lat="44.17269" lon="3.12618">
        <ele>400.2</ele>
        <time>2022-04-05T15:46:02Z</time>
      </trkpt>
      <trkpt lat="44.17266" lon="3.12619">
        <ele>400</ele>
        <time>2022-04-05T15:46:01Z</time>
      </trkpt>
      <trkpt lat="44.17259" lon="3.12616">
        <ele>400</ele>
        <time>2022-04-05T15:46:00Z</time>
      </trkpt>
      <trkpt lat="44.17256" lon="3.12615">
        <ele>400</ele>
        <time>2022-04-05T15:45:59Z</time>
      </trkpt>
      <trkpt lat="44.17253" lon="3.12613">
        <ele>400</ele>
        <time>2022-04-05T15:45:58Z</time>
      </trkpt>
      <trkpt lat="44.17247" lon="3.12612">
        <ele>399.8</ele>
        <time>2022-04-05T15:45:57Z</time>
      </trkpt>
      <trkpt lat="44.17244" lon="3.12612">
        <ele>399.8</ele>
        <time>2022-04-05T15:45:56Z</time>
      </trkpt>
      <trkpt lat="44.1724" lon="3.1261">
        <ele>399.6</ele>
        <time>2022-04-05T15:45:55Z</time>
      </trkpt>
      <trkpt lat="44.17234" lon="3.12609">
        <ele>399.6</ele>
        <time>2022-04-05T15:45:54Z</time>
      </trkpt>
      <trkpt lat="44.17231" lon="3.12608">
        <ele>399.6</ele>
        <time>2022-04-05T15:45:52Z</time>
      </trkpt>
      <trkpt lat="44.17227" lon="3.12606">
        <ele>399.6</ele>
        <time>2022-04-05T15:45:51Z</time>
      </trkpt>
      <trkpt lat="44.17223" lon="3.12605">
        <ele>399.4</ele>
        <time>2022-04-05T15:45:50Z</time>
      </trkpt>
      <trkpt lat="44.17215" lon="3.12602">
        <ele>399.4</ele>
        <time>2022-04-05T15:45:49Z</time>
      </trkpt>
      <trkpt lat="44.17213" lon="3.12601">
        <ele>399.4</ele>
        <time>2022-04-05T15:45:48Z</time>
      </trkpt>
      <trkpt lat="44.17211" lon="3.126">
        <ele>399.2</ele>
        <time>2022-04-05T15:45:47Z</time>
      </trkpt>
      <trkpt lat="44.17209" lon="3.12599">
        <ele>399.2</ele>
        <time>2022-04-05T15:45:46Z</time>
      </trkpt>
      <trkpt lat="44.17205" lon="3.12596">
        <ele>399.2</ele>
        <time>2022-04-05T15:45:45Z</time>
      </trkpt>
      <trkpt lat="44.17202" lon="3.12594">
        <ele>399.2</ele>
        <time>2022-04-05T15:45:44Z</time>
      </trkpt>
      <trkpt lat="44.17199" lon="3.12591">
        <ele>398.8</ele>
        <time>2022-04-05T15:45:43Z</time>
      </trkpt>
      <trkpt lat="44.17196" lon="3.12588">
        <ele>398.8</ele>
        <time>2022-04-05T15:45:42Z</time>
      </trkpt>
      <trkpt lat="44.17193" lon="3.12586">
        <ele>398.8</ele>
        <time>2022-04-05T15:45:41Z</time>
      </trkpt>
      <trkpt lat="44.1719" lon="3.12582">
        <ele>398.8</ele>
        <time>2022-04-05T15:45:40Z</time>
      </trkpt>
      <trkpt lat="44.17187" lon="3.12578">
        <ele>398.8</ele>
        <time>2022-04-05T15:45:39Z</time>
      </trkpt>
      <trkpt lat="44.17183" lon="3.12574">
        <ele>398.8</ele>
        <time>2022-04-05T15:45:38Z</time>
      </trkpt>
      <trkpt lat="44.1718" lon="3.1257">
        <ele>398.8</ele>
        <time>2022-04-05T15:45:37Z</time>
      </trkpt>
      <trkpt lat="44.17177" lon="3.12566">
        <ele>398.8</ele>
        <time>2022-04-05T15:45:36Z</time>
      </trkpt>
      <trkpt lat="44.17174" lon="3.12562">
        <ele>398.8</ele>
        <time>2022-04-05T15:45:35Z</time>
      </trkpt>
      <trkpt lat="44.17171" lon="3.12558">
        <ele>398.6</ele>
        <time>2022-04-05T15:45:34Z</time>
      </trkpt>
      <trkpt lat="44.17168" lon="3.12554">
        <ele>398.6</ele>
        <time>2022-04-05T15:45:33Z</time>
      </trkpt>
      <trkpt lat="44.17165" lon="3.1255">
        <ele>398.6</ele>
        <time>2022-04-05T15:45:32Z</time>
      </trkpt>
      <trkpt lat="44.17162" lon="3.12545">
        <ele>398.6</ele>
        <time>2022-04-05T15:45:31Z</time>
      </trkpt>
      <trkpt lat="44.17156" lon="3.12537">
        <ele>398.4</ele>
        <time>2022-04-05T15:45:30Z</time>
      </trkpt>
      <trkpt lat="44.17153" lon="3.12533">
        <ele>398.2</ele>
        <time>2022-04-05T15:45:29Z</time>
      </trkpt>
      <trkpt lat="44.1715" lon="3.12529">
        <ele>398</ele>
        <time>2022-04-05T15:45:28Z</time>
      </trkpt>
      <trkpt lat="44.17147" lon="3.12523">
        <ele>397.8</ele>
        <time>2022-04-05T15:45:27Z</time>
      </trkpt>
      <trkpt lat="44.17143" lon="3.12518">
        <ele>397.8</ele>
        <time>2022-04-05T15:45:26Z</time>
      </trkpt>
      <trkpt lat="44.1714" lon="3.12513">
        <ele>397.8</ele>
        <time>2022-04-05T15:45:25Z</time>
      </trkpt>
      <trkpt lat="44.17136" lon="3.1251">
        <ele>397.8</ele>
        <time>2022-04-05T15:45:24Z</time>
      </trkpt>
      <trkpt lat="44.17132" lon="3.12506">
        <ele>397.8</ele>
        <time>2022-04-05T15:45:23Z</time>
      </trkpt>
      <trkpt lat="44.17129" lon="3.12504">
        <ele>397.8</ele>
        <time>2022-04-05T15:45:22Z</time>
      </trkpt>
      <trkpt lat="44.17126" lon="3.12501">
        <ele>397.8</ele>
        <time>2022-04-05T15:45:21Z</time>
      </trkpt>
      <trkpt lat="44.17117" lon="3.12496">
        <ele>397.8</ele>
        <time>2022-04-05T15:45:20Z</time>
      </trkpt>
      <trkpt lat="44.17115" lon="3.12495">
        <ele>397.8</ele>
        <time>2022-04-05T15:45:19Z</time>
      </trkpt>
      <trkpt lat="44.17114" lon="3.12493">
        <ele>397.8</ele>
        <time>2022-04-05T15:45:18Z</time>
      </trkpt>
      <trkpt lat="44.17111" lon="3.1249">
        <ele>397.8</ele>
        <time>2022-04-05T15:45:17Z</time>
      </trkpt>
      <trkpt lat="44.1711" lon="3.12489">
        <ele>397.8</ele>
        <time>2022-04-05T15:45:16Z</time>
      </trkpt>
      <trkpt lat="44.17104" lon="3.12484">
        <ele>397.6</ele>
        <time>2022-04-05T15:45:15Z</time>
      </trkpt>
      <trkpt lat="44.17101" lon="3.12482">
        <ele>397.6</ele>
        <time>2022-04-05T15:45:14Z</time>
      </trkpt>
      <trkpt lat="44.17098" lon="3.1248">
        <ele>397.6</ele>
        <time>2022-04-05T15:45:13Z</time>
      </trkpt>
      <trkpt lat="44.17094" lon="3.12477">
        <ele>397.6</ele>
        <time>2022-04-05T15:45:12Z</time>
      </trkpt>
      <trkpt lat="44.1709" lon="3.12474">
        <ele>397.6</ele>
        <time>2022-04-05T15:45:11Z</time>
      </trkpt>
      <trkpt lat="44.17087" lon="3.12472">
        <ele>397.6</ele>
        <time>2022-04-05T15:45:10Z</time>
      </trkpt>
      <trkpt lat="44.17083" lon="3.12468">
        <ele>397.6</ele>
        <time>2022-04-05T15:45:09Z</time>
      </trkpt>
      <trkpt lat="44.17078" lon="3.12464">
        <ele>397.8</ele>
        <time>2022-04-05T15:45:08Z</time>
      </trkpt>
      <trkpt lat="44.17067" lon="3.12455">
        <ele>397.8</ele>
        <time>2022-04-05T15:45:07Z</time>
      </trkpt>
      <trkpt lat="44.17062" lon="3.12452">
        <ele>397.8</ele>
        <time>2022-04-05T15:45:06Z</time>
      </trkpt>
      <trkpt lat="44.17059" lon="3.1245">
        <ele>398</ele>
        <time>2022-04-05T15:45:05Z</time>
      </trkpt>
      <trkpt lat="44.17057" lon="3.12448">
        <ele>398</ele>
        <time>2022-04-05T15:45:04Z</time>
      </trkpt>
      <trkpt lat="44.17052" lon="3.12445">
        <ele>398</ele>
        <time>2022-04-05T15:45:03Z</time>
      </trkpt>
      <trkpt lat="44.17048" lon="3.12442">
        <ele>398.2</ele>
        <time>2022-04-05T15:45:02Z</time>
      </trkpt>
      <trkpt lat="44.17044" lon="3.12438">
        <ele>398.2</ele>
        <time>2022-04-05T15:45:01Z</time>
      </trkpt>
      <trkpt lat="44.17034" lon="3.12427">
        <ele>398.2</ele>
        <time>2022-04-05T15:45:00Z</time>
      </trkpt>
      <trkpt lat="44.17032" lon="3.12425">
        <ele>398.2</ele>
        <time>2022-04-05T15:44:59Z</time>
      </trkpt>
      <trkpt lat="44.17025" lon="3.12419">
        <ele>398.2</ele>
        <time>2022-04-05T15:44:58Z</time>
      </trkpt>
      <trkpt lat="44.17023" lon="3.12417">
        <ele>398.4</ele>
        <time>2022-04-05T15:44:57Z</time>
      </trkpt>
      <trkpt lat="44.17017" lon="3.1241">
        <ele>398.4</ele>
        <time>2022-04-05T15:44:56Z</time>
      </trkpt>
      <trkpt lat="44.17014" lon="3.12408">
        <ele>398.4</ele>
        <time>2022-04-05T15:44:55Z</time>
      </trkpt>
      <trkpt lat="44.17012" lon="3.12405">
        <ele>398.6</ele>
        <time>2022-04-05T15:44:54Z</time>
      </trkpt>
      <trkpt lat="44.17006" lon="3.12396">
        <ele>398.6</ele>
        <time>2022-04-05T15:44:53Z</time>
      </trkpt>
      <trkpt lat="44.17003" lon="3.12393">
        <ele>398.6</ele>
        <time>2022-04-05T15:44:52Z</time>
      </trkpt>
      <trkpt lat="44.17" lon="3.1239">
        <ele>398.6</ele>
        <time>2022-04-05T15:44:51Z</time>
      </trkpt>
      <trkpt lat="44.16997" lon="3.12387">
        <ele>398.6</ele>
        <time>2022-04-05T15:44:50Z</time>
      </trkpt>
      <trkpt lat="44.16992" lon="3.12385">
        <ele>398.6</ele>
        <time>2022-04-05T15:44:49Z</time>
      </trkpt>
      <trkpt lat="44.16988" lon="3.12383">
        <ele>399</ele>
        <time>2022-04-05T15:44:48Z</time>
      </trkpt>
      <trkpt lat="44.16981" lon="3.12378">
        <ele>399</ele>
        <time>2022-04-05T15:44:47Z</time>
      </trkpt>
      <trkpt lat="44.16976" lon="3.12374">
        <ele>399.4</ele>
        <time>2022-04-05T15:44:46Z</time>
      </trkpt>
      <trkpt lat="44.1697" lon="3.12369">
        <ele>399.6</ele>
        <time>2022-04-05T15:44:45Z</time>
      </trkpt>
      <trkpt lat="44.16963" lon="3.12363">
        <ele>399.6</ele>
        <time>2022-04-05T15:44:44Z</time>
      </trkpt>
      <trkpt lat="44.16958" lon="3.12357">
        <ele>399.6</ele>
        <time>2022-04-05T15:44:43Z</time>
      </trkpt>
      <trkpt lat="44.16956" lon="3.12354">
        <ele>399.6</ele>
        <time>2022-04-05T15:44:42Z</time>
      </trkpt>
      <trkpt lat="44.16954" lon="3.12352">
        <ele>399.6</ele>
        <time>2022-04-05T15:44:41Z</time>
      </trkpt>
      <trkpt lat="44.16949" lon="3.12346">
        <ele>399.6</ele>
        <time>2022-04-05T15:44:40Z</time>
      </trkpt>
      <trkpt lat="44.16942" lon="3.12338">
        <ele>399.4</ele>
        <time>2022-04-05T15:44:39Z</time>
      </trkpt>
      <trkpt lat="44.16938" lon="3.12334">
        <ele>399.4</ele>
        <time>2022-04-05T15:44:38Z</time>
      </trkpt>
      <trkpt lat="44.16935" lon="3.1233">
        <ele>399.2</ele>
        <time>2022-04-05T15:44:37Z</time>
      </trkpt>
      <trkpt lat="44.16928" lon="3.12323">
        <ele>399.2</ele>
        <time>2022-04-05T15:44:36Z</time>
      </trkpt>
      <trkpt lat="44.16926" lon="3.12321">
        <ele>399</ele>
        <time>2022-04-05T15:44:35Z</time>
      </trkpt>
      <trkpt lat="44.16924" lon="3.12319">
        <ele>399</ele>
        <time>2022-04-05T15:44:34Z</time>
      </trkpt>
      <trkpt lat="44.16921" lon="3.12318">
        <ele>398.8</ele>
        <time>2022-04-05T15:44:32Z</time>
      </trkpt>
      <trkpt lat="44.16916" lon="3.12315">
        <ele>398.8</ele>
        <time>2022-04-05T15:44:31Z</time>
      </trkpt>
      <trkpt lat="44.16913" lon="3.1231">
        <ele>398.8</ele>
        <time>2022-04-05T15:44:30Z</time>
      </trkpt>
      <trkpt lat="44.16909" lon="3.12306">
        <ele>398.8</ele>
        <time>2022-04-05T15:44:29Z</time>
      </trkpt>
      <trkpt lat="44.16905" lon="3.12303">
        <ele>398.8</ele>
        <time>2022-04-05T15:44:28Z</time>
      </trkpt>
      <trkpt lat="44.16901" lon="3.123">
        <ele>398.8</ele>
        <time>2022-04-05T15:44:27Z</time>
      </trkpt>
      <trkpt lat="44.16898" lon="3.12297">
        <ele>398.8</ele>
        <time>2022-04-05T15:44:26Z</time>
      </trkpt>
      <trkpt lat="44.16894" lon="3.12294">
        <ele>398.8</ele>
        <time>2022-04-05T15:44:25Z</time>
      </trkpt>
      <trkpt lat="44.1689" lon="3.12291">
        <ele>398.8</ele>
        <time>2022-04-05T15:44:24Z</time>
      </trkpt>
      <trkpt lat="44.16887" lon="3.12288">
        <ele>398.8</ele>
        <time>2022-04-05T15:44:23Z</time>
      </trkpt>
      <trkpt lat="44.16884" lon="3.12286">
        <ele>398.8</ele>
        <time>2022-04-05T15:44:22Z</time>
      </trkpt>
      <trkpt lat="44.16881" lon="3.12283">
        <ele>399</ele>
        <time>2022-04-05T15:44:21Z</time>
      </trkpt>
      <trkpt lat="44.16878" lon="3.12279">
        <ele>399</ele>
        <time>2022-04-05T15:44:20Z</time>
      </trkpt>
      <trkpt lat="44.16874" lon="3.12277">
        <ele>398.8</ele>
        <time>2022-04-05T15:44:19Z</time>
      </trkpt>
      <trkpt lat="44.16871" lon="3.12274">
        <ele>398.8</ele>
        <time>2022-04-05T15:44:18Z</time>
      </trkpt>
      <trkpt lat="44.16868" lon="3.12272">
        <ele>398.8</ele>
        <time>2022-04-05T15:44:17Z</time>
      </trkpt>
      <trkpt lat="44.16865" lon="3.12269">
        <ele>398.8</ele>
        <time>2022-04-05T15:44:16Z</time>
      </trkpt>
      <trkpt lat="44.16862" lon="3.12266">
        <ele>399</ele>
        <time>2022-04-05T15:44:15Z</time>
      </trkpt>
      <trkpt lat="44.16858" lon="3.12262">
        <ele>399</ele>
        <time>2022-04-05T15:44:14Z</time>
      </trkpt>
      <trkpt lat="44.16856" lon="3.12258">
        <ele>399</ele>
        <time>2022-04-05T15:44:13Z</time>
      </trkpt>
      <trkpt lat="44.16854" lon="3.12256">
        <ele>399</ele>
        <time>2022-04-05T15:44:12Z</time>
      </trkpt>
      <trkpt lat="44.16852" lon="3.12254">
        <ele>399</ele>
        <time>2022-04-05T15:44:11Z</time>
      </trkpt>
      <trkpt lat="44.16849" lon="3.12251">
        <ele>399</ele>
        <time>2022-04-05T15:44:09Z</time>
      </trkpt>
      <trkpt lat="44.16841" lon="3.12245">
        <ele>399</ele>
        <time>2022-04-05T15:44:08Z</time>
      </trkpt>
      <trkpt lat="44.16839" lon="3.1224">
        <ele>399.2</ele>
        <time>2022-04-05T15:44:07Z</time>
      </trkpt>
      <trkpt lat="44.16836" lon="3.12235">
        <ele>399.2</ele>
        <time>2022-04-05T15:44:06Z</time>
      </trkpt>
      <trkpt lat="44.16833" lon="3.12231">
        <ele>399.4</ele>
        <time>2022-04-05T15:44:05Z</time>
      </trkpt>
      <trkpt lat="44.1683" lon="3.12226">
        <ele>399.4</ele>
        <time>2022-04-05T15:44:04Z</time>
      </trkpt>
      <trkpt lat="44.16828" lon="3.12223">
        <ele>399.4</ele>
        <time>2022-04-05T15:44:03Z</time>
      </trkpt>
      <trkpt lat="44.16825" lon="3.1222">
        <ele>399.6</ele>
        <time>2022-04-05T15:44:02Z</time>
      </trkpt>
      <trkpt lat="44.16822" lon="3.12217">
        <ele>399.6</ele>
        <time>2022-04-05T15:44:01Z</time>
      </trkpt>
      <trkpt lat="44.16819" lon="3.12214">
        <ele>399.6</ele>
        <time>2022-04-05T15:44:00Z</time>
      </trkpt>
      <trkpt lat="44.16817" lon="3.12212">
        <ele>399.6</ele>
        <time>2022-04-05T15:43:59Z</time>
      </trkpt>
      <trkpt lat="44.16815" lon="3.1221">
        <ele>399.6</ele>
        <time>2022-04-05T15:43:58Z</time>
      </trkpt>
      <trkpt lat="44.16813" lon="3.12206">
        <ele>399.6</ele>
        <time>2022-04-05T15:43:57Z</time>
      </trkpt>
      <trkpt lat="44.1681" lon="3.12202">
        <ele>399.6</ele>
        <time>2022-04-05T15:43:56Z</time>
      </trkpt>
      <trkpt lat="44.16807" lon="3.12197">
        <ele>399.6</ele>
        <time>2022-04-05T15:43:55Z</time>
      </trkpt>
      <trkpt lat="44.16803" lon="3.12191">
        <ele>399.8</ele>
        <time>2022-04-05T15:43:54Z</time>
      </trkpt>
      <trkpt lat="44.16799" lon="3.12186">
        <ele>399.8</ele>
        <time>2022-04-05T15:43:53Z</time>
      </trkpt>
      <trkpt lat="44.16796" lon="3.12182">
        <ele>399.8</ele>
        <time>2022-04-05T15:43:52Z</time>
      </trkpt>
      <trkpt lat="44.16793" lon="3.12177">
        <ele>399.6</ele>
        <time>2022-04-05T15:43:51Z</time>
      </trkpt>
      <trkpt lat="44.16791" lon="3.12173">
        <ele>399.6</ele>
        <time>2022-04-05T15:43:50Z</time>
      </trkpt>
      <trkpt lat="44.16788" lon="3.12168">
        <ele>399.6</ele>
        <time>2022-04-05T15:43:49Z</time>
      </trkpt>
      <trkpt lat="44.16786" lon="3.12164">
        <ele>399.6</ele>
        <time>2022-04-05T15:43:48Z</time>
      </trkpt>
      <trkpt lat="44.16783" lon="3.1216">
        <ele>399.6</ele>
        <time>2022-04-05T15:43:47Z</time>
      </trkpt>
      <trkpt lat="44.16779" lon="3.12156">
        <ele>399.6</ele>
        <time>2022-04-05T15:43:46Z</time>
      </trkpt>
      <trkpt lat="44.16775" lon="3.12152">
        <ele>399.8</ele>
        <time>2022-04-05T15:43:45Z</time>
      </trkpt>
      <trkpt lat="44.16772" lon="3.12147">
        <ele>399.8</ele>
        <time>2022-04-05T15:43:44Z</time>
      </trkpt>
      <trkpt lat="44.16769" lon="3.12141">
        <ele>399.8</ele>
        <time>2022-04-05T15:43:43Z</time>
      </trkpt>
      <trkpt lat="44.16767" lon="3.12135">
        <ele>399.8</ele>
        <time>2022-04-05T15:43:42Z</time>
      </trkpt>
      <trkpt lat="44.16764" lon="3.12128">
        <ele>400</ele>
        <time>2022-04-05T15:43:41Z</time>
      </trkpt>
      <trkpt lat="44.16762" lon="3.12122">
        <ele>400</ele>
        <time>2022-04-05T15:43:40Z</time>
      </trkpt>
      <trkpt lat="44.1676" lon="3.12116">
        <ele>400.2</ele>
        <time>2022-04-05T15:43:39Z</time>
      </trkpt>
      <trkpt lat="44.16759" lon="3.12109">
        <ele>400.2</ele>
        <time>2022-04-05T15:43:38Z</time>
      </trkpt>
      <trkpt lat="44.16757" lon="3.12103">
        <ele>400.4</ele>
        <time>2022-04-05T15:43:37Z</time>
      </trkpt>
      <trkpt lat="44.16756" lon="3.12096">
        <ele>400.8</ele>
        <time>2022-04-05T15:43:36Z</time>
      </trkpt>
      <trkpt lat="44.16754" lon="3.1209">
        <ele>401.4</ele>
        <time>2022-04-05T15:43:35Z</time>
      </trkpt>
      <trkpt lat="44.16753" lon="3.12083">
        <ele>401.6</ele>
        <time>2022-04-05T15:43:34Z</time>
      </trkpt>
      <trkpt lat="44.16751" lon="3.12077">
        <ele>402.2</ele>
        <time>2022-04-05T15:43:33Z</time>
      </trkpt>
      <trkpt lat="44.1675" lon="3.12072">
        <ele>402.6</ele>
        <time>2022-04-05T15:43:32Z</time>
      </trkpt>
      <trkpt lat="44.1675" lon="3.12066">
        <ele>403.6</ele>
        <time>2022-04-05T15:43:31Z</time>
      </trkpt>
      <trkpt lat="44.16753" lon="3.12061">
        <ele>405</ele>
        <time>2022-04-05T15:43:30Z</time>
      </trkpt>
      <trkpt lat="44.16757" lon="3.12057">
        <ele>405.6</ele>
        <time>2022-04-05T15:43:29Z</time>
      </trkpt>
      <trkpt lat="44.16762" lon="3.12053">
        <ele>406.6</ele>
        <time>2022-04-05T15:43:28Z</time>
      </trkpt>
      <trkpt lat="44.16767" lon="3.12049">
        <ele>406.8</ele>
        <time>2022-04-05T15:43:27Z</time>
      </trkpt>
      <trkpt lat="44.16773" lon="3.12045">
        <ele>407.2</ele>
        <time>2022-04-05T15:43:26Z</time>
      </trkpt>
      <trkpt lat="44.16779" lon="3.12041">
        <ele>407.4</ele>
        <time>2022-04-05T15:43:25Z</time>
      </trkpt>
      <trkpt lat="44.16786" lon="3.12036">
        <ele>407.8</ele>
        <time>2022-04-05T15:43:24Z</time>
      </trkpt>
      <trkpt lat="44.16792" lon="3.12031">
        <ele>408</ele>
        <time>2022-04-05T15:43:23Z</time>
      </trkpt>
      <trkpt lat="44.16799" lon="3.12026">
        <ele>408.4</ele>
        <time>2022-04-05T15:43:22Z</time>
      </trkpt>
      <trkpt lat="44.16806" lon="3.1202">
        <ele>409</ele>
        <time>2022-04-05T15:43:21Z</time>
      </trkpt>
      <trkpt lat="44.16813" lon="3.12015">
        <ele>409.2</ele>
        <time>2022-04-05T15:43:20Z</time>
      </trkpt>
      <trkpt lat="44.16819" lon="3.1201">
        <ele>409.6</ele>
        <time>2022-04-05T15:43:19Z</time>
      </trkpt>
      <trkpt lat="44.16825" lon="3.12005">
        <ele>409.8</ele>
        <time>2022-04-05T15:43:18Z</time>
      </trkpt>
      <trkpt lat="44.16832" lon="3.12001">
        <ele>410.2</ele>
        <time>2022-04-05T15:43:17Z</time>
      </trkpt>
      <trkpt lat="44.16838" lon="3.11997">
        <ele>410.2</ele>
        <time>2022-04-05T15:43:16Z</time>
      </trkpt>
      <trkpt lat="44.16843" lon="3.11995">
        <ele>410.4</ele>
        <time>2022-04-05T15:43:15Z</time>
      </trkpt>
      <trkpt lat="44.16848" lon="3.11995">
        <ele>410.6</ele>
        <time>2022-04-05T15:43:14Z</time>
      </trkpt>
      <trkpt lat="44.16853" lon="3.11993">
        <ele>410.8</ele>
        <time>2022-04-05T15:43:13Z</time>
      </trkpt>
      <trkpt lat="44.16855" lon="3.11988">
        <ele>410.8</ele>
        <time>2022-04-05T15:43:12Z</time>
      </trkpt>
      <trkpt lat="44.16855" lon="3.11982">
        <ele>410.8</ele>
        <time>2022-04-05T15:43:11Z</time>
      </trkpt>
      <trkpt lat="44.16852" lon="3.11974">
        <ele>410.8</ele>
        <time>2022-04-05T15:43:10Z</time>
      </trkpt>
      <trkpt lat="44.16849" lon="3.11967">
        <ele>410.8</ele>
        <time>2022-04-05T15:43:09Z</time>
      </trkpt>
      <trkpt lat="44.16846" lon="3.11959">
        <ele>410.8</ele>
        <time>2022-04-05T15:43:08Z</time>
      </trkpt>
      <trkpt lat="44.16843" lon="3.11951">
        <ele>410.8</ele>
        <time>2022-04-05T15:43:07Z</time>
      </trkpt>
      <trkpt lat="44.1684" lon="3.11944">
        <ele>410.8</ele>
        <time>2022-04-05T15:43:06Z</time>
      </trkpt>
      <trkpt lat="44.16837" lon="3.11936">
        <ele>410.8</ele>
        <time>2022-04-05T15:43:05Z</time>
      </trkpt>
      <trkpt lat="44.16835" lon="3.11929">
        <ele>410.8</ele>
        <time>2022-04-05T15:43:04Z</time>
      </trkpt>
      <trkpt lat="44.16832" lon="3.11921">
        <ele>410.6</ele>
        <time>2022-04-05T15:43:03Z</time>
      </trkpt>
      <trkpt lat="44.1683" lon="3.11913">
        <ele>410.6</ele>
        <time>2022-04-05T15:43:02Z</time>
      </trkpt>
      <trkpt lat="44.16828" lon="3.11905">
        <ele>410.4</ele>
        <time>2022-04-05T15:43:01Z</time>
      </trkpt>
      <trkpt lat="44.16826" lon="3.11897">
        <ele>410.4</ele>
        <time>2022-04-05T15:43:00Z</time>
      </trkpt>
      <trkpt lat="44.16824" lon="3.11888">
        <ele>410.4</ele>
        <time>2022-04-05T15:42:59Z</time>
      </trkpt>
      <trkpt lat="44.16823" lon="3.1188">
        <ele>410.4</ele>
        <time>2022-04-05T15:42:58Z</time>
      </trkpt>
      <trkpt lat="44.16822" lon="3.11871">
        <ele>410.2</ele>
        <time>2022-04-05T15:42:57Z</time>
      </trkpt>
      <trkpt lat="44.16821" lon="3.11863">
        <ele>410.2</ele>
        <time>2022-04-05T15:42:56Z</time>
      </trkpt>
      <trkpt lat="44.16821" lon="3.11854">
        <ele>410</ele>
        <time>2022-04-05T15:42:55Z</time>
      </trkpt>
      <trkpt lat="44.16821" lon="3.11845">
        <ele>410</ele>
        <time>2022-04-05T15:42:54Z</time>
      </trkpt>
      <trkpt lat="44.1682" lon="3.11837">
        <ele>409.8</ele>
        <time>2022-04-05T15:42:53Z</time>
      </trkpt>
      <trkpt lat="44.1682" lon="3.11829">
        <ele>409.6</ele>
        <time>2022-04-05T15:42:52Z</time>
      </trkpt>
      <trkpt lat="44.16819" lon="3.1182">
        <ele>409.4</ele>
        <time>2022-04-05T15:42:51Z</time>
      </trkpt>
      <trkpt lat="44.16818" lon="3.11812">
        <ele>409.4</ele>
        <time>2022-04-05T15:42:50Z</time>
      </trkpt>
      <trkpt lat="44.16818" lon="3.11806">
        <ele>409</ele>
        <time>2022-04-05T15:42:49Z</time>
      </trkpt>
      <trkpt lat="44.16817" lon="3.11797">
        <ele>408.6</ele>
        <time>2022-04-05T15:42:48Z</time>
      </trkpt>
      <trkpt lat="44.16816" lon="3.11789">
        <ele>408.6</ele>
        <time>2022-04-05T15:42:47Z</time>
      </trkpt>
      <trkpt lat="44.16814" lon="3.11781">
        <ele>408.4</ele>
        <time>2022-04-05T15:42:46Z</time>
      </trkpt>
      <trkpt lat="44.16813" lon="3.11773">
        <ele>408.4</ele>
        <time>2022-04-05T15:42:45Z</time>
      </trkpt>
      <trkpt lat="44.16811" lon="3.11766">
        <ele>408.4</ele>
        <time>2022-04-05T15:42:44Z</time>
      </trkpt>
      <trkpt lat="44.1681" lon="3.11759">
        <ele>408.2</ele>
        <time>2022-04-05T15:42:43Z</time>
      </trkpt>
      <trkpt lat="44.16808" lon="3.11751">
        <ele>408.2</ele>
        <time>2022-04-05T15:42:42Z</time>
      </trkpt>
      <trkpt lat="44.16805" lon="3.11744">
        <ele>408.2</ele>
        <time>2022-04-05T15:42:41Z</time>
      </trkpt>
      <trkpt lat="44.16803" lon="3.11737">
        <ele>407.8</ele>
        <time>2022-04-05T15:42:40Z</time>
      </trkpt>
      <trkpt lat="44.16801" lon="3.1173">
        <ele>407.8</ele>
        <time>2022-04-05T15:42:39Z</time>
      </trkpt>
      <trkpt lat="44.16799" lon="3.11723">
        <ele>407.8</ele>
        <time>2022-04-05T15:42:38Z</time>
      </trkpt>
      <trkpt lat="44.16797" lon="3.11715">
        <ele>407.8</ele>
        <time>2022-04-05T15:42:37Z</time>
      </trkpt>
      <trkpt lat="44.16795" lon="3.11708">
        <ele>407.8</ele>
        <time>2022-04-05T15:42:36Z</time>
      </trkpt>
      <trkpt lat="44.16793" lon="3.117">
        <ele>408.2</ele>
        <time>2022-04-05T15:42:35Z</time>
      </trkpt>
      <trkpt lat="44.16791" lon="3.11693">
        <ele>408.2</ele>
        <time>2022-04-05T15:42:34Z</time>
      </trkpt>
      <trkpt lat="44.16788" lon="3.11685">
        <ele>408</ele>
        <time>2022-04-05T15:42:33Z</time>
      </trkpt>
      <trkpt lat="44.16786" lon="3.11677">
        <ele>408</ele>
        <time>2022-04-05T15:42:32Z</time>
      </trkpt>
      <trkpt lat="44.16784" lon="3.11669">
        <ele>408</ele>
        <time>2022-04-05T15:42:31Z</time>
      </trkpt>
      <trkpt lat="44.16782" lon="3.11661">
        <ele>408.2</ele>
        <time>2022-04-05T15:42:30Z</time>
      </trkpt>
      <trkpt lat="44.16779" lon="3.11653">
        <ele>408.2</ele>
        <time>2022-04-05T15:42:29Z</time>
      </trkpt>
      <trkpt lat="44.16778" lon="3.11644">
        <ele>408.2</ele>
        <time>2022-04-05T15:42:28Z</time>
      </trkpt>
      <trkpt lat="44.16776" lon="3.11636">
        <ele>408.2</ele>
        <time>2022-04-05T15:42:27Z</time>
      </trkpt>
      <trkpt lat="44.16775" lon="3.11628">
        <ele>408.2</ele>
        <time>2022-04-05T15:42:26Z</time>
      </trkpt>
      <trkpt lat="44.16774" lon="3.11619">
        <ele>408.2</ele>
        <time>2022-04-05T15:42:25Z</time>
      </trkpt>
      <trkpt lat="44.16773" lon="3.11611">
        <ele>408.4</ele>
        <time>2022-04-05T15:42:24Z</time>
      </trkpt>
      <trkpt lat="44.16773" lon="3.11603">
        <ele>408.4</ele>
        <time>2022-04-05T15:42:23Z</time>
      </trkpt>
      <trkpt lat="44.16772" lon="3.11595">
        <ele>408.4</ele>
        <time>2022-04-05T15:42:22Z</time>
      </trkpt>
      <trkpt lat="44.16771" lon="3.11587">
        <ele>408.4</ele>
        <time>2022-04-05T15:42:21Z</time>
      </trkpt>
      <trkpt lat="44.1677" lon="3.11579">
        <ele>408.4</ele>
        <time>2022-04-05T15:42:20Z</time>
      </trkpt>
      <trkpt lat="44.16769" lon="3.11571">
        <ele>408.4</ele>
        <time>2022-04-05T15:42:19Z</time>
      </trkpt>
      <trkpt lat="44.16768" lon="3.11563">
        <ele>408.4</ele>
        <time>2022-04-05T15:42:18Z</time>
      </trkpt>
      <trkpt lat="44.16766" lon="3.11555">
        <ele>408.2</ele>
        <time>2022-04-05T15:42:17Z</time>
      </trkpt>
      <trkpt lat="44.16764" lon="3.11548">
        <ele>408.2</ele>
        <time>2022-04-05T15:42:16Z</time>
      </trkpt>
      <trkpt lat="44.16762" lon="3.1154">
        <ele>408.2</ele>
        <time>2022-04-05T15:42:15Z</time>
      </trkpt>
      <trkpt lat="44.16759" lon="3.11533">
        <ele>408</ele>
        <time>2022-04-05T15:42:14Z</time>
      </trkpt>
      <trkpt lat="44.16756" lon="3.11526">
        <ele>408</ele>
        <time>2022-04-05T15:42:13Z</time>
      </trkpt>
      <trkpt lat="44.16753" lon="3.11519">
        <ele>407.8</ele>
        <time>2022-04-05T15:42:12Z</time>
      </trkpt>
      <trkpt lat="44.1675" lon="3.11512">
        <ele>407.8</ele>
        <time>2022-04-05T15:42:11Z</time>
      </trkpt>
      <trkpt lat="44.16747" lon="3.11505">
        <ele>407.6</ele>
        <time>2022-04-05T15:42:10Z</time>
      </trkpt>
      <trkpt lat="44.16743" lon="3.11499">
        <ele>407.6</ele>
        <time>2022-04-05T15:42:09Z</time>
      </trkpt>
      <trkpt lat="44.16739" lon="3.11494">
        <ele>407.4</ele>
        <time>2022-04-05T15:42:08Z</time>
      </trkpt>
      <trkpt lat="44.16735" lon="3.11488">
        <ele>407.4</ele>
        <time>2022-04-05T15:42:07Z</time>
      </trkpt>
      <trkpt lat="44.1673" lon="3.11483">
        <ele>407.2</ele>
        <time>2022-04-05T15:42:06Z</time>
      </trkpt>
      <trkpt lat="44.16726" lon="3.11479">
        <ele>407.2</ele>
        <time>2022-04-05T15:42:05Z</time>
      </trkpt>
      <trkpt lat="44.16721" lon="3.11475">
        <ele>407</ele>
        <time>2022-04-05T15:42:04Z</time>
      </trkpt>
      <trkpt lat="44.16716" lon="3.11471">
        <ele>407</ele>
        <time>2022-04-05T15:42:03Z</time>
      </trkpt>
      <trkpt lat="44.1671" lon="3.11467">
        <ele>407</ele>
        <time>2022-04-05T15:42:02Z</time>
      </trkpt>
      <trkpt lat="44.16705" lon="3.11463">
        <ele>407</ele>
        <time>2022-04-05T15:42:01Z</time>
      </trkpt>
      <trkpt lat="44.167" lon="3.1146">
        <ele>406.8</ele>
        <time>2022-04-05T15:42:00Z</time>
      </trkpt>
      <trkpt lat="44.16695" lon="3.11456">
        <ele>406.6</ele>
        <time>2022-04-05T15:41:59Z</time>
      </trkpt>
      <trkpt lat="44.1669" lon="3.11452">
        <ele>406.6</ele>
        <time>2022-04-05T15:41:58Z</time>
      </trkpt>
      <trkpt lat="44.16684" lon="3.11449">
        <ele>406.6</ele>
        <time>2022-04-05T15:41:57Z</time>
      </trkpt>
      <trkpt lat="44.16679" lon="3.11445">
        <ele>406.6</ele>
        <time>2022-04-05T15:41:56Z</time>
      </trkpt>
      <trkpt lat="44.16674" lon="3.11442">
        <ele>406.6</ele>
        <time>2022-04-05T15:41:55Z</time>
      </trkpt>
      <trkpt lat="44.16668" lon="3.11438">
        <ele>406.6</ele>
        <time>2022-04-05T15:41:54Z</time>
      </trkpt>
      <trkpt lat="44.16663" lon="3.11435">
        <ele>406.6</ele>
        <time>2022-04-05T15:41:53Z</time>
      </trkpt>
      <trkpt lat="44.16658" lon="3.11431">
        <ele>406.6</ele>
        <time>2022-04-05T15:41:52Z</time>
      </trkpt>
      <trkpt lat="44.16652" lon="3.11428">
        <ele>406.6</ele>
        <time>2022-04-05T15:41:51Z</time>
      </trkpt>
      <trkpt lat="44.16647" lon="3.11425">
        <ele>406.6</ele>
        <time>2022-04-05T15:41:50Z</time>
      </trkpt>
      <trkpt lat="44.16642" lon="3.11421">
        <ele>406.6</ele>
        <time>2022-04-05T15:41:49Z</time>
      </trkpt>
      <trkpt lat="44.16637" lon="3.11418">
        <ele>406.6</ele>
        <time>2022-04-05T15:41:48Z</time>
      </trkpt>
      <trkpt lat="44.16632" lon="3.11415">
        <ele>406.8</ele>
        <time>2022-04-05T15:41:47Z</time>
      </trkpt>
      <trkpt lat="44.16628" lon="3.11412">
        <ele>406.8</ele>
        <time>2022-04-05T15:41:46Z</time>
      </trkpt>
      <trkpt lat="44.16623" lon="3.11409">
        <ele>406.8</ele>
        <time>2022-04-05T15:41:45Z</time>
      </trkpt>
      <trkpt lat="44.16618" lon="3.11405">
        <ele>407</ele>
        <time>2022-04-05T15:41:44Z</time>
      </trkpt>
      <trkpt lat="44.16613" lon="3.11401">
        <ele>407</ele>
        <time>2022-04-05T15:41:43Z</time>
      </trkpt>
      <trkpt lat="44.16609" lon="3.11397">
        <ele>407</ele>
        <time>2022-04-05T15:41:42Z</time>
      </trkpt>
      <trkpt lat="44.16604" lon="3.11394">
        <ele>407</ele>
        <time>2022-04-05T15:41:41Z</time>
      </trkpt>
      <trkpt lat="44.166" lon="3.1139">
        <ele>407.2</ele>
        <time>2022-04-05T15:41:40Z</time>
      </trkpt>
      <trkpt lat="44.16596" lon="3.11386">
        <ele>407.2</ele>
        <time>2022-04-05T15:41:39Z</time>
      </trkpt>
      <trkpt lat="44.16592" lon="3.11382">
        <ele>407.2</ele>
        <time>2022-04-05T15:41:38Z</time>
      </trkpt>
      <trkpt lat="44.16588" lon="3.11377">
        <ele>407.2</ele>
        <time>2022-04-05T15:41:37Z</time>
      </trkpt>
      <trkpt lat="44.16584" lon="3.11373">
        <ele>407</ele>
        <time>2022-04-05T15:41:36Z</time>
      </trkpt>
      <trkpt lat="44.1658" lon="3.11368">
        <ele>407</ele>
        <time>2022-04-05T15:41:35Z</time>
      </trkpt>
      <trkpt lat="44.16576" lon="3.11364">
        <ele>406.8</ele>
        <time>2022-04-05T15:41:34Z</time>
      </trkpt>
      <trkpt lat="44.16572" lon="3.11359">
        <ele>406.8</ele>
        <time>2022-04-05T15:41:33Z</time>
      </trkpt>
      <trkpt lat="44.16568" lon="3.11355">
        <ele>406.6</ele>
        <time>2022-04-05T15:41:32Z</time>
      </trkpt>
      <trkpt lat="44.16563" lon="3.1135">
        <ele>406.2</ele>
        <time>2022-04-05T15:41:31Z</time>
      </trkpt>
      <trkpt lat="44.16559" lon="3.11346">
        <ele>406</ele>
        <time>2022-04-05T15:41:30Z</time>
      </trkpt>
      <trkpt lat="44.16554" lon="3.11341">
        <ele>405.8</ele>
        <time>2022-04-05T15:41:29Z</time>
      </trkpt>
      <trkpt lat="44.1655" lon="3.11337">
        <ele>405.6</ele>
        <time>2022-04-05T15:41:28Z</time>
      </trkpt>
      <trkpt lat="44.16545" lon="3.11333">
        <ele>405.2</ele>
        <time>2022-04-05T15:41:27Z</time>
      </trkpt>
      <trkpt lat="44.16539" lon="3.1133">
        <ele>405.2</ele>
        <time>2022-04-05T15:41:26Z</time>
      </trkpt>
      <trkpt lat="44.16534" lon="3.11326">
        <ele>405</ele>
        <time>2022-04-05T15:41:25Z</time>
      </trkpt>
      <trkpt lat="44.16528" lon="3.11323">
        <ele>405</ele>
        <time>2022-04-05T15:41:24Z</time>
      </trkpt>
      <trkpt lat="44.16522" lon="3.11321">
        <ele>405</ele>
        <time>2022-04-05T15:41:23Z</time>
      </trkpt>
      <trkpt lat="44.16516" lon="3.11319">
        <ele>405</ele>
        <time>2022-04-05T15:41:22Z</time>
      </trkpt>
      <trkpt lat="44.1651" lon="3.11318">
        <ele>405</ele>
        <time>2022-04-05T15:41:21Z</time>
      </trkpt>
      <trkpt lat="44.16504" lon="3.11318">
        <ele>404.8</ele>
        <time>2022-04-05T15:41:20Z</time>
      </trkpt>
      <trkpt lat="44.16498" lon="3.11318">
        <ele>404.8</ele>
        <time>2022-04-05T15:41:19Z</time>
      </trkpt>
      <trkpt lat="44.16492" lon="3.11318">
        <ele>404.8</ele>
        <time>2022-04-05T15:41:18Z</time>
      </trkpt>
      <trkpt lat="44.16486" lon="3.11319">
        <ele>404.6</ele>
        <time>2022-04-05T15:41:17Z</time>
      </trkpt>
      <trkpt lat="44.1648" lon="3.11321">
        <ele>404.6</ele>
        <time>2022-04-05T15:41:16Z</time>
      </trkpt>
      <trkpt lat="44.16474" lon="3.11322">
        <ele>404.6</ele>
        <time>2022-04-05T15:41:15Z</time>
      </trkpt>
      <trkpt lat="44.16469" lon="3.11324">
        <ele>404.4</ele>
        <time>2022-04-05T15:41:14Z</time>
      </trkpt>
      <trkpt lat="44.16464" lon="3.11325">
        <ele>404.4</ele>
        <time>2022-04-05T15:41:13Z</time>
      </trkpt>
      <trkpt lat="44.16458" lon="3.11327">
        <ele>404.4</ele>
        <time>2022-04-05T15:41:12Z</time>
      </trkpt>
      <trkpt lat="44.16452" lon="3.11328">
        <ele>404.4</ele>
        <time>2022-04-05T15:41:11Z</time>
      </trkpt>
      <trkpt lat="44.16446" lon="3.11329">
        <ele>404.4</ele>
        <time>2022-04-05T15:41:10Z</time>
      </trkpt>
      <trkpt lat="44.16441" lon="3.11329">
        <ele>404.4</ele>
        <time>2022-04-05T15:41:09Z</time>
      </trkpt>
      <trkpt lat="44.16435" lon="3.1133">
        <ele>404.4</ele>
        <time>2022-04-05T15:41:08Z</time>
      </trkpt>
      <trkpt lat="44.16429" lon="3.1133">
        <ele>404.4</ele>
        <time>2022-04-05T15:41:07Z</time>
      </trkpt>
      <trkpt lat="44.16424" lon="3.11331">
        <ele>404.4</ele>
        <time>2022-04-05T15:41:06Z</time>
      </trkpt>
      <trkpt lat="44.16418" lon="3.11332">
        <ele>404.6</ele>
        <time>2022-04-05T15:41:05Z</time>
      </trkpt>
      <trkpt lat="44.16412" lon="3.11332">
        <ele>404.6</ele>
        <time>2022-04-05T15:41:04Z</time>
      </trkpt>
      <trkpt lat="44.16406" lon="3.11333">
        <ele>404.6</ele>
        <time>2022-04-05T15:41:03Z</time>
      </trkpt>
      <trkpt lat="44.16401" lon="3.11334">
        <ele>404.8</ele>
        <time>2022-04-05T15:41:02Z</time>
      </trkpt>
      <trkpt lat="44.16395" lon="3.11336">
        <ele>404.8</ele>
        <time>2022-04-05T15:41:01Z</time>
      </trkpt>
      <trkpt lat="44.16389" lon="3.11337">
        <ele>404.8</ele>
        <time>2022-04-05T15:41:00Z</time>
      </trkpt>
      <trkpt lat="44.16384" lon="3.11339">
        <ele>404.8</ele>
        <time>2022-04-05T15:40:59Z</time>
      </trkpt>
      <trkpt lat="44.16378" lon="3.11341">
        <ele>405</ele>
        <time>2022-04-05T15:40:58Z</time>
      </trkpt>
      <trkpt lat="44.16373" lon="3.11343">
        <ele>405</ele>
        <time>2022-04-05T15:40:57Z</time>
      </trkpt>
      <trkpt lat="44.16367" lon="3.11345">
        <ele>405</ele>
        <time>2022-04-05T15:40:56Z</time>
      </trkpt>
      <trkpt lat="44.16362" lon="3.11347">
        <ele>405</ele>
        <time>2022-04-05T15:40:55Z</time>
      </trkpt>
      <trkpt lat="44.16356" lon="3.11349">
        <ele>405</ele>
        <time>2022-04-05T15:40:54Z</time>
      </trkpt>
      <trkpt lat="44.16351" lon="3.11351">
        <ele>405</ele>
        <time>2022-04-05T15:40:53Z</time>
      </trkpt>
      <trkpt lat="44.16345" lon="3.11353">
        <ele>404.8</ele>
        <time>2022-04-05T15:40:52Z</time>
      </trkpt>
      <trkpt lat="44.1634" lon="3.11355">
        <ele>404.8</ele>
        <time>2022-04-05T15:40:51Z</time>
      </trkpt>
      <trkpt lat="44.16334" lon="3.11357">
        <ele>404.8</ele>
        <time>2022-04-05T15:40:50Z</time>
      </trkpt>
      <trkpt lat="44.16329" lon="3.11359">
        <ele>404.8</ele>
        <time>2022-04-05T15:40:49Z</time>
      </trkpt>
      <trkpt lat="44.16324" lon="3.1136">
        <ele>404.8</ele>
        <time>2022-04-05T15:40:48Z</time>
      </trkpt>
      <trkpt lat="44.16318" lon="3.11361">
        <ele>404.8</ele>
        <time>2022-04-05T15:40:47Z</time>
      </trkpt>
      <trkpt lat="44.16313" lon="3.11363">
        <ele>404.8</ele>
        <time>2022-04-05T15:40:46Z</time>
      </trkpt>
      <trkpt lat="44.16306" lon="3.11365">
        <ele>404.8</ele>
        <time>2022-04-05T15:40:45Z</time>
      </trkpt>
      <trkpt lat="44.16302" lon="3.11366">
        <ele>404.6</ele>
        <time>2022-04-05T15:40:44Z</time>
      </trkpt>
      <trkpt lat="44.16297" lon="3.11368">
        <ele>404.6</ele>
        <time>2022-04-05T15:40:43Z</time>
      </trkpt>
      <trkpt lat="44.16291" lon="3.11369">
        <ele>404.6</ele>
        <time>2022-04-05T15:40:42Z</time>
      </trkpt>
      <trkpt lat="44.16286" lon="3.11371">
        <ele>404.6</ele>
        <time>2022-04-05T15:40:41Z</time>
      </trkpt>
      <trkpt lat="44.16281" lon="3.11373">
        <ele>404.4</ele>
        <time>2022-04-05T15:40:40Z</time>
      </trkpt>
      <trkpt lat="44.16275" lon="3.11374">
        <ele>404.4</ele>
        <time>2022-04-05T15:40:39Z</time>
      </trkpt>
      <trkpt lat="44.1627" lon="3.11376">
        <ele>404.4</ele>
        <time>2022-04-05T15:40:38Z</time>
      </trkpt>
      <trkpt lat="44.16265" lon="3.11377">
        <ele>404.4</ele>
        <time>2022-04-05T15:40:37Z</time>
      </trkpt>
      <trkpt lat="44.1626" lon="3.11379">
        <ele>404.2</ele>
        <time>2022-04-05T15:40:36Z</time>
      </trkpt>
      <trkpt lat="44.16255" lon="3.11381">
        <ele>404.2</ele>
        <time>2022-04-05T15:40:35Z</time>
      </trkpt>
      <trkpt lat="44.16249" lon="3.11382">
        <ele>404.2</ele>
        <time>2022-04-05T15:40:34Z</time>
      </trkpt>
      <trkpt lat="44.16244" lon="3.11383">
        <ele>404.2</ele>
        <time>2022-04-05T15:40:33Z</time>
      </trkpt>
      <trkpt lat="44.16238" lon="3.11384">
        <ele>404</ele>
        <time>2022-04-05T15:40:32Z</time>
      </trkpt>
      <trkpt lat="44.16233" lon="3.11385">
        <ele>404</ele>
        <time>2022-04-05T15:40:31Z</time>
      </trkpt>
      <trkpt lat="44.16228" lon="3.11386">
        <ele>404</ele>
        <time>2022-04-05T15:40:30Z</time>
      </trkpt>
      <trkpt lat="44.16222" lon="3.11387">
        <ele>403.8</ele>
        <time>2022-04-05T15:40:29Z</time>
      </trkpt>
      <trkpt lat="44.16217" lon="3.11387">
        <ele>403.6</ele>
        <time>2022-04-05T15:40:28Z</time>
      </trkpt>
      <trkpt lat="44.16211" lon="3.11387">
        <ele>403.6</ele>
        <time>2022-04-05T15:40:27Z</time>
      </trkpt>
      <trkpt lat="44.16206" lon="3.11387">
        <ele>403.6</ele>
        <time>2022-04-05T15:40:26Z</time>
      </trkpt>
      <trkpt lat="44.162" lon="3.11386">
        <ele>403.6</ele>
        <time>2022-04-05T15:40:25Z</time>
      </trkpt>
      <trkpt lat="44.16195" lon="3.11384">
        <ele>403.6</ele>
        <time>2022-04-05T15:40:24Z</time>
      </trkpt>
      <trkpt lat="44.1619" lon="3.11383">
        <ele>403.4</ele>
        <time>2022-04-05T15:40:23Z</time>
      </trkpt>
      <trkpt lat="44.16185" lon="3.11381">
        <ele>403.4</ele>
        <time>2022-04-05T15:40:22Z</time>
      </trkpt>
      <trkpt lat="44.16179" lon="3.11378">
        <ele>403.2</ele>
        <time>2022-04-05T15:40:21Z</time>
      </trkpt>
      <trkpt lat="44.16174" lon="3.11375">
        <ele>403.2</ele>
        <time>2022-04-05T15:40:20Z</time>
      </trkpt>
      <trkpt lat="44.1617" lon="3.11372">
        <ele>403</ele>
        <time>2022-04-05T15:40:19Z</time>
      </trkpt>
      <trkpt lat="44.16165" lon="3.11369">
        <ele>403</ele>
        <time>2022-04-05T15:40:18Z</time>
      </trkpt>
      <trkpt lat="44.1616" lon="3.11365">
        <ele>402.8</ele>
        <time>2022-04-05T15:40:17Z</time>
      </trkpt>
      <trkpt lat="44.16155" lon="3.11361">
        <ele>402.8</ele>
        <time>2022-04-05T15:40:16Z</time>
      </trkpt>
      <trkpt lat="44.1615" lon="3.11357">
        <ele>402.8</ele>
        <time>2022-04-05T15:40:15Z</time>
      </trkpt>
      <trkpt lat="44.16146" lon="3.11352">
        <ele>402.6</ele>
        <time>2022-04-05T15:40:14Z</time>
      </trkpt>
      <trkpt lat="44.16142" lon="3.11347">
        <ele>402.6</ele>
        <time>2022-04-05T15:40:13Z</time>
      </trkpt>
      <trkpt lat="44.16138" lon="3.11341">
        <ele>402.4</ele>
        <time>2022-04-05T15:40:12Z</time>
      </trkpt>
      <trkpt lat="44.16134" lon="3.11336">
        <ele>402.4</ele>
        <time>2022-04-05T15:40:11Z</time>
      </trkpt>
      <trkpt lat="44.1613" lon="3.1133">
        <ele>402.4</ele>
        <time>2022-04-05T15:40:10Z</time>
      </trkpt>
      <trkpt lat="44.16126" lon="3.11324">
        <ele>402.4</ele>
        <time>2022-04-05T15:40:09Z</time>
      </trkpt>
      <trkpt lat="44.16123" lon="3.11318">
        <ele>402.4</ele>
        <time>2022-04-05T15:40:08Z</time>
      </trkpt>
      <trkpt lat="44.16119" lon="3.11311">
        <ele>402.4</ele>
        <time>2022-04-05T15:40:07Z</time>
      </trkpt>
      <trkpt lat="44.16116" lon="3.11305">
        <ele>402.4</ele>
        <time>2022-04-05T15:40:06Z</time>
      </trkpt>
      <trkpt lat="44.16112" lon="3.11298">
        <ele>402.4</ele>
        <time>2022-04-05T15:40:05Z</time>
      </trkpt>
      <trkpt lat="44.16109" lon="3.11291">
        <ele>402.6</ele>
        <time>2022-04-05T15:40:04Z</time>
      </trkpt>
      <trkpt lat="44.16105" lon="3.11285">
        <ele>402.6</ele>
        <time>2022-04-05T15:40:03Z</time>
      </trkpt>
      <trkpt lat="44.16102" lon="3.11278">
        <ele>402.8</ele>
        <time>2022-04-05T15:40:02Z</time>
      </trkpt>
      <trkpt lat="44.16098" lon="3.11272">
        <ele>402.8</ele>
        <time>2022-04-05T15:40:01Z</time>
      </trkpt>
      <trkpt lat="44.16095" lon="3.11265">
        <ele>402.8</ele>
        <time>2022-04-05T15:40:00Z</time>
      </trkpt>
      <trkpt lat="44.16092" lon="3.11259">
        <ele>402.8</ele>
        <time>2022-04-05T15:39:59Z</time>
      </trkpt>
      <trkpt lat="44.16088" lon="3.11253">
        <ele>403</ele>
        <time>2022-04-05T15:39:58Z</time>
      </trkpt>
      <trkpt lat="44.16085" lon="3.11247">
        <ele>403</ele>
        <time>2022-04-05T15:39:57Z</time>
      </trkpt>
      <trkpt lat="44.16082" lon="3.1124">
        <ele>403</ele>
        <time>2022-04-05T15:39:56Z</time>
      </trkpt>
      <trkpt lat="44.16079" lon="3.11234">
        <ele>402.8</ele>
        <time>2022-04-05T15:39:55Z</time>
      </trkpt>
      <trkpt lat="44.16075" lon="3.11228">
        <ele>402.8</ele>
        <time>2022-04-05T15:39:54Z</time>
      </trkpt>
      <trkpt lat="44.16072" lon="3.11221">
        <ele>402.6</ele>
        <time>2022-04-05T15:39:53Z</time>
      </trkpt>
      <trkpt lat="44.16069" lon="3.11215">
        <ele>402.6</ele>
        <time>2022-04-05T15:39:52Z</time>
      </trkpt>
      <trkpt lat="44.16066" lon="3.11209">
        <ele>402.6</ele>
        <time>2022-04-05T15:39:51Z</time>
      </trkpt>
      <trkpt lat="44.16063" lon="3.11203">
        <ele>402.4</ele>
        <time>2022-04-05T15:39:50Z</time>
      </trkpt>
      <trkpt lat="44.1606" lon="3.11196">
        <ele>402.4</ele>
        <time>2022-04-05T15:39:49Z</time>
      </trkpt>
      <trkpt lat="44.16057" lon="3.1119">
        <ele>402.4</ele>
        <time>2022-04-05T15:39:48Z</time>
      </trkpt>
      <trkpt lat="44.16053" lon="3.11184">
        <ele>402.4</ele>
        <time>2022-04-05T15:39:47Z</time>
      </trkpt>
      <trkpt lat="44.1605" lon="3.11177">
        <ele>402.4</ele>
        <time>2022-04-05T15:39:46Z</time>
      </trkpt>
      <trkpt lat="44.16047" lon="3.11171">
        <ele>402.4</ele>
        <time>2022-04-05T15:39:45Z</time>
      </trkpt>
      <trkpt lat="44.16043" lon="3.11165">
        <ele>402.4</ele>
        <time>2022-04-05T15:39:44Z</time>
      </trkpt>
      <trkpt lat="44.1604" lon="3.11158">
        <ele>402.4</ele>
        <time>2022-04-05T15:39:43Z</time>
      </trkpt>
      <trkpt lat="44.16037" lon="3.11152">
        <ele>402.4</ele>
        <time>2022-04-05T15:39:42Z</time>
      </trkpt>
      <trkpt lat="44.16034" lon="3.11145">
        <ele>402.4</ele>
        <time>2022-04-05T15:39:41Z</time>
      </trkpt>
      <trkpt lat="44.16031" lon="3.11139">
        <ele>402.4</ele>
        <time>2022-04-05T15:39:40Z</time>
      </trkpt>
      <trkpt lat="44.16028" lon="3.11133">
        <ele>402.4</ele>
        <time>2022-04-05T15:39:39Z</time>
      </trkpt>
      <trkpt lat="44.16025" lon="3.11126">
        <ele>402.4</ele>
        <time>2022-04-05T15:39:38Z</time>
      </trkpt>
      <trkpt lat="44.16022" lon="3.1112">
        <ele>402.4</ele>
        <time>2022-04-05T15:39:37Z</time>
      </trkpt>
      <trkpt lat="44.16019" lon="3.11113">
        <ele>402.4</ele>
        <time>2022-04-05T15:39:36Z</time>
      </trkpt>
      <trkpt lat="44.16016" lon="3.11107">
        <ele>402.4</ele>
        <time>2022-04-05T15:39:35Z</time>
      </trkpt>
      <trkpt lat="44.16013" lon="3.11101">
        <ele>402.6</ele>
        <time>2022-04-05T15:39:34Z</time>
      </trkpt>
      <trkpt lat="44.1601" lon="3.11094">
        <ele>402.6</ele>
        <time>2022-04-05T15:39:33Z</time>
      </trkpt>
      <trkpt lat="44.16007" lon="3.11088">
        <ele>402.6</ele>
        <time>2022-04-05T15:39:32Z</time>
      </trkpt>
      <trkpt lat="44.16004" lon="3.11081">
        <ele>402.6</ele>
        <time>2022-04-05T15:39:31Z</time>
      </trkpt>
      <trkpt lat="44.16001" lon="3.11075">
        <ele>402.6</ele>
        <time>2022-04-05T15:39:30Z</time>
      </trkpt>
      <trkpt lat="44.15998" lon="3.11069">
        <ele>402.6</ele>
        <time>2022-04-05T15:39:29Z</time>
      </trkpt>
      <trkpt lat="44.15995" lon="3.11063">
        <ele>402.6</ele>
        <time>2022-04-05T15:39:28Z</time>
      </trkpt>
      <trkpt lat="44.15992" lon="3.11056">
        <ele>402.6</ele>
        <time>2022-04-05T15:39:27Z</time>
      </trkpt>
      <trkpt lat="44.15989" lon="3.1105">
        <ele>402.6</ele>
        <time>2022-04-05T15:39:26Z</time>
      </trkpt>
      <trkpt lat="44.15986" lon="3.11043">
        <ele>402.6</ele>
        <time>2022-04-05T15:39:25Z</time>
      </trkpt>
      <trkpt lat="44.15983" lon="3.11037">
        <ele>402.6</ele>
        <time>2022-04-05T15:39:24Z</time>
      </trkpt>
      <trkpt lat="44.15981" lon="3.1103">
        <ele>402.6</ele>
        <time>2022-04-05T15:39:23Z</time>
      </trkpt>
      <trkpt lat="44.15978" lon="3.11023">
        <ele>402.6</ele>
        <time>2022-04-05T15:39:22Z</time>
      </trkpt>
      <trkpt lat="44.15975" lon="3.11016">
        <ele>402.4</ele>
        <time>2022-04-05T15:39:21Z</time>
      </trkpt>
      <trkpt lat="44.15973" lon="3.1101">
        <ele>402.4</ele>
        <time>2022-04-05T15:39:20Z</time>
      </trkpt>
      <trkpt lat="44.1597" lon="3.11003">
        <ele>402.4</ele>
        <time>2022-04-05T15:39:19Z</time>
      </trkpt>
      <trkpt lat="44.15968" lon="3.10995">
        <ele>402.4</ele>
        <time>2022-04-05T15:39:18Z</time>
      </trkpt>
      <trkpt lat="44.15966" lon="3.10988">
        <ele>402.2</ele>
        <time>2022-04-05T15:39:17Z</time>
      </trkpt>
      <trkpt lat="44.15964" lon="3.10981">
        <ele>402.2</ele>
        <time>2022-04-05T15:39:16Z</time>
      </trkpt>
      <trkpt lat="44.15962" lon="3.10973">
        <ele>402.2</ele>
        <time>2022-04-05T15:39:15Z</time>
      </trkpt>
      <trkpt lat="44.1596" lon="3.10966">
        <ele>402.2</ele>
        <time>2022-04-05T15:39:14Z</time>
      </trkpt>
      <trkpt lat="44.15958" lon="3.10958">
        <ele>402.4</ele>
        <time>2022-04-05T15:39:13Z</time>
      </trkpt>
      <trkpt lat="44.15957" lon="3.1095">
        <ele>402.2</ele>
        <time>2022-04-05T15:39:12Z</time>
      </trkpt>
      <trkpt lat="44.15955" lon="3.10943">
        <ele>402.2</ele>
        <time>2022-04-05T15:39:11Z</time>
      </trkpt>
      <trkpt lat="44.15954" lon="3.10935">
        <ele>402.2</ele>
        <time>2022-04-05T15:39:10Z</time>
      </trkpt>
      <trkpt lat="44.15952" lon="3.10928">
        <ele>402.2</ele>
        <time>2022-04-05T15:39:09Z</time>
      </trkpt>
      <trkpt lat="44.15951" lon="3.1092">
        <ele>402.2</ele>
        <time>2022-04-05T15:39:08Z</time>
      </trkpt>
      <trkpt lat="44.1595" lon="3.10912">
        <ele>402.2</ele>
        <time>2022-04-05T15:39:07Z</time>
      </trkpt>
      <trkpt lat="44.15949" lon="3.10904">
        <ele>402.4</ele>
        <time>2022-04-05T15:39:06Z</time>
      </trkpt>
      <trkpt lat="44.15948" lon="3.10897">
        <ele>402.4</ele>
        <time>2022-04-05T15:39:05Z</time>
      </trkpt>
      <trkpt lat="44.15947" lon="3.10889">
        <ele>402.2</ele>
        <time>2022-04-05T15:39:04Z</time>
      </trkpt>
      <trkpt lat="44.15946" lon="3.10881">
        <ele>402</ele>
        <time>2022-04-05T15:39:03Z</time>
      </trkpt>
      <trkpt lat="44.15944" lon="3.10873">
        <ele>402</ele>
        <time>2022-04-05T15:39:02Z</time>
      </trkpt>
      <trkpt lat="44.15943" lon="3.10866">
        <ele>402</ele>
        <time>2022-04-05T15:39:01Z</time>
      </trkpt>
      <trkpt lat="44.15942" lon="3.10858">
        <ele>402</ele>
        <time>2022-04-05T15:39:00Z</time>
      </trkpt>
      <trkpt lat="44.1594" lon="3.1085">
        <ele>402</ele>
        <time>2022-04-05T15:38:59Z</time>
      </trkpt>
      <trkpt lat="44.15939" lon="3.10843">
        <ele>402</ele>
        <time>2022-04-05T15:38:58Z</time>
      </trkpt>
      <trkpt lat="44.15939" lon="3.10835">
        <ele>401.8</ele>
        <time>2022-04-05T15:38:57Z</time>
      </trkpt>
      <trkpt lat="44.15938" lon="3.10827">
        <ele>401.8</ele>
        <time>2022-04-05T15:38:56Z</time>
      </trkpt>
      <trkpt lat="44.15936" lon="3.1082">
        <ele>401.6</ele>
        <time>2022-04-05T15:38:55Z</time>
      </trkpt>
      <trkpt lat="44.15934" lon="3.10812">
        <ele>401.6</ele>
        <time>2022-04-05T15:38:54Z</time>
      </trkpt>
      <trkpt lat="44.15933" lon="3.10805">
        <ele>401.6</ele>
        <time>2022-04-05T15:38:53Z</time>
      </trkpt>
      <trkpt lat="44.15932" lon="3.10797">
        <ele>401.4</ele>
        <time>2022-04-05T15:38:52Z</time>
      </trkpt>
      <trkpt lat="44.1593" lon="3.10789">
        <ele>401.4</ele>
        <time>2022-04-05T15:38:51Z</time>
      </trkpt>
      <trkpt lat="44.15928" lon="3.10782">
        <ele>401.4</ele>
        <time>2022-04-05T15:38:50Z</time>
      </trkpt>
      <trkpt lat="44.15927" lon="3.10774">
        <ele>401.2</ele>
        <time>2022-04-05T15:38:49Z</time>
      </trkpt>
      <trkpt lat="44.15925" lon="3.10766">
        <ele>401.2</ele>
        <time>2022-04-05T15:38:48Z</time>
      </trkpt>
      <trkpt lat="44.15924" lon="3.10759">
        <ele>401.2</ele>
        <time>2022-04-05T15:38:47Z</time>
      </trkpt>
      <trkpt lat="44.15922" lon="3.10751">
        <ele>401</ele>
        <time>2022-04-05T15:38:46Z</time>
      </trkpt>
      <trkpt lat="44.15921" lon="3.10744">
        <ele>400.8</ele>
        <time>2022-04-05T15:38:45Z</time>
      </trkpt>
      <trkpt lat="44.15919" lon="3.10737">
        <ele>400.8</ele>
        <time>2022-04-05T15:38:44Z</time>
      </trkpt>
      <trkpt lat="44.15917" lon="3.10729">
        <ele>400.4</ele>
        <time>2022-04-05T15:38:43Z</time>
      </trkpt>
      <trkpt lat="44.15916" lon="3.10722">
        <ele>400.4</ele>
        <time>2022-04-05T15:38:42Z</time>
      </trkpt>
      <trkpt lat="44.15915" lon="3.10715">
        <ele>400.2</ele>
        <time>2022-04-05T15:38:41Z</time>
      </trkpt>
      <trkpt lat="44.15913" lon="3.10708">
        <ele>400</ele>
        <time>2022-04-05T15:38:40Z</time>
      </trkpt>
      <trkpt lat="44.15912" lon="3.10701">
        <ele>400</ele>
        <time>2022-04-05T15:38:39Z</time>
      </trkpt>
      <trkpt lat="44.1591" lon="3.10694">
        <ele>399.8</ele>
        <time>2022-04-05T15:38:38Z</time>
      </trkpt>
      <trkpt lat="44.15908" lon="3.10687">
        <ele>399.8</ele>
        <time>2022-04-05T15:38:37Z</time>
      </trkpt>
      <trkpt lat="44.15907" lon="3.1068">
        <ele>399.6</ele>
        <time>2022-04-05T15:38:36Z</time>
      </trkpt>
      <trkpt lat="44.15905" lon="3.10672">
        <ele>399.6</ele>
        <time>2022-04-05T15:38:35Z</time>
      </trkpt>
      <trkpt lat="44.15904" lon="3.10665">
        <ele>399.4</ele>
        <time>2022-04-05T15:38:34Z</time>
      </trkpt>
      <trkpt lat="44.15902" lon="3.10658">
        <ele>399.4</ele>
        <time>2022-04-05T15:38:33Z</time>
      </trkpt>
      <trkpt lat="44.15901" lon="3.10651">
        <ele>399.4</ele>
        <time>2022-04-05T15:38:32Z</time>
      </trkpt>
      <trkpt lat="44.15899" lon="3.10644">
        <ele>399.2</ele>
        <time>2022-04-05T15:38:31Z</time>
      </trkpt>
      <trkpt lat="44.15898" lon="3.10636">
        <ele>399.2</ele>
        <time>2022-04-05T15:38:30Z</time>
      </trkpt>
      <trkpt lat="44.15896" lon="3.10629">
        <ele>399.2</ele>
        <time>2022-04-05T15:38:29Z</time>
      </trkpt>
      <trkpt lat="44.15895" lon="3.10621">
        <ele>399</ele>
        <time>2022-04-05T15:38:28Z</time>
      </trkpt>
      <trkpt lat="44.15894" lon="3.10614">
        <ele>399</ele>
        <time>2022-04-05T15:38:27Z</time>
      </trkpt>
      <trkpt lat="44.15892" lon="3.10606">
        <ele>399</ele>
        <time>2022-04-05T15:38:26Z</time>
      </trkpt>
      <trkpt lat="44.1589" lon="3.10599">
        <ele>399</ele>
        <time>2022-04-05T15:38:25Z</time>
      </trkpt>
      <trkpt lat="44.15889" lon="3.10591">
        <ele>399</ele>
        <time>2022-04-05T15:38:24Z</time>
      </trkpt>
      <trkpt lat="44.15887" lon="3.10583">
        <ele>399</ele>
        <time>2022-04-05T15:38:23Z</time>
      </trkpt>
      <trkpt lat="44.15885" lon="3.10576">
        <ele>399</ele>
        <time>2022-04-05T15:38:22Z</time>
      </trkpt>
      <trkpt lat="44.15884" lon="3.10568">
        <ele>399</ele>
        <time>2022-04-05T15:38:21Z</time>
      </trkpt>
      <trkpt lat="44.15882" lon="3.10561">
        <ele>399</ele>
        <time>2022-04-05T15:38:20Z</time>
      </trkpt>
      <trkpt lat="44.1588" lon="3.10553">
        <ele>399</ele>
        <time>2022-04-05T15:38:19Z</time>
      </trkpt>
      <trkpt lat="44.15878" lon="3.10546">
        <ele>399</ele>
        <time>2022-04-05T15:38:18Z</time>
      </trkpt>
      <trkpt lat="44.15876" lon="3.10538">
        <ele>399</ele>
        <time>2022-04-05T15:38:17Z</time>
      </trkpt>
      <trkpt lat="44.15875" lon="3.10531">
        <ele>399</ele>
        <time>2022-04-05T15:38:16Z</time>
      </trkpt>
      <trkpt lat="44.15873" lon="3.10524">
        <ele>399</ele>
        <time>2022-04-05T15:38:15Z</time>
      </trkpt>
      <trkpt lat="44.15871" lon="3.10516">
        <ele>399</ele>
        <time>2022-04-05T15:38:14Z</time>
      </trkpt>
      <trkpt lat="44.15869" lon="3.10509">
        <ele>399</ele>
        <time>2022-04-05T15:38:13Z</time>
      </trkpt>
      <trkpt lat="44.15866" lon="3.10502">
        <ele>398.8</ele>
        <time>2022-04-05T15:38:12Z</time>
      </trkpt>
      <trkpt lat="44.15864" lon="3.10495">
        <ele>398.8</ele>
        <time>2022-04-05T15:38:11Z</time>
      </trkpt>
      <trkpt lat="44.15862" lon="3.10487">
        <ele>399</ele>
        <time>2022-04-05T15:38:10Z</time>
      </trkpt>
      <trkpt lat="44.15859" lon="3.1048">
        <ele>398.8</ele>
        <time>2022-04-05T15:38:09Z</time>
      </trkpt>
      <trkpt lat="44.15857" lon="3.10473">
        <ele>399</ele>
        <time>2022-04-05T15:38:08Z</time>
      </trkpt>
      <trkpt lat="44.15854" lon="3.10466">
        <ele>399</ele>
        <time>2022-04-05T15:38:07Z</time>
      </trkpt>
      <trkpt lat="44.15852" lon="3.10458">
        <ele>399</ele>
        <time>2022-04-05T15:38:06Z</time>
      </trkpt>
      <trkpt lat="44.15849" lon="3.10451">
        <ele>399</ele>
        <time>2022-04-05T15:38:05Z</time>
      </trkpt>
      <trkpt lat="44.15847" lon="3.10444">
        <ele>399</ele>
        <time>2022-04-05T15:38:04Z</time>
      </trkpt>
      <trkpt lat="44.15844" lon="3.10437">
        <ele>399</ele>
        <time>2022-04-05T15:38:03Z</time>
      </trkpt>
      <trkpt lat="44.15842" lon="3.1043">
        <ele>399.2</ele>
        <time>2022-04-05T15:38:02Z</time>
      </trkpt>
      <trkpt lat="44.1584" lon="3.10423">
        <ele>399</ele>
        <time>2022-04-05T15:38:01Z</time>
      </trkpt>
      <trkpt lat="44.15837" lon="3.10416">
        <ele>399</ele>
        <time>2022-04-05T15:38:00Z</time>
      </trkpt>
      <trkpt lat="44.15836" lon="3.10409">
        <ele>399.2</ele>
        <time>2022-04-05T15:37:59Z</time>
      </trkpt>
      <trkpt lat="44.15834" lon="3.10401">
        <ele>399.2</ele>
        <time>2022-04-05T15:37:58Z</time>
      </trkpt>
      <trkpt lat="44.15832" lon="3.10394">
        <ele>399.2</ele>
        <time>2022-04-05T15:37:57Z</time>
      </trkpt>
      <trkpt lat="44.15831" lon="3.10386">
        <ele>399.2</ele>
        <time>2022-04-05T15:37:56Z</time>
      </trkpt>
      <trkpt lat="44.15829" lon="3.10379">
        <ele>399.4</ele>
        <time>2022-04-05T15:37:55Z</time>
      </trkpt>
      <trkpt lat="44.15828" lon="3.10371">
        <ele>399.4</ele>
        <time>2022-04-05T15:37:54Z</time>
      </trkpt>
      <trkpt lat="44.15827" lon="3.10364">
        <ele>399.4</ele>
        <time>2022-04-05T15:37:53Z</time>
      </trkpt>
      <trkpt lat="44.15826" lon="3.10356">
        <ele>399.4</ele>
        <time>2022-04-05T15:37:52Z</time>
      </trkpt>
      <trkpt lat="44.15825" lon="3.10349">
        <ele>399.4</ele>
        <time>2022-04-05T15:37:51Z</time>
      </trkpt>
      <trkpt lat="44.15824" lon="3.10341">
        <ele>399.4</ele>
        <time>2022-04-05T15:37:50Z</time>
      </trkpt>
      <trkpt lat="44.15823" lon="3.10333">
        <ele>399.4</ele>
        <time>2022-04-05T15:37:49Z</time>
      </trkpt>
      <trkpt lat="44.15822" lon="3.10326">
        <ele>399.4</ele>
        <time>2022-04-05T15:37:48Z</time>
      </trkpt>
      <trkpt lat="44.15821" lon="3.10318">
        <ele>399.4</ele>
        <time>2022-04-05T15:37:47Z</time>
      </trkpt>
      <trkpt lat="44.15819" lon="3.10311">
        <ele>399.4</ele>
        <time>2022-04-05T15:37:46Z</time>
      </trkpt>
      <trkpt lat="44.15818" lon="3.10303">
        <ele>399.4</ele>
        <time>2022-04-05T15:37:45Z</time>
      </trkpt>
      <trkpt lat="44.15817" lon="3.10296">
        <ele>399.4</ele>
        <time>2022-04-05T15:37:44Z</time>
      </trkpt>
      <trkpt lat="44.15816" lon="3.10289">
        <ele>399.4</ele>
        <time>2022-04-05T15:37:43Z</time>
      </trkpt>
      <trkpt lat="44.15815" lon="3.10281">
        <ele>399.4</ele>
        <time>2022-04-05T15:37:42Z</time>
      </trkpt>
      <trkpt lat="44.15813" lon="3.10274">
        <ele>399.4</ele>
        <time>2022-04-05T15:37:41Z</time>
      </trkpt>
      <trkpt lat="44.15812" lon="3.10266">
        <ele>399.4</ele>
        <time>2022-04-05T15:37:40Z</time>
      </trkpt>
      <trkpt lat="44.15811" lon="3.10259">
        <ele>399.4</ele>
        <time>2022-04-05T15:37:39Z</time>
      </trkpt>
      <trkpt lat="44.1581" lon="3.10251">
        <ele>399.4</ele>
        <time>2022-04-05T15:37:38Z</time>
      </trkpt>
      <trkpt lat="44.15809" lon="3.10244">
        <ele>399.4</ele>
        <time>2022-04-05T15:37:37Z</time>
      </trkpt>
      <trkpt lat="44.15808" lon="3.10236">
        <ele>399.4</ele>
        <time>2022-04-05T15:37:36Z</time>
      </trkpt>
      <trkpt lat="44.15807" lon="3.10229">
        <ele>399.4</ele>
        <time>2022-04-05T15:37:35Z</time>
      </trkpt>
      <trkpt lat="44.15807" lon="3.10223">
        <ele>399.4</ele>
        <time>2022-04-05T15:37:34Z</time>
      </trkpt>
      <trkpt lat="44.15806" lon="3.10213">
        <ele>399.2</ele>
        <time>2022-04-05T15:37:33Z</time>
      </trkpt>
      <trkpt lat="44.15805" lon="3.10206">
        <ele>399.2</ele>
        <time>2022-04-05T15:37:32Z</time>
      </trkpt>
      <trkpt lat="44.15804" lon="3.10198">
        <ele>399.2</ele>
        <time>2022-04-05T15:37:31Z</time>
      </trkpt>
      <trkpt lat="44.15803" lon="3.10191">
        <ele>398.8</ele>
        <time>2022-04-05T15:37:30Z</time>
      </trkpt>
      <trkpt lat="44.15802" lon="3.10183">
        <ele>398.8</ele>
        <time>2022-04-05T15:37:29Z</time>
      </trkpt>
      <trkpt lat="44.15801" lon="3.10176">
        <ele>398.8</ele>
        <time>2022-04-05T15:37:28Z</time>
      </trkpt>
      <trkpt lat="44.15799" lon="3.10169">
        <ele>398.8</ele>
        <time>2022-04-05T15:37:27Z</time>
      </trkpt>
      <trkpt lat="44.15799" lon="3.10161">
        <ele>398.8</ele>
        <time>2022-04-05T15:37:26Z</time>
      </trkpt>
      <trkpt lat="44.15798" lon="3.10154">
        <ele>398.8</ele>
        <time>2022-04-05T15:37:25Z</time>
      </trkpt>
      <trkpt lat="44.15797" lon="3.10147">
        <ele>398.8</ele>
        <time>2022-04-05T15:37:24Z</time>
      </trkpt>
      <trkpt lat="44.15796" lon="3.10139">
        <ele>398.8</ele>
        <time>2022-04-05T15:37:23Z</time>
      </trkpt>
      <trkpt lat="44.15794" lon="3.10132">
        <ele>399</ele>
        <time>2022-04-05T15:37:22Z</time>
      </trkpt>
      <trkpt lat="44.15793" lon="3.10125">
        <ele>399</ele>
        <time>2022-04-05T15:37:21Z</time>
      </trkpt>
      <trkpt lat="44.15792" lon="3.10118">
        <ele>399.2</ele>
        <time>2022-04-05T15:37:20Z</time>
      </trkpt>
      <trkpt lat="44.15791" lon="3.10111">
        <ele>399.2</ele>
        <time>2022-04-05T15:37:19Z</time>
      </trkpt>
      <trkpt lat="44.1579" lon="3.10104">
        <ele>399.2</ele>
        <time>2022-04-05T15:37:18Z</time>
      </trkpt>
      <trkpt lat="44.15789" lon="3.10097">
        <ele>399.2</ele>
        <time>2022-04-05T15:37:17Z</time>
      </trkpt>
      <trkpt lat="44.15788" lon="3.10091">
        <ele>399.2</ele>
        <time>2022-04-05T15:37:16Z</time>
      </trkpt>
      <trkpt lat="44.15787" lon="3.10084">
        <ele>399.2</ele>
        <time>2022-04-05T15:37:15Z</time>
      </trkpt>
      <trkpt lat="44.15786" lon="3.10077">
        <ele>399.2</ele>
        <time>2022-04-05T15:37:14Z</time>
      </trkpt>
      <trkpt lat="44.15786" lon="3.1007">
        <ele>399.2</ele>
        <time>2022-04-05T15:37:13Z</time>
      </trkpt>
      <trkpt lat="44.15785" lon="3.10064">
        <ele>399.2</ele>
        <time>2022-04-05T15:37:12Z</time>
      </trkpt>
      <trkpt lat="44.15784" lon="3.10058">
        <ele>399.4</ele>
        <time>2022-04-05T15:37:11Z</time>
      </trkpt>
      <trkpt lat="44.15782" lon="3.10051">
        <ele>399.4</ele>
        <time>2022-04-05T15:37:10Z</time>
      </trkpt>
      <trkpt lat="44.15781" lon="3.10045">
        <ele>399.4</ele>
        <time>2022-04-05T15:37:09Z</time>
      </trkpt>
      <trkpt lat="44.1578" lon="3.10038">
        <ele>399.4</ele>
        <time>2022-04-05T15:37:08Z</time>
      </trkpt>
      <trkpt lat="44.15779" lon="3.10032">
        <ele>399.4</ele>
        <time>2022-04-05T15:37:07Z</time>
      </trkpt>
      <trkpt lat="44.15777" lon="3.10026">
        <ele>399.4</ele>
        <time>2022-04-05T15:37:06Z</time>
      </trkpt>
      <trkpt lat="44.15776" lon="3.10019">
        <ele>399.4</ele>
        <time>2022-04-05T15:37:05Z</time>
      </trkpt>
      <trkpt lat="44.15774" lon="3.10014">
        <ele>399.2</ele>
        <time>2022-04-05T15:37:04Z</time>
      </trkpt>
      <trkpt lat="44.15772" lon="3.10008">
        <ele>399.2</ele>
        <time>2022-04-05T15:37:03Z</time>
      </trkpt>
      <trkpt lat="44.1577" lon="3.10003">
        <ele>399.2</ele>
        <time>2022-04-05T15:37:02Z</time>
      </trkpt>
      <trkpt lat="44.15768" lon="3.09998">
        <ele>399.2</ele>
        <time>2022-04-05T15:37:01Z</time>
      </trkpt>
      <trkpt lat="44.15767" lon="3.09993">
        <ele>398.8</ele>
        <time>2022-04-05T15:37:00Z</time>
      </trkpt>
      <trkpt lat="44.15765" lon="3.09989">
        <ele>398.8</ele>
        <time>2022-04-05T15:36:59Z</time>
      </trkpt>
      <trkpt lat="44.15763" lon="3.09984">
        <ele>398.6</ele>
        <time>2022-04-05T15:36:58Z</time>
      </trkpt>
      <trkpt lat="44.15762" lon="3.0998">
        <ele>398.4</ele>
        <time>2022-04-05T15:36:57Z</time>
      </trkpt>
      <trkpt lat="44.1576" lon="3.09976">
        <ele>398.4</ele>
        <time>2022-04-05T15:36:56Z</time>
      </trkpt>
      <trkpt lat="44.15758" lon="3.09971">
        <ele>398.2</ele>
        <time>2022-04-05T15:36:55Z</time>
      </trkpt>
      <trkpt lat="44.15758" lon="3.09968">
        <ele>398</ele>
        <time>2022-04-05T15:36:54Z</time>
      </trkpt>
      <trkpt lat="44.15758" lon="3.09964">
        <ele>398</ele>
        <time>2022-04-05T15:36:53Z</time>
      </trkpt>
      <trkpt lat="44.15759" lon="3.09962">
        <ele>398</ele>
        <time>2022-04-05T15:36:52Z</time>
      </trkpt>
      <trkpt lat="44.1576" lon="3.0996">
        <ele>398</ele>
        <time>2022-04-05T15:36:51Z</time>
      </trkpt>
      <trkpt lat="44.15761" lon="3.09957">
        <ele>398</ele>
        <time>2022-04-05T15:36:50Z</time>
      </trkpt>
      <trkpt lat="44.15763" lon="3.09954">
        <ele>398.2</ele>
        <time>2022-04-05T15:36:49Z</time>
      </trkpt>
      <trkpt lat="44.15765" lon="3.0995">
        <ele>398.2</ele>
        <time>2022-04-05T15:36:48Z</time>
      </trkpt>
      <trkpt lat="44.15767" lon="3.09946">
        <ele>398.4</ele>
        <time>2022-04-05T15:36:47Z</time>
      </trkpt>
      <trkpt lat="44.15768" lon="3.09941">
        <ele>398.6</ele>
        <time>2022-04-05T15:36:46Z</time>
      </trkpt>
      <trkpt lat="44.15771" lon="3.09935">
        <ele>398.8</ele>
        <time>2022-04-05T15:36:45Z</time>
      </trkpt>
      <trkpt lat="44.15775" lon="3.09928">
        <ele>399</ele>
        <time>2022-04-05T15:36:44Z</time>
      </trkpt>
      <trkpt lat="44.15781" lon="3.09925">
        <ele>399</ele>
        <time>2022-04-05T15:36:43Z</time>
      </trkpt>
      <trkpt lat="44.15786" lon="3.09923">
        <ele>399.2</ele>
        <time>2022-04-05T15:36:42Z</time>
      </trkpt>
      <trkpt lat="44.1579" lon="3.09918">
        <ele>399.2</ele>
        <time>2022-04-05T15:36:41Z</time>
      </trkpt>
      <trkpt lat="44.15794" lon="3.09913">
        <ele>399.4</ele>
        <time>2022-04-05T15:36:40Z</time>
      </trkpt>
      <trkpt lat="44.15799" lon="3.09906">
        <ele>399.6</ele>
        <time>2022-04-05T15:36:39Z</time>
      </trkpt>
      <trkpt lat="44.15803" lon="3.09902">
        <ele>399.6</ele>
        <time>2022-04-05T15:36:38Z</time>
      </trkpt>
      <trkpt lat="44.15807" lon="3.09897">
        <ele>399.6</ele>
        <time>2022-04-05T15:36:37Z</time>
      </trkpt>
      <trkpt lat="44.1581" lon="3.09891">
        <ele>399.8</ele>
        <time>2022-04-05T15:36:36Z</time>
      </trkpt>
      <trkpt lat="44.15814" lon="3.09886">
        <ele>399.8</ele>
        <time>2022-04-05T15:36:35Z</time>
      </trkpt>
      <trkpt lat="44.15819" lon="3.09883">
        <ele>400</ele>
        <time>2022-04-05T15:36:34Z</time>
      </trkpt>
      <trkpt lat="44.15823" lon="3.09881">
        <ele>400</ele>
        <time>2022-04-05T15:36:33Z</time>
      </trkpt>
      <trkpt lat="44.15827" lon="3.09877">
        <ele>400</ele>
        <time>2022-04-05T15:36:32Z</time>
      </trkpt>
      <trkpt lat="44.1583" lon="3.09874">
        <ele>400.2</ele>
        <time>2022-04-05T15:36:31Z</time>
      </trkpt>
      <trkpt lat="44.15834" lon="3.09868">
        <ele>400.2</ele>
        <time>2022-04-05T15:36:30Z</time>
      </trkpt>
      <trkpt lat="44.15837" lon="3.09863">
        <ele>400.4</ele>
        <time>2022-04-05T15:36:29Z</time>
      </trkpt>
      <trkpt lat="44.15841" lon="3.09859">
        <ele>400.4</ele>
        <time>2022-04-05T15:36:28Z</time>
      </trkpt>
      <trkpt lat="44.15844" lon="3.09855">
        <ele>400.6</ele>
        <time>2022-04-05T15:36:27Z</time>
      </trkpt>
      <trkpt lat="44.15846" lon="3.09853">
        <ele>400.6</ele>
        <time>2022-04-05T15:36:26Z</time>
      </trkpt>
      <trkpt lat="44.15848" lon="3.0985">
        <ele>400.6</ele>
        <time>2022-04-05T15:36:25Z</time>
      </trkpt>
      <trkpt lat="44.15851" lon="3.09847">
        <ele>400.6</ele>
        <time>2022-04-05T15:36:24Z</time>
      </trkpt>
      <trkpt lat="44.15853" lon="3.09844">
        <ele>400.8</ele>
        <time>2022-04-05T15:36:23Z</time>
      </trkpt>
      <trkpt lat="44.15856" lon="3.0984">
        <ele>400.8</ele>
        <time>2022-04-05T15:36:22Z</time>
      </trkpt>
      <trkpt lat="44.15859" lon="3.09836">
        <ele>400.8</ele>
        <time>2022-04-05T15:36:21Z</time>
      </trkpt>
      <trkpt lat="44.15862" lon="3.0983">
        <ele>400.8</ele>
        <time>2022-04-05T15:36:20Z</time>
      </trkpt>
      <trkpt lat="44.15864" lon="3.09826">
        <ele>400.8</ele>
        <time>2022-04-05T15:36:19Z</time>
      </trkpt>
      <trkpt lat="44.15867" lon="3.09821">
        <ele>400.8</ele>
        <time>2022-04-05T15:36:18Z</time>
      </trkpt>
      <trkpt lat="44.1587" lon="3.09815">
        <ele>400.8</ele>
        <time>2022-04-05T15:36:17Z</time>
      </trkpt>
      <trkpt lat="44.15873" lon="3.09809">
        <ele>400.8</ele>
        <time>2022-04-05T15:36:16Z</time>
      </trkpt>
      <trkpt lat="44.15876" lon="3.09803">
        <ele>401</ele>
        <time>2022-04-05T15:36:15Z</time>
      </trkpt>
      <trkpt lat="44.15878" lon="3.09797">
        <ele>401</ele>
        <time>2022-04-05T15:36:14Z</time>
      </trkpt>
      <trkpt lat="44.15881" lon="3.09792">
        <ele>401.2</ele>
        <time>2022-04-05T15:36:13Z</time>
      </trkpt>
      <trkpt lat="44.15883" lon="3.09786">
        <ele>401.2</ele>
        <time>2022-04-05T15:36:12Z</time>
      </trkpt>
      <trkpt lat="44.15885" lon="3.09781">
        <ele>401.2</ele>
        <time>2022-04-05T15:36:11Z</time>
      </trkpt>
      <trkpt lat="44.15888" lon="3.09776">
        <ele>401.2</ele>
        <time>2022-04-05T15:36:10Z</time>
      </trkpt>
      <trkpt lat="44.15891" lon="3.09772">
        <ele>401.6</ele>
        <time>2022-04-05T15:36:09Z</time>
      </trkpt>
      <trkpt lat="44.15893" lon="3.09769">
        <ele>401.6</ele>
        <time>2022-04-05T15:36:08Z</time>
      </trkpt>
      <trkpt lat="44.15894" lon="3.09765">
        <ele>401.8</ele>
        <time>2022-04-05T15:36:07Z</time>
      </trkpt>
      <trkpt lat="44.15896" lon="3.09759">
        <ele>402</ele>
        <time>2022-04-05T15:36:06Z</time>
      </trkpt>
      <trkpt lat="44.15898" lon="3.09755">
        <ele>402.2</ele>
        <time>2022-04-05T15:36:05Z</time>
      </trkpt>
      <trkpt lat="44.15901" lon="3.0975">
        <ele>402.4</ele>
        <time>2022-04-05T15:36:04Z</time>
      </trkpt>
      <trkpt lat="44.15905" lon="3.09744">
        <ele>402.4</ele>
        <time>2022-04-05T15:36:03Z</time>
      </trkpt>
      <trkpt lat="44.15908" lon="3.09738">
        <ele>402.4</ele>
        <time>2022-04-05T15:36:02Z</time>
      </trkpt>
      <trkpt lat="44.15911" lon="3.09733">
        <ele>402.4</ele>
        <time>2022-04-05T15:36:01Z</time>
      </trkpt>
      <trkpt lat="44.15914" lon="3.09727">
        <ele>402.4</ele>
        <time>2022-04-05T15:36:00Z</time>
      </trkpt>
      <trkpt lat="44.15918" lon="3.09721">
        <ele>402.6</ele>
        <time>2022-04-05T15:35:59Z</time>
      </trkpt>
      <trkpt lat="44.15921" lon="3.09716">
        <ele>402.6</ele>
        <time>2022-04-05T15:35:58Z</time>
      </trkpt>
      <trkpt lat="44.15924" lon="3.09709">
        <ele>402.6</ele>
        <time>2022-04-05T15:35:57Z</time>
      </trkpt>
      <trkpt lat="44.15926" lon="3.09703">
        <ele>402.6</ele>
        <time>2022-04-05T15:35:56Z</time>
      </trkpt>
      <trkpt lat="44.15927" lon="3.09697">
        <ele>402.4</ele>
        <time>2022-04-05T15:35:55Z</time>
      </trkpt>
      <trkpt lat="44.15928" lon="3.09692">
        <ele>402.4</ele>
        <time>2022-04-05T15:35:54Z</time>
      </trkpt>
      <trkpt lat="44.1593" lon="3.09685">
        <ele>402.4</ele>
        <time>2022-04-05T15:35:53Z</time>
      </trkpt>
      <trkpt lat="44.15932" lon="3.09678">
        <ele>402.6</ele>
        <time>2022-04-05T15:35:52Z</time>
      </trkpt>
      <trkpt lat="44.15934" lon="3.09669">
        <ele>402.6</ele>
        <time>2022-04-05T15:35:51Z</time>
      </trkpt>
      <trkpt lat="44.15935" lon="3.09663">
        <ele>402.4</ele>
        <time>2022-04-05T15:35:50Z</time>
      </trkpt>
      <trkpt lat="44.15937" lon="3.09658">
        <ele>402.4</ele>
        <time>2022-04-05T15:35:49Z</time>
      </trkpt>
      <trkpt lat="44.15938" lon="3.09652">
        <ele>402.6</ele>
        <time>2022-04-05T15:35:48Z</time>
      </trkpt>
      <trkpt lat="44.1594" lon="3.09643">
        <ele>402.8</ele>
        <time>2022-04-05T15:35:47Z</time>
      </trkpt>
      <trkpt lat="44.15941" lon="3.09636">
        <ele>402.6</ele>
        <time>2022-04-05T15:35:46Z</time>
      </trkpt>
      <trkpt lat="44.15944" lon="3.0963">
        <ele>402.6</ele>
        <time>2022-04-05T15:35:45Z</time>
      </trkpt>
      <trkpt lat="44.15946" lon="3.09626">
        <ele>402.6</ele>
        <time>2022-04-05T15:35:44Z</time>
      </trkpt>
      <trkpt lat="44.15947" lon="3.09622">
        <ele>402.6</ele>
        <time>2022-04-05T15:35:43Z</time>
      </trkpt>
      <trkpt lat="44.15948" lon="3.09617">
        <ele>402.6</ele>
        <time>2022-04-05T15:35:42Z</time>
      </trkpt>
      <trkpt lat="44.15948" lon="3.09611">
        <ele>402.6</ele>
        <time>2022-04-05T15:35:41Z</time>
      </trkpt>
      <trkpt lat="44.15949" lon="3.09606">
        <ele>402.8</ele>
        <time>2022-04-05T15:35:40Z</time>
      </trkpt>
      <trkpt lat="44.1595" lon="3.09601">
        <ele>402.8</ele>
        <time>2022-04-05T15:35:39Z</time>
      </trkpt>
      <trkpt lat="44.15951" lon="3.09596">
        <ele>402.8</ele>
        <time>2022-04-05T15:35:38Z</time>
      </trkpt>
      <trkpt lat="44.15954" lon="3.0959">
        <ele>402.8</ele>
        <time>2022-04-05T15:35:37Z</time>
      </trkpt>
      <trkpt lat="44.15956" lon="3.09585">
        <ele>402.8</ele>
        <time>2022-04-05T15:35:36Z</time>
      </trkpt>
      <trkpt lat="44.1596" lon="3.09578">
        <ele>402.8</ele>
        <time>2022-04-05T15:35:35Z</time>
      </trkpt>
      <trkpt lat="44.15963" lon="3.09572">
        <ele>402.8</ele>
        <time>2022-04-05T15:35:34Z</time>
      </trkpt>
      <trkpt lat="44.15965" lon="3.09567">
        <ele>403</ele>
        <time>2022-04-05T15:35:33Z</time>
      </trkpt>
      <trkpt lat="44.15968" lon="3.09559">
        <ele>403</ele>
        <time>2022-04-05T15:35:32Z</time>
      </trkpt>
      <trkpt lat="44.15971" lon="3.09552">
        <ele>403</ele>
        <time>2022-04-05T15:35:31Z</time>
      </trkpt>
      <trkpt lat="44.15974" lon="3.09545">
        <ele>403</ele>
        <time>2022-04-05T15:35:30Z</time>
      </trkpt>
      <trkpt lat="44.15976" lon="3.09537">
        <ele>403.2</ele>
        <time>2022-04-05T15:35:29Z</time>
      </trkpt>
      <trkpt lat="44.15979" lon="3.0953">
        <ele>403.2</ele>
        <time>2022-04-05T15:35:28Z</time>
      </trkpt>
      <trkpt lat="44.15982" lon="3.09524">
        <ele>403.4</ele>
        <time>2022-04-05T15:35:27Z</time>
      </trkpt>
      <trkpt lat="44.15985" lon="3.09518">
        <ele>403.4</ele>
        <time>2022-04-05T15:35:26Z</time>
      </trkpt>
      <trkpt lat="44.15987" lon="3.09512">
        <ele>403.4</ele>
        <time>2022-04-05T15:35:25Z</time>
      </trkpt>
      <trkpt lat="44.1599" lon="3.09505">
        <ele>403.4</ele>
        <time>2022-04-05T15:35:24Z</time>
      </trkpt>
      <trkpt lat="44.15993" lon="3.09497">
        <ele>403.4</ele>
        <time>2022-04-05T15:35:23Z</time>
      </trkpt>
      <trkpt lat="44.15995" lon="3.0949">
        <ele>403.4</ele>
        <time>2022-04-05T15:35:22Z</time>
      </trkpt>
      <trkpt lat="44.15998" lon="3.09482">
        <ele>403.6</ele>
        <time>2022-04-05T15:35:21Z</time>
      </trkpt>
      <trkpt lat="44.16" lon="3.09475">
        <ele>403.6</ele>
        <time>2022-04-05T15:35:20Z</time>
      </trkpt>
      <trkpt lat="44.16003" lon="3.09468">
        <ele>403.6</ele>
        <time>2022-04-05T15:35:19Z</time>
      </trkpt>
      <trkpt lat="44.16006" lon="3.09461">
        <ele>403.6</ele>
        <time>2022-04-05T15:35:18Z</time>
      </trkpt>
      <trkpt lat="44.1601" lon="3.09454">
        <ele>403.8</ele>
        <time>2022-04-05T15:35:17Z</time>
      </trkpt>
      <trkpt lat="44.16013" lon="3.09447">
        <ele>404</ele>
        <time>2022-04-05T15:35:16Z</time>
      </trkpt>
      <trkpt lat="44.16017" lon="3.0944">
        <ele>404.4</ele>
        <time>2022-04-05T15:35:15Z</time>
      </trkpt>
      <trkpt lat="44.16021" lon="3.09433">
        <ele>404.6</ele>
        <time>2022-04-05T15:35:14Z</time>
      </trkpt>
      <trkpt lat="44.16024" lon="3.09425">
        <ele>405</ele>
        <time>2022-04-05T15:35:13Z</time>
      </trkpt>
      <trkpt lat="44.16027" lon="3.09417">
        <ele>405.2</ele>
        <time>2022-04-05T15:35:12Z</time>
      </trkpt>
      <trkpt lat="44.1603" lon="3.09408">
        <ele>405.4</ele>
        <time>2022-04-05T15:35:11Z</time>
      </trkpt>
      <trkpt lat="44.16032" lon="3.094">
        <ele>405.6</ele>
        <time>2022-04-05T15:35:10Z</time>
      </trkpt>
      <trkpt lat="44.16035" lon="3.09391">
        <ele>406</ele>
        <time>2022-04-05T15:35:09Z</time>
      </trkpt>
      <trkpt lat="44.16038" lon="3.09382">
        <ele>406.4</ele>
        <time>2022-04-05T15:35:08Z</time>
      </trkpt>
      <trkpt lat="44.1604" lon="3.09376">
        <ele>407.4</ele>
        <time>2022-04-05T15:35:07Z</time>
      </trkpt>
      <trkpt lat="44.16044" lon="3.09367">
        <ele>407.6</ele>
        <time>2022-04-05T15:35:06Z</time>
      </trkpt>
      <trkpt lat="44.16048" lon="3.09359">
        <ele>408.2</ele>
        <time>2022-04-05T15:35:05Z</time>
      </trkpt>
      <trkpt lat="44.16053" lon="3.09352">
        <ele>409</ele>
        <time>2022-04-05T15:35:04Z</time>
      </trkpt>
      <trkpt lat="44.16058" lon="3.09345">
        <ele>409.4</ele>
        <time>2022-04-05T15:35:03Z</time>
      </trkpt>
      <trkpt lat="44.16064" lon="3.09341">
        <ele>410.4</ele>
        <time>2022-04-05T15:35:02Z</time>
      </trkpt>
      <trkpt lat="44.16071" lon="3.09337">
        <ele>410.8</ele>
        <time>2022-04-05T15:35:01Z</time>
      </trkpt>
      <trkpt lat="44.16078" lon="3.09334">
        <ele>411</ele>
        <time>2022-04-05T15:35:00Z</time>
      </trkpt>
      <trkpt lat="44.16085" lon="3.09332">
        <ele>411</ele>
        <time>2022-04-05T15:34:59Z</time>
      </trkpt>
      <trkpt lat="44.16092" lon="3.0933">
        <ele>411</ele>
        <time>2022-04-05T15:34:58Z</time>
      </trkpt>
      <trkpt lat="44.16099" lon="3.09328">
        <ele>411</ele>
        <time>2022-04-05T15:34:57Z</time>
      </trkpt>
      <trkpt lat="44.16105" lon="3.09326">
        <ele>411</ele>
        <time>2022-04-05T15:34:56Z</time>
      </trkpt>
      <trkpt lat="44.16111" lon="3.09323">
        <ele>411</ele>
        <time>2022-04-05T15:34:55Z</time>
      </trkpt>
      <trkpt lat="44.16117" lon="3.09321">
        <ele>410.8</ele>
        <time>2022-04-05T15:34:54Z</time>
      </trkpt>
      <trkpt lat="44.16121" lon="3.09318">
        <ele>410.6</ele>
        <time>2022-04-05T15:34:53Z</time>
      </trkpt>
      <trkpt lat="44.16124" lon="3.09316">
        <ele>410.6</ele>
        <time>2022-04-05T15:34:52Z</time>
      </trkpt>
      <trkpt lat="44.16126" lon="3.09314">
        <ele>410.4</ele>
        <time>2022-04-05T15:34:51Z</time>
      </trkpt>
      <trkpt lat="44.16127" lon="3.09311">
        <ele>410.4</ele>
        <time>2022-04-05T15:34:50Z</time>
      </trkpt>
      <trkpt lat="44.16127" lon="3.09307">
        <ele>410.2</ele>
        <time>2022-04-05T15:34:49Z</time>
      </trkpt>
      <trkpt lat="44.16127" lon="3.09302">
        <ele>410.2</ele>
        <time>2022-04-05T15:34:48Z</time>
      </trkpt>
      <trkpt lat="44.16127" lon="3.09297">
        <ele>409.8</ele>
        <time>2022-04-05T15:34:47Z</time>
      </trkpt>
      <trkpt lat="44.16127" lon="3.09292">
        <ele>409.8</ele>
        <time>2022-04-05T15:34:46Z</time>
      </trkpt>
      <trkpt lat="44.16127" lon="3.09288">
        <ele>409.8</ele>
        <time>2022-04-05T15:34:45Z</time>
      </trkpt>
      <trkpt lat="44.16128" lon="3.09283">
        <ele>409.8</ele>
        <time>2022-04-05T15:34:44Z</time>
      </trkpt>
      <trkpt lat="44.16128" lon="3.09278">
        <ele>409.8</ele>
        <time>2022-04-05T15:34:43Z</time>
      </trkpt>
      <trkpt lat="44.16129" lon="3.09272">
        <ele>409.8</ele>
        <time>2022-04-05T15:34:42Z</time>
      </trkpt>
      <trkpt lat="44.16129" lon="3.09266">
        <ele>409.8</ele>
        <time>2022-04-05T15:34:41Z</time>
      </trkpt>
      <trkpt lat="44.1613" lon="3.0926">
        <ele>409.8</ele>
        <time>2022-04-05T15:34:40Z</time>
      </trkpt>
      <trkpt lat="44.1613" lon="3.09253">
        <ele>409.8</ele>
        <time>2022-04-05T15:34:39Z</time>
      </trkpt>
      <trkpt lat="44.16129" lon="3.09246">
        <ele>409.8</ele>
        <time>2022-04-05T15:34:38Z</time>
      </trkpt>
      <trkpt lat="44.16128" lon="3.09239">
        <ele>409.8</ele>
        <time>2022-04-05T15:34:37Z</time>
      </trkpt>
      <trkpt lat="44.16127" lon="3.09232">
        <ele>410</ele>
        <time>2022-04-05T15:34:36Z</time>
      </trkpt>
      <trkpt lat="44.16126" lon="3.09224">
        <ele>410</ele>
        <time>2022-04-05T15:34:35Z</time>
      </trkpt>
      <trkpt lat="44.16124" lon="3.09216">
        <ele>410.2</ele>
        <time>2022-04-05T15:34:34Z</time>
      </trkpt>
      <trkpt lat="44.16124" lon="3.09208">
        <ele>410.2</ele>
        <time>2022-04-05T15:34:33Z</time>
      </trkpt>
      <trkpt lat="44.16124" lon="3.09198">
        <ele>410.4</ele>
        <time>2022-04-05T15:34:32Z</time>
      </trkpt>
      <trkpt lat="44.16124" lon="3.09189">
        <ele>410.4</ele>
        <time>2022-04-05T15:34:31Z</time>
      </trkpt>
      <trkpt lat="44.16125" lon="3.09179">
        <ele>410.6</ele>
        <time>2022-04-05T15:34:30Z</time>
      </trkpt>
      <trkpt lat="44.16126" lon="3.09169">
        <ele>410.8</ele>
        <time>2022-04-05T15:34:29Z</time>
      </trkpt>
      <trkpt lat="44.16127" lon="3.09159">
        <ele>411</ele>
        <time>2022-04-05T15:34:28Z</time>
      </trkpt>
      <trkpt lat="44.16128" lon="3.09149">
        <ele>411.4</ele>
        <time>2022-04-05T15:34:27Z</time>
      </trkpt>
      <trkpt lat="44.16128" lon="3.09138">
        <ele>411.4</ele>
        <time>2022-04-05T15:34:26Z</time>
      </trkpt>
      <trkpt lat="44.16129" lon="3.09127">
        <ele>411.6</ele>
        <time>2022-04-05T15:34:25Z</time>
      </trkpt>
      <trkpt lat="44.1613" lon="3.09115">
        <ele>412.2</ele>
        <time>2022-04-05T15:34:24Z</time>
      </trkpt>
      <trkpt lat="44.16131" lon="3.09104">
        <ele>412.4</ele>
        <time>2022-04-05T15:34:23Z</time>
      </trkpt>
      <trkpt lat="44.16132" lon="3.09092">
        <ele>413</ele>
        <time>2022-04-05T15:34:22Z</time>
      </trkpt>
      <trkpt lat="44.16133" lon="3.09081">
        <ele>413.4</ele>
        <time>2022-04-05T15:34:21Z</time>
      </trkpt>
      <trkpt lat="44.16134" lon="3.09069">
        <ele>414.8</ele>
        <time>2022-04-05T15:34:20Z</time>
      </trkpt>
      <trkpt lat="44.16136" lon="3.09058">
        <ele>415.2</ele>
        <time>2022-04-05T15:34:19Z</time>
      </trkpt>
      <trkpt lat="44.16137" lon="3.09047">
        <ele>415.6</ele>
        <time>2022-04-05T15:34:18Z</time>
      </trkpt>
      <trkpt lat="44.16138" lon="3.09036">
        <ele>415.6</ele>
        <time>2022-04-05T15:34:17Z</time>
      </trkpt>
      <trkpt lat="44.16139" lon="3.09026">
        <ele>415.6</ele>
        <time>2022-04-05T15:34:16Z</time>
      </trkpt>
      <trkpt lat="44.1614" lon="3.09017">
        <ele>415.8</ele>
        <time>2022-04-05T15:34:15Z</time>
      </trkpt>
      <trkpt lat="44.16141" lon="3.09008">
        <ele>415.8</ele>
        <time>2022-04-05T15:34:14Z</time>
      </trkpt>
      <trkpt lat="44.16142" lon="3.09">
        <ele>415.8</ele>
        <time>2022-04-05T15:34:13Z</time>
      </trkpt>
      <trkpt lat="44.16142" lon="3.08993">
        <ele>415.8</ele>
        <time>2022-04-05T15:34:12Z</time>
      </trkpt>
      <trkpt lat="44.16141" lon="3.08986">
        <ele>415.6</ele>
        <time>2022-04-05T15:34:11Z</time>
      </trkpt>
      <trkpt lat="44.16139" lon="3.0898">
        <ele>415.6</ele>
        <time>2022-04-05T15:34:10Z</time>
      </trkpt>
      <trkpt lat="44.16137" lon="3.08974">
        <ele>415.6</ele>
        <time>2022-04-05T15:34:09Z</time>
      </trkpt>
      <trkpt lat="44.16136" lon="3.08968">
        <ele>415.6</ele>
        <time>2022-04-05T15:34:08Z</time>
      </trkpt>
      <trkpt lat="44.16135" lon="3.08962">
        <ele>415.6</ele>
        <time>2022-04-05T15:34:07Z</time>
      </trkpt>
      <trkpt lat="44.16136" lon="3.08956">
        <ele>415.6</ele>
        <time>2022-04-05T15:34:06Z</time>
      </trkpt>
      <trkpt lat="44.16138" lon="3.0895">
        <ele>415.6</ele>
        <time>2022-04-05T15:34:05Z</time>
      </trkpt>
      <trkpt lat="44.1614" lon="3.08944">
        <ele>415.6</ele>
        <time>2022-04-05T15:34:04Z</time>
      </trkpt>
      <trkpt lat="44.16142" lon="3.08938">
        <ele>415.6</ele>
        <time>2022-04-05T15:34:03Z</time>
      </trkpt>
      <trkpt lat="44.16144" lon="3.08933">
        <ele>415.8</ele>
        <time>2022-04-05T15:34:02Z</time>
      </trkpt>
      <trkpt lat="44.16147" lon="3.08928">
        <ele>415.8</ele>
        <time>2022-04-05T15:34:01Z</time>
      </trkpt>
      <trkpt lat="44.1615" lon="3.08923">
        <ele>415.6</ele>
        <time>2022-04-05T15:34:00Z</time>
      </trkpt>
      <trkpt lat="44.16153" lon="3.08918">
        <ele>415.8</ele>
        <time>2022-04-05T15:33:59Z</time>
      </trkpt>
      <trkpt lat="44.16156" lon="3.08913">
        <ele>415.8</ele>
        <time>2022-04-05T15:33:58Z</time>
      </trkpt>
      <trkpt lat="44.1616" lon="3.08909">
        <ele>416</ele>
        <time>2022-04-05T15:33:57Z</time>
      </trkpt>
      <trkpt lat="44.16163" lon="3.08904">
        <ele>416.2</ele>
        <time>2022-04-05T15:33:56Z</time>
      </trkpt>
      <trkpt lat="44.16166" lon="3.089">
        <ele>416.2</ele>
        <time>2022-04-05T15:33:55Z</time>
      </trkpt>
      <trkpt lat="44.16169" lon="3.08896">
        <ele>416.4</ele>
        <time>2022-04-05T15:33:54Z</time>
      </trkpt>
      <trkpt lat="44.16172" lon="3.08892">
        <ele>416.6</ele>
        <time>2022-04-05T15:33:53Z</time>
      </trkpt>
      <trkpt lat="44.16175" lon="3.08888">
        <ele>416.8</ele>
        <time>2022-04-05T15:33:52Z</time>
      </trkpt>
      <trkpt lat="44.16177" lon="3.08884">
        <ele>417</ele>
        <time>2022-04-05T15:33:51Z</time>
      </trkpt>
      <trkpt lat="44.16179" lon="3.08878">
        <ele>419.8</ele>
        <time>2022-04-05T15:33:39Z</time>
      </trkpt>
      <trkpt lat="44.16179" lon="3.08876">
        <ele>420.4</ele>
        <time>2022-04-05T15:33:38Z</time>
      </trkpt>
      <trkpt lat="44.16179" lon="3.08872">
        <ele>420.8</ele>
        <time>2022-04-05T15:33:37Z</time>
      </trkpt>
      <trkpt lat="44.16177" lon="3.08868">
        <ele>421.6</ele>
        <time>2022-04-05T15:33:36Z</time>
      </trkpt>
      <trkpt lat="44.16177" lon="3.08867">
        <ele>397.6</ele>
      </trkpt>
      <trkpt lat="44.16173" lon="3.08864">
        <ele>397.6</ele>
      </trkpt>
      <trkpt lat="44.1617" lon="3.0886">
        <ele>397.2</ele>
      </trkpt>
      <trkpt lat="44.16168" lon="3.08857">
        <ele>397.2</ele>
      </trkpt>
      <trkpt lat="44.16165" lon="3.08854">
        <ele>396.8</ele>
      </trkpt>
      <trkpt lat="44.16163" lon="3.08852">
        <ele>396.8</ele>
      </trkpt>
      <trkpt lat="44.16161" lon="3.08849">
        <ele>397</ele>
      </trkpt>
      <trkpt lat="44.16159" lon="3.08847">
        <ele>397.4</ele>
      </trkpt>
      <trkpt lat="44.16157" lon="3.08843">
        <ele>397.8</ele>
      </trkpt>
      <trkpt lat="44.16156" lon="3.0884">
        <ele>398</ele>
      </trkpt>
      <trkpt lat="44.16157" lon="3.08837">
        <ele>398</ele>
      </trkpt>
      <trkpt lat="44.16159" lon="3.08835">
        <ele>397.8</ele>
      </trkpt>
      <trkpt lat="44.16161" lon="3.08835">
        <ele>398.2</ele>
      </trkpt>
      <trkpt lat="44.16164" lon="3.08837">
        <ele>398.4</ele>
      </trkpt>
      <trkpt lat="44.16166" lon="3.08839">
        <ele>399</ele>
      </trkpt>
      <trkpt lat="44.16168" lon="3.08841">
        <ele>399.4</ele>
      </trkpt>
      <trkpt lat="44.16171" lon="3.08842">
        <ele>400</ele>
      </trkpt>
      <trkpt lat="44.16174" lon="3.08842">
        <ele>400.8</ele>
      </trkpt>
      <trkpt lat="44.16176" lon="3.08842">
        <ele>400.8</ele>
      </trkpt>
      <trkpt lat="44.16179" lon="3.0884">
        <ele>401</ele>
      </trkpt>
      <trkpt lat="44.16181" lon="3.08838">
        <ele>401.4</ele>
      </trkpt>
      <trkpt lat="44.16183" lon="3.08835">
        <ele>401.4</ele>
      </trkpt>
      <trkpt lat="44.16184" lon="3.08833">
        <ele>401.4</ele>
      </trkpt>
      <trkpt lat="44.16186" lon="3.0883">
        <ele>401.8</ele>
      </trkpt>
      <trkpt lat="44.16187" lon="3.08827">
        <ele>401.8</ele>
      </trkpt>
      <trkpt lat="44.16188" lon="3.08825">
        <ele>402.2</ele>
      </trkpt>
      <trkpt lat="44.16189" lon="3.08822">
        <ele>402.2</ele>
      </trkpt>
      <trkpt lat="44.1619" lon="3.08819">
        <ele>402.4</ele>
      </trkpt>
      <trkpt lat="44.16191" lon="3.08817">
        <ele>402.6</ele>
      </trkpt>
      <trkpt lat="44.16192" lon="3.08814">
        <ele>403</ele>
      </trkpt>
      <trkpt lat="44.16193" lon="3.08811">
        <ele>403.4</ele>
      </trkpt>
      <trkpt lat="44.16194" lon="3.08808">
        <ele>403.6</ele>
      </trkpt>
      <trkpt lat="44.16195" lon="3.08806">
        <ele>403.6</ele>
      </trkpt>
      <trkpt lat="44.16196" lon="3.08803">
        <ele>404</ele>
      </trkpt>
      <trkpt lat="44.16197" lon="3.088">
        <ele>404.2</ele>
      </trkpt>
      <trkpt lat="44.16198" lon="3.08797">
        <ele>404.4</ele>
      </trkpt>
      <trkpt lat="44.16199" lon="3.08795">
        <ele>404.6</ele>
      </trkpt>
      <trkpt lat="44.16201" lon="3.08792">
        <ele>404.8</ele>
      </trkpt>
      <trkpt lat="44.16202" lon="3.0879">
        <ele>405.2</ele>
      </trkpt>
      <trkpt lat="44.16203" lon="3.08787">
        <ele>405.4</ele>
      </trkpt>
      <trkpt lat="44.16204" lon="3.08785">
        <ele>405.4</ele>
      </trkpt>
      <trkpt lat="44.16205" lon="3.08782">
        <ele>405.8</ele>
      </trkpt>
      <trkpt lat="44.16207" lon="3.0878">
        <ele>405.6</ele>
      </trkpt>
      <trkpt lat="44.16208" lon="3.08778">
        <ele>405.8</ele>
      </trkpt>
      <trkpt lat="44.1621" lon="3.08776">
        <ele>406.2</ele>
      </trkpt>
      <trkpt lat="44.16211" lon="3.08774">
        <ele>406.4</ele>
      </trkpt>
      <trkpt lat="44.16212" lon="3.08772">
        <ele>406.8</ele>
      </trkpt>
      <trkpt lat="44.16214" lon="3.0877">
        <ele>407</ele>
      </trkpt>
      <trkpt lat="44.16216" lon="3.08768">
        <ele>407.4</ele>
      </trkpt>
      <trkpt lat="44.16218" lon="3.08766">
        <ele>407.4</ele>
      </trkpt>
      <trkpt lat="44.16219" lon="3.08764">
        <ele>407.6</ele>
      </trkpt>
      <trkpt lat="44.1622" lon="3.08762">
        <ele>407.8</ele>
      </trkpt>
      <trkpt lat="44.16222" lon="3.0876">
        <ele>407.8</ele>
      </trkpt>
      <trkpt lat="44.16224" lon="3.08758">
        <ele>408.2</ele>
      </trkpt>
      <trkpt lat="44.16225" lon="3.08756">
        <ele>408.2</ele>
      </trkpt>
      <trkpt lat="44.16227" lon="3.08755">
        <ele>408.6</ele>
      </trkpt>
      <trkpt lat="44.16229" lon="3.08753">
        <ele>408.8</ele>
      </trkpt>
      <trkpt lat="44.16231" lon="3.08751">
        <ele>409</ele>
      </trkpt>
      <trkpt lat="44.16232" lon="3.08749">
        <ele>409</ele>
      </trkpt>
      <trkpt lat="44.16234" lon="3.08748">
        <ele>409</ele>
      </trkpt>
      <trkpt lat="44.16236" lon="3.08746">
        <ele>409.2</ele>
      </trkpt>
      <trkpt lat="44.16237" lon="3.08744">
        <ele>409.6</ele>
      </trkpt>
      <trkpt lat="44.16239" lon="3.08742">
        <ele>409.6</ele>
      </trkpt>
      <trkpt lat="44.1624" lon="3.0874">
        <ele>410</ele>
      </trkpt>
      <trkpt lat="44.16242" lon="3.08738">
        <ele>409.8</ele>
      </trkpt>
      <trkpt lat="44.16245" lon="3.08736">
        <ele>410.2</ele>
      </trkpt>
      <trkpt lat="44.16247" lon="3.08735">
        <ele>410</ele>
      </trkpt>
      <trkpt lat="44.16249" lon="3.08734">
        <ele>410.4</ele>
      </trkpt>
      <trkpt lat="44.16251" lon="3.08733">
        <ele>410.6</ele>
      </trkpt>
      <trkpt lat="44.16253" lon="3.08732">
        <ele>410.8</ele>
      </trkpt>
      <trkpt lat="44.16254" lon="3.0873">
        <ele>411.2</ele>
      </trkpt>
      <trkpt lat="44.16256" lon="3.08729">
        <ele>411.6</ele>
      </trkpt>
      <trkpt lat="44.16258" lon="3.08728">
        <ele>411.8</ele>
      </trkpt>
      <trkpt lat="44.1626" lon="3.08725">
        <ele>412</ele>
      </trkpt>
      <trkpt lat="44.16259" lon="3.08721">
        <ele>412.4</ele>
      </trkpt>
      <trkpt lat="44.16257" lon="3.0872">
        <ele>412.4</ele>
      </trkpt>
      <trkpt lat="44.16254" lon="3.08721">
        <ele>412.8</ele>
      </trkpt>
      <trkpt lat="44.16252" lon="3.08722">
        <ele>413</ele>
      </trkpt>
      <trkpt lat="44.16249" lon="3.08723">
        <ele>413.4</ele>
      </trkpt>
      <trkpt lat="44.16247" lon="3.08724">
        <ele>413.6</ele>
      </trkpt>
      <trkpt lat="44.16245" lon="3.08724">
        <ele>414</ele>
      </trkpt>
      <trkpt lat="44.16242" lon="3.08725">
        <ele>414.2</ele>
      </trkpt>
      <trkpt lat="44.1624" lon="3.08726">
        <ele>414.4</ele>
      </trkpt>
      <trkpt lat="44.16237" lon="3.08727">
        <ele>414.4</ele>
      </trkpt>
      <trkpt lat="44.16235" lon="3.08727">
        <ele>414.6</ele>
      </trkpt>
      <trkpt lat="44.16233" lon="3.08728">
        <ele>414.4</ele>
      </trkpt>
      <trkpt lat="44.1623" lon="3.08729">
        <ele>414.6</ele>
      </trkpt>
      <trkpt lat="44.16228" lon="3.0873">
        <ele>415</ele>
      </trkpt>
      <trkpt lat="44.16226" lon="3.08731">
        <ele>415.2</ele>
      </trkpt>
      <trkpt lat="44.16223" lon="3.08731">
        <ele>415.4</ele>
      </trkpt>
      <trkpt lat="44.16221" lon="3.08732">
        <ele>415.4</ele>
      </trkpt>
      <trkpt lat="44.16219" lon="3.08733">
        <ele>415.4</ele>
      </trkpt>
      <trkpt lat="44.16217" lon="3.08733">
        <ele>416</ele>
      </trkpt>
      <trkpt lat="44.16214" lon="3.08733">
        <ele>416.2</ele>
      </trkpt>
      <trkpt lat="44.16212" lon="3.08733">
        <ele>416.4</ele>
      </trkpt>
      <trkpt lat="44.1621" lon="3.08734">
        <ele>416.4</ele>
      </trkpt>
      <trkpt lat="44.16208" lon="3.08734">
        <ele>416.6</ele>
      </trkpt>
      <trkpt lat="44.16205" lon="3.08734">
        <ele>416.8</ele>
      </trkpt>
      <trkpt lat="44.16203" lon="3.08734">
        <ele>417.2</ele>
      </trkpt>
      <trkpt lat="44.16202" lon="3.08735">
        <ele>417.4</ele>
      </trkpt>
      <trkpt lat="44.162" lon="3.08736">
        <ele>417.4</ele>
      </trkpt>
      <trkpt lat="44.16197" lon="3.08736">
        <ele>417.4</ele>
      </trkpt>
      <trkpt lat="44.16195" lon="3.08736">
        <ele>417.8</ele>
      </trkpt>
      <trkpt lat="44.16193" lon="3.08736">
        <ele>418</ele>
      </trkpt>
      <trkpt lat="44.16191" lon="3.08736">
        <ele>418.4</ele>
      </trkpt>
      <trkpt lat="44.16189" lon="3.08736">
        <ele>418.6</ele>
      </trkpt>
      <trkpt lat="44.16187" lon="3.08737">
        <ele>418.6</ele>
      </trkpt>
      <trkpt lat="44.16185" lon="3.08736">
        <ele>419.2</ele>
      </trkpt>
      <trkpt lat="44.16183" lon="3.08736">
        <ele>419.2</ele>
      </trkpt>
      <trkpt lat="44.16181" lon="3.08736">
        <ele>419.4</ele>
      </trkpt>
      <trkpt lat="44.16179" lon="3.08736">
        <ele>419.8</ele>
      </trkpt>
      <trkpt lat="44.16177" lon="3.08736">
        <ele>420.2</ele>
      </trkpt>
      <trkpt lat="44.16175" lon="3.08735">
        <ele>420</ele>
      </trkpt>
      <trkpt lat="44.16174" lon="3.08734">
        <ele>420.2</ele>
      </trkpt>
      <trkpt lat="44.16172" lon="3.08733">
        <ele>420.4</ele>
      </trkpt>
      <trkpt lat="44.1617" lon="3.08732">
        <ele>420.8</ele>
      </trkpt>
      <trkpt lat="44.16168" lon="3.08732">
        <ele>420.8</ele>
      </trkpt>
      <trkpt lat="44.16166" lon="3.08731">
        <ele>421.2</ele>
      </trkpt>
      <trkpt lat="44.16164" lon="3.0873">
        <ele>421.2</ele>
      </trkpt>
      <trkpt lat="44.16162" lon="3.08729">
        <ele>421.4</ele>
      </trkpt>
      <trkpt lat="44.1616" lon="3.08728">
        <ele>421.6</ele>
      </trkpt>
      <trkpt lat="44.16158" lon="3.08727">
        <ele>421.8</ele>
      </trkpt>
      <trkpt lat="44.16156" lon="3.08725">
        <ele>422.2</ele>
      </trkpt>
      <trkpt lat="44.16154" lon="3.08723">
        <ele>422.2</ele>
      </trkpt>
      <trkpt lat="44.16152" lon="3.08721">
        <ele>422.4</ele>
      </trkpt>
      <trkpt lat="44.16151" lon="3.0872">
        <ele>422.6</ele>
      </trkpt>
      <trkpt lat="44.1615" lon="3.08717">
        <ele>423</ele>
      </trkpt>
      <trkpt lat="44.16148" lon="3.08714">
        <ele>423</ele>
      </trkpt>
      <trkpt lat="44.16148" lon="3.08712">
        <ele>423.2</ele>
      </trkpt>
      <trkpt lat="44.16147" lon="3.08709">
        <ele>423.4</ele>
      </trkpt>
      <trkpt lat="44.16146" lon="3.08707">
        <ele>423.4</ele>
      </trkpt>
      <trkpt lat="44.16145" lon="3.08704">
        <ele>423.6</ele>
      </trkpt>
      <trkpt lat="44.16144" lon="3.08701">
        <ele>423.8</ele>
      </trkpt>
      <trkpt lat="44.16143" lon="3.08699">
        <ele>423.6</ele>
      </trkpt>
      <trkpt lat="44.16142" lon="3.08696">
        <ele>423.4</ele>
      </trkpt>
      <trkpt lat="44.16141" lon="3.08693">
        <ele>423.8</ele>
      </trkpt>
      <trkpt lat="44.1614" lon="3.08691">
        <ele>424</ele>
      </trkpt>
      <trkpt lat="44.16139" lon="3.08689">
        <ele>424.4</ele>
      </trkpt>
      <trkpt lat="44.16138" lon="3.08686">
        <ele>424.6</ele>
      </trkpt>
      <trkpt lat="44.16136" lon="3.08684">
        <ele>424.8</ele>
      </trkpt>
      <trkpt lat="44.16135" lon="3.08681">
        <ele>425</ele>
      </trkpt>
      <trkpt lat="44.16134" lon="3.08678">
        <ele>425.2</ele>
      </trkpt>
      <trkpt lat="44.16133" lon="3.08676">
        <ele>425.4</ele>
      </trkpt>
      <trkpt lat="44.16132" lon="3.08674">
        <ele>425.6</ele>
      </trkpt>
      <trkpt lat="44.1613" lon="3.08671">
        <ele>425.8</ele>
      </trkpt>
      <trkpt lat="44.16129" lon="3.08669">
        <ele>426</ele>
      </trkpt>
      <trkpt lat="44.16128" lon="3.08666">
        <ele>426.2</ele>
      </trkpt>
      <trkpt lat="44.16127" lon="3.08664">
        <ele>426</ele>
      </trkpt>
      <trkpt lat="44.16126" lon="3.08661">
        <ele>426.2</ele>
      </trkpt>
      <trkpt lat="44.16125" lon="3.08657">
        <ele>426.8</ele>
      </trkpt>
      <trkpt lat="44.16123" lon="3.08654">
        <ele>427.6</ele>
      </trkpt>
      <trkpt lat="44.1612" lon="3.08651">
        <ele>427.6</ele>
      </trkpt>
      <trkpt lat="44.16117" lon="3.0865">
        <ele>428.2</ele>
      </trkpt>
      <trkpt lat="44.16115" lon="3.0865">
        <ele>428.4</ele>
      </trkpt>
      <trkpt lat="44.16113" lon="3.0865">
        <ele>428.6</ele>
      </trkpt>
      <trkpt lat="44.1611" lon="3.0865">
        <ele>428.8</ele>
      </trkpt>
      <trkpt lat="44.16107" lon="3.0865">
        <ele>428.2</ele>
      </trkpt>
      <trkpt lat="44.16105" lon="3.08652">
        <ele>425.6</ele>
      </trkpt>
      <trkpt lat="44.16101" lon="3.08652">
        <ele>425.6</ele>
      </trkpt>
      <trkpt lat="44.161" lon="3.0865">
        <ele>425.4</ele>
      </trkpt>
      <trkpt lat="44.16099" lon="3.08647">
        <ele>425.4</ele>
      </trkpt>
      <trkpt lat="44.16098" lon="3.08645">
        <ele>425.6</ele>
      </trkpt>
      <trkpt lat="44.16097" lon="3.08642">
        <ele>425.8</ele>
      </trkpt>
      <trkpt lat="44.16097" lon="3.08639">
        <ele>425.4</ele>
      </trkpt>
      <trkpt lat="44.16096" lon="3.08636">
        <ele>425.6</ele>
      </trkpt>
      <trkpt lat="44.16096" lon="3.08633">
        <ele>425.4</ele>
      </trkpt>
      <trkpt lat="44.16094" lon="3.0863">
        <ele>425.2</ele>
      </trkpt>
      <trkpt lat="44.16093" lon="3.08626">
        <ele>425.4</ele>
      </trkpt>
      <trkpt lat="44.16091" lon="3.08623">
        <ele>425.4</ele>
      </trkpt>
      <trkpt lat="44.1609" lon="3.0862">
        <ele>425.4</ele>
      </trkpt>
      <trkpt lat="44.16089" lon="3.08617">
        <ele>425.6</ele>
      </trkpt>
      <trkpt lat="44.16088" lon="3.08614">
        <ele>425.8</ele>
      </trkpt>
      <trkpt lat="44.16088" lon="3.08611">
        <ele>425.6</ele>
      </trkpt>
      <trkpt lat="44.16088" lon="3.08607">
        <ele>425.4</ele>
      </trkpt>
      <trkpt lat="44.16088" lon="3.08603">
        <ele>425</ele>
      </trkpt>
      <trkpt lat="44.16088" lon="3.086">
        <ele>425.4</ele>
      </trkpt>
      <trkpt lat="44.16088" lon="3.08597">
        <ele>425.4</ele>
      </trkpt>
      <trkpt lat="44.16089" lon="3.08593">
        <ele>425.6</ele>
      </trkpt>
      <trkpt lat="44.16089" lon="3.0859">
        <ele>426</ele>
      </trkpt>
      <trkpt lat="44.16091" lon="3.08587">
        <ele>426.4</ele>
      </trkpt>
      <trkpt lat="44.16092" lon="3.08584">
        <ele>426.8</ele>
      </trkpt>
      <trkpt lat="44.16093" lon="3.08581">
        <ele>427</ele>
      </trkpt>
      <trkpt lat="44.16095" lon="3.08579">
        <ele>427.2</ele>
      </trkpt>
      <trkpt lat="44.16097" lon="3.08577">
        <ele>427.8</ele>
      </trkpt>
      <trkpt lat="44.16099" lon="3.08575">
        <ele>427.6</ele>
      </trkpt>
      <trkpt lat="44.16101" lon="3.08574">
        <ele>427.8</ele>
      </trkpt>
      <trkpt lat="44.16103" lon="3.08572">
        <ele>427.8</ele>
      </trkpt>
      <trkpt lat="44.16105" lon="3.08571">
        <ele>428</ele>
      </trkpt>
      <trkpt lat="44.16107" lon="3.08569">
        <ele>428</ele>
      </trkpt>
      <trkpt lat="44.16108" lon="3.08567">
        <ele>428.4</ele>
      </trkpt>
      <trkpt lat="44.1611" lon="3.08566">
        <ele>428.4</ele>
      </trkpt>
      <trkpt lat="44.16112" lon="3.08564">
        <ele>428.2</ele>
      </trkpt>
      <trkpt lat="44.16113" lon="3.08562">
        <ele>429</ele>
      </trkpt>
      <trkpt lat="44.16114" lon="3.0856">
        <ele>428.4</ele>
      </trkpt>
      <trkpt lat="44.16115" lon="3.08558">
        <ele>429</ele>
      </trkpt>
      <trkpt lat="44.16116" lon="3.08555">
        <ele>429.2</ele>
      </trkpt>
      <trkpt lat="44.16118" lon="3.08552">
        <ele>429.6</ele>
      </trkpt>
      <trkpt lat="44.16119" lon="3.0855">
        <ele>429.8</ele>
      </trkpt>
      <trkpt lat="44.1612" lon="3.08547">
        <ele>430.2</ele>
      </trkpt>
      <trkpt lat="44.16121" lon="3.08545">
        <ele>430.6</ele>
      </trkpt>
      <trkpt lat="44.16123" lon="3.08544">
        <ele>430.8</ele>
      </trkpt>
      <trkpt lat="44.16125" lon="3.08543">
        <ele>431</ele>
      </trkpt>
      <trkpt lat="44.16127" lon="3.08542">
        <ele>431.4</ele>
      </trkpt>
      <trkpt lat="44.1613" lon="3.0854">
        <ele>431.4</ele>
      </trkpt>
      <trkpt lat="44.16133" lon="3.08539">
        <ele>431.2</ele>
      </trkpt>
      <trkpt lat="44.16135" lon="3.0854">
        <ele>432</ele>
      </trkpt>
      <trkpt lat="44.16137" lon="3.08542">
        <ele>432.2</ele>
      </trkpt>
      <trkpt lat="44.16139" lon="3.08541">
        <ele>433</ele>
      </trkpt>
      <trkpt lat="44.1614" lon="3.08539">
        <ele>434.2</ele>
      </trkpt>
      <trkpt lat="44.16139" lon="3.08536">
        <ele>435</ele>
      </trkpt>
      <trkpt lat="44.16139" lon="3.08533">
        <ele>434.8</ele>
      </trkpt>
      <trkpt lat="44.16138" lon="3.08528">
        <ele>434.8</ele>
      </trkpt>
      <trkpt lat="44.16137" lon="3.08526">
        <ele>434.6</ele>
      </trkpt>
      <trkpt lat="44.16137" lon="3.08522">
        <ele>434.6</ele>
      </trkpt>
      <trkpt lat="44.16138" lon="3.08519">
        <ele>434.4</ele>
      </trkpt>
      <trkpt lat="44.16138" lon="3.08517">
        <ele>434.8</ele>
      </trkpt>
      <trkpt lat="44.16138" lon="3.08514">
        <ele>434.6</ele>
      </trkpt>
      <trkpt lat="44.16139" lon="3.08509">
        <ele>434.8</ele>
      </trkpt>
      <trkpt lat="44.16139" lon="3.08505">
        <ele>435</ele>
      </trkpt>
      <trkpt lat="44.16139" lon="3.08502">
        <ele>435.2</ele>
      </trkpt>
      <trkpt lat="44.16139" lon="3.08499">
        <ele>435.2</ele>
      </trkpt>
      <trkpt lat="44.16139" lon="3.08496">
        <ele>435.4</ele>
      </trkpt>
      <trkpt lat="44.16139" lon="3.08493">
        <ele>435.6</ele>
      </trkpt>
      <trkpt lat="44.16139" lon="3.0849">
        <ele>435.8</ele>
      </trkpt>
      <trkpt lat="44.1614" lon="3.08487">
        <ele>436</ele>
      </trkpt>
      <trkpt lat="44.1614" lon="3.08482">
        <ele>436.4</ele>
      </trkpt>
      <trkpt lat="44.1614" lon="3.0848">
        <ele>436.6</ele>
      </trkpt>
      <trkpt lat="44.1614" lon="3.08477">
        <ele>436.6</ele>
      </trkpt>
      <trkpt lat="44.16141" lon="3.08474">
        <ele>436.8</ele>
      </trkpt>
      <trkpt lat="44.16141" lon="3.08471">
        <ele>436.8</ele>
      </trkpt>
      <trkpt lat="44.16142" lon="3.08467">
        <ele>436.6</ele>
      </trkpt>
      <trkpt lat="44.16143" lon="3.08464">
        <ele>436.8</ele>
      </trkpt>
      <trkpt lat="44.16143" lon="3.08461">
        <ele>436.8</ele>
      </trkpt>
      <trkpt lat="44.16143" lon="3.08458">
        <ele>436.8</ele>
      </trkpt>
      <trkpt lat="44.16143" lon="3.08455">
        <ele>437</ele>
      </trkpt>
      <trkpt lat="44.16144" lon="3.08452">
        <ele>437.2</ele>
      </trkpt>
      <trkpt lat="44.16144" lon="3.08449">
        <ele>437.4</ele>
      </trkpt>
      <trkpt lat="44.16144" lon="3.08446">
        <ele>437.4</ele>
      </trkpt>
      <trkpt lat="44.16144" lon="3.08442">
        <ele>437.6</ele>
      </trkpt>
      <trkpt lat="44.16144" lon="3.08438">
        <ele>437.6</ele>
      </trkpt>
      <trkpt lat="44.16143" lon="3.08434">
        <ele>437.8</ele>
      </trkpt>
      <trkpt lat="44.16143" lon="3.08429">
        <ele>437.8</ele>
      </trkpt>
      <trkpt lat="44.16142" lon="3.08425">
        <ele>437.4</ele>
      </trkpt>
      <trkpt lat="44.16141" lon="3.0842">
        <ele>437.4</ele>
      </trkpt>
      <trkpt lat="44.16141" lon="3.08417">
        <ele>437.4</ele>
      </trkpt>
      <trkpt lat="44.1614" lon="3.08413">
        <ele>437.2</ele>
      </trkpt>
      <trkpt lat="44.16138" lon="3.08409">
        <ele>437.2</ele>
      </trkpt>
      <trkpt lat="44.16137" lon="3.08406">
        <ele>437.4</ele>
      </trkpt>
      <trkpt lat="44.16136" lon="3.08403">
        <ele>437.2</ele>
      </trkpt>
      <trkpt lat="44.16135" lon="3.084">
        <ele>437</ele>
      </trkpt>
      <trkpt lat="44.16133" lon="3.08398">
        <ele>436.6</ele>
      </trkpt>
      <trkpt lat="44.16131" lon="3.08395">
        <ele>435.6</ele>
      </trkpt>
      <trkpt lat="44.16129" lon="3.08391">
        <ele>435.8</ele>
      </trkpt>
      <trkpt lat="44.16128" lon="3.08387">
        <ele>435.4</ele>
      </trkpt>
      <trkpt lat="44.16126" lon="3.08383">
        <ele>434.8</ele>
      </trkpt>
      <trkpt lat="44.16124" lon="3.08378">
        <ele>434.4</ele>
      </trkpt>
      <trkpt lat="44.16122" lon="3.08373">
        <ele>434.4</ele>
      </trkpt>
      <trkpt lat="44.1612" lon="3.08368">
        <ele>434.6</ele>
      </trkpt>
      <trkpt lat="44.16117" lon="3.08363">
        <ele>434.6</ele>
      </trkpt>
      <trkpt lat="44.16115" lon="3.08359">
        <ele>433.2</ele>
      </trkpt>
      <trkpt lat="44.16112" lon="3.08354">
        <ele>433</ele>
      </trkpt>
      <trkpt lat="44.16109" lon="3.0835">
        <ele>432.8</ele>
      </trkpt>
      <trkpt lat="44.16106" lon="3.08345">
        <ele>431.6</ele>
      </trkpt>
      <trkpt lat="44.16104" lon="3.08339">
        <ele>432.2</ele>
      </trkpt>
      <trkpt lat="44.16101" lon="3.08333">
        <ele>431.8</ele>
      </trkpt>
      <trkpt lat="44.16099" lon="3.08327">
        <ele>430.8</ele>
      </trkpt>
      <trkpt lat="44.16097" lon="3.08322">
        <ele>430.2</ele>
      </trkpt>
      <trkpt lat="44.16095" lon="3.08316">
        <ele>429.8</ele>
      </trkpt>
      <trkpt lat="44.16093" lon="3.08312">
        <ele>429.2</ele>
      </trkpt>
      <trkpt lat="44.16091" lon="3.08307">
        <ele>428.8</ele>
      </trkpt>
      <trkpt lat="44.1609" lon="3.08302">
        <ele>428.6</ele>
      </trkpt>
      <trkpt lat="44.16089" lon="3.08297">
        <ele>427.8</ele>
      </trkpt>
      <trkpt lat="44.16088" lon="3.08292">
        <ele>427.8</ele>
      </trkpt>
      <trkpt lat="44.16087" lon="3.08287">
        <ele>428.4</ele>
      </trkpt>
      <trkpt lat="44.16086" lon="3.08282">
        <ele>428.6</ele>
      </trkpt>
      <trkpt lat="44.16086" lon="3.08278">
        <ele>429</ele>
      </trkpt>
      <trkpt lat="44.16085" lon="3.08275">
        <ele>429</ele>
      </trkpt>
      <trkpt lat="44.16085" lon="3.08272">
        <ele>429.2</ele>
      </trkpt>
      <trkpt lat="44.16086" lon="3.08268">
        <ele>429.6</ele>
      </trkpt>
      <trkpt lat="44.16087" lon="3.08267">
        <ele>429.6</ele>
      </trkpt>
      <trkpt lat="44.16089" lon="3.08265">
        <ele>430</ele>
      </trkpt>
      <trkpt lat="44.16092" lon="3.08257">
        <ele>430</ele>
      </trkpt>
      <trkpt lat="44.16095" lon="3.08245">
        <ele>430</ele>
      </trkpt>
      <trkpt lat="44.16095" lon="3.08242">
        <ele>435.2</ele>
        <time>2022-04-05T12:27:02Z</time>
      </trkpt>
      <trkpt lat="44.16095" lon="3.08238">
        <ele>435.2</ele>
        <time>2022-04-05T12:27:03Z</time>
      </trkpt>
      <trkpt lat="44.16095" lon="3.08235">
        <ele>435.2</ele>
        <time>2022-04-05T12:27:04Z</time>
      </trkpt>
      <trkpt lat="44.16095" lon="3.08232">
        <ele>435.4</ele>
        <time>2022-04-05T12:27:05Z</time>
      </trkpt>
      <trkpt lat="44.16094" lon="3.08229">
        <ele>435.4</ele>
        <time>2022-04-05T12:27:06Z</time>
      </trkpt>
      <trkpt lat="44.16093" lon="3.08226">
        <ele>435.4</ele>
        <time>2022-04-05T12:27:07Z</time>
      </trkpt>
      <trkpt lat="44.16092" lon="3.08223">
        <ele>435.6</ele>
        <time>2022-04-05T12:27:08Z</time>
      </trkpt>
      <trkpt lat="44.16092" lon="3.0822">
        <ele>436.2</ele>
        <time>2022-04-05T12:27:09Z</time>
      </trkpt>
      <trkpt lat="44.16092" lon="3.08219">
        <ele>436</ele>
        <time>2022-04-05T12:27:10Z</time>
      </trkpt>
      <trkpt lat="44.16092" lon="3.08217">
        <ele>436.4</ele>
        <time>2022-04-05T12:27:11Z</time>
      </trkpt>
      <trkpt lat="44.16091" lon="3.08214">
        <ele>436.6</ele>
        <time>2022-04-05T12:27:13Z</time>
      </trkpt>
      <trkpt lat="44.16095" lon="3.08209">
        <ele>436.6</ele>
        <time>2022-04-05T12:27:14Z</time>
      </trkpt>
      <trkpt lat="44.16098" lon="3.08207">
        <ele>436.8</ele>
        <time>2022-04-05T12:27:15Z</time>
      </trkpt>
      <trkpt lat="44.161" lon="3.08206">
        <ele>437</ele>
        <time>2022-04-05T12:27:16Z</time>
      </trkpt>
      <trkpt lat="44.16101" lon="3.08203">
        <ele>437.2</ele>
        <time>2022-04-05T12:27:17Z</time>
      </trkpt>
      <trkpt lat="44.16103" lon="3.08201">
        <ele>437.2</ele>
        <time>2022-04-05T12:27:18Z</time>
      </trkpt>
      <trkpt lat="44.16104" lon="3.08199">
        <ele>437.4</ele>
        <time>2022-04-05T12:27:19Z</time>
      </trkpt>
      <trkpt lat="44.16106" lon="3.08198">
        <ele>437.6</ele>
        <time>2022-04-05T12:27:20Z</time>
      </trkpt>
      <trkpt lat="44.16108" lon="3.08196">
        <ele>437.8</ele>
        <time>2022-04-05T12:27:21Z</time>
      </trkpt>
      <trkpt lat="44.16109" lon="3.08195">
        <ele>438</ele>
        <time>2022-04-05T12:27:22Z</time>
      </trkpt>
      <trkpt lat="44.16111" lon="3.08193">
        <ele>438.2</ele>
        <time>2022-04-05T12:27:23Z</time>
      </trkpt>
      <trkpt lat="44.16112" lon="3.08191">
        <ele>438.4</ele>
        <time>2022-04-05T12:27:24Z</time>
      </trkpt>
      <trkpt lat="44.16113" lon="3.08189">
        <ele>438.8</ele>
        <time>2022-04-05T12:27:25Z</time>
      </trkpt>
      <trkpt lat="44.16115" lon="3.08187">
        <ele>439</ele>
        <time>2022-04-05T12:27:26Z</time>
      </trkpt>
      <trkpt lat="44.16116" lon="3.08184">
        <ele>439</ele>
        <time>2022-04-05T12:27:27Z</time>
      </trkpt>
      <trkpt lat="44.16118" lon="3.08183">
        <ele>439.4</ele>
        <time>2022-04-05T12:27:28Z</time>
      </trkpt>
      <trkpt lat="44.1612" lon="3.0818">
        <ele>439.6</ele>
        <time>2022-04-05T12:27:29Z</time>
      </trkpt>
      <trkpt lat="44.16121" lon="3.08179">
        <ele>439.6</ele>
        <time>2022-04-05T12:27:30Z</time>
      </trkpt>
      <trkpt lat="44.16123" lon="3.08178">
        <ele>439.8</ele>
        <time>2022-04-05T12:27:31Z</time>
      </trkpt>
      <trkpt lat="44.16124" lon="3.08176">
        <ele>439.8</ele>
        <time>2022-04-05T12:27:32Z</time>
      </trkpt>
      <trkpt lat="44.16125" lon="3.08174">
        <ele>440</ele>
        <time>2022-04-05T12:27:33Z</time>
      </trkpt>
      <trkpt lat="44.16127" lon="3.08173">
        <ele>440.4</ele>
        <time>2022-04-05T12:27:34Z</time>
      </trkpt>
      <trkpt lat="44.16129" lon="3.08171">
        <ele>440.8</ele>
        <time>2022-04-05T12:27:35Z</time>
      </trkpt>
      <trkpt lat="44.16131" lon="3.08169">
        <ele>441</ele>
        <time>2022-04-05T12:27:36Z</time>
      </trkpt>
      <trkpt lat="44.16132" lon="3.08168">
        <ele>441.2</ele>
        <time>2022-04-05T12:27:37Z</time>
      </trkpt>
      <trkpt lat="44.16133" lon="3.08167">
        <ele>441.4</ele>
        <time>2022-04-05T12:27:38Z</time>
      </trkpt>
      <trkpt lat="44.16134" lon="3.08165">
        <ele>441.6</ele>
        <time>2022-04-05T12:27:39Z</time>
      </trkpt>
      <trkpt lat="44.16135" lon="3.08163">
        <ele>442</ele>
        <time>2022-04-05T12:27:40Z</time>
      </trkpt>
      <trkpt lat="44.16137" lon="3.0816">
        <ele>442.4</ele>
        <time>2022-04-05T12:27:42Z</time>
      </trkpt>
      <trkpt lat="44.16137" lon="3.08158">
        <ele>442.6</ele>
        <time>2022-04-05T12:27:43Z</time>
      </trkpt>
      <trkpt lat="44.16137" lon="3.08156">
        <ele>442.8</ele>
        <time>2022-04-05T12:27:44Z</time>
      </trkpt>
      <trkpt lat="44.16137" lon="3.08156">
        <ele>442.8</ele>
        <time>2022-04-05T12:27:45Z</time>
      </trkpt>
      <trkpt lat="44.16135" lon="3.0815">
        <ele>436.6</ele>
      </trkpt>
      <trkpt lat="44.16135" lon="3.08145">
        <ele>434.5</ele>
      </trkpt>
      <trkpt lat="44.16136" lon="3.08142">
        <ele>434.1</ele>
      </trkpt>
      <trkpt lat="44.16137" lon="3.08139">
        <ele>433.9</ele>
      </trkpt>
      <trkpt lat="44.16136" lon="3.08134">
        <ele>432.1</ele>
      </trkpt>
      <trkpt lat="44.16134" lon="3.08132">
        <ele>430.9</ele>
      </trkpt>
      <trkpt lat="44.16134" lon="3.08129">
        <ele>430.1</ele>
      </trkpt>
      <trkpt lat="44.16133" lon="3.08126">
        <ele>428.9</ele>
      </trkpt>
      <trkpt lat="44.16132" lon="3.08127">
        <ele>428.5</ele>
      </trkpt>
      <trkpt lat="44.1613" lon="3.08126">
        <ele>427.6</ele>
      </trkpt>
      <trkpt lat="44.16129" lon="3.08126">
        <ele>426.9</ele>
      </trkpt>
      <trkpt lat="44.16128" lon="3.08125">
        <ele>427.2</ele>
      </trkpt>
      <trkpt lat="44.16126" lon="3.08124">
        <ele>426.2</ele>
      </trkpt>
      <trkpt lat="44.16125" lon="3.08126">
        <ele>425</ele>
      </trkpt>
      <trkpt lat="44.16123" lon="3.08125">
        <ele>423.2</ele>
      </trkpt>
      <trkpt lat="44.16121" lon="3.08126">
        <ele>422.6</ele>
      </trkpt>
      <trkpt lat="44.16119" lon="3.08126">
        <ele>422</ele>
      </trkpt>
      <trkpt lat="44.16117" lon="3.08125">
        <ele>421.2</ele>
      </trkpt>
      <trkpt lat="44.16119" lon="3.08123">
        <ele>419.6</ele>
      </trkpt>
      <trkpt lat="44.16121" lon="3.08122">
        <ele>418.6</ele>
      </trkpt>
      <trkpt lat="44.16123" lon="3.0812">
        <ele>418.8</ele>
      </trkpt>
      <trkpt lat="44.16125" lon="3.08118">
        <ele>418.8</ele>
      </trkpt>
      <trkpt lat="44.16126" lon="3.08116">
        <ele>417.2</ele>
      </trkpt>
      <trkpt lat="44.16126" lon="3.08113">
        <ele>417</ele>
      </trkpt>
      <trkpt lat="44.16126" lon="3.0811">
        <ele>417</ele>
      </trkpt>
      <trkpt lat="44.16127" lon="3.08107">
        <ele>415.8</ele>
      </trkpt>
      <trkpt lat="44.16128" lon="3.08105">
        <ele>412.8</ele>
      </trkpt>
      <trkpt lat="44.16126" lon="3.08104">
        <ele>411.8</ele>
      </trkpt>
      <trkpt lat="44.16125" lon="3.08102">
        <ele>411.8</ele>
      </trkpt>
      <trkpt lat="44.16121" lon="3.08103">
        <ele>415.4</ele>
        <time>2022-04-05T12:31:55Z</time>
      </trkpt>
      <trkpt lat="44.16118" lon="3.08103">
        <ele>415.4</ele>
        <time>2022-04-05T12:31:56Z</time>
      </trkpt>
      <trkpt lat="44.16117" lon="3.08104">
        <ele>415.2</ele>
        <time>2022-04-05T12:31:57Z</time>
      </trkpt>
      <trkpt lat="44.16115" lon="3.08104">
        <ele>415.2</ele>
        <time>2022-04-05T12:31:58Z</time>
      </trkpt>
      <trkpt lat="44.16113" lon="3.08104">
        <ele>411.8</ele>
        <time>2022-04-05T12:33:00Z</time>
      </trkpt>
      <trkpt lat="44.16111" lon="3.08105">
        <ele>411.6</ele>
        <time>2022-04-05T12:33:01Z</time>
      </trkpt>
      <trkpt lat="44.16109" lon="3.08105">
        <ele>411.6</ele>
        <time>2022-04-05T12:33:02Z</time>
      </trkpt>
      <trkpt lat="44.16107" lon="3.08106">
        <ele>411.6</ele>
        <time>2022-04-05T12:33:03Z</time>
      </trkpt>
      <trkpt lat="44.16105" lon="3.08106">
        <ele>411.2</ele>
        <time>2022-04-05T12:33:04Z</time>
      </trkpt>
      <trkpt lat="44.16102" lon="3.08107">
        <ele>411</ele>
        <time>2022-04-05T12:33:05Z</time>
      </trkpt>
      <trkpt lat="44.16098" lon="3.08107">
        <ele>410.8</ele>
        <time>2022-04-05T12:33:06Z</time>
      </trkpt>
      <trkpt lat="44.16095" lon="3.08107">
        <ele>410.8</ele>
        <time>2022-04-05T12:33:07Z</time>
      </trkpt>
      <trkpt lat="44.16093" lon="3.08106">
        <ele>410.2</ele>
        <time>2022-04-05T12:33:08Z</time>
      </trkpt>
      <trkpt lat="44.16091" lon="3.08105">
        <ele>409.8</ele>
        <time>2022-04-05T12:33:09Z</time>
      </trkpt>
      <trkpt lat="44.1609" lon="3.08105">
        <ele>409.4</ele>
        <time>2022-04-05T12:33:10Z</time>
      </trkpt>
      <trkpt lat="44.16089" lon="3.08105">
        <ele>409.2</ele>
        <time>2022-04-05T12:33:11Z</time>
      </trkpt>
      <trkpt lat="44.16085" lon="3.08105">
        <ele>408.4</ele>
        <time>2022-04-05T12:33:12Z</time>
      </trkpt>
      <trkpt lat="44.16082" lon="3.08105">
        <ele>407.8</ele>
        <time>2022-04-05T12:33:13Z</time>
      </trkpt>
      <trkpt lat="44.16079" lon="3.08105">
        <ele>407.6</ele>
        <time>2022-04-05T12:33:14Z</time>
      </trkpt>
      <trkpt lat="44.16076" lon="3.08105">
        <ele>407.2</ele>
        <time>2022-04-05T12:33:15Z</time>
      </trkpt>
      <trkpt lat="44.16072" lon="3.08105">
        <ele>407</ele>
        <time>2022-04-05T12:33:16Z</time>
      </trkpt>
      <trkpt lat="44.16068" lon="3.08105">
        <ele>406.4</ele>
        <time>2022-04-05T12:33:17Z</time>
      </trkpt>
      <trkpt lat="44.16065" lon="3.08105">
        <ele>406.4</ele>
        <time>2022-04-05T12:33:18Z</time>
      </trkpt>
      <trkpt lat="44.16062" lon="3.08104">
        <ele>405.8</ele>
        <time>2022-04-05T12:33:19Z</time>
      </trkpt>
      <trkpt lat="44.1606" lon="3.08104">
        <ele>405.8</ele>
        <time>2022-04-05T12:33:20Z</time>
      </trkpt>
      <trkpt lat="44.16059" lon="3.08102">
        <ele>405.4</ele>
        <time>2022-04-05T12:33:21Z</time>
      </trkpt>
      <trkpt lat="44.16057" lon="3.08102">
        <ele>405.4</ele>
        <time>2022-04-05T12:33:22Z</time>
      </trkpt>
      <trkpt lat="44.16054" lon="3.08103">
        <ele>405.2</ele>
        <time>2022-04-05T12:33:23Z</time>
      </trkpt>
      <trkpt lat="44.16052" lon="3.08105">
        <ele>408.3</ele>
      </trkpt>
      <trkpt lat="44.16049" lon="3.08106">
        <ele>409.1</ele>
      </trkpt>
      <trkpt lat="44.16045" lon="3.08108">
        <ele>410.4</ele>
      </trkpt>
      <trkpt lat="44.16042" lon="3.08108">
        <ele>411.4</ele>
      </trkpt>
      <trkpt lat="44.16034" lon="3.08104">
        <ele>414.6</ele>
      </trkpt>
      <trkpt lat="44.16028" lon="3.08097">
        <ele>417.9</ele>
      </trkpt>
      <trkpt lat="44.1602" lon="3.0808">
        <ele>438</ele>
        <time>2022-04-05T15:21:25Z</time>
      </trkpt>
      <trkpt lat="44.16018" lon="3.08073">
        <ele>438.4</ele>
        <time>2022-04-05T15:21:24Z</time>
      </trkpt>
      <trkpt lat="44.16017" lon="3.08067">
        <ele>438.4</ele>
        <time>2022-04-05T15:21:23Z</time>
      </trkpt>
      <trkpt lat="44.16014" lon="3.0806">
        <ele>438.6</ele>
        <time>2022-04-05T15:21:22Z</time>
      </trkpt>
      <trkpt lat="44.16012" lon="3.08055">
        <ele>438.8</ele>
        <time>2022-04-05T15:21:21Z</time>
      </trkpt>
      <trkpt lat="44.1601" lon="3.08049">
        <ele>439</ele>
        <time>2022-04-05T15:21:20Z</time>
      </trkpt>
      <trkpt lat="44.16009" lon="3.08042">
        <ele>439</ele>
        <time>2022-04-05T15:21:19Z</time>
      </trkpt>
      <trkpt lat="44.16008" lon="3.08035">
        <ele>439.2</ele>
        <time>2022-04-05T15:21:18Z</time>
      </trkpt>
      <trkpt lat="44.16007" lon="3.08028">
        <ele>439.2</ele>
        <time>2022-04-05T15:21:17Z</time>
      </trkpt>
      <trkpt lat="44.16006" lon="3.08022">
        <ele>439.2</ele>
        <time>2022-04-05T15:21:16Z</time>
      </trkpt>
      <trkpt lat="44.16005" lon="3.08016">
        <ele>439.4</ele>
        <time>2022-04-05T15:21:15Z</time>
      </trkpt>
      <trkpt lat="44.16004" lon="3.08011">
        <ele>439.4</ele>
        <time>2022-04-05T15:21:14Z</time>
      </trkpt>
      <trkpt lat="44.16003" lon="3.08006">
        <ele>439.4</ele>
        <time>2022-04-05T15:21:13Z</time>
      </trkpt>
      <trkpt lat="44.16002" lon="3.08001">
        <ele>439.6</ele>
        <time>2022-04-05T15:21:12Z</time>
      </trkpt>
      <trkpt lat="44.16001" lon="3.07997">
        <ele>440</ele>
        <time>2022-04-05T15:21:11Z</time>
      </trkpt>
      <trkpt lat="44.15999" lon="3.07993">
        <ele>440.2</ele>
        <time>2022-04-05T15:21:10Z</time>
      </trkpt>
      <trkpt lat="44.15997" lon="3.07989">
        <ele>441</ele>
        <time>2022-04-05T15:21:09Z</time>
      </trkpt>
      <trkpt lat="44.15996" lon="3.07985">
        <ele>441.2</ele>
        <time>2022-04-05T15:21:08Z</time>
      </trkpt>
      <trkpt lat="44.15995" lon="3.07981">
        <ele>441.8</ele>
        <time>2022-04-05T15:21:07Z</time>
      </trkpt>
      <trkpt lat="44.15995" lon="3.07977">
        <ele>442.4</ele>
        <time>2022-04-05T15:21:06Z</time>
      </trkpt>
      <trkpt lat="44.15994" lon="3.07973">
        <ele>442.8</ele>
        <time>2022-04-05T15:21:05Z</time>
      </trkpt>
      <trkpt lat="44.15993" lon="3.07969">
        <ele>443</ele>
        <time>2022-04-05T15:21:04Z</time>
      </trkpt>
      <trkpt lat="44.15992" lon="3.07966">
        <ele>443.2</ele>
        <time>2022-04-05T15:21:03Z</time>
      </trkpt>
      <trkpt lat="44.15991" lon="3.07962">
        <ele>443.4</ele>
        <time>2022-04-05T15:21:02Z</time>
      </trkpt>
      <trkpt lat="44.1599" lon="3.07957">
        <ele>443.6</ele>
        <time>2022-04-05T15:21:01Z</time>
      </trkpt>
      <trkpt lat="44.15988" lon="3.07951">
        <ele>444.4</ele>
        <time>2022-04-05T15:21:00Z</time>
      </trkpt>
      <trkpt lat="44.15987" lon="3.07945">
        <ele>444.6</ele>
        <time>2022-04-05T15:20:59Z</time>
      </trkpt>
      <trkpt lat="44.15986" lon="3.07939">
        <ele>445.2</ele>
        <time>2022-04-05T15:20:58Z</time>
      </trkpt>
      <trkpt lat="44.15984" lon="3.07931">
        <ele>445.4</ele>
        <time>2022-04-05T15:20:57Z</time>
      </trkpt>
      <trkpt lat="44.15982" lon="3.07925">
        <ele>446</ele>
        <time>2022-04-05T15:20:56Z</time>
      </trkpt>
      <trkpt lat="44.15981" lon="3.07919">
        <ele>446.4</ele>
        <time>2022-04-05T15:20:55Z</time>
      </trkpt>
      <trkpt lat="44.1598" lon="3.07914">
        <ele>446.8</ele>
        <time>2022-04-05T15:20:54Z</time>
      </trkpt>
      <trkpt lat="44.15978" lon="3.0791">
        <ele>447.6</ele>
        <time>2022-04-05T15:20:53Z</time>
      </trkpt>
      <trkpt lat="44.15975" lon="3.07907">
        <ele>448.2</ele>
        <time>2022-04-05T15:20:52Z</time>
      </trkpt>
      <trkpt lat="44.15973" lon="3.07903">
        <ele>449.2</ele>
        <time>2022-04-05T15:20:51Z</time>
      </trkpt>
      <trkpt lat="44.15971" lon="3.07901">
        <ele>449.8</ele>
        <time>2022-04-05T15:20:50Z</time>
      </trkpt>
      <trkpt lat="44.15969" lon="3.07897">
        <ele>451.4</ele>
        <time>2022-04-05T15:20:49Z</time>
      </trkpt>
      <trkpt lat="44.15968" lon="3.07894">
        <ele>452.2</ele>
        <time>2022-04-05T15:20:48Z</time>
      </trkpt>
      <trkpt lat="44.15967" lon="3.07892">
        <ele>454.2</ele>
        <time>2022-04-05T15:20:47Z</time>
      </trkpt>
      <trkpt lat="44.15965" lon="3.0789">
        <ele>454.6</ele>
        <time>2022-04-05T15:20:46Z</time>
      </trkpt>
      <trkpt lat="44.15964" lon="3.07889">
        <ele>455.4</ele>
        <time>2022-04-05T15:20:45Z</time>
      </trkpt>
      <trkpt lat="44.15963" lon="3.07889">
        <ele>456.2</ele>
        <time>2022-04-05T15:20:44Z</time>
      </trkpt>
      <trkpt lat="44.15963" lon="3.07889">
        <ele>456.4</ele>
        <time>2022-04-05T15:20:43Z</time>
      </trkpt>
      <trkpt lat="44.15962" lon="3.07886">
        <ele>457</ele>
        <time>2022-04-05T15:20:42Z</time>
      </trkpt>
      <trkpt lat="44.15961" lon="3.07883">
        <ele>457.2</ele>
        <time>2022-04-05T15:20:41Z</time>
      </trkpt>
      <trkpt lat="44.15959" lon="3.07879">
        <ele>457.8</ele>
        <time>2022-04-05T15:20:40Z</time>
      </trkpt>
      <trkpt lat="44.15958" lon="3.07876">
        <ele>458.2</ele>
        <time>2022-04-05T15:20:39Z</time>
      </trkpt>
      <trkpt lat="44.15957" lon="3.07873">
        <ele>458.8</ele>
        <time>2022-04-05T15:20:38Z</time>
      </trkpt>
      <trkpt lat="44.15958" lon="3.07872">
        <ele>459</ele>
        <time>2022-04-05T15:20:37Z</time>
      </trkpt>
      <trkpt lat="44.15959" lon="3.0787">
        <ele>459.8</ele>
        <time>2022-04-05T15:20:36Z</time>
      </trkpt>
      <trkpt lat="44.15959" lon="3.07868">
        <ele>460.2</ele>
        <time>2022-04-05T15:20:35Z</time>
      </trkpt>
      <trkpt lat="44.15958" lon="3.07866">
        <ele>460.8</ele>
        <time>2022-04-05T15:20:34Z</time>
      </trkpt>
      <trkpt lat="44.15956" lon="3.07864">
        <ele>461.4</ele>
        <time>2022-04-05T15:20:33Z</time>
      </trkpt>
      <trkpt lat="44.15954" lon="3.07862">
        <ele>462</ele>
        <time>2022-04-05T15:20:32Z</time>
      </trkpt>
      <trkpt lat="44.15954" lon="3.07861">
        <ele>462.8</ele>
        <time>2022-04-05T15:20:31Z</time>
      </trkpt>
      <trkpt lat="44.15954" lon="3.07858">
        <ele>462.8</ele>
        <time>2022-04-05T15:20:30Z</time>
      </trkpt>
      <trkpt lat="44.15954" lon="3.07856">
        <ele>463</ele>
        <time>2022-04-05T15:20:29Z</time>
      </trkpt>
      <trkpt lat="44.15955" lon="3.07853">
        <ele>463.2</ele>
        <time>2022-04-05T15:20:28Z</time>
      </trkpt>
      <trkpt lat="44.15955" lon="3.0785">
        <ele>463.2</ele>
        <time>2022-04-05T15:20:27Z</time>
      </trkpt>
      <trkpt lat="44.15955" lon="3.07849">
        <ele>463.2</ele>
        <time>2022-04-05T15:20:26Z</time>
      </trkpt>
      <trkpt lat="44.15953" lon="3.07848">
        <ele>463.2</ele>
        <time>2022-04-05T15:20:25Z</time>
      </trkpt>
      <trkpt lat="44.15952" lon="3.07847">
        <ele>463.2</ele>
        <time>2022-04-05T15:20:24Z</time>
      </trkpt>
      <trkpt lat="44.15951" lon="3.07846">
        <ele>463.2</ele>
        <time>2022-04-05T15:20:23Z</time>
      </trkpt>
      <trkpt lat="44.1595" lon="3.07845">
        <ele>463.2</ele>
        <time>2022-04-05T15:20:22Z</time>
      </trkpt>
      <trkpt lat="44.1595" lon="3.07843">
        <ele>463.2</ele>
        <time>2022-04-05T15:20:21Z</time>
      </trkpt>
      <trkpt lat="44.1595" lon="3.07841">
        <ele>463</ele>
        <time>2022-04-05T15:20:20Z</time>
      </trkpt>
      <trkpt lat="44.1595" lon="3.0784">
        <ele>463</ele>
        <time>2022-04-05T15:20:19Z</time>
      </trkpt>
      <trkpt lat="44.1595" lon="3.07837">
        <ele>462.8</ele>
        <time>2022-04-05T15:20:18Z</time>
      </trkpt>
      <trkpt lat="44.1595" lon="3.07835">
        <ele>462.8</ele>
        <time>2022-04-05T15:20:17Z</time>
      </trkpt>
      <trkpt lat="44.1595" lon="3.07833">
        <ele>462.8</ele>
        <time>2022-04-05T15:20:16Z</time>
      </trkpt>
      <trkpt lat="44.15951" lon="3.07831">
        <ele>462.8</ele>
        <time>2022-04-05T15:20:15Z</time>
      </trkpt>
      <trkpt lat="44.15952" lon="3.07829">
        <ele>462.8</ele>
        <time>2022-04-05T15:20:14Z</time>
      </trkpt>
      <trkpt lat="44.15952" lon="3.07827">
        <ele>462.8</ele>
        <time>2022-04-05T15:20:13Z</time>
      </trkpt>
      <trkpt lat="44.15953" lon="3.07825">
        <ele>462.8</ele>
        <time>2022-04-05T15:20:12Z</time>
      </trkpt>
      <trkpt lat="44.15953" lon="3.07822">
        <ele>462.8</ele>
        <time>2022-04-05T15:20:11Z</time>
      </trkpt>
      <trkpt lat="44.15954" lon="3.0782">
        <ele>462.8</ele>
        <time>2022-04-05T15:20:10Z</time>
      </trkpt>
      <trkpt lat="44.15955" lon="3.07817">
        <ele>462.6</ele>
        <time>2022-04-05T15:20:09Z</time>
      </trkpt>
      <trkpt lat="44.15955" lon="3.07815">
        <ele>462.6</ele>
        <time>2022-04-05T15:20:08Z</time>
      </trkpt>
      <trkpt lat="44.15956" lon="3.07813">
        <ele>462.6</ele>
        <time>2022-04-05T15:20:07Z</time>
      </trkpt>
      <trkpt lat="44.15957" lon="3.0781">
        <ele>462.6</ele>
        <time>2022-04-05T15:20:06Z</time>
      </trkpt>
      <trkpt lat="44.15959" lon="3.07806">
        <ele>462.6</ele>
        <time>2022-04-05T15:20:05Z</time>
      </trkpt>
      <trkpt lat="44.15959" lon="3.07803">
        <ele>462.6</ele>
        <time>2022-04-05T15:20:04Z</time>
      </trkpt>
      <trkpt lat="44.15959" lon="3.078">
        <ele>462.4</ele>
        <time>2022-04-05T15:20:03Z</time>
      </trkpt>
      <trkpt lat="44.15959" lon="3.07797">
        <ele>462.4</ele>
        <time>2022-04-05T15:20:02Z</time>
      </trkpt>
      <trkpt lat="44.15958" lon="3.07793">
        <ele>462.4</ele>
        <time>2022-04-05T15:20:01Z</time>
      </trkpt>
      <trkpt lat="44.15944" lon="3.07777">
        <ele>461.8</ele>
        <time>2022-04-05T15:11:35Z</time>
      </trkpt>
      <trkpt lat="44.15944" lon="3.07776">
        <ele>461.6</ele>
        <time>2022-04-05T15:11:34Z</time>
      </trkpt>
      <trkpt lat="44.15944" lon="3.07775">
        <ele>461.6</ele>
        <time>2022-04-05T15:11:33Z</time>
      </trkpt>
      <trkpt lat="44.15943" lon="3.07774">
        <ele>461.6</ele>
        <time>2022-04-05T15:11:32Z</time>
      </trkpt>
      <trkpt lat="44.15943" lon="3.07773">
        <ele>461.4</ele>
        <time>2022-04-05T15:11:31Z</time>
      </trkpt>
      <trkpt lat="44.15942" lon="3.07771">
        <ele>461.2</ele>
        <time>2022-04-05T15:11:30Z</time>
      </trkpt>
      <trkpt lat="44.15942" lon="3.07769">
        <ele>461.2</ele>
        <time>2022-04-05T15:11:29Z</time>
      </trkpt>
      <trkpt lat="44.15941" lon="3.07768">
        <ele>461</ele>
        <time>2022-04-05T15:11:28Z</time>
      </trkpt>
      <trkpt lat="44.15941" lon="3.07766">
        <ele>460.8</ele>
        <time>2022-04-05T15:11:27Z</time>
      </trkpt>
      <trkpt lat="44.1594" lon="3.07764">
        <ele>460.8</ele>
        <time>2022-04-05T15:11:26Z</time>
      </trkpt>
      <trkpt lat="44.1594" lon="3.07762">
        <ele>460.6</ele>
        <time>2022-04-05T15:11:25Z</time>
      </trkpt>
      <trkpt lat="44.1594" lon="3.0776">
        <ele>460.6</ele>
        <time>2022-04-05T15:11:24Z</time>
      </trkpt>
      <trkpt lat="44.15939" lon="3.07758">
        <ele>460.2</ele>
        <time>2022-04-05T15:11:23Z</time>
      </trkpt>
      <trkpt lat="44.15939" lon="3.07756">
        <ele>459.8</ele>
        <time>2022-04-05T15:11:22Z</time>
      </trkpt>
      <trkpt lat="44.15939" lon="3.07754">
        <ele>459.8</ele>
        <time>2022-04-05T15:11:21Z</time>
      </trkpt>
      <trkpt lat="44.15938" lon="3.07753">
        <ele>459.6</ele>
        <time>2022-04-05T15:11:20Z</time>
      </trkpt>
      <trkpt lat="44.15938" lon="3.07751">
        <ele>459.4</ele>
        <time>2022-04-05T15:11:19Z</time>
      </trkpt>
      <trkpt lat="44.15938" lon="3.07749">
        <ele>459.2</ele>
        <time>2022-04-05T15:11:18Z</time>
      </trkpt>
      <trkpt lat="44.15938" lon="3.07748">
        <ele>459.2</ele>
        <time>2022-04-05T15:11:17Z</time>
      </trkpt>
      <trkpt lat="44.15938" lon="3.07746">
        <ele>459</ele>
        <time>2022-04-05T15:11:16Z</time>
      </trkpt>
      <trkpt lat="44.15938" lon="3.07744">
        <ele>458.8</ele>
        <time>2022-04-05T15:11:15Z</time>
      </trkpt>
      <trkpt lat="44.15938" lon="3.07742">
        <ele>458.6</ele>
        <time>2022-04-05T15:11:14Z</time>
      </trkpt>
      <trkpt lat="44.15938" lon="3.0774">
        <ele>458.4</ele>
        <time>2022-04-05T15:11:13Z</time>
      </trkpt>
      <trkpt lat="44.15938" lon="3.07739">
        <ele>458.2</ele>
        <time>2022-04-05T15:11:12Z</time>
      </trkpt>
      <trkpt lat="44.15938" lon="3.07737">
        <ele>457.8</ele>
        <time>2022-04-05T15:11:11Z</time>
      </trkpt>
      <trkpt lat="44.15939" lon="3.07735">
        <ele>457.6</ele>
        <time>2022-04-05T15:11:10Z</time>
      </trkpt>
      <trkpt lat="44.15938" lon="3.07732">
        <ele>457.4</ele>
        <time>2022-04-05T15:11:09Z</time>
      </trkpt>
      <trkpt lat="44.15938" lon="3.0773">
        <ele>457.2</ele>
        <time>2022-04-05T15:11:08Z</time>
      </trkpt>
      <trkpt lat="44.15938" lon="3.07728">
        <ele>456.8</ele>
        <time>2022-04-05T15:11:07Z</time>
      </trkpt>
      <trkpt lat="44.15938" lon="3.07727">
        <ele>456.6</ele>
        <time>2022-04-05T15:11:06Z</time>
      </trkpt>
      <trkpt lat="44.15938" lon="3.07725">
        <ele>456.4</ele>
        <time>2022-04-05T15:11:05Z</time>
      </trkpt>
      <trkpt lat="44.15938" lon="3.07723">
        <ele>456.4</ele>
        <time>2022-04-05T15:11:04Z</time>
      </trkpt>
      <trkpt lat="44.15937" lon="3.07721">
        <ele>456.2</ele>
        <time>2022-04-05T15:11:03Z</time>
      </trkpt>
      <trkpt lat="44.15937" lon="3.0772">
        <ele>456</ele>
        <time>2022-04-05T15:11:02Z</time>
      </trkpt>
      <trkpt lat="44.15936" lon="3.07718">
        <ele>455.8</ele>
        <time>2022-04-05T15:11:01Z</time>
      </trkpt>
      <trkpt lat="44.15936" lon="3.07716">
        <ele>455.6</ele>
        <time>2022-04-05T15:11:00Z</time>
      </trkpt>
      <trkpt lat="44.15936" lon="3.07715">
        <ele>455.6</ele>
        <time>2022-04-05T15:10:59Z</time>
      </trkpt>
      <trkpt lat="44.15935" lon="3.07713">
        <ele>455.4</ele>
        <time>2022-04-05T15:10:58Z</time>
      </trkpt>
      <trkpt lat="44.15935" lon="3.07712">
        <ele>455.4</ele>
        <time>2022-04-05T15:10:57Z</time>
      </trkpt>
      <trkpt lat="44.15934" lon="3.0771">
        <ele>455.2</ele>
        <time>2022-04-05T15:10:56Z</time>
      </trkpt>
      <trkpt lat="44.15934" lon="3.07708">
        <ele>455</ele>
        <time>2022-04-05T15:10:55Z</time>
      </trkpt>
      <trkpt lat="44.15934" lon="3.07706">
        <ele>454.8</ele>
        <time>2022-04-05T15:10:54Z</time>
      </trkpt>
      <trkpt lat="44.15933" lon="3.07705">
        <ele>454.4</ele>
        <time>2022-04-05T15:10:53Z</time>
      </trkpt>
      <trkpt lat="44.15933" lon="3.07703">
        <ele>454.2</ele>
        <time>2022-04-05T15:10:52Z</time>
      </trkpt>
      <trkpt lat="44.15932" lon="3.07701">
        <ele>454.2</ele>
        <time>2022-04-05T15:10:51Z</time>
      </trkpt>
      <trkpt lat="44.15932" lon="3.07699">
        <ele>454</ele>
        <time>2022-04-05T15:10:50Z</time>
      </trkpt>
      <trkpt lat="44.15932" lon="3.07698">
        <ele>453.8</ele>
        <time>2022-04-05T15:10:49Z</time>
      </trkpt>
      <trkpt lat="44.15932" lon="3.07696">
        <ele>453.6</ele>
        <time>2022-04-05T15:10:48Z</time>
      </trkpt>
      <trkpt lat="44.15932" lon="3.07694">
        <ele>453.6</ele>
        <time>2022-04-05T15:10:47Z</time>
      </trkpt>
      <trkpt lat="44.15932" lon="3.07692">
        <ele>453.4</ele>
        <time>2022-04-05T15:10:46Z</time>
      </trkpt>
      <trkpt lat="44.15932" lon="3.0769">
        <ele>453</ele>
        <time>2022-04-05T15:10:45Z</time>
      </trkpt>
      <trkpt lat="44.15932" lon="3.07688">
        <ele>453</ele>
        <time>2022-04-05T15:10:44Z</time>
      </trkpt>
      <trkpt lat="44.15932" lon="3.07686">
        <ele>452.6</ele>
        <time>2022-04-05T15:10:43Z</time>
      </trkpt>
      <trkpt lat="44.15932" lon="3.07685">
        <ele>452.6</ele>
        <time>2022-04-05T15:10:42Z</time>
      </trkpt>
      <trkpt lat="44.15932" lon="3.07683">
        <ele>452.4</ele>
        <time>2022-04-05T15:10:41Z</time>
      </trkpt>
      <trkpt lat="44.15932" lon="3.07682">
        <ele>452</ele>
        <time>2022-04-05T15:10:40Z</time>
      </trkpt>
      <trkpt lat="44.15932" lon="3.0768">
        <ele>451.8</ele>
        <time>2022-04-05T15:10:39Z</time>
      </trkpt>
      <trkpt lat="44.15932" lon="3.07678">
        <ele>451.4</ele>
        <time>2022-04-05T15:10:38Z</time>
      </trkpt>
      <trkpt lat="44.15932" lon="3.07676">
        <ele>451.2</ele>
        <time>2022-04-05T15:10:37Z</time>
      </trkpt>
      <trkpt lat="44.15931" lon="3.07674">
        <ele>450.6</ele>
        <time>2022-04-05T15:10:36Z</time>
      </trkpt>
      <trkpt lat="44.15932" lon="3.07672">
        <ele>450.6</ele>
        <time>2022-04-05T15:10:35Z</time>
      </trkpt>
      <trkpt lat="44.15932" lon="3.0767">
        <ele>450.4</ele>
        <time>2022-04-05T15:10:34Z</time>
      </trkpt>
      <trkpt lat="44.15932" lon="3.07668">
        <ele>450.2</ele>
        <time>2022-04-05T15:10:33Z</time>
      </trkpt>
      <trkpt lat="44.15934" lon="3.0766">
        <ele>451</ele>
        <time>2022-04-05T15:10:01Z</time>
      </trkpt>
      <trkpt lat="44.15934" lon="3.0766">
        <ele>451</ele>
        <time>2022-04-05T15:10:00Z</time>
      </trkpt>
      <trkpt lat="44.15933" lon="3.0766">
        <ele>451</ele>
        <time>2022-04-05T15:09:59Z</time>
      </trkpt>
      <trkpt lat="44.15932" lon="3.0766">
        <ele>451</ele>
        <time>2022-04-05T15:09:58Z</time>
      </trkpt>
      <trkpt lat="44.15931" lon="3.07659">
        <ele>450.8</ele>
        <time>2022-04-05T15:09:57Z</time>
      </trkpt>
      <trkpt lat="44.15931" lon="3.07659">
        <ele>450.6</ele>
        <time>2022-04-05T15:09:56Z</time>
      </trkpt>
      <trkpt lat="44.15931" lon="3.07658">
        <ele>450.4</ele>
        <time>2022-04-05T15:09:55Z</time>
      </trkpt>
      <trkpt lat="44.15931" lon="3.07657">
        <ele>450.2</ele>
        <time>2022-04-05T15:09:54Z</time>
      </trkpt>
      <trkpt lat="44.1593" lon="3.07656">
        <ele>450</ele>
        <time>2022-04-05T15:09:53Z</time>
      </trkpt>
      <trkpt lat="44.1593" lon="3.07654">
        <ele>449.6</ele>
        <time>2022-04-05T15:09:52Z</time>
      </trkpt>
      <trkpt lat="44.1593" lon="3.07652">
        <ele>449.4</ele>
        <time>2022-04-05T15:09:51Z</time>
      </trkpt>
      <trkpt lat="44.15929" lon="3.07649">
        <ele>449.2</ele>
        <time>2022-04-05T15:09:50Z</time>
      </trkpt>
      <trkpt lat="44.15929" lon="3.07646">
        <ele>449</ele>
        <time>2022-04-05T15:09:49Z</time>
      </trkpt>
      <trkpt lat="44.1593" lon="3.07644">
        <ele>448.8</ele>
        <time>2022-04-05T15:09:48Z</time>
      </trkpt>
      <trkpt lat="44.1593" lon="3.07641">
        <ele>448.4</ele>
        <time>2022-04-05T15:09:47Z</time>
      </trkpt>
      <trkpt lat="44.15929" lon="3.07639">
        <ele>448.2</ele>
        <time>2022-04-05T15:09:46Z</time>
      </trkpt>
      <trkpt lat="44.15929" lon="3.07637">
        <ele>448</ele>
        <time>2022-04-05T15:09:45Z</time>
      </trkpt>
      <trkpt lat="44.15929" lon="3.07634">
        <ele>447.8</ele>
        <time>2022-04-05T15:09:44Z</time>
      </trkpt>
      <trkpt lat="44.15929" lon="3.07631">
        <ele>447.6</ele>
        <time>2022-04-05T15:09:43Z</time>
      </trkpt>
      <trkpt lat="44.15929" lon="3.07628">
        <ele>447.4</ele>
        <time>2022-04-05T15:09:42Z</time>
      </trkpt>
      <trkpt lat="44.15928" lon="3.07625">
        <ele>447</ele>
        <time>2022-04-05T15:09:41Z</time>
      </trkpt>
      <trkpt lat="44.15927" lon="3.07623">
        <ele>446.6</ele>
        <time>2022-04-05T15:09:40Z</time>
      </trkpt>
      <trkpt lat="44.15927" lon="3.0762">
        <ele>446.4</ele>
        <time>2022-04-05T15:09:39Z</time>
      </trkpt>
      <trkpt lat="44.15926" lon="3.07618">
        <ele>446.2</ele>
        <time>2022-04-05T15:09:38Z</time>
      </trkpt>
      <trkpt lat="44.15926" lon="3.07615">
        <ele>446</ele>
        <time>2022-04-05T15:09:37Z</time>
      </trkpt>
      <trkpt lat="44.15925" lon="3.07613">
        <ele>446</ele>
        <time>2022-04-05T15:09:36Z</time>
      </trkpt>
      <trkpt lat="44.15925" lon="3.0761">
        <ele>445.8</ele>
        <time>2022-04-05T15:09:35Z</time>
      </trkpt>
      <trkpt lat="44.15925" lon="3.07607">
        <ele>445.8</ele>
        <time>2022-04-05T15:09:34Z</time>
      </trkpt>
      <trkpt lat="44.15925" lon="3.07604">
        <ele>445.8</ele>
        <time>2022-04-05T15:09:33Z</time>
      </trkpt>
      <trkpt lat="44.15923" lon="3.076">
        <ele>445.8</ele>
        <time>2022-04-05T15:09:32Z</time>
      </trkpt>
      <trkpt lat="44.15923" lon="3.07596">
        <ele>445.8</ele>
        <time>2022-04-05T15:09:31Z</time>
      </trkpt>
      <trkpt lat="44.1592" lon="3.07592">
        <ele>446</ele>
        <time>2022-04-05T15:09:30Z</time>
      </trkpt>
      <trkpt lat="44.15917" lon="3.07589">
        <ele>446</ele>
        <time>2022-04-05T15:09:29Z</time>
      </trkpt>
      <trkpt lat="44.15914" lon="3.07585">
        <ele>446</ele>
        <time>2022-04-05T15:09:28Z</time>
      </trkpt>
      <trkpt lat="44.15911" lon="3.07582">
        <ele>446</ele>
        <time>2022-04-05T15:09:27Z</time>
      </trkpt>
      <trkpt lat="44.15908" lon="3.07578">
        <ele>446</ele>
        <time>2022-04-05T15:09:26Z</time>
      </trkpt>
      <trkpt lat="44.15904" lon="3.07575">
        <ele>446</ele>
        <time>2022-04-05T15:09:25Z</time>
      </trkpt>
      <trkpt lat="44.159" lon="3.07571">
        <ele>446</ele>
        <time>2022-04-05T15:09:24Z</time>
      </trkpt>
      <trkpt lat="44.15897" lon="3.07567">
        <ele>445.8</ele>
        <time>2022-04-05T15:09:23Z</time>
      </trkpt>
      <trkpt lat="44.15895" lon="3.07563">
        <ele>445.8</ele>
        <time>2022-04-05T15:09:22Z</time>
      </trkpt>
      <trkpt lat="44.15893" lon="3.07561">
        <ele>445.6</ele>
        <time>2022-04-05T15:09:21Z</time>
      </trkpt>
      <trkpt lat="44.15891" lon="3.0756">
        <ele>445.6</ele>
        <time>2022-04-05T15:09:20Z</time>
      </trkpt>
      <trkpt lat="44.15889" lon="3.07557">
        <ele>445.4</ele>
        <time>2022-04-05T15:09:19Z</time>
      </trkpt>
      <trkpt lat="44.15888" lon="3.07555">
        <ele>445.2</ele>
        <time>2022-04-05T15:09:18Z</time>
      </trkpt>
      <trkpt lat="44.15886" lon="3.07553">
        <ele>445</ele>
        <time>2022-04-05T15:09:17Z</time>
      </trkpt>
      <trkpt lat="44.15885" lon="3.0755">
        <ele>444.6</ele>
        <time>2022-04-05T15:09:16Z</time>
      </trkpt>
      <trkpt lat="44.15882" lon="3.07547">
        <ele>444.4</ele>
        <time>2022-04-05T15:09:15Z</time>
      </trkpt>
      <trkpt lat="44.15881" lon="3.07545">
        <ele>444.2</ele>
        <time>2022-04-05T15:09:14Z</time>
      </trkpt>
      <trkpt lat="44.15879" lon="3.07542">
        <ele>444.2</ele>
        <time>2022-04-05T15:09:13Z</time>
      </trkpt>
      <trkpt lat="44.15879" lon="3.07539">
        <ele>444</ele>
        <time>2022-04-05T15:09:12Z</time>
      </trkpt>
      <trkpt lat="44.15878" lon="3.07536">
        <ele>444</ele>
        <time>2022-04-05T15:09:11Z</time>
      </trkpt>
      <trkpt lat="44.15877" lon="3.07534">
        <ele>444</ele>
        <time>2022-04-05T15:09:10Z</time>
      </trkpt>
      <trkpt lat="44.15877" lon="3.07531">
        <ele>444</ele>
        <time>2022-04-05T15:09:09Z</time>
      </trkpt>
      <trkpt lat="44.15876" lon="3.07528">
        <ele>444</ele>
        <time>2022-04-05T15:09:08Z</time>
      </trkpt>
      <trkpt lat="44.15874" lon="3.07525">
        <ele>444</ele>
        <time>2022-04-05T15:09:07Z</time>
      </trkpt>
      <trkpt lat="44.15873" lon="3.07523">
        <ele>444</ele>
        <time>2022-04-05T15:09:06Z</time>
      </trkpt>
      <trkpt lat="44.15871" lon="3.07521">
        <ele>444</ele>
        <time>2022-04-05T15:09:05Z</time>
      </trkpt>
      <trkpt lat="44.15868" lon="3.07518">
        <ele>444</ele>
        <time>2022-04-05T15:09:04Z</time>
      </trkpt>
      <trkpt lat="44.15867" lon="3.07515">
        <ele>444</ele>
        <time>2022-04-05T15:09:03Z</time>
      </trkpt>
      <trkpt lat="44.15865" lon="3.07512">
        <ele>443.8</ele>
        <time>2022-04-05T15:09:02Z</time>
      </trkpt>
      <trkpt lat="44.15863" lon="3.0751">
        <ele>443.8</ele>
        <time>2022-04-05T15:09:01Z</time>
      </trkpt>
      <trkpt lat="44.15862" lon="3.07508">
        <ele>443.8</ele>
        <time>2022-04-05T15:09:00Z</time>
      </trkpt>
      <trkpt lat="44.15861" lon="3.07506">
        <ele>443.8</ele>
        <time>2022-04-05T15:08:59Z</time>
      </trkpt>
      <trkpt lat="44.15861" lon="3.07495">
        <ele>440.2</ele>
        <time>2022-04-05T15:08:26Z</time>
      </trkpt>
      <trkpt lat="44.15861" lon="3.07495">
        <ele>440</ele>
        <time>2022-04-05T15:08:25Z</time>
      </trkpt>
      <trkpt lat="44.15859" lon="3.07494">
        <ele>440</ele>
        <time>2022-04-05T15:08:24Z</time>
      </trkpt>
      <trkpt lat="44.15857" lon="3.07491">
        <ele>440</ele>
        <time>2022-04-05T15:08:23Z</time>
      </trkpt>
      <trkpt lat="44.15855" lon="3.07488">
        <ele>439.8</ele>
        <time>2022-04-05T15:08:22Z</time>
      </trkpt>
      <trkpt lat="44.15852" lon="3.07486">
        <ele>439.8</ele>
        <time>2022-04-05T15:08:21Z</time>
      </trkpt>
      <trkpt lat="44.1585" lon="3.07484">
        <ele>439.8</ele>
        <time>2022-04-05T15:08:20Z</time>
      </trkpt>
      <trkpt lat="44.15848" lon="3.07481">
        <ele>439.8</ele>
        <time>2022-04-05T15:08:19Z</time>
      </trkpt>
      <trkpt lat="44.15846" lon="3.0748">
        <ele>439.8</ele>
        <time>2022-04-05T15:08:18Z</time>
      </trkpt>
      <trkpt lat="44.15844" lon="3.07478">
        <ele>439.8</ele>
        <time>2022-04-05T15:08:17Z</time>
      </trkpt>
      <trkpt lat="44.15842" lon="3.07476">
        <ele>439.6</ele>
        <time>2022-04-05T15:08:16Z</time>
      </trkpt>
      <trkpt lat="44.1584" lon="3.07474">
        <ele>439.6</ele>
        <time>2022-04-05T15:08:15Z</time>
      </trkpt>
      <trkpt lat="44.15839" lon="3.07471">
        <ele>439.6</ele>
        <time>2022-04-05T15:08:14Z</time>
      </trkpt>
      <trkpt lat="44.15837" lon="3.07469">
        <ele>439.4</ele>
        <time>2022-04-05T15:08:13Z</time>
      </trkpt>
      <trkpt lat="44.15835" lon="3.07467">
        <ele>439.4</ele>
        <time>2022-04-05T15:08:12Z</time>
      </trkpt>
      <trkpt lat="44.15833" lon="3.07464">
        <ele>439.4</ele>
        <time>2022-04-05T15:08:11Z</time>
      </trkpt>
      <trkpt lat="44.15831" lon="3.07463">
        <ele>439.4</ele>
        <time>2022-04-05T15:08:10Z</time>
      </trkpt>
      <trkpt lat="44.15827" lon="3.0746">
        <ele>440.4</ele>
        <time>2022-04-05T15:07:49Z</time>
      </trkpt>
      <trkpt lat="44.15827" lon="3.07459">
        <ele>440.4</ele>
        <time>2022-04-05T15:07:48Z</time>
      </trkpt>
      <trkpt lat="44.15827" lon="3.07459">
        <ele>440.4</ele>
        <time>2022-04-05T15:07:47Z</time>
      </trkpt>
      <trkpt lat="44.15826" lon="3.07457">
        <ele>440.6</ele>
        <time>2022-04-05T15:07:46Z</time>
      </trkpt>
      <trkpt lat="44.15825" lon="3.07455">
        <ele>440.6</ele>
        <time>2022-04-05T15:07:45Z</time>
      </trkpt>
      <trkpt lat="44.15825" lon="3.07452">
        <ele>440.6</ele>
        <time>2022-04-05T15:07:44Z</time>
      </trkpt>
      <trkpt lat="44.15824" lon="3.07449">
        <ele>440.6</ele>
        <time>2022-04-05T15:07:43Z</time>
      </trkpt>
      <trkpt lat="44.15823" lon="3.07446">
        <ele>440.6</ele>
        <time>2022-04-05T15:07:42Z</time>
      </trkpt>
      <trkpt lat="44.15821" lon="3.07443">
        <ele>440.8</ele>
        <time>2022-04-05T15:07:41Z</time>
      </trkpt>
      <trkpt lat="44.1582" lon="3.07439">
        <ele>440.8</ele>
        <time>2022-04-05T15:07:40Z</time>
      </trkpt>
      <trkpt lat="44.15816" lon="3.07437">
        <ele>441</ele>
        <time>2022-04-05T15:07:39Z</time>
      </trkpt>
      <trkpt lat="44.15814" lon="3.07434">
        <ele>441</ele>
        <time>2022-04-05T15:07:38Z</time>
      </trkpt>
      <trkpt lat="44.15813" lon="3.07432">
        <ele>441</ele>
        <time>2022-04-05T15:07:37Z</time>
      </trkpt>
      <trkpt lat="44.15813" lon="3.0743">
        <ele>441.2</ele>
        <time>2022-04-05T15:07:36Z</time>
      </trkpt>
      <trkpt lat="44.15812" lon="3.07427">
        <ele>441.6</ele>
        <time>2022-04-05T15:07:35Z</time>
      </trkpt>
      <trkpt lat="44.15812" lon="3.07425">
        <ele>442</ele>
        <time>2022-04-05T15:07:34Z</time>
      </trkpt>
      <trkpt lat="44.15811" lon="3.07422">
        <ele>442.2</ele>
        <time>2022-04-05T15:07:33Z</time>
      </trkpt>
      <trkpt lat="44.1581" lon="3.0742">
        <ele>442.8</ele>
        <time>2022-04-05T15:07:32Z</time>
      </trkpt>
      <trkpt lat="44.1581" lon="3.07419">
        <ele>443.4</ele>
        <time>2022-04-05T15:07:31Z</time>
      </trkpt>
      <trkpt lat="44.1581" lon="3.07418">
        <ele>443.4</ele>
        <time>2022-04-05T15:07:30Z</time>
      </trkpt>
      <trkpt lat="44.15811" lon="3.07416">
        <ele>443.8</ele>
        <time>2022-04-05T15:07:29Z</time>
      </trkpt>
      <trkpt lat="44.15809" lon="3.07412">
        <ele>444</ele>
        <time>2022-04-05T15:07:28Z</time>
      </trkpt>
      <trkpt lat="44.15808" lon="3.07409">
        <ele>444</ele>
        <time>2022-04-05T15:07:27Z</time>
      </trkpt>
      <trkpt lat="44.15804" lon="3.07407">
        <ele>444</ele>
        <time>2022-04-05T15:07:26Z</time>
      </trkpt>
      <trkpt lat="44.15803" lon="3.07405">
        <ele>444.2</ele>
        <time>2022-04-05T15:07:25Z</time>
      </trkpt>
      <trkpt lat="44.15801" lon="3.07402">
        <ele>444.2</ele>
        <time>2022-04-05T15:07:24Z</time>
      </trkpt>
      <trkpt lat="44.15801" lon="3.07399">
        <ele>444.6</ele>
        <time>2022-04-05T15:07:23Z</time>
      </trkpt>
      <trkpt lat="44.15801" lon="3.07395">
        <ele>444.6</ele>
        <time>2022-04-05T15:07:22Z</time>
      </trkpt>
      <trkpt lat="44.15801" lon="3.07393">
        <ele>445</ele>
        <time>2022-04-05T15:07:21Z</time>
      </trkpt>
      <trkpt lat="44.15802" lon="3.0739">
        <ele>445</ele>
        <time>2022-04-05T15:07:20Z</time>
      </trkpt>
      <trkpt lat="44.15803" lon="3.07387">
        <ele>445</ele>
        <time>2022-04-05T15:07:19Z</time>
      </trkpt>
      <trkpt lat="44.15804" lon="3.07384">
        <ele>445</ele>
        <time>2022-04-05T15:07:18Z</time>
      </trkpt>
      <trkpt lat="44.15803" lon="3.0738">
        <ele>445</ele>
        <time>2022-04-05T15:07:17Z</time>
      </trkpt>
      <trkpt lat="44.15802" lon="3.07378">
        <ele>445</ele>
        <time>2022-04-05T15:07:16Z</time>
      </trkpt>
      <trkpt lat="44.158" lon="3.07375">
        <ele>445</ele>
        <time>2022-04-05T15:07:15Z</time>
      </trkpt>
      <trkpt lat="44.15785" lon="3.07351">
        <ele>442</ele>
        <time>2022-04-05T15:06:44Z</time>
      </trkpt>
      <trkpt lat="44.15785" lon="3.07351">
        <ele>442</ele>
        <time>2022-04-05T15:06:43Z</time>
      </trkpt>
      <trkpt lat="44.15783" lon="3.07349">
        <ele>442</ele>
        <time>2022-04-05T15:06:42Z</time>
      </trkpt>
      <trkpt lat="44.15782" lon="3.07347">
        <ele>442</ele>
        <time>2022-04-05T15:06:41Z</time>
      </trkpt>
      <trkpt lat="44.15754" lon="3.0734">
        <ele>446</ele>
        <time>2022-04-05T15:05:48Z</time>
      </trkpt>
      <trkpt lat="44.15754" lon="3.07339">
        <ele>446</ele>
        <time>2022-04-05T15:05:47Z</time>
      </trkpt>
      <trkpt lat="44.15753" lon="3.07338">
        <ele>446</ele>
        <time>2022-04-05T15:05:46Z</time>
      </trkpt>
      <trkpt lat="44.15751" lon="3.07336">
        <ele>446</ele>
        <time>2022-04-05T15:05:45Z</time>
      </trkpt>
      <trkpt lat="44.15748" lon="3.07332">
        <ele>446</ele>
        <time>2022-04-05T15:05:44Z</time>
      </trkpt>
      <trkpt lat="44.15747" lon="3.07329">
        <ele>446</ele>
        <time>2022-04-05T15:05:43Z</time>
      </trkpt>
      <trkpt lat="44.15745" lon="3.07326">
        <ele>446.2</ele>
        <time>2022-04-05T15:05:42Z</time>
      </trkpt>
      <trkpt lat="44.15743" lon="3.07322">
        <ele>446.2</ele>
        <time>2022-04-05T15:05:41Z</time>
      </trkpt>
      <trkpt lat="44.15741" lon="3.07319">
        <ele>446.2</ele>
        <time>2022-04-05T15:05:40Z</time>
      </trkpt>
      <trkpt lat="44.15739" lon="3.07316">
        <ele>446.2</ele>
        <time>2022-04-05T15:05:39Z</time>
      </trkpt>
      <trkpt lat="44.15737" lon="3.07312">
        <ele>446.4</ele>
        <time>2022-04-05T15:05:38Z</time>
      </trkpt>
      <trkpt lat="44.15735" lon="3.07309">
        <ele>446.4</ele>
        <time>2022-04-05T15:05:37Z</time>
      </trkpt>
      <trkpt lat="44.15732" lon="3.07304">
        <ele>446.4</ele>
        <time>2022-04-05T15:05:36Z</time>
      </trkpt>
      <trkpt lat="44.15727" lon="3.073">
        <ele>446.4</ele>
        <time>2022-04-05T15:05:35Z</time>
      </trkpt>
      <trkpt lat="44.15725" lon="3.07296">
        <ele>446.4</ele>
        <time>2022-04-05T15:05:34Z</time>
      </trkpt>
      <trkpt lat="44.15723" lon="3.07292">
        <ele>446.6</ele>
        <time>2022-04-05T15:05:33Z</time>
      </trkpt>
      <trkpt lat="44.15722" lon="3.07288">
        <ele>446.6</ele>
        <time>2022-04-05T15:05:32Z</time>
      </trkpt>
      <trkpt lat="44.15722" lon="3.07284">
        <ele>446.6</ele>
        <time>2022-04-05T15:05:31Z</time>
      </trkpt>
      <trkpt lat="44.15722" lon="3.07283">
        <ele>446.6</ele>
        <time>2022-04-05T15:05:30Z</time>
      </trkpt>
      <trkpt lat="44.15721" lon="3.0728">
        <ele>446.6</ele>
        <time>2022-04-05T15:05:29Z</time>
      </trkpt>
      <trkpt lat="44.15721" lon="3.07277">
        <ele>446.6</ele>
        <time>2022-04-05T15:05:28Z</time>
      </trkpt>
      <trkpt lat="44.1572" lon="3.07274">
        <ele>446.6</ele>
        <time>2022-04-05T15:05:27Z</time>
      </trkpt>
      <trkpt lat="44.15711" lon="3.07251">
        <ele>446.4</ele>
        <time>2022-04-05T15:04:58Z</time>
      </trkpt>
      <trkpt lat="44.15711" lon="3.0725">
        <ele>446.8</ele>
        <time>2022-04-05T15:04:57Z</time>
      </trkpt>
      <trkpt lat="44.15711" lon="3.07249">
        <ele>447</ele>
        <time>2022-04-05T15:04:56Z</time>
      </trkpt>
      <trkpt lat="44.15711" lon="3.07246">
        <ele>447</ele>
        <time>2022-04-05T15:04:55Z</time>
      </trkpt>
      <trkpt lat="44.1571" lon="3.07243">
        <ele>447.2</ele>
        <time>2022-04-05T15:04:54Z</time>
      </trkpt>
      <trkpt lat="44.15709" lon="3.0724">
        <ele>447.4</ele>
        <time>2022-04-05T15:04:53Z</time>
      </trkpt>
      <trkpt lat="44.15707" lon="3.07237">
        <ele>447.4</ele>
        <time>2022-04-05T15:04:52Z</time>
      </trkpt>
      <trkpt lat="44.15705" lon="3.07234">
        <ele>447.6</ele>
        <time>2022-04-05T15:04:51Z</time>
      </trkpt>
      <trkpt lat="44.15703" lon="3.07231">
        <ele>447.8</ele>
        <time>2022-04-05T15:04:50Z</time>
      </trkpt>
      <trkpt lat="44.15699" lon="3.07228">
        <ele>447.8</ele>
        <time>2022-04-05T15:04:49Z</time>
      </trkpt>
      <trkpt lat="44.15695" lon="3.07224">
        <ele>448</ele>
        <time>2022-04-05T15:04:48Z</time>
      </trkpt>
      <trkpt lat="44.15693" lon="3.0722">
        <ele>448.2</ele>
        <time>2022-04-05T15:04:47Z</time>
      </trkpt>
      <trkpt lat="44.1569" lon="3.07217">
        <ele>448.6</ele>
        <time>2022-04-05T15:04:46Z</time>
      </trkpt>
      <trkpt lat="44.15688" lon="3.07214">
        <ele>449</ele>
        <time>2022-04-05T15:04:45Z</time>
      </trkpt>
      <trkpt lat="44.15685" lon="3.0721">
        <ele>449.4</ele>
        <time>2022-04-05T15:04:44Z</time>
      </trkpt>
      <trkpt lat="44.15683" lon="3.07207">
        <ele>449.6</ele>
        <time>2022-04-05T15:04:43Z</time>
      </trkpt>
      <trkpt lat="44.1568" lon="3.07204">
        <ele>450</ele>
        <time>2022-04-05T15:04:42Z</time>
      </trkpt>
      <trkpt lat="44.15677" lon="3.072">
        <ele>450</ele>
        <time>2022-04-05T15:04:41Z</time>
      </trkpt>
      <trkpt lat="44.15674" lon="3.07196">
        <ele>450.4</ele>
        <time>2022-04-05T15:04:40Z</time>
      </trkpt>
      <trkpt lat="44.15671" lon="3.07192">
        <ele>450.6</ele>
        <time>2022-04-05T15:04:39Z</time>
      </trkpt>
      <trkpt lat="44.15669" lon="3.07187">
        <ele>450.8</ele>
        <time>2022-04-05T15:04:38Z</time>
      </trkpt>
      <trkpt lat="44.15667" lon="3.07182">
        <ele>451.2</ele>
        <time>2022-04-05T15:04:37Z</time>
      </trkpt>
      <trkpt lat="44.15665" lon="3.07178">
        <ele>451.6</ele>
        <time>2022-04-05T15:04:36Z</time>
      </trkpt>
      <trkpt lat="44.15663" lon="3.07174">
        <ele>452.8</ele>
        <time>2022-04-05T15:04:35Z</time>
      </trkpt>
      <trkpt lat="44.15659" lon="3.0717">
        <ele>453</ele>
        <time>2022-04-05T15:04:34Z</time>
      </trkpt>
      <trkpt lat="44.15656" lon="3.07165">
        <ele>453.4</ele>
        <time>2022-04-05T15:04:33Z</time>
      </trkpt>
      <trkpt lat="44.15653" lon="3.0716">
        <ele>453.4</ele>
        <time>2022-04-05T15:04:32Z</time>
      </trkpt>
      <trkpt lat="44.1565" lon="3.07154">
        <ele>453.6</ele>
        <time>2022-04-05T15:04:31Z</time>
      </trkpt>
      <trkpt lat="44.15648" lon="3.07148">
        <ele>453.6</ele>
        <time>2022-04-05T15:04:30Z</time>
      </trkpt>
      <trkpt lat="44.15647" lon="3.07142">
        <ele>453.6</ele>
        <time>2022-04-05T15:04:29Z</time>
      </trkpt>
      <trkpt lat="44.15645" lon="3.07139">
        <ele>453.6</ele>
        <time>2022-04-05T15:04:28Z</time>
      </trkpt>
      <trkpt lat="44.15643" lon="3.07136">
        <ele>449.8</ele>
        <time>2022-04-05T15:03:48Z</time>
      </trkpt>
      <trkpt lat="44.15642" lon="3.07133">
        <ele>450</ele>
        <time>2022-04-05T15:03:47Z</time>
      </trkpt>
      <trkpt lat="44.1564" lon="3.0713">
        <ele>450.6</ele>
        <time>2022-04-05T15:03:46Z</time>
      </trkpt>
      <trkpt lat="44.15638" lon="3.07128">
        <ele>450.8</ele>
        <time>2022-04-05T15:03:45Z</time>
      </trkpt>
      <trkpt lat="44.15637" lon="3.07125">
        <ele>451.2</ele>
        <time>2022-04-05T15:03:44Z</time>
      </trkpt>
      <trkpt lat="44.15635" lon="3.07122">
        <ele>451.6</ele>
        <time>2022-04-05T15:03:43Z</time>
      </trkpt>
      <trkpt lat="44.15633" lon="3.07119">
        <ele>452</ele>
        <time>2022-04-05T15:03:42Z</time>
      </trkpt>
      <trkpt lat="44.15632" lon="3.07116">
        <ele>452.2</ele>
        <time>2022-04-05T15:03:41Z</time>
      </trkpt>
      <trkpt lat="44.1563" lon="3.07114">
        <ele>453</ele>
        <time>2022-04-05T15:03:40Z</time>
      </trkpt>
      <trkpt lat="44.15628" lon="3.07109">
        <ele>453.6</ele>
        <time>2022-04-05T15:03:39Z</time>
      </trkpt>
      <trkpt lat="44.15627" lon="3.07106">
        <ele>454</ele>
        <time>2022-04-05T15:03:38Z</time>
      </trkpt>
      <trkpt lat="44.15626" lon="3.07103">
        <ele>454.4</ele>
        <time>2022-04-05T15:03:37Z</time>
      </trkpt>
      <trkpt lat="44.15626" lon="3.07099">
        <ele>454.6</ele>
        <time>2022-04-05T15:03:36Z</time>
      </trkpt>
      <trkpt lat="44.15626" lon="3.07094">
        <ele>455</ele>
        <time>2022-04-05T15:03:35Z</time>
      </trkpt>
      <trkpt lat="44.15625" lon="3.0709">
        <ele>455</ele>
        <time>2022-04-05T15:03:34Z</time>
      </trkpt>
      <trkpt lat="44.15623" lon="3.07084">
        <ele>455.2</ele>
        <time>2022-04-05T15:03:33Z</time>
      </trkpt>
      <trkpt lat="44.1562" lon="3.07079">
        <ele>455.2</ele>
        <time>2022-04-05T15:03:32Z</time>
      </trkpt>
      <trkpt lat="44.15617" lon="3.07075">
        <ele>455.2</ele>
        <time>2022-04-05T15:03:31Z</time>
      </trkpt>
      <trkpt lat="44.15616" lon="3.07071">
        <ele>455.2</ele>
        <time>2022-04-05T15:03:30Z</time>
      </trkpt>
      <trkpt lat="44.15615" lon="3.07068">
        <ele>455.2</ele>
        <time>2022-04-05T15:03:29Z</time>
      </trkpt>
      <trkpt lat="44.15615" lon="3.07065">
        <ele>455.4</ele>
        <time>2022-04-05T15:03:28Z</time>
      </trkpt>
      <trkpt lat="44.15615" lon="3.0706">
        <ele>455.4</ele>
        <time>2022-04-05T15:03:27Z</time>
      </trkpt>
      <trkpt lat="44.15614" lon="3.07056">
        <ele>455.6</ele>
        <time>2022-04-05T15:03:26Z</time>
      </trkpt>
      <trkpt lat="44.15614" lon="3.07052">
        <ele>455.6</ele>
        <time>2022-04-05T15:03:25Z</time>
      </trkpt>
      <trkpt lat="44.15614" lon="3.0705">
        <ele>456</ele>
        <time>2022-04-05T15:03:24Z</time>
      </trkpt>
      <trkpt lat="44.15614" lon="3.07049">
        <ele>456.4</ele>
        <time>2022-04-05T15:03:23Z</time>
      </trkpt>
      <trkpt lat="44.15614" lon="3.07046">
        <ele>456.6</ele>
        <time>2022-04-05T15:03:22Z</time>
      </trkpt>
      <trkpt lat="44.15614" lon="3.07044">
        <ele>456.8</ele>
        <time>2022-04-05T15:03:21Z</time>
      </trkpt>
      <trkpt lat="44.15615" lon="3.07041">
        <ele>457</ele>
        <time>2022-04-05T15:03:20Z</time>
      </trkpt>
      <trkpt lat="44.15615" lon="3.07037">
        <ele>457.2</ele>
        <time>2022-04-05T15:03:19Z</time>
      </trkpt>
      <trkpt lat="44.15614" lon="3.07031">
        <ele>457.2</ele>
        <time>2022-04-05T15:03:18Z</time>
      </trkpt>
      <trkpt lat="44.15613" lon="3.07025">
        <ele>457.2</ele>
        <time>2022-04-05T15:03:17Z</time>
      </trkpt>
      <trkpt lat="44.15611" lon="3.07021">
        <ele>457</ele>
        <time>2022-04-05T15:03:16Z</time>
      </trkpt>
      <trkpt lat="44.15609" lon="3.07017">
        <ele>457</ele>
        <time>2022-04-05T15:03:15Z</time>
      </trkpt>
      <trkpt lat="44.15608" lon="3.07015">
        <ele>457</ele>
        <time>2022-04-05T15:03:14Z</time>
      </trkpt>
      <trkpt lat="44.15607" lon="3.07013">
        <ele>457</ele>
        <time>2022-04-05T15:03:13Z</time>
      </trkpt>
      <trkpt lat="44.15606" lon="3.07011">
        <ele>457</ele>
        <time>2022-04-05T15:03:12Z</time>
      </trkpt>
      <trkpt lat="44.15605" lon="3.07002">
        <ele>455.8</ele>
        <time>2022-04-05T15:02:57Z</time>
      </trkpt>
      <trkpt lat="44.15604" lon="3.07002">
        <ele>455.6</ele>
        <time>2022-04-05T15:02:56Z</time>
      </trkpt>
      <trkpt lat="44.15604" lon="3.07">
        <ele>455.4</ele>
        <time>2022-04-05T15:02:55Z</time>
      </trkpt>
      <trkpt lat="44.15603" lon="3.06999">
        <ele>455.4</ele>
        <time>2022-04-05T15:02:54Z</time>
      </trkpt>
      <trkpt lat="44.15603" lon="3.06996">
        <ele>455.2</ele>
        <time>2022-04-05T15:02:53Z</time>
      </trkpt>
      <trkpt lat="44.15603" lon="3.06994">
        <ele>455</ele>
        <time>2022-04-05T15:02:52Z</time>
      </trkpt>
      <trkpt lat="44.15603" lon="3.06992">
        <ele>454.6</ele>
        <time>2022-04-05T15:02:51Z</time>
      </trkpt>
      <trkpt lat="44.15603" lon="3.0699">
        <ele>454.6</ele>
        <time>2022-04-05T15:02:50Z</time>
      </trkpt>
      <trkpt lat="44.15603" lon="3.06988">
        <ele>454.4</ele>
        <time>2022-04-05T15:02:49Z</time>
      </trkpt>
      <trkpt lat="44.15602" lon="3.06985">
        <ele>454.2</ele>
        <time>2022-04-05T15:02:48Z</time>
      </trkpt>
      <trkpt lat="44.15601" lon="3.06983">
        <ele>453.8</ele>
        <time>2022-04-05T15:02:47Z</time>
      </trkpt>
      <trkpt lat="44.156" lon="3.06981">
        <ele>453.6</ele>
        <time>2022-04-05T15:02:46Z</time>
      </trkpt>
      <trkpt lat="44.15599" lon="3.06979">
        <ele>453.4</ele>
        <time>2022-04-05T15:02:45Z</time>
      </trkpt>
      <trkpt lat="44.15597" lon="3.06977">
        <ele>453.2</ele>
        <time>2022-04-05T15:02:44Z</time>
      </trkpt>
      <trkpt lat="44.15596" lon="3.06976">
        <ele>453.2</ele>
        <time>2022-04-05T15:02:43Z</time>
      </trkpt>
      <trkpt lat="44.15595" lon="3.06974">
        <ele>453</ele>
        <time>2022-04-05T15:02:42Z</time>
      </trkpt>
      <trkpt lat="44.15594" lon="3.06972">
        <ele>453.2</ele>
        <time>2022-04-05T15:02:41Z</time>
      </trkpt>
      <trkpt lat="44.15593" lon="3.0697">
        <ele>453</ele>
        <time>2022-04-05T15:02:40Z</time>
      </trkpt>
      <trkpt lat="44.15592" lon="3.06968">
        <ele>452.8</ele>
        <time>2022-04-05T15:02:39Z</time>
      </trkpt>
      <trkpt lat="44.15591" lon="3.06966">
        <ele>452.6</ele>
        <time>2022-04-05T15:02:38Z</time>
      </trkpt>
      <trkpt lat="44.15588" lon="3.06958">
        <ele>455</ele>
        <time>2022-04-05T15:02:14Z</time>
      </trkpt>
      <trkpt lat="44.15588" lon="3.06957">
        <ele>455.2</ele>
        <time>2022-04-05T15:02:13Z</time>
      </trkpt>
      <trkpt lat="44.15588" lon="3.06955">
        <ele>455.4</ele>
        <time>2022-04-05T15:02:12Z</time>
      </trkpt>
      <trkpt lat="44.15587" lon="3.06952">
        <ele>456.2</ele>
        <time>2022-04-05T15:02:11Z</time>
      </trkpt>
      <trkpt lat="44.15587" lon="3.0695">
        <ele>456.8</ele>
        <time>2022-04-05T15:02:10Z</time>
      </trkpt>
      <trkpt lat="44.15586" lon="3.06948">
        <ele>458</ele>
        <time>2022-04-05T15:02:09Z</time>
      </trkpt>
      <trkpt lat="44.15585" lon="3.06946">
        <ele>458.4</ele>
        <time>2022-04-05T15:02:08Z</time>
      </trkpt>
      <trkpt lat="44.15585" lon="3.06944">
        <ele>459.6</ele>
        <time>2022-04-05T15:02:07Z</time>
      </trkpt>
      <trkpt lat="44.15582" lon="3.0694">
        <ele>460.4</ele>
        <time>2022-04-05T15:02:06Z</time>
      </trkpt>
      <trkpt lat="44.15578" lon="3.06935">
        <ele>462.2</ele>
        <time>2022-04-05T15:02:05Z</time>
      </trkpt>
      <trkpt lat="44.15573" lon="3.06927">
        <ele>463.4</ele>
        <time>2022-04-05T15:02:04Z</time>
      </trkpt>
      <trkpt lat="44.15567" lon="3.06919">
        <ele>464.2</ele>
        <time>2022-04-05T15:02:03Z</time>
      </trkpt>
      <trkpt lat="44.15562" lon="3.0691">
        <ele>465.2</ele>
        <time>2022-04-05T15:02:02Z</time>
      </trkpt>
      <trkpt lat="44.15558" lon="3.06899">
        <ele>465.6</ele>
        <time>2022-04-05T15:02:01Z</time>
      </trkpt>
      <trkpt lat="44.15553" lon="3.06888">
        <ele>466.4</ele>
        <time>2022-04-05T15:02:00Z</time>
      </trkpt>
      <trkpt lat="44.15548" lon="3.06877">
        <ele>466.4</ele>
        <time>2022-04-05T15:01:59Z</time>
      </trkpt>
      <trkpt lat="44.15543" lon="3.06867">
        <ele>467</ele>
        <time>2022-04-05T15:01:58Z</time>
      </trkpt>
      <trkpt lat="44.15538" lon="3.06857">
        <ele>467.2</ele>
        <time>2022-04-05T15:01:57Z</time>
      </trkpt>
      <trkpt lat="44.15533" lon="3.06847">
        <ele>467.6</ele>
        <time>2022-04-05T15:01:56Z</time>
      </trkpt>
      <trkpt lat="44.15528" lon="3.06837">
        <ele>467.8</ele>
        <time>2022-04-05T15:01:55Z</time>
      </trkpt>
      <trkpt lat="44.15523" lon="3.06828">
        <ele>468.4</ele>
        <time>2022-04-05T15:01:54Z</time>
      </trkpt>
      <trkpt lat="44.15518" lon="3.06818">
        <ele>469.4</ele>
        <time>2022-04-05T15:01:53Z</time>
      </trkpt>
      <trkpt lat="44.15513" lon="3.06808">
        <ele>469.6</ele>
        <time>2022-04-05T15:01:52Z</time>
      </trkpt>
      <trkpt lat="44.15509" lon="3.06798">
        <ele>470.4</ele>
        <time>2022-04-05T15:01:51Z</time>
      </trkpt>
      <trkpt lat="44.15506" lon="3.06787">
        <ele>470.8</ele>
        <time>2022-04-05T15:01:50Z</time>
      </trkpt>
      <trkpt lat="44.15503" lon="3.06775">
        <ele>471.6</ele>
        <time>2022-04-05T15:01:49Z</time>
      </trkpt>
      <trkpt lat="44.15501" lon="3.06763">
        <ele>472</ele>
        <time>2022-04-05T15:01:48Z</time>
      </trkpt>
      <trkpt lat="44.155" lon="3.0675">
        <ele>473</ele>
        <time>2022-04-05T15:01:47Z</time>
      </trkpt>
      <trkpt lat="44.15501" lon="3.06739">
        <ele>473.4</ele>
        <time>2022-04-05T15:01:46Z</time>
      </trkpt>
      <trkpt lat="44.15502" lon="3.06728">
        <ele>473.8</ele>
        <time>2022-04-05T15:01:45Z</time>
      </trkpt>
      <trkpt lat="44.15504" lon="3.06717">
        <ele>474.4</ele>
        <time>2022-04-05T15:01:44Z</time>
      </trkpt>
      <trkpt lat="44.15506" lon="3.06706">
        <ele>474.6</ele>
        <time>2022-04-05T15:01:43Z</time>
      </trkpt>
      <trkpt lat="44.15508" lon="3.06696">
        <ele>474.6</ele>
        <time>2022-04-05T15:01:42Z</time>
      </trkpt>
      <trkpt lat="44.1551" lon="3.06687">
        <ele>474.6</ele>
        <time>2022-04-05T15:01:41Z</time>
      </trkpt>
      <trkpt lat="44.15512" lon="3.06678">
        <ele>474.8</ele>
        <time>2022-04-05T15:01:40Z</time>
      </trkpt>
      <trkpt lat="44.15514" lon="3.0667">
        <ele>474.8</ele>
        <time>2022-04-05T15:01:39Z</time>
      </trkpt>
      <trkpt lat="44.15516" lon="3.06661">
        <ele>474.8</ele>
        <time>2022-04-05T15:01:38Z</time>
      </trkpt>
      <trkpt lat="44.15517" lon="3.06653">
        <ele>474.8</ele>
        <time>2022-04-05T15:01:37Z</time>
      </trkpt>
      <trkpt lat="44.15519" lon="3.06645">
        <ele>474.8</ele>
        <time>2022-04-05T15:01:36Z</time>
      </trkpt>
      <trkpt lat="44.1552" lon="3.06637">
        <ele>474.8</ele>
        <time>2022-04-05T15:01:35Z</time>
      </trkpt>
      <trkpt lat="44.15521" lon="3.0663">
        <ele>474.8</ele>
        <time>2022-04-05T15:01:34Z</time>
      </trkpt>
      <trkpt lat="44.15522" lon="3.06622">
        <ele>475</ele>
        <time>2022-04-05T15:01:33Z</time>
      </trkpt>
      <trkpt lat="44.15523" lon="3.06615">
        <ele>475</ele>
        <time>2022-04-05T15:01:32Z</time>
      </trkpt>
      <trkpt lat="44.15524" lon="3.06607">
        <ele>475.2</ele>
        <time>2022-04-05T15:01:31Z</time>
      </trkpt>
      <trkpt lat="44.15525" lon="3.066">
        <ele>475.2</ele>
        <time>2022-04-05T15:01:30Z</time>
      </trkpt>
      <trkpt lat="44.15525" lon="3.06592">
        <ele>475.2</ele>
        <time>2022-04-05T15:01:29Z</time>
      </trkpt>
      <trkpt lat="44.15526" lon="3.06585">
        <ele>475.2</ele>
        <time>2022-04-05T15:01:28Z</time>
      </trkpt>
      <trkpt lat="44.15527" lon="3.06578">
        <ele>475.4</ele>
        <time>2022-04-05T15:01:27Z</time>
      </trkpt>
      <trkpt lat="44.15527" lon="3.06571">
        <ele>475.4</ele>
        <time>2022-04-05T15:01:26Z</time>
      </trkpt>
      <trkpt lat="44.15527" lon="3.06564">
        <ele>475.4</ele>
        <time>2022-04-05T15:01:25Z</time>
      </trkpt>
      <trkpt lat="44.15527" lon="3.06558">
        <ele>475.4</ele>
        <time>2022-04-05T15:01:24Z</time>
      </trkpt>
      <trkpt lat="44.15528" lon="3.06551">
        <ele>475.4</ele>
        <time>2022-04-05T15:01:23Z</time>
      </trkpt>
      <trkpt lat="44.15528" lon="3.06544">
        <ele>475.4</ele>
        <time>2022-04-05T15:01:22Z</time>
      </trkpt>
      <trkpt lat="44.15528" lon="3.06538">
        <ele>475.4</ele>
        <time>2022-04-05T15:01:21Z</time>
      </trkpt>
      <trkpt lat="44.15528" lon="3.06531">
        <ele>475.4</ele>
        <time>2022-04-05T15:01:20Z</time>
      </trkpt>
      <trkpt lat="44.15528" lon="3.06524">
        <ele>475.4</ele>
        <time>2022-04-05T15:01:19Z</time>
      </trkpt>
      <trkpt lat="44.15528" lon="3.06518">
        <ele>475.6</ele>
        <time>2022-04-05T15:01:18Z</time>
      </trkpt>
      <trkpt lat="44.15528" lon="3.06511">
        <ele>475.6</ele>
        <time>2022-04-05T15:01:17Z</time>
      </trkpt>
      <trkpt lat="44.15527" lon="3.06505">
        <ele>475.8</ele>
        <time>2022-04-05T15:01:16Z</time>
      </trkpt>
      <trkpt lat="44.15527" lon="3.06498">
        <ele>475.8</ele>
        <time>2022-04-05T15:01:15Z</time>
      </trkpt>
      <trkpt lat="44.15528" lon="3.06492">
        <ele>476</ele>
        <time>2022-04-05T15:01:14Z</time>
      </trkpt>
      <trkpt lat="44.15528" lon="3.06485">
        <ele>476</ele>
        <time>2022-04-05T15:01:13Z</time>
      </trkpt>
      <trkpt lat="44.15528" lon="3.06478">
        <ele>476</ele>
        <time>2022-04-05T15:01:12Z</time>
      </trkpt>
      <trkpt lat="44.15528" lon="3.06472">
        <ele>476</ele>
        <time>2022-04-05T15:01:11Z</time>
      </trkpt>
      <trkpt lat="44.15528" lon="3.06465">
        <ele>476.2</ele>
        <time>2022-04-05T15:01:10Z</time>
      </trkpt>
      <trkpt lat="44.15528" lon="3.06458">
        <ele>475.8</ele>
        <time>2022-04-05T15:01:09Z</time>
      </trkpt>
      <trkpt lat="44.15528" lon="3.06451">
        <ele>475.8</ele>
        <time>2022-04-05T15:01:08Z</time>
      </trkpt>
      <trkpt lat="44.15528" lon="3.06444">
        <ele>475.8</ele>
        <time>2022-04-05T15:01:07Z</time>
      </trkpt>
      <trkpt lat="44.15527" lon="3.06438">
        <ele>475.8</ele>
        <time>2022-04-05T15:01:06Z</time>
      </trkpt>
      <trkpt lat="44.15527" lon="3.06431">
        <ele>475.6</ele>
        <time>2022-04-05T15:01:05Z</time>
      </trkpt>
      <trkpt lat="44.15526" lon="3.06424">
        <ele>475.6</ele>
        <time>2022-04-05T15:01:04Z</time>
      </trkpt>
      <trkpt lat="44.15526" lon="3.06418">
        <ele>475.8</ele>
        <time>2022-04-05T15:01:03Z</time>
      </trkpt>
      <trkpt lat="44.15526" lon="3.06412">
        <ele>475.4</ele>
        <time>2022-04-05T15:01:02Z</time>
      </trkpt>
      <trkpt lat="44.15526" lon="3.06406">
        <ele>475.4</ele>
        <time>2022-04-05T15:01:01Z</time>
      </trkpt>
      <trkpt lat="44.15526" lon="3.064">
        <ele>475.8</ele>
        <time>2022-04-05T15:01:00Z</time>
      </trkpt>
      <trkpt lat="44.15526" lon="3.06394">
        <ele>475.8</ele>
        <time>2022-04-05T15:00:59Z</time>
      </trkpt>
      <trkpt lat="44.15526" lon="3.06388">
        <ele>475.8</ele>
        <time>2022-04-05T15:00:58Z</time>
      </trkpt>
      <trkpt lat="44.15525" lon="3.06382">
        <ele>475.8</ele>
        <time>2022-04-05T15:00:57Z</time>
      </trkpt>
      <trkpt lat="44.15525" lon="3.06376">
        <ele>476</ele>
        <time>2022-04-05T15:00:56Z</time>
      </trkpt>
      <trkpt lat="44.15525" lon="3.06369">
        <ele>476</ele>
        <time>2022-04-05T15:00:55Z</time>
      </trkpt>
      <trkpt lat="44.15524" lon="3.06363">
        <ele>476</ele>
        <time>2022-04-05T15:00:54Z</time>
      </trkpt>
      <trkpt lat="44.15523" lon="3.06356">
        <ele>476</ele>
        <time>2022-04-05T15:00:53Z</time>
      </trkpt>
      <trkpt lat="44.15523" lon="3.0635">
        <ele>476.2</ele>
        <time>2022-04-05T15:00:52Z</time>
      </trkpt>
      <trkpt lat="44.15522" lon="3.06344">
        <ele>476.4</ele>
        <time>2022-04-05T15:00:51Z</time>
      </trkpt>
      <trkpt lat="44.15521" lon="3.06338">
        <ele>476.4</ele>
        <time>2022-04-05T15:00:50Z</time>
      </trkpt>
      <trkpt lat="44.1552" lon="3.06332">
        <ele>476.4</ele>
        <time>2022-04-05T15:00:49Z</time>
      </trkpt>
      <trkpt lat="44.15518" lon="3.06327">
        <ele>476.6</ele>
        <time>2022-04-05T15:00:48Z</time>
      </trkpt>
      <trkpt lat="44.15517" lon="3.06322">
        <ele>476.6</ele>
        <time>2022-04-05T15:00:47Z</time>
      </trkpt>
      <trkpt lat="44.15515" lon="3.06317">
        <ele>476.4</ele>
        <time>2022-04-05T15:00:46Z</time>
      </trkpt>
      <trkpt lat="44.15513" lon="3.06312">
        <ele>476.4</ele>
        <time>2022-04-05T15:00:45Z</time>
      </trkpt>
      <trkpt lat="44.15511" lon="3.06308">
        <ele>476.4</ele>
        <time>2022-04-05T15:00:44Z</time>
      </trkpt>
      <trkpt lat="44.15509" lon="3.06303">
        <ele>476.6</ele>
        <time>2022-04-05T15:00:43Z</time>
      </trkpt>
      <trkpt lat="44.15506" lon="3.06297">
        <ele>476.6</ele>
        <time>2022-04-05T15:00:42Z</time>
      </trkpt>
      <trkpt lat="44.15503" lon="3.06292">
        <ele>476.6</ele>
        <time>2022-04-05T15:00:41Z</time>
      </trkpt>
      <trkpt lat="44.155" lon="3.06286">
        <ele>476.6</ele>
        <time>2022-04-05T15:00:40Z</time>
      </trkpt>
      <trkpt lat="44.15497" lon="3.06281">
        <ele>476.8</ele>
        <time>2022-04-05T15:00:39Z</time>
      </trkpt>
      <trkpt lat="44.15494" lon="3.06275">
        <ele>476.8</ele>
        <time>2022-04-05T15:00:38Z</time>
      </trkpt>
      <trkpt lat="44.15491" lon="3.0627">
        <ele>476.8</ele>
        <time>2022-04-05T15:00:37Z</time>
      </trkpt>
      <trkpt lat="44.15487" lon="3.06265">
        <ele>476.8</ele>
        <time>2022-04-05T15:00:36Z</time>
      </trkpt>
      <trkpt lat="44.15484" lon="3.0626">
        <ele>476.8</ele>
        <time>2022-04-05T15:00:35Z</time>
      </trkpt>
      <trkpt lat="44.15482" lon="3.06256">
        <ele>476.8</ele>
        <time>2022-04-05T15:00:34Z</time>
      </trkpt>
      <trkpt lat="44.15479" lon="3.06251">
        <ele>476.8</ele>
        <time>2022-04-05T15:00:33Z</time>
      </trkpt>
      <trkpt lat="44.15476" lon="3.06247">
        <ele>476.8</ele>
        <time>2022-04-05T15:00:32Z</time>
      </trkpt>
      <trkpt lat="44.15474" lon="3.06242">
        <ele>476.6</ele>
        <time>2022-04-05T15:00:31Z</time>
      </trkpt>
      <trkpt lat="44.15472" lon="3.06239">
        <ele>476.6</ele>
        <time>2022-04-05T15:00:30Z</time>
      </trkpt>
      <trkpt lat="44.1547" lon="3.06235">
        <ele>476.6</ele>
        <time>2022-04-05T15:00:29Z</time>
      </trkpt>
      <trkpt lat="44.15469" lon="3.06232">
        <ele>476.6</ele>
        <time>2022-04-05T15:00:28Z</time>
      </trkpt>
      <trkpt lat="44.15468" lon="3.06228">
        <ele>476.4</ele>
        <time>2022-04-05T15:00:27Z</time>
      </trkpt>
      <trkpt lat="44.15466" lon="3.06226">
        <ele>476.4</ele>
        <time>2022-04-05T15:00:26Z</time>
      </trkpt>
      <trkpt lat="44.15464" lon="3.06224">
        <ele>476.4</ele>
        <time>2022-04-05T15:00:25Z</time>
      </trkpt>
      <trkpt lat="44.15462" lon="3.06222">
        <ele>476.4</ele>
        <time>2022-04-05T15:00:24Z</time>
      </trkpt>
      <trkpt lat="44.1546" lon="3.06221">
        <ele>476.2</ele>
        <time>2022-04-05T15:00:23Z</time>
      </trkpt>
      <trkpt lat="44.15459" lon="3.0622">
        <ele>476.2</ele>
        <time>2022-04-05T15:00:22Z</time>
      </trkpt>
      <trkpt lat="44.15457" lon="3.06219">
        <ele>476.2</ele>
        <time>2022-04-05T15:00:21Z</time>
      </trkpt>
      <trkpt lat="44.15454" lon="3.06218">
        <ele>478.8</ele>
        <time>2022-04-05T14:59:43Z</time>
      </trkpt>
      <trkpt lat="44.15454" lon="3.06217">
        <ele>479</ele>
        <time>2022-04-05T14:59:42Z</time>
      </trkpt>
      <trkpt lat="44.15454" lon="3.06216">
        <ele>479</ele>
        <time>2022-04-05T14:59:41Z</time>
      </trkpt>
      <trkpt lat="44.15454" lon="3.06213">
        <ele>479</ele>
        <time>2022-04-05T14:59:40Z</time>
      </trkpt>
      <trkpt lat="44.15454" lon="3.06209">
        <ele>479</ele>
        <time>2022-04-05T14:59:39Z</time>
      </trkpt>
      <trkpt lat="44.15455" lon="3.06206">
        <ele>479</ele>
        <time>2022-04-05T14:59:38Z</time>
      </trkpt>
      <trkpt lat="44.15455" lon="3.06204">
        <ele>479</ele>
        <time>2022-04-05T14:59:37Z</time>
      </trkpt>
      <trkpt lat="44.15455" lon="3.06202">
        <ele>479.2</ele>
        <time>2022-04-05T14:59:36Z</time>
      </trkpt>
      <trkpt lat="44.15455" lon="3.062">
        <ele>479.2</ele>
        <time>2022-04-05T14:59:35Z</time>
      </trkpt>
      <trkpt lat="44.15454" lon="3.06199">
        <ele>479.2</ele>
        <time>2022-04-05T14:59:34Z</time>
      </trkpt>
      <trkpt lat="44.15453" lon="3.06197">
        <ele>479.2</ele>
        <time>2022-04-05T14:59:33Z</time>
      </trkpt>
      <trkpt lat="44.15452" lon="3.06194">
        <ele>479.4</ele>
        <time>2022-04-05T14:59:32Z</time>
      </trkpt>
      <trkpt lat="44.15452" lon="3.06191">
        <ele>479.4</ele>
        <time>2022-04-05T14:59:31Z</time>
      </trkpt>
      <trkpt lat="44.15452" lon="3.06187">
        <ele>479.4</ele>
        <time>2022-04-05T14:59:30Z</time>
      </trkpt>
      <trkpt lat="44.15452" lon="3.06184">
        <ele>479.6</ele>
        <time>2022-04-05T14:59:29Z</time>
      </trkpt>
      <trkpt lat="44.15452" lon="3.0618">
        <ele>479.8</ele>
        <time>2022-04-05T14:59:28Z</time>
      </trkpt>
      <trkpt lat="44.15452" lon="3.06177">
        <ele>480.2</ele>
        <time>2022-04-05T14:59:27Z</time>
      </trkpt>
      <trkpt lat="44.15452" lon="3.06175">
        <ele>480.2</ele>
        <time>2022-04-05T14:59:26Z</time>
      </trkpt>
      <trkpt lat="44.15451" lon="3.06172">
        <ele>480.2</ele>
        <time>2022-04-05T14:59:25Z</time>
      </trkpt>
      <trkpt lat="44.15451" lon="3.06169">
        <ele>480.2</ele>
        <time>2022-04-05T14:59:24Z</time>
      </trkpt>
      <trkpt lat="44.15451" lon="3.06164">
        <ele>480.2</ele>
        <time>2022-04-05T14:59:23Z</time>
      </trkpt>
      <trkpt lat="44.15452" lon="3.0616">
        <ele>480.2</ele>
        <time>2022-04-05T14:59:22Z</time>
      </trkpt>
      <trkpt lat="44.15453" lon="3.06156">
        <ele>480.2</ele>
        <time>2022-04-05T14:59:21Z</time>
      </trkpt>
      <trkpt lat="44.15454" lon="3.06153">
        <ele>480.2</ele>
        <time>2022-04-05T14:59:20Z</time>
      </trkpt>
      <trkpt lat="44.15454" lon="3.06151">
        <ele>480.2</ele>
        <time>2022-04-05T14:59:19Z</time>
      </trkpt>
      <trkpt lat="44.15455" lon="3.06149">
        <ele>480</ele>
        <time>2022-04-05T14:59:18Z</time>
      </trkpt>
      <trkpt lat="44.15455" lon="3.06147">
        <ele>480</ele>
        <time>2022-04-05T14:59:17Z</time>
      </trkpt>
      <trkpt lat="44.15456" lon="3.06144">
        <ele>480</ele>
        <time>2022-04-05T14:59:16Z</time>
      </trkpt>
      <trkpt lat="44.15456" lon="3.06143">
        <ele>480</ele>
        <time>2022-04-05T14:59:15Z</time>
      </trkpt>
      <trkpt lat="44.15455" lon="3.0614">
        <ele>480</ele>
        <time>2022-04-05T14:59:14Z</time>
      </trkpt>
      <trkpt lat="44.15454" lon="3.06138">
        <ele>480</ele>
        <time>2022-04-05T14:59:13Z</time>
      </trkpt>
      <trkpt lat="44.15453" lon="3.06135">
        <ele>480.4</ele>
        <time>2022-04-05T14:59:12Z</time>
      </trkpt>
      <trkpt lat="44.15452" lon="3.06132">
        <ele>480.6</ele>
        <time>2022-04-05T14:59:11Z</time>
      </trkpt>
      <trkpt lat="44.15453" lon="3.06128">
        <ele>480.8</ele>
        <time>2022-04-05T14:59:10Z</time>
      </trkpt>
      <trkpt lat="44.15453" lon="3.06122">
        <ele>481.4</ele>
        <time>2022-04-05T14:59:09Z</time>
      </trkpt>
      <trkpt lat="44.15454" lon="3.06117">
        <ele>481.6</ele>
        <time>2022-04-05T14:59:08Z</time>
      </trkpt>
      <trkpt lat="44.15455" lon="3.0611">
        <ele>481.8</ele>
        <time>2022-04-05T14:59:07Z</time>
      </trkpt>
      <trkpt lat="44.15457" lon="3.06103">
        <ele>482</ele>
        <time>2022-04-05T14:59:06Z</time>
      </trkpt>
      <trkpt lat="44.15459" lon="3.06096">
        <ele>482.2</ele>
        <time>2022-04-05T14:59:05Z</time>
      </trkpt>
      <trkpt lat="44.1546" lon="3.06089">
        <ele>482.2</ele>
        <time>2022-04-05T14:59:04Z</time>
      </trkpt>
      <trkpt lat="44.15461" lon="3.06083">
        <ele>482.4</ele>
        <time>2022-04-05T14:59:03Z</time>
      </trkpt>
      <trkpt lat="44.15462" lon="3.06077">
        <ele>482.6</ele>
        <time>2022-04-05T14:59:02Z</time>
      </trkpt>
      <trkpt lat="44.15463" lon="3.06071">
        <ele>482.8</ele>
        <time>2022-04-05T14:59:01Z</time>
      </trkpt>
      <trkpt lat="44.15463" lon="3.06066">
        <ele>482.8</ele>
        <time>2022-04-05T14:59:00Z</time>
      </trkpt>
      <trkpt lat="44.15463" lon="3.06061">
        <ele>483</ele>
        <time>2022-04-05T14:58:59Z</time>
      </trkpt>
      <trkpt lat="44.15463" lon="3.06056">
        <ele>483</ele>
        <time>2022-04-05T14:58:58Z</time>
      </trkpt>
      <trkpt lat="44.15464" lon="3.0605">
        <ele>483</ele>
        <time>2022-04-05T14:58:57Z</time>
      </trkpt>
      <trkpt lat="44.15465" lon="3.06044">
        <ele>483.2</ele>
        <time>2022-04-05T14:58:56Z</time>
      </trkpt>
      <trkpt lat="44.15466" lon="3.0604">
        <ele>483.2</ele>
        <time>2022-04-05T14:58:55Z</time>
      </trkpt>
      <trkpt lat="44.15467" lon="3.06037">
        <ele>483.2</ele>
        <time>2022-04-05T14:58:54Z</time>
      </trkpt>
      <trkpt lat="44.15467" lon="3.06034">
        <ele>483.2</ele>
        <time>2022-04-05T14:58:53Z</time>
      </trkpt>
      <trkpt lat="44.15468" lon="3.06031">
        <ele>483.4</ele>
        <time>2022-04-05T14:58:52Z</time>
      </trkpt>
      <trkpt lat="44.15467" lon="3.06027">
        <ele>483.4</ele>
        <time>2022-04-05T14:58:51Z</time>
      </trkpt>
      <trkpt lat="44.15468" lon="3.06023">
        <ele>483.4</ele>
        <time>2022-04-05T14:58:50Z</time>
      </trkpt>
      <trkpt lat="44.15468" lon="3.06019">
        <ele>483.6</ele>
        <time>2022-04-05T14:58:49Z</time>
      </trkpt>
      <trkpt lat="44.15468" lon="3.06015">
        <ele>483.8</ele>
        <time>2022-04-05T14:58:48Z</time>
      </trkpt>
      <trkpt lat="44.15469" lon="3.06012">
        <ele>484.2</ele>
        <time>2022-04-05T14:58:47Z</time>
      </trkpt>
      <trkpt lat="44.15469" lon="3.06009">
        <ele>484.6</ele>
        <time>2022-04-05T14:58:46Z</time>
      </trkpt>
      <trkpt lat="44.15469" lon="3.06006">
        <ele>485.6</ele>
        <time>2022-04-05T14:58:45Z</time>
      </trkpt>
      <trkpt lat="44.15468" lon="3.06002">
        <ele>485.6</ele>
        <time>2022-04-05T14:58:44Z</time>
      </trkpt>
      <trkpt lat="44.15469" lon="3.05998">
        <ele>486</ele>
        <time>2022-04-05T14:58:43Z</time>
      </trkpt>
      <trkpt lat="44.1547" lon="3.05995">
        <ele>486.2</ele>
        <time>2022-04-05T14:58:42Z</time>
      </trkpt>
      <trkpt lat="44.15472" lon="3.05992">
        <ele>486.6</ele>
        <time>2022-04-05T14:58:41Z</time>
      </trkpt>
      <trkpt lat="44.15474" lon="3.05989">
        <ele>486.8</ele>
        <time>2022-04-05T14:58:40Z</time>
      </trkpt>
      <trkpt lat="44.15476" lon="3.05987">
        <ele>487.4</ele>
        <time>2022-04-05T14:58:39Z</time>
      </trkpt>
      <trkpt lat="44.15478" lon="3.05985">
        <ele>488.2</ele>
        <time>2022-04-05T14:58:38Z</time>
      </trkpt>
      <trkpt lat="44.1548" lon="3.05984">
        <ele>488.2</ele>
        <time>2022-04-05T14:58:37Z</time>
      </trkpt>
      <trkpt lat="44.15481" lon="3.05983">
        <ele>488.6</ele>
        <time>2022-04-05T14:58:36Z</time>
      </trkpt>
      <trkpt lat="44.15482" lon="3.0598">
        <ele>488.4</ele>
        <time>2022-04-05T14:58:35Z</time>
      </trkpt>
      <trkpt lat="44.15482" lon="3.05977">
        <ele>488.8</ele>
        <time>2022-04-05T14:58:34Z</time>
      </trkpt>
      <trkpt lat="44.15481" lon="3.05973">
        <ele>489</ele>
        <time>2022-04-05T14:58:33Z</time>
      </trkpt>
      <trkpt lat="44.15481" lon="3.05968">
        <ele>489.6</ele>
        <time>2022-04-05T14:58:32Z</time>
      </trkpt>
      <trkpt lat="44.15482" lon="3.05963">
        <ele>490</ele>
        <time>2022-04-05T14:58:31Z</time>
      </trkpt>
      <trkpt lat="44.15483" lon="3.05959">
        <ele>490.6</ele>
        <time>2022-04-05T14:58:30Z</time>
      </trkpt>
      <trkpt lat="44.15485" lon="3.05955">
        <ele>491</ele>
        <time>2022-04-05T14:58:29Z</time>
      </trkpt>
      <trkpt lat="44.15486" lon="3.05951">
        <ele>491</ele>
        <time>2022-04-05T14:58:28Z</time>
      </trkpt>
      <trkpt lat="44.15488" lon="3.05946">
        <ele>491.2</ele>
        <time>2022-04-05T14:58:27Z</time>
      </trkpt>
      <trkpt lat="44.1549" lon="3.05942">
        <ele>491.2</ele>
        <time>2022-04-05T14:58:26Z</time>
      </trkpt>
      <trkpt lat="44.15492" lon="3.05937">
        <ele>491.4</ele>
        <time>2022-04-05T14:58:25Z</time>
      </trkpt>
      <trkpt lat="44.15493" lon="3.05933">
        <ele>491.6</ele>
        <time>2022-04-05T14:58:24Z</time>
      </trkpt>
      <trkpt lat="44.15494" lon="3.05928">
        <ele>492.2</ele>
        <time>2022-04-05T14:58:23Z</time>
      </trkpt>
      <trkpt lat="44.15495" lon="3.05925">
        <ele>492.4</ele>
        <time>2022-04-05T14:58:22Z</time>
      </trkpt>
      <trkpt lat="44.15496" lon="3.05922">
        <ele>492.6</ele>
        <time>2022-04-05T14:58:21Z</time>
      </trkpt>
      <trkpt lat="44.15496" lon="3.05918">
        <ele>492.6</ele>
        <time>2022-04-05T14:58:20Z</time>
      </trkpt>
      <trkpt lat="44.15498" lon="3.05915">
        <ele>492.8</ele>
        <time>2022-04-05T14:58:19Z</time>
      </trkpt>
      <trkpt lat="44.155" lon="3.05912">
        <ele>492.8</ele>
        <time>2022-04-05T14:58:18Z</time>
      </trkpt>
      <trkpt lat="44.15501" lon="3.05909">
        <ele>492.8</ele>
        <time>2022-04-05T14:58:17Z</time>
      </trkpt>
      <trkpt lat="44.15502" lon="3.05906">
        <ele>492.8</ele>
        <time>2022-04-05T14:58:16Z</time>
      </trkpt>
      <trkpt lat="44.15502" lon="3.05903">
        <ele>492.8</ele>
        <time>2022-04-05T14:58:15Z</time>
      </trkpt>
      <trkpt lat="44.15501" lon="3.059">
        <ele>492.8</ele>
        <time>2022-04-05T14:58:14Z</time>
      </trkpt>
      <trkpt lat="44.155" lon="3.05896">
        <ele>492.8</ele>
        <time>2022-04-05T14:58:13Z</time>
      </trkpt>
      <trkpt lat="44.15499" lon="3.05892">
        <ele>492.8</ele>
        <time>2022-04-05T14:58:12Z</time>
      </trkpt>
      <trkpt lat="44.155" lon="3.05888">
        <ele>492.8</ele>
        <time>2022-04-05T14:58:11Z</time>
      </trkpt>
      <trkpt lat="44.155" lon="3.05884">
        <ele>492.8</ele>
        <time>2022-04-05T14:58:10Z</time>
      </trkpt>
      <trkpt lat="44.15499" lon="3.05882">
        <ele>493</ele>
        <time>2022-04-05T14:58:09Z</time>
      </trkpt>
      <trkpt lat="44.15499" lon="3.0588">
        <ele>493</ele>
        <time>2022-04-05T14:58:08Z</time>
      </trkpt>
      <trkpt lat="44.15499" lon="3.05877">
        <ele>493</ele>
        <time>2022-04-05T14:58:07Z</time>
      </trkpt>
      <trkpt lat="44.15499" lon="3.05875">
        <ele>493</ele>
        <time>2022-04-05T14:58:06Z</time>
      </trkpt>
      <trkpt lat="44.15498" lon="3.05871">
        <ele>493.2</ele>
        <time>2022-04-05T14:58:05Z</time>
      </trkpt>
      <trkpt lat="44.15497" lon="3.05868">
        <ele>493.2</ele>
        <time>2022-04-05T14:58:04Z</time>
      </trkpt>
      <trkpt lat="44.15497" lon="3.05864">
        <ele>493.2</ele>
        <time>2022-04-05T14:58:03Z</time>
      </trkpt>
      <trkpt lat="44.15496" lon="3.05862">
        <ele>493.2</ele>
        <time>2022-04-05T14:58:02Z</time>
      </trkpt>
      <trkpt lat="44.15495" lon="3.05861">
        <ele>493.2</ele>
        <time>2022-04-05T14:58:01Z</time>
      </trkpt>
      <trkpt lat="44.15494" lon="3.05859">
        <ele>493.2</ele>
        <time>2022-04-05T14:58:00Z</time>
      </trkpt>
      <trkpt lat="44.15493" lon="3.05856">
        <ele>493</ele>
        <time>2022-04-05T14:57:59Z</time>
      </trkpt>
      <trkpt lat="44.15493" lon="3.05853">
        <ele>492.6</ele>
        <time>2022-04-05T14:57:58Z</time>
      </trkpt>
      <trkpt lat="44.15492" lon="3.05851">
        <ele>492.4</ele>
        <time>2022-04-05T14:57:57Z</time>
      </trkpt>
      <trkpt lat="44.15491" lon="3.05849">
        <ele>492.2</ele>
        <time>2022-04-05T14:57:56Z</time>
      </trkpt>
      <trkpt lat="44.15491" lon="3.05847">
        <ele>492</ele>
        <time>2022-04-05T14:57:55Z</time>
      </trkpt>
      <trkpt lat="44.1549" lon="3.05846">
        <ele>492</ele>
        <time>2022-04-05T14:57:54Z</time>
      </trkpt>
      <trkpt lat="44.15488" lon="3.05844">
        <ele>491.8</ele>
        <time>2022-04-05T14:57:53Z</time>
      </trkpt>
      <trkpt lat="44.15488" lon="3.05843">
        <ele>491.6</ele>
        <time>2022-04-05T14:57:52Z</time>
      </trkpt>
      <trkpt lat="44.15487" lon="3.05841">
        <ele>491.6</ele>
        <time>2022-04-05T14:57:51Z</time>
      </trkpt>
      <trkpt lat="44.15486" lon="3.05839">
        <ele>491.2</ele>
        <time>2022-04-05T14:57:50Z</time>
      </trkpt>
      <trkpt lat="44.15485" lon="3.05838">
        <ele>491.2</ele>
        <time>2022-04-05T14:57:49Z</time>
      </trkpt>
      <trkpt lat="44.15483" lon="3.05837">
        <ele>491</ele>
        <time>2022-04-05T14:57:48Z</time>
      </trkpt>
      <trkpt lat="44.15482" lon="3.05836">
        <ele>491</ele>
        <time>2022-04-05T14:57:47Z</time>
      </trkpt>
      <trkpt lat="44.15481" lon="3.05835">
        <ele>490.6</ele>
        <time>2022-04-05T14:57:46Z</time>
      </trkpt>
      <trkpt lat="44.1548" lon="3.05833">
        <ele>490.2</ele>
        <time>2022-04-05T14:57:45Z</time>
      </trkpt>
      <trkpt lat="44.1548" lon="3.05832">
        <ele>490</ele>
        <time>2022-04-05T14:57:44Z</time>
      </trkpt>
      <trkpt lat="44.15479" lon="3.0583">
        <ele>490</ele>
        <time>2022-04-05T14:57:43Z</time>
      </trkpt>
      <trkpt lat="44.15479" lon="3.05828">
        <ele>489.8</ele>
        <time>2022-04-05T14:57:42Z</time>
      </trkpt>
      <trkpt lat="44.15478" lon="3.05827">
        <ele>489.6</ele>
        <time>2022-04-05T14:57:41Z</time>
      </trkpt>
      <trkpt lat="44.15477" lon="3.05826">
        <ele>489.4</ele>
        <time>2022-04-05T14:57:40Z</time>
      </trkpt>
      <trkpt lat="44.15475" lon="3.05825">
        <ele>489.4</ele>
        <time>2022-04-05T14:57:39Z</time>
      </trkpt>
      <trkpt lat="44.15473" lon="3.05824">
        <ele>489.2</ele>
        <time>2022-04-05T14:57:38Z</time>
      </trkpt>
      <trkpt lat="44.15472" lon="3.05823">
        <ele>489</ele>
        <time>2022-04-05T14:57:37Z</time>
      </trkpt>
      <trkpt lat="44.15471" lon="3.05822">
        <ele>489</ele>
        <time>2022-04-05T14:57:36Z</time>
      </trkpt>
      <trkpt lat="44.15469" lon="3.05821">
        <ele>488.8</ele>
        <time>2022-04-05T14:57:35Z</time>
      </trkpt>
      <trkpt lat="44.15467" lon="3.05819">
        <ele>488.6</ele>
        <time>2022-04-05T14:57:34Z</time>
      </trkpt>
      <trkpt lat="44.15465" lon="3.05816">
        <ele>488.6</ele>
        <time>2022-04-05T14:57:33Z</time>
      </trkpt>
      <trkpt lat="44.15463" lon="3.05813">
        <ele>488.4</ele>
        <time>2022-04-05T14:57:32Z</time>
      </trkpt>
      <trkpt lat="44.15462" lon="3.0581">
        <ele>488.4</ele>
        <time>2022-04-05T14:57:31Z</time>
      </trkpt>
      <trkpt lat="44.15462" lon="3.05806">
        <ele>488.2</ele>
        <time>2022-04-05T14:57:30Z</time>
      </trkpt>
      <trkpt lat="44.15461" lon="3.05803">
        <ele>488.2</ele>
        <time>2022-04-05T14:57:29Z</time>
      </trkpt>
      <trkpt lat="44.1546" lon="3.058">
        <ele>488</ele>
        <time>2022-04-05T14:57:28Z</time>
      </trkpt>
      <trkpt lat="44.15459" lon="3.05798">
        <ele>488</ele>
        <time>2022-04-05T14:57:27Z</time>
      </trkpt>
      <trkpt lat="44.15458" lon="3.05795">
        <ele>487.8</ele>
        <time>2022-04-05T14:57:26Z</time>
      </trkpt>
      <trkpt lat="44.15457" lon="3.05791">
        <ele>487.4</ele>
        <time>2022-04-05T14:57:25Z</time>
      </trkpt>
      <trkpt lat="44.15457" lon="3.05789">
        <ele>487.4</ele>
        <time>2022-04-05T14:57:24Z</time>
      </trkpt>
      <trkpt lat="44.15456" lon="3.05786">
        <ele>487.4</ele>
        <time>2022-04-05T14:57:23Z</time>
      </trkpt>
      <trkpt lat="44.15455" lon="3.05783">
        <ele>487.2</ele>
        <time>2022-04-05T14:57:22Z</time>
      </trkpt>
      <trkpt lat="44.15455" lon="3.0578">
        <ele>487</ele>
        <time>2022-04-05T14:57:21Z</time>
      </trkpt>
      <trkpt lat="44.15455" lon="3.05778">
        <ele>487</ele>
        <time>2022-04-05T14:57:20Z</time>
      </trkpt>
      <trkpt lat="44.15455" lon="3.05775">
        <ele>486.8</ele>
        <time>2022-04-05T14:57:19Z</time>
      </trkpt>
      <trkpt lat="44.15455" lon="3.05772">
        <ele>486.8</ele>
        <time>2022-04-05T14:57:18Z</time>
      </trkpt>
      <trkpt lat="44.15454" lon="3.0577">
        <ele>486.6</ele>
        <time>2022-04-05T14:57:17Z</time>
      </trkpt>
      <trkpt lat="44.15454" lon="3.05767">
        <ele>486.4</ele>
        <time>2022-04-05T14:57:16Z</time>
      </trkpt>
      <trkpt lat="44.15454" lon="3.05764">
        <ele>486</ele>
        <time>2022-04-05T14:57:15Z</time>
      </trkpt>
      <trkpt lat="44.15455" lon="3.05762">
        <ele>485.6</ele>
        <time>2022-04-05T14:57:14Z</time>
      </trkpt>
      <trkpt lat="44.15474" lon="3.05699">
        <ele>485.4</ele>
        <time>2022-04-05T14:56:45Z</time>
      </trkpt>
      <trkpt lat="44.15474" lon="3.05698">
        <ele>485.6</ele>
        <time>2022-04-05T14:56:44Z</time>
      </trkpt>
      <trkpt lat="44.15475" lon="3.05697">
        <ele>485.8</ele>
        <time>2022-04-05T14:56:43Z</time>
      </trkpt>
      <trkpt lat="44.15475" lon="3.05697">
        <ele>485.8</ele>
        <time>2022-04-05T14:56:42Z</time>
      </trkpt>
      <trkpt lat="44.15475" lon="3.05696">
        <ele>485.8</ele>
        <time>2022-04-05T14:56:41Z</time>
      </trkpt>
      <trkpt lat="44.15475" lon="3.05694">
        <ele>485.8</ele>
        <time>2022-04-05T14:56:40Z</time>
      </trkpt>
      <trkpt lat="44.15477" lon="3.05691">
        <ele>485.8</ele>
        <time>2022-04-05T14:56:39Z</time>
      </trkpt>
      <trkpt lat="44.15486" lon="3.05683">
        <ele>486.2</ele>
        <time>2022-04-05T14:56:21Z</time>
      </trkpt>
      <trkpt lat="44.15487" lon="3.05683">
        <ele>486.2</ele>
        <time>2022-04-05T14:56:20Z</time>
      </trkpt>
      <trkpt lat="44.15487" lon="3.05682">
        <ele>486.2</ele>
        <time>2022-04-05T14:56:19Z</time>
      </trkpt>
      <trkpt lat="44.15488" lon="3.05681">
        <ele>486.2</ele>
        <time>2022-04-05T14:56:18Z</time>
      </trkpt>
      <trkpt lat="44.15489" lon="3.05681">
        <ele>486.2</ele>
        <time>2022-04-05T14:56:17Z</time>
      </trkpt>
      <trkpt lat="44.1549" lon="3.05679">
        <ele>486.2</ele>
        <time>2022-04-05T14:56:16Z</time>
      </trkpt>
      <trkpt lat="44.1549" lon="3.05677">
        <ele>486</ele>
        <time>2022-04-05T14:56:15Z</time>
      </trkpt>
      <trkpt lat="44.15491" lon="3.05676">
        <ele>486</ele>
        <time>2022-04-05T14:56:14Z</time>
      </trkpt>
      <trkpt lat="44.15491" lon="3.05674">
        <ele>486</ele>
        <time>2022-04-05T14:56:13Z</time>
      </trkpt>
      <trkpt lat="44.15491" lon="3.05672">
        <ele>486</ele>
        <time>2022-04-05T14:56:12Z</time>
      </trkpt>
      <trkpt lat="44.15491" lon="3.05669">
        <ele>485.8</ele>
        <time>2022-04-05T14:56:11Z</time>
      </trkpt>
      <trkpt lat="44.15492" lon="3.05668">
        <ele>485.8</ele>
        <time>2022-04-05T14:56:10Z</time>
      </trkpt>
      <trkpt lat="44.15492" lon="3.05667">
        <ele>485.8</ele>
        <time>2022-04-05T14:56:09Z</time>
      </trkpt>
      <trkpt lat="44.15492" lon="3.05665">
        <ele>485.8</ele>
        <time>2022-04-05T14:56:08Z</time>
      </trkpt>
      <trkpt lat="44.1548" lon="3.05621">
        <ele>491.4</ele>
        <time>2022-04-05T14:53:16Z</time>
      </trkpt>
      <trkpt lat="44.1548" lon="3.05621">
        <ele>491.8</ele>
        <time>2022-04-05T14:53:15Z</time>
      </trkpt>
      <trkpt lat="44.15481" lon="3.0562">
        <ele>492.8</ele>
        <time>2022-04-05T14:53:14Z</time>
      </trkpt>
      <trkpt lat="44.15483" lon="3.05619">
        <ele>494</ele>
        <time>2022-04-05T14:53:13Z</time>
      </trkpt>
      <trkpt lat="44.15483" lon="3.05617">
        <ele>494.2</ele>
        <time>2022-04-05T14:53:12Z</time>
      </trkpt>
      <trkpt lat="44.15485" lon="3.05615">
        <ele>494.8</ele>
        <time>2022-04-05T14:53:11Z</time>
      </trkpt>
      <trkpt lat="44.15487" lon="3.05611">
        <ele>495.2</ele>
        <time>2022-04-05T14:53:10Z</time>
      </trkpt>
      <trkpt lat="44.15491" lon="3.05608">
        <ele>495.8</ele>
        <time>2022-04-05T14:53:09Z</time>
      </trkpt>
      <trkpt lat="44.15495" lon="3.05605">
        <ele>496.2</ele>
        <time>2022-04-05T14:53:08Z</time>
      </trkpt>
      <trkpt lat="44.15499" lon="3.05601">
        <ele>497.6</ele>
        <time>2022-04-05T14:53:07Z</time>
      </trkpt>
      <trkpt lat="44.15504" lon="3.05598">
        <ele>498.4</ele>
        <time>2022-04-05T14:53:06Z</time>
      </trkpt>
      <trkpt lat="44.15507" lon="3.05594">
        <ele>500.8</ele>
        <time>2022-04-05T14:53:05Z</time>
      </trkpt>
      <trkpt lat="44.15511" lon="3.05592">
        <ele>501.4</ele>
        <time>2022-04-05T14:53:04Z</time>
      </trkpt>
      <trkpt lat="44.15515" lon="3.05589">
        <ele>502.4</ele>
        <time>2022-04-05T14:53:03Z</time>
      </trkpt>
      <trkpt lat="44.15518" lon="3.05586">
        <ele>503.8</ele>
        <time>2022-04-05T14:53:02Z</time>
      </trkpt>
      <trkpt lat="44.15519" lon="3.05582">
        <ele>504.6</ele>
        <time>2022-04-05T14:53:01Z</time>
      </trkpt>
      <trkpt lat="44.15521" lon="3.05579">
        <ele>506.2</ele>
        <time>2022-04-05T14:53:00Z</time>
      </trkpt>
      <trkpt lat="44.15522" lon="3.05577">
        <ele>507.4</ele>
        <time>2022-04-05T14:52:59Z</time>
      </trkpt>
      <trkpt lat="44.15522" lon="3.05575">
        <ele>508.8</ele>
        <time>2022-04-05T14:52:58Z</time>
      </trkpt>
      <trkpt lat="44.15524" lon="3.05571">
        <ele>509.4</ele>
        <time>2022-04-05T14:52:57Z</time>
      </trkpt>
      <trkpt lat="44.15526" lon="3.05567">
        <ele>510.6</ele>
        <time>2022-04-05T14:52:56Z</time>
      </trkpt>
      <trkpt lat="44.15529" lon="3.05561">
        <ele>510.8</ele>
        <time>2022-04-05T14:52:55Z</time>
      </trkpt>
      <trkpt lat="44.15533" lon="3.05555">
        <ele>511.8</ele>
        <time>2022-04-05T14:52:54Z</time>
      </trkpt>
      <trkpt lat="44.15537" lon="3.05548">
        <ele>512.4</ele>
        <time>2022-04-05T14:52:53Z</time>
      </trkpt>
      <trkpt lat="44.1554" lon="3.05541">
        <ele>514</ele>
        <time>2022-04-05T14:52:52Z</time>
      </trkpt>
      <trkpt lat="44.15542" lon="3.05534">
        <ele>514.8</ele>
        <time>2022-04-05T14:52:51Z</time>
      </trkpt>
      <trkpt lat="44.15544" lon="3.05528">
        <ele>515.2</ele>
        <time>2022-04-05T14:52:50Z</time>
      </trkpt>
      <trkpt lat="44.15545" lon="3.05523">
        <ele>516.4</ele>
        <time>2022-04-05T14:52:49Z</time>
      </trkpt>
      <trkpt lat="44.15546" lon="3.0552">
        <ele>517.2</ele>
        <time>2022-04-05T14:52:48Z</time>
      </trkpt>
      <trkpt lat="44.15545" lon="3.05517">
        <ele>519</ele>
        <time>2022-04-05T14:52:47Z</time>
      </trkpt>
      <trkpt lat="44.15542" lon="3.05516">
        <ele>519.8</ele>
        <time>2022-04-05T14:52:46Z</time>
      </trkpt>
      <trkpt lat="44.15539" lon="3.05517">
        <ele>520.8</ele>
        <time>2022-04-05T14:52:45Z</time>
      </trkpt>
      <trkpt lat="44.15536" lon="3.05517">
        <ele>521</ele>
        <time>2022-04-05T14:52:44Z</time>
      </trkpt>
      <trkpt lat="44.15534" lon="3.05516">
        <ele>521.2</ele>
        <time>2022-04-05T14:52:43Z</time>
      </trkpt>
      <trkpt lat="44.15532" lon="3.05514">
        <ele>521.4</ele>
        <time>2022-04-05T14:52:42Z</time>
      </trkpt>
      <trkpt lat="44.1553" lon="3.05511">
        <ele>521.4</ele>
        <time>2022-04-05T14:52:41Z</time>
      </trkpt>
      <trkpt lat="44.15528" lon="3.05508">
        <ele>521.8</ele>
        <time>2022-04-05T14:52:40Z</time>
      </trkpt>
      <trkpt lat="44.15527" lon="3.05505">
        <ele>521.8</ele>
        <time>2022-04-05T14:52:39Z</time>
      </trkpt>
      <trkpt lat="44.15525" lon="3.05502">
        <ele>522</ele>
        <time>2022-04-05T14:52:38Z</time>
      </trkpt>
      <trkpt lat="44.15523" lon="3.055">
        <ele>522</ele>
        <time>2022-04-05T14:52:37Z</time>
      </trkpt>
      <trkpt lat="44.15521" lon="3.05499">
        <ele>522</ele>
        <time>2022-04-05T14:52:36Z</time>
      </trkpt>
      <trkpt lat="44.15518" lon="3.05498">
        <ele>521.8</ele>
        <time>2022-04-05T14:52:35Z</time>
      </trkpt>
      <trkpt lat="44.15516" lon="3.05496">
        <ele>522</ele>
        <time>2022-04-05T14:52:34Z</time>
      </trkpt>
      <trkpt lat="44.15513" lon="3.05493">
        <ele>522</ele>
        <time>2022-04-05T14:52:33Z</time>
      </trkpt>
      <trkpt lat="44.15511" lon="3.05488">
        <ele>522</ele>
        <time>2022-04-05T14:52:32Z</time>
      </trkpt>
      <trkpt lat="44.1551" lon="3.05484">
        <ele>522.2</ele>
        <time>2022-04-05T14:52:31Z</time>
      </trkpt>
      <trkpt lat="44.15508" lon="3.0548">
        <ele>522.2</ele>
        <time>2022-04-05T14:52:30Z</time>
      </trkpt>
      <trkpt lat="44.15506" lon="3.05476">
        <ele>522.2</ele>
        <time>2022-04-05T14:52:29Z</time>
      </trkpt>
      <trkpt lat="44.15503" lon="3.05472">
        <ele>522.2</ele>
        <time>2022-04-05T14:52:28Z</time>
      </trkpt>
      <trkpt lat="44.15502" lon="3.05468">
        <ele>522.2</ele>
        <time>2022-04-05T14:52:27Z</time>
      </trkpt>
      <trkpt lat="44.155" lon="3.05464">
        <ele>522.2</ele>
        <time>2022-04-05T14:52:26Z</time>
      </trkpt>
      <trkpt lat="44.15498" lon="3.0546">
        <ele>522.4</ele>
        <time>2022-04-05T14:52:25Z</time>
      </trkpt>
      <trkpt lat="44.15496" lon="3.05456">
        <ele>522.4</ele>
        <time>2022-04-05T14:52:24Z</time>
      </trkpt>
      <trkpt lat="44.15495" lon="3.05452">
        <ele>522.2</ele>
        <time>2022-04-05T14:52:23Z</time>
      </trkpt>
      <trkpt lat="44.15493" lon="3.05449">
        <ele>522.2</ele>
        <time>2022-04-05T14:52:22Z</time>
      </trkpt>
      <trkpt lat="44.15492" lon="3.05445">
        <ele>522.2</ele>
        <time>2022-04-05T14:52:21Z</time>
      </trkpt>
      <trkpt lat="44.1549" lon="3.05442">
        <ele>522.2</ele>
        <time>2022-04-05T14:52:20Z</time>
      </trkpt>
      <trkpt lat="44.15489" lon="3.05439">
        <ele>522.2</ele>
        <time>2022-04-05T14:52:19Z</time>
      </trkpt>
      <trkpt lat="44.15488" lon="3.05435">
        <ele>522.2</ele>
        <time>2022-04-05T14:52:18Z</time>
      </trkpt>
      <trkpt lat="44.15486" lon="3.05432">
        <ele>522.2</ele>
        <time>2022-04-05T14:52:17Z</time>
      </trkpt>
      <trkpt lat="44.15485" lon="3.05429">
        <ele>522.2</ele>
        <time>2022-04-05T14:52:16Z</time>
      </trkpt>
      <trkpt lat="44.15483" lon="3.05426">
        <ele>522.2</ele>
        <time>2022-04-05T14:52:15Z</time>
      </trkpt>
      <trkpt lat="44.15481" lon="3.05424">
        <ele>522</ele>
        <time>2022-04-05T14:52:14Z</time>
      </trkpt>
      <trkpt lat="44.15479" lon="3.05422">
        <ele>522</ele>
        <time>2022-04-05T14:52:13Z</time>
      </trkpt>
      <trkpt lat="44.15478" lon="3.05421">
        <ele>522</ele>
        <time>2022-04-05T14:52:12Z</time>
      </trkpt>
      <trkpt lat="44.15477" lon="3.05419">
        <ele>522</ele>
        <time>2022-04-05T14:52:11Z</time>
      </trkpt>
      <trkpt lat="44.15475" lon="3.05416">
        <ele>521.8</ele>
        <time>2022-04-05T14:52:10Z</time>
      </trkpt>
      <trkpt lat="44.15473" lon="3.05413">
        <ele>521.8</ele>
        <time>2022-04-05T14:52:09Z</time>
      </trkpt>
      <trkpt lat="44.15471" lon="3.05409">
        <ele>521.8</ele>
        <time>2022-04-05T14:52:08Z</time>
      </trkpt>
      <trkpt lat="44.15469" lon="3.05405">
        <ele>521.8</ele>
        <time>2022-04-05T14:52:07Z</time>
      </trkpt>
      <trkpt lat="44.15467" lon="3.05401">
        <ele>521.6</ele>
        <time>2022-04-05T14:52:06Z</time>
      </trkpt>
      <trkpt lat="44.15466" lon="3.05398">
        <ele>521.6</ele>
        <time>2022-04-05T14:52:05Z</time>
      </trkpt>
      <trkpt lat="44.15464" lon="3.05396">
        <ele>521.4</ele>
        <time>2022-04-05T14:52:04Z</time>
      </trkpt>
      <trkpt lat="44.15463" lon="3.05394">
        <ele>521.4</ele>
        <time>2022-04-05T14:52:03Z</time>
      </trkpt>
      <trkpt lat="44.15461" lon="3.05391">
        <ele>521.2</ele>
        <time>2022-04-05T14:52:02Z</time>
      </trkpt>
      <trkpt lat="44.1546" lon="3.05388">
        <ele>520.8</ele>
        <time>2022-04-05T14:52:01Z</time>
      </trkpt>
      <trkpt lat="44.15458" lon="3.05385">
        <ele>520.6</ele>
        <time>2022-04-05T14:52:00Z</time>
      </trkpt>
      <trkpt lat="44.15456" lon="3.05382">
        <ele>520.4</ele>
        <time>2022-04-05T14:51:59Z</time>
      </trkpt>
      <trkpt lat="44.15454" lon="3.0538">
        <ele>520.4</ele>
        <time>2022-04-05T14:51:58Z</time>
      </trkpt>
      <trkpt lat="44.15452" lon="3.05377">
        <ele>520.4</ele>
        <time>2022-04-05T14:51:57Z</time>
      </trkpt>
      <trkpt lat="44.1545" lon="3.05373">
        <ele>520</ele>
        <time>2022-04-05T14:51:56Z</time>
      </trkpt>
      <trkpt lat="44.15447" lon="3.05369">
        <ele>519.8</ele>
        <time>2022-04-05T14:51:55Z</time>
      </trkpt>
      <trkpt lat="44.15445" lon="3.05365">
        <ele>519.6</ele>
        <time>2022-04-05T14:51:54Z</time>
      </trkpt>
      <trkpt lat="44.15443" lon="3.0536">
        <ele>519.6</ele>
        <time>2022-04-05T14:51:53Z</time>
      </trkpt>
      <trkpt lat="44.15442" lon="3.05355">
        <ele>519.4</ele>
        <time>2022-04-05T14:51:52Z</time>
      </trkpt>
      <trkpt lat="44.1544" lon="3.05351">
        <ele>519.4</ele>
        <time>2022-04-05T14:51:51Z</time>
      </trkpt>
      <trkpt lat="44.15438" lon="3.05346">
        <ele>519.2</ele>
        <time>2022-04-05T14:51:50Z</time>
      </trkpt>
      <trkpt lat="44.15436" lon="3.05341">
        <ele>519.2</ele>
        <time>2022-04-05T14:51:49Z</time>
      </trkpt>
      <trkpt lat="44.15435" lon="3.05336">
        <ele>519.2</ele>
        <time>2022-04-05T14:51:48Z</time>
      </trkpt>
      <trkpt lat="44.15433" lon="3.05331">
        <ele>519.4</ele>
        <time>2022-04-05T14:51:47Z</time>
      </trkpt>
      <trkpt lat="44.15431" lon="3.05326">
        <ele>519.4</ele>
        <time>2022-04-05T14:51:46Z</time>
      </trkpt>
      <trkpt lat="44.15429" lon="3.0532">
        <ele>519.4</ele>
        <time>2022-04-05T14:51:45Z</time>
      </trkpt>
      <trkpt lat="44.15428" lon="3.05315">
        <ele>519.4</ele>
        <time>2022-04-05T14:51:44Z</time>
      </trkpt>
      <trkpt lat="44.15426" lon="3.05309">
        <ele>519.6</ele>
        <time>2022-04-05T14:51:43Z</time>
      </trkpt>
      <trkpt lat="44.15425" lon="3.05303">
        <ele>519.8</ele>
        <time>2022-04-05T14:51:42Z</time>
      </trkpt>
      <trkpt lat="44.15424" lon="3.05297">
        <ele>520.2</ele>
        <time>2022-04-05T14:51:41Z</time>
      </trkpt>
      <trkpt lat="44.15422" lon="3.05291">
        <ele>520.4</ele>
        <time>2022-04-05T14:51:40Z</time>
      </trkpt>
      <trkpt lat="44.15421" lon="3.05285">
        <ele>520.4</ele>
        <time>2022-04-05T14:51:39Z</time>
      </trkpt>
      <trkpt lat="44.15419" lon="3.05279">
        <ele>520.6</ele>
        <time>2022-04-05T14:51:38Z</time>
      </trkpt>
      <trkpt lat="44.15418" lon="3.05273">
        <ele>520.8</ele>
        <time>2022-04-05T14:51:37Z</time>
      </trkpt>
      <trkpt lat="44.15415" lon="3.05266">
        <ele>521.2</ele>
        <time>2022-04-05T14:51:36Z</time>
      </trkpt>
      <trkpt lat="44.15413" lon="3.05259">
        <ele>521.2</ele>
        <time>2022-04-05T14:51:35Z</time>
      </trkpt>
      <trkpt lat="44.15411" lon="3.05251">
        <ele>521.4</ele>
        <time>2022-04-05T14:51:34Z</time>
      </trkpt>
      <trkpt lat="44.15409" lon="3.05243">
        <ele>521.4</ele>
        <time>2022-04-05T14:51:33Z</time>
      </trkpt>
      <trkpt lat="44.15407" lon="3.05235">
        <ele>521.6</ele>
        <time>2022-04-05T14:51:32Z</time>
      </trkpt>
      <trkpt lat="44.15404" lon="3.05228">
        <ele>521.6</ele>
        <time>2022-04-05T14:51:31Z</time>
      </trkpt>
      <trkpt lat="44.15403" lon="3.05222">
        <ele>521.6</ele>
        <time>2022-04-05T14:51:30Z</time>
      </trkpt>
      <trkpt lat="44.154" lon="3.05215">
        <ele>521.6</ele>
        <time>2022-04-05T14:51:29Z</time>
      </trkpt>
      <trkpt lat="44.15399" lon="3.05209">
        <ele>521.8</ele>
        <time>2022-04-05T14:51:28Z</time>
      </trkpt>
      <trkpt lat="44.15397" lon="3.05202">
        <ele>521.8</ele>
        <time>2022-04-05T14:51:27Z</time>
      </trkpt>
      <trkpt lat="44.15395" lon="3.05194">
        <ele>521.8</ele>
        <time>2022-04-05T14:51:26Z</time>
      </trkpt>
      <trkpt lat="44.15393" lon="3.05189">
        <ele>521.8</ele>
        <time>2022-04-05T14:51:25Z</time>
      </trkpt>
      <trkpt lat="44.15392" lon="3.05183">
        <ele>521.8</ele>
        <time>2022-04-05T14:51:24Z</time>
      </trkpt>
      <trkpt lat="44.1539" lon="3.05177">
        <ele>521.8</ele>
        <time>2022-04-05T14:51:23Z</time>
      </trkpt>
      <trkpt lat="44.15388" lon="3.05171">
        <ele>521.8</ele>
        <time>2022-04-05T14:51:22Z</time>
      </trkpt>
      <trkpt lat="44.15387" lon="3.05165">
        <ele>521.8</ele>
        <time>2022-04-05T14:51:21Z</time>
      </trkpt>
      <trkpt lat="44.15386" lon="3.05159">
        <ele>521.6</ele>
        <time>2022-04-05T14:51:20Z</time>
      </trkpt>
      <trkpt lat="44.15384" lon="3.05153">
        <ele>521.6</ele>
        <time>2022-04-05T14:51:19Z</time>
      </trkpt>
      <trkpt lat="44.15383" lon="3.05148">
        <ele>521.4</ele>
        <time>2022-04-05T14:51:18Z</time>
      </trkpt>
      <trkpt lat="44.15382" lon="3.05142">
        <ele>521.2</ele>
        <time>2022-04-05T14:51:17Z</time>
      </trkpt>
      <trkpt lat="44.1538" lon="3.05135">
        <ele>521</ele>
        <time>2022-04-05T14:51:16Z</time>
      </trkpt>
      <trkpt lat="44.15379" lon="3.0513">
        <ele>521</ele>
        <time>2022-04-05T14:51:15Z</time>
      </trkpt>
      <trkpt lat="44.15377" lon="3.05123">
        <ele>521</ele>
        <time>2022-04-05T14:51:14Z</time>
      </trkpt>
      <trkpt lat="44.15375" lon="3.05117">
        <ele>521</ele>
        <time>2022-04-05T14:51:13Z</time>
      </trkpt>
      <trkpt lat="44.15373" lon="3.05111">
        <ele>521</ele>
        <time>2022-04-05T14:51:12Z</time>
      </trkpt>
      <trkpt lat="44.15372" lon="3.05105">
        <ele>521</ele>
        <time>2022-04-05T14:51:11Z</time>
      </trkpt>
      <trkpt lat="44.1537" lon="3.051">
        <ele>521</ele>
        <time>2022-04-05T14:51:10Z</time>
      </trkpt>
      <trkpt lat="44.15369" lon="3.05094">
        <ele>521</ele>
        <time>2022-04-05T14:51:09Z</time>
      </trkpt>
      <trkpt lat="44.15367" lon="3.05089">
        <ele>521</ele>
        <time>2022-04-05T14:51:08Z</time>
      </trkpt>
      <trkpt lat="44.15365" lon="3.05082">
        <ele>521</ele>
        <time>2022-04-05T14:51:07Z</time>
      </trkpt>
      <trkpt lat="44.15363" lon="3.05076">
        <ele>521.2</ele>
        <time>2022-04-05T14:51:06Z</time>
      </trkpt>
      <trkpt lat="44.15362" lon="3.0507">
        <ele>521.2</ele>
        <time>2022-04-05T14:51:05Z</time>
      </trkpt>
      <trkpt lat="44.1536" lon="3.05064">
        <ele>521.4</ele>
        <time>2022-04-05T14:51:04Z</time>
      </trkpt>
      <trkpt lat="44.15358" lon="3.05056">
        <ele>521.4</ele>
        <time>2022-04-05T14:51:03Z</time>
      </trkpt>
      <trkpt lat="44.15355" lon="3.05048">
        <ele>521.4</ele>
        <time>2022-04-05T14:51:02Z</time>
      </trkpt>
      <trkpt lat="44.15353" lon="3.05041">
        <ele>521.4</ele>
        <time>2022-04-05T14:51:01Z</time>
      </trkpt>
      <trkpt lat="44.1535" lon="3.05036">
        <ele>521.4</ele>
        <time>2022-04-05T14:51:00Z</time>
      </trkpt>
      <trkpt lat="44.15348" lon="3.0503">
        <ele>521.4</ele>
        <time>2022-04-05T14:50:59Z</time>
      </trkpt>
      <trkpt lat="44.15346" lon="3.05023">
        <ele>521.4</ele>
        <time>2022-04-05T14:50:58Z</time>
      </trkpt>
      <trkpt lat="44.15344" lon="3.05017">
        <ele>521.4</ele>
        <time>2022-04-05T14:50:57Z</time>
      </trkpt>
      <trkpt lat="44.15341" lon="3.0501">
        <ele>521.4</ele>
        <time>2022-04-05T14:50:56Z</time>
      </trkpt>
      <trkpt lat="44.1534" lon="3.05005">
        <ele>521.4</ele>
        <time>2022-04-05T14:50:55Z</time>
      </trkpt>
      <trkpt lat="44.15338" lon="3.05">
        <ele>521.6</ele>
        <time>2022-04-05T14:50:54Z</time>
      </trkpt>
      <trkpt lat="44.15336" lon="3.04994">
        <ele>521.6</ele>
        <time>2022-04-05T14:50:53Z</time>
      </trkpt>
      <trkpt lat="44.15335" lon="3.04989">
        <ele>521.6</ele>
        <time>2022-04-05T14:50:52Z</time>
      </trkpt>
      <trkpt lat="44.15333" lon="3.04984">
        <ele>521.6</ele>
        <time>2022-04-05T14:50:51Z</time>
      </trkpt>
      <trkpt lat="44.15332" lon="3.04979">
        <ele>521.6</ele>
        <time>2022-04-05T14:50:50Z</time>
      </trkpt>
      <trkpt lat="44.15331" lon="3.04974">
        <ele>521.6</ele>
        <time>2022-04-05T14:50:49Z</time>
      </trkpt>
      <trkpt lat="44.1533" lon="3.04967">
        <ele>521.6</ele>
        <time>2022-04-05T14:50:48Z</time>
      </trkpt>
      <trkpt lat="44.15329" lon="3.04961">
        <ele>521.6</ele>
        <time>2022-04-05T14:50:47Z</time>
      </trkpt>
      <trkpt lat="44.15329" lon="3.04955">
        <ele>521.6</ele>
        <time>2022-04-05T14:50:46Z</time>
      </trkpt>
      <trkpt lat="44.1533" lon="3.0495">
        <ele>521.6</ele>
        <time>2022-04-05T14:50:45Z</time>
      </trkpt>
      <trkpt lat="44.1533" lon="3.04944">
        <ele>521.4</ele>
        <time>2022-04-05T14:50:44Z</time>
      </trkpt>
      <trkpt lat="44.15331" lon="3.04939">
        <ele>521.4</ele>
        <time>2022-04-05T14:50:43Z</time>
      </trkpt>
      <trkpt lat="44.15332" lon="3.04935">
        <ele>521.4</ele>
        <time>2022-04-05T14:50:42Z</time>
      </trkpt>
      <trkpt lat="44.15332" lon="3.0493">
        <ele>521.4</ele>
        <time>2022-04-05T14:50:41Z</time>
      </trkpt>
      <trkpt lat="44.15332" lon="3.04925">
        <ele>521.4</ele>
        <time>2022-04-05T14:50:40Z</time>
      </trkpt>
      <trkpt lat="44.15331" lon="3.04921">
        <ele>521.2</ele>
        <time>2022-04-05T14:50:39Z</time>
      </trkpt>
      <trkpt lat="44.1533" lon="3.04916">
        <ele>521.4</ele>
        <time>2022-04-05T14:50:38Z</time>
      </trkpt>
      <trkpt lat="44.15328" lon="3.04912">
        <ele>521.2</ele>
        <time>2022-04-05T14:50:37Z</time>
      </trkpt>
      <trkpt lat="44.15326" lon="3.04907">
        <ele>521.2</ele>
        <time>2022-04-05T14:50:36Z</time>
      </trkpt>
      <trkpt lat="44.15325" lon="3.04903">
        <ele>521.2</ele>
        <time>2022-04-05T14:50:35Z</time>
      </trkpt>
      <trkpt lat="44.15324" lon="3.04897">
        <ele>521.2</ele>
        <time>2022-04-05T14:50:34Z</time>
      </trkpt>
      <trkpt lat="44.15324" lon="3.04892">
        <ele>521.2</ele>
        <time>2022-04-05T14:50:33Z</time>
      </trkpt>
      <trkpt lat="44.15323" lon="3.04887">
        <ele>521.2</ele>
        <time>2022-04-05T14:50:32Z</time>
      </trkpt>
      <trkpt lat="44.15323" lon="3.04883">
        <ele>521.2</ele>
        <time>2022-04-05T14:50:31Z</time>
      </trkpt>
      <trkpt lat="44.15322" lon="3.04878">
        <ele>521.4</ele>
        <time>2022-04-05T14:50:30Z</time>
      </trkpt>
      <trkpt lat="44.15322" lon="3.04872">
        <ele>521.4</ele>
        <time>2022-04-05T14:50:29Z</time>
      </trkpt>
      <trkpt lat="44.15321" lon="3.04865">
        <ele>521.6</ele>
        <time>2022-04-05T14:50:28Z</time>
      </trkpt>
      <trkpt lat="44.1532" lon="3.04859">
        <ele>521.8</ele>
        <time>2022-04-05T14:50:27Z</time>
      </trkpt>
      <trkpt lat="44.15319" lon="3.04854">
        <ele>522.2</ele>
        <time>2022-04-05T14:50:26Z</time>
      </trkpt>
      <trkpt lat="44.15319" lon="3.04848">
        <ele>522.2</ele>
        <time>2022-04-05T14:50:25Z</time>
      </trkpt>
      <trkpt lat="44.15319" lon="3.04842">
        <ele>522.2</ele>
        <time>2022-04-05T14:50:24Z</time>
      </trkpt>
      <trkpt lat="44.15318" lon="3.04836">
        <ele>522.4</ele>
        <time>2022-04-05T14:50:23Z</time>
      </trkpt>
      <trkpt lat="44.15317" lon="3.04831">
        <ele>522.4</ele>
        <time>2022-04-05T14:50:22Z</time>
      </trkpt>
      <trkpt lat="44.15316" lon="3.04825">
        <ele>522.4</ele>
        <time>2022-04-05T14:50:21Z</time>
      </trkpt>
      <trkpt lat="44.15315" lon="3.04819">
        <ele>522.4</ele>
        <time>2022-04-05T14:50:20Z</time>
      </trkpt>
      <trkpt lat="44.15314" lon="3.04813">
        <ele>522.4</ele>
        <time>2022-04-05T14:50:19Z</time>
      </trkpt>
      <trkpt lat="44.15313" lon="3.04807">
        <ele>522.4</ele>
        <time>2022-04-05T14:50:18Z</time>
      </trkpt>
      <trkpt lat="44.15313" lon="3.04802">
        <ele>522.4</ele>
        <time>2022-04-05T14:50:17Z</time>
      </trkpt>
      <trkpt lat="44.15313" lon="3.04796">
        <ele>522.4</ele>
        <time>2022-04-05T14:50:16Z</time>
      </trkpt>
      <trkpt lat="44.15313" lon="3.04791">
        <ele>522.4</ele>
        <time>2022-04-05T14:50:15Z</time>
      </trkpt>
      <trkpt lat="44.15313" lon="3.04786">
        <ele>522.2</ele>
        <time>2022-04-05T14:50:14Z</time>
      </trkpt>
      <trkpt lat="44.15313" lon="3.04782">
        <ele>522.2</ele>
        <time>2022-04-05T14:50:13Z</time>
      </trkpt>
      <trkpt lat="44.15312" lon="3.04778">
        <ele>522.2</ele>
        <time>2022-04-05T14:50:12Z</time>
      </trkpt>
      <trkpt lat="44.15312" lon="3.04774">
        <ele>522.2</ele>
        <time>2022-04-05T14:50:11Z</time>
      </trkpt>
      <trkpt lat="44.15312" lon="3.0477">
        <ele>522.2</ele>
        <time>2022-04-05T14:50:10Z</time>
      </trkpt>
      <trkpt lat="44.15311" lon="3.04766">
        <ele>522.2</ele>
        <time>2022-04-05T14:50:09Z</time>
      </trkpt>
      <trkpt lat="44.15311" lon="3.04762">
        <ele>522</ele>
        <time>2022-04-05T14:50:08Z</time>
      </trkpt>
      <trkpt lat="44.1531" lon="3.04758">
        <ele>521.8</ele>
        <time>2022-04-05T14:50:07Z</time>
      </trkpt>
      <trkpt lat="44.1531" lon="3.04754">
        <ele>521.4</ele>
        <time>2022-04-05T14:50:06Z</time>
      </trkpt>
      <trkpt lat="44.15309" lon="3.04751">
        <ele>521.2</ele>
        <time>2022-04-05T14:50:05Z</time>
      </trkpt>
      <trkpt lat="44.15308" lon="3.04748">
        <ele>521</ele>
        <time>2022-04-05T14:50:04Z</time>
      </trkpt>
      <trkpt lat="44.15307" lon="3.04745">
        <ele>520.8</ele>
        <time>2022-04-05T14:50:03Z</time>
      </trkpt>
      <trkpt lat="44.15306" lon="3.04741">
        <ele>520.6</ele>
        <time>2022-04-05T14:50:02Z</time>
      </trkpt>
      <trkpt lat="44.15305" lon="3.04738">
        <ele>520.4</ele>
        <time>2022-04-05T14:50:01Z</time>
      </trkpt>
      <trkpt lat="44.15305" lon="3.04735">
        <ele>520.4</ele>
        <time>2022-04-05T14:50:00Z</time>
      </trkpt>
      <trkpt lat="44.15303" lon="3.04731">
        <ele>520.2</ele>
        <time>2022-04-05T14:49:59Z</time>
      </trkpt>
      <trkpt lat="44.15302" lon="3.04727">
        <ele>520</ele>
        <time>2022-04-05T14:49:58Z</time>
      </trkpt>
      <trkpt lat="44.153" lon="3.04724">
        <ele>519.8</ele>
        <time>2022-04-05T14:49:57Z</time>
      </trkpt>
      <trkpt lat="44.15299" lon="3.04721">
        <ele>519.6</ele>
        <time>2022-04-05T14:49:56Z</time>
      </trkpt>
      <trkpt lat="44.15298" lon="3.04717">
        <ele>519.4</ele>
        <time>2022-04-05T14:49:55Z</time>
      </trkpt>
      <trkpt lat="44.15297" lon="3.04714">
        <ele>519.2</ele>
        <time>2022-04-05T14:49:54Z</time>
      </trkpt>
      <trkpt lat="44.15296" lon="3.0471">
        <ele>518.6</ele>
        <time>2022-04-05T14:49:53Z</time>
      </trkpt>
      <trkpt lat="44.15295" lon="3.04707">
        <ele>518</ele>
        <time>2022-04-05T14:49:52Z</time>
      </trkpt>
      <trkpt lat="44.15294" lon="3.04703">
        <ele>518</ele>
        <time>2022-04-05T14:49:51Z</time>
      </trkpt>
      <trkpt lat="44.15293" lon="3.047">
        <ele>517.8</ele>
        <time>2022-04-05T14:49:50Z</time>
      </trkpt>
      <trkpt lat="44.15293" lon="3.04697">
        <ele>517.8</ele>
        <time>2022-04-05T14:49:49Z</time>
      </trkpt>
      <trkpt lat="44.15293" lon="3.04694">
        <ele>517.8</ele>
        <time>2022-04-05T14:49:48Z</time>
      </trkpt>
      <trkpt lat="44.15292" lon="3.0469">
        <ele>517.6</ele>
        <time>2022-04-05T14:49:47Z</time>
      </trkpt>
      <trkpt lat="44.15292" lon="3.04687">
        <ele>517.6</ele>
        <time>2022-04-05T14:49:46Z</time>
      </trkpt>
      <trkpt lat="44.15292" lon="3.04684">
        <ele>517.6</ele>
        <time>2022-04-05T14:49:45Z</time>
      </trkpt>
      <trkpt lat="44.15291" lon="3.04681">
        <ele>517.4</ele>
        <time>2022-04-05T14:49:44Z</time>
      </trkpt>
      <trkpt lat="44.15291" lon="3.04678">
        <ele>517.4</ele>
        <time>2022-04-05T14:49:43Z</time>
      </trkpt>
      <trkpt lat="44.15292" lon="3.04675">
        <ele>517.4</ele>
        <time>2022-04-05T14:49:42Z</time>
      </trkpt>
      <trkpt lat="44.15292" lon="3.04673">
        <ele>517.4</ele>
        <time>2022-04-05T14:49:41Z</time>
      </trkpt>
      <trkpt lat="44.15292" lon="3.04671">
        <ele>517.4</ele>
        <time>2022-04-05T14:49:40Z</time>
      </trkpt>
      <trkpt lat="44.15292" lon="3.04669">
        <ele>517.4</ele>
        <time>2022-04-05T14:49:39Z</time>
      </trkpt>
      <trkpt lat="44.15292" lon="3.04667">
        <ele>517.4</ele>
        <time>2022-04-05T14:49:38Z</time>
      </trkpt>
      <trkpt lat="44.15291" lon="3.04663">
        <ele>518.8</ele>
        <time>2022-04-05T14:47:49Z</time>
      </trkpt>
      <trkpt lat="44.15291" lon="3.04663">
        <ele>518.8</ele>
        <time>2022-04-05T14:47:48Z</time>
      </trkpt>
      <trkpt lat="44.15291" lon="3.04662">
        <ele>519</ele>
        <time>2022-04-05T14:47:47Z</time>
      </trkpt>
      <trkpt lat="44.15291" lon="3.0466">
        <ele>519.2</ele>
        <time>2022-04-05T14:47:46Z</time>
      </trkpt>
      <trkpt lat="44.15291" lon="3.04658">
        <ele>519.4</ele>
        <time>2022-04-05T14:47:45Z</time>
      </trkpt>
      <trkpt lat="44.1529" lon="3.04654">
        <ele>519.4</ele>
        <time>2022-04-05T14:47:44Z</time>
      </trkpt>
      <trkpt lat="44.15289" lon="3.0465">
        <ele>519.6</ele>
        <time>2022-04-05T14:47:43Z</time>
      </trkpt>
      <trkpt lat="44.15287" lon="3.04646">
        <ele>519.6</ele>
        <time>2022-04-05T14:47:42Z</time>
      </trkpt>
      <trkpt lat="44.15285" lon="3.0464">
        <ele>519.8</ele>
        <time>2022-04-05T14:47:41Z</time>
      </trkpt>
      <trkpt lat="44.15283" lon="3.04635">
        <ele>519.8</ele>
        <time>2022-04-05T14:47:40Z</time>
      </trkpt>
      <trkpt lat="44.15282" lon="3.04629">
        <ele>519.8</ele>
        <time>2022-04-05T14:47:39Z</time>
      </trkpt>
      <trkpt lat="44.15281" lon="3.04622">
        <ele>519.8</ele>
        <time>2022-04-05T14:47:38Z</time>
      </trkpt>
      <trkpt lat="44.1528" lon="3.04614">
        <ele>519.8</ele>
        <time>2022-04-05T14:47:37Z</time>
      </trkpt>
      <trkpt lat="44.15278" lon="3.04608">
        <ele>519.8</ele>
        <time>2022-04-05T14:47:36Z</time>
      </trkpt>
      <trkpt lat="44.15277" lon="3.04603">
        <ele>520</ele>
        <time>2022-04-05T14:47:35Z</time>
      </trkpt>
      <trkpt lat="44.15275" lon="3.04597">
        <ele>520</ele>
        <time>2022-04-05T14:47:34Z</time>
      </trkpt>
      <trkpt lat="44.15273" lon="3.04591">
        <ele>520</ele>
        <time>2022-04-05T14:47:33Z</time>
      </trkpt>
      <trkpt lat="44.15272" lon="3.04584">
        <ele>520</ele>
        <time>2022-04-05T14:47:32Z</time>
      </trkpt>
      <trkpt lat="44.15271" lon="3.04577">
        <ele>520</ele>
        <time>2022-04-05T14:47:31Z</time>
      </trkpt>
      <trkpt lat="44.1527" lon="3.04571">
        <ele>520</ele>
        <time>2022-04-05T14:47:30Z</time>
      </trkpt>
      <trkpt lat="44.15268" lon="3.04564">
        <ele>520</ele>
        <time>2022-04-05T14:47:29Z</time>
      </trkpt>
      <trkpt lat="44.15265" lon="3.04558">
        <ele>520</ele>
        <time>2022-04-05T14:47:28Z</time>
      </trkpt>
      <trkpt lat="44.15263" lon="3.04552">
        <ele>520</ele>
        <time>2022-04-05T14:47:27Z</time>
      </trkpt>
      <trkpt lat="44.1526" lon="3.04544">
        <ele>520.2</ele>
        <time>2022-04-05T14:47:26Z</time>
      </trkpt>
      <trkpt lat="44.15258" lon="3.04538">
        <ele>520.2</ele>
        <time>2022-04-05T14:47:25Z</time>
      </trkpt>
      <trkpt lat="44.15256" lon="3.04533">
        <ele>520.2</ele>
        <time>2022-04-05T14:47:24Z</time>
      </trkpt>
      <trkpt lat="44.15252" lon="3.04527">
        <ele>520.4</ele>
        <time>2022-04-05T14:47:23Z</time>
      </trkpt>
      <trkpt lat="44.15249" lon="3.04521">
        <ele>520.4</ele>
        <time>2022-04-05T14:47:22Z</time>
      </trkpt>
      <trkpt lat="44.15245" lon="3.04516">
        <ele>520.4</ele>
        <time>2022-04-05T14:47:21Z</time>
      </trkpt>
      <trkpt lat="44.15242" lon="3.04512">
        <ele>520.8</ele>
        <time>2022-04-05T14:47:20Z</time>
      </trkpt>
      <trkpt lat="44.15239" lon="3.04507">
        <ele>520.8</ele>
        <time>2022-04-05T14:47:19Z</time>
      </trkpt>
      <trkpt lat="44.15235" lon="3.04502">
        <ele>520.8</ele>
        <time>2022-04-05T14:47:18Z</time>
      </trkpt>
      <trkpt lat="44.1523" lon="3.04497">
        <ele>521</ele>
        <time>2022-04-05T14:47:17Z</time>
      </trkpt>
      <trkpt lat="44.15226" lon="3.04492">
        <ele>521.2</ele>
        <time>2022-04-05T14:47:16Z</time>
      </trkpt>
      <trkpt lat="44.15223" lon="3.04486">
        <ele>521.2</ele>
        <time>2022-04-05T14:47:15Z</time>
      </trkpt>
      <trkpt lat="44.15219" lon="3.0448">
        <ele>521.6</ele>
        <time>2022-04-05T14:47:14Z</time>
      </trkpt>
      <trkpt lat="44.15215" lon="3.04474">
        <ele>521.8</ele>
        <time>2022-04-05T14:47:13Z</time>
      </trkpt>
      <trkpt lat="44.15212" lon="3.04468">
        <ele>522.2</ele>
        <time>2022-04-05T14:47:12Z</time>
      </trkpt>
      <trkpt lat="44.15208" lon="3.04462">
        <ele>522.6</ele>
        <time>2022-04-05T14:47:11Z</time>
      </trkpt>
      <trkpt lat="44.15205" lon="3.04456">
        <ele>522.6</ele>
        <time>2022-04-05T14:47:10Z</time>
      </trkpt>
      <trkpt lat="44.15203" lon="3.0445">
        <ele>522.6</ele>
        <time>2022-04-05T14:47:09Z</time>
      </trkpt>
      <trkpt lat="44.152" lon="3.04444">
        <ele>522.8</ele>
        <time>2022-04-05T14:47:08Z</time>
      </trkpt>
      <trkpt lat="44.15198" lon="3.04437">
        <ele>522.8</ele>
        <time>2022-04-05T14:47:07Z</time>
      </trkpt>
      <trkpt lat="44.15197" lon="3.0443">
        <ele>522.8</ele>
        <time>2022-04-05T14:47:06Z</time>
      </trkpt>
      <trkpt lat="44.15196" lon="3.04423">
        <ele>523.2</ele>
        <time>2022-04-05T14:47:05Z</time>
      </trkpt>
      <trkpt lat="44.15195" lon="3.04416">
        <ele>523.4</ele>
        <time>2022-04-05T14:47:04Z</time>
      </trkpt>
      <trkpt lat="44.15194" lon="3.04408">
        <ele>524</ele>
        <time>2022-04-05T14:47:03Z</time>
      </trkpt>
      <trkpt lat="44.15194" lon="3.04399">
        <ele>524.2</ele>
        <time>2022-04-05T14:47:02Z</time>
      </trkpt>
      <trkpt lat="44.15194" lon="3.0439">
        <ele>525.2</ele>
        <time>2022-04-05T14:47:01Z</time>
      </trkpt>
      <trkpt lat="44.15194" lon="3.04381">
        <ele>526</ele>
        <time>2022-04-05T14:47:00Z</time>
      </trkpt>
      <trkpt lat="44.15195" lon="3.04372">
        <ele>526.2</ele>
        <time>2022-04-05T14:46:59Z</time>
      </trkpt>
      <trkpt lat="44.15195" lon="3.04363">
        <ele>526.8</ele>
        <time>2022-04-05T14:46:58Z</time>
      </trkpt>
      <trkpt lat="44.15196" lon="3.04354">
        <ele>526.8</ele>
        <time>2022-04-05T14:46:57Z</time>
      </trkpt>
      <trkpt lat="44.15197" lon="3.04345">
        <ele>527.2</ele>
        <time>2022-04-05T14:46:56Z</time>
      </trkpt>
      <trkpt lat="44.15199" lon="3.04336">
        <ele>527.2</ele>
        <time>2022-04-05T14:46:55Z</time>
      </trkpt>
      <trkpt lat="44.152" lon="3.04327">
        <ele>527.4</ele>
        <time>2022-04-05T14:46:54Z</time>
      </trkpt>
      <trkpt lat="44.152" lon="3.04318">
        <ele>527.4</ele>
        <time>2022-04-05T14:46:53Z</time>
      </trkpt>
      <trkpt lat="44.15201" lon="3.04309">
        <ele>527.4</ele>
        <time>2022-04-05T14:46:52Z</time>
      </trkpt>
      <trkpt lat="44.15201" lon="3.04301">
        <ele>527.4</ele>
        <time>2022-04-05T14:46:51Z</time>
      </trkpt>
      <trkpt lat="44.15202" lon="3.04292">
        <ele>527.6</ele>
        <time>2022-04-05T14:46:50Z</time>
      </trkpt>
      <trkpt lat="44.15202" lon="3.04283">
        <ele>527.8</ele>
        <time>2022-04-05T14:46:49Z</time>
      </trkpt>
      <trkpt lat="44.15202" lon="3.04274">
        <ele>528</ele>
        <time>2022-04-05T14:46:48Z</time>
      </trkpt>
      <trkpt lat="44.15201" lon="3.04266">
        <ele>528.6</ele>
        <time>2022-04-05T14:46:47Z</time>
      </trkpt>
      <trkpt lat="44.152" lon="3.04257">
        <ele>529</ele>
        <time>2022-04-05T14:46:46Z</time>
      </trkpt>
      <trkpt lat="44.15198" lon="3.04248">
        <ele>529.4</ele>
        <time>2022-04-05T14:46:45Z</time>
      </trkpt>
      <trkpt lat="44.15195" lon="3.04239">
        <ele>529.6</ele>
        <time>2022-04-05T14:46:44Z</time>
      </trkpt>
      <trkpt lat="44.15193" lon="3.0423">
        <ele>529.8</ele>
        <time>2022-04-05T14:46:43Z</time>
      </trkpt>
      <trkpt lat="44.15191" lon="3.04221">
        <ele>530</ele>
        <time>2022-04-05T14:46:42Z</time>
      </trkpt>
      <trkpt lat="44.15189" lon="3.04212">
        <ele>530.4</ele>
        <time>2022-04-05T14:46:41Z</time>
      </trkpt>
      <trkpt lat="44.15186" lon="3.04204">
        <ele>530.8</ele>
        <time>2022-04-05T14:46:40Z</time>
      </trkpt>
      <trkpt lat="44.15183" lon="3.04196">
        <ele>531</ele>
        <time>2022-04-05T14:46:39Z</time>
      </trkpt>
      <trkpt lat="44.15179" lon="3.04189">
        <ele>531.2</ele>
        <time>2022-04-05T14:46:38Z</time>
      </trkpt>
      <trkpt lat="44.15174" lon="3.04183">
        <ele>531.4</ele>
        <time>2022-04-05T14:46:37Z</time>
      </trkpt>
      <trkpt lat="44.1517" lon="3.04178">
        <ele>531.6</ele>
        <time>2022-04-05T14:46:36Z</time>
      </trkpt>
      <trkpt lat="44.15165" lon="3.04172">
        <ele>531.8</ele>
        <time>2022-04-05T14:46:35Z</time>
      </trkpt>
      <trkpt lat="44.1516" lon="3.04166">
        <ele>531.8</ele>
        <time>2022-04-05T14:46:34Z</time>
      </trkpt>
      <trkpt lat="44.15156" lon="3.0416">
        <ele>531.8</ele>
        <time>2022-04-05T14:46:33Z</time>
      </trkpt>
      <trkpt lat="44.15152" lon="3.04154">
        <ele>532.2</ele>
        <time>2022-04-05T14:46:32Z</time>
      </trkpt>
      <trkpt lat="44.15148" lon="3.04147">
        <ele>532.2</ele>
        <time>2022-04-05T14:46:31Z</time>
      </trkpt>
      <trkpt lat="44.15146" lon="3.04139">
        <ele>532.4</ele>
        <time>2022-04-05T14:46:30Z</time>
      </trkpt>
      <trkpt lat="44.15144" lon="3.04131">
        <ele>532.4</ele>
        <time>2022-04-05T14:46:29Z</time>
      </trkpt>
      <trkpt lat="44.15142" lon="3.04124">
        <ele>532.4</ele>
        <time>2022-04-05T14:46:28Z</time>
      </trkpt>
      <trkpt lat="44.1514" lon="3.04117">
        <ele>532.6</ele>
        <time>2022-04-05T14:46:27Z</time>
      </trkpt>
      <trkpt lat="44.15139" lon="3.0411">
        <ele>532.8</ele>
        <time>2022-04-05T14:46:26Z</time>
      </trkpt>
      <trkpt lat="44.15137" lon="3.04103">
        <ele>533</ele>
        <time>2022-04-05T14:46:25Z</time>
      </trkpt>
      <trkpt lat="44.15135" lon="3.04096">
        <ele>533.4</ele>
        <time>2022-04-05T14:46:24Z</time>
      </trkpt>
      <trkpt lat="44.15133" lon="3.04089">
        <ele>534.4</ele>
        <time>2022-04-05T14:46:23Z</time>
      </trkpt>
      <trkpt lat="44.15132" lon="3.04081">
        <ele>535</ele>
        <time>2022-04-05T14:46:22Z</time>
      </trkpt>
      <trkpt lat="44.1513" lon="3.04074">
        <ele>536.4</ele>
        <time>2022-04-05T14:46:21Z</time>
      </trkpt>
      <trkpt lat="44.1513" lon="3.04066">
        <ele>536.8</ele>
        <time>2022-04-05T14:46:20Z</time>
      </trkpt>
      <trkpt lat="44.15128" lon="3.04058">
        <ele>538.4</ele>
        <time>2022-04-05T14:46:19Z</time>
      </trkpt>
      <trkpt lat="44.15125" lon="3.04052">
        <ele>539</ele>
        <time>2022-04-05T14:46:18Z</time>
      </trkpt>
      <trkpt lat="44.15121" lon="3.04046">
        <ele>540</ele>
        <time>2022-04-05T14:46:17Z</time>
      </trkpt>
      <trkpt lat="44.15116" lon="3.0404">
        <ele>541.2</ele>
        <time>2022-04-05T14:46:16Z</time>
      </trkpt>
      <trkpt lat="44.15111" lon="3.04031">
        <ele>541.4</ele>
        <time>2022-04-05T14:46:15Z</time>
      </trkpt>
      <trkpt lat="44.15108" lon="3.0402">
        <ele>541.8</ele>
        <time>2022-04-05T14:46:14Z</time>
      </trkpt>
      <trkpt lat="44.15104" lon="3.04009">
        <ele>542.2</ele>
        <time>2022-04-05T14:46:13Z</time>
      </trkpt>
      <trkpt lat="44.151" lon="3.03999">
        <ele>543.6</ele>
        <time>2022-04-05T14:46:12Z</time>
      </trkpt>
      <trkpt lat="44.15095" lon="3.03989">
        <ele>543.8</ele>
        <time>2022-04-05T14:46:11Z</time>
      </trkpt>
      <trkpt lat="44.15089" lon="3.0398">
        <ele>544.4</ele>
        <time>2022-04-05T14:46:10Z</time>
      </trkpt>
      <trkpt lat="44.15082" lon="3.03971">
        <ele>545</ele>
        <time>2022-04-05T14:46:09Z</time>
      </trkpt>
      <trkpt lat="44.15076" lon="3.03963">
        <ele>546.4</ele>
        <time>2022-04-05T14:46:08Z</time>
      </trkpt>
      <trkpt lat="44.15069" lon="3.03955">
        <ele>547</ele>
        <time>2022-04-05T14:46:07Z</time>
      </trkpt>
      <trkpt lat="44.15064" lon="3.03945">
        <ele>547.8</ele>
        <time>2022-04-05T14:46:06Z</time>
      </trkpt>
      <trkpt lat="44.1506" lon="3.03935">
        <ele>548.4</ele>
        <time>2022-04-05T14:46:05Z</time>
      </trkpt>
      <trkpt lat="44.15057" lon="3.03925">
        <ele>548.4</ele>
        <time>2022-04-05T14:46:04Z</time>
      </trkpt>
      <trkpt lat="44.15054" lon="3.03914">
        <ele>548.6</ele>
        <time>2022-04-05T14:46:03Z</time>
      </trkpt>
      <trkpt lat="44.1505" lon="3.03904">
        <ele>548.8</ele>
        <time>2022-04-05T14:46:02Z</time>
      </trkpt>
      <trkpt lat="44.15046" lon="3.03895">
        <ele>548.8</ele>
        <time>2022-04-05T14:46:01Z</time>
      </trkpt>
      <trkpt lat="44.15042" lon="3.03886">
        <ele>549</ele>
        <time>2022-04-05T14:46:00Z</time>
      </trkpt>
      <trkpt lat="44.15039" lon="3.03876">
        <ele>549.2</ele>
        <time>2022-04-05T14:45:59Z</time>
      </trkpt>
      <trkpt lat="44.15035" lon="3.03867">
        <ele>549.2</ele>
        <time>2022-04-05T14:45:58Z</time>
      </trkpt>
      <trkpt lat="44.15031" lon="3.03857">
        <ele>549.4</ele>
        <time>2022-04-05T14:45:57Z</time>
      </trkpt>
      <trkpt lat="44.15027" lon="3.03847">
        <ele>549.6</ele>
        <time>2022-04-05T14:45:56Z</time>
      </trkpt>
      <trkpt lat="44.15024" lon="3.03837">
        <ele>549.8</ele>
        <time>2022-04-05T14:45:55Z</time>
      </trkpt>
      <trkpt lat="44.15021" lon="3.03828">
        <ele>550.4</ele>
        <time>2022-04-05T14:45:54Z</time>
      </trkpt>
      <trkpt lat="44.15017" lon="3.03816">
        <ele>550.8</ele>
        <time>2022-04-05T14:45:53Z</time>
      </trkpt>
      <trkpt lat="44.15012" lon="3.03806">
        <ele>551.4</ele>
        <time>2022-04-05T14:45:52Z</time>
      </trkpt>
      <trkpt lat="44.15007" lon="3.03796">
        <ele>551.8</ele>
        <time>2022-04-05T14:45:51Z</time>
      </trkpt>
      <trkpt lat="44.15002" lon="3.03786">
        <ele>552.8</ele>
        <time>2022-04-05T14:45:50Z</time>
      </trkpt>
      <trkpt lat="44.14996" lon="3.03776">
        <ele>552.8</ele>
        <time>2022-04-05T14:45:49Z</time>
      </trkpt>
      <trkpt lat="44.1499" lon="3.03767">
        <ele>553.4</ele>
        <time>2022-04-05T14:45:48Z</time>
      </trkpt>
      <trkpt lat="44.14984" lon="3.03759">
        <ele>553.8</ele>
        <time>2022-04-05T14:45:47Z</time>
      </trkpt>
      <trkpt lat="44.14978" lon="3.03751">
        <ele>554.6</ele>
        <time>2022-04-05T14:45:46Z</time>
      </trkpt>
      <trkpt lat="44.14972" lon="3.03743">
        <ele>554.8</ele>
        <time>2022-04-05T14:45:45Z</time>
      </trkpt>
      <trkpt lat="44.14966" lon="3.03734">
        <ele>555</ele>
        <time>2022-04-05T14:45:44Z</time>
      </trkpt>
      <trkpt lat="44.14959" lon="3.03725">
        <ele>555.6</ele>
        <time>2022-04-05T14:45:43Z</time>
      </trkpt>
      <trkpt lat="44.14954" lon="3.03717">
        <ele>555.8</ele>
        <time>2022-04-05T14:45:42Z</time>
      </trkpt>
      <trkpt lat="44.14948" lon="3.03709">
        <ele>556.2</ele>
        <time>2022-04-05T14:45:41Z</time>
      </trkpt>
      <trkpt lat="44.14943" lon="3.037">
        <ele>556.2</ele>
        <time>2022-04-05T14:45:40Z</time>
      </trkpt>
      <trkpt lat="44.14938" lon="3.03692">
        <ele>556.6</ele>
        <time>2022-04-05T14:45:39Z</time>
      </trkpt>
      <trkpt lat="44.14933" lon="3.03683">
        <ele>556.8</ele>
        <time>2022-04-05T14:45:38Z</time>
      </trkpt>
      <trkpt lat="44.14929" lon="3.03673">
        <ele>557.6</ele>
        <time>2022-04-05T14:45:37Z</time>
      </trkpt>
      <trkpt lat="44.14925" lon="3.03663">
        <ele>558.2</ele>
        <time>2022-04-05T14:45:36Z</time>
      </trkpt>
      <trkpt lat="44.14921" lon="3.03652">
        <ele>559.8</ele>
        <time>2022-04-05T14:45:35Z</time>
      </trkpt>
      <trkpt lat="44.14917" lon="3.0364">
        <ele>561</ele>
        <time>2022-04-05T14:45:34Z</time>
      </trkpt>
      <trkpt lat="44.14913" lon="3.03628">
        <ele>561.4</ele>
        <time>2022-04-05T14:45:33Z</time>
      </trkpt>
      <trkpt lat="44.14907" lon="3.03617">
        <ele>562.2</ele>
        <time>2022-04-05T14:45:32Z</time>
      </trkpt>
      <trkpt lat="44.149" lon="3.03608">
        <ele>562.6</ele>
        <time>2022-04-05T14:45:31Z</time>
      </trkpt>
      <trkpt lat="44.14893" lon="3.036">
        <ele>563.4</ele>
        <time>2022-04-05T14:45:30Z</time>
      </trkpt>
      <trkpt lat="44.14884" lon="3.03593">
        <ele>564</ele>
        <time>2022-04-05T14:45:29Z</time>
      </trkpt>
      <trkpt lat="44.14876" lon="3.03587">
        <ele>565.4</ele>
        <time>2022-04-05T14:45:28Z</time>
      </trkpt>
      <trkpt lat="44.14869" lon="3.03581">
        <ele>566</ele>
        <time>2022-04-05T14:45:27Z</time>
      </trkpt>
      <trkpt lat="44.14862" lon="3.03574">
        <ele>566.6</ele>
        <time>2022-04-05T14:45:26Z</time>
      </trkpt>
      <trkpt lat="44.14855" lon="3.03567">
        <ele>566.8</ele>
        <time>2022-04-05T14:45:25Z</time>
      </trkpt>
      <trkpt lat="44.14849" lon="3.0356">
        <ele>567</ele>
        <time>2022-04-05T14:45:24Z</time>
      </trkpt>
      <trkpt lat="44.14842" lon="3.03553">
        <ele>567.2</ele>
        <time>2022-04-05T14:45:23Z</time>
      </trkpt>
      <trkpt lat="44.14836" lon="3.03547">
        <ele>567.2</ele>
        <time>2022-04-05T14:45:22Z</time>
      </trkpt>
      <trkpt lat="44.14831" lon="3.0354">
        <ele>567.2</ele>
        <time>2022-04-05T14:45:21Z</time>
      </trkpt>
      <trkpt lat="44.14826" lon="3.03535">
        <ele>567</ele>
        <time>2022-04-05T14:45:20Z</time>
      </trkpt>
      <trkpt lat="44.14821" lon="3.03529">
        <ele>567</ele>
        <time>2022-04-05T14:45:19Z</time>
      </trkpt>
      <trkpt lat="44.14817" lon="3.03525">
        <ele>567</ele>
        <time>2022-04-05T14:45:18Z</time>
      </trkpt>
      <trkpt lat="44.14812" lon="3.03521">
        <ele>567</ele>
        <time>2022-04-05T14:45:17Z</time>
      </trkpt>
      <trkpt lat="44.14808" lon="3.03518">
        <ele>567</ele>
        <time>2022-04-05T14:45:16Z</time>
      </trkpt>
      <trkpt lat="44.14805" lon="3.03515">
        <ele>567</ele>
        <time>2022-04-05T14:45:15Z</time>
      </trkpt>
      <trkpt lat="44.14801" lon="3.03513">
        <ele>567</ele>
        <time>2022-04-05T14:45:14Z</time>
      </trkpt>
      <trkpt lat="44.14797" lon="3.03511">
        <ele>566.8</ele>
        <time>2022-04-05T14:45:13Z</time>
      </trkpt>
      <trkpt lat="44.14794" lon="3.0351">
        <ele>566.8</ele>
        <time>2022-04-05T14:45:12Z</time>
      </trkpt>
      <trkpt lat="44.14791" lon="3.03509">
        <ele>566.8</ele>
        <time>2022-04-05T14:45:11Z</time>
      </trkpt>
      <trkpt lat="44.14788" lon="3.03508">
        <ele>566.8</ele>
        <time>2022-04-05T14:45:10Z</time>
      </trkpt>
      <trkpt lat="44.14785" lon="3.03507">
        <ele>566.8</ele>
        <time>2022-04-05T14:45:09Z</time>
      </trkpt>
      <trkpt lat="44.14781" lon="3.03506">
        <ele>567</ele>
        <time>2022-04-05T14:45:08Z</time>
      </trkpt>
      <trkpt lat="44.14778" lon="3.03506">
        <ele>567</ele>
        <time>2022-04-05T14:45:07Z</time>
      </trkpt>
      <trkpt lat="44.14775" lon="3.03505">
        <ele>567</ele>
        <time>2022-04-05T14:45:06Z</time>
      </trkpt>
      <trkpt lat="44.14772" lon="3.03505">
        <ele>567</ele>
        <time>2022-04-05T14:45:05Z</time>
      </trkpt>
      <trkpt lat="44.14769" lon="3.03504">
        <ele>567</ele>
        <time>2022-04-05T14:45:04Z</time>
      </trkpt>
      <trkpt lat="44.14766" lon="3.03504">
        <ele>567.2</ele>
        <time>2022-04-05T14:45:03Z</time>
      </trkpt>
      <trkpt lat="44.14762" lon="3.03503">
        <ele>567.2</ele>
        <time>2022-04-05T14:45:02Z</time>
      </trkpt>
      <trkpt lat="44.14759" lon="3.03503">
        <ele>567.4</ele>
        <time>2022-04-05T14:45:01Z</time>
      </trkpt>
      <trkpt lat="44.14755" lon="3.03503">
        <ele>567.6</ele>
        <time>2022-04-05T14:45:00Z</time>
      </trkpt>
      <trkpt lat="44.1475" lon="3.03504">
        <ele>568</ele>
        <time>2022-04-05T14:44:59Z</time>
      </trkpt>
      <trkpt lat="44.14745" lon="3.03504">
        <ele>568.2</ele>
        <time>2022-04-05T14:44:58Z</time>
      </trkpt>
      <trkpt lat="44.14739" lon="3.03504">
        <ele>568.8</ele>
        <time>2022-04-05T14:44:57Z</time>
      </trkpt>
      <trkpt lat="44.14734" lon="3.03505">
        <ele>569.2</ele>
        <time>2022-04-05T14:44:56Z</time>
      </trkpt>
      <trkpt lat="44.14729" lon="3.03506">
        <ele>570</ele>
        <time>2022-04-05T14:44:55Z</time>
      </trkpt>
      <trkpt lat="44.14725" lon="3.03507">
        <ele>570</ele>
        <time>2022-04-05T14:44:54Z</time>
      </trkpt>
      <trkpt lat="44.14721" lon="3.03507">
        <ele>571.2</ele>
        <time>2022-04-05T14:44:53Z</time>
      </trkpt>
      <trkpt lat="44.14718" lon="3.03505">
        <ele>572</ele>
        <time>2022-04-05T14:44:52Z</time>
      </trkpt>
      <trkpt lat="44.14716" lon="3.03502">
        <ele>572.4</ele>
        <time>2022-04-05T14:44:51Z</time>
      </trkpt>
      <trkpt lat="44.14715" lon="3.03498">
        <ele>572.6</ele>
        <time>2022-04-05T14:44:50Z</time>
      </trkpt>
      <trkpt lat="44.14717" lon="3.03494">
        <ele>572.8</ele>
        <time>2022-04-05T14:44:49Z</time>
      </trkpt>
      <trkpt lat="44.14722" lon="3.03491">
        <ele>573.2</ele>
        <time>2022-04-05T14:44:48Z</time>
      </trkpt>
      <trkpt lat="44.14728" lon="3.03487">
        <ele>573.4</ele>
        <time>2022-04-05T14:44:47Z</time>
      </trkpt>
      <trkpt lat="44.14735" lon="3.03482">
        <ele>573.6</ele>
        <time>2022-04-05T14:44:46Z</time>
      </trkpt>
      <trkpt lat="44.14742" lon="3.03477">
        <ele>573.8</ele>
        <time>2022-04-05T14:44:45Z</time>
      </trkpt>
      <trkpt lat="44.14748" lon="3.03472">
        <ele>573.8</ele>
        <time>2022-04-05T14:44:44Z</time>
      </trkpt>
      <trkpt lat="44.14754" lon="3.03467">
        <ele>574</ele>
        <time>2022-04-05T14:44:43Z</time>
      </trkpt>
      <trkpt lat="44.14759" lon="3.03463">
        <ele>574.4</ele>
        <time>2022-04-05T14:44:42Z</time>
      </trkpt>
      <trkpt lat="44.14763" lon="3.0346">
        <ele>574.8</ele>
        <time>2022-04-05T14:44:41Z</time>
      </trkpt>
      <trkpt lat="44.14767" lon="3.03457">
        <ele>575</ele>
        <time>2022-04-05T14:44:40Z</time>
      </trkpt>
      <trkpt lat="44.14771" lon="3.03456">
        <ele>575.2</ele>
        <time>2022-04-05T14:44:39Z</time>
      </trkpt>
      <trkpt lat="44.14774" lon="3.03455">
        <ele>575.2</ele>
        <time>2022-04-05T14:44:38Z</time>
      </trkpt>
      <trkpt lat="44.14776" lon="3.03454">
        <ele>575.2</ele>
        <time>2022-04-05T14:44:37Z</time>
      </trkpt>
      <trkpt lat="44.14778" lon="3.03454">
        <ele>575.4</ele>
        <time>2022-04-05T14:44:36Z</time>
      </trkpt>
      <trkpt lat="44.14779" lon="3.03454">
        <ele>575.6</ele>
        <time>2022-04-05T14:44:35Z</time>
      </trkpt>
      <trkpt lat="44.1478" lon="3.03453">
        <ele>575.8</ele>
        <time>2022-04-05T14:44:34Z</time>
      </trkpt>
      <trkpt lat="44.14781" lon="3.03452">
        <ele>576.2</ele>
        <time>2022-04-05T14:44:33Z</time>
      </trkpt>
      <trkpt lat="44.14782" lon="3.03452">
        <ele>576.4</ele>
        <time>2022-04-05T14:44:32Z</time>
      </trkpt>
      <trkpt lat="44.14784" lon="3.03451">
        <ele>577</ele>
        <time>2022-04-05T14:44:31Z</time>
      </trkpt>
      <trkpt lat="44.14785" lon="3.0345">
        <ele>577.4</ele>
        <time>2022-04-05T14:44:30Z</time>
      </trkpt>
      <trkpt lat="44.14786" lon="3.03449">
        <ele>577.8</ele>
        <time>2022-04-05T14:44:29Z</time>
      </trkpt>
      <trkpt lat="44.14786" lon="3.03447">
        <ele>579</ele>
        <time>2022-04-05T14:44:28Z</time>
      </trkpt>
      <trkpt lat="44.14786" lon="3.03446">
        <ele>579.6</ele>
        <time>2022-04-05T14:44:27Z</time>
      </trkpt>
      <trkpt lat="44.14783" lon="3.03445">
        <ele>580.6</ele>
        <time>2022-04-05T14:44:26Z</time>
      </trkpt>
      <trkpt lat="44.1478" lon="3.03444">
        <ele>581.2</ele>
        <time>2022-04-05T14:44:25Z</time>
      </trkpt>
      <trkpt lat="44.14777" lon="3.03445">
        <ele>582.8</ele>
        <time>2022-04-05T14:44:24Z</time>
      </trkpt>
      <trkpt lat="44.14773" lon="3.03446">
        <ele>583.4</ele>
        <time>2022-04-05T14:44:23Z</time>
      </trkpt>
      <trkpt lat="44.14768" lon="3.03447">
        <ele>584.4</ele>
        <time>2022-04-05T14:44:22Z</time>
      </trkpt>
      <trkpt lat="44.14764" lon="3.0345">
        <ele>585.2</ele>
        <time>2022-04-05T14:44:21Z</time>
      </trkpt>
      <trkpt lat="44.14759" lon="3.03453">
        <ele>586.6</ele>
        <time>2022-04-05T14:44:20Z</time>
      </trkpt>
      <trkpt lat="44.14752" lon="3.03455">
        <ele>587.8</ele>
        <time>2022-04-05T14:44:19Z</time>
      </trkpt>
      <trkpt lat="44.14744" lon="3.03457">
        <ele>588.2</ele>
        <time>2022-04-05T14:44:18Z</time>
      </trkpt>
      <trkpt lat="44.14736" lon="3.03459">
        <ele>588.8</ele>
        <time>2022-04-05T14:44:17Z</time>
      </trkpt>
      <trkpt lat="44.14728" lon="3.0346">
        <ele>589</ele>
        <time>2022-04-05T14:44:16Z</time>
      </trkpt>
      <trkpt lat="44.1472" lon="3.03461">
        <ele>589.6</ele>
        <time>2022-04-05T14:44:15Z</time>
      </trkpt>
      <trkpt lat="44.14712" lon="3.03462">
        <ele>590.2</ele>
        <time>2022-04-05T14:44:14Z</time>
      </trkpt>
      <trkpt lat="44.14705" lon="3.03463">
        <ele>590.4</ele>
        <time>2022-04-05T14:44:13Z</time>
      </trkpt>
      <trkpt lat="44.14698" lon="3.03463">
        <ele>590.8</ele>
        <time>2022-04-05T14:44:12Z</time>
      </trkpt>
      <trkpt lat="44.14691" lon="3.03463">
        <ele>591</ele>
        <time>2022-04-05T14:44:11Z</time>
      </trkpt>
      <trkpt lat="44.14684" lon="3.03464">
        <ele>591.2</ele>
        <time>2022-04-05T14:44:10Z</time>
      </trkpt>
      <trkpt lat="44.14678" lon="3.03464">
        <ele>591.2</ele>
        <time>2022-04-05T14:44:09Z</time>
      </trkpt>
      <trkpt lat="44.14672" lon="3.03465">
        <ele>591.6</ele>
        <time>2022-04-05T14:44:08Z</time>
      </trkpt>
      <trkpt lat="44.14667" lon="3.03465">
        <ele>591.6</ele>
        <time>2022-04-05T14:44:07Z</time>
      </trkpt>
      <trkpt lat="44.14662" lon="3.03466">
        <ele>591.8</ele>
        <time>2022-04-05T14:44:06Z</time>
      </trkpt>
      <trkpt lat="44.14657" lon="3.03466">
        <ele>591.8</ele>
        <time>2022-04-05T14:44:05Z</time>
      </trkpt>
      <trkpt lat="44.14652" lon="3.03467">
        <ele>592</ele>
        <time>2022-04-05T14:44:04Z</time>
      </trkpt>
      <trkpt lat="44.14647" lon="3.03468">
        <ele>592</ele>
        <time>2022-04-05T14:44:03Z</time>
      </trkpt>
      <trkpt lat="44.14642" lon="3.03469">
        <ele>592.2</ele>
        <time>2022-04-05T14:44:02Z</time>
      </trkpt>
      <trkpt lat="44.14637" lon="3.0347">
        <ele>592.2</ele>
        <time>2022-04-05T14:44:01Z</time>
      </trkpt>
      <trkpt lat="44.14631" lon="3.03472">
        <ele>592.4</ele>
        <time>2022-04-05T14:44:00Z</time>
      </trkpt>
      <trkpt lat="44.14626" lon="3.03473">
        <ele>592.6</ele>
        <time>2022-04-05T14:43:59Z</time>
      </trkpt>
      <trkpt lat="44.14621" lon="3.03474">
        <ele>592.6</ele>
        <time>2022-04-05T14:43:58Z</time>
      </trkpt>
      <trkpt lat="44.14616" lon="3.03475">
        <ele>592.8</ele>
        <time>2022-04-05T14:43:57Z</time>
      </trkpt>
      <trkpt lat="44.14612" lon="3.03475">
        <ele>592.8</ele>
        <time>2022-04-05T14:43:56Z</time>
      </trkpt>
      <trkpt lat="44.14607" lon="3.03475">
        <ele>593</ele>
        <time>2022-04-05T14:43:55Z</time>
      </trkpt>
      <trkpt lat="44.14603" lon="3.03475">
        <ele>593</ele>
        <time>2022-04-05T14:43:54Z</time>
      </trkpt>
      <trkpt lat="44.14598" lon="3.03474">
        <ele>593.2</ele>
        <time>2022-04-05T14:43:53Z</time>
      </trkpt>
      <trkpt lat="44.14594" lon="3.03474">
        <ele>593.6</ele>
        <time>2022-04-05T14:43:52Z</time>
      </trkpt>
      <trkpt lat="44.14592" lon="3.03473">
        <ele>593.8</ele>
        <time>2022-04-05T14:43:51Z</time>
      </trkpt>
      <trkpt lat="44.1459" lon="3.03471">
        <ele>593.8</ele>
        <time>2022-04-05T14:43:50Z</time>
      </trkpt>
      <trkpt lat="44.14589" lon="3.03468">
        <ele>593.8</ele>
        <time>2022-04-05T14:43:49Z</time>
      </trkpt>
      <trkpt lat="44.14592" lon="3.03465">
        <ele>593.8</ele>
        <time>2022-04-05T14:43:48Z</time>
      </trkpt>
      <trkpt lat="44.14595" lon="3.03464">
        <ele>593.8</ele>
        <time>2022-04-05T14:43:47Z</time>
      </trkpt>
      <trkpt lat="44.14598" lon="3.03464">
        <ele>594</ele>
        <time>2022-04-05T14:43:46Z</time>
      </trkpt>
      <trkpt lat="44.14602" lon="3.03463">
        <ele>594</ele>
        <time>2022-04-05T14:43:45Z</time>
      </trkpt>
      <trkpt lat="44.14606" lon="3.03462">
        <ele>594</ele>
        <time>2022-04-05T14:43:44Z</time>
      </trkpt>
      <trkpt lat="44.1461" lon="3.03461">
        <ele>594</ele>
        <time>2022-04-05T14:43:43Z</time>
      </trkpt>
      <trkpt lat="44.14613" lon="3.03461">
        <ele>594</ele>
        <time>2022-04-05T14:43:42Z</time>
      </trkpt>
      <trkpt lat="44.14617" lon="3.03461">
        <ele>594</ele>
        <time>2022-04-05T14:43:41Z</time>
      </trkpt>
      <trkpt lat="44.1462" lon="3.03461">
        <ele>594</ele>
        <time>2022-04-05T14:43:40Z</time>
      </trkpt>
      <trkpt lat="44.14623" lon="3.0346">
        <ele>594</ele>
        <time>2022-04-05T14:43:39Z</time>
      </trkpt>
      <trkpt lat="44.14626" lon="3.03459">
        <ele>593.8</ele>
        <time>2022-04-05T14:43:38Z</time>
      </trkpt>
      <trkpt lat="44.14629" lon="3.03458">
        <ele>593.8</ele>
        <time>2022-04-05T14:43:37Z</time>
      </trkpt>
      <trkpt lat="44.14633" lon="3.03457">
        <ele>593.8</ele>
        <time>2022-04-05T14:43:36Z</time>
      </trkpt>
      <trkpt lat="44.14636" lon="3.03456">
        <ele>593.8</ele>
        <time>2022-04-05T14:43:35Z</time>
      </trkpt>
      <trkpt lat="44.14639" lon="3.03455">
        <ele>593.6</ele>
        <time>2022-04-05T14:43:34Z</time>
      </trkpt>
      <trkpt lat="44.14642" lon="3.03454">
        <ele>593.4</ele>
        <time>2022-04-05T14:43:33Z</time>
      </trkpt>
      <trkpt lat="44.14645" lon="3.03453">
        <ele>593.2</ele>
        <time>2022-04-05T14:43:32Z</time>
      </trkpt>
      <trkpt lat="44.14648" lon="3.03452">
        <ele>593</ele>
        <time>2022-04-05T14:43:31Z</time>
      </trkpt>
      <trkpt lat="44.1465" lon="3.03451">
        <ele>593</ele>
        <time>2022-04-05T14:43:30Z</time>
      </trkpt>
      <trkpt lat="44.14653" lon="3.03449">
        <ele>592.8</ele>
        <time>2022-04-05T14:43:29Z</time>
      </trkpt>
      <trkpt lat="44.14655" lon="3.03448">
        <ele>592.8</ele>
        <time>2022-04-05T14:43:28Z</time>
      </trkpt>
      <trkpt lat="44.14657" lon="3.03447">
        <ele>592.8</ele>
        <time>2022-04-05T14:43:27Z</time>
      </trkpt>
      <trkpt lat="44.14658" lon="3.03447">
        <ele>592.6</ele>
        <time>2022-04-05T14:43:26Z</time>
      </trkpt>
      <trkpt lat="44.1466" lon="3.03446">
        <ele>592.6</ele>
        <time>2022-04-05T14:43:25Z</time>
      </trkpt>
      <trkpt lat="44.14662" lon="3.03445">
        <ele>592.2</ele>
        <time>2022-04-05T14:43:24Z</time>
      </trkpt>
      <trkpt lat="44.14664" lon="3.03444">
        <ele>592.2</ele>
        <time>2022-04-05T14:43:23Z</time>
      </trkpt>
      <trkpt lat="44.14666" lon="3.03444">
        <ele>592</ele>
        <time>2022-04-05T14:43:22Z</time>
      </trkpt>
      <trkpt lat="44.14669" lon="3.03443">
        <ele>592</ele>
        <time>2022-04-05T14:43:21Z</time>
      </trkpt>
      <trkpt lat="44.14671" lon="3.03443">
        <ele>591.8</ele>
        <time>2022-04-05T14:43:20Z</time>
      </trkpt>
      <trkpt lat="44.14674" lon="3.03443">
        <ele>591.6</ele>
        <time>2022-04-05T14:43:19Z</time>
      </trkpt>
      <trkpt lat="44.14677" lon="3.03442">
        <ele>591.4</ele>
        <time>2022-04-05T14:43:18Z</time>
      </trkpt>
      <trkpt lat="44.1468" lon="3.03442">
        <ele>591.4</ele>
        <time>2022-04-05T14:43:17Z</time>
      </trkpt>
      <trkpt lat="44.14683" lon="3.03441">
        <ele>591.2</ele>
        <time>2022-04-05T14:43:16Z</time>
      </trkpt>
      <trkpt lat="44.14685" lon="3.03441">
        <ele>591</ele>
        <time>2022-04-05T14:43:15Z</time>
      </trkpt>
      <trkpt lat="44.14688" lon="3.03441">
        <ele>591</ele>
        <time>2022-04-05T14:43:14Z</time>
      </trkpt>
      <trkpt lat="44.14691" lon="3.03441">
        <ele>590.8</ele>
        <time>2022-04-05T14:43:13Z</time>
      </trkpt>
      <trkpt lat="44.14694" lon="3.0344">
        <ele>590.8</ele>
        <time>2022-04-05T14:43:12Z</time>
      </trkpt>
      <trkpt lat="44.14697" lon="3.03439">
        <ele>590.8</ele>
        <time>2022-04-05T14:43:11Z</time>
      </trkpt>
      <trkpt lat="44.147" lon="3.03439">
        <ele>590.6</ele>
        <time>2022-04-05T14:43:10Z</time>
      </trkpt>
      <trkpt lat="44.14703" lon="3.03438">
        <ele>590.6</ele>
        <time>2022-04-05T14:43:09Z</time>
      </trkpt>
      <trkpt lat="44.14705" lon="3.03438">
        <ele>590.4</ele>
        <time>2022-04-05T14:43:08Z</time>
      </trkpt>
      <trkpt lat="44.14708" lon="3.03437">
        <ele>590.2</ele>
        <time>2022-04-05T14:43:07Z</time>
      </trkpt>
      <trkpt lat="44.14712" lon="3.03436">
        <ele>590.2</ele>
        <time>2022-04-05T14:43:06Z</time>
      </trkpt>
      <trkpt lat="44.14715" lon="3.03434">
        <ele>590</ele>
        <time>2022-04-05T14:43:05Z</time>
      </trkpt>
      <trkpt lat="44.14719" lon="3.03434">
        <ele>590</ele>
        <time>2022-04-05T14:43:04Z</time>
      </trkpt>
      <trkpt lat="44.14722" lon="3.03433">
        <ele>589.8</ele>
        <time>2022-04-05T14:43:03Z</time>
      </trkpt>
      <trkpt lat="44.14725" lon="3.03433">
        <ele>589.8</ele>
        <time>2022-04-05T14:43:02Z</time>
      </trkpt>
      <trkpt lat="44.14727" lon="3.03432">
        <ele>589.6</ele>
        <time>2022-04-05T14:43:01Z</time>
      </trkpt>
      <trkpt lat="44.14729" lon="3.03431">
        <ele>589.4</ele>
        <time>2022-04-05T14:43:00Z</time>
      </trkpt>
      <trkpt lat="44.14733" lon="3.03431">
        <ele>589.4</ele>
        <time>2022-04-05T14:42:59Z</time>
      </trkpt>
      <trkpt lat="44.14736" lon="3.0343">
        <ele>589</ele>
        <time>2022-04-05T14:42:58Z</time>
      </trkpt>
      <trkpt lat="44.14738" lon="3.03429">
        <ele>589</ele>
        <time>2022-04-05T14:42:57Z</time>
      </trkpt>
      <trkpt lat="44.14741" lon="3.03427">
        <ele>588.6</ele>
        <time>2022-04-05T14:42:56Z</time>
      </trkpt>
      <trkpt lat="44.14744" lon="3.03426">
        <ele>588.4</ele>
        <time>2022-04-05T14:42:55Z</time>
      </trkpt>
      <trkpt lat="44.14747" lon="3.03424">
        <ele>588</ele>
        <time>2022-04-05T14:42:54Z</time>
      </trkpt>
      <trkpt lat="44.1475" lon="3.03423">
        <ele>587.6</ele>
        <time>2022-04-05T14:42:53Z</time>
      </trkpt>
      <trkpt lat="44.14753" lon="3.03422">
        <ele>587.4</ele>
        <time>2022-04-05T14:42:52Z</time>
      </trkpt>
      <trkpt lat="44.14756" lon="3.03421">
        <ele>587</ele>
        <time>2022-04-05T14:42:51Z</time>
      </trkpt>
      <trkpt lat="44.14759" lon="3.0342">
        <ele>586.8</ele>
        <time>2022-04-05T14:42:50Z</time>
      </trkpt>
      <trkpt lat="44.14761" lon="3.03419">
        <ele>586.6</ele>
        <time>2022-04-05T14:42:49Z</time>
      </trkpt>
      <trkpt lat="44.14764" lon="3.03418">
        <ele>586.4</ele>
        <time>2022-04-05T14:42:48Z</time>
      </trkpt>
      <trkpt lat="44.14767" lon="3.03417">
        <ele>586</ele>
        <time>2022-04-05T14:42:47Z</time>
      </trkpt>
      <trkpt lat="44.14769" lon="3.03417">
        <ele>586</ele>
        <time>2022-04-05T14:42:46Z</time>
      </trkpt>
      <trkpt lat="44.14772" lon="3.03417">
        <ele>585.4</ele>
        <time>2022-04-05T14:42:45Z</time>
      </trkpt>
      <trkpt lat="44.14774" lon="3.03417">
        <ele>585.2</ele>
        <time>2022-04-05T14:42:44Z</time>
      </trkpt>
      <trkpt lat="44.14776" lon="3.03415">
        <ele>585</ele>
        <time>2022-04-05T14:42:43Z</time>
      </trkpt>
      <trkpt lat="44.14778" lon="3.03414">
        <ele>584.6</ele>
        <time>2022-04-05T14:42:42Z</time>
      </trkpt>
      <trkpt lat="44.1478" lon="3.03413">
        <ele>584.6</ele>
        <time>2022-04-05T14:42:41Z</time>
      </trkpt>
      <trkpt lat="44.14783" lon="3.03411">
        <ele>584.4</ele>
        <time>2022-04-05T14:42:40Z</time>
      </trkpt>
      <trkpt lat="44.14785" lon="3.0341">
        <ele>584.4</ele>
        <time>2022-04-05T14:42:39Z</time>
      </trkpt>
      <trkpt lat="44.14787" lon="3.03408">
        <ele>584.2</ele>
        <time>2022-04-05T14:42:38Z</time>
      </trkpt>
      <trkpt lat="44.1479" lon="3.03406">
        <ele>584.2</ele>
        <time>2022-04-05T14:42:37Z</time>
      </trkpt>
      <trkpt lat="44.14792" lon="3.03403">
        <ele>584.2</ele>
        <time>2022-04-05T14:42:36Z</time>
      </trkpt>
      <trkpt lat="44.14793" lon="3.03401">
        <ele>584.2</ele>
        <time>2022-04-05T14:42:35Z</time>
      </trkpt>
      <trkpt lat="44.14797" lon="3.03395">
        <ele>587.2</ele>
        <time>2022-04-05T14:41:56Z</time>
      </trkpt>
      <trkpt lat="44.14797" lon="3.03395">
        <ele>587.6</ele>
        <time>2022-04-05T14:41:55Z</time>
      </trkpt>
      <trkpt lat="44.14796" lon="3.03397">
        <ele>588.4</ele>
        <time>2022-04-05T14:41:54Z</time>
      </trkpt>
      <trkpt lat="44.14795" lon="3.03399">
        <ele>588.6</ele>
        <time>2022-04-05T14:41:53Z</time>
      </trkpt>
      <trkpt lat="44.14794" lon="3.03402">
        <ele>589.2</ele>
        <time>2022-04-05T14:41:52Z</time>
      </trkpt>
      <trkpt lat="44.14792" lon="3.03405">
        <ele>589.4</ele>
        <time>2022-04-05T14:41:51Z</time>
      </trkpt>
      <trkpt lat="44.1479" lon="3.03409">
        <ele>590</ele>
        <time>2022-04-05T14:41:50Z</time>
      </trkpt>
      <trkpt lat="44.14788" lon="3.03412">
        <ele>590.8</ele>
        <time>2022-04-05T14:41:49Z</time>
      </trkpt>
      <trkpt lat="44.14784" lon="3.03415">
        <ele>591</ele>
        <time>2022-04-05T14:41:48Z</time>
      </trkpt>
      <trkpt lat="44.1478" lon="3.03418">
        <ele>591.4</ele>
        <time>2022-04-05T14:41:47Z</time>
      </trkpt>
      <trkpt lat="44.14776" lon="3.0342">
        <ele>591.4</ele>
        <time>2022-04-05T14:41:46Z</time>
      </trkpt>
      <trkpt lat="44.14771" lon="3.03421">
        <ele>591.4</ele>
        <time>2022-04-05T14:41:45Z</time>
      </trkpt>
      <trkpt lat="44.14766" lon="3.03422">
        <ele>591.8</ele>
        <time>2022-04-05T14:41:44Z</time>
      </trkpt>
      <trkpt lat="44.14761" lon="3.03423">
        <ele>591.8</ele>
        <time>2022-04-05T14:41:43Z</time>
      </trkpt>
      <trkpt lat="44.14755" lon="3.03424">
        <ele>592</ele>
        <time>2022-04-05T14:41:42Z</time>
      </trkpt>
      <trkpt lat="44.1475" lon="3.03426">
        <ele>592</ele>
        <time>2022-04-05T14:41:41Z</time>
      </trkpt>
      <trkpt lat="44.14745" lon="3.03428">
        <ele>592.4</ele>
        <time>2022-04-05T14:41:40Z</time>
      </trkpt>
      <trkpt lat="44.14739" lon="3.0343">
        <ele>592.4</ele>
        <time>2022-04-05T14:41:39Z</time>
      </trkpt>
      <trkpt lat="44.14734" lon="3.03432">
        <ele>592.4</ele>
        <time>2022-04-05T14:41:38Z</time>
      </trkpt>
      <trkpt lat="44.14728" lon="3.03433">
        <ele>592.6</ele>
        <time>2022-04-05T14:41:37Z</time>
      </trkpt>
      <trkpt lat="44.14724" lon="3.03435">
        <ele>592.8</ele>
        <time>2022-04-05T14:41:36Z</time>
      </trkpt>
      <trkpt lat="44.14719" lon="3.03436">
        <ele>592.8</ele>
        <time>2022-04-05T14:41:35Z</time>
      </trkpt>
      <trkpt lat="44.14714" lon="3.03438">
        <ele>593</ele>
        <time>2022-04-05T14:41:34Z</time>
      </trkpt>
      <trkpt lat="44.14708" lon="3.0344">
        <ele>593.2</ele>
        <time>2022-04-05T14:41:33Z</time>
      </trkpt>
      <trkpt lat="44.14703" lon="3.03441">
        <ele>593.6</ele>
        <time>2022-04-05T14:41:32Z</time>
      </trkpt>
      <trkpt lat="44.14698" lon="3.03443">
        <ele>593.6</ele>
        <time>2022-04-05T14:41:31Z</time>
      </trkpt>
      <trkpt lat="44.14692" lon="3.03443">
        <ele>593.8</ele>
        <time>2022-04-05T14:41:30Z</time>
      </trkpt>
      <trkpt lat="44.14687" lon="3.03444">
        <ele>593.8</ele>
        <time>2022-04-05T14:41:29Z</time>
      </trkpt>
      <trkpt lat="44.14681" lon="3.03445">
        <ele>593.8</ele>
        <time>2022-04-05T14:41:28Z</time>
      </trkpt>
      <trkpt lat="44.14676" lon="3.03446">
        <ele>594</ele>
        <time>2022-04-05T14:41:27Z</time>
      </trkpt>
      <trkpt lat="44.14672" lon="3.03447">
        <ele>594</ele>
        <time>2022-04-05T14:41:26Z</time>
      </trkpt>
      <trkpt lat="44.14667" lon="3.03448">
        <ele>594.4</ele>
        <time>2022-04-05T14:41:25Z</time>
      </trkpt>
      <trkpt lat="44.14662" lon="3.03449">
        <ele>594.4</ele>
        <time>2022-04-05T14:41:24Z</time>
      </trkpt>
      <trkpt lat="44.14658" lon="3.03451">
        <ele>594.4</ele>
        <time>2022-04-05T14:41:23Z</time>
      </trkpt>
      <trkpt lat="44.14654" lon="3.03452">
        <ele>594.4</ele>
        <time>2022-04-05T14:41:22Z</time>
      </trkpt>
      <trkpt lat="44.14649" lon="3.03454">
        <ele>594.2</ele>
        <time>2022-04-05T14:41:21Z</time>
      </trkpt>
      <trkpt lat="44.14645" lon="3.03455">
        <ele>594.2</ele>
        <time>2022-04-05T14:41:20Z</time>
      </trkpt>
      <trkpt lat="44.14641" lon="3.03456">
        <ele>594.2</ele>
        <time>2022-04-05T14:41:19Z</time>
      </trkpt>
      <trkpt lat="44.14637" lon="3.03457">
        <ele>594.2</ele>
        <time>2022-04-05T14:41:18Z</time>
      </trkpt>
      <trkpt lat="44.14633" lon="3.03458">
        <ele>594.2</ele>
        <time>2022-04-05T14:41:17Z</time>
      </trkpt>
      <trkpt lat="44.14628" lon="3.03459">
        <ele>594.2</ele>
        <time>2022-04-05T14:41:16Z</time>
      </trkpt>
      <trkpt lat="44.14624" lon="3.0346">
        <ele>594.2</ele>
        <time>2022-04-05T14:41:15Z</time>
      </trkpt>
      <trkpt lat="44.14619" lon="3.03461">
        <ele>594.4</ele>
        <time>2022-04-05T14:41:14Z</time>
      </trkpt>
      <trkpt lat="44.14615" lon="3.03462">
        <ele>594.4</ele>
        <time>2022-04-05T14:41:13Z</time>
      </trkpt>
      <trkpt lat="44.14611" lon="3.03462">
        <ele>594.8</ele>
        <time>2022-04-05T14:41:12Z</time>
      </trkpt>
      <trkpt lat="44.14606" lon="3.03463">
        <ele>594.8</ele>
        <time>2022-04-05T14:41:11Z</time>
      </trkpt>
      <trkpt lat="44.14601" lon="3.03463">
        <ele>595.4</ele>
        <time>2022-04-05T14:41:10Z</time>
      </trkpt>
      <trkpt lat="44.14596" lon="3.03463">
        <ele>595.8</ele>
        <time>2022-04-05T14:41:09Z</time>
      </trkpt>
      <trkpt lat="44.1459" lon="3.03465">
        <ele>596.6</ele>
        <time>2022-04-05T14:41:08Z</time>
      </trkpt>
      <trkpt lat="44.14584" lon="3.03467">
        <ele>597.8</ele>
        <time>2022-04-05T14:41:07Z</time>
      </trkpt>
      <trkpt lat="44.14577" lon="3.0347">
        <ele>598.6</ele>
        <time>2022-04-05T14:41:06Z</time>
      </trkpt>
      <trkpt lat="44.14569" lon="3.03473">
        <ele>599.4</ele>
        <time>2022-04-05T14:41:05Z</time>
      </trkpt>
      <trkpt lat="44.14561" lon="3.03478">
        <ele>600</ele>
        <time>2022-04-05T14:41:04Z</time>
      </trkpt>
      <trkpt lat="44.14553" lon="3.03485">
        <ele>601</ele>
        <time>2022-04-05T14:41:03Z</time>
      </trkpt>
      <trkpt lat="44.14546" lon="3.03493">
        <ele>601.2</ele>
        <time>2022-04-05T14:41:02Z</time>
      </trkpt>
      <trkpt lat="44.14539" lon="3.03501">
        <ele>601.8</ele>
        <time>2022-04-05T14:41:01Z</time>
      </trkpt>
      <trkpt lat="44.14532" lon="3.03508">
        <ele>602</ele>
        <time>2022-04-05T14:41:00Z</time>
      </trkpt>
      <trkpt lat="44.14525" lon="3.03515">
        <ele>602.2</ele>
        <time>2022-04-05T14:40:59Z</time>
      </trkpt>
      <trkpt lat="44.14518" lon="3.03521">
        <ele>602.6</ele>
        <time>2022-04-05T14:40:58Z</time>
      </trkpt>
      <trkpt lat="44.14512" lon="3.03527">
        <ele>602.8</ele>
        <time>2022-04-05T14:40:57Z</time>
      </trkpt>
      <trkpt lat="44.14506" lon="3.03532">
        <ele>603</ele>
        <time>2022-04-05T14:40:56Z</time>
      </trkpt>
      <trkpt lat="44.145" lon="3.03538">
        <ele>603.2</ele>
        <time>2022-04-05T14:40:55Z</time>
      </trkpt>
      <trkpt lat="44.14494" lon="3.03543">
        <ele>603.6</ele>
        <time>2022-04-05T14:40:54Z</time>
      </trkpt>
      <trkpt lat="44.14489" lon="3.03548">
        <ele>603.8</ele>
        <time>2022-04-05T14:40:53Z</time>
      </trkpt>
      <trkpt lat="44.14483" lon="3.03552">
        <ele>604.4</ele>
        <time>2022-04-05T14:40:52Z</time>
      </trkpt>
      <trkpt lat="44.14477" lon="3.03557">
        <ele>604.6</ele>
        <time>2022-04-05T14:40:51Z</time>
      </trkpt>
      <trkpt lat="44.14471" lon="3.03561">
        <ele>605</ele>
        <time>2022-04-05T14:40:50Z</time>
      </trkpt>
      <trkpt lat="44.14464" lon="3.03564">
        <ele>605.2</ele>
        <time>2022-04-05T14:40:49Z</time>
      </trkpt>
      <trkpt lat="44.14457" lon="3.03568">
        <ele>606.2</ele>
        <time>2022-04-05T14:40:48Z</time>
      </trkpt>
      <trkpt lat="44.1445" lon="3.03571">
        <ele>607</ele>
        <time>2022-04-05T14:40:47Z</time>
      </trkpt>
      <trkpt lat="44.14443" lon="3.03576">
        <ele>607.6</ele>
        <time>2022-04-05T14:40:46Z</time>
      </trkpt>
      <trkpt lat="44.14436" lon="3.0358">
        <ele>608.6</ele>
        <time>2022-04-05T14:40:45Z</time>
      </trkpt>
      <trkpt lat="44.14429" lon="3.03584">
        <ele>608.8</ele>
        <time>2022-04-05T14:40:44Z</time>
      </trkpt>
      <trkpt lat="44.14421" lon="3.03587">
        <ele>609.2</ele>
        <time>2022-04-05T14:40:43Z</time>
      </trkpt>
      <trkpt lat="44.14414" lon="3.03591">
        <ele>609.4</ele>
        <time>2022-04-05T14:40:42Z</time>
      </trkpt>
      <trkpt lat="44.14407" lon="3.03596">
        <ele>609.6</ele>
        <time>2022-04-05T14:40:41Z</time>
      </trkpt>
      <trkpt lat="44.14401" lon="3.036">
        <ele>609.6</ele>
        <time>2022-04-05T14:40:40Z</time>
      </trkpt>
      <trkpt lat="44.14396" lon="3.03605">
        <ele>609.8</ele>
        <time>2022-04-05T14:40:39Z</time>
      </trkpt>
      <trkpt lat="44.1439" lon="3.0361">
        <ele>609.8</ele>
        <time>2022-04-05T14:40:38Z</time>
      </trkpt>
      <trkpt lat="44.14385" lon="3.03615">
        <ele>610</ele>
        <time>2022-04-05T14:40:37Z</time>
      </trkpt>
      <trkpt lat="44.1438" lon="3.0362">
        <ele>610</ele>
        <time>2022-04-05T14:40:36Z</time>
      </trkpt>
      <trkpt lat="44.14375" lon="3.03626">
        <ele>610</ele>
        <time>2022-04-05T14:40:35Z</time>
      </trkpt>
      <trkpt lat="44.1437" lon="3.03631">
        <ele>610</ele>
        <time>2022-04-05T14:40:34Z</time>
      </trkpt>
      <trkpt lat="44.14365" lon="3.03637">
        <ele>610.2</ele>
        <time>2022-04-05T14:40:33Z</time>
      </trkpt>
      <trkpt lat="44.14361" lon="3.03642">
        <ele>610.2</ele>
        <time>2022-04-05T14:40:32Z</time>
      </trkpt>
      <trkpt lat="44.14357" lon="3.03647">
        <ele>610.2</ele>
        <time>2022-04-05T14:40:31Z</time>
      </trkpt>
      <trkpt lat="44.14353" lon="3.03653">
        <ele>610.4</ele>
        <time>2022-04-05T14:40:30Z</time>
      </trkpt>
      <trkpt lat="44.14349" lon="3.03658">
        <ele>610.4</ele>
        <time>2022-04-05T14:40:29Z</time>
      </trkpt>
      <trkpt lat="44.14346" lon="3.03664">
        <ele>610.6</ele>
        <time>2022-04-05T14:40:28Z</time>
      </trkpt>
      <trkpt lat="44.14342" lon="3.03669">
        <ele>610.6</ele>
        <time>2022-04-05T14:40:27Z</time>
      </trkpt>
      <trkpt lat="44.14339" lon="3.03674">
        <ele>611</ele>
        <time>2022-04-05T14:40:26Z</time>
      </trkpt>
      <trkpt lat="44.14336" lon="3.0368">
        <ele>612</ele>
        <time>2022-04-05T14:40:25Z</time>
      </trkpt>
      <trkpt lat="44.14332" lon="3.03687">
        <ele>612.6</ele>
        <time>2022-04-05T14:40:24Z</time>
      </trkpt>
      <trkpt lat="44.14328" lon="3.03693">
        <ele>613.8</ele>
        <time>2022-04-05T14:40:23Z</time>
      </trkpt>
      <trkpt lat="44.14321" lon="3.03698">
        <ele>615</ele>
        <time>2022-04-05T14:40:22Z</time>
      </trkpt>
      <trkpt lat="44.14313" lon="3.03701">
        <ele>616.2</ele>
        <time>2022-04-05T14:40:21Z</time>
      </trkpt>
      <trkpt lat="44.14304" lon="3.03701">
        <ele>616.8</ele>
        <time>2022-04-05T14:40:20Z</time>
      </trkpt>
      <trkpt lat="44.14294" lon="3.037">
        <ele>618.4</ele>
        <time>2022-04-05T14:40:19Z</time>
      </trkpt>
      <trkpt lat="44.14285" lon="3.03697">
        <ele>619.4</ele>
        <time>2022-04-05T14:40:18Z</time>
      </trkpt>
      <trkpt lat="44.14277" lon="3.03695">
        <ele>620.6</ele>
        <time>2022-04-05T14:40:17Z</time>
      </trkpt>
      <trkpt lat="44.14266" lon="3.03689">
        <ele>621</ele>
        <time>2022-04-05T14:40:16Z</time>
      </trkpt>
      <trkpt lat="44.14257" lon="3.03684">
        <ele>621.2</ele>
        <time>2022-04-05T14:40:15Z</time>
      </trkpt>
      <trkpt lat="44.14248" lon="3.03679">
        <ele>622</ele>
        <time>2022-04-05T14:40:14Z</time>
      </trkpt>
      <trkpt lat="44.1424" lon="3.03676">
        <ele>622.4</ele>
        <time>2022-04-05T14:40:13Z</time>
      </trkpt>
      <trkpt lat="44.14231" lon="3.03675">
        <ele>623.4</ele>
        <time>2022-04-05T14:40:12Z</time>
      </trkpt>
      <trkpt lat="44.14222" lon="3.03676">
        <ele>623.6</ele>
        <time>2022-04-05T14:40:11Z</time>
      </trkpt>
      <trkpt lat="44.14214" lon="3.03678">
        <ele>624.2</ele>
        <time>2022-04-05T14:40:10Z</time>
      </trkpt>
      <trkpt lat="44.14205" lon="3.03681">
        <ele>624.6</ele>
        <time>2022-04-05T14:40:09Z</time>
      </trkpt>
      <trkpt lat="44.14197" lon="3.03685">
        <ele>625.6</ele>
        <time>2022-04-05T14:40:08Z</time>
      </trkpt>
      <trkpt lat="44.14189" lon="3.03689">
        <ele>626.4</ele>
        <time>2022-04-05T14:40:07Z</time>
      </trkpt>
      <trkpt lat="44.14181" lon="3.03694">
        <ele>627</ele>
        <time>2022-04-05T14:40:06Z</time>
      </trkpt>
      <trkpt lat="44.14174" lon="3.03699">
        <ele>627.4</ele>
        <time>2022-04-05T14:40:05Z</time>
      </trkpt>
      <trkpt lat="44.14166" lon="3.03704">
        <ele>627.8</ele>
        <time>2022-04-05T14:40:04Z</time>
      </trkpt>
      <trkpt lat="44.14158" lon="3.03708">
        <ele>628</ele>
        <time>2022-04-05T14:40:03Z</time>
      </trkpt>
      <trkpt lat="44.1415" lon="3.03713">
        <ele>628.2</ele>
        <time>2022-04-05T14:40:02Z</time>
      </trkpt>
      <trkpt lat="44.14143" lon="3.03717">
        <ele>628.8</ele>
        <time>2022-04-05T14:40:01Z</time>
      </trkpt>
      <trkpt lat="44.14135" lon="3.03721">
        <ele>629</ele>
        <time>2022-04-05T14:40:00Z</time>
      </trkpt>
      <trkpt lat="44.14127" lon="3.03724">
        <ele>630</ele>
        <time>2022-04-05T14:39:59Z</time>
      </trkpt>
      <trkpt lat="44.14119" lon="3.03727">
        <ele>630.4</ele>
        <time>2022-04-05T14:39:58Z</time>
      </trkpt>
      <trkpt lat="44.14112" lon="3.03729">
        <ele>631.2</ele>
        <time>2022-04-05T14:39:57Z</time>
      </trkpt>
      <trkpt lat="44.14104" lon="3.0373">
        <ele>631.6</ele>
        <time>2022-04-05T14:39:56Z</time>
      </trkpt>
      <trkpt lat="44.14096" lon="3.0373">
        <ele>632</ele>
        <time>2022-04-05T14:39:55Z</time>
      </trkpt>
      <trkpt lat="44.14088" lon="3.03729">
        <ele>632.4</ele>
        <time>2022-04-05T14:39:54Z</time>
      </trkpt>
      <trkpt lat="44.14081" lon="3.03726">
        <ele>632.6</ele>
        <time>2022-04-05T14:39:53Z</time>
      </trkpt>
      <trkpt lat="44.14073" lon="3.03723">
        <ele>633.2</ele>
        <time>2022-04-05T14:39:52Z</time>
      </trkpt>
      <trkpt lat="44.14066" lon="3.03719">
        <ele>633.4</ele>
        <time>2022-04-05T14:39:51Z</time>
      </trkpt>
      <trkpt lat="44.14058" lon="3.03716">
        <ele>633.8</ele>
        <time>2022-04-05T14:39:50Z</time>
      </trkpt>
      <trkpt lat="44.14051" lon="3.03713">
        <ele>634.2</ele>
        <time>2022-04-05T14:39:49Z</time>
      </trkpt>
      <trkpt lat="44.14043" lon="3.03711">
        <ele>635</ele>
        <time>2022-04-05T14:39:48Z</time>
      </trkpt>
      <trkpt lat="44.14035" lon="3.0371">
        <ele>635.2</ele>
        <time>2022-04-05T14:39:47Z</time>
      </trkpt>
      <trkpt lat="44.14028" lon="3.0371">
        <ele>635.6</ele>
        <time>2022-04-05T14:39:46Z</time>
      </trkpt>
      <trkpt lat="44.14021" lon="3.03712">
        <ele>636</ele>
        <time>2022-04-05T14:39:45Z</time>
      </trkpt>
      <trkpt lat="44.14014" lon="3.03714">
        <ele>637</ele>
        <time>2022-04-05T14:39:44Z</time>
      </trkpt>
      <trkpt lat="44.14007" lon="3.03716">
        <ele>637.8</ele>
        <time>2022-04-05T14:39:43Z</time>
      </trkpt>
      <trkpt lat="44.13999" lon="3.03718">
        <ele>638.6</ele>
        <time>2022-04-05T14:39:42Z</time>
      </trkpt>
      <trkpt lat="44.13992" lon="3.0372">
        <ele>639.2</ele>
        <time>2022-04-05T14:39:41Z</time>
      </trkpt>
      <trkpt lat="44.13985" lon="3.03722">
        <ele>639.6</ele>
        <time>2022-04-05T14:39:40Z</time>
      </trkpt>
      <trkpt lat="44.13977" lon="3.03724">
        <ele>640.8</ele>
        <time>2022-04-05T14:39:39Z</time>
      </trkpt>
      <trkpt lat="44.13969" lon="3.03726">
        <ele>641.4</ele>
        <time>2022-04-05T14:39:38Z</time>
      </trkpt>
      <trkpt lat="44.1396" lon="3.03728">
        <ele>642.2</ele>
        <time>2022-04-05T14:39:37Z</time>
      </trkpt>
      <trkpt lat="44.13952" lon="3.03731">
        <ele>643.2</ele>
        <time>2022-04-05T14:39:36Z</time>
      </trkpt>
      <trkpt lat="44.13943" lon="3.03735">
        <ele>643.6</ele>
        <time>2022-04-05T14:39:35Z</time>
      </trkpt>
      <trkpt lat="44.13935" lon="3.0374">
        <ele>644.2</ele>
        <time>2022-04-05T14:39:34Z</time>
      </trkpt>
      <trkpt lat="44.13927" lon="3.03745">
        <ele>644.6</ele>
        <time>2022-04-05T14:39:33Z</time>
      </trkpt>
      <trkpt lat="44.13918" lon="3.0375">
        <ele>645.4</ele>
        <time>2022-04-05T14:39:32Z</time>
      </trkpt>
      <trkpt lat="44.13911" lon="3.03754">
        <ele>645.4</ele>
        <time>2022-04-05T14:39:31Z</time>
      </trkpt>
      <trkpt lat="44.13903" lon="3.03758">
        <ele>645.6</ele>
        <time>2022-04-05T14:39:30Z</time>
      </trkpt>
      <trkpt lat="44.13897" lon="3.03762">
        <ele>645.8</ele>
        <time>2022-04-05T14:39:29Z</time>
      </trkpt>
      <trkpt lat="44.1389" lon="3.03766">
        <ele>646</ele>
        <time>2022-04-05T14:39:28Z</time>
      </trkpt>
      <trkpt lat="44.13885" lon="3.03771">
        <ele>646.2</ele>
        <time>2022-04-05T14:39:27Z</time>
      </trkpt>
      <trkpt lat="44.1388" lon="3.03775">
        <ele>646.4</ele>
        <time>2022-04-05T14:39:26Z</time>
      </trkpt>
      <trkpt lat="44.13875" lon="3.03781">
        <ele>646.6</ele>
        <time>2022-04-05T14:39:25Z</time>
      </trkpt>
      <trkpt lat="44.13871" lon="3.03786">
        <ele>647</ele>
        <time>2022-04-05T14:39:24Z</time>
      </trkpt>
      <trkpt lat="44.13868" lon="3.03791">
        <ele>647.2</ele>
        <time>2022-04-05T14:39:23Z</time>
      </trkpt>
      <trkpt lat="44.13864" lon="3.03795">
        <ele>647.2</ele>
        <time>2022-04-05T14:39:22Z</time>
      </trkpt>
      <trkpt lat="44.13861" lon="3.038">
        <ele>647.4</ele>
        <time>2022-04-05T14:39:21Z</time>
      </trkpt>
      <trkpt lat="44.13858" lon="3.03804">
        <ele>647.4</ele>
        <time>2022-04-05T14:39:20Z</time>
      </trkpt>
      <trkpt lat="44.13855" lon="3.03807">
        <ele>647.6</ele>
        <time>2022-04-05T14:39:19Z</time>
      </trkpt>
      <trkpt lat="44.13853" lon="3.03811">
        <ele>647.6</ele>
        <time>2022-04-05T14:39:18Z</time>
      </trkpt>
      <trkpt lat="44.1385" lon="3.03815">
        <ele>647.6</ele>
        <time>2022-04-05T14:39:17Z</time>
      </trkpt>
      <trkpt lat="44.13848" lon="3.03818">
        <ele>647.6</ele>
        <time>2022-04-05T14:39:16Z</time>
      </trkpt>
      <trkpt lat="44.13845" lon="3.03821">
        <ele>647.8</ele>
        <time>2022-04-05T14:39:15Z</time>
      </trkpt>
      <trkpt lat="44.13843" lon="3.03824">
        <ele>647.8</ele>
        <time>2022-04-05T14:39:14Z</time>
      </trkpt>
      <trkpt lat="44.1384" lon="3.03826">
        <ele>648</ele>
        <time>2022-04-05T14:39:13Z</time>
      </trkpt>
      <trkpt lat="44.13838" lon="3.03827">
        <ele>648</ele>
        <time>2022-04-05T14:39:12Z</time>
      </trkpt>
      <trkpt lat="44.13835" lon="3.03826">
        <ele>648</ele>
        <time>2022-04-05T14:39:11Z</time>
      </trkpt>
      <trkpt lat="44.13834" lon="3.03824">
        <ele>648</ele>
        <time>2022-04-05T14:39:10Z</time>
      </trkpt>
      <trkpt lat="44.13833" lon="3.03822">
        <ele>648.2</ele>
        <time>2022-04-05T14:39:09Z</time>
      </trkpt>
      <trkpt lat="44.13832" lon="3.03819">
        <ele>648.2</ele>
        <time>2022-04-05T14:39:08Z</time>
      </trkpt>
      <trkpt lat="44.13831" lon="3.03815">
        <ele>648.2</ele>
        <time>2022-04-05T14:39:07Z</time>
      </trkpt>
      <trkpt lat="44.13829" lon="3.03811">
        <ele>648.4</ele>
        <time>2022-04-05T14:39:06Z</time>
      </trkpt>
      <trkpt lat="44.13828" lon="3.03807">
        <ele>648.4</ele>
        <time>2022-04-05T14:39:05Z</time>
      </trkpt>
      <trkpt lat="44.13826" lon="3.03804">
        <ele>648.6</ele>
        <time>2022-04-05T14:39:04Z</time>
      </trkpt>
      <trkpt lat="44.13824" lon="3.03801">
        <ele>648.6</ele>
        <time>2022-04-05T14:39:03Z</time>
      </trkpt>
      <trkpt lat="44.13822" lon="3.03799">
        <ele>648.6</ele>
        <time>2022-04-05T14:39:02Z</time>
      </trkpt>
      <trkpt lat="44.13819" lon="3.03799">
        <ele>648.8</ele>
        <time>2022-04-05T14:39:01Z</time>
      </trkpt>
      <trkpt lat="44.13816" lon="3.038">
        <ele>648.8</ele>
        <time>2022-04-05T14:39:00Z</time>
      </trkpt>
      <trkpt lat="44.13813" lon="3.03802">
        <ele>648.8</ele>
        <time>2022-04-05T14:38:59Z</time>
      </trkpt>
      <trkpt lat="44.1381" lon="3.03802">
        <ele>648.8</ele>
        <time>2022-04-05T14:38:58Z</time>
      </trkpt>
      <trkpt lat="44.13806" lon="3.03802">
        <ele>648.8</ele>
        <time>2022-04-05T14:38:57Z</time>
      </trkpt>
      <trkpt lat="44.13787" lon="3.03806">
        <ele>648.8</ele>
        <time>2022-04-05T14:38:39Z</time>
      </trkpt>
      <trkpt lat="44.13785" lon="3.03806">
        <ele>648.8</ele>
        <time>2022-04-05T14:38:38Z</time>
      </trkpt>
      <trkpt lat="44.13781" lon="3.03807">
        <ele>649</ele>
        <time>2022-04-05T14:38:37Z</time>
      </trkpt>
      <trkpt lat="44.13778" lon="3.03807">
        <ele>649.2</ele>
        <time>2022-04-05T14:38:36Z</time>
      </trkpt>
      <trkpt lat="44.13776" lon="3.03807">
        <ele>649.4</ele>
        <time>2022-04-05T14:38:35Z</time>
      </trkpt>
      <trkpt lat="44.13774" lon="3.03807">
        <ele>649.4</ele>
        <time>2022-04-05T14:38:34Z</time>
      </trkpt>
      <trkpt lat="44.13771" lon="3.03805">
        <ele>649.8</ele>
        <time>2022-04-05T14:38:33Z</time>
      </trkpt>
      <trkpt lat="44.13768" lon="3.03802">
        <ele>650.2</ele>
        <time>2022-04-05T14:38:32Z</time>
      </trkpt>
      <trkpt lat="44.13766" lon="3.03798">
        <ele>650.4</ele>
        <time>2022-04-05T14:38:31Z</time>
      </trkpt>
      <trkpt lat="44.13764" lon="3.03793">
        <ele>650.6</ele>
        <time>2022-04-05T14:38:30Z</time>
      </trkpt>
      <trkpt lat="44.13763" lon="3.03788">
        <ele>650.6</ele>
        <time>2022-04-05T14:38:29Z</time>
      </trkpt>
      <trkpt lat="44.13762" lon="3.03783">
        <ele>650.8</ele>
        <time>2022-04-05T14:38:28Z</time>
      </trkpt>
      <trkpt lat="44.13761" lon="3.03779">
        <ele>650.8</ele>
        <time>2022-04-05T14:38:27Z</time>
      </trkpt>
      <trkpt lat="44.13759" lon="3.03775">
        <ele>650.8</ele>
        <time>2022-04-05T14:38:26Z</time>
      </trkpt>
      <trkpt lat="44.13756" lon="3.03772">
        <ele>650.8</ele>
        <time>2022-04-05T14:38:25Z</time>
      </trkpt>
      <trkpt lat="44.13753" lon="3.0377">
        <ele>650.8</ele>
        <time>2022-04-05T14:38:24Z</time>
      </trkpt>
      <trkpt lat="44.13749" lon="3.03767">
        <ele>650.8</ele>
        <time>2022-04-05T14:38:23Z</time>
      </trkpt>
      <trkpt lat="44.13746" lon="3.03764">
        <ele>650.8</ele>
        <time>2022-04-05T14:38:22Z</time>
      </trkpt>
      <trkpt lat="44.13743" lon="3.0376">
        <ele>650.8</ele>
        <time>2022-04-05T14:38:21Z</time>
      </trkpt>
      <trkpt lat="44.1374" lon="3.03756">
        <ele>651</ele>
        <time>2022-04-05T14:38:20Z</time>
      </trkpt>
      <trkpt lat="44.13737" lon="3.03752">
        <ele>651</ele>
        <time>2022-04-05T14:38:19Z</time>
      </trkpt>
      <trkpt lat="44.13735" lon="3.03748">
        <ele>651.2</ele>
        <time>2022-04-05T14:38:18Z</time>
      </trkpt>
      <trkpt lat="44.13732" lon="3.03744">
        <ele>651.2</ele>
        <time>2022-04-05T14:38:17Z</time>
      </trkpt>
      <trkpt lat="44.13729" lon="3.0374">
        <ele>651.2</ele>
        <time>2022-04-05T14:38:16Z</time>
      </trkpt>
      <trkpt lat="44.13726" lon="3.03736">
        <ele>651.4</ele>
        <time>2022-04-05T14:38:15Z</time>
      </trkpt>
      <trkpt lat="44.13723" lon="3.03732">
        <ele>651.4</ele>
        <time>2022-04-05T14:38:14Z</time>
      </trkpt>
      <trkpt lat="44.1372" lon="3.03729">
        <ele>651.4</ele>
        <time>2022-04-05T14:38:13Z</time>
      </trkpt>
      <trkpt lat="44.13717" lon="3.03726">
        <ele>651.6</ele>
        <time>2022-04-05T14:38:12Z</time>
      </trkpt>
      <trkpt lat="44.13713" lon="3.03723">
        <ele>651.6</ele>
        <time>2022-04-05T14:38:11Z</time>
      </trkpt>
      <trkpt lat="44.13709" lon="3.0372">
        <ele>651.6</ele>
        <time>2022-04-05T14:38:10Z</time>
      </trkpt>
      <trkpt lat="44.13705" lon="3.03717">
        <ele>651.6</ele>
        <time>2022-04-05T14:38:09Z</time>
      </trkpt>
      <trkpt lat="44.13701" lon="3.03714">
        <ele>651.8</ele>
        <time>2022-04-05T14:38:08Z</time>
      </trkpt>
      <trkpt lat="44.13697" lon="3.03712">
        <ele>651.8</ele>
        <time>2022-04-05T14:38:07Z</time>
      </trkpt>
      <trkpt lat="44.13693" lon="3.03709">
        <ele>652</ele>
        <time>2022-04-05T14:38:06Z</time>
      </trkpt>
      <trkpt lat="44.1369" lon="3.03706">
        <ele>652</ele>
        <time>2022-04-05T14:38:05Z</time>
      </trkpt>
      <trkpt lat="44.13686" lon="3.03704">
        <ele>652.2</ele>
        <time>2022-04-05T14:38:04Z</time>
      </trkpt>
      <trkpt lat="44.13683" lon="3.03701">
        <ele>652</ele>
        <time>2022-04-05T14:38:03Z</time>
      </trkpt>
      <trkpt lat="44.13679" lon="3.03698">
        <ele>652</ele>
        <time>2022-04-05T14:38:02Z</time>
      </trkpt>
      <trkpt lat="44.13676" lon="3.03695">
        <ele>652</ele>
        <time>2022-04-05T14:38:01Z</time>
      </trkpt>
      <trkpt lat="44.13673" lon="3.03691">
        <ele>652.2</ele>
        <time>2022-04-05T14:38:00Z</time>
      </trkpt>
      <trkpt lat="44.13669" lon="3.03688">
        <ele>652.4</ele>
        <time>2022-04-05T14:37:59Z</time>
      </trkpt>
      <trkpt lat="44.13666" lon="3.03684">
        <ele>652.4</ele>
        <time>2022-04-05T14:37:58Z</time>
      </trkpt>
      <trkpt lat="44.13663" lon="3.0368">
        <ele>652.4</ele>
        <time>2022-04-05T14:37:57Z</time>
      </trkpt>
      <trkpt lat="44.1366" lon="3.03677">
        <ele>652.4</ele>
        <time>2022-04-05T14:37:56Z</time>
      </trkpt>
      <trkpt lat="44.13657" lon="3.03674">
        <ele>652.4</ele>
        <time>2022-04-05T14:37:55Z</time>
      </trkpt>
      <trkpt lat="44.13654" lon="3.03672">
        <ele>652.4</ele>
        <time>2022-04-05T14:37:54Z</time>
      </trkpt>
      <trkpt lat="44.13651" lon="3.0367">
        <ele>652</ele>
        <time>2022-04-05T14:37:53Z</time>
      </trkpt>
      <trkpt lat="44.13648" lon="3.03668">
        <ele>652</ele>
        <time>2022-04-05T14:37:52Z</time>
      </trkpt>
      <trkpt lat="44.13645" lon="3.03666">
        <ele>651.8</ele>
        <time>2022-04-05T14:37:51Z</time>
      </trkpt>
      <trkpt lat="44.13642" lon="3.03664">
        <ele>651.8</ele>
        <time>2022-04-05T14:37:50Z</time>
      </trkpt>
      <trkpt lat="44.13639" lon="3.03662">
        <ele>651.8</ele>
        <time>2022-04-05T14:37:49Z</time>
      </trkpt>
      <trkpt lat="44.13635" lon="3.0366">
        <ele>651.6</ele>
        <time>2022-04-05T14:37:48Z</time>
      </trkpt>
      <trkpt lat="44.13632" lon="3.03659">
        <ele>651.6</ele>
        <time>2022-04-05T14:37:47Z</time>
      </trkpt>
      <trkpt lat="44.1363" lon="3.03657">
        <ele>651.6</ele>
        <time>2022-04-05T14:37:46Z</time>
      </trkpt>
      <trkpt lat="44.13627" lon="3.03655">
        <ele>651.6</ele>
        <time>2022-04-05T14:37:45Z</time>
      </trkpt>
      <trkpt lat="44.13624" lon="3.03653">
        <ele>651.6</ele>
        <time>2022-04-05T14:37:44Z</time>
      </trkpt>
      <trkpt lat="44.13622" lon="3.03651">
        <ele>651.6</ele>
        <time>2022-04-05T14:37:43Z</time>
      </trkpt>
      <trkpt lat="44.13619" lon="3.03646">
        <ele>634.8</ele>
      </trkpt>
      <trkpt lat="44.13617" lon="3.03644">
        <ele>634.9</ele>
      </trkpt>
      <trkpt lat="44.13608" lon="3.03642">
        <ele>644</ele>
        <time>2022-04-05T13:26:57Z</time>
      </trkpt>
      <trkpt lat="44.13605" lon="3.03641">
        <ele>644.2</ele>
        <time>2022-04-05T13:26:58Z</time>
      </trkpt>
      <trkpt lat="44.13603" lon="3.0364">
        <ele>644.2</ele>
        <time>2022-04-05T13:26:59Z</time>
      </trkpt>
      <trkpt lat="44.136" lon="3.03637">
        <ele>644.2</ele>
        <time>2022-04-05T13:27:00Z</time>
      </trkpt>
      <trkpt lat="44.13598" lon="3.03634">
        <ele>644.2</ele>
        <time>2022-04-05T13:27:01Z</time>
      </trkpt>
      <trkpt lat="44.13596" lon="3.03632">
        <ele>644.2</ele>
        <time>2022-04-05T13:27:02Z</time>
      </trkpt>
      <trkpt lat="44.13594" lon="3.03628">
        <ele>644.2</ele>
        <time>2022-04-05T13:27:03Z</time>
      </trkpt>
      <trkpt lat="44.13591" lon="3.03625">
        <ele>644.2</ele>
        <time>2022-04-05T13:27:04Z</time>
      </trkpt>
      <trkpt lat="44.13588" lon="3.03622">
        <ele>644.2</ele>
        <time>2022-04-05T13:27:05Z</time>
      </trkpt>
      <trkpt lat="44.13585" lon="3.03619">
        <ele>644.2</ele>
        <time>2022-04-05T13:27:06Z</time>
      </trkpt>
      <trkpt lat="44.13581" lon="3.03617">
        <ele>644</ele>
        <time>2022-04-05T13:27:07Z</time>
      </trkpt>
      <trkpt lat="44.13577" lon="3.03616">
        <ele>643.8</ele>
        <time>2022-04-05T13:27:08Z</time>
      </trkpt>
      <trkpt lat="44.13572" lon="3.03614">
        <ele>643.8</ele>
        <time>2022-04-05T13:27:09Z</time>
      </trkpt>
      <trkpt lat="44.13568" lon="3.03613">
        <ele>643.8</ele>
        <time>2022-04-05T13:27:10Z</time>
      </trkpt>
      <trkpt lat="44.13563" lon="3.03612">
        <ele>643.6</ele>
        <time>2022-04-05T13:27:11Z</time>
      </trkpt>
      <trkpt lat="44.13558" lon="3.03612">
        <ele>643.6</ele>
        <time>2022-04-05T13:27:12Z</time>
      </trkpt>
      <trkpt lat="44.13553" lon="3.03611">
        <ele>643.6</ele>
        <time>2022-04-05T13:27:13Z</time>
      </trkpt>
      <trkpt lat="44.13547" lon="3.03611">
        <ele>643.4</ele>
        <time>2022-04-05T13:27:14Z</time>
      </trkpt>
      <trkpt lat="44.13542" lon="3.0361">
        <ele>643.4</ele>
        <time>2022-04-05T13:27:15Z</time>
      </trkpt>
      <trkpt lat="44.13536" lon="3.03609">
        <ele>643.2</ele>
        <time>2022-04-05T13:27:16Z</time>
      </trkpt>
      <trkpt lat="44.13531" lon="3.03609">
        <ele>643.2</ele>
        <time>2022-04-05T13:27:17Z</time>
      </trkpt>
      <trkpt lat="44.13525" lon="3.03608">
        <ele>643</ele>
        <time>2022-04-05T13:27:18Z</time>
      </trkpt>
      <trkpt lat="44.13519" lon="3.03608">
        <ele>643</ele>
        <time>2022-04-05T13:27:19Z</time>
      </trkpt>
      <trkpt lat="44.13513" lon="3.03607">
        <ele>642.8</ele>
        <time>2022-04-05T13:27:20Z</time>
      </trkpt>
      <trkpt lat="44.13507" lon="3.03605">
        <ele>642.8</ele>
        <time>2022-04-05T13:27:21Z</time>
      </trkpt>
      <trkpt lat="44.13501" lon="3.03604">
        <ele>642.6</ele>
        <time>2022-04-05T13:27:22Z</time>
      </trkpt>
      <trkpt lat="44.13495" lon="3.03602">
        <ele>642.4</ele>
        <time>2022-04-05T13:27:23Z</time>
      </trkpt>
      <trkpt lat="44.13488" lon="3.03602">
        <ele>642</ele>
        <time>2022-04-05T13:27:24Z</time>
      </trkpt>
      <trkpt lat="44.13482" lon="3.03602">
        <ele>641.4</ele>
        <time>2022-04-05T13:27:25Z</time>
      </trkpt>
      <trkpt lat="44.13476" lon="3.03604">
        <ele>641.4</ele>
        <time>2022-04-05T13:27:26Z</time>
      </trkpt>
      <trkpt lat="44.1347" lon="3.03606">
        <ele>641</ele>
        <time>2022-04-05T13:27:27Z</time>
      </trkpt>
      <trkpt lat="44.13465" lon="3.03609">
        <ele>640.8</ele>
        <time>2022-04-05T13:27:28Z</time>
      </trkpt>
      <trkpt lat="44.13459" lon="3.03611">
        <ele>640.4</ele>
        <time>2022-04-05T13:27:29Z</time>
      </trkpt>
      <trkpt lat="44.13454" lon="3.03614">
        <ele>640.4</ele>
        <time>2022-04-05T13:27:30Z</time>
      </trkpt>
      <trkpt lat="44.13449" lon="3.03616">
        <ele>640.2</ele>
        <time>2022-04-05T13:27:31Z</time>
      </trkpt>
      <trkpt lat="44.13444" lon="3.03618">
        <ele>640.2</ele>
        <time>2022-04-05T13:27:32Z</time>
      </trkpt>
      <trkpt lat="44.13439" lon="3.0362">
        <ele>640</ele>
        <time>2022-04-05T13:27:33Z</time>
      </trkpt>
      <trkpt lat="44.13435" lon="3.03622">
        <ele>639.8</ele>
        <time>2022-04-05T13:27:34Z</time>
      </trkpt>
      <trkpt lat="44.1343" lon="3.03624">
        <ele>639.8</ele>
        <time>2022-04-05T13:27:35Z</time>
      </trkpt>
      <trkpt lat="44.13425" lon="3.03626">
        <ele>639.8</ele>
        <time>2022-04-05T13:27:36Z</time>
      </trkpt>
      <trkpt lat="44.13421" lon="3.03628">
        <ele>639.8</ele>
        <time>2022-04-05T13:27:37Z</time>
      </trkpt>
      <trkpt lat="44.13415" lon="3.0363">
        <ele>639.6</ele>
        <time>2022-04-05T13:27:38Z</time>
      </trkpt>
      <trkpt lat="44.1341" lon="3.03632">
        <ele>639.6</ele>
        <time>2022-04-05T13:27:39Z</time>
      </trkpt>
      <trkpt lat="44.13405" lon="3.03634">
        <ele>639.4</ele>
        <time>2022-04-05T13:27:40Z</time>
      </trkpt>
      <trkpt lat="44.13399" lon="3.03635">
        <ele>639.4</ele>
        <time>2022-04-05T13:27:41Z</time>
      </trkpt>
      <trkpt lat="44.13392" lon="3.03635">
        <ele>639.4</ele>
        <time>2022-04-05T13:27:42Z</time>
      </trkpt>
      <trkpt lat="44.13385" lon="3.03634">
        <ele>639.4</ele>
        <time>2022-04-05T13:27:43Z</time>
      </trkpt>
      <trkpt lat="44.13378" lon="3.03632">
        <ele>639.4</ele>
        <time>2022-04-05T13:27:44Z</time>
      </trkpt>
      <trkpt lat="44.1337" lon="3.03629">
        <ele>639.4</ele>
        <time>2022-04-05T13:27:45Z</time>
      </trkpt>
      <trkpt lat="44.13364" lon="3.03626">
        <ele>639</ele>
        <time>2022-04-05T13:27:46Z</time>
      </trkpt>
      <trkpt lat="44.13356" lon="3.03624">
        <ele>638.6</ele>
        <time>2022-04-05T13:27:47Z</time>
      </trkpt>
      <trkpt lat="44.13349" lon="3.03624">
        <ele>638.2</ele>
        <time>2022-04-05T13:27:48Z</time>
      </trkpt>
      <trkpt lat="44.13341" lon="3.03626">
        <ele>637.4</ele>
        <time>2022-04-05T13:27:49Z</time>
      </trkpt>
      <trkpt lat="44.13334" lon="3.03629">
        <ele>637.2</ele>
        <time>2022-04-05T13:27:50Z</time>
      </trkpt>
      <trkpt lat="44.13327" lon="3.03633">
        <ele>636.8</ele>
        <time>2022-04-05T13:27:51Z</time>
      </trkpt>
      <trkpt lat="44.1332" lon="3.03637">
        <ele>636.6</ele>
        <time>2022-04-05T13:27:52Z</time>
      </trkpt>
      <trkpt lat="44.13313" lon="3.0364">
        <ele>636.4</ele>
        <time>2022-04-05T13:27:53Z</time>
      </trkpt>
      <trkpt lat="44.13307" lon="3.0364">
        <ele>636.2</ele>
        <time>2022-04-05T13:27:54Z</time>
      </trkpt>
      <trkpt lat="44.13301" lon="3.03636">
        <ele>636</ele>
        <time>2022-04-05T13:27:55Z</time>
      </trkpt>
      <trkpt lat="44.13296" lon="3.03631">
        <ele>636</ele>
        <time>2022-04-05T13:27:56Z</time>
      </trkpt>
      <trkpt lat="44.13291" lon="3.03626">
        <ele>635.8</ele>
        <time>2022-04-05T13:27:57Z</time>
      </trkpt>
      <trkpt lat="44.13286" lon="3.03619">
        <ele>635.8</ele>
        <time>2022-04-05T13:27:58Z</time>
      </trkpt>
      <trkpt lat="44.13281" lon="3.03614">
        <ele>635.8</ele>
        <time>2022-04-05T13:27:59Z</time>
      </trkpt>
      <trkpt lat="44.13278" lon="3.0361">
        <ele>635.8</ele>
        <time>2022-04-05T13:28:00Z</time>
      </trkpt>
      <trkpt lat="44.13273" lon="3.03605">
        <ele>635.8</ele>
        <time>2022-04-05T13:28:01Z</time>
      </trkpt>
      <trkpt lat="44.13269" lon="3.03603">
        <ele>635.8</ele>
        <time>2022-04-05T13:28:02Z</time>
      </trkpt>
      <trkpt lat="44.13266" lon="3.03603">
        <ele>635.8</ele>
        <time>2022-04-05T13:28:03Z</time>
      </trkpt>
      <trkpt lat="44.13263" lon="3.03606">
        <ele>636</ele>
        <time>2022-04-05T13:28:04Z</time>
      </trkpt>
      <trkpt lat="44.1326" lon="3.0361">
        <ele>635.8</ele>
        <time>2022-04-05T13:28:05Z</time>
      </trkpt>
      <trkpt lat="44.13257" lon="3.03615">
        <ele>635.6</ele>
        <time>2022-04-05T13:28:06Z</time>
      </trkpt>
      <trkpt lat="44.13254" lon="3.0362">
        <ele>635.6</ele>
        <time>2022-04-05T13:28:07Z</time>
      </trkpt>
      <trkpt lat="44.1325" lon="3.03627">
        <ele>635.4</ele>
        <time>2022-04-05T13:28:08Z</time>
      </trkpt>
      <trkpt lat="44.13247" lon="3.03632">
        <ele>635.6</ele>
        <time>2022-04-05T13:28:09Z</time>
      </trkpt>
      <trkpt lat="44.13243" lon="3.03639">
        <ele>635.2</ele>
        <time>2022-04-05T13:28:10Z</time>
      </trkpt>
      <trkpt lat="44.13239" lon="3.03646">
        <ele>634.8</ele>
        <time>2022-04-05T13:28:11Z</time>
      </trkpt>
      <trkpt lat="44.13235" lon="3.03653">
        <ele>634.8</ele>
        <time>2022-04-05T13:28:12Z</time>
      </trkpt>
      <trkpt lat="44.13231" lon="3.03661">
        <ele>634.6</ele>
        <time>2022-04-05T13:28:13Z</time>
      </trkpt>
      <trkpt lat="44.13226" lon="3.03669">
        <ele>634.2</ele>
        <time>2022-04-05T13:28:14Z</time>
      </trkpt>
      <trkpt lat="44.13221" lon="3.03677">
        <ele>633.8</ele>
        <time>2022-04-05T13:28:15Z</time>
      </trkpt>
      <trkpt lat="44.13217" lon="3.03686">
        <ele>633.6</ele>
        <time>2022-04-05T13:28:16Z</time>
      </trkpt>
      <trkpt lat="44.13212" lon="3.03694">
        <ele>633.2</ele>
        <time>2022-04-05T13:28:17Z</time>
      </trkpt>
      <trkpt lat="44.13207" lon="3.03703">
        <ele>633</ele>
        <time>2022-04-05T13:28:18Z</time>
      </trkpt>
      <trkpt lat="44.13202" lon="3.03711">
        <ele>632.8</ele>
        <time>2022-04-05T13:28:19Z</time>
      </trkpt>
      <trkpt lat="44.13196" lon="3.0372">
        <ele>632.6</ele>
        <time>2022-04-05T13:28:20Z</time>
      </trkpt>
      <trkpt lat="44.13191" lon="3.03729">
        <ele>632.4</ele>
        <time>2022-04-05T13:28:21Z</time>
      </trkpt>
      <trkpt lat="44.13184" lon="3.03739">
        <ele>632</ele>
        <time>2022-04-05T13:28:22Z</time>
      </trkpt>
      <trkpt lat="44.13179" lon="3.03744">
        <ele>631.8</ele>
        <time>2022-04-05T13:28:23Z</time>
      </trkpt>
      <trkpt lat="44.13173" lon="3.0375">
        <ele>631</ele>
        <time>2022-04-05T13:28:24Z</time>
      </trkpt>
      <trkpt lat="44.13169" lon="3.03755">
        <ele>630.4</ele>
        <time>2022-04-05T13:28:25Z</time>
      </trkpt>
      <trkpt lat="44.13166" lon="3.0376">
        <ele>629.4</ele>
        <time>2022-04-05T13:28:26Z</time>
      </trkpt>
      <trkpt lat="44.13164" lon="3.03765">
        <ele>629.2</ele>
        <time>2022-04-05T13:28:27Z</time>
      </trkpt>
      <trkpt lat="44.13163" lon="3.0377">
        <ele>628.4</ele>
        <time>2022-04-05T13:28:28Z</time>
      </trkpt>
      <trkpt lat="44.13161" lon="3.03775">
        <ele>627.4</ele>
        <time>2022-04-05T13:28:29Z</time>
      </trkpt>
      <trkpt lat="44.13157" lon="3.03778">
        <ele>626.8</ele>
        <time>2022-04-05T13:28:30Z</time>
      </trkpt>
      <trkpt lat="44.13153" lon="3.03781">
        <ele>625.8</ele>
        <time>2022-04-05T13:28:31Z</time>
      </trkpt>
      <trkpt lat="44.13147" lon="3.03785">
        <ele>625.2</ele>
        <time>2022-04-05T13:28:32Z</time>
      </trkpt>
      <trkpt lat="44.13142" lon="3.03789">
        <ele>624.4</ele>
        <time>2022-04-05T13:28:33Z</time>
      </trkpt>
      <trkpt lat="44.13136" lon="3.03795">
        <ele>623.8</ele>
        <time>2022-04-05T13:28:34Z</time>
      </trkpt>
      <trkpt lat="44.1313" lon="3.03802">
        <ele>623.2</ele>
        <time>2022-04-05T13:28:35Z</time>
      </trkpt>
      <trkpt lat="44.13124" lon="3.03808">
        <ele>622.8</ele>
        <time>2022-04-05T13:28:36Z</time>
      </trkpt>
      <trkpt lat="44.13118" lon="3.03814">
        <ele>622.6</ele>
        <time>2022-04-05T13:28:37Z</time>
      </trkpt>
      <trkpt lat="44.13111" lon="3.03818">
        <ele>622.2</ele>
        <time>2022-04-05T13:28:38Z</time>
      </trkpt>
      <trkpt lat="44.13104" lon="3.03821">
        <ele>621.4</ele>
        <time>2022-04-05T13:28:39Z</time>
      </trkpt>
      <trkpt lat="44.13097" lon="3.03824">
        <ele>619.8</ele>
        <time>2022-04-05T13:28:40Z</time>
      </trkpt>
      <trkpt lat="44.1309" lon="3.03826">
        <ele>619.2</ele>
        <time>2022-04-05T13:28:41Z</time>
      </trkpt>
      <trkpt lat="44.13085" lon="3.03828">
        <ele>618.6</ele>
        <time>2022-04-05T13:28:42Z</time>
      </trkpt>
      <trkpt lat="44.13081" lon="3.03829">
        <ele>617.8</ele>
        <time>2022-04-05T13:28:43Z</time>
      </trkpt>
      <trkpt lat="44.13078" lon="3.03831">
        <ele>616.4</ele>
        <time>2022-04-05T13:28:44Z</time>
      </trkpt>
      <trkpt lat="44.13076" lon="3.03834">
        <ele>616</ele>
        <time>2022-04-05T13:28:45Z</time>
      </trkpt>
      <trkpt lat="44.13074" lon="3.03837">
        <ele>614.4</ele>
        <time>2022-04-05T13:28:46Z</time>
      </trkpt>
      <trkpt lat="44.13072" lon="3.03839">
        <ele>613.8</ele>
        <time>2022-04-05T13:28:47Z</time>
      </trkpt>
      <trkpt lat="44.13069" lon="3.03842">
        <ele>612.8</ele>
        <time>2022-04-05T13:28:48Z</time>
      </trkpt>
      <trkpt lat="44.13064" lon="3.03844">
        <ele>612</ele>
        <time>2022-04-05T13:28:49Z</time>
      </trkpt>
      <trkpt lat="44.13058" lon="3.03847">
        <ele>609.8</ele>
        <time>2022-04-05T13:28:50Z</time>
      </trkpt>
      <trkpt lat="44.13054" lon="3.03852">
        <ele>608.6</ele>
        <time>2022-04-05T13:28:51Z</time>
      </trkpt>
      <trkpt lat="44.1305" lon="3.03859">
        <ele>607.8</ele>
        <time>2022-04-05T13:28:52Z</time>
      </trkpt>
      <trkpt lat="44.13047" lon="3.03868">
        <ele>605.6</ele>
        <time>2022-04-05T13:28:53Z</time>
      </trkpt>
      <trkpt lat="44.13046" lon="3.03875">
        <ele>604.6</ele>
        <time>2022-04-05T13:28:54Z</time>
      </trkpt>
      <trkpt lat="44.13042" lon="3.03884">
        <ele>603.4</ele>
        <time>2022-04-05T13:28:55Z</time>
      </trkpt>
      <trkpt lat="44.13039" lon="3.03888">
        <ele>603</ele>
        <time>2022-04-05T13:28:56Z</time>
      </trkpt>
      <trkpt lat="44.13034" lon="3.03892">
        <ele>601.2</ele>
        <time>2022-04-05T13:28:57Z</time>
      </trkpt>
      <trkpt lat="44.13027" lon="3.03895">
        <ele>600</ele>
        <time>2022-04-05T13:28:58Z</time>
      </trkpt>
      <trkpt lat="44.13023" lon="3.03895">
        <ele>596.6</ele>
        <time>2022-04-05T13:28:59Z</time>
      </trkpt>
      <trkpt lat="44.13018" lon="3.03894">
        <ele>595</ele>
        <time>2022-04-05T13:29:00Z</time>
      </trkpt>
      <trkpt lat="44.13015" lon="3.03896">
        <ele>592.8</ele>
        <time>2022-04-05T13:29:01Z</time>
      </trkpt>
      <trkpt lat="44.13013" lon="3.03899">
        <ele>590.8</ele>
        <time>2022-04-05T13:29:02Z</time>
      </trkpt>
      <trkpt lat="44.13012" lon="3.03903">
        <ele>590.2</ele>
        <time>2022-04-05T13:29:03Z</time>
      </trkpt>
      <trkpt lat="44.13009" lon="3.03907">
        <ele>589.2</ele>
        <time>2022-04-05T13:29:04Z</time>
      </trkpt>
      <trkpt lat="44.13007" lon="3.03911">
        <ele>588.8</ele>
        <time>2022-04-05T13:29:05Z</time>
      </trkpt>
      <trkpt lat="44.13005" lon="3.03915">
        <ele>588</ele>
        <time>2022-04-05T13:29:06Z</time>
      </trkpt>
      <trkpt lat="44.13006" lon="3.03919">
        <ele>587.8</ele>
        <time>2022-04-05T13:29:07Z</time>
      </trkpt>
      <trkpt lat="44.13008" lon="3.03923">
        <ele>586.8</ele>
        <time>2022-04-05T13:29:08Z</time>
      </trkpt>
      <trkpt lat="44.13009" lon="3.03927">
        <ele>586</ele>
        <time>2022-04-05T13:29:09Z</time>
      </trkpt>
      <trkpt lat="44.13008" lon="3.0393">
        <ele>584.4</ele>
        <time>2022-04-05T13:29:10Z</time>
      </trkpt>
      <trkpt lat="44.13007" lon="3.03931">
        <ele>583.4</ele>
        <time>2022-04-05T13:29:11Z</time>
      </trkpt>
      <trkpt lat="44.13006" lon="3.03931">
        <ele>582.6</ele>
        <time>2022-04-05T13:29:12Z</time>
      </trkpt>
      <trkpt lat="44.13001" lon="3.03933">
        <ele>576.4</ele>
        <time>2022-04-05T13:30:00Z</time>
      </trkpt>
      <trkpt lat="44.12999" lon="3.03935">
        <ele>576</ele>
        <time>2022-04-05T13:30:01Z</time>
      </trkpt>
      <trkpt lat="44.12998" lon="3.03937">
        <ele>576</ele>
        <time>2022-04-05T13:30:02Z</time>
      </trkpt>
      <trkpt lat="44.12997" lon="3.0394">
        <ele>575.8</ele>
        <time>2022-04-05T13:30:03Z</time>
      </trkpt>
      <trkpt lat="44.12995" lon="3.03942">
        <ele>575.8</ele>
        <time>2022-04-05T13:30:04Z</time>
      </trkpt>
      <trkpt lat="44.12993" lon="3.03944">
        <ele>575.8</ele>
        <time>2022-04-05T13:30:05Z</time>
      </trkpt>
      <trkpt lat="44.12991" lon="3.03947">
        <ele>575.8</ele>
        <time>2022-04-05T13:30:06Z</time>
      </trkpt>
      <trkpt lat="44.12989" lon="3.03949">
        <ele>575.8</ele>
        <time>2022-04-05T13:30:07Z</time>
      </trkpt>
      <trkpt lat="44.12986" lon="3.03953">
        <ele>575.8</ele>
        <time>2022-04-05T13:30:08Z</time>
      </trkpt>
      <trkpt lat="44.12983" lon="3.03957">
        <ele>575.8</ele>
        <time>2022-04-05T13:30:09Z</time>
      </trkpt>
      <trkpt lat="44.1298" lon="3.03962">
        <ele>575.8</ele>
        <time>2022-04-05T13:30:10Z</time>
      </trkpt>
      <trkpt lat="44.12976" lon="3.03968">
        <ele>576</ele>
        <time>2022-04-05T13:30:11Z</time>
      </trkpt>
      <trkpt lat="44.12971" lon="3.03976">
        <ele>576.2</ele>
        <time>2022-04-05T13:30:12Z</time>
      </trkpt>
      <trkpt lat="44.12967" lon="3.03983">
        <ele>576.4</ele>
        <time>2022-04-05T13:30:13Z</time>
      </trkpt>
      <trkpt lat="44.12963" lon="3.0399">
        <ele>576.4</ele>
        <time>2022-04-05T13:30:14Z</time>
      </trkpt>
      <trkpt lat="44.12958" lon="3.03997">
        <ele>576.4</ele>
        <time>2022-04-05T13:30:15Z</time>
      </trkpt>
      <trkpt lat="44.12953" lon="3.04002">
        <ele>576.4</ele>
        <time>2022-04-05T13:30:16Z</time>
      </trkpt>
      <trkpt lat="44.12949" lon="3.04008">
        <ele>576.2</ele>
        <time>2022-04-05T13:30:17Z</time>
      </trkpt>
      <trkpt lat="44.12944" lon="3.04018">
        <ele>576.2</ele>
        <time>2022-04-05T13:30:18Z</time>
      </trkpt>
      <trkpt lat="44.1294" lon="3.04026">
        <ele>576</ele>
        <time>2022-04-05T13:30:19Z</time>
      </trkpt>
      <trkpt lat="44.12935" lon="3.04035">
        <ele>576</ele>
        <time>2022-04-05T13:30:20Z</time>
      </trkpt>
      <trkpt lat="44.12932" lon="3.04044">
        <ele>575.8</ele>
        <time>2022-04-05T13:30:21Z</time>
      </trkpt>
      <trkpt lat="44.12928" lon="3.04052">
        <ele>575.8</ele>
        <time>2022-04-05T13:30:22Z</time>
      </trkpt>
      <trkpt lat="44.12925" lon="3.04061">
        <ele>575.4</ele>
        <time>2022-04-05T13:30:23Z</time>
      </trkpt>
      <trkpt lat="44.12921" lon="3.04069">
        <ele>575.2</ele>
        <time>2022-04-05T13:30:24Z</time>
      </trkpt>
      <trkpt lat="44.12918" lon="3.04078">
        <ele>574.6</ele>
        <time>2022-04-05T13:30:25Z</time>
      </trkpt>
      <trkpt lat="44.12912" lon="3.04086">
        <ele>573.8</ele>
        <time>2022-04-05T13:30:26Z</time>
      </trkpt>
      <trkpt lat="44.12907" lon="3.04093">
        <ele>573.4</ele>
        <time>2022-04-05T13:30:27Z</time>
      </trkpt>
      <trkpt lat="44.12902" lon="3.041">
        <ele>573.2</ele>
        <time>2022-04-05T13:30:28Z</time>
      </trkpt>
      <trkpt lat="44.12898" lon="3.04106">
        <ele>573.2</ele>
        <time>2022-04-05T13:30:29Z</time>
      </trkpt>
      <trkpt lat="44.12894" lon="3.04115">
        <ele>572.8</ele>
        <time>2022-04-05T13:30:30Z</time>
      </trkpt>
      <trkpt lat="44.12891" lon="3.04121">
        <ele>572.8</ele>
        <time>2022-04-05T13:30:31Z</time>
      </trkpt>
      <trkpt lat="44.12885" lon="3.04129">
        <ele>572.6</ele>
        <time>2022-04-05T13:30:32Z</time>
      </trkpt>
      <trkpt lat="44.12878" lon="3.04136">
        <ele>572.4</ele>
        <time>2022-04-05T13:30:33Z</time>
      </trkpt>
      <trkpt lat="44.12872" lon="3.04142">
        <ele>572.2</ele>
        <time>2022-04-05T13:30:34Z</time>
      </trkpt>
      <trkpt lat="44.12866" lon="3.04149">
        <ele>572</ele>
        <time>2022-04-05T13:30:35Z</time>
      </trkpt>
      <trkpt lat="44.12859" lon="3.04156">
        <ele>571.4</ele>
        <time>2022-04-05T13:30:36Z</time>
      </trkpt>
      <trkpt lat="44.12853" lon="3.04161">
        <ele>570.8</ele>
        <time>2022-04-05T13:30:37Z</time>
      </trkpt>
      <trkpt lat="44.12847" lon="3.04167">
        <ele>570.6</ele>
        <time>2022-04-05T13:30:38Z</time>
      </trkpt>
      <trkpt lat="44.12841" lon="3.04172">
        <ele>570</ele>
        <time>2022-04-05T13:30:39Z</time>
      </trkpt>
      <trkpt lat="44.12836" lon="3.04179">
        <ele>569.4</ele>
        <time>2022-04-05T13:30:40Z</time>
      </trkpt>
      <trkpt lat="44.12832" lon="3.04184">
        <ele>568.8</ele>
        <time>2022-04-05T13:30:41Z</time>
      </trkpt>
      <trkpt lat="44.12829" lon="3.04188">
        <ele>568.4</ele>
        <time>2022-04-05T13:30:42Z</time>
      </trkpt>
      <trkpt lat="44.12825" lon="3.04193">
        <ele>568.2</ele>
        <time>2022-04-05T13:30:43Z</time>
      </trkpt>
      <trkpt lat="44.12823" lon="3.04197">
        <ele>568.2</ele>
        <time>2022-04-05T13:30:44Z</time>
      </trkpt>
      <trkpt lat="44.12821" lon="3.04201">
        <ele>568</ele>
        <time>2022-04-05T13:30:45Z</time>
      </trkpt>
      <trkpt lat="44.12819" lon="3.04208">
        <ele>567.8</ele>
        <time>2022-04-05T13:30:46Z</time>
      </trkpt>
      <trkpt lat="44.12816" lon="3.04216">
        <ele>567.8</ele>
        <time>2022-04-05T13:30:47Z</time>
      </trkpt>
      <trkpt lat="44.12813" lon="3.04223">
        <ele>567.8</ele>
        <time>2022-04-05T13:30:48Z</time>
      </trkpt>
      <trkpt lat="44.1281" lon="3.04234">
        <ele>567.8</ele>
        <time>2022-04-05T13:30:49Z</time>
      </trkpt>
      <trkpt lat="44.12806" lon="3.04245">
        <ele>567.8</ele>
        <time>2022-04-05T13:30:50Z</time>
      </trkpt>
      <trkpt lat="44.12804" lon="3.04256">
        <ele>567.8</ele>
        <time>2022-04-05T13:30:51Z</time>
      </trkpt>
      <trkpt lat="44.12801" lon="3.04266">
        <ele>567.8</ele>
        <time>2022-04-05T13:30:52Z</time>
      </trkpt>
      <trkpt lat="44.12797" lon="3.04273">
        <ele>567.6</ele>
        <time>2022-04-05T13:30:53Z</time>
      </trkpt>
      <trkpt lat="44.12791" lon="3.04282">
        <ele>567.4</ele>
        <time>2022-04-05T13:30:54Z</time>
      </trkpt>
      <trkpt lat="44.12785" lon="3.0429">
        <ele>567.2</ele>
        <time>2022-04-05T13:30:55Z</time>
      </trkpt>
      <trkpt lat="44.12779" lon="3.04297">
        <ele>566.4</ele>
        <time>2022-04-05T13:30:56Z</time>
      </trkpt>
      <trkpt lat="44.12774" lon="3.04301">
        <ele>564.8</ele>
        <time>2022-04-05T13:30:57Z</time>
      </trkpt>
      <trkpt lat="44.12768" lon="3.04307">
        <ele>564.2</ele>
        <time>2022-04-05T13:30:58Z</time>
      </trkpt>
      <trkpt lat="44.12761" lon="3.04313">
        <ele>563</ele>
        <time>2022-04-05T13:30:59Z</time>
      </trkpt>
      <trkpt lat="44.12756" lon="3.04318">
        <ele>562.4</ele>
        <time>2022-04-05T13:31:00Z</time>
      </trkpt>
      <trkpt lat="44.12751" lon="3.04321">
        <ele>560.6</ele>
        <time>2022-04-05T13:31:01Z</time>
      </trkpt>
      <trkpt lat="44.12745" lon="3.04324">
        <ele>559.6</ele>
        <time>2022-04-05T13:31:02Z</time>
      </trkpt>
      <trkpt lat="44.12738" lon="3.04328">
        <ele>558.6</ele>
        <time>2022-04-05T13:31:03Z</time>
      </trkpt>
      <trkpt lat="44.12732" lon="3.04332">
        <ele>558.2</ele>
        <time>2022-04-05T13:31:04Z</time>
      </trkpt>
      <trkpt lat="44.12727" lon="3.04335">
        <ele>558</ele>
        <time>2022-04-05T13:31:05Z</time>
      </trkpt>
      <trkpt lat="44.12723" lon="3.04338">
        <ele>557.8</ele>
        <time>2022-04-05T13:31:06Z</time>
      </trkpt>
      <trkpt lat="44.12719" lon="3.04342">
        <ele>557.8</ele>
        <time>2022-04-05T13:31:07Z</time>
      </trkpt>
      <trkpt lat="44.12714" lon="3.04348">
        <ele>557.6</ele>
        <time>2022-04-05T13:31:08Z</time>
      </trkpt>
      <trkpt lat="44.12708" lon="3.04353">
        <ele>557.4</ele>
        <time>2022-04-05T13:31:09Z</time>
      </trkpt>
      <trkpt lat="44.12702" lon="3.04359">
        <ele>557.2</ele>
        <time>2022-04-05T13:31:10Z</time>
      </trkpt>
      <trkpt lat="44.12697" lon="3.04364">
        <ele>557</ele>
        <time>2022-04-05T13:31:11Z</time>
      </trkpt>
      <trkpt lat="44.12691" lon="3.0437">
        <ele>556.6</ele>
        <time>2022-04-05T13:31:12Z</time>
      </trkpt>
      <trkpt lat="44.12684" lon="3.04376">
        <ele>556</ele>
        <time>2022-04-05T13:31:13Z</time>
      </trkpt>
      <trkpt lat="44.12678" lon="3.04381">
        <ele>555.6</ele>
        <time>2022-04-05T13:31:14Z</time>
      </trkpt>
      <trkpt lat="44.12674" lon="3.04386">
        <ele>555.4</ele>
        <time>2022-04-05T13:31:15Z</time>
      </trkpt>
      <trkpt lat="44.12669" lon="3.04393">
        <ele>555.4</ele>
        <time>2022-04-05T13:31:16Z</time>
      </trkpt>
      <trkpt lat="44.12665" lon="3.04398">
        <ele>555</ele>
        <time>2022-04-05T13:31:17Z</time>
      </trkpt>
      <trkpt lat="44.12661" lon="3.04406">
        <ele>554.8</ele>
        <time>2022-04-05T13:31:18Z</time>
      </trkpt>
      <trkpt lat="44.12657" lon="3.04413">
        <ele>554.8</ele>
        <time>2022-04-05T13:31:19Z</time>
      </trkpt>
      <trkpt lat="44.12653" lon="3.0442">
        <ele>554.8</ele>
        <time>2022-04-05T13:31:20Z</time>
      </trkpt>
      <trkpt lat="44.12649" lon="3.04428">
        <ele>554.6</ele>
        <time>2022-04-05T13:31:21Z</time>
      </trkpt>
      <trkpt lat="44.12644" lon="3.04433">
        <ele>554.6</ele>
        <time>2022-04-05T13:31:22Z</time>
      </trkpt>
      <trkpt lat="44.1264" lon="3.04437">
        <ele>554.6</ele>
        <time>2022-04-05T13:31:23Z</time>
      </trkpt>
      <trkpt lat="44.12635" lon="3.04441">
        <ele>554.8</ele>
        <time>2022-04-05T13:31:24Z</time>
      </trkpt>
      <trkpt lat="44.12631" lon="3.04445">
        <ele>554.8</ele>
        <time>2022-04-05T13:31:25Z</time>
      </trkpt>
      <trkpt lat="44.12626" lon="3.04449">
        <ele>554.8</ele>
        <time>2022-04-05T13:31:26Z</time>
      </trkpt>
      <trkpt lat="44.12622" lon="3.04454">
        <ele>554.8</ele>
        <time>2022-04-05T13:31:27Z</time>
      </trkpt>
      <trkpt lat="44.12615" lon="3.04462">
        <ele>554.8</ele>
        <time>2022-04-05T13:31:28Z</time>
      </trkpt>
      <trkpt lat="44.12608" lon="3.04468">
        <ele>554.8</ele>
        <time>2022-04-05T13:31:29Z</time>
      </trkpt>
      <trkpt lat="44.12601" lon="3.04475">
        <ele>554.8</ele>
        <time>2022-04-05T13:31:30Z</time>
      </trkpt>
      <trkpt lat="44.12598" lon="3.04478">
        <ele>554.8</ele>
        <time>2022-04-05T13:31:31Z</time>
      </trkpt>
      <trkpt lat="44.12591" lon="3.04485">
        <ele>554.6</ele>
        <time>2022-04-05T13:31:32Z</time>
      </trkpt>
      <trkpt lat="44.12585" lon="3.04489">
        <ele>554.4</ele>
        <time>2022-04-05T13:31:33Z</time>
      </trkpt>
      <trkpt lat="44.1258" lon="3.04492">
        <ele>554.2</ele>
        <time>2022-04-05T13:31:34Z</time>
      </trkpt>
      <trkpt lat="44.12575" lon="3.04496">
        <ele>553.8</ele>
        <time>2022-04-05T13:31:35Z</time>
      </trkpt>
      <trkpt lat="44.12571" lon="3.04501">
        <ele>553.6</ele>
        <time>2022-04-05T13:31:36Z</time>
      </trkpt>
      <trkpt lat="44.12566" lon="3.04508">
        <ele>553.4</ele>
        <time>2022-04-05T13:31:37Z</time>
      </trkpt>
      <trkpt lat="44.12562" lon="3.04512">
        <ele>553.2</ele>
        <time>2022-04-05T13:31:38Z</time>
      </trkpt>
      <trkpt lat="44.12559" lon="3.04517">
        <ele>553</ele>
        <time>2022-04-05T13:31:39Z</time>
      </trkpt>
      <trkpt lat="44.12556" lon="3.04521">
        <ele>552.8</ele>
        <time>2022-04-05T13:31:40Z</time>
      </trkpt>
      <trkpt lat="44.12552" lon="3.04527">
        <ele>552.6</ele>
        <time>2022-04-05T13:31:41Z</time>
      </trkpt>
      <trkpt lat="44.12548" lon="3.04532">
        <ele>552.6</ele>
        <time>2022-04-05T13:31:42Z</time>
      </trkpt>
      <trkpt lat="44.12544" lon="3.04536">
        <ele>552.4</ele>
        <time>2022-04-05T13:31:43Z</time>
      </trkpt>
      <trkpt lat="44.12538" lon="3.04541">
        <ele>552.4</ele>
        <time>2022-04-05T13:31:44Z</time>
      </trkpt>
      <trkpt lat="44.12532" lon="3.04545">
        <ele>552.2</ele>
        <time>2022-04-05T13:31:45Z</time>
      </trkpt>
      <trkpt lat="44.12525" lon="3.04548">
        <ele>552.2</ele>
        <time>2022-04-05T13:31:46Z</time>
      </trkpt>
      <trkpt lat="44.12519" lon="3.04549">
        <ele>551.6</ele>
        <time>2022-04-05T13:31:47Z</time>
      </trkpt>
      <trkpt lat="44.12511" lon="3.0455">
        <ele>551.4</ele>
        <time>2022-04-05T13:31:48Z</time>
      </trkpt>
      <trkpt lat="44.12505" lon="3.04551">
        <ele>549.4</ele>
        <time>2022-04-05T13:31:49Z</time>
      </trkpt>
      <trkpt lat="44.125" lon="3.04552">
        <ele>548.4</ele>
        <time>2022-04-05T13:31:50Z</time>
      </trkpt>
      <trkpt lat="44.12494" lon="3.04553">
        <ele>548</ele>
        <time>2022-04-05T13:31:51Z</time>
      </trkpt>
      <trkpt lat="44.12488" lon="3.04555">
        <ele>547.8</ele>
        <time>2022-04-05T13:31:52Z</time>
      </trkpt>
      <trkpt lat="44.12485" lon="3.04557">
        <ele>547.8</ele>
        <time>2022-04-05T13:31:53Z</time>
      </trkpt>
      <trkpt lat="44.12481" lon="3.0456">
        <ele>547.2</ele>
        <time>2022-04-05T13:31:54Z</time>
      </trkpt>
      <trkpt lat="44.12478" lon="3.04564">
        <ele>547</ele>
        <time>2022-04-05T13:31:55Z</time>
      </trkpt>
      <trkpt lat="44.12477" lon="3.04567">
        <ele>546.4</ele>
        <time>2022-04-05T13:31:56Z</time>
      </trkpt>
      <trkpt lat="44.12479" lon="3.0457">
        <ele>546.2</ele>
        <time>2022-04-05T13:31:57Z</time>
      </trkpt>
      <trkpt lat="44.12483" lon="3.04572">
        <ele>545.6</ele>
        <time>2022-04-05T13:31:58Z</time>
      </trkpt>
      <trkpt lat="44.12487" lon="3.04573">
        <ele>545</ele>
        <time>2022-04-05T13:31:59Z</time>
      </trkpt>
      <trkpt lat="44.12492" lon="3.04574">
        <ele>544.2</ele>
        <time>2022-04-05T13:32:00Z</time>
      </trkpt>
      <trkpt lat="44.12498" lon="3.04574">
        <ele>543.4</ele>
        <time>2022-04-05T13:32:01Z</time>
      </trkpt>
      <trkpt lat="44.12502" lon="3.04575">
        <ele>542.6</ele>
        <time>2022-04-05T13:32:02Z</time>
      </trkpt>
      <trkpt lat="44.12505" lon="3.04576">
        <ele>541.2</ele>
        <time>2022-04-05T13:32:03Z</time>
      </trkpt>
      <trkpt lat="44.12505" lon="3.04576">
        <ele>540.6</ele>
        <time>2022-04-05T13:32:04Z</time>
      </trkpt>
      <trkpt lat="44.12504" lon="3.04585">
        <ele>534.8</ele>
        <time>2022-04-05T13:32:41Z</time>
      </trkpt>
      <trkpt lat="44.12502" lon="3.04588">
        <ele>534.8</ele>
        <time>2022-04-05T13:32:42Z</time>
      </trkpt>
      <trkpt lat="44.12501" lon="3.04592">
        <ele>534.6</ele>
        <time>2022-04-05T13:32:43Z</time>
      </trkpt>
      <trkpt lat="44.125" lon="3.04597">
        <ele>534.2</ele>
        <time>2022-04-05T13:32:44Z</time>
      </trkpt>
      <trkpt lat="44.12498" lon="3.04602">
        <ele>533.4</ele>
        <time>2022-04-05T13:32:45Z</time>
      </trkpt>
      <trkpt lat="44.12496" lon="3.04607">
        <ele>532.6</ele>
        <time>2022-04-05T13:32:46Z</time>
      </trkpt>
      <trkpt lat="44.12492" lon="3.04612">
        <ele>531.2</ele>
        <time>2022-04-05T13:32:47Z</time>
      </trkpt>
      <trkpt lat="44.12489" lon="3.04616">
        <ele>530.8</ele>
        <time>2022-04-05T13:32:48Z</time>
      </trkpt>
      <trkpt lat="44.12485" lon="3.04618">
        <ele>529.2</ele>
        <time>2022-04-05T13:32:49Z</time>
      </trkpt>
      <trkpt lat="44.1248" lon="3.04623">
        <ele>528.6</ele>
        <time>2022-04-05T13:32:50Z</time>
      </trkpt>
      <trkpt lat="44.12475" lon="3.04627">
        <ele>527.2</ele>
        <time>2022-04-05T13:32:51Z</time>
      </trkpt>
      <trkpt lat="44.12471" lon="3.04631">
        <ele>526.4</ele>
        <time>2022-04-05T13:32:52Z</time>
      </trkpt>
      <trkpt lat="44.12467" lon="3.04635">
        <ele>525</ele>
        <time>2022-04-05T13:32:53Z</time>
      </trkpt>
      <trkpt lat="44.12462" lon="3.04639">
        <ele>523.8</ele>
        <time>2022-04-05T13:32:54Z</time>
      </trkpt>
      <trkpt lat="44.12457" lon="3.04645">
        <ele>523.4</ele>
        <time>2022-04-05T13:32:55Z</time>
      </trkpt>
      <trkpt lat="44.12451" lon="3.04651">
        <ele>522.8</ele>
        <time>2022-04-05T13:32:56Z</time>
      </trkpt>
      <trkpt lat="44.12445" lon="3.04658">
        <ele>522.4</ele>
        <time>2022-04-05T13:32:57Z</time>
      </trkpt>
      <trkpt lat="44.12441" lon="3.04662">
        <ele>521.8</ele>
        <time>2022-04-05T13:32:58Z</time>
      </trkpt>
      <trkpt lat="44.12435" lon="3.04666">
        <ele>521.8</ele>
        <time>2022-04-05T13:32:59Z</time>
      </trkpt>
      <trkpt lat="44.12429" lon="3.0467">
        <ele>521</ele>
        <time>2022-04-05T13:33:00Z</time>
      </trkpt>
      <trkpt lat="44.12424" lon="3.04673">
        <ele>520.6</ele>
        <time>2022-04-05T13:33:01Z</time>
      </trkpt>
      <trkpt lat="44.12421" lon="3.04676">
        <ele>519.8</ele>
        <time>2022-04-05T13:33:02Z</time>
      </trkpt>
      <trkpt lat="44.12418" lon="3.04678">
        <ele>519.2</ele>
        <time>2022-04-05T13:33:03Z</time>
      </trkpt>
      <trkpt lat="44.12415" lon="3.04681">
        <ele>519</ele>
        <time>2022-04-05T13:33:04Z</time>
      </trkpt>
      <trkpt lat="44.12412" lon="3.04685">
        <ele>518.6</ele>
        <time>2022-04-05T13:33:05Z</time>
      </trkpt>
      <trkpt lat="44.12409" lon="3.04689">
        <ele>518.4</ele>
        <time>2022-04-05T13:33:06Z</time>
      </trkpt>
      <trkpt lat="44.12407" lon="3.04692">
        <ele>518.4</ele>
        <time>2022-04-05T13:33:07Z</time>
      </trkpt>
      <trkpt lat="44.12404" lon="3.04696">
        <ele>518.4</ele>
        <time>2022-04-05T13:33:08Z</time>
      </trkpt>
      <trkpt lat="44.124" lon="3.047">
        <ele>518.4</ele>
        <time>2022-04-05T13:33:09Z</time>
      </trkpt>
      <trkpt lat="44.12398" lon="3.04703">
        <ele>518.6</ele>
        <time>2022-04-05T13:33:10Z</time>
      </trkpt>
      <trkpt lat="44.12395" lon="3.04706">
        <ele>518.8</ele>
        <time>2022-04-05T13:33:11Z</time>
      </trkpt>
      <trkpt lat="44.12392" lon="3.04709">
        <ele>519</ele>
        <time>2022-04-05T13:33:12Z</time>
      </trkpt>
      <trkpt lat="44.12389" lon="3.04712">
        <ele>519.2</ele>
        <time>2022-04-05T13:33:13Z</time>
      </trkpt>
      <trkpt lat="44.12386" lon="3.04716">
        <ele>519.2</ele>
        <time>2022-04-05T13:33:14Z</time>
      </trkpt>
      <trkpt lat="44.12384" lon="3.04719">
        <ele>519.4</ele>
        <time>2022-04-05T13:33:15Z</time>
      </trkpt>
      <trkpt lat="44.12381" lon="3.04724">
        <ele>519.8</ele>
        <time>2022-04-05T13:33:16Z</time>
      </trkpt>
      <trkpt lat="44.12378" lon="3.0473">
        <ele>519.8</ele>
        <time>2022-04-05T13:33:17Z</time>
      </trkpt>
      <trkpt lat="44.12373" lon="3.04737">
        <ele>520</ele>
        <time>2022-04-05T13:33:18Z</time>
      </trkpt>
      <trkpt lat="44.12369" lon="3.04746">
        <ele>520</ele>
        <time>2022-04-05T13:33:19Z</time>
      </trkpt>
      <trkpt lat="44.12366" lon="3.04751">
        <ele>520</ele>
        <time>2022-04-05T13:33:20Z</time>
      </trkpt>
      <trkpt lat="44.12362" lon="3.04755">
        <ele>520.2</ele>
        <time>2022-04-05T13:33:21Z</time>
      </trkpt>
      <trkpt lat="44.12358" lon="3.04758">
        <ele>520.2</ele>
        <time>2022-04-05T13:33:22Z</time>
      </trkpt>
      <trkpt lat="44.12354" lon="3.04764">
        <ele>520.2</ele>
        <time>2022-04-05T13:33:23Z</time>
      </trkpt>
      <trkpt lat="44.12348" lon="3.04773">
        <ele>519.6</ele>
        <time>2022-04-05T13:33:24Z</time>
      </trkpt>
      <trkpt lat="44.12343" lon="3.04781">
        <ele>519</ele>
        <time>2022-04-05T13:33:25Z</time>
      </trkpt>
      <trkpt lat="44.12339" lon="3.0479">
        <ele>518.8</ele>
        <time>2022-04-05T13:33:26Z</time>
      </trkpt>
      <trkpt lat="44.12335" lon="3.04798">
        <ele>518.6</ele>
        <time>2022-04-05T13:33:27Z</time>
      </trkpt>
      <trkpt lat="44.1233" lon="3.04811">
        <ele>518.4</ele>
        <time>2022-04-05T13:33:28Z</time>
      </trkpt>
      <trkpt lat="44.12326" lon="3.04823">
        <ele>517.8</ele>
        <time>2022-04-05T13:33:29Z</time>
      </trkpt>
      <trkpt lat="44.12323" lon="3.04831">
        <ele>517.6</ele>
        <time>2022-04-05T13:33:30Z</time>
      </trkpt>
      <trkpt lat="44.12318" lon="3.04839">
        <ele>517.2</ele>
        <time>2022-04-05T13:33:31Z</time>
      </trkpt>
      <trkpt lat="44.12312" lon="3.04846">
        <ele>516.6</ele>
        <time>2022-04-05T13:33:32Z</time>
      </trkpt>
      <trkpt lat="44.12307" lon="3.04853">
        <ele>515.6</ele>
        <time>2022-04-05T13:33:33Z</time>
      </trkpt>
      <trkpt lat="44.12301" lon="3.04861">
        <ele>515.2</ele>
        <time>2022-04-05T13:33:34Z</time>
      </trkpt>
      <trkpt lat="44.12294" lon="3.04869">
        <ele>513.4</ele>
        <time>2022-04-05T13:33:35Z</time>
      </trkpt>
      <trkpt lat="44.12288" lon="3.04875">
        <ele>511.4</ele>
        <time>2022-04-05T13:33:36Z</time>
      </trkpt>
      <trkpt lat="44.12284" lon="3.04879">
        <ele>510.6</ele>
        <time>2022-04-05T13:33:37Z</time>
      </trkpt>
      <trkpt lat="44.1228" lon="3.04885">
        <ele>509.6</ele>
        <time>2022-04-05T13:33:38Z</time>
      </trkpt>
      <trkpt lat="44.12276" lon="3.04892">
        <ele>509.4</ele>
        <time>2022-04-05T13:33:39Z</time>
      </trkpt>
      <trkpt lat="44.12271" lon="3.04901">
        <ele>508</ele>
        <time>2022-04-05T13:33:40Z</time>
      </trkpt>
      <trkpt lat="44.12267" lon="3.04907">
        <ele>507.6</ele>
        <time>2022-04-05T13:33:41Z</time>
      </trkpt>
      <trkpt lat="44.12263" lon="3.04913">
        <ele>507</ele>
        <time>2022-04-05T13:33:42Z</time>
      </trkpt>
      <trkpt lat="44.12258" lon="3.04918">
        <ele>506.6</ele>
        <time>2022-04-05T13:33:43Z</time>
      </trkpt>
      <trkpt lat="44.12253" lon="3.04923">
        <ele>505.8</ele>
        <time>2022-04-05T13:33:44Z</time>
      </trkpt>
      <trkpt lat="44.12247" lon="3.04928">
        <ele>505.6</ele>
        <time>2022-04-05T13:33:45Z</time>
      </trkpt>
      <trkpt lat="44.12243" lon="3.04932">
        <ele>505.2</ele>
        <time>2022-04-05T13:33:46Z</time>
      </trkpt>
      <trkpt lat="44.12238" lon="3.04936">
        <ele>504.8</ele>
        <time>2022-04-05T13:33:47Z</time>
      </trkpt>
      <trkpt lat="44.12234" lon="3.0494">
        <ele>504.8</ele>
        <time>2022-04-05T13:33:48Z</time>
      </trkpt>
      <trkpt lat="44.1223" lon="3.04943">
        <ele>504.6</ele>
        <time>2022-04-05T13:33:49Z</time>
      </trkpt>
      <trkpt lat="44.12227" lon="3.04946">
        <ele>504.2</ele>
        <time>2022-04-05T13:33:50Z</time>
      </trkpt>
      <trkpt lat="44.12224" lon="3.04949">
        <ele>504.2</ele>
        <time>2022-04-05T13:33:51Z</time>
      </trkpt>
      <trkpt lat="44.12221" lon="3.04952">
        <ele>504.2</ele>
        <time>2022-04-05T13:33:52Z</time>
      </trkpt>
      <trkpt lat="44.12217" lon="3.04955">
        <ele>504</ele>
        <time>2022-04-05T13:33:53Z</time>
      </trkpt>
      <trkpt lat="44.12215" lon="3.04958">
        <ele>504</ele>
        <time>2022-04-05T13:33:54Z</time>
      </trkpt>
      <trkpt lat="44.12213" lon="3.04961">
        <ele>504</ele>
        <time>2022-04-05T13:33:55Z</time>
      </trkpt>
      <trkpt lat="44.12211" lon="3.04964">
        <ele>504.2</ele>
        <time>2022-04-05T13:33:56Z</time>
      </trkpt>
      <trkpt lat="44.12209" lon="3.04968">
        <ele>504.2</ele>
        <time>2022-04-05T13:33:57Z</time>
      </trkpt>
      <trkpt lat="44.12206" lon="3.04973">
        <ele>504.4</ele>
        <time>2022-04-05T13:33:58Z</time>
      </trkpt>
      <trkpt lat="44.12203" lon="3.04977">
        <ele>504.4</ele>
        <time>2022-04-05T13:33:59Z</time>
      </trkpt>
      <trkpt lat="44.12201" lon="3.04982">
        <ele>504.4</ele>
        <time>2022-04-05T13:34:00Z</time>
      </trkpt>
      <trkpt lat="44.12198" lon="3.04988">
        <ele>504.4</ele>
        <time>2022-04-05T13:34:01Z</time>
      </trkpt>
      <trkpt lat="44.12195" lon="3.04996">
        <ele>504.6</ele>
        <time>2022-04-05T13:34:02Z</time>
      </trkpt>
      <trkpt lat="44.12191" lon="3.05004">
        <ele>504.6</ele>
        <time>2022-04-05T13:34:03Z</time>
      </trkpt>
      <trkpt lat="44.12187" lon="3.05014">
        <ele>504.6</ele>
        <time>2022-04-05T13:34:04Z</time>
      </trkpt>
      <trkpt lat="44.12185" lon="3.05022">
        <ele>504.6</ele>
        <time>2022-04-05T13:34:05Z</time>
      </trkpt>
      <trkpt lat="44.12183" lon="3.05031">
        <ele>504.6</ele>
        <time>2022-04-05T13:34:06Z</time>
      </trkpt>
      <trkpt lat="44.12182" lon="3.05042">
        <ele>504.2</ele>
        <time>2022-04-05T13:34:07Z</time>
      </trkpt>
      <trkpt lat="44.12181" lon="3.05052">
        <ele>504</ele>
        <time>2022-04-05T13:34:08Z</time>
      </trkpt>
      <trkpt lat="44.1218" lon="3.05061">
        <ele>502</ele>
        <time>2022-04-05T13:34:09Z</time>
      </trkpt>
      <trkpt lat="44.12179" lon="3.0507">
        <ele>501.2</ele>
        <time>2022-04-05T13:34:10Z</time>
      </trkpt>
      <trkpt lat="44.12177" lon="3.05081">
        <ele>499.2</ele>
        <time>2022-04-05T13:34:11Z</time>
      </trkpt>
      <trkpt lat="44.12175" lon="3.05092">
        <ele>498.4</ele>
        <time>2022-04-05T13:34:12Z</time>
      </trkpt>
      <trkpt lat="44.12171" lon="3.05099">
        <ele>497.8</ele>
        <time>2022-04-05T13:34:13Z</time>
      </trkpt>
      <trkpt lat="44.12166" lon="3.05107">
        <ele>497.6</ele>
        <time>2022-04-05T13:34:14Z</time>
      </trkpt>
      <trkpt lat="44.12161" lon="3.05111">
        <ele>495.8</ele>
        <time>2022-04-05T13:34:15Z</time>
      </trkpt>
      <trkpt lat="44.12156" lon="3.05116">
        <ele>495.2</ele>
        <time>2022-04-05T13:34:16Z</time>
      </trkpt>
      <trkpt lat="44.12151" lon="3.05119">
        <ele>492.6</ele>
        <time>2022-04-05T13:34:17Z</time>
      </trkpt>
      <trkpt lat="44.12148" lon="3.05123">
        <ele>490</ele>
        <time>2022-04-05T13:34:18Z</time>
      </trkpt>
      <trkpt lat="44.12146" lon="3.05127">
        <ele>489.2</ele>
        <time>2022-04-05T13:34:19Z</time>
      </trkpt>
      <trkpt lat="44.12146" lon="3.05131">
        <ele>487.8</ele>
        <time>2022-04-05T13:34:20Z</time>
      </trkpt>
      <trkpt lat="44.12142" lon="3.05136">
        <ele>487.2</ele>
        <time>2022-04-05T13:34:21Z</time>
      </trkpt>
      <trkpt lat="44.12137" lon="3.05141">
        <ele>486.6</ele>
        <time>2022-04-05T13:34:22Z</time>
      </trkpt>
      <trkpt lat="44.12133" lon="3.05147">
        <ele>486.2</ele>
        <time>2022-04-05T13:34:23Z</time>
      </trkpt>
      <trkpt lat="44.1213" lon="3.05151">
        <ele>485.8</ele>
        <time>2022-04-05T13:34:24Z</time>
      </trkpt>
      <trkpt lat="44.12125" lon="3.05157">
        <ele>485.8</ele>
        <time>2022-04-05T13:34:25Z</time>
      </trkpt>
      <trkpt lat="44.12119" lon="3.05162">
        <ele>485.4</ele>
        <time>2022-04-05T13:34:26Z</time>
      </trkpt>
      <trkpt lat="44.12113" lon="3.05165">
        <ele>485.4</ele>
        <time>2022-04-05T13:34:27Z</time>
      </trkpt>
      <trkpt lat="44.12105" lon="3.05166">
        <ele>484.8</ele>
        <time>2022-04-05T13:34:28Z</time>
      </trkpt>
      <trkpt lat="44.12098" lon="3.05165">
        <ele>484.4</ele>
        <time>2022-04-05T13:34:29Z</time>
      </trkpt>
      <trkpt lat="44.12093" lon="3.05162">
        <ele>484</ele>
        <time>2022-04-05T13:34:30Z</time>
      </trkpt>
      <trkpt lat="44.12087" lon="3.05158">
        <ele>483.2</ele>
        <time>2022-04-05T13:34:31Z</time>
      </trkpt>
      <trkpt lat="44.12082" lon="3.05155">
        <ele>482.8</ele>
        <time>2022-04-05T13:34:32Z</time>
      </trkpt>
      <trkpt lat="44.12077" lon="3.0515">
        <ele>481.8</ele>
        <time>2022-04-05T13:34:33Z</time>
      </trkpt>
      <trkpt lat="44.12074" lon="3.05147">
        <ele>481.4</ele>
        <time>2022-04-05T13:34:34Z</time>
      </trkpt>
      <trkpt lat="44.12069" lon="3.05145">
        <ele>481.2</ele>
        <time>2022-04-05T13:34:35Z</time>
      </trkpt>
      <trkpt lat="44.12065" lon="3.05142">
        <ele>481</ele>
        <time>2022-04-05T13:34:36Z</time>
      </trkpt>
      <trkpt lat="44.12061" lon="3.05141">
        <ele>480.8</ele>
        <time>2022-04-05T13:34:37Z</time>
      </trkpt>
      <trkpt lat="44.12056" lon="3.0514">
        <ele>480.8</ele>
        <time>2022-04-05T13:34:38Z</time>
      </trkpt>
      <trkpt lat="44.1205" lon="3.0514">
        <ele>480.8</ele>
        <time>2022-04-05T13:34:39Z</time>
      </trkpt>
      <trkpt lat="44.12046" lon="3.05138">
        <ele>480.6</ele>
        <time>2022-04-05T13:34:40Z</time>
      </trkpt>
      <trkpt lat="44.12042" lon="3.05136">
        <ele>480.6</ele>
        <time>2022-04-05T13:34:41Z</time>
      </trkpt>
      <trkpt lat="44.12038" lon="3.05135">
        <ele>480.6</ele>
        <time>2022-04-05T13:34:42Z</time>
      </trkpt>
      <trkpt lat="44.12033" lon="3.05135">
        <ele>480.6</ele>
        <time>2022-04-05T13:34:43Z</time>
      </trkpt>
      <trkpt lat="44.12028" lon="3.05135">
        <ele>480.6</ele>
        <time>2022-04-05T13:34:44Z</time>
      </trkpt>
      <trkpt lat="44.12022" lon="3.05134">
        <ele>480.6</ele>
        <time>2022-04-05T13:34:45Z</time>
      </trkpt>
      <trkpt lat="44.12016" lon="3.05133">
        <ele>480.4</ele>
        <time>2022-04-05T13:34:46Z</time>
      </trkpt>
      <trkpt lat="44.1201" lon="3.05133">
        <ele>480.4</ele>
        <time>2022-04-05T13:34:47Z</time>
      </trkpt>
      <trkpt lat="44.12004" lon="3.05132">
        <ele>480.4</ele>
        <time>2022-04-05T13:34:48Z</time>
      </trkpt>
      <trkpt lat="44.11998" lon="3.05132">
        <ele>480.4</ele>
        <time>2022-04-05T13:34:49Z</time>
      </trkpt>
      <trkpt lat="44.11992" lon="3.05132">
        <ele>479.8</ele>
        <time>2022-04-05T13:34:50Z</time>
      </trkpt>
      <trkpt lat="44.11988" lon="3.05134">
        <ele>479.6</ele>
        <time>2022-04-05T13:34:51Z</time>
      </trkpt>
      <trkpt lat="44.11983" lon="3.05135">
        <ele>479.4</ele>
        <time>2022-04-05T13:34:52Z</time>
      </trkpt>
      <trkpt lat="44.11977" lon="3.05135">
        <ele>479</ele>
        <time>2022-04-05T13:34:53Z</time>
      </trkpt>
      <trkpt lat="44.11974" lon="3.05135">
        <ele>478.8</ele>
        <time>2022-04-05T13:34:54Z</time>
      </trkpt>
      <trkpt lat="44.1197" lon="3.05135">
        <ele>478.6</ele>
        <time>2022-04-05T13:34:55Z</time>
      </trkpt>
      <trkpt lat="44.11966" lon="3.05134">
        <ele>478.2</ele>
        <time>2022-04-05T13:34:56Z</time>
      </trkpt>
      <trkpt lat="44.11963" lon="3.05134">
        <ele>477.8</ele>
        <time>2022-04-05T13:34:57Z</time>
      </trkpt>
      <trkpt lat="44.11961" lon="3.05134">
        <ele>477.6</ele>
        <time>2022-04-05T13:34:58Z</time>
      </trkpt>
      <trkpt lat="44.1196" lon="3.05135">
        <ele>476.6</ele>
        <time>2022-04-05T13:34:59Z</time>
      </trkpt>
      <trkpt lat="44.11957" lon="3.05139">
        <ele>463.4</ele>
      </trkpt>
      <trkpt lat="44.11955" lon="3.05144">
        <ele>463.3</ele>
      </trkpt>
      <trkpt lat="44.11953" lon="3.05148">
        <ele>463.2</ele>
      </trkpt>
      <trkpt lat="44.11952" lon="3.05151">
        <ele>463</ele>
      </trkpt>
      <trkpt lat="44.11947" lon="3.05155">
        <ele>462.7</ele>
      </trkpt>
      <trkpt lat="44.11944" lon="3.05157">
        <ele>462.4</ele>
      </trkpt>
      <trkpt lat="44.1194" lon="3.05161">
        <ele>462.7</ele>
      </trkpt>
      <trkpt lat="44.11938" lon="3.05163">
        <ele>462.9</ele>
      </trkpt>
      <trkpt lat="44.11936" lon="3.05165">
        <ele>463</ele>
      </trkpt>
      <trkpt lat="44.11933" lon="3.05167">
        <ele>463.2</ele>
      </trkpt>
      <trkpt lat="44.1193" lon="3.05169">
        <ele>463.6</ele>
      </trkpt>
      <trkpt lat="44.11927" lon="3.05171">
        <ele>463.8</ele>
      </trkpt>
      <trkpt lat="44.11924" lon="3.05172">
        <ele>464</ele>
      </trkpt>
      <trkpt lat="44.11916" lon="3.05179">
        <ele>464.3</ele>
      </trkpt>
      <trkpt lat="44.1191" lon="3.05184">
        <ele>465.4</ele>
      </trkpt>
      <trkpt lat="44.11903" lon="3.0519">
        <ele>466.1</ele>
      </trkpt>
      <trkpt lat="44.11894" lon="3.05199">
        <ele>466.3</ele>
      </trkpt>
      <trkpt lat="44.11887" lon="3.05207">
        <ele>466.4</ele>
      </trkpt>
      <trkpt lat="44.11882" lon="3.05213">
        <ele>466.8</ele>
      </trkpt>
      <trkpt lat="44.11876" lon="3.05219">
        <ele>467.2</ele>
      </trkpt>
      <trkpt lat="44.11859" lon="3.05243">
        <ele>466.5</ele>
      </trkpt>
      <trkpt lat="44.11852" lon="3.05254">
        <ele>466.8</ele>
      </trkpt>
      <trkpt lat="44.11843" lon="3.05275">
        <ele>465.6</ele>
      </trkpt>
      <trkpt lat="44.11833" lon="3.05294">
        <ele>463.5</ele>
      </trkpt>
      <trkpt lat="44.11827" lon="3.05315">
        <ele>461.6</ele>
      </trkpt>
      <trkpt lat="44.11817" lon="3.05347">
        <ele>457.9</ele>
      </trkpt>
      <trkpt lat="44.11809" lon="3.05367">
        <ele>454.4</ele>
      </trkpt>
      <trkpt lat="44.11803" lon="3.05376">
        <ele>453.5</ele>
      </trkpt>
      <trkpt lat="44.11793" lon="3.05387">
        <ele>453.3</ele>
      </trkpt>
      <trkpt lat="44.11779" lon="3.05403">
        <ele>451.9</ele>
      </trkpt>
      <trkpt lat="44.11769" lon="3.05416">
        <ele>452.2</ele>
      </trkpt>
      <trkpt lat="44.11759" lon="3.05428">
        <ele>452.9</ele>
      </trkpt>
      <trkpt lat="44.1175" lon="3.05446">
        <ele>450.8</ele>
      </trkpt>
      <trkpt lat="44.11743" lon="3.0546">
        <ele>450.7</ele>
      </trkpt>
      <trkpt lat="44.11735" lon="3.0548">
        <ele>449.4</ele>
      </trkpt>
      <trkpt lat="44.11728" lon="3.05499">
        <ele>447.6</ele>
      </trkpt>
      <trkpt lat="44.11724" lon="3.05519">
        <ele>445.2</ele>
      </trkpt>
      <trkpt lat="44.11718" lon="3.05547">
        <ele>443.5</ele>
      </trkpt>
      <trkpt lat="44.11715" lon="3.05573">
        <ele>442.7</ele>
      </trkpt>
      <trkpt lat="44.11712" lon="3.05591">
        <ele>442.1</ele>
      </trkpt>
      <trkpt lat="44.11708" lon="3.05602">
        <ele>441.5</ele>
      </trkpt>
      <trkpt lat="44.11703" lon="3.05609">
        <ele>440.8</ele>
      </trkpt>
      <trkpt lat="44.117" lon="3.0561">
        <ele>440.5</ele>
      </trkpt>
      <trkpt lat="44.11696" lon="3.05614">
        <ele>440</ele>
      </trkpt>
      <trkpt lat="44.11693" lon="3.05618">
        <ele>440</ele>
      </trkpt>
      <trkpt lat="44.11689" lon="3.05622">
        <ele>440.5</ele>
      </trkpt>
      <trkpt lat="44.11688" lon="3.05627">
        <ele>440.6</ele>
      </trkpt>
      <trkpt lat="44.11689" lon="3.05631">
        <ele>440.3</ele>
      </trkpt>
      <trkpt lat="44.11692" lon="3.05635">
        <ele>439.6</ele>
      </trkpt>
      <trkpt lat="44.11696" lon="3.05642">
        <ele>439.3</ele>
      </trkpt>
      <trkpt lat="44.11697" lon="3.0565">
        <ele>439.7</ele>
      </trkpt>
      <trkpt lat="44.11695" lon="3.05662">
        <ele>439.9</ele>
      </trkpt>
      <trkpt lat="44.11691" lon="3.05674">
        <ele>440.5</ele>
      </trkpt>
      <trkpt lat="44.11682" lon="3.05692">
        <ele>440.9</ele>
      </trkpt>
      <trkpt lat="44.11678" lon="3.057">
        <ele>441.1</ele>
      </trkpt>
      <trkpt lat="44.11673" lon="3.05706">
        <ele>441.2</ele>
      </trkpt>
      <trkpt lat="44.11663" lon="3.05718">
        <ele>442.2</ele>
      </trkpt>
      <trkpt lat="44.11658" lon="3.05724">
        <ele>443.2</ele>
      </trkpt>
      <trkpt lat="44.11655" lon="3.05737">
        <ele>442.7</ele>
      </trkpt>
      <trkpt lat="44.11649" lon="3.05746">
        <ele>442.9</ele>
      </trkpt>
      <trkpt lat="44.11644" lon="3.05765">
        <ele>441.4</ele>
      </trkpt>
      <trkpt lat="44.11637" lon="3.05781">
        <ele>441.3</ele>
      </trkpt>
      <trkpt lat="44.11624" lon="3.05807">
        <ele>443.3</ele>
      </trkpt>
      <trkpt lat="44.11615" lon="3.05825">
        <ele>445.5</ele>
      </trkpt>
      <trkpt lat="44.11604" lon="3.05846">
        <ele>448</ele>
      </trkpt>
      <trkpt lat="44.11598" lon="3.05857">
        <ele>449.4</ele>
      </trkpt>
      <trkpt lat="44.11588" lon="3.05871">
        <ele>451.2</ele>
      </trkpt>
      <trkpt lat="44.11583" lon="3.05881">
        <ele>451.6</ele>
      </trkpt>
      <trkpt lat="44.11573" lon="3.05898">
        <ele>453.4</ele>
      </trkpt>
      <trkpt lat="44.11571" lon="3.05903">
        <ele>453.7</ele>
      </trkpt>
      <trkpt lat="44.11567" lon="3.05913">
        <ele>453.8</ele>
      </trkpt>
      <trkpt lat="44.11563" lon="3.05927">
        <ele>454.2</ele>
      </trkpt>
      <trkpt lat="44.11559" lon="3.0594">
        <ele>454.5</ele>
      </trkpt>
      <trkpt lat="44.11556" lon="3.05951">
        <ele>455.4</ele>
      </trkpt>
      <trkpt lat="44.11555" lon="3.05957">
        <ele>455.3</ele>
      </trkpt>
      <trkpt lat="44.11554" lon="3.05962">
        <ele>455.3</ele>
      </trkpt>
      <trkpt lat="44.11553" lon="3.05967">
        <ele>455.6</ele>
      </trkpt>
      <trkpt lat="44.11551" lon="3.05972">
        <ele>456.1</ele>
      </trkpt>
      <trkpt lat="44.1155" lon="3.05977">
        <ele>456.7</ele>
      </trkpt>
      <trkpt lat="44.11548" lon="3.05981">
        <ele>457.5</ele>
      </trkpt>
      <trkpt lat="44.11548" lon="3.0599">
        <ele>457.4</ele>
      </trkpt>
      <trkpt lat="44.11548" lon="3.05999">
        <ele>457.5</ele>
      </trkpt>
      <trkpt lat="44.11547" lon="3.06009">
        <ele>457.6</ele>
      </trkpt>
      <trkpt lat="44.11546" lon="3.06019">
        <ele>457.3</ele>
      </trkpt>
      <trkpt lat="44.11546" lon="3.06025">
        <ele>457.3</ele>
      </trkpt>
      <trkpt lat="44.11545" lon="3.06031">
        <ele>457.1</ele>
      </trkpt>
      <trkpt lat="44.11545" lon="3.06037">
        <ele>456.7</ele>
      </trkpt>
      <trkpt lat="44.11545" lon="3.06041">
        <ele>456.6</ele>
      </trkpt>
      <trkpt lat="44.11544" lon="3.06046">
        <ele>456.5</ele>
      </trkpt>
      <trkpt lat="44.11542" lon="3.06054">
        <ele>456.5</ele>
      </trkpt>
      <trkpt lat="44.11541" lon="3.06063">
        <ele>455.7</ele>
      </trkpt>
      <trkpt lat="44.11538" lon="3.06075">
        <ele>454.8</ele>
      </trkpt>
      <trkpt lat="44.11537" lon="3.06084">
        <ele>454</ele>
      </trkpt>
      <trkpt lat="44.11534" lon="3.06097">
        <ele>453.3</ele>
      </trkpt>
      <trkpt lat="44.1153" lon="3.0611">
        <ele>452.7</ele>
      </trkpt>
      <trkpt lat="44.11527" lon="3.06119">
        <ele>451.5</ele>
      </trkpt>
      <trkpt lat="44.11526" lon="3.06124">
        <ele>450.8</ele>
      </trkpt>
      <trkpt lat="44.11522" lon="3.06134">
        <ele>449.6</ele>
      </trkpt>
      <trkpt lat="44.11519" lon="3.06147">
        <ele>447.6</ele>
      </trkpt>
      <trkpt lat="44.11515" lon="3.06158">
        <ele>445.7</ele>
      </trkpt>
      <trkpt lat="44.11512" lon="3.06171">
        <ele>443.5</ele>
      </trkpt>
      <trkpt lat="44.11509" lon="3.06179">
        <ele>441.9</ele>
      </trkpt>
      <trkpt lat="44.11507" lon="3.06185">
        <ele>440.7</ele>
      </trkpt>
      <trkpt lat="44.11506" lon="3.06189">
        <ele>439.6</ele>
      </trkpt>
      <trkpt lat="44.11503" lon="3.06194">
        <ele>438.7</ele>
      </trkpt>
      <trkpt lat="44.11501" lon="3.06197">
        <ele>438.5</ele>
      </trkpt>
      <trkpt lat="44.11496" lon="3.06202">
        <ele>438.6</ele>
      </trkpt>
      <trkpt lat="44.1149" lon="3.06208">
        <ele>438.6</ele>
      </trkpt>
      <trkpt lat="44.11483" lon="3.06214">
        <ele>438.1</ele>
      </trkpt>
      <trkpt lat="44.11476" lon="3.06218">
        <ele>437.9</ele>
      </trkpt>
      <trkpt lat="44.11469" lon="3.06223">
        <ele>437.7</ele>
      </trkpt>
      <trkpt lat="44.11461" lon="3.06228">
        <ele>439</ele>
      </trkpt>
      <trkpt lat="44.11456" lon="3.0623">
        <ele>439.7</ele>
      </trkpt>
      <trkpt lat="44.11449" lon="3.06233">
        <ele>440.6</ele>
      </trkpt>
      <trkpt lat="44.11441" lon="3.06235">
        <ele>441.2</ele>
      </trkpt>
      <trkpt lat="44.11435" lon="3.06236">
        <ele>441.7</ele>
      </trkpt>
      <trkpt lat="44.11423" lon="3.06239">
        <ele>442.4</ele>
      </trkpt>
      <trkpt lat="44.11415" lon="3.06242">
        <ele>442.5</ele>
      </trkpt>
      <trkpt lat="44.1141" lon="3.06243">
        <ele>442.9</ele>
      </trkpt>
      <trkpt lat="44.11405" lon="3.06246">
        <ele>442.7</ele>
      </trkpt>
      <trkpt lat="44.11403" lon="3.06249">
        <ele>442.2</ele>
      </trkpt>
      <trkpt lat="44.11399" lon="3.06252">
        <ele>442.2</ele>
      </trkpt>
      <trkpt lat="44.11396" lon="3.06255">
        <ele>442.3</ele>
      </trkpt>
      <trkpt lat="44.11386" lon="3.06258">
        <ele>443.1</ele>
      </trkpt>
      <trkpt lat="44.11368" lon="3.06262">
        <ele>444.5</ele>
      </trkpt>
      <trkpt lat="44.11357" lon="3.06265">
        <ele>445.2</ele>
      </trkpt>
      <trkpt lat="44.11338" lon="3.06271">
        <ele>445.4</ele>
      </trkpt>
      <trkpt lat="44.11323" lon="3.06277">
        <ele>444.6</ele>
      </trkpt>
      <trkpt lat="44.11311" lon="3.06282">
        <ele>444.6</ele>
      </trkpt>
      <trkpt lat="44.11297" lon="3.06288">
        <ele>444</ele>
      </trkpt>
      <trkpt lat="44.11257" lon="3.06309">
        <ele>440.1</ele>
      </trkpt>
      <trkpt lat="44.11236" lon="3.06318">
        <ele>440.4</ele>
      </trkpt>
      <trkpt lat="44.11217" lon="3.06324">
        <ele>440.7</ele>
      </trkpt>
      <trkpt lat="44.11203" lon="3.06327">
        <ele>441.4</ele>
      </trkpt>
      <trkpt lat="44.11189" lon="3.06326">
        <ele>442.5</ele>
      </trkpt>
      <trkpt lat="44.11177" lon="3.06324">
        <ele>443.7</ele>
      </trkpt>
      <trkpt lat="44.11167" lon="3.06321">
        <ele>444.7</ele>
      </trkpt>
      <trkpt lat="44.11151" lon="3.06318">
        <ele>445.2</ele>
      </trkpt>
      <trkpt lat="44.11141" lon="3.06316">
        <ele>445.2</ele>
      </trkpt>
      <trkpt lat="44.11132" lon="3.06316">
        <ele>445.4</ele>
      </trkpt>
      <trkpt lat="44.11115" lon="3.06317">
        <ele>445.5</ele>
      </trkpt>
      <trkpt lat="44.11102" lon="3.06319">
        <ele>446.3</ele>
      </trkpt>
      <trkpt lat="44.11096" lon="3.0632">
        <ele>446.8</ele>
      </trkpt>
      <trkpt lat="44.11089" lon="3.06321">
        <ele>447.4</ele>
      </trkpt>
      <trkpt lat="44.11078" lon="3.06325">
        <ele>448.8</ele>
      </trkpt>
      <trkpt lat="44.11072" lon="3.06328">
        <ele>449.9</ele>
      </trkpt>
      <trkpt lat="44.11064" lon="3.06336">
        <ele>450.8</ele>
      </trkpt>
      <trkpt lat="44.11059" lon="3.0634">
        <ele>451.2</ele>
      </trkpt>
      <trkpt lat="44.11055" lon="3.06344">
        <ele>451.5</ele>
      </trkpt>
      <trkpt lat="44.11053" lon="3.06346">
        <ele>451.8</ele>
      </trkpt>
      <trkpt lat="44.11052" lon="3.06345">
        <ele>452.2</ele>
      </trkpt>
      <trkpt lat="44.11051" lon="3.06339">
        <ele>453.2</ele>
      </trkpt>
      <trkpt lat="44.11049" lon="3.06326">
        <ele>455.1</ele>
      </trkpt>
      <trkpt lat="44.11048" lon="3.06318">
        <ele>455.8</ele>
      </trkpt>
      <trkpt lat="44.11048" lon="3.06302">
        <ele>457.2</ele>
      </trkpt>
      <trkpt lat="44.1105" lon="3.06289">
        <ele>458.2</ele>
      </trkpt>
      <trkpt lat="44.11052" lon="3.06272">
        <ele>459.7</ele>
      </trkpt>
      <trkpt lat="44.11053" lon="3.0626">
        <ele>461</ele>
      </trkpt>
      <trkpt lat="44.11055" lon="3.06249">
        <ele>462.4</ele>
      </trkpt>
      <trkpt lat="44.11057" lon="3.06243">
        <ele>462.9</ele>
      </trkpt>
      <trkpt lat="44.11061" lon="3.06233">
        <ele>463.6</ele>
      </trkpt>
      <trkpt lat="44.11064" lon="3.06224">
        <ele>464.4</ele>
      </trkpt>
      <trkpt lat="44.11066" lon="3.06219">
        <ele>464.5</ele>
      </trkpt>
      <trkpt lat="44.11067" lon="3.06214">
        <ele>465.1</ele>
      </trkpt>
      <trkpt lat="44.11066" lon="3.06208">
        <ele>466.2</ele>
      </trkpt>
      <trkpt lat="44.11066" lon="3.06203">
        <ele>467</ele>
      </trkpt>
      <trkpt lat="44.11068" lon="3.06197">
        <ele>467.5</ele>
      </trkpt>
      <trkpt lat="44.11079" lon="3.0617">
        <ele>470</ele>
      </trkpt>
      <trkpt lat="44.11089" lon="3.06147">
        <ele>472.3</ele>
      </trkpt>
      <trkpt lat="44.11105" lon="3.06117">
        <ele>474.3</ele>
      </trkpt>
      <trkpt lat="44.11124" lon="3.06078">
        <ele>476.4</ele>
      </trkpt>
      <trkpt lat="44.11137" lon="3.06051">
        <ele>477.8</ele>
      </trkpt>
      <trkpt lat="44.11153" lon="3.06015">
        <ele>478.9</ele>
      </trkpt>
      <trkpt lat="44.11166" lon="3.05989">
        <ele>479.8</ele>
      </trkpt>
      <trkpt lat="44.11198" lon="3.05919">
        <ele>483.5</ele>
      </trkpt>
      <trkpt lat="44.11204" lon="3.05905">
        <ele>485.7</ele>
      </trkpt>
      <trkpt lat="44.11212" lon="3.05893">
        <ele>487.4</ele>
      </trkpt>
      <trkpt lat="44.11217" lon="3.05882">
        <ele>488.9</ele>
      </trkpt>
      <trkpt lat="44.11223" lon="3.05873">
        <ele>490.3</ele>
      </trkpt>
      <trkpt lat="44.11236" lon="3.05858">
        <ele>494</ele>
      </trkpt>
      <trkpt lat="44.11247" lon="3.0585">
        <ele>496.2</ele>
      </trkpt>
      <trkpt lat="44.11267" lon="3.05831">
        <ele>501.6</ele>
      </trkpt>
      <trkpt lat="44.11267" lon="3.05828">
        <ele>501.9</ele>
      </trkpt>
      <trkpt lat="44.11267" lon="3.05824">
        <ele>502.2</ele>
      </trkpt>
      <trkpt lat="44.11265" lon="3.05818">
        <ele>502.5</ele>
      </trkpt>
      <trkpt lat="44.11262" lon="3.05812">
        <ele>502.8</ele>
      </trkpt>
      <trkpt lat="44.11252" lon="3.05794">
        <ele>503</ele>
      </trkpt>
      <trkpt lat="44.11233" lon="3.0576">
        <ele>504</ele>
      </trkpt>
      <trkpt lat="44.11206" lon="3.05706">
        <ele>504.7</ele>
      </trkpt>
      <trkpt lat="44.11195" lon="3.05686">
        <ele>504.1</ele>
      </trkpt>
      <trkpt lat="44.11193" lon="3.05679">
        <ele>503.9</ele>
      </trkpt>
      <trkpt lat="44.11193" lon="3.05672">
        <ele>503.8</ele>
      </trkpt>
      <trkpt lat="44.11192" lon="3.05663">
        <ele>503.8</ele>
      </trkpt>
      <trkpt lat="44.11193" lon="3.05657">
        <ele>503.8</ele>
      </trkpt>
      <trkpt lat="44.11195" lon="3.05651">
        <ele>504</ele>
      </trkpt>
      <trkpt lat="44.112" lon="3.05641">
        <ele>504.8</ele>
      </trkpt>
      <trkpt lat="44.11208" lon="3.05627">
        <ele>505.7</ele>
      </trkpt>
      <trkpt lat="44.11211" lon="3.05617">
        <ele>506.1</ele>
      </trkpt>
      <trkpt lat="44.11216" lon="3.05602">
        <ele>506.4</ele>
      </trkpt>
      <trkpt lat="44.11222" lon="3.05582">
        <ele>506.8</ele>
      </trkpt>
      <trkpt lat="44.11224" lon="3.0557">
        <ele>506.9</ele>
      </trkpt>
      <trkpt lat="44.11226" lon="3.05557">
        <ele>506.8</ele>
      </trkpt>
      <trkpt lat="44.1123" lon="3.05532">
        <ele>507</ele>
      </trkpt>
      <trkpt lat="44.11234" lon="3.05509">
        <ele>508.3</ele>
      </trkpt>
      <trkpt lat="44.11237" lon="3.05489">
        <ele>510</ele>
      </trkpt>
      <trkpt lat="44.11242" lon="3.05462">
        <ele>512.6</ele>
      </trkpt>
      <trkpt lat="44.11247" lon="3.05441">
        <ele>514.7</ele>
      </trkpt>
      <trkpt lat="44.1125" lon="3.05426">
        <ele>516.4</ele>
      </trkpt>
      <trkpt lat="44.11262" lon="3.05377">
        <ele>519.9</ele>
      </trkpt>
      <trkpt lat="44.11272" lon="3.05347">
        <ele>522.8</ele>
      </trkpt>
      <trkpt lat="44.11275" lon="3.05335">
        <ele>523.6</ele>
      </trkpt>
      <trkpt lat="44.1128" lon="3.05306">
        <ele>526.1</ele>
      </trkpt>
      <trkpt lat="44.11283" lon="3.05282">
        <ele>527.4</ele>
      </trkpt>
      <trkpt lat="44.11285" lon="3.05271">
        <ele>528.3</ele>
      </trkpt>
      <trkpt lat="44.11288" lon="3.05249">
        <ele>530.5</ele>
      </trkpt>
      <trkpt lat="44.1129" lon="3.05233">
        <ele>532</ele>
      </trkpt>
      <trkpt lat="44.11289" lon="3.05224">
        <ele>532.5</ele>
      </trkpt>
      <trkpt lat="44.11289" lon="3.05216">
        <ele>532.8</ele>
      </trkpt>
      <trkpt lat="44.11287" lon="3.05206">
        <ele>533.1</ele>
      </trkpt>
      <trkpt lat="44.11283" lon="3.05183">
        <ele>534.2</ele>
      </trkpt>
      <trkpt lat="44.11281" lon="3.05169">
        <ele>535.1</ele>
      </trkpt>
      <trkpt lat="44.11281" lon="3.05156">
        <ele>536.1</ele>
      </trkpt>
      <trkpt lat="44.11283" lon="3.05141">
        <ele>537.4</ele>
      </trkpt>
      <trkpt lat="44.11288" lon="3.05108">
        <ele>539.1</ele>
      </trkpt>
      <trkpt lat="44.11291" lon="3.05088">
        <ele>539.9</ele>
      </trkpt>
      <trkpt lat="44.11296" lon="3.05067">
        <ele>540.2</ele>
      </trkpt>
      <trkpt lat="44.11301" lon="3.05049">
        <ele>541.1</ele>
      </trkpt>
      <trkpt lat="44.11303" lon="3.05032">
        <ele>541.6</ele>
      </trkpt>
      <trkpt lat="44.11308" lon="3.05006">
        <ele>542.4</ele>
      </trkpt>
      <trkpt lat="44.11313" lon="3.04987">
        <ele>543.4</ele>
      </trkpt>
      <trkpt lat="44.11319" lon="3.04958">
        <ele>544</ele>
      </trkpt>
      <trkpt lat="44.11323" lon="3.04949">
        <ele>544.3</ele>
      </trkpt>
      <trkpt lat="44.1133" lon="3.04933">
        <ele>544.9</ele>
      </trkpt>
      <trkpt lat="44.11334" lon="3.04923">
        <ele>545.3</ele>
      </trkpt>
      <trkpt lat="44.11337" lon="3.04915">
        <ele>545.6</ele>
      </trkpt>
      <trkpt lat="44.11341" lon="3.04899">
        <ele>546.3</ele>
      </trkpt>
      <trkpt lat="44.11345" lon="3.04881">
        <ele>547</ele>
      </trkpt>
      <trkpt lat="44.11346" lon="3.04875">
        <ele>547.2</ele>
      </trkpt>
      <trkpt lat="44.11347" lon="3.04863">
        <ele>547.5</ele>
      </trkpt>
      <trkpt lat="44.1135" lon="3.04848">
        <ele>548.1</ele>
      </trkpt>
      <trkpt lat="44.11354" lon="3.04828">
        <ele>548.4</ele>
      </trkpt>
      <trkpt lat="44.11369" lon="3.0477">
        <ele>550.2</ele>
      </trkpt>
      <trkpt lat="44.11378" lon="3.04723">
        <ele>551.3</ele>
      </trkpt>
      <trkpt lat="44.11386" lon="3.04686">
        <ele>552.2</ele>
      </trkpt>
      <trkpt lat="44.11392" lon="3.04654">
        <ele>553.6</ele>
      </trkpt>
      <trkpt lat="44.11401" lon="3.04621">
        <ele>555.2</ele>
      </trkpt>
      <trkpt lat="44.11411" lon="3.04579">
        <ele>557.6</ele>
      </trkpt>
      <trkpt lat="44.11417" lon="3.0455">
        <ele>559</ele>
      </trkpt>
      <trkpt lat="44.11422" lon="3.04524">
        <ele>559.7</ele>
      </trkpt>
      <trkpt lat="44.11428" lon="3.0449">
        <ele>561.3</ele>
      </trkpt>
      <trkpt lat="44.11431" lon="3.04472">
        <ele>562.1</ele>
      </trkpt>
      <trkpt lat="44.11433" lon="3.04456">
        <ele>563.2</ele>
      </trkpt>
      <trkpt lat="44.11434" lon="3.04445">
        <ele>564.1</ele>
      </trkpt>
      <trkpt lat="44.11435" lon="3.04437">
        <ele>564.7</ele>
      </trkpt>
      <trkpt lat="44.11436" lon="3.04431">
        <ele>565.2</ele>
      </trkpt>
      <trkpt lat="44.11435" lon="3.04423">
        <ele>565.5</ele>
      </trkpt>
      <trkpt lat="44.11433" lon="3.04413">
        <ele>566</ele>
      </trkpt>
      <trkpt lat="44.11429" lon="3.04393">
        <ele>566.6</ele>
      </trkpt>
      <trkpt lat="44.11425" lon="3.04379">
        <ele>567.3</ele>
      </trkpt>
      <trkpt lat="44.11419" lon="3.04354">
        <ele>568.4</ele>
      </trkpt>
      <trkpt lat="44.11413" lon="3.04335">
        <ele>568.9</ele>
      </trkpt>
      <trkpt lat="44.11411" lon="3.04326">
        <ele>569.8</ele>
      </trkpt>
      <trkpt lat="44.11411" lon="3.04318">
        <ele>570.6</ele>
      </trkpt>
      <trkpt lat="44.11411" lon="3.04311">
        <ele>571.4</ele>
      </trkpt>
      <trkpt lat="44.11408" lon="3.04293">
        <ele>573.3</ele>
      </trkpt>
      <trkpt lat="44.11404" lon="3.04275">
        <ele>575.2</ele>
      </trkpt>
      <trkpt lat="44.11399" lon="3.04242">
        <ele>577.5</ele>
      </trkpt>
      <trkpt lat="44.11393" lon="3.04189">
        <ele>581.4</ele>
      </trkpt>
      <trkpt lat="44.11389" lon="3.04139">
        <ele>585</ele>
      </trkpt>
      <trkpt lat="44.11386" lon="3.04111">
        <ele>587</ele>
      </trkpt>
      <trkpt lat="44.11382" lon="3.04081">
        <ele>588.4</ele>
      </trkpt>
      <trkpt lat="44.11383" lon="3.04078">
        <ele>588.6</ele>
      </trkpt>
      <trkpt lat="44.11382" lon="3.04072">
        <ele>589</ele>
      </trkpt>
      <trkpt lat="44.11381" lon="3.04069">
        <ele>589.2</ele>
      </trkpt>
      <trkpt lat="44.1138" lon="3.04065">
        <ele>589.5</ele>
      </trkpt>
      <trkpt lat="44.1138" lon="3.0406">
        <ele>589.8</ele>
      </trkpt>
      <trkpt lat="44.11379" lon="3.04056">
        <ele>590</ele>
      </trkpt>
      <trkpt lat="44.11378" lon="3.04053">
        <ele>590.1</ele>
      </trkpt>
      <trkpt lat="44.11376" lon="3.04051">
        <ele>590.3</ele>
      </trkpt>
      <trkpt lat="44.11374" lon="3.04049">
        <ele>590.4</ele>
      </trkpt>
      <trkpt lat="44.11371" lon="3.04048">
        <ele>590.4</ele>
      </trkpt>
      <trkpt lat="44.1137" lon="3.04047">
        <ele>590.4</ele>
      </trkpt>
      <trkpt lat="44.11367" lon="3.04045">
        <ele>590.5</ele>
      </trkpt>
      <trkpt lat="44.11364" lon="3.04043">
        <ele>590.5</ele>
      </trkpt>
      <trkpt lat="44.11363" lon="3.04042">
        <ele>590.5</ele>
      </trkpt>
      <trkpt lat="44.11361" lon="3.04039">
        <ele>590.6</ele>
      </trkpt>
      <trkpt lat="44.1136" lon="3.04036">
        <ele>590.7</ele>
      </trkpt>
      <trkpt lat="44.11359" lon="3.04034">
        <ele>590.7</ele>
      </trkpt>
      <trkpt lat="44.11358" lon="3.04029">
        <ele>590.8</ele>
      </trkpt>
      <trkpt lat="44.11356" lon="3.04023">
        <ele>591</ele>
      </trkpt>
      <trkpt lat="44.11355" lon="3.0402">
        <ele>591.1</ele>
      </trkpt>
      <trkpt lat="44.11355" lon="3.04018">
        <ele>591.1</ele>
      </trkpt>
      <trkpt lat="44.11354" lon="3.04015">
        <ele>591.2</ele>
      </trkpt>
      <trkpt lat="44.11353" lon="3.04011">
        <ele>591.3</ele>
      </trkpt>
      <trkpt lat="44.1135" lon="3.04008">
        <ele>591.3</ele>
      </trkpt>
      <trkpt lat="44.11348" lon="3.04004">
        <ele>591.4</ele>
      </trkpt>
      <trkpt lat="44.11345" lon="3.04">
        <ele>591.4</ele>
      </trkpt>
      <trkpt lat="44.11343" lon="3.03996">
        <ele>591.4</ele>
      </trkpt>
      <trkpt lat="44.11341" lon="3.03993">
        <ele>591.4</ele>
      </trkpt>
      <trkpt lat="44.1134" lon="3.03988">
        <ele>591.5</ele>
      </trkpt>
      <trkpt lat="44.11339" lon="3.03983">
        <ele>591.5</ele>
      </trkpt>
      <trkpt lat="44.11339" lon="3.03971">
        <ele>591.7</ele>
      </trkpt>
      <trkpt lat="44.11339" lon="3.03957">
        <ele>592.7</ele>
      </trkpt>
      <trkpt lat="44.1134" lon="3.03931">
        <ele>606.4</ele>
        <time>2022-04-05T13:55:22Z</time>
      </trkpt>
      <trkpt lat="44.11341" lon="3.03929">
        <ele>606.6</ele>
        <time>2022-04-05T13:55:23Z</time>
      </trkpt>
      <trkpt lat="44.11341" lon="3.03926">
        <ele>606.8</ele>
        <time>2022-04-05T13:55:24Z</time>
      </trkpt>
      <trkpt lat="44.11341" lon="3.03924">
        <ele>607</ele>
        <time>2022-04-05T13:55:25Z</time>
      </trkpt>
      <trkpt lat="44.11342" lon="3.03921">
        <ele>607</ele>
        <time>2022-04-05T13:55:26Z</time>
      </trkpt>
      <trkpt lat="44.11342" lon="3.03919">
        <ele>607.2</ele>
        <time>2022-04-05T13:55:27Z</time>
      </trkpt>
      <trkpt lat="44.11343" lon="3.03917">
        <ele>607.2</ele>
        <time>2022-04-05T13:55:28Z</time>
      </trkpt>
      <trkpt lat="44.11343" lon="3.03914">
        <ele>607.4</ele>
        <time>2022-04-05T13:55:29Z</time>
      </trkpt>
      <trkpt lat="44.11343" lon="3.03912">
        <ele>607.6</ele>
        <time>2022-04-05T13:55:30Z</time>
      </trkpt>
      <trkpt lat="44.11344" lon="3.03909">
        <ele>607.8</ele>
        <time>2022-04-05T13:55:31Z</time>
      </trkpt>
      <trkpt lat="44.11344" lon="3.03907">
        <ele>608</ele>
        <time>2022-04-05T13:55:32Z</time>
      </trkpt>
      <trkpt lat="44.11345" lon="3.03905">
        <ele>608.4</ele>
        <time>2022-04-05T13:55:33Z</time>
      </trkpt>
      <trkpt lat="44.11345" lon="3.03902">
        <ele>608.6</ele>
        <time>2022-04-05T13:55:34Z</time>
      </trkpt>
      <trkpt lat="44.11346" lon="3.039">
        <ele>608.6</ele>
        <time>2022-04-05T13:55:35Z</time>
      </trkpt>
      <trkpt lat="44.11346" lon="3.03898">
        <ele>608.8</ele>
        <time>2022-04-05T13:55:36Z</time>
      </trkpt>
      <trkpt lat="44.11346" lon="3.03896">
        <ele>609</ele>
        <time>2022-04-05T13:55:37Z</time>
      </trkpt>
      <trkpt lat="44.11347" lon="3.03894">
        <ele>609.4</ele>
        <time>2022-04-05T13:55:38Z</time>
      </trkpt>
      <trkpt lat="44.11347" lon="3.03891">
        <ele>609.4</ele>
        <time>2022-04-05T13:55:39Z</time>
      </trkpt>
      <trkpt lat="44.11348" lon="3.03889">
        <ele>609.6</ele>
        <time>2022-04-05T13:55:40Z</time>
      </trkpt>
      <trkpt lat="44.11348" lon="3.03886">
        <ele>609.8</ele>
        <time>2022-04-05T13:55:41Z</time>
      </trkpt>
      <trkpt lat="44.11348" lon="3.03884">
        <ele>610</ele>
        <time>2022-04-05T13:55:42Z</time>
      </trkpt>
      <trkpt lat="44.11349" lon="3.03882">
        <ele>610</ele>
        <time>2022-04-05T13:55:43Z</time>
      </trkpt>
      <trkpt lat="44.11349" lon="3.03879">
        <ele>610.2</ele>
        <time>2022-04-05T13:55:44Z</time>
      </trkpt>
      <trkpt lat="44.11349" lon="3.03876">
        <ele>610.2</ele>
        <time>2022-04-05T13:55:45Z</time>
      </trkpt>
      <trkpt lat="44.11349" lon="3.03874">
        <ele>610.4</ele>
        <time>2022-04-05T13:55:46Z</time>
      </trkpt>
      <trkpt lat="44.11348" lon="3.03872">
        <ele>610.6</ele>
        <time>2022-04-05T13:55:47Z</time>
      </trkpt>
      <trkpt lat="44.11347" lon="3.0387">
        <ele>610.6</ele>
        <time>2022-04-05T13:55:48Z</time>
      </trkpt>
      <trkpt lat="44.11345" lon="3.03868">
        <ele>610.8</ele>
        <time>2022-04-05T13:55:49Z</time>
      </trkpt>
      <trkpt lat="44.11343" lon="3.03867">
        <ele>610.8</ele>
        <time>2022-04-05T13:55:50Z</time>
      </trkpt>
      <trkpt lat="44.11341" lon="3.03866">
        <ele>610.8</ele>
        <time>2022-04-05T13:55:51Z</time>
      </trkpt>
      <trkpt lat="44.11339" lon="3.03866">
        <ele>610.8</ele>
        <time>2022-04-05T13:55:52Z</time>
      </trkpt>
      <trkpt lat="44.11337" lon="3.03865">
        <ele>610.8</ele>
        <time>2022-04-05T13:55:53Z</time>
      </trkpt>
      <trkpt lat="44.11335" lon="3.03866">
        <ele>610.8</ele>
        <time>2022-04-05T13:55:54Z</time>
      </trkpt>
      <trkpt lat="44.11334" lon="3.03866">
        <ele>610.8</ele>
        <time>2022-04-05T13:55:55Z</time>
      </trkpt>
      <trkpt lat="44.11332" lon="3.03867">
        <ele>610.8</ele>
        <time>2022-04-05T13:55:56Z</time>
      </trkpt>
      <trkpt lat="44.11331" lon="3.03868">
        <ele>610.8</ele>
        <time>2022-04-05T13:55:57Z</time>
      </trkpt>
      <trkpt lat="44.1133" lon="3.03869">
        <ele>610.8</ele>
        <time>2022-04-05T13:55:58Z</time>
      </trkpt>
      <trkpt lat="44.11329" lon="3.0387">
        <ele>610.6</ele>
        <time>2022-04-05T13:55:59Z</time>
      </trkpt>
      <trkpt lat="44.11329" lon="3.0387">
        <ele>610.6</ele>
        <time>2022-04-05T13:56:00Z</time>
      </trkpt>
      <trkpt lat="44.11326" lon="3.03866">
        <ele>610.2</ele>
        <time>2022-04-05T13:57:53Z</time>
      </trkpt>
      <trkpt lat="44.11324" lon="3.03865">
        <ele>610.2</ele>
        <time>2022-04-05T13:57:54Z</time>
      </trkpt>
      <trkpt lat="44.11323" lon="3.03864">
        <ele>610.2</ele>
        <time>2022-04-05T13:57:55Z</time>
      </trkpt>
      <trkpt lat="44.11322" lon="3.03864">
        <ele>610.2</ele>
        <time>2022-04-05T13:57:56Z</time>
      </trkpt>
      <trkpt lat="44.1132" lon="3.03863">
        <ele>610.2</ele>
        <time>2022-04-05T13:57:57Z</time>
      </trkpt>
      <trkpt lat="44.11319" lon="3.03862">
        <ele>610.2</ele>
        <time>2022-04-05T13:57:58Z</time>
      </trkpt>
      <trkpt lat="44.11318" lon="3.0386">
        <ele>610.2</ele>
        <time>2022-04-05T13:57:59Z</time>
      </trkpt>
      <trkpt lat="44.11317" lon="3.03859">
        <ele>610.2</ele>
        <time>2022-04-05T13:58:00Z</time>
      </trkpt>
      <trkpt lat="44.11317" lon="3.03857">
        <ele>610.2</ele>
        <time>2022-04-05T13:58:01Z</time>
      </trkpt>
      <trkpt lat="44.11317" lon="3.03854">
        <ele>610.2</ele>
        <time>2022-04-05T13:58:02Z</time>
      </trkpt>
      <trkpt lat="44.11318" lon="3.03852">
        <ele>610.2</ele>
        <time>2022-04-05T13:58:03Z</time>
      </trkpt>
      <trkpt lat="44.11318" lon="3.03851">
        <ele>610</ele>
        <time>2022-04-05T13:58:04Z</time>
      </trkpt>
      <trkpt lat="44.11319" lon="3.03849">
        <ele>610</ele>
        <time>2022-04-05T13:58:05Z</time>
      </trkpt>
      <trkpt lat="44.1132" lon="3.03848">
        <ele>610</ele>
        <time>2022-04-05T13:58:06Z</time>
      </trkpt>
      <trkpt lat="44.11321" lon="3.03846">
        <ele>610</ele>
        <time>2022-04-05T13:58:07Z</time>
      </trkpt>
      <trkpt lat="44.11321" lon="3.03844">
        <ele>610</ele>
        <time>2022-04-05T13:58:08Z</time>
      </trkpt>
      <trkpt lat="44.11321" lon="3.03842">
        <ele>610</ele>
        <time>2022-04-05T13:58:09Z</time>
      </trkpt>
      <trkpt lat="44.11321" lon="3.03839">
        <ele>610.2</ele>
        <time>2022-04-05T13:58:10Z</time>
      </trkpt>
      <trkpt lat="44.11322" lon="3.03837">
        <ele>610.6</ele>
        <time>2022-04-05T13:58:11Z</time>
      </trkpt>
      <trkpt lat="44.11322" lon="3.03835">
        <ele>610.6</ele>
        <time>2022-04-05T13:58:12Z</time>
      </trkpt>
      <trkpt lat="44.11322" lon="3.03833">
        <ele>611</ele>
        <time>2022-04-05T13:58:13Z</time>
      </trkpt>
      <trkpt lat="44.11323" lon="3.0383">
        <ele>611</ele>
        <time>2022-04-05T13:58:14Z</time>
      </trkpt>
      <trkpt lat="44.11324" lon="3.03828">
        <ele>611.6</ele>
        <time>2022-04-05T13:58:15Z</time>
      </trkpt>
      <trkpt lat="44.11324" lon="3.03826">
        <ele>612</ele>
        <time>2022-04-05T13:58:16Z</time>
      </trkpt>
      <trkpt lat="44.11324" lon="3.03824">
        <ele>612</ele>
        <time>2022-04-05T13:58:17Z</time>
      </trkpt>
      <trkpt lat="44.11325" lon="3.03822">
        <ele>612.2</ele>
        <time>2022-04-05T13:58:18Z</time>
      </trkpt>
      <trkpt lat="44.11326" lon="3.0382">
        <ele>612.4</ele>
        <time>2022-04-05T13:58:19Z</time>
      </trkpt>
      <trkpt lat="44.11326" lon="3.03818">
        <ele>612.6</ele>
        <time>2022-04-05T13:58:20Z</time>
      </trkpt>
      <trkpt lat="44.11326" lon="3.03816">
        <ele>612.8</ele>
        <time>2022-04-05T13:58:21Z</time>
      </trkpt>
      <trkpt lat="44.11327" lon="3.03813">
        <ele>613.2</ele>
        <time>2022-04-05T13:58:22Z</time>
      </trkpt>
      <trkpt lat="44.11327" lon="3.03811">
        <ele>613.2</ele>
        <time>2022-04-05T13:58:23Z</time>
      </trkpt>
      <trkpt lat="44.11328" lon="3.03809">
        <ele>613.6</ele>
        <time>2022-04-05T13:58:24Z</time>
      </trkpt>
      <trkpt lat="44.11328" lon="3.03806">
        <ele>613.6</ele>
        <time>2022-04-05T13:58:25Z</time>
      </trkpt>
      <trkpt lat="44.11329" lon="3.03804">
        <ele>613.8</ele>
        <time>2022-04-05T13:58:26Z</time>
      </trkpt>
      <trkpt lat="44.1133" lon="3.03801">
        <ele>614</ele>
        <time>2022-04-05T13:58:27Z</time>
      </trkpt>
      <trkpt lat="44.1133" lon="3.03799">
        <ele>614</ele>
        <time>2022-04-05T13:58:28Z</time>
      </trkpt>
      <trkpt lat="44.11331" lon="3.03797">
        <ele>614.2</ele>
        <time>2022-04-05T13:58:29Z</time>
      </trkpt>
      <trkpt lat="44.11332" lon="3.03794">
        <ele>614.4</ele>
        <time>2022-04-05T13:58:30Z</time>
      </trkpt>
      <trkpt lat="44.11332" lon="3.03792">
        <ele>614.6</ele>
        <time>2022-04-05T13:58:31Z</time>
      </trkpt>
      <trkpt lat="44.11332" lon="3.0379">
        <ele>614.6</ele>
        <time>2022-04-05T13:58:32Z</time>
      </trkpt>
      <trkpt lat="44.11333" lon="3.03788">
        <ele>614.8</ele>
        <time>2022-04-05T13:58:33Z</time>
      </trkpt>
      <trkpt lat="44.11333" lon="3.03785">
        <ele>614.8</ele>
        <time>2022-04-05T13:58:34Z</time>
      </trkpt>
      <trkpt lat="44.11334" lon="3.03783">
        <ele>615.2</ele>
        <time>2022-04-05T13:58:35Z</time>
      </trkpt>
      <trkpt lat="44.11334" lon="3.0378">
        <ele>615.2</ele>
        <time>2022-04-05T13:58:36Z</time>
      </trkpt>
      <trkpt lat="44.11335" lon="3.03778">
        <ele>615.4</ele>
        <time>2022-04-05T13:58:37Z</time>
      </trkpt>
      <trkpt lat="44.11336" lon="3.03776">
        <ele>615.4</ele>
        <time>2022-04-05T13:58:38Z</time>
      </trkpt>
      <trkpt lat="44.11336" lon="3.03774">
        <ele>615.4</ele>
        <time>2022-04-05T13:58:39Z</time>
      </trkpt>
      <trkpt lat="44.11337" lon="3.03772">
        <ele>615.8</ele>
        <time>2022-04-05T13:58:40Z</time>
      </trkpt>
      <trkpt lat="44.11337" lon="3.0377">
        <ele>615.8</ele>
        <time>2022-04-05T13:58:41Z</time>
      </trkpt>
      <trkpt lat="44.11338" lon="3.03768">
        <ele>616.4</ele>
        <time>2022-04-05T13:58:42Z</time>
      </trkpt>
      <trkpt lat="44.11339" lon="3.03766">
        <ele>616.6</ele>
        <time>2022-04-05T13:58:43Z</time>
      </trkpt>
      <trkpt lat="44.11339" lon="3.03763">
        <ele>616.8</ele>
        <time>2022-04-05T13:58:44Z</time>
      </trkpt>
      <trkpt lat="44.1134" lon="3.03761">
        <ele>617</ele>
        <time>2022-04-05T13:58:45Z</time>
      </trkpt>
      <trkpt lat="44.11341" lon="3.03759">
        <ele>617.2</ele>
        <time>2022-04-05T13:58:46Z</time>
      </trkpt>
      <trkpt lat="44.11341" lon="3.03756">
        <ele>617.4</ele>
        <time>2022-04-05T13:58:47Z</time>
      </trkpt>
      <trkpt lat="44.11342" lon="3.03754">
        <ele>617.6</ele>
        <time>2022-04-05T13:58:48Z</time>
      </trkpt>
      <trkpt lat="44.11343" lon="3.03752">
        <ele>618</ele>
        <time>2022-04-05T13:58:49Z</time>
      </trkpt>
      <trkpt lat="44.11343" lon="3.0375">
        <ele>618.2</ele>
        <time>2022-04-05T13:58:50Z</time>
      </trkpt>
      <trkpt lat="44.11344" lon="3.03747">
        <ele>618.2</ele>
        <time>2022-04-05T13:58:51Z</time>
      </trkpt>
      <trkpt lat="44.11345" lon="3.03745">
        <ele>618.2</ele>
        <time>2022-04-05T13:58:52Z</time>
      </trkpt>
      <trkpt lat="44.11345" lon="3.03743">
        <ele>618.6</ele>
        <time>2022-04-05T13:58:53Z</time>
      </trkpt>
      <trkpt lat="44.11346" lon="3.03741">
        <ele>618.8</ele>
        <time>2022-04-05T13:58:54Z</time>
      </trkpt>
      <trkpt lat="44.11347" lon="3.03739">
        <ele>619</ele>
        <time>2022-04-05T13:58:55Z</time>
      </trkpt>
      <trkpt lat="44.11348" lon="3.03737">
        <ele>619</ele>
        <time>2022-04-05T13:58:56Z</time>
      </trkpt>
      <trkpt lat="44.11349" lon="3.03734">
        <ele>619</ele>
        <time>2022-04-05T13:58:57Z</time>
      </trkpt>
      <trkpt lat="44.11349" lon="3.03732">
        <ele>619.6</ele>
        <time>2022-04-05T13:58:58Z</time>
      </trkpt>
      <trkpt lat="44.1135" lon="3.0373">
        <ele>619.6</ele>
        <time>2022-04-05T13:58:59Z</time>
      </trkpt>
      <trkpt lat="44.11351" lon="3.03728">
        <ele>619.6</ele>
        <time>2022-04-05T13:59:00Z</time>
      </trkpt>
      <trkpt lat="44.11352" lon="3.03726">
        <ele>619.6</ele>
        <time>2022-04-05T13:59:01Z</time>
      </trkpt>
      <trkpt lat="44.11352" lon="3.03723">
        <ele>620</ele>
        <time>2022-04-05T13:59:02Z</time>
      </trkpt>
      <trkpt lat="44.11353" lon="3.03721">
        <ele>620.2</ele>
        <time>2022-04-05T13:59:03Z</time>
      </trkpt>
      <trkpt lat="44.11353" lon="3.03719">
        <ele>620.4</ele>
        <time>2022-04-05T13:59:04Z</time>
      </trkpt>
      <trkpt lat="44.11354" lon="3.03717">
        <ele>620.6</ele>
        <time>2022-04-05T13:59:05Z</time>
      </trkpt>
      <trkpt lat="44.11354" lon="3.03716">
        <ele>621</ele>
        <time>2022-04-05T13:59:06Z</time>
      </trkpt>
      <trkpt lat="44.11355" lon="3.03714">
        <ele>621.2</ele>
        <time>2022-04-05T13:59:07Z</time>
      </trkpt>
      <trkpt lat="44.11355" lon="3.03712">
        <ele>621.2</ele>
        <time>2022-04-05T13:59:08Z</time>
      </trkpt>
      <trkpt lat="44.11356" lon="3.0371">
        <ele>621.4</ele>
        <time>2022-04-05T13:59:09Z</time>
      </trkpt>
      <trkpt lat="44.11357" lon="3.03709">
        <ele>621.4</ele>
        <time>2022-04-05T13:59:10Z</time>
      </trkpt>
      <trkpt lat="44.11357" lon="3.03707">
        <ele>621.6</ele>
        <time>2022-04-05T13:59:11Z</time>
      </trkpt>
      <trkpt lat="44.11358" lon="3.03705">
        <ele>621.6</ele>
        <time>2022-04-05T13:59:12Z</time>
      </trkpt>
      <trkpt lat="44.11359" lon="3.03703">
        <ele>621.8</ele>
        <time>2022-04-05T13:59:13Z</time>
      </trkpt>
      <trkpt lat="44.1136" lon="3.03701">
        <ele>622</ele>
        <time>2022-04-05T13:59:14Z</time>
      </trkpt>
      <trkpt lat="44.11361" lon="3.037">
        <ele>622</ele>
        <time>2022-04-05T13:59:15Z</time>
      </trkpt>
      <trkpt lat="44.11362" lon="3.03698">
        <ele>622.4</ele>
        <time>2022-04-05T13:59:16Z</time>
      </trkpt>
      <trkpt lat="44.11362" lon="3.03696">
        <ele>622.4</ele>
        <time>2022-04-05T13:59:17Z</time>
      </trkpt>
      <trkpt lat="44.11363" lon="3.03694">
        <ele>622.8</ele>
        <time>2022-04-05T13:59:18Z</time>
      </trkpt>
      <trkpt lat="44.11364" lon="3.03692">
        <ele>622.8</ele>
        <time>2022-04-05T13:59:19Z</time>
      </trkpt>
      <trkpt lat="44.11365" lon="3.03691">
        <ele>623.2</ele>
        <time>2022-04-05T13:59:20Z</time>
      </trkpt>
      <trkpt lat="44.11366" lon="3.03689">
        <ele>623.2</ele>
        <time>2022-04-05T13:59:21Z</time>
      </trkpt>
      <trkpt lat="44.11367" lon="3.03687">
        <ele>623.6</ele>
        <time>2022-04-05T13:59:22Z</time>
      </trkpt>
      <trkpt lat="44.11368" lon="3.03685">
        <ele>623.8</ele>
        <time>2022-04-05T13:59:23Z</time>
      </trkpt>
      <trkpt lat="44.11369" lon="3.03684">
        <ele>624.6</ele>
        <time>2022-04-05T13:59:24Z</time>
      </trkpt>
      <trkpt lat="44.11369" lon="3.03682">
        <ele>624.8</ele>
        <time>2022-04-05T13:59:25Z</time>
      </trkpt>
      <trkpt lat="44.1137" lon="3.0368">
        <ele>625</ele>
        <time>2022-04-05T13:59:26Z</time>
      </trkpt>
      <trkpt lat="44.11371" lon="3.03678">
        <ele>625.2</ele>
        <time>2022-04-05T13:59:27Z</time>
      </trkpt>
      <trkpt lat="44.11371" lon="3.03676">
        <ele>625.4</ele>
        <time>2022-04-05T13:59:28Z</time>
      </trkpt>
      <trkpt lat="44.11372" lon="3.03674">
        <ele>625.6</ele>
        <time>2022-04-05T13:59:29Z</time>
      </trkpt>
      <trkpt lat="44.11373" lon="3.03672">
        <ele>625.6</ele>
        <time>2022-04-05T13:59:30Z</time>
      </trkpt>
      <trkpt lat="44.11374" lon="3.0367">
        <ele>625.8</ele>
        <time>2022-04-05T13:59:31Z</time>
      </trkpt>
      <trkpt lat="44.11374" lon="3.03668">
        <ele>625.8</ele>
        <time>2022-04-05T13:59:32Z</time>
      </trkpt>
      <trkpt lat="44.11375" lon="3.03666">
        <ele>626.2</ele>
        <time>2022-04-05T13:59:33Z</time>
      </trkpt>
      <trkpt lat="44.11376" lon="3.03663">
        <ele>626.4</ele>
        <time>2022-04-05T13:59:34Z</time>
      </trkpt>
      <trkpt lat="44.11376" lon="3.03661">
        <ele>626.6</ele>
        <time>2022-04-05T13:59:35Z</time>
      </trkpt>
      <trkpt lat="44.11377" lon="3.03659">
        <ele>626.8</ele>
        <time>2022-04-05T13:59:36Z</time>
      </trkpt>
      <trkpt lat="44.11377" lon="3.03657">
        <ele>627</ele>
        <time>2022-04-05T13:59:37Z</time>
      </trkpt>
      <trkpt lat="44.11378" lon="3.03655">
        <ele>627.2</ele>
        <time>2022-04-05T13:59:38Z</time>
      </trkpt>
      <trkpt lat="44.11378" lon="3.03652">
        <ele>627.2</ele>
        <time>2022-04-05T13:59:39Z</time>
      </trkpt>
      <trkpt lat="44.11379" lon="3.0365">
        <ele>627.4</ele>
        <time>2022-04-05T13:59:40Z</time>
      </trkpt>
      <trkpt lat="44.1138" lon="3.03648">
        <ele>627.6</ele>
        <time>2022-04-05T13:59:41Z</time>
      </trkpt>
      <trkpt lat="44.11381" lon="3.03646">
        <ele>627.8</ele>
        <time>2022-04-05T13:59:42Z</time>
      </trkpt>
      <trkpt lat="44.11382" lon="3.03644">
        <ele>627.8</ele>
        <time>2022-04-05T13:59:43Z</time>
      </trkpt>
      <trkpt lat="44.11382" lon="3.03642">
        <ele>628.4</ele>
        <time>2022-04-05T13:59:44Z</time>
      </trkpt>
      <trkpt lat="44.11383" lon="3.0364">
        <ele>628.6</ele>
        <time>2022-04-05T13:59:45Z</time>
      </trkpt>
      <trkpt lat="44.11384" lon="3.03638">
        <ele>628.8</ele>
        <time>2022-04-05T13:59:46Z</time>
      </trkpt>
      <trkpt lat="44.11385" lon="3.03636">
        <ele>628.8</ele>
        <time>2022-04-05T13:59:47Z</time>
      </trkpt>
      <trkpt lat="44.11386" lon="3.03634">
        <ele>628.8</ele>
        <time>2022-04-05T13:59:48Z</time>
      </trkpt>
      <trkpt lat="44.11386" lon="3.03632">
        <ele>629</ele>
        <time>2022-04-05T13:59:49Z</time>
      </trkpt>
      <trkpt lat="44.11387" lon="3.03631">
        <ele>629.2</ele>
        <time>2022-04-05T13:59:50Z</time>
      </trkpt>
      <trkpt lat="44.11388" lon="3.03629">
        <ele>629.2</ele>
        <time>2022-04-05T13:59:51Z</time>
      </trkpt>
      <trkpt lat="44.11389" lon="3.03627">
        <ele>629.4</ele>
        <time>2022-04-05T13:59:52Z</time>
      </trkpt>
      <trkpt lat="44.11389" lon="3.03625">
        <ele>629.6</ele>
        <time>2022-04-05T13:59:53Z</time>
      </trkpt>
      <trkpt lat="44.1139" lon="3.03624">
        <ele>629.6</ele>
        <time>2022-04-05T13:59:54Z</time>
      </trkpt>
      <trkpt lat="44.11391" lon="3.03623">
        <ele>629.8</ele>
        <time>2022-04-05T13:59:55Z</time>
      </trkpt>
      <trkpt lat="44.11391" lon="3.03621">
        <ele>629.8</ele>
        <time>2022-04-05T13:59:56Z</time>
      </trkpt>
      <trkpt lat="44.11392" lon="3.03619">
        <ele>630.2</ele>
        <time>2022-04-05T13:59:57Z</time>
      </trkpt>
      <trkpt lat="44.11393" lon="3.03618">
        <ele>630.4</ele>
        <time>2022-04-05T13:59:58Z</time>
      </trkpt>
      <trkpt lat="44.11394" lon="3.03616">
        <ele>630.6</ele>
        <time>2022-04-05T13:59:59Z</time>
      </trkpt>
      <trkpt lat="44.11394" lon="3.03615">
        <ele>630.8</ele>
        <time>2022-04-05T14:00:00Z</time>
      </trkpt>
      <trkpt lat="44.11395" lon="3.03613">
        <ele>630.8</ele>
        <time>2022-04-05T14:00:01Z</time>
      </trkpt>
      <trkpt lat="44.11396" lon="3.03611">
        <ele>631</ele>
        <time>2022-04-05T14:00:02Z</time>
      </trkpt>
      <trkpt lat="44.11397" lon="3.0361">
        <ele>631</ele>
        <time>2022-04-05T14:00:03Z</time>
      </trkpt>
      <trkpt lat="44.11398" lon="3.03608">
        <ele>631.2</ele>
        <time>2022-04-05T14:00:04Z</time>
      </trkpt>
      <trkpt lat="44.11399" lon="3.03606">
        <ele>631.4</ele>
        <time>2022-04-05T14:00:05Z</time>
      </trkpt>
      <trkpt lat="44.11401" lon="3.03604">
        <ele>631.4</ele>
        <time>2022-04-05T14:00:06Z</time>
      </trkpt>
      <trkpt lat="44.11402" lon="3.03603">
        <ele>631.6</ele>
        <time>2022-04-05T14:00:07Z</time>
      </trkpt>
      <trkpt lat="44.11403" lon="3.03601">
        <ele>631.8</ele>
        <time>2022-04-05T14:00:08Z</time>
      </trkpt>
      <trkpt lat="44.11404" lon="3.03599">
        <ele>632</ele>
        <time>2022-04-05T14:00:09Z</time>
      </trkpt>
      <trkpt lat="44.11405" lon="3.03597">
        <ele>632.2</ele>
        <time>2022-04-05T14:00:10Z</time>
      </trkpt>
      <trkpt lat="44.11406" lon="3.03596">
        <ele>632.6</ele>
        <time>2022-04-05T14:00:11Z</time>
      </trkpt>
      <trkpt lat="44.11407" lon="3.03594">
        <ele>633</ele>
        <time>2022-04-05T14:00:12Z</time>
      </trkpt>
      <trkpt lat="44.11408" lon="3.03593">
        <ele>633.2</ele>
        <time>2022-04-05T14:00:13Z</time>
      </trkpt>
      <trkpt lat="44.11409" lon="3.03591">
        <ele>633.4</ele>
        <time>2022-04-05T14:00:14Z</time>
      </trkpt>
      <trkpt lat="44.1141" lon="3.0359">
        <ele>633.6</ele>
        <time>2022-04-05T14:00:15Z</time>
      </trkpt>
      <trkpt lat="44.11412" lon="3.03589">
        <ele>634</ele>
        <time>2022-04-05T14:00:16Z</time>
      </trkpt>
      <trkpt lat="44.11413" lon="3.03587">
        <ele>634.2</ele>
        <time>2022-04-05T14:00:17Z</time>
      </trkpt>
      <trkpt lat="44.11414" lon="3.03585">
        <ele>634.4</ele>
        <time>2022-04-05T14:00:18Z</time>
      </trkpt>
      <trkpt lat="44.11415" lon="3.03584">
        <ele>634.4</ele>
        <time>2022-04-05T14:00:19Z</time>
      </trkpt>
      <trkpt lat="44.11417" lon="3.03582">
        <ele>634.8</ele>
        <time>2022-04-05T14:00:20Z</time>
      </trkpt>
      <trkpt lat="44.11418" lon="3.0358">
        <ele>635</ele>
        <time>2022-04-05T14:00:21Z</time>
      </trkpt>
      <trkpt lat="44.11419" lon="3.03579">
        <ele>635.4</ele>
        <time>2022-04-05T14:00:22Z</time>
      </trkpt>
      <trkpt lat="44.11421" lon="3.03578">
        <ele>635.6</ele>
        <time>2022-04-05T14:00:23Z</time>
      </trkpt>
      <trkpt lat="44.11422" lon="3.03576">
        <ele>635.8</ele>
        <time>2022-04-05T14:00:24Z</time>
      </trkpt>
      <trkpt lat="44.11424" lon="3.03575">
        <ele>635.8</ele>
        <time>2022-04-05T14:00:25Z</time>
      </trkpt>
      <trkpt lat="44.11425" lon="3.03574">
        <ele>636</ele>
        <time>2022-04-05T14:00:26Z</time>
      </trkpt>
      <trkpt lat="44.11427" lon="3.03572">
        <ele>636.2</ele>
        <time>2022-04-05T14:00:27Z</time>
      </trkpt>
      <trkpt lat="44.11428" lon="3.03572">
        <ele>636.2</ele>
        <time>2022-04-05T14:00:28Z</time>
      </trkpt>
      <trkpt lat="44.1143" lon="3.03571">
        <ele>636.4</ele>
        <time>2022-04-05T14:00:29Z</time>
      </trkpt>
      <trkpt lat="44.11432" lon="3.0357">
        <ele>636.6</ele>
        <time>2022-04-05T14:00:30Z</time>
      </trkpt>
      <trkpt lat="44.11433" lon="3.03569">
        <ele>636.8</ele>
        <time>2022-04-05T14:00:31Z</time>
      </trkpt>
      <trkpt lat="44.11435" lon="3.03568">
        <ele>636.8</ele>
        <time>2022-04-05T14:00:32Z</time>
      </trkpt>
      <trkpt lat="44.11436" lon="3.03567">
        <ele>637</ele>
        <time>2022-04-05T14:00:33Z</time>
      </trkpt>
      <trkpt lat="44.11438" lon="3.03566">
        <ele>637</ele>
        <time>2022-04-05T14:00:34Z</time>
      </trkpt>
      <trkpt lat="44.11439" lon="3.03565">
        <ele>637</ele>
        <time>2022-04-05T14:00:35Z</time>
      </trkpt>
      <trkpt lat="44.11441" lon="3.03564">
        <ele>637</ele>
        <time>2022-04-05T14:00:36Z</time>
      </trkpt>
      <trkpt lat="44.11443" lon="3.03563">
        <ele>637.2</ele>
        <time>2022-04-05T14:00:37Z</time>
      </trkpt>
      <trkpt lat="44.11444" lon="3.03561">
        <ele>637.4</ele>
        <time>2022-04-05T14:00:38Z</time>
      </trkpt>
      <trkpt lat="44.11445" lon="3.03559">
        <ele>637.6</ele>
        <time>2022-04-05T14:00:39Z</time>
      </trkpt>
      <trkpt lat="44.11447" lon="3.03558">
        <ele>637.8</ele>
        <time>2022-04-05T14:00:40Z</time>
      </trkpt>
      <trkpt lat="44.11448" lon="3.03556">
        <ele>638</ele>
        <time>2022-04-05T14:00:41Z</time>
      </trkpt>
      <trkpt lat="44.11449" lon="3.03555">
        <ele>638.2</ele>
        <time>2022-04-05T14:00:42Z</time>
      </trkpt>
      <trkpt lat="44.11451" lon="3.03554">
        <ele>638.4</ele>
        <time>2022-04-05T14:00:43Z</time>
      </trkpt>
      <trkpt lat="44.11452" lon="3.03552">
        <ele>638.8</ele>
        <time>2022-04-05T14:00:44Z</time>
      </trkpt>
      <trkpt lat="44.11454" lon="3.03551">
        <ele>639</ele>
        <time>2022-04-05T14:00:45Z</time>
      </trkpt>
      <trkpt lat="44.11455" lon="3.0355">
        <ele>639.2</ele>
        <time>2022-04-05T14:00:46Z</time>
      </trkpt>
      <trkpt lat="44.11457" lon="3.03548">
        <ele>639.6</ele>
        <time>2022-04-05T14:00:47Z</time>
      </trkpt>
      <trkpt lat="44.11458" lon="3.03547">
        <ele>639.6</ele>
        <time>2022-04-05T14:00:48Z</time>
      </trkpt>
      <trkpt lat="44.11459" lon="3.03546">
        <ele>639.8</ele>
        <time>2022-04-05T14:00:49Z</time>
      </trkpt>
      <trkpt lat="44.11461" lon="3.03544">
        <ele>640</ele>
        <time>2022-04-05T14:00:50Z</time>
      </trkpt>
      <trkpt lat="44.11462" lon="3.03543">
        <ele>640.2</ele>
        <time>2022-04-05T14:00:51Z</time>
      </trkpt>
      <trkpt lat="44.11463" lon="3.03541">
        <ele>640.2</ele>
        <time>2022-04-05T14:00:52Z</time>
      </trkpt>
      <trkpt lat="44.11465" lon="3.0354">
        <ele>640.4</ele>
        <time>2022-04-05T14:00:53Z</time>
      </trkpt>
      <trkpt lat="44.11466" lon="3.03538">
        <ele>640.4</ele>
        <time>2022-04-05T14:00:54Z</time>
      </trkpt>
      <trkpt lat="44.11467" lon="3.03537">
        <ele>640.6</ele>
        <time>2022-04-05T14:00:55Z</time>
      </trkpt>
      <trkpt lat="44.11468" lon="3.03536">
        <ele>640.8</ele>
        <time>2022-04-05T14:00:56Z</time>
      </trkpt>
      <trkpt lat="44.11469" lon="3.03535">
        <ele>641</ele>
        <time>2022-04-05T14:00:57Z</time>
      </trkpt>
      <trkpt lat="44.11471" lon="3.03534">
        <ele>641.2</ele>
        <time>2022-04-05T14:00:58Z</time>
      </trkpt>
      <trkpt lat="44.11472" lon="3.03533">
        <ele>641.4</ele>
        <time>2022-04-05T14:00:59Z</time>
      </trkpt>
      <trkpt lat="44.11473" lon="3.03532">
        <ele>641.4</ele>
        <time>2022-04-05T14:01:00Z</time>
      </trkpt>
      <trkpt lat="44.11474" lon="3.0353">
        <ele>641.4</ele>
        <time>2022-04-05T14:01:01Z</time>
      </trkpt>
      <trkpt lat="44.11475" lon="3.03529">
        <ele>641.6</ele>
        <time>2022-04-05T14:01:02Z</time>
      </trkpt>
      <trkpt lat="44.11477" lon="3.03528">
        <ele>641.6</ele>
        <time>2022-04-05T14:01:03Z</time>
      </trkpt>
      <trkpt lat="44.11478" lon="3.03526">
        <ele>641.8</ele>
        <time>2022-04-05T14:01:04Z</time>
      </trkpt>
      <trkpt lat="44.11479" lon="3.03525">
        <ele>641.8</ele>
        <time>2022-04-05T14:01:05Z</time>
      </trkpt>
      <trkpt lat="44.1148" lon="3.03524">
        <ele>642</ele>
        <time>2022-04-05T14:01:06Z</time>
      </trkpt>
      <trkpt lat="44.11481" lon="3.03523">
        <ele>642.2</ele>
        <time>2022-04-05T14:01:07Z</time>
      </trkpt>
      <trkpt lat="44.11482" lon="3.03522">
        <ele>642.2</ele>
        <time>2022-04-05T14:01:08Z</time>
      </trkpt>
      <trkpt lat="44.11482" lon="3.03522">
        <ele>642.4</ele>
        <time>2022-04-05T14:01:09Z</time>
      </trkpt>
      <trkpt lat="44.11482" lon="3.03522">
        <ele>642.4</ele>
        <time>2022-04-05T14:01:10Z</time>
      </trkpt>
      <trkpt lat="44.11482" lon="3.03522">
        <ele>642.6</ele>
        <time>2022-04-05T14:01:11Z</time>
      </trkpt>
      <trkpt lat="44.11483" lon="3.03523">
        <ele>642.8</ele>
        <time>2022-04-05T14:01:12Z</time>
      </trkpt>
      <trkpt lat="44.11484" lon="3.03523">
        <ele>642.8</ele>
        <time>2022-04-05T14:01:13Z</time>
      </trkpt>
      <trkpt lat="44.11487" lon="3.03517">
        <ele>642.6</ele>
        <time>2022-04-05T14:01:30Z</time>
      </trkpt>
      <trkpt lat="44.11488" lon="3.03516">
        <ele>642.6</ele>
        <time>2022-04-05T14:01:31Z</time>
      </trkpt>
      <trkpt lat="44.11489" lon="3.03514">
        <ele>642.8</ele>
        <time>2022-04-05T14:01:32Z</time>
      </trkpt>
      <trkpt lat="44.1149" lon="3.03512">
        <ele>643</ele>
        <time>2022-04-05T14:01:33Z</time>
      </trkpt>
      <trkpt lat="44.11491" lon="3.03511">
        <ele>643.2</ele>
        <time>2022-04-05T14:01:34Z</time>
      </trkpt>
      <trkpt lat="44.11493" lon="3.03509">
        <ele>643.2</ele>
        <time>2022-04-05T14:01:35Z</time>
      </trkpt>
      <trkpt lat="44.11494" lon="3.03507">
        <ele>643.4</ele>
        <time>2022-04-05T14:01:36Z</time>
      </trkpt>
      <trkpt lat="44.11495" lon="3.03505">
        <ele>643.6</ele>
        <time>2022-04-05T14:01:37Z</time>
      </trkpt>
      <trkpt lat="44.11496" lon="3.03503">
        <ele>643.8</ele>
        <time>2022-04-05T14:01:38Z</time>
      </trkpt>
      <trkpt lat="44.11497" lon="3.03502">
        <ele>643.8</ele>
        <time>2022-04-05T14:01:39Z</time>
      </trkpt>
      <trkpt lat="44.11498" lon="3.035">
        <ele>644</ele>
        <time>2022-04-05T14:01:40Z</time>
      </trkpt>
      <trkpt lat="44.115" lon="3.03498">
        <ele>644</ele>
        <time>2022-04-05T14:01:41Z</time>
      </trkpt>
      <trkpt lat="44.11501" lon="3.03496">
        <ele>644.2</ele>
        <time>2022-04-05T14:01:42Z</time>
      </trkpt>
      <trkpt lat="44.11502" lon="3.03495">
        <ele>644.4</ele>
        <time>2022-04-05T14:01:43Z</time>
      </trkpt>
      <trkpt lat="44.11504" lon="3.03493">
        <ele>644.4</ele>
        <time>2022-04-05T14:01:44Z</time>
      </trkpt>
      <trkpt lat="44.11505" lon="3.03492">
        <ele>644.6</ele>
        <time>2022-04-05T14:01:45Z</time>
      </trkpt>
      <trkpt lat="44.11506" lon="3.0349">
        <ele>644.8</ele>
        <time>2022-04-05T14:01:46Z</time>
      </trkpt>
      <trkpt lat="44.11507" lon="3.03488">
        <ele>645.2</ele>
        <time>2022-04-05T14:01:47Z</time>
      </trkpt>
      <trkpt lat="44.11508" lon="3.03487">
        <ele>645.2</ele>
        <time>2022-04-05T14:01:48Z</time>
      </trkpt>
      <trkpt lat="44.11509" lon="3.03485">
        <ele>645.4</ele>
        <time>2022-04-05T14:01:49Z</time>
      </trkpt>
      <trkpt lat="44.1151" lon="3.03484">
        <ele>645.6</ele>
        <time>2022-04-05T14:01:50Z</time>
      </trkpt>
      <trkpt lat="44.11512" lon="3.03482">
        <ele>646</ele>
        <time>2022-04-05T14:01:51Z</time>
      </trkpt>
      <trkpt lat="44.11513" lon="3.0348">
        <ele>646.2</ele>
        <time>2022-04-05T14:01:52Z</time>
      </trkpt>
      <trkpt lat="44.11514" lon="3.03479">
        <ele>646.4</ele>
        <time>2022-04-05T14:01:53Z</time>
      </trkpt>
      <trkpt lat="44.11515" lon="3.03477">
        <ele>646.6</ele>
        <time>2022-04-05T14:01:54Z</time>
      </trkpt>
      <trkpt lat="44.11516" lon="3.03475">
        <ele>647</ele>
        <time>2022-04-05T14:01:55Z</time>
      </trkpt>
      <trkpt lat="44.11517" lon="3.03473">
        <ele>647.4</ele>
        <time>2022-04-05T14:01:56Z</time>
      </trkpt>
      <trkpt lat="44.11518" lon="3.03471">
        <ele>647.6</ele>
        <time>2022-04-05T14:01:57Z</time>
      </trkpt>
      <trkpt lat="44.11519" lon="3.0347">
        <ele>648.2</ele>
        <time>2022-04-05T14:01:58Z</time>
      </trkpt>
      <trkpt lat="44.1152" lon="3.03468">
        <ele>648.6</ele>
        <time>2022-04-05T14:01:59Z</time>
      </trkpt>
      <trkpt lat="44.11521" lon="3.03466">
        <ele>649</ele>
        <time>2022-04-05T14:02:00Z</time>
      </trkpt>
      <trkpt lat="44.11522" lon="3.03464">
        <ele>649.2</ele>
        <time>2022-04-05T14:02:01Z</time>
      </trkpt>
      <trkpt lat="44.11524" lon="3.03462">
        <ele>649.4</ele>
        <time>2022-04-05T14:02:02Z</time>
      </trkpt>
      <trkpt lat="44.11525" lon="3.0346">
        <ele>649.6</ele>
        <time>2022-04-05T14:02:03Z</time>
      </trkpt>
      <trkpt lat="44.11526" lon="3.03458">
        <ele>650</ele>
        <time>2022-04-05T14:02:04Z</time>
      </trkpt>
      <trkpt lat="44.11527" lon="3.03457">
        <ele>650</ele>
        <time>2022-04-05T14:02:05Z</time>
      </trkpt>
      <trkpt lat="44.11528" lon="3.03455">
        <ele>650</ele>
        <time>2022-04-05T14:02:06Z</time>
      </trkpt>
      <trkpt lat="44.11529" lon="3.03453">
        <ele>650.4</ele>
        <time>2022-04-05T14:02:07Z</time>
      </trkpt>
      <trkpt lat="44.1153" lon="3.03451">
        <ele>650.4</ele>
        <time>2022-04-05T14:02:08Z</time>
      </trkpt>
      <trkpt lat="44.11531" lon="3.03449">
        <ele>650.6</ele>
        <time>2022-04-05T14:02:09Z</time>
      </trkpt>
      <trkpt lat="44.11532" lon="3.03447">
        <ele>650.8</ele>
        <time>2022-04-05T14:02:10Z</time>
      </trkpt>
      <trkpt lat="44.11533" lon="3.03445">
        <ele>650.8</ele>
        <time>2022-04-05T14:02:11Z</time>
      </trkpt>
      <trkpt lat="44.11534" lon="3.03443">
        <ele>651</ele>
        <time>2022-04-05T14:02:12Z</time>
      </trkpt>
      <trkpt lat="44.11535" lon="3.03441">
        <ele>651</ele>
        <time>2022-04-05T14:02:13Z</time>
      </trkpt>
      <trkpt lat="44.11536" lon="3.03439">
        <ele>651.2</ele>
        <time>2022-04-05T14:02:14Z</time>
      </trkpt>
      <trkpt lat="44.11537" lon="3.03437">
        <ele>651.2</ele>
        <time>2022-04-05T14:02:15Z</time>
      </trkpt>
      <trkpt lat="44.11538" lon="3.03435">
        <ele>651.6</ele>
        <time>2022-04-05T14:02:16Z</time>
      </trkpt>
      <trkpt lat="44.11539" lon="3.03433">
        <ele>651.6</ele>
        <time>2022-04-05T14:02:17Z</time>
      </trkpt>
      <trkpt lat="44.11541" lon="3.03431">
        <ele>651.8</ele>
        <time>2022-04-05T14:02:18Z</time>
      </trkpt>
      <trkpt lat="44.11542" lon="3.03429">
        <ele>652</ele>
        <time>2022-04-05T14:02:19Z</time>
      </trkpt>
      <trkpt lat="44.11543" lon="3.03427">
        <ele>652.2</ele>
        <time>2022-04-05T14:02:20Z</time>
      </trkpt>
      <trkpt lat="44.11543" lon="3.03425">
        <ele>652.4</ele>
        <time>2022-04-05T14:02:21Z</time>
      </trkpt>
      <trkpt lat="44.11543" lon="3.03422">
        <ele>652.6</ele>
        <time>2022-04-05T14:02:22Z</time>
      </trkpt>
      <trkpt lat="44.11544" lon="3.0342">
        <ele>652.6</ele>
        <time>2022-04-05T14:02:23Z</time>
      </trkpt>
      <trkpt lat="44.11546" lon="3.03418">
        <ele>653</ele>
        <time>2022-04-05T14:02:24Z</time>
      </trkpt>
      <trkpt lat="44.11546" lon="3.03416">
        <ele>653</ele>
        <time>2022-04-05T14:02:25Z</time>
      </trkpt>
      <trkpt lat="44.11547" lon="3.03414">
        <ele>653.2</ele>
        <time>2022-04-05T14:02:26Z</time>
      </trkpt>
      <trkpt lat="44.11548" lon="3.03412">
        <ele>653.6</ele>
        <time>2022-04-05T14:02:27Z</time>
      </trkpt>
      <trkpt lat="44.11549" lon="3.0341">
        <ele>653.6</ele>
        <time>2022-04-05T14:02:28Z</time>
      </trkpt>
      <trkpt lat="44.1155" lon="3.03408">
        <ele>653.8</ele>
        <time>2022-04-05T14:02:29Z</time>
      </trkpt>
      <trkpt lat="44.11551" lon="3.03405">
        <ele>653.8</ele>
        <time>2022-04-05T14:02:30Z</time>
      </trkpt>
      <trkpt lat="44.11553" lon="3.03403">
        <ele>654.4</ele>
        <time>2022-04-05T14:02:31Z</time>
      </trkpt>
      <trkpt lat="44.11554" lon="3.03401">
        <ele>654.4</ele>
        <time>2022-04-05T14:02:32Z</time>
      </trkpt>
      <trkpt lat="44.11555" lon="3.03399">
        <ele>654.6</ele>
        <time>2022-04-05T14:02:33Z</time>
      </trkpt>
      <trkpt lat="44.11556" lon="3.03397">
        <ele>654.8</ele>
        <time>2022-04-05T14:02:34Z</time>
      </trkpt>
      <trkpt lat="44.11557" lon="3.03394">
        <ele>655.4</ele>
        <time>2022-04-05T14:02:35Z</time>
      </trkpt>
      <trkpt lat="44.11558" lon="3.03392">
        <ele>655.8</ele>
        <time>2022-04-05T14:02:36Z</time>
      </trkpt>
      <trkpt lat="44.11559" lon="3.0339">
        <ele>656</ele>
        <time>2022-04-05T14:02:37Z</time>
      </trkpt>
      <trkpt lat="44.1156" lon="3.03387">
        <ele>656.2</ele>
        <time>2022-04-05T14:02:38Z</time>
      </trkpt>
      <trkpt lat="44.11561" lon="3.03385">
        <ele>656.2</ele>
        <time>2022-04-05T14:02:39Z</time>
      </trkpt>
      <trkpt lat="44.11562" lon="3.03383">
        <ele>656.4</ele>
        <time>2022-04-05T14:02:40Z</time>
      </trkpt>
      <trkpt lat="44.11563" lon="3.0338">
        <ele>656.6</ele>
        <time>2022-04-05T14:02:41Z</time>
      </trkpt>
      <trkpt lat="44.11564" lon="3.03378">
        <ele>656.6</ele>
        <time>2022-04-05T14:02:42Z</time>
      </trkpt>
      <trkpt lat="44.11565" lon="3.03376">
        <ele>656.6</ele>
        <time>2022-04-05T14:02:43Z</time>
      </trkpt>
      <trkpt lat="44.11566" lon="3.03374">
        <ele>657</ele>
        <time>2022-04-05T14:02:44Z</time>
      </trkpt>
      <trkpt lat="44.11567" lon="3.03371">
        <ele>657.2</ele>
        <time>2022-04-05T14:02:45Z</time>
      </trkpt>
      <trkpt lat="44.11567" lon="3.03369">
        <ele>657.4</ele>
        <time>2022-04-05T14:02:46Z</time>
      </trkpt>
      <trkpt lat="44.11568" lon="3.03367">
        <ele>657.8</ele>
        <time>2022-04-05T14:02:47Z</time>
      </trkpt>
      <trkpt lat="44.11569" lon="3.03364">
        <ele>658</ele>
        <time>2022-04-05T14:02:48Z</time>
      </trkpt>
      <trkpt lat="44.1157" lon="3.03362">
        <ele>658.2</ele>
        <time>2022-04-05T14:02:49Z</time>
      </trkpt>
      <trkpt lat="44.11571" lon="3.0336">
        <ele>658.4</ele>
        <time>2022-04-05T14:02:50Z</time>
      </trkpt>
      <trkpt lat="44.11572" lon="3.03358">
        <ele>658.6</ele>
        <time>2022-04-05T14:02:51Z</time>
      </trkpt>
      <trkpt lat="44.11573" lon="3.03355">
        <ele>658.8</ele>
        <time>2022-04-05T14:02:52Z</time>
      </trkpt>
      <trkpt lat="44.11574" lon="3.03353">
        <ele>659</ele>
        <time>2022-04-05T14:02:53Z</time>
      </trkpt>
      <trkpt lat="44.11575" lon="3.03351">
        <ele>659</ele>
        <time>2022-04-05T14:02:54Z</time>
      </trkpt>
      <trkpt lat="44.11576" lon="3.03348">
        <ele>659.2</ele>
        <time>2022-04-05T14:02:55Z</time>
      </trkpt>
      <trkpt lat="44.11577" lon="3.03346">
        <ele>659.4</ele>
        <time>2022-04-05T14:02:56Z</time>
      </trkpt>
      <trkpt lat="44.11578" lon="3.03344">
        <ele>659.6</ele>
        <time>2022-04-05T14:02:57Z</time>
      </trkpt>
      <trkpt lat="44.11579" lon="3.03342">
        <ele>659.8</ele>
        <time>2022-04-05T14:02:58Z</time>
      </trkpt>
      <trkpt lat="44.1158" lon="3.03339">
        <ele>660</ele>
        <time>2022-04-05T14:02:59Z</time>
      </trkpt>
      <trkpt lat="44.11581" lon="3.03337">
        <ele>660.2</ele>
        <time>2022-04-05T14:03:00Z</time>
      </trkpt>
      <trkpt lat="44.11582" lon="3.03335">
        <ele>660.2</ele>
        <time>2022-04-05T14:03:01Z</time>
      </trkpt>
      <trkpt lat="44.11583" lon="3.03332">
        <ele>660.4</ele>
        <time>2022-04-05T14:03:02Z</time>
      </trkpt>
      <trkpt lat="44.11584" lon="3.0333">
        <ele>660.6</ele>
        <time>2022-04-05T14:03:03Z</time>
      </trkpt>
      <trkpt lat="44.11585" lon="3.03327">
        <ele>660.6</ele>
        <time>2022-04-05T14:03:04Z</time>
      </trkpt>
      <trkpt lat="44.11586" lon="3.03325">
        <ele>660.8</ele>
        <time>2022-04-05T14:03:05Z</time>
      </trkpt>
      <trkpt lat="44.11587" lon="3.03322">
        <ele>660.8</ele>
        <time>2022-04-05T14:03:06Z</time>
      </trkpt>
      <trkpt lat="44.11588" lon="3.03319">
        <ele>661</ele>
        <time>2022-04-05T14:03:07Z</time>
      </trkpt>
      <trkpt lat="44.1159" lon="3.03317">
        <ele>661</ele>
        <time>2022-04-05T14:03:08Z</time>
      </trkpt>
      <trkpt lat="44.1159" lon="3.03314">
        <ele>661</ele>
        <time>2022-04-05T14:03:09Z</time>
      </trkpt>
      <trkpt lat="44.11591" lon="3.03311">
        <ele>661</ele>
        <time>2022-04-05T14:03:10Z</time>
      </trkpt>
      <trkpt lat="44.11592" lon="3.03308">
        <ele>661</ele>
        <time>2022-04-05T14:03:11Z</time>
      </trkpt>
      <trkpt lat="44.11593" lon="3.03305">
        <ele>661.2</ele>
        <time>2022-04-05T14:03:12Z</time>
      </trkpt>
      <trkpt lat="44.11594" lon="3.03302">
        <ele>661.4</ele>
        <time>2022-04-05T14:03:13Z</time>
      </trkpt>
      <trkpt lat="44.11595" lon="3.03299">
        <ele>661.4</ele>
        <time>2022-04-05T14:03:14Z</time>
      </trkpt>
      <trkpt lat="44.11597" lon="3.03296">
        <ele>661.6</ele>
        <time>2022-04-05T14:03:15Z</time>
      </trkpt>
      <trkpt lat="44.11598" lon="3.03293">
        <ele>661.6</ele>
        <time>2022-04-05T14:03:16Z</time>
      </trkpt>
      <trkpt lat="44.11599" lon="3.0329">
        <ele>661.6</ele>
        <time>2022-04-05T14:03:17Z</time>
      </trkpt>
      <trkpt lat="44.116" lon="3.03286">
        <ele>661.8</ele>
        <time>2022-04-05T14:03:18Z</time>
      </trkpt>
      <trkpt lat="44.11601" lon="3.03283">
        <ele>662</ele>
        <time>2022-04-05T14:03:19Z</time>
      </trkpt>
      <trkpt lat="44.11602" lon="3.0328">
        <ele>662.2</ele>
        <time>2022-04-05T14:03:20Z</time>
      </trkpt>
      <trkpt lat="44.11604" lon="3.03277">
        <ele>662.2</ele>
        <time>2022-04-05T14:03:21Z</time>
      </trkpt>
      <trkpt lat="44.11605" lon="3.03274">
        <ele>662.4</ele>
        <time>2022-04-05T14:03:22Z</time>
      </trkpt>
      <trkpt lat="44.11606" lon="3.03271">
        <ele>662.4</ele>
        <time>2022-04-05T14:03:23Z</time>
      </trkpt>
      <trkpt lat="44.11608" lon="3.03268">
        <ele>662.4</ele>
        <time>2022-04-05T14:03:24Z</time>
      </trkpt>
      <trkpt lat="44.1161" lon="3.03266">
        <ele>662.6</ele>
        <time>2022-04-05T14:03:25Z</time>
      </trkpt>
      <trkpt lat="44.11611" lon="3.03263">
        <ele>662.8</ele>
        <time>2022-04-05T14:03:26Z</time>
      </trkpt>
      <trkpt lat="44.11612" lon="3.0326">
        <ele>663</ele>
        <time>2022-04-05T14:03:27Z</time>
      </trkpt>
      <trkpt lat="44.11614" lon="3.03257">
        <ele>663</ele>
        <time>2022-04-05T14:03:28Z</time>
      </trkpt>
      <trkpt lat="44.11615" lon="3.03254">
        <ele>663</ele>
        <time>2022-04-05T14:03:29Z</time>
      </trkpt>
      <trkpt lat="44.11616" lon="3.03251">
        <ele>663.2</ele>
        <time>2022-04-05T14:03:30Z</time>
      </trkpt>
      <trkpt lat="44.11618" lon="3.03248">
        <ele>663.4</ele>
        <time>2022-04-05T14:03:31Z</time>
      </trkpt>
      <trkpt lat="44.11619" lon="3.03246">
        <ele>663.6</ele>
        <time>2022-04-05T14:03:32Z</time>
      </trkpt>
      <trkpt lat="44.1162" lon="3.03243">
        <ele>663.8</ele>
        <time>2022-04-05T14:03:33Z</time>
      </trkpt>
      <trkpt lat="44.11622" lon="3.0324">
        <ele>664</ele>
        <time>2022-04-05T14:03:34Z</time>
      </trkpt>
      <trkpt lat="44.11623" lon="3.03237">
        <ele>664.4</ele>
        <time>2022-04-05T14:03:35Z</time>
      </trkpt>
      <trkpt lat="44.11625" lon="3.03235">
        <ele>664.4</ele>
        <time>2022-04-05T14:03:36Z</time>
      </trkpt>
      <trkpt lat="44.11626" lon="3.03232">
        <ele>664.6</ele>
        <time>2022-04-05T14:03:37Z</time>
      </trkpt>
      <trkpt lat="44.11628" lon="3.03229">
        <ele>664.8</ele>
        <time>2022-04-05T14:03:38Z</time>
      </trkpt>
      <trkpt lat="44.11629" lon="3.03227">
        <ele>664.8</ele>
        <time>2022-04-05T14:03:39Z</time>
      </trkpt>
      <trkpt lat="44.11631" lon="3.03224">
        <ele>665</ele>
        <time>2022-04-05T14:03:40Z</time>
      </trkpt>
      <trkpt lat="44.11632" lon="3.03221">
        <ele>665</ele>
        <time>2022-04-05T14:03:41Z</time>
      </trkpt>
      <trkpt lat="44.11633" lon="3.03218">
        <ele>665.2</ele>
        <time>2022-04-05T14:03:42Z</time>
      </trkpt>
      <trkpt lat="44.11634" lon="3.03215">
        <ele>665.4</ele>
        <time>2022-04-05T14:03:43Z</time>
      </trkpt>
      <trkpt lat="44.11636" lon="3.03212">
        <ele>665.8</ele>
        <time>2022-04-05T14:03:44Z</time>
      </trkpt>
      <trkpt lat="44.11638" lon="3.0321">
        <ele>665.8</ele>
        <time>2022-04-05T14:03:45Z</time>
      </trkpt>
      <trkpt lat="44.1164" lon="3.03207">
        <ele>666</ele>
        <time>2022-04-05T14:03:46Z</time>
      </trkpt>
      <trkpt lat="44.11642" lon="3.03204">
        <ele>666.2</ele>
        <time>2022-04-05T14:03:47Z</time>
      </trkpt>
      <trkpt lat="44.11643" lon="3.03201">
        <ele>666.2</ele>
        <time>2022-04-05T14:03:48Z</time>
      </trkpt>
      <trkpt lat="44.11645" lon="3.03198">
        <ele>666.2</ele>
        <time>2022-04-05T14:03:49Z</time>
      </trkpt>
      <trkpt lat="44.11646" lon="3.03196">
        <ele>666.4</ele>
        <time>2022-04-05T14:03:50Z</time>
      </trkpt>
      <trkpt lat="44.11648" lon="3.03193">
        <ele>666.6</ele>
        <time>2022-04-05T14:03:51Z</time>
      </trkpt>
      <trkpt lat="44.1165" lon="3.03191">
        <ele>666.8</ele>
        <time>2022-04-05T14:03:52Z</time>
      </trkpt>
      <trkpt lat="44.11652" lon="3.03189">
        <ele>666.8</ele>
        <time>2022-04-05T14:03:53Z</time>
      </trkpt>
      <trkpt lat="44.11654" lon="3.03186">
        <ele>666.8</ele>
        <time>2022-04-05T14:03:54Z</time>
      </trkpt>
      <trkpt lat="44.11656" lon="3.03184">
        <ele>666.8</ele>
        <time>2022-04-05T14:03:55Z</time>
      </trkpt>
      <trkpt lat="44.11658" lon="3.03182">
        <ele>667</ele>
        <time>2022-04-05T14:03:56Z</time>
      </trkpt>
      <trkpt lat="44.1166" lon="3.0318">
        <ele>667</ele>
        <time>2022-04-05T14:03:57Z</time>
      </trkpt>
      <trkpt lat="44.11662" lon="3.03178">
        <ele>667.2</ele>
        <time>2022-04-05T14:03:58Z</time>
      </trkpt>
      <trkpt lat="44.11664" lon="3.03176">
        <ele>667.2</ele>
        <time>2022-04-05T14:03:59Z</time>
      </trkpt>
      <trkpt lat="44.11666" lon="3.03174">
        <ele>667.6</ele>
        <time>2022-04-05T14:04:00Z</time>
      </trkpt>
      <trkpt lat="44.11668" lon="3.03172">
        <ele>667.6</ele>
        <time>2022-04-05T14:04:01Z</time>
      </trkpt>
      <trkpt lat="44.1167" lon="3.03171">
        <ele>667.8</ele>
        <time>2022-04-05T14:04:02Z</time>
      </trkpt>
      <trkpt lat="44.11672" lon="3.03169">
        <ele>668</ele>
        <time>2022-04-05T14:04:03Z</time>
      </trkpt>
      <trkpt lat="44.11674" lon="3.03166">
        <ele>668.4</ele>
        <time>2022-04-05T14:04:04Z</time>
      </trkpt>
      <trkpt lat="44.11676" lon="3.03164">
        <ele>668.4</ele>
        <time>2022-04-05T14:04:05Z</time>
      </trkpt>
      <trkpt lat="44.11677" lon="3.03162">
        <ele>668.6</ele>
        <time>2022-04-05T14:04:06Z</time>
      </trkpt>
      <trkpt lat="44.11679" lon="3.0316">
        <ele>668.6</ele>
        <time>2022-04-05T14:04:07Z</time>
      </trkpt>
      <trkpt lat="44.11681" lon="3.03158">
        <ele>668.8</ele>
        <time>2022-04-05T14:04:08Z</time>
      </trkpt>
      <trkpt lat="44.11683" lon="3.03155">
        <ele>669</ele>
        <time>2022-04-05T14:04:09Z</time>
      </trkpt>
      <trkpt lat="44.11684" lon="3.03154">
        <ele>669</ele>
        <time>2022-04-05T14:04:10Z</time>
      </trkpt>
      <trkpt lat="44.11686" lon="3.03151">
        <ele>669.4</ele>
        <time>2022-04-05T14:04:11Z</time>
      </trkpt>
      <trkpt lat="44.11687" lon="3.03149">
        <ele>669.4</ele>
        <time>2022-04-05T14:04:12Z</time>
      </trkpt>
      <trkpt lat="44.11688" lon="3.03146">
        <ele>669.6</ele>
        <time>2022-04-05T14:04:13Z</time>
      </trkpt>
      <trkpt lat="44.1169" lon="3.03144">
        <ele>669.6</ele>
        <time>2022-04-05T14:04:14Z</time>
      </trkpt>
      <trkpt lat="44.11692" lon="3.03142">
        <ele>670</ele>
        <time>2022-04-05T14:04:15Z</time>
      </trkpt>
      <trkpt lat="44.11694" lon="3.0314">
        <ele>670.2</ele>
        <time>2022-04-05T14:04:16Z</time>
      </trkpt>
      <trkpt lat="44.11695" lon="3.03138">
        <ele>670.2</ele>
        <time>2022-04-05T14:04:17Z</time>
      </trkpt>
      <trkpt lat="44.11697" lon="3.03135">
        <ele>670.4</ele>
        <time>2022-04-05T14:04:18Z</time>
      </trkpt>
      <trkpt lat="44.11699" lon="3.03132">
        <ele>670.4</ele>
        <time>2022-04-05T14:04:19Z</time>
      </trkpt>
      <trkpt lat="44.117" lon="3.0313">
        <ele>670.4</ele>
        <time>2022-04-05T14:04:20Z</time>
      </trkpt>
      <trkpt lat="44.11702" lon="3.03127">
        <ele>670.4</ele>
        <time>2022-04-05T14:04:21Z</time>
      </trkpt>
      <trkpt lat="44.11704" lon="3.03125">
        <ele>670.4</ele>
        <time>2022-04-05T14:04:22Z</time>
      </trkpt>
      <trkpt lat="44.11706" lon="3.03122">
        <ele>670.4</ele>
        <time>2022-04-05T14:04:23Z</time>
      </trkpt>
      <trkpt lat="44.11708" lon="3.0312">
        <ele>670.4</ele>
        <time>2022-04-05T14:04:24Z</time>
      </trkpt>
      <trkpt lat="44.11709" lon="3.03118">
        <ele>670.4</ele>
        <time>2022-04-05T14:04:25Z</time>
      </trkpt>
      <trkpt lat="44.11711" lon="3.03115">
        <ele>670.4</ele>
        <time>2022-04-05T14:04:26Z</time>
      </trkpt>
      <trkpt lat="44.11713" lon="3.03113">
        <ele>670.4</ele>
        <time>2022-04-05T14:04:27Z</time>
      </trkpt>
      <trkpt lat="44.11714" lon="3.0311">
        <ele>670.4</ele>
        <time>2022-04-05T14:04:28Z</time>
      </trkpt>
      <trkpt lat="44.11716" lon="3.03108">
        <ele>670.4</ele>
        <time>2022-04-05T14:04:29Z</time>
      </trkpt>
      <trkpt lat="44.11718" lon="3.03105">
        <ele>670.4</ele>
        <time>2022-04-05T14:04:30Z</time>
      </trkpt>
      <trkpt lat="44.11719" lon="3.03102">
        <ele>670.4</ele>
        <time>2022-04-05T14:04:31Z</time>
      </trkpt>
      <trkpt lat="44.11721" lon="3.03099">
        <ele>670.6</ele>
        <time>2022-04-05T14:04:32Z</time>
      </trkpt>
      <trkpt lat="44.11722" lon="3.03096">
        <ele>670.6</ele>
        <time>2022-04-05T14:04:33Z</time>
      </trkpt>
      <trkpt lat="44.11724" lon="3.03094">
        <ele>670.8</ele>
        <time>2022-04-05T14:04:34Z</time>
      </trkpt>
      <trkpt lat="44.11726" lon="3.03091">
        <ele>671</ele>
        <time>2022-04-05T14:04:35Z</time>
      </trkpt>
      <trkpt lat="44.11727" lon="3.03088">
        <ele>671.4</ele>
        <time>2022-04-05T14:04:36Z</time>
      </trkpt>
      <trkpt lat="44.11729" lon="3.03085">
        <ele>671.4</ele>
        <time>2022-04-05T14:04:37Z</time>
      </trkpt>
      <trkpt lat="44.1173" lon="3.03082">
        <ele>671.6</ele>
        <time>2022-04-05T14:04:38Z</time>
      </trkpt>
      <trkpt lat="44.11732" lon="3.0308">
        <ele>671.6</ele>
        <time>2022-04-05T14:04:39Z</time>
      </trkpt>
      <trkpt lat="44.11734" lon="3.03077">
        <ele>671.8</ele>
        <time>2022-04-05T14:04:40Z</time>
      </trkpt>
      <trkpt lat="44.11735" lon="3.03074">
        <ele>672</ele>
        <time>2022-04-05T14:04:41Z</time>
      </trkpt>
      <trkpt lat="44.11737" lon="3.0307">
        <ele>672</ele>
        <time>2022-04-05T14:04:42Z</time>
      </trkpt>
      <trkpt lat="44.11738" lon="3.03067">
        <ele>672</ele>
        <time>2022-04-05T14:04:43Z</time>
      </trkpt>
      <trkpt lat="44.11739" lon="3.03065">
        <ele>672.2</ele>
        <time>2022-04-05T14:04:44Z</time>
      </trkpt>
      <trkpt lat="44.11741" lon="3.03062">
        <ele>672.4</ele>
        <time>2022-04-05T14:04:45Z</time>
      </trkpt>
      <trkpt lat="44.11743" lon="3.03059">
        <ele>672.6</ele>
        <time>2022-04-05T14:04:46Z</time>
      </trkpt>
      <trkpt lat="44.11744" lon="3.03057">
        <ele>672.6</ele>
        <time>2022-04-05T14:04:47Z</time>
      </trkpt>
      <trkpt lat="44.11746" lon="3.03054">
        <ele>672.6</ele>
        <time>2022-04-05T14:04:48Z</time>
      </trkpt>
      <trkpt lat="44.11747" lon="3.03051">
        <ele>672.8</ele>
        <time>2022-04-05T14:04:49Z</time>
      </trkpt>
      <trkpt lat="44.11749" lon="3.03049">
        <ele>672.8</ele>
        <time>2022-04-05T14:04:50Z</time>
      </trkpt>
      <trkpt lat="44.11751" lon="3.03047">
        <ele>672.8</ele>
        <time>2022-04-05T14:04:51Z</time>
      </trkpt>
      <trkpt lat="44.11752" lon="3.03044">
        <ele>672.8</ele>
        <time>2022-04-05T14:04:52Z</time>
      </trkpt>
      <trkpt lat="44.11754" lon="3.03042">
        <ele>672.8</ele>
        <time>2022-04-05T14:04:53Z</time>
      </trkpt>
      <trkpt lat="44.11756" lon="3.0304">
        <ele>672.8</ele>
        <time>2022-04-05T14:04:54Z</time>
      </trkpt>
      <trkpt lat="44.11758" lon="3.03039">
        <ele>673</ele>
        <time>2022-04-05T14:04:55Z</time>
      </trkpt>
      <trkpt lat="44.1176" lon="3.03037">
        <ele>673.6</ele>
        <time>2022-04-05T14:04:56Z</time>
      </trkpt>
      <trkpt lat="44.11763" lon="3.03036">
        <ele>673.6</ele>
        <time>2022-04-05T14:04:57Z</time>
      </trkpt>
      <trkpt lat="44.11765" lon="3.03035">
        <ele>673.8</ele>
        <time>2022-04-05T14:04:58Z</time>
      </trkpt>
      <trkpt lat="44.11768" lon="3.03035">
        <ele>673.8</ele>
        <time>2022-04-05T14:04:59Z</time>
      </trkpt>
      <trkpt lat="44.11771" lon="3.03034">
        <ele>673.8</ele>
        <time>2022-04-05T14:05:00Z</time>
      </trkpt>
      <trkpt lat="44.11774" lon="3.03034">
        <ele>674</ele>
        <time>2022-04-05T14:05:01Z</time>
      </trkpt>
      <trkpt lat="44.11777" lon="3.03033">
        <ele>674</ele>
        <time>2022-04-05T14:05:02Z</time>
      </trkpt>
      <trkpt lat="44.1178" lon="3.03032">
        <ele>674</ele>
        <time>2022-04-05T14:05:03Z</time>
      </trkpt>
      <trkpt lat="44.11783" lon="3.03031">
        <ele>674</ele>
        <time>2022-04-05T14:05:04Z</time>
      </trkpt>
      <trkpt lat="44.11786" lon="3.03031">
        <ele>674</ele>
        <time>2022-04-05T14:05:05Z</time>
      </trkpt>
      <trkpt lat="44.11789" lon="3.0303">
        <ele>674</ele>
        <time>2022-04-05T14:05:06Z</time>
      </trkpt>
      <trkpt lat="44.11791" lon="3.03029">
        <ele>673.8</ele>
        <time>2022-04-05T14:05:07Z</time>
      </trkpt>
      <trkpt lat="44.11794" lon="3.03029">
        <ele>673.8</ele>
        <time>2022-04-05T14:05:08Z</time>
      </trkpt>
      <trkpt lat="44.11797" lon="3.03028">
        <ele>673.6</ele>
        <time>2022-04-05T14:05:09Z</time>
      </trkpt>
      <trkpt lat="44.11799" lon="3.03027">
        <ele>673.4</ele>
        <time>2022-04-05T14:05:10Z</time>
      </trkpt>
      <trkpt lat="44.11802" lon="3.03027">
        <ele>673.2</ele>
        <time>2022-04-05T14:05:11Z</time>
      </trkpt>
      <trkpt lat="44.11805" lon="3.03026">
        <ele>673</ele>
        <time>2022-04-05T14:05:12Z</time>
      </trkpt>
      <trkpt lat="44.11808" lon="3.03025">
        <ele>672.8</ele>
        <time>2022-04-05T14:05:13Z</time>
      </trkpt>
      <trkpt lat="44.1181" lon="3.03024">
        <ele>672.8</ele>
        <time>2022-04-05T14:05:14Z</time>
      </trkpt>
      <trkpt lat="44.11813" lon="3.03024">
        <ele>672.6</ele>
        <time>2022-04-05T14:05:15Z</time>
      </trkpt>
      <trkpt lat="44.11816" lon="3.03023">
        <ele>672.6</ele>
        <time>2022-04-05T14:05:16Z</time>
      </trkpt>
      <trkpt lat="44.1182" lon="3.03022">
        <ele>672.4</ele>
        <time>2022-04-05T14:05:17Z</time>
      </trkpt>
      <trkpt lat="44.11823" lon="3.03022">
        <ele>672.4</ele>
        <time>2022-04-05T14:05:18Z</time>
      </trkpt>
      <trkpt lat="44.11825" lon="3.03023">
        <ele>672.2</ele>
        <time>2022-04-05T14:05:19Z</time>
      </trkpt>
      <trkpt lat="44.11827" lon="3.03024">
        <ele>672.2</ele>
        <time>2022-04-05T14:05:20Z</time>
      </trkpt>
      <trkpt lat="44.11828" lon="3.03024">
        <ele>672</ele>
        <time>2022-04-05T14:05:21Z</time>
      </trkpt>
      <trkpt lat="44.1183" lon="3.03021">
        <ele>670.2</ele>
        <time>2022-04-05T14:06:39Z</time>
      </trkpt>
      <trkpt lat="44.11831" lon="3.0302">
        <ele>670.2</ele>
        <time>2022-04-05T14:06:40Z</time>
      </trkpt>
      <trkpt lat="44.11832" lon="3.03018">
        <ele>670.2</ele>
        <time>2022-04-05T14:06:41Z</time>
      </trkpt>
      <trkpt lat="44.11833" lon="3.03017">
        <ele>670.2</ele>
        <time>2022-04-05T14:06:42Z</time>
      </trkpt>
      <trkpt lat="44.11835" lon="3.03016">
        <ele>670.2</ele>
        <time>2022-04-05T14:06:43Z</time>
      </trkpt>
      <trkpt lat="44.11836" lon="3.03014">
        <ele>670.2</ele>
        <time>2022-04-05T14:06:44Z</time>
      </trkpt>
      <trkpt lat="44.11838" lon="3.03012">
        <ele>670.2</ele>
        <time>2022-04-05T14:06:45Z</time>
      </trkpt>
      <trkpt lat="44.11839" lon="3.0301">
        <ele>670.2</ele>
        <time>2022-04-05T14:06:46Z</time>
      </trkpt>
      <trkpt lat="44.1184" lon="3.03007">
        <ele>670.2</ele>
        <time>2022-04-05T14:06:47Z</time>
      </trkpt>
      <trkpt lat="44.1184" lon="3.03005">
        <ele>670.2</ele>
        <time>2022-04-05T14:06:48Z</time>
      </trkpt>
      <trkpt lat="44.11841" lon="3.03002">
        <ele>670.2</ele>
        <time>2022-04-05T14:06:49Z</time>
      </trkpt>
      <trkpt lat="44.11842" lon="3.02999">
        <ele>670.4</ele>
        <time>2022-04-05T14:06:50Z</time>
      </trkpt>
      <trkpt lat="44.11843" lon="3.02996">
        <ele>670.4</ele>
        <time>2022-04-05T14:06:51Z</time>
      </trkpt>
      <trkpt lat="44.11843" lon="3.02993">
        <ele>670.6</ele>
        <time>2022-04-05T14:06:52Z</time>
      </trkpt>
      <trkpt lat="44.11844" lon="3.0299">
        <ele>670.6</ele>
        <time>2022-04-05T14:06:53Z</time>
      </trkpt>
      <trkpt lat="44.11844" lon="3.02987">
        <ele>670.8</ele>
        <time>2022-04-05T14:06:54Z</time>
      </trkpt>
      <trkpt lat="44.11845" lon="3.02984">
        <ele>671</ele>
        <time>2022-04-05T14:06:55Z</time>
      </trkpt>
      <trkpt lat="44.11845" lon="3.0298">
        <ele>671</ele>
        <time>2022-04-05T14:06:56Z</time>
      </trkpt>
      <trkpt lat="44.11845" lon="3.02977">
        <ele>671.2</ele>
        <time>2022-04-05T14:06:57Z</time>
      </trkpt>
      <trkpt lat="44.11845" lon="3.02973">
        <ele>671.4</ele>
        <time>2022-04-05T14:06:58Z</time>
      </trkpt>
      <trkpt lat="44.11845" lon="3.0297">
        <ele>671.4</ele>
        <time>2022-04-05T14:06:59Z</time>
      </trkpt>
      <trkpt lat="44.11845" lon="3.02967">
        <ele>671.8</ele>
        <time>2022-04-05T14:07:00Z</time>
      </trkpt>
      <trkpt lat="44.11845" lon="3.02963">
        <ele>671.8</ele>
        <time>2022-04-05T14:07:01Z</time>
      </trkpt>
      <trkpt lat="44.11845" lon="3.0296">
        <ele>672.2</ele>
        <time>2022-04-05T14:07:02Z</time>
      </trkpt>
      <trkpt lat="44.11846" lon="3.02957">
        <ele>672.6</ele>
        <time>2022-04-05T14:07:03Z</time>
      </trkpt>
      <trkpt lat="44.11846" lon="3.02953">
        <ele>672.8</ele>
        <time>2022-04-05T14:07:04Z</time>
      </trkpt>
      <trkpt lat="44.11846" lon="3.0295">
        <ele>673</ele>
        <time>2022-04-05T14:07:05Z</time>
      </trkpt>
      <trkpt lat="44.11846" lon="3.02947">
        <ele>673.4</ele>
        <time>2022-04-05T14:07:06Z</time>
      </trkpt>
      <trkpt lat="44.11846" lon="3.02944">
        <ele>673.8</ele>
        <time>2022-04-05T14:07:07Z</time>
      </trkpt>
      <trkpt lat="44.11847" lon="3.02941">
        <ele>674</ele>
        <time>2022-04-05T14:07:08Z</time>
      </trkpt>
      <trkpt lat="44.11847" lon="3.02937">
        <ele>674.2</ele>
        <time>2022-04-05T14:07:09Z</time>
      </trkpt>
      <trkpt lat="44.11847" lon="3.02934">
        <ele>674.4</ele>
        <time>2022-04-05T14:07:10Z</time>
      </trkpt>
      <trkpt lat="44.11847" lon="3.02931">
        <ele>674.6</ele>
        <time>2022-04-05T14:07:11Z</time>
      </trkpt>
      <trkpt lat="44.11848" lon="3.02927">
        <ele>674.6</ele>
        <time>2022-04-05T14:07:12Z</time>
      </trkpt>
      <trkpt lat="44.11848" lon="3.02924">
        <ele>675</ele>
        <time>2022-04-05T14:07:13Z</time>
      </trkpt>
      <trkpt lat="44.11849" lon="3.0292">
        <ele>675</ele>
        <time>2022-04-05T14:07:14Z</time>
      </trkpt>
      <trkpt lat="44.11849" lon="3.02919">
        <ele>675</ele>
        <time>2022-04-05T14:07:15Z</time>
      </trkpt>
      <trkpt lat="44.11849" lon="3.02918">
        <ele>675.2</ele>
        <time>2022-04-05T14:07:16Z</time>
      </trkpt>
      <trkpt lat="44.11848" lon="3.02916">
        <ele>675.2</ele>
        <time>2022-04-05T14:07:17Z</time>
      </trkpt>
      <trkpt lat="44.11848" lon="3.02915">
        <ele>675.2</ele>
        <time>2022-04-05T14:07:18Z</time>
      </trkpt>
      <trkpt lat="44.11848" lon="3.02914">
        <ele>675.4</ele>
        <time>2022-04-05T14:07:19Z</time>
      </trkpt>
      <trkpt lat="44.11848" lon="3.02912">
        <ele>675.4</ele>
        <time>2022-04-05T14:07:20Z</time>
      </trkpt>
      <trkpt lat="44.11848" lon="3.02911">
        <ele>675.4</ele>
        <time>2022-04-05T14:07:21Z</time>
      </trkpt>
      <trkpt lat="44.11848" lon="3.0291">
        <ele>675.4</ele>
        <time>2022-04-05T14:07:22Z</time>
      </trkpt>
      <trkpt lat="44.11848" lon="3.02908">
        <ele>675.4</ele>
        <time>2022-04-05T14:07:23Z</time>
      </trkpt>
      <trkpt lat="44.11848" lon="3.02907">
        <ele>675.4</ele>
        <time>2022-04-05T14:07:24Z</time>
      </trkpt>
      <trkpt lat="44.11848" lon="3.02906">
        <ele>675.4</ele>
        <time>2022-04-05T14:07:25Z</time>
      </trkpt>
      <trkpt lat="44.11846" lon="3.02891">
        <ele>675.4</ele>
        <time>2022-04-05T14:07:26Z</time>
      </trkpt>
      <trkpt lat="44.11844" lon="3.0289">
        <ele>675.4</ele>
        <time>2022-04-05T14:07:27Z</time>
      </trkpt>
      <trkpt lat="44.1184" lon="3.02888">
        <ele>675.2</ele>
        <time>2022-04-05T14:07:28Z</time>
      </trkpt>
      <trkpt lat="44.11837" lon="3.02887">
        <ele>675.2</ele>
        <time>2022-04-05T14:07:29Z</time>
      </trkpt>
      <trkpt lat="44.11835" lon="3.02886">
        <ele>675.2</ele>
        <time>2022-04-05T14:07:30Z</time>
      </trkpt>
      <trkpt lat="44.11832" lon="3.02885">
        <ele>675.2</ele>
        <time>2022-04-05T14:07:31Z</time>
      </trkpt>
      <trkpt lat="44.11831" lon="3.02884">
        <ele>675.2</ele>
        <time>2022-04-05T14:07:32Z</time>
      </trkpt>
      <trkpt lat="44.11829" lon="3.02883">
        <ele>675.2</ele>
        <time>2022-04-05T14:07:33Z</time>
      </trkpt>
      <trkpt lat="44.11828" lon="3.02882">
        <ele>675.2</ele>
        <time>2022-04-05T14:07:34Z</time>
      </trkpt>
      <trkpt lat="44.11826" lon="3.02881">
        <ele>675.4</ele>
        <time>2022-04-05T14:07:35Z</time>
      </trkpt>
      <trkpt lat="44.11825" lon="3.0288">
        <ele>676</ele>
        <time>2022-04-05T14:07:36Z</time>
      </trkpt>
      <trkpt lat="44.11824" lon="3.0288">
        <ele>676</ele>
        <time>2022-04-05T14:07:37Z</time>
      </trkpt>
      <trkpt lat="44.11823" lon="3.02878">
        <ele>676.6</ele>
        <time>2022-04-05T14:07:38Z</time>
      </trkpt>
      <trkpt lat="44.11821" lon="3.02878">
        <ele>676.8</ele>
        <time>2022-04-05T14:07:39Z</time>
      </trkpt>
      <trkpt lat="44.11819" lon="3.02877">
        <ele>677.6</ele>
        <time>2022-04-05T14:07:40Z</time>
      </trkpt>
      <trkpt lat="44.11817" lon="3.02876">
        <ele>678.2</ele>
        <time>2022-04-05T14:07:41Z</time>
      </trkpt>
      <trkpt lat="44.11815" lon="3.02876">
        <ele>678.6</ele>
        <time>2022-04-05T14:07:42Z</time>
      </trkpt>
      <trkpt lat="44.11812" lon="3.02876">
        <ele>678.8</ele>
        <time>2022-04-05T14:07:43Z</time>
      </trkpt>
      <trkpt lat="44.1181" lon="3.02876">
        <ele>679.2</ele>
        <time>2022-04-05T14:07:44Z</time>
      </trkpt>
      <trkpt lat="44.11807" lon="3.02876">
        <ele>679.2</ele>
        <time>2022-04-05T14:07:45Z</time>
      </trkpt>
      <trkpt lat="44.11805" lon="3.02876">
        <ele>679.4</ele>
        <time>2022-04-05T14:07:46Z</time>
      </trkpt>
      <trkpt lat="44.11802" lon="3.02875">
        <ele>679.4</ele>
        <time>2022-04-05T14:07:47Z</time>
      </trkpt>
      <trkpt lat="44.11799" lon="3.02875">
        <ele>679.4</ele>
        <time>2022-04-05T14:07:48Z</time>
      </trkpt>
      <trkpt lat="44.11796" lon="3.02875">
        <ele>679.4</ele>
        <time>2022-04-05T14:07:49Z</time>
      </trkpt>
      <trkpt lat="44.11793" lon="3.02875">
        <ele>679.4</ele>
        <time>2022-04-05T14:07:50Z</time>
      </trkpt>
      <trkpt lat="44.1179" lon="3.02874">
        <ele>679.4</ele>
        <time>2022-04-05T14:07:51Z</time>
      </trkpt>
      <trkpt lat="44.11788" lon="3.02873">
        <ele>679.2</ele>
        <time>2022-04-05T14:07:52Z</time>
      </trkpt>
      <trkpt lat="44.11785" lon="3.02872">
        <ele>679.2</ele>
        <time>2022-04-05T14:07:53Z</time>
      </trkpt>
      <trkpt lat="44.11783" lon="3.02869">
        <ele>679</ele>
        <time>2022-04-05T14:07:54Z</time>
      </trkpt>
      <trkpt lat="44.11781" lon="3.02867">
        <ele>679</ele>
        <time>2022-04-05T14:07:55Z</time>
      </trkpt>
      <trkpt lat="44.1178" lon="3.02865">
        <ele>678.8</ele>
        <time>2022-04-05T14:07:56Z</time>
      </trkpt>
      <trkpt lat="44.11779" lon="3.02863">
        <ele>678.8</ele>
        <time>2022-04-05T14:07:57Z</time>
      </trkpt>
      <trkpt lat="44.11779" lon="3.02861">
        <ele>678.6</ele>
        <time>2022-04-05T14:07:58Z</time>
      </trkpt>
      <trkpt lat="44.1178" lon="3.02859">
        <ele>678.6</ele>
        <time>2022-04-05T14:07:59Z</time>
      </trkpt>
      <trkpt lat="44.1178" lon="3.02858">
        <ele>678.4</ele>
        <time>2022-04-05T14:08:00Z</time>
      </trkpt>
      <trkpt lat="44.11781" lon="3.02857">
        <ele>678.4</ele>
        <time>2022-04-05T14:08:01Z</time>
      </trkpt>
      <trkpt lat="44.11781" lon="3.02854">
        <ele>678.4</ele>
        <time>2022-04-05T14:08:02Z</time>
      </trkpt>
      <trkpt lat="44.11782" lon="3.02852">
        <ele>678.2</ele>
        <time>2022-04-05T14:08:03Z</time>
      </trkpt>
      <trkpt lat="44.11783" lon="3.0285">
        <ele>678.2</ele>
        <time>2022-04-05T14:08:04Z</time>
      </trkpt>
      <trkpt lat="44.11784" lon="3.02848">
        <ele>678.2</ele>
        <time>2022-04-05T14:08:05Z</time>
      </trkpt>
      <trkpt lat="44.11786" lon="3.02846">
        <ele>678.2</ele>
        <time>2022-04-05T14:08:06Z</time>
      </trkpt>
      <trkpt lat="44.11787" lon="3.02844">
        <ele>678.2</ele>
        <time>2022-04-05T14:08:07Z</time>
      </trkpt>
      <trkpt lat="44.11789" lon="3.02842">
        <ele>678.2</ele>
        <time>2022-04-05T14:08:08Z</time>
      </trkpt>
      <trkpt lat="44.11792" lon="3.02841">
        <ele>678.4</ele>
        <time>2022-04-05T14:08:09Z</time>
      </trkpt>
      <trkpt lat="44.11794" lon="3.0284">
        <ele>678.4</ele>
        <time>2022-04-05T14:08:10Z</time>
      </trkpt>
      <trkpt lat="44.11796" lon="3.02839">
        <ele>678.6</ele>
        <time>2022-04-05T14:08:11Z</time>
      </trkpt>
      <trkpt lat="44.11798" lon="3.02839">
        <ele>678.8</ele>
        <time>2022-04-05T14:08:12Z</time>
      </trkpt>
      <trkpt lat="44.11801" lon="3.02838">
        <ele>679</ele>
        <time>2022-04-05T14:08:13Z</time>
      </trkpt>
      <trkpt lat="44.11803" lon="3.02838">
        <ele>679.2</ele>
        <time>2022-04-05T14:08:14Z</time>
      </trkpt>
      <trkpt lat="44.11805" lon="3.02837">
        <ele>679.2</ele>
        <time>2022-04-05T14:08:15Z</time>
      </trkpt>
      <trkpt lat="44.11808" lon="3.02837">
        <ele>679.4</ele>
        <time>2022-04-05T14:08:16Z</time>
      </trkpt>
      <trkpt lat="44.11811" lon="3.02836">
        <ele>679.4</ele>
        <time>2022-04-05T14:08:17Z</time>
      </trkpt>
      <trkpt lat="44.11813" lon="3.02836">
        <ele>679.6</ele>
        <time>2022-04-05T14:08:18Z</time>
      </trkpt>
      <trkpt lat="44.11815" lon="3.02836">
        <ele>679.6</ele>
        <time>2022-04-05T14:08:19Z</time>
      </trkpt>
      <trkpt lat="44.11818" lon="3.02835">
        <ele>679.8</ele>
        <time>2022-04-05T14:08:20Z</time>
      </trkpt>
      <trkpt lat="44.1182" lon="3.02835">
        <ele>679.8</ele>
        <time>2022-04-05T14:08:21Z</time>
      </trkpt>
      <trkpt lat="44.11822" lon="3.02835">
        <ele>680.2</ele>
        <time>2022-04-05T14:08:22Z</time>
      </trkpt>
      <trkpt lat="44.11825" lon="3.02835">
        <ele>680.2</ele>
        <time>2022-04-05T14:08:23Z</time>
      </trkpt>
      <trkpt lat="44.11828" lon="3.02834">
        <ele>680.4</ele>
        <time>2022-04-05T14:08:24Z</time>
      </trkpt>
      <trkpt lat="44.1183" lon="3.02835">
        <ele>680.6</ele>
        <time>2022-04-05T14:08:25Z</time>
      </trkpt>
      <trkpt lat="44.11832" lon="3.02835">
        <ele>680.8</ele>
        <time>2022-04-05T14:08:26Z</time>
      </trkpt>
      <trkpt lat="44.11835" lon="3.02835">
        <ele>680.8</ele>
        <time>2022-04-05T14:08:27Z</time>
      </trkpt>
      <trkpt lat="44.11837" lon="3.02835">
        <ele>681</ele>
        <time>2022-04-05T14:08:28Z</time>
      </trkpt>
      <trkpt lat="44.1184" lon="3.02836">
        <ele>681</ele>
        <time>2022-04-05T14:08:29Z</time>
      </trkpt>
      <trkpt lat="44.11842" lon="3.02836">
        <ele>681</ele>
        <time>2022-04-05T14:08:30Z</time>
      </trkpt>
      <trkpt lat="44.11844" lon="3.02837">
        <ele>681.2</ele>
        <time>2022-04-05T14:08:31Z</time>
      </trkpt>
      <trkpt lat="44.11847" lon="3.02838">
        <ele>681.4</ele>
        <time>2022-04-05T14:08:32Z</time>
      </trkpt>
      <trkpt lat="44.11849" lon="3.02839">
        <ele>681.4</ele>
        <time>2022-04-05T14:08:33Z</time>
      </trkpt>
      <trkpt lat="44.11852" lon="3.02839">
        <ele>681.4</ele>
        <time>2022-04-05T14:08:34Z</time>
      </trkpt>
      <trkpt lat="44.11854" lon="3.0284">
        <ele>681.6</ele>
        <time>2022-04-05T14:08:35Z</time>
      </trkpt>
      <trkpt lat="44.11857" lon="3.0284">
        <ele>681.8</ele>
        <time>2022-04-05T14:08:36Z</time>
      </trkpt>
      <trkpt lat="44.11859" lon="3.02841">
        <ele>681.8</ele>
        <time>2022-04-05T14:08:37Z</time>
      </trkpt>
      <trkpt lat="44.11861" lon="3.02842">
        <ele>681.8</ele>
        <time>2022-04-05T14:08:38Z</time>
      </trkpt>
      <trkpt lat="44.11863" lon="3.02843">
        <ele>682</ele>
        <time>2022-04-05T14:08:39Z</time>
      </trkpt>
      <trkpt lat="44.11866" lon="3.02844">
        <ele>682</ele>
        <time>2022-04-05T14:08:40Z</time>
      </trkpt>
      <trkpt lat="44.11867" lon="3.02843">
        <ele>682.2</ele>
        <time>2022-04-05T14:08:41Z</time>
      </trkpt>
      <trkpt lat="44.11869" lon="3.02843">
        <ele>682.2</ele>
        <time>2022-04-05T14:08:42Z</time>
      </trkpt>
      <trkpt lat="44.1187" lon="3.02842">
        <ele>682.2</ele>
        <time>2022-04-05T14:08:43Z</time>
      </trkpt>
      <trkpt lat="44.11871" lon="3.02842">
        <ele>682.2</ele>
        <time>2022-04-05T14:08:44Z</time>
      </trkpt>
      <trkpt lat="44.11871" lon="3.02842">
        <ele>682.2</ele>
        <time>2022-04-05T14:08:46Z</time>
      </trkpt>
      <trkpt lat="44.11877" lon="3.02839">
        <ele>681.8</ele>
        <time>2022-04-05T14:08:59Z</time>
      </trkpt>
      <trkpt lat="44.11879" lon="3.02838">
        <ele>681.8</ele>
        <time>2022-04-05T14:09:00Z</time>
      </trkpt>
      <trkpt lat="44.11881" lon="3.02838">
        <ele>681.8</ele>
        <time>2022-04-05T14:09:01Z</time>
      </trkpt>
      <trkpt lat="44.11883" lon="3.02837">
        <ele>681.8</ele>
        <time>2022-04-05T14:09:02Z</time>
      </trkpt>
      <trkpt lat="44.11885" lon="3.02836">
        <ele>681.8</ele>
        <time>2022-04-05T14:09:03Z</time>
      </trkpt>
      <trkpt lat="44.11887" lon="3.02836">
        <ele>681.8</ele>
        <time>2022-04-05T14:09:04Z</time>
      </trkpt>
      <trkpt lat="44.1189" lon="3.02835">
        <ele>681.8</ele>
        <time>2022-04-05T14:09:05Z</time>
      </trkpt>
      <trkpt lat="44.11893" lon="3.02835">
        <ele>681.8</ele>
        <time>2022-04-05T14:09:06Z</time>
      </trkpt>
      <trkpt lat="44.11895" lon="3.02834">
        <ele>681.8</ele>
        <time>2022-04-05T14:09:07Z</time>
      </trkpt>
      <trkpt lat="44.11898" lon="3.02833">
        <ele>682</ele>
        <time>2022-04-05T14:09:08Z</time>
      </trkpt>
      <trkpt lat="44.119" lon="3.02831">
        <ele>682.2</ele>
        <time>2022-04-05T14:09:09Z</time>
      </trkpt>
      <trkpt lat="44.11901" lon="3.02829">
        <ele>682.2</ele>
        <time>2022-04-05T14:09:10Z</time>
      </trkpt>
      <trkpt lat="44.11903" lon="3.02826">
        <ele>682.4</ele>
        <time>2022-04-05T14:09:11Z</time>
      </trkpt>
      <trkpt lat="44.11904" lon="3.02824">
        <ele>682.4</ele>
        <time>2022-04-05T14:09:12Z</time>
      </trkpt>
      <trkpt lat="44.11906" lon="3.02822">
        <ele>682.6</ele>
        <time>2022-04-05T14:09:13Z</time>
      </trkpt>
      <trkpt lat="44.11908" lon="3.0282">
        <ele>682.8</ele>
        <time>2022-04-05T14:09:14Z</time>
      </trkpt>
      <trkpt lat="44.1191" lon="3.02818">
        <ele>683</ele>
        <time>2022-04-05T14:09:15Z</time>
      </trkpt>
      <trkpt lat="44.11912" lon="3.02817">
        <ele>683.2</ele>
        <time>2022-04-05T14:09:16Z</time>
      </trkpt>
      <trkpt lat="44.11914" lon="3.02815">
        <ele>683.6</ele>
        <time>2022-04-05T14:09:17Z</time>
      </trkpt>
      <trkpt lat="44.11916" lon="3.02813">
        <ele>684.2</ele>
        <time>2022-04-05T14:09:18Z</time>
      </trkpt>
      <trkpt lat="44.11917" lon="3.02811">
        <ele>684.4</ele>
        <time>2022-04-05T14:09:19Z</time>
      </trkpt>
      <trkpt lat="44.11919" lon="3.02809">
        <ele>684.8</ele>
        <time>2022-04-05T14:09:20Z</time>
      </trkpt>
      <trkpt lat="44.11921" lon="3.02807">
        <ele>685.2</ele>
        <time>2022-04-05T14:09:21Z</time>
      </trkpt>
      <trkpt lat="44.11923" lon="3.02805">
        <ele>685.8</ele>
        <time>2022-04-05T14:09:22Z</time>
      </trkpt>
      <trkpt lat="44.11924" lon="3.02804">
        <ele>686</ele>
        <time>2022-04-05T14:09:23Z</time>
      </trkpt>
      <trkpt lat="44.11926" lon="3.02802">
        <ele>686.2</ele>
        <time>2022-04-05T14:09:24Z</time>
      </trkpt>
      <trkpt lat="44.11928" lon="3.028">
        <ele>686.2</ele>
        <time>2022-04-05T14:09:25Z</time>
      </trkpt>
      <trkpt lat="44.1193" lon="3.02798">
        <ele>686.4</ele>
        <time>2022-04-05T14:09:26Z</time>
      </trkpt>
      <trkpt lat="44.11932" lon="3.02796">
        <ele>686.6</ele>
        <time>2022-04-05T14:09:27Z</time>
      </trkpt>
      <trkpt lat="44.11934" lon="3.02794">
        <ele>686.6</ele>
        <time>2022-04-05T14:09:28Z</time>
      </trkpt>
      <trkpt lat="44.11936" lon="3.02792">
        <ele>686.8</ele>
        <time>2022-04-05T14:09:29Z</time>
      </trkpt>
      <trkpt lat="44.11938" lon="3.0279">
        <ele>686.8</ele>
        <time>2022-04-05T14:09:30Z</time>
      </trkpt>
      <trkpt lat="44.1194" lon="3.02789">
        <ele>686.8</ele>
        <time>2022-04-05T14:09:31Z</time>
      </trkpt>
      <trkpt lat="44.11942" lon="3.02788">
        <ele>686.8</ele>
        <time>2022-04-05T14:09:32Z</time>
      </trkpt>
      <trkpt lat="44.11944" lon="3.02786">
        <ele>687</ele>
        <time>2022-04-05T14:09:33Z</time>
      </trkpt>
      <trkpt lat="44.11945" lon="3.02784">
        <ele>687</ele>
        <time>2022-04-05T14:09:34Z</time>
      </trkpt>
      <trkpt lat="44.11946" lon="3.02781">
        <ele>687.2</ele>
        <time>2022-04-05T14:09:35Z</time>
      </trkpt>
      <trkpt lat="44.11947" lon="3.02779">
        <ele>687.2</ele>
        <time>2022-04-05T14:09:36Z</time>
      </trkpt>
      <trkpt lat="44.11948" lon="3.02777">
        <ele>687.2</ele>
        <time>2022-04-05T14:09:37Z</time>
      </trkpt>
      <trkpt lat="44.1195" lon="3.02774">
        <ele>687.6</ele>
        <time>2022-04-05T14:09:38Z</time>
      </trkpt>
      <trkpt lat="44.11952" lon="3.02772">
        <ele>687.8</ele>
        <time>2022-04-05T14:09:39Z</time>
      </trkpt>
      <trkpt lat="44.11954" lon="3.0277">
        <ele>688</ele>
        <time>2022-04-05T14:09:40Z</time>
      </trkpt>
      <trkpt lat="44.11956" lon="3.02769">
        <ele>688</ele>
        <time>2022-04-05T14:09:41Z</time>
      </trkpt>
      <trkpt lat="44.11958" lon="3.02767">
        <ele>688.2</ele>
        <time>2022-04-05T14:09:42Z</time>
      </trkpt>
      <trkpt lat="44.1196" lon="3.02767">
        <ele>688.2</ele>
        <time>2022-04-05T14:09:43Z</time>
      </trkpt>
      <trkpt lat="44.11962" lon="3.02765">
        <ele>688.4</ele>
        <time>2022-04-05T14:09:44Z</time>
      </trkpt>
      <trkpt lat="44.11964" lon="3.02763">
        <ele>688.6</ele>
        <time>2022-04-05T14:09:45Z</time>
      </trkpt>
      <trkpt lat="44.11965" lon="3.02761">
        <ele>688.6</ele>
        <time>2022-04-05T14:09:46Z</time>
      </trkpt>
      <trkpt lat="44.11967" lon="3.02758">
        <ele>688.6</ele>
        <time>2022-04-05T14:09:47Z</time>
      </trkpt>
      <trkpt lat="44.11968" lon="3.02756">
        <ele>688.8</ele>
        <time>2022-04-05T14:09:48Z</time>
      </trkpt>
      <trkpt lat="44.1197" lon="3.02754">
        <ele>689</ele>
        <time>2022-04-05T14:09:49Z</time>
      </trkpt>
      <trkpt lat="44.11972" lon="3.02752">
        <ele>689</ele>
        <time>2022-04-05T14:09:50Z</time>
      </trkpt>
      <trkpt lat="44.11974" lon="3.0275">
        <ele>689.2</ele>
        <time>2022-04-05T14:09:51Z</time>
      </trkpt>
      <trkpt lat="44.11976" lon="3.02748">
        <ele>689.2</ele>
        <time>2022-04-05T14:09:52Z</time>
      </trkpt>
      <trkpt lat="44.11978" lon="3.02746">
        <ele>689.4</ele>
        <time>2022-04-05T14:09:53Z</time>
      </trkpt>
      <trkpt lat="44.1198" lon="3.02744">
        <ele>689.4</ele>
        <time>2022-04-05T14:09:54Z</time>
      </trkpt>
      <trkpt lat="44.11982" lon="3.02743">
        <ele>689.6</ele>
        <time>2022-04-05T14:09:55Z</time>
      </trkpt>
      <trkpt lat="44.11984" lon="3.02741">
        <ele>689.8</ele>
        <time>2022-04-05T14:09:56Z</time>
      </trkpt>
      <trkpt lat="44.11985" lon="3.02738">
        <ele>690</ele>
        <time>2022-04-05T14:09:57Z</time>
      </trkpt>
      <trkpt lat="44.11987" lon="3.02736">
        <ele>690.4</ele>
        <time>2022-04-05T14:09:58Z</time>
      </trkpt>
      <trkpt lat="44.11989" lon="3.02734">
        <ele>690.4</ele>
        <time>2022-04-05T14:09:59Z</time>
      </trkpt>
      <trkpt lat="44.11991" lon="3.02732">
        <ele>690.8</ele>
        <time>2022-04-05T14:10:00Z</time>
      </trkpt>
      <trkpt lat="44.11992" lon="3.0273">
        <ele>690.8</ele>
        <time>2022-04-05T14:10:01Z</time>
      </trkpt>
      <trkpt lat="44.11994" lon="3.02727">
        <ele>691</ele>
        <time>2022-04-05T14:10:02Z</time>
      </trkpt>
      <trkpt lat="44.11995" lon="3.02724">
        <ele>691.2</ele>
        <time>2022-04-05T14:10:03Z</time>
      </trkpt>
      <trkpt lat="44.11997" lon="3.02722">
        <ele>691.2</ele>
        <time>2022-04-05T14:10:04Z</time>
      </trkpt>
      <trkpt lat="44.11998" lon="3.02718">
        <ele>691.4</ele>
        <time>2022-04-05T14:10:05Z</time>
      </trkpt>
      <trkpt lat="44.12" lon="3.02715">
        <ele>691.6</ele>
        <time>2022-04-05T14:10:06Z</time>
      </trkpt>
      <trkpt lat="44.12001" lon="3.02712">
        <ele>691.6</ele>
        <time>2022-04-05T14:10:07Z</time>
      </trkpt>
      <trkpt lat="44.12003" lon="3.02708">
        <ele>691.8</ele>
        <time>2022-04-05T14:10:08Z</time>
      </trkpt>
      <trkpt lat="44.12004" lon="3.02705">
        <ele>691.8</ele>
        <time>2022-04-05T14:10:09Z</time>
      </trkpt>
      <trkpt lat="44.12006" lon="3.02702">
        <ele>691.8</ele>
        <time>2022-04-05T14:10:10Z</time>
      </trkpt>
      <trkpt lat="44.12008" lon="3.02699">
        <ele>692</ele>
        <time>2022-04-05T14:10:11Z</time>
      </trkpt>
      <trkpt lat="44.1201" lon="3.02695">
        <ele>692.4</ele>
        <time>2022-04-05T14:10:12Z</time>
      </trkpt>
      <trkpt lat="44.12011" lon="3.02692">
        <ele>692.6</ele>
        <time>2022-04-05T14:10:13Z</time>
      </trkpt>
      <trkpt lat="44.12013" lon="3.02689">
        <ele>692.8</ele>
        <time>2022-04-05T14:10:14Z</time>
      </trkpt>
      <trkpt lat="44.12015" lon="3.02686">
        <ele>692.8</ele>
        <time>2022-04-05T14:10:15Z</time>
      </trkpt>
      <trkpt lat="44.12016" lon="3.02682">
        <ele>693</ele>
        <time>2022-04-05T14:10:16Z</time>
      </trkpt>
      <trkpt lat="44.12017" lon="3.02678">
        <ele>693.2</ele>
        <time>2022-04-05T14:10:17Z</time>
      </trkpt>
      <trkpt lat="44.12018" lon="3.02674">
        <ele>693.2</ele>
        <time>2022-04-05T14:10:18Z</time>
      </trkpt>
      <trkpt lat="44.12018" lon="3.0267">
        <ele>693.2</ele>
        <time>2022-04-05T14:10:19Z</time>
      </trkpt>
      <trkpt lat="44.12019" lon="3.02665">
        <ele>693.4</ele>
        <time>2022-04-05T14:10:20Z</time>
      </trkpt>
      <trkpt lat="44.1202" lon="3.02661">
        <ele>693.4</ele>
        <time>2022-04-05T14:10:21Z</time>
      </trkpt>
      <trkpt lat="44.12021" lon="3.02658">
        <ele>693.4</ele>
        <time>2022-04-05T14:10:22Z</time>
      </trkpt>
      <trkpt lat="44.12022" lon="3.02654">
        <ele>693.4</ele>
        <time>2022-04-05T14:10:23Z</time>
      </trkpt>
      <trkpt lat="44.12023" lon="3.0265">
        <ele>693.4</ele>
        <time>2022-04-05T14:10:24Z</time>
      </trkpt>
      <trkpt lat="44.12024" lon="3.02645">
        <ele>693.2</ele>
        <time>2022-04-05T14:10:25Z</time>
      </trkpt>
      <trkpt lat="44.12025" lon="3.02641">
        <ele>693.2</ele>
        <time>2022-04-05T14:10:26Z</time>
      </trkpt>
      <trkpt lat="44.12026" lon="3.02637">
        <ele>693.2</ele>
        <time>2022-04-05T14:10:27Z</time>
      </trkpt>
      <trkpt lat="44.12026" lon="3.02633">
        <ele>693.2</ele>
        <time>2022-04-05T14:10:28Z</time>
      </trkpt>
      <trkpt lat="44.12027" lon="3.02628">
        <ele>693.2</ele>
        <time>2022-04-05T14:10:29Z</time>
      </trkpt>
      <trkpt lat="44.12028" lon="3.02624">
        <ele>693.2</ele>
        <time>2022-04-05T14:10:30Z</time>
      </trkpt>
      <trkpt lat="44.12029" lon="3.0262">
        <ele>693.2</ele>
        <time>2022-04-05T14:10:31Z</time>
      </trkpt>
      <trkpt lat="44.12029" lon="3.02615">
        <ele>693.2</ele>
        <time>2022-04-05T14:10:32Z</time>
      </trkpt>
      <trkpt lat="44.12029" lon="3.0261">
        <ele>693.2</ele>
        <time>2022-04-05T14:10:33Z</time>
      </trkpt>
      <trkpt lat="44.12029" lon="3.02606">
        <ele>693.4</ele>
        <time>2022-04-05T14:10:34Z</time>
      </trkpt>
      <trkpt lat="44.12028" lon="3.02601">
        <ele>693.4</ele>
        <time>2022-04-05T14:10:35Z</time>
      </trkpt>
      <trkpt lat="44.12026" lon="3.02596">
        <ele>693.4</ele>
        <time>2022-04-05T14:10:36Z</time>
      </trkpt>
      <trkpt lat="44.12024" lon="3.02592">
        <ele>693.6</ele>
        <time>2022-04-05T14:10:37Z</time>
      </trkpt>
      <trkpt lat="44.12021" lon="3.02589">
        <ele>693.6</ele>
        <time>2022-04-05T14:10:38Z</time>
      </trkpt>
      <trkpt lat="44.12018" lon="3.02586">
        <ele>693.6</ele>
        <time>2022-04-05T14:10:39Z</time>
      </trkpt>
      <trkpt lat="44.12015" lon="3.02582">
        <ele>693.6</ele>
        <time>2022-04-05T14:10:40Z</time>
      </trkpt>
      <trkpt lat="44.12012" lon="3.02579">
        <ele>693.6</ele>
        <time>2022-04-05T14:10:41Z</time>
      </trkpt>
      <trkpt lat="44.12009" lon="3.02575">
        <ele>693.8</ele>
        <time>2022-04-05T14:10:42Z</time>
      </trkpt>
      <trkpt lat="44.12006" lon="3.02572">
        <ele>693.8</ele>
        <time>2022-04-05T14:10:43Z</time>
      </trkpt>
      <trkpt lat="44.12003" lon="3.02569">
        <ele>693.8</ele>
        <time>2022-04-05T14:10:44Z</time>
      </trkpt>
      <trkpt lat="44.12" lon="3.02566">
        <ele>693.8</ele>
        <time>2022-04-05T14:10:45Z</time>
      </trkpt>
      <trkpt lat="44.11997" lon="3.02563">
        <ele>693.8</ele>
        <time>2022-04-05T14:10:46Z</time>
      </trkpt>
      <trkpt lat="44.11993" lon="3.02559">
        <ele>693.8</ele>
        <time>2022-04-05T14:10:47Z</time>
      </trkpt>
      <trkpt lat="44.1199" lon="3.02556">
        <ele>693.8</ele>
        <time>2022-04-05T14:10:48Z</time>
      </trkpt>
      <trkpt lat="44.11988" lon="3.02553">
        <ele>693.6</ele>
        <time>2022-04-05T14:10:49Z</time>
      </trkpt>
      <trkpt lat="44.11985" lon="3.0255">
        <ele>693.6</ele>
        <time>2022-04-05T14:10:50Z</time>
      </trkpt>
      <trkpt lat="44.11982" lon="3.02546">
        <ele>693.6</ele>
        <time>2022-04-05T14:10:51Z</time>
      </trkpt>
      <trkpt lat="44.1198" lon="3.02543">
        <ele>693.6</ele>
        <time>2022-04-05T14:10:52Z</time>
      </trkpt>
      <trkpt lat="44.11978" lon="3.0254">
        <ele>693.6</ele>
        <time>2022-04-05T14:10:53Z</time>
      </trkpt>
      <trkpt lat="44.11975" lon="3.02537">
        <ele>693.6</ele>
        <time>2022-04-05T14:10:54Z</time>
      </trkpt>
      <trkpt lat="44.11973" lon="3.02534">
        <ele>693.4</ele>
        <time>2022-04-05T14:10:55Z</time>
      </trkpt>
      <trkpt lat="44.11971" lon="3.0253">
        <ele>693.4</ele>
        <time>2022-04-05T14:10:56Z</time>
      </trkpt>
      <trkpt lat="44.11969" lon="3.02527">
        <ele>693.4</ele>
        <time>2022-04-05T14:10:57Z</time>
      </trkpt>
      <trkpt lat="44.11968" lon="3.02524">
        <ele>693.6</ele>
        <time>2022-04-05T14:10:58Z</time>
      </trkpt>
      <trkpt lat="44.11967" lon="3.02522">
        <ele>693.8</ele>
        <time>2022-04-05T14:10:59Z</time>
      </trkpt>
      <trkpt lat="44.11966" lon="3.02519">
        <ele>694</ele>
        <time>2022-04-05T14:11:00Z</time>
      </trkpt>
      <trkpt lat="44.11965" lon="3.02517">
        <ele>694</ele>
        <time>2022-04-05T14:11:01Z</time>
      </trkpt>
      <trkpt lat="44.11964" lon="3.02515">
        <ele>694</ele>
        <time>2022-04-05T14:11:02Z</time>
      </trkpt>
      <trkpt lat="44.11963" lon="3.02513">
        <ele>694.2</ele>
        <time>2022-04-05T14:11:03Z</time>
      </trkpt>
      <trkpt lat="44.11962" lon="3.0251">
        <ele>694.4</ele>
        <time>2022-04-05T14:11:04Z</time>
      </trkpt>
      <trkpt lat="44.11961" lon="3.02508">
        <ele>694.4</ele>
        <time>2022-04-05T14:11:05Z</time>
      </trkpt>
      <trkpt lat="44.1196" lon="3.02506">
        <ele>694.6</ele>
        <time>2022-04-05T14:11:06Z</time>
      </trkpt>
      <trkpt lat="44.11959" lon="3.02504">
        <ele>694.8</ele>
        <time>2022-04-05T14:11:07Z</time>
      </trkpt>
      <trkpt lat="44.11958" lon="3.02502">
        <ele>695</ele>
        <time>2022-04-05T14:11:08Z</time>
      </trkpt>
      <trkpt lat="44.11957" lon="3.025">
        <ele>695</ele>
        <time>2022-04-05T14:11:09Z</time>
      </trkpt>
      <trkpt lat="44.11956" lon="3.02498">
        <ele>695.2</ele>
        <time>2022-04-05T14:11:10Z</time>
      </trkpt>
      <trkpt lat="44.11955" lon="3.02496">
        <ele>695.4</ele>
        <time>2022-04-05T14:11:11Z</time>
      </trkpt>
      <trkpt lat="44.11954" lon="3.02494">
        <ele>695.6</ele>
        <time>2022-04-05T14:11:12Z</time>
      </trkpt>
      <trkpt lat="44.11954" lon="3.02492">
        <ele>696</ele>
        <time>2022-04-05T14:11:13Z</time>
      </trkpt>
      <trkpt lat="44.11953" lon="3.02491">
        <ele>696.2</ele>
        <time>2022-04-05T14:11:14Z</time>
      </trkpt>
      <trkpt lat="44.11952" lon="3.02489">
        <ele>696.6</ele>
        <time>2022-04-05T14:11:15Z</time>
      </trkpt>
      <trkpt lat="44.11951" lon="3.02488">
        <ele>696.8</ele>
        <time>2022-04-05T14:11:16Z</time>
      </trkpt>
      <trkpt lat="44.1195" lon="3.02486">
        <ele>697</ele>
        <time>2022-04-05T14:11:17Z</time>
      </trkpt>
      <trkpt lat="44.11949" lon="3.02484">
        <ele>697.2</ele>
        <time>2022-04-05T14:11:18Z</time>
      </trkpt>
      <trkpt lat="44.11948" lon="3.02483">
        <ele>697.6</ele>
        <time>2022-04-05T14:11:19Z</time>
      </trkpt>
      <trkpt lat="44.11947" lon="3.02481">
        <ele>697.8</ele>
        <time>2022-04-05T14:11:20Z</time>
      </trkpt>
      <trkpt lat="44.11947" lon="3.02479">
        <ele>697.8</ele>
        <time>2022-04-05T14:11:21Z</time>
      </trkpt>
      <trkpt lat="44.11946" lon="3.02477">
        <ele>698</ele>
        <time>2022-04-05T14:11:22Z</time>
      </trkpt>
      <trkpt lat="44.11945" lon="3.02475">
        <ele>698.2</ele>
        <time>2022-04-05T14:11:23Z</time>
      </trkpt>
      <trkpt lat="44.11944" lon="3.02473">
        <ele>698.2</ele>
        <time>2022-04-05T14:11:24Z</time>
      </trkpt>
      <trkpt lat="44.11944" lon="3.02471">
        <ele>698.4</ele>
        <time>2022-04-05T14:11:25Z</time>
      </trkpt>
      <trkpt lat="44.11943" lon="3.02469">
        <ele>698.8</ele>
        <time>2022-04-05T14:11:26Z</time>
      </trkpt>
      <trkpt lat="44.11942" lon="3.02467">
        <ele>699</ele>
        <time>2022-04-05T14:11:27Z</time>
      </trkpt>
      <trkpt lat="44.11941" lon="3.02466">
        <ele>699.2</ele>
        <time>2022-04-05T14:11:28Z</time>
      </trkpt>
      <trkpt lat="44.1194" lon="3.02464">
        <ele>699.2</ele>
        <time>2022-04-05T14:11:29Z</time>
      </trkpt>
      <trkpt lat="44.1194" lon="3.02462">
        <ele>699.4</ele>
        <time>2022-04-05T14:11:30Z</time>
      </trkpt>
      <trkpt lat="44.11939" lon="3.0246">
        <ele>699.6</ele>
        <time>2022-04-05T14:11:31Z</time>
      </trkpt>
      <trkpt lat="44.11938" lon="3.02459">
        <ele>699.8</ele>
        <time>2022-04-05T14:11:32Z</time>
      </trkpt>
      <trkpt lat="44.11938" lon="3.02457">
        <ele>700</ele>
        <time>2022-04-05T14:11:33Z</time>
      </trkpt>
      <trkpt lat="44.11936" lon="3.02455">
        <ele>700.2</ele>
        <time>2022-04-05T14:11:34Z</time>
      </trkpt>
      <trkpt lat="44.11935" lon="3.02454">
        <ele>700.4</ele>
        <time>2022-04-05T14:11:35Z</time>
      </trkpt>
      <trkpt lat="44.11934" lon="3.02452">
        <ele>700.6</ele>
        <time>2022-04-05T14:11:36Z</time>
      </trkpt>
      <trkpt lat="44.11934" lon="3.0245">
        <ele>701</ele>
        <time>2022-04-05T14:11:37Z</time>
      </trkpt>
      <trkpt lat="44.11933" lon="3.02449">
        <ele>701</ele>
        <time>2022-04-05T14:11:38Z</time>
      </trkpt>
      <trkpt lat="44.11932" lon="3.02447">
        <ele>701.4</ele>
        <time>2022-04-05T14:11:39Z</time>
      </trkpt>
      <trkpt lat="44.11931" lon="3.02446">
        <ele>701.6</ele>
        <time>2022-04-05T14:11:40Z</time>
      </trkpt>
      <trkpt lat="44.11931" lon="3.02444">
        <ele>702</ele>
        <time>2022-04-05T14:11:41Z</time>
      </trkpt>
      <trkpt lat="44.1193" lon="3.02442">
        <ele>702.2</ele>
        <time>2022-04-05T14:11:42Z</time>
      </trkpt>
      <trkpt lat="44.11929" lon="3.0244">
        <ele>702.4</ele>
        <time>2022-04-05T14:11:43Z</time>
      </trkpt>
      <trkpt lat="44.11928" lon="3.02438">
        <ele>702.8</ele>
        <time>2022-04-05T14:11:44Z</time>
      </trkpt>
      <trkpt lat="44.11927" lon="3.02437">
        <ele>702.8</ele>
        <time>2022-04-05T14:11:45Z</time>
      </trkpt>
      <trkpt lat="44.11926" lon="3.02435">
        <ele>703.2</ele>
        <time>2022-04-05T14:11:46Z</time>
      </trkpt>
      <trkpt lat="44.11925" lon="3.02434">
        <ele>703.4</ele>
        <time>2022-04-05T14:11:47Z</time>
      </trkpt>
      <trkpt lat="44.11925" lon="3.02432">
        <ele>703.6</ele>
        <time>2022-04-05T14:11:48Z</time>
      </trkpt>
      <trkpt lat="44.11924" lon="3.0243">
        <ele>703.6</ele>
        <time>2022-04-05T14:11:49Z</time>
      </trkpt>
      <trkpt lat="44.11923" lon="3.02428">
        <ele>703.8</ele>
        <time>2022-04-05T14:11:50Z</time>
      </trkpt>
      <trkpt lat="44.11923" lon="3.02427">
        <ele>704</ele>
        <time>2022-04-05T14:11:51Z</time>
      </trkpt>
      <trkpt lat="44.11922" lon="3.02425">
        <ele>704.2</ele>
        <time>2022-04-05T14:11:52Z</time>
      </trkpt>
      <trkpt lat="44.11921" lon="3.02424">
        <ele>704.4</ele>
        <time>2022-04-05T14:11:53Z</time>
      </trkpt>
      <trkpt lat="44.1192" lon="3.02422">
        <ele>704.6</ele>
        <time>2022-04-05T14:11:54Z</time>
      </trkpt>
      <trkpt lat="44.11919" lon="3.0242">
        <ele>704.8</ele>
        <time>2022-04-05T14:11:55Z</time>
      </trkpt>
      <trkpt lat="44.11919" lon="3.02418">
        <ele>705</ele>
        <time>2022-04-05T14:11:56Z</time>
      </trkpt>
      <trkpt lat="44.11918" lon="3.02417">
        <ele>705.2</ele>
        <time>2022-04-05T14:11:57Z</time>
      </trkpt>
      <trkpt lat="44.11917" lon="3.02415">
        <ele>705.4</ele>
        <time>2022-04-05T14:11:58Z</time>
      </trkpt>
      <trkpt lat="44.11917" lon="3.02413">
        <ele>705.4</ele>
        <time>2022-04-05T14:11:59Z</time>
      </trkpt>
      <trkpt lat="44.11916" lon="3.02412">
        <ele>705.4</ele>
        <time>2022-04-05T14:12:00Z</time>
      </trkpt>
      <trkpt lat="44.11914" lon="3.0241">
        <ele>705.6</ele>
        <time>2022-04-05T14:12:01Z</time>
      </trkpt>
      <trkpt lat="44.11914" lon="3.02409">
        <ele>705.6</ele>
        <time>2022-04-05T14:12:02Z</time>
      </trkpt>
      <trkpt lat="44.11913" lon="3.02407">
        <ele>705.6</ele>
        <time>2022-04-05T14:12:03Z</time>
      </trkpt>
      <trkpt lat="44.11912" lon="3.02405">
        <ele>705.8</ele>
        <time>2022-04-05T14:12:04Z</time>
      </trkpt>
      <trkpt lat="44.11911" lon="3.02404">
        <ele>706</ele>
        <time>2022-04-05T14:12:05Z</time>
      </trkpt>
      <trkpt lat="44.1191" lon="3.02402">
        <ele>706.2</ele>
        <time>2022-04-05T14:12:06Z</time>
      </trkpt>
      <trkpt lat="44.1191" lon="3.024">
        <ele>706.2</ele>
        <time>2022-04-05T14:12:07Z</time>
      </trkpt>
      <trkpt lat="44.11909" lon="3.02399">
        <ele>706.4</ele>
        <time>2022-04-05T14:12:08Z</time>
      </trkpt>
      <trkpt lat="44.11908" lon="3.02397">
        <ele>706.6</ele>
        <time>2022-04-05T14:12:09Z</time>
      </trkpt>
      <trkpt lat="44.11907" lon="3.02395">
        <ele>707</ele>
        <time>2022-04-05T14:12:10Z</time>
      </trkpt>
      <trkpt lat="44.11906" lon="3.02393">
        <ele>707.2</ele>
        <time>2022-04-05T14:12:11Z</time>
      </trkpt>
      <trkpt lat="44.11906" lon="3.02392">
        <ele>707.4</ele>
        <time>2022-04-05T14:12:12Z</time>
      </trkpt>
      <trkpt lat="44.11905" lon="3.0239">
        <ele>707.6</ele>
        <time>2022-04-05T14:12:13Z</time>
      </trkpt>
      <trkpt lat="44.11904" lon="3.02388">
        <ele>707.6</ele>
        <time>2022-04-05T14:12:14Z</time>
      </trkpt>
      <trkpt lat="44.11903" lon="3.02387">
        <ele>707.8</ele>
        <time>2022-04-05T14:12:15Z</time>
      </trkpt>
      <trkpt lat="44.11903" lon="3.02385">
        <ele>707.8</ele>
        <time>2022-04-05T14:12:16Z</time>
      </trkpt>
      <trkpt lat="44.11902" lon="3.02384">
        <ele>708</ele>
        <time>2022-04-05T14:12:17Z</time>
      </trkpt>
      <trkpt lat="44.11901" lon="3.02382">
        <ele>708.2</ele>
        <time>2022-04-05T14:12:18Z</time>
      </trkpt>
      <trkpt lat="44.11901" lon="3.0238">
        <ele>708.4</ele>
        <time>2022-04-05T14:12:19Z</time>
      </trkpt>
      <trkpt lat="44.119" lon="3.02378">
        <ele>708.4</ele>
        <time>2022-04-05T14:12:20Z</time>
      </trkpt>
      <trkpt lat="44.11899" lon="3.02376">
        <ele>708.6</ele>
        <time>2022-04-05T14:12:21Z</time>
      </trkpt>
      <trkpt lat="44.11898" lon="3.02375">
        <ele>708.6</ele>
        <time>2022-04-05T14:12:22Z</time>
      </trkpt>
      <trkpt lat="44.11897" lon="3.02373">
        <ele>708.6</ele>
        <time>2022-04-05T14:12:23Z</time>
      </trkpt>
      <trkpt lat="44.11896" lon="3.02371">
        <ele>708.6</ele>
        <time>2022-04-05T14:12:24Z</time>
      </trkpt>
      <trkpt lat="44.11896" lon="3.0237">
        <ele>708.8</ele>
        <time>2022-04-05T14:12:25Z</time>
      </trkpt>
      <trkpt lat="44.11895" lon="3.02368">
        <ele>708.8</ele>
        <time>2022-04-05T14:12:26Z</time>
      </trkpt>
      <trkpt lat="44.11895" lon="3.02366">
        <ele>709</ele>
        <time>2022-04-05T14:12:27Z</time>
      </trkpt>
      <trkpt lat="44.11894" lon="3.02364">
        <ele>709</ele>
        <time>2022-04-05T14:12:28Z</time>
      </trkpt>
      <trkpt lat="44.11893" lon="3.02362">
        <ele>709.2</ele>
        <time>2022-04-05T14:12:29Z</time>
      </trkpt>
      <trkpt lat="44.11892" lon="3.02361">
        <ele>709.4</ele>
        <time>2022-04-05T14:12:30Z</time>
      </trkpt>
      <trkpt lat="44.11891" lon="3.02359">
        <ele>709.6</ele>
        <time>2022-04-05T14:12:31Z</time>
      </trkpt>
      <trkpt lat="44.1189" lon="3.02357">
        <ele>709.8</ele>
        <time>2022-04-05T14:12:32Z</time>
      </trkpt>
      <trkpt lat="44.1189" lon="3.02356">
        <ele>710</ele>
        <time>2022-04-05T14:12:33Z</time>
      </trkpt>
      <trkpt lat="44.11889" lon="3.02354">
        <ele>710.2</ele>
        <time>2022-04-05T14:12:34Z</time>
      </trkpt>
      <trkpt lat="44.11888" lon="3.02353">
        <ele>710.6</ele>
        <time>2022-04-05T14:12:35Z</time>
      </trkpt>
      <trkpt lat="44.11887" lon="3.02351">
        <ele>710.8</ele>
        <time>2022-04-05T14:12:36Z</time>
      </trkpt>
      <trkpt lat="44.11887" lon="3.02349">
        <ele>711</ele>
        <time>2022-04-05T14:12:37Z</time>
      </trkpt>
      <trkpt lat="44.11886" lon="3.02348">
        <ele>711</ele>
        <time>2022-04-05T14:12:38Z</time>
      </trkpt>
      <trkpt lat="44.11885" lon="3.02347">
        <ele>711</ele>
        <time>2022-04-05T14:12:39Z</time>
      </trkpt>
      <trkpt lat="44.11884" lon="3.02345">
        <ele>711.2</ele>
        <time>2022-04-05T14:12:40Z</time>
      </trkpt>
      <trkpt lat="44.11883" lon="3.02343">
        <ele>711.2</ele>
        <time>2022-04-05T14:12:41Z</time>
      </trkpt>
      <trkpt lat="44.11882" lon="3.02341">
        <ele>711.2</ele>
        <time>2022-04-05T14:12:42Z</time>
      </trkpt>
      <trkpt lat="44.11881" lon="3.02339">
        <ele>711.6</ele>
        <time>2022-04-05T14:12:43Z</time>
      </trkpt>
      <trkpt lat="44.11881" lon="3.02337">
        <ele>712</ele>
        <time>2022-04-05T14:12:44Z</time>
      </trkpt>
      <trkpt lat="44.1188" lon="3.02335">
        <ele>712.2</ele>
        <time>2022-04-05T14:12:45Z</time>
      </trkpt>
      <trkpt lat="44.11879" lon="3.02333">
        <ele>712.4</ele>
        <time>2022-04-05T14:12:46Z</time>
      </trkpt>
      <trkpt lat="44.11878" lon="3.02331">
        <ele>712.6</ele>
        <time>2022-04-05T14:12:47Z</time>
      </trkpt>
      <trkpt lat="44.11877" lon="3.02329">
        <ele>712.8</ele>
        <time>2022-04-05T14:12:48Z</time>
      </trkpt>
      <trkpt lat="44.11876" lon="3.02327">
        <ele>712.8</ele>
        <time>2022-04-05T14:12:49Z</time>
      </trkpt>
      <trkpt lat="44.11875" lon="3.02326">
        <ele>713</ele>
        <time>2022-04-05T14:12:50Z</time>
      </trkpt>
      <trkpt lat="44.11875" lon="3.02324">
        <ele>713</ele>
        <time>2022-04-05T14:12:51Z</time>
      </trkpt>
      <trkpt lat="44.11874" lon="3.02322">
        <ele>713.2</ele>
        <time>2022-04-05T14:12:52Z</time>
      </trkpt>
      <trkpt lat="44.11873" lon="3.0232">
        <ele>713.4</ele>
        <time>2022-04-05T14:12:53Z</time>
      </trkpt>
      <trkpt lat="44.11872" lon="3.02318">
        <ele>713.4</ele>
        <time>2022-04-05T14:12:54Z</time>
      </trkpt>
      <trkpt lat="44.11871" lon="3.02316">
        <ele>713.8</ele>
        <time>2022-04-05T14:12:55Z</time>
      </trkpt>
      <trkpt lat="44.1187" lon="3.02314">
        <ele>713.8</ele>
        <time>2022-04-05T14:12:56Z</time>
      </trkpt>
      <trkpt lat="44.1187" lon="3.02312">
        <ele>714.2</ele>
        <time>2022-04-05T14:12:57Z</time>
      </trkpt>
      <trkpt lat="44.11869" lon="3.0231">
        <ele>714.2</ele>
        <time>2022-04-05T14:12:58Z</time>
      </trkpt>
      <trkpt lat="44.11868" lon="3.02308">
        <ele>714.4</ele>
        <time>2022-04-05T14:12:59Z</time>
      </trkpt>
      <trkpt lat="44.11867" lon="3.02306">
        <ele>714.8</ele>
        <time>2022-04-05T14:13:00Z</time>
      </trkpt>
      <trkpt lat="44.11866" lon="3.02304">
        <ele>715</ele>
        <time>2022-04-05T14:13:01Z</time>
      </trkpt>
      <trkpt lat="44.11865" lon="3.02301">
        <ele>715</ele>
        <time>2022-04-05T14:13:02Z</time>
      </trkpt>
      <trkpt lat="44.11865" lon="3.02299">
        <ele>715.2</ele>
        <time>2022-04-05T14:13:03Z</time>
      </trkpt>
      <trkpt lat="44.11864" lon="3.02298">
        <ele>715.4</ele>
        <time>2022-04-05T14:13:04Z</time>
      </trkpt>
      <trkpt lat="44.11863" lon="3.02296">
        <ele>715.6</ele>
        <time>2022-04-05T14:13:05Z</time>
      </trkpt>
      <trkpt lat="44.11862" lon="3.02294">
        <ele>715.8</ele>
        <time>2022-04-05T14:13:06Z</time>
      </trkpt>
      <trkpt lat="44.11861" lon="3.02292">
        <ele>715.8</ele>
        <time>2022-04-05T14:13:07Z</time>
      </trkpt>
      <trkpt lat="44.1186" lon="3.0229">
        <ele>716.2</ele>
        <time>2022-04-05T14:13:08Z</time>
      </trkpt>
      <trkpt lat="44.1186" lon="3.02288">
        <ele>716.2</ele>
        <time>2022-04-05T14:13:09Z</time>
      </trkpt>
      <trkpt lat="44.11859" lon="3.02286">
        <ele>716.6</ele>
        <time>2022-04-05T14:13:10Z</time>
      </trkpt>
      <trkpt lat="44.11858" lon="3.02284">
        <ele>716.6</ele>
        <time>2022-04-05T14:13:11Z</time>
      </trkpt>
      <trkpt lat="44.11857" lon="3.02282">
        <ele>716.8</ele>
        <time>2022-04-05T14:13:12Z</time>
      </trkpt>
      <trkpt lat="44.11856" lon="3.02281">
        <ele>716.8</ele>
        <time>2022-04-05T14:13:13Z</time>
      </trkpt>
      <trkpt lat="44.11855" lon="3.02279">
        <ele>717</ele>
        <time>2022-04-05T14:13:14Z</time>
      </trkpt>
      <trkpt lat="44.11854" lon="3.02277">
        <ele>717.2</ele>
        <time>2022-04-05T14:13:15Z</time>
      </trkpt>
      <trkpt lat="44.11853" lon="3.02275">
        <ele>717.4</ele>
        <time>2022-04-05T14:13:16Z</time>
      </trkpt>
      <trkpt lat="44.11852" lon="3.02272">
        <ele>717.4</ele>
        <time>2022-04-05T14:13:17Z</time>
      </trkpt>
      <trkpt lat="44.11851" lon="3.0227">
        <ele>717.4</ele>
        <time>2022-04-05T14:13:18Z</time>
      </trkpt>
      <trkpt lat="44.1185" lon="3.02268">
        <ele>717.6</ele>
        <time>2022-04-05T14:13:19Z</time>
      </trkpt>
      <trkpt lat="44.11849" lon="3.02266">
        <ele>717.8</ele>
        <time>2022-04-05T14:13:20Z</time>
      </trkpt>
      <trkpt lat="44.11848" lon="3.02264">
        <ele>718.2</ele>
        <time>2022-04-05T14:13:21Z</time>
      </trkpt>
      <trkpt lat="44.11847" lon="3.02262">
        <ele>718.4</ele>
        <time>2022-04-05T14:13:22Z</time>
      </trkpt>
      <trkpt lat="44.11845" lon="3.02259">
        <ele>718.6</ele>
        <time>2022-04-05T14:13:23Z</time>
      </trkpt>
      <trkpt lat="44.11844" lon="3.02257">
        <ele>718.8</ele>
        <time>2022-04-05T14:13:24Z</time>
      </trkpt>
      <trkpt lat="44.11843" lon="3.02254">
        <ele>719</ele>
        <time>2022-04-05T14:13:25Z</time>
      </trkpt>
      <trkpt lat="44.11842" lon="3.02251">
        <ele>719</ele>
        <time>2022-04-05T14:13:26Z</time>
      </trkpt>
      <trkpt lat="44.1184" lon="3.02249">
        <ele>719</ele>
        <time>2022-04-05T14:13:27Z</time>
      </trkpt>
      <trkpt lat="44.11839" lon="3.02246">
        <ele>719.2</ele>
        <time>2022-04-05T14:13:28Z</time>
      </trkpt>
      <trkpt lat="44.11838" lon="3.02244">
        <ele>719.2</ele>
        <time>2022-04-05T14:13:29Z</time>
      </trkpt>
      <trkpt lat="44.11837" lon="3.02241">
        <ele>719.4</ele>
        <time>2022-04-05T14:13:30Z</time>
      </trkpt>
      <trkpt lat="44.11835" lon="3.02239">
        <ele>719.4</ele>
        <time>2022-04-05T14:13:31Z</time>
      </trkpt>
      <trkpt lat="44.11834" lon="3.02236">
        <ele>719.4</ele>
        <time>2022-04-05T14:13:32Z</time>
      </trkpt>
      <trkpt lat="44.11833" lon="3.02233">
        <ele>719.6</ele>
        <time>2022-04-05T14:13:33Z</time>
      </trkpt>
      <trkpt lat="44.11832" lon="3.02231">
        <ele>720</ele>
        <time>2022-04-05T14:13:34Z</time>
      </trkpt>
      <trkpt lat="44.11831" lon="3.02228">
        <ele>720.2</ele>
        <time>2022-04-05T14:13:35Z</time>
      </trkpt>
      <trkpt lat="44.11829" lon="3.02226">
        <ele>720.2</ele>
        <time>2022-04-05T14:13:36Z</time>
      </trkpt>
      <trkpt lat="44.11828" lon="3.02223">
        <ele>720.4</ele>
        <time>2022-04-05T14:13:37Z</time>
      </trkpt>
      <trkpt lat="44.11827" lon="3.02221">
        <ele>720.4</ele>
        <time>2022-04-05T14:13:38Z</time>
      </trkpt>
      <trkpt lat="44.11826" lon="3.02219">
        <ele>720.6</ele>
        <time>2022-04-05T14:13:39Z</time>
      </trkpt>
      <trkpt lat="44.11825" lon="3.02216">
        <ele>720.6</ele>
        <time>2022-04-05T14:13:40Z</time>
      </trkpt>
      <trkpt lat="44.11824" lon="3.02214">
        <ele>720.8</ele>
        <time>2022-04-05T14:13:41Z</time>
      </trkpt>
      <trkpt lat="44.11823" lon="3.02212">
        <ele>721</ele>
        <time>2022-04-05T14:13:42Z</time>
      </trkpt>
      <trkpt lat="44.11822" lon="3.02209">
        <ele>721.2</ele>
        <time>2022-04-05T14:13:43Z</time>
      </trkpt>
      <trkpt lat="44.11821" lon="3.02206">
        <ele>721.2</ele>
        <time>2022-04-05T14:13:44Z</time>
      </trkpt>
      <trkpt lat="44.1182" lon="3.02203">
        <ele>721.4</ele>
        <time>2022-04-05T14:13:45Z</time>
      </trkpt>
      <trkpt lat="44.11819" lon="3.02201">
        <ele>721.6</ele>
        <time>2022-04-05T14:13:46Z</time>
      </trkpt>
      <trkpt lat="44.11819" lon="3.02199">
        <ele>721.6</ele>
        <time>2022-04-05T14:13:47Z</time>
      </trkpt>
      <trkpt lat="44.11818" lon="3.02197">
        <ele>722</ele>
        <time>2022-04-05T14:13:48Z</time>
      </trkpt>
      <trkpt lat="44.11817" lon="3.02195">
        <ele>722</ele>
        <time>2022-04-05T14:13:49Z</time>
      </trkpt>
      <trkpt lat="44.11817" lon="3.02193">
        <ele>722.2</ele>
        <time>2022-04-05T14:13:50Z</time>
      </trkpt>
      <trkpt lat="44.11815" lon="3.02191">
        <ele>722.2</ele>
        <time>2022-04-05T14:13:51Z</time>
      </trkpt>
      <trkpt lat="44.11814" lon="3.02189">
        <ele>722.4</ele>
        <time>2022-04-05T14:13:52Z</time>
      </trkpt>
      <trkpt lat="44.11813" lon="3.02187">
        <ele>722.4</ele>
        <time>2022-04-05T14:13:53Z</time>
      </trkpt>
      <trkpt lat="44.11811" lon="3.02184">
        <ele>722.6</ele>
        <time>2022-04-05T14:13:54Z</time>
      </trkpt>
      <trkpt lat="44.1181" lon="3.02182">
        <ele>722.6</ele>
        <time>2022-04-05T14:13:55Z</time>
      </trkpt>
      <trkpt lat="44.11809" lon="3.02179">
        <ele>722.6</ele>
        <time>2022-04-05T14:13:56Z</time>
      </trkpt>
      <trkpt lat="44.11808" lon="3.02177">
        <ele>722.8</ele>
        <time>2022-04-05T14:13:57Z</time>
      </trkpt>
      <trkpt lat="44.11806" lon="3.02174">
        <ele>723</ele>
        <time>2022-04-05T14:13:58Z</time>
      </trkpt>
      <trkpt lat="44.11805" lon="3.02171">
        <ele>723</ele>
        <time>2022-04-05T14:13:59Z</time>
      </trkpt>
      <trkpt lat="44.11804" lon="3.02169">
        <ele>723</ele>
        <time>2022-04-05T14:14:00Z</time>
      </trkpt>
      <trkpt lat="44.11803" lon="3.02166">
        <ele>723</ele>
        <time>2022-04-05T14:14:01Z</time>
      </trkpt>
      <trkpt lat="44.11802" lon="3.02163">
        <ele>723.2</ele>
        <time>2022-04-05T14:14:02Z</time>
      </trkpt>
      <trkpt lat="44.11801" lon="3.0216">
        <ele>723.2</ele>
        <time>2022-04-05T14:14:03Z</time>
      </trkpt>
      <trkpt lat="44.118" lon="3.02157">
        <ele>723.2</ele>
        <time>2022-04-05T14:14:04Z</time>
      </trkpt>
      <trkpt lat="44.11798" lon="3.02154">
        <ele>723.2</ele>
        <time>2022-04-05T14:14:05Z</time>
      </trkpt>
      <trkpt lat="44.11796" lon="3.02152">
        <ele>723.4</ele>
        <time>2022-04-05T14:14:06Z</time>
      </trkpt>
      <trkpt lat="44.11795" lon="3.02149">
        <ele>723.4</ele>
        <time>2022-04-05T14:14:07Z</time>
      </trkpt>
      <trkpt lat="44.11793" lon="3.02146">
        <ele>723.2</ele>
        <time>2022-04-05T14:14:08Z</time>
      </trkpt>
      <trkpt lat="44.11791" lon="3.02144">
        <ele>723.2</ele>
        <time>2022-04-05T14:14:09Z</time>
      </trkpt>
      <trkpt lat="44.1179" lon="3.02141">
        <ele>723.2</ele>
        <time>2022-04-05T14:14:10Z</time>
      </trkpt>
      <trkpt lat="44.11788" lon="3.02138">
        <ele>723.2</ele>
        <time>2022-04-05T14:14:11Z</time>
      </trkpt>
      <trkpt lat="44.11786" lon="3.02136">
        <ele>723.2</ele>
        <time>2022-04-05T14:14:12Z</time>
      </trkpt>
      <trkpt lat="44.11785" lon="3.02133">
        <ele>723</ele>
        <time>2022-04-05T14:14:13Z</time>
      </trkpt>
      <trkpt lat="44.11783" lon="3.0213">
        <ele>723</ele>
        <time>2022-04-05T14:14:14Z</time>
      </trkpt>
      <trkpt lat="44.11781" lon="3.02127">
        <ele>722.8</ele>
        <time>2022-04-05T14:14:15Z</time>
      </trkpt>
      <trkpt lat="44.11779" lon="3.02125">
        <ele>722.8</ele>
        <time>2022-04-05T14:14:16Z</time>
      </trkpt>
      <trkpt lat="44.11777" lon="3.02121">
        <ele>722.6</ele>
        <time>2022-04-05T14:14:17Z</time>
      </trkpt>
      <trkpt lat="44.11776" lon="3.02117">
        <ele>722.6</ele>
        <time>2022-04-05T14:14:18Z</time>
      </trkpt>
      <trkpt lat="44.11776" lon="3.02112">
        <ele>722.6</ele>
        <time>2022-04-05T14:14:19Z</time>
      </trkpt>
      <trkpt lat="44.11776" lon="3.02108">
        <ele>722.4</ele>
        <time>2022-04-05T14:14:20Z</time>
      </trkpt>
      <trkpt lat="44.11777" lon="3.02105">
        <ele>722.2</ele>
        <time>2022-04-05T14:14:21Z</time>
      </trkpt>
      <trkpt lat="44.11778" lon="3.02101">
        <ele>722</ele>
        <time>2022-04-05T14:14:22Z</time>
      </trkpt>
      <trkpt lat="44.11778" lon="3.02097">
        <ele>722</ele>
        <time>2022-04-05T14:14:23Z</time>
      </trkpt>
      <trkpt lat="44.11778" lon="3.02093">
        <ele>722</ele>
        <time>2022-04-05T14:14:24Z</time>
      </trkpt>
      <trkpt lat="44.11779" lon="3.0209">
        <ele>721.8</ele>
        <time>2022-04-05T14:14:25Z</time>
      </trkpt>
      <trkpt lat="44.11779" lon="3.02086">
        <ele>721.8</ele>
        <time>2022-04-05T14:14:26Z</time>
      </trkpt>
      <trkpt lat="44.11779" lon="3.02082">
        <ele>722</ele>
        <time>2022-04-05T14:14:27Z</time>
      </trkpt>
      <trkpt lat="44.11779" lon="3.02078">
        <ele>722</ele>
        <time>2022-04-05T14:14:28Z</time>
      </trkpt>
      <trkpt lat="44.11779" lon="3.02074">
        <ele>722.2</ele>
        <time>2022-04-05T14:14:29Z</time>
      </trkpt>
      <trkpt lat="44.11779" lon="3.02069">
        <ele>722.2</ele>
        <time>2022-04-05T14:14:30Z</time>
      </trkpt>
      <trkpt lat="44.11779" lon="3.02065">
        <ele>722.2</ele>
        <time>2022-04-05T14:14:31Z</time>
      </trkpt>
      <trkpt lat="44.11779" lon="3.02061">
        <ele>722.2</ele>
        <time>2022-04-05T14:14:32Z</time>
      </trkpt>
      <trkpt lat="44.11779" lon="3.02057">
        <ele>722.4</ele>
        <time>2022-04-05T14:14:33Z</time>
      </trkpt>
      <trkpt lat="44.11779" lon="3.02052">
        <ele>722.4</ele>
        <time>2022-04-05T14:14:34Z</time>
      </trkpt>
      <trkpt lat="44.11779" lon="3.02048">
        <ele>722.4</ele>
        <time>2022-04-05T14:14:35Z</time>
      </trkpt>
      <trkpt lat="44.11779" lon="3.02044">
        <ele>722.4</ele>
        <time>2022-04-05T14:14:36Z</time>
      </trkpt>
      <trkpt lat="44.11779" lon="3.0204">
        <ele>722.4</ele>
        <time>2022-04-05T14:14:37Z</time>
      </trkpt>
      <trkpt lat="44.11779" lon="3.02036">
        <ele>722.6</ele>
        <time>2022-04-05T14:14:38Z</time>
      </trkpt>
      <trkpt lat="44.11779" lon="3.02032">
        <ele>722.6</ele>
        <time>2022-04-05T14:14:39Z</time>
      </trkpt>
      <trkpt lat="44.1178" lon="3.02028">
        <ele>722.6</ele>
        <time>2022-04-05T14:14:40Z</time>
      </trkpt>
      <trkpt lat="44.1178" lon="3.02024">
        <ele>722.6</ele>
        <time>2022-04-05T14:14:41Z</time>
      </trkpt>
      <trkpt lat="44.11781" lon="3.0202">
        <ele>722.6</ele>
        <time>2022-04-05T14:14:42Z</time>
      </trkpt>
      <trkpt lat="44.11782" lon="3.02016">
        <ele>722.6</ele>
        <time>2022-04-05T14:14:43Z</time>
      </trkpt>
      <trkpt lat="44.11784" lon="3.02013">
        <ele>722.8</ele>
        <time>2022-04-05T14:14:44Z</time>
      </trkpt>
      <trkpt lat="44.11785" lon="3.0201">
        <ele>723</ele>
        <time>2022-04-05T14:14:45Z</time>
      </trkpt>
      <trkpt lat="44.11786" lon="3.02007">
        <ele>723.2</ele>
        <time>2022-04-05T14:14:46Z</time>
      </trkpt>
      <trkpt lat="44.11787" lon="3.02004">
        <ele>723.2</ele>
        <time>2022-04-05T14:14:47Z</time>
      </trkpt>
      <trkpt lat="44.11788" lon="3.02">
        <ele>723.4</ele>
        <time>2022-04-05T14:14:48Z</time>
      </trkpt>
      <trkpt lat="44.11789" lon="3.01997">
        <ele>723.4</ele>
        <time>2022-04-05T14:14:49Z</time>
      </trkpt>
      <trkpt lat="44.1179" lon="3.01993">
        <ele>723.6</ele>
        <time>2022-04-05T14:14:50Z</time>
      </trkpt>
      <trkpt lat="44.11791" lon="3.0199">
        <ele>723.6</ele>
        <time>2022-04-05T14:14:51Z</time>
      </trkpt>
      <trkpt lat="44.11792" lon="3.01986">
        <ele>723.8</ele>
        <time>2022-04-05T14:14:52Z</time>
      </trkpt>
      <trkpt lat="44.11793" lon="3.01983">
        <ele>723.8</ele>
        <time>2022-04-05T14:14:53Z</time>
      </trkpt>
      <trkpt lat="44.11794" lon="3.01979">
        <ele>724</ele>
        <time>2022-04-05T14:14:54Z</time>
      </trkpt>
      <trkpt lat="44.11795" lon="3.01976">
        <ele>724</ele>
        <time>2022-04-05T14:14:55Z</time>
      </trkpt>
      <trkpt lat="44.11796" lon="3.01972">
        <ele>724.4</ele>
        <time>2022-04-05T14:14:56Z</time>
      </trkpt>
      <trkpt lat="44.11797" lon="3.01968">
        <ele>724.6</ele>
        <time>2022-04-05T14:14:57Z</time>
      </trkpt>
      <trkpt lat="44.11798" lon="3.01965">
        <ele>724.6</ele>
        <time>2022-04-05T14:14:58Z</time>
      </trkpt>
      <trkpt lat="44.11799" lon="3.01961">
        <ele>724.8</ele>
        <time>2022-04-05T14:14:59Z</time>
      </trkpt>
      <trkpt lat="44.118" lon="3.01957">
        <ele>725</ele>
        <time>2022-04-05T14:15:00Z</time>
      </trkpt>
      <trkpt lat="44.11801" lon="3.01953">
        <ele>725.6</ele>
        <time>2022-04-05T14:15:01Z</time>
      </trkpt>
      <trkpt lat="44.11802" lon="3.01949">
        <ele>725.8</ele>
        <time>2022-04-05T14:15:02Z</time>
      </trkpt>
      <trkpt lat="44.11803" lon="3.01945">
        <ele>726</ele>
        <time>2022-04-05T14:15:03Z</time>
      </trkpt>
      <trkpt lat="44.11804" lon="3.01942">
        <ele>726.2</ele>
        <time>2022-04-05T14:15:04Z</time>
      </trkpt>
      <trkpt lat="44.11806" lon="3.01938">
        <ele>726.2</ele>
        <time>2022-04-05T14:15:05Z</time>
      </trkpt>
      <trkpt lat="44.11807" lon="3.01935">
        <ele>726.4</ele>
        <time>2022-04-05T14:15:06Z</time>
      </trkpt>
      <trkpt lat="44.11808" lon="3.01931">
        <ele>726.6</ele>
        <time>2022-04-05T14:15:07Z</time>
      </trkpt>
      <trkpt lat="44.11809" lon="3.01927">
        <ele>726.8</ele>
        <time>2022-04-05T14:15:08Z</time>
      </trkpt>
      <trkpt lat="44.1181" lon="3.01924">
        <ele>726.8</ele>
        <time>2022-04-05T14:15:09Z</time>
      </trkpt>
      <trkpt lat="44.1181" lon="3.01921">
        <ele>727</ele>
        <time>2022-04-05T14:15:10Z</time>
      </trkpt>
      <trkpt lat="44.11811" lon="3.01916">
        <ele>727</ele>
        <time>2022-04-05T14:15:11Z</time>
      </trkpt>
      <trkpt lat="44.11811" lon="3.01913">
        <ele>727.2</ele>
        <time>2022-04-05T14:15:12Z</time>
      </trkpt>
      <trkpt lat="44.11812" lon="3.01909">
        <ele>727.2</ele>
        <time>2022-04-05T14:15:13Z</time>
      </trkpt>
      <trkpt lat="44.11812" lon="3.01905">
        <ele>727.2</ele>
        <time>2022-04-05T14:15:14Z</time>
      </trkpt>
      <trkpt lat="44.11813" lon="3.01901">
        <ele>727.2</ele>
        <time>2022-04-05T14:15:15Z</time>
      </trkpt>
      <trkpt lat="44.11813" lon="3.01896">
        <ele>727.2</ele>
        <time>2022-04-05T14:15:16Z</time>
      </trkpt>
      <trkpt lat="44.11812" lon="3.01889">
        <ele>727</ele>
        <time>2022-04-05T14:15:17Z</time>
      </trkpt>
      <trkpt lat="44.11811" lon="3.01885">
        <ele>727</ele>
        <time>2022-04-05T14:15:18Z</time>
      </trkpt>
      <trkpt lat="44.11809" lon="3.01878">
        <ele>727</ele>
        <time>2022-04-05T14:15:19Z</time>
      </trkpt>
      <trkpt lat="44.11807" lon="3.01871">
        <ele>727</ele>
        <time>2022-04-05T14:15:20Z</time>
      </trkpt>
      <trkpt lat="44.11805" lon="3.01865">
        <ele>726.8</ele>
        <time>2022-04-05T14:15:21Z</time>
      </trkpt>
      <trkpt lat="44.11802" lon="3.01857">
        <ele>726.6</ele>
        <time>2022-04-05T14:15:22Z</time>
      </trkpt>
      <trkpt lat="44.11799" lon="3.01848">
        <ele>726</ele>
        <time>2022-04-05T14:15:23Z</time>
      </trkpt>
      <trkpt lat="44.11796" lon="3.01839">
        <ele>725.8</ele>
        <time>2022-04-05T14:15:24Z</time>
      </trkpt>
      <trkpt lat="44.11794" lon="3.0183">
        <ele>725.4</ele>
        <time>2022-04-05T14:15:25Z</time>
      </trkpt>
      <trkpt lat="44.11791" lon="3.01822">
        <ele>725.4</ele>
        <time>2022-04-05T14:15:26Z</time>
      </trkpt>
      <trkpt lat="44.11787" lon="3.01815">
        <ele>724.6</ele>
        <time>2022-04-05T14:15:27Z</time>
      </trkpt>
      <trkpt lat="44.11782" lon="3.0181">
        <ele>723.8</ele>
        <time>2022-04-05T14:15:28Z</time>
      </trkpt>
      <trkpt lat="44.11777" lon="3.01807">
        <ele>723.4</ele>
        <time>2022-04-05T14:15:29Z</time>
      </trkpt>
      <trkpt lat="44.11775" lon="3.01806">
        <ele>722</ele>
        <time>2022-04-05T14:15:30Z</time>
      </trkpt>
      <trkpt lat="44.11773" lon="3.01806">
        <ele>721</ele>
        <time>2022-04-05T14:15:31Z</time>
      </trkpt>
      <trkpt lat="44.11772" lon="3.01805">
        <ele>719.6</ele>
        <time>2022-04-05T14:15:32Z</time>
      </trkpt>
      <trkpt lat="44.1177" lon="3.01804">
        <ele>718.6</ele>
        <time>2022-04-05T14:15:33Z</time>
      </trkpt>
      <trkpt lat="44.11769" lon="3.01802">
        <ele>717.2</ele>
        <time>2022-04-05T14:15:34Z</time>
      </trkpt>
      <trkpt lat="44.11767" lon="3.01801">
        <ele>716.6</ele>
        <time>2022-04-05T14:15:35Z</time>
      </trkpt>
      <trkpt lat="44.11766" lon="3.01801">
        <ele>715.4</ele>
        <time>2022-04-05T14:15:36Z</time>
      </trkpt>
      <trkpt lat="44.11763" lon="3.01801">
        <ele>714.8</ele>
        <time>2022-04-05T14:15:37Z</time>
      </trkpt>
      <trkpt lat="44.11761" lon="3.018">
        <ele>714.6</ele>
        <time>2022-04-05T14:15:38Z</time>
      </trkpt>
      <trkpt lat="44.11758" lon="3.01799">
        <ele>714.2</ele>
        <time>2022-04-05T14:15:39Z</time>
      </trkpt>
      <trkpt lat="44.11755" lon="3.01797">
        <ele>714</ele>
        <time>2022-04-05T14:15:40Z</time>
      </trkpt>
      <trkpt lat="44.11752" lon="3.01796">
        <ele>713.8</ele>
        <time>2022-04-05T14:15:41Z</time>
      </trkpt>
      <trkpt lat="44.11749" lon="3.01795">
        <ele>713.8</ele>
        <time>2022-04-05T14:15:42Z</time>
      </trkpt>
      <trkpt lat="44.11745" lon="3.01793">
        <ele>713</ele>
        <time>2022-04-05T14:15:43Z</time>
      </trkpt>
      <trkpt lat="44.11743" lon="3.01792">
        <ele>713</ele>
        <time>2022-04-05T14:15:44Z</time>
      </trkpt>
      <trkpt lat="44.11741" lon="3.0179">
        <ele>712.6</ele>
        <time>2022-04-05T14:15:45Z</time>
      </trkpt>
      <trkpt lat="44.11739" lon="3.01788">
        <ele>712.6</ele>
        <time>2022-04-05T14:15:46Z</time>
      </trkpt>
      <trkpt lat="44.11736" lon="3.01786">
        <ele>712.2</ele>
        <time>2022-04-05T14:15:47Z</time>
      </trkpt>
      <trkpt lat="44.11736" lon="3.01786">
        <ele>711.8</ele>
        <time>2022-04-05T14:15:48Z</time>
      </trkpt>
      <trkpt lat="44.11735" lon="3.01785">
        <ele>711.6</ele>
        <time>2022-04-05T14:15:49Z</time>
      </trkpt>
      <trkpt lat="44.11734" lon="3.01783">
        <ele>711.6</ele>
        <time>2022-04-05T14:15:50Z</time>
      </trkpt>
      <trkpt lat="44.11731" lon="3.01781">
        <ele>711.6</ele>
        <time>2022-04-05T14:15:51Z</time>
      </trkpt>
      <trkpt lat="44.11729" lon="3.01779">
        <ele>711.4</ele>
        <time>2022-04-05T14:15:52Z</time>
      </trkpt>
      <trkpt lat="44.11726" lon="3.01776">
        <ele>711.4</ele>
        <time>2022-04-05T14:15:53Z</time>
      </trkpt>
      <trkpt lat="44.11723" lon="3.01774">
        <ele>711.2</ele>
        <time>2022-04-05T14:15:54Z</time>
      </trkpt>
      <trkpt lat="44.1172" lon="3.01769">
        <ele>711.4</ele>
        <time>2022-04-05T14:15:55Z</time>
      </trkpt>
      <trkpt lat="44.11717" lon="3.01765">
        <ele>711.4</ele>
        <time>2022-04-05T14:15:56Z</time>
      </trkpt>
      <trkpt lat="44.11715" lon="3.0176">
        <ele>711.4</ele>
        <time>2022-04-05T14:15:57Z</time>
      </trkpt>
      <trkpt lat="44.11713" lon="3.01757">
        <ele>711.2</ele>
        <time>2022-04-05T14:15:58Z</time>
      </trkpt>
      <trkpt lat="44.1171" lon="3.01752">
        <ele>711</ele>
        <time>2022-04-05T14:15:59Z</time>
      </trkpt>
      <trkpt lat="44.11707" lon="3.01748">
        <ele>711</ele>
        <time>2022-04-05T14:16:00Z</time>
      </trkpt>
      <trkpt lat="44.11692" lon="3.01727">
        <ele>693.1</ele>
      </trkpt>
      <trkpt lat="44.11684" lon="3.01719">
        <ele>692.5</ele>
      </trkpt>
      <trkpt lat="44.11675" lon="3.01709">
        <ele>692.6</ele>
        <time>2021-03-06T13:56:13Z</time>
      </trkpt>
      <trkpt lat="44.11673" lon="3.01703">
        <ele>692.6</ele>
        <time>2021-03-06T13:56:14Z</time>
      </trkpt>
      <trkpt lat="44.11673" lon="3.01697">
        <ele>692.5</ele>
        <time>2021-03-06T13:56:15Z</time>
      </trkpt>
      <trkpt lat="44.11671" lon="3.01683">
        <ele>692.5</ele>
        <time>2021-03-06T13:56:17Z</time>
      </trkpt>
      <trkpt lat="44.11669" lon="3.01676">
        <ele>692.3</ele>
        <time>2021-03-06T13:56:18Z</time>
      </trkpt>
      <trkpt lat="44.11666" lon="3.0167">
        <ele>692.4</ele>
        <time>2021-03-06T13:56:19Z</time>
      </trkpt>
      <trkpt lat="44.11664" lon="3.01664">
        <ele>692.4</ele>
        <time>2021-03-06T13:56:20Z</time>
      </trkpt>
      <trkpt lat="44.11659" lon="3.0166">
        <ele>692.4</ele>
        <time>2021-03-06T13:56:21Z</time>
      </trkpt>
      <trkpt lat="44.11649" lon="3.01653">
        <ele>692.6</ele>
        <time>2021-03-06T13:56:23Z</time>
      </trkpt>
      <trkpt lat="44.11645" lon="3.01649">
        <ele>692.6</ele>
        <time>2021-03-06T13:56:24Z</time>
      </trkpt>
      <trkpt lat="44.11642" lon="3.01644">
        <ele>692.5</ele>
        <time>2021-03-06T13:56:25Z</time>
      </trkpt>
      <trkpt lat="44.11637" lon="3.01635">
        <ele>692.4</ele>
        <time>2021-03-06T13:56:27Z</time>
      </trkpt>
      <trkpt lat="44.1163" lon="3.01624">
        <ele>692.6</ele>
        <time>2021-03-06T13:56:29Z</time>
      </trkpt>
      <trkpt lat="44.11628" lon="3.01618">
        <ele>692.5</ele>
        <time>2021-03-06T13:56:30Z</time>
      </trkpt>
      <trkpt lat="44.11622" lon="3.01608">
        <ele>692.5</ele>
        <time>2021-03-06T13:56:32Z</time>
      </trkpt>
      <trkpt lat="44.11617" lon="3.01601">
        <ele>692.5</ele>
        <time>2021-03-06T13:56:34Z</time>
      </trkpt>
      <trkpt lat="44.11612" lon="3.01597">
        <ele>692.6</ele>
        <time>2021-03-06T13:56:35Z</time>
      </trkpt>
      <trkpt lat="44.11603" lon="3.01591">
        <ele>692.8</ele>
        <time>2021-03-06T13:56:37Z</time>
      </trkpt>
      <trkpt lat="44.11601" lon="3.01579">
        <ele>692.9</ele>
        <time>2021-03-06T13:56:39Z</time>
      </trkpt>
      <trkpt lat="44.11605" lon="3.01575">
        <ele>692.7</ele>
        <time>2021-03-06T13:56:40Z</time>
      </trkpt>
      <trkpt lat="44.11605" lon="3.01569">
        <ele>692.7</ele>
        <time>2021-03-06T13:56:41Z</time>
      </trkpt>
      <trkpt lat="44.11602" lon="3.01563">
        <ele>692.9</ele>
        <time>2021-03-06T13:56:43Z</time>
      </trkpt>
      <trkpt lat="44.11599" lon="3.01558">
        <ele>693.1</ele>
        <time>2021-03-06T13:56:44Z</time>
      </trkpt>
      <trkpt lat="44.11592" lon="3.01549">
        <ele>693.6</ele>
        <time>2021-03-06T13:56:46Z</time>
      </trkpt>
      <trkpt lat="44.11588" lon="3.01542">
        <ele>693.9</ele>
        <time>2021-03-06T13:56:47Z</time>
      </trkpt>
      <trkpt lat="44.11586" lon="3.01535">
        <ele>694.1</ele>
        <time>2021-03-06T13:56:48Z</time>
      </trkpt>
      <trkpt lat="44.11582" lon="3.01526">
        <ele>694.3</ele>
        <time>2021-03-06T13:56:50Z</time>
      </trkpt>
      <trkpt lat="44.11579" lon="3.01521">
        <ele>694.5</ele>
        <time>2021-03-06T13:56:51Z</time>
      </trkpt>
      <trkpt lat="44.11575" lon="3.01514">
        <ele>694.7</ele>
        <time>2021-03-06T13:56:52Z</time>
      </trkpt>
      <trkpt lat="44.11574" lon="3.0151">
        <ele>694.7</ele>
        <time>2021-03-06T13:56:53Z</time>
      </trkpt>
      <trkpt lat="44.11572" lon="3.01504">
        <ele>694.7</ele>
        <time>2021-03-06T13:56:55Z</time>
      </trkpt>
      <trkpt lat="44.1157" lon="3.01498">
        <ele>694.7</ele>
        <time>2021-03-06T13:56:56Z</time>
      </trkpt>
      <trkpt lat="44.1157" lon="3.01492">
        <ele>694.6</ele>
        <time>2021-03-06T13:56:57Z</time>
      </trkpt>
      <trkpt lat="44.11567" lon="3.01486">
        <ele>694.6</ele>
        <time>2021-03-06T13:56:58Z</time>
      </trkpt>
      <trkpt lat="44.11566" lon="3.0148">
        <ele>694.5</ele>
        <time>2021-03-06T13:56:59Z</time>
      </trkpt>
      <trkpt lat="44.11565" lon="3.01471">
        <ele>694.4</ele>
        <time>2021-03-06T13:57:01Z</time>
      </trkpt>
      <trkpt lat="44.11563" lon="3.01462">
        <ele>694.4</ele>
        <time>2021-03-06T13:57:02Z</time>
      </trkpt>
      <trkpt lat="44.11559" lon="3.01456">
        <ele>694.4</ele>
        <time>2021-03-06T13:57:04Z</time>
      </trkpt>
      <trkpt lat="44.11557" lon="3.01452">
        <ele>694.3</ele>
        <time>2021-03-06T13:57:05Z</time>
      </trkpt>
      <trkpt lat="44.11556" lon="3.01447">
        <ele>694.3</ele>
        <time>2021-03-06T13:57:06Z</time>
      </trkpt>
      <trkpt lat="44.11555" lon="3.0144">
        <ele>694.3</ele>
        <time>2021-03-06T13:57:07Z</time>
      </trkpt>
      <trkpt lat="44.11554" lon="3.01435">
        <ele>694.2</ele>
        <time>2021-03-06T13:57:08Z</time>
      </trkpt>
      <trkpt lat="44.11552" lon="3.0143">
        <ele>694.2</ele>
        <time>2021-03-06T13:57:09Z</time>
      </trkpt>
      <trkpt lat="44.11551" lon="3.01424">
        <ele>694</ele>
        <time>2021-03-06T13:57:10Z</time>
      </trkpt>
      <trkpt lat="44.11549" lon="3.0142">
        <ele>694</ele>
        <time>2021-03-06T13:57:11Z</time>
      </trkpt>
      <trkpt lat="44.11546" lon="3.01412">
        <ele>693.9</ele>
        <time>2021-03-06T13:57:13Z</time>
      </trkpt>
      <trkpt lat="44.11544" lon="3.01406">
        <ele>693.7</ele>
        <time>2021-03-06T13:57:14Z</time>
      </trkpt>
      <trkpt lat="44.1154" lon="3.01399">
        <ele>693.6</ele>
        <time>2021-03-06T13:57:15Z</time>
      </trkpt>
      <trkpt lat="44.11536" lon="3.01393">
        <ele>693.5</ele>
        <time>2021-03-06T13:57:17Z</time>
      </trkpt>
      <trkpt lat="44.1153" lon="3.01384">
        <ele>693.3</ele>
        <time>2021-03-06T13:57:19Z</time>
      </trkpt>
      <trkpt lat="44.11528" lon="3.0138">
        <ele>693.2</ele>
        <time>2021-03-06T13:57:20Z</time>
      </trkpt>
      <trkpt lat="44.11524" lon="3.01377">
        <ele>693.1</ele>
        <time>2021-03-06T13:57:21Z</time>
      </trkpt>
      <trkpt lat="44.11521" lon="3.01374">
        <ele>693</ele>
        <time>2021-03-06T13:57:22Z</time>
      </trkpt>
      <trkpt lat="44.11518" lon="3.0137">
        <ele>692.9</ele>
        <time>2021-03-06T13:57:23Z</time>
      </trkpt>
      <trkpt lat="44.11513" lon="3.01365">
        <ele>692.7</ele>
        <time>2021-03-06T13:57:24Z</time>
      </trkpt>
      <trkpt lat="44.1151" lon="3.01359">
        <ele>692.6</ele>
        <time>2021-03-06T13:57:25Z</time>
      </trkpt>
      <trkpt lat="44.11502" lon="3.01357">
        <ele>692.6</ele>
        <time>2021-03-06T13:57:27Z</time>
      </trkpt>
      <trkpt lat="44.11497" lon="3.01355">
        <ele>692.6</ele>
        <time>2021-03-06T13:57:28Z</time>
      </trkpt>
      <trkpt lat="44.11491" lon="3.01355">
        <ele>692.5</ele>
        <time>2021-03-06T13:57:29Z</time>
      </trkpt>
      <trkpt lat="44.11481" lon="3.01356">
        <ele>692.4</ele>
        <time>2021-03-06T13:57:31Z</time>
      </trkpt>
      <trkpt lat="44.11474" lon="3.01355">
        <ele>692.2</ele>
        <time>2021-03-06T13:57:32Z</time>
      </trkpt>
      <trkpt lat="44.11468" lon="3.01353">
        <ele>692.1</ele>
        <time>2021-03-06T13:57:33Z</time>
      </trkpt>
      <trkpt lat="44.11462" lon="3.0135">
        <ele>691.9</ele>
        <time>2021-03-06T13:57:34Z</time>
      </trkpt>
      <trkpt lat="44.11452" lon="3.01343">
        <ele>691.7</ele>
        <time>2021-03-06T13:57:36Z</time>
      </trkpt>
      <trkpt lat="44.11442" lon="3.01334">
        <ele>691.5</ele>
        <time>2021-03-06T13:57:38Z</time>
      </trkpt>
      <trkpt lat="44.11438" lon="3.0133">
        <ele>691.5</ele>
        <time>2021-03-06T13:57:39Z</time>
      </trkpt>
      <trkpt lat="44.11428" lon="3.0132">
        <ele>691.3</ele>
        <time>2021-03-06T13:57:41Z</time>
      </trkpt>
      <trkpt lat="44.11423" lon="3.01315">
        <ele>691.1</ele>
        <time>2021-03-06T13:57:42Z</time>
      </trkpt>
      <trkpt lat="44.11413" lon="3.01309">
        <ele>690.9</ele>
        <time>2021-03-06T13:57:44Z</time>
      </trkpt>
      <trkpt lat="44.11403" lon="3.013">
        <ele>690.6</ele>
        <time>2021-03-06T13:57:46Z</time>
      </trkpt>
      <trkpt lat="44.11398" lon="3.01295">
        <ele>690.5</ele>
        <time>2021-03-06T13:57:47Z</time>
      </trkpt>
      <trkpt lat="44.11394" lon="3.01289">
        <ele>690.4</ele>
        <time>2021-03-06T13:57:48Z</time>
      </trkpt>
      <trkpt lat="44.11386" lon="3.01277">
        <ele>690.3</ele>
        <time>2021-03-06T13:57:50Z</time>
      </trkpt>
      <trkpt lat="44.11382" lon="3.01271">
        <ele>690.2</ele>
        <time>2021-03-06T13:57:51Z</time>
      </trkpt>
      <trkpt lat="44.11372" lon="3.01262">
        <ele>689.8</ele>
        <time>2021-03-06T13:57:53Z</time>
      </trkpt>
      <trkpt lat="44.11363" lon="3.01251">
        <ele>689.3</ele>
        <time>2021-03-06T13:57:55Z</time>
      </trkpt>
      <trkpt lat="44.1136" lon="3.01244">
        <ele>689.1</ele>
        <time>2021-03-06T13:57:56Z</time>
      </trkpt>
      <trkpt lat="44.11352" lon="3.01233">
        <ele>688.4</ele>
        <time>2021-03-06T13:57:58Z</time>
      </trkpt>
      <trkpt lat="44.11347" lon="3.01221">
        <ele>688.1</ele>
        <time>2021-03-06T13:58:00Z</time>
      </trkpt>
      <trkpt lat="44.11348" lon="3.01213">
        <ele>688.3</ele>
        <time>2021-03-06T13:58:01Z</time>
      </trkpt>
      <trkpt lat="44.11352" lon="3.01199">
        <ele>688.5</ele>
        <time>2021-03-06T13:58:03Z</time>
      </trkpt>
      <trkpt lat="44.11352" lon="3.01193">
        <ele>688.6</ele>
        <time>2021-03-06T13:58:04Z</time>
      </trkpt>
      <trkpt lat="44.11352" lon="3.01179">
        <ele>688.6</ele>
        <time>2021-03-06T13:58:06Z</time>
      </trkpt>
      <trkpt lat="44.11351" lon="3.01172">
        <ele>688.7</ele>
        <time>2021-03-06T13:58:07Z</time>
      </trkpt>
      <trkpt lat="44.11348" lon="3.01156">
        <ele>688.6</ele>
        <time>2021-03-06T13:58:09Z</time>
      </trkpt>
      <trkpt lat="44.11348" lon="3.01148">
        <ele>688.5</ele>
        <time>2021-03-06T13:58:10Z</time>
      </trkpt>
      <trkpt lat="44.11345" lon="3.01133">
        <ele>688.2</ele>
        <time>2021-03-06T13:58:12Z</time>
      </trkpt>
      <trkpt lat="44.11344" lon="3.01126">
        <ele>688.1</ele>
        <time>2021-03-06T13:58:13Z</time>
      </trkpt>
      <trkpt lat="44.11343" lon="3.01119">
        <ele>687.9</ele>
        <time>2021-03-06T13:58:14Z</time>
      </trkpt>
      <trkpt lat="44.11339" lon="3.01105">
        <ele>687.5</ele>
        <time>2021-03-06T13:58:16Z</time>
      </trkpt>
      <trkpt lat="44.11338" lon="3.01089">
        <ele>687</ele>
        <time>2021-03-06T13:58:18Z</time>
      </trkpt>
      <trkpt lat="44.11335" lon="3.01073">
        <ele>686.4</ele>
        <time>2021-03-06T13:58:20Z</time>
      </trkpt>
      <trkpt lat="44.11335" lon="3.01065">
        <ele>686.1</ele>
        <time>2021-03-06T13:58:21Z</time>
      </trkpt>
      <trkpt lat="44.11334" lon="3.01048">
        <ele>685.6</ele>
        <time>2021-03-06T13:58:23Z</time>
      </trkpt>
      <trkpt lat="44.11333" lon="3.0104">
        <ele>685.5</ele>
        <time>2021-03-06T13:58:24Z</time>
      </trkpt>
      <trkpt lat="44.1133" lon="3.01021">
        <ele>684.7</ele>
        <time>2021-03-06T13:58:26Z</time>
      </trkpt>
      <trkpt lat="44.11324" lon="3.01004">
        <ele>683.7</ele>
        <time>2021-03-06T13:58:28Z</time>
      </trkpt>
      <trkpt lat="44.11322" lon="3.00994">
        <ele>683.1</ele>
        <time>2021-03-06T13:58:29Z</time>
      </trkpt>
      <trkpt lat="44.11317" lon="3.00975">
        <ele>682.1</ele>
        <time>2021-03-06T13:58:31Z</time>
      </trkpt>
      <trkpt lat="44.11311" lon="3.0096">
        <ele>681.2</ele>
        <time>2021-03-06T13:58:33Z</time>
      </trkpt>
      <trkpt lat="44.11311" lon="3.00953">
        <ele>680.8</ele>
        <time>2021-03-06T13:58:34Z</time>
      </trkpt>
      <trkpt lat="44.11312" lon="3.00946">
        <ele>680.5</ele>
        <time>2021-03-06T13:58:35Z</time>
      </trkpt>
      <trkpt lat="44.11307" lon="3.00933">
        <ele>679.7</ele>
        <time>2021-03-06T13:58:37Z</time>
      </trkpt>
      <trkpt lat="44.11304" lon="3.00926">
        <ele>679.3</ele>
        <time>2021-03-06T13:58:38Z</time>
      </trkpt>
      <trkpt lat="44.11299" lon="3.0091">
        <ele>678.4</ele>
        <time>2021-03-06T13:58:40Z</time>
      </trkpt>
      <trkpt lat="44.11297" lon="3.00901">
        <ele>677.8</ele>
        <time>2021-03-06T13:58:41Z</time>
      </trkpt>
      <trkpt lat="44.11294" lon="3.00891">
        <ele>677.1</ele>
        <time>2021-03-06T13:58:42Z</time>
      </trkpt>
      <trkpt lat="44.11289" lon="3.0087">
        <ele>675.4</ele>
        <time>2021-03-06T13:58:44Z</time>
      </trkpt>
      <trkpt lat="44.11283" lon="3.0085">
        <ele>673.3</ele>
        <time>2021-03-06T13:58:46Z</time>
      </trkpt>
      <trkpt lat="44.11282" lon="3.00838">
        <ele>672.1</ele>
        <time>2021-03-06T13:58:47Z</time>
      </trkpt>
      <trkpt lat="44.11282" lon="3.00814">
        <ele>669.4</ele>
        <time>2021-03-06T13:58:49Z</time>
      </trkpt>
      <trkpt lat="44.11283" lon="3.00792">
        <ele>665.9</ele>
        <time>2021-03-06T13:58:51Z</time>
      </trkpt>
      <trkpt lat="44.1128" lon="3.00776">
        <ele>663.3</ele>
        <time>2021-03-06T13:58:53Z</time>
      </trkpt>
      <trkpt lat="44.11278" lon="3.00769">
        <ele>661.9</ele>
        <time>2021-03-06T13:58:55Z</time>
      </trkpt>
      <trkpt lat="44.11279" lon="3.00761">
        <ele>660.6</ele>
        <time>2021-03-06T13:58:56Z</time>
      </trkpt>
      <trkpt lat="44.11278" lon="3.00748">
        <ele>658.4</ele>
        <time>2021-03-06T13:58:58Z</time>
      </trkpt>
      <trkpt lat="44.11274" lon="3.00742">
        <ele>657</ele>
        <time>2021-03-06T13:58:59Z</time>
      </trkpt>
      <trkpt lat="44.11271" lon="3.00736">
        <ele>655.7</ele>
        <time>2021-03-06T13:59:00Z</time>
      </trkpt>
      <trkpt lat="44.11271" lon="3.0073">
        <ele>654.8</ele>
        <time>2021-03-06T13:59:01Z</time>
      </trkpt>
      <trkpt lat="44.11275" lon="3.0072">
        <ele>652.8</ele>
        <time>2021-03-06T13:59:03Z</time>
      </trkpt>
      <trkpt lat="44.11278" lon="3.00713">
        <ele>651.5</ele>
        <time>2021-03-06T13:59:04Z</time>
      </trkpt>
      <trkpt lat="44.11282" lon="3.00701">
        <ele>649.2</ele>
        <time>2021-03-06T13:59:06Z</time>
      </trkpt>
      <trkpt lat="44.11284" lon="3.00694">
        <ele>647.9</ele>
        <time>2021-03-06T13:59:07Z</time>
      </trkpt>
      <trkpt lat="44.11286" lon="3.00687">
        <ele>646.5</ele>
        <time>2021-03-06T13:59:08Z</time>
      </trkpt>
      <trkpt lat="44.11287" lon="3.0068">
        <ele>645.2</ele>
        <time>2021-03-06T13:59:09Z</time>
      </trkpt>
      <trkpt lat="44.11285" lon="3.00677">
        <ele>644.7</ele>
        <time>2021-03-06T13:59:11Z</time>
      </trkpt>
      <trkpt lat="44.11282" lon="3.00674">
        <ele>644.2</ele>
        <time>2021-03-06T13:59:12Z</time>
      </trkpt>
      <trkpt lat="44.11282" lon="3.00672">
        <ele>643.9</ele>
        <time>2021-03-06T13:59:13Z</time>
      </trkpt>
      <trkpt lat="44.11282" lon="3.00672">
        <ele>643.9</ele>
        <time>2021-03-06T13:59:15Z</time>
      </trkpt>
      <trkpt lat="44.11283" lon="3.00671">
        <ele>643.7</ele>
        <time>2021-03-06T13:59:16Z</time>
      </trkpt>
      <trkpt lat="44.11283" lon="3.0067">
        <ele>643.6</ele>
        <time>2021-03-06T13:59:17Z</time>
      </trkpt>
      <trkpt lat="44.11282" lon="3.0067">
        <ele>643.5</ele>
        <time>2021-03-06T13:59:19Z</time>
      </trkpt>
      <trkpt lat="44.11281" lon="3.0067">
        <ele>643.4</ele>
        <time>2021-03-06T13:59:20Z</time>
      </trkpt>
      <trkpt lat="44.1128" lon="3.0067">
        <ele>643.2</ele>
        <time>2021-03-06T13:59:22Z</time>
      </trkpt>
      <trkpt lat="44.11279" lon="3.0067">
        <ele>643.1</ele>
        <time>2021-03-06T13:59:23Z</time>
      </trkpt>
      <trkpt lat="44.11277" lon="3.0067">
        <ele>642.9</ele>
        <time>2021-03-06T13:59:25Z</time>
      </trkpt>
      <trkpt lat="44.11276" lon="3.0067">
        <ele>642.8</ele>
        <time>2021-03-06T13:59:27Z</time>
      </trkpt>
      <trkpt lat="44.11275" lon="3.0067">
        <ele>642.6</ele>
        <time>2021-03-06T13:59:35Z</time>
      </trkpt>
      <trkpt lat="44.11274" lon="3.0067">
        <ele>642.5</ele>
        <time>2021-03-06T13:59:36Z</time>
      </trkpt>
      <trkpt lat="44.11263" lon="3.00668">
        <ele>641.3</ele>
        <time>2021-03-06T13:59:38Z</time>
      </trkpt>
      <trkpt lat="44.11256" lon="3.00666">
        <ele>640.5</ele>
        <time>2021-03-06T13:59:39Z</time>
      </trkpt>
      <trkpt lat="44.11239" lon="3.00664">
        <ele>638.3</ele>
        <time>2021-03-06T13:59:41Z</time>
      </trkpt>
      <trkpt lat="44.1123" lon="3.00663">
        <ele>637.1</ele>
        <time>2021-03-06T13:59:42Z</time>
      </trkpt>
      <trkpt lat="44.11221" lon="3.0066">
        <ele>635.9</ele>
        <time>2021-03-06T13:59:43Z</time>
      </trkpt>
      <trkpt lat="44.11203" lon="3.00653">
        <ele>634.1</ele>
        <time>2021-03-06T13:59:45Z</time>
      </trkpt>
      <trkpt lat="44.11195" lon="3.00647">
        <ele>633.4</ele>
        <time>2021-03-06T13:59:46Z</time>
      </trkpt>
      <trkpt lat="44.11179" lon="3.00631">
        <ele>632.1</ele>
        <time>2021-03-06T13:59:48Z</time>
      </trkpt>
      <trkpt lat="44.11167" lon="3.00613">
        <ele>630.9</ele>
        <time>2021-03-06T13:59:50Z</time>
      </trkpt>
      <trkpt lat="44.11162" lon="3.00602">
        <ele>630.1</ele>
        <time>2021-03-06T13:59:51Z</time>
      </trkpt>
      <trkpt lat="44.11154" lon="3.00577">
        <ele>628.3</ele>
        <time>2021-03-06T13:59:53Z</time>
      </trkpt>
      <trkpt lat="44.11151" lon="3.00565">
        <ele>627.5</ele>
        <time>2021-03-06T13:59:54Z</time>
      </trkpt>
      <trkpt lat="44.11148" lon="3.00552">
        <ele>626.8</ele>
        <time>2021-03-06T13:59:55Z</time>
      </trkpt>
      <trkpt lat="44.11145" lon="3.0054">
        <ele>626.2</ele>
        <time>2021-03-06T13:59:56Z</time>
      </trkpt>
      <trkpt lat="44.11141" lon="3.00516">
        <ele>625</ele>
        <time>2021-03-06T13:59:58Z</time>
      </trkpt>
      <trkpt lat="44.11139" lon="3.00504">
        <ele>624.4</ele>
        <time>2021-03-06T13:59:59Z</time>
      </trkpt>
      <trkpt lat="44.11134" lon="3.00478">
        <ele>623.1</ele>
        <time>2021-03-06T14:00:01Z</time>
      </trkpt>
      <trkpt lat="44.1113" lon="3.00451">
        <ele>621.6</ele>
        <time>2021-03-06T14:00:03Z</time>
      </trkpt>
      <trkpt lat="44.11127" lon="3.00423">
        <ele>620.1</ele>
        <time>2021-03-06T14:00:05Z</time>
      </trkpt>
      <trkpt lat="44.11123" lon="3.00396">
        <ele>618.9</ele>
        <time>2021-03-06T14:00:07Z</time>
      </trkpt>
      <trkpt lat="44.11118" lon="3.0037">
        <ele>617.6</ele>
        <time>2021-03-06T14:00:09Z</time>
      </trkpt>
      <trkpt lat="44.11114" lon="3.00343">
        <ele>615.8</ele>
        <time>2021-03-06T14:00:11Z</time>
      </trkpt>
      <trkpt lat="44.11108" lon="3.00318">
        <ele>614.2</ele>
        <time>2021-03-06T14:00:13Z</time>
      </trkpt>
      <trkpt lat="44.11105" lon="3.00306">
        <ele>613.4</ele>
        <time>2021-03-06T14:00:14Z</time>
      </trkpt>
      <trkpt lat="44.11098" lon="3.00282">
        <ele>611.7</ele>
        <time>2021-03-06T14:00:16Z</time>
      </trkpt>
      <trkpt lat="44.1109" lon="3.00259">
        <ele>610.3</ele>
        <time>2021-03-06T14:00:18Z</time>
      </trkpt>
      <trkpt lat="44.11087" lon="3.00247">
        <ele>609.7</ele>
        <time>2021-03-06T14:00:19Z</time>
      </trkpt>
      <trkpt lat="44.1108" lon="3.00222">
        <ele>608.3</ele>
        <time>2021-03-06T14:00:21Z</time>
      </trkpt>
      <trkpt lat="44.11072" lon="3.00199">
        <ele>606.9</ele>
        <time>2021-03-06T14:00:23Z</time>
      </trkpt>
      <trkpt lat="44.11064" lon="3.00174">
        <ele>605.1</ele>
        <time>2021-03-06T14:00:25Z</time>
      </trkpt>
      <trkpt lat="44.11059" lon="3.00161">
        <ele>604.3</ele>
        <time>2021-03-06T14:00:26Z</time>
      </trkpt>
      <trkpt lat="44.11052" lon="3.00134">
        <ele>602.8</ele>
        <time>2021-03-06T14:00:28Z</time>
      </trkpt>
      <trkpt lat="44.11044" lon="3.00109">
        <ele>601.5</ele>
        <time>2021-03-06T14:00:30Z</time>
      </trkpt>
      <trkpt lat="44.11038" lon="3.00085">
        <ele>600.4</ele>
        <time>2021-03-06T14:00:32Z</time>
      </trkpt>
      <trkpt lat="44.1103" lon="3.00062">
        <ele>599.2</ele>
        <time>2021-03-06T14:00:34Z</time>
      </trkpt>
      <trkpt lat="44.11021" lon="3.00039">
        <ele>598.1</ele>
        <time>2021-03-06T14:00:36Z</time>
      </trkpt>
      <trkpt lat="44.11015" lon="3.00029">
        <ele>597.7</ele>
        <time>2021-03-06T14:00:37Z</time>
      </trkpt>
      <trkpt lat="44.11006" lon="3.0001">
        <ele>597.9</ele>
        <time>2021-03-06T14:00:39Z</time>
      </trkpt>
      <trkpt lat="44.11002" lon="2.99998">
        <ele>598.4</ele>
        <time>2021-03-06T14:00:41Z</time>
      </trkpt>
      <trkpt lat="44.10999" lon="2.99992">
        <ele>598.7</ele>
        <time>2021-03-06T14:00:43Z</time>
      </trkpt>
      <trkpt lat="44.10997" lon="2.99987">
        <ele>598.9</ele>
        <time>2021-03-06T14:00:44Z</time>
      </trkpt>
      <trkpt lat="44.10993" lon="2.99984">
        <ele>599.2</ele>
        <time>2021-03-06T14:00:46Z</time>
      </trkpt>
      <trkpt lat="44.1099" lon="2.99981">
        <ele>599.4</ele>
        <time>2021-03-06T14:00:47Z</time>
      </trkpt>
      <trkpt lat="44.10987" lon="2.99976">
        <ele>599.6</ele>
        <time>2021-03-06T14:00:49Z</time>
      </trkpt>
      <trkpt lat="44.10986" lon="2.99975">
        <ele>599.7</ele>
        <time>2021-03-06T14:00:50Z</time>
      </trkpt>
      <trkpt lat="44.10984" lon="2.99974">
        <ele>599.8</ele>
        <time>2021-03-06T14:00:51Z</time>
      </trkpt>
      <trkpt lat="44.10983" lon="2.99969">
        <ele>600</ele>
        <time>2021-03-06T14:00:53Z</time>
      </trkpt>
      <trkpt lat="44.10982" lon="2.99967">
        <ele>600</ele>
        <time>2021-03-06T14:00:54Z</time>
      </trkpt>
      <trkpt lat="44.1098" lon="2.99963">
        <ele>600.2</ele>
        <time>2021-03-06T14:00:55Z</time>
      </trkpt>
      <trkpt lat="44.10979" lon="2.99958">
        <ele>600.3</ele>
        <time>2021-03-06T14:00:56Z</time>
      </trkpt>
      <trkpt lat="44.10978" lon="2.99954">
        <ele>600.5</ele>
        <time>2021-03-06T14:00:58Z</time>
      </trkpt>
      <trkpt lat="44.10976" lon="2.99947">
        <ele>600.6</ele>
        <time>2021-03-06T14:00:59Z</time>
      </trkpt>
      <trkpt lat="44.10973" lon="2.99942">
        <ele>600.9</ele>
        <time>2021-03-06T14:01:00Z</time>
      </trkpt>
      <trkpt lat="44.10968" lon="2.99933">
        <ele>601.2</ele>
        <time>2021-03-06T14:01:02Z</time>
      </trkpt>
      <trkpt lat="44.10962" lon="2.99925">
        <ele>601.6</ele>
        <time>2021-03-06T14:01:04Z</time>
      </trkpt>
      <trkpt lat="44.10958" lon="2.9992">
        <ele>602</ele>
        <time>2021-03-06T14:01:06Z</time>
      </trkpt>
      <trkpt lat="44.10956" lon="2.99916">
        <ele>602.2</ele>
        <time>2021-03-06T14:01:07Z</time>
      </trkpt>
      <trkpt lat="44.1095" lon="2.99909">
        <ele>602.7</ele>
        <time>2021-03-06T14:01:09Z</time>
      </trkpt>
      <trkpt lat="44.10948" lon="2.99906">
        <ele>602.9</ele>
        <time>2021-03-06T14:01:10Z</time>
      </trkpt>
      <trkpt lat="44.10945" lon="2.999">
        <ele>603.2</ele>
        <time>2021-03-06T14:01:12Z</time>
      </trkpt>
      <trkpt lat="44.10942" lon="2.99894">
        <ele>603.5</ele>
        <time>2021-03-06T14:01:14Z</time>
      </trkpt>
      <trkpt lat="44.1094" lon="2.99891">
        <ele>603.6</ele>
        <time>2021-03-06T14:01:15Z</time>
      </trkpt>
      <trkpt lat="44.10936" lon="2.99885">
        <ele>603.8</ele>
        <time>2021-03-06T14:01:17Z</time>
      </trkpt>
      <trkpt lat="44.10934" lon="2.99882">
        <ele>604</ele>
        <time>2021-03-06T14:01:18Z</time>
      </trkpt>
      <trkpt lat="44.10933" lon="2.99881">
        <ele>604</ele>
        <time>2021-03-06T14:01:19Z</time>
      </trkpt>
      <trkpt lat="44.10928" lon="2.99878">
        <ele>604.1</ele>
        <time>2021-03-06T14:01:21Z</time>
      </trkpt>
      <trkpt lat="44.10925" lon="2.99877">
        <ele>604.3</ele>
        <time>2021-03-06T14:01:22Z</time>
      </trkpt>
      <trkpt lat="44.10921" lon="2.99875">
        <ele>604.5</ele>
        <time>2021-03-06T14:01:24Z</time>
      </trkpt>
      <trkpt lat="44.10918" lon="2.99874">
        <ele>604.7</ele>
        <time>2021-03-06T14:01:25Z</time>
      </trkpt>
      <trkpt lat="44.10915" lon="2.99872">
        <ele>604.9</ele>
        <time>2021-03-06T14:01:26Z</time>
      </trkpt>
      <trkpt lat="44.10911" lon="2.99869">
        <ele>605.3</ele>
        <time>2021-03-06T14:01:28Z</time>
      </trkpt>
      <trkpt lat="44.10908" lon="2.99866">
        <ele>605.6</ele>
        <time>2021-03-06T14:01:30Z</time>
      </trkpt>
      <trkpt lat="44.10905" lon="2.99865">
        <ele>605.9</ele>
        <time>2021-03-06T14:01:31Z</time>
      </trkpt>
      <trkpt lat="44.10902" lon="2.99864">
        <ele>606.1</ele>
        <time>2021-03-06T14:01:32Z</time>
      </trkpt>
      <trkpt lat="44.10899" lon="2.99864">
        <ele>606.5</ele>
        <time>2021-03-06T14:01:33Z</time>
      </trkpt>
      <trkpt lat="44.10897" lon="2.99864">
        <ele>606.7</ele>
        <time>2021-03-06T14:01:34Z</time>
      </trkpt>
      <trkpt lat="44.10895" lon="2.99863">
        <ele>606.9</ele>
        <time>2021-03-06T14:01:36Z</time>
      </trkpt>
      <trkpt lat="44.10894" lon="2.99863">
        <ele>607.1</ele>
        <time>2021-03-06T14:01:37Z</time>
      </trkpt>
      <trkpt lat="44.10891" lon="2.99861">
        <ele>607.5</ele>
        <time>2021-03-06T14:01:38Z</time>
      </trkpt>
      <trkpt lat="44.10888" lon="2.99861">
        <ele>607.9</ele>
        <time>2021-03-06T14:01:40Z</time>
      </trkpt>
      <trkpt lat="44.10887" lon="2.99861">
        <ele>608</ele>
        <time>2021-03-06T14:01:41Z</time>
      </trkpt>
      <trkpt lat="44.10885" lon="2.99861">
        <ele>608.3</ele>
        <time>2021-03-06T14:01:42Z</time>
      </trkpt>
      <trkpt lat="44.10882" lon="2.99863">
        <ele>608.6</ele>
        <time>2021-03-06T14:01:44Z</time>
      </trkpt>
      <trkpt lat="44.10881" lon="2.99864">
        <ele>608.9</ele>
        <time>2021-03-06T14:01:45Z</time>
      </trkpt>
      <trkpt lat="44.10879" lon="2.99867">
        <ele>609.1</ele>
        <time>2021-03-06T14:01:47Z</time>
      </trkpt>
      <trkpt lat="44.10878" lon="2.99867">
        <ele>609.2</ele>
        <time>2021-03-06T14:01:48Z</time>
      </trkpt>
      <trkpt lat="44.10878" lon="2.99868">
        <ele>609.3</ele>
        <time>2021-03-06T14:01:50Z</time>
      </trkpt>
      <trkpt lat="44.10877" lon="2.99867">
        <ele>609.3</ele>
        <time>2021-03-06T14:01:51Z</time>
      </trkpt>
      <trkpt lat="44.10877" lon="2.99867">
        <ele>609.4</ele>
        <time>2021-03-06T14:01:52Z</time>
      </trkpt>
      <trkpt lat="44.10877" lon="2.99866">
        <ele>609.4</ele>
        <time>2021-03-06T14:01:53Z</time>
      </trkpt>
      <trkpt lat="44.10877" lon="2.99866">
        <ele>609.4</ele>
        <time>2021-03-06T14:01:55Z</time>
      </trkpt>
      <trkpt lat="44.10877" lon="2.99866">
        <ele>609.4</ele>
        <time>2021-03-06T14:01:57Z</time>
      </trkpt>
      <trkpt lat="44.10877" lon="2.99866">
        <ele>609.5</ele>
        <time>2021-03-06T14:01:58Z</time>
      </trkpt>
      <trkpt lat="44.10872" lon="2.9987">
        <ele>609.8</ele>
        <time>2021-03-06T14:03:19Z</time>
      </trkpt>
      <trkpt lat="44.10869" lon="2.99875">
        <ele>610</ele>
        <time>2021-03-06T14:03:21Z</time>
      </trkpt>
      <trkpt lat="44.10867" lon="2.99878">
        <ele>610.1</ele>
        <time>2021-03-06T14:03:22Z</time>
      </trkpt>
      <trkpt lat="44.10865" lon="2.99881">
        <ele>610.2</ele>
        <time>2021-03-06T14:03:23Z</time>
      </trkpt>
      <trkpt lat="44.10862" lon="2.99884">
        <ele>610.3</ele>
        <time>2021-03-06T14:03:24Z</time>
      </trkpt>
      <trkpt lat="44.1086" lon="2.99888">
        <ele>610.4</ele>
        <time>2021-03-06T14:03:25Z</time>
      </trkpt>
      <trkpt lat="44.10859" lon="2.99894">
        <ele>610.5</ele>
        <time>2021-03-06T14:03:27Z</time>
      </trkpt>
      <trkpt lat="44.10858" lon="2.999">
        <ele>610.7</ele>
        <time>2021-03-06T14:03:28Z</time>
      </trkpt>
      <trkpt lat="44.10857" lon="2.99905">
        <ele>611</ele>
        <time>2021-03-06T14:03:29Z</time>
      </trkpt>
      <trkpt lat="44.10856" lon="2.99912">
        <ele>611.2</ele>
        <time>2021-03-06T14:03:31Z</time>
      </trkpt>
      <trkpt lat="44.10855" lon="2.99916">
        <ele>611.4</ele>
        <time>2021-03-06T14:03:32Z</time>
      </trkpt>
      <trkpt lat="44.10854" lon="2.99918">
        <ele>611.5</ele>
        <time>2021-03-06T14:03:33Z</time>
      </trkpt>
      <trkpt lat="44.10852" lon="2.99924">
        <ele>611.9</ele>
        <time>2021-03-06T14:03:34Z</time>
      </trkpt>
      <trkpt lat="44.1085" lon="2.99928">
        <ele>612.1</ele>
        <time>2021-03-06T14:03:36Z</time>
      </trkpt>
      <trkpt lat="44.10847" lon="2.99933">
        <ele>612.3</ele>
        <time>2021-03-06T14:03:37Z</time>
      </trkpt>
      <trkpt lat="44.10844" lon="2.99937">
        <ele>612.4</ele>
        <time>2021-03-06T14:03:39Z</time>
      </trkpt>
      <trkpt lat="44.1084" lon="2.99943">
        <ele>612.6</ele>
        <time>2021-03-06T14:03:40Z</time>
      </trkpt>
      <trkpt lat="44.10838" lon="2.99948">
        <ele>612.8</ele>
        <time>2021-03-06T14:03:41Z</time>
      </trkpt>
      <trkpt lat="44.10837" lon="2.99952">
        <ele>613</ele>
        <time>2021-03-06T14:03:42Z</time>
      </trkpt>
      <trkpt lat="44.10837" lon="2.99956">
        <ele>613.2</ele>
        <time>2021-03-06T14:03:43Z</time>
      </trkpt>
      <trkpt lat="44.10836" lon="2.99959">
        <ele>613.4</ele>
        <time>2021-03-06T14:03:44Z</time>
      </trkpt>
      <trkpt lat="44.10836" lon="2.99962">
        <ele>613.6</ele>
        <time>2021-03-06T14:03:46Z</time>
      </trkpt>
      <trkpt lat="44.10835" lon="2.99967">
        <ele>614</ele>
        <time>2021-03-06T14:03:47Z</time>
      </trkpt>
      <trkpt lat="44.10834" lon="2.99969">
        <ele>614.1</ele>
        <time>2021-03-06T14:03:48Z</time>
      </trkpt>
      <trkpt lat="44.1083" lon="2.99971">
        <ele>614.6</ele>
        <time>2021-03-06T14:03:50Z</time>
      </trkpt>
      <trkpt lat="44.10827" lon="2.99975">
        <ele>614.9</ele>
        <time>2021-03-06T14:03:51Z</time>
      </trkpt>
      <trkpt lat="44.10827" lon="2.99976">
        <ele>615.1</ele>
        <time>2021-03-06T14:03:52Z</time>
      </trkpt>
      <trkpt lat="44.10825" lon="2.99979">
        <ele>615.3</ele>
        <time>2021-03-06T14:03:53Z</time>
      </trkpt>
      <trkpt lat="44.10824" lon="2.99983">
        <ele>615.6</ele>
        <time>2021-03-06T14:03:55Z</time>
      </trkpt>
      <trkpt lat="44.10822" lon="2.99987">
        <ele>615.9</ele>
        <time>2021-03-06T14:03:56Z</time>
      </trkpt>
      <trkpt lat="44.10822" lon="2.99989">
        <ele>616.1</ele>
        <time>2021-03-06T14:03:57Z</time>
      </trkpt>
      <trkpt lat="44.1082" lon="2.99991">
        <ele>616.3</ele>
        <time>2021-03-06T14:03:58Z</time>
      </trkpt>
      <trkpt lat="44.10816" lon="2.99995">
        <ele>616.8</ele>
        <time>2021-03-06T14:04:00Z</time>
      </trkpt>
      <trkpt lat="44.10814" lon="2.99998">
        <ele>617.1</ele>
        <time>2021-03-06T14:04:01Z</time>
      </trkpt>
      <trkpt lat="44.10812" lon="3.00002">
        <ele>617.5</ele>
        <time>2021-03-06T14:04:03Z</time>
      </trkpt>
      <trkpt lat="44.1081" lon="3.00005">
        <ele>617.8</ele>
        <time>2021-03-06T14:04:04Z</time>
      </trkpt>
      <trkpt lat="44.10808" lon="3.00009">
        <ele>618.1</ele>
        <time>2021-03-06T14:04:05Z</time>
      </trkpt>
      <trkpt lat="44.10808" lon="3.0001">
        <ele>618.2</ele>
        <time>2021-03-06T14:04:06Z</time>
      </trkpt>
      <trkpt lat="44.10806" lon="3.00014">
        <ele>618.5</ele>
        <time>2021-03-06T14:04:08Z</time>
      </trkpt>
      <trkpt lat="44.10806" lon="3.00015">
        <ele>618.5</ele>
        <time>2021-03-06T14:04:09Z</time>
      </trkpt>
      <trkpt lat="44.10805" lon="3.00018">
        <ele>618.8</ele>
        <time>2021-03-06T14:04:11Z</time>
      </trkpt>
      <trkpt lat="44.10804" lon="3.00019">
        <ele>618.9</ele>
        <time>2021-03-06T14:04:12Z</time>
      </trkpt>
      <trkpt lat="44.10803" lon="3.00021">
        <ele>619.1</ele>
        <time>2021-03-06T14:04:13Z</time>
      </trkpt>
      <trkpt lat="44.10802" lon="3.00024">
        <ele>619.3</ele>
        <time>2021-03-06T14:04:15Z</time>
      </trkpt>
      <trkpt lat="44.10801" lon="3.00027">
        <ele>619.6</ele>
        <time>2021-03-06T14:04:16Z</time>
      </trkpt>
      <trkpt lat="44.108" lon="3.00028">
        <ele>619.7</ele>
        <time>2021-03-06T14:04:17Z</time>
      </trkpt>
      <trkpt lat="44.10796" lon="3.00032">
        <ele>620.1</ele>
        <time>2021-03-06T14:04:19Z</time>
      </trkpt>
      <trkpt lat="44.10794" lon="3.00034">
        <ele>620.4</ele>
        <time>2021-03-06T14:04:20Z</time>
      </trkpt>
      <trkpt lat="44.1079" lon="3.00036">
        <ele>620.6</ele>
        <time>2021-03-06T14:04:22Z</time>
      </trkpt>
      <trkpt lat="44.10785" lon="3.00039">
        <ele>620.8</ele>
        <time>2021-03-06T14:04:23Z</time>
      </trkpt>
      <trkpt lat="44.10783" lon="3.0004">
        <ele>620.9</ele>
        <time>2021-03-06T14:04:24Z</time>
      </trkpt>
      <trkpt lat="44.1078" lon="3.00041">
        <ele>621</ele>
        <time>2021-03-06T14:04:25Z</time>
      </trkpt>
      <trkpt lat="44.10777" lon="3.00042">
        <ele>621.1</ele>
        <time>2021-03-06T14:04:27Z</time>
      </trkpt>
      <trkpt lat="44.10774" lon="3.00044">
        <ele>621.2</ele>
        <time>2021-03-06T14:04:28Z</time>
      </trkpt>
      <trkpt lat="44.10769" lon="3.00046">
        <ele>621.4</ele>
        <time>2021-03-06T14:04:30Z</time>
      </trkpt>
      <trkpt lat="44.10765" lon="3.00047">
        <ele>621.6</ele>
        <time>2021-03-06T14:04:31Z</time>
      </trkpt>
      <trkpt lat="44.10764" lon="3.00047">
        <ele>621.7</ele>
        <time>2021-03-06T14:04:33Z</time>
      </trkpt>
      <trkpt lat="44.10762" lon="3.00049">
        <ele>621.8</ele>
        <time>2021-03-06T14:04:34Z</time>
      </trkpt>
      <trkpt lat="44.1076" lon="3.00052">
        <ele>622</ele>
        <time>2021-03-06T14:04:35Z</time>
      </trkpt>
      <trkpt lat="44.1076" lon="3.00054">
        <ele>622.2</ele>
        <time>2021-03-06T14:04:36Z</time>
      </trkpt>
      <trkpt lat="44.1076" lon="3.00056">
        <ele>622.3</ele>
        <time>2021-03-06T14:04:38Z</time>
      </trkpt>
      <trkpt lat="44.10758" lon="3.0006">
        <ele>622.6</ele>
        <time>2021-03-06T14:04:39Z</time>
      </trkpt>
      <trkpt lat="44.10757" lon="3.00062">
        <ele>622.8</ele>
        <time>2021-03-06T14:04:40Z</time>
      </trkpt>
      <trkpt lat="44.10755" lon="3.00063">
        <ele>623</ele>
        <time>2021-03-06T14:04:42Z</time>
      </trkpt>
      <trkpt lat="44.10751" lon="3.00064">
        <ele>623.3</ele>
        <time>2021-03-06T14:04:43Z</time>
      </trkpt>
      <trkpt lat="44.1075" lon="3.00065">
        <ele>623.4</ele>
        <time>2021-03-06T14:04:44Z</time>
      </trkpt>
      <trkpt lat="44.10747" lon="3.00066">
        <ele>623.5</ele>
        <time>2021-03-06T14:04:45Z</time>
      </trkpt>
      <trkpt lat="44.10744" lon="3.00066">
        <ele>623.6</ele>
        <time>2021-03-06T14:04:47Z</time>
      </trkpt>
      <trkpt lat="44.10742" lon="3.00062">
        <ele>623.7</ele>
        <time>2021-03-06T14:04:48Z</time>
      </trkpt>
      <trkpt lat="44.10738" lon="3.0006">
        <ele>623.6</ele>
        <time>2021-03-06T14:04:49Z</time>
      </trkpt>
      <trkpt lat="44.10733" lon="3.0006">
        <ele>623.2</ele>
        <time>2021-03-06T14:04:51Z</time>
      </trkpt>
      <trkpt lat="44.10725" lon="3.00049">
        <ele>622.1</ele>
        <time>2021-03-06T14:04:52Z</time>
      </trkpt>
      <trkpt lat="44.10722" lon="3.00042">
        <ele>621.3</ele>
        <time>2021-03-06T14:04:53Z</time>
      </trkpt>
      <trkpt lat="44.10718" lon="3.00037">
        <ele>620.7</ele>
        <time>2021-03-06T14:04:54Z</time>
      </trkpt>
      <trkpt lat="44.10708" lon="3.00036">
        <ele>619.9</ele>
        <time>2021-03-06T14:04:56Z</time>
      </trkpt>
      <trkpt lat="44.10701" lon="3.0004">
        <ele>619.8</ele>
        <time>2021-03-06T14:04:58Z</time>
      </trkpt>
      <trkpt lat="44.10699" lon="3.00042">
        <ele>619.9</ele>
        <time>2021-03-06T14:04:59Z</time>
      </trkpt>
      <trkpt lat="44.10693" lon="3.00044">
        <ele>620.1</ele>
        <time>2021-03-06T14:05:01Z</time>
      </trkpt>
      <trkpt lat="44.10688" lon="3.00044">
        <ele>620.3</ele>
        <time>2021-03-06T14:05:02Z</time>
      </trkpt>
      <trkpt lat="44.10683" lon="3.00047">
        <ele>620.4</ele>
        <time>2021-03-06T14:05:03Z</time>
      </trkpt>
      <trkpt lat="44.10681" lon="3.00051">
        <ele>620.5</ele>
        <time>2021-03-06T14:05:05Z</time>
      </trkpt>
      <trkpt lat="44.10679" lon="3.00055">
        <ele>620.6</ele>
        <time>2021-03-06T14:05:06Z</time>
      </trkpt>
      <trkpt lat="44.10676" lon="3.00058">
        <ele>620.8</ele>
        <time>2021-03-06T14:05:08Z</time>
      </trkpt>
      <trkpt lat="44.10674" lon="3.00062">
        <ele>620.9</ele>
        <time>2021-03-06T14:05:09Z</time>
      </trkpt>
      <trkpt lat="44.1067" lon="3.00067">
        <ele>621</ele>
        <time>2021-03-06T14:05:11Z</time>
      </trkpt>
      <trkpt lat="44.10669" lon="3.00069">
        <ele>621</ele>
        <time>2021-03-06T14:05:12Z</time>
      </trkpt>
      <trkpt lat="44.10668" lon="3.0007">
        <ele>621</ele>
        <time>2021-03-06T14:05:13Z</time>
      </trkpt>
      <trkpt lat="44.10666" lon="3.00072">
        <ele>621</ele>
        <time>2021-03-06T14:05:15Z</time>
      </trkpt>
      <trkpt lat="44.10659" lon="3.00074">
        <ele>621</ele>
        <time>2021-03-06T14:05:17Z</time>
      </trkpt>
      <trkpt lat="44.10654" lon="3.00076">
        <ele>621.1</ele>
        <time>2021-03-06T14:05:19Z</time>
      </trkpt>
      <trkpt lat="44.10649" lon="3.00079">
        <ele>621.2</ele>
        <time>2021-03-06T14:05:20Z</time>
      </trkpt>
      <trkpt lat="44.10646" lon="3.00083">
        <ele>621.3</ele>
        <time>2021-03-06T14:05:22Z</time>
      </trkpt>
      <trkpt lat="44.10643" lon="3.00086">
        <ele>621.4</ele>
        <time>2021-03-06T14:05:23Z</time>
      </trkpt>
      <trkpt lat="44.1064" lon="3.00088">
        <ele>621.5</ele>
        <time>2021-03-06T14:05:24Z</time>
      </trkpt>
      <trkpt lat="44.10637" lon="3.00093">
        <ele>621.7</ele>
        <time>2021-03-06T14:05:25Z</time>
      </trkpt>
      <trkpt lat="44.10636" lon="3.00096">
        <ele>621.8</ele>
        <time>2021-03-06T14:05:26Z</time>
      </trkpt>
      <trkpt lat="44.10633" lon="3.00101">
        <ele>621.9</ele>
        <time>2021-03-06T14:05:28Z</time>
      </trkpt>
      <trkpt lat="44.1063" lon="3.00108">
        <ele>622.1</ele>
        <time>2021-03-06T14:05:29Z</time>
      </trkpt>
      <trkpt lat="44.10628" lon="3.00113">
        <ele>622.1</ele>
        <time>2021-03-06T14:05:31Z</time>
      </trkpt>
      <trkpt lat="44.10626" lon="3.00116">
        <ele>622.2</ele>
        <time>2021-03-06T14:05:32Z</time>
      </trkpt>
      <trkpt lat="44.10625" lon="3.0012">
        <ele>622.3</ele>
        <time>2021-03-06T14:05:33Z</time>
      </trkpt>
      <trkpt lat="44.10623" lon="3.00125">
        <ele>622.3</ele>
        <time>2021-03-06T14:05:35Z</time>
      </trkpt>
      <trkpt lat="44.10621" lon="3.00131">
        <ele>622.4</ele>
        <time>2021-03-06T14:05:36Z</time>
      </trkpt>
      <trkpt lat="44.1062" lon="3.00138">
        <ele>622.5</ele>
        <time>2021-03-06T14:05:38Z</time>
      </trkpt>
      <trkpt lat="44.10619" lon="3.00143">
        <ele>622.5</ele>
        <time>2021-03-06T14:05:39Z</time>
      </trkpt>
      <trkpt lat="44.10618" lon="3.00149">
        <ele>622.5</ele>
        <time>2021-03-06T14:05:41Z</time>
      </trkpt>
      <trkpt lat="44.10617" lon="3.00153">
        <ele>622.5</ele>
        <time>2021-03-06T14:05:42Z</time>
      </trkpt>
      <trkpt lat="44.10615" lon="3.00156">
        <ele>622.6</ele>
        <time>2021-03-06T14:05:43Z</time>
      </trkpt>
      <trkpt lat="44.10612" lon="3.0016">
        <ele>622.6</ele>
        <time>2021-03-06T14:05:44Z</time>
      </trkpt>
      <trkpt lat="44.10608" lon="3.00165">
        <ele>622.8</ele>
        <time>2021-03-06T14:05:45Z</time>
      </trkpt>
      <trkpt lat="44.10606" lon="3.0017">
        <ele>623</ele>
        <time>2021-03-06T14:05:47Z</time>
      </trkpt>
      <trkpt lat="44.10604" lon="3.00176">
        <ele>623.2</ele>
        <time>2021-03-06T14:05:48Z</time>
      </trkpt>
      <trkpt lat="44.10603" lon="3.00181">
        <ele>623.4</ele>
        <time>2021-03-06T14:05:49Z</time>
      </trkpt>
      <trkpt lat="44.10601" lon="3.00186">
        <ele>623.7</ele>
        <time>2021-03-06T14:05:50Z</time>
      </trkpt>
      <trkpt lat="44.10599" lon="3.00192">
        <ele>623.9</ele>
        <time>2021-03-06T14:05:52Z</time>
      </trkpt>
      <trkpt lat="44.10598" lon="3.002">
        <ele>624.3</ele>
        <time>2021-03-06T14:05:54Z</time>
      </trkpt>
      <trkpt lat="44.10598" lon="3.00204">
        <ele>624.9</ele>
        <time>2021-03-06T14:05:55Z</time>
      </trkpt>
      <trkpt lat="44.10599" lon="3.00209">
        <ele>625.6</ele>
        <time>2021-03-06T14:05:56Z</time>
      </trkpt>
      <trkpt lat="44.10599" lon="3.00211">
        <ele>625.8</ele>
        <time>2021-03-06T14:05:57Z</time>
      </trkpt>
      <trkpt lat="44.10601" lon="3.00217">
        <ele>626.6</ele>
        <time>2021-03-06T14:05:59Z</time>
      </trkpt>
      <trkpt lat="44.10602" lon="3.0022">
        <ele>626.9</ele>
        <time>2021-03-06T14:06:01Z</time>
      </trkpt>
      <trkpt lat="44.10603" lon="3.00222">
        <ele>627.2</ele>
        <time>2021-03-06T14:06:02Z</time>
      </trkpt>
      <trkpt lat="44.10603" lon="3.00224">
        <ele>627.5</ele>
        <time>2021-03-06T14:06:03Z</time>
      </trkpt>
      <trkpt lat="44.10605" lon="3.00229">
        <ele>628.1</ele>
        <time>2021-03-06T14:06:05Z</time>
      </trkpt>
      <trkpt lat="44.10605" lon="3.0023">
        <ele>628.3</ele>
        <time>2021-03-06T14:06:06Z</time>
      </trkpt>
      <trkpt lat="44.10606" lon="3.00232">
        <ele>628.5</ele>
        <time>2021-03-06T14:06:07Z</time>
      </trkpt>
      <trkpt lat="44.10606" lon="3.00234">
        <ele>628.7</ele>
        <time>2021-03-06T14:06:08Z</time>
      </trkpt>
      <trkpt lat="44.10606" lon="3.00237">
        <ele>629.1</ele>
        <time>2021-03-06T14:06:09Z</time>
      </trkpt>
      <trkpt lat="44.10607" lon="3.0024">
        <ele>629.5</ele>
        <time>2021-03-06T14:06:11Z</time>
      </trkpt>
      <trkpt lat="44.10607" lon="3.00242">
        <ele>629.7</ele>
        <time>2021-03-06T14:06:12Z</time>
      </trkpt>
      <trkpt lat="44.10608" lon="3.00244">
        <ele>630</ele>
        <time>2021-03-06T14:06:13Z</time>
      </trkpt>
      <trkpt lat="44.10609" lon="3.00248">
        <ele>630.5</ele>
        <time>2021-03-06T14:06:15Z</time>
      </trkpt>
      <trkpt lat="44.1061" lon="3.00249">
        <ele>630.6</ele>
        <time>2021-03-06T14:06:16Z</time>
      </trkpt>
      <trkpt lat="44.10611" lon="3.00254">
        <ele>631.2</ele>
        <time>2021-03-06T14:06:18Z</time>
      </trkpt>
      <trkpt lat="44.10612" lon="3.00258">
        <ele>631.7</ele>
        <time>2021-03-06T14:06:20Z</time>
      </trkpt>
      <trkpt lat="44.10613" lon="3.00261">
        <ele>632.1</ele>
        <time>2021-03-06T14:06:21Z</time>
      </trkpt>
      <trkpt lat="44.10614" lon="3.00267">
        <ele>632.7</ele>
        <time>2021-03-06T14:06:23Z</time>
      </trkpt>
      <trkpt lat="44.10615" lon="3.00268">
        <ele>632.9</ele>
        <time>2021-03-06T14:06:24Z</time>
      </trkpt>
      <trkpt lat="44.10616" lon="3.00273">
        <ele>633.5</ele>
        <time>2021-03-06T14:06:26Z</time>
      </trkpt>
      <trkpt lat="44.10618" lon="3.00276">
        <ele>633.9</ele>
        <time>2021-03-06T14:06:27Z</time>
      </trkpt>
      <trkpt lat="44.1062" lon="3.00281">
        <ele>634.5</ele>
        <time>2021-03-06T14:06:29Z</time>
      </trkpt>
      <trkpt lat="44.10621" lon="3.00283">
        <ele>634.7</ele>
        <time>2021-03-06T14:06:30Z</time>
      </trkpt>
      <trkpt lat="44.10624" lon="3.00288">
        <ele>635.4</ele>
        <time>2021-03-06T14:06:32Z</time>
      </trkpt>
      <trkpt lat="44.10625" lon="3.0029">
        <ele>635.7</ele>
        <time>2021-03-06T14:06:33Z</time>
      </trkpt>
      <trkpt lat="44.10627" lon="3.00291">
        <ele>635.9</ele>
        <time>2021-03-06T14:06:34Z</time>
      </trkpt>
      <trkpt lat="44.10629" lon="3.00295">
        <ele>637.9</ele>
        <time>2021-03-06T14:06:35Z</time>
      </trkpt>
      <trkpt lat="44.1063" lon="3.00295">
        <ele>638</ele>
        <time>2021-03-06T14:06:36Z</time>
      </trkpt>
      <trkpt lat="44.10632" lon="3.00299">
        <ele>638.3</ele>
        <time>2021-03-06T14:06:38Z</time>
      </trkpt>
      <trkpt lat="44.10633" lon="3.003">
        <ele>638.4</ele>
        <time>2021-03-06T14:06:39Z</time>
      </trkpt>
      <trkpt lat="44.10635" lon="3.00303">
        <ele>638.6</ele>
        <time>2021-03-06T14:06:40Z</time>
      </trkpt>
      <trkpt lat="44.10636" lon="3.00305">
        <ele>638.7</ele>
        <time>2021-03-06T14:06:42Z</time>
      </trkpt>
      <trkpt lat="44.10637" lon="3.00306">
        <ele>638.8</ele>
        <time>2021-03-06T14:06:43Z</time>
      </trkpt>
      <trkpt lat="44.10638" lon="3.00308">
        <ele>638.9</ele>
        <time>2021-03-06T14:06:44Z</time>
      </trkpt>
      <trkpt lat="44.10639" lon="3.0031">
        <ele>639.1</ele>
        <time>2021-03-06T14:06:46Z</time>
      </trkpt>
      <trkpt lat="44.10642" lon="3.00313">
        <ele>639.3</ele>
        <time>2021-03-06T14:06:48Z</time>
      </trkpt>
      <trkpt lat="44.10643" lon="3.00317">
        <ele>639.4</ele>
        <time>2021-03-06T14:06:49Z</time>
      </trkpt>
      <trkpt lat="44.10643" lon="3.00319">
        <ele>639.4</ele>
        <time>2021-03-06T14:06:50Z</time>
      </trkpt>
      <trkpt lat="44.10644" lon="3.00324">
        <ele>639.5</ele>
        <time>2021-03-06T14:06:52Z</time>
      </trkpt>
      <trkpt lat="44.10644" lon="3.00325">
        <ele>639.5</ele>
        <time>2021-03-06T14:06:53Z</time>
      </trkpt>
      <trkpt lat="44.10645" lon="3.00328">
        <ele>639.5</ele>
        <time>2021-03-06T14:06:54Z</time>
      </trkpt>
      <trkpt lat="44.10646" lon="3.00331">
        <ele>639.5</ele>
        <time>2021-03-06T14:06:56Z</time>
      </trkpt>
      <trkpt lat="44.10648" lon="3.00335">
        <ele>639.5</ele>
        <time>2021-03-06T14:06:57Z</time>
      </trkpt>
      <trkpt lat="44.10649" lon="3.00338">
        <ele>639.4</ele>
        <time>2021-03-06T14:06:58Z</time>
      </trkpt>
      <trkpt lat="44.10652" lon="3.00341">
        <ele>639.3</ele>
        <time>2021-03-06T14:06:59Z</time>
      </trkpt>
      <trkpt lat="44.10655" lon="3.00347">
        <ele>639.2</ele>
        <time>2021-03-06T14:07:01Z</time>
      </trkpt>
      <trkpt lat="44.10656" lon="3.00352">
        <ele>639.1</ele>
        <time>2021-03-06T14:07:02Z</time>
      </trkpt>
      <trkpt lat="44.10657" lon="3.00356">
        <ele>638.9</ele>
        <time>2021-03-06T14:07:03Z</time>
      </trkpt>
      <trkpt lat="44.10661" lon="3.00373">
        <ele>638.4</ele>
        <time>2021-03-06T14:07:05Z</time>
      </trkpt>
      <trkpt lat="44.10663" lon="3.0038">
        <ele>638.1</ele>
        <time>2021-03-06T14:07:06Z</time>
      </trkpt>
      <trkpt lat="44.10668" lon="3.00397">
        <ele>637.5</ele>
        <time>2021-03-06T14:07:08Z</time>
      </trkpt>
      <trkpt lat="44.10673" lon="3.00413">
        <ele>636.9</ele>
        <time>2021-03-06T14:07:10Z</time>
      </trkpt>
      <trkpt lat="44.10676" lon="3.00429">
        <ele>636.5</ele>
        <time>2021-03-06T14:07:12Z</time>
      </trkpt>
      <trkpt lat="44.10677" lon="3.00438">
        <ele>636.4</ele>
        <time>2021-03-06T14:07:13Z</time>
      </trkpt>
      <trkpt lat="44.10679" lon="3.00454">
        <ele>636.4</ele>
        <time>2021-03-06T14:07:15Z</time>
      </trkpt>
      <trkpt lat="44.10679" lon="3.00461">
        <ele>636.5</ele>
        <time>2021-03-06T14:07:16Z</time>
      </trkpt>
      <trkpt lat="44.1068" lon="3.0047">
        <ele>636.8</ele>
        <time>2021-03-06T14:07:18Z</time>
      </trkpt>
      <trkpt lat="44.10681" lon="3.00483">
        <ele>637.2</ele>
        <time>2021-03-06T14:07:20Z</time>
      </trkpt>
      <trkpt lat="44.10681" lon="3.00494">
        <ele>637.6</ele>
        <time>2021-03-06T14:07:22Z</time>
      </trkpt>
      <trkpt lat="44.1068" lon="3.00499">
        <ele>637.8</ele>
        <time>2021-03-06T14:07:23Z</time>
      </trkpt>
      <trkpt lat="44.1068" lon="3.00504">
        <ele>637.9</ele>
        <time>2021-03-06T14:07:24Z</time>
      </trkpt>
      <trkpt lat="44.10679" lon="3.00509">
        <ele>638.1</ele>
        <time>2021-03-06T14:07:25Z</time>
      </trkpt>
      <trkpt lat="44.10678" lon="3.00514">
        <ele>638.2</ele>
        <time>2021-03-06T14:07:26Z</time>
      </trkpt>
      <trkpt lat="44.10676" lon="3.00519">
        <ele>638.4</ele>
        <time>2021-03-06T14:07:28Z</time>
      </trkpt>
      <trkpt lat="44.10675" lon="3.00523">
        <ele>638.5</ele>
        <time>2021-03-06T14:07:29Z</time>
      </trkpt>
      <trkpt lat="44.10673" lon="3.00531">
        <ele>638.7</ele>
        <time>2021-03-06T14:07:30Z</time>
      </trkpt>
      <trkpt lat="44.10672" lon="3.00538">
        <ele>638.9</ele>
        <time>2021-03-06T14:07:31Z</time>
      </trkpt>
      <trkpt lat="44.10672" lon="3.00545">
        <ele>639.2</ele>
        <time>2021-03-06T14:07:33Z</time>
      </trkpt>
      <trkpt lat="44.10672" lon="3.00553">
        <ele>639.6</ele>
        <time>2021-03-06T14:07:35Z</time>
      </trkpt>
      <trkpt lat="44.10671" lon="3.00558">
        <ele>639.8</ele>
        <time>2021-03-06T14:07:36Z</time>
      </trkpt>
      <trkpt lat="44.10671" lon="3.00564">
        <ele>640.2</ele>
        <time>2021-03-06T14:07:38Z</time>
      </trkpt>
      <trkpt lat="44.1067" lon="3.00569">
        <ele>640.5</ele>
        <time>2021-03-06T14:07:39Z</time>
      </trkpt>
      <trkpt lat="44.1067" lon="3.00575">
        <ele>640.8</ele>
        <time>2021-03-06T14:07:40Z</time>
      </trkpt>
      <trkpt lat="44.10669" lon="3.0058">
        <ele>641.1</ele>
        <time>2021-03-06T14:07:41Z</time>
      </trkpt>
      <trkpt lat="44.10669" lon="3.00586">
        <ele>641.5</ele>
        <time>2021-03-06T14:07:43Z</time>
      </trkpt>
      <trkpt lat="44.1067" lon="3.00592">
        <ele>641.8</ele>
        <time>2021-03-06T14:07:44Z</time>
      </trkpt>
      <trkpt lat="44.1067" lon="3.00598">
        <ele>642.2</ele>
        <time>2021-03-06T14:07:45Z</time>
      </trkpt>
      <trkpt lat="44.10671" lon="3.00604">
        <ele>642.5</ele>
        <time>2021-03-06T14:07:46Z</time>
      </trkpt>
      <trkpt lat="44.10672" lon="3.0061">
        <ele>642.9</ele>
        <time>2021-03-06T14:07:48Z</time>
      </trkpt>
      <trkpt lat="44.10673" lon="3.00615">
        <ele>643.2</ele>
        <time>2021-03-06T14:07:49Z</time>
      </trkpt>
      <trkpt lat="44.10674" lon="3.00619">
        <ele>643.5</ele>
        <time>2021-03-06T14:07:50Z</time>
      </trkpt>
      <trkpt lat="44.10675" lon="3.00623">
        <ele>643.8</ele>
        <time>2021-03-06T14:07:51Z</time>
      </trkpt>
      <trkpt lat="44.10677" lon="3.00629">
        <ele>644.2</ele>
        <time>2021-03-06T14:07:53Z</time>
      </trkpt>
      <trkpt lat="44.10677" lon="3.00631">
        <ele>644.4</ele>
        <time>2021-03-06T14:07:54Z</time>
      </trkpt>
      <trkpt lat="44.10678" lon="3.00633">
        <ele>644.6</ele>
        <time>2021-03-06T14:07:55Z</time>
      </trkpt>
      <trkpt lat="44.10679" lon="3.00638">
        <ele>644.8</ele>
        <time>2021-03-06T14:07:56Z</time>
      </trkpt>
      <trkpt lat="44.1068" lon="3.00642">
        <ele>645.1</ele>
        <time>2021-03-06T14:07:57Z</time>
      </trkpt>
      <trkpt lat="44.1068" lon="3.00644">
        <ele>645.2</ele>
        <time>2021-03-06T14:07:58Z</time>
      </trkpt>
      <trkpt lat="44.10681" lon="3.00648">
        <ele>645.4</ele>
        <time>2021-03-06T14:08:00Z</time>
      </trkpt>
      <trkpt lat="44.10682" lon="3.00655">
        <ele>645.8</ele>
        <time>2021-03-06T14:08:02Z</time>
      </trkpt>
      <trkpt lat="44.10683" lon="3.0066">
        <ele>646</ele>
        <time>2021-03-06T14:08:03Z</time>
      </trkpt>
      <trkpt lat="44.10684" lon="3.00664">
        <ele>646.2</ele>
        <time>2021-03-06T14:08:04Z</time>
      </trkpt>
      <trkpt lat="44.10684" lon="3.00669">
        <ele>646.3</ele>
        <time>2021-03-06T14:08:06Z</time>
      </trkpt>
      <trkpt lat="44.10685" lon="3.00673">
        <ele>646.4</ele>
        <time>2021-03-06T14:08:07Z</time>
      </trkpt>
      <trkpt lat="44.10687" lon="3.00677">
        <ele>646.5</ele>
        <time>2021-03-06T14:08:08Z</time>
      </trkpt>
      <trkpt lat="44.10688" lon="3.0068">
        <ele>646.5</ele>
        <time>2021-03-06T14:08:09Z</time>
      </trkpt>
      <trkpt lat="44.10691" lon="3.00684">
        <ele>646.5</ele>
        <time>2021-03-06T14:08:11Z</time>
      </trkpt>
      <trkpt lat="44.10692" lon="3.00689">
        <ele>646.5</ele>
        <time>2021-03-06T14:08:12Z</time>
      </trkpt>
      <trkpt lat="44.10694" lon="3.00699">
        <ele>646.5</ele>
        <time>2021-03-06T14:08:14Z</time>
      </trkpt>
      <trkpt lat="44.10692" lon="3.0071">
        <ele>646.1</ele>
        <time>2021-03-06T14:08:15Z</time>
      </trkpt>
      <trkpt lat="44.10692" lon="3.0072">
        <ele>645.8</ele>
        <time>2021-03-06T14:08:16Z</time>
      </trkpt>
      <trkpt lat="44.10689" lon="3.00738">
        <ele>644.8</ele>
        <time>2021-03-06T14:08:18Z</time>
      </trkpt>
      <trkpt lat="44.10688" lon="3.00747">
        <ele>644.4</ele>
        <time>2021-03-06T14:08:19Z</time>
      </trkpt>
      <trkpt lat="44.10686" lon="3.00764">
        <ele>643.9</ele>
        <time>2021-03-06T14:08:21Z</time>
      </trkpt>
      <trkpt lat="44.10684" lon="3.00782">
        <ele>643.6</ele>
        <time>2021-03-06T14:08:23Z</time>
      </trkpt>
      <trkpt lat="44.10682" lon="3.00789">
        <ele>643.6</ele>
        <time>2021-03-06T14:08:24Z</time>
      </trkpt>
      <trkpt lat="44.10681" lon="3.00795">
        <ele>643.7</ele>
        <time>2021-03-06T14:08:25Z</time>
      </trkpt>
      <trkpt lat="44.10681" lon="3.00801">
        <ele>643.8</ele>
        <time>2021-03-06T14:08:26Z</time>
      </trkpt>
      <trkpt lat="44.10681" lon="3.00805">
        <ele>644</ele>
        <time>2021-03-06T14:08:27Z</time>
      </trkpt>
      <trkpt lat="44.1068" lon="3.00813">
        <ele>644.2</ele>
        <time>2021-03-06T14:08:29Z</time>
      </trkpt>
      <trkpt lat="44.1068" lon="3.00819">
        <ele>644.5</ele>
        <time>2021-03-06T14:08:31Z</time>
      </trkpt>
      <trkpt lat="44.1068" lon="3.00821">
        <ele>644.5</ele>
        <time>2021-03-06T14:08:32Z</time>
      </trkpt>
      <trkpt lat="44.10681" lon="3.00823">
        <ele>644.6</ele>
        <time>2021-03-06T14:08:33Z</time>
      </trkpt>
      <trkpt lat="44.10681" lon="3.00827">
        <ele>645</ele>
        <time>2021-03-06T14:08:34Z</time>
      </trkpt>
      <trkpt lat="44.10681" lon="3.00829">
        <ele>645.1</ele>
        <time>2021-03-06T14:08:35Z</time>
      </trkpt>
      <trkpt lat="44.10683" lon="3.0083">
        <ele>645.4</ele>
        <time>2021-03-06T14:08:37Z</time>
      </trkpt>
      <trkpt lat="44.10683" lon="3.00833">
        <ele>645.7</ele>
        <time>2021-03-06T14:08:38Z</time>
      </trkpt>
      <trkpt lat="44.10683" lon="3.00836">
        <ele>646</ele>
        <time>2021-03-06T14:08:39Z</time>
      </trkpt>
      <trkpt lat="44.10684" lon="3.00838">
        <ele>646.2</ele>
        <time>2021-03-06T14:08:40Z</time>
      </trkpt>
      <trkpt lat="44.10684" lon="3.00841">
        <ele>646.6</ele>
        <time>2021-03-06T14:08:41Z</time>
      </trkpt>
      <trkpt lat="44.10685" lon="3.00844">
        <ele>646.9</ele>
        <time>2021-03-06T14:08:43Z</time>
      </trkpt>
      <trkpt lat="44.10686" lon="3.00846">
        <ele>647.2</ele>
        <time>2021-03-06T14:08:44Z</time>
      </trkpt>
      <trkpt lat="44.10686" lon="3.00848">
        <ele>647.4</ele>
        <time>2021-03-06T14:08:45Z</time>
      </trkpt>
      <trkpt lat="44.10687" lon="3.00852">
        <ele>647.8</ele>
        <time>2021-03-06T14:08:46Z</time>
      </trkpt>
      <trkpt lat="44.10688" lon="3.00856">
        <ele>648.1</ele>
        <time>2021-03-06T14:08:47Z</time>
      </trkpt>
      <trkpt lat="44.10689" lon="3.00859">
        <ele>648.5</ele>
        <time>2021-03-06T14:08:49Z</time>
      </trkpt>
      <trkpt lat="44.1069" lon="3.00862">
        <ele>648.8</ele>
        <time>2021-03-06T14:08:50Z</time>
      </trkpt>
      <trkpt lat="44.10691" lon="3.00866">
        <ele>649.1</ele>
        <time>2021-03-06T14:08:52Z</time>
      </trkpt>
      <trkpt lat="44.10691" lon="3.00867">
        <ele>649.2</ele>
        <time>2021-03-06T14:08:53Z</time>
      </trkpt>
      <trkpt lat="44.10691" lon="3.0087">
        <ele>649.5</ele>
        <time>2021-03-06T14:08:54Z</time>
      </trkpt>
      <trkpt lat="44.10692" lon="3.00874">
        <ele>649.7</ele>
        <time>2021-03-06T14:08:55Z</time>
      </trkpt>
      <trkpt lat="44.10693" lon="3.00879">
        <ele>650.1</ele>
        <time>2021-03-06T14:08:57Z</time>
      </trkpt>
      <trkpt lat="44.10694" lon="3.00884">
        <ele>650.4</ele>
        <time>2021-03-06T14:08:59Z</time>
      </trkpt>
      <trkpt lat="44.10694" lon="3.00886">
        <ele>650.5</ele>
        <time>2021-03-06T14:09:00Z</time>
      </trkpt>
      <trkpt lat="44.10695" lon="3.00892">
        <ele>650.8</ele>
        <time>2021-03-06T14:09:02Z</time>
      </trkpt>
      <trkpt lat="44.10696" lon="3.00894">
        <ele>650.9</ele>
        <time>2021-03-06T14:09:03Z</time>
      </trkpt>
      <trkpt lat="44.10697" lon="3.00896">
        <ele>651</ele>
        <time>2021-03-06T14:09:04Z</time>
      </trkpt>
      <trkpt lat="44.10698" lon="3.009">
        <ele>651.1</ele>
        <time>2021-03-06T14:09:06Z</time>
      </trkpt>
      <trkpt lat="44.10698" lon="3.00904">
        <ele>651.2</ele>
        <time>2021-03-06T14:09:07Z</time>
      </trkpt>
      <trkpt lat="44.10699" lon="3.00909">
        <ele>651.4</ele>
        <time>2021-03-06T14:09:08Z</time>
      </trkpt>
      <trkpt lat="44.107" lon="3.00915">
        <ele>651.5</ele>
        <time>2021-03-06T14:09:10Z</time>
      </trkpt>
      <trkpt lat="44.107" lon="3.00921">
        <ele>651.6</ele>
        <time>2021-03-06T14:09:11Z</time>
      </trkpt>
      <trkpt lat="44.107" lon="3.00926">
        <ele>651.7</ele>
        <time>2021-03-06T14:09:13Z</time>
      </trkpt>
      <trkpt lat="44.10699" lon="3.00933">
        <ele>651.8</ele>
        <time>2021-03-06T14:09:14Z</time>
      </trkpt>
      <trkpt lat="44.10698" lon="3.0094">
        <ele>651.8</ele>
        <time>2021-03-06T14:09:16Z</time>
      </trkpt>
      <trkpt lat="44.10697" lon="3.00947">
        <ele>651.8</ele>
        <time>2021-03-06T14:09:17Z</time>
      </trkpt>
      <trkpt lat="44.10696" lon="3.00954">
        <ele>651.8</ele>
        <time>2021-03-06T14:09:19Z</time>
      </trkpt>
      <trkpt lat="44.10695" lon="3.00958">
        <ele>651.7</ele>
        <time>2021-03-06T14:09:20Z</time>
      </trkpt>
      <trkpt lat="44.10695" lon="3.00965">
        <ele>651.7</ele>
        <time>2021-03-06T14:09:21Z</time>
      </trkpt>
      <trkpt lat="44.10695" lon="3.00971">
        <ele>651.6</ele>
        <time>2021-03-06T14:09:22Z</time>
      </trkpt>
      <trkpt lat="44.10693" lon="3.0098">
        <ele>651.4</ele>
        <time>2021-03-06T14:09:24Z</time>
      </trkpt>
      <trkpt lat="44.10691" lon="3.00991">
        <ele>651.2</ele>
        <time>2021-03-06T14:09:25Z</time>
      </trkpt>
      <trkpt lat="44.10689" lon="3.00999">
        <ele>651</ele>
        <time>2021-03-06T14:09:27Z</time>
      </trkpt>
      <trkpt lat="44.10687" lon="3.01019">
        <ele>650.5</ele>
        <time>2021-03-06T14:09:29Z</time>
      </trkpt>
      <trkpt lat="44.10693" lon="3.01032">
        <ele>650.3</ele>
        <time>2021-03-06T14:09:31Z</time>
      </trkpt>
      <trkpt lat="44.10699" lon="3.01037">
        <ele>650.2</ele>
        <time>2021-03-06T14:09:33Z</time>
      </trkpt>
      <trkpt lat="44.10703" lon="3.01038">
        <ele>650.2</ele>
        <time>2021-03-06T14:09:34Z</time>
      </trkpt>
      <trkpt lat="44.10707" lon="3.01041">
        <ele>650.3</ele>
        <time>2021-03-06T14:09:35Z</time>
      </trkpt>
      <trkpt lat="44.10713" lon="3.01043">
        <ele>650.5</ele>
        <time>2021-03-06T14:09:36Z</time>
      </trkpt>
      <trkpt lat="44.10717" lon="3.01047">
        <ele>650.6</ele>
        <time>2021-03-06T14:09:37Z</time>
      </trkpt>
      <trkpt lat="44.10721" lon="3.0105">
        <ele>650.9</ele>
        <time>2021-03-06T14:09:38Z</time>
      </trkpt>
      <trkpt lat="44.10724" lon="3.01053">
        <ele>651.1</ele>
        <time>2021-03-06T14:09:40Z</time>
      </trkpt>
      <trkpt lat="44.10727" lon="3.01056">
        <ele>651.3</ele>
        <time>2021-03-06T14:09:41Z</time>
      </trkpt>
      <trkpt lat="44.10731" lon="3.01058">
        <ele>651.6</ele>
        <time>2021-03-06T14:09:42Z</time>
      </trkpt>
      <trkpt lat="44.10734" lon="3.01061">
        <ele>651.8</ele>
        <time>2021-03-06T14:09:43Z</time>
      </trkpt>
      <trkpt lat="44.10737" lon="3.01063">
        <ele>652.1</ele>
        <time>2021-03-06T14:09:44Z</time>
      </trkpt>
      <trkpt lat="44.1074" lon="3.01066">
        <ele>652.3</ele>
        <time>2021-03-06T14:09:46Z</time>
      </trkpt>
      <trkpt lat="44.10745" lon="3.01068">
        <ele>652.6</ele>
        <time>2021-03-06T14:09:48Z</time>
      </trkpt>
      <trkpt lat="44.10751" lon="3.0107">
        <ele>653</ele>
        <time>2021-03-06T14:09:49Z</time>
      </trkpt>
      <trkpt lat="44.10755" lon="3.01071">
        <ele>653.2</ele>
        <time>2021-03-06T14:09:51Z</time>
      </trkpt>
      <trkpt lat="44.10759" lon="3.01073">
        <ele>653.4</ele>
        <time>2021-03-06T14:09:52Z</time>
      </trkpt>
      <trkpt lat="44.10763" lon="3.01075">
        <ele>653.5</ele>
        <time>2021-03-06T14:09:53Z</time>
      </trkpt>
      <trkpt lat="44.10766" lon="3.01076">
        <ele>653.7</ele>
        <time>2021-03-06T14:09:54Z</time>
      </trkpt>
      <trkpt lat="44.1077" lon="3.01077">
        <ele>653.9</ele>
        <time>2021-03-06T14:09:55Z</time>
      </trkpt>
      <trkpt lat="44.10774" lon="3.01079">
        <ele>654.1</ele>
        <time>2021-03-06T14:09:57Z</time>
      </trkpt>
      <trkpt lat="44.10777" lon="3.01081">
        <ele>654.2</ele>
        <time>2021-03-06T14:09:58Z</time>
      </trkpt>
      <trkpt lat="44.10782" lon="3.01084">
        <ele>654.5</ele>
        <time>2021-03-06T14:10:00Z</time>
      </trkpt>
      <trkpt lat="44.10785" lon="3.01087">
        <ele>654.6</ele>
        <time>2021-03-06T14:10:01Z</time>
      </trkpt>
      <trkpt lat="44.10787" lon="3.01094">
        <ele>654.8</ele>
        <time>2021-03-06T14:10:03Z</time>
      </trkpt>
      <trkpt lat="44.10787" lon="3.01098">
        <ele>654</ele>
        <time>2021-03-06T14:10:04Z</time>
      </trkpt>
      <trkpt lat="44.10787" lon="3.01102">
        <ele>653.8</ele>
        <time>2021-03-06T14:10:05Z</time>
      </trkpt>
      <trkpt lat="44.1079" lon="3.01108">
        <ele>653.5</ele>
        <time>2021-03-06T14:10:07Z</time>
      </trkpt>
      <trkpt lat="44.10793" lon="3.01114">
        <ele>653.3</ele>
        <time>2021-03-06T14:10:08Z</time>
      </trkpt>
      <trkpt lat="44.10799" lon="3.01123">
        <ele>653.1</ele>
        <time>2021-03-06T14:10:10Z</time>
      </trkpt>
      <trkpt lat="44.10803" lon="3.01126">
        <ele>653</ele>
        <time>2021-03-06T14:10:11Z</time>
      </trkpt>
      <trkpt lat="44.10809" lon="3.01133">
        <ele>652.9</ele>
        <time>2021-03-06T14:10:12Z</time>
      </trkpt>
      <trkpt lat="44.10812" lon="3.01144">
        <ele>652.8</ele>
        <time>2021-03-06T14:10:14Z</time>
      </trkpt>
      <trkpt lat="44.10814" lon="3.01151">
        <ele>652.6</ele>
        <time>2021-03-06T14:10:15Z</time>
      </trkpt>
      <trkpt lat="44.10818" lon="3.01159">
        <ele>652.3</ele>
        <time>2021-03-06T14:10:16Z</time>
      </trkpt>
      <trkpt lat="44.10824" lon="3.01173">
        <ele>651.3</ele>
        <time>2021-03-06T14:10:18Z</time>
      </trkpt>
      <trkpt lat="44.1083" lon="3.01188">
        <ele>649.7</ele>
        <time>2021-03-06T14:10:20Z</time>
      </trkpt>
      <trkpt lat="44.10834" lon="3.01194">
        <ele>648.6</ele>
        <time>2021-03-06T14:10:21Z</time>
      </trkpt>
      <trkpt lat="44.10836" lon="3.01199">
        <ele>647.6</ele>
        <time>2021-03-06T14:10:23Z</time>
      </trkpt>
      <trkpt lat="44.10838" lon="3.01205">
        <ele>646.3</ele>
        <time>2021-03-06T14:10:24Z</time>
      </trkpt>
      <trkpt lat="44.10842" lon="3.01214">
        <ele>644.4</ele>
        <time>2021-03-06T14:10:26Z</time>
      </trkpt>
      <trkpt lat="44.10848" lon="3.0122">
        <ele>642.5</ele>
        <time>2021-03-06T14:10:27Z</time>
      </trkpt>
      <trkpt lat="44.10855" lon="3.01229">
        <ele>640.2</ele>
        <time>2021-03-06T14:10:29Z</time>
      </trkpt>
      <trkpt lat="44.10857" lon="3.01235">
        <ele>639.2</ele>
        <time>2021-03-06T14:10:30Z</time>
      </trkpt>
      <trkpt lat="44.10861" lon="3.01244">
        <ele>637.7</ele>
        <time>2021-03-06T14:10:31Z</time>
      </trkpt>
      <trkpt lat="44.10869" lon="3.01261">
        <ele>635.2</ele>
        <time>2021-03-06T14:10:33Z</time>
      </trkpt>
      <trkpt lat="44.10874" lon="3.01277">
        <ele>633.1</ele>
        <time>2021-03-06T14:10:35Z</time>
      </trkpt>
      <trkpt lat="44.10876" lon="3.01287">
        <ele>632</ele>
        <time>2021-03-06T14:10:36Z</time>
      </trkpt>
      <trkpt lat="44.10879" lon="3.01307">
        <ele>630.1</ele>
        <time>2021-03-06T14:10:38Z</time>
      </trkpt>
      <trkpt lat="44.10879" lon="3.01329">
        <ele>628.1</ele>
        <time>2021-03-06T14:10:40Z</time>
      </trkpt>
      <trkpt lat="44.10876" lon="3.01347">
        <ele>626.1</ele>
        <time>2021-03-06T14:10:42Z</time>
      </trkpt>
      <trkpt lat="44.10871" lon="3.01353">
        <ele>625.1</ele>
        <time>2021-03-06T14:10:43Z</time>
      </trkpt>
      <trkpt lat="44.10856" lon="3.01361">
        <ele>622.7</ele>
        <time>2021-03-06T14:10:45Z</time>
      </trkpt>
      <trkpt lat="44.10841" lon="3.01366">
        <ele>621.2</ele>
        <time>2021-03-06T14:10:47Z</time>
      </trkpt>
      <trkpt lat="44.10832" lon="3.01369">
        <ele>620.7</ele>
        <time>2021-03-06T14:10:48Z</time>
      </trkpt>
      <trkpt lat="44.10825" lon="3.01372">
        <ele>620.3</ele>
        <time>2021-03-06T14:10:49Z</time>
      </trkpt>
      <trkpt lat="44.10817" lon="3.01376">
        <ele>620</ele>
        <time>2021-03-06T14:10:50Z</time>
      </trkpt>
      <trkpt lat="44.10804" lon="3.01387">
        <ele>619.5</ele>
        <time>2021-03-06T14:10:52Z</time>
      </trkpt>
      <trkpt lat="44.10798" lon="3.01392">
        <ele>619.3</ele>
        <time>2021-03-06T14:10:53Z</time>
      </trkpt>
      <trkpt lat="44.10789" lon="3.01406">
        <ele>619</ele>
        <time>2021-03-06T14:10:55Z</time>
      </trkpt>
      <trkpt lat="44.10783" lon="3.01423">
        <ele>619</ele>
        <time>2021-03-06T14:10:57Z</time>
      </trkpt>
      <trkpt lat="44.10781" lon="3.01436">
        <ele>619.1</ele>
        <time>2021-03-06T14:10:59Z</time>
      </trkpt>
      <trkpt lat="44.10782" lon="3.01443">
        <ele>619.1</ele>
        <time>2021-03-06T14:11:01Z</time>
      </trkpt>
      <trkpt lat="44.10784" lon="3.01446">
        <ele>619.2</ele>
        <time>2021-03-06T14:11:02Z</time>
      </trkpt>
      <trkpt lat="44.10785" lon="3.01449">
        <ele>619.3</ele>
        <time>2021-03-06T14:11:04Z</time>
      </trkpt>
      <trkpt lat="44.10785" lon="3.0145">
        <ele>619.3</ele>
        <time>2021-03-06T14:11:05Z</time>
      </trkpt>
      <trkpt lat="44.10785" lon="3.01451">
        <ele>619.3</ele>
        <time>2021-03-06T14:11:07Z</time>
      </trkpt>
      <trkpt lat="44.10785" lon="3.01451">
        <ele>619.3</ele>
        <time>2021-03-06T14:11:08Z</time>
      </trkpt>
      <trkpt lat="44.10785" lon="3.0145">
        <ele>619.3</ele>
        <time>2021-03-06T14:11:10Z</time>
      </trkpt>
      <trkpt lat="44.10785" lon="3.0145">
        <ele>619.3</ele>
        <time>2021-03-06T14:11:11Z</time>
      </trkpt>
      <trkpt lat="44.10785" lon="3.0145">
        <ele>619.3</ele>
        <time>2021-03-06T14:11:13Z</time>
      </trkpt>
      <trkpt lat="44.10786" lon="3.01455">
        <ele>619.5</ele>
        <time>2021-03-06T14:11:15Z</time>
      </trkpt>
      <trkpt lat="44.10786" lon="3.0146">
        <ele>619.6</ele>
        <time>2021-03-06T14:11:16Z</time>
      </trkpt>
      <trkpt lat="44.10787" lon="3.01468">
        <ele>619.7</ele>
        <time>2021-03-06T14:11:17Z</time>
      </trkpt>
      <trkpt lat="44.10786" lon="3.01481">
        <ele>619.6</ele>
        <time>2021-03-06T14:11:19Z</time>
      </trkpt>
      <trkpt lat="44.10785" lon="3.01489">
        <ele>619.2</ele>
        <time>2021-03-06T14:11:20Z</time>
      </trkpt>
      <trkpt lat="44.10783" lon="3.01506">
        <ele>617.8</ele>
        <time>2021-03-06T14:11:22Z</time>
      </trkpt>
      <trkpt lat="44.10784" lon="3.01513">
        <ele>616.9</ele>
        <time>2021-03-06T14:11:23Z</time>
      </trkpt>
      <trkpt lat="44.10786" lon="3.01521">
        <ele>615.9</ele>
        <time>2021-03-06T14:11:24Z</time>
      </trkpt>
      <trkpt lat="44.10785" lon="3.01526">
        <ele>615.1</ele>
        <time>2021-03-06T14:11:25Z</time>
      </trkpt>
      <trkpt lat="44.10784" lon="3.01529">
        <ele>614.7</ele>
        <time>2021-03-06T14:11:27Z</time>
      </trkpt>
      <trkpt lat="44.10784" lon="3.01527">
        <ele>614.5</ele>
        <time>2021-03-06T14:11:29Z</time>
      </trkpt>
      <trkpt lat="44.10783" lon="3.01526">
        <ele>614.3</ele>
        <time>2021-03-06T14:11:31Z</time>
      </trkpt>
      <trkpt lat="44.10783" lon="3.01525">
        <ele>614.2</ele>
        <time>2021-03-06T14:11:33Z</time>
      </trkpt>
      <trkpt lat="44.10783" lon="3.01525">
        <ele>614.2</ele>
        <time>2021-03-06T14:11:34Z</time>
      </trkpt>
      <trkpt lat="44.10783" lon="3.01525">
        <ele>614.1</ele>
        <time>2021-03-06T14:11:35Z</time>
      </trkpt>
      <trkpt lat="44.10783" lon="3.01525">
        <ele>614.1</ele>
        <time>2021-03-06T14:11:36Z</time>
      </trkpt>
      <trkpt lat="44.10783" lon="3.01525">
        <ele>614.1</ele>
        <time>2021-03-06T14:11:38Z</time>
      </trkpt>
      <trkpt lat="44.10783" lon="3.01524">
        <ele>614</ele>
        <time>2021-03-06T14:11:40Z</time>
      </trkpt>
      <trkpt lat="44.10783" lon="3.01524">
        <ele>613.9</ele>
        <time>2021-03-06T14:11:41Z</time>
      </trkpt>
      <trkpt lat="44.10783" lon="3.01524">
        <ele>613.9</ele>
        <time>2021-03-06T14:11:44Z</time>
      </trkpt>
      <trkpt lat="44.10783" lon="3.01524">
        <ele>613.9</ele>
        <time>2021-03-06T14:11:46Z</time>
      </trkpt>
      <trkpt lat="44.10783" lon="3.01524">
        <ele>613.9</ele>
        <time>2021-03-06T14:11:48Z</time>
      </trkpt>
      <trkpt lat="44.10785" lon="3.01527">
        <ele>613.4</ele>
        <time>2021-03-06T14:12:26Z</time>
      </trkpt>
      <trkpt lat="44.10787" lon="3.0153">
        <ele>613</ele>
        <time>2021-03-06T14:12:27Z</time>
      </trkpt>
      <trkpt lat="44.10785" lon="3.01534">
        <ele>612.5</ele>
        <time>2021-03-06T14:12:29Z</time>
      </trkpt>
      <trkpt lat="44.10784" lon="3.01539">
        <ele>611.8</ele>
        <time>2021-03-06T14:12:30Z</time>
      </trkpt>
      <trkpt lat="44.10776" lon="3.01543">
        <ele>611.2</ele>
        <time>2021-03-06T14:12:32Z</time>
      </trkpt>
      <trkpt lat="44.10767" lon="3.01532">
        <ele>610.3</ele>
        <time>2021-03-06T14:12:33Z</time>
      </trkpt>
      <trkpt lat="44.10763" lon="3.01525">
        <ele>609.8</ele>
        <time>2021-03-06T14:12:34Z</time>
      </trkpt>
      <trkpt lat="44.10756" lon="3.01509">
        <ele>608.8</ele>
        <time>2021-03-06T14:12:36Z</time>
      </trkpt>
      <trkpt lat="44.10747" lon="3.01498">
        <ele>607.9</ele>
        <time>2021-03-06T14:12:38Z</time>
      </trkpt>
      <trkpt lat="44.10733" lon="3.01487">
        <ele>606.6</ele>
        <time>2021-03-06T14:12:40Z</time>
      </trkpt>
      <trkpt lat="44.10725" lon="3.0148">
        <ele>605.9</ele>
        <time>2021-03-06T14:12:41Z</time>
      </trkpt>
      <trkpt lat="44.10712" lon="3.01464">
        <ele>604.6</ele>
        <time>2021-03-06T14:12:43Z</time>
      </trkpt>
      <trkpt lat="44.10704" lon="3.0146">
        <ele>604</ele>
        <time>2021-03-06T14:12:44Z</time>
      </trkpt>
      <trkpt lat="44.10692" lon="3.01451">
        <ele>603</ele>
        <time>2021-03-06T14:12:46Z</time>
      </trkpt>
      <trkpt lat="44.10683" lon="3.01437">
        <ele>602</ele>
        <time>2021-03-06T14:12:48Z</time>
      </trkpt>
      <trkpt lat="44.10678" lon="3.01432">
        <ele>601.5</ele>
        <time>2021-03-06T14:12:49Z</time>
      </trkpt>
      <trkpt lat="44.10669" lon="3.01421">
        <ele>600.6</ele>
        <time>2021-03-06T14:12:51Z</time>
      </trkpt>
      <trkpt lat="44.10669" lon="3.01411">
        <ele>600.1</ele>
        <time>2021-03-06T14:12:52Z</time>
      </trkpt>
      <trkpt lat="44.10668" lon="3.014">
        <ele>599.4</ele>
        <time>2021-03-06T14:12:53Z</time>
      </trkpt>
      <trkpt lat="44.10669" lon="3.01389">
        <ele>598.9</ele>
        <time>2021-03-06T14:12:54Z</time>
      </trkpt>
      <trkpt lat="44.10669" lon="3.0138">
        <ele>598.3</ele>
        <time>2021-03-06T14:12:55Z</time>
      </trkpt>
      <trkpt lat="44.10666" lon="3.01367">
        <ele>597.6</ele>
        <time>2021-03-06T14:12:57Z</time>
      </trkpt>
      <trkpt lat="44.10658" lon="3.01365">
        <ele>597</ele>
        <time>2021-03-06T14:12:59Z</time>
      </trkpt>
      <trkpt lat="44.1065" lon="3.01363">
        <ele>596.4</ele>
        <time>2021-03-06T14:13:00Z</time>
      </trkpt>
      <trkpt lat="44.10642" lon="3.01361">
        <ele>595.7</ele>
        <time>2021-03-06T14:13:01Z</time>
      </trkpt>
      <trkpt lat="44.10627" lon="3.01357">
        <ele>594.6</ele>
        <time>2021-03-06T14:13:03Z</time>
      </trkpt>
      <trkpt lat="44.10621" lon="3.01355">
        <ele>594.1</ele>
        <time>2021-03-06T14:13:04Z</time>
      </trkpt>
      <trkpt lat="44.10616" lon="3.01352">
        <ele>593.7</ele>
        <time>2021-03-06T14:13:05Z</time>
      </trkpt>
      <trkpt lat="44.1061" lon="3.01349">
        <ele>593.2</ele>
        <time>2021-03-06T14:13:06Z</time>
      </trkpt>
      <trkpt lat="44.10601" lon="3.01345">
        <ele>592.5</ele>
        <time>2021-03-06T14:13:08Z</time>
      </trkpt>
      <trkpt lat="44.10593" lon="3.01342">
        <ele>591.9</ele>
        <time>2021-03-06T14:13:10Z</time>
      </trkpt>
      <trkpt lat="44.1059" lon="3.01342">
        <ele>591.6</ele>
        <time>2021-03-06T14:13:11Z</time>
      </trkpt>
      <trkpt lat="44.10585" lon="3.01341">
        <ele>591.3</ele>
        <time>2021-03-06T14:13:12Z</time>
      </trkpt>
      <trkpt lat="44.10573" lon="3.01337">
        <ele>590.4</ele>
        <time>2021-03-06T14:13:14Z</time>
      </trkpt>
      <trkpt lat="44.10562" lon="3.01331">
        <ele>589.4</ele>
        <time>2021-03-06T14:13:16Z</time>
      </trkpt>
      <trkpt lat="44.10551" lon="3.01328">
        <ele>588.6</ele>
        <time>2021-03-06T14:13:18Z</time>
      </trkpt>
      <trkpt lat="44.10541" lon="3.01325">
        <ele>587.8</ele>
        <time>2021-03-06T14:13:20Z</time>
      </trkpt>
      <trkpt lat="44.10531" lon="3.01322">
        <ele>587.1</ele>
        <time>2021-03-06T14:13:22Z</time>
      </trkpt>
      <trkpt lat="44.10521" lon="3.0132">
        <ele>586.3</ele>
        <time>2021-03-06T14:13:24Z</time>
      </trkpt>
      <trkpt lat="44.10515" lon="3.01319">
        <ele>585.9</ele>
        <time>2021-03-06T14:13:25Z</time>
      </trkpt>
      <trkpt lat="44.10509" lon="3.01317">
        <ele>585.4</ele>
        <time>2021-03-06T14:13:26Z</time>
      </trkpt>
      <trkpt lat="44.10503" lon="3.01316">
        <ele>584.9</ele>
        <time>2021-03-06T14:13:27Z</time>
      </trkpt>
      <trkpt lat="44.10495" lon="3.01314">
        <ele>584.4</ele>
        <time>2021-03-06T14:13:28Z</time>
      </trkpt>
      <trkpt lat="44.10482" lon="3.01311">
        <ele>583.3</ele>
        <time>2021-03-06T14:13:30Z</time>
      </trkpt>
      <trkpt lat="44.10468" lon="3.01308">
        <ele>582.3</ele>
        <time>2021-03-06T14:13:32Z</time>
      </trkpt>
      <trkpt lat="44.1046" lon="3.01306">
        <ele>581.7</ele>
        <time>2021-03-06T14:13:33Z</time>
      </trkpt>
      <trkpt lat="44.10454" lon="3.01304">
        <ele>581.2</ele>
        <time>2021-03-06T14:13:34Z</time>
      </trkpt>
      <trkpt lat="44.1044" lon="3.01299">
        <ele>580.1</ele>
        <time>2021-03-06T14:13:36Z</time>
      </trkpt>
      <trkpt lat="44.10432" lon="3.01296">
        <ele>579.5</ele>
        <time>2021-03-06T14:13:37Z</time>
      </trkpt>
      <trkpt lat="44.10417" lon="3.0129">
        <ele>578.3</ele>
        <time>2021-03-06T14:13:39Z</time>
      </trkpt>
      <trkpt lat="44.1041" lon="3.01285">
        <ele>577.7</ele>
        <time>2021-03-06T14:13:40Z</time>
      </trkpt>
      <trkpt lat="44.10397" lon="3.01278">
        <ele>576.7</ele>
        <time>2021-03-06T14:13:42Z</time>
      </trkpt>
      <trkpt lat="44.10388" lon="3.0127">
        <ele>575.8</ele>
        <time>2021-03-06T14:13:44Z</time>
      </trkpt>
      <trkpt lat="44.10383" lon="3.01266">
        <ele>575.4</ele>
        <time>2021-03-06T14:13:45Z</time>
      </trkpt>
      <trkpt lat="44.10378" lon="3.01263">
        <ele>575</ele>
        <time>2021-03-06T14:13:46Z</time>
      </trkpt>
      <trkpt lat="44.10372" lon="3.01256">
        <ele>574.4</ele>
        <time>2021-03-06T14:13:48Z</time>
      </trkpt>
      <trkpt lat="44.1037" lon="3.01251">
        <ele>574.1</ele>
        <time>2021-03-06T14:13:49Z</time>
      </trkpt>
      <trkpt lat="44.10365" lon="3.01248">
        <ele>573.7</ele>
        <time>2021-03-06T14:13:50Z</time>
      </trkpt>
      <trkpt lat="44.10355" lon="3.01242">
        <ele>572.9</ele>
        <time>2021-03-06T14:13:52Z</time>
      </trkpt>
      <trkpt lat="44.10346" lon="3.01237">
        <ele>572.2</ele>
        <time>2021-03-06T14:13:54Z</time>
      </trkpt>
      <trkpt lat="44.10337" lon="3.01233">
        <ele>571.5</ele>
        <time>2021-03-06T14:13:55Z</time>
      </trkpt>
      <trkpt lat="44.10331" lon="3.0123">
        <ele>571</ele>
        <time>2021-03-06T14:13:57Z</time>
      </trkpt>
      <trkpt lat="44.10317" lon="3.01223">
        <ele>569.9</ele>
        <time>2021-03-06T14:13:59Z</time>
      </trkpt>
      <trkpt lat="44.10306" lon="3.01214">
        <ele>568.9</ele>
        <time>2021-03-06T14:14:01Z</time>
      </trkpt>
      <trkpt lat="44.10294" lon="3.01205">
        <ele>567.9</ele>
        <time>2021-03-06T14:14:03Z</time>
      </trkpt>
      <trkpt lat="44.10289" lon="3.01201">
        <ele>567.5</ele>
        <time>2021-03-06T14:14:04Z</time>
      </trkpt>
      <trkpt lat="44.10277" lon="3.01193">
        <ele>566.4</ele>
        <time>2021-03-06T14:14:06Z</time>
      </trkpt>
      <trkpt lat="44.10271" lon="3.01187">
        <ele>565.9</ele>
        <time>2021-03-06T14:14:07Z</time>
      </trkpt>
      <trkpt lat="44.10265" lon="3.01181">
        <ele>565.3</ele>
        <time>2021-03-06T14:14:08Z</time>
      </trkpt>
      <trkpt lat="44.10251" lon="3.01172">
        <ele>564.2</ele>
        <time>2021-03-06T14:14:10Z</time>
      </trkpt>
      <trkpt lat="44.10244" lon="3.01166">
        <ele>563.6</ele>
        <time>2021-03-06T14:14:11Z</time>
      </trkpt>
      <trkpt lat="44.1023" lon="3.01156">
        <ele>562.3</ele>
        <time>2021-03-06T14:14:13Z</time>
      </trkpt>
      <trkpt lat="44.10222" lon="3.01151">
        <ele>561.7</ele>
        <time>2021-03-06T14:14:14Z</time>
      </trkpt>
      <trkpt lat="44.10209" lon="3.01138">
        <ele>560.5</ele>
        <time>2021-03-06T14:14:16Z</time>
      </trkpt>
      <trkpt lat="44.10202" lon="3.01131">
        <ele>559.8</ele>
        <time>2021-03-06T14:14:17Z</time>
      </trkpt>
      <trkpt lat="44.10188" lon="3.01117">
        <ele>558.6</ele>
        <time>2021-03-06T14:14:19Z</time>
      </trkpt>
      <trkpt lat="44.10183" lon="3.01107">
        <ele>557.9</ele>
        <time>2021-03-06T14:14:20Z</time>
      </trkpt>
      <trkpt lat="44.10172" lon="3.01087">
        <ele>556.6</ele>
        <time>2021-03-06T14:14:22Z</time>
      </trkpt>
      <trkpt lat="44.10164" lon="3.01066">
        <ele>555.3</ele>
        <time>2021-03-06T14:14:24Z</time>
      </trkpt>
      <trkpt lat="44.1016" lon="3.01056">
        <ele>554.6</ele>
        <time>2021-03-06T14:14:25Z</time>
      </trkpt>
      <trkpt lat="44.10157" lon="3.01049">
        <ele>554.2</ele>
        <time>2021-03-06T14:14:26Z</time>
      </trkpt>
      <trkpt lat="44.10153" lon="3.01044">
        <ele>553.8</ele>
        <time>2021-03-06T14:14:28Z</time>
      </trkpt>
      <trkpt lat="44.10149" lon="3.01039">
        <ele>553.4</ele>
        <time>2021-03-06T14:14:30Z</time>
      </trkpt>
      <trkpt lat="44.10146" lon="3.01037">
        <ele>553.1</ele>
        <time>2021-03-06T14:14:31Z</time>
      </trkpt>
      <trkpt lat="44.10144" lon="3.01037">
        <ele>553</ele>
        <time>2021-03-06T14:14:32Z</time>
      </trkpt>
      <trkpt lat="44.1014" lon="3.01031">
        <ele>552.6</ele>
        <time>2021-03-06T14:14:34Z</time>
      </trkpt>
      <trkpt lat="44.1014" lon="3.01032">
        <ele>552.5</ele>
        <time>2021-03-06T14:14:35Z</time>
      </trkpt>
      <trkpt lat="44.10139" lon="3.01025">
        <ele>552.1</ele>
        <time>2021-03-06T14:14:37Z</time>
      </trkpt>
      <trkpt lat="44.10137" lon="3.01018">
        <ele>551.7</ele>
        <time>2021-03-06T14:14:38Z</time>
      </trkpt>
      <trkpt lat="44.10136" lon="3.01013">
        <ele>551.4</ele>
        <time>2021-03-06T14:14:39Z</time>
      </trkpt>
      <trkpt lat="44.10133" lon="3.01008">
        <ele>551.1</ele>
        <time>2021-03-06T14:14:41Z</time>
      </trkpt>
      <trkpt lat="44.1013" lon="3.01001">
        <ele>550.7</ele>
        <time>2021-03-06T14:14:42Z</time>
      </trkpt>
      <trkpt lat="44.10128" lon="3.00995">
        <ele>550.3</ele>
        <time>2021-03-06T14:14:44Z</time>
      </trkpt>
      <trkpt lat="44.10126" lon="3.00989">
        <ele>550</ele>
        <time>2021-03-06T14:14:45Z</time>
      </trkpt>
      <trkpt lat="44.10124" lon="3.00986">
        <ele>549.7</ele>
        <time>2021-03-06T14:14:46Z</time>
      </trkpt>
      <trkpt lat="44.10123" lon="3.0098">
        <ele>549.4</ele>
        <time>2021-03-06T14:14:48Z</time>
      </trkpt>
      <trkpt lat="44.10122" lon="3.00975">
        <ele>549.1</ele>
        <time>2021-03-06T14:14:49Z</time>
      </trkpt>
      <trkpt lat="44.10119" lon="3.0097">
        <ele>548.8</ele>
        <time>2021-03-06T14:14:51Z</time>
      </trkpt>
      <trkpt lat="44.10116" lon="3.00964">
        <ele>548.4</ele>
        <time>2021-03-06T14:14:52Z</time>
      </trkpt>
      <trkpt lat="44.10114" lon="3.00959">
        <ele>548.1</ele>
        <time>2021-03-06T14:14:54Z</time>
      </trkpt>
      <trkpt lat="44.10111" lon="3.00952">
        <ele>547.7</ele>
        <time>2021-03-06T14:14:55Z</time>
      </trkpt>
      <trkpt lat="44.10108" lon="3.00947">
        <ele>547.3</ele>
        <time>2021-03-06T14:14:57Z</time>
      </trkpt>
      <trkpt lat="44.10105" lon="3.00942">
        <ele>546.9</ele>
        <time>2021-03-06T14:14:59Z</time>
      </trkpt>
      <trkpt lat="44.10102" lon="3.00938">
        <ele>546.6</ele>
        <time>2021-03-06T14:15:00Z</time>
      </trkpt>
      <trkpt lat="44.10099" lon="3.00935">
        <ele>546.3</ele>
        <time>2021-03-06T14:15:02Z</time>
      </trkpt>
      <trkpt lat="44.10096" lon="3.00933">
        <ele>546.1</ele>
        <time>2021-03-06T14:15:03Z</time>
      </trkpt>
      <trkpt lat="44.10091" lon="3.00929">
        <ele>545.7</ele>
        <time>2021-03-06T14:15:04Z</time>
      </trkpt>
      <trkpt lat="44.10086" lon="3.00926">
        <ele>545.3</ele>
        <time>2021-03-06T14:15:06Z</time>
      </trkpt>
      <trkpt lat="44.10083" lon="3.00925">
        <ele>545.1</ele>
        <time>2021-03-06T14:15:07Z</time>
      </trkpt>
      <trkpt lat="44.10079" lon="3.00924">
        <ele>544.9</ele>
        <time>2021-03-06T14:15:08Z</time>
      </trkpt>
      <trkpt lat="44.10076" lon="3.00923">
        <ele>544.6</ele>
        <time>2021-03-06T14:15:10Z</time>
      </trkpt>
      <trkpt lat="44.10068" lon="3.00927">
        <ele>543.9</ele>
        <time>2021-03-06T14:15:11Z</time>
      </trkpt>
      <trkpt lat="44.10057" lon="3.00928">
        <ele>542.7</ele>
        <time>2021-03-06T14:15:13Z</time>
      </trkpt>
      <trkpt lat="44.10052" lon="3.00927">
        <ele>542.2</ele>
        <time>2021-03-06T14:15:14Z</time>
      </trkpt>
      <trkpt lat="44.10044" lon="3.00932">
        <ele>541.2</ele>
        <time>2021-03-06T14:15:16Z</time>
      </trkpt>
      <trkpt lat="44.10039" lon="3.00934">
        <ele>540.8</ele>
        <time>2021-03-06T14:15:17Z</time>
      </trkpt>
      <trkpt lat="44.10028" lon="3.00937">
        <ele>540.5</ele>
        <time>2021-03-06T14:15:19Z</time>
      </trkpt>
      <trkpt lat="44.10027" lon="3.00934">
        <ele>540.5</ele>
        <time>2021-03-06T14:15:20Z</time>
      </trkpt>
      <trkpt lat="44.10026" lon="3.00932">
        <ele>540.4</ele>
        <time>2021-03-06T14:15:21Z</time>
      </trkpt>
      <trkpt lat="44.10024" lon="3.00932">
        <ele>540.3</ele>
        <time>2021-03-06T14:15:23Z</time>
      </trkpt>
      <trkpt lat="44.10023" lon="3.00931">
        <ele>540.3</ele>
        <time>2021-03-06T14:15:24Z</time>
      </trkpt>
      <trkpt lat="44.10021" lon="3.00931">
        <ele>540.2</ele>
        <time>2021-03-06T14:15:25Z</time>
      </trkpt>
      <trkpt lat="44.10017" lon="3.00928">
        <ele>539.9</ele>
        <time>2021-03-06T14:15:26Z</time>
      </trkpt>
      <trkpt lat="44.10016" lon="3.00926">
        <ele>539.8</ele>
        <time>2021-03-06T14:15:27Z</time>
      </trkpt>
      <trkpt lat="44.10013" lon="3.00924">
        <ele>539.5</ele>
        <time>2021-03-06T14:15:28Z</time>
      </trkpt>
      <trkpt lat="44.1001" lon="3.00922">
        <ele>539.2</ele>
        <time>2021-03-06T14:15:30Z</time>
      </trkpt>
      <trkpt lat="44.10007" lon="3.00921">
        <ele>538.9</ele>
        <time>2021-03-06T14:15:31Z</time>
      </trkpt>
      <trkpt lat="44.10002" lon="3.00921">
        <ele>538.4</ele>
        <time>2021-03-06T14:15:32Z</time>
      </trkpt>
      <trkpt lat="44.09996" lon="3.00921">
        <ele>538</ele>
        <time>2021-03-06T14:15:34Z</time>
      </trkpt>
      <trkpt lat="44.09993" lon="3.0092">
        <ele>537.6</ele>
        <time>2021-03-06T14:15:35Z</time>
      </trkpt>
      <trkpt lat="44.0999" lon="3.00915">
        <ele>537.2</ele>
        <time>2021-03-06T14:15:36Z</time>
      </trkpt>
      <trkpt lat="44.09987" lon="3.0091">
        <ele>536.6</ele>
        <time>2021-03-06T14:15:38Z</time>
      </trkpt>
      <trkpt lat="44.09985" lon="3.00909">
        <ele>536.3</ele>
        <time>2021-03-06T14:15:39Z</time>
      </trkpt>
      <trkpt lat="44.09983" lon="3.00908">
        <ele>536</ele>
        <time>2021-03-06T14:15:40Z</time>
      </trkpt>
      <trkpt lat="44.09977" lon="3.00905">
        <ele>535</ele>
        <time>2021-03-06T14:15:42Z</time>
      </trkpt>
      <trkpt lat="44.09971" lon="3.00901">
        <ele>534</ele>
        <time>2021-03-06T14:15:44Z</time>
      </trkpt>
      <trkpt lat="44.09968" lon="3.00895">
        <ele>533.3</ele>
        <time>2021-03-06T14:15:45Z</time>
      </trkpt>
      <trkpt lat="44.09963" lon="3.00891">
        <ele>532.6</ele>
        <time>2021-03-06T14:15:46Z</time>
      </trkpt>
      <trkpt lat="44.09954" lon="3.00884">
        <ele>531.4</ele>
        <time>2021-03-06T14:15:48Z</time>
      </trkpt>
      <trkpt lat="44.09949" lon="3.00879">
        <ele>531.1</ele>
        <time>2021-03-06T14:15:49Z</time>
      </trkpt>
      <trkpt lat="44.09945" lon="3.00874">
        <ele>530.9</ele>
        <time>2021-03-06T14:15:50Z</time>
      </trkpt>
      <trkpt lat="44.0994" lon="3.00861">
        <ele>530.9</ele>
        <time>2021-03-06T14:15:52Z</time>
      </trkpt>
      <trkpt lat="44.09939" lon="3.00858">
        <ele>530.9</ele>
        <time>2021-03-06T14:15:53Z</time>
      </trkpt>
      <trkpt lat="44.09937" lon="3.0085">
        <ele>530.9</ele>
        <time>2021-03-06T14:15:55Z</time>
      </trkpt>
      <trkpt lat="44.0993" lon="3.00834">
        <ele>530.7</ele>
        <time>2021-03-06T14:15:57Z</time>
      </trkpt>
      <trkpt lat="44.09928" lon="3.00827">
        <ele>530.7</ele>
        <time>2021-03-06T14:15:58Z</time>
      </trkpt>
      <trkpt lat="44.09924" lon="3.00815">
        <ele>530.6</ele>
        <time>2021-03-06T14:16:00Z</time>
      </trkpt>
      <trkpt lat="44.09921" lon="3.00805">
        <ele>530.5</ele>
        <time>2021-03-06T14:16:02Z</time>
      </trkpt>
      <trkpt lat="44.09922" lon="3.00798">
        <ele>530.3</ele>
        <time>2021-03-06T14:16:03Z</time>
      </trkpt>
      <trkpt lat="44.0992" lon="3.00791">
        <ele>530.1</ele>
        <time>2021-03-06T14:16:05Z</time>
      </trkpt>
      <trkpt lat="44.09917" lon="3.00783">
        <ele>529.9</ele>
        <time>2021-03-06T14:16:06Z</time>
      </trkpt>
      <trkpt lat="44.09914" lon="3.00776">
        <ele>529.9</ele>
        <time>2021-03-06T14:16:08Z</time>
      </trkpt>
      <trkpt lat="44.09912" lon="3.00767">
        <ele>529.9</ele>
        <time>2021-03-06T14:16:09Z</time>
      </trkpt>
      <trkpt lat="44.0991" lon="3.00761">
        <ele>530</ele>
        <time>2021-03-06T14:16:10Z</time>
      </trkpt>
      <trkpt lat="44.09907" lon="3.00754">
        <ele>530.2</ele>
        <time>2021-03-06T14:16:11Z</time>
      </trkpt>
      <trkpt lat="44.09906" lon="3.00747">
        <ele>530.2</ele>
        <time>2021-03-06T14:16:12Z</time>
      </trkpt>
      <trkpt lat="44.09906" lon="3.0074">
        <ele>530.1</ele>
        <time>2021-03-06T14:16:14Z</time>
      </trkpt>
      <trkpt lat="44.09906" lon="3.00735">
        <ele>530</ele>
        <time>2021-03-06T14:16:15Z</time>
      </trkpt>
      <trkpt lat="44.09905" lon="3.00729">
        <ele>529.8</ele>
        <time>2021-03-06T14:16:16Z</time>
      </trkpt>
      <trkpt lat="44.09901" lon="3.0072">
        <ele>529.4</ele>
        <time>2021-03-06T14:16:17Z</time>
      </trkpt>
      <trkpt lat="44.09901" lon="3.00712">
        <ele>528.9</ele>
        <time>2021-03-06T14:16:19Z</time>
      </trkpt>
      <trkpt lat="44.099" lon="3.007">
        <ele>528</ele>
        <time>2021-03-06T14:16:21Z</time>
      </trkpt>
      <trkpt lat="44.09897" lon="3.00693">
        <ele>527.3</ele>
        <time>2021-03-06T14:16:22Z</time>
      </trkpt>
      <trkpt lat="44.09894" lon="3.00686">
        <ele>526.7</ele>
        <time>2021-03-06T14:16:23Z</time>
      </trkpt>
      <trkpt lat="44.09889" lon="3.00671">
        <ele>525.8</ele>
        <time>2021-03-06T14:16:25Z</time>
      </trkpt>
      <trkpt lat="44.09887" lon="3.00657">
        <ele>525</ele>
        <time>2021-03-06T14:16:27Z</time>
      </trkpt>
      <trkpt lat="44.09889" lon="3.00651">
        <ele>524.6</ele>
        <time>2021-03-06T14:16:28Z</time>
      </trkpt>
      <trkpt lat="44.0989" lon="3.00642">
        <ele>523.9</ele>
        <time>2021-03-06T14:16:30Z</time>
      </trkpt>
      <trkpt lat="44.09889" lon="3.00628">
        <ele>522.6</ele>
        <time>2021-03-06T14:16:32Z</time>
      </trkpt>
      <trkpt lat="44.09889" lon="3.0062">
        <ele>521.9</ele>
        <time>2021-03-06T14:16:33Z</time>
      </trkpt>
      <trkpt lat="44.0989" lon="3.00613">
        <ele>521.1</ele>
        <time>2021-03-06T14:16:34Z</time>
      </trkpt>
      <trkpt lat="44.09891" lon="3.00606">
        <ele>520.1</ele>
        <time>2021-03-06T14:16:35Z</time>
      </trkpt>
      <trkpt lat="44.09896" lon="3.00593">
        <ele>518.4</ele>
        <time>2021-03-06T14:16:37Z</time>
      </trkpt>
      <trkpt lat="44.09898" lon="3.00587">
        <ele>517.6</ele>
        <time>2021-03-06T14:16:38Z</time>
      </trkpt>
      <trkpt lat="44.099" lon="3.00581">
        <ele>516.9</ele>
        <time>2021-03-06T14:16:40Z</time>
      </trkpt>
      <trkpt lat="44.09903" lon="3.00572">
        <ele>516</ele>
        <time>2021-03-06T14:16:41Z</time>
      </trkpt>
      <trkpt lat="44.09901" lon="3.00567">
        <ele>515.6</ele>
        <time>2021-03-06T14:16:42Z</time>
      </trkpt>
      <trkpt lat="44.09904" lon="3.00562">
        <ele>515.3</ele>
        <time>2021-03-06T14:16:44Z</time>
      </trkpt>
      <trkpt lat="44.09909" lon="3.00559">
        <ele>514.8</ele>
        <time>2021-03-06T14:16:45Z</time>
      </trkpt>
      <trkpt lat="44.09912" lon="3.00556">
        <ele>514.5</ele>
        <time>2021-03-06T14:16:46Z</time>
      </trkpt>
      <trkpt lat="44.09916" lon="3.00551">
        <ele>513.8</ele>
        <time>2021-03-06T14:16:48Z</time>
      </trkpt>
      <trkpt lat="44.0992" lon="3.00548">
        <ele>513.1</ele>
        <time>2021-03-06T14:16:49Z</time>
      </trkpt>
      <trkpt lat="44.09924" lon="3.00545">
        <ele>512.2</ele>
        <time>2021-03-06T14:16:50Z</time>
      </trkpt>
      <trkpt lat="44.0993" lon="3.00536">
        <ele>509.9</ele>
        <time>2021-03-06T14:16:52Z</time>
      </trkpt>
      <trkpt lat="44.09932" lon="3.00531">
        <ele>508.7</ele>
        <time>2021-03-06T14:16:53Z</time>
      </trkpt>
      <trkpt lat="44.0993" lon="3.0052">
        <ele>506.7</ele>
        <time>2021-03-06T14:16:55Z</time>
      </trkpt>
      <trkpt lat="44.09928" lon="3.00515">
        <ele>505.8</ele>
        <time>2021-03-06T14:16:56Z</time>
      </trkpt>
      <trkpt lat="44.09926" lon="3.00505">
        <ele>504.3</ele>
        <time>2021-03-06T14:16:58Z</time>
      </trkpt>
      <trkpt lat="44.09921" lon="3.005">
        <ele>503.3</ele>
        <time>2021-03-06T14:16:59Z</time>
      </trkpt>
      <trkpt lat="44.09911" lon="3.00489">
        <ele>501.4</ele>
        <time>2021-03-06T14:17:01Z</time>
      </trkpt>
      <trkpt lat="44.09904" lon="3.0048">
        <ele>500.2</ele>
        <time>2021-03-06T14:17:03Z</time>
      </trkpt>
      <trkpt lat="44.09903" lon="3.00475">
        <ele>499.8</ele>
        <time>2021-03-06T14:17:04Z</time>
      </trkpt>
      <trkpt lat="44.09891" lon="3.00466">
        <ele>498</ele>
        <time>2021-03-06T14:17:06Z</time>
      </trkpt>
      <trkpt lat="44.09885" lon="3.0046">
        <ele>497.1</ele>
        <time>2021-03-06T14:17:07Z</time>
      </trkpt>
      <trkpt lat="44.09875" lon="3.00453">
        <ele>495.5</ele>
        <time>2021-03-06T14:17:09Z</time>
      </trkpt>
      <trkpt lat="44.09869" lon="3.00449">
        <ele>494.6</ele>
        <time>2021-03-06T14:17:10Z</time>
      </trkpt>
      <trkpt lat="44.09856" lon="3.00441">
        <ele>493</ele>
        <time>2021-03-06T14:17:12Z</time>
      </trkpt>
      <trkpt lat="44.09851" lon="3.00437">
        <ele>492.4</ele>
        <time>2021-03-06T14:17:13Z</time>
      </trkpt>
      <trkpt lat="44.09846" lon="3.00434">
        <ele>492</ele>
        <time>2021-03-06T14:17:14Z</time>
      </trkpt>
      <trkpt lat="44.09836" lon="3.00426">
        <ele>491.5</ele>
        <time>2021-03-06T14:17:16Z</time>
      </trkpt>
      <trkpt lat="44.09825" lon="3.0042">
        <ele>491.2</ele>
        <time>2021-03-06T14:17:18Z</time>
      </trkpt>
      <trkpt lat="44.09818" lon="3.00414">
        <ele>490.7</ele>
        <time>2021-03-06T14:17:20Z</time>
      </trkpt>
      <trkpt lat="44.09815" lon="3.00413">
        <ele>490.5</ele>
        <time>2021-03-06T14:17:21Z</time>
      </trkpt>
      <trkpt lat="44.09809" lon="3.00408">
        <ele>489.8</ele>
        <time>2021-03-06T14:17:23Z</time>
      </trkpt>
      <trkpt lat="44.09803" lon="3.00407">
        <ele>489.3</ele>
        <time>2021-03-06T14:17:24Z</time>
      </trkpt>
      <trkpt lat="44.0979" lon="3.00405">
        <ele>488.9</ele>
        <time>2021-03-06T14:17:26Z</time>
      </trkpt>
      <trkpt lat="44.09783" lon="3.00403">
        <ele>489.2</ele>
        <time>2021-03-06T14:17:27Z</time>
      </trkpt>
      <trkpt lat="44.09776" lon="3.00397">
        <ele>489.8</ele>
        <time>2021-03-06T14:17:29Z</time>
      </trkpt>
      <trkpt lat="44.09774" lon="3.00402">
        <ele>490.1</ele>
        <time>2021-03-06T14:17:30Z</time>
      </trkpt>
      <trkpt lat="44.09772" lon="3.00398">
        <ele>490.3</ele>
        <time>2021-03-06T14:17:31Z</time>
      </trkpt>
      <trkpt lat="44.0977" lon="3.00395">
        <ele>490.3</ele>
        <time>2021-03-06T14:17:32Z</time>
      </trkpt>
      <trkpt lat="44.09769" lon="3.00391">
        <ele>490.3</ele>
        <time>2021-03-06T14:17:33Z</time>
      </trkpt>
      <trkpt lat="44.09766" lon="3.00389">
        <ele>490.2</ele>
        <time>2021-03-06T14:17:34Z</time>
      </trkpt>
      <trkpt lat="44.09762" lon="3.00388">
        <ele>490</ele>
        <time>2021-03-06T14:17:36Z</time>
      </trkpt>
      <trkpt lat="44.09758" lon="3.00387">
        <ele>489.7</ele>
        <time>2021-03-06T14:17:37Z</time>
      </trkpt>
      <trkpt lat="44.09751" lon="3.00387">
        <ele>489.2</ele>
        <time>2021-03-06T14:17:38Z</time>
      </trkpt>
      <trkpt lat="44.09746" lon="3.00387">
        <ele>488.9</ele>
        <time>2021-03-06T14:17:40Z</time>
      </trkpt>
      <trkpt lat="44.09741" lon="3.00387">
        <ele>488.6</ele>
        <time>2021-03-06T14:17:41Z</time>
      </trkpt>
      <trkpt lat="44.09734" lon="3.00385">
        <ele>488.1</ele>
        <time>2021-03-06T14:17:42Z</time>
      </trkpt>
      <trkpt lat="44.0973" lon="3.00384">
        <ele>487.8</ele>
        <time>2021-03-06T14:17:44Z</time>
      </trkpt>
      <trkpt lat="44.09726" lon="3.00382">
        <ele>487.5</ele>
        <time>2021-03-06T14:17:45Z</time>
      </trkpt>
      <trkpt lat="44.0972" lon="3.00381">
        <ele>487.1</ele>
        <time>2021-03-06T14:17:46Z</time>
      </trkpt>
      <trkpt lat="44.09709" lon="3.0038">
        <ele>486.6</ele>
        <time>2021-03-06T14:17:48Z</time>
      </trkpt>
      <trkpt lat="44.09704" lon="3.00378">
        <ele>486.4</ele>
        <time>2021-03-06T14:17:49Z</time>
      </trkpt>
      <trkpt lat="44.09697" lon="3.00375">
        <ele>486.1</ele>
        <time>2021-03-06T14:17:51Z</time>
      </trkpt>
      <trkpt lat="44.09693" lon="3.00376">
        <ele>485.9</ele>
        <time>2021-03-06T14:17:52Z</time>
      </trkpt>
      <trkpt lat="44.09688" lon="3.00377">
        <ele>485.7</ele>
        <time>2021-03-06T14:17:54Z</time>
      </trkpt>
      <trkpt lat="44.0968" lon="3.00379">
        <ele>485.6</ele>
        <time>2021-03-06T14:17:55Z</time>
      </trkpt>
      <trkpt lat="44.09675" lon="3.0038">
        <ele>485.6</ele>
        <time>2021-03-06T14:17:56Z</time>
      </trkpt>
      <trkpt lat="44.09667" lon="3.00379">
        <ele>485.7</ele>
        <time>2021-03-06T14:17:58Z</time>
      </trkpt>
      <trkpt lat="44.09662" lon="3.00378">
        <ele>485.7</ele>
        <time>2021-03-06T14:17:59Z</time>
      </trkpt>
      <trkpt lat="44.09658" lon="3.00379">
        <ele>485.7</ele>
        <time>2021-03-06T14:18:01Z</time>
      </trkpt>
      <trkpt lat="44.09653" lon="3.00377">
        <ele>485.6</ele>
        <time>2021-03-06T14:18:02Z</time>
      </trkpt>
      <trkpt lat="44.09647" lon="3.00376">
        <ele>485.3</ele>
        <time>2021-03-06T14:18:03Z</time>
      </trkpt>
      <trkpt lat="44.09639" lon="3.00376">
        <ele>484.9</ele>
        <time>2021-03-06T14:18:05Z</time>
      </trkpt>
      <trkpt lat="44.09632" lon="3.00374">
        <ele>484.5</ele>
        <time>2021-03-06T14:18:06Z</time>
      </trkpt>
      <trkpt lat="44.0962" lon="3.00372">
        <ele>484.1</ele>
        <time>2021-03-06T14:18:08Z</time>
      </trkpt>
      <trkpt lat="44.09612" lon="3.00369">
        <ele>483.9</ele>
        <time>2021-03-06T14:18:10Z</time>
      </trkpt>
      <trkpt lat="44.09606" lon="3.00365">
        <ele>483.7</ele>
        <time>2021-03-06T14:18:11Z</time>
      </trkpt>
      <trkpt lat="44.09597" lon="3.00358">
        <ele>483.3</ele>
        <time>2021-03-06T14:18:13Z</time>
      </trkpt>
      <trkpt lat="44.09593" lon="3.00354">
        <ele>483.2</ele>
        <time>2021-03-06T14:18:14Z</time>
      </trkpt>
      <trkpt lat="44.09586" lon="3.00346">
        <ele>483.1</ele>
        <time>2021-03-06T14:18:16Z</time>
      </trkpt>
      <trkpt lat="44.09583" lon="3.00341">
        <ele>483</ele>
        <time>2021-03-06T14:18:17Z</time>
      </trkpt>
      <trkpt lat="44.09579" lon="3.00337">
        <ele>483</ele>
        <time>2021-03-06T14:18:18Z</time>
      </trkpt>
      <trkpt lat="44.09572" lon="3.0033">
        <ele>483</ele>
        <time>2021-03-06T14:18:20Z</time>
      </trkpt>
      <trkpt lat="44.09565" lon="3.00324">
        <ele>483</ele>
        <time>2021-03-06T14:18:22Z</time>
      </trkpt>
      <trkpt lat="44.09562" lon="3.00319">
        <ele>483</ele>
        <time>2021-03-06T14:18:23Z</time>
      </trkpt>
      <trkpt lat="44.09557" lon="3.00311">
        <ele>482.8</ele>
        <time>2021-03-06T14:18:25Z</time>
      </trkpt>
      <trkpt lat="44.09555" lon="3.00306">
        <ele>482.6</ele>
        <time>2021-03-06T14:18:26Z</time>
      </trkpt>
      <trkpt lat="44.09552" lon="3.003">
        <ele>482.2</ele>
        <time>2021-03-06T14:18:28Z</time>
      </trkpt>
      <trkpt lat="44.09549" lon="3.00297">
        <ele>481.9</ele>
        <time>2021-03-06T14:18:29Z</time>
      </trkpt>
      <trkpt lat="44.09547" lon="3.00291">
        <ele>481.4</ele>
        <time>2021-03-06T14:18:30Z</time>
      </trkpt>
      <trkpt lat="44.09541" lon="3.0028">
        <ele>480.5</ele>
        <time>2021-03-06T14:18:32Z</time>
      </trkpt>
      <trkpt lat="44.09537" lon="3.00276">
        <ele>480</ele>
        <time>2021-03-06T14:18:33Z</time>
      </trkpt>
      <trkpt lat="44.09534" lon="3.00274">
        <ele>479.8</ele>
        <time>2021-03-06T14:18:34Z</time>
      </trkpt>
      <trkpt lat="44.09524" lon="3.00266">
        <ele>479.1</ele>
        <time>2021-03-06T14:18:36Z</time>
      </trkpt>
      <trkpt lat="44.09519" lon="3.00261">
        <ele>478.9</ele>
        <time>2021-03-06T14:18:37Z</time>
      </trkpt>
      <trkpt lat="44.09515" lon="3.00257">
        <ele>478.8</ele>
        <time>2021-03-06T14:18:38Z</time>
      </trkpt>
      <trkpt lat="44.09509" lon="3.00249">
        <ele>478.9</ele>
        <time>2021-03-06T14:18:40Z</time>
      </trkpt>
      <trkpt lat="44.09505" lon="3.00244">
        <ele>479</ele>
        <time>2021-03-06T14:18:41Z</time>
      </trkpt>
      <trkpt lat="44.09501" lon="3.00239">
        <ele>478.9</ele>
        <time>2021-03-06T14:18:43Z</time>
      </trkpt>
      <trkpt lat="44.095" lon="3.00238">
        <ele>478.8</ele>
        <time>2021-03-06T14:18:44Z</time>
      </trkpt>
      <trkpt lat="44.09498" lon="3.00236">
        <ele>478.7</ele>
        <time>2021-03-06T14:18:45Z</time>
      </trkpt>
      <trkpt lat="44.09495" lon="3.00232">
        <ele>478.5</ele>
        <time>2021-03-06T14:18:46Z</time>
      </trkpt>
      <trkpt lat="44.09492" lon="3.00228">
        <ele>478.1</ele>
        <time>2021-03-06T14:18:48Z</time>
      </trkpt>
      <trkpt lat="44.09489" lon="3.00221">
        <ele>477.5</ele>
        <time>2021-03-06T14:18:49Z</time>
      </trkpt>
      <trkpt lat="44.09489" lon="3.00215">
        <ele>477.1</ele>
        <time>2021-03-06T14:18:50Z</time>
      </trkpt>
      <trkpt lat="44.09489" lon="3.0021">
        <ele>476.7</ele>
        <time>2021-03-06T14:18:52Z</time>
      </trkpt>
      <trkpt lat="44.09487" lon="3.00204">
        <ele>476.2</ele>
        <time>2021-03-06T14:18:54Z</time>
      </trkpt>
      <trkpt lat="44.09485" lon="3.00196">
        <ele>475.6</ele>
        <time>2021-03-06T14:18:56Z</time>
      </trkpt>
      <trkpt lat="44.09484" lon="3.00191">
        <ele>475.1</ele>
        <time>2021-03-06T14:18:57Z</time>
      </trkpt>
      <trkpt lat="44.09483" lon="3.00177">
        <ele>473.9</ele>
        <time>2021-03-06T14:18:59Z</time>
      </trkpt>
      <trkpt lat="44.09482" lon="3.00169">
        <ele>473</ele>
        <time>2021-03-06T14:19:00Z</time>
      </trkpt>
      <trkpt lat="44.09479" lon="3.00151">
        <ele>470.4</ele>
        <time>2021-03-06T14:19:02Z</time>
      </trkpt>
      <trkpt lat="44.09474" lon="3.00134">
        <ele>467.8</ele>
        <time>2021-03-06T14:19:04Z</time>
      </trkpt>
      <trkpt lat="44.09475" lon="3.00126">
        <ele>466.7</ele>
        <time>2021-03-06T14:19:05Z</time>
      </trkpt>
      <trkpt lat="44.09475" lon="3.00118">
        <ele>465.5</ele>
        <time>2021-03-06T14:19:06Z</time>
      </trkpt>
      <trkpt lat="44.09475" lon="3.00098">
        <ele>462.8</ele>
        <time>2021-03-06T14:19:08Z</time>
      </trkpt>
      <trkpt lat="44.09479" lon="3.00076">
        <ele>460</ele>
        <time>2021-03-06T14:19:10Z</time>
      </trkpt>
      <trkpt lat="44.0948" lon="3.00065">
        <ele>459</ele>
        <time>2021-03-06T14:19:11Z</time>
      </trkpt>
      <trkpt lat="44.09478" lon="3.00047">
        <ele>457.5</ele>
        <time>2021-03-06T14:19:13Z</time>
      </trkpt>
      <trkpt lat="44.09476" lon="3.00038">
        <ele>456.7</ele>
        <time>2021-03-06T14:19:14Z</time>
      </trkpt>
      <trkpt lat="44.09473" lon="3.00031">
        <ele>456</ele>
        <time>2021-03-06T14:19:15Z</time>
      </trkpt>
      <trkpt lat="44.09469" lon="3.00024">
        <ele>455.2</ele>
        <time>2021-03-06T14:19:16Z</time>
      </trkpt>
      <trkpt lat="44.09463" lon="3.00016">
        <ele>454.2</ele>
        <time>2021-03-06T14:19:17Z</time>
      </trkpt>
      <trkpt lat="44.09454" lon="2.99998">
        <ele>452.1</ele>
        <time>2021-03-06T14:19:19Z</time>
      </trkpt>
      <trkpt lat="44.09445" lon="2.99978">
        <ele>450</ele>
        <time>2021-03-06T14:19:21Z</time>
      </trkpt>
      <trkpt lat="44.09441" lon="2.99969">
        <ele>448.9</ele>
        <time>2021-03-06T14:19:22Z</time>
      </trkpt>
      <trkpt lat="44.09438" lon="2.99959">
        <ele>447.7</ele>
        <time>2021-03-06T14:19:23Z</time>
      </trkpt>
      <trkpt lat="44.0943" lon="2.99941">
        <ele>445.1</ele>
        <time>2021-03-06T14:19:25Z</time>
      </trkpt>
      <trkpt lat="44.09423" lon="2.99928">
        <ele>442.2</ele>
        <time>2021-03-06T14:19:27Z</time>
      </trkpt>
      <trkpt lat="44.09418" lon="2.99922">
        <ele>441.1</ele>
        <time>2021-03-06T14:19:28Z</time>
      </trkpt>
      <trkpt lat="44.09414" lon="2.99917">
        <ele>440.4</ele>
        <time>2021-03-06T14:19:29Z</time>
      </trkpt>
      <trkpt lat="44.09406" lon="2.99909">
        <ele>439.1</ele>
        <time>2021-03-06T14:19:31Z</time>
      </trkpt>
      <trkpt lat="44.09394" lon="2.99908">
        <ele>436.6</ele>
        <time>2021-03-06T14:19:33Z</time>
      </trkpt>
      <trkpt lat="44.09381" lon="2.99903">
        <ele>433.7</ele>
        <time>2021-03-06T14:19:35Z</time>
      </trkpt>
      <trkpt lat="44.09374" lon="2.99898">
        <ele>432.5</ele>
        <time>2021-03-06T14:19:36Z</time>
      </trkpt>
      <trkpt lat="44.09368" lon="2.9989">
        <ele>431.1</ele>
        <time>2021-03-06T14:19:37Z</time>
      </trkpt>
      <trkpt lat="44.09356" lon="2.99873">
        <ele>428.7</ele>
        <time>2021-03-06T14:19:39Z</time>
      </trkpt>
      <trkpt lat="44.09352" lon="2.99861">
        <ele>427.5</ele>
        <time>2021-03-06T14:19:40Z</time>
      </trkpt>
      <trkpt lat="44.0935" lon="2.99848">
        <ele>426.5</ele>
        <time>2021-03-06T14:19:41Z</time>
      </trkpt>
      <trkpt lat="44.09343" lon="2.99823">
        <ele>424.3</ele>
        <time>2021-03-06T14:19:43Z</time>
      </trkpt>
      <trkpt lat="44.0934" lon="2.99811">
        <ele>423.5</ele>
        <time>2021-03-06T14:19:44Z</time>
      </trkpt>
      <trkpt lat="44.09336" lon="2.99799">
        <ele>423.5</ele>
        <time>2021-03-06T14:19:45Z</time>
      </trkpt>
      <trkpt lat="44.09333" lon="2.99789">
        <ele>423.5</ele>
        <time>2021-03-06T14:19:46Z</time>
      </trkpt>
      <trkpt lat="44.09331" lon="2.99776">
        <ele>423.7</ele>
        <time>2021-03-06T14:19:48Z</time>
      </trkpt>
      <trkpt lat="44.0933" lon="2.99776">
        <ele>423.6</ele>
        <time>2021-03-06T14:19:49Z</time>
      </trkpt>
      <trkpt lat="44.09331" lon="2.99776">
        <ele>423.6</ele>
        <time>2021-03-06T14:19:51Z</time>
      </trkpt>
      <trkpt lat="44.09332" lon="2.99776">
        <ele>423.6</ele>
        <time>2021-03-06T14:19:52Z</time>
      </trkpt>
      <trkpt lat="44.09331" lon="2.99777">
        <ele>423.6</ele>
        <time>2021-03-06T14:19:53Z</time>
      </trkpt>
      <trkpt lat="44.09331" lon="2.99777">
        <ele>423.6</ele>
        <time>2021-03-06T14:19:54Z</time>
      </trkpt>
      <trkpt lat="44.09331" lon="2.99777">
        <ele>423.6</ele>
        <time>2021-03-06T14:19:55Z</time>
      </trkpt>
      <trkpt lat="44.09331" lon="2.99777">
        <ele>423.6</ele>
        <time>2021-03-06T14:19:57Z</time>
      </trkpt>
      <trkpt lat="44.09331" lon="2.99777">
        <ele>423.6</ele>
        <time>2021-03-06T14:19:58Z</time>
      </trkpt>
      <trkpt lat="44.09331" lon="2.99777">
        <ele>423.6</ele>
        <time>2021-03-06T14:20:00Z</time>
      </trkpt>
      <trkpt lat="44.09331" lon="2.99777">
        <ele>423.6</ele>
        <time>2021-03-06T14:20:01Z</time>
      </trkpt>
      <trkpt lat="44.09331" lon="2.99777">
        <ele>423.6</ele>
        <time>2021-03-06T14:20:03Z</time>
      </trkpt>
      <trkpt lat="44.09331" lon="2.99777">
        <ele>423.6</ele>
        <time>2021-03-06T14:20:04Z</time>
      </trkpt>
      <trkpt lat="44.09331" lon="2.99777">
        <ele>423.6</ele>
        <time>2021-03-06T14:20:06Z</time>
      </trkpt>
      <trkpt lat="44.09331" lon="2.99782">
        <ele>423.5</ele>
        <time>2021-03-06T14:20:58Z</time>
      </trkpt>
      <trkpt lat="44.09333" lon="2.99786">
        <ele>423.5</ele>
        <time>2021-03-06T14:20:59Z</time>
      </trkpt>
      <trkpt lat="44.09334" lon="2.99791">
        <ele>423.5</ele>
        <time>2021-03-06T14:21:01Z</time>
      </trkpt>
      <trkpt lat="44.09335" lon="2.99795">
        <ele>423.5</ele>
        <time>2021-03-06T14:21:02Z</time>
      </trkpt>
      <trkpt lat="44.09337" lon="2.99803">
        <ele>423.5</ele>
        <time>2021-03-06T14:21:04Z</time>
      </trkpt>
      <trkpt lat="44.09338" lon="2.99807">
        <ele>423.5</ele>
        <time>2021-03-06T14:21:05Z</time>
      </trkpt>
      <trkpt lat="44.09339" lon="2.99811">
        <ele>423.5</ele>
        <time>2021-03-06T14:21:07Z</time>
      </trkpt>
      <trkpt lat="44.09336" lon="2.99817">
        <ele>423.5</ele>
        <time>2021-03-06T14:21:09Z</time>
      </trkpt>
      <trkpt lat="44.09334" lon="2.99822">
        <ele>423.3</ele>
        <time>2021-03-06T14:21:10Z</time>
      </trkpt>
      <trkpt lat="44.09331" lon="2.9983">
        <ele>423.2</ele>
        <time>2021-03-06T14:21:12Z</time>
      </trkpt>
      <trkpt lat="44.09329" lon="2.99836">
        <ele>423.1</ele>
        <time>2021-03-06T14:21:13Z</time>
      </trkpt>
      <trkpt lat="44.09326" lon="2.99844">
        <ele>422.9</ele>
        <time>2021-03-06T14:21:14Z</time>
      </trkpt>
      <trkpt lat="44.09321" lon="2.99859">
        <ele>421.7</ele>
        <time>2021-03-06T14:21:16Z</time>
      </trkpt>
      <trkpt lat="44.09319" lon="2.99866">
        <ele>421</ele>
        <time>2021-03-06T14:21:17Z</time>
      </trkpt>
      <trkpt lat="44.09319" lon="2.99871">
        <ele>420.5</ele>
        <time>2021-03-06T14:21:18Z</time>
      </trkpt>
      <trkpt lat="44.09318" lon="2.99877">
        <ele>419.9</ele>
        <time>2021-03-06T14:21:19Z</time>
      </trkpt>
      <trkpt lat="44.0931" lon="2.99889">
        <ele>418.1</ele>
        <time>2021-03-06T14:21:21Z</time>
      </trkpt>
      <trkpt lat="44.09301" lon="2.99894">
        <ele>416.6</ele>
        <time>2021-03-06T14:21:23Z</time>
      </trkpt>
      <trkpt lat="44.09298" lon="2.99894">
        <ele>416.1</ele>
        <time>2021-03-06T14:21:24Z</time>
      </trkpt>
      <trkpt lat="44.09302" lon="2.99904">
        <ele>414.5</ele>
        <time>2021-03-06T14:21:26Z</time>
      </trkpt>
      <trkpt lat="44.09303" lon="2.99912">
        <ele>413.3</ele>
        <time>2021-03-06T14:21:27Z</time>
      </trkpt>
      <trkpt lat="44.09308" lon="2.9993">
        <ele>410.5</ele>
        <time>2021-03-06T14:21:29Z</time>
      </trkpt>
      <trkpt lat="44.09312" lon="2.99948">
        <ele>408.1</ele>
        <time>2021-03-06T14:21:31Z</time>
      </trkpt>
      <trkpt lat="44.09313" lon="2.99968">
        <ele>405.7</ele>
        <time>2021-03-06T14:21:33Z</time>
      </trkpt>
      <trkpt lat="44.09314" lon="2.9999">
        <ele>403.4</ele>
        <time>2021-03-06T14:21:35Z</time>
      </trkpt>
      <trkpt lat="44.0932" lon="3.00011">
        <ele>402.8</ele>
        <time>2021-03-06T14:21:37Z</time>
      </trkpt>
      <trkpt lat="44.09323" lon="3.00028">
        <ele>403</ele>
        <time>2021-03-06T14:21:39Z</time>
      </trkpt>
      <trkpt lat="44.09321" lon="3.00043">
        <ele>402.2</ele>
        <time>2021-03-06T14:21:41Z</time>
      </trkpt>
      <trkpt lat="44.09318" lon="3.00051">
        <ele>401.7</ele>
        <time>2021-03-06T14:21:42Z</time>
      </trkpt>
      <trkpt lat="44.09311" lon="3.00065">
        <ele>400</ele>
        <time>2021-03-06T14:21:44Z</time>
      </trkpt>
      <trkpt lat="44.09306" lon="3.00063">
        <ele>399.3</ele>
        <time>2021-03-06T14:21:46Z</time>
      </trkpt>
      <trkpt lat="44.09303" lon="3.00064">
        <ele>398.7</ele>
        <time>2021-03-06T14:21:47Z</time>
      </trkpt>
      <trkpt lat="44.09298" lon="3.00068">
        <ele>397.9</ele>
        <time>2021-03-06T14:21:48Z</time>
      </trkpt>
      <trkpt lat="44.09292" lon="3.00074">
        <ele>396.9</ele>
        <time>2021-03-06T14:21:49Z</time>
      </trkpt>
      <trkpt lat="44.09285" lon="3.00081">
        <ele>395.5</ele>
        <time>2021-03-06T14:21:51Z</time>
      </trkpt>
      <trkpt lat="44.09284" lon="3.00077">
        <ele>395.1</ele>
        <time>2021-03-06T14:21:52Z</time>
      </trkpt>
      <trkpt lat="44.09285" lon="3.00077">
        <ele>395</ele>
        <time>2021-03-06T14:21:54Z</time>
      </trkpt>
      <trkpt lat="44.09286" lon="3.00079">
        <ele>394.8</ele>
        <time>2021-03-06T14:21:55Z</time>
      </trkpt>
      <trkpt lat="44.09286" lon="3.00079">
        <ele>394.7</ele>
        <time>2021-03-06T14:21:57Z</time>
      </trkpt>
      <trkpt lat="44.09286" lon="3.00079">
        <ele>394.7</ele>
        <time>2021-03-06T14:21:58Z</time>
      </trkpt>
      <trkpt lat="44.09285" lon="3.00082">
        <ele>394.4</ele>
        <time>2021-03-06T14:22:00Z</time>
      </trkpt>
      <trkpt lat="44.09284" lon="3.00084">
        <ele>394.1</ele>
        <time>2021-03-06T14:22:01Z</time>
      </trkpt>
      <trkpt lat="44.09282" lon="3.00086">
        <ele>393.8</ele>
        <time>2021-03-06T14:22:02Z</time>
      </trkpt>
      <trkpt lat="44.09281" lon="3.00088">
        <ele>393.5</ele>
        <time>2021-03-06T14:22:58Z</time>
      </trkpt>
      <trkpt lat="44.09279" lon="3.0009">
        <ele>393.2</ele>
        <time>2021-03-06T14:23:00Z</time>
      </trkpt>
      <trkpt lat="44.09278" lon="3.00093">
        <ele>392.9</ele>
        <time>2021-03-06T14:23:01Z</time>
      </trkpt>
      <trkpt lat="44.09273" lon="3.00099">
        <ele>392.1</ele>
        <time>2021-03-06T14:23:02Z</time>
      </trkpt>
      <trkpt lat="44.09263" lon="3.00112">
        <ele>390.3</ele>
        <time>2021-03-06T14:23:04Z</time>
      </trkpt>
      <trkpt lat="44.09258" lon="3.0012">
        <ele>389.3</ele>
        <time>2021-03-06T14:23:05Z</time>
      </trkpt>
      <trkpt lat="44.09254" lon="3.0013">
        <ele>388.2</ele>
        <time>2021-03-06T14:23:06Z</time>
      </trkpt>
      <trkpt lat="44.09248" lon="3.00151">
        <ele>386.4</ele>
        <time>2021-03-06T14:23:08Z</time>
      </trkpt>
      <trkpt lat="44.09238" lon="3.00171">
        <ele>384.6</ele>
        <time>2021-03-06T14:23:10Z</time>
      </trkpt>
      <trkpt lat="44.09232" lon="3.00182">
        <ele>383.4</ele>
        <time>2021-03-06T14:23:11Z</time>
      </trkpt>
      <trkpt lat="44.0922" lon="3.00204">
        <ele>381</ele>
        <time>2021-03-06T14:23:13Z</time>
      </trkpt>
      <trkpt lat="44.09215" lon="3.00216">
        <ele>380</ele>
        <time>2021-03-06T14:23:14Z</time>
      </trkpt>
      <trkpt lat="44.09203" lon="3.00238">
        <ele>378.1</ele>
        <time>2021-03-06T14:23:16Z</time>
      </trkpt>
      <trkpt lat="44.09198" lon="3.0025">
        <ele>377.1</ele>
        <time>2021-03-06T14:23:17Z</time>
      </trkpt>
      <trkpt lat="44.09193" lon="3.00276">
        <ele>374.9</ele>
        <time>2021-03-06T14:23:19Z</time>
      </trkpt>
      <trkpt lat="44.09191" lon="3.00287">
        <ele>373.8</ele>
        <time>2021-03-06T14:23:20Z</time>
      </trkpt>
      <trkpt lat="44.09188" lon="3.00296">
        <ele>372.7</ele>
        <time>2021-03-06T14:23:21Z</time>
      </trkpt>
      <trkpt lat="44.09186" lon="3.00304">
        <ele>371.7</ele>
        <time>2021-03-06T14:23:22Z</time>
      </trkpt>
      <trkpt lat="44.09187" lon="3.00313">
        <ele>370.5</ele>
        <time>2021-03-06T14:23:24Z</time>
      </trkpt>
      <trkpt lat="44.09187" lon="3.00315">
        <ele>370.2</ele>
        <time>2021-03-06T14:23:25Z</time>
      </trkpt>
      <trkpt lat="44.09182" lon="3.00314">
        <ele>369</ele>
        <time>2021-03-06T14:23:27Z</time>
      </trkpt>
      <trkpt lat="44.09178" lon="3.00312">
        <ele>367.8</ele>
        <time>2021-03-06T14:23:28Z</time>
      </trkpt>
      <trkpt lat="44.09178" lon="3.00315">
        <ele>367.3</ele>
        <time>2021-03-06T14:23:30Z</time>
      </trkpt>
      <trkpt lat="44.09178" lon="3.00315">
        <ele>367.2</ele>
        <time>2021-03-06T14:23:31Z</time>
      </trkpt>
      <trkpt lat="44.0918" lon="3.00321">
        <ele>365.9</ele>
        <time>2021-03-06T14:23:33Z</time>
      </trkpt>
      <trkpt lat="44.09182" lon="3.00329">
        <ele>364.3</ele>
        <time>2021-03-06T14:23:35Z</time>
      </trkpt>
      <trkpt lat="44.0918" lon="3.00329">
        <ele>363.7</ele>
        <time>2021-03-06T14:23:36Z</time>
      </trkpt>
      <trkpt lat="44.09178" lon="3.00328">
        <ele>363.2</ele>
        <time>2021-03-06T14:23:37Z</time>
      </trkpt>
      <trkpt lat="44.09173" lon="3.00326">
        <ele>362.1</ele>
        <time>2021-03-06T14:23:38Z</time>
      </trkpt>
      <trkpt lat="44.09167" lon="3.00326">
        <ele>360.8</ele>
        <time>2021-03-06T14:23:40Z</time>
      </trkpt>
      <trkpt lat="44.09164" lon="3.00327">
        <ele>360</ele>
        <time>2021-03-06T14:23:41Z</time>
      </trkpt>
      <trkpt lat="44.09164" lon="3.00332">
        <ele>360</ele>
        <time>2021-03-06T14:23:42Z</time>
      </trkpt>
      <trkpt lat="44.09165" lon="3.00335">
        <ele>359.9</ele>
        <time>2021-03-06T14:23:43Z</time>
      </trkpt>
      <trkpt lat="44.09172" lon="3.00345">
        <ele>359.5</ele>
        <time>2021-03-06T14:23:45Z</time>
      </trkpt>
      <trkpt lat="44.0918" lon="3.00361">
        <ele>358.6</ele>
        <time>2021-03-06T14:23:47Z</time>
      </trkpt>
      <trkpt lat="44.09186" lon="3.00374">
        <ele>358.3</ele>
        <time>2021-03-06T14:23:49Z</time>
      </trkpt>
      <trkpt lat="44.09189" lon="3.0038">
        <ele>358.4</ele>
        <time>2021-03-06T14:23:50Z</time>
      </trkpt>
      <trkpt lat="44.09192" lon="3.00379">
        <ele>358.4</ele>
        <time>2021-03-06T14:23:51Z</time>
      </trkpt>
      <trkpt lat="44.09195" lon="3.0038">
        <ele>358.5</ele>
        <time>2021-03-06T14:23:52Z</time>
      </trkpt>
      <trkpt lat="44.09199" lon="3.00384">
        <ele>358.7</ele>
        <time>2021-03-06T14:23:54Z</time>
      </trkpt>
      <trkpt lat="44.09203" lon="3.0039">
        <ele>358.9</ele>
        <time>2021-03-06T14:23:56Z</time>
      </trkpt>
      <trkpt lat="44.09206" lon="3.00392">
        <ele>359</ele>
        <time>2021-03-06T14:23:57Z</time>
      </trkpt>
      <trkpt lat="44.09209" lon="3.00395">
        <ele>359.2</ele>
        <time>2021-03-06T14:23:58Z</time>
      </trkpt>
      <trkpt lat="44.09211" lon="3.00399">
        <ele>359.4</ele>
        <time>2021-03-06T14:23:59Z</time>
      </trkpt>
      <trkpt lat="44.09213" lon="3.00402">
        <ele>359.7</ele>
        <time>2021-03-06T14:24:01Z</time>
      </trkpt>
      <trkpt lat="44.09216" lon="3.00406">
        <ele>360</ele>
        <time>2021-03-06T14:24:02Z</time>
      </trkpt>
      <trkpt lat="44.09218" lon="3.0041">
        <ele>360.3</ele>
        <time>2021-03-06T14:24:04Z</time>
      </trkpt>
      <trkpt lat="44.0922" lon="3.00413">
        <ele>360.6</ele>
        <time>2021-03-06T14:24:05Z</time>
      </trkpt>
      <trkpt lat="44.09222" lon="3.00416">
        <ele>361</ele>
        <time>2021-03-06T14:24:07Z</time>
      </trkpt>
      <trkpt lat="44.09223" lon="3.00417">
        <ele>361.1</ele>
        <time>2021-03-06T14:24:08Z</time>
      </trkpt>
      <trkpt lat="44.09224" lon="3.00418">
        <ele>361.3</ele>
        <time>2021-03-06T14:24:09Z</time>
      </trkpt>
      <trkpt lat="44.09225" lon="3.00419">
        <ele>361.4</ele>
        <time>2021-03-06T14:24:10Z</time>
      </trkpt>
      <trkpt lat="44.09226" lon="3.00421">
        <ele>361.7</ele>
        <time>2021-03-06T14:24:11Z</time>
      </trkpt>
      <trkpt lat="44.09228" lon="3.00423">
        <ele>362</ele>
        <time>2021-03-06T14:24:12Z</time>
      </trkpt>
      <trkpt lat="44.09229" lon="3.00425">
        <ele>362.3</ele>
        <time>2021-03-06T14:24:14Z</time>
      </trkpt>
      <trkpt lat="44.0923" lon="3.00426">
        <ele>362.5</ele>
        <time>2021-03-06T14:24:15Z</time>
      </trkpt>
      <trkpt lat="44.09233" lon="3.0043">
        <ele>363.1</ele>
        <time>2021-03-06T14:24:16Z</time>
      </trkpt>
      <trkpt lat="44.09233" lon="3.00431">
        <ele>363.3</ele>
        <time>2021-03-06T14:24:17Z</time>
      </trkpt>
      <trkpt lat="44.09234" lon="3.00433">
        <ele>363.6</ele>
        <time>2021-03-06T14:24:18Z</time>
      </trkpt>
      <trkpt lat="44.09236" lon="3.00436">
        <ele>364</ele>
        <time>2021-03-06T14:24:20Z</time>
      </trkpt>
      <trkpt lat="44.09238" lon="3.00437">
        <ele>364.3</ele>
        <time>2021-03-06T14:24:21Z</time>
      </trkpt>
      <trkpt lat="44.09239" lon="3.0044">
        <ele>364.6</ele>
        <time>2021-03-06T14:24:23Z</time>
      </trkpt>
      <trkpt lat="44.0924" lon="3.00441">
        <ele>364.8</ele>
        <time>2021-03-06T14:24:24Z</time>
      </trkpt>
      <trkpt lat="44.09242" lon="3.00443">
        <ele>365.1</ele>
        <time>2021-03-06T14:24:25Z</time>
      </trkpt>
      <trkpt lat="44.09245" lon="3.00445">
        <ele>365.5</ele>
        <time>2021-03-06T14:24:26Z</time>
      </trkpt>
      <trkpt lat="44.09246" lon="3.00445">
        <ele>365.6</ele>
        <time>2021-03-06T14:24:27Z</time>
      </trkpt>
      <trkpt lat="44.09248" lon="3.00446">
        <ele>365.8</ele>
        <time>2021-03-06T14:24:28Z</time>
      </trkpt>
      <trkpt lat="44.0925" lon="3.00447">
        <ele>366</ele>
        <time>2021-03-06T14:24:30Z</time>
      </trkpt>
      <trkpt lat="44.09253" lon="3.0045">
        <ele>366.3</ele>
        <time>2021-03-06T14:24:31Z</time>
      </trkpt>
      <trkpt lat="44.09255" lon="3.00451">
        <ele>366.5</ele>
        <time>2021-03-06T14:24:32Z</time>
      </trkpt>
      <trkpt lat="44.09257" lon="3.00453">
        <ele>366.7</ele>
        <time>2021-03-06T14:24:33Z</time>
      </trkpt>
      <trkpt lat="44.09261" lon="3.00455">
        <ele>366.9</ele>
        <time>2021-03-06T14:24:35Z</time>
      </trkpt>
      <trkpt lat="44.09262" lon="3.00456">
        <ele>367</ele>
        <time>2021-03-06T14:24:36Z</time>
      </trkpt>
      <trkpt lat="44.09265" lon="3.00457">
        <ele>367.2</ele>
        <time>2021-03-06T14:24:37Z</time>
      </trkpt>
      <trkpt lat="44.09267" lon="3.00458">
        <ele>367.4</ele>
        <time>2021-03-06T14:24:38Z</time>
      </trkpt>
      <trkpt lat="44.0927" lon="3.00459">
        <ele>367.5</ele>
        <time>2021-03-06T14:24:40Z</time>
      </trkpt>
      <trkpt lat="44.09273" lon="3.00462">
        <ele>367.8</ele>
        <time>2021-03-06T14:24:41Z</time>
      </trkpt>
      <trkpt lat="44.09275" lon="3.00463">
        <ele>367.9</ele>
        <time>2021-03-06T14:24:42Z</time>
      </trkpt>
      <trkpt lat="44.09277" lon="3.00464">
        <ele>368</ele>
        <time>2021-03-06T14:24:43Z</time>
      </trkpt>
      <trkpt lat="44.09279" lon="3.00465">
        <ele>368.1</ele>
        <time>2021-03-06T14:24:45Z</time>
      </trkpt>
      <trkpt lat="44.09281" lon="3.00466">
        <ele>368.3</ele>
        <time>2021-03-06T14:24:46Z</time>
      </trkpt>
      <trkpt lat="44.09285" lon="3.00468">
        <ele>368.4</ele>
        <time>2021-03-06T14:24:48Z</time>
      </trkpt>
      <trkpt lat="44.09289" lon="3.00469">
        <ele>368.6</ele>
        <time>2021-03-06T14:24:49Z</time>
      </trkpt>
      <trkpt lat="44.09293" lon="3.0047">
        <ele>368.8</ele>
        <time>2021-03-06T14:24:51Z</time>
      </trkpt>
      <trkpt lat="44.09296" lon="3.00471">
        <ele>368.9</ele>
        <time>2021-03-06T14:24:52Z</time>
      </trkpt>
      <trkpt lat="44.09298" lon="3.00471">
        <ele>369</ele>
        <time>2021-03-06T14:24:53Z</time>
      </trkpt>
      <trkpt lat="44.09303" lon="3.00472">
        <ele>369.1</ele>
        <time>2021-03-06T14:24:54Z</time>
      </trkpt>
      <trkpt lat="44.09308" lon="3.00473">
        <ele>369.2</ele>
        <time>2021-03-06T14:24:56Z</time>
      </trkpt>
      <trkpt lat="44.09311" lon="3.00474">
        <ele>369.3</ele>
        <time>2021-03-06T14:24:58Z</time>
      </trkpt>
      <trkpt lat="44.09315" lon="3.00476">
        <ele>369.4</ele>
        <time>2021-03-06T14:24:59Z</time>
      </trkpt>
      <trkpt lat="44.09315" lon="3.00477">
        <ele>369.5</ele>
        <time>2021-03-06T14:25:00Z</time>
      </trkpt>
      <trkpt lat="44.09319" lon="3.0048">
        <ele>369.6</ele>
        <time>2021-03-06T14:25:01Z</time>
      </trkpt>
      <trkpt lat="44.0932" lon="3.00481">
        <ele>369.7</ele>
        <time>2021-03-06T14:25:02Z</time>
      </trkpt>
      <trkpt lat="44.09323" lon="3.00483">
        <ele>369.8</ele>
        <time>2021-03-06T14:25:03Z</time>
      </trkpt>
      <trkpt lat="44.09327" lon="3.00485">
        <ele>370.1</ele>
        <time>2021-03-06T14:25:05Z</time>
      </trkpt>
      <trkpt lat="44.09329" lon="3.00486">
        <ele>370.2</ele>
        <time>2021-03-06T14:25:06Z</time>
      </trkpt>
      <trkpt lat="44.0933" lon="3.00487">
        <ele>370.3</ele>
        <time>2021-03-06T14:25:07Z</time>
      </trkpt>
      <trkpt lat="44.09332" lon="3.00488">
        <ele>370.4</ele>
        <time>2021-03-06T14:25:08Z</time>
      </trkpt>
      <trkpt lat="44.09335" lon="3.00489">
        <ele>370.6</ele>
        <time>2021-03-06T14:25:10Z</time>
      </trkpt>
      <trkpt lat="44.09338" lon="3.0049">
        <ele>370.8</ele>
        <time>2021-03-06T14:25:11Z</time>
      </trkpt>
      <trkpt lat="44.09341" lon="3.00492">
        <ele>371</ele>
        <time>2021-03-06T14:25:13Z</time>
      </trkpt>
      <trkpt lat="44.09343" lon="3.00493">
        <ele>371.1</ele>
        <time>2021-03-06T14:25:14Z</time>
      </trkpt>
      <trkpt lat="44.09345" lon="3.00494">
        <ele>371.2</ele>
        <time>2021-03-06T14:25:16Z</time>
      </trkpt>
      <trkpt lat="44.09348" lon="3.00495">
        <ele>371.3</ele>
        <time>2021-03-06T14:25:17Z</time>
      </trkpt>
      <trkpt lat="44.09349" lon="3.00496">
        <ele>371.3</ele>
        <time>2021-03-06T14:25:18Z</time>
      </trkpt>
      <trkpt lat="44.09354" lon="3.00497">
        <ele>371.5</ele>
        <time>2021-03-06T14:25:19Z</time>
      </trkpt>
      <trkpt lat="44.09356" lon="3.00497">
        <ele>371.6</ele>
        <time>2021-03-06T14:25:20Z</time>
      </trkpt>
      <trkpt lat="44.09359" lon="3.00498">
        <ele>371.7</ele>
        <time>2021-03-06T14:25:22Z</time>
      </trkpt>
      <trkpt lat="44.09365" lon="3.00499">
        <ele>371.8</ele>
        <time>2021-03-06T14:25:24Z</time>
      </trkpt>
      <trkpt lat="44.09368" lon="3.005">
        <ele>371.9</ele>
        <time>2021-03-06T14:25:25Z</time>
      </trkpt>
      <trkpt lat="44.09375" lon="3.00502">
        <ele>372</ele>
        <time>2021-03-06T14:25:26Z</time>
      </trkpt>
      <trkpt lat="44.0938" lon="3.00504">
        <ele>372.1</ele>
        <time>2021-03-06T14:25:27Z</time>
      </trkpt>
      <trkpt lat="44.09384" lon="3.00506">
        <ele>372.2</ele>
        <time>2021-03-06T14:25:29Z</time>
      </trkpt>
      <trkpt lat="44.09387" lon="3.00507">
        <ele>372.3</ele>
        <time>2021-03-06T14:25:30Z</time>
      </trkpt>
      <trkpt lat="44.09389" lon="3.00509">
        <ele>372.4</ele>
        <time>2021-03-06T14:25:31Z</time>
      </trkpt>
      <trkpt lat="44.09392" lon="3.00511">
        <ele>372.5</ele>
        <time>2021-03-06T14:25:32Z</time>
      </trkpt>
      <trkpt lat="44.09397" lon="3.00513">
        <ele>372.7</ele>
        <time>2021-03-06T14:25:34Z</time>
      </trkpt>
      <trkpt lat="44.094" lon="3.00513">
        <ele>372.9</ele>
        <time>2021-03-06T14:25:35Z</time>
      </trkpt>
      <trkpt lat="44.09403" lon="3.00513">
        <ele>373</ele>
        <time>2021-03-06T14:25:36Z</time>
      </trkpt>
      <trkpt lat="44.09406" lon="3.00513">
        <ele>373.1</ele>
        <time>2021-03-06T14:25:37Z</time>
      </trkpt>
      <trkpt lat="44.0941" lon="3.00514">
        <ele>373.3</ele>
        <time>2021-03-06T14:25:39Z</time>
      </trkpt>
      <trkpt lat="44.09414" lon="3.00515">
        <ele>373.4</ele>
        <time>2021-03-06T14:25:40Z</time>
      </trkpt>
      <trkpt lat="44.09415" lon="3.00515">
        <ele>373.5</ele>
        <time>2021-03-06T14:25:41Z</time>
      </trkpt>
      <trkpt lat="44.09418" lon="3.00516">
        <ele>373.6</ele>
        <time>2021-03-06T14:25:43Z</time>
      </trkpt>
      <trkpt lat="44.09422" lon="3.00516">
        <ele>373.8</ele>
        <time>2021-03-06T14:25:44Z</time>
      </trkpt>
      <trkpt lat="44.09426" lon="3.00518">
        <ele>374</ele>
        <time>2021-03-06T14:25:45Z</time>
      </trkpt>
      <trkpt lat="44.09429" lon="3.00519">
        <ele>374.1</ele>
        <time>2021-03-06T14:25:47Z</time>
      </trkpt>
      <trkpt lat="44.0943" lon="3.00519">
        <ele>374.2</ele>
        <time>2021-03-06T14:25:48Z</time>
      </trkpt>
      <trkpt lat="44.09433" lon="3.00521">
        <ele>374.4</ele>
        <time>2021-03-06T14:25:49Z</time>
      </trkpt>
      <trkpt lat="44.09435" lon="3.00523">
        <ele>374.5</ele>
        <time>2021-03-06T14:25:50Z</time>
      </trkpt>
      <trkpt lat="44.09438" lon="3.00524">
        <ele>374.7</ele>
        <time>2021-03-06T14:25:52Z</time>
      </trkpt>
      <trkpt lat="44.09439" lon="3.00525">
        <ele>374.7</ele>
        <time>2021-03-06T14:25:53Z</time>
      </trkpt>
      <trkpt lat="44.09442" lon="3.00526">
        <ele>375</ele>
        <time>2021-03-06T14:25:54Z</time>
      </trkpt>
      <trkpt lat="44.09443" lon="3.00526">
        <ele>375</ele>
        <time>2021-03-06T14:25:55Z</time>
      </trkpt>
      <trkpt lat="44.09447" lon="3.00528">
        <ele>375.3</ele>
        <time>2021-03-06T14:25:56Z</time>
      </trkpt>
      <trkpt lat="44.0945" lon="3.00528">
        <ele>375.5</ele>
        <time>2021-03-06T14:25:58Z</time>
      </trkpt>
      <trkpt lat="44.09452" lon="3.00529">
        <ele>375.6</ele>
        <time>2021-03-06T14:25:59Z</time>
      </trkpt>
      <trkpt lat="44.09455" lon="3.00531">
        <ele>375.8</ele>
        <time>2021-03-06T14:26:00Z</time>
      </trkpt>
      <trkpt lat="44.09457" lon="3.00532">
        <ele>376</ele>
        <time>2021-03-06T14:26:01Z</time>
      </trkpt>
      <trkpt lat="44.0946" lon="3.00534">
        <ele>376.2</ele>
        <time>2021-03-06T14:26:03Z</time>
      </trkpt>
      <trkpt lat="44.09463" lon="3.00535">
        <ele>376.3</ele>
        <time>2021-03-06T14:26:04Z</time>
      </trkpt>
      <trkpt lat="44.09466" lon="3.00537">
        <ele>376.5</ele>
        <time>2021-03-06T14:26:05Z</time>
      </trkpt>
      <trkpt lat="44.09469" lon="3.00539">
        <ele>376.8</ele>
        <time>2021-03-06T14:26:06Z</time>
      </trkpt>
      <trkpt lat="44.09472" lon="3.00541">
        <ele>377</ele>
        <time>2021-03-06T14:26:08Z</time>
      </trkpt>
      <trkpt lat="44.09475" lon="3.00544">
        <ele>377.2</ele>
        <time>2021-03-06T14:26:09Z</time>
      </trkpt>
      <trkpt lat="44.09477" lon="3.00547">
        <ele>377.5</ele>
        <time>2021-03-06T14:26:11Z</time>
      </trkpt>
      <trkpt lat="44.09479" lon="3.00549">
        <ele>377.6</ele>
        <time>2021-03-06T14:26:12Z</time>
      </trkpt>
      <trkpt lat="44.09481" lon="3.00552">
        <ele>377.8</ele>
        <time>2021-03-06T14:26:14Z</time>
      </trkpt>
      <trkpt lat="44.09484" lon="3.00554">
        <ele>378.1</ele>
        <time>2021-03-06T14:26:16Z</time>
      </trkpt>
      <trkpt lat="44.09487" lon="3.00557">
        <ele>378.4</ele>
        <time>2021-03-06T14:26:17Z</time>
      </trkpt>
      <trkpt lat="44.09491" lon="3.00559">
        <ele>378.7</ele>
        <time>2021-03-06T14:26:19Z</time>
      </trkpt>
      <trkpt lat="44.09493" lon="3.0056">
        <ele>378.8</ele>
        <time>2021-03-06T14:26:21Z</time>
      </trkpt>
      <trkpt lat="44.09494" lon="3.0056">
        <ele>379</ele>
        <time>2021-03-06T14:26:22Z</time>
      </trkpt>
      <trkpt lat="44.09496" lon="3.00561">
        <ele>379.1</ele>
        <time>2021-03-06T14:26:23Z</time>
      </trkpt>
      <trkpt lat="44.09498" lon="3.00562">
        <ele>379.2</ele>
        <time>2021-03-06T14:26:24Z</time>
      </trkpt>
      <trkpt lat="44.095" lon="3.00562">
        <ele>379.4</ele>
        <time>2021-03-06T14:26:25Z</time>
      </trkpt>
      <trkpt lat="44.09502" lon="3.00564">
        <ele>379.6</ele>
        <time>2021-03-06T14:26:27Z</time>
      </trkpt>
      <trkpt lat="44.09505" lon="3.00566">
        <ele>379.8</ele>
        <time>2021-03-06T14:26:28Z</time>
      </trkpt>
      <trkpt lat="44.09507" lon="3.00569">
        <ele>380.1</ele>
        <time>2021-03-06T14:26:29Z</time>
      </trkpt>
      <trkpt lat="44.09508" lon="3.0057">
        <ele>380.2</ele>
        <time>2021-03-06T14:26:30Z</time>
      </trkpt>
      <trkpt lat="44.0951" lon="3.00573">
        <ele>380.5</ele>
        <time>2021-03-06T14:26:32Z</time>
      </trkpt>
      <trkpt lat="44.09511" lon="3.00574">
        <ele>380.5</ele>
        <time>2021-03-06T14:26:33Z</time>
      </trkpt>
      <trkpt lat="44.09513" lon="3.00576">
        <ele>380.8</ele>
        <time>2021-03-06T14:26:34Z</time>
      </trkpt>
      <trkpt lat="44.09515" lon="3.00579">
        <ele>381.1</ele>
        <time>2021-03-06T14:26:36Z</time>
      </trkpt>
      <trkpt lat="44.09516" lon="3.0058">
        <ele>381.1</ele>
        <time>2021-03-06T14:26:37Z</time>
      </trkpt>
      <trkpt lat="44.09518" lon="3.00583">
        <ele>381.4</ele>
        <time>2021-03-06T14:26:38Z</time>
      </trkpt>
      <trkpt lat="44.0952" lon="3.00584">
        <ele>381.5</ele>
        <time>2021-03-06T14:26:39Z</time>
      </trkpt>
      <trkpt lat="44.09523" lon="3.00588">
        <ele>381.9</ele>
        <time>2021-03-06T14:26:41Z</time>
      </trkpt>
      <trkpt lat="44.09524" lon="3.0059">
        <ele>382</ele>
        <time>2021-03-06T14:26:42Z</time>
      </trkpt>
      <trkpt lat="44.09526" lon="3.00591">
        <ele>382.2</ele>
        <time>2021-03-06T14:26:43Z</time>
      </trkpt>
      <trkpt lat="44.09529" lon="3.00595">
        <ele>382.6</ele>
        <time>2021-03-06T14:26:45Z</time>
      </trkpt>
      <trkpt lat="44.0953" lon="3.00596">
        <ele>382.7</ele>
        <time>2021-03-06T14:26:46Z</time>
      </trkpt>
      <trkpt lat="44.09531" lon="3.00598">
        <ele>382.8</ele>
        <time>2021-03-06T14:26:47Z</time>
      </trkpt>
      <trkpt lat="44.09533" lon="3.00601">
        <ele>383.1</ele>
        <time>2021-03-06T14:26:49Z</time>
      </trkpt>
      <trkpt lat="44.09535" lon="3.00603">
        <ele>383.3</ele>
        <time>2021-03-06T14:26:50Z</time>
      </trkpt>
      <trkpt lat="44.09538" lon="3.00607">
        <ele>383.7</ele>
        <time>2021-03-06T14:26:51Z</time>
      </trkpt>
      <trkpt lat="44.09538" lon="3.00608">
        <ele>383.8</ele>
        <time>2021-03-06T14:26:52Z</time>
      </trkpt>
      <trkpt lat="44.0954" lon="3.00609">
        <ele>384</ele>
        <time>2021-03-06T14:26:53Z</time>
      </trkpt>
      <trkpt lat="44.09541" lon="3.0061">
        <ele>384.1</ele>
        <time>2021-03-06T14:26:55Z</time>
      </trkpt>
      <trkpt lat="44.09542" lon="3.00611">
        <ele>384.2</ele>
        <time>2021-03-06T14:26:56Z</time>
      </trkpt>
      <trkpt lat="44.09544" lon="3.00612">
        <ele>384.5</ele>
        <time>2021-03-06T14:26:57Z</time>
      </trkpt>
      <trkpt lat="44.09546" lon="3.00613">
        <ele>384.7</ele>
        <time>2021-03-06T14:26:59Z</time>
      </trkpt>
      <trkpt lat="44.09548" lon="3.00614">
        <ele>384.9</ele>
        <time>2021-03-06T14:27:00Z</time>
      </trkpt>
      <trkpt lat="44.0955" lon="3.00613">
        <ele>385.1</ele>
        <time>2021-03-06T14:27:01Z</time>
      </trkpt>
      <trkpt lat="44.09551" lon="3.00614">
        <ele>385.3</ele>
        <time>2021-03-06T14:27:03Z</time>
      </trkpt>
      <trkpt lat="44.09554" lon="3.00615">
        <ele>385.6</ele>
        <time>2021-03-06T14:27:05Z</time>
      </trkpt>
      <trkpt lat="44.09556" lon="3.00616">
        <ele>385.8</ele>
        <time>2021-03-06T14:27:06Z</time>
      </trkpt>
      <trkpt lat="44.09558" lon="3.00616">
        <ele>386</ele>
        <time>2021-03-06T14:27:08Z</time>
      </trkpt>
      <trkpt lat="44.0956" lon="3.00617">
        <ele>386.1</ele>
        <time>2021-03-06T14:27:10Z</time>
      </trkpt>
      <trkpt lat="44.09561" lon="3.00618">
        <ele>386.2</ele>
        <time>2021-03-06T14:27:11Z</time>
      </trkpt>
      <trkpt lat="44.09562" lon="3.00619">
        <ele>386.3</ele>
        <time>2021-03-06T14:27:13Z</time>
      </trkpt>
      <trkpt lat="44.09563" lon="3.00619">
        <ele>386.4</ele>
        <time>2021-03-06T14:27:15Z</time>
      </trkpt>
      <trkpt lat="44.09564" lon="3.0062">
        <ele>386.4</ele>
        <time>2021-03-06T14:27:16Z</time>
      </trkpt>
      <trkpt lat="44.09565" lon="3.00621">
        <ele>386.5</ele>
        <time>2021-03-06T14:27:18Z</time>
      </trkpt>
      <trkpt lat="44.09566" lon="3.00622">
        <ele>386.6</ele>
        <time>2021-03-06T14:29:12Z</time>
      </trkpt>
      <trkpt lat="44.09567" lon="3.00622">
        <ele>386.6</ele>
        <time>2021-03-06T14:29:14Z</time>
      </trkpt>
      <trkpt lat="44.09568" lon="3.00623">
        <ele>386.7</ele>
        <time>2021-03-06T14:29:15Z</time>
      </trkpt>
      <trkpt lat="44.09569" lon="3.00624">
        <ele>386.7</ele>
        <time>2021-03-06T14:29:16Z</time>
      </trkpt>
      <trkpt lat="44.09572" lon="3.00623">
        <ele>386.9</ele>
        <time>2021-03-06T14:29:18Z</time>
      </trkpt>
      <trkpt lat="44.09573" lon="3.00624">
        <ele>387</ele>
        <time>2021-03-06T14:29:19Z</time>
      </trkpt>
      <trkpt lat="44.09574" lon="3.00625">
        <ele>387</ele>
        <time>2021-03-06T14:29:20Z</time>
      </trkpt>
      <trkpt lat="44.09577" lon="3.00626">
        <ele>387.2</ele>
        <time>2021-03-06T14:29:22Z</time>
      </trkpt>
      <trkpt lat="44.09578" lon="3.00626">
        <ele>387.2</ele>
        <time>2021-03-06T14:29:23Z</time>
      </trkpt>
      <trkpt lat="44.09581" lon="3.00628">
        <ele>387.4</ele>
        <time>2021-03-06T14:29:25Z</time>
      </trkpt>
      <trkpt lat="44.09584" lon="3.0063">
        <ele>387.5</ele>
        <time>2021-03-06T14:29:26Z</time>
      </trkpt>
      <trkpt lat="44.09586" lon="3.00632">
        <ele>387.7</ele>
        <time>2021-03-06T14:29:28Z</time>
      </trkpt>
      <trkpt lat="44.09589" lon="3.00635">
        <ele>387.8</ele>
        <time>2021-03-06T14:29:29Z</time>
      </trkpt>
      <trkpt lat="44.09593" lon="3.00637">
        <ele>388</ele>
        <time>2021-03-06T14:29:31Z</time>
      </trkpt>
      <trkpt lat="44.09595" lon="3.00639">
        <ele>388</ele>
        <time>2021-03-06T14:29:32Z</time>
      </trkpt>
      <trkpt lat="44.09597" lon="3.00641">
        <ele>388.2</ele>
        <time>2021-03-06T14:29:33Z</time>
      </trkpt>
      <trkpt lat="44.096" lon="3.00645">
        <ele>388.4</ele>
        <time>2021-03-06T14:29:35Z</time>
      </trkpt>
      <trkpt lat="44.09603" lon="3.00648">
        <ele>388.6</ele>
        <time>2021-03-06T14:29:37Z</time>
      </trkpt>
      <trkpt lat="44.09604" lon="3.00649">
        <ele>388.6</ele>
        <time>2021-03-06T14:29:38Z</time>
      </trkpt>
      <trkpt lat="44.09605" lon="3.00652">
        <ele>388.8</ele>
        <time>2021-03-06T14:29:39Z</time>
      </trkpt>
      <trkpt lat="44.09606" lon="3.00655">
        <ele>389</ele>
        <time>2021-03-06T14:29:41Z</time>
      </trkpt>
      <trkpt lat="44.09608" lon="3.00658">
        <ele>389.3</ele>
        <time>2021-03-06T14:29:42Z</time>
      </trkpt>
      <trkpt lat="44.09609" lon="3.00659">
        <ele>389.4</ele>
        <time>2021-03-06T14:29:43Z</time>
      </trkpt>
      <trkpt lat="44.09611" lon="3.00662">
        <ele>389.6</ele>
        <time>2021-03-06T14:29:44Z</time>
      </trkpt>
      <trkpt lat="44.09612" lon="3.00663">
        <ele>389.7</ele>
        <time>2021-03-06T14:29:45Z</time>
      </trkpt>
      <trkpt lat="44.09613" lon="3.00665">
        <ele>389.9</ele>
        <time>2021-03-06T14:29:46Z</time>
      </trkpt>
      <trkpt lat="44.09615" lon="3.00667">
        <ele>390.2</ele>
        <time>2021-03-06T14:29:48Z</time>
      </trkpt>
      <trkpt lat="44.09617" lon="3.00671">
        <ele>390.5</ele>
        <time>2021-03-06T14:29:50Z</time>
      </trkpt>
      <trkpt lat="44.0962" lon="3.00674">
        <ele>390.8</ele>
        <time>2021-03-06T14:29:52Z</time>
      </trkpt>
      <trkpt lat="44.09623" lon="3.00679">
        <ele>391.2</ele>
        <time>2021-03-06T14:29:54Z</time>
      </trkpt>
      <trkpt lat="44.09626" lon="3.00683">
        <ele>391.4</ele>
        <time>2021-03-06T14:29:55Z</time>
      </trkpt>
      <trkpt lat="44.09627" lon="3.00687">
        <ele>391.6</ele>
        <time>2021-03-06T14:29:56Z</time>
      </trkpt>
      <trkpt lat="44.09629" lon="3.0069">
        <ele>391.8</ele>
        <time>2021-03-06T14:29:58Z</time>
      </trkpt>
      <trkpt lat="44.0963" lon="3.00693">
        <ele>392</ele>
        <time>2021-03-06T14:29:59Z</time>
      </trkpt>
      <trkpt lat="44.09632" lon="3.00695">
        <ele>392.2</ele>
        <time>2021-03-06T14:30:01Z</time>
      </trkpt>
      <trkpt lat="44.09634" lon="3.00698">
        <ele>392.4</ele>
        <time>2021-03-06T14:30:02Z</time>
      </trkpt>
      <trkpt lat="44.09636" lon="3.007">
        <ele>392.6</ele>
        <time>2021-03-06T14:30:03Z</time>
      </trkpt>
      <trkpt lat="44.09638" lon="3.00703">
        <ele>392.9</ele>
        <time>2021-03-06T14:30:05Z</time>
      </trkpt>
      <trkpt lat="44.09641" lon="3.00707">
        <ele>393.2</ele>
        <time>2021-03-06T14:30:06Z</time>
      </trkpt>
      <trkpt lat="44.09642" lon="3.00708">
        <ele>393.3</ele>
        <time>2021-03-06T14:30:07Z</time>
      </trkpt>
      <trkpt lat="44.09644" lon="3.00713">
        <ele>393.8</ele>
        <time>2021-03-06T14:30:09Z</time>
      </trkpt>
      <trkpt lat="44.09645" lon="3.00715">
        <ele>393.9</ele>
        <time>2021-03-06T14:30:11Z</time>
      </trkpt>
      <trkpt lat="44.09646" lon="3.00717">
        <ele>394</ele>
        <time>2021-03-06T14:30:12Z</time>
      </trkpt>
      <trkpt lat="44.09649" lon="3.00719">
        <ele>394.3</ele>
        <time>2021-03-06T14:30:13Z</time>
      </trkpt>
      <trkpt lat="44.09649" lon="3.0072">
        <ele>394.4</ele>
        <time>2021-03-06T14:30:14Z</time>
      </trkpt>
      <trkpt lat="44.09652" lon="3.00725">
        <ele>394.8</ele>
        <time>2021-03-06T14:30:16Z</time>
      </trkpt>
      <trkpt lat="44.09653" lon="3.00726">
        <ele>394.9</ele>
        <time>2021-03-06T14:30:17Z</time>
      </trkpt>
      <trkpt lat="44.09653" lon="3.00728">
        <ele>395</ele>
        <time>2021-03-06T14:30:18Z</time>
      </trkpt>
      <trkpt lat="44.09655" lon="3.00731">
        <ele>395.2</ele>
        <time>2021-03-06T14:30:20Z</time>
      </trkpt>
      <trkpt lat="44.09656" lon="3.00737">
        <ele>395.5</ele>
        <time>2021-03-06T14:30:22Z</time>
      </trkpt>
      <trkpt lat="44.09657" lon="3.00741">
        <ele>395.7</ele>
        <time>2021-03-06T14:30:23Z</time>
      </trkpt>
      <trkpt lat="44.09658" lon="3.00742">
        <ele>395.7</ele>
        <time>2021-03-06T14:30:24Z</time>
      </trkpt>
      <trkpt lat="44.09659" lon="3.00746">
        <ele>395.9</ele>
        <time>2021-03-06T14:30:25Z</time>
      </trkpt>
      <trkpt lat="44.09661" lon="3.00752">
        <ele>396.1</ele>
        <time>2021-03-06T14:30:27Z</time>
      </trkpt>
      <trkpt lat="44.09663" lon="3.00757">
        <ele>396.2</ele>
        <time>2021-03-06T14:30:28Z</time>
      </trkpt>
      <trkpt lat="44.09665" lon="3.00762">
        <ele>396.3</ele>
        <time>2021-03-06T14:30:30Z</time>
      </trkpt>
      <trkpt lat="44.09667" lon="3.00767">
        <ele>396.4</ele>
        <time>2021-03-06T14:30:31Z</time>
      </trkpt>
      <trkpt lat="44.09667" lon="3.00768">
        <ele>396.4</ele>
        <time>2021-03-06T14:30:32Z</time>
      </trkpt>
      <trkpt lat="44.09669" lon="3.00774">
        <ele>396.6</ele>
        <time>2021-03-06T14:30:33Z</time>
      </trkpt>
      <trkpt lat="44.0967" lon="3.00776">
        <ele>396.7</ele>
        <time>2021-03-06T14:30:34Z</time>
      </trkpt>
      <trkpt lat="44.09672" lon="3.00781">
        <ele>396.9</ele>
        <time>2021-03-06T14:30:36Z</time>
      </trkpt>
      <trkpt lat="44.09673" lon="3.00787">
        <ele>397.2</ele>
        <time>2021-03-06T14:30:38Z</time>
      </trkpt>
      <trkpt lat="44.09674" lon="3.0079">
        <ele>397.4</ele>
        <time>2021-03-06T14:30:39Z</time>
      </trkpt>
      <trkpt lat="44.09674" lon="3.00792">
        <ele>397.5</ele>
        <time>2021-03-06T14:30:40Z</time>
      </trkpt>
      <trkpt lat="44.09677" lon="3.00797">
        <ele>397.9</ele>
        <time>2021-03-06T14:30:42Z</time>
      </trkpt>
      <trkpt lat="44.09677" lon="3.00799">
        <ele>398.1</ele>
        <time>2021-03-06T14:30:43Z</time>
      </trkpt>
      <trkpt lat="44.09678" lon="3.00801">
        <ele>398.3</ele>
        <time>2021-03-06T14:30:44Z</time>
      </trkpt>
      <trkpt lat="44.09679" lon="3.00805">
        <ele>398.6</ele>
        <time>2021-03-06T14:30:45Z</time>
      </trkpt>
      <trkpt lat="44.0968" lon="3.00806">
        <ele>398.7</ele>
        <time>2021-03-06T14:30:46Z</time>
      </trkpt>
      <trkpt lat="44.09681" lon="3.00811">
        <ele>399</ele>
        <time>2021-03-06T14:30:48Z</time>
      </trkpt>
      <trkpt lat="44.09682" lon="3.00813">
        <ele>399.2</ele>
        <time>2021-03-06T14:30:49Z</time>
      </trkpt>
      <trkpt lat="44.09684" lon="3.00818">
        <ele>399.5</ele>
        <time>2021-03-06T14:30:51Z</time>
      </trkpt>
      <trkpt lat="44.09685" lon="3.00819">
        <ele>399.6</ele>
        <time>2021-03-06T14:30:52Z</time>
      </trkpt>
      <trkpt lat="44.09685" lon="3.00821">
        <ele>399.6</ele>
        <time>2021-03-06T14:30:53Z</time>
      </trkpt>
      <trkpt lat="44.09687" lon="3.00825">
        <ele>399.8</ele>
        <time>2021-03-06T14:30:55Z</time>
      </trkpt>
      <trkpt lat="44.09688" lon="3.00827">
        <ele>399.9</ele>
        <time>2021-03-06T14:30:56Z</time>
      </trkpt>
      <trkpt lat="44.09689" lon="3.00829">
        <ele>400</ele>
        <time>2021-03-06T14:30:57Z</time>
      </trkpt>
      <trkpt lat="44.09691" lon="3.00831">
        <ele>400.1</ele>
        <time>2021-03-06T14:30:59Z</time>
      </trkpt>
      <trkpt lat="44.09693" lon="3.00834">
        <ele>400.2</ele>
        <time>2021-03-06T14:31:00Z</time>
      </trkpt>
      <trkpt lat="44.09693" lon="3.00836">
        <ele>400.2</ele>
        <time>2021-03-06T14:31:01Z</time>
      </trkpt>
      <trkpt lat="44.09695" lon="3.00839">
        <ele>400.3</ele>
        <time>2021-03-06T14:31:02Z</time>
      </trkpt>
      <trkpt lat="44.09696" lon="3.00843">
        <ele>400.4</ele>
        <time>2021-03-06T14:31:04Z</time>
      </trkpt>
      <trkpt lat="44.09697" lon="3.00845">
        <ele>400.4</ele>
        <time>2021-03-06T14:31:05Z</time>
      </trkpt>
      <trkpt lat="44.09698" lon="3.00848">
        <ele>400.5</ele>
        <time>2021-03-06T14:31:06Z</time>
      </trkpt>
      <trkpt lat="44.097" lon="3.00853">
        <ele>400.6</ele>
        <time>2021-03-06T14:31:08Z</time>
      </trkpt>
      <trkpt lat="44.09701" lon="3.00858">
        <ele>400.8</ele>
        <time>2021-03-06T14:31:09Z</time>
      </trkpt>
      <trkpt lat="44.09701" lon="3.00859">
        <ele>400.8</ele>
        <time>2021-03-06T14:31:10Z</time>
      </trkpt>
      <trkpt lat="44.09702" lon="3.00861">
        <ele>400.9</ele>
        <time>2021-03-06T14:31:11Z</time>
      </trkpt>
      <trkpt lat="44.09702" lon="3.00864">
        <ele>401</ele>
        <time>2021-03-06T14:31:13Z</time>
      </trkpt>
      <trkpt lat="44.09703" lon="3.00869">
        <ele>401.1</ele>
        <time>2021-03-06T14:31:14Z</time>
      </trkpt>
      <trkpt lat="44.09704" lon="3.00872">
        <ele>401.3</ele>
        <time>2021-03-06T14:31:15Z</time>
      </trkpt>
      <trkpt lat="44.09704" lon="3.00876">
        <ele>401.4</ele>
        <time>2021-03-06T14:31:17Z</time>
      </trkpt>
      <trkpt lat="44.09705" lon="3.00878">
        <ele>401.5</ele>
        <time>2021-03-06T14:31:18Z</time>
      </trkpt>
      <trkpt lat="44.09705" lon="3.00879">
        <ele>401.6</ele>
        <time>2021-03-06T14:31:19Z</time>
      </trkpt>
      <trkpt lat="44.09707" lon="3.00884">
        <ele>401.8</ele>
        <time>2021-03-06T14:31:21Z</time>
      </trkpt>
      <trkpt lat="44.09709" lon="3.00887">
        <ele>402</ele>
        <time>2021-03-06T14:31:22Z</time>
      </trkpt>
      <trkpt lat="44.0971" lon="3.00889">
        <ele>402.1</ele>
        <time>2021-03-06T14:31:23Z</time>
      </trkpt>
      <trkpt lat="44.09712" lon="3.00895">
        <ele>402.4</ele>
        <time>2021-03-06T14:31:25Z</time>
      </trkpt>
      <trkpt lat="44.09712" lon="3.00897">
        <ele>402.5</ele>
        <time>2021-03-06T14:31:26Z</time>
      </trkpt>
      <trkpt lat="44.09713" lon="3.00899">
        <ele>402.6</ele>
        <time>2021-03-06T14:31:27Z</time>
      </trkpt>
      <trkpt lat="44.09715" lon="3.00902">
        <ele>402.8</ele>
        <time>2021-03-06T14:31:28Z</time>
      </trkpt>
      <trkpt lat="44.09716" lon="3.00908">
        <ele>403.1</ele>
        <time>2021-03-06T14:31:30Z</time>
      </trkpt>
      <trkpt lat="44.09717" lon="3.00914">
        <ele>403.4</ele>
        <time>2021-03-06T14:31:31Z</time>
      </trkpt>
      <trkpt lat="44.09719" lon="3.00918">
        <ele>403.6</ele>
        <time>2021-03-06T14:31:33Z</time>
      </trkpt>
      <trkpt lat="44.0972" lon="3.0092">
        <ele>403.7</ele>
        <time>2021-03-06T14:31:34Z</time>
      </trkpt>
      <trkpt lat="44.09721" lon="3.00924">
        <ele>404</ele>
        <time>2021-03-06T14:31:36Z</time>
      </trkpt>
      <trkpt lat="44.09722" lon="3.00925">
        <ele>404.1</ele>
        <time>2021-03-06T14:31:37Z</time>
      </trkpt>
      <trkpt lat="44.09723" lon="3.00928">
        <ele>404.3</ele>
        <time>2021-03-06T14:31:39Z</time>
      </trkpt>
      <trkpt lat="44.09724" lon="3.00932">
        <ele>404.6</ele>
        <time>2021-03-06T14:31:40Z</time>
      </trkpt>
      <trkpt lat="44.09724" lon="3.00933">
        <ele>404.7</ele>
        <time>2021-03-06T14:31:41Z</time>
      </trkpt>
      <trkpt lat="44.09725" lon="3.00935">
        <ele>404.9</ele>
        <time>2021-03-06T14:31:43Z</time>
      </trkpt>
      <trkpt lat="44.09726" lon="3.00937">
        <ele>405</ele>
        <time>2021-03-06T14:31:44Z</time>
      </trkpt>
      <trkpt lat="44.09726" lon="3.0094">
        <ele>405.2</ele>
        <time>2021-03-06T14:31:46Z</time>
      </trkpt>
      <trkpt lat="44.09727" lon="3.00941">
        <ele>405.4</ele>
        <time>2021-03-06T14:31:47Z</time>
      </trkpt>
      <trkpt lat="44.09728" lon="3.00945">
        <ele>405.7</ele>
        <time>2021-03-06T14:31:48Z</time>
      </trkpt>
      <trkpt lat="44.09729" lon="3.00946">
        <ele>405.8</ele>
        <time>2021-03-06T14:31:49Z</time>
      </trkpt>
      <trkpt lat="44.0973" lon="3.00948">
        <ele>406</ele>
        <time>2021-03-06T14:31:50Z</time>
      </trkpt>
      <trkpt lat="44.09731" lon="3.00951">
        <ele>406.3</ele>
        <time>2021-03-06T14:31:52Z</time>
      </trkpt>
      <trkpt lat="44.09733" lon="3.00954">
        <ele>406.6</ele>
        <time>2021-03-06T14:31:53Z</time>
      </trkpt>
      <trkpt lat="44.09736" lon="3.00959">
        <ele>407.2</ele>
        <time>2021-03-06T14:31:55Z</time>
      </trkpt>
      <trkpt lat="44.09738" lon="3.00964">
        <ele>407.6</ele>
        <time>2021-03-06T14:31:56Z</time>
      </trkpt>
      <trkpt lat="44.0974" lon="3.00967">
        <ele>407.9</ele>
        <time>2021-03-06T14:31:58Z</time>
      </trkpt>
      <trkpt lat="44.09741" lon="3.00969">
        <ele>408.1</ele>
        <time>2021-03-06T14:31:59Z</time>
      </trkpt>
      <trkpt lat="44.09742" lon="3.00971">
        <ele>408.3</ele>
        <time>2021-03-06T14:32:00Z</time>
      </trkpt>
      <trkpt lat="44.09745" lon="3.00978">
        <ele>408.8</ele>
        <time>2021-03-06T14:32:01Z</time>
      </trkpt>
      <trkpt lat="44.09748" lon="3.00982">
        <ele>409.1</ele>
        <time>2021-03-06T14:32:03Z</time>
      </trkpt>
      <trkpt lat="44.09748" lon="3.00983">
        <ele>409.3</ele>
        <time>2021-03-06T14:32:04Z</time>
      </trkpt>
      <trkpt lat="44.0975" lon="3.00987">
        <ele>409.5</ele>
        <time>2021-03-06T14:32:05Z</time>
      </trkpt>
      <trkpt lat="44.09751" lon="3.00988">
        <ele>409.6</ele>
        <time>2021-03-06T14:32:06Z</time>
      </trkpt>
      <trkpt lat="44.09753" lon="3.00991">
        <ele>409.8</ele>
        <time>2021-03-06T14:32:07Z</time>
      </trkpt>
      <trkpt lat="44.09753" lon="3.00992">
        <ele>409.9</ele>
        <time>2021-03-06T14:32:08Z</time>
      </trkpt>
      <trkpt lat="44.09755" lon="3.00996">
        <ele>410.2</ele>
        <time>2021-03-06T14:32:10Z</time>
      </trkpt>
      <trkpt lat="44.09756" lon="3.00997">
        <ele>410.2</ele>
        <time>2021-03-06T14:32:11Z</time>
      </trkpt>
      <trkpt lat="44.09759" lon="3.01">
        <ele>410.5</ele>
        <time>2021-03-06T14:32:13Z</time>
      </trkpt>
      <trkpt lat="44.0976" lon="3.01001">
        <ele>410.6</ele>
        <time>2021-03-06T14:32:14Z</time>
      </trkpt>
      <trkpt lat="44.09762" lon="3.01002">
        <ele>410.7</ele>
        <time>2021-03-06T14:32:16Z</time>
      </trkpt>
      <trkpt lat="44.09763" lon="3.01003">
        <ele>410.9</ele>
        <time>2021-03-06T14:32:17Z</time>
      </trkpt>
      <trkpt lat="44.09766" lon="3.01007">
        <ele>411.2</ele>
        <time>2021-03-06T14:32:19Z</time>
      </trkpt>
      <trkpt lat="44.09766" lon="3.01009">
        <ele>411.3</ele>
        <time>2021-03-06T14:32:20Z</time>
      </trkpt>
      <trkpt lat="44.09767" lon="3.01011">
        <ele>411.4</ele>
        <time>2021-03-06T14:32:21Z</time>
      </trkpt>
      <trkpt lat="44.09768" lon="3.01013">
        <ele>411.6</ele>
        <time>2021-03-06T14:32:23Z</time>
      </trkpt>
      <trkpt lat="44.09769" lon="3.01014">
        <ele>411.8</ele>
        <time>2021-03-06T14:32:24Z</time>
      </trkpt>
      <trkpt lat="44.09771" lon="3.01017">
        <ele>412.1</ele>
        <time>2021-03-06T14:32:25Z</time>
      </trkpt>
      <trkpt lat="44.09772" lon="3.01018">
        <ele>412.2</ele>
        <time>2021-03-06T14:32:26Z</time>
      </trkpt>
      <trkpt lat="44.09773" lon="3.0102">
        <ele>412.3</ele>
        <time>2021-03-06T14:32:27Z</time>
      </trkpt>
      <trkpt lat="44.09775" lon="3.01022">
        <ele>412.6</ele>
        <time>2021-03-06T14:32:29Z</time>
      </trkpt>
      <trkpt lat="44.09776" lon="3.01023">
        <ele>412.8</ele>
        <time>2021-03-06T14:32:30Z</time>
      </trkpt>
      <trkpt lat="44.09777" lon="3.01024">
        <ele>413</ele>
        <time>2021-03-06T14:32:31Z</time>
      </trkpt>
      <trkpt lat="44.09779" lon="3.01024">
        <ele>413.1</ele>
        <time>2021-03-06T14:32:33Z</time>
      </trkpt>
      <trkpt lat="44.0978" lon="3.01025">
        <ele>413.3</ele>
        <time>2021-03-06T14:32:34Z</time>
      </trkpt>
      <trkpt lat="44.09782" lon="3.01025">
        <ele>413.5</ele>
        <time>2021-03-06T14:32:35Z</time>
      </trkpt>
      <trkpt lat="44.09783" lon="3.01025">
        <ele>413.6</ele>
        <time>2021-03-06T14:32:36Z</time>
      </trkpt>
      <trkpt lat="44.09784" lon="3.01025">
        <ele>413.7</ele>
        <time>2021-03-06T14:32:38Z</time>
      </trkpt>
      <trkpt lat="44.09785" lon="3.01025">
        <ele>413.8</ele>
        <time>2021-03-06T14:32:39Z</time>
      </trkpt>
      <trkpt lat="44.09786" lon="3.01025">
        <ele>414</ele>
        <time>2021-03-06T14:32:40Z</time>
      </trkpt>
      <trkpt lat="44.09787" lon="3.01026">
        <ele>414.2</ele>
        <time>2021-03-06T14:32:41Z</time>
      </trkpt>
      <trkpt lat="44.09789" lon="3.01027">
        <ele>414.3</ele>
        <time>2021-03-06T14:32:43Z</time>
      </trkpt>
      <trkpt lat="44.0979" lon="3.01028">
        <ele>414.5</ele>
        <time>2021-03-06T14:32:44Z</time>
      </trkpt>
      <trkpt lat="44.09792" lon="3.01031">
        <ele>414.7</ele>
        <time>2021-03-06T14:32:45Z</time>
      </trkpt>
      <trkpt lat="44.09793" lon="3.01032">
        <ele>414.9</ele>
        <time>2021-03-06T14:32:46Z</time>
      </trkpt>
      <trkpt lat="44.09795" lon="3.01035">
        <ele>415.1</ele>
        <time>2021-03-06T14:32:48Z</time>
      </trkpt>
      <trkpt lat="44.09795" lon="3.01037">
        <ele>415.2</ele>
        <time>2021-03-06T14:32:49Z</time>
      </trkpt>
      <trkpt lat="44.09797" lon="3.01038">
        <ele>415.4</ele>
        <time>2021-03-06T14:32:50Z</time>
      </trkpt>
      <trkpt lat="44.09798" lon="3.0104">
        <ele>415.5</ele>
        <time>2021-03-06T14:32:52Z</time>
      </trkpt>
      <trkpt lat="44.09799" lon="3.01044">
        <ele>415.7</ele>
        <time>2021-03-06T14:32:53Z</time>
      </trkpt>
      <trkpt lat="44.098" lon="3.01045">
        <ele>415.8</ele>
        <time>2021-03-06T14:32:54Z</time>
      </trkpt>
      <trkpt lat="44.09802" lon="3.01049">
        <ele>416</ele>
        <time>2021-03-06T14:32:56Z</time>
      </trkpt>
      <trkpt lat="44.09802" lon="3.0105">
        <ele>416.1</ele>
        <time>2021-03-06T14:32:57Z</time>
      </trkpt>
      <trkpt lat="44.09804" lon="3.01055">
        <ele>416.4</ele>
        <time>2021-03-06T14:32:59Z</time>
      </trkpt>
      <trkpt lat="44.09805" lon="3.01057">
        <ele>416.5</ele>
        <time>2021-03-06T14:33:00Z</time>
      </trkpt>
      <trkpt lat="44.09807" lon="3.01067">
        <ele>417.1</ele>
        <time>2021-03-06T14:33:02Z</time>
      </trkpt>
      <trkpt lat="44.09808" lon="3.01071">
        <ele>417.4</ele>
        <time>2021-03-06T14:33:03Z</time>
      </trkpt>
      <trkpt lat="44.09808" lon="3.01072">
        <ele>417.4</ele>
        <time>2021-03-06T14:33:04Z</time>
      </trkpt>
      <trkpt lat="44.09811" lon="3.01076">
        <ele>417.8</ele>
        <time>2021-03-06T14:33:06Z</time>
      </trkpt>
      <trkpt lat="44.09811" lon="3.01077">
        <ele>417.9</ele>
        <time>2021-03-06T14:33:07Z</time>
      </trkpt>
      <trkpt lat="44.09813" lon="3.01079">
        <ele>418.1</ele>
        <time>2021-03-06T14:33:08Z</time>
      </trkpt>
      <trkpt lat="44.09815" lon="3.01083">
        <ele>418.4</ele>
        <time>2021-03-06T14:33:10Z</time>
      </trkpt>
      <trkpt lat="44.09816" lon="3.01085">
        <ele>418.6</ele>
        <time>2021-03-06T14:33:11Z</time>
      </trkpt>
      <trkpt lat="44.09817" lon="3.01086">
        <ele>418.8</ele>
        <time>2021-03-06T14:33:12Z</time>
      </trkpt>
      <trkpt lat="44.09818" lon="3.01087">
        <ele>419</ele>
        <time>2021-03-06T14:33:13Z</time>
      </trkpt>
      <trkpt lat="44.0982" lon="3.01089">
        <ele>419.2</ele>
        <time>2021-03-06T14:33:15Z</time>
      </trkpt>
      <trkpt lat="44.09821" lon="3.0109">
        <ele>419.4</ele>
        <time>2021-03-06T14:33:16Z</time>
      </trkpt>
      <trkpt lat="44.09822" lon="3.01091">
        <ele>419.5</ele>
        <time>2021-03-06T14:33:17Z</time>
      </trkpt>
      <trkpt lat="44.09823" lon="3.01092">
        <ele>419.7</ele>
        <time>2021-03-06T14:33:19Z</time>
      </trkpt>
      <trkpt lat="44.09824" lon="3.01094">
        <ele>419.9</ele>
        <time>2021-03-06T14:33:20Z</time>
      </trkpt>
      <trkpt lat="44.09826" lon="3.01096">
        <ele>420.1</ele>
        <time>2021-03-06T14:33:21Z</time>
      </trkpt>
      <trkpt lat="44.09827" lon="3.01099">
        <ele>420.5</ele>
        <time>2021-03-06T14:33:22Z</time>
      </trkpt>
      <trkpt lat="44.09828" lon="3.01101">
        <ele>420.6</ele>
        <time>2021-03-06T14:33:23Z</time>
      </trkpt>
      <trkpt lat="44.09829" lon="3.01105">
        <ele>421</ele>
        <time>2021-03-06T14:33:24Z</time>
      </trkpt>
      <trkpt lat="44.09831" lon="3.01108">
        <ele>421.2</ele>
        <time>2021-03-06T14:33:25Z</time>
      </trkpt>
      <trkpt lat="44.09833" lon="3.0111">
        <ele>421.5</ele>
        <time>2021-03-06T14:33:27Z</time>
      </trkpt>
      <trkpt lat="44.09835" lon="3.01113">
        <ele>421.8</ele>
        <time>2021-03-06T14:33:29Z</time>
      </trkpt>
      <trkpt lat="44.09836" lon="3.01115">
        <ele>421.9</ele>
        <time>2021-03-06T14:33:30Z</time>
      </trkpt>
      <trkpt lat="44.09837" lon="3.01116">
        <ele>422.1</ele>
        <time>2021-03-06T14:33:31Z</time>
      </trkpt>
      <trkpt lat="44.09841" lon="3.0112">
        <ele>422.4</ele>
        <time>2021-03-06T14:33:33Z</time>
      </trkpt>
      <trkpt lat="44.09842" lon="3.01121">
        <ele>422.6</ele>
        <time>2021-03-06T14:33:34Z</time>
      </trkpt>
      <trkpt lat="44.09843" lon="3.01122">
        <ele>422.7</ele>
        <time>2021-03-06T14:33:35Z</time>
      </trkpt>
      <trkpt lat="44.09845" lon="3.01125">
        <ele>423</ele>
        <time>2021-03-06T14:33:37Z</time>
      </trkpt>
      <trkpt lat="44.09846" lon="3.01125">
        <ele>423.1</ele>
        <time>2021-03-06T14:33:38Z</time>
      </trkpt>
      <trkpt lat="44.09848" lon="3.01127">
        <ele>423.4</ele>
        <time>2021-03-06T14:33:39Z</time>
      </trkpt>
      <trkpt lat="44.0985" lon="3.01129">
        <ele>423.6</ele>
        <time>2021-03-06T14:33:41Z</time>
      </trkpt>
      <trkpt lat="44.09851" lon="3.0113">
        <ele>423.8</ele>
        <time>2021-03-06T14:33:43Z</time>
      </trkpt>
      <trkpt lat="44.09852" lon="3.01131">
        <ele>424</ele>
        <time>2021-03-06T14:33:44Z</time>
      </trkpt>
      <trkpt lat="44.09853" lon="3.01132">
        <ele>424.1</ele>
        <time>2021-03-06T14:33:46Z</time>
      </trkpt>
      <trkpt lat="44.09854" lon="3.01134">
        <ele>424.3</ele>
        <time>2021-03-06T14:33:47Z</time>
      </trkpt>
      <trkpt lat="44.09855" lon="3.01135">
        <ele>424.5</ele>
        <time>2021-03-06T14:33:49Z</time>
      </trkpt>
      <trkpt lat="44.09856" lon="3.01136">
        <ele>424.7</ele>
        <time>2021-03-06T14:33:50Z</time>
      </trkpt>
      <trkpt lat="44.09858" lon="3.01137">
        <ele>424.9</ele>
        <time>2021-03-06T14:33:52Z</time>
      </trkpt>
      <trkpt lat="44.09859" lon="3.01138">
        <ele>425.1</ele>
        <time>2021-03-06T14:33:53Z</time>
      </trkpt>
      <trkpt lat="44.09861" lon="3.01138">
        <ele>425.4</ele>
        <time>2021-03-06T14:33:54Z</time>
      </trkpt>
      <trkpt lat="44.09864" lon="3.01139">
        <ele>425.8</ele>
        <time>2021-03-06T14:33:56Z</time>
      </trkpt>
      <trkpt lat="44.09865" lon="3.01139">
        <ele>425.9</ele>
        <time>2021-03-06T14:33:57Z</time>
      </trkpt>
      <trkpt lat="44.09868" lon="3.01139">
        <ele>426.3</ele>
        <time>2021-03-06T14:33:59Z</time>
      </trkpt>
      <trkpt lat="44.09871" lon="3.01139">
        <ele>426.8</ele>
        <time>2021-03-06T14:34:00Z</time>
      </trkpt>
      <trkpt lat="44.09875" lon="3.01139">
        <ele>427.3</ele>
        <time>2021-03-06T14:34:01Z</time>
      </trkpt>
      <trkpt lat="44.09876" lon="3.01139">
        <ele>427.5</ele>
        <time>2021-03-06T14:34:03Z</time>
      </trkpt>
      <trkpt lat="44.09878" lon="3.01139">
        <ele>427.7</ele>
        <time>2021-03-06T14:34:05Z</time>
      </trkpt>
      <trkpt lat="44.09879" lon="3.01138">
        <ele>427.9</ele>
        <time>2021-03-06T14:34:06Z</time>
      </trkpt>
      <trkpt lat="44.09881" lon="3.01138">
        <ele>428.2</ele>
        <time>2021-03-06T14:34:08Z</time>
      </trkpt>
      <trkpt lat="44.09883" lon="3.01138">
        <ele>428.3</ele>
        <time>2021-03-06T14:34:09Z</time>
      </trkpt>
      <trkpt lat="44.09884" lon="3.01138">
        <ele>428.6</ele>
        <time>2021-03-06T14:34:10Z</time>
      </trkpt>
      <trkpt lat="44.09887" lon="3.01138">
        <ele>428.9</ele>
        <time>2021-03-06T14:34:12Z</time>
      </trkpt>
      <trkpt lat="44.09889" lon="3.01138">
        <ele>429.1</ele>
        <time>2021-03-06T14:34:13Z</time>
      </trkpt>
      <trkpt lat="44.09891" lon="3.01138">
        <ele>429.4</ele>
        <time>2021-03-06T14:34:15Z</time>
      </trkpt>
      <trkpt lat="44.09896" lon="3.01138">
        <ele>430</ele>
        <time>2021-03-06T14:34:17Z</time>
      </trkpt>
      <trkpt lat="44.09897" lon="3.01138">
        <ele>430.1</ele>
        <time>2021-03-06T14:34:18Z</time>
      </trkpt>
      <trkpt lat="44.09898" lon="3.01138">
        <ele>430.3</ele>
        <time>2021-03-06T14:34:19Z</time>
      </trkpt>
      <trkpt lat="44.099" lon="3.01138">
        <ele>430.6</ele>
        <time>2021-03-06T14:34:21Z</time>
      </trkpt>
      <trkpt lat="44.09902" lon="3.01138">
        <ele>430.8</ele>
        <time>2021-03-06T14:34:22Z</time>
      </trkpt>
      <trkpt lat="44.09905" lon="3.01139">
        <ele>431.2</ele>
        <time>2021-03-06T14:34:23Z</time>
      </trkpt>
      <trkpt lat="44.09906" lon="3.01139">
        <ele>431.3</ele>
        <time>2021-03-06T14:34:24Z</time>
      </trkpt>
      <trkpt lat="44.09908" lon="3.01138">
        <ele>431.6</ele>
        <time>2021-03-06T14:34:26Z</time>
      </trkpt>
      <trkpt lat="44.09908" lon="3.01138">
        <ele>431.7</ele>
        <time>2021-03-06T14:34:27Z</time>
      </trkpt>
      <trkpt lat="44.09909" lon="3.01137">
        <ele>431.8</ele>
        <time>2021-03-06T14:34:28Z</time>
      </trkpt>
      <trkpt lat="44.09912" lon="3.01136">
        <ele>432.3</ele>
        <time>2021-03-06T14:34:30Z</time>
      </trkpt>
      <trkpt lat="44.09913" lon="3.01136">
        <ele>432.5</ele>
        <time>2021-03-06T14:34:31Z</time>
      </trkpt>
      <trkpt lat="44.09914" lon="3.01135">
        <ele>432.7</ele>
        <time>2021-03-06T14:34:32Z</time>
      </trkpt>
      <trkpt lat="44.09916" lon="3.01134">
        <ele>433</ele>
        <time>2021-03-06T14:34:34Z</time>
      </trkpt>
      <trkpt lat="44.09917" lon="3.01134">
        <ele>433.2</ele>
        <time>2021-03-06T14:34:35Z</time>
      </trkpt>
      <trkpt lat="44.09919" lon="3.01134">
        <ele>433.6</ele>
        <time>2021-03-06T14:34:36Z</time>
      </trkpt>
      <trkpt lat="44.0992" lon="3.01134">
        <ele>433.7</ele>
        <time>2021-03-06T14:34:37Z</time>
      </trkpt>
      <trkpt lat="44.09921" lon="3.01134">
        <ele>433.9</ele>
        <time>2021-03-06T14:34:38Z</time>
      </trkpt>
      <trkpt lat="44.09922" lon="3.01135">
        <ele>434.1</ele>
        <time>2021-03-06T14:34:39Z</time>
      </trkpt>
      <trkpt lat="44.09924" lon="3.01136">
        <ele>434.4</ele>
        <time>2021-03-06T14:34:41Z</time>
      </trkpt>
      <trkpt lat="44.09925" lon="3.01137">
        <ele>434.7</ele>
        <time>2021-03-06T14:34:42Z</time>
      </trkpt>
      <trkpt lat="44.09926" lon="3.01137">
        <ele>434.9</ele>
        <time>2021-03-06T14:34:44Z</time>
      </trkpt>
      <trkpt lat="44.09927" lon="3.01137">
        <ele>435</ele>
        <time>2021-03-06T14:34:45Z</time>
      </trkpt>
      <trkpt lat="44.09929" lon="3.01137">
        <ele>435.5</ele>
        <time>2021-03-06T14:34:46Z</time>
      </trkpt>
      <trkpt lat="44.09931" lon="3.01138">
        <ele>435.7</ele>
        <time>2021-03-06T14:34:48Z</time>
      </trkpt>
      <trkpt lat="44.09932" lon="3.01138">
        <ele>435.9</ele>
        <time>2021-03-06T14:34:50Z</time>
      </trkpt>
      <trkpt lat="44.09934" lon="3.01138">
        <ele>436.2</ele>
        <time>2021-03-06T14:34:51Z</time>
      </trkpt>
      <trkpt lat="44.09936" lon="3.01138">
        <ele>436.5</ele>
        <time>2021-03-06T14:34:53Z</time>
      </trkpt>
      <trkpt lat="44.09939" lon="3.01138">
        <ele>437</ele>
        <time>2021-03-06T14:34:55Z</time>
      </trkpt>
      <trkpt lat="44.09942" lon="3.01139">
        <ele>437.2</ele>
        <time>2021-03-06T14:34:56Z</time>
      </trkpt>
      <trkpt lat="44.09945" lon="3.0114">
        <ele>437.6</ele>
        <time>2021-03-06T14:34:58Z</time>
      </trkpt>
      <trkpt lat="44.09947" lon="3.0114">
        <ele>437.8</ele>
        <time>2021-03-06T14:34:59Z</time>
      </trkpt>
      <trkpt lat="44.09948" lon="3.0114">
        <ele>437.9</ele>
        <time>2021-03-06T14:35:01Z</time>
      </trkpt>
      <trkpt lat="44.09952" lon="3.01139">
        <ele>438.1</ele>
        <time>2021-03-06T14:35:03Z</time>
      </trkpt>
      <trkpt lat="44.09953" lon="3.01139">
        <ele>438.2</ele>
        <time>2021-03-06T14:35:04Z</time>
      </trkpt>
      <trkpt lat="44.09954" lon="3.01139">
        <ele>438.3</ele>
        <time>2021-03-06T14:35:06Z</time>
      </trkpt>
      <trkpt lat="44.09957" lon="3.0114">
        <ele>438.5</ele>
        <time>2021-03-06T14:35:08Z</time>
      </trkpt>
      <trkpt lat="44.09959" lon="3.01141">
        <ele>438.6</ele>
        <time>2021-03-06T14:35:09Z</time>
      </trkpt>
      <trkpt lat="44.09961" lon="3.01144">
        <ele>438.8</ele>
        <time>2021-03-06T14:35:11Z</time>
      </trkpt>
      <trkpt lat="44.09964" lon="3.01146">
        <ele>439</ele>
        <time>2021-03-06T14:35:12Z</time>
      </trkpt>
      <trkpt lat="44.09964" lon="3.01147">
        <ele>439</ele>
        <time>2021-03-06T14:35:13Z</time>
      </trkpt>
      <trkpt lat="44.09966" lon="3.0115">
        <ele>439.2</ele>
        <time>2021-03-06T14:35:14Z</time>
      </trkpt>
      <trkpt lat="44.09968" lon="3.01153">
        <ele>439.3</ele>
        <time>2021-03-06T14:35:15Z</time>
      </trkpt>
      <trkpt lat="44.09969" lon="3.01156">
        <ele>439.4</ele>
        <time>2021-03-06T14:35:17Z</time>
      </trkpt>
      <trkpt lat="44.0997" lon="3.01157">
        <ele>439.5</ele>
        <time>2021-03-06T14:35:18Z</time>
      </trkpt>
      <trkpt lat="44.09973" lon="3.0116">
        <ele>439.7</ele>
        <time>2021-03-06T14:35:19Z</time>
      </trkpt>
      <trkpt lat="44.09974" lon="3.01162">
        <ele>439.8</ele>
        <time>2021-03-06T14:35:21Z</time>
      </trkpt>
      <trkpt lat="44.09976" lon="3.01163">
        <ele>439.9</ele>
        <time>2021-03-06T14:35:23Z</time>
      </trkpt>
      <trkpt lat="44.09977" lon="3.01165">
        <ele>440</ele>
        <time>2021-03-06T14:35:24Z</time>
      </trkpt>
      <trkpt lat="44.09978" lon="3.01166">
        <ele>440</ele>
        <time>2021-03-06T14:35:25Z</time>
      </trkpt>
      <trkpt lat="44.0998" lon="3.01168">
        <ele>440.2</ele>
        <time>2021-03-06T14:35:28Z</time>
      </trkpt>
      <trkpt lat="44.09982" lon="3.01169">
        <ele>440.4</ele>
        <time>2021-03-06T14:35:29Z</time>
      </trkpt>
      <trkpt lat="44.09984" lon="3.0117">
        <ele>440.5</ele>
        <time>2021-03-06T14:35:30Z</time>
      </trkpt>
      <trkpt lat="44.09985" lon="3.01171">
        <ele>440.6</ele>
        <time>2021-03-06T14:35:31Z</time>
      </trkpt>
      <trkpt lat="44.09987" lon="3.01172">
        <ele>440.8</ele>
        <time>2021-03-06T14:35:33Z</time>
      </trkpt>
      <trkpt lat="44.09989" lon="3.01172">
        <ele>440.9</ele>
        <time>2021-03-06T14:35:34Z</time>
      </trkpt>
      <trkpt lat="44.0999" lon="3.01173">
        <ele>441.1</ele>
        <time>2021-03-06T14:35:35Z</time>
      </trkpt>
      <trkpt lat="44.09991" lon="3.01174">
        <ele>441.2</ele>
        <time>2021-03-06T14:35:36Z</time>
      </trkpt>
      <trkpt lat="44.09993" lon="3.01175">
        <ele>441.3</ele>
        <time>2021-03-06T14:35:37Z</time>
      </trkpt>
      <trkpt lat="44.09994" lon="3.01176">
        <ele>441.5</ele>
        <time>2021-03-06T14:35:39Z</time>
      </trkpt>
      <trkpt lat="44.09996" lon="3.01178">
        <ele>441.7</ele>
        <time>2021-03-06T14:35:41Z</time>
      </trkpt>
      <trkpt lat="44.09997" lon="3.01178">
        <ele>441.8</ele>
        <time>2021-03-06T14:35:42Z</time>
      </trkpt>
      <trkpt lat="44.09999" lon="3.01179">
        <ele>442</ele>
        <time>2021-03-06T14:35:43Z</time>
      </trkpt>
      <trkpt lat="44.10002" lon="3.01181">
        <ele>442.3</ele>
        <time>2021-03-06T14:35:45Z</time>
      </trkpt>
      <trkpt lat="44.10002" lon="3.01182">
        <ele>442.4</ele>
        <time>2021-03-06T14:35:47Z</time>
      </trkpt>
      <trkpt lat="44.10003" lon="3.01183">
        <ele>442.5</ele>
        <time>2021-03-06T14:35:48Z</time>
      </trkpt>
      <trkpt lat="44.10004" lon="3.01184">
        <ele>442.7</ele>
        <time>2021-03-06T14:35:49Z</time>
      </trkpt>
      <trkpt lat="44.10005" lon="3.01185">
        <ele>442.8</ele>
        <time>2021-03-06T14:35:50Z</time>
      </trkpt>
      <trkpt lat="44.10006" lon="3.01187">
        <ele>443</ele>
        <time>2021-03-06T14:35:51Z</time>
      </trkpt>
      <trkpt lat="44.10007" lon="3.01189">
        <ele>443.2</ele>
        <time>2021-03-06T14:35:53Z</time>
      </trkpt>
      <trkpt lat="44.10008" lon="3.01191">
        <ele>443.4</ele>
        <time>2021-03-06T14:35:54Z</time>
      </trkpt>
      <trkpt lat="44.10009" lon="3.01192">
        <ele>443.6</ele>
        <time>2021-03-06T14:35:55Z</time>
      </trkpt>
      <trkpt lat="44.1001" lon="3.01194">
        <ele>443.7</ele>
        <time>2021-03-06T14:35:56Z</time>
      </trkpt>
      <trkpt lat="44.10011" lon="3.01195">
        <ele>443.9</ele>
        <time>2021-03-06T14:35:57Z</time>
      </trkpt>
      <trkpt lat="44.10013" lon="3.01198">
        <ele>444.3</ele>
        <time>2021-03-06T14:35:59Z</time>
      </trkpt>
      <trkpt lat="44.10014" lon="3.01199">
        <ele>444.4</ele>
        <time>2021-03-06T14:36:00Z</time>
      </trkpt>
      <trkpt lat="44.10015" lon="3.012">
        <ele>444.6</ele>
        <time>2021-03-06T14:36:01Z</time>
      </trkpt>
      <trkpt lat="44.10016" lon="3.01201">
        <ele>444.8</ele>
        <time>2021-03-06T14:36:02Z</time>
      </trkpt>
      <trkpt lat="44.10017" lon="3.01203">
        <ele>445</ele>
        <time>2021-03-06T14:36:03Z</time>
      </trkpt>
      <trkpt lat="44.10019" lon="3.01204">
        <ele>445.2</ele>
        <time>2021-03-06T14:36:04Z</time>
      </trkpt>
      <trkpt lat="44.1002" lon="3.01205">
        <ele>445.4</ele>
        <time>2021-03-06T14:36:05Z</time>
      </trkpt>
      <trkpt lat="44.10022" lon="3.01207">
        <ele>445.7</ele>
        <time>2021-03-06T14:36:07Z</time>
      </trkpt>
      <trkpt lat="44.10023" lon="3.01208">
        <ele>445.9</ele>
        <time>2021-03-06T14:36:08Z</time>
      </trkpt>
      <trkpt lat="44.10024" lon="3.01209">
        <ele>446.1</ele>
        <time>2021-03-06T14:36:09Z</time>
      </trkpt>
      <trkpt lat="44.10027" lon="3.0121">
        <ele>446.5</ele>
        <time>2021-03-06T14:36:11Z</time>
      </trkpt>
      <trkpt lat="44.10029" lon="3.01212">
        <ele>446.8</ele>
        <time>2021-03-06T14:36:12Z</time>
      </trkpt>
      <trkpt lat="44.1003" lon="3.01213">
        <ele>447</ele>
        <time>2021-03-06T14:36:14Z</time>
      </trkpt>
      <trkpt lat="44.10032" lon="3.01214">
        <ele>447.3</ele>
        <time>2021-03-06T14:36:15Z</time>
      </trkpt>
      <trkpt lat="44.10033" lon="3.01215">
        <ele>447.5</ele>
        <time>2021-03-06T14:36:16Z</time>
      </trkpt>
      <trkpt lat="44.10034" lon="3.01215">
        <ele>447.5</ele>
        <time>2021-03-06T14:36:17Z</time>
      </trkpt>
      <trkpt lat="44.10035" lon="3.01216">
        <ele>447.8</ele>
        <time>2021-03-06T14:36:18Z</time>
      </trkpt>
      <trkpt lat="44.10037" lon="3.01217">
        <ele>448</ele>
        <time>2021-03-06T14:36:19Z</time>
      </trkpt>
      <trkpt lat="44.10039" lon="3.01217">
        <ele>448.4</ele>
        <time>2021-03-06T14:36:21Z</time>
      </trkpt>
      <trkpt lat="44.1004" lon="3.01218">
        <ele>448.5</ele>
        <time>2021-03-06T14:36:22Z</time>
      </trkpt>
      <trkpt lat="44.10041" lon="3.01218">
        <ele>448.6</ele>
        <time>2021-03-06T14:36:23Z</time>
      </trkpt>
      <trkpt lat="44.10043" lon="3.01219">
        <ele>449</ele>
        <time>2021-03-06T14:36:25Z</time>
      </trkpt>
      <trkpt lat="44.10044" lon="3.01219">
        <ele>449.1</ele>
        <time>2021-03-06T14:36:26Z</time>
      </trkpt>
      <trkpt lat="44.10044" lon="3.0122">
        <ele>449.2</ele>
        <time>2021-03-06T14:36:27Z</time>
      </trkpt>
      <trkpt lat="44.10045" lon="3.01221">
        <ele>449.4</ele>
        <time>2021-03-06T14:36:29Z</time>
      </trkpt>
      <trkpt lat="44.10046" lon="3.01221">
        <ele>449.5</ele>
        <time>2021-03-06T14:36:30Z</time>
      </trkpt>
      <trkpt lat="44.10047" lon="3.01223">
        <ele>449.7</ele>
        <time>2021-03-06T14:36:31Z</time>
      </trkpt>
      <trkpt lat="44.10048" lon="3.01223">
        <ele>449.9</ele>
        <time>2021-03-06T14:36:33Z</time>
      </trkpt>
      <trkpt lat="44.10051" lon="3.01225">
        <ele>450.2</ele>
        <time>2021-03-06T14:36:35Z</time>
      </trkpt>
      <trkpt lat="44.10051" lon="3.01226">
        <ele>450.4</ele>
        <time>2021-03-06T14:36:36Z</time>
      </trkpt>
      <trkpt lat="44.10052" lon="3.01227">
        <ele>450.5</ele>
        <time>2021-03-06T14:36:37Z</time>
      </trkpt>
      <trkpt lat="44.10053" lon="3.01229">
        <ele>450.7</ele>
        <time>2021-03-06T14:36:38Z</time>
      </trkpt>
      <trkpt lat="44.10053" lon="3.0123">
        <ele>450.9</ele>
        <time>2021-03-06T14:36:39Z</time>
      </trkpt>
      <trkpt lat="44.10054" lon="3.01232">
        <ele>451</ele>
        <time>2021-03-06T14:36:41Z</time>
      </trkpt>
      <trkpt lat="44.10054" lon="3.01233">
        <ele>451.1</ele>
        <time>2021-03-06T14:36:42Z</time>
      </trkpt>
      <trkpt lat="44.10055" lon="3.01234">
        <ele>451.3</ele>
        <time>2021-03-06T14:36:43Z</time>
      </trkpt>
      <trkpt lat="44.10056" lon="3.01235">
        <ele>451.4</ele>
        <time>2021-03-06T14:36:45Z</time>
      </trkpt>
      <trkpt lat="44.10057" lon="3.01236">
        <ele>451.5</ele>
        <time>2021-03-06T14:36:46Z</time>
      </trkpt>
      <trkpt lat="44.10058" lon="3.01236">
        <ele>451.7</ele>
        <time>2021-03-06T14:36:48Z</time>
      </trkpt>
      <trkpt lat="44.10059" lon="3.01236">
        <ele>451.8</ele>
        <time>2021-03-06T14:36:50Z</time>
      </trkpt>
      <trkpt lat="44.10059" lon="3.01236">
        <ele>451.9</ele>
        <time>2021-03-06T14:36:51Z</time>
      </trkpt>
      <trkpt lat="44.1006" lon="3.01237">
        <ele>452</ele>
        <time>2021-03-06T14:36:52Z</time>
      </trkpt>
      <trkpt lat="44.10061" lon="3.01238">
        <ele>452.1</ele>
        <time>2021-03-06T14:36:54Z</time>
      </trkpt>
      <trkpt lat="44.10062" lon="3.01239">
        <ele>452.3</ele>
        <time>2021-03-06T14:36:55Z</time>
      </trkpt>
      <trkpt lat="44.10063" lon="3.01241">
        <ele>452.5</ele>
        <time>2021-03-06T14:36:57Z</time>
      </trkpt>
      <trkpt lat="44.10064" lon="3.01243">
        <ele>452.7</ele>
        <time>2021-03-06T14:36:59Z</time>
      </trkpt>
      <trkpt lat="44.10066" lon="3.01247">
        <ele>453</ele>
        <time>2021-03-06T14:37:01Z</time>
      </trkpt>
      <trkpt lat="44.10069" lon="3.01251">
        <ele>453.3</ele>
        <time>2021-03-06T14:37:02Z</time>
      </trkpt>
      <trkpt lat="44.10071" lon="3.01254">
        <ele>453.7</ele>
        <time>2021-03-06T14:37:05Z</time>
      </trkpt>
      <trkpt lat="44.10072" lon="3.01256">
        <ele>453.9</ele>
        <time>2021-03-06T14:37:06Z</time>
      </trkpt>
      <trkpt lat="44.10074" lon="3.01257">
        <ele>454.1</ele>
        <time>2021-03-06T14:37:07Z</time>
      </trkpt>
      <trkpt lat="44.10075" lon="3.01258">
        <ele>454.2</ele>
        <time>2021-03-06T14:37:08Z</time>
      </trkpt>
      <trkpt lat="44.10077" lon="3.01258">
        <ele>454.5</ele>
        <time>2021-03-06T14:37:09Z</time>
      </trkpt>
      <trkpt lat="44.1008" lon="3.01259">
        <ele>454.9</ele>
        <time>2021-03-06T14:37:11Z</time>
      </trkpt>
      <trkpt lat="44.10081" lon="3.01259">
        <ele>455</ele>
        <time>2021-03-06T14:37:12Z</time>
      </trkpt>
      <trkpt lat="44.10082" lon="3.01259">
        <ele>455.2</ele>
        <time>2021-03-06T14:37:13Z</time>
      </trkpt>
      <trkpt lat="44.10084" lon="3.01259">
        <ele>455.4</ele>
        <time>2021-03-06T14:37:15Z</time>
      </trkpt>
      <trkpt lat="44.10086" lon="3.0126">
        <ele>455.7</ele>
        <time>2021-03-06T14:37:16Z</time>
      </trkpt>
      <trkpt lat="44.10087" lon="3.0126">
        <ele>455.9</ele>
        <time>2021-03-06T14:37:17Z</time>
      </trkpt>
      <trkpt lat="44.1009" lon="3.01262">
        <ele>456.2</ele>
        <time>2021-03-06T14:37:19Z</time>
      </trkpt>
      <trkpt lat="44.1009" lon="3.01263">
        <ele>456.3</ele>
        <time>2021-03-06T14:37:20Z</time>
      </trkpt>
      <trkpt lat="44.1009" lon="3.01264">
        <ele>456.4</ele>
        <time>2021-03-06T14:37:21Z</time>
      </trkpt>
      <trkpt lat="44.10091" lon="3.01266">
        <ele>456.8</ele>
        <time>2021-03-06T14:37:22Z</time>
      </trkpt>
      <trkpt lat="44.10092" lon="3.01268">
        <ele>457</ele>
        <time>2021-03-06T14:37:24Z</time>
      </trkpt>
      <trkpt lat="44.10094" lon="3.01269">
        <ele>457.3</ele>
        <time>2021-03-06T14:37:25Z</time>
      </trkpt>
      <trkpt lat="44.10095" lon="3.01271">
        <ele>457.6</ele>
        <time>2021-03-06T14:37:26Z</time>
      </trkpt>
      <trkpt lat="44.10098" lon="3.01274">
        <ele>458.2</ele>
        <time>2021-03-06T14:37:28Z</time>
      </trkpt>
      <trkpt lat="44.10099" lon="3.01275">
        <ele>458.3</ele>
        <time>2021-03-06T14:37:29Z</time>
      </trkpt>
      <trkpt lat="44.101" lon="3.01277">
        <ele>458.5</ele>
        <time>2021-03-06T14:37:30Z</time>
      </trkpt>
      <trkpt lat="44.10102" lon="3.01278">
        <ele>458.8</ele>
        <time>2021-03-06T14:37:32Z</time>
      </trkpt>
      <trkpt lat="44.10103" lon="3.01279">
        <ele>458.9</ele>
        <time>2021-03-06T14:37:33Z</time>
      </trkpt>
      <trkpt lat="44.10104" lon="3.01281">
        <ele>459.1</ele>
        <time>2021-03-06T14:37:34Z</time>
      </trkpt>
      <trkpt lat="44.10106" lon="3.01283">
        <ele>459.4</ele>
        <time>2021-03-06T14:37:36Z</time>
      </trkpt>
      <trkpt lat="44.10106" lon="3.01284">
        <ele>459.5</ele>
        <time>2021-03-06T14:37:37Z</time>
      </trkpt>
      <trkpt lat="44.10108" lon="3.01285">
        <ele>459.7</ele>
        <time>2021-03-06T14:37:38Z</time>
      </trkpt>
      <trkpt lat="44.10109" lon="3.01286">
        <ele>459.9</ele>
        <time>2021-03-06T14:37:40Z</time>
      </trkpt>
      <trkpt lat="44.10112" lon="3.01289">
        <ele>460.3</ele>
        <time>2021-03-06T14:37:42Z</time>
      </trkpt>
      <trkpt lat="44.10112" lon="3.01289">
        <ele>460.4</ele>
        <time>2021-03-06T14:37:43Z</time>
      </trkpt>
      <trkpt lat="44.10114" lon="3.0129">
        <ele>460.5</ele>
        <time>2021-03-06T14:37:44Z</time>
      </trkpt>
      <trkpt lat="44.10115" lon="3.01291">
        <ele>460.7</ele>
        <time>2021-03-06T14:37:46Z</time>
      </trkpt>
      <trkpt lat="44.10116" lon="3.01291">
        <ele>460.9</ele>
        <time>2021-03-06T14:37:47Z</time>
      </trkpt>
      <trkpt lat="44.10116" lon="3.01291">
        <ele>461</ele>
        <time>2021-03-06T14:37:48Z</time>
      </trkpt>
      <trkpt lat="44.10117" lon="3.01291">
        <ele>461</ele>
        <time>2021-03-06T14:37:49Z</time>
      </trkpt>
      <trkpt lat="44.10117" lon="3.01291">
        <ele>461.1</ele>
        <time>2021-03-06T14:37:50Z</time>
      </trkpt>
      <trkpt lat="44.10118" lon="3.01291">
        <ele>461.2</ele>
        <time>2021-03-06T14:37:52Z</time>
      </trkpt>
      <trkpt lat="44.10118" lon="3.01291">
        <ele>461.2</ele>
        <time>2021-03-06T14:37:53Z</time>
      </trkpt>
      <trkpt lat="44.10119" lon="3.01291">
        <ele>461.3</ele>
        <time>2021-03-06T14:37:54Z</time>
      </trkpt>
      <trkpt lat="44.1012" lon="3.01291">
        <ele>461.5</ele>
        <time>2021-03-06T14:37:55Z</time>
      </trkpt>
      <trkpt lat="44.10121" lon="3.01292">
        <ele>461.7</ele>
        <time>2021-03-06T14:37:57Z</time>
      </trkpt>
      <trkpt lat="44.10122" lon="3.01293">
        <ele>461.9</ele>
        <time>2021-03-06T14:37:58Z</time>
      </trkpt>
      <trkpt lat="44.10124" lon="3.01294">
        <ele>462.1</ele>
        <time>2021-03-06T14:37:59Z</time>
      </trkpt>
      <trkpt lat="44.10126" lon="3.01294">
        <ele>462.4</ele>
        <time>2021-03-06T14:38:01Z</time>
      </trkpt>
      <trkpt lat="44.10127" lon="3.01294">
        <ele>462.6</ele>
        <time>2021-03-06T14:38:02Z</time>
      </trkpt>
      <trkpt lat="44.10129" lon="3.01295">
        <ele>462.9</ele>
        <time>2021-03-06T14:38:03Z</time>
      </trkpt>
      <trkpt lat="44.1013" lon="3.01296">
        <ele>463</ele>
        <time>2021-03-06T14:38:04Z</time>
      </trkpt>
      <trkpt lat="44.1013" lon="3.01296">
        <ele>463.2</ele>
        <time>2021-03-06T14:38:05Z</time>
      </trkpt>
      <trkpt lat="44.10133" lon="3.01298">
        <ele>463.6</ele>
        <time>2021-03-06T14:38:06Z</time>
      </trkpt>
      <trkpt lat="44.10134" lon="3.01299">
        <ele>463.8</ele>
        <time>2021-03-06T14:38:08Z</time>
      </trkpt>
      <trkpt lat="44.10135" lon="3.013">
        <ele>464</ele>
        <time>2021-03-06T14:38:09Z</time>
      </trkpt>
      <trkpt lat="44.10136" lon="3.01301">
        <ele>464.2</ele>
        <time>2021-03-06T14:38:10Z</time>
      </trkpt>
      <trkpt lat="44.10137" lon="3.01302">
        <ele>464.4</ele>
        <time>2021-03-06T14:38:12Z</time>
      </trkpt>
      <trkpt lat="44.10139" lon="3.01304">
        <ele>464.6</ele>
        <time>2021-03-06T14:38:13Z</time>
      </trkpt>
      <trkpt lat="44.1014" lon="3.01305">
        <ele>464.9</ele>
        <time>2021-03-06T14:38:15Z</time>
      </trkpt>
      <trkpt lat="44.10141" lon="3.01307">
        <ele>465.2</ele>
        <time>2021-03-06T14:38:16Z</time>
      </trkpt>
      <trkpt lat="44.10142" lon="3.01308">
        <ele>465.5</ele>
        <time>2021-03-06T14:38:18Z</time>
      </trkpt>
      <trkpt lat="44.10143" lon="3.01308">
        <ele>465.6</ele>
        <time>2021-03-06T14:38:19Z</time>
      </trkpt>
      <trkpt lat="44.10144" lon="3.01309">
        <ele>465.7</ele>
        <time>2021-03-06T14:38:20Z</time>
      </trkpt>
      <trkpt lat="44.10144" lon="3.01309">
        <ele>465.9</ele>
        <time>2021-03-06T14:38:21Z</time>
      </trkpt>
      <trkpt lat="44.10145" lon="3.0131">
        <ele>466.1</ele>
        <time>2021-03-06T14:38:22Z</time>
      </trkpt>
      <trkpt lat="44.10146" lon="3.01311">
        <ele>466.2</ele>
        <time>2021-03-06T14:38:24Z</time>
      </trkpt>
      <trkpt lat="44.10148" lon="3.01312">
        <ele>466.5</ele>
        <time>2021-03-06T14:38:25Z</time>
      </trkpt>
      <trkpt lat="44.10149" lon="3.01313">
        <ele>466.7</ele>
        <time>2021-03-06T14:38:26Z</time>
      </trkpt>
      <trkpt lat="44.1015" lon="3.01315">
        <ele>467</ele>
        <time>2021-03-06T14:38:27Z</time>
      </trkpt>
      <trkpt lat="44.10151" lon="3.01316">
        <ele>467.1</ele>
        <time>2021-03-06T14:38:28Z</time>
      </trkpt>
      <trkpt lat="44.10153" lon="3.01319">
        <ele>467.7</ele>
        <time>2021-03-06T14:38:31Z</time>
      </trkpt>
      <trkpt lat="44.10154" lon="3.01321">
        <ele>468</ele>
        <time>2021-03-06T14:38:32Z</time>
      </trkpt>
      <trkpt lat="44.10155" lon="3.01323">
        <ele>468.3</ele>
        <time>2021-03-06T14:38:34Z</time>
      </trkpt>
      <trkpt lat="44.10156" lon="3.01324">
        <ele>468.4</ele>
        <time>2021-03-06T14:38:35Z</time>
      </trkpt>
      <trkpt lat="44.10156" lon="3.01324">
        <ele>468.5</ele>
        <time>2021-03-06T14:38:36Z</time>
      </trkpt>
      <trkpt lat="44.10157" lon="3.01325">
        <ele>468.6</ele>
        <time>2021-03-06T14:38:37Z</time>
      </trkpt>
      <trkpt lat="44.10157" lon="3.01325">
        <ele>468.7</ele>
        <time>2021-03-06T14:38:39Z</time>
      </trkpt>
      <trkpt lat="44.10158" lon="3.01326">
        <ele>468.8</ele>
        <time>2021-03-06T14:38:40Z</time>
      </trkpt>
      <trkpt lat="44.10158" lon="3.01326">
        <ele>468.9</ele>
        <time>2021-03-06T14:38:42Z</time>
      </trkpt>
      <trkpt lat="44.10158" lon="3.01327">
        <ele>468.9</ele>
        <time>2021-03-06T14:38:44Z</time>
      </trkpt>
      <trkpt lat="44.10158" lon="3.01327">
        <ele>469</ele>
        <time>2021-03-06T14:38:45Z</time>
      </trkpt>
      <trkpt lat="44.10158" lon="3.01327">
        <ele>469.1</ele>
        <time>2021-03-06T14:38:47Z</time>
      </trkpt>
      <trkpt lat="44.10158" lon="3.01327">
        <ele>469.1</ele>
        <time>2021-03-06T14:38:48Z</time>
      </trkpt>
      <trkpt lat="44.1016" lon="3.01328">
        <ele>469.5</ele>
        <time>2021-03-06T14:39:10Z</time>
      </trkpt>
      <trkpt lat="44.10161" lon="3.01329">
        <ele>469.8</ele>
        <time>2021-03-06T14:39:12Z</time>
      </trkpt>
      <trkpt lat="44.10163" lon="3.0133">
        <ele>470.1</ele>
        <time>2021-03-06T14:39:13Z</time>
      </trkpt>
      <trkpt lat="44.10164" lon="3.0133">
        <ele>470.3</ele>
        <time>2021-03-06T14:39:14Z</time>
      </trkpt>
      <trkpt lat="44.10166" lon="3.0133">
        <ele>470.6</ele>
        <time>2021-03-06T14:39:15Z</time>
      </trkpt>
      <trkpt lat="44.10167" lon="3.01331">
        <ele>470.9</ele>
        <time>2021-03-06T14:39:17Z</time>
      </trkpt>
      <trkpt lat="44.10168" lon="3.01331">
        <ele>471</ele>
        <time>2021-03-06T14:39:18Z</time>
      </trkpt>
      <trkpt lat="44.10168" lon="3.01331">
        <ele>471.1</ele>
        <time>2021-03-06T14:39:19Z</time>
      </trkpt>
      <trkpt lat="44.10168" lon="3.01331">
        <ele>471.2</ele>
        <time>2021-03-06T14:39:20Z</time>
      </trkpt>
      <trkpt lat="44.10169" lon="3.01331">
        <ele>471.2</ele>
        <time>2021-03-06T14:39:22Z</time>
      </trkpt>
      <trkpt lat="44.10169" lon="3.01331">
        <ele>471.3</ele>
        <time>2021-03-06T14:39:23Z</time>
      </trkpt>
      <trkpt lat="44.10169" lon="3.01331">
        <ele>471.4</ele>
        <time>2021-03-06T14:39:24Z</time>
      </trkpt>
      <trkpt lat="44.1017" lon="3.0133">
        <ele>471.4</ele>
        <time>2021-03-06T14:39:25Z</time>
      </trkpt>
      <trkpt lat="44.1017" lon="3.0133">
        <ele>471.5</ele>
        <time>2021-03-06T14:39:26Z</time>
      </trkpt>
      <trkpt lat="44.10171" lon="3.0133">
        <ele>471.8</ele>
        <time>2021-03-06T14:39:28Z</time>
      </trkpt>
      <trkpt lat="44.10173" lon="3.01329">
        <ele>472.2</ele>
        <time>2021-03-06T14:39:29Z</time>
      </trkpt>
      <trkpt lat="44.10174" lon="3.01329">
        <ele>472.4</ele>
        <time>2021-03-06T14:39:31Z</time>
      </trkpt>
      <trkpt lat="44.10175" lon="3.01328">
        <ele>472.6</ele>
        <time>2021-03-06T14:39:32Z</time>
      </trkpt>
      <trkpt lat="44.10176" lon="3.01328">
        <ele>472.8</ele>
        <time>2021-03-06T14:39:34Z</time>
      </trkpt>
      <trkpt lat="44.10177" lon="3.01327">
        <ele>473</ele>
        <time>2021-03-06T14:39:35Z</time>
      </trkpt>
      <trkpt lat="44.10181" lon="3.01328">
        <ele>473.8</ele>
        <time>2021-03-06T14:39:38Z</time>
      </trkpt>
      <trkpt lat="44.10182" lon="3.01328">
        <ele>474</ele>
        <time>2021-03-06T14:39:39Z</time>
      </trkpt>
      <trkpt lat="44.10183" lon="3.01328">
        <ele>474.3</ele>
        <time>2021-03-06T14:39:41Z</time>
      </trkpt>
      <trkpt lat="44.10183" lon="3.01328">
        <ele>474.4</ele>
        <time>2021-03-06T14:39:42Z</time>
      </trkpt>
      <trkpt lat="44.10184" lon="3.01329">
        <ele>474.6</ele>
        <time>2021-03-06T14:39:44Z</time>
      </trkpt>
      <trkpt lat="44.10184" lon="3.0133">
        <ele>474.7</ele>
        <time>2021-03-06T14:39:46Z</time>
      </trkpt>
      <trkpt lat="44.10184" lon="3.01331">
        <ele>474.9</ele>
        <time>2021-03-06T14:39:48Z</time>
      </trkpt>
      <trkpt lat="44.10185" lon="3.01332">
        <ele>474.9</ele>
        <time>2021-03-06T14:39:49Z</time>
      </trkpt>
      <trkpt lat="44.10186" lon="3.01333">
        <ele>475.4</ele>
        <time>2021-03-06T14:40:00Z</time>
      </trkpt>
      <trkpt lat="44.10187" lon="3.01334">
        <ele>475.6</ele>
        <time>2021-03-06T14:40:01Z</time>
      </trkpt>
      <trkpt lat="44.10188" lon="3.01333">
        <ele>475.7</ele>
        <time>2021-03-06T14:40:02Z</time>
      </trkpt>
      <trkpt lat="44.10188" lon="3.01333">
        <ele>475.7</ele>
        <time>2021-03-06T14:40:04Z</time>
      </trkpt>
      <trkpt lat="44.10189" lon="3.01334">
        <ele>475.9</ele>
        <time>2021-03-06T14:40:05Z</time>
      </trkpt>
      <trkpt lat="44.1019" lon="3.01334">
        <ele>476.1</ele>
        <time>2021-03-06T14:40:07Z</time>
      </trkpt>
      <trkpt lat="44.1019" lon="3.01334">
        <ele>476.2</ele>
        <time>2021-03-06T14:40:08Z</time>
      </trkpt>
      <trkpt lat="44.10192" lon="3.01335">
        <ele>476.5</ele>
        <time>2021-03-06T14:40:10Z</time>
      </trkpt>
      <trkpt lat="44.10193" lon="3.01335">
        <ele>476.7</ele>
        <time>2021-03-06T14:40:11Z</time>
      </trkpt>
      <trkpt lat="44.10194" lon="3.01336">
        <ele>477</ele>
        <time>2021-03-06T14:40:12Z</time>
      </trkpt>
      <trkpt lat="44.10196" lon="3.01336">
        <ele>477.3</ele>
        <time>2021-03-06T14:40:13Z</time>
      </trkpt>
      <trkpt lat="44.10199" lon="3.01338">
        <ele>478</ele>
        <time>2021-03-06T14:40:15Z</time>
      </trkpt>
      <trkpt lat="44.10199" lon="3.01339">
        <ele>478.1</ele>
        <time>2021-03-06T14:40:16Z</time>
      </trkpt>
      <trkpt lat="44.10201" lon="3.0134">
        <ele>478.4</ele>
        <time>2021-03-06T14:40:17Z</time>
      </trkpt>
      <trkpt lat="44.10201" lon="3.01341">
        <ele>478.6</ele>
        <time>2021-03-06T14:40:19Z</time>
      </trkpt>
      <trkpt lat="44.10202" lon="3.01341">
        <ele>478.8</ele>
        <time>2021-03-06T14:40:20Z</time>
      </trkpt>
      <trkpt lat="44.10204" lon="3.01342">
        <ele>479.1</ele>
        <time>2021-03-06T14:40:21Z</time>
      </trkpt>
      <trkpt lat="44.10205" lon="3.01343">
        <ele>479.3</ele>
        <time>2021-03-06T14:40:23Z</time>
      </trkpt>
      <trkpt lat="44.10206" lon="3.01343">
        <ele>479.5</ele>
        <time>2021-03-06T14:40:24Z</time>
      </trkpt>
      <trkpt lat="44.10208" lon="3.01343">
        <ele>479.8</ele>
        <time>2021-03-06T14:40:25Z</time>
      </trkpt>
      <trkpt lat="44.10211" lon="3.01344">
        <ele>480.4</ele>
        <time>2021-03-06T14:40:27Z</time>
      </trkpt>
      <trkpt lat="44.10213" lon="3.01345">
        <ele>480.9</ele>
        <time>2021-03-06T14:40:29Z</time>
      </trkpt>
      <trkpt lat="44.10216" lon="3.01345">
        <ele>481.3</ele>
        <time>2021-03-06T14:40:31Z</time>
      </trkpt>
      <trkpt lat="44.10217" lon="3.01346">
        <ele>481.6</ele>
        <time>2021-03-06T14:40:32Z</time>
      </trkpt>
      <trkpt lat="44.10218" lon="3.01346">
        <ele>481.9</ele>
        <time>2021-03-06T14:40:33Z</time>
      </trkpt>
      <trkpt lat="44.10221" lon="3.01347">
        <ele>482.3</ele>
        <time>2021-03-06T14:40:34Z</time>
      </trkpt>
      <trkpt lat="44.10222" lon="3.01348">
        <ele>482.6</ele>
        <time>2021-03-06T14:40:36Z</time>
      </trkpt>
      <trkpt lat="44.10223" lon="3.01348">
        <ele>482.8</ele>
        <time>2021-03-06T14:40:37Z</time>
      </trkpt>
      <trkpt lat="44.10224" lon="3.01349">
        <ele>483</ele>
        <time>2021-03-06T14:40:38Z</time>
      </trkpt>
      <trkpt lat="44.10225" lon="3.01349">
        <ele>483.2</ele>
        <time>2021-03-06T14:40:39Z</time>
      </trkpt>
      <trkpt lat="44.10225" lon="3.01349">
        <ele>483.3</ele>
        <time>2021-03-06T14:40:41Z</time>
      </trkpt>
      <trkpt lat="44.10226" lon="3.01349">
        <ele>483.4</ele>
        <time>2021-03-06T14:40:43Z</time>
      </trkpt>
      <trkpt lat="44.10227" lon="3.01349">
        <ele>483.5</ele>
        <time>2021-03-06T14:40:44Z</time>
      </trkpt>
      <trkpt lat="44.10228" lon="3.01349">
        <ele>483.8</ele>
        <time>2021-03-06T14:40:46Z</time>
      </trkpt>
      <trkpt lat="44.1023" lon="3.01349">
        <ele>484.1</ele>
        <time>2021-03-06T14:40:48Z</time>
      </trkpt>
      <trkpt lat="44.10231" lon="3.0135">
        <ele>484.4</ele>
        <time>2021-03-06T14:40:49Z</time>
      </trkpt>
      <trkpt lat="44.10233" lon="3.01351">
        <ele>484.8</ele>
        <time>2021-03-06T14:40:51Z</time>
      </trkpt>
      <trkpt lat="44.10234" lon="3.01352">
        <ele>485.1</ele>
        <time>2021-03-06T14:40:52Z</time>
      </trkpt>
      <trkpt lat="44.10235" lon="3.01352">
        <ele>485.3</ele>
        <time>2021-03-06T14:40:53Z</time>
      </trkpt>
      <trkpt lat="44.10237" lon="3.01353">
        <ele>485.6</ele>
        <time>2021-03-06T14:40:54Z</time>
      </trkpt>
      <trkpt lat="44.10239" lon="3.01354">
        <ele>486</ele>
        <time>2021-03-06T14:40:56Z</time>
      </trkpt>
      <trkpt lat="44.1024" lon="3.01355">
        <ele>486.2</ele>
        <time>2021-03-06T14:40:57Z</time>
      </trkpt>
      <trkpt lat="44.10241" lon="3.01357">
        <ele>486.6</ele>
        <time>2021-03-06T14:40:58Z</time>
      </trkpt>
      <trkpt lat="44.10242" lon="3.01359">
        <ele>486.8</ele>
        <time>2021-03-06T14:41:00Z</time>
      </trkpt>
      <trkpt lat="44.10244" lon="3.0136">
        <ele>487</ele>
        <time>2021-03-06T14:41:01Z</time>
      </trkpt>
      <trkpt lat="44.10245" lon="3.01361">
        <ele>487.2</ele>
        <time>2021-03-06T14:41:02Z</time>
      </trkpt>
      <trkpt lat="44.10246" lon="3.01362">
        <ele>487.4</ele>
        <time>2021-03-06T14:41:03Z</time>
      </trkpt>
      <trkpt lat="44.10247" lon="3.01363">
        <ele>487.6</ele>
        <time>2021-03-06T14:41:05Z</time>
      </trkpt>
      <trkpt lat="44.10249" lon="3.01364">
        <ele>487.9</ele>
        <time>2021-03-06T14:41:07Z</time>
      </trkpt>
      <trkpt lat="44.1025" lon="3.01364">
        <ele>488</ele>
        <time>2021-03-06T14:41:08Z</time>
      </trkpt>
      <trkpt lat="44.10251" lon="3.01364">
        <ele>488.2</ele>
        <time>2021-03-06T14:41:10Z</time>
      </trkpt>
      <trkpt lat="44.10252" lon="3.01364">
        <ele>488.3</ele>
        <time>2021-03-06T14:41:11Z</time>
      </trkpt>
      <trkpt lat="44.10253" lon="3.01365">
        <ele>488.5</ele>
        <time>2021-03-06T14:41:12Z</time>
      </trkpt>
      <trkpt lat="44.10254" lon="3.01365">
        <ele>488.6</ele>
        <time>2021-03-06T14:41:14Z</time>
      </trkpt>
      <trkpt lat="44.10256" lon="3.01366">
        <ele>488.8</ele>
        <time>2021-03-06T14:41:15Z</time>
      </trkpt>
      <trkpt lat="44.10259" lon="3.01367">
        <ele>489.2</ele>
        <time>2021-03-06T14:41:16Z</time>
      </trkpt>
      <trkpt lat="44.1026" lon="3.01368">
        <ele>489.4</ele>
        <time>2021-03-06T14:41:18Z</time>
      </trkpt>
      <trkpt lat="44.10262" lon="3.01368">
        <ele>489.6</ele>
        <time>2021-03-06T14:41:19Z</time>
      </trkpt>
      <trkpt lat="44.10263" lon="3.01369">
        <ele>489.7</ele>
        <time>2021-03-06T14:41:20Z</time>
      </trkpt>
      <trkpt lat="44.10266" lon="3.01371">
        <ele>490.2</ele>
        <time>2021-03-06T14:41:22Z</time>
      </trkpt>
      <trkpt lat="44.10267" lon="3.01372">
        <ele>490.3</ele>
        <time>2021-03-06T14:41:23Z</time>
      </trkpt>
      <trkpt lat="44.10269" lon="3.01373">
        <ele>490.5</ele>
        <time>2021-03-06T14:41:25Z</time>
      </trkpt>
      <trkpt lat="44.1027" lon="3.01374">
        <ele>490.7</ele>
        <time>2021-03-06T14:41:26Z</time>
      </trkpt>
      <trkpt lat="44.10271" lon="3.01375">
        <ele>490.9</ele>
        <time>2021-03-06T14:41:27Z</time>
      </trkpt>
      <trkpt lat="44.10272" lon="3.01376">
        <ele>491.1</ele>
        <time>2021-03-06T14:41:29Z</time>
      </trkpt>
      <trkpt lat="44.10273" lon="3.01378">
        <ele>491.3</ele>
        <time>2021-03-06T14:41:30Z</time>
      </trkpt>
      <trkpt lat="44.10274" lon="3.01378">
        <ele>491.4</ele>
        <time>2021-03-06T14:41:31Z</time>
      </trkpt>
      <trkpt lat="44.10275" lon="3.0138">
        <ele>491.6</ele>
        <time>2021-03-06T14:41:33Z</time>
      </trkpt>
      <trkpt lat="44.10277" lon="3.01382">
        <ele>491.9</ele>
        <time>2021-03-06T14:41:34Z</time>
      </trkpt>
      <trkpt lat="44.10278" lon="3.01383">
        <ele>492</ele>
        <time>2021-03-06T14:41:35Z</time>
      </trkpt>
      <trkpt lat="44.10278" lon="3.01383">
        <ele>492.1</ele>
        <time>2021-03-06T14:41:36Z</time>
      </trkpt>
      <trkpt lat="44.10279" lon="3.01384">
        <ele>492.2</ele>
        <time>2021-03-06T14:41:38Z</time>
      </trkpt>
      <trkpt lat="44.1028" lon="3.01385">
        <ele>492.4</ele>
        <time>2021-03-06T14:41:39Z</time>
      </trkpt>
      <trkpt lat="44.10281" lon="3.01386">
        <ele>492.5</ele>
        <time>2021-03-06T14:41:40Z</time>
      </trkpt>
      <trkpt lat="44.10282" lon="3.01387">
        <ele>492.7</ele>
        <time>2021-03-06T14:41:42Z</time>
      </trkpt>
      <trkpt lat="44.10283" lon="3.01388">
        <ele>492.8</ele>
        <time>2021-03-06T14:41:43Z</time>
      </trkpt>
      <trkpt lat="44.10283" lon="3.01389">
        <ele>493</ele>
        <time>2021-03-06T14:41:45Z</time>
      </trkpt>
      <trkpt lat="44.10284" lon="3.0139">
        <ele>493.1</ele>
        <time>2021-03-06T14:41:46Z</time>
      </trkpt>
      <trkpt lat="44.10285" lon="3.01391">
        <ele>493.2</ele>
        <time>2021-03-06T14:41:47Z</time>
      </trkpt>
      <trkpt lat="44.10286" lon="3.01392">
        <ele>493.3</ele>
        <time>2021-03-06T14:41:48Z</time>
      </trkpt>
      <trkpt lat="44.10288" lon="3.01395">
        <ele>493.7</ele>
        <time>2021-03-06T14:41:50Z</time>
      </trkpt>
      <trkpt lat="44.10289" lon="3.01395">
        <ele>493.8</ele>
        <time>2021-03-06T14:41:51Z</time>
      </trkpt>
      <trkpt lat="44.10292" lon="3.01397">
        <ele>494.2</ele>
        <time>2021-03-06T14:41:53Z</time>
      </trkpt>
      <trkpt lat="44.10294" lon="3.01397">
        <ele>494.4</ele>
        <time>2021-03-06T14:41:54Z</time>
      </trkpt>
      <trkpt lat="44.10295" lon="3.01397">
        <ele>494.5</ele>
        <time>2021-03-06T14:41:56Z</time>
      </trkpt>
      <trkpt lat="44.10297" lon="3.01397">
        <ele>494.7</ele>
        <time>2021-03-06T14:41:57Z</time>
      </trkpt>
      <trkpt lat="44.10299" lon="3.01398">
        <ele>494.9</ele>
        <time>2021-03-06T14:41:58Z</time>
      </trkpt>
      <trkpt lat="44.10301" lon="3.01399">
        <ele>495.1</ele>
        <time>2021-03-06T14:41:59Z</time>
      </trkpt>
      <trkpt lat="44.10302" lon="3.01399">
        <ele>495.2</ele>
        <time>2021-03-06T14:42:01Z</time>
      </trkpt>
      <trkpt lat="44.10303" lon="3.014">
        <ele>495.4</ele>
        <time>2021-03-06T14:42:02Z</time>
      </trkpt>
      <trkpt lat="44.10305" lon="3.014">
        <ele>495.6</ele>
        <time>2021-03-06T14:42:03Z</time>
      </trkpt>
      <trkpt lat="44.10307" lon="3.01401">
        <ele>495.7</ele>
        <time>2021-03-06T14:42:05Z</time>
      </trkpt>
      <trkpt lat="44.10308" lon="3.01401">
        <ele>495.9</ele>
        <time>2021-03-06T14:42:06Z</time>
      </trkpt>
      <trkpt lat="44.1031" lon="3.01402">
        <ele>496.1</ele>
        <time>2021-03-06T14:42:07Z</time>
      </trkpt>
      <trkpt lat="44.10312" lon="3.01403">
        <ele>496.4</ele>
        <time>2021-03-06T14:42:08Z</time>
      </trkpt>
      <trkpt lat="44.10313" lon="3.01403">
        <ele>496.6</ele>
        <time>2021-03-06T14:42:10Z</time>
      </trkpt>
      <trkpt lat="44.10317" lon="3.01404">
        <ele>497</ele>
        <time>2021-03-06T14:42:11Z</time>
      </trkpt>
      <trkpt lat="44.10318" lon="3.01404">
        <ele>497.1</ele>
        <time>2021-03-06T14:42:12Z</time>
      </trkpt>
      <trkpt lat="44.1032" lon="3.01404">
        <ele>497.3</ele>
        <time>2021-03-06T14:42:14Z</time>
      </trkpt>
      <trkpt lat="44.10321" lon="3.01404">
        <ele>497.5</ele>
        <time>2021-03-06T14:42:15Z</time>
      </trkpt>
      <trkpt lat="44.10323" lon="3.01404">
        <ele>497.7</ele>
        <time>2021-03-06T14:42:17Z</time>
      </trkpt>
      <trkpt lat="44.10325" lon="3.01405">
        <ele>497.9</ele>
        <time>2021-03-06T14:42:18Z</time>
      </trkpt>
      <trkpt lat="44.10326" lon="3.01405">
        <ele>498.2</ele>
        <time>2021-03-06T14:42:19Z</time>
      </trkpt>
      <trkpt lat="44.10327" lon="3.01405">
        <ele>498.3</ele>
        <time>2021-03-06T14:42:20Z</time>
      </trkpt>
      <trkpt lat="44.1033" lon="3.01406">
        <ele>498.6</ele>
        <time>2021-03-06T14:42:21Z</time>
      </trkpt>
      <trkpt lat="44.10331" lon="3.01406">
        <ele>498.7</ele>
        <time>2021-03-06T14:42:23Z</time>
      </trkpt>
      <trkpt lat="44.10332" lon="3.01406">
        <ele>498.8</ele>
        <time>2021-03-06T14:42:24Z</time>
      </trkpt>
      <trkpt lat="44.10333" lon="3.01406">
        <ele>499</ele>
        <time>2021-03-06T14:42:25Z</time>
      </trkpt>
      <trkpt lat="44.10333" lon="3.01407">
        <ele>499.1</ele>
        <time>2021-03-06T14:42:26Z</time>
      </trkpt>
      <trkpt lat="44.10334" lon="3.01408">
        <ele>499.2</ele>
        <time>2021-03-06T14:42:28Z</time>
      </trkpt>
      <trkpt lat="44.10336" lon="3.01408">
        <ele>499.4</ele>
        <time>2021-03-06T14:42:29Z</time>
      </trkpt>
      <trkpt lat="44.10337" lon="3.01408">
        <ele>499.5</ele>
        <time>2021-03-06T14:42:30Z</time>
      </trkpt>
      <trkpt lat="44.10337" lon="3.01408">
        <ele>499.6</ele>
        <time>2021-03-06T14:42:32Z</time>
      </trkpt>
      <trkpt lat="44.10337" lon="3.01408">
        <ele>499.6</ele>
        <time>2021-03-06T14:42:33Z</time>
      </trkpt>
      <trkpt lat="44.10338" lon="3.01409">
        <ele>499.7</ele>
        <time>2021-03-06T14:42:34Z</time>
      </trkpt>
      <trkpt lat="44.10339" lon="3.01409">
        <ele>499.9</ele>
        <time>2021-03-06T14:42:36Z</time>
      </trkpt>
      <trkpt lat="44.1034" lon="3.01409">
        <ele>500</ele>
        <time>2021-03-06T14:42:37Z</time>
      </trkpt>
      <trkpt lat="44.10342" lon="3.01409">
        <ele>500.2</ele>
        <time>2021-03-06T14:42:38Z</time>
      </trkpt>
      <trkpt lat="44.10343" lon="3.01409">
        <ele>500.3</ele>
        <time>2021-03-06T14:42:39Z</time>
      </trkpt>
      <trkpt lat="44.10343" lon="3.01409">
        <ele>500.4</ele>
        <time>2021-03-06T14:42:41Z</time>
      </trkpt>
      <trkpt lat="44.10344" lon="3.01409">
        <ele>500.5</ele>
        <time>2021-03-06T14:42:42Z</time>
      </trkpt>
      <trkpt lat="44.10345" lon="3.01409">
        <ele>500.6</ele>
        <time>2021-03-06T14:42:43Z</time>
      </trkpt>
      <trkpt lat="44.10346" lon="3.01409">
        <ele>500.8</ele>
        <time>2021-03-06T14:42:45Z</time>
      </trkpt>
      <trkpt lat="44.10348" lon="3.0141">
        <ele>500.9</ele>
        <time>2021-03-06T14:42:46Z</time>
      </trkpt>
      <trkpt lat="44.10349" lon="3.01411">
        <ele>501.1</ele>
        <time>2021-03-06T14:42:47Z</time>
      </trkpt>
      <trkpt lat="44.10349" lon="3.01411">
        <ele>501.1</ele>
        <time>2021-03-06T14:42:49Z</time>
      </trkpt>
      <trkpt lat="44.1035" lon="3.01411">
        <ele>501.2</ele>
        <time>2021-03-06T14:42:50Z</time>
      </trkpt>
      <trkpt lat="44.1035" lon="3.01412">
        <ele>501.2</ele>
        <time>2021-03-06T14:42:51Z</time>
      </trkpt>
      <trkpt lat="44.10351" lon="3.01412">
        <ele>501.3</ele>
        <time>2021-03-06T14:42:53Z</time>
      </trkpt>
      <trkpt lat="44.10351" lon="3.01412">
        <ele>501.3</ele>
        <time>2021-03-06T14:42:54Z</time>
      </trkpt>
      <trkpt lat="44.10351" lon="3.01412">
        <ele>501.4</ele>
        <time>2021-03-06T14:42:56Z</time>
      </trkpt>
      <trkpt lat="44.10352" lon="3.01412">
        <ele>501.4</ele>
        <time>2021-03-06T14:42:57Z</time>
      </trkpt>
      <trkpt lat="44.10356" lon="3.01413">
        <ele>501.9</ele>
        <time>2021-03-06T14:43:34Z</time>
      </trkpt>
      <trkpt lat="44.10358" lon="3.01414">
        <ele>502</ele>
        <time>2021-03-06T14:43:35Z</time>
      </trkpt>
      <trkpt lat="44.1036" lon="3.01415">
        <ele>502.2</ele>
        <time>2021-03-06T14:43:37Z</time>
      </trkpt>
      <trkpt lat="44.10363" lon="3.01415">
        <ele>502.4</ele>
        <time>2021-03-06T14:43:38Z</time>
      </trkpt>
      <trkpt lat="44.10364" lon="3.01416">
        <ele>502.4</ele>
        <time>2021-03-06T14:43:40Z</time>
      </trkpt>
      <trkpt lat="44.10365" lon="3.01416">
        <ele>502.5</ele>
        <time>2021-03-06T14:43:41Z</time>
      </trkpt>
      <trkpt lat="44.10366" lon="3.01416">
        <ele>502.6</ele>
        <time>2021-03-06T14:43:42Z</time>
      </trkpt>
      <trkpt lat="44.10367" lon="3.01416">
        <ele>502.6</ele>
        <time>2021-03-06T14:43:43Z</time>
      </trkpt>
      <trkpt lat="44.10371" lon="3.01415">
        <ele>502.8</ele>
        <time>2021-03-06T14:43:45Z</time>
      </trkpt>
      <trkpt lat="44.10372" lon="3.01415">
        <ele>502.9</ele>
        <time>2021-03-06T14:43:46Z</time>
      </trkpt>
      <trkpt lat="44.10375" lon="3.01413">
        <ele>503.1</ele>
        <time>2021-03-06T14:43:49Z</time>
      </trkpt>
      <trkpt lat="44.10378" lon="3.01412">
        <ele>503.3</ele>
        <time>2021-03-06T14:43:50Z</time>
      </trkpt>
      <trkpt lat="44.1038" lon="3.01412">
        <ele>503.5</ele>
        <time>2021-03-06T14:43:51Z</time>
      </trkpt>
      <trkpt lat="44.10382" lon="3.01412">
        <ele>503.6</ele>
        <time>2021-03-06T14:43:53Z</time>
      </trkpt>
      <trkpt lat="44.10383" lon="3.01412">
        <ele>503.8</ele>
        <time>2021-03-06T14:43:54Z</time>
      </trkpt>
      <trkpt lat="44.10385" lon="3.01413">
        <ele>504</ele>
        <time>2021-03-06T14:43:55Z</time>
      </trkpt>
      <trkpt lat="44.10388" lon="3.01414">
        <ele>504.2</ele>
        <time>2021-03-06T14:43:56Z</time>
      </trkpt>
      <trkpt lat="44.1039" lon="3.01415">
        <ele>504.5</ele>
        <time>2021-03-06T14:43:58Z</time>
      </trkpt>
      <trkpt lat="44.10393" lon="3.01416">
        <ele>504.9</ele>
        <time>2021-03-06T14:43:59Z</time>
      </trkpt>
      <trkpt lat="44.10395" lon="3.01417">
        <ele>505.1</ele>
        <time>2021-03-06T14:44:00Z</time>
      </trkpt>
      <trkpt lat="44.10398" lon="3.01418">
        <ele>505.4</ele>
        <time>2021-03-06T14:44:02Z</time>
      </trkpt>
      <trkpt lat="44.10401" lon="3.01418">
        <ele>505.8</ele>
        <time>2021-03-06T14:44:04Z</time>
      </trkpt>
      <trkpt lat="44.10404" lon="3.0142">
        <ele>506.1</ele>
        <time>2021-03-06T14:44:05Z</time>
      </trkpt>
      <trkpt lat="44.10408" lon="3.01421">
        <ele>506.5</ele>
        <time>2021-03-06T14:44:06Z</time>
      </trkpt>
      <trkpt lat="44.10414" lon="3.01423">
        <ele>506.9</ele>
        <time>2021-03-06T14:44:08Z</time>
      </trkpt>
      <trkpt lat="44.10418" lon="3.01424">
        <ele>507</ele>
        <time>2021-03-06T14:44:09Z</time>
      </trkpt>
      <trkpt lat="44.10422" lon="3.01424">
        <ele>507.1</ele>
        <time>2021-03-06T14:44:10Z</time>
      </trkpt>
      <trkpt lat="44.10424" lon="3.01424">
        <ele>507.1</ele>
        <time>2021-03-06T14:44:11Z</time>
      </trkpt>
      <trkpt lat="44.10429" lon="3.01424">
        <ele>507.1</ele>
        <time>2021-03-06T14:44:13Z</time>
      </trkpt>
      <trkpt lat="44.10431" lon="3.01424">
        <ele>507.1</ele>
        <time>2021-03-06T14:44:14Z</time>
      </trkpt>
      <trkpt lat="44.10435" lon="3.01424">
        <ele>507.2</ele>
        <time>2021-03-06T14:44:15Z</time>
      </trkpt>
      <trkpt lat="44.10436" lon="3.01425">
        <ele>507.2</ele>
        <time>2021-03-06T14:44:16Z</time>
      </trkpt>
      <trkpt lat="44.10437" lon="3.01426">
        <ele>507.3</ele>
        <time>2021-03-06T14:44:17Z</time>
      </trkpt>
      <trkpt lat="44.10438" lon="3.01428">
        <ele>507.4</ele>
        <time>2021-03-06T14:44:18Z</time>
      </trkpt>
      <trkpt lat="44.10438" lon="3.01431">
        <ele>507.8</ele>
        <time>2021-03-06T14:44:19Z</time>
      </trkpt>
      <trkpt lat="44.10438" lon="3.01433">
        <ele>508</ele>
        <time>2021-03-06T14:44:21Z</time>
      </trkpt>
      <trkpt lat="44.10438" lon="3.01435">
        <ele>508.2</ele>
        <time>2021-03-06T14:44:22Z</time>
      </trkpt>
      <trkpt lat="44.10438" lon="3.01436">
        <ele>508.4</ele>
        <time>2021-03-06T14:44:23Z</time>
      </trkpt>
      <trkpt lat="44.10439" lon="3.01438">
        <ele>508.6</ele>
        <time>2021-03-06T14:44:24Z</time>
      </trkpt>
      <trkpt lat="44.10439" lon="3.0144">
        <ele>508.9</ele>
        <time>2021-03-06T14:44:25Z</time>
      </trkpt>
      <trkpt lat="44.10441" lon="3.01442">
        <ele>509.2</ele>
        <time>2021-03-06T14:44:27Z</time>
      </trkpt>
      <trkpt lat="44.10441" lon="3.01442">
        <ele>509.4</ele>
        <time>2021-03-06T14:44:28Z</time>
      </trkpt>
      <trkpt lat="44.10443" lon="3.01443">
        <ele>509.7</ele>
        <time>2021-03-06T14:44:30Z</time>
      </trkpt>
      <trkpt lat="44.10443" lon="3.01444">
        <ele>509.7</ele>
        <time>2021-03-06T14:44:31Z</time>
      </trkpt>
      <trkpt lat="44.10443" lon="3.01444">
        <ele>509.8</ele>
        <time>2021-03-06T14:44:32Z</time>
      </trkpt>
      <trkpt lat="44.10444" lon="3.01444">
        <ele>509.9</ele>
        <time>2021-03-06T14:44:34Z</time>
      </trkpt>
      <trkpt lat="44.10444" lon="3.01445">
        <ele>509.9</ele>
        <time>2021-03-06T14:44:35Z</time>
      </trkpt>
      <trkpt lat="44.10445" lon="3.01452">
        <ele>510.8</ele>
        <time>2021-03-06T14:44:58Z</time>
      </trkpt>
      <trkpt lat="44.10445" lon="3.01454">
        <ele>511</ele>
        <time>2021-03-06T14:44:59Z</time>
      </trkpt>
      <trkpt lat="44.10445" lon="3.01456">
        <ele>511.3</ele>
        <time>2021-03-06T14:45:00Z</time>
      </trkpt>
      <trkpt lat="44.10445" lon="3.01458">
        <ele>511.5</ele>
        <time>2021-03-06T14:45:02Z</time>
      </trkpt>
      <trkpt lat="44.10444" lon="3.01461">
        <ele>511.8</ele>
        <time>2021-03-06T14:45:04Z</time>
      </trkpt>
      <trkpt lat="44.10443" lon="3.01463">
        <ele>512.1</ele>
        <time>2021-03-06T14:45:05Z</time>
      </trkpt>
      <trkpt lat="44.10443" lon="3.01464">
        <ele>512.3</ele>
        <time>2021-03-06T14:45:06Z</time>
      </trkpt>
      <trkpt lat="44.10442" lon="3.01466">
        <ele>512.5</ele>
        <time>2021-03-06T14:45:07Z</time>
      </trkpt>
      <trkpt lat="44.10441" lon="3.01468">
        <ele>512.8</ele>
        <time>2021-03-06T14:45:09Z</time>
      </trkpt>
      <trkpt lat="44.1044" lon="3.01469">
        <ele>512.9</ele>
        <time>2021-03-06T14:45:10Z</time>
      </trkpt>
      <trkpt lat="44.1044" lon="3.0147">
        <ele>513.1</ele>
        <time>2021-03-06T14:45:11Z</time>
      </trkpt>
      <trkpt lat="44.10439" lon="3.01473">
        <ele>513.4</ele>
        <time>2021-03-06T14:45:13Z</time>
      </trkpt>
      <trkpt lat="44.10438" lon="3.01474">
        <ele>513.6</ele>
        <time>2021-03-06T14:45:14Z</time>
      </trkpt>
      <trkpt lat="44.10438" lon="3.01475">
        <ele>513.7</ele>
        <time>2021-03-06T14:45:15Z</time>
      </trkpt>
      <trkpt lat="44.10437" lon="3.01478">
        <ele>514</ele>
        <time>2021-03-06T14:45:17Z</time>
      </trkpt>
      <trkpt lat="44.10436" lon="3.01478">
        <ele>514.1</ele>
        <time>2021-03-06T14:45:18Z</time>
      </trkpt>
      <trkpt lat="44.10436" lon="3.0148">
        <ele>514.3</ele>
        <time>2021-03-06T14:45:19Z</time>
      </trkpt>
      <trkpt lat="44.10435" lon="3.01482">
        <ele>514.5</ele>
        <time>2021-03-06T14:45:21Z</time>
      </trkpt>
      <trkpt lat="44.10433" lon="3.01485">
        <ele>514.9</ele>
        <time>2021-03-06T14:45:23Z</time>
      </trkpt>
      <trkpt lat="44.10432" lon="3.01486">
        <ele>515</ele>
        <time>2021-03-06T14:45:24Z</time>
      </trkpt>
      <trkpt lat="44.10431" lon="3.01488">
        <ele>515.2</ele>
        <time>2021-03-06T14:45:26Z</time>
      </trkpt>
      <trkpt lat="44.1043" lon="3.01489">
        <ele>515.4</ele>
        <time>2021-03-06T14:45:27Z</time>
      </trkpt>
      <trkpt lat="44.10429" lon="3.0149">
        <ele>515.5</ele>
        <time>2021-03-06T14:45:29Z</time>
      </trkpt>
      <trkpt lat="44.10428" lon="3.01492">
        <ele>515.8</ele>
        <time>2021-03-06T14:45:31Z</time>
      </trkpt>
      <trkpt lat="44.10427" lon="3.01493">
        <ele>515.9</ele>
        <time>2021-03-06T14:45:32Z</time>
      </trkpt>
      <trkpt lat="44.10427" lon="3.01495">
        <ele>516.1</ele>
        <time>2021-03-06T14:45:34Z</time>
      </trkpt>
      <trkpt lat="44.10425" lon="3.01497">
        <ele>516.3</ele>
        <time>2021-03-06T14:45:35Z</time>
      </trkpt>
      <trkpt lat="44.10424" lon="3.01498">
        <ele>516.5</ele>
        <time>2021-03-06T14:45:37Z</time>
      </trkpt>
      <trkpt lat="44.10422" lon="3.01501">
        <ele>516.9</ele>
        <time>2021-03-06T14:45:38Z</time>
      </trkpt>
      <trkpt lat="44.10421" lon="3.01502">
        <ele>517</ele>
        <time>2021-03-06T14:45:39Z</time>
      </trkpt>
      <trkpt lat="44.1042" lon="3.01503">
        <ele>517.2</ele>
        <time>2021-03-06T14:45:40Z</time>
      </trkpt>
      <trkpt lat="44.10419" lon="3.01505">
        <ele>517.3</ele>
        <time>2021-03-06T14:45:41Z</time>
      </trkpt>
      <trkpt lat="44.10417" lon="3.01508">
        <ele>517.6</ele>
        <time>2021-03-06T14:45:43Z</time>
      </trkpt>
      <trkpt lat="44.10416" lon="3.01509">
        <ele>517.3</ele>
        <time>2021-03-06T14:45:44Z</time>
      </trkpt>
      <trkpt lat="44.10415" lon="3.01511">
        <ele>518.2</ele>
        <time>2021-03-06T14:45:46Z</time>
      </trkpt>
      <trkpt lat="44.10415" lon="3.01512">
        <ele>518.6</ele>
        <time>2021-03-06T14:45:47Z</time>
      </trkpt>
      <trkpt lat="44.10414" lon="3.01514">
        <ele>519</ele>
        <time>2021-03-06T14:45:48Z</time>
      </trkpt>
      <trkpt lat="44.10413" lon="3.01515">
        <ele>519.2</ele>
        <time>2021-03-06T14:45:50Z</time>
      </trkpt>
      <trkpt lat="44.10412" lon="3.01517">
        <ele>519.6</ele>
        <time>2021-03-06T14:45:52Z</time>
      </trkpt>
      <trkpt lat="44.10411" lon="3.01519">
        <ele>519.9</ele>
        <time>2021-03-06T14:45:53Z</time>
      </trkpt>
      <trkpt lat="44.10411" lon="3.01521">
        <ele>520.9</ele>
        <time>2021-03-06T14:45:55Z</time>
      </trkpt>
      <trkpt lat="44.1041" lon="3.01522">
        <ele>520.5</ele>
        <time>2021-03-06T14:45:56Z</time>
      </trkpt>
      <trkpt lat="44.10409" lon="3.01523">
        <ele>520.9</ele>
        <time>2021-03-06T14:45:58Z</time>
      </trkpt>
      <trkpt lat="44.10409" lon="3.01524">
        <ele>521.8</ele>
        <time>2021-03-06T14:45:59Z</time>
      </trkpt>
      <trkpt lat="44.10407" lon="3.01526">
        <ele>521.5</ele>
        <time>2021-03-06T14:46:00Z</time>
      </trkpt>
      <trkpt lat="44.10407" lon="3.01528">
        <ele>521.9</ele>
        <time>2021-03-06T14:46:01Z</time>
      </trkpt>
      <trkpt lat="44.10406" lon="3.01529">
        <ele>522.8</ele>
        <time>2021-03-06T14:46:02Z</time>
      </trkpt>
      <trkpt lat="44.10405" lon="3.01531">
        <ele>523.2</ele>
        <time>2021-03-06T14:46:03Z</time>
      </trkpt>
      <trkpt lat="44.10404" lon="3.01534">
        <ele>523.4</ele>
        <time>2021-03-06T14:46:05Z</time>
      </trkpt>
      <trkpt lat="44.10403" lon="3.01535">
        <ele>523.7</ele>
        <time>2021-03-06T14:46:07Z</time>
      </trkpt>
      <trkpt lat="44.10403" lon="3.01537">
        <ele>524.7</ele>
        <time>2021-03-06T14:46:08Z</time>
      </trkpt>
      <trkpt lat="44.10402" lon="3.01539">
        <ele>525</ele>
        <time>2021-03-06T14:46:09Z</time>
      </trkpt>
      <trkpt lat="44.10402" lon="3.01542">
        <ele>526</ele>
        <time>2021-03-06T14:46:10Z</time>
      </trkpt>
      <trkpt lat="44.10401" lon="3.01543">
        <ele>525.6</ele>
        <time>2021-03-06T14:46:11Z</time>
      </trkpt>
      <trkpt lat="44.104" lon="3.01545">
        <ele>525.8</ele>
        <time>2021-03-06T14:46:13Z</time>
      </trkpt>
      <trkpt lat="44.104" lon="3.01546">
        <ele>526</ele>
        <time>2021-03-06T14:46:14Z</time>
      </trkpt>
      <trkpt lat="44.10398" lon="3.01547">
        <ele>526.2</ele>
        <time>2021-03-06T14:46:16Z</time>
      </trkpt>
      <trkpt lat="44.10398" lon="3.01548">
        <ele>526.3</ele>
        <time>2021-03-06T14:46:17Z</time>
      </trkpt>
      <trkpt lat="44.10397" lon="3.0155">
        <ele>526.5</ele>
        <time>2021-03-06T14:46:19Z</time>
      </trkpt>
      <trkpt lat="44.10397" lon="3.01551">
        <ele>526.6</ele>
        <time>2021-03-06T14:46:20Z</time>
      </trkpt>
      <trkpt lat="44.10397" lon="3.01552">
        <ele>526.7</ele>
        <time>2021-03-06T14:46:22Z</time>
      </trkpt>
      <trkpt lat="44.10398" lon="3.01553">
        <ele>526.8</ele>
        <time>2021-03-06T14:46:23Z</time>
      </trkpt>
      <trkpt lat="44.10398" lon="3.01552">
        <ele>526.8</ele>
        <time>2021-03-06T14:46:24Z</time>
      </trkpt>
      <trkpt lat="44.10397" lon="3.01552">
        <ele>526.9</ele>
        <time>2021-03-06T14:46:26Z</time>
      </trkpt>
      <trkpt lat="44.10398" lon="3.01551">
        <ele>526.9</ele>
        <time>2021-03-06T14:46:27Z</time>
      </trkpt>
      <trkpt lat="44.10397" lon="3.01551">
        <ele>527</ele>
        <time>2021-03-06T14:46:28Z</time>
      </trkpt>
      <trkpt lat="44.10396" lon="3.0155">
        <ele>527.2</ele>
        <time>2021-03-06T14:46:30Z</time>
      </trkpt>
      <trkpt lat="44.10396" lon="3.01549">
        <ele>527.3</ele>
        <time>2021-03-06T14:46:31Z</time>
      </trkpt>
      <trkpt lat="44.10395" lon="3.01548">
        <ele>527.4</ele>
        <time>2021-03-06T14:46:32Z</time>
      </trkpt>
      <trkpt lat="44.10395" lon="3.01548">
        <ele>527.5</ele>
        <time>2021-03-06T14:46:33Z</time>
      </trkpt>
      <trkpt lat="44.10395" lon="3.01547">
        <ele>527.6</ele>
        <time>2021-03-06T14:46:34Z</time>
      </trkpt>
      <trkpt lat="44.10396" lon="3.01544">
        <ele>527.9</ele>
        <time>2021-03-06T14:46:36Z</time>
      </trkpt>
      <trkpt lat="44.10396" lon="3.01543">
        <ele>528</ele>
        <time>2021-03-06T14:46:37Z</time>
      </trkpt>
      <trkpt lat="44.10397" lon="3.01542">
        <ele>528.2</ele>
        <time>2021-03-06T14:46:38Z</time>
      </trkpt>
      <trkpt lat="44.10398" lon="3.01541">
        <ele>528.3</ele>
        <time>2021-03-06T14:46:40Z</time>
      </trkpt>
      <trkpt lat="44.10398" lon="3.01539">
        <ele>528.5</ele>
        <time>2021-03-06T14:46:41Z</time>
      </trkpt>
      <trkpt lat="44.10399" lon="3.01538">
        <ele>528.7</ele>
        <time>2021-03-06T14:46:42Z</time>
      </trkpt>
      <trkpt lat="44.104" lon="3.01537">
        <ele>529</ele>
        <time>2021-03-06T14:46:44Z</time>
      </trkpt>
      <trkpt lat="44.10402" lon="3.01534">
        <ele>529.3</ele>
        <time>2021-03-06T14:46:46Z</time>
      </trkpt>
      <trkpt lat="44.10403" lon="3.01533">
        <ele>529.5</ele>
        <time>2021-03-06T14:46:47Z</time>
      </trkpt>
      <trkpt lat="44.10404" lon="3.01533">
        <ele>529.6</ele>
        <time>2021-03-06T14:46:48Z</time>
      </trkpt>
      <trkpt lat="44.10405" lon="3.01532">
        <ele>529.8</ele>
        <time>2021-03-06T14:46:50Z</time>
      </trkpt>
      <trkpt lat="44.10405" lon="3.01532">
        <ele>529.9</ele>
        <time>2021-03-06T14:46:51Z</time>
      </trkpt>
      <trkpt lat="44.10406" lon="3.01531">
        <ele>530</ele>
        <time>2021-03-06T14:46:52Z</time>
      </trkpt>
      <trkpt lat="44.10407" lon="3.0153">
        <ele>530.2</ele>
        <time>2021-03-06T14:46:53Z</time>
      </trkpt>
      <trkpt lat="44.10408" lon="3.0153">
        <ele>530.3</ele>
        <time>2021-03-06T14:46:54Z</time>
      </trkpt>
      <trkpt lat="44.10409" lon="3.01529">
        <ele>530.6</ele>
        <time>2021-03-06T14:46:56Z</time>
      </trkpt>
      <trkpt lat="44.1041" lon="3.01528">
        <ele>530.8</ele>
        <time>2021-03-06T14:46:57Z</time>
      </trkpt>
      <trkpt lat="44.10412" lon="3.01527">
        <ele>531.1</ele>
        <time>2021-03-06T14:46:58Z</time>
      </trkpt>
      <trkpt lat="44.10413" lon="3.01527">
        <ele>531.2</ele>
        <time>2021-03-06T14:46:59Z</time>
      </trkpt>
      <trkpt lat="44.10414" lon="3.01527">
        <ele>531.4</ele>
        <time>2021-03-06T14:47:00Z</time>
      </trkpt>
      <trkpt lat="44.10415" lon="3.01526">
        <ele>531.6</ele>
        <time>2021-03-06T14:47:02Z</time>
      </trkpt>
      <trkpt lat="44.10416" lon="3.01526">
        <ele>531.8</ele>
        <time>2021-03-06T14:47:03Z</time>
      </trkpt>
      <trkpt lat="44.10418" lon="3.01525">
        <ele>532.1</ele>
        <time>2021-03-06T14:47:05Z</time>
      </trkpt>
      <trkpt lat="44.10421" lon="3.01524">
        <ele>532.6</ele>
        <time>2021-03-06T14:47:07Z</time>
      </trkpt>
      <trkpt lat="44.10422" lon="3.01523">
        <ele>532.7</ele>
        <time>2021-03-06T14:47:08Z</time>
      </trkpt>
      <trkpt lat="44.10423" lon="3.01523">
        <ele>532.8</ele>
        <time>2021-03-06T14:47:10Z</time>
      </trkpt>
      <trkpt lat="44.10424" lon="3.01522">
        <ele>533</ele>
        <time>2021-03-06T14:47:11Z</time>
      </trkpt>
      <trkpt lat="44.10425" lon="3.01522">
        <ele>533.1</ele>
        <time>2021-03-06T14:47:13Z</time>
      </trkpt>
      <trkpt lat="44.10425" lon="3.01521">
        <ele>533.3</ele>
        <time>2021-03-06T14:47:15Z</time>
      </trkpt>
      <trkpt lat="44.10426" lon="3.01521">
        <ele>533.4</ele>
        <time>2021-03-06T14:47:20Z</time>
      </trkpt>
      <trkpt lat="44.10427" lon="3.0152">
        <ele>533.6</ele>
        <time>2021-03-06T14:47:21Z</time>
      </trkpt>
      <trkpt lat="44.10428" lon="3.0152">
        <ele>533.7</ele>
        <time>2021-03-06T14:47:23Z</time>
      </trkpt>
      <trkpt lat="44.10429" lon="3.01519">
        <ele>533.8</ele>
        <time>2021-03-06T14:47:24Z</time>
      </trkpt>
      <trkpt lat="44.1043" lon="3.01519">
        <ele>534</ele>
        <time>2021-03-06T14:47:25Z</time>
      </trkpt>
      <trkpt lat="44.10431" lon="3.01519">
        <ele>534.2</ele>
        <time>2021-03-06T14:47:27Z</time>
      </trkpt>
      <trkpt lat="44.10433" lon="3.01519">
        <ele>534.5</ele>
        <time>2021-03-06T14:47:28Z</time>
      </trkpt>
      <trkpt lat="44.10436" lon="3.01519">
        <ele>534.9</ele>
        <time>2021-03-06T14:47:29Z</time>
      </trkpt>
      <trkpt lat="44.10437" lon="3.01519">
        <ele>535.1</ele>
        <time>2021-03-06T14:47:30Z</time>
      </trkpt>
      <trkpt lat="44.1044" lon="3.01518">
        <ele>535.6</ele>
        <time>2021-03-06T14:47:32Z</time>
      </trkpt>
      <trkpt lat="44.10442" lon="3.01517">
        <ele>535.8</ele>
        <time>2021-03-06T14:47:33Z</time>
      </trkpt>
      <trkpt lat="44.10445" lon="3.01517">
        <ele>536.2</ele>
        <time>2021-03-06T14:47:35Z</time>
      </trkpt>
      <trkpt lat="44.10446" lon="3.01517">
        <ele>536.4</ele>
        <time>2021-03-06T14:47:36Z</time>
      </trkpt>
      <trkpt lat="44.10449" lon="3.01517">
        <ele>536.9</ele>
        <time>2021-03-06T14:47:39Z</time>
      </trkpt>
      <trkpt lat="44.1045" lon="3.01517">
        <ele>536.9</ele>
        <time>2021-03-06T14:47:40Z</time>
      </trkpt>
      <trkpt lat="44.10451" lon="3.01517">
        <ele>537.2</ele>
        <time>2021-03-06T14:47:41Z</time>
      </trkpt>
      <trkpt lat="44.10452" lon="3.01516">
        <ele>537.4</ele>
        <time>2021-03-06T14:47:42Z</time>
      </trkpt>
      <trkpt lat="44.10454" lon="3.01516">
        <ele>537.6</ele>
        <time>2021-03-06T14:47:44Z</time>
      </trkpt>
      <trkpt lat="44.10455" lon="3.01516">
        <ele>537.8</ele>
        <time>2021-03-06T14:47:46Z</time>
      </trkpt>
      <trkpt lat="44.10457" lon="3.01515">
        <ele>538</ele>
        <time>2021-03-06T14:47:47Z</time>
      </trkpt>
      <trkpt lat="44.10457" lon="3.01515">
        <ele>538.1</ele>
        <time>2021-03-06T14:47:48Z</time>
      </trkpt>
      <trkpt lat="44.10459" lon="3.01515">
        <ele>538.4</ele>
        <time>2021-03-06T14:47:50Z</time>
      </trkpt>
      <trkpt lat="44.1046" lon="3.01514">
        <ele>538.5</ele>
        <time>2021-03-06T14:47:51Z</time>
      </trkpt>
      <trkpt lat="44.10461" lon="3.01513">
        <ele>538.6</ele>
        <time>2021-03-06T14:47:52Z</time>
      </trkpt>
      <trkpt lat="44.10462" lon="3.01513">
        <ele>538.9</ele>
        <time>2021-03-06T14:47:53Z</time>
      </trkpt>
      <trkpt lat="44.10464" lon="3.01513">
        <ele>539</ele>
        <time>2021-03-06T14:47:55Z</time>
      </trkpt>
      <trkpt lat="44.10465" lon="3.01513">
        <ele>539.3</ele>
        <time>2021-03-06T14:47:57Z</time>
      </trkpt>
      <trkpt lat="44.10467" lon="3.01512">
        <ele>539.6</ele>
        <time>2021-03-06T14:47:59Z</time>
      </trkpt>
      <trkpt lat="44.10469" lon="3.01512">
        <ele>539.8</ele>
        <time>2021-03-06T14:48:00Z</time>
      </trkpt>
      <trkpt lat="44.1047" lon="3.01512">
        <ele>540</ele>
        <time>2021-03-06T14:48:01Z</time>
      </trkpt>
      <trkpt lat="44.10472" lon="3.01513">
        <ele>540.2</ele>
        <time>2021-03-06T14:48:02Z</time>
      </trkpt>
      <trkpt lat="44.10473" lon="3.01513">
        <ele>540.4</ele>
        <time>2021-03-06T14:48:04Z</time>
      </trkpt>
      <trkpt lat="44.10474" lon="3.01513">
        <ele>540.5</ele>
        <time>2021-03-06T14:48:05Z</time>
      </trkpt>
      <trkpt lat="44.10475" lon="3.01513">
        <ele>540.6</ele>
        <time>2021-03-06T14:48:06Z</time>
      </trkpt>
      <trkpt lat="44.10476" lon="3.01513">
        <ele>540.8</ele>
        <time>2021-03-06T14:48:07Z</time>
      </trkpt>
      <trkpt lat="44.10477" lon="3.01513">
        <ele>541</ele>
        <time>2021-03-06T14:48:09Z</time>
      </trkpt>
      <trkpt lat="44.10478" lon="3.01513">
        <ele>541.1</ele>
        <time>2021-03-06T14:48:10Z</time>
      </trkpt>
      <trkpt lat="44.1048" lon="3.01514">
        <ele>541.3</ele>
        <time>2021-03-06T14:48:12Z</time>
      </trkpt>
      <trkpt lat="44.10481" lon="3.01514">
        <ele>541.5</ele>
        <time>2021-03-06T14:48:13Z</time>
      </trkpt>
      <trkpt lat="44.10482" lon="3.01515">
        <ele>541.6</ele>
        <time>2021-03-06T14:48:14Z</time>
      </trkpt>
      <trkpt lat="44.10483" lon="3.01515">
        <ele>541.8</ele>
        <time>2021-03-06T14:48:16Z</time>
      </trkpt>
      <trkpt lat="44.10485" lon="3.01516">
        <ele>542</ele>
        <time>2021-03-06T14:48:17Z</time>
      </trkpt>
      <trkpt lat="44.10486" lon="3.01516">
        <ele>542.2</ele>
        <time>2021-03-06T14:48:18Z</time>
      </trkpt>
      <trkpt lat="44.10487" lon="3.01516">
        <ele>542.3</ele>
        <time>2021-03-06T14:48:19Z</time>
      </trkpt>
      <trkpt lat="44.10488" lon="3.01516">
        <ele>542.4</ele>
        <time>2021-03-06T14:48:21Z</time>
      </trkpt>
      <trkpt lat="44.10488" lon="3.01515">
        <ele>542.5</ele>
        <time>2021-03-06T14:48:22Z</time>
      </trkpt>
      <trkpt lat="44.10489" lon="3.01515">
        <ele>542.6</ele>
        <time>2021-03-06T14:48:23Z</time>
      </trkpt>
      <trkpt lat="44.1049" lon="3.01515">
        <ele>542.7</ele>
        <time>2021-03-06T14:48:24Z</time>
      </trkpt>
      <trkpt lat="44.10491" lon="3.01515">
        <ele>542.9</ele>
        <time>2021-03-06T14:48:26Z</time>
      </trkpt>
      <trkpt lat="44.10492" lon="3.01515">
        <ele>543</ele>
        <time>2021-03-06T14:48:27Z</time>
      </trkpt>
      <trkpt lat="44.10493" lon="3.01515">
        <ele>543.1</ele>
        <time>2021-03-06T14:48:28Z</time>
      </trkpt>
      <trkpt lat="44.10494" lon="3.01515">
        <ele>543.3</ele>
        <time>2021-03-06T14:48:29Z</time>
      </trkpt>
      <trkpt lat="44.10495" lon="3.01516">
        <ele>543.4</ele>
        <time>2021-03-06T14:48:30Z</time>
      </trkpt>
      <trkpt lat="44.10498" lon="3.01517">
        <ele>543.8</ele>
        <time>2021-03-06T14:48:32Z</time>
      </trkpt>
      <trkpt lat="44.10499" lon="3.01516">
        <ele>543.9</ele>
        <time>2021-03-06T14:48:33Z</time>
      </trkpt>
      <trkpt lat="44.105" lon="3.01516">
        <ele>544.1</ele>
        <time>2021-03-06T14:48:34Z</time>
      </trkpt>
      <trkpt lat="44.10502" lon="3.01516">
        <ele>544.4</ele>
        <time>2021-03-06T14:48:36Z</time>
      </trkpt>
      <trkpt lat="44.10504" lon="3.01517">
        <ele>544.6</ele>
        <time>2021-03-06T14:48:37Z</time>
      </trkpt>
      <trkpt lat="44.10505" lon="3.01517">
        <ele>544.7</ele>
        <time>2021-03-06T14:48:39Z</time>
      </trkpt>
      <trkpt lat="44.10506" lon="3.01518">
        <ele>544.9</ele>
        <time>2021-03-06T14:48:40Z</time>
      </trkpt>
      <trkpt lat="44.10507" lon="3.01518">
        <ele>545</ele>
        <time>2021-03-06T14:48:41Z</time>
      </trkpt>
      <trkpt lat="44.10508" lon="3.01519">
        <ele>545.2</ele>
        <time>2021-03-06T14:48:42Z</time>
      </trkpt>
      <trkpt lat="44.10509" lon="3.01519">
        <ele>545.3</ele>
        <time>2021-03-06T14:48:44Z</time>
      </trkpt>
      <trkpt lat="44.1051" lon="3.01519">
        <ele>545.5</ele>
        <time>2021-03-06T14:49:21Z</time>
      </trkpt>
      <trkpt lat="44.10511" lon="3.0152">
        <ele>545.7</ele>
        <time>2021-03-06T14:49:22Z</time>
      </trkpt>
      <trkpt lat="44.10512" lon="3.0152">
        <ele>545.8</ele>
        <time>2021-03-06T14:49:24Z</time>
      </trkpt>
      <trkpt lat="44.10513" lon="3.01521">
        <ele>546</ele>
        <time>2021-03-06T14:49:25Z</time>
      </trkpt>
      <trkpt lat="44.10514" lon="3.01521">
        <ele>546.1</ele>
        <time>2021-03-06T14:49:26Z</time>
      </trkpt>
      <trkpt lat="44.10516" lon="3.01521">
        <ele>546.3</ele>
        <time>2021-03-06T14:49:28Z</time>
      </trkpt>
      <trkpt lat="44.10518" lon="3.01521">
        <ele>546.6</ele>
        <time>2021-03-06T14:49:29Z</time>
      </trkpt>
      <trkpt lat="44.1052" lon="3.0152">
        <ele>546.9</ele>
        <time>2021-03-06T14:49:31Z</time>
      </trkpt>
      <trkpt lat="44.10521" lon="3.01519">
        <ele>547</ele>
        <time>2021-03-06T14:49:32Z</time>
      </trkpt>
      <trkpt lat="44.10521" lon="3.01519">
        <ele>547.1</ele>
        <time>2021-03-06T14:49:33Z</time>
      </trkpt>
      <trkpt lat="44.10523" lon="3.01519">
        <ele>547.3</ele>
        <time>2021-03-06T14:49:34Z</time>
      </trkpt>
      <trkpt lat="44.10524" lon="3.01518">
        <ele>547.4</ele>
        <time>2021-03-06T14:49:35Z</time>
      </trkpt>
      <trkpt lat="44.10525" lon="3.01518">
        <ele>547.6</ele>
        <time>2021-03-06T14:49:36Z</time>
      </trkpt>
      <trkpt lat="44.10527" lon="3.01518">
        <ele>547.7</ele>
        <time>2021-03-06T14:49:37Z</time>
      </trkpt>
      <trkpt lat="44.10528" lon="3.01518">
        <ele>547.9</ele>
        <time>2021-03-06T14:49:38Z</time>
      </trkpt>
      <trkpt lat="44.10529" lon="3.01518">
        <ele>547.9</ele>
        <time>2021-03-06T14:49:40Z</time>
      </trkpt>
      <trkpt lat="44.1053" lon="3.01518">
        <ele>548.1</ele>
        <time>2021-03-06T14:49:41Z</time>
      </trkpt>
      <trkpt lat="44.10532" lon="3.01518">
        <ele>548.4</ele>
        <time>2021-03-06T14:49:43Z</time>
      </trkpt>
      <trkpt lat="44.10533" lon="3.01518">
        <ele>548.5</ele>
        <time>2021-03-06T14:49:44Z</time>
      </trkpt>
      <trkpt lat="44.10534" lon="3.01518">
        <ele>548.6</ele>
        <time>2021-03-06T14:49:46Z</time>
      </trkpt>
      <trkpt lat="44.10535" lon="3.01519">
        <ele>548.7</ele>
        <time>2021-03-06T14:49:47Z</time>
      </trkpt>
      <trkpt lat="44.10536" lon="3.01519">
        <ele>548.9</ele>
        <time>2021-03-06T14:49:49Z</time>
      </trkpt>
      <trkpt lat="44.10537" lon="3.0152">
        <ele>549</ele>
        <time>2021-03-06T14:49:50Z</time>
      </trkpt>
      <trkpt lat="44.10539" lon="3.0152">
        <ele>549.1</ele>
        <time>2021-03-06T14:49:51Z</time>
      </trkpt>
      <trkpt lat="44.1054" lon="3.01521">
        <ele>549.3</ele>
        <time>2021-03-06T14:49:53Z</time>
      </trkpt>
      <trkpt lat="44.10541" lon="3.01523">
        <ele>549.5</ele>
        <time>2021-03-06T14:49:54Z</time>
      </trkpt>
      <trkpt lat="44.10545" lon="3.01526">
        <ele>550</ele>
        <time>2021-03-06T14:49:56Z</time>
      </trkpt>
      <trkpt lat="44.10546" lon="3.01527">
        <ele>550.1</ele>
        <time>2021-03-06T14:49:57Z</time>
      </trkpt>
      <trkpt lat="44.10548" lon="3.01527">
        <ele>550.3</ele>
        <time>2021-03-06T14:49:58Z</time>
      </trkpt>
      <trkpt lat="44.1055" lon="3.01529">
        <ele>550.5</ele>
        <time>2021-03-06T14:50:00Z</time>
      </trkpt>
      <trkpt lat="44.1055" lon="3.01529">
        <ele>550.6</ele>
        <time>2021-03-06T14:50:01Z</time>
      </trkpt>
      <trkpt lat="44.10551" lon="3.0153">
        <ele>550.7</ele>
        <time>2021-03-06T14:50:02Z</time>
      </trkpt>
      <trkpt lat="44.10553" lon="3.0153">
        <ele>550.9</ele>
        <time>2021-03-06T14:50:03Z</time>
      </trkpt>
      <trkpt lat="44.10554" lon="3.01531">
        <ele>551</ele>
        <time>2021-03-06T14:50:05Z</time>
      </trkpt>
      <trkpt lat="44.10555" lon="3.01532">
        <ele>551.1</ele>
        <time>2021-03-06T14:50:06Z</time>
      </trkpt>
      <trkpt lat="44.10555" lon="3.01532">
        <ele>551.2</ele>
        <time>2021-03-06T14:50:08Z</time>
      </trkpt>
      <trkpt lat="44.10557" lon="3.01532">
        <ele>551.3</ele>
        <time>2021-03-06T14:50:10Z</time>
      </trkpt>
      <trkpt lat="44.10558" lon="3.01532">
        <ele>551.5</ele>
        <time>2021-03-06T14:50:11Z</time>
      </trkpt>
      <trkpt lat="44.10559" lon="3.01532">
        <ele>551.6</ele>
        <time>2021-03-06T14:50:12Z</time>
      </trkpt>
      <trkpt lat="44.10561" lon="3.01532">
        <ele>551.7</ele>
        <time>2021-03-06T14:50:13Z</time>
      </trkpt>
      <trkpt lat="44.10563" lon="3.01533">
        <ele>552</ele>
        <time>2021-03-06T14:50:15Z</time>
      </trkpt>
      <trkpt lat="44.10565" lon="3.01533">
        <ele>552.2</ele>
        <time>2021-03-06T14:50:17Z</time>
      </trkpt>
      <trkpt lat="44.10568" lon="3.01534">
        <ele>552.5</ele>
        <time>2021-03-06T14:50:18Z</time>
      </trkpt>
      <trkpt lat="44.10569" lon="3.01534">
        <ele>552.7</ele>
        <time>2021-03-06T14:50:20Z</time>
      </trkpt>
      <trkpt lat="44.10572" lon="3.01535">
        <ele>553</ele>
        <time>2021-03-06T14:50:21Z</time>
      </trkpt>
      <trkpt lat="44.10575" lon="3.01536">
        <ele>553.3</ele>
        <time>2021-03-06T14:50:23Z</time>
      </trkpt>
      <trkpt lat="44.10576" lon="3.01536">
        <ele>553.4</ele>
        <time>2021-03-06T14:50:24Z</time>
      </trkpt>
      <trkpt lat="44.10578" lon="3.01537">
        <ele>553.5</ele>
        <time>2021-03-06T14:50:25Z</time>
      </trkpt>
      <trkpt lat="44.10579" lon="3.01538">
        <ele>553.7</ele>
        <time>2021-03-06T14:50:26Z</time>
      </trkpt>
      <trkpt lat="44.10582" lon="3.0154">
        <ele>554</ele>
        <time>2021-03-06T14:50:28Z</time>
      </trkpt>
      <trkpt lat="44.10583" lon="3.0154">
        <ele>554.1</ele>
        <time>2021-03-06T14:50:29Z</time>
      </trkpt>
      <trkpt lat="44.10585" lon="3.01541">
        <ele>554.3</ele>
        <time>2021-03-06T14:50:30Z</time>
      </trkpt>
      <trkpt lat="44.10586" lon="3.01542">
        <ele>554.4</ele>
        <time>2021-03-06T14:50:31Z</time>
      </trkpt>
      <trkpt lat="44.1059" lon="3.01544">
        <ele>554.8</ele>
        <time>2021-03-06T14:50:33Z</time>
      </trkpt>
      <trkpt lat="44.10591" lon="3.01545">
        <ele>554.9</ele>
        <time>2021-03-06T14:50:34Z</time>
      </trkpt>
      <trkpt lat="44.10593" lon="3.01547">
        <ele>555.1</ele>
        <time>2021-03-06T14:50:35Z</time>
      </trkpt>
      <trkpt lat="44.10595" lon="3.01548">
        <ele>555.3</ele>
        <time>2021-03-06T14:50:37Z</time>
      </trkpt>
      <trkpt lat="44.10597" lon="3.0155">
        <ele>555.6</ele>
        <time>2021-03-06T14:50:38Z</time>
      </trkpt>
      <trkpt lat="44.10598" lon="3.0155">
        <ele>555.6</ele>
        <time>2021-03-06T14:50:39Z</time>
      </trkpt>
      <trkpt lat="44.10601" lon="3.01553">
        <ele>556</ele>
        <time>2021-03-06T14:50:41Z</time>
      </trkpt>
      <trkpt lat="44.10602" lon="3.01554">
        <ele>556.1</ele>
        <time>2021-03-06T14:50:42Z</time>
      </trkpt>
      <trkpt lat="44.10604" lon="3.01557">
        <ele>556.4</ele>
        <time>2021-03-06T14:50:44Z</time>
      </trkpt>
      <trkpt lat="44.10606" lon="3.01559">
        <ele>556.7</ele>
        <time>2021-03-06T14:50:45Z</time>
      </trkpt>
      <trkpt lat="44.10608" lon="3.0156">
        <ele>556.9</ele>
        <time>2021-03-06T14:50:47Z</time>
      </trkpt>
      <trkpt lat="44.1061" lon="3.01561">
        <ele>557.1</ele>
        <time>2021-03-06T14:50:49Z</time>
      </trkpt>
      <trkpt lat="44.10611" lon="3.01562">
        <ele>557.2</ele>
        <time>2021-03-06T14:50:50Z</time>
      </trkpt>
      <trkpt lat="44.10613" lon="3.01564">
        <ele>557.5</ele>
        <time>2021-03-06T14:50:51Z</time>
      </trkpt>
      <trkpt lat="44.10614" lon="3.01565">
        <ele>557.6</ele>
        <time>2021-03-06T14:50:52Z</time>
      </trkpt>
      <trkpt lat="44.10616" lon="3.01566">
        <ele>557.8</ele>
        <time>2021-03-06T14:50:54Z</time>
      </trkpt>
      <trkpt lat="44.10618" lon="3.01567">
        <ele>558</ele>
        <time>2021-03-06T14:50:56Z</time>
      </trkpt>
      <trkpt lat="44.10621" lon="3.01569">
        <ele>558.3</ele>
        <time>2021-03-06T14:50:57Z</time>
      </trkpt>
      <trkpt lat="44.10622" lon="3.01569">
        <ele>558.4</ele>
        <time>2021-03-06T14:50:58Z</time>
      </trkpt>
      <trkpt lat="44.10624" lon="3.0157">
        <ele>558.7</ele>
        <time>2021-03-06T14:50:59Z</time>
      </trkpt>
      <trkpt lat="44.10625" lon="3.01571">
        <ele>558.8</ele>
        <time>2021-03-06T14:51:01Z</time>
      </trkpt>
      <trkpt lat="44.10626" lon="3.01571">
        <ele>558.9</ele>
        <time>2021-03-06T14:51:02Z</time>
      </trkpt>
      <trkpt lat="44.10628" lon="3.01572">
        <ele>559.1</ele>
        <time>2021-03-06T14:51:04Z</time>
      </trkpt>
      <trkpt lat="44.10629" lon="3.01573">
        <ele>559.2</ele>
        <time>2021-03-06T14:51:05Z</time>
      </trkpt>
      <trkpt lat="44.10631" lon="3.01574">
        <ele>559.4</ele>
        <time>2021-03-06T14:51:07Z</time>
      </trkpt>
      <trkpt lat="44.10633" lon="3.01575">
        <ele>559.7</ele>
        <time>2021-03-06T14:51:08Z</time>
      </trkpt>
      <trkpt lat="44.10634" lon="3.01576">
        <ele>559.8</ele>
        <time>2021-03-06T14:51:10Z</time>
      </trkpt>
      <trkpt lat="44.10636" lon="3.01578">
        <ele>560.1</ele>
        <time>2021-03-06T14:51:11Z</time>
      </trkpt>
      <trkpt lat="44.10639" lon="3.0158">
        <ele>560.4</ele>
        <time>2021-03-06T14:51:13Z</time>
      </trkpt>
      <trkpt lat="44.10639" lon="3.01581">
        <ele>560.5</ele>
        <time>2021-03-06T14:51:14Z</time>
      </trkpt>
      <trkpt lat="44.10641" lon="3.01583">
        <ele>560.7</ele>
        <time>2021-03-06T14:51:15Z</time>
      </trkpt>
      <trkpt lat="44.10642" lon="3.01585">
        <ele>560.9</ele>
        <time>2021-03-06T14:51:17Z</time>
      </trkpt>
      <trkpt lat="44.10644" lon="3.01586">
        <ele>561.1</ele>
        <time>2021-03-06T14:51:18Z</time>
      </trkpt>
      <trkpt lat="44.10645" lon="3.01588">
        <ele>561.3</ele>
        <time>2021-03-06T14:51:19Z</time>
      </trkpt>
      <trkpt lat="44.10646" lon="3.0159">
        <ele>561.5</ele>
        <time>2021-03-06T14:51:21Z</time>
      </trkpt>
      <trkpt lat="44.10647" lon="3.01591">
        <ele>561.6</ele>
        <time>2021-03-06T14:51:22Z</time>
      </trkpt>
      <trkpt lat="44.10649" lon="3.01592">
        <ele>561.8</ele>
        <time>2021-03-06T14:51:23Z</time>
      </trkpt>
      <trkpt lat="44.1065" lon="3.01593">
        <ele>561.9</ele>
        <time>2021-03-06T14:51:25Z</time>
      </trkpt>
      <trkpt lat="44.10651" lon="3.01593">
        <ele>562.1</ele>
        <time>2021-03-06T14:51:26Z</time>
      </trkpt>
      <trkpt lat="44.10652" lon="3.01594">
        <ele>562.2</ele>
        <time>2021-03-06T14:51:27Z</time>
      </trkpt>
      <trkpt lat="44.10653" lon="3.01594">
        <ele>562.3</ele>
        <time>2021-03-06T14:51:28Z</time>
      </trkpt>
      <trkpt lat="44.10656" lon="3.01595">
        <ele>562.6</ele>
        <time>2021-03-06T14:51:30Z</time>
      </trkpt>
      <trkpt lat="44.10656" lon="3.01596">
        <ele>562.7</ele>
        <time>2021-03-06T14:51:31Z</time>
      </trkpt>
      <trkpt lat="44.10657" lon="3.01597">
        <ele>562.8</ele>
        <time>2021-03-06T14:51:32Z</time>
      </trkpt>
      <trkpt lat="44.10658" lon="3.01597">
        <ele>562.9</ele>
        <time>2021-03-06T14:51:33Z</time>
      </trkpt>
      <trkpt lat="44.1066" lon="3.01599">
        <ele>563.1</ele>
        <time>2021-03-06T14:51:34Z</time>
      </trkpt>
      <trkpt lat="44.10661" lon="3.016">
        <ele>563.3</ele>
        <time>2021-03-06T14:51:36Z</time>
      </trkpt>
      <trkpt lat="44.10662" lon="3.01602">
        <ele>563.4</ele>
        <time>2021-03-06T14:51:37Z</time>
      </trkpt>
      <trkpt lat="44.10663" lon="3.01603">
        <ele>563.6</ele>
        <time>2021-03-06T14:51:38Z</time>
      </trkpt>
      <trkpt lat="44.10665" lon="3.01605">
        <ele>563.9</ele>
        <time>2021-03-06T14:51:40Z</time>
      </trkpt>
      <trkpt lat="44.10667" lon="3.01607">
        <ele>564.1</ele>
        <time>2021-03-06T14:51:42Z</time>
      </trkpt>
      <trkpt lat="44.10669" lon="3.01608">
        <ele>564.4</ele>
        <time>2021-03-06T14:51:44Z</time>
      </trkpt>
      <trkpt lat="44.1067" lon="3.01608">
        <ele>564.5</ele>
        <time>2021-03-06T14:51:45Z</time>
      </trkpt>
      <trkpt lat="44.10671" lon="3.01608">
        <ele>564.6</ele>
        <time>2021-03-06T14:51:46Z</time>
      </trkpt>
      <trkpt lat="44.10672" lon="3.01609">
        <ele>564.8</ele>
        <time>2021-03-06T14:51:48Z</time>
      </trkpt>
      <trkpt lat="44.10673" lon="3.01609">
        <ele>564.9</ele>
        <time>2021-03-06T14:51:49Z</time>
      </trkpt>
      <trkpt lat="44.10674" lon="3.0161">
        <ele>565</ele>
        <time>2021-03-06T14:51:50Z</time>
      </trkpt>
      <trkpt lat="44.10674" lon="3.0161">
        <ele>564.8</ele>
        <time>2021-03-06T14:51:51Z</time>
      </trkpt>
      <trkpt lat="44.10674" lon="3.01611">
        <ele>564.6</ele>
        <time>2021-03-06T14:51:53Z</time>
      </trkpt>
      <trkpt lat="44.10674" lon="3.01611">
        <ele>564.4</ele>
        <time>2021-03-06T14:51:54Z</time>
      </trkpt>
      <trkpt lat="44.10674" lon="3.01611">
        <ele>564.2</ele>
        <time>2021-03-06T14:51:55Z</time>
      </trkpt>
      <trkpt lat="44.10673" lon="3.01611">
        <ele>563.9</ele>
        <time>2021-03-06T14:51:57Z</time>
      </trkpt>
      <trkpt lat="44.10673" lon="3.01612">
        <ele>563.7</ele>
        <time>2021-03-06T14:51:59Z</time>
      </trkpt>
      <trkpt lat="44.10673" lon="3.01612">
        <ele>563.5</ele>
        <time>2021-03-06T14:52:00Z</time>
      </trkpt>
      <trkpt lat="44.10673" lon="3.01612">
        <ele>563.3</ele>
        <time>2021-03-06T14:52:01Z</time>
      </trkpt>
      <trkpt lat="44.10669" lon="3.01611">
        <ele>562.3</ele>
        <time>2021-03-06T14:52:11Z</time>
      </trkpt>
      <trkpt lat="44.10668" lon="3.01611">
        <ele>562.1</ele>
        <time>2021-03-06T14:52:12Z</time>
      </trkpt>
      <trkpt lat="44.10666" lon="3.0161">
        <ele>561.5</ele>
        <time>2021-03-06T14:52:13Z</time>
      </trkpt>
      <trkpt lat="44.10664" lon="3.0161">
        <ele>561.3</ele>
        <time>2021-03-06T14:52:14Z</time>
      </trkpt>
      <trkpt lat="44.10662" lon="3.0161">
        <ele>560.9</ele>
        <time>2021-03-06T14:52:16Z</time>
      </trkpt>
      <trkpt lat="44.10661" lon="3.0161">
        <ele>560.7</ele>
        <time>2021-03-06T14:52:18Z</time>
      </trkpt>
      <trkpt lat="44.10659" lon="3.0161">
        <ele>560.3</ele>
        <time>2021-03-06T14:52:19Z</time>
      </trkpt>
      <trkpt lat="44.10658" lon="3.01611">
        <ele>560.1</ele>
        <time>2021-03-06T14:52:20Z</time>
      </trkpt>
      <trkpt lat="44.10656" lon="3.01611">
        <ele>559.7</ele>
        <time>2021-03-06T14:52:21Z</time>
      </trkpt>
      <trkpt lat="44.10655" lon="3.01612">
        <ele>559.5</ele>
        <time>2021-03-06T14:52:22Z</time>
      </trkpt>
      <trkpt lat="44.10654" lon="3.01613">
        <ele>559.2</ele>
        <time>2021-03-06T14:52:23Z</time>
      </trkpt>
      <trkpt lat="44.10653" lon="3.01614">
        <ele>559.5</ele>
        <time>2021-03-06T14:52:25Z</time>
      </trkpt>
      <trkpt lat="44.10652" lon="3.01614">
        <ele>559.3</ele>
        <time>2021-03-06T14:52:27Z</time>
      </trkpt>
      <trkpt lat="44.10651" lon="3.01614">
        <ele>559.1</ele>
        <time>2021-03-06T14:52:28Z</time>
      </trkpt>
      <trkpt lat="44.1065" lon="3.01613">
        <ele>558.3</ele>
        <time>2021-03-06T14:52:29Z</time>
      </trkpt>
      <trkpt lat="44.1065" lon="3.01612">
        <ele>558.1</ele>
        <time>2021-03-06T14:52:31Z</time>
      </trkpt>
      <trkpt lat="44.1065" lon="3.01612">
        <ele>557.9</ele>
        <time>2021-03-06T14:52:32Z</time>
      </trkpt>
      <trkpt lat="44.10649" lon="3.01612">
        <ele>557.7</ele>
        <time>2021-03-06T14:52:33Z</time>
      </trkpt>
      <trkpt lat="44.10648" lon="3.01612">
        <ele>557.4</ele>
        <time>2021-03-06T14:52:34Z</time>
      </trkpt>
      <trkpt lat="44.10646" lon="3.01611">
        <ele>557.2</ele>
        <time>2021-03-06T14:52:35Z</time>
      </trkpt>
      <trkpt lat="44.10645" lon="3.0161">
        <ele>557</ele>
        <time>2021-03-06T14:52:37Z</time>
      </trkpt>
      <trkpt lat="44.10643" lon="3.01609">
        <ele>556.7</ele>
        <time>2021-03-06T14:52:38Z</time>
      </trkpt>
      <trkpt lat="44.10641" lon="3.01609">
        <ele>555.9</ele>
        <time>2021-03-06T14:52:40Z</time>
      </trkpt>
      <trkpt lat="44.10637" lon="3.01608">
        <ele>555.7</ele>
        <time>2021-03-06T14:52:41Z</time>
      </trkpt>
      <trkpt lat="44.10636" lon="3.01608">
        <ele>555.5</ele>
        <time>2021-03-06T14:52:42Z</time>
      </trkpt>
      <trkpt lat="44.10633" lon="3.01608">
        <ele>555.4</ele>
        <time>2021-03-06T14:52:44Z</time>
      </trkpt>
      <trkpt lat="44.10632" lon="3.01608">
        <ele>555.2</ele>
        <time>2021-03-06T14:52:45Z</time>
      </trkpt>
      <trkpt lat="44.10629" lon="3.01608">
        <ele>555</ele>
        <time>2021-03-06T14:52:46Z</time>
      </trkpt>
      <trkpt lat="44.10629" lon="3.01608">
        <ele>554.9</ele>
        <time>2021-03-06T14:52:47Z</time>
      </trkpt>
      <trkpt lat="44.10625" lon="3.01607">
        <ele>554.8</ele>
        <time>2021-03-06T14:52:49Z</time>
      </trkpt>
      <trkpt lat="44.10624" lon="3.01607">
        <ele>554.6</ele>
        <time>2021-03-06T14:52:50Z</time>
      </trkpt>
      <trkpt lat="44.10623" lon="3.01607">
        <ele>554.6</ele>
        <time>2021-03-06T14:52:51Z</time>
      </trkpt>
      <trkpt lat="44.1062" lon="3.01606">
        <ele>554.6</ele>
        <time>2021-03-06T14:52:53Z</time>
      </trkpt>
      <trkpt lat="44.10617" lon="3.01605">
        <ele>554.3</ele>
        <time>2021-03-06T14:52:54Z</time>
      </trkpt>
      <trkpt lat="44.10616" lon="3.01605">
        <ele>553.5</ele>
        <time>2021-03-06T14:52:55Z</time>
      </trkpt>
      <trkpt lat="44.1061" lon="3.01603">
        <ele>553.6</ele>
        <time>2021-03-06T14:52:57Z</time>
      </trkpt>
      <trkpt lat="44.10608" lon="3.01602">
        <ele>553.4</ele>
        <time>2021-03-06T14:52:58Z</time>
      </trkpt>
      <trkpt lat="44.10606" lon="3.01602">
        <ele>553.3</ele>
        <time>2021-03-06T14:52:59Z</time>
      </trkpt>
      <trkpt lat="44.106" lon="3.01602">
        <ele>553.5</ele>
        <time>2021-03-06T14:53:01Z</time>
      </trkpt>
      <trkpt lat="44.10595" lon="3.01601">
        <ele>553.7</ele>
        <time>2021-03-06T14:53:02Z</time>
      </trkpt>
      <trkpt lat="44.10591" lon="3.016">
        <ele>552.4</ele>
        <time>2021-03-06T14:53:03Z</time>
      </trkpt>
      <trkpt lat="44.10588" lon="3.016">
        <ele>552.4</ele>
        <time>2021-03-06T14:53:04Z</time>
      </trkpt>
      <trkpt lat="44.10584" lon="3.01601">
        <ele>553.6</ele>
        <time>2021-03-06T14:53:06Z</time>
      </trkpt>
      <trkpt lat="44.1058" lon="3.01601">
        <ele>553.6</ele>
        <time>2021-03-06T14:53:07Z</time>
      </trkpt>
      <trkpt lat="44.10575" lon="3.01601">
        <ele>553.7</ele>
        <time>2021-03-06T14:53:08Z</time>
      </trkpt>
      <trkpt lat="44.10571" lon="3.01602">
        <ele>553.6</ele>
        <time>2021-03-06T14:53:10Z</time>
      </trkpt>
      <trkpt lat="44.10567" lon="3.01602">
        <ele>553.6</ele>
        <time>2021-03-06T14:53:11Z</time>
      </trkpt>
      <trkpt lat="44.10564" lon="3.01602">
        <ele>553.5</ele>
        <time>2021-03-06T14:53:12Z</time>
      </trkpt>
      <trkpt lat="44.10561" lon="3.01602">
        <ele>553.3</ele>
        <time>2021-03-06T14:53:13Z</time>
      </trkpt>
      <trkpt lat="44.10558" lon="3.01602">
        <ele>553.2</ele>
        <time>2021-03-06T14:53:14Z</time>
      </trkpt>
      <trkpt lat="44.10555" lon="3.01603">
        <ele>553</ele>
        <time>2021-03-06T14:53:15Z</time>
      </trkpt>
      <trkpt lat="44.10552" lon="3.01604">
        <ele>552.8</ele>
        <time>2021-03-06T14:53:16Z</time>
      </trkpt>
      <trkpt lat="44.10548" lon="3.01604">
        <ele>552.6</ele>
        <time>2021-03-06T14:53:18Z</time>
      </trkpt>
      <trkpt lat="44.10544" lon="3.01605">
        <ele>554.2</ele>
        <time>2021-03-06T14:53:19Z</time>
      </trkpt>
      <trkpt lat="44.10541" lon="3.01605">
        <ele>554</ele>
        <time>2021-03-06T14:53:20Z</time>
      </trkpt>
      <trkpt lat="44.10537" lon="3.01606">
        <ele>553.8</ele>
        <time>2021-03-06T14:53:22Z</time>
      </trkpt>
      <trkpt lat="44.10534" lon="3.01606">
        <ele>553.5</ele>
        <time>2021-03-06T14:53:23Z</time>
      </trkpt>
      <trkpt lat="44.10531" lon="3.01607">
        <ele>553.3</ele>
        <time>2021-03-06T14:53:24Z</time>
      </trkpt>
      <trkpt lat="44.10527" lon="3.01607">
        <ele>552.9</ele>
        <time>2021-03-06T14:53:25Z</time>
      </trkpt>
      <trkpt lat="44.10524" lon="3.01608">
        <ele>552.6</ele>
        <time>2021-03-06T14:53:27Z</time>
      </trkpt>
      <trkpt lat="44.10521" lon="3.01609">
        <ele>552.2</ele>
        <time>2021-03-06T14:53:28Z</time>
      </trkpt>
      <trkpt lat="44.10517" lon="3.0161">
        <ele>553.6</ele>
        <time>2021-03-06T14:53:29Z</time>
      </trkpt>
      <trkpt lat="44.10516" lon="3.0161">
        <ele>553.4</ele>
        <time>2021-03-06T14:53:30Z</time>
      </trkpt>
      <trkpt lat="44.10513" lon="3.01612">
        <ele>553</ele>
        <time>2021-03-06T14:53:31Z</time>
      </trkpt>
      <trkpt lat="44.10511" lon="3.01613">
        <ele>552.5</ele>
        <time>2021-03-06T14:53:32Z</time>
      </trkpt>
      <trkpt lat="44.10508" lon="3.01615">
        <ele>553.8</ele>
        <time>2021-03-06T14:53:34Z</time>
      </trkpt>
      <trkpt lat="44.10504" lon="3.01617">
        <ele>553.2</ele>
        <time>2021-03-06T14:53:36Z</time>
      </trkpt>
      <trkpt lat="44.10501" lon="3.0162">
        <ele>554.2</ele>
        <time>2021-03-06T14:53:37Z</time>
      </trkpt>
      <trkpt lat="44.105" lon="3.0162">
        <ele>553.4</ele>
        <time>2021-03-06T14:53:38Z</time>
      </trkpt>
      <trkpt lat="44.10497" lon="3.01622">
        <ele>553.2</ele>
        <time>2021-03-06T14:53:39Z</time>
      </trkpt>
      <trkpt lat="44.10495" lon="3.01624">
        <ele>554</ele>
        <time>2021-03-06T14:53:40Z</time>
      </trkpt>
      <trkpt lat="44.10492" lon="3.01626">
        <ele>553.2</ele>
        <time>2021-03-06T14:53:42Z</time>
      </trkpt>
      <trkpt lat="44.10489" lon="3.01629">
        <ele>553.9</ele>
        <time>2021-03-06T14:53:43Z</time>
      </trkpt>
      <trkpt lat="44.10487" lon="3.01631">
        <ele>554.6</ele>
        <time>2021-03-06T14:53:45Z</time>
      </trkpt>
      <trkpt lat="44.10486" lon="3.01635">
        <ele>554.4</ele>
        <time>2021-03-06T14:53:47Z</time>
      </trkpt>
      <trkpt lat="44.10485" lon="3.01638">
        <ele>555.7</ele>
        <time>2021-03-06T14:53:48Z</time>
      </trkpt>
      <trkpt lat="44.10484" lon="3.0164">
        <ele>556.5</ele>
        <time>2021-03-06T14:53:49Z</time>
      </trkpt>
      <trkpt lat="44.10484" lon="3.01644">
        <ele>557.9</ele>
        <time>2021-03-06T14:53:51Z</time>
      </trkpt>
      <trkpt lat="44.10483" lon="3.01646">
        <ele>557.7</ele>
        <time>2021-03-06T14:53:52Z</time>
      </trkpt>
      <trkpt lat="44.10482" lon="3.01649">
        <ele>559.1</ele>
        <time>2021-03-06T14:53:53Z</time>
      </trkpt>
      <trkpt lat="44.10481" lon="3.01651">
        <ele>558.9</ele>
        <time>2021-03-06T14:53:55Z</time>
      </trkpt>
      <trkpt lat="44.1048" lon="3.01655">
        <ele>559.5</ele>
        <time>2021-03-06T14:53:56Z</time>
      </trkpt>
      <trkpt lat="44.1048" lon="3.01657">
        <ele>560.7</ele>
        <time>2021-03-06T14:53:57Z</time>
      </trkpt>
      <trkpt lat="44.10479" lon="3.01659">
        <ele>560.5</ele>
        <time>2021-03-06T14:53:59Z</time>
      </trkpt>
      <trkpt lat="44.10479" lon="3.01662">
        <ele>561.7</ele>
        <time>2021-03-06T14:54:00Z</time>
      </trkpt>
      <trkpt lat="44.10478" lon="3.01665">
        <ele>562.8</ele>
        <time>2021-03-06T14:54:01Z</time>
      </trkpt>
      <trkpt lat="44.10478" lon="3.01667">
        <ele>561.8</ele>
        <time>2021-03-06T14:54:02Z</time>
      </trkpt>
      <trkpt lat="44.10478" lon="3.0167">
        <ele>562.7</ele>
        <time>2021-03-06T14:54:04Z</time>
      </trkpt>
      <trkpt lat="44.10477" lon="3.01673">
        <ele>562.5</ele>
        <time>2021-03-06T14:54:06Z</time>
      </trkpt>
      <trkpt lat="44.10476" lon="3.01674">
        <ele>563.4</ele>
        <time>2021-03-06T14:54:07Z</time>
      </trkpt>
      <trkpt lat="44.10476" lon="3.01677">
        <ele>563.2</ele>
        <time>2021-03-06T14:54:09Z</time>
      </trkpt>
      <trkpt lat="44.10475" lon="3.01679">
        <ele>564</ele>
        <time>2021-03-06T14:54:10Z</time>
      </trkpt>
      <trkpt lat="44.10476" lon="3.01682">
        <ele>563.8</ele>
        <time>2021-03-06T14:54:12Z</time>
      </trkpt>
      <trkpt lat="44.10476" lon="3.01684">
        <ele>564.5</ele>
        <time>2021-03-06T14:54:13Z</time>
      </trkpt>
      <trkpt lat="44.10476" lon="3.01686">
        <ele>564.3</ele>
        <time>2021-03-06T14:54:14Z</time>
      </trkpt>
      <trkpt lat="44.10476" lon="3.01688">
        <ele>565.1</ele>
        <time>2021-03-06T14:54:15Z</time>
      </trkpt>
      <trkpt lat="44.10476" lon="3.0169">
        <ele>564.9</ele>
        <time>2021-03-06T14:54:16Z</time>
      </trkpt>
      <trkpt lat="44.10475" lon="3.01692">
        <ele>564.7</ele>
        <time>2021-03-06T14:54:18Z</time>
      </trkpt>
      <trkpt lat="44.10475" lon="3.01694">
        <ele>565.5</ele>
        <time>2021-03-06T14:54:19Z</time>
      </trkpt>
      <trkpt lat="44.10475" lon="3.01695">
        <ele>565.2</ele>
        <time>2021-03-06T14:54:20Z</time>
      </trkpt>
      <trkpt lat="44.10475" lon="3.01696">
        <ele>566</ele>
        <time>2021-03-06T14:54:21Z</time>
      </trkpt>
      <trkpt lat="44.10475" lon="3.01698">
        <ele>565.8</ele>
        <time>2021-03-06T14:54:22Z</time>
      </trkpt>
      <trkpt lat="44.10475" lon="3.01699">
        <ele>565.6</ele>
        <time>2021-03-06T14:54:23Z</time>
      </trkpt>
      <trkpt lat="44.10475" lon="3.01701">
        <ele>565.2</ele>
        <time>2021-03-06T14:54:25Z</time>
      </trkpt>
      <trkpt lat="44.10475" lon="3.01702">
        <ele>565</ele>
        <time>2021-03-06T14:54:26Z</time>
      </trkpt>
      <trkpt lat="44.10475" lon="3.01704">
        <ele>565.6</ele>
        <time>2021-03-06T14:54:27Z</time>
      </trkpt>
      <trkpt lat="44.10475" lon="3.01706">
        <ele>565.4</ele>
        <time>2021-03-06T14:54:29Z</time>
      </trkpt>
      <trkpt lat="44.10474" lon="3.01708">
        <ele>565.2</ele>
        <time>2021-03-06T14:54:30Z</time>
      </trkpt>
      <trkpt lat="44.10474" lon="3.01712">
        <ele>566.4</ele>
        <time>2021-03-06T14:54:32Z</time>
      </trkpt>
      <trkpt lat="44.10473" lon="3.01713">
        <ele>566.2</ele>
        <time>2021-03-06T14:54:33Z</time>
      </trkpt>
      <trkpt lat="44.10473" lon="3.01716">
        <ele>566</ele>
        <time>2021-03-06T14:54:35Z</time>
      </trkpt>
      <trkpt lat="44.10472" lon="3.01719">
        <ele>565.3</ele>
        <time>2021-03-06T14:54:37Z</time>
      </trkpt>
      <trkpt lat="44.10471" lon="3.01721">
        <ele>565.8</ele>
        <time>2021-03-06T14:54:38Z</time>
      </trkpt>
      <trkpt lat="44.10471" lon="3.01722">
        <ele>565.6</ele>
        <time>2021-03-06T14:54:39Z</time>
      </trkpt>
      <trkpt lat="44.1047" lon="3.01724">
        <ele>565.4</ele>
        <time>2021-03-06T14:54:40Z</time>
      </trkpt>
      <trkpt lat="44.10469" lon="3.01726">
        <ele>564.7</ele>
        <time>2021-03-06T14:54:41Z</time>
      </trkpt>
      <trkpt lat="44.10468" lon="3.01729">
        <ele>564.5</ele>
        <time>2021-03-06T14:54:42Z</time>
      </trkpt>
      <trkpt lat="44.10467" lon="3.01732">
        <ele>564.9</ele>
        <time>2021-03-06T14:54:44Z</time>
      </trkpt>
      <trkpt lat="44.10466" lon="3.01736">
        <ele>564.3</ele>
        <time>2021-03-06T14:54:45Z</time>
      </trkpt>
      <trkpt lat="44.10464" lon="3.01741">
        <ele>564.8</ele>
        <time>2021-03-06T14:54:47Z</time>
      </trkpt>
      <trkpt lat="44.10462" lon="3.01746">
        <ele>564.3</ele>
        <time>2021-03-06T14:54:48Z</time>
      </trkpt>
      <trkpt lat="44.10462" lon="3.01747">
        <ele>564.8</ele>
        <time>2021-03-06T14:54:49Z</time>
      </trkpt>
      <trkpt lat="44.1046" lon="3.01752">
        <ele>565.2</ele>
        <time>2021-03-06T14:54:50Z</time>
      </trkpt>
      <trkpt lat="44.10458" lon="3.01757">
        <ele>564.6</ele>
        <time>2021-03-06T14:54:52Z</time>
      </trkpt>
      <trkpt lat="44.10457" lon="3.01761">
        <ele>564.9</ele>
        <time>2021-03-06T14:54:53Z</time>
      </trkpt>
      <trkpt lat="44.10456" lon="3.01766">
        <ele>564.2</ele>
        <time>2021-03-06T14:54:54Z</time>
      </trkpt>
      <trkpt lat="44.10455" lon="3.01771">
        <ele>564.5</ele>
        <time>2021-03-06T14:54:55Z</time>
      </trkpt>
      <trkpt lat="44.10454" lon="3.01774">
        <ele>564.7</ele>
        <time>2021-03-06T14:54:56Z</time>
      </trkpt>
      <trkpt lat="44.10453" lon="3.01778">
        <ele>564</ele>
        <time>2021-03-06T14:54:58Z</time>
      </trkpt>
      <trkpt lat="44.10451" lon="3.01784">
        <ele>564.2</ele>
        <time>2021-03-06T14:55:00Z</time>
      </trkpt>
      <trkpt lat="44.10449" lon="3.01789">
        <ele>563.4</ele>
        <time>2021-03-06T14:55:01Z</time>
      </trkpt>
      <trkpt lat="44.10449" lon="3.01793">
        <ele>563.6</ele>
        <time>2021-03-06T14:55:02Z</time>
      </trkpt>
      <trkpt lat="44.10448" lon="3.01801">
        <ele>564.1</ele>
        <time>2021-03-06T14:55:04Z</time>
      </trkpt>
      <trkpt lat="44.10447" lon="3.01805">
        <ele>563.1</ele>
        <time>2021-03-06T14:55:05Z</time>
      </trkpt>
      <trkpt lat="44.10447" lon="3.0181">
        <ele>563.2</ele>
        <time>2021-03-06T14:55:06Z</time>
      </trkpt>
      <trkpt lat="44.10447" lon="3.01814">
        <ele>563.3</ele>
        <time>2021-03-06T14:55:07Z</time>
      </trkpt>
      <trkpt lat="44.10446" lon="3.01818">
        <ele>563.4</ele>
        <time>2021-03-06T14:55:08Z</time>
      </trkpt>
      <trkpt lat="44.10445" lon="3.01823">
        <ele>563.4</ele>
        <time>2021-03-06T14:55:09Z</time>
      </trkpt>
      <trkpt lat="44.10445" lon="3.01828">
        <ele>563.5</ele>
        <time>2021-03-06T14:55:11Z</time>
      </trkpt>
      <trkpt lat="44.10445" lon="3.01832">
        <ele>563.6</ele>
        <time>2021-03-06T14:55:12Z</time>
      </trkpt>
      <trkpt lat="44.10445" lon="3.01837">
        <ele>564</ele>
        <time>2021-03-06T14:55:13Z</time>
      </trkpt>
      <trkpt lat="44.10445" lon="3.01842">
        <ele>564</ele>
        <time>2021-03-06T14:55:14Z</time>
      </trkpt>
      <trkpt lat="44.10446" lon="3.01846">
        <ele>564.5</ele>
        <time>2021-03-06T14:55:16Z</time>
      </trkpt>
      <trkpt lat="44.10447" lon="3.01852">
        <ele>565.2</ele>
        <time>2021-03-06T14:55:18Z</time>
      </trkpt>
      <trkpt lat="44.10449" lon="3.01858">
        <ele>565.8</ele>
        <time>2021-03-06T14:55:20Z</time>
      </trkpt>
      <trkpt lat="44.10451" lon="3.01863">
        <ele>566.4</ele>
        <time>2021-03-06T14:55:21Z</time>
      </trkpt>
      <trkpt lat="44.10452" lon="3.01865">
        <ele>566.7</ele>
        <time>2021-03-06T14:55:22Z</time>
      </trkpt>
      <trkpt lat="44.10453" lon="3.01869">
        <ele>567.1</ele>
        <time>2021-03-06T14:55:24Z</time>
      </trkpt>
      <trkpt lat="44.10454" lon="3.01872">
        <ele>567.4</ele>
        <time>2021-03-06T14:55:25Z</time>
      </trkpt>
      <trkpt lat="44.10455" lon="3.01874">
        <ele>567.7</ele>
        <time>2021-03-06T14:55:27Z</time>
      </trkpt>
      <trkpt lat="44.10456" lon="3.01876">
        <ele>568</ele>
        <time>2021-03-06T14:55:28Z</time>
      </trkpt>
      <trkpt lat="44.10457" lon="3.01878">
        <ele>568.3</ele>
        <time>2021-03-06T14:55:29Z</time>
      </trkpt>
      <trkpt lat="44.10458" lon="3.01879">
        <ele>568.4</ele>
        <time>2021-03-06T14:55:31Z</time>
      </trkpt>
      <trkpt lat="44.10459" lon="3.01878">
        <ele>568.6</ele>
        <time>2021-03-06T14:55:32Z</time>
      </trkpt>
      <trkpt lat="44.10459" lon="3.0188">
        <ele>568.7</ele>
        <time>2021-03-06T14:55:33Z</time>
      </trkpt>
      <trkpt lat="44.1046" lon="3.01881">
        <ele>568.9</ele>
        <time>2021-03-06T14:55:34Z</time>
      </trkpt>
      <trkpt lat="44.1046" lon="3.01882">
        <ele>569</ele>
        <time>2021-03-06T14:55:35Z</time>
      </trkpt>
      <trkpt lat="44.1046" lon="3.01884">
        <ele>569.2</ele>
        <time>2021-03-06T14:55:37Z</time>
      </trkpt>
      <trkpt lat="44.10461" lon="3.01885">
        <ele>569.3</ele>
        <time>2021-03-06T14:55:38Z</time>
      </trkpt>
      <trkpt lat="44.10461" lon="3.01885">
        <ele>569.4</ele>
        <time>2021-03-06T14:55:39Z</time>
      </trkpt>
      <trkpt lat="44.10462" lon="3.01886">
        <ele>569.5</ele>
        <time>2021-03-06T14:55:40Z</time>
      </trkpt>
      <trkpt lat="44.10463" lon="3.01888">
        <ele>569.7</ele>
        <time>2021-03-06T14:55:41Z</time>
      </trkpt>
      <trkpt lat="44.10463" lon="3.01889">
        <ele>569.9</ele>
        <time>2021-03-06T14:55:43Z</time>
      </trkpt>
      <trkpt lat="44.10463" lon="3.01889">
        <ele>570</ele>
        <time>2021-03-06T14:55:44Z</time>
      </trkpt>
      <trkpt lat="44.10463" lon="3.01889">
        <ele>570</ele>
        <time>2021-03-06T14:55:46Z</time>
      </trkpt>
      <trkpt lat="44.10463" lon="3.01889">
        <ele>570</ele>
        <time>2021-03-06T14:55:47Z</time>
      </trkpt>
      <trkpt lat="44.10463" lon="3.01889">
        <ele>570</ele>
        <time>2021-03-06T14:55:49Z</time>
      </trkpt>
      <trkpt lat="44.10463" lon="3.01889">
        <ele>570</ele>
        <time>2021-03-06T14:55:51Z</time>
      </trkpt>
      <trkpt lat="44.10466" lon="3.01889">
        <ele>570.4</ele>
        <time>2021-03-06T14:56:21Z</time>
      </trkpt>
      <trkpt lat="44.10467" lon="3.01888">
        <ele>570.5</ele>
        <time>2021-03-06T14:56:22Z</time>
      </trkpt>
      <trkpt lat="44.10468" lon="3.01888">
        <ele>570.7</ele>
        <time>2021-03-06T14:56:24Z</time>
      </trkpt>
      <trkpt lat="44.10469" lon="3.01888">
        <ele>570.8</ele>
        <time>2021-03-06T14:56:25Z</time>
      </trkpt>
      <trkpt lat="44.1047" lon="3.01888">
        <ele>571</ele>
        <time>2021-03-06T14:56:26Z</time>
      </trkpt>
      <trkpt lat="44.10471" lon="3.01888">
        <ele>571.1</ele>
        <time>2021-03-06T14:56:27Z</time>
      </trkpt>
      <trkpt lat="44.10472" lon="3.01889">
        <ele>571.3</ele>
        <time>2021-03-06T14:56:29Z</time>
      </trkpt>
      <trkpt lat="44.10473" lon="3.01889">
        <ele>571.5</ele>
        <time>2021-03-06T14:56:31Z</time>
      </trkpt>
      <trkpt lat="44.10474" lon="3.0189">
        <ele>571.6</ele>
        <time>2021-03-06T14:56:32Z</time>
      </trkpt>
      <trkpt lat="44.10475" lon="3.0189">
        <ele>571.8</ele>
        <time>2021-03-06T14:56:34Z</time>
      </trkpt>
      <trkpt lat="44.10476" lon="3.01889">
        <ele>572</ele>
        <time>2021-03-06T14:56:36Z</time>
      </trkpt>
      <trkpt lat="44.10477" lon="3.01888">
        <ele>572.1</ele>
        <time>2021-03-06T14:56:37Z</time>
      </trkpt>
      <trkpt lat="44.10478" lon="3.01888">
        <ele>572.3</ele>
        <time>2021-03-06T14:56:38Z</time>
      </trkpt>
      <trkpt lat="44.10479" lon="3.01889">
        <ele>572.4</ele>
        <time>2021-03-06T14:56:39Z</time>
      </trkpt>
      <trkpt lat="44.10481" lon="3.0189">
        <ele>572.7</ele>
        <time>2021-03-06T14:56:41Z</time>
      </trkpt>
      <trkpt lat="44.10481" lon="3.0189">
        <ele>572.8</ele>
        <time>2021-03-06T14:56:42Z</time>
      </trkpt>
      <trkpt lat="44.10483" lon="3.01891">
        <ele>573</ele>
        <time>2021-03-06T14:56:43Z</time>
      </trkpt>
      <trkpt lat="44.10484" lon="3.01891">
        <ele>573.2</ele>
        <time>2021-03-06T14:56:45Z</time>
      </trkpt>
      <trkpt lat="44.10485" lon="3.01891">
        <ele>573.3</ele>
        <time>2021-03-06T14:56:46Z</time>
      </trkpt>
      <trkpt lat="44.10487" lon="3.01892">
        <ele>573.6</ele>
        <time>2021-03-06T14:56:47Z</time>
      </trkpt>
      <trkpt lat="44.10489" lon="3.01894">
        <ele>574</ele>
        <time>2021-03-06T14:56:49Z</time>
      </trkpt>
      <trkpt lat="44.1049" lon="3.01895">
        <ele>574.2</ele>
        <time>2021-03-06T14:56:50Z</time>
      </trkpt>
      <trkpt lat="44.10491" lon="3.01897">
        <ele>574.4</ele>
        <time>2021-03-06T14:56:51Z</time>
      </trkpt>
      <trkpt lat="44.10492" lon="3.01898">
        <ele>574.6</ele>
        <time>2021-03-06T14:56:53Z</time>
      </trkpt>
      <trkpt lat="44.10494" lon="3.019">
        <ele>574.9</ele>
        <time>2021-03-06T14:56:55Z</time>
      </trkpt>
      <trkpt lat="44.10495" lon="3.01901">
        <ele>575.1</ele>
        <time>2021-03-06T14:56:56Z</time>
      </trkpt>
      <trkpt lat="44.10496" lon="3.01902">
        <ele>575.3</ele>
        <time>2021-03-06T14:56:58Z</time>
      </trkpt>
      <trkpt lat="44.10497" lon="3.01903">
        <ele>575.5</ele>
        <time>2021-03-06T14:56:59Z</time>
      </trkpt>
      <trkpt lat="44.10498" lon="3.01904">
        <ele>575.7</ele>
        <time>2021-03-06T14:57:01Z</time>
      </trkpt>
      <trkpt lat="44.10498" lon="3.01905">
        <ele>575.8</ele>
        <time>2021-03-06T14:57:02Z</time>
      </trkpt>
      <trkpt lat="44.10499" lon="3.01906">
        <ele>575.9</ele>
        <time>2021-03-06T14:57:03Z</time>
      </trkpt>
      <trkpt lat="44.105" lon="3.01907">
        <ele>576.1</ele>
        <time>2021-03-06T14:57:05Z</time>
      </trkpt>
      <trkpt lat="44.10502" lon="3.01908">
        <ele>576.4</ele>
        <time>2021-03-06T14:57:06Z</time>
      </trkpt>
      <trkpt lat="44.10503" lon="3.01909">
        <ele>576.5</ele>
        <time>2021-03-06T14:57:07Z</time>
      </trkpt>
      <trkpt lat="44.10503" lon="3.0191">
        <ele>576.7</ele>
        <time>2021-03-06T14:57:09Z</time>
      </trkpt>
      <trkpt lat="44.10504" lon="3.01911">
        <ele>576.9</ele>
        <time>2021-03-06T14:57:10Z</time>
      </trkpt>
      <trkpt lat="44.10505" lon="3.01912">
        <ele>577</ele>
        <time>2021-03-06T14:57:11Z</time>
      </trkpt>
      <trkpt lat="44.10507" lon="3.01913">
        <ele>577.3</ele>
        <time>2021-03-06T14:57:13Z</time>
      </trkpt>
      <trkpt lat="44.10507" lon="3.01914">
        <ele>577.4</ele>
        <time>2021-03-06T14:57:15Z</time>
      </trkpt>
      <trkpt lat="44.10508" lon="3.01914">
        <ele>577.4</ele>
        <time>2021-03-06T14:57:16Z</time>
      </trkpt>
      <trkpt lat="44.10508" lon="3.01915">
        <ele>577.5</ele>
        <time>2021-03-06T14:57:18Z</time>
      </trkpt>
      <trkpt lat="44.10508" lon="3.01915">
        <ele>577.6</ele>
        <time>2021-03-06T14:57:19Z</time>
      </trkpt>
      <trkpt lat="44.1051" lon="3.01917">
        <ele>577.9</ele>
        <time>2021-03-06T14:57:21Z</time>
      </trkpt>
      <trkpt lat="44.1051" lon="3.01919">
        <ele>578.1</ele>
        <time>2021-03-06T14:57:22Z</time>
      </trkpt>
      <trkpt lat="44.10511" lon="3.0192">
        <ele>578.3</ele>
        <time>2021-03-06T14:57:23Z</time>
      </trkpt>
      <trkpt lat="44.10512" lon="3.01921">
        <ele>578.5</ele>
        <time>2021-03-06T14:57:24Z</time>
      </trkpt>
      <trkpt lat="44.10514" lon="3.01922">
        <ele>578.7</ele>
        <time>2021-03-06T14:57:26Z</time>
      </trkpt>
      <trkpt lat="44.10515" lon="3.01923">
        <ele>578.9</ele>
        <time>2021-03-06T14:57:27Z</time>
      </trkpt>
      <trkpt lat="44.10517" lon="3.01924">
        <ele>579.2</ele>
        <time>2021-03-06T14:57:29Z</time>
      </trkpt>
      <trkpt lat="44.1052" lon="3.01927">
        <ele>579.7</ele>
        <time>2021-03-06T14:57:31Z</time>
      </trkpt>
      <trkpt lat="44.10521" lon="3.01928">
        <ele>579.9</ele>
        <time>2021-03-06T14:57:32Z</time>
      </trkpt>
      <trkpt lat="44.10523" lon="3.0193">
        <ele>580.3</ele>
        <time>2021-03-06T14:57:34Z</time>
      </trkpt>
      <trkpt lat="44.10524" lon="3.01931">
        <ele>580.5</ele>
        <time>2021-03-06T14:57:35Z</time>
      </trkpt>
      <trkpt lat="44.10527" lon="3.01932">
        <ele>580.8</ele>
        <time>2021-03-06T14:57:37Z</time>
      </trkpt>
      <trkpt lat="44.10527" lon="3.01933">
        <ele>581</ele>
        <time>2021-03-06T14:57:38Z</time>
      </trkpt>
      <trkpt lat="44.10529" lon="3.01934">
        <ele>581.2</ele>
        <time>2021-03-06T14:57:39Z</time>
      </trkpt>
      <trkpt lat="44.1053" lon="3.01935">
        <ele>581.4</ele>
        <time>2021-03-06T14:57:41Z</time>
      </trkpt>
      <trkpt lat="44.10531" lon="3.01936">
        <ele>581.7</ele>
        <time>2021-03-06T14:57:43Z</time>
      </trkpt>
      <trkpt lat="44.10533" lon="3.01937">
        <ele>581.9</ele>
        <time>2021-03-06T14:57:45Z</time>
      </trkpt>
      <trkpt lat="44.10534" lon="3.01937">
        <ele>582.1</ele>
        <time>2021-03-06T14:57:46Z</time>
      </trkpt>
      <trkpt lat="44.10536" lon="3.01939">
        <ele>582.4</ele>
        <time>2021-03-06T14:57:48Z</time>
      </trkpt>
      <trkpt lat="44.10538" lon="3.0194">
        <ele>582.7</ele>
        <time>2021-03-06T14:57:50Z</time>
      </trkpt>
      <trkpt lat="44.10539" lon="3.01941">
        <ele>582.9</ele>
        <time>2021-03-06T14:57:51Z</time>
      </trkpt>
      <trkpt lat="44.10541" lon="3.01941">
        <ele>583.1</ele>
        <time>2021-03-06T14:57:53Z</time>
      </trkpt>
      <trkpt lat="44.10542" lon="3.01942">
        <ele>583.3</ele>
        <time>2021-03-06T14:57:54Z</time>
      </trkpt>
      <trkpt lat="44.10543" lon="3.01942">
        <ele>583.5</ele>
        <time>2021-03-06T14:57:56Z</time>
      </trkpt>
      <trkpt lat="44.10545" lon="3.01942">
        <ele>583.7</ele>
        <time>2021-03-06T14:57:57Z</time>
      </trkpt>
      <trkpt lat="44.10545" lon="3.01943">
        <ele>583.8</ele>
        <time>2021-03-06T14:57:58Z</time>
      </trkpt>
      <trkpt lat="44.10547" lon="3.01945">
        <ele>584.1</ele>
        <time>2021-03-06T14:57:59Z</time>
      </trkpt>
      <trkpt lat="44.10548" lon="3.01945">
        <ele>584.3</ele>
        <time>2021-03-06T14:58:01Z</time>
      </trkpt>
      <trkpt lat="44.10551" lon="3.01946">
        <ele>584.7</ele>
        <time>2021-03-06T14:58:03Z</time>
      </trkpt>
      <trkpt lat="44.10552" lon="3.01947">
        <ele>584.9</ele>
        <time>2021-03-06T14:58:04Z</time>
      </trkpt>
      <trkpt lat="44.10553" lon="3.01948">
        <ele>585.1</ele>
        <time>2021-03-06T14:58:06Z</time>
      </trkpt>
      <trkpt lat="44.10555" lon="3.0195">
        <ele>585.5</ele>
        <time>2021-03-06T14:58:08Z</time>
      </trkpt>
      <trkpt lat="44.10557" lon="3.01952">
        <ele>585.9</ele>
        <time>2021-03-06T14:58:10Z</time>
      </trkpt>
      <trkpt lat="44.10559" lon="3.01954">
        <ele>586.2</ele>
        <time>2021-03-06T14:58:12Z</time>
      </trkpt>
      <trkpt lat="44.10561" lon="3.01956">
        <ele>586.5</ele>
        <time>2021-03-06T14:58:13Z</time>
      </trkpt>
      <trkpt lat="44.10562" lon="3.01956">
        <ele>586.6</ele>
        <time>2021-03-06T14:58:14Z</time>
      </trkpt>
      <trkpt lat="44.10563" lon="3.01957">
        <ele>586.8</ele>
        <time>2021-03-06T14:58:15Z</time>
      </trkpt>
      <trkpt lat="44.10565" lon="3.01959">
        <ele>587.2</ele>
        <time>2021-03-06T14:58:17Z</time>
      </trkpt>
      <trkpt lat="44.10566" lon="3.0196">
        <ele>587.4</ele>
        <time>2021-03-06T14:58:18Z</time>
      </trkpt>
      <trkpt lat="44.10568" lon="3.0196">
        <ele>587.6</ele>
        <time>2021-03-06T14:58:19Z</time>
      </trkpt>
      <trkpt lat="44.10569" lon="3.01961">
        <ele>587.8</ele>
        <time>2021-03-06T14:58:21Z</time>
      </trkpt>
      <trkpt lat="44.1057" lon="3.01962">
        <ele>588</ele>
        <time>2021-03-06T14:58:22Z</time>
      </trkpt>
      <trkpt lat="44.10572" lon="3.01964">
        <ele>588.3</ele>
        <time>2021-03-06T14:58:24Z</time>
      </trkpt>
      <trkpt lat="44.10574" lon="3.01965">
        <ele>588.6</ele>
        <time>2021-03-06T14:58:25Z</time>
      </trkpt>
      <trkpt lat="44.10575" lon="3.01966">
        <ele>588.8</ele>
        <time>2021-03-06T14:58:26Z</time>
      </trkpt>
      <trkpt lat="44.10575" lon="3.01967">
        <ele>588.9</ele>
        <time>2021-03-06T14:58:27Z</time>
      </trkpt>
      <trkpt lat="44.10577" lon="3.01968">
        <ele>589.1</ele>
        <time>2021-03-06T14:58:29Z</time>
      </trkpt>
      <trkpt lat="44.10578" lon="3.01969">
        <ele>589.3</ele>
        <time>2021-03-06T14:58:30Z</time>
      </trkpt>
      <trkpt lat="44.1058" lon="3.01971">
        <ele>589.7</ele>
        <time>2021-03-06T14:58:31Z</time>
      </trkpt>
      <trkpt lat="44.10581" lon="3.01972">
        <ele>589.9</ele>
        <time>2021-03-06T14:58:33Z</time>
      </trkpt>
      <trkpt lat="44.10584" lon="3.01973">
        <ele>590.3</ele>
        <time>2021-03-06T14:58:34Z</time>
      </trkpt>
      <trkpt lat="44.10585" lon="3.01973">
        <ele>590.5</ele>
        <time>2021-03-06T14:58:35Z</time>
      </trkpt>
      <trkpt lat="44.10587" lon="3.01974">
        <ele>590.8</ele>
        <time>2021-03-06T14:58:36Z</time>
      </trkpt>
      <trkpt lat="44.10589" lon="3.01976">
        <ele>591.1</ele>
        <time>2021-03-06T14:58:38Z</time>
      </trkpt>
      <trkpt lat="44.10591" lon="3.01977">
        <ele>591.4</ele>
        <time>2021-03-06T14:58:39Z</time>
      </trkpt>
      <trkpt lat="44.10594" lon="3.01978">
        <ele>591.8</ele>
        <time>2021-03-06T14:58:41Z</time>
      </trkpt>
      <trkpt lat="44.10595" lon="3.01978">
        <ele>592</ele>
        <time>2021-03-06T14:58:42Z</time>
      </trkpt>
      <trkpt lat="44.10596" lon="3.01978">
        <ele>592.2</ele>
        <time>2021-03-06T14:58:43Z</time>
      </trkpt>
      <trkpt lat="44.10599" lon="3.0198">
        <ele>592.6</ele>
        <time>2021-03-06T14:58:45Z</time>
      </trkpt>
      <trkpt lat="44.10601" lon="3.01981">
        <ele>593</ele>
        <time>2021-03-06T14:58:46Z</time>
      </trkpt>
      <trkpt lat="44.10602" lon="3.01981">
        <ele>593.1</ele>
        <time>2021-03-06T14:58:47Z</time>
      </trkpt>
      <trkpt lat="44.10603" lon="3.01982">
        <ele>593.3</ele>
        <time>2021-03-06T14:58:48Z</time>
      </trkpt>
      <trkpt lat="44.10606" lon="3.01984">
        <ele>593.7</ele>
        <time>2021-03-06T14:58:50Z</time>
      </trkpt>
      <trkpt lat="44.10607" lon="3.01984">
        <ele>593.8</ele>
        <time>2021-03-06T14:58:51Z</time>
      </trkpt>
      <trkpt lat="44.10609" lon="3.01985">
        <ele>594.1</ele>
        <time>2021-03-06T14:58:52Z</time>
      </trkpt>
      <trkpt lat="44.10611" lon="3.01986">
        <ele>594.6</ele>
        <time>2021-03-06T14:58:54Z</time>
      </trkpt>
      <trkpt lat="44.10613" lon="3.01987">
        <ele>594.9</ele>
        <time>2021-03-06T14:58:55Z</time>
      </trkpt>
      <trkpt lat="44.10616" lon="3.01989">
        <ele>595.3</ele>
        <time>2021-03-06T14:58:57Z</time>
      </trkpt>
      <trkpt lat="44.10617" lon="3.01989">
        <ele>595.5</ele>
        <time>2021-03-06T14:58:58Z</time>
      </trkpt>
      <trkpt lat="44.1062" lon="3.01991">
        <ele>595.8</ele>
        <time>2021-03-06T14:59:00Z</time>
      </trkpt>
      <trkpt lat="44.10621" lon="3.01991">
        <ele>596</ele>
        <time>2021-03-06T14:59:01Z</time>
      </trkpt>
      <trkpt lat="44.10623" lon="3.01992">
        <ele>596.4</ele>
        <time>2021-03-06T14:59:03Z</time>
      </trkpt>
      <trkpt lat="44.10626" lon="3.01993">
        <ele>596.8</ele>
        <time>2021-03-06T14:59:05Z</time>
      </trkpt>
      <trkpt lat="44.10628" lon="3.01994">
        <ele>597.1</ele>
        <time>2021-03-06T14:59:07Z</time>
      </trkpt>
      <trkpt lat="44.10629" lon="3.01994">
        <ele>597.3</ele>
        <time>2021-03-06T14:59:08Z</time>
      </trkpt>
      <trkpt lat="44.10631" lon="3.01995">
        <ele>597.6</ele>
        <time>2021-03-06T14:59:09Z</time>
      </trkpt>
      <trkpt lat="44.10633" lon="3.01996">
        <ele>597.8</ele>
        <time>2021-03-06T14:59:10Z</time>
      </trkpt>
      <trkpt lat="44.10634" lon="3.01997">
        <ele>598.1</ele>
        <time>2021-03-06T14:59:11Z</time>
      </trkpt>
      <trkpt lat="44.10637" lon="3.02">
        <ele>598.6</ele>
        <time>2021-03-06T14:59:12Z</time>
      </trkpt>
      <trkpt lat="44.10638" lon="3.02002">
        <ele>598.8</ele>
        <time>2021-03-06T14:59:13Z</time>
      </trkpt>
      <trkpt lat="44.10639" lon="3.02004">
        <ele>599.1</ele>
        <time>2021-03-06T14:59:15Z</time>
      </trkpt>
      <trkpt lat="44.1064" lon="3.02005">
        <ele>599.3</ele>
        <time>2021-03-06T14:59:16Z</time>
      </trkpt>
      <trkpt lat="44.10643" lon="3.02007">
        <ele>599.7</ele>
        <time>2021-03-06T14:59:17Z</time>
      </trkpt>
      <trkpt lat="44.10645" lon="3.02008">
        <ele>600</ele>
        <time>2021-03-06T14:59:18Z</time>
      </trkpt>
      <trkpt lat="44.10647" lon="3.02009">
        <ele>600.4</ele>
        <time>2021-03-06T14:59:20Z</time>
      </trkpt>
      <trkpt lat="44.1065" lon="3.02011">
        <ele>600.9</ele>
        <time>2021-03-06T14:59:22Z</time>
      </trkpt>
      <trkpt lat="44.10652" lon="3.02013">
        <ele>601.2</ele>
        <time>2021-03-06T14:59:24Z</time>
      </trkpt>
      <trkpt lat="44.10656" lon="3.02014">
        <ele>601.8</ele>
        <time>2021-03-06T14:59:26Z</time>
      </trkpt>
      <trkpt lat="44.10658" lon="3.02016">
        <ele>602.2</ele>
        <time>2021-03-06T14:59:27Z</time>
      </trkpt>
      <trkpt lat="44.10663" lon="3.0202">
        <ele>602.9</ele>
        <time>2021-03-06T14:59:29Z</time>
      </trkpt>
      <trkpt lat="44.10664" lon="3.02021">
        <ele>603.2</ele>
        <time>2021-03-06T14:59:30Z</time>
      </trkpt>
      <trkpt lat="44.10665" lon="3.02022">
        <ele>603.4</ele>
        <time>2021-03-06T14:59:31Z</time>
      </trkpt>
      <trkpt lat="44.10669" lon="3.02024">
        <ele>603.9</ele>
        <time>2021-03-06T14:59:33Z</time>
      </trkpt>
      <trkpt lat="44.10672" lon="3.02026">
        <ele>604.5</ele>
        <time>2021-03-06T14:59:35Z</time>
      </trkpt>
      <trkpt lat="44.10675" lon="3.02028">
        <ele>604.9</ele>
        <time>2021-03-06T14:59:36Z</time>
      </trkpt>
      <trkpt lat="44.10676" lon="3.02029">
        <ele>605.1</ele>
        <time>2021-03-06T14:59:37Z</time>
      </trkpt>
      <trkpt lat="44.10678" lon="3.0203">
        <ele>605.4</ele>
        <time>2021-03-06T14:59:38Z</time>
      </trkpt>
      <trkpt lat="44.1068" lon="3.02032">
        <ele>605.8</ele>
        <time>2021-03-06T14:59:40Z</time>
      </trkpt>
      <trkpt lat="44.10681" lon="3.02033">
        <ele>605.9</ele>
        <time>2021-03-06T14:59:41Z</time>
      </trkpt>
      <trkpt lat="44.10684" lon="3.02035">
        <ele>606.5</ele>
        <time>2021-03-06T14:59:42Z</time>
      </trkpt>
      <trkpt lat="44.10686" lon="3.02037">
        <ele>606.8</ele>
        <time>2021-03-06T14:59:43Z</time>
      </trkpt>
      <trkpt lat="44.10689" lon="3.02039">
        <ele>607.2</ele>
        <time>2021-03-06T14:59:45Z</time>
      </trkpt>
      <trkpt lat="44.10693" lon="3.02042">
        <ele>607.9</ele>
        <time>2021-03-06T14:59:47Z</time>
      </trkpt>
      <trkpt lat="44.10696" lon="3.02044">
        <ele>608.4</ele>
        <time>2021-03-06T14:59:48Z</time>
      </trkpt>
      <trkpt lat="44.10699" lon="3.02046">
        <ele>608.9</ele>
        <time>2021-03-06T14:59:50Z</time>
      </trkpt>
      <trkpt lat="44.10701" lon="3.02049">
        <ele>609.4</ele>
        <time>2021-03-06T14:59:51Z</time>
      </trkpt>
      <trkpt lat="44.10705" lon="3.02052">
        <ele>610</ele>
        <time>2021-03-06T14:59:52Z</time>
      </trkpt>
      <trkpt lat="44.10706" lon="3.02054">
        <ele>610.2</ele>
        <time>2021-03-06T14:59:53Z</time>
      </trkpt>
      <trkpt lat="44.1071" lon="3.02058">
        <ele>610.9</ele>
        <time>2021-03-06T14:59:55Z</time>
      </trkpt>
      <trkpt lat="44.10711" lon="3.0206">
        <ele>611.2</ele>
        <time>2021-03-06T14:59:56Z</time>
      </trkpt>
      <trkpt lat="44.10714" lon="3.02064">
        <ele>611.8</ele>
        <time>2021-03-06T14:59:58Z</time>
      </trkpt>
      <trkpt lat="44.10719" lon="3.0207">
        <ele>612.7</ele>
        <time>2021-03-06T15:00:00Z</time>
      </trkpt>
      <trkpt lat="44.10721" lon="3.02073">
        <ele>613.2</ele>
        <time>2021-03-06T15:00:01Z</time>
      </trkpt>
      <trkpt lat="44.10725" lon="3.02078">
        <ele>613.9</ele>
        <time>2021-03-06T15:00:03Z</time>
      </trkpt>
      <trkpt lat="44.10727" lon="3.02081">
        <ele>614.4</ele>
        <time>2021-03-06T15:00:04Z</time>
      </trkpt>
      <trkpt lat="44.1073" lon="3.02084">
        <ele>614.8</ele>
        <time>2021-03-06T15:00:05Z</time>
      </trkpt>
      <trkpt lat="44.10733" lon="3.02088">
        <ele>615.6</ele>
        <time>2021-03-06T15:00:07Z</time>
      </trkpt>
      <trkpt lat="44.10736" lon="3.02091">
        <ele>616</ele>
        <time>2021-03-06T15:00:08Z</time>
      </trkpt>
      <trkpt lat="44.10739" lon="3.02094">
        <ele>616.6</ele>
        <time>2021-03-06T15:00:10Z</time>
      </trkpt>
      <trkpt lat="44.10742" lon="3.02097">
        <ele>617.1</ele>
        <time>2021-03-06T15:00:11Z</time>
      </trkpt>
      <trkpt lat="44.10745" lon="3.02099">
        <ele>617.6</ele>
        <time>2021-03-06T15:00:12Z</time>
      </trkpt>
      <trkpt lat="44.10746" lon="3.021">
        <ele>617.7</ele>
        <time>2021-03-06T15:00:13Z</time>
      </trkpt>
      <trkpt lat="44.10749" lon="3.02102">
        <ele>618.3</ele>
        <time>2021-03-06T15:00:14Z</time>
      </trkpt>
      <trkpt lat="44.10752" lon="3.02105">
        <ele>618.9</ele>
        <time>2021-03-06T15:00:16Z</time>
      </trkpt>
      <trkpt lat="44.10755" lon="3.02108">
        <ele>619.3</ele>
        <time>2021-03-06T15:00:17Z</time>
      </trkpt>
      <trkpt lat="44.10756" lon="3.02108">
        <ele>619.5</ele>
        <time>2021-03-06T15:00:18Z</time>
      </trkpt>
      <trkpt lat="44.10759" lon="3.02109">
        <ele>619.9</ele>
        <time>2021-03-06T15:00:20Z</time>
      </trkpt>
      <trkpt lat="44.10762" lon="3.02111">
        <ele>620.4</ele>
        <time>2021-03-06T15:00:21Z</time>
      </trkpt>
      <trkpt lat="44.10765" lon="3.02112">
        <ele>620.8</ele>
        <time>2021-03-06T15:00:22Z</time>
      </trkpt>
      <trkpt lat="44.10768" lon="3.02115">
        <ele>621.3</ele>
        <time>2021-03-06T15:00:24Z</time>
      </trkpt>
      <trkpt lat="44.10773" lon="3.02118">
        <ele>622.1</ele>
        <time>2021-03-06T15:00:26Z</time>
      </trkpt>
      <trkpt lat="44.10775" lon="3.0212">
        <ele>622.5</ele>
        <time>2021-03-06T15:00:27Z</time>
      </trkpt>
      <trkpt lat="44.10779" lon="3.02123">
        <ele>623.2</ele>
        <time>2021-03-06T15:00:29Z</time>
      </trkpt>
      <trkpt lat="44.10783" lon="3.02124">
        <ele>623.8</ele>
        <time>2021-03-06T15:00:30Z</time>
      </trkpt>
      <trkpt lat="44.10785" lon="3.02124">
        <ele>624</ele>
        <time>2021-03-06T15:00:31Z</time>
      </trkpt>
      <trkpt lat="44.10788" lon="3.02125">
        <ele>624.5</ele>
        <time>2021-03-06T15:00:33Z</time>
      </trkpt>
      <trkpt lat="44.10789" lon="3.02126">
        <ele>624.6</ele>
        <time>2021-03-06T15:00:34Z</time>
      </trkpt>
      <trkpt lat="44.10793" lon="3.02127">
        <ele>625.2</ele>
        <time>2021-03-06T15:00:36Z</time>
      </trkpt>
      <trkpt lat="44.10797" lon="3.02129">
        <ele>625.9</ele>
        <time>2021-03-06T15:00:38Z</time>
      </trkpt>
      <trkpt lat="44.10801" lon="3.02131">
        <ele>626.4</ele>
        <time>2021-03-06T15:00:39Z</time>
      </trkpt>
      <trkpt lat="44.10802" lon="3.02132">
        <ele>626.7</ele>
        <time>2021-03-06T15:00:40Z</time>
      </trkpt>
      <trkpt lat="44.10807" lon="3.02133">
        <ele>627.4</ele>
        <time>2021-03-06T15:00:42Z</time>
      </trkpt>
      <trkpt lat="44.10809" lon="3.02134">
        <ele>627.7</ele>
        <time>2021-03-06T15:00:44Z</time>
      </trkpt>
      <trkpt lat="44.10811" lon="3.02135">
        <ele>628</ele>
        <time>2021-03-06T15:00:45Z</time>
      </trkpt>
      <trkpt lat="44.10812" lon="3.02135">
        <ele>628.3</ele>
        <time>2021-03-06T15:00:46Z</time>
      </trkpt>
      <trkpt lat="44.10816" lon="3.02137">
        <ele>628.8</ele>
        <time>2021-03-06T15:00:48Z</time>
      </trkpt>
      <trkpt lat="44.10819" lon="3.02137">
        <ele>629.2</ele>
        <time>2021-03-06T15:00:49Z</time>
      </trkpt>
      <trkpt lat="44.10823" lon="3.02138">
        <ele>629.8</ele>
        <time>2021-03-06T15:00:51Z</time>
      </trkpt>
      <trkpt lat="44.10825" lon="3.02138">
        <ele>630.2</ele>
        <time>2021-03-06T15:00:52Z</time>
      </trkpt>
      <trkpt lat="44.10826" lon="3.02138">
        <ele>630.3</ele>
        <time>2021-03-06T15:00:53Z</time>
      </trkpt>
      <trkpt lat="44.1083" lon="3.02138">
        <ele>630.9</ele>
        <time>2021-03-06T15:00:55Z</time>
      </trkpt>
      <trkpt lat="44.10834" lon="3.02139">
        <ele>631.5</ele>
        <time>2021-03-06T15:00:57Z</time>
      </trkpt>
      <trkpt lat="44.10836" lon="3.0214">
        <ele>631.7</ele>
        <time>2021-03-06T15:00:58Z</time>
      </trkpt>
      <trkpt lat="44.10838" lon="3.02139">
        <ele>632</ele>
        <time>2021-03-06T15:00:59Z</time>
      </trkpt>
      <trkpt lat="44.10842" lon="3.02138">
        <ele>632.6</ele>
        <time>2021-03-06T15:01:01Z</time>
      </trkpt>
      <trkpt lat="44.10843" lon="3.02138">
        <ele>632.8</ele>
        <time>2021-03-06T15:01:02Z</time>
      </trkpt>
      <trkpt lat="44.10845" lon="3.02138">
        <ele>633</ele>
        <time>2021-03-06T15:01:03Z</time>
      </trkpt>
      <trkpt lat="44.10848" lon="3.02138">
        <ele>633.5</ele>
        <time>2021-03-06T15:01:04Z</time>
      </trkpt>
      <trkpt lat="44.10849" lon="3.02139">
        <ele>633.7</ele>
        <time>2021-03-06T15:01:05Z</time>
      </trkpt>
      <trkpt lat="44.10852" lon="3.02141">
        <ele>634.1</ele>
        <time>2021-03-06T15:01:07Z</time>
      </trkpt>
      <trkpt lat="44.10852" lon="3.02145">
        <ele>634.5</ele>
        <time>2021-03-06T15:01:08Z</time>
      </trkpt>
      <trkpt lat="44.10852" lon="3.02151">
        <ele>635.2</ele>
        <time>2021-03-06T15:01:10Z</time>
      </trkpt>
      <trkpt lat="44.10851" lon="3.02159">
        <ele>634.2</ele>
        <time>2021-03-06T15:01:11Z</time>
      </trkpt>
      <trkpt lat="44.10845" lon="3.02173">
        <ele>632.9</ele>
        <time>2021-03-06T15:01:13Z</time>
      </trkpt>
      <trkpt lat="44.10838" lon="3.02191">
        <ele>631.2</ele>
        <time>2021-03-06T15:01:15Z</time>
      </trkpt>
      <trkpt lat="44.10834" lon="3.02207">
        <ele>629.8</ele>
        <time>2021-03-06T15:01:17Z</time>
      </trkpt>
      <trkpt lat="44.1083" lon="3.02218">
        <ele>628.1</ele>
        <time>2021-03-06T15:01:19Z</time>
      </trkpt>
      <trkpt lat="44.10824" lon="3.02227">
        <ele>626.3</ele>
        <time>2021-03-06T15:01:20Z</time>
      </trkpt>
      <trkpt lat="44.10813" lon="3.02245">
        <ele>623.5</ele>
        <time>2021-03-06T15:01:22Z</time>
      </trkpt>
      <trkpt lat="44.10808" lon="3.02254">
        <ele>622.4</ele>
        <time>2021-03-06T15:01:23Z</time>
      </trkpt>
      <trkpt lat="44.108" lon="3.02266">
        <ele>621.3</ele>
        <time>2021-03-06T15:01:25Z</time>
      </trkpt>
      <trkpt lat="44.10797" lon="3.02273">
        <ele>620.9</ele>
        <time>2021-03-06T15:01:26Z</time>
      </trkpt>
      <trkpt lat="44.10789" lon="3.02287">
        <ele>620.7</ele>
        <time>2021-03-06T15:01:28Z</time>
      </trkpt>
      <trkpt lat="44.10785" lon="3.02295">
        <ele>620.8</ele>
        <time>2021-03-06T15:01:29Z</time>
      </trkpt>
      <trkpt lat="44.10775" lon="3.02309">
        <ele>621.3</ele>
        <time>2021-03-06T15:01:31Z</time>
      </trkpt>
      <trkpt lat="44.10767" lon="3.02321">
        <ele>621.8</ele>
        <time>2021-03-06T15:01:33Z</time>
      </trkpt>
      <trkpt lat="44.10762" lon="3.02331">
        <ele>622.2</ele>
        <time>2021-03-06T15:01:35Z</time>
      </trkpt>
      <trkpt lat="44.10755" lon="3.02341">
        <ele>622.6</ele>
        <time>2021-03-06T15:01:37Z</time>
      </trkpt>
      <trkpt lat="44.10747" lon="3.02352">
        <ele>622.9</ele>
        <time>2021-03-06T15:01:39Z</time>
      </trkpt>
      <trkpt lat="44.1074" lon="3.02362">
        <ele>623.1</ele>
        <time>2021-03-06T15:01:41Z</time>
      </trkpt>
      <trkpt lat="44.10736" lon="3.02368">
        <ele>623.2</ele>
        <time>2021-03-06T15:01:42Z</time>
      </trkpt>
      <trkpt lat="44.10731" lon="3.02374">
        <ele>623.2</ele>
        <time>2021-03-06T15:01:43Z</time>
      </trkpt>
      <trkpt lat="44.10722" lon="3.02385">
        <ele>623.1</ele>
        <time>2021-03-06T15:01:45Z</time>
      </trkpt>
      <trkpt lat="44.10712" lon="3.02396">
        <ele>622.6</ele>
        <time>2021-03-06T15:01:47Z</time>
      </trkpt>
      <trkpt lat="44.107" lon="3.02407">
        <ele>621.8</ele>
        <time>2021-03-06T15:01:49Z</time>
      </trkpt>
      <trkpt lat="44.10686" lon="3.02419">
        <ele>620.4</ele>
        <time>2021-03-06T15:01:51Z</time>
      </trkpt>
      <trkpt lat="44.10674" lon="3.02433">
        <ele>619</ele>
        <time>2021-03-06T15:01:53Z</time>
      </trkpt>
      <trkpt lat="44.10666" lon="3.02441">
        <ele>617.9</ele>
        <time>2021-03-06T15:01:54Z</time>
      </trkpt>
      <trkpt lat="44.10658" lon="3.02449">
        <ele>616.5</ele>
        <time>2021-03-06T15:01:55Z</time>
      </trkpt>
      <trkpt lat="44.10643" lon="3.02465">
        <ele>614</ele>
        <time>2021-03-06T15:01:57Z</time>
      </trkpt>
      <trkpt lat="44.10637" lon="3.02473">
        <ele>612.8</ele>
        <time>2021-03-06T15:01:58Z</time>
      </trkpt>
      <trkpt lat="44.1062" lon="3.02484">
        <ele>610.8</ele>
        <time>2021-03-06T15:02:00Z</time>
      </trkpt>
      <trkpt lat="44.10615" lon="3.02485">
        <ele>610.4</ele>
        <time>2021-03-06T15:02:01Z</time>
      </trkpt>
      <trkpt lat="44.10612" lon="3.02486">
        <ele>610.2</ele>
        <time>2021-03-06T15:02:03Z</time>
      </trkpt>
      <trkpt lat="44.10607" lon="3.02489">
        <ele>609.9</ele>
        <time>2021-03-06T15:02:05Z</time>
      </trkpt>
      <trkpt lat="44.10604" lon="3.02493">
        <ele>609.7</ele>
        <time>2021-03-06T15:02:06Z</time>
      </trkpt>
      <trkpt lat="44.10602" lon="3.02495">
        <ele>609.6</ele>
        <time>2021-03-06T15:02:07Z</time>
      </trkpt>
      <trkpt lat="44.10599" lon="3.02497">
        <ele>609.5</ele>
        <time>2021-03-06T15:02:08Z</time>
      </trkpt>
      <trkpt lat="44.10595" lon="3.02498">
        <ele>609.4</ele>
        <time>2021-03-06T15:02:09Z</time>
      </trkpt>
      <trkpt lat="44.10591" lon="3.02501">
        <ele>609.3</ele>
        <time>2021-03-06T15:02:11Z</time>
      </trkpt>
      <trkpt lat="44.10589" lon="3.02503">
        <ele>609.2</ele>
        <time>2021-03-06T15:02:12Z</time>
      </trkpt>
      <trkpt lat="44.10584" lon="3.02505">
        <ele>609.2</ele>
        <time>2021-03-06T15:02:13Z</time>
      </trkpt>
      <trkpt lat="44.10581" lon="3.02507">
        <ele>609.2</ele>
        <time>2021-03-06T15:02:15Z</time>
      </trkpt>
      <trkpt lat="44.10578" lon="3.02509">
        <ele>609.3</ele>
        <time>2021-03-06T15:02:16Z</time>
      </trkpt>
      <trkpt lat="44.10576" lon="3.02511">
        <ele>609.3</ele>
        <time>2021-03-06T15:02:17Z</time>
      </trkpt>
      <trkpt lat="44.10573" lon="3.02514">
        <ele>609.3</ele>
        <time>2021-03-06T15:02:19Z</time>
      </trkpt>
      <trkpt lat="44.1057" lon="3.02517">
        <ele>609.4</ele>
        <time>2021-03-06T15:02:20Z</time>
      </trkpt>
      <trkpt lat="44.10568" lon="3.02519">
        <ele>609.4</ele>
        <time>2021-03-06T15:02:21Z</time>
      </trkpt>
      <trkpt lat="44.10566" lon="3.02521">
        <ele>609.5</ele>
        <time>2021-03-06T15:02:22Z</time>
      </trkpt>
      <trkpt lat="44.10562" lon="3.02525">
        <ele>609.6</ele>
        <time>2021-03-06T15:02:24Z</time>
      </trkpt>
      <trkpt lat="44.1056" lon="3.02528">
        <ele>609.6</ele>
        <time>2021-03-06T15:02:25Z</time>
      </trkpt>
      <trkpt lat="44.10558" lon="3.0253">
        <ele>609.7</ele>
        <time>2021-03-06T15:02:26Z</time>
      </trkpt>
      <trkpt lat="44.10555" lon="3.02533">
        <ele>609.8</ele>
        <time>2021-03-06T15:02:28Z</time>
      </trkpt>
      <trkpt lat="44.1055" lon="3.02537">
        <ele>609.9</ele>
        <time>2021-03-06T15:02:29Z</time>
      </trkpt>
      <trkpt lat="44.10545" lon="3.02542">
        <ele>610</ele>
        <time>2021-03-06T15:02:31Z</time>
      </trkpt>
      <trkpt lat="44.10542" lon="3.02546">
        <ele>610.1</ele>
        <time>2021-03-06T15:02:33Z</time>
      </trkpt>
      <trkpt lat="44.10538" lon="3.02549">
        <ele>610.1</ele>
        <time>2021-03-06T15:02:34Z</time>
      </trkpt>
      <trkpt lat="44.10535" lon="3.02553">
        <ele>610.2</ele>
        <time>2021-03-06T15:02:36Z</time>
      </trkpt>
      <trkpt lat="44.10532" lon="3.02555">
        <ele>610.2</ele>
        <time>2021-03-06T15:02:37Z</time>
      </trkpt>
      <trkpt lat="44.1053" lon="3.02557">
        <ele>610.2</ele>
        <time>2021-03-06T15:02:38Z</time>
      </trkpt>
      <trkpt lat="44.10526" lon="3.0256">
        <ele>610.2</ele>
        <time>2021-03-06T15:02:39Z</time>
      </trkpt>
      <trkpt lat="44.10504" lon="3.02551">
        <ele>609.9</ele>
        <time>2018-05-19T11:47:41Z</time>
      </trkpt>
      <trkpt lat="44.10501" lon="3.02548">
        <ele>609.9</ele>
        <time>2018-05-19T11:47:42Z</time>
      </trkpt>
      <trkpt lat="44.10498" lon="3.02545">
        <ele>609.9</ele>
        <time>2018-05-19T11:47:43Z</time>
      </trkpt>
      <trkpt lat="44.10495" lon="3.02542">
        <ele>609.9</ele>
        <time>2018-05-19T11:47:44Z</time>
      </trkpt>
      <trkpt lat="44.10493" lon="3.02539">
        <ele>609.9</ele>
        <time>2018-05-19T11:47:45Z</time>
      </trkpt>
      <trkpt lat="44.1049" lon="3.02536">
        <ele>609.9</ele>
        <time>2018-05-19T11:47:46Z</time>
      </trkpt>
      <trkpt lat="44.10488" lon="3.02534">
        <ele>609.9</ele>
        <time>2018-05-19T11:47:47Z</time>
      </trkpt>
      <trkpt lat="44.10485" lon="3.02531">
        <ele>609.8</ele>
        <time>2018-05-19T11:47:48Z</time>
      </trkpt>
      <trkpt lat="44.10483" lon="3.02528">
        <ele>609.8</ele>
        <time>2018-05-19T11:47:49Z</time>
      </trkpt>
      <trkpt lat="44.1048" lon="3.02525">
        <ele>609.8</ele>
        <time>2018-05-19T11:47:50Z</time>
      </trkpt>
      <trkpt lat="44.10478" lon="3.02523">
        <ele>609.8</ele>
        <time>2018-05-19T11:47:51Z</time>
      </trkpt>
      <trkpt lat="44.10475" lon="3.0252">
        <ele>609.8</ele>
        <time>2018-05-19T11:47:52Z</time>
      </trkpt>
      <trkpt lat="44.10473" lon="3.02518">
        <ele>609.8</ele>
        <time>2018-05-19T11:47:53Z</time>
      </trkpt>
      <trkpt lat="44.10471" lon="3.02515">
        <ele>609.7</ele>
        <time>2018-05-19T11:47:54Z</time>
      </trkpt>
      <trkpt lat="44.10468" lon="3.02513">
        <ele>609.7</ele>
        <time>2018-05-19T11:47:55Z</time>
      </trkpt>
      <trkpt lat="44.10466" lon="3.0251">
        <ele>609.7</ele>
        <time>2018-05-19T11:47:56Z</time>
      </trkpt>
      <trkpt lat="44.10463" lon="3.02508">
        <ele>609.7</ele>
        <time>2018-05-19T11:47:57Z</time>
      </trkpt>
      <trkpt lat="44.10461" lon="3.02505">
        <ele>609.7</ele>
        <time>2018-05-19T11:47:58Z</time>
      </trkpt>
      <trkpt lat="44.10458" lon="3.02503">
        <ele>609.6</ele>
        <time>2018-05-19T11:47:59Z</time>
      </trkpt>
      <trkpt lat="44.10456" lon="3.02501">
        <ele>609.6</ele>
        <time>2018-05-19T11:48:00Z</time>
      </trkpt>
      <trkpt lat="44.10453" lon="3.02498">
        <ele>609.6</ele>
        <time>2018-05-19T11:48:01Z</time>
      </trkpt>
      <trkpt lat="44.1045" lon="3.02495">
        <ele>609.6</ele>
        <time>2018-05-19T11:48:02Z</time>
      </trkpt>
      <trkpt lat="44.10448" lon="3.02492">
        <ele>609.5</ele>
        <time>2018-05-19T11:48:03Z</time>
      </trkpt>
      <trkpt lat="44.10446" lon="3.0249">
        <ele>609.5</ele>
        <time>2018-05-19T11:48:04Z</time>
      </trkpt>
      <trkpt lat="44.10443" lon="3.02487">
        <ele>609.5</ele>
        <time>2018-05-19T11:48:05Z</time>
      </trkpt>
      <trkpt lat="44.1044" lon="3.02484">
        <ele>609.5</ele>
        <time>2018-05-19T11:48:06Z</time>
      </trkpt>
      <trkpt lat="44.10437" lon="3.02481">
        <ele>609.4</ele>
        <time>2018-05-19T11:48:07Z</time>
      </trkpt>
      <trkpt lat="44.10435" lon="3.02477">
        <ele>609.4</ele>
        <time>2018-05-19T11:48:08Z</time>
      </trkpt>
      <trkpt lat="44.10432" lon="3.02474">
        <ele>609.4</ele>
        <time>2018-05-19T11:48:09Z</time>
      </trkpt>
      <trkpt lat="44.1043" lon="3.0247">
        <ele>609.4</ele>
        <time>2018-05-19T11:48:10Z</time>
      </trkpt>
      <trkpt lat="44.10427" lon="3.02467">
        <ele>609.3</ele>
        <time>2018-05-19T11:48:11Z</time>
      </trkpt>
      <trkpt lat="44.10425" lon="3.02463">
        <ele>609.3</ele>
        <time>2018-05-19T11:48:12Z</time>
      </trkpt>
      <trkpt lat="44.10422" lon="3.0246">
        <ele>609.3</ele>
        <time>2018-05-19T11:48:13Z</time>
      </trkpt>
      <trkpt lat="44.1042" lon="3.02456">
        <ele>609.3</ele>
        <time>2018-05-19T11:48:14Z</time>
      </trkpt>
      <trkpt lat="44.10417" lon="3.02452">
        <ele>609.2</ele>
        <time>2018-05-19T11:48:15Z</time>
      </trkpt>
      <trkpt lat="44.10415" lon="3.02447">
        <ele>609.2</ele>
        <time>2018-05-19T11:48:16Z</time>
      </trkpt>
      <trkpt lat="44.10412" lon="3.02443">
        <ele>609.2</ele>
        <time>2018-05-19T11:48:17Z</time>
      </trkpt>
      <trkpt lat="44.10409" lon="3.02439">
        <ele>609.1</ele>
        <time>2018-05-19T11:48:18Z</time>
      </trkpt>
      <trkpt lat="44.10407" lon="3.02435">
        <ele>609.1</ele>
        <time>2018-05-19T11:48:19Z</time>
      </trkpt>
      <trkpt lat="44.10405" lon="3.02431">
        <ele>609.1</ele>
        <time>2018-05-19T11:48:20Z</time>
      </trkpt>
      <trkpt lat="44.10403" lon="3.02428">
        <ele>609</ele>
        <time>2018-05-19T11:48:21Z</time>
      </trkpt>
      <trkpt lat="44.104" lon="3.02424">
        <ele>609</ele>
        <time>2018-05-19T11:48:22Z</time>
      </trkpt>
      <trkpt lat="44.10397" lon="3.02421">
        <ele>609</ele>
        <time>2018-05-19T11:48:23Z</time>
      </trkpt>
      <trkpt lat="44.10395" lon="3.02417">
        <ele>609</ele>
        <time>2018-05-19T11:48:24Z</time>
      </trkpt>
      <trkpt lat="44.10392" lon="3.02414">
        <ele>608.9</ele>
        <time>2018-05-19T11:48:25Z</time>
      </trkpt>
      <trkpt lat="44.1039" lon="3.02411">
        <ele>608.9</ele>
        <time>2018-05-19T11:48:26Z</time>
      </trkpt>
      <trkpt lat="44.10387" lon="3.02407">
        <ele>608.8</ele>
        <time>2018-05-19T11:48:27Z</time>
      </trkpt>
      <trkpt lat="44.10385" lon="3.02403">
        <ele>608.8</ele>
        <time>2018-05-19T11:48:28Z</time>
      </trkpt>
      <trkpt lat="44.10382" lon="3.02399">
        <ele>608.8</ele>
        <time>2018-05-19T11:48:29Z</time>
      </trkpt>
      <trkpt lat="44.1038" lon="3.02395">
        <ele>608.7</ele>
        <time>2018-05-19T11:48:30Z</time>
      </trkpt>
      <trkpt lat="44.10378" lon="3.02392">
        <ele>608.7</ele>
        <time>2018-05-19T11:48:31Z</time>
      </trkpt>
      <trkpt lat="44.10376" lon="3.02387">
        <ele>608.7</ele>
        <time>2018-05-19T11:48:32Z</time>
      </trkpt>
      <trkpt lat="44.10374" lon="3.02383">
        <ele>608.6</ele>
        <time>2018-05-19T11:48:33Z</time>
      </trkpt>
      <trkpt lat="44.10372" lon="3.02378">
        <ele>608.6</ele>
        <time>2018-05-19T11:48:34Z</time>
      </trkpt>
      <trkpt lat="44.1037" lon="3.02373">
        <ele>608.6</ele>
        <time>2018-05-19T11:48:35Z</time>
      </trkpt>
      <trkpt lat="44.10368" lon="3.02368">
        <ele>608.6</ele>
        <time>2018-05-19T11:48:36Z</time>
      </trkpt>
      <trkpt lat="44.10366" lon="3.02364">
        <ele>608.5</ele>
        <time>2018-05-19T11:48:37Z</time>
      </trkpt>
      <trkpt lat="44.10365" lon="3.02359">
        <ele>608.5</ele>
        <time>2018-05-19T11:48:38Z</time>
      </trkpt>
      <trkpt lat="44.10363" lon="3.02354">
        <ele>608.5</ele>
        <time>2018-05-19T11:48:39Z</time>
      </trkpt>
      <trkpt lat="44.1036" lon="3.0235">
        <ele>608.4</ele>
        <time>2018-05-19T11:48:40Z</time>
      </trkpt>
      <trkpt lat="44.10358" lon="3.02345">
        <ele>608.4</ele>
        <time>2018-05-19T11:48:41Z</time>
      </trkpt>
      <trkpt lat="44.10355" lon="3.0234">
        <ele>608.4</ele>
        <time>2018-05-19T11:48:42Z</time>
      </trkpt>
      <trkpt lat="44.10353" lon="3.02336">
        <ele>608.4</ele>
        <time>2018-05-19T11:48:43Z</time>
      </trkpt>
      <trkpt lat="44.10349" lon="3.02331">
        <ele>608.3</ele>
        <time>2018-05-19T11:48:44Z</time>
      </trkpt>
      <trkpt lat="44.10345" lon="3.02327">
        <ele>608.3</ele>
        <time>2018-05-19T11:48:45Z</time>
      </trkpt>
      <trkpt lat="44.10342" lon="3.02323">
        <ele>608.3</ele>
        <time>2018-05-19T11:48:46Z</time>
      </trkpt>
      <trkpt lat="44.10337" lon="3.02318">
        <ele>608.2</ele>
        <time>2018-05-19T11:48:47Z</time>
      </trkpt>
      <trkpt lat="44.10333" lon="3.02314">
        <ele>608.1</ele>
        <time>2018-05-19T11:48:48Z</time>
      </trkpt>
      <trkpt lat="44.10328" lon="3.0231">
        <ele>608.1</ele>
        <time>2018-05-19T11:48:49Z</time>
      </trkpt>
      <trkpt lat="44.10325" lon="3.02306">
        <ele>608</ele>
        <time>2018-05-19T11:48:50Z</time>
      </trkpt>
      <trkpt lat="44.10321" lon="3.02302">
        <ele>608</ele>
        <time>2018-05-19T11:48:51Z</time>
      </trkpt>
      <trkpt lat="44.10316" lon="3.023">
        <ele>607.9</ele>
        <time>2018-05-19T11:48:52Z</time>
      </trkpt>
      <trkpt lat="44.10312" lon="3.02296">
        <ele>607.8</ele>
        <time>2018-05-19T11:48:53Z</time>
      </trkpt>
      <trkpt lat="44.10307" lon="3.02292">
        <ele>607.7</ele>
        <time>2018-05-19T11:48:54Z</time>
      </trkpt>
      <trkpt lat="44.10303" lon="3.02288">
        <ele>607.7</ele>
        <time>2018-05-19T11:48:55Z</time>
      </trkpt>
      <trkpt lat="44.10297" lon="3.02284">
        <ele>607.5</ele>
        <time>2018-05-19T11:48:56Z</time>
      </trkpt>
      <trkpt lat="44.10292" lon="3.02281">
        <ele>607.3</ele>
        <time>2018-05-19T11:48:57Z</time>
      </trkpt>
      <trkpt lat="44.10287" lon="3.02277">
        <ele>607</ele>
        <time>2018-05-19T11:48:58Z</time>
      </trkpt>
      <trkpt lat="44.10282" lon="3.02272">
        <ele>606.5</ele>
        <time>2018-05-19T11:48:59Z</time>
      </trkpt>
      <trkpt lat="44.10276" lon="3.02267">
        <ele>605.9</ele>
        <time>2018-05-19T11:49:00Z</time>
      </trkpt>
      <trkpt lat="44.1027" lon="3.02262">
        <ele>605.7</ele>
        <time>2018-05-19T11:49:01Z</time>
      </trkpt>
      <trkpt lat="44.10265" lon="3.02258">
        <ele>605.6</ele>
        <time>2018-05-19T11:49:02Z</time>
      </trkpt>
      <trkpt lat="44.10259" lon="3.02251">
        <ele>605.4</ele>
        <time>2018-05-19T11:49:03Z</time>
      </trkpt>
      <trkpt lat="44.10252" lon="3.02246">
        <ele>605.2</ele>
        <time>2018-05-19T11:49:04Z</time>
      </trkpt>
      <trkpt lat="44.10247" lon="3.0224">
        <ele>605.1</ele>
        <time>2018-05-19T11:49:05Z</time>
      </trkpt>
      <trkpt lat="44.1024" lon="3.02235">
        <ele>604.9</ele>
        <time>2018-05-19T11:49:06Z</time>
      </trkpt>
      <trkpt lat="44.10234" lon="3.02229">
        <ele>604.7</ele>
        <time>2018-05-19T11:49:07Z</time>
      </trkpt>
      <trkpt lat="44.10228" lon="3.02224">
        <ele>604.3</ele>
        <time>2018-05-19T11:49:08Z</time>
      </trkpt>
      <trkpt lat="44.10221" lon="3.02218">
        <ele>603.5</ele>
        <time>2018-05-19T11:49:09Z</time>
      </trkpt>
      <trkpt lat="44.10214" lon="3.02212">
        <ele>602.7</ele>
        <time>2018-05-19T11:49:10Z</time>
      </trkpt>
      <trkpt lat="44.10209" lon="3.02206">
        <ele>602.4</ele>
        <time>2018-05-19T11:49:11Z</time>
      </trkpt>
      <trkpt lat="44.10205" lon="3.022">
        <ele>602</ele>
        <time>2018-05-19T11:49:12Z</time>
      </trkpt>
      <trkpt lat="44.10201" lon="3.02193">
        <ele>600.7</ele>
        <time>2018-05-19T11:49:13Z</time>
      </trkpt>
      <trkpt lat="44.10197" lon="3.02187">
        <ele>599.9</ele>
        <time>2018-05-19T11:49:14Z</time>
      </trkpt>
      <trkpt lat="44.10193" lon="3.0218">
        <ele>599.5</ele>
        <time>2018-05-19T11:49:15Z</time>
      </trkpt>
      <trkpt lat="44.10189" lon="3.02174">
        <ele>599.2</ele>
        <time>2018-05-19T11:49:16Z</time>
      </trkpt>
      <trkpt lat="44.10185" lon="3.02168">
        <ele>599</ele>
        <time>2018-05-19T11:49:17Z</time>
      </trkpt>
      <trkpt lat="44.10182" lon="3.02162">
        <ele>598.8</ele>
        <time>2018-05-19T11:49:18Z</time>
      </trkpt>
      <trkpt lat="44.10179" lon="3.02156">
        <ele>598.6</ele>
        <time>2018-05-19T11:49:19Z</time>
      </trkpt>
      <trkpt lat="44.10175" lon="3.02149">
        <ele>598.4</ele>
        <time>2018-05-19T11:49:20Z</time>
      </trkpt>
      <trkpt lat="44.10169" lon="3.02144">
        <ele>598.1</ele>
        <time>2018-05-19T11:49:21Z</time>
      </trkpt>
      <trkpt lat="44.10163" lon="3.02141">
        <ele>597.8</ele>
        <time>2018-05-19T11:49:22Z</time>
      </trkpt>
      <trkpt lat="44.10156" lon="3.02137">
        <ele>597</ele>
        <time>2018-05-19T11:49:23Z</time>
      </trkpt>
      <trkpt lat="44.10149" lon="3.02135">
        <ele>596.1</ele>
        <time>2018-05-19T11:49:24Z</time>
      </trkpt>
      <trkpt lat="44.10142" lon="3.02132">
        <ele>595.5</ele>
        <time>2018-05-19T11:49:25Z</time>
      </trkpt>
      <trkpt lat="44.10134" lon="3.0213">
        <ele>595.1</ele>
        <time>2018-05-19T11:49:26Z</time>
      </trkpt>
      <trkpt lat="44.10127" lon="3.02127">
        <ele>594.9</ele>
        <time>2018-05-19T11:49:27Z</time>
      </trkpt>
      <trkpt lat="44.10119" lon="3.02125">
        <ele>594.6</ele>
        <time>2018-05-19T11:49:28Z</time>
      </trkpt>
      <trkpt lat="44.10112" lon="3.02121">
        <ele>594.4</ele>
        <time>2018-05-19T11:49:29Z</time>
      </trkpt>
      <trkpt lat="44.10104" lon="3.02118">
        <ele>594.2</ele>
        <time>2018-05-19T11:49:30Z</time>
      </trkpt>
      <trkpt lat="44.10096" lon="3.02114">
        <ele>594</ele>
        <time>2018-05-19T11:49:31Z</time>
      </trkpt>
      <trkpt lat="44.10088" lon="3.0211">
        <ele>593.8</ele>
        <time>2018-05-19T11:49:32Z</time>
      </trkpt>
      <trkpt lat="44.10081" lon="3.02107">
        <ele>593.6</ele>
        <time>2018-05-19T11:49:33Z</time>
      </trkpt>
      <trkpt lat="44.10073" lon="3.02103">
        <ele>593.1</ele>
        <time>2018-05-19T11:49:34Z</time>
      </trkpt>
      <trkpt lat="44.10065" lon="3.02099">
        <ele>592</ele>
        <time>2018-05-19T11:49:35Z</time>
      </trkpt>
      <trkpt lat="44.10057" lon="3.02096">
        <ele>591.3</ele>
        <time>2018-05-19T11:49:36Z</time>
      </trkpt>
      <trkpt lat="44.10048" lon="3.02092">
        <ele>590.8</ele>
        <time>2018-05-19T11:49:37Z</time>
      </trkpt>
      <trkpt lat="44.10039" lon="3.02088">
        <ele>590.4</ele>
        <time>2018-05-19T11:49:38Z</time>
      </trkpt>
      <trkpt lat="44.10029" lon="3.02085">
        <ele>590.1</ele>
        <time>2018-05-19T11:49:39Z</time>
      </trkpt>
      <trkpt lat="44.1002" lon="3.02081">
        <ele>589.7</ele>
        <time>2018-05-19T11:49:40Z</time>
      </trkpt>
      <trkpt lat="44.1001" lon="3.02078">
        <ele>589.1</ele>
        <time>2018-05-19T11:49:41Z</time>
      </trkpt>
      <trkpt lat="44.1" lon="3.02074">
        <ele>587.6</ele>
        <time>2018-05-19T11:49:42Z</time>
      </trkpt>
      <trkpt lat="44.0999" lon="3.0207">
        <ele>586.9</ele>
        <time>2018-05-19T11:49:43Z</time>
      </trkpt>
      <trkpt lat="44.09981" lon="3.02065">
        <ele>586.6</ele>
        <time>2018-05-19T11:49:44Z</time>
      </trkpt>
      <trkpt lat="44.09972" lon="3.02059">
        <ele>586.1</ele>
        <time>2018-05-19T11:49:45Z</time>
      </trkpt>
      <trkpt lat="44.09963" lon="3.02052">
        <ele>585.7</ele>
        <time>2018-05-19T11:49:46Z</time>
      </trkpt>
      <trkpt lat="44.09955" lon="3.02043">
        <ele>585.3</ele>
        <time>2018-05-19T11:49:47Z</time>
      </trkpt>
      <trkpt lat="44.09948" lon="3.02031">
        <ele>583.7</ele>
        <time>2018-05-19T11:49:48Z</time>
      </trkpt>
      <trkpt lat="44.09942" lon="3.02018">
        <ele>582.9</ele>
        <time>2018-05-19T11:49:49Z</time>
      </trkpt>
      <trkpt lat="44.09937" lon="3.02006">
        <ele>582.3</ele>
        <time>2018-05-19T11:49:50Z</time>
      </trkpt>
      <trkpt lat="44.09932" lon="3.01994">
        <ele>581.8</ele>
        <time>2018-05-19T11:49:51Z</time>
      </trkpt>
      <trkpt lat="44.09926" lon="3.01983">
        <ele>581.3</ele>
        <time>2018-05-19T11:49:52Z</time>
      </trkpt>
      <trkpt lat="44.09919" lon="3.01972">
        <ele>580.4</ele>
        <time>2018-05-19T11:49:53Z</time>
      </trkpt>
      <trkpt lat="44.09912" lon="3.0196">
        <ele>579.3</ele>
        <time>2018-05-19T11:49:54Z</time>
      </trkpt>
      <trkpt lat="44.09906" lon="3.01949">
        <ele>578.8</ele>
        <time>2018-05-19T11:49:55Z</time>
      </trkpt>
      <trkpt lat="44.099" lon="3.01939">
        <ele>578.4</ele>
        <time>2018-05-19T11:49:56Z</time>
      </trkpt>
      <trkpt lat="44.09894" lon="3.01928">
        <ele>578.2</ele>
        <time>2018-05-19T11:49:57Z</time>
      </trkpt>
      <trkpt lat="44.09889" lon="3.01918">
        <ele>578</ele>
        <time>2018-05-19T11:49:58Z</time>
      </trkpt>
      <trkpt lat="44.09884" lon="3.0191">
        <ele>577.9</ele>
        <time>2018-05-19T11:49:59Z</time>
      </trkpt>
      <trkpt lat="44.09878" lon="3.019">
        <ele>577.7</ele>
        <time>2018-05-19T11:50:00Z</time>
      </trkpt>
      <trkpt lat="44.09873" lon="3.01893">
        <ele>577.4</ele>
        <time>2018-05-19T11:50:01Z</time>
      </trkpt>
      <trkpt lat="44.09867" lon="3.01891">
        <ele>577.2</ele>
        <time>2018-05-19T11:50:02Z</time>
      </trkpt>
      <trkpt lat="44.09863" lon="3.01892">
        <ele>577</ele>
        <time>2018-05-19T11:50:03Z</time>
      </trkpt>
      <trkpt lat="44.0986" lon="3.01894">
        <ele>577</ele>
        <time>2018-05-19T11:50:04Z</time>
      </trkpt>
      <trkpt lat="44.09856" lon="3.01899">
        <ele>577</ele>
        <time>2018-05-19T11:50:06Z</time>
      </trkpt>
      <trkpt lat="44.09854" lon="3.01901">
        <ele>576.9</ele>
        <time>2018-05-19T11:50:07Z</time>
      </trkpt>
      <trkpt lat="44.09852" lon="3.01903">
        <ele>576.8</ele>
        <time>2018-05-19T11:50:08Z</time>
      </trkpt>
      <trkpt lat="44.09849" lon="3.01906">
        <ele>576.7</ele>
        <time>2018-05-19T11:50:09Z</time>
      </trkpt>
      <trkpt lat="44.09846" lon="3.01908">
        <ele>576.7</ele>
        <time>2018-05-19T11:50:10Z</time>
      </trkpt>
      <trkpt lat="44.09841" lon="3.01906">
        <ele>576.8</ele>
        <time>2018-05-19T11:50:12Z</time>
      </trkpt>
      <trkpt lat="44.09838" lon="3.01906">
        <ele>576.8</ele>
        <time>2018-05-19T11:50:13Z</time>
      </trkpt>
      <trkpt lat="44.09835" lon="3.01904">
        <ele>576.9</ele>
        <time>2018-05-19T11:50:14Z</time>
      </trkpt>
      <trkpt lat="44.09831" lon="3.01903">
        <ele>577</ele>
        <time>2018-05-19T11:50:15Z</time>
      </trkpt>
      <trkpt lat="44.09828" lon="3.01902">
        <ele>577.1</ele>
        <time>2018-05-19T11:50:16Z</time>
      </trkpt>
      <trkpt lat="44.09824" lon="3.01901">
        <ele>577.2</ele>
        <time>2018-05-19T11:50:17Z</time>
      </trkpt>
      <trkpt lat="44.0982" lon="3.019">
        <ele>577.4</ele>
        <time>2018-05-19T11:50:18Z</time>
      </trkpt>
      <trkpt lat="44.09817" lon="3.01899">
        <ele>577.5</ele>
        <time>2018-05-19T11:50:19Z</time>
      </trkpt>
      <trkpt lat="44.09813" lon="3.01899">
        <ele>577.5</ele>
        <time>2018-05-19T11:50:20Z</time>
      </trkpt>
      <trkpt lat="44.09809" lon="3.01899">
        <ele>577.5</ele>
        <time>2018-05-19T11:50:21Z</time>
      </trkpt>
      <trkpt lat="44.09805" lon="3.01899">
        <ele>577.5</ele>
        <time>2018-05-19T11:50:22Z</time>
      </trkpt>
      <trkpt lat="44.098" lon="3.019">
        <ele>577.5</ele>
        <time>2018-05-19T11:50:23Z</time>
      </trkpt>
      <trkpt lat="44.09795" lon="3.01904">
        <ele>577.4</ele>
        <time>2018-05-19T11:50:24Z</time>
      </trkpt>
      <trkpt lat="44.0979" lon="3.01906">
        <ele>577.2</ele>
        <time>2018-05-19T11:50:25Z</time>
      </trkpt>
      <trkpt lat="44.09785" lon="3.01908">
        <ele>576.9</ele>
        <time>2018-05-19T11:50:26Z</time>
      </trkpt>
      <trkpt lat="44.0978" lon="3.0191">
        <ele>576.6</ele>
        <time>2018-05-19T11:50:27Z</time>
      </trkpt>
      <trkpt lat="44.09774" lon="3.01913">
        <ele>576.1</ele>
        <time>2018-05-19T11:50:28Z</time>
      </trkpt>
      <trkpt lat="44.09769" lon="3.01915">
        <ele>575.9</ele>
        <time>2018-05-19T11:50:29Z</time>
      </trkpt>
      <trkpt lat="44.09764" lon="3.01919">
        <ele>575.6</ele>
        <time>2018-05-19T11:50:30Z</time>
      </trkpt>
      <trkpt lat="44.09758" lon="3.01921">
        <ele>575.2</ele>
        <time>2018-05-19T11:50:31Z</time>
      </trkpt>
      <trkpt lat="44.09752" lon="3.01924">
        <ele>574.8</ele>
        <time>2018-05-19T11:50:32Z</time>
      </trkpt>
      <trkpt lat="44.09745" lon="3.01927">
        <ele>574.5</ele>
        <time>2018-05-19T11:50:33Z</time>
      </trkpt>
      <trkpt lat="44.0974" lon="3.0193">
        <ele>574.4</ele>
        <time>2018-05-19T11:50:34Z</time>
      </trkpt>
      <trkpt lat="44.09734" lon="3.01933">
        <ele>574.3</ele>
        <time>2018-05-19T11:50:35Z</time>
      </trkpt>
      <trkpt lat="44.09728" lon="3.01937">
        <ele>574.2</ele>
        <time>2018-05-19T11:50:36Z</time>
      </trkpt>
      <trkpt lat="44.09723" lon="3.0194">
        <ele>574.2</ele>
        <time>2018-05-19T11:50:37Z</time>
      </trkpt>
      <trkpt lat="44.09717" lon="3.01944">
        <ele>574.3</ele>
        <time>2018-05-19T11:50:38Z</time>
      </trkpt>
      <trkpt lat="44.09711" lon="3.01947">
        <ele>574.4</ele>
        <time>2018-05-19T11:50:39Z</time>
      </trkpt>
      <trkpt lat="44.09706" lon="3.01949">
        <ele>574.5</ele>
        <time>2018-05-19T11:50:40Z</time>
      </trkpt>
      <trkpt lat="44.097" lon="3.01953">
        <ele>574.7</ele>
        <time>2018-05-19T11:50:41Z</time>
      </trkpt>
      <trkpt lat="44.09695" lon="3.01955">
        <ele>574.8</ele>
        <time>2018-05-19T11:50:42Z</time>
      </trkpt>
      <trkpt lat="44.0969" lon="3.01958">
        <ele>574.9</ele>
        <time>2018-05-19T11:50:43Z</time>
      </trkpt>
      <trkpt lat="44.09686" lon="3.01959">
        <ele>575</ele>
        <time>2018-05-19T11:50:44Z</time>
      </trkpt>
      <trkpt lat="44.09681" lon="3.01962">
        <ele>575.1</ele>
        <time>2018-05-19T11:50:45Z</time>
      </trkpt>
      <trkpt lat="44.09675" lon="3.01964">
        <ele>575.3</ele>
        <time>2018-05-19T11:50:46Z</time>
      </trkpt>
      <trkpt lat="44.0967" lon="3.01966">
        <ele>575.5</ele>
        <time>2018-05-19T11:50:47Z</time>
      </trkpt>
      <trkpt lat="44.09665" lon="3.01969">
        <ele>575.7</ele>
        <time>2018-05-19T11:50:48Z</time>
      </trkpt>
      <trkpt lat="44.0966" lon="3.01971">
        <ele>576</ele>
        <time>2018-05-19T11:50:49Z</time>
      </trkpt>
      <trkpt lat="44.09655" lon="3.01974">
        <ele>576.3</ele>
        <time>2018-05-19T11:50:50Z</time>
      </trkpt>
      <trkpt lat="44.0965" lon="3.01976">
        <ele>576.5</ele>
        <time>2018-05-19T11:50:51Z</time>
      </trkpt>
      <trkpt lat="44.09646" lon="3.01978">
        <ele>577</ele>
        <time>2018-05-19T11:50:52Z</time>
      </trkpt>
      <trkpt lat="44.09642" lon="3.01979">
        <ele>577.4</ele>
        <time>2018-05-19T11:50:53Z</time>
      </trkpt>
      <trkpt lat="44.09637" lon="3.01979">
        <ele>578</ele>
        <time>2018-05-19T11:50:54Z</time>
      </trkpt>
      <trkpt lat="44.09634" lon="3.01978">
        <ele>578.5</ele>
        <time>2018-05-19T11:50:55Z</time>
      </trkpt>
      <trkpt lat="44.09629" lon="3.01976">
        <ele>578.9</ele>
        <time>2018-05-19T11:50:56Z</time>
      </trkpt>
      <trkpt lat="44.09626" lon="3.01974">
        <ele>579</ele>
        <time>2018-05-19T11:50:57Z</time>
      </trkpt>
      <trkpt lat="44.09624" lon="3.0197">
        <ele>579</ele>
        <time>2018-05-19T11:50:58Z</time>
      </trkpt>
      <trkpt lat="44.09624" lon="3.01964">
        <ele>578.7</ele>
        <time>2018-05-19T11:50:59Z</time>
      </trkpt>
      <trkpt lat="44.09623" lon="3.01959">
        <ele>578.4</ele>
        <time>2018-05-19T11:51:00Z</time>
      </trkpt>
      <trkpt lat="44.09623" lon="3.01953">
        <ele>578</ele>
        <time>2018-05-19T11:51:01Z</time>
      </trkpt>
      <trkpt lat="44.09624" lon="3.01947">
        <ele>577.6</ele>
        <time>2018-05-19T11:51:02Z</time>
      </trkpt>
      <trkpt lat="44.09625" lon="3.01941">
        <ele>577.3</ele>
        <time>2018-05-19T11:51:03Z</time>
      </trkpt>
      <trkpt lat="44.09625" lon="3.01935">
        <ele>577</ele>
        <time>2018-05-19T11:51:04Z</time>
      </trkpt>
      <trkpt lat="44.09626" lon="3.01928">
        <ele>576.9</ele>
        <time>2018-05-19T11:51:05Z</time>
      </trkpt>
      <trkpt lat="44.09627" lon="3.01921">
        <ele>576.4</ele>
        <time>2018-05-19T11:51:06Z</time>
      </trkpt>
      <trkpt lat="44.09627" lon="3.01914">
        <ele>576</ele>
        <time>2018-05-19T11:51:07Z</time>
      </trkpt>
      <trkpt lat="44.09627" lon="3.01908">
        <ele>575.7</ele>
        <time>2018-05-19T11:51:08Z</time>
      </trkpt>
      <trkpt lat="44.09628" lon="3.01901">
        <ele>575.4</ele>
        <time>2018-05-19T11:51:09Z</time>
      </trkpt>
      <trkpt lat="44.09629" lon="3.01895">
        <ele>575.1</ele>
        <time>2018-05-19T11:51:10Z</time>
      </trkpt>
      <trkpt lat="44.09628" lon="3.01888">
        <ele>574.7</ele>
        <time>2018-05-19T11:51:11Z</time>
      </trkpt>
      <trkpt lat="44.09629" lon="3.01879">
        <ele>574</ele>
        <time>2018-05-19T11:51:12Z</time>
      </trkpt>
      <trkpt lat="44.09628" lon="3.01871">
        <ele>573.3</ele>
        <time>2018-05-19T11:51:13Z</time>
      </trkpt>
      <trkpt lat="44.09627" lon="3.01864">
        <ele>573</ele>
        <time>2018-05-19T11:51:14Z</time>
      </trkpt>
      <trkpt lat="44.09627" lon="3.01855">
        <ele>572.7</ele>
        <time>2018-05-19T11:51:15Z</time>
      </trkpt>
      <trkpt lat="44.09626" lon="3.01847">
        <ele>572.2</ele>
        <time>2018-05-19T11:51:16Z</time>
      </trkpt>
      <trkpt lat="44.09626" lon="3.01839">
        <ele>572</ele>
        <time>2018-05-19T11:51:17Z</time>
      </trkpt>
      <trkpt lat="44.09624" lon="3.01831">
        <ele>571.9</ele>
        <time>2018-05-19T11:51:18Z</time>
      </trkpt>
      <trkpt lat="44.09622" lon="3.01824">
        <ele>571.8</ele>
        <time>2018-05-19T11:51:19Z</time>
      </trkpt>
      <trkpt lat="44.0962" lon="3.0182">
        <ele>571.8</ele>
        <time>2018-05-19T11:51:20Z</time>
      </trkpt>
      <trkpt lat="44.09618" lon="3.01815">
        <ele>572</ele>
        <time>2018-05-19T11:51:21Z</time>
      </trkpt>
      <trkpt lat="44.09615" lon="3.01812">
        <ele>572.3</ele>
        <time>2018-05-19T11:51:22Z</time>
      </trkpt>
      <trkpt lat="44.09611" lon="3.01808">
        <ele>572.8</ele>
        <time>2018-05-19T11:51:24Z</time>
      </trkpt>
      <trkpt lat="44.09607" lon="3.01805">
        <ele>573.3</ele>
        <time>2018-05-19T11:51:26Z</time>
      </trkpt>
      <trkpt lat="44.09602" lon="3.01802">
        <ele>573.7</ele>
        <time>2018-05-19T11:51:28Z</time>
      </trkpt>
      <trkpt lat="44.09599" lon="3.01799">
        <ele>574.1</ele>
        <time>2018-05-19T11:51:30Z</time>
      </trkpt>
      <trkpt lat="44.09595" lon="3.01796">
        <ele>574.5</ele>
        <time>2018-05-19T11:51:32Z</time>
      </trkpt>
      <trkpt lat="44.09592" lon="3.01793">
        <ele>575</ele>
        <time>2018-05-19T11:51:34Z</time>
      </trkpt>
      <trkpt lat="44.09588" lon="3.0179">
        <ele>575.7</ele>
        <time>2018-05-19T11:51:36Z</time>
      </trkpt>
      <trkpt lat="44.09585" lon="3.01787">
        <ele>576.1</ele>
        <time>2018-05-19T11:51:38Z</time>
      </trkpt>
      <trkpt lat="44.09581" lon="3.01785">
        <ele>576.2</ele>
        <time>2018-05-19T11:51:40Z</time>
      </trkpt>
      <trkpt lat="44.09578" lon="3.01783">
        <ele>576.3</ele>
        <time>2018-05-19T11:51:42Z</time>
      </trkpt>
      <trkpt lat="44.09575" lon="3.01781">
        <ele>576.5</ele>
        <time>2018-05-19T11:51:44Z</time>
      </trkpt>
      <trkpt lat="44.09572" lon="3.01778">
        <ele>576.6</ele>
        <time>2018-05-19T11:51:46Z</time>
      </trkpt>
      <trkpt lat="44.09569" lon="3.01775">
        <ele>576.5</ele>
        <time>2018-05-19T11:51:48Z</time>
      </trkpt>
      <trkpt lat="44.09565" lon="3.01772">
        <ele>576.5</ele>
        <time>2018-05-19T11:51:50Z</time>
      </trkpt>
      <trkpt lat="44.09562" lon="3.0177">
        <ele>576.8</ele>
        <time>2018-05-19T11:51:52Z</time>
      </trkpt>
      <trkpt lat="44.09559" lon="3.01766">
        <ele>577</ele>
        <time>2018-05-19T11:51:54Z</time>
      </trkpt>
      <trkpt lat="44.09556" lon="3.01762">
        <ele>577</ele>
        <time>2018-05-19T11:51:56Z</time>
      </trkpt>
      <trkpt lat="44.09552" lon="3.01758">
        <ele>577.1</ele>
        <time>2018-05-19T11:51:58Z</time>
      </trkpt>
      <trkpt lat="44.09548" lon="3.01754">
        <ele>577.2</ele>
        <time>2018-05-19T11:52:00Z</time>
      </trkpt>
      <trkpt lat="44.09546" lon="3.01751">
        <ele>577.2</ele>
        <time>2018-05-19T11:52:01Z</time>
      </trkpt>
      <trkpt lat="44.09544" lon="3.01748">
        <ele>577.2</ele>
        <time>2018-05-19T11:52:02Z</time>
      </trkpt>
      <trkpt lat="44.09542" lon="3.01745">
        <ele>577.2</ele>
        <time>2018-05-19T11:52:03Z</time>
      </trkpt>
      <trkpt lat="44.0954" lon="3.01742">
        <ele>577.2</ele>
        <time>2018-05-19T11:52:04Z</time>
      </trkpt>
      <trkpt lat="44.09538" lon="3.0174">
        <ele>577.1</ele>
        <time>2018-05-19T11:52:05Z</time>
      </trkpt>
      <trkpt lat="44.09536" lon="3.01737">
        <ele>577</ele>
        <time>2018-05-19T11:52:06Z</time>
      </trkpt>
      <trkpt lat="44.09534" lon="3.01735">
        <ele>576.9</ele>
        <time>2018-05-19T11:52:07Z</time>
      </trkpt>
      <trkpt lat="44.09532" lon="3.01732">
        <ele>576.9</ele>
        <time>2018-05-19T11:52:08Z</time>
      </trkpt>
      <trkpt lat="44.0953" lon="3.01729">
        <ele>576.8</ele>
        <time>2018-05-19T11:52:09Z</time>
      </trkpt>
      <trkpt lat="44.09528" lon="3.01726">
        <ele>576.8</ele>
        <time>2018-05-19T11:52:10Z</time>
      </trkpt>
      <trkpt lat="44.09526" lon="3.01722">
        <ele>576.7</ele>
        <time>2018-05-19T11:52:11Z</time>
      </trkpt>
      <trkpt lat="44.09524" lon="3.01719">
        <ele>576.7</ele>
        <time>2018-05-19T11:52:12Z</time>
      </trkpt>
      <trkpt lat="44.09522" lon="3.01717">
        <ele>576.7</ele>
        <time>2018-05-19T11:52:13Z</time>
      </trkpt>
      <trkpt lat="44.0952" lon="3.01713">
        <ele>576.7</ele>
        <time>2018-05-19T11:52:14Z</time>
      </trkpt>
      <trkpt lat="44.09518" lon="3.0171">
        <ele>576.5</ele>
        <time>2018-05-19T11:52:15Z</time>
      </trkpt>
      <trkpt lat="44.09515" lon="3.01707">
        <ele>576.3</ele>
        <time>2018-05-19T11:52:16Z</time>
      </trkpt>
      <trkpt lat="44.09513" lon="3.01703">
        <ele>576.3</ele>
        <time>2018-05-19T11:52:17Z</time>
      </trkpt>
      <trkpt lat="44.09511" lon="3.017">
        <ele>576.2</ele>
        <time>2018-05-19T11:52:18Z</time>
      </trkpt>
      <trkpt lat="44.09509" lon="3.01697">
        <ele>576.1</ele>
        <time>2018-05-19T11:52:19Z</time>
      </trkpt>
      <trkpt lat="44.09507" lon="3.01693">
        <ele>575.9</ele>
        <time>2018-05-19T11:52:20Z</time>
      </trkpt>
      <trkpt lat="44.09505" lon="3.01689">
        <ele>575.7</ele>
        <time>2018-05-19T11:52:21Z</time>
      </trkpt>
      <trkpt lat="44.09503" lon="3.01685">
        <ele>575.8</ele>
        <time>2018-05-19T11:52:22Z</time>
      </trkpt>
      <trkpt lat="44.09501" lon="3.01681">
        <ele>575.9</ele>
        <time>2018-05-19T11:52:23Z</time>
      </trkpt>
      <trkpt lat="44.09499" lon="3.01676">
        <ele>575.8</ele>
        <time>2018-05-19T11:52:24Z</time>
      </trkpt>
      <trkpt lat="44.09497" lon="3.01672">
        <ele>575.7</ele>
        <time>2018-05-19T11:52:25Z</time>
      </trkpt>
      <trkpt lat="44.09494" lon="3.01667">
        <ele>575.4</ele>
        <time>2018-05-19T11:52:26Z</time>
      </trkpt>
      <trkpt lat="44.09492" lon="3.01662">
        <ele>575.1</ele>
        <time>2018-05-19T11:52:27Z</time>
      </trkpt>
      <trkpt lat="44.0949" lon="3.01657">
        <ele>574.9</ele>
        <time>2018-05-19T11:52:28Z</time>
      </trkpt>
      <trkpt lat="44.09488" lon="3.01652">
        <ele>574.8</ele>
        <time>2018-05-19T11:52:29Z</time>
      </trkpt>
      <trkpt lat="44.09486" lon="3.01646">
        <ele>574.9</ele>
        <time>2018-05-19T11:52:30Z</time>
      </trkpt>
      <trkpt lat="44.09483" lon="3.0164">
        <ele>575</ele>
        <time>2018-05-19T11:52:31Z</time>
      </trkpt>
      <trkpt lat="44.09482" lon="3.01635">
        <ele>574.7</ele>
        <time>2018-05-19T11:52:32Z</time>
      </trkpt>
      <trkpt lat="44.0948" lon="3.01629">
        <ele>574.4</ele>
        <time>2018-05-19T11:52:33Z</time>
      </trkpt>
      <trkpt lat="44.09478" lon="3.01623">
        <ele>574.4</ele>
        <time>2018-05-19T11:52:34Z</time>
      </trkpt>
      <trkpt lat="44.09476" lon="3.01618">
        <ele>574.4</ele>
        <time>2018-05-19T11:52:35Z</time>
      </trkpt>
      <trkpt lat="44.09473" lon="3.01611">
        <ele>574.9</ele>
        <time>2018-05-19T11:52:36Z</time>
      </trkpt>
      <trkpt lat="44.09472" lon="3.01605">
        <ele>575</ele>
        <time>2018-05-19T11:52:37Z</time>
      </trkpt>
      <trkpt lat="44.0947" lon="3.01596">
        <ele>574.9</ele>
        <time>2018-05-19T11:52:38Z</time>
      </trkpt>
      <trkpt lat="44.09469" lon="3.01587">
        <ele>574.4</ele>
        <time>2018-05-19T11:52:39Z</time>
      </trkpt>
      <trkpt lat="44.09467" lon="3.0158">
        <ele>573.9</ele>
        <time>2018-05-19T11:52:40Z</time>
      </trkpt>
      <trkpt lat="44.09464" lon="3.0157">
        <ele>573.5</ele>
        <time>2018-05-19T11:52:41Z</time>
      </trkpt>
      <trkpt lat="44.09463" lon="3.01561">
        <ele>572.9</ele>
        <time>2018-05-19T11:52:42Z</time>
      </trkpt>
      <trkpt lat="44.09462" lon="3.01551">
        <ele>572.1</ele>
        <time>2018-05-19T11:52:43Z</time>
      </trkpt>
      <trkpt lat="44.09462" lon="3.0154">
        <ele>571.8</ele>
        <time>2018-05-19T11:52:44Z</time>
      </trkpt>
      <trkpt lat="44.09464" lon="3.0153">
        <ele>571.1</ele>
        <time>2018-05-19T11:52:45Z</time>
      </trkpt>
      <trkpt lat="44.09466" lon="3.01519">
        <ele>570.7</ele>
        <time>2018-05-19T11:52:46Z</time>
      </trkpt>
      <trkpt lat="44.09468" lon="3.01508">
        <ele>570.3</ele>
        <time>2018-05-19T11:52:47Z</time>
      </trkpt>
      <trkpt lat="44.0947" lon="3.01497">
        <ele>569.9</ele>
        <time>2018-05-19T11:52:48Z</time>
      </trkpt>
      <trkpt lat="44.09473" lon="3.01486">
        <ele>569.8</ele>
        <time>2018-05-19T11:52:49Z</time>
      </trkpt>
      <trkpt lat="44.09474" lon="3.01476">
        <ele>569.7</ele>
        <time>2018-05-19T11:52:50Z</time>
      </trkpt>
      <trkpt lat="44.09473" lon="3.01467">
        <ele>569.7</ele>
        <time>2018-05-19T11:52:51Z</time>
      </trkpt>
      <trkpt lat="44.0947" lon="3.01458">
        <ele>570</ele>
        <time>2018-05-19T11:52:52Z</time>
      </trkpt>
      <trkpt lat="44.09466" lon="3.01452">
        <ele>570.3</ele>
        <time>2018-05-19T11:52:53Z</time>
      </trkpt>
      <trkpt lat="44.09462" lon="3.01445">
        <ele>570.5</ele>
        <time>2018-05-19T11:52:54Z</time>
      </trkpt>
      <trkpt lat="44.09458" lon="3.01438">
        <ele>570.8</ele>
        <time>2018-05-19T11:52:55Z</time>
      </trkpt>
      <trkpt lat="44.09453" lon="3.01429">
        <ele>571</ele>
        <time>2018-05-19T11:52:56Z</time>
      </trkpt>
      <trkpt lat="44.09448" lon="3.01421">
        <ele>571.1</ele>
        <time>2018-05-19T11:52:57Z</time>
      </trkpt>
      <trkpt lat="44.09445" lon="3.01414">
        <ele>571.1</ele>
        <time>2018-05-19T11:52:58Z</time>
      </trkpt>
      <trkpt lat="44.0944" lon="3.01407">
        <ele>571.1</ele>
        <time>2018-05-19T11:52:59Z</time>
      </trkpt>
      <trkpt lat="44.09436" lon="3.01401">
        <ele>570.9</ele>
        <time>2018-05-19T11:53:00Z</time>
      </trkpt>
      <trkpt lat="44.0943" lon="3.01393">
        <ele>570.7</ele>
        <time>2018-05-19T11:53:01Z</time>
      </trkpt>
      <trkpt lat="44.09425" lon="3.01386">
        <ele>570.5</ele>
        <time>2018-05-19T11:53:02Z</time>
      </trkpt>
      <trkpt lat="44.09419" lon="3.01378">
        <ele>570.3</ele>
        <time>2018-05-19T11:53:03Z</time>
      </trkpt>
      <trkpt lat="44.09415" lon="3.01372">
        <ele>570.1</ele>
        <time>2018-05-19T11:53:04Z</time>
      </trkpt>
      <trkpt lat="44.0941" lon="3.01366">
        <ele>569.9</ele>
        <time>2018-05-19T11:53:05Z</time>
      </trkpt>
      <trkpt lat="44.09404" lon="3.01359">
        <ele>569.6</ele>
        <time>2018-05-19T11:53:06Z</time>
      </trkpt>
      <trkpt lat="44.09399" lon="3.01353">
        <ele>569.2</ele>
        <time>2018-05-19T11:53:07Z</time>
      </trkpt>
      <trkpt lat="44.09393" lon="3.01347">
        <ele>568.6</ele>
        <time>2018-05-19T11:53:08Z</time>
      </trkpt>
      <trkpt lat="44.09387" lon="3.01342">
        <ele>568</ele>
        <time>2018-05-19T11:53:09Z</time>
      </trkpt>
      <trkpt lat="44.0938" lon="3.01334">
        <ele>567</ele>
        <time>2018-05-19T11:53:10Z</time>
      </trkpt>
      <trkpt lat="44.09373" lon="3.01326">
        <ele>566.4</ele>
        <time>2018-05-19T11:53:11Z</time>
      </trkpt>
      <trkpt lat="44.09366" lon="3.0132">
        <ele>565.8</ele>
        <time>2018-05-19T11:53:12Z</time>
      </trkpt>
      <trkpt lat="44.09359" lon="3.01315">
        <ele>565.1</ele>
        <time>2018-05-19T11:53:13Z</time>
      </trkpt>
      <trkpt lat="44.09352" lon="3.01308">
        <ele>564.2</ele>
        <time>2018-05-19T11:53:14Z</time>
      </trkpt>
      <trkpt lat="44.09345" lon="3.01302">
        <ele>563.2</ele>
        <time>2018-05-19T11:53:15Z</time>
      </trkpt>
      <trkpt lat="44.09339" lon="3.01296">
        <ele>562.4</ele>
        <time>2018-05-19T11:53:16Z</time>
      </trkpt>
      <trkpt lat="44.09337" lon="3.01293">
        <ele>562.1</ele>
        <time>2018-05-19T11:53:17Z</time>
      </trkpt>
      <trkpt lat="44.09335" lon="3.0129">
        <ele>561.9</ele>
        <time>2018-05-19T11:53:35Z</time>
      </trkpt>
      <trkpt lat="44.09334" lon="3.01295">
        <ele>561.6</ele>
        <time>2018-05-19T11:53:45Z</time>
      </trkpt>
      <trkpt lat="44.09331" lon="3.01299">
        <ele>561.3</ele>
        <time>2018-05-19T11:53:47Z</time>
      </trkpt>
      <trkpt lat="44.09327" lon="3.01302">
        <ele>560.7</ele>
        <time>2018-05-19T11:53:49Z</time>
      </trkpt>
      <trkpt lat="44.09323" lon="3.01304">
        <ele>559.9</ele>
        <time>2018-05-19T11:53:50Z</time>
      </trkpt>
      <trkpt lat="44.09318" lon="3.01307">
        <ele>558.7</ele>
        <time>2018-05-19T11:53:51Z</time>
      </trkpt>
      <trkpt lat="44.09313" lon="3.01309">
        <ele>558</ele>
        <time>2018-05-19T11:53:52Z</time>
      </trkpt>
      <trkpt lat="44.09309" lon="3.01311">
        <ele>557.5</ele>
        <time>2018-05-19T11:53:53Z</time>
      </trkpt>
      <trkpt lat="44.09305" lon="3.0131">
        <ele>556.8</ele>
        <time>2018-05-19T11:53:54Z</time>
      </trkpt>
      <trkpt lat="44.09302" lon="3.0131">
        <ele>556.2</ele>
        <time>2018-05-19T11:53:55Z</time>
      </trkpt>
      <trkpt lat="44.09298" lon="3.01313">
        <ele>555.1</ele>
        <time>2018-05-19T11:53:56Z</time>
      </trkpt>
      <trkpt lat="44.09293" lon="3.01317">
        <ele>554.3</ele>
        <time>2018-05-19T11:53:57Z</time>
      </trkpt>
      <trkpt lat="44.0929" lon="3.01321">
        <ele>554</ele>
        <time>2018-05-19T11:53:58Z</time>
      </trkpt>
      <trkpt lat="44.09285" lon="3.01327">
        <ele>553.3</ele>
        <time>2018-05-19T11:53:59Z</time>
      </trkpt>
      <trkpt lat="44.09281" lon="3.01331">
        <ele>553</ele>
        <time>2018-05-19T11:54:00Z</time>
      </trkpt>
      <trkpt lat="44.09279" lon="3.01336">
        <ele>552.7</ele>
        <time>2018-05-19T11:54:01Z</time>
      </trkpt>
      <trkpt lat="44.09277" lon="3.01342">
        <ele>552.5</ele>
        <time>2018-05-19T11:54:02Z</time>
      </trkpt>
      <trkpt lat="44.09274" lon="3.01347">
        <ele>552.3</ele>
        <time>2018-05-19T11:54:03Z</time>
      </trkpt>
      <trkpt lat="44.0927" lon="3.0135">
        <ele>552.1</ele>
        <time>2018-05-19T11:54:04Z</time>
      </trkpt>
      <trkpt lat="44.09266" lon="3.01353">
        <ele>552</ele>
        <time>2018-05-19T11:54:05Z</time>
      </trkpt>
      <trkpt lat="44.09262" lon="3.01361">
        <ele>551.8</ele>
        <time>2018-05-19T11:54:06Z</time>
      </trkpt>
      <trkpt lat="44.09261" lon="3.01367">
        <ele>551.7</ele>
        <time>2018-05-19T11:54:07Z</time>
      </trkpt>
      <trkpt lat="44.09258" lon="3.01372">
        <ele>551.5</ele>
        <time>2018-05-19T11:54:08Z</time>
      </trkpt>
      <trkpt lat="44.09253" lon="3.01377">
        <ele>551.3</ele>
        <time>2018-05-19T11:54:09Z</time>
      </trkpt>
      <trkpt lat="44.09247" lon="3.01384">
        <ele>551</ele>
        <time>2018-05-19T11:54:10Z</time>
      </trkpt>
      <trkpt lat="44.0924" lon="3.01388">
        <ele>550.5</ele>
        <time>2018-05-19T11:54:11Z</time>
      </trkpt>
      <trkpt lat="44.09234" lon="3.01391">
        <ele>549.6</ele>
        <time>2018-05-19T11:54:12Z</time>
      </trkpt>
      <trkpt lat="44.09226" lon="3.01392">
        <ele>548.7</ele>
        <time>2018-05-19T11:54:13Z</time>
      </trkpt>
      <trkpt lat="44.09217" lon="3.01393">
        <ele>548.3</ele>
        <time>2018-05-19T11:54:14Z</time>
      </trkpt>
      <trkpt lat="44.09208" lon="3.01395">
        <ele>547.7</ele>
        <time>2018-05-19T11:54:15Z</time>
      </trkpt>
      <trkpt lat="44.092" lon="3.01397">
        <ele>547.4</ele>
        <time>2018-05-19T11:54:16Z</time>
      </trkpt>
      <trkpt lat="44.09191" lon="3.014">
        <ele>547.1</ele>
        <time>2018-05-19T11:54:17Z</time>
      </trkpt>
      <trkpt lat="44.09183" lon="3.01403">
        <ele>546.6</ele>
        <time>2018-05-19T11:54:18Z</time>
      </trkpt>
      <trkpt lat="44.09177" lon="3.01405">
        <ele>546.3</ele>
        <time>2018-05-19T11:54:19Z</time>
      </trkpt>
      <trkpt lat="44.09173" lon="3.01407">
        <ele>545.1</ele>
        <time>2018-05-19T11:54:20Z</time>
      </trkpt>
      <trkpt lat="44.0917" lon="3.01407">
        <ele>543.9</ele>
        <time>2018-05-19T11:54:21Z</time>
      </trkpt>
      <trkpt lat="44.09167" lon="3.0141">
        <ele>543.2</ele>
        <time>2018-05-19T11:54:22Z</time>
      </trkpt>
      <trkpt lat="44.09163" lon="3.01412">
        <ele>542.6</ele>
        <time>2018-05-19T11:54:23Z</time>
      </trkpt>
      <trkpt lat="44.0916" lon="3.01413">
        <ele>542.1</ele>
        <time>2018-05-19T11:54:24Z</time>
      </trkpt>
      <trkpt lat="44.09157" lon="3.01414">
        <ele>541.8</ele>
        <time>2018-05-19T11:54:25Z</time>
      </trkpt>
      <trkpt lat="44.09153" lon="3.01417">
        <ele>541.3</ele>
        <time>2018-05-19T11:54:29Z</time>
      </trkpt>
      <trkpt lat="44.09151" lon="3.01419">
        <ele>540.6</ele>
        <time>2018-05-19T11:54:31Z</time>
      </trkpt>
      <trkpt lat="44.09147" lon="3.01421">
        <ele>539.3</ele>
        <time>2018-05-19T11:54:33Z</time>
      </trkpt>
      <trkpt lat="44.09144" lon="3.01421">
        <ele>538.6</ele>
        <time>2018-05-19T11:54:35Z</time>
      </trkpt>
      <trkpt lat="44.09139" lon="3.01419">
        <ele>538.1</ele>
        <time>2018-05-19T11:54:37Z</time>
      </trkpt>
      <trkpt lat="44.09135" lon="3.01419">
        <ele>537.5</ele>
        <time>2018-05-19T11:54:39Z</time>
      </trkpt>
      <trkpt lat="44.09132" lon="3.0142">
        <ele>537.1</ele>
        <time>2018-05-19T11:54:40Z</time>
      </trkpt>
      <trkpt lat="44.09127" lon="3.01422">
        <ele>536.8</ele>
        <time>2018-05-19T11:54:41Z</time>
      </trkpt>
      <trkpt lat="44.09121" lon="3.01427">
        <ele>536</ele>
        <time>2018-05-19T11:54:42Z</time>
      </trkpt>
      <trkpt lat="44.09117" lon="3.01431">
        <ele>535</ele>
        <time>2018-05-19T11:54:43Z</time>
      </trkpt>
      <trkpt lat="44.09112" lon="3.01435">
        <ele>534.4</ele>
        <time>2018-05-19T11:54:44Z</time>
      </trkpt>
      <trkpt lat="44.09108" lon="3.01437">
        <ele>534</ele>
        <time>2018-05-19T11:54:45Z</time>
      </trkpt>
      <trkpt lat="44.09105" lon="3.01438">
        <ele>533.7</ele>
        <time>2018-05-19T11:54:46Z</time>
      </trkpt>
      <trkpt lat="44.09102" lon="3.01439">
        <ele>533.5</ele>
        <time>2018-05-19T11:54:47Z</time>
      </trkpt>
      <trkpt lat="44.09101" lon="3.01443">
        <ele>533.3</ele>
        <time>2018-05-19T11:54:48Z</time>
      </trkpt>
      <trkpt lat="44.09098" lon="3.01448">
        <ele>532.8</ele>
        <time>2018-05-19T11:54:50Z</time>
      </trkpt>
      <trkpt lat="44.09096" lon="3.01451">
        <ele>532.3</ele>
        <time>2018-05-19T11:54:51Z</time>
      </trkpt>
      <trkpt lat="44.09091" lon="3.01454">
        <ele>530.9</ele>
        <time>2018-05-19T11:54:53Z</time>
      </trkpt>
      <trkpt lat="44.09088" lon="3.01456">
        <ele>530.4</ele>
        <time>2018-05-19T11:54:54Z</time>
      </trkpt>
      <trkpt lat="44.09085" lon="3.01458">
        <ele>529.8</ele>
        <time>2018-05-19T11:54:55Z</time>
      </trkpt>
      <trkpt lat="44.0908" lon="3.01462">
        <ele>529.4</ele>
        <time>2018-05-19T11:54:56Z</time>
      </trkpt>
      <trkpt lat="44.09075" lon="3.01464">
        <ele>529</ele>
        <time>2018-05-19T11:54:57Z</time>
      </trkpt>
      <trkpt lat="44.09067" lon="3.01462">
        <ele>528.6</ele>
        <time>2018-05-19T11:54:58Z</time>
      </trkpt>
      <trkpt lat="44.0906" lon="3.01462">
        <ele>527.6</ele>
        <time>2018-05-19T11:54:59Z</time>
      </trkpt>
      <trkpt lat="44.09053" lon="3.01463">
        <ele>526.5</ele>
        <time>2018-05-19T11:55:00Z</time>
      </trkpt>
      <trkpt lat="44.09044" lon="3.01464">
        <ele>525.9</ele>
        <time>2018-05-19T11:55:01Z</time>
      </trkpt>
      <trkpt lat="44.09039" lon="3.01467">
        <ele>525.6</ele>
        <time>2018-05-19T11:55:02Z</time>
      </trkpt>
      <trkpt lat="44.09034" lon="3.01471">
        <ele>525.1</ele>
        <time>2018-05-19T11:55:03Z</time>
      </trkpt>
      <trkpt lat="44.0903" lon="3.01476">
        <ele>524.2</ele>
        <time>2018-05-19T11:55:04Z</time>
      </trkpt>
      <trkpt lat="44.09026" lon="3.01481">
        <ele>523.8</ele>
        <time>2018-05-19T11:55:05Z</time>
      </trkpt>
      <trkpt lat="44.09022" lon="3.01487">
        <ele>523.2</ele>
        <time>2018-05-19T11:55:06Z</time>
      </trkpt>
      <trkpt lat="44.09017" lon="3.01495">
        <ele>522.7</ele>
        <time>2018-05-19T11:55:07Z</time>
      </trkpt>
      <trkpt lat="44.09013" lon="3.01502">
        <ele>522.3</ele>
        <time>2018-05-19T11:55:08Z</time>
      </trkpt>
      <trkpt lat="44.09009" lon="3.01507">
        <ele>521.3</ele>
        <time>2018-05-19T11:55:09Z</time>
      </trkpt>
      <trkpt lat="44.09006" lon="3.01511">
        <ele>520.8</ele>
        <time>2018-05-19T11:55:11Z</time>
      </trkpt>
      <trkpt lat="44.09003" lon="3.01514">
        <ele>520.5</ele>
        <time>2018-05-19T11:55:12Z</time>
      </trkpt>
      <trkpt lat="44.09001" lon="3.01517">
        <ele>520.3</ele>
        <time>2018-05-19T11:55:15Z</time>
      </trkpt>
      <trkpt lat="44.08999" lon="3.01519">
        <ele>520.2</ele>
        <time>2018-05-19T11:55:24Z</time>
      </trkpt>
      <trkpt lat="44.09" lon="3.01524">
        <ele>520</ele>
        <time>2018-05-19T11:56:06Z</time>
      </trkpt>
      <trkpt lat="44.08997" lon="3.01528">
        <ele>519.7</ele>
        <time>2018-05-19T11:56:10Z</time>
      </trkpt>
      <trkpt lat="44.08994" lon="3.01532">
        <ele>519.6</ele>
        <time>2018-05-19T11:56:12Z</time>
      </trkpt>
      <trkpt lat="44.08993" lon="3.01537">
        <ele>519.4</ele>
        <time>2018-05-19T11:56:13Z</time>
      </trkpt>
      <trkpt lat="44.08991" lon="3.01543">
        <ele>518.6</ele>
        <time>2018-05-19T11:56:14Z</time>
      </trkpt>
      <trkpt lat="44.08988" lon="3.0156">
        <ele>517.2</ele>
        <time>2018-05-19T11:56:15Z</time>
      </trkpt>
      <trkpt lat="44.08986" lon="3.0157">
        <ele>516.7</ele>
        <time>2018-05-19T11:56:16Z</time>
      </trkpt>
      <trkpt lat="44.08984" lon="3.0158">
        <ele>516.3</ele>
        <time>2018-05-19T11:56:17Z</time>
      </trkpt>
      <trkpt lat="44.08981" lon="3.01591">
        <ele>515.2</ele>
        <time>2018-05-19T11:56:18Z</time>
      </trkpt>
      <trkpt lat="44.08979" lon="3.01601">
        <ele>514.8</ele>
        <time>2018-05-19T11:56:19Z</time>
      </trkpt>
      <trkpt lat="44.08979" lon="3.01612">
        <ele>514.4</ele>
        <time>2018-05-19T11:56:20Z</time>
      </trkpt>
      <trkpt lat="44.08977" lon="3.01623">
        <ele>514.2</ele>
        <time>2018-05-19T11:56:21Z</time>
      </trkpt>
      <trkpt lat="44.08979" lon="3.0163">
        <ele>514.2</ele>
        <time>2018-05-19T11:56:22Z</time>
      </trkpt>
      <trkpt lat="44.0898" lon="3.01637">
        <ele>514.1</ele>
        <time>2018-05-19T11:56:23Z</time>
      </trkpt>
      <trkpt lat="44.0898" lon="3.01643">
        <ele>514.1</ele>
        <time>2018-05-19T11:56:24Z</time>
      </trkpt>
      <trkpt lat="44.08985" lon="3.0165">
        <ele>514</ele>
        <time>2018-05-19T11:56:26Z</time>
      </trkpt>
      <trkpt lat="44.08986" lon="3.01655">
        <ele>514</ele>
        <time>2018-05-19T11:56:27Z</time>
      </trkpt>
      <trkpt lat="44.08988" lon="3.0166">
        <ele>513.9</ele>
        <time>2018-05-19T11:56:28Z</time>
      </trkpt>
      <trkpt lat="44.08989" lon="3.01665">
        <ele>513.9</ele>
        <time>2018-05-19T11:56:29Z</time>
      </trkpt>
      <trkpt lat="44.0899" lon="3.01669">
        <ele>513.8</ele>
        <time>2018-05-19T11:56:30Z</time>
      </trkpt>
      <trkpt lat="44.08993" lon="3.01676">
        <ele>513.8</ele>
        <time>2018-05-19T11:56:32Z</time>
      </trkpt>
      <trkpt lat="44.08995" lon="3.01678">
        <ele>513.7</ele>
        <time>2018-05-19T11:56:33Z</time>
      </trkpt>
      <trkpt lat="44.08998" lon="3.01682">
        <ele>513.7</ele>
        <time>2018-05-19T11:56:35Z</time>
      </trkpt>
      <trkpt lat="44.09002" lon="3.01684">
        <ele>513.7</ele>
        <time>2018-05-19T11:56:37Z</time>
      </trkpt>
      <trkpt lat="44.09005" lon="3.01685">
        <ele>513.7</ele>
        <time>2018-05-19T11:56:39Z</time>
      </trkpt>
      <trkpt lat="44.09008" lon="3.01685">
        <ele>513.6</ele>
        <time>2018-05-19T11:56:42Z</time>
      </trkpt>
      <trkpt lat="44.09005" lon="3.01685">
        <ele>513.6</ele>
        <time>2018-05-19T11:57:27Z</time>
      </trkpt>
      <trkpt lat="44.09008" lon="3.01688">
        <ele>513.6</ele>
        <time>2018-05-19T11:57:33Z</time>
      </trkpt>
      <trkpt lat="44.09011" lon="3.01688">
        <ele>513.6</ele>
        <time>2018-05-19T11:57:38Z</time>
      </trkpt>
      <trkpt lat="44.09014" lon="3.0169">
        <ele>513.6</ele>
        <time>2018-05-19T11:57:42Z</time>
      </trkpt>
      <trkpt lat="44.09018" lon="3.01691">
        <ele>513.6</ele>
        <time>2018-05-19T11:57:45Z</time>
      </trkpt>
      <trkpt lat="44.0902" lon="3.01694">
        <ele>513.5</ele>
        <time>2018-05-19T11:57:51Z</time>
      </trkpt>
      <trkpt lat="44.09022" lon="3.01695">
        <ele>513.5</ele>
        <time>2018-05-19T11:57:54Z</time>
      </trkpt>
      <trkpt lat="44.09026" lon="3.01697">
        <ele>513.5</ele>
        <time>2018-05-19T11:57:58Z</time>
      </trkpt>
      <trkpt lat="44.09029" lon="3.01699">
        <ele>513.5</ele>
        <time>2018-05-19T11:58:02Z</time>
      </trkpt>
      <trkpt lat="44.09032" lon="3.017">
        <ele>513.5</ele>
        <time>2018-05-19T11:58:05Z</time>
      </trkpt>
      <trkpt lat="44.09035" lon="3.01703">
        <ele>513.5</ele>
        <time>2018-05-19T11:58:09Z</time>
      </trkpt>
      <trkpt lat="44.09038" lon="3.01703">
        <ele>513.5</ele>
        <time>2018-05-19T11:58:13Z</time>
      </trkpt>
      <trkpt lat="44.09043" lon="3.01704">
        <ele>513.4</ele>
        <time>2018-05-19T11:58:16Z</time>
      </trkpt>
      <trkpt lat="44.09046" lon="3.01705">
        <ele>513.4</ele>
        <time>2018-05-19T11:58:18Z</time>
      </trkpt>
      <trkpt lat="44.0905" lon="3.01706">
        <ele>513.4</ele>
        <time>2018-05-19T11:58:20Z</time>
      </trkpt>
      <trkpt lat="44.09054" lon="3.01707">
        <ele>513.4</ele>
        <time>2018-05-19T11:58:22Z</time>
      </trkpt>
      <trkpt lat="44.09058" lon="3.01709">
        <ele>513.4</ele>
        <time>2018-05-19T11:58:24Z</time>
      </trkpt>
      <trkpt lat="44.09061" lon="3.01711">
        <ele>513.3</ele>
        <time>2018-05-19T11:58:26Z</time>
      </trkpt>
      <trkpt lat="44.09066" lon="3.01714">
        <ele>513.3</ele>
        <time>2018-05-19T11:58:28Z</time>
      </trkpt>
      <trkpt lat="44.0907" lon="3.01716">
        <ele>513.3</ele>
        <time>2018-05-19T11:58:30Z</time>
      </trkpt>
      <trkpt lat="44.09073" lon="3.01718">
        <ele>513.3</ele>
        <time>2018-05-19T11:58:32Z</time>
      </trkpt>
      <trkpt lat="44.09077" lon="3.01721">
        <ele>513.2</ele>
        <time>2018-05-19T11:58:34Z</time>
      </trkpt>
      <trkpt lat="44.0908" lon="3.01724">
        <ele>513.2</ele>
        <time>2018-05-19T11:58:36Z</time>
      </trkpt>
      <trkpt lat="44.09083" lon="3.01727">
        <ele>513.2</ele>
        <time>2018-05-19T11:58:38Z</time>
      </trkpt>
      <trkpt lat="44.09085" lon="3.01729">
        <ele>513.2</ele>
        <time>2018-05-19T11:58:40Z</time>
      </trkpt>
      <trkpt lat="44.09088" lon="3.01731">
        <ele>513.2</ele>
        <time>2018-05-19T11:58:43Z</time>
      </trkpt>
      <trkpt lat="44.0909" lon="3.01733">
        <ele>513.2</ele>
        <time>2018-05-19T11:58:45Z</time>
      </trkpt>
      <trkpt lat="44.09092" lon="3.01736">
        <ele>513.1</ele>
        <time>2018-05-19T11:58:47Z</time>
      </trkpt>
      <trkpt lat="44.09095" lon="3.01739">
        <ele>513.1</ele>
        <time>2018-05-19T11:58:49Z</time>
      </trkpt>
      <trkpt lat="44.09098" lon="3.01742">
        <ele>513.1</ele>
        <time>2018-05-19T11:58:51Z</time>
      </trkpt>
      <trkpt lat="44.09101" lon="3.01745">
        <ele>513.1</ele>
        <time>2018-05-19T11:58:53Z</time>
      </trkpt>
      <trkpt lat="44.09103" lon="3.01747">
        <ele>513.1</ele>
        <time>2018-05-19T11:58:55Z</time>
      </trkpt>
      <trkpt lat="44.09106" lon="3.0175">
        <ele>513.1</ele>
        <time>2018-05-19T11:58:57Z</time>
      </trkpt>
      <trkpt lat="44.09108" lon="3.01752">
        <ele>513.1</ele>
        <time>2018-05-19T11:58:59Z</time>
      </trkpt>
      <trkpt lat="44.0911" lon="3.01755">
        <ele>513</ele>
        <time>2018-05-19T11:59:01Z</time>
      </trkpt>
      <trkpt lat="44.09112" lon="3.01758">
        <ele>513</ele>
        <time>2018-05-19T11:59:03Z</time>
      </trkpt>
      <trkpt lat="44.09114" lon="3.01761">
        <ele>513</ele>
        <time>2018-05-19T11:59:05Z</time>
      </trkpt>
      <trkpt lat="44.09116" lon="3.01764">
        <ele>513</ele>
        <time>2018-05-19T11:59:07Z</time>
      </trkpt>
      <trkpt lat="44.09118" lon="3.01768">
        <ele>512.9</ele>
        <time>2018-05-19T11:59:09Z</time>
      </trkpt>
      <trkpt lat="44.09121" lon="3.01771">
        <ele>512.9</ele>
        <time>2018-05-19T11:59:12Z</time>
      </trkpt>
      <trkpt lat="44.09123" lon="3.01773">
        <ele>512.9</ele>
        <time>2018-05-19T11:59:14Z</time>
      </trkpt>
      <trkpt lat="44.09126" lon="3.01776">
        <ele>512.9</ele>
        <time>2018-05-19T11:59:17Z</time>
      </trkpt>
      <trkpt lat="44.09129" lon="3.01778">
        <ele>512.9</ele>
        <time>2018-05-19T11:59:19Z</time>
      </trkpt>
      <trkpt lat="44.09132" lon="3.0178">
        <ele>512.8</ele>
        <time>2018-05-19T11:59:21Z</time>
      </trkpt>
      <trkpt lat="44.09135" lon="3.01783">
        <ele>512.8</ele>
        <time>2018-05-19T11:59:23Z</time>
      </trkpt>
      <trkpt lat="44.09138" lon="3.01786">
        <ele>512.8</ele>
        <time>2018-05-19T11:59:25Z</time>
      </trkpt>
      <trkpt lat="44.0914" lon="3.01789">
        <ele>512.7</ele>
        <time>2018-05-19T11:59:28Z</time>
      </trkpt>
      <trkpt lat="44.09142" lon="3.01792">
        <ele>512.7</ele>
        <time>2018-05-19T11:59:30Z</time>
      </trkpt>
      <trkpt lat="44.09144" lon="3.01795">
        <ele>512.7</ele>
        <time>2018-05-19T11:59:32Z</time>
      </trkpt>
      <trkpt lat="44.09148" lon="3.01798">
        <ele>512.6</ele>
        <time>2018-05-19T11:59:35Z</time>
      </trkpt>
      <trkpt lat="44.09151" lon="3.018">
        <ele>512.6</ele>
        <time>2018-05-19T11:59:38Z</time>
      </trkpt>
      <trkpt lat="44.09154" lon="3.01802">
        <ele>512.6</ele>
        <time>2018-05-19T11:59:42Z</time>
      </trkpt>
      <trkpt lat="44.09156" lon="3.01805">
        <ele>512.5</ele>
        <time>2018-05-19T11:59:45Z</time>
      </trkpt>
      <trkpt lat="44.09158" lon="3.01809">
        <ele>512.5</ele>
        <time>2018-05-19T11:59:47Z</time>
      </trkpt>
      <trkpt lat="44.0916" lon="3.01813">
        <ele>512.4</ele>
        <time>2018-05-19T11:59:49Z</time>
      </trkpt>
      <trkpt lat="44.09162" lon="3.01816">
        <ele>512.4</ele>
        <time>2018-05-19T11:59:51Z</time>
      </trkpt>
      <trkpt lat="44.09164" lon="3.0182">
        <ele>512.4</ele>
        <time>2018-05-19T11:59:54Z</time>
      </trkpt>
      <trkpt lat="44.09162" lon="3.01824">
        <ele>512.3</ele>
        <time>2018-05-19T12:04:12Z</time>
      </trkpt>
      <trkpt lat="44.09159" lon="3.01826">
        <ele>512.3</ele>
        <time>2018-05-19T12:04:14Z</time>
      </trkpt>
      <trkpt lat="44.09155" lon="3.0183">
        <ele>512.2</ele>
        <time>2018-05-19T12:04:16Z</time>
      </trkpt>
      <trkpt lat="44.09152" lon="3.01833">
        <ele>512.1</ele>
        <time>2018-05-19T12:04:18Z</time>
      </trkpt>
      <trkpt lat="44.09149" lon="3.01836">
        <ele>512</ele>
        <time>2018-05-19T12:04:20Z</time>
      </trkpt>
      <trkpt lat="44.09145" lon="3.01839">
        <ele>511.9</ele>
        <time>2018-05-19T12:04:22Z</time>
      </trkpt>
      <trkpt lat="44.09142" lon="3.01843">
        <ele>511.9</ele>
        <time>2018-05-19T12:04:24Z</time>
      </trkpt>
      <trkpt lat="44.0914" lon="3.01847">
        <ele>511.8</ele>
        <time>2018-05-19T12:04:26Z</time>
      </trkpt>
      <trkpt lat="44.09138" lon="3.01851">
        <ele>511.7</ele>
        <time>2018-05-19T12:04:28Z</time>
      </trkpt>
      <trkpt lat="44.09136" lon="3.01854">
        <ele>511.6</ele>
        <time>2018-05-19T12:04:30Z</time>
      </trkpt>
      <trkpt lat="44.09134" lon="3.01859">
        <ele>511.4</ele>
        <time>2018-05-19T12:04:32Z</time>
      </trkpt>
      <trkpt lat="44.09132" lon="3.01863">
        <ele>511.3</ele>
        <time>2018-05-19T12:04:35Z</time>
      </trkpt>
      <trkpt lat="44.0913" lon="3.01867">
        <ele>511.1</ele>
        <time>2018-05-19T12:04:37Z</time>
      </trkpt>
      <trkpt lat="44.09129" lon="3.01871">
        <ele>511</ele>
        <time>2018-05-19T12:04:39Z</time>
      </trkpt>
      <trkpt lat="44.09127" lon="3.01874">
        <ele>510.8</ele>
        <time>2018-05-19T12:04:41Z</time>
      </trkpt>
      <trkpt lat="44.09126" lon="3.01878">
        <ele>510.6</ele>
        <time>2018-05-19T12:04:43Z</time>
      </trkpt>
      <trkpt lat="44.09124" lon="3.01882">
        <ele>510.5</ele>
        <time>2018-05-19T12:04:45Z</time>
      </trkpt>
      <trkpt lat="44.09121" lon="3.01886">
        <ele>510.2</ele>
        <time>2018-05-19T12:04:47Z</time>
      </trkpt>
      <trkpt lat="44.09119" lon="3.0189">
        <ele>510</ele>
        <time>2018-05-19T12:04:49Z</time>
      </trkpt>
      <trkpt lat="44.09117" lon="3.01892">
        <ele>509.9</ele>
        <time>2018-05-19T12:04:51Z</time>
      </trkpt>
      <trkpt lat="44.09114" lon="3.01894">
        <ele>509.8</ele>
        <time>2018-05-19T12:04:53Z</time>
      </trkpt>
      <trkpt lat="44.09111" lon="3.01896">
        <ele>509.6</ele>
        <time>2018-05-19T12:04:55Z</time>
      </trkpt>
      <trkpt lat="44.09109" lon="3.01899">
        <ele>509.5</ele>
        <time>2018-05-19T12:04:57Z</time>
      </trkpt>
      <trkpt lat="44.09107" lon="3.01902">
        <ele>509.4</ele>
        <time>2018-05-19T12:04:59Z</time>
      </trkpt>
      <trkpt lat="44.09103" lon="3.01905">
        <ele>509.2</ele>
        <time>2018-05-19T12:05:01Z</time>
      </trkpt>
      <trkpt lat="44.09097" lon="3.01906">
        <ele>509</ele>
        <time>2018-05-19T12:05:03Z</time>
      </trkpt>
      <trkpt lat="44.09091" lon="3.01907">
        <ele>509.3</ele>
        <time>2018-05-19T12:05:04Z</time>
      </trkpt>
      <trkpt lat="44.09085" lon="3.01908">
        <ele>509.5</ele>
        <time>2018-05-19T12:05:05Z</time>
      </trkpt>
      <trkpt lat="44.09079" lon="3.01908">
        <ele>509.7</ele>
        <time>2018-05-19T12:05:06Z</time>
      </trkpt>
      <trkpt lat="44.09072" lon="3.01907">
        <ele>510.1</ele>
        <time>2018-05-19T12:05:07Z</time>
      </trkpt>
      <trkpt lat="44.09065" lon="3.01906">
        <ele>510.2</ele>
        <time>2018-05-19T12:05:08Z</time>
      </trkpt>
      <trkpt lat="44.09059" lon="3.01908">
        <ele>510.2</ele>
        <time>2018-05-19T12:05:09Z</time>
      </trkpt>
      <trkpt lat="44.09055" lon="3.01908">
        <ele>510.2</ele>
        <time>2018-05-19T12:05:10Z</time>
      </trkpt>
      <trkpt lat="44.09048" lon="3.01909">
        <ele>510.2</ele>
        <time>2018-05-19T12:05:11Z</time>
      </trkpt>
      <trkpt lat="44.09043" lon="3.0191">
        <ele>510.2</ele>
        <time>2018-05-19T12:05:12Z</time>
      </trkpt>
      <trkpt lat="44.09036" lon="3.01909">
        <ele>510.3</ele>
        <time>2018-05-19T12:05:13Z</time>
      </trkpt>
      <trkpt lat="44.0903" lon="3.01908">
        <ele>510.3</ele>
        <time>2018-05-19T12:05:14Z</time>
      </trkpt>
      <trkpt lat="44.09024" lon="3.01908">
        <ele>510.4</ele>
        <time>2018-05-19T12:05:15Z</time>
      </trkpt>
      <trkpt lat="44.09016" lon="3.0191">
        <ele>510.6</ele>
        <time>2018-05-19T12:05:16Z</time>
      </trkpt>
      <trkpt lat="44.0901" lon="3.01913">
        <ele>510.7</ele>
        <time>2018-05-19T12:05:17Z</time>
      </trkpt>
      <trkpt lat="44.09005" lon="3.01916">
        <ele>510.9</ele>
        <time>2018-05-19T12:05:18Z</time>
      </trkpt>
      <trkpt lat="44.08999" lon="3.01918">
        <ele>511</ele>
        <time>2018-05-19T12:05:19Z</time>
      </trkpt>
      <trkpt lat="44.08992" lon="3.01921">
        <ele>511.1</ele>
        <time>2018-05-19T12:05:20Z</time>
      </trkpt>
      <trkpt lat="44.08986" lon="3.01923">
        <ele>511.2</ele>
        <time>2018-05-19T12:05:21Z</time>
      </trkpt>
      <trkpt lat="44.08979" lon="3.01924">
        <ele>511.4</ele>
        <time>2018-05-19T12:05:22Z</time>
      </trkpt>
      <trkpt lat="44.08973" lon="3.01926">
        <ele>511.7</ele>
        <time>2018-05-19T12:05:23Z</time>
      </trkpt>
      <trkpt lat="44.08967" lon="3.01928">
        <ele>512</ele>
        <time>2018-05-19T12:05:24Z</time>
      </trkpt>
      <trkpt lat="44.08961" lon="3.01931">
        <ele>512.4</ele>
        <time>2018-05-19T12:05:25Z</time>
      </trkpt>
      <trkpt lat="44.08954" lon="3.01932">
        <ele>512.8</ele>
        <time>2018-05-19T12:05:26Z</time>
      </trkpt>
      <trkpt lat="44.08949" lon="3.01933">
        <ele>513</ele>
        <time>2018-05-19T12:05:27Z</time>
      </trkpt>
      <trkpt lat="44.08943" lon="3.01934">
        <ele>513.2</ele>
        <time>2018-05-19T12:05:28Z</time>
      </trkpt>
      <trkpt lat="44.08938" lon="3.01934">
        <ele>513.4</ele>
        <time>2018-05-19T12:05:29Z</time>
      </trkpt>
      <trkpt lat="44.08932" lon="3.01936">
        <ele>513.8</ele>
        <time>2018-05-19T12:05:30Z</time>
      </trkpt>
      <trkpt lat="44.08926" lon="3.0194">
        <ele>514</ele>
        <time>2018-05-19T12:05:31Z</time>
      </trkpt>
      <trkpt lat="44.08919" lon="3.01945">
        <ele>514.2</ele>
        <time>2018-05-19T12:05:32Z</time>
      </trkpt>
      <trkpt lat="44.08913" lon="3.01952">
        <ele>514.4</ele>
        <time>2018-05-19T12:05:33Z</time>
      </trkpt>
      <trkpt lat="44.08907" lon="3.01959">
        <ele>514.5</ele>
        <time>2018-05-19T12:05:34Z</time>
      </trkpt>
      <trkpt lat="44.08901" lon="3.01966">
        <ele>514.7</ele>
        <time>2018-05-19T12:05:35Z</time>
      </trkpt>
      <trkpt lat="44.08895" lon="3.01973">
        <ele>514.8</ele>
        <time>2018-05-19T12:05:36Z</time>
      </trkpt>
      <trkpt lat="44.0889" lon="3.01979">
        <ele>514.8</ele>
        <time>2018-05-19T12:05:37Z</time>
      </trkpt>
      <trkpt lat="44.08886" lon="3.01988">
        <ele>515</ele>
        <time>2018-05-19T12:05:38Z</time>
      </trkpt>
      <trkpt lat="44.08882" lon="3.01999">
        <ele>515.2</ele>
        <time>2018-05-19T12:05:39Z</time>
      </trkpt>
      <trkpt lat="44.08878" lon="3.02009">
        <ele>515.3</ele>
        <time>2018-05-19T12:05:40Z</time>
      </trkpt>
      <trkpt lat="44.08875" lon="3.02018">
        <ele>515.4</ele>
        <time>2018-05-19T12:05:41Z</time>
      </trkpt>
      <trkpt lat="44.08874" lon="3.02029">
        <ele>515.4</ele>
        <time>2018-05-19T12:05:42Z</time>
      </trkpt>
      <trkpt lat="44.08874" lon="3.02042">
        <ele>515.6</ele>
        <time>2018-05-19T12:05:43Z</time>
      </trkpt>
      <trkpt lat="44.08873" lon="3.02052">
        <ele>515.8</ele>
        <time>2018-05-19T12:05:44Z</time>
      </trkpt>
      <trkpt lat="44.08873" lon="3.02061">
        <ele>516</ele>
        <time>2018-05-19T12:05:45Z</time>
      </trkpt>
      <trkpt lat="44.08873" lon="3.02069">
        <ele>516.1</ele>
        <time>2018-05-19T12:05:46Z</time>
      </trkpt>
      <trkpt lat="44.08876" lon="3.02075">
        <ele>516.2</ele>
        <time>2018-05-19T12:05:47Z</time>
      </trkpt>
      <trkpt lat="44.08879" lon="3.0208">
        <ele>516.3</ele>
        <time>2018-05-19T12:05:48Z</time>
      </trkpt>
      <trkpt lat="44.08882" lon="3.02082">
        <ele>516.3</ele>
        <time>2018-05-19T12:05:49Z</time>
      </trkpt>
      <trkpt lat="44.08884" lon="3.02084">
        <ele>516.4</ele>
        <time>2018-05-19T12:05:50Z</time>
      </trkpt>
      <trkpt lat="44.08887" lon="3.02087">
        <ele>516.4</ele>
        <time>2018-05-19T12:05:52Z</time>
      </trkpt>
      <trkpt lat="44.0889" lon="3.02091">
        <ele>516.4</ele>
        <time>2018-05-19T12:05:55Z</time>
      </trkpt>
      <trkpt lat="44.08892" lon="3.02093">
        <ele>516.5</ele>
        <time>2018-05-19T12:05:58Z</time>
      </trkpt>
      <trkpt lat="44.08895" lon="3.02094">
        <ele>516.5</ele>
        <time>2018-05-19T12:06:01Z</time>
      </trkpt>
      <trkpt lat="44.08898" lon="3.02097">
        <ele>516.5</ele>
        <time>2018-05-19T12:06:04Z</time>
      </trkpt>
      <trkpt lat="44.08902" lon="3.02099">
        <ele>516.6</ele>
        <time>2018-05-19T12:06:07Z</time>
      </trkpt>
      <trkpt lat="44.08904" lon="3.02102">
        <ele>516.6</ele>
        <time>2018-05-19T12:06:09Z</time>
      </trkpt>
      <trkpt lat="44.08907" lon="3.02105">
        <ele>516.6</ele>
        <time>2018-05-19T12:06:11Z</time>
      </trkpt>
      <trkpt lat="44.08909" lon="3.02108">
        <ele>516.7</ele>
        <time>2018-05-19T12:06:13Z</time>
      </trkpt>
      <trkpt lat="44.08912" lon="3.02111">
        <ele>516.8</ele>
        <time>2018-05-19T12:06:15Z</time>
      </trkpt>
      <trkpt lat="44.08913" lon="3.02115">
        <ele>516.8</ele>
        <time>2018-05-19T12:06:27Z</time>
      </trkpt>
      <trkpt lat="44.08914" lon="3.02119">
        <ele>516.9</ele>
        <time>2018-05-19T12:06:31Z</time>
      </trkpt>
      <trkpt lat="44.08915" lon="3.02123">
        <ele>516.9</ele>
        <time>2018-05-19T12:06:34Z</time>
      </trkpt>
      <trkpt lat="44.08914" lon="3.02127">
        <ele>516</ele>
        <time>2018-05-19T12:06:44Z</time>
      </trkpt>
      <trkpt lat="44.08914" lon="3.02131">
        <ele>515.6</ele>
        <time>2018-05-19T12:06:52Z</time>
      </trkpt>
      <trkpt lat="44.08912" lon="3.02135">
        <ele>514.9</ele>
        <time>2018-05-19T12:09:47Z</time>
      </trkpt>
      <trkpt lat="44.08916" lon="3.02137">
        <ele>514.2</ele>
        <time>2018-05-19T12:09:50Z</time>
      </trkpt>
      <trkpt lat="44.08918" lon="3.02138">
        <ele>513.2</ele>
        <time>2018-05-19T12:09:53Z</time>
      </trkpt>
      <trkpt lat="44.08921" lon="3.0214">
        <ele>512.1</ele>
        <time>2018-05-19T12:09:59Z</time>
      </trkpt>
      <trkpt lat="44.08916" lon="3.02142">
        <ele>510.2</ele>
        <time>2018-05-19T12:12:13Z</time>
      </trkpt>
      <trkpt lat="44.08918" lon="3.02145">
        <ele>509.5</ele>
        <time>2018-05-19T12:12:16Z</time>
      </trkpt>
      <trkpt lat="44.0892" lon="3.02151">
        <ele>508.5</ele>
        <time>2018-05-19T12:12:18Z</time>
      </trkpt>
      <trkpt lat="44.08922" lon="3.02155">
        <ele>507.8</ele>
        <time>2018-05-19T12:12:19Z</time>
      </trkpt>
      <trkpt lat="44.08925" lon="3.02163">
        <ele>506.9</ele>
        <time>2018-05-19T12:12:20Z</time>
      </trkpt>
      <trkpt lat="44.08927" lon="3.0217">
        <ele>505.9</ele>
        <time>2018-05-19T12:12:21Z</time>
      </trkpt>
      <trkpt lat="44.0893" lon="3.02177">
        <ele>504.7</ele>
        <time>2018-05-19T12:12:22Z</time>
      </trkpt>
      <trkpt lat="44.08933" lon="3.02185">
        <ele>504</ele>
        <time>2018-05-19T12:12:23Z</time>
      </trkpt>
      <trkpt lat="44.08936" lon="3.02193">
        <ele>504</ele>
        <time>2018-05-19T12:12:24Z</time>
      </trkpt>
      <trkpt lat="44.08939" lon="3.02202">
        <ele>504</ele>
        <time>2018-05-19T12:12:25Z</time>
      </trkpt>
      <trkpt lat="44.08943" lon="3.02211">
        <ele>504</ele>
        <time>2018-05-19T12:12:26Z</time>
      </trkpt>
      <trkpt lat="44.08946" lon="3.02218">
        <ele>504</ele>
        <time>2018-05-19T12:12:27Z</time>
      </trkpt>
      <trkpt lat="44.08949" lon="3.02223">
        <ele>504</ele>
        <time>2018-05-19T12:12:28Z</time>
      </trkpt>
      <trkpt lat="44.08952" lon="3.02227">
        <ele>504</ele>
        <time>2018-05-19T12:12:29Z</time>
      </trkpt>
      <trkpt lat="44.08955" lon="3.0223">
        <ele>504</ele>
        <time>2018-05-19T12:12:30Z</time>
      </trkpt>
      <trkpt lat="44.08958" lon="3.02234">
        <ele>504</ele>
        <time>2018-05-19T12:12:32Z</time>
      </trkpt>
      <trkpt lat="44.0896" lon="3.02239">
        <ele>504</ele>
        <time>2018-05-19T12:12:35Z</time>
      </trkpt>
      <trkpt lat="44.0896" lon="3.02245">
        <ele>504</ele>
        <time>2018-05-19T12:12:37Z</time>
      </trkpt>
      <trkpt lat="44.08962" lon="3.0225">
        <ele>503.4</ele>
        <time>2018-05-19T12:12:38Z</time>
      </trkpt>
      <trkpt lat="44.08964" lon="3.02258">
        <ele>503.5</ele>
        <time>2018-05-19T12:12:39Z</time>
      </trkpt>
      <trkpt lat="44.08966" lon="3.02266">
        <ele>504.1</ele>
        <time>2018-05-19T12:12:40Z</time>
      </trkpt>
      <trkpt lat="44.08968" lon="3.02274">
        <ele>503.9</ele>
        <time>2018-05-19T12:12:41Z</time>
      </trkpt>
      <trkpt lat="44.0897" lon="3.02281">
        <ele>505.9</ele>
        <time>2018-05-19T12:12:42Z</time>
      </trkpt>
      <trkpt lat="44.08973" lon="3.02288">
        <ele>507.7</ele>
        <time>2018-05-19T12:12:43Z</time>
      </trkpt>
      <trkpt lat="44.08976" lon="3.02292">
        <ele>508.9</ele>
        <time>2018-05-19T12:12:44Z</time>
      </trkpt>
      <trkpt lat="44.08979" lon="3.02295">
        <ele>509.2</ele>
        <time>2018-05-19T12:12:45Z</time>
      </trkpt>
      <trkpt lat="44.08982" lon="3.02299">
        <ele>509.5</ele>
        <time>2018-05-19T12:12:47Z</time>
      </trkpt>
      <trkpt lat="44.08984" lon="3.02304">
        <ele>509.5</ele>
        <time>2018-05-19T12:12:49Z</time>
      </trkpt>
      <trkpt lat="44.08986" lon="3.02309">
        <ele>509.6</ele>
        <time>2018-05-19T12:12:50Z</time>
      </trkpt>
      <trkpt lat="44.08987" lon="3.02314">
        <ele>508.8</ele>
        <time>2018-05-19T12:12:51Z</time>
      </trkpt>
      <trkpt lat="44.08989" lon="3.0232">
        <ele>508</ele>
        <time>2018-05-19T12:12:52Z</time>
      </trkpt>
      <trkpt lat="44.0899" lon="3.02326">
        <ele>506.6</ele>
        <time>2018-05-19T12:12:53Z</time>
      </trkpt>
      <trkpt lat="44.08992" lon="3.0233">
        <ele>505.4</ele>
        <time>2018-05-19T12:12:54Z</time>
      </trkpt>
      <trkpt lat="44.08993" lon="3.02334">
        <ele>505</ele>
        <time>2018-05-19T12:12:55Z</time>
      </trkpt>
      <trkpt lat="44.08995" lon="3.02339">
        <ele>504.9</ele>
        <time>2018-05-19T12:12:56Z</time>
      </trkpt>
      <trkpt lat="44.08996" lon="3.02344">
        <ele>504.7</ele>
        <time>2018-05-19T12:12:57Z</time>
      </trkpt>
      <trkpt lat="44.08997" lon="3.02348">
        <ele>504</ele>
        <time>2018-05-19T12:12:58Z</time>
      </trkpt>
      <trkpt lat="44.08999" lon="3.02351">
        <ele>503.4</ele>
        <time>2018-05-19T12:12:59Z</time>
      </trkpt>
      <trkpt lat="44.09004" lon="3.02354">
        <ele>503</ele>
        <time>2018-05-19T12:13:00Z</time>
      </trkpt>
      <trkpt lat="44.09008" lon="3.02359">
        <ele>502.2</ele>
        <time>2018-05-19T12:13:01Z</time>
      </trkpt>
      <trkpt lat="44.09011" lon="3.02364">
        <ele>500.5</ele>
        <time>2018-05-19T12:13:02Z</time>
      </trkpt>
      <trkpt lat="44.09015" lon="3.02371">
        <ele>499.1</ele>
        <time>2018-05-19T12:13:03Z</time>
      </trkpt>
      <trkpt lat="44.09018" lon="3.02376">
        <ele>497.7</ele>
        <time>2018-05-19T12:13:04Z</time>
      </trkpt>
      <trkpt lat="44.09022" lon="3.02382">
        <ele>496.3</ele>
        <time>2018-05-19T12:13:05Z</time>
      </trkpt>
      <trkpt lat="44.09025" lon="3.02385">
        <ele>496.3</ele>
        <time>2018-05-19T12:13:06Z</time>
      </trkpt>
      <trkpt lat="44.09028" lon="3.02388">
        <ele>496.2</ele>
        <time>2018-05-19T12:13:07Z</time>
      </trkpt>
      <trkpt lat="44.09032" lon="3.02391">
        <ele>496.5</ele>
        <time>2018-05-19T12:13:09Z</time>
      </trkpt>
      <trkpt lat="44.09035" lon="3.02391">
        <ele>496.7</ele>
        <time>2018-05-19T12:13:11Z</time>
      </trkpt>
      <trkpt lat="44.09039" lon="3.02393">
        <ele>496.9</ele>
        <time>2018-05-19T12:13:14Z</time>
      </trkpt>
      <trkpt lat="44.09041" lon="3.02396">
        <ele>496.9</ele>
        <time>2018-05-19T12:13:16Z</time>
      </trkpt>
      <trkpt lat="44.09044" lon="3.02398">
        <ele>496.9</ele>
        <time>2018-05-19T12:13:18Z</time>
      </trkpt>
      <trkpt lat="44.09048" lon="3.024">
        <ele>497.5</ele>
        <time>2018-05-19T12:13:20Z</time>
      </trkpt>
      <trkpt lat="44.09051" lon="3.024">
        <ele>498.3</ele>
        <time>2018-05-19T12:13:22Z</time>
      </trkpt>
      <trkpt lat="44.09055" lon="3.02401">
        <ele>499.2</ele>
        <time>2018-05-19T12:13:25Z</time>
      </trkpt>
      <trkpt lat="44.09058" lon="3.02401">
        <ele>499</ele>
        <time>2018-05-19T12:13:27Z</time>
      </trkpt>
      <trkpt lat="44.09061" lon="3.02401">
        <ele>498.7</ele>
        <time>2018-05-19T12:13:29Z</time>
      </trkpt>
      <trkpt lat="44.09065" lon="3.02402">
        <ele>498.5</ele>
        <time>2018-05-19T12:13:32Z</time>
      </trkpt>
      <trkpt lat="44.09068" lon="3.02404">
        <ele>498.3</ele>
        <time>2018-05-19T12:13:34Z</time>
      </trkpt>
      <trkpt lat="44.09072" lon="3.02406">
        <ele>498.1</ele>
        <time>2018-05-19T12:13:37Z</time>
      </trkpt>
      <trkpt lat="44.09075" lon="3.02406">
        <ele>498</ele>
        <time>2018-05-19T12:13:39Z</time>
      </trkpt>
      <trkpt lat="44.09078" lon="3.02406">
        <ele>497.8</ele>
        <time>2018-05-19T12:13:41Z</time>
      </trkpt>
      <trkpt lat="44.09082" lon="3.02407">
        <ele>498.1</ele>
        <time>2018-05-19T12:13:43Z</time>
      </trkpt>
      <trkpt lat="44.09084" lon="3.02407">
        <ele>498.5</ele>
        <time>2018-05-19T12:13:45Z</time>
      </trkpt>
      <trkpt lat="44.09087" lon="3.02407">
        <ele>499</ele>
        <time>2018-05-19T12:13:47Z</time>
      </trkpt>
      <trkpt lat="44.09091" lon="3.02407">
        <ele>499.7</ele>
        <time>2018-05-19T12:13:49Z</time>
      </trkpt>
      <trkpt lat="44.09094" lon="3.02408">
        <ele>500.2</ele>
        <time>2018-05-19T12:13:51Z</time>
      </trkpt>
      <trkpt lat="44.09098" lon="3.02412">
        <ele>500.4</ele>
        <time>2018-05-19T12:13:53Z</time>
      </trkpt>
      <trkpt lat="44.09101" lon="3.02414">
        <ele>500.2</ele>
        <time>2018-05-19T12:13:54Z</time>
      </trkpt>
      <trkpt lat="44.09105" lon="3.02417">
        <ele>499.4</ele>
        <time>2018-05-19T12:13:55Z</time>
      </trkpt>
      <trkpt lat="44.09108" lon="3.0242">
        <ele>498.3</ele>
        <time>2018-05-19T12:13:56Z</time>
      </trkpt>
      <trkpt lat="44.09112" lon="3.02422">
        <ele>497.4</ele>
        <time>2018-05-19T12:13:58Z</time>
      </trkpt>
      <trkpt lat="44.09115" lon="3.02424">
        <ele>497.6</ele>
        <time>2018-05-19T12:14:00Z</time>
      </trkpt>
      <trkpt lat="44.09118" lon="3.02426">
        <ele>497.8</ele>
        <time>2018-05-19T12:14:02Z</time>
      </trkpt>
      <trkpt lat="44.09122" lon="3.0243">
        <ele>497.9</ele>
        <time>2018-05-19T12:14:04Z</time>
      </trkpt>
      <trkpt lat="44.09127" lon="3.02433">
        <ele>497.9</ele>
        <time>2018-05-19T12:14:06Z</time>
      </trkpt>
      <trkpt lat="44.09131" lon="3.02436">
        <ele>498.6</ele>
        <time>2018-05-19T12:14:08Z</time>
      </trkpt>
      <trkpt lat="44.09135" lon="3.0244">
        <ele>499.1</ele>
        <time>2018-05-19T12:14:10Z</time>
      </trkpt>
      <trkpt lat="44.09138" lon="3.02442">
        <ele>498.8</ele>
        <time>2018-05-19T12:14:11Z</time>
      </trkpt>
      <trkpt lat="44.0914" lon="3.02444">
        <ele>498.6</ele>
        <time>2018-05-19T12:14:12Z</time>
      </trkpt>
      <trkpt lat="44.09143" lon="3.02446">
        <ele>498.6</ele>
        <time>2018-05-19T12:14:13Z</time>
      </trkpt>
      <trkpt lat="44.09145" lon="3.02448">
        <ele>499.2</ele>
        <time>2018-05-19T12:14:14Z</time>
      </trkpt>
      <trkpt lat="44.09148" lon="3.02449">
        <ele>499.8</ele>
        <time>2018-05-19T12:14:15Z</time>
      </trkpt>
      <trkpt lat="44.09151" lon="3.0245">
        <ele>500.4</ele>
        <time>2018-05-19T12:14:16Z</time>
      </trkpt>
      <trkpt lat="44.09156" lon="3.0245">
        <ele>501.9</ele>
        <time>2018-05-19T12:14:18Z</time>
      </trkpt>
      <trkpt lat="44.0916" lon="3.02449">
        <ele>503.5</ele>
        <time>2018-05-19T12:14:20Z</time>
      </trkpt>
      <trkpt lat="44.09163" lon="3.0245">
        <ele>505.4</ele>
        <time>2018-05-19T12:14:23Z</time>
      </trkpt>
      <trkpt lat="44.09167" lon="3.02452">
        <ele>506.9</ele>
        <time>2018-05-19T12:14:25Z</time>
      </trkpt>
      <trkpt lat="44.09171" lon="3.02454">
        <ele>508.2</ele>
        <time>2018-05-19T12:14:28Z</time>
      </trkpt>
      <trkpt lat="44.09173" lon="3.02458">
        <ele>508.9</ele>
        <time>2018-05-19T12:14:30Z</time>
      </trkpt>
      <trkpt lat="44.09177" lon="3.02461">
        <ele>509.4</ele>
        <time>2018-05-19T12:14:32Z</time>
      </trkpt>
      <trkpt lat="44.09179" lon="3.02463">
        <ele>508.7</ele>
        <time>2018-05-19T12:14:34Z</time>
      </trkpt>
      <trkpt lat="44.09182" lon="3.02467">
        <ele>507.8</ele>
        <time>2018-05-19T12:14:36Z</time>
      </trkpt>
      <trkpt lat="44.09185" lon="3.02472">
        <ele>508.3</ele>
        <time>2018-05-19T12:14:38Z</time>
      </trkpt>
      <trkpt lat="44.09187" lon="3.02477">
        <ele>508.4</ele>
        <time>2018-05-19T12:14:40Z</time>
      </trkpt>
      <trkpt lat="44.09189" lon="3.02481">
        <ele>507.8</ele>
        <time>2018-05-19T12:14:42Z</time>
      </trkpt>
      <trkpt lat="44.09192" lon="3.02484">
        <ele>507.4</ele>
        <time>2018-05-19T12:14:44Z</time>
      </trkpt>
      <trkpt lat="44.09195" lon="3.02487">
        <ele>507.6</ele>
        <time>2018-05-19T12:14:47Z</time>
      </trkpt>
      <trkpt lat="44.09198" lon="3.0249">
        <ele>507.6</ele>
        <time>2018-05-19T12:14:52Z</time>
      </trkpt>
      <trkpt lat="44.092" lon="3.02492">
        <ele>507.3</ele>
        <time>2018-05-19T12:15:12Z</time>
      </trkpt>
      <trkpt lat="44.09203" lon="3.02495">
        <ele>507</ele>
        <time>2018-05-19T12:15:16Z</time>
      </trkpt>
      <trkpt lat="44.09205" lon="3.02498">
        <ele>507.4</ele>
        <time>2018-05-19T12:15:23Z</time>
      </trkpt>
      <trkpt lat="44.09208" lon="3.025">
        <ele>508</ele>
        <time>2018-05-19T12:15:26Z</time>
      </trkpt>
      <trkpt lat="44.09212" lon="3.02499">
        <ele>508.5</ele>
        <time>2018-05-19T12:15:29Z</time>
      </trkpt>
      <trkpt lat="44.09215" lon="3.025">
        <ele>509.1</ele>
        <time>2018-05-19T12:15:32Z</time>
      </trkpt>
      <trkpt lat="44.09218" lon="3.02502">
        <ele>509.6</ele>
        <time>2018-05-19T12:15:37Z</time>
      </trkpt>
      <trkpt lat="44.09221" lon="3.02504">
        <ele>510</ele>
        <time>2018-05-19T12:15:40Z</time>
      </trkpt>
      <trkpt lat="44.09223" lon="3.02506">
        <ele>510.6</ele>
        <time>2018-05-19T12:15:45Z</time>
      </trkpt>
      <trkpt lat="44.09225" lon="3.02508">
        <ele>511.4</ele>
        <time>2018-05-19T12:15:50Z</time>
      </trkpt>
      <trkpt lat="44.09228" lon="3.0251">
        <ele>512.3</ele>
        <time>2018-05-19T12:15:56Z</time>
      </trkpt>
      <trkpt lat="44.09231" lon="3.02509">
        <ele>513</ele>
        <time>2018-05-19T12:16:01Z</time>
      </trkpt>
      <trkpt lat="44.09235" lon="3.02509">
        <ele>513.9</ele>
        <time>2018-05-19T12:16:05Z</time>
      </trkpt>
      <trkpt lat="44.09238" lon="3.02509">
        <ele>514.8</ele>
        <time>2018-05-19T12:16:10Z</time>
      </trkpt>
      <trkpt lat="44.09241" lon="3.02509">
        <ele>515.6</ele>
        <time>2018-05-19T12:16:14Z</time>
      </trkpt>
      <trkpt lat="44.09244" lon="3.02507">
        <ele>516.4</ele>
        <time>2018-05-19T12:16:17Z</time>
      </trkpt>
      <trkpt lat="44.09247" lon="3.02506">
        <ele>516.9</ele>
        <time>2018-05-19T12:16:19Z</time>
      </trkpt>
      <trkpt lat="44.0925" lon="3.02506">
        <ele>517.5</ele>
        <time>2018-05-19T12:16:23Z</time>
      </trkpt>
      <trkpt lat="44.09252" lon="3.02508">
        <ele>518</ele>
        <time>2018-05-19T12:16:28Z</time>
      </trkpt>
      <trkpt lat="44.09255" lon="3.02509">
        <ele>518.5</ele>
        <time>2018-05-19T12:16:32Z</time>
      </trkpt>
      <trkpt lat="44.09258" lon="3.0251">
        <ele>518.8</ele>
        <time>2018-05-19T12:16:37Z</time>
      </trkpt>
      <trkpt lat="44.09261" lon="3.0251">
        <ele>519.2</ele>
        <time>2018-05-19T12:16:40Z</time>
      </trkpt>
      <trkpt lat="44.09265" lon="3.02511">
        <ele>519.4</ele>
        <time>2018-05-19T12:16:43Z</time>
      </trkpt>
      <trkpt lat="44.09269" lon="3.02511">
        <ele>519.5</ele>
        <time>2018-05-19T12:16:48Z</time>
      </trkpt>
      <trkpt lat="44.09271" lon="3.02513">
        <ele>519.6</ele>
        <time>2018-05-19T12:16:51Z</time>
      </trkpt>
      <trkpt lat="44.09274" lon="3.02515">
        <ele>520.1</ele>
        <time>2018-05-19T12:16:56Z</time>
      </trkpt>
      <trkpt lat="44.09277" lon="3.02516">
        <ele>520.5</ele>
        <time>2018-05-19T12:17:04Z</time>
      </trkpt>
      <trkpt lat="44.0928" lon="3.02518">
        <ele>520.7</ele>
        <time>2018-05-19T12:17:08Z</time>
      </trkpt>
      <trkpt lat="44.09282" lon="3.02521">
        <ele>520.8</ele>
        <time>2018-05-19T12:17:13Z</time>
      </trkpt>
      <trkpt lat="44.09285" lon="3.02523">
        <ele>520.8</ele>
        <time>2018-05-19T12:17:18Z</time>
      </trkpt>
      <trkpt lat="44.09286" lon="3.02527">
        <ele>520.6</ele>
        <time>2018-05-19T12:17:25Z</time>
      </trkpt>
      <trkpt lat="44.09289" lon="3.02529">
        <ele>520.4</ele>
        <time>2018-05-19T12:19:14Z</time>
      </trkpt>
      <trkpt lat="44.09287" lon="3.02527">
        <ele>520.1</ele>
        <time>2018-05-19T12:19:24Z</time>
      </trkpt>
      <trkpt lat="44.09284" lon="3.02526">
        <ele>519.8</ele>
        <time>2018-05-19T12:19:34Z</time>
      </trkpt>
      <trkpt lat="44.09287" lon="3.02521">
        <ele>519.1</ele>
        <time>2018-05-19T12:22:03Z</time>
      </trkpt>
      <trkpt lat="44.09288" lon="3.02517">
        <ele>518.5</ele>
        <time>2018-05-19T12:22:12Z</time>
      </trkpt>
      <trkpt lat="44.09289" lon="3.02522">
        <ele>517.8</ele>
        <time>2018-05-19T12:22:26Z</time>
      </trkpt>
      <trkpt lat="44.0929" lon="3.02526">
        <ele>517.2</ele>
        <time>2018-05-19T12:22:27Z</time>
      </trkpt>
      <trkpt lat="44.09291" lon="3.02532">
        <ele>516.5</ele>
        <time>2018-05-19T12:22:28Z</time>
      </trkpt>
      <trkpt lat="44.09292" lon="3.02543">
        <ele>516.4</ele>
        <time>2018-05-19T12:22:29Z</time>
      </trkpt>
      <trkpt lat="44.09294" lon="3.0255">
        <ele>516.2</ele>
        <time>2018-05-19T12:22:30Z</time>
      </trkpt>
      <trkpt lat="44.09296" lon="3.02559">
        <ele>516</ele>
        <time>2018-05-19T12:22:31Z</time>
      </trkpt>
      <trkpt lat="44.093" lon="3.02564">
        <ele>516</ele>
        <time>2018-05-19T12:22:32Z</time>
      </trkpt>
      <trkpt lat="44.09302" lon="3.02568">
        <ele>516.2</ele>
        <time>2018-05-19T12:22:33Z</time>
      </trkpt>
      <trkpt lat="44.09305" lon="3.02571">
        <ele>516.3</ele>
        <time>2018-05-19T12:22:34Z</time>
      </trkpt>
      <trkpt lat="44.09308" lon="3.02573">
        <ele>516.3</ele>
        <time>2018-05-19T12:22:35Z</time>
      </trkpt>
      <trkpt lat="44.09312" lon="3.02573">
        <ele>516.2</ele>
        <time>2018-05-19T12:22:36Z</time>
      </trkpt>
      <trkpt lat="44.09316" lon="3.02573">
        <ele>516.1</ele>
        <time>2018-05-19T12:22:37Z</time>
      </trkpt>
      <trkpt lat="44.09319" lon="3.02574">
        <ele>516</ele>
        <time>2018-05-19T12:22:38Z</time>
      </trkpt>
      <trkpt lat="44.09324" lon="3.02574">
        <ele>516.2</ele>
        <time>2018-05-19T12:22:39Z</time>
      </trkpt>
      <trkpt lat="44.09331" lon="3.02579">
        <ele>516.3</ele>
        <time>2018-05-19T12:22:40Z</time>
      </trkpt>
      <trkpt lat="44.09338" lon="3.02582">
        <ele>516.4</ele>
        <time>2018-05-19T12:22:41Z</time>
      </trkpt>
      <trkpt lat="44.09342" lon="3.02583">
        <ele>516.5</ele>
        <time>2018-05-19T12:22:42Z</time>
      </trkpt>
      <trkpt lat="44.09349" lon="3.02583">
        <ele>516.8</ele>
        <time>2018-05-19T12:22:43Z</time>
      </trkpt>
      <trkpt lat="44.09353" lon="3.02583">
        <ele>516.5</ele>
        <time>2018-05-19T12:22:44Z</time>
      </trkpt>
      <trkpt lat="44.09356" lon="3.02584">
        <ele>516.4</ele>
        <time>2018-05-19T12:22:45Z</time>
      </trkpt>
      <trkpt lat="44.0936" lon="3.02584">
        <ele>516.2</ele>
        <time>2018-05-19T12:22:46Z</time>
      </trkpt>
      <trkpt lat="44.09364" lon="3.02588">
        <ele>515.9</ele>
        <time>2018-05-19T12:22:48Z</time>
      </trkpt>
      <trkpt lat="44.09366" lon="3.0259">
        <ele>515.8</ele>
        <time>2018-05-19T12:22:50Z</time>
      </trkpt>
      <trkpt lat="44.09364" lon="3.02594">
        <ele>515.6</ele>
        <time>2018-05-19T12:22:51Z</time>
      </trkpt>
      <trkpt lat="44.09363" lon="3.026">
        <ele>515.4</ele>
        <time>2018-05-19T12:22:52Z</time>
      </trkpt>
      <trkpt lat="44.09361" lon="3.02604">
        <ele>515.1</ele>
        <time>2018-05-19T12:22:53Z</time>
      </trkpt>
      <trkpt lat="44.09361" lon="3.02609">
        <ele>514.9</ele>
        <time>2018-05-19T12:22:54Z</time>
      </trkpt>
      <trkpt lat="44.09359" lon="3.02617">
        <ele>514.5</ele>
        <time>2018-05-19T12:22:55Z</time>
      </trkpt>
      <trkpt lat="44.09356" lon="3.02621">
        <ele>514.1</ele>
        <time>2018-05-19T12:22:56Z</time>
      </trkpt>
      <trkpt lat="44.09353" lon="3.02627">
        <ele>513.6</ele>
        <time>2018-05-19T12:22:57Z</time>
      </trkpt>
      <trkpt lat="44.09349" lon="3.02635">
        <ele>513.1</ele>
        <time>2018-05-19T12:22:58Z</time>
      </trkpt>
      <trkpt lat="44.09347" lon="3.02641">
        <ele>512.8</ele>
        <time>2018-05-19T12:22:59Z</time>
      </trkpt>
      <trkpt lat="44.09343" lon="3.02647">
        <ele>512.6</ele>
        <time>2018-05-19T12:23:00Z</time>
      </trkpt>
      <trkpt lat="44.0934" lon="3.02651">
        <ele>512.4</ele>
        <time>2018-05-19T12:23:01Z</time>
      </trkpt>
      <trkpt lat="44.09339" lon="3.02656">
        <ele>512.3</ele>
        <time>2018-05-19T12:23:02Z</time>
      </trkpt>
      <trkpt lat="44.09339" lon="3.02662">
        <ele>512.2</ele>
        <time>2018-05-19T12:23:03Z</time>
      </trkpt>
      <trkpt lat="44.09337" lon="3.02668">
        <ele>512.2</ele>
        <time>2018-05-19T12:23:04Z</time>
      </trkpt>
      <trkpt lat="44.09337" lon="3.02673">
        <ele>512.2</ele>
        <time>2018-05-19T12:23:05Z</time>
      </trkpt>
      <trkpt lat="44.09337" lon="3.0268">
        <ele>512.2</ele>
        <time>2018-05-19T12:23:06Z</time>
      </trkpt>
      <trkpt lat="44.09338" lon="3.02686">
        <ele>512.1</ele>
        <time>2018-05-19T12:23:07Z</time>
      </trkpt>
      <trkpt lat="44.09338" lon="3.02693">
        <ele>511.9</ele>
        <time>2018-05-19T12:23:08Z</time>
      </trkpt>
      <trkpt lat="44.09339" lon="3.02698">
        <ele>511.9</ele>
        <time>2018-05-19T12:23:09Z</time>
      </trkpt>
      <trkpt lat="44.0934" lon="3.02704">
        <ele>511.9</ele>
        <time>2018-05-19T12:23:10Z</time>
      </trkpt>
      <trkpt lat="44.09342" lon="3.02707">
        <ele>511.7</ele>
        <time>2018-05-19T12:23:11Z</time>
      </trkpt>
      <trkpt lat="44.09343" lon="3.02713">
        <ele>511.4</ele>
        <time>2018-05-19T12:23:12Z</time>
      </trkpt>
      <trkpt lat="44.09345" lon="3.02719">
        <ele>511</ele>
        <time>2018-05-19T12:23:13Z</time>
      </trkpt>
      <trkpt lat="44.09346" lon="3.02724">
        <ele>510.6</ele>
        <time>2018-05-19T12:23:14Z</time>
      </trkpt>
      <trkpt lat="44.09347" lon="3.02729">
        <ele>510.2</ele>
        <time>2018-05-19T12:23:15Z</time>
      </trkpt>
      <trkpt lat="44.09349" lon="3.02734">
        <ele>509.8</ele>
        <time>2018-05-19T12:23:16Z</time>
      </trkpt>
      <trkpt lat="44.0935" lon="3.0274">
        <ele>509.2</ele>
        <time>2018-05-19T12:23:17Z</time>
      </trkpt>
      <trkpt lat="44.09352" lon="3.02746">
        <ele>508.6</ele>
        <time>2018-05-19T12:23:18Z</time>
      </trkpt>
      <trkpt lat="44.09353" lon="3.02751">
        <ele>507.9</ele>
        <time>2018-05-19T12:23:19Z</time>
      </trkpt>
      <trkpt lat="44.09354" lon="3.02756">
        <ele>507.2</ele>
        <time>2018-05-19T12:23:20Z</time>
      </trkpt>
      <trkpt lat="44.09355" lon="3.02762">
        <ele>507.7</ele>
        <time>2018-05-19T12:23:21Z</time>
      </trkpt>
      <trkpt lat="44.09356" lon="3.02768">
        <ele>508.5</ele>
        <time>2018-05-19T12:23:22Z</time>
      </trkpt>
      <trkpt lat="44.09357" lon="3.02773">
        <ele>509.2</ele>
        <time>2018-05-19T12:23:23Z</time>
      </trkpt>
      <trkpt lat="44.09358" lon="3.02776">
        <ele>509.7</ele>
        <time>2018-05-19T12:23:24Z</time>
      </trkpt>
      <trkpt lat="44.09361" lon="3.02778">
        <ele>510.2</ele>
        <time>2018-05-19T12:23:25Z</time>
      </trkpt>
      <trkpt lat="44.09364" lon="3.02779">
        <ele>510.6</ele>
        <time>2018-05-19T12:23:26Z</time>
      </trkpt>
      <trkpt lat="44.09367" lon="3.02779">
        <ele>511</ele>
        <time>2018-05-19T12:23:27Z</time>
      </trkpt>
      <trkpt lat="44.0937" lon="3.0278">
        <ele>511.5</ele>
        <time>2018-05-19T12:23:28Z</time>
      </trkpt>
      <trkpt lat="44.09373" lon="3.0278">
        <ele>512</ele>
        <time>2018-05-19T12:23:29Z</time>
      </trkpt>
      <trkpt lat="44.09376" lon="3.02781">
        <ele>512.5</ele>
        <time>2018-05-19T12:23:30Z</time>
      </trkpt>
      <trkpt lat="44.09379" lon="3.02782">
        <ele>512.9</ele>
        <time>2018-05-19T12:23:31Z</time>
      </trkpt>
      <trkpt lat="44.09382" lon="3.02783">
        <ele>513.2</ele>
        <time>2018-05-19T12:23:32Z</time>
      </trkpt>
      <trkpt lat="44.09385" lon="3.02784">
        <ele>513.5</ele>
        <time>2018-05-19T12:23:33Z</time>
      </trkpt>
      <trkpt lat="44.09388" lon="3.02785">
        <ele>513.8</ele>
        <time>2018-05-19T12:23:34Z</time>
      </trkpt>
      <trkpt lat="44.09391" lon="3.02787">
        <ele>514.1</ele>
        <time>2018-05-19T12:23:35Z</time>
      </trkpt>
      <trkpt lat="44.09394" lon="3.02788">
        <ele>514.4</ele>
        <time>2018-05-19T12:23:36Z</time>
      </trkpt>
      <trkpt lat="44.09397" lon="3.0279">
        <ele>514.6</ele>
        <time>2018-05-19T12:23:37Z</time>
      </trkpt>
      <trkpt lat="44.094" lon="3.02791">
        <ele>514.8</ele>
        <time>2018-05-19T12:23:38Z</time>
      </trkpt>
      <trkpt lat="44.09404" lon="3.02793">
        <ele>515</ele>
        <time>2018-05-19T12:23:39Z</time>
      </trkpt>
      <trkpt lat="44.09407" lon="3.02795">
        <ele>515.3</ele>
        <time>2018-05-19T12:23:40Z</time>
      </trkpt>
      <trkpt lat="44.0941" lon="3.02796">
        <ele>515.4</ele>
        <time>2018-05-19T12:23:41Z</time>
      </trkpt>
      <trkpt lat="44.09414" lon="3.02798">
        <ele>515.5</ele>
        <time>2018-05-19T12:23:42Z</time>
      </trkpt>
      <trkpt lat="44.09417" lon="3.028">
        <ele>515.3</ele>
        <time>2018-05-19T12:23:43Z</time>
      </trkpt>
      <trkpt lat="44.0942" lon="3.02802">
        <ele>515.1</ele>
        <time>2018-05-19T12:23:44Z</time>
      </trkpt>
      <trkpt lat="44.09424" lon="3.02805">
        <ele>515</ele>
        <time>2018-05-19T12:23:45Z</time>
      </trkpt>
      <trkpt lat="44.09428" lon="3.02807">
        <ele>515</ele>
        <time>2018-05-19T12:23:46Z</time>
      </trkpt>
      <trkpt lat="44.09431" lon="3.02811">
        <ele>514.8</ele>
        <time>2018-05-19T12:23:47Z</time>
      </trkpt>
      <trkpt lat="44.09435" lon="3.02816">
        <ele>514.4</ele>
        <time>2018-05-19T12:23:48Z</time>
      </trkpt>
      <trkpt lat="44.09439" lon="3.0282">
        <ele>514.3</ele>
        <time>2018-05-19T12:23:49Z</time>
      </trkpt>
      <trkpt lat="44.09442" lon="3.02825">
        <ele>514.1</ele>
        <time>2018-05-19T12:23:50Z</time>
      </trkpt>
      <trkpt lat="44.09445" lon="3.02829">
        <ele>513.7</ele>
        <time>2018-05-19T12:23:51Z</time>
      </trkpt>
      <trkpt lat="44.09447" lon="3.02833">
        <ele>513.3</ele>
        <time>2018-05-19T12:23:52Z</time>
      </trkpt>
      <trkpt lat="44.09449" lon="3.02838">
        <ele>513</ele>
        <time>2018-05-19T12:23:53Z</time>
      </trkpt>
      <trkpt lat="44.09452" lon="3.02842">
        <ele>512.8</ele>
        <time>2018-05-19T12:23:54Z</time>
      </trkpt>
      <trkpt lat="44.09454" lon="3.02846">
        <ele>512.4</ele>
        <time>2018-05-19T12:23:55Z</time>
      </trkpt>
      <trkpt lat="44.09456" lon="3.0285">
        <ele>511.8</ele>
        <time>2018-05-19T12:23:56Z</time>
      </trkpt>
      <trkpt lat="44.09459" lon="3.02854">
        <ele>511.3</ele>
        <time>2018-05-19T12:23:57Z</time>
      </trkpt>
      <trkpt lat="44.09461" lon="3.02859">
        <ele>510.8</ele>
        <time>2018-05-19T12:23:58Z</time>
      </trkpt>
      <trkpt lat="44.09464" lon="3.02864">
        <ele>510.3</ele>
        <time>2018-05-19T12:23:59Z</time>
      </trkpt>
      <trkpt lat="44.09466" lon="3.02868">
        <ele>509.7</ele>
        <time>2018-05-19T12:24:00Z</time>
      </trkpt>
      <trkpt lat="44.09468" lon="3.02873">
        <ele>509.2</ele>
        <time>2018-05-19T12:24:01Z</time>
      </trkpt>
      <trkpt lat="44.09471" lon="3.02877">
        <ele>508.9</ele>
        <time>2018-05-19T12:24:02Z</time>
      </trkpt>
      <trkpt lat="44.09473" lon="3.02881">
        <ele>508.6</ele>
        <time>2018-05-19T12:24:03Z</time>
      </trkpt>
      <trkpt lat="44.09478" lon="3.02889">
        <ele>508.3</ele>
        <time>2018-05-19T12:24:05Z</time>
      </trkpt>
      <trkpt lat="44.09481" lon="3.02893">
        <ele>508</ele>
        <time>2018-05-19T12:24:06Z</time>
      </trkpt>
      <trkpt lat="44.09483" lon="3.02896">
        <ele>507.7</ele>
        <time>2018-05-19T12:24:07Z</time>
      </trkpt>
      <trkpt lat="44.09486" lon="3.029">
        <ele>507.3</ele>
        <time>2018-05-19T12:24:08Z</time>
      </trkpt>
      <trkpt lat="44.09489" lon="3.02903">
        <ele>507</ele>
        <time>2018-05-19T12:24:09Z</time>
      </trkpt>
      <trkpt lat="44.09491" lon="3.02907">
        <ele>507</ele>
        <time>2018-05-19T12:24:10Z</time>
      </trkpt>
      <trkpt lat="44.09494" lon="3.0291">
        <ele>507.1</ele>
        <time>2018-05-19T12:24:11Z</time>
      </trkpt>
      <trkpt lat="44.09497" lon="3.02913">
        <ele>506.9</ele>
        <time>2018-05-19T12:24:12Z</time>
      </trkpt>
      <trkpt lat="44.095" lon="3.02917">
        <ele>506.6</ele>
        <time>2018-05-19T12:24:13Z</time>
      </trkpt>
      <trkpt lat="44.09503" lon="3.02921">
        <ele>506.9</ele>
        <time>2018-05-19T12:24:14Z</time>
      </trkpt>
      <trkpt lat="44.09506" lon="3.02923">
        <ele>507.5</ele>
        <time>2018-05-19T12:24:15Z</time>
      </trkpt>
      <trkpt lat="44.09509" lon="3.02926">
        <ele>508.1</ele>
        <time>2018-05-19T12:24:16Z</time>
      </trkpt>
      <trkpt lat="44.09513" lon="3.02927">
        <ele>508.6</ele>
        <time>2018-05-19T12:24:17Z</time>
      </trkpt>
      <trkpt lat="44.09517" lon="3.02927">
        <ele>509</ele>
        <time>2018-05-19T12:24:18Z</time>
      </trkpt>
      <trkpt lat="44.0952" lon="3.02926">
        <ele>509.9</ele>
        <time>2018-05-19T12:24:19Z</time>
      </trkpt>
      <trkpt lat="44.09524" lon="3.02923">
        <ele>511</ele>
        <time>2018-05-19T12:24:21Z</time>
      </trkpt>
      <trkpt lat="44.0953" lon="3.02916">
        <ele>512.1</ele>
        <time>2018-05-19T12:24:23Z</time>
      </trkpt>
      <trkpt lat="44.09535" lon="3.02913">
        <ele>513</ele>
        <time>2018-05-19T12:24:24Z</time>
      </trkpt>
      <trkpt lat="44.09539" lon="3.02909">
        <ele>514</ele>
        <time>2018-05-19T12:24:25Z</time>
      </trkpt>
      <trkpt lat="44.09545" lon="3.02903">
        <ele>515.3</ele>
        <time>2018-05-19T12:24:26Z</time>
      </trkpt>
      <trkpt lat="44.09552" lon="3.02896">
        <ele>516.3</ele>
        <time>2018-05-19T12:24:27Z</time>
      </trkpt>
      <trkpt lat="44.09557" lon="3.02888">
        <ele>517</ele>
        <time>2018-05-19T12:24:28Z</time>
      </trkpt>
      <trkpt lat="44.09563" lon="3.02882">
        <ele>517.6</ele>
        <time>2018-05-19T12:24:29Z</time>
      </trkpt>
      <trkpt lat="44.09569" lon="3.02875">
        <ele>518.2</ele>
        <time>2018-05-19T12:24:30Z</time>
      </trkpt>
      <trkpt lat="44.09576" lon="3.02869">
        <ele>518.9</ele>
        <time>2018-05-19T12:24:31Z</time>
      </trkpt>
      <trkpt lat="44.09584" lon="3.02864">
        <ele>519.8</ele>
        <time>2018-05-19T12:24:32Z</time>
      </trkpt>
      <trkpt lat="44.0959" lon="3.02858">
        <ele>520.6</ele>
        <time>2018-05-19T12:24:33Z</time>
      </trkpt>
      <trkpt lat="44.09594" lon="3.02853">
        <ele>521.1</ele>
        <time>2018-05-19T12:24:34Z</time>
      </trkpt>
      <trkpt lat="44.09598" lon="3.02849">
        <ele>521.4</ele>
        <time>2018-05-19T12:24:35Z</time>
      </trkpt>
      <trkpt lat="44.096" lon="3.02843">
        <ele>521.7</ele>
        <time>2018-05-19T12:24:37Z</time>
      </trkpt>
      <trkpt lat="44.09603" lon="3.02839">
        <ele>522</ele>
        <time>2018-05-19T12:24:38Z</time>
      </trkpt>
      <trkpt lat="44.09605" lon="3.02833">
        <ele>522.5</ele>
        <time>2018-05-19T12:24:40Z</time>
      </trkpt>
      <trkpt lat="44.09608" lon="3.02828">
        <ele>523</ele>
        <time>2018-05-19T12:24:42Z</time>
      </trkpt>
      <trkpt lat="44.09611" lon="3.02823">
        <ele>523.5</ele>
        <time>2018-05-19T12:24:44Z</time>
      </trkpt>
      <trkpt lat="44.09613" lon="3.02818">
        <ele>523.9</ele>
        <time>2018-05-19T12:24:46Z</time>
      </trkpt>
      <trkpt lat="44.09615" lon="3.02813">
        <ele>524.2</ele>
        <time>2018-05-19T12:24:48Z</time>
      </trkpt>
      <trkpt lat="44.09617" lon="3.02807">
        <ele>524.6</ele>
        <time>2018-05-19T12:24:50Z</time>
      </trkpt>
      <trkpt lat="44.09618" lon="3.02802">
        <ele>525.1</ele>
        <time>2018-05-19T12:24:52Z</time>
      </trkpt>
      <trkpt lat="44.0962" lon="3.02797">
        <ele>525.5</ele>
        <time>2018-05-19T12:24:54Z</time>
      </trkpt>
      <trkpt lat="44.09622" lon="3.02793">
        <ele>525.9</ele>
        <time>2018-05-19T12:24:56Z</time>
      </trkpt>
      <trkpt lat="44.09625" lon="3.0279">
        <ele>526.2</ele>
        <time>2018-05-19T12:24:58Z</time>
      </trkpt>
      <trkpt lat="44.09627" lon="3.02787">
        <ele>526.5</ele>
        <time>2018-05-19T12:25:00Z</time>
      </trkpt>
      <trkpt lat="44.09629" lon="3.02785">
        <ele>526.7</ele>
        <time>2018-05-19T12:25:02Z</time>
      </trkpt>
      <trkpt lat="44.09632" lon="3.02783">
        <ele>527.1</ele>
        <time>2018-05-19T12:25:04Z</time>
      </trkpt>
      <trkpt lat="44.09635" lon="3.0278">
        <ele>527.4</ele>
        <time>2018-05-19T12:25:06Z</time>
      </trkpt>
      <trkpt lat="44.09636" lon="3.02777">
        <ele>527.7</ele>
        <time>2018-05-19T12:25:08Z</time>
      </trkpt>
      <trkpt lat="44.09639" lon="3.02773">
        <ele>528.1</ele>
        <time>2018-05-19T12:25:10Z</time>
      </trkpt>
      <trkpt lat="44.09641" lon="3.02771">
        <ele>528.4</ele>
        <time>2018-05-19T12:25:12Z</time>
      </trkpt>
      <trkpt lat="44.09643" lon="3.02766">
        <ele>528.7</ele>
        <time>2018-05-19T12:25:19Z</time>
      </trkpt>
      <trkpt lat="44.09645" lon="3.02763">
        <ele>529</ele>
        <time>2018-05-19T12:25:22Z</time>
      </trkpt>
      <trkpt lat="44.09647" lon="3.02761">
        <ele>529.3</ele>
        <time>2018-05-19T12:25:26Z</time>
      </trkpt>
      <trkpt lat="44.0965" lon="3.02759">
        <ele>529.9</ele>
        <time>2018-05-19T12:25:30Z</time>
      </trkpt>
      <trkpt lat="44.09653" lon="3.02757">
        <ele>530.4</ele>
        <time>2018-05-19T12:25:33Z</time>
      </trkpt>
      <trkpt lat="44.09655" lon="3.02756">
        <ele>530.7</ele>
        <time>2018-05-19T12:25:38Z</time>
      </trkpt>
      <trkpt lat="44.09658" lon="3.02759">
        <ele>531.1</ele>
        <time>2018-05-19T12:25:48Z</time>
      </trkpt>
      <trkpt lat="44.0966" lon="3.02762">
        <ele>531.7</ele>
        <time>2018-05-19T12:25:52Z</time>
      </trkpt>
      <trkpt lat="44.09663" lon="3.02763">
        <ele>532.4</ele>
        <time>2018-05-19T12:25:56Z</time>
      </trkpt>
      <trkpt lat="44.09667" lon="3.02762">
        <ele>532.9</ele>
        <time>2018-05-19T12:25:59Z</time>
      </trkpt>
      <trkpt lat="44.0967" lon="3.02763">
        <ele>533.4</ele>
        <time>2018-05-19T12:26:05Z</time>
      </trkpt>
      <trkpt lat="44.09672" lon="3.02762">
        <ele>533.9</ele>
        <time>2018-05-19T12:26:08Z</time>
      </trkpt>
      <trkpt lat="44.09675" lon="3.02761">
        <ele>534.5</ele>
        <time>2018-05-19T12:26:12Z</time>
      </trkpt>
      <trkpt lat="44.09678" lon="3.02762">
        <ele>535.1</ele>
        <time>2018-05-19T12:26:17Z</time>
      </trkpt>
      <trkpt lat="44.09682" lon="3.02762">
        <ele>535.6</ele>
        <time>2018-05-19T12:26:21Z</time>
      </trkpt>
      <trkpt lat="44.09684" lon="3.0276">
        <ele>535.9</ele>
        <time>2018-05-19T12:26:25Z</time>
      </trkpt>
      <trkpt lat="44.09687" lon="3.02759">
        <ele>536.6</ele>
        <time>2018-05-19T12:26:29Z</time>
      </trkpt>
      <trkpt lat="44.09691" lon="3.02758">
        <ele>537.5</ele>
        <time>2018-05-19T12:26:34Z</time>
      </trkpt>
      <trkpt lat="44.09694" lon="3.02757">
        <ele>538.2</ele>
        <time>2018-05-19T12:26:37Z</time>
      </trkpt>
      <trkpt lat="44.09697" lon="3.02757">
        <ele>538.6</ele>
        <time>2018-05-19T12:26:40Z</time>
      </trkpt>
      <trkpt lat="44.097" lon="3.02758">
        <ele>539.1</ele>
        <time>2018-05-19T12:26:46Z</time>
      </trkpt>
      <trkpt lat="44.09703" lon="3.0276">
        <ele>539.6</ele>
        <time>2018-05-19T12:26:52Z</time>
      </trkpt>
      <trkpt lat="44.09706" lon="3.02759">
        <ele>540.3</ele>
        <time>2018-05-19T12:27:00Z</time>
      </trkpt>
      <trkpt lat="44.09709" lon="3.02759">
        <ele>541</ele>
        <time>2018-05-19T12:27:04Z</time>
      </trkpt>
      <trkpt lat="44.09713" lon="3.02757">
        <ele>542</ele>
        <time>2018-05-19T12:27:07Z</time>
      </trkpt>
      <trkpt lat="44.09716" lon="3.02756">
        <ele>542.9</ele>
        <time>2018-05-19T12:27:11Z</time>
      </trkpt>
      <trkpt lat="44.0972" lon="3.02756">
        <ele>543.8</ele>
        <time>2018-05-19T12:27:14Z</time>
      </trkpt>
      <trkpt lat="44.09722" lon="3.02758">
        <ele>544.4</ele>
        <time>2018-05-19T12:27:22Z</time>
      </trkpt>
      <trkpt lat="44.09725" lon="3.02759">
        <ele>545.1</ele>
        <time>2018-05-19T12:27:29Z</time>
      </trkpt>
      <trkpt lat="44.09728" lon="3.02758">
        <ele>545.4</ele>
        <time>2018-05-19T12:27:34Z</time>
      </trkpt>
      <trkpt lat="44.09731" lon="3.02757">
        <ele>545.6</ele>
        <time>2018-05-19T12:27:37Z</time>
      </trkpt>
      <trkpt lat="44.09734" lon="3.02757">
        <ele>546.3</ele>
        <time>2018-05-19T12:27:40Z</time>
      </trkpt>
      <trkpt lat="44.09737" lon="3.02755">
        <ele>547</ele>
        <time>2018-05-19T12:27:44Z</time>
      </trkpt>
      <trkpt lat="44.0974" lon="3.02754">
        <ele>547.7</ele>
        <time>2018-05-19T12:27:47Z</time>
      </trkpt>
      <trkpt lat="44.09742" lon="3.02752">
        <ele>548.4</ele>
        <time>2018-05-19T12:27:50Z</time>
      </trkpt>
      <trkpt lat="44.09746" lon="3.02751">
        <ele>549.1</ele>
        <time>2018-05-19T12:27:53Z</time>
      </trkpt>
      <trkpt lat="44.09748" lon="3.02749">
        <ele>549.7</ele>
        <time>2018-05-19T12:27:59Z</time>
      </trkpt>
      <trkpt lat="44.09751" lon="3.02751">
        <ele>550.3</ele>
        <time>2018-05-19T12:28:10Z</time>
      </trkpt>
      <trkpt lat="44.09754" lon="3.02751">
        <ele>550.9</ele>
        <time>2018-05-19T12:28:12Z</time>
      </trkpt>
      <trkpt lat="44.09757" lon="3.0275">
        <ele>551.5</ele>
        <time>2018-05-19T12:28:14Z</time>
      </trkpt>
      <trkpt lat="44.09761" lon="3.0275">
        <ele>552.5</ele>
        <time>2018-05-19T12:28:16Z</time>
      </trkpt>
      <trkpt lat="44.09765" lon="3.0275">
        <ele>553.3</ele>
        <time>2018-05-19T12:28:18Z</time>
      </trkpt>
      <trkpt lat="44.09768" lon="3.02751">
        <ele>553.9</ele>
        <time>2018-05-19T12:28:20Z</time>
      </trkpt>
      <trkpt lat="44.09771" lon="3.02752">
        <ele>554.4</ele>
        <time>2018-05-19T12:28:22Z</time>
      </trkpt>
      <trkpt lat="44.09773" lon="3.02755">
        <ele>554.8</ele>
        <time>2018-05-19T12:28:24Z</time>
      </trkpt>
      <trkpt lat="44.09777" lon="3.02757">
        <ele>555.5</ele>
        <time>2018-05-19T12:28:26Z</time>
      </trkpt>
      <trkpt lat="44.09781" lon="3.02758">
        <ele>556.3</ele>
        <time>2018-05-19T12:28:28Z</time>
      </trkpt>
      <trkpt lat="44.09784" lon="3.02759">
        <ele>556.9</ele>
        <time>2018-05-19T12:28:30Z</time>
      </trkpt>
      <trkpt lat="44.09788" lon="3.02759">
        <ele>557.4</ele>
        <time>2018-05-19T12:28:32Z</time>
      </trkpt>
      <trkpt lat="44.09791" lon="3.02758">
        <ele>557.9</ele>
        <time>2018-05-19T12:28:34Z</time>
      </trkpt>
      <trkpt lat="44.09795" lon="3.02758">
        <ele>558.3</ele>
        <time>2018-05-19T12:28:36Z</time>
      </trkpt>
      <trkpt lat="44.09797" lon="3.02757">
        <ele>558.6</ele>
        <time>2018-05-19T12:28:38Z</time>
      </trkpt>
      <trkpt lat="44.09801" lon="3.02757">
        <ele>559.1</ele>
        <time>2018-05-19T12:28:40Z</time>
      </trkpt>
      <trkpt lat="44.09804" lon="3.02757">
        <ele>559.7</ele>
        <time>2018-05-19T12:28:42Z</time>
      </trkpt>
      <trkpt lat="44.09808" lon="3.02756">
        <ele>560.2</ele>
        <time>2018-05-19T12:28:44Z</time>
      </trkpt>
      <trkpt lat="44.0981" lon="3.02756">
        <ele>560.5</ele>
        <time>2018-05-19T12:28:46Z</time>
      </trkpt>
      <trkpt lat="44.09814" lon="3.02754">
        <ele>560.9</ele>
        <time>2018-05-19T12:28:49Z</time>
      </trkpt>
      <trkpt lat="44.09817" lon="3.02754">
        <ele>561.2</ele>
        <time>2018-05-19T12:28:51Z</time>
      </trkpt>
      <trkpt lat="44.09821" lon="3.02753">
        <ele>561.5</ele>
        <time>2018-05-19T12:28:53Z</time>
      </trkpt>
      <trkpt lat="44.09825" lon="3.02752">
        <ele>561.9</ele>
        <time>2018-05-19T12:28:55Z</time>
      </trkpt>
      <trkpt lat="44.09828" lon="3.02751">
        <ele>562.4</ele>
        <time>2018-05-19T12:28:57Z</time>
      </trkpt>
      <trkpt lat="44.09831" lon="3.0275">
        <ele>562.8</ele>
        <time>2018-05-19T12:28:59Z</time>
      </trkpt>
      <trkpt lat="44.09833" lon="3.02749">
        <ele>563</ele>
        <time>2018-05-19T12:29:01Z</time>
      </trkpt>
      <trkpt lat="44.09836" lon="3.02747">
        <ele>563.3</ele>
        <time>2018-05-19T12:29:03Z</time>
      </trkpt>
      <trkpt lat="44.0984" lon="3.02746">
        <ele>563.7</ele>
        <time>2018-05-19T12:29:05Z</time>
      </trkpt>
      <trkpt lat="44.09843" lon="3.02744">
        <ele>564.2</ele>
        <time>2018-05-19T12:29:07Z</time>
      </trkpt>
      <trkpt lat="44.09846" lon="3.02743">
        <ele>564.6</ele>
        <time>2018-05-19T12:29:09Z</time>
      </trkpt>
      <trkpt lat="44.09849" lon="3.02742">
        <ele>564.9</ele>
        <time>2018-05-19T12:29:11Z</time>
      </trkpt>
      <trkpt lat="44.09852" lon="3.02742">
        <ele>565.2</ele>
        <time>2018-05-19T12:29:13Z</time>
      </trkpt>
      <trkpt lat="44.09855" lon="3.02742">
        <ele>565.5</ele>
        <time>2018-05-19T12:29:15Z</time>
      </trkpt>
      <trkpt lat="44.09858" lon="3.02742">
        <ele>565.9</ele>
        <time>2018-05-19T12:29:17Z</time>
      </trkpt>
      <trkpt lat="44.09861" lon="3.02742">
        <ele>566.2</ele>
        <time>2018-05-19T12:29:19Z</time>
      </trkpt>
      <trkpt lat="44.09866" lon="3.02743">
        <ele>566.6</ele>
        <time>2018-05-19T12:29:22Z</time>
      </trkpt>
      <trkpt lat="44.09869" lon="3.02744">
        <ele>567</ele>
        <time>2018-05-19T12:29:24Z</time>
      </trkpt>
      <trkpt lat="44.09873" lon="3.02744">
        <ele>567.4</ele>
        <time>2018-05-19T12:29:26Z</time>
      </trkpt>
      <trkpt lat="44.09877" lon="3.02745">
        <ele>567.7</ele>
        <time>2018-05-19T12:29:28Z</time>
      </trkpt>
      <trkpt lat="44.0988" lon="3.02746">
        <ele>567.9</ele>
        <time>2018-05-19T12:29:30Z</time>
      </trkpt>
      <trkpt lat="44.09883" lon="3.02748">
        <ele>568.2</ele>
        <time>2018-05-19T12:29:32Z</time>
      </trkpt>
      <trkpt lat="44.09886" lon="3.0275">
        <ele>568.4</ele>
        <time>2018-05-19T12:29:34Z</time>
      </trkpt>
      <trkpt lat="44.09889" lon="3.0275">
        <ele>568.7</ele>
        <time>2018-05-19T12:29:36Z</time>
      </trkpt>
      <trkpt lat="44.09892" lon="3.02752">
        <ele>569</ele>
        <time>2018-05-19T12:29:38Z</time>
      </trkpt>
      <trkpt lat="44.09895" lon="3.02753">
        <ele>569.2</ele>
        <time>2018-05-19T12:29:40Z</time>
      </trkpt>
      <trkpt lat="44.09898" lon="3.02754">
        <ele>569.4</ele>
        <time>2018-05-19T12:29:42Z</time>
      </trkpt>
      <trkpt lat="44.09901" lon="3.02756">
        <ele>569.6</ele>
        <time>2018-05-19T12:29:44Z</time>
      </trkpt>
      <trkpt lat="44.09903" lon="3.02758">
        <ele>569.8</ele>
        <time>2018-05-19T12:29:46Z</time>
      </trkpt>
      <trkpt lat="44.09906" lon="3.0276">
        <ele>570</ele>
        <time>2018-05-19T12:29:48Z</time>
      </trkpt>
      <trkpt lat="44.09909" lon="3.02763">
        <ele>570.1</ele>
        <time>2018-05-19T12:29:50Z</time>
      </trkpt>
      <trkpt lat="44.09912" lon="3.02764">
        <ele>570.3</ele>
        <time>2018-05-19T12:29:52Z</time>
      </trkpt>
      <trkpt lat="44.09915" lon="3.02766">
        <ele>570.6</ele>
        <time>2018-05-19T12:29:54Z</time>
      </trkpt>
      <trkpt lat="44.09918" lon="3.02767">
        <ele>570.8</ele>
        <time>2018-05-19T12:29:56Z</time>
      </trkpt>
      <trkpt lat="44.09921" lon="3.02769">
        <ele>571</ele>
        <time>2018-05-19T12:29:58Z</time>
      </trkpt>
      <trkpt lat="44.09924" lon="3.0277">
        <ele>571.1</ele>
        <time>2018-05-19T12:30:00Z</time>
      </trkpt>
      <trkpt lat="44.09927" lon="3.02772">
        <ele>571.2</ele>
        <time>2018-05-19T12:30:02Z</time>
      </trkpt>
      <trkpt lat="44.0993" lon="3.02772">
        <ele>571.3</ele>
        <time>2018-05-19T12:30:05Z</time>
      </trkpt>
      <trkpt lat="44.09933" lon="3.02772">
        <ele>571.3</ele>
        <time>2018-05-19T12:30:09Z</time>
      </trkpt>
      <trkpt lat="44.09936" lon="3.02773">
        <ele>571.4</ele>
        <time>2018-05-19T12:30:24Z</time>
      </trkpt>
      <trkpt lat="44.0994" lon="3.02777">
        <ele>571.6</ele>
        <time>2018-05-19T12:34:03Z</time>
      </trkpt>
      <trkpt lat="44.09944" lon="3.02779">
        <ele>571.7</ele>
        <time>2018-05-19T12:34:06Z</time>
      </trkpt>
      <trkpt lat="44.09948" lon="3.0278">
        <ele>571.9</ele>
        <time>2018-05-19T12:34:08Z</time>
      </trkpt>
      <trkpt lat="44.09953" lon="3.02781">
        <ele>571.8</ele>
        <time>2018-05-19T12:34:11Z</time>
      </trkpt>
      <trkpt lat="44.09956" lon="3.02783">
        <ele>571.6</ele>
        <time>2018-05-19T12:34:12Z</time>
      </trkpt>
      <trkpt lat="44.09963" lon="3.02787">
        <ele>570.9</ele>
        <time>2018-05-19T12:34:13Z</time>
      </trkpt>
      <trkpt lat="44.09969" lon="3.02789">
        <ele>570.4</ele>
        <time>2018-05-19T12:34:14Z</time>
      </trkpt>
      <trkpt lat="44.09974" lon="3.02792">
        <ele>569.9</ele>
        <time>2018-05-19T12:34:15Z</time>
      </trkpt>
      <trkpt lat="44.09978" lon="3.02793">
        <ele>569.7</ele>
        <time>2018-05-19T12:34:16Z</time>
      </trkpt>
      <trkpt lat="44.09983" lon="3.02795">
        <ele>569.4</ele>
        <time>2018-05-19T12:34:17Z</time>
      </trkpt>
      <trkpt lat="44.09987" lon="3.02797">
        <ele>569.3</ele>
        <time>2018-05-19T12:34:18Z</time>
      </trkpt>
      <trkpt lat="44.09991" lon="3.02799">
        <ele>569.1</ele>
        <time>2018-05-19T12:34:19Z</time>
      </trkpt>
      <trkpt lat="44.09995" lon="3.028">
        <ele>569.1</ele>
        <time>2018-05-19T12:34:20Z</time>
      </trkpt>
      <trkpt lat="44.09998" lon="3.02801">
        <ele>569</ele>
        <time>2018-05-19T12:34:21Z</time>
      </trkpt>
      <trkpt lat="44.10001" lon="3.02804">
        <ele>568.9</ele>
        <time>2018-05-19T12:34:22Z</time>
      </trkpt>
      <trkpt lat="44.10005" lon="3.02806">
        <ele>568.9</ele>
        <time>2018-05-19T12:34:23Z</time>
      </trkpt>
      <trkpt lat="44.10008" lon="3.02807">
        <ele>568.9</ele>
        <time>2018-05-19T12:34:24Z</time>
      </trkpt>
      <trkpt lat="44.1001" lon="3.02809">
        <ele>568.9</ele>
        <time>2018-05-19T12:34:25Z</time>
      </trkpt>
      <trkpt lat="44.10017" lon="3.02812">
        <ele>568.9</ele>
        <time>2018-05-19T12:34:26Z</time>
      </trkpt>
      <trkpt lat="44.10021" lon="3.02813">
        <ele>568.9</ele>
        <time>2018-05-19T12:34:27Z</time>
      </trkpt>
      <trkpt lat="44.10024" lon="3.02814">
        <ele>568.9</ele>
        <time>2018-05-19T12:34:28Z</time>
      </trkpt>
      <trkpt lat="44.10028" lon="3.02814">
        <ele>568.8</ele>
        <time>2018-05-19T12:34:29Z</time>
      </trkpt>
      <trkpt lat="44.10032" lon="3.02815">
        <ele>568.8</ele>
        <time>2018-05-19T12:34:30Z</time>
      </trkpt>
      <trkpt lat="44.1004" lon="3.02814">
        <ele>568.5</ele>
        <time>2018-05-19T12:34:31Z</time>
      </trkpt>
      <trkpt lat="44.10045" lon="3.02815">
        <ele>568.2</ele>
        <time>2018-05-19T12:34:32Z</time>
      </trkpt>
      <trkpt lat="44.10051" lon="3.02817">
        <ele>568</ele>
        <time>2018-05-19T12:34:33Z</time>
      </trkpt>
      <trkpt lat="44.1006" lon="3.02818">
        <ele>567.7</ele>
        <time>2018-05-19T12:34:34Z</time>
      </trkpt>
      <trkpt lat="44.10068" lon="3.02819">
        <ele>567.4</ele>
        <time>2018-05-19T12:34:35Z</time>
      </trkpt>
      <trkpt lat="44.10071" lon="3.02821">
        <ele>567.4</ele>
        <time>2018-05-19T12:34:36Z</time>
      </trkpt>
      <trkpt lat="44.10078" lon="3.02824">
        <ele>567.3</ele>
        <time>2018-05-19T12:34:37Z</time>
      </trkpt>
      <trkpt lat="44.10084" lon="3.02826">
        <ele>567.3</ele>
        <time>2018-05-19T12:34:38Z</time>
      </trkpt>
      <trkpt lat="44.1009" lon="3.02829">
        <ele>567.3</ele>
        <time>2018-05-19T12:34:39Z</time>
      </trkpt>
      <trkpt lat="44.10095" lon="3.0283">
        <ele>567.3</ele>
        <time>2018-05-19T12:34:40Z</time>
      </trkpt>
      <trkpt lat="44.10101" lon="3.02831">
        <ele>567.4</ele>
        <time>2018-05-19T12:34:41Z</time>
      </trkpt>
      <trkpt lat="44.10105" lon="3.02832">
        <ele>567.4</ele>
        <time>2018-05-19T12:34:42Z</time>
      </trkpt>
      <trkpt lat="44.10111" lon="3.02832">
        <ele>567.5</ele>
        <time>2018-05-19T12:34:43Z</time>
      </trkpt>
      <trkpt lat="44.10116" lon="3.02832">
        <ele>567.6</ele>
        <time>2018-05-19T12:34:44Z</time>
      </trkpt>
      <trkpt lat="44.1012" lon="3.02833">
        <ele>567.7</ele>
        <time>2018-05-19T12:34:45Z</time>
      </trkpt>
      <trkpt lat="44.10124" lon="3.02833">
        <ele>567.9</ele>
        <time>2018-05-19T12:34:46Z</time>
      </trkpt>
      <trkpt lat="44.10128" lon="3.02833">
        <ele>568</ele>
        <time>2018-05-19T12:34:47Z</time>
      </trkpt>
      <trkpt lat="44.10131" lon="3.02832">
        <ele>568.2</ele>
        <time>2018-05-19T12:34:48Z</time>
      </trkpt>
      <trkpt lat="44.10135" lon="3.02832">
        <ele>568.3</ele>
        <time>2018-05-19T12:34:49Z</time>
      </trkpt>
      <trkpt lat="44.10141" lon="3.02831">
        <ele>568.4</ele>
        <time>2018-05-19T12:34:50Z</time>
      </trkpt>
      <trkpt lat="44.10147" lon="3.0283">
        <ele>568.5</ele>
        <time>2018-05-19T12:34:51Z</time>
      </trkpt>
      <trkpt lat="44.10152" lon="3.0283">
        <ele>568.5</ele>
        <time>2018-05-19T12:34:52Z</time>
      </trkpt>
      <trkpt lat="44.10155" lon="3.02831">
        <ele>568.4</ele>
        <time>2018-05-19T12:34:53Z</time>
      </trkpt>
      <trkpt lat="44.10159" lon="3.02832">
        <ele>568.4</ele>
        <time>2018-05-19T12:34:54Z</time>
      </trkpt>
      <trkpt lat="44.10163" lon="3.02833">
        <ele>568.3</ele>
        <time>2018-05-19T12:34:55Z</time>
      </trkpt>
      <trkpt lat="44.10167" lon="3.02833">
        <ele>568.2</ele>
        <time>2018-05-19T12:34:56Z</time>
      </trkpt>
      <trkpt lat="44.10171" lon="3.02834">
        <ele>568.1</ele>
        <time>2018-05-19T12:34:57Z</time>
      </trkpt>
      <trkpt lat="44.10175" lon="3.02835">
        <ele>568.1</ele>
        <time>2018-05-19T12:34:58Z</time>
      </trkpt>
      <trkpt lat="44.1018" lon="3.02837">
        <ele>568</ele>
        <time>2018-05-19T12:34:59Z</time>
      </trkpt>
      <trkpt lat="44.10184" lon="3.02838">
        <ele>567.8</ele>
        <time>2018-05-19T12:35:00Z</time>
      </trkpt>
      <trkpt lat="44.10188" lon="3.0284">
        <ele>567.7</ele>
        <time>2018-05-19T12:35:01Z</time>
      </trkpt>
      <trkpt lat="44.10192" lon="3.02843">
        <ele>567.5</ele>
        <time>2018-05-19T12:35:02Z</time>
      </trkpt>
      <trkpt lat="44.10201" lon="3.02849">
        <ele>567.1</ele>
        <time>2018-05-19T12:35:03Z</time>
      </trkpt>
      <trkpt lat="44.10206" lon="3.0285">
        <ele>566.9</ele>
        <time>2018-05-19T12:35:04Z</time>
      </trkpt>
      <trkpt lat="44.1021" lon="3.02853">
        <ele>566.9</ele>
        <time>2018-05-19T12:35:05Z</time>
      </trkpt>
      <trkpt lat="44.10215" lon="3.02859">
        <ele>566.9</ele>
        <time>2018-05-19T12:35:06Z</time>
      </trkpt>
      <trkpt lat="44.10223" lon="3.02864">
        <ele>567.1</ele>
        <time>2018-05-19T12:35:07Z</time>
      </trkpt>
      <trkpt lat="44.10227" lon="3.02873">
        <ele>567.5</ele>
        <time>2018-05-19T12:35:08Z</time>
      </trkpt>
      <trkpt lat="44.10232" lon="3.0288">
        <ele>567.8</ele>
        <time>2018-05-19T12:35:09Z</time>
      </trkpt>
      <trkpt lat="44.10236" lon="3.02885">
        <ele>568</ele>
        <time>2018-05-19T12:35:10Z</time>
      </trkpt>
      <trkpt lat="44.10239" lon="3.02889">
        <ele>568.2</ele>
        <time>2018-05-19T12:35:11Z</time>
      </trkpt>
      <trkpt lat="44.1024" lon="3.02896">
        <ele>568.4</ele>
        <time>2018-05-19T12:35:12Z</time>
      </trkpt>
      <trkpt lat="44.10245" lon="3.02901">
        <ele>568.5</ele>
        <time>2018-05-19T12:35:13Z</time>
      </trkpt>
      <trkpt lat="44.10247" lon="3.02906">
        <ele>568.6</ele>
        <time>2018-05-19T12:35:14Z</time>
      </trkpt>
      <trkpt lat="44.10251" lon="3.02911">
        <ele>568.7</ele>
        <time>2018-05-19T12:35:15Z</time>
      </trkpt>
      <trkpt lat="44.10253" lon="3.02915">
        <ele>568.8</ele>
        <time>2018-05-19T12:35:16Z</time>
      </trkpt>
      <trkpt lat="44.10256" lon="3.02921">
        <ele>568.9</ele>
        <time>2018-05-19T12:35:17Z</time>
      </trkpt>
      <trkpt lat="44.10258" lon="3.02926">
        <ele>569.1</ele>
        <time>2018-05-19T12:35:18Z</time>
      </trkpt>
      <trkpt lat="44.1026" lon="3.02929">
        <ele>569.3</ele>
        <time>2018-05-19T12:35:19Z</time>
      </trkpt>
      <trkpt lat="44.10265" lon="3.02931">
        <ele>569.7</ele>
        <time>2018-05-19T12:35:21Z</time>
      </trkpt>
      <trkpt lat="44.10268" lon="3.02935">
        <ele>570.2</ele>
        <time>2018-05-19T12:35:23Z</time>
      </trkpt>
      <trkpt lat="44.10271" lon="3.02943">
        <ele>571.1</ele>
        <time>2018-05-19T12:35:25Z</time>
      </trkpt>
      <trkpt lat="44.10272" lon="3.02948">
        <ele>571.7</ele>
        <time>2018-05-19T12:35:26Z</time>
      </trkpt>
      <trkpt lat="44.10273" lon="3.02954">
        <ele>572.3</ele>
        <time>2018-05-19T12:35:27Z</time>
      </trkpt>
      <trkpt lat="44.10271" lon="3.02959">
        <ele>571.9</ele>
        <time>2018-05-19T12:35:29Z</time>
      </trkpt>
      <trkpt lat="44.10269" lon="3.02962">
        <ele>572</ele>
        <time>2018-05-19T12:35:35Z</time>
      </trkpt>
      <trkpt lat="44.1027" lon="3.02966">
        <ele>572.1</ele>
        <time>2018-05-19T12:35:43Z</time>
      </trkpt>
      <trkpt lat="44.10267" lon="3.02968">
        <ele>571.7</ele>
        <time>2018-05-19T12:35:52Z</time>
      </trkpt>
      <trkpt lat="44.10263" lon="3.02972">
        <ele>571.4</ele>
        <time>2018-05-19T12:35:54Z</time>
      </trkpt>
      <trkpt lat="44.10259" lon="3.02974">
        <ele>570.9</ele>
        <time>2018-05-19T12:35:56Z</time>
      </trkpt>
      <trkpt lat="44.10254" lon="3.02977">
        <ele>570.5</ele>
        <time>2018-05-19T12:35:58Z</time>
      </trkpt>
      <trkpt lat="44.10251" lon="3.02979">
        <ele>570.2</ele>
        <time>2018-05-19T12:35:59Z</time>
      </trkpt>
      <trkpt lat="44.10249" lon="3.02981">
        <ele>569.9</ele>
        <time>2018-05-19T12:36:00Z</time>
      </trkpt>
      <trkpt lat="44.10246" lon="3.02983">
        <ele>569.6</ele>
        <time>2018-05-19T12:36:01Z</time>
      </trkpt>
      <trkpt lat="44.10243" lon="3.02984">
        <ele>569.3</ele>
        <time>2018-05-19T12:36:02Z</time>
      </trkpt>
      <trkpt lat="44.10241" lon="3.02986">
        <ele>569</ele>
        <time>2018-05-19T12:36:03Z</time>
      </trkpt>
      <trkpt lat="44.10239" lon="3.02988">
        <ele>569.1</ele>
        <time>2018-05-19T12:36:04Z</time>
      </trkpt>
      <trkpt lat="44.10234" lon="3.02991">
        <ele>568.7</ele>
        <time>2018-05-19T12:36:06Z</time>
      </trkpt>
      <trkpt lat="44.10231" lon="3.02995">
        <ele>568.4</ele>
        <time>2018-05-19T12:36:08Z</time>
      </trkpt>
      <trkpt lat="44.10229" lon="3.02998">
        <ele>568.6</ele>
        <time>2018-05-19T12:36:10Z</time>
      </trkpt>
      <trkpt lat="44.10225" lon="3.03001">
        <ele>568.2</ele>
        <time>2018-05-19T12:36:12Z</time>
      </trkpt>
      <trkpt lat="44.10221" lon="3.03004">
        <ele>567.9</ele>
        <time>2018-05-19T12:36:14Z</time>
      </trkpt>
      <trkpt lat="44.10218" lon="3.03006">
        <ele>567.9</ele>
        <time>2018-05-19T12:36:16Z</time>
      </trkpt>
      <trkpt lat="44.10213" lon="3.03011">
        <ele>568</ele>
        <time>2018-05-19T12:36:18Z</time>
      </trkpt>
      <trkpt lat="44.10209" lon="3.03015">
        <ele>567.8</ele>
        <time>2018-05-19T12:36:20Z</time>
      </trkpt>
      <trkpt lat="44.10207" lon="3.03017">
        <ele>567.8</ele>
        <time>2018-05-19T12:36:21Z</time>
      </trkpt>
      <trkpt lat="44.10205" lon="3.0302">
        <ele>567.8</ele>
        <time>2018-05-19T12:36:22Z</time>
      </trkpt>
      <trkpt lat="44.10201" lon="3.03024">
        <ele>567.5</ele>
        <time>2018-05-19T12:36:24Z</time>
      </trkpt>
      <trkpt lat="44.10198" lon="3.03027">
        <ele>567.7</ele>
        <time>2018-05-19T12:36:25Z</time>
      </trkpt>
      <trkpt lat="44.10196" lon="3.03029">
        <ele>567.4</ele>
        <time>2018-05-19T12:36:26Z</time>
      </trkpt>
      <trkpt lat="44.10194" lon="3.03032">
        <ele>567.3</ele>
        <time>2018-05-19T12:36:27Z</time>
      </trkpt>
      <trkpt lat="44.10191" lon="3.03034">
        <ele>567.3</ele>
        <time>2018-05-19T12:36:28Z</time>
      </trkpt>
      <trkpt lat="44.10189" lon="3.03037">
        <ele>567.3</ele>
        <time>2018-05-19T12:36:29Z</time>
      </trkpt>
      <trkpt lat="44.10186" lon="3.03039">
        <ele>567.3</ele>
        <time>2018-05-19T12:36:30Z</time>
      </trkpt>
      <trkpt lat="44.10184" lon="3.03041">
        <ele>567.1</ele>
        <time>2018-05-19T12:36:31Z</time>
      </trkpt>
      <trkpt lat="44.10181" lon="3.03044">
        <ele>567.3</ele>
        <time>2018-05-19T12:36:32Z</time>
      </trkpt>
      <trkpt lat="44.10179" lon="3.03046">
        <ele>567.2</ele>
        <time>2018-05-19T12:36:33Z</time>
      </trkpt>
      <trkpt lat="44.10177" lon="3.03048">
        <ele>567.5</ele>
        <time>2018-05-19T12:36:34Z</time>
      </trkpt>
      <trkpt lat="44.10174" lon="3.0305">
        <ele>567.4</ele>
        <time>2018-05-19T12:36:35Z</time>
      </trkpt>
      <trkpt lat="44.10172" lon="3.03051">
        <ele>567.4</ele>
        <time>2018-05-19T12:36:36Z</time>
      </trkpt>
      <trkpt lat="44.10168" lon="3.03051">
        <ele>567.7</ele>
        <time>2018-05-19T12:36:37Z</time>
      </trkpt>
      <trkpt lat="44.10165" lon="3.03051">
        <ele>567.7</ele>
        <time>2018-05-19T12:36:38Z</time>
      </trkpt>
      <trkpt lat="44.10162" lon="3.03051">
        <ele>567.6</ele>
        <time>2018-05-19T12:36:39Z</time>
      </trkpt>
      <trkpt lat="44.10157" lon="3.03051">
        <ele>567.5</ele>
        <time>2018-05-19T12:36:41Z</time>
      </trkpt>
      <trkpt lat="44.10153" lon="3.03051">
        <ele>567.5</ele>
        <time>2018-05-19T12:36:42Z</time>
      </trkpt>
      <trkpt lat="44.10149" lon="3.03052">
        <ele>567.4</ele>
        <time>2018-05-19T12:36:43Z</time>
      </trkpt>
      <trkpt lat="44.10145" lon="3.03051">
        <ele>567.2</ele>
        <time>2018-05-19T12:36:44Z</time>
      </trkpt>
      <trkpt lat="44.10141" lon="3.03051">
        <ele>567.1</ele>
        <time>2018-05-19T12:36:45Z</time>
      </trkpt>
      <trkpt lat="44.10137" lon="3.0305">
        <ele>566.5</ele>
        <time>2018-05-19T12:36:46Z</time>
      </trkpt>
      <trkpt lat="44.10133" lon="3.03049">
        <ele>566.2</ele>
        <time>2018-05-19T12:36:47Z</time>
      </trkpt>
      <trkpt lat="44.10129" lon="3.03047">
        <ele>566.1</ele>
        <time>2018-05-19T12:36:48Z</time>
      </trkpt>
      <trkpt lat="44.10125" lon="3.03045">
        <ele>565.7</ele>
        <time>2018-05-19T12:36:49Z</time>
      </trkpt>
      <trkpt lat="44.1012" lon="3.03044">
        <ele>565.5</ele>
        <time>2018-05-19T12:36:50Z</time>
      </trkpt>
      <trkpt lat="44.10115" lon="3.0304">
        <ele>565</ele>
        <time>2018-05-19T12:36:51Z</time>
      </trkpt>
      <trkpt lat="44.10111" lon="3.03037">
        <ele>564.4</ele>
        <time>2018-05-19T12:36:52Z</time>
      </trkpt>
      <trkpt lat="44.10108" lon="3.03035">
        <ele>564.2</ele>
        <time>2018-05-19T12:36:53Z</time>
      </trkpt>
      <trkpt lat="44.10103" lon="3.03034">
        <ele>564.1</ele>
        <time>2018-05-19T12:36:54Z</time>
      </trkpt>
      <trkpt lat="44.10097" lon="3.03035">
        <ele>563.8</ele>
        <time>2018-05-19T12:36:55Z</time>
      </trkpt>
      <trkpt lat="44.10092" lon="3.03037">
        <ele>563.5</ele>
        <time>2018-05-19T12:36:56Z</time>
      </trkpt>
      <trkpt lat="44.10086" lon="3.03041">
        <ele>563.6</ele>
        <time>2018-05-19T12:36:57Z</time>
      </trkpt>
      <trkpt lat="44.10082" lon="3.03044">
        <ele>563.8</ele>
        <time>2018-05-19T12:36:58Z</time>
      </trkpt>
      <trkpt lat="44.10077" lon="3.03046">
        <ele>563.5</ele>
        <time>2018-05-19T12:36:59Z</time>
      </trkpt>
      <trkpt lat="44.10075" lon="3.03047">
        <ele>563.9</ele>
        <time>2018-05-19T12:37:00Z</time>
      </trkpt>
      <trkpt lat="44.10069" lon="3.03047">
        <ele>563.6</ele>
        <time>2018-05-19T12:37:01Z</time>
      </trkpt>
      <trkpt lat="44.10062" lon="3.03049">
        <ele>563.1</ele>
        <time>2018-05-19T12:37:03Z</time>
      </trkpt>
      <trkpt lat="44.10057" lon="3.03049">
        <ele>562.9</ele>
        <time>2018-05-19T12:37:04Z</time>
      </trkpt>
      <trkpt lat="44.10051" lon="3.03051">
        <ele>562.5</ele>
        <time>2018-05-19T12:37:05Z</time>
      </trkpt>
      <trkpt lat="44.10047" lon="3.03052">
        <ele>562.6</ele>
        <time>2018-05-19T12:37:06Z</time>
      </trkpt>
      <trkpt lat="44.10042" lon="3.03054">
        <ele>562.4</ele>
        <time>2018-05-19T12:37:07Z</time>
      </trkpt>
      <trkpt lat="44.10038" lon="3.03057">
        <ele>562.7</ele>
        <time>2018-05-19T12:37:08Z</time>
      </trkpt>
      <trkpt lat="44.10034" lon="3.03063">
        <ele>562.5</ele>
        <time>2018-05-19T12:37:09Z</time>
      </trkpt>
      <trkpt lat="44.10029" lon="3.03068">
        <ele>562.4</ele>
        <time>2018-05-19T12:37:10Z</time>
      </trkpt>
      <trkpt lat="44.1002" lon="3.03075">
        <ele>561.6</ele>
        <time>2018-05-19T12:37:11Z</time>
      </trkpt>
      <trkpt lat="44.10015" lon="3.0308">
        <ele>561</ele>
        <time>2018-05-19T12:37:12Z</time>
      </trkpt>
      <trkpt lat="44.1001" lon="3.03086">
        <ele>560.6</ele>
        <time>2018-05-19T12:37:13Z</time>
      </trkpt>
      <trkpt lat="44.10004" lon="3.03093">
        <ele>560.4</ele>
        <time>2018-05-19T12:37:14Z</time>
      </trkpt>
      <trkpt lat="44.09998" lon="3.03099">
        <ele>560.2</ele>
        <time>2018-05-19T12:37:15Z</time>
      </trkpt>
      <trkpt lat="44.09991" lon="3.03104">
        <ele>559.8</ele>
        <time>2018-05-19T12:37:16Z</time>
      </trkpt>
      <trkpt lat="44.09984" lon="3.03108">
        <ele>559.2</ele>
        <time>2018-05-19T12:37:17Z</time>
      </trkpt>
      <trkpt lat="44.09979" lon="3.03111">
        <ele>558.6</ele>
        <time>2018-05-19T12:37:18Z</time>
      </trkpt>
      <trkpt lat="44.09973" lon="3.03114">
        <ele>558.3</ele>
        <time>2018-05-19T12:37:19Z</time>
      </trkpt>
      <trkpt lat="44.09968" lon="3.03116">
        <ele>558.2</ele>
        <time>2018-05-19T12:37:20Z</time>
      </trkpt>
      <trkpt lat="44.09965" lon="3.0312">
        <ele>558</ele>
        <time>2018-05-19T12:37:21Z</time>
      </trkpt>
      <trkpt lat="44.09961" lon="3.03123">
        <ele>557.8</ele>
        <time>2018-05-19T12:37:23Z</time>
      </trkpt>
      <trkpt lat="44.09959" lon="3.03123">
        <ele>557.5</ele>
        <time>2018-05-19T12:38:15Z</time>
      </trkpt>
      <trkpt lat="44.09956" lon="3.03123">
        <ele>557.3</ele>
        <time>2018-05-19T12:38:21Z</time>
      </trkpt>
      <trkpt lat="44.09952" lon="3.03126">
        <ele>557.2</ele>
        <time>2018-05-19T12:38:24Z</time>
      </trkpt>
      <trkpt lat="44.09951" lon="3.0313">
        <ele>557.1</ele>
        <time>2018-05-19T12:38:27Z</time>
      </trkpt>
      <trkpt lat="44.0995" lon="3.03136">
        <ele>557.2</ele>
        <time>2018-05-19T12:38:30Z</time>
      </trkpt>
      <trkpt lat="44.09952" lon="3.0314">
        <ele>557.6</ele>
        <time>2018-05-19T12:38:32Z</time>
      </trkpt>
      <trkpt lat="44.09955" lon="3.03141">
        <ele>557.8</ele>
        <time>2018-05-19T12:38:34Z</time>
      </trkpt>
      <trkpt lat="44.09957" lon="3.03138">
        <ele>557.8</ele>
        <time>2018-05-19T12:38:36Z</time>
      </trkpt>
      <trkpt lat="44.09959" lon="3.03133">
        <ele>557.9</ele>
        <time>2018-05-19T12:38:38Z</time>
      </trkpt>
      <trkpt lat="44.09959" lon="3.03127">
        <ele>557.7</ele>
        <time>2018-05-19T12:38:40Z</time>
      </trkpt>
      <trkpt lat="44.0996" lon="3.03122">
        <ele>557.5</ele>
        <time>2018-05-19T12:38:42Z</time>
      </trkpt>
      <trkpt lat="44.09963" lon="3.03117">
        <ele>557.6</ele>
        <time>2018-05-19T12:38:44Z</time>
      </trkpt>
      <trkpt lat="44.09966" lon="3.03115">
        <ele>557.7</ele>
        <time>2018-05-19T12:38:46Z</time>
      </trkpt>
      <trkpt lat="44.09971" lon="3.03113">
        <ele>558.3</ele>
        <time>2018-05-19T12:38:48Z</time>
      </trkpt>
      <trkpt lat="44.09975" lon="3.03112">
        <ele>558.6</ele>
        <time>2018-05-19T12:38:50Z</time>
      </trkpt>
      <trkpt lat="44.09979" lon="3.0311">
        <ele>558.6</ele>
        <time>2018-05-19T12:38:52Z</time>
      </trkpt>
      <trkpt lat="44.09981" lon="3.03108">
        <ele>558.9</ele>
        <time>2018-05-19T12:38:54Z</time>
      </trkpt>
      <trkpt lat="44.09984" lon="3.03107">
        <ele>559</ele>
        <time>2018-05-19T12:38:56Z</time>
      </trkpt>
      <trkpt lat="44.09988" lon="3.03106">
        <ele>559.2</ele>
        <time>2018-05-19T12:38:59Z</time>
      </trkpt>
      <trkpt lat="44.0999" lon="3.03107">
        <ele>559.8</ele>
        <time>2018-05-19T12:39:02Z</time>
      </trkpt>
      <trkpt lat="44.09989" lon="3.03111">
        <ele>560</ele>
        <time>2018-05-19T12:39:05Z</time>
      </trkpt>
      <trkpt lat="44.09986" lon="3.03112">
        <ele>559.7</ele>
        <time>2018-05-19T12:39:07Z</time>
      </trkpt>
      <trkpt lat="44.09981" lon="3.03114">
        <ele>559.1</ele>
        <time>2018-05-19T12:39:09Z</time>
      </trkpt>
      <trkpt lat="44.09978" lon="3.03116">
        <ele>559</ele>
        <time>2018-05-19T12:39:10Z</time>
      </trkpt>
      <trkpt lat="44.09974" lon="3.03119">
        <ele>558.7</ele>
        <time>2018-05-19T12:39:11Z</time>
      </trkpt>
      <trkpt lat="44.09971" lon="3.03122">
        <ele>558.6</ele>
        <time>2018-05-19T12:39:12Z</time>
      </trkpt>
      <trkpt lat="44.09965" lon="3.03126">
        <ele>558.2</ele>
        <time>2018-05-19T12:39:13Z</time>
      </trkpt>
      <trkpt lat="44.0996" lon="3.0313">
        <ele>557.8</ele>
        <time>2018-05-19T12:39:14Z</time>
      </trkpt>
      <trkpt lat="44.09955" lon="3.03133">
        <ele>557.7</ele>
        <time>2018-05-19T12:39:15Z</time>
      </trkpt>
      <trkpt lat="44.0995" lon="3.03137">
        <ele>557.4</ele>
        <time>2018-05-19T12:39:16Z</time>
      </trkpt>
      <trkpt lat="44.09946" lon="3.0314">
        <ele>557.1</ele>
        <time>2018-05-19T12:39:17Z</time>
      </trkpt>
      <trkpt lat="44.09942" lon="3.0314">
        <ele>556.7</ele>
        <time>2018-05-19T12:39:18Z</time>
      </trkpt>
      <trkpt lat="44.0994" lon="3.03138">
        <ele>556.4</ele>
        <time>2018-05-19T12:39:24Z</time>
      </trkpt>
      <trkpt lat="44.09935" lon="3.03142">
        <ele>555.9</ele>
        <time>2018-05-19T12:41:00Z</time>
      </trkpt>
      <trkpt lat="44.09932" lon="3.03141">
        <ele>555.7</ele>
        <time>2018-05-19T12:41:58Z</time>
      </trkpt>
      <trkpt lat="44.09929" lon="3.03145">
        <ele>555.4</ele>
        <time>2018-05-19T12:42:00Z</time>
      </trkpt>
      <trkpt lat="44.09925" lon="3.0315">
        <ele>555.3</ele>
        <time>2018-05-19T12:42:02Z</time>
      </trkpt>
      <trkpt lat="44.09922" lon="3.03153">
        <ele>554.9</ele>
        <time>2018-05-19T12:42:03Z</time>
      </trkpt>
      <trkpt lat="44.09919" lon="3.03157">
        <ele>554.5</ele>
        <time>2018-05-19T12:42:04Z</time>
      </trkpt>
      <trkpt lat="44.09914" lon="3.03159">
        <ele>553.7</ele>
        <time>2018-05-19T12:42:05Z</time>
      </trkpt>
      <trkpt lat="44.09909" lon="3.03162">
        <ele>553.3</ele>
        <time>2018-05-19T12:42:06Z</time>
      </trkpt>
      <trkpt lat="44.09903" lon="3.03164">
        <ele>552.5</ele>
        <time>2018-05-19T12:42:07Z</time>
      </trkpt>
      <trkpt lat="44.09897" lon="3.03164">
        <ele>551.6</ele>
        <time>2018-05-19T12:42:08Z</time>
      </trkpt>
      <trkpt lat="44.09889" lon="3.03163">
        <ele>550.1</ele>
        <time>2018-05-19T12:42:09Z</time>
      </trkpt>
      <trkpt lat="44.09881" lon="3.03162">
        <ele>548.8</ele>
        <time>2018-05-19T12:42:10Z</time>
      </trkpt>
      <trkpt lat="44.09874" lon="3.03164">
        <ele>547.2</ele>
        <time>2018-05-19T12:42:11Z</time>
      </trkpt>
      <trkpt lat="44.09866" lon="3.03166">
        <ele>545.9</ele>
        <time>2018-05-19T12:42:12Z</time>
      </trkpt>
      <trkpt lat="44.09858" lon="3.03168">
        <ele>544</ele>
        <time>2018-05-19T12:42:13Z</time>
      </trkpt>
      <trkpt lat="44.09852" lon="3.03171">
        <ele>542.4</ele>
        <time>2018-05-19T12:42:14Z</time>
      </trkpt>
      <trkpt lat="44.09846" lon="3.03175">
        <ele>541.4</ele>
        <time>2018-05-19T12:42:15Z</time>
      </trkpt>
      <trkpt lat="44.09844" lon="3.03181">
        <ele>542.1</ele>
        <time>2018-05-19T12:42:16Z</time>
      </trkpt>
      <trkpt lat="44.09842" lon="3.03186">
        <ele>541.8</ele>
        <time>2018-05-19T12:42:17Z</time>
      </trkpt>
      <trkpt lat="44.09843" lon="3.03192">
        <ele>542.1</ele>
        <time>2018-05-19T12:42:18Z</time>
      </trkpt>
      <trkpt lat="44.09844" lon="3.03199">
        <ele>543.1</ele>
        <time>2018-05-19T12:42:19Z</time>
      </trkpt>
      <trkpt lat="44.09844" lon="3.03209">
        <ele>543.3</ele>
        <time>2018-05-19T12:42:20Z</time>
      </trkpt>
      <trkpt lat="44.09845" lon="3.03219">
        <ele>543.2</ele>
        <time>2018-05-19T12:42:21Z</time>
      </trkpt>
      <trkpt lat="44.09846" lon="3.03229">
        <ele>542.6</ele>
        <time>2018-05-19T12:42:22Z</time>
      </trkpt>
      <trkpt lat="44.09848" lon="3.03239">
        <ele>542.3</ele>
        <time>2018-05-19T12:42:23Z</time>
      </trkpt>
      <trkpt lat="44.09851" lon="3.03246">
        <ele>541.7</ele>
        <time>2018-05-19T12:42:24Z</time>
      </trkpt>
      <trkpt lat="44.09855" lon="3.03253">
        <ele>541</ele>
        <time>2018-05-19T12:42:25Z</time>
      </trkpt>
      <trkpt lat="44.09859" lon="3.03253">
        <ele>541.9</ele>
        <time>2018-05-19T12:42:26Z</time>
      </trkpt>
      <trkpt lat="44.09862" lon="3.03254">
        <ele>541.9</ele>
        <time>2018-05-19T12:42:27Z</time>
      </trkpt>
      <trkpt lat="44.09864" lon="3.03261">
        <ele>541.1</ele>
        <time>2018-05-19T12:42:29Z</time>
      </trkpt>
      <trkpt lat="44.09866" lon="3.03265">
        <ele>541.6</ele>
        <time>2018-05-19T12:42:30Z</time>
      </trkpt>
      <trkpt lat="44.09869" lon="3.03271">
        <ele>540.7</ele>
        <time>2018-05-19T12:42:31Z</time>
      </trkpt>
      <trkpt lat="44.09872" lon="3.03277">
        <ele>540.4</ele>
        <time>2018-05-19T12:42:32Z</time>
      </trkpt>
      <trkpt lat="44.09874" lon="3.03282">
        <ele>539.8</ele>
        <time>2018-05-19T12:42:33Z</time>
      </trkpt>
      <trkpt lat="44.09876" lon="3.03287">
        <ele>539.6</ele>
        <time>2018-05-19T12:42:34Z</time>
      </trkpt>
      <trkpt lat="44.09878" lon="3.03291">
        <ele>539.4</ele>
        <time>2018-05-19T12:42:35Z</time>
      </trkpt>
      <trkpt lat="44.09882" lon="3.03297">
        <ele>538.6</ele>
        <time>2018-05-19T12:42:36Z</time>
      </trkpt>
      <trkpt lat="44.09889" lon="3.03303">
        <ele>538.8</ele>
        <time>2018-05-19T12:42:37Z</time>
      </trkpt>
      <trkpt lat="44.09891" lon="3.03309">
        <ele>538</ele>
        <time>2018-05-19T12:42:38Z</time>
      </trkpt>
      <trkpt lat="44.09893" lon="3.03315">
        <ele>537.5</ele>
        <time>2018-05-19T12:42:39Z</time>
      </trkpt>
      <trkpt lat="44.09893" lon="3.03323">
        <ele>536.9</ele>
        <time>2018-05-19T12:42:40Z</time>
      </trkpt>
      <trkpt lat="44.09895" lon="3.0333">
        <ele>536.1</ele>
        <time>2018-05-19T12:42:41Z</time>
      </trkpt>
      <trkpt lat="44.09899" lon="3.03335">
        <ele>536.2</ele>
        <time>2018-05-19T12:42:42Z</time>
      </trkpt>
      <trkpt lat="44.09903" lon="3.03341">
        <ele>536.1</ele>
        <time>2018-05-19T12:42:43Z</time>
      </trkpt>
      <trkpt lat="44.09906" lon="3.03347">
        <ele>536</ele>
        <time>2018-05-19T12:42:44Z</time>
      </trkpt>
      <trkpt lat="44.09912" lon="3.0335">
        <ele>536.2</ele>
        <time>2018-05-19T12:42:45Z</time>
      </trkpt>
      <trkpt lat="44.09915" lon="3.03352">
        <ele>536.3</ele>
        <time>2018-05-19T12:42:46Z</time>
      </trkpt>
      <trkpt lat="44.09915" lon="3.03357">
        <ele>535.9</ele>
        <time>2018-05-19T12:42:47Z</time>
      </trkpt>
      <trkpt lat="44.09918" lon="3.03359">
        <ele>536.3</ele>
        <time>2018-05-19T12:42:48Z</time>
      </trkpt>
      <trkpt lat="44.09922" lon="3.03365">
        <ele>536.1</ele>
        <time>2018-05-19T12:42:50Z</time>
      </trkpt>
      <trkpt lat="44.09923" lon="3.03369">
        <ele>535.9</ele>
        <time>2018-05-19T12:42:51Z</time>
      </trkpt>
      <trkpt lat="44.09926" lon="3.03372">
        <ele>536.2</ele>
        <time>2018-05-19T12:42:52Z</time>
      </trkpt>
      <trkpt lat="44.09933" lon="3.03374">
        <ele>536.7</ele>
        <time>2018-05-19T12:42:54Z</time>
      </trkpt>
      <trkpt lat="44.09936" lon="3.03376">
        <ele>536.7</ele>
        <time>2018-05-19T12:42:55Z</time>
      </trkpt>
      <trkpt lat="44.09937" lon="3.0338">
        <ele>536.8</ele>
        <time>2018-05-19T12:42:56Z</time>
      </trkpt>
      <trkpt lat="44.09939" lon="3.03384">
        <ele>536.6</ele>
        <time>2018-05-19T12:42:57Z</time>
      </trkpt>
      <trkpt lat="44.09939" lon="3.03389">
        <ele>536.8</ele>
        <time>2018-05-19T12:42:59Z</time>
      </trkpt>
      <trkpt lat="44.09937" lon="3.03392">
        <ele>536.5</ele>
        <time>2018-05-19T12:43:01Z</time>
      </trkpt>
      <trkpt lat="44.09935" lon="3.03396">
        <ele>536.2</ele>
        <time>2018-05-19T12:43:03Z</time>
      </trkpt>
      <trkpt lat="44.09933" lon="3.034">
        <ele>535.9</ele>
        <time>2018-05-19T12:43:05Z</time>
      </trkpt>
      <trkpt lat="44.09931" lon="3.03405">
        <ele>535.9</ele>
        <time>2018-05-19T12:43:07Z</time>
      </trkpt>
      <trkpt lat="44.09928" lon="3.03408">
        <ele>535.6</ele>
        <time>2018-05-19T12:43:09Z</time>
      </trkpt>
      <trkpt lat="44.09925" lon="3.03412">
        <ele>535.3</ele>
        <time>2018-05-19T12:43:12Z</time>
      </trkpt>
      <trkpt lat="44.09922" lon="3.03415">
        <ele>535</ele>
        <time>2018-05-19T12:43:14Z</time>
      </trkpt>
      <trkpt lat="44.09919" lon="3.03418">
        <ele>534.7</ele>
        <time>2018-05-19T12:43:16Z</time>
      </trkpt>
      <trkpt lat="44.09916" lon="3.03421">
        <ele>534.4</ele>
        <time>2018-05-19T12:43:18Z</time>
      </trkpt>
      <trkpt lat="44.09914" lon="3.03424">
        <ele>534.1</ele>
        <time>2018-05-19T12:43:20Z</time>
      </trkpt>
      <trkpt lat="44.09911" lon="3.03428">
        <ele>534.2</ele>
        <time>2018-05-19T12:43:22Z</time>
      </trkpt>
      <trkpt lat="44.09909" lon="3.0343">
        <ele>534</ele>
        <time>2018-05-19T12:43:24Z</time>
      </trkpt>
      <trkpt lat="44.09907" lon="3.03433">
        <ele>533.7</ele>
        <time>2018-05-19T12:43:26Z</time>
      </trkpt>
      <trkpt lat="44.09904" lon="3.03436">
        <ele>533.6</ele>
        <time>2018-05-19T12:43:28Z</time>
      </trkpt>
      <trkpt lat="44.09902" lon="3.03439">
        <ele>533.8</ele>
        <time>2018-05-19T12:43:41Z</time>
      </trkpt>
      <trkpt lat="44.099" lon="3.03441">
        <ele>533.5</ele>
        <time>2018-05-19T12:43:46Z</time>
      </trkpt>
      <trkpt lat="44.09903" lon="3.0344">
        <ele>533.8</ele>
        <time>2018-05-19T12:43:55Z</time>
      </trkpt>
      <trkpt lat="44.099" lon="3.0344">
        <ele>533.5</ele>
        <time>2018-05-19T12:44:02Z</time>
      </trkpt>
      <trkpt lat="44.09896" lon="3.03442">
        <ele>533.4</ele>
        <time>2018-05-19T12:44:04Z</time>
      </trkpt>
      <trkpt lat="44.09891" lon="3.03446">
        <ele>532.6</ele>
        <time>2018-05-19T12:44:06Z</time>
      </trkpt>
      <trkpt lat="44.09888" lon="3.03448">
        <ele>532.5</ele>
        <time>2018-05-19T12:44:08Z</time>
      </trkpt>
      <trkpt lat="44.09885" lon="3.0345">
        <ele>532.1</ele>
        <time>2018-05-19T12:44:10Z</time>
      </trkpt>
      <trkpt lat="44.09882" lon="3.03453">
        <ele>532.1</ele>
        <time>2018-05-19T12:44:13Z</time>
      </trkpt>
      <trkpt lat="44.09879" lon="3.03454">
        <ele>531.6</ele>
        <time>2018-05-19T12:44:15Z</time>
      </trkpt>
      <trkpt lat="44.09876" lon="3.03457">
        <ele>531.7</ele>
        <time>2018-05-19T12:44:18Z</time>
      </trkpt>
      <trkpt lat="44.09873" lon="3.03459">
        <ele>531.8</ele>
        <time>2018-05-19T12:44:20Z</time>
      </trkpt>
      <trkpt lat="44.09869" lon="3.03461">
        <ele>531.4</ele>
        <time>2018-05-19T12:44:22Z</time>
      </trkpt>
      <trkpt lat="44.09866" lon="3.03462">
        <ele>531</ele>
        <time>2018-05-19T12:44:23Z</time>
      </trkpt>
      <trkpt lat="44.09863" lon="3.03463">
        <ele>531.1</ele>
        <time>2018-05-19T12:44:24Z</time>
      </trkpt>
      <trkpt lat="44.0986" lon="3.03464">
        <ele>530.7</ele>
        <time>2018-05-19T12:44:25Z</time>
      </trkpt>
      <trkpt lat="44.09857" lon="3.03466">
        <ele>530.3</ele>
        <time>2018-05-19T12:44:26Z</time>
      </trkpt>
      <trkpt lat="44.09854" lon="3.03467">
        <ele>529.8</ele>
        <time>2018-05-19T12:44:27Z</time>
      </trkpt>
      <trkpt lat="44.09851" lon="3.03468">
        <ele>530</ele>
        <time>2018-05-19T12:44:28Z</time>
      </trkpt>
      <trkpt lat="44.09848" lon="3.03469">
        <ele>529.6</ele>
        <time>2018-05-19T12:44:29Z</time>
      </trkpt>
      <trkpt lat="44.09845" lon="3.0347">
        <ele>529.1</ele>
        <time>2018-05-19T12:44:30Z</time>
      </trkpt>
      <trkpt lat="44.09842" lon="3.03471">
        <ele>528.6</ele>
        <time>2018-05-19T12:44:31Z</time>
      </trkpt>
      <trkpt lat="44.09838" lon="3.03472">
        <ele>528.9</ele>
        <time>2018-05-19T12:44:32Z</time>
      </trkpt>
      <trkpt lat="44.09834" lon="3.03473">
        <ele>527.8</ele>
        <time>2018-05-19T12:44:33Z</time>
      </trkpt>
      <trkpt lat="44.0983" lon="3.03474">
        <ele>527.2</ele>
        <time>2018-05-19T12:44:34Z</time>
      </trkpt>
      <trkpt lat="44.09826" lon="3.03476">
        <ele>526.6</ele>
        <time>2018-05-19T12:44:35Z</time>
      </trkpt>
      <trkpt lat="44.09822" lon="3.03477">
        <ele>526.8</ele>
        <time>2018-05-19T12:44:36Z</time>
      </trkpt>
      <trkpt lat="44.09816" lon="3.03478">
        <ele>525.6</ele>
        <time>2018-05-19T12:44:37Z</time>
      </trkpt>
      <trkpt lat="44.09811" lon="3.03479">
        <ele>524.4</ele>
        <time>2018-05-19T12:44:38Z</time>
      </trkpt>
      <trkpt lat="44.09805" lon="3.03482">
        <ele>523.6</ele>
        <time>2018-05-19T12:44:39Z</time>
      </trkpt>
      <trkpt lat="44.098" lon="3.03484">
        <ele>522.8</ele>
        <time>2018-05-19T12:44:40Z</time>
      </trkpt>
      <trkpt lat="44.09797" lon="3.03487">
        <ele>522.2</ele>
        <time>2018-05-19T12:44:41Z</time>
      </trkpt>
      <trkpt lat="44.09793" lon="3.0349">
        <ele>522.2</ele>
        <time>2018-05-19T12:44:42Z</time>
      </trkpt>
      <trkpt lat="44.0979" lon="3.03493">
        <ele>521.6</ele>
        <time>2018-05-19T12:44:43Z</time>
      </trkpt>
      <trkpt lat="44.09788" lon="3.03495">
        <ele>521.7</ele>
        <time>2018-05-19T12:44:44Z</time>
      </trkpt>
      <trkpt lat="44.09782" lon="3.03498">
        <ele>521.9</ele>
        <time>2018-05-19T12:44:46Z</time>
      </trkpt>
      <trkpt lat="44.09779" lon="3.035">
        <ele>520.5</ele>
        <time>2018-05-19T12:44:47Z</time>
      </trkpt>
      <trkpt lat="44.09775" lon="3.03502">
        <ele>520.7</ele>
        <time>2018-05-19T12:44:48Z</time>
      </trkpt>
      <trkpt lat="44.09771" lon="3.03506">
        <ele>520.9</ele>
        <time>2018-05-19T12:44:50Z</time>
      </trkpt>
      <trkpt lat="44.09769" lon="3.03509">
        <ele>520.2</ele>
        <time>2018-05-19T12:44:51Z</time>
      </trkpt>
      <trkpt lat="44.09766" lon="3.0351">
        <ele>520.4</ele>
        <time>2018-05-19T12:44:52Z</time>
      </trkpt>
      <trkpt lat="44.09763" lon="3.03512">
        <ele>519.7</ele>
        <time>2018-05-19T12:44:54Z</time>
      </trkpt>
      <trkpt lat="44.09761" lon="3.03511">
        <ele>519.7</ele>
        <time>2018-05-19T12:45:08Z</time>
      </trkpt>
      <trkpt lat="44.09763" lon="3.03514">
        <ele>519.6</ele>
        <time>2018-05-19T12:45:14Z</time>
      </trkpt>
      <trkpt lat="44.0976" lon="3.03514">
        <ele>519</ele>
        <time>2018-05-19T12:45:50Z</time>
      </trkpt>
      <trkpt lat="44.09756" lon="3.03515">
        <ele>519.2</ele>
        <time>2018-05-19T12:46:42Z</time>
      </trkpt>
      <trkpt lat="44.09753" lon="3.03515">
        <ele>518.5</ele>
        <time>2018-05-19T12:46:43Z</time>
      </trkpt>
      <trkpt lat="44.09749" lon="3.03515">
        <ele>517.9</ele>
        <time>2018-05-19T12:46:44Z</time>
      </trkpt>
      <trkpt lat="44.09746" lon="3.03515">
        <ele>517.3</ele>
        <time>2018-05-19T12:46:45Z</time>
      </trkpt>
      <trkpt lat="44.09742" lon="3.03515">
        <ele>516.2</ele>
        <time>2018-05-19T12:46:46Z</time>
      </trkpt>
      <trkpt lat="44.09734" lon="3.03514">
        <ele>514.3</ele>
        <time>2018-05-19T12:46:47Z</time>
      </trkpt>
      <trkpt lat="44.09728" lon="3.03512">
        <ele>513.5</ele>
        <time>2018-05-19T12:46:48Z</time>
      </trkpt>
      <trkpt lat="44.09721" lon="3.03511">
        <ele>512.6</ele>
        <time>2018-05-19T12:46:49Z</time>
      </trkpt>
      <trkpt lat="44.09714" lon="3.0351">
        <ele>510.8</ele>
        <time>2018-05-19T12:46:50Z</time>
      </trkpt>
      <trkpt lat="44.09707" lon="3.03509">
        <ele>509.8</ele>
        <time>2018-05-19T12:46:51Z</time>
      </trkpt>
      <trkpt lat="44.097" lon="3.03507">
        <ele>509</ele>
        <time>2018-05-19T12:46:52Z</time>
      </trkpt>
      <trkpt lat="44.09693" lon="3.03506">
        <ele>507.9</ele>
        <time>2018-05-19T12:46:53Z</time>
      </trkpt>
      <trkpt lat="44.09685" lon="3.03506">
        <ele>506.3</ele>
        <time>2018-05-19T12:46:54Z</time>
      </trkpt>
      <trkpt lat="44.09676" lon="3.03508">
        <ele>504.8</ele>
        <time>2018-05-19T12:46:55Z</time>
      </trkpt>
      <trkpt lat="44.0967" lon="3.0351">
        <ele>503.3</ele>
        <time>2018-05-19T12:46:56Z</time>
      </trkpt>
      <trkpt lat="44.09666" lon="3.03511">
        <ele>503.5</ele>
        <time>2018-05-19T12:46:57Z</time>
      </trkpt>
      <trkpt lat="44.09662" lon="3.03512">
        <ele>502.7</ele>
        <time>2018-05-19T12:46:58Z</time>
      </trkpt>
      <trkpt lat="44.0966" lon="3.03511">
        <ele>501.8</ele>
        <time>2018-05-19T12:46:59Z</time>
      </trkpt>
      <trkpt lat="44.09657" lon="3.03511">
        <ele>501</ele>
        <time>2018-05-19T12:47:00Z</time>
      </trkpt>
      <trkpt lat="44.09652" lon="3.03511">
        <ele>500.1</ele>
        <time>2018-05-19T12:47:01Z</time>
      </trkpt>
      <trkpt lat="44.09648" lon="3.03511">
        <ele>498.1</ele>
        <time>2018-05-19T12:47:02Z</time>
      </trkpt>
      <trkpt lat="44.09643" lon="3.03514">
        <ele>495.9</ele>
        <time>2018-05-19T12:47:03Z</time>
      </trkpt>
      <trkpt lat="44.09639" lon="3.03517">
        <ele>495.7</ele>
        <time>2018-05-19T12:47:04Z</time>
      </trkpt>
      <trkpt lat="44.09635" lon="3.03522">
        <ele>495.4</ele>
        <time>2018-05-19T12:47:05Z</time>
      </trkpt>
      <trkpt lat="44.09632" lon="3.03528">
        <ele>496.4</ele>
        <time>2018-05-19T12:47:06Z</time>
      </trkpt>
      <trkpt lat="44.09629" lon="3.03535">
        <ele>496.2</ele>
        <time>2018-05-19T12:47:07Z</time>
      </trkpt>
      <trkpt lat="44.09627" lon="3.03543">
        <ele>497.3</ele>
        <time>2018-05-19T12:47:08Z</time>
      </trkpt>
      <trkpt lat="44.09625" lon="3.03552">
        <ele>499.5</ele>
        <time>2018-05-19T12:47:09Z</time>
      </trkpt>
      <trkpt lat="44.09624" lon="3.0356">
        <ele>500.4</ele>
        <time>2018-05-19T12:47:10Z</time>
      </trkpt>
      <trkpt lat="44.09624" lon="3.03571">
        <ele>503.1</ele>
        <time>2018-05-19T12:47:11Z</time>
      </trkpt>
      <trkpt lat="44.09624" lon="3.03582">
        <ele>504.9</ele>
        <time>2018-05-19T12:47:12Z</time>
      </trkpt>
      <trkpt lat="44.09625" lon="3.03591">
        <ele>506.4</ele>
        <time>2018-05-19T12:47:13Z</time>
      </trkpt>
      <trkpt lat="44.09624" lon="3.036">
        <ele>507.5</ele>
        <time>2018-05-19T12:47:14Z</time>
      </trkpt>
      <trkpt lat="44.09623" lon="3.03609">
        <ele>508.5</ele>
        <time>2018-05-19T12:47:15Z</time>
      </trkpt>
      <trkpt lat="44.09621" lon="3.03618">
        <ele>509</ele>
        <time>2018-05-19T12:47:16Z</time>
      </trkpt>
      <trkpt lat="44.09617" lon="3.03627">
        <ele>508.9</ele>
        <time>2018-05-19T12:47:17Z</time>
      </trkpt>
      <trkpt lat="44.09613" lon="3.03634">
        <ele>508.3</ele>
        <time>2018-05-19T12:47:18Z</time>
      </trkpt>
      <trkpt lat="44.0961" lon="3.03643">
        <ele>508</ele>
        <time>2018-05-19T12:47:19Z</time>
      </trkpt>
      <trkpt lat="44.09606" lon="3.03651">
        <ele>506.6</ele>
        <time>2018-05-19T12:47:20Z</time>
      </trkpt>
      <trkpt lat="44.09602" lon="3.03659">
        <ele>506.4</ele>
        <time>2018-05-19T12:47:21Z</time>
      </trkpt>
      <trkpt lat="44.09597" lon="3.03666">
        <ele>506.3</ele>
        <time>2018-05-19T12:47:22Z</time>
      </trkpt>
      <trkpt lat="44.09595" lon="3.03673">
        <ele>505.7</ele>
        <time>2018-05-19T12:47:23Z</time>
      </trkpt>
      <trkpt lat="44.09594" lon="3.03683">
        <ele>505.7</ele>
        <time>2018-05-19T12:47:24Z</time>
      </trkpt>
      <trkpt lat="44.09594" lon="3.03692">
        <ele>507</ele>
        <time>2018-05-19T12:47:25Z</time>
      </trkpt>
      <trkpt lat="44.09596" lon="3.03702">
        <ele>507.2</ele>
        <time>2018-05-19T12:47:26Z</time>
      </trkpt>
      <trkpt lat="44.09596" lon="3.03712">
        <ele>507.7</ele>
        <time>2018-05-19T12:47:27Z</time>
      </trkpt>
      <trkpt lat="44.09595" lon="3.03723">
        <ele>507.9</ele>
        <time>2018-05-19T12:47:28Z</time>
      </trkpt>
      <trkpt lat="44.09594" lon="3.03734">
        <ele>507.6</ele>
        <time>2018-05-19T12:47:29Z</time>
      </trkpt>
      <trkpt lat="44.09593" lon="3.03742">
        <ele>507.8</ele>
        <time>2018-05-19T12:47:30Z</time>
      </trkpt>
      <trkpt lat="44.09592" lon="3.03749">
        <ele>507.9</ele>
        <time>2018-05-19T12:47:31Z</time>
      </trkpt>
      <trkpt lat="44.09591" lon="3.03754">
        <ele>508</ele>
        <time>2018-05-19T12:47:32Z</time>
      </trkpt>
      <trkpt lat="44.09591" lon="3.03758">
        <ele>508.1</ele>
        <time>2018-05-19T12:47:33Z</time>
      </trkpt>
      <trkpt lat="44.09589" lon="3.03762">
        <ele>507.3</ele>
        <time>2018-05-19T12:47:35Z</time>
      </trkpt>
      <trkpt lat="44.09591" lon="3.03753">
        <ele>507.8</ele>
        <time>2018-05-19T12:48:09Z</time>
      </trkpt>
      <trkpt lat="44.09592" lon="3.03749">
        <ele>507.6</ele>
        <time>2018-05-19T12:48:11Z</time>
      </trkpt>
      <trkpt lat="44.09593" lon="3.03743">
        <ele>507.3</ele>
        <time>2018-05-19T12:48:13Z</time>
      </trkpt>
      <trkpt lat="44.09595" lon="3.03739">
        <ele>507.9</ele>
        <time>2018-05-19T12:48:17Z</time>
      </trkpt>
      <trkpt lat="44.09595" lon="3.03743">
        <ele>508</ele>
        <time>2018-05-19T12:48:33Z</time>
      </trkpt>
      <trkpt lat="44.09596" lon="3.03747">
        <ele>508</ele>
        <time>2018-05-19T12:48:37Z</time>
      </trkpt>
      <trkpt lat="44.09596" lon="3.03752">
        <ele>508.1</ele>
        <time>2018-05-19T12:48:41Z</time>
      </trkpt>
      <trkpt lat="44.09596" lon="3.03756">
        <ele>508.2</ele>
        <time>2018-05-19T12:48:45Z</time>
      </trkpt>
      <trkpt lat="44.09597" lon="3.03761">
        <ele>508.2</ele>
        <time>2018-05-19T12:48:50Z</time>
      </trkpt>
      <trkpt lat="44.09599" lon="3.03764">
        <ele>508.9</ele>
        <time>2018-05-19T12:48:55Z</time>
      </trkpt>
      <trkpt lat="44.09599" lon="3.03768">
        <ele>508.9</ele>
        <time>2018-05-19T12:49:01Z</time>
      </trkpt>
      <trkpt lat="44.09601" lon="3.03773">
        <ele>509.4</ele>
        <time>2018-05-19T12:49:05Z</time>
      </trkpt>
      <trkpt lat="44.09603" lon="3.03776">
        <ele>509.5</ele>
        <time>2018-05-19T12:49:08Z</time>
      </trkpt>
      <trkpt lat="44.09603" lon="3.03781">
        <ele>510.1</ele>
        <time>2018-05-19T12:49:13Z</time>
      </trkpt>
      <trkpt lat="44.09605" lon="3.03785">
        <ele>510</ele>
        <time>2018-05-19T12:49:17Z</time>
      </trkpt>
      <trkpt lat="44.09608" lon="3.03788">
        <ele>510.7</ele>
        <time>2018-05-19T12:49:21Z</time>
      </trkpt>
      <trkpt lat="44.09608" lon="3.03792">
        <ele>510.6</ele>
        <time>2018-05-19T12:49:25Z</time>
      </trkpt>
      <trkpt lat="44.09609" lon="3.03796">
        <ele>510.4</ele>
        <time>2018-05-19T12:49:28Z</time>
      </trkpt>
      <trkpt lat="44.0961" lon="3.038">
        <ele>511.1</ele>
        <time>2018-05-19T12:49:32Z</time>
      </trkpt>
      <trkpt lat="44.0961" lon="3.03804">
        <ele>510.9</ele>
        <time>2018-05-19T12:49:36Z</time>
      </trkpt>
      <trkpt lat="44.0961" lon="3.03808">
        <ele>510.9</ele>
        <time>2018-05-19T12:49:40Z</time>
      </trkpt>
      <trkpt lat="44.09609" lon="3.03812">
        <ele>510.8</ele>
        <time>2018-05-19T12:49:46Z</time>
      </trkpt>
      <trkpt lat="44.09609" lon="3.03818">
        <ele>510.1</ele>
        <time>2018-05-19T12:49:48Z</time>
      </trkpt>
      <trkpt lat="44.09608" lon="3.03825">
        <ele>510</ele>
        <time>2018-05-19T12:49:50Z</time>
      </trkpt>
      <trkpt lat="44.09607" lon="3.03831">
        <ele>509.9</ele>
        <time>2018-05-19T12:49:52Z</time>
      </trkpt>
      <trkpt lat="44.09607" lon="3.03835">
        <ele>509.9</ele>
        <time>2018-05-19T12:49:53Z</time>
      </trkpt>
      <trkpt lat="44.09606" lon="3.03839">
        <ele>509.8</ele>
        <time>2018-05-19T12:49:54Z</time>
      </trkpt>
      <trkpt lat="44.09606" lon="3.03844">
        <ele>509.2</ele>
        <time>2018-05-19T12:49:55Z</time>
      </trkpt>
      <trkpt lat="44.09606" lon="3.03848">
        <ele>509.1</ele>
        <time>2018-05-19T12:49:56Z</time>
      </trkpt>
      <trkpt lat="44.09606" lon="3.03853">
        <ele>509</ele>
        <time>2018-05-19T12:49:57Z</time>
      </trkpt>
      <trkpt lat="44.09606" lon="3.03857">
        <ele>508.8</ele>
        <time>2018-05-19T12:49:58Z</time>
      </trkpt>
      <trkpt lat="44.09606" lon="3.03862">
        <ele>508.6</ele>
        <time>2018-05-19T12:49:59Z</time>
      </trkpt>
      <trkpt lat="44.09606" lon="3.03866">
        <ele>508.4</ele>
        <time>2018-05-19T12:50:00Z</time>
      </trkpt>
      <trkpt lat="44.09606" lon="3.0387">
        <ele>508.1</ele>
        <time>2018-05-19T12:50:01Z</time>
      </trkpt>
      <trkpt lat="44.09607" lon="3.03874">
        <ele>508.4</ele>
        <time>2018-05-19T12:50:02Z</time>
      </trkpt>
      <trkpt lat="44.09608" lon="3.03881">
        <ele>507.9</ele>
        <time>2018-05-19T12:50:04Z</time>
      </trkpt>
      <trkpt lat="44.09609" lon="3.03885">
        <ele>507.6</ele>
        <time>2018-05-19T12:50:05Z</time>
      </trkpt>
      <trkpt lat="44.09609" lon="3.03889">
        <ele>507.3</ele>
        <time>2018-05-19T12:50:06Z</time>
      </trkpt>
      <trkpt lat="44.0961" lon="3.03892">
        <ele>507.4</ele>
        <time>2018-05-19T12:50:07Z</time>
      </trkpt>
      <trkpt lat="44.09612" lon="3.03896">
        <ele>507.4</ele>
        <time>2018-05-19T12:50:08Z</time>
      </trkpt>
      <trkpt lat="44.09614" lon="3.03899">
        <ele>507.5</ele>
        <time>2018-05-19T12:50:09Z</time>
      </trkpt>
      <trkpt lat="44.09616" lon="3.03903">
        <ele>507.5</ele>
        <time>2018-05-19T12:50:10Z</time>
      </trkpt>
      <trkpt lat="44.09619" lon="3.03906">
        <ele>507.4</ele>
        <time>2018-05-19T12:50:11Z</time>
      </trkpt>
      <trkpt lat="44.09622" lon="3.03909">
        <ele>507.1</ele>
        <time>2018-05-19T12:50:12Z</time>
      </trkpt>
      <trkpt lat="44.09625" lon="3.03913">
        <ele>507.3</ele>
        <time>2018-05-19T12:50:13Z</time>
      </trkpt>
      <trkpt lat="44.09628" lon="3.03917">
        <ele>507</ele>
        <time>2018-05-19T12:50:14Z</time>
      </trkpt>
      <trkpt lat="44.09632" lon="3.03923">
        <ele>506.2</ele>
        <time>2018-05-19T12:50:15Z</time>
      </trkpt>
      <trkpt lat="44.09636" lon="3.03927">
        <ele>505.8</ele>
        <time>2018-05-19T12:50:16Z</time>
      </trkpt>
      <trkpt lat="44.0964" lon="3.03931">
        <ele>505.3</ele>
        <time>2018-05-19T12:50:17Z</time>
      </trkpt>
      <trkpt lat="44.09644" lon="3.03934">
        <ele>505.4</ele>
        <time>2018-05-19T12:50:18Z</time>
      </trkpt>
      <trkpt lat="44.09648" lon="3.03935">
        <ele>505.4</ele>
        <time>2018-05-19T12:50:19Z</time>
      </trkpt>
      <trkpt lat="44.09652" lon="3.03935">
        <ele>504.7</ele>
        <time>2018-05-19T12:50:20Z</time>
      </trkpt>
      <trkpt lat="44.09656" lon="3.03936">
        <ele>504.7</ele>
        <time>2018-05-19T12:50:21Z</time>
      </trkpt>
      <trkpt lat="44.0966" lon="3.03937">
        <ele>504.7</ele>
        <time>2018-05-19T12:50:22Z</time>
      </trkpt>
      <trkpt lat="44.09663" lon="3.03938">
        <ele>504.6</ele>
        <time>2018-05-19T12:50:23Z</time>
      </trkpt>
      <trkpt lat="44.09665" lon="3.03936">
        <ele>504.6</ele>
        <time>2018-05-19T12:50:24Z</time>
      </trkpt>
      <trkpt lat="44.09668" lon="3.03934">
        <ele>505.2</ele>
        <time>2018-05-19T12:50:25Z</time>
      </trkpt>
      <trkpt lat="44.09671" lon="3.03932">
        <ele>505.2</ele>
        <time>2018-05-19T12:50:26Z</time>
      </trkpt>
      <trkpt lat="44.09673" lon="3.0393">
        <ele>505.7</ele>
        <time>2018-05-19T12:50:27Z</time>
      </trkpt>
      <trkpt lat="44.09678" lon="3.03929">
        <ele>505.6</ele>
        <time>2018-05-19T12:50:30Z</time>
      </trkpt>
      <trkpt lat="44.09681" lon="3.03931">
        <ele>505.5</ele>
        <time>2018-05-19T12:50:31Z</time>
      </trkpt>
      <trkpt lat="44.09684" lon="3.03933">
        <ele>504.7</ele>
        <time>2018-05-19T12:50:32Z</time>
      </trkpt>
      <trkpt lat="44.09692" lon="3.03937">
        <ele>503.8</ele>
        <time>2018-05-19T12:50:33Z</time>
      </trkpt>
      <trkpt lat="44.09697" lon="3.03939">
        <ele>503.5</ele>
        <time>2018-05-19T12:50:34Z</time>
      </trkpt>
      <trkpt lat="44.09702" lon="3.0394">
        <ele>502.4</ele>
        <time>2018-05-19T12:50:35Z</time>
      </trkpt>
      <trkpt lat="44.09708" lon="3.03939">
        <ele>502.8</ele>
        <time>2018-05-19T12:50:36Z</time>
      </trkpt>
      <trkpt lat="44.09714" lon="3.03938">
        <ele>502.5</ele>
        <time>2018-05-19T12:50:37Z</time>
      </trkpt>
      <trkpt lat="44.0972" lon="3.03938">
        <ele>502.4</ele>
        <time>2018-05-19T12:50:38Z</time>
      </trkpt>
      <trkpt lat="44.09726" lon="3.03937">
        <ele>502.2</ele>
        <time>2018-05-19T12:50:39Z</time>
      </trkpt>
      <trkpt lat="44.09735" lon="3.03936">
        <ele>501.8</ele>
        <time>2018-05-19T12:50:40Z</time>
      </trkpt>
      <trkpt lat="44.09743" lon="3.03935">
        <ele>501.5</ele>
        <time>2018-05-19T12:50:41Z</time>
      </trkpt>
      <trkpt lat="44.09754" lon="3.03933">
        <ele>502.1</ele>
        <time>2018-05-19T12:50:42Z</time>
      </trkpt>
      <trkpt lat="44.09761" lon="3.03933">
        <ele>502.4</ele>
        <time>2018-05-19T12:50:43Z</time>
      </trkpt>
      <trkpt lat="44.0977" lon="3.03933">
        <ele>503.3</ele>
        <time>2018-05-19T12:50:44Z</time>
      </trkpt>
      <trkpt lat="44.09778" lon="3.03934">
        <ele>504.2</ele>
        <time>2018-05-19T12:50:45Z</time>
      </trkpt>
      <trkpt lat="44.09785" lon="3.03933">
        <ele>505.3</ele>
        <time>2018-05-19T12:50:46Z</time>
      </trkpt>
      <trkpt lat="44.09794" lon="3.03933">
        <ele>506.8</ele>
        <time>2018-05-19T12:50:47Z</time>
      </trkpt>
      <trkpt lat="44.09801" lon="3.03932">
        <ele>508.2</ele>
        <time>2018-05-19T12:50:48Z</time>
      </trkpt>
      <trkpt lat="44.09802" lon="3.03929">
        <ele>508.8</ele>
        <time>2018-05-19T12:50:49Z</time>
      </trkpt>
      <trkpt lat="44.09805" lon="3.03927">
        <ele>509.3</ele>
        <time>2018-05-19T12:50:50Z</time>
      </trkpt>
      <trkpt lat="44.09809" lon="3.03925">
        <ele>510.4</ele>
        <time>2018-05-19T12:50:51Z</time>
      </trkpt>
      <trkpt lat="44.09812" lon="3.03927">
        <ele>510.3</ele>
        <time>2018-05-19T12:50:52Z</time>
      </trkpt>
      <trkpt lat="44.09817" lon="3.03931">
        <ele>511.1</ele>
        <time>2018-05-19T12:50:54Z</time>
      </trkpt>
      <trkpt lat="44.0982" lon="3.03934">
        <ele>510.9</ele>
        <time>2018-05-19T12:50:55Z</time>
      </trkpt>
      <trkpt lat="44.09823" lon="3.03936">
        <ele>510.7</ele>
        <time>2018-05-19T12:50:57Z</time>
      </trkpt>
      <trkpt lat="44.09825" lon="3.0394">
        <ele>509.9</ele>
        <time>2018-05-19T12:50:59Z</time>
      </trkpt>
      <trkpt lat="44.09827" lon="3.03945">
        <ele>509.7</ele>
        <time>2018-05-19T12:51:01Z</time>
      </trkpt>
      <trkpt lat="44.09829" lon="3.03951">
        <ele>509.6</ele>
        <time>2018-05-19T12:51:03Z</time>
      </trkpt>
      <trkpt lat="44.09831" lon="3.03957">
        <ele>508.8</ele>
        <time>2018-05-19T12:51:05Z</time>
      </trkpt>
      <trkpt lat="44.09833" lon="3.03961">
        <ele>508.1</ele>
        <time>2018-05-19T12:51:07Z</time>
      </trkpt>
      <trkpt lat="44.09834" lon="3.03965">
        <ele>507.5</ele>
        <time>2018-05-19T12:51:08Z</time>
      </trkpt>
      <trkpt lat="44.09835" lon="3.0397">
        <ele>507.5</ele>
        <time>2018-05-19T12:51:09Z</time>
      </trkpt>
      <trkpt lat="44.09836" lon="3.03974">
        <ele>506.7</ele>
        <time>2018-05-19T12:51:10Z</time>
      </trkpt>
      <trkpt lat="44.0984" lon="3.0398">
        <ele>506.6</ele>
        <time>2018-05-19T12:51:12Z</time>
      </trkpt>
      <trkpt lat="44.09842" lon="3.03982">
        <ele>506.4</ele>
        <time>2018-05-19T12:51:13Z</time>
      </trkpt>
      <trkpt lat="44.09844" lon="3.03985">
        <ele>507</ele>
        <time>2018-05-19T12:51:14Z</time>
      </trkpt>
      <trkpt lat="44.09846" lon="3.03987">
        <ele>506.1</ele>
        <time>2018-05-19T12:51:15Z</time>
      </trkpt>
      <trkpt lat="44.09848" lon="3.0399">
        <ele>506.8</ele>
        <time>2018-05-19T12:51:16Z</time>
      </trkpt>
      <trkpt lat="44.09851" lon="3.03992">
        <ele>506.5</ele>
        <time>2018-05-19T12:51:17Z</time>
      </trkpt>
      <trkpt lat="44.09854" lon="3.03993">
        <ele>507.2</ele>
        <time>2018-05-19T12:51:18Z</time>
      </trkpt>
      <trkpt lat="44.09857" lon="3.03994">
        <ele>507.9</ele>
        <time>2018-05-19T12:51:19Z</time>
      </trkpt>
      <trkpt lat="44.0986" lon="3.03995">
        <ele>507.6</ele>
        <time>2018-05-19T12:51:20Z</time>
      </trkpt>
      <trkpt lat="44.09863" lon="3.03997">
        <ele>508.3</ele>
        <time>2018-05-19T12:51:21Z</time>
      </trkpt>
      <trkpt lat="44.09866" lon="3.03998">
        <ele>509</ele>
        <time>2018-05-19T12:51:22Z</time>
      </trkpt>
      <trkpt lat="44.0987" lon="3.03999">
        <ele>509.6</ele>
        <time>2018-05-19T12:51:23Z</time>
      </trkpt>
      <trkpt lat="44.09874" lon="3.04">
        <ele>509.3</ele>
        <time>2018-05-19T12:51:24Z</time>
      </trkpt>
      <trkpt lat="44.09877" lon="3.04001">
        <ele>509.9</ele>
        <time>2018-05-19T12:51:25Z</time>
      </trkpt>
      <trkpt lat="44.09881" lon="3.04003">
        <ele>511.1</ele>
        <time>2018-05-19T12:51:26Z</time>
      </trkpt>
      <trkpt lat="44.09885" lon="3.04004">
        <ele>510.7</ele>
        <time>2018-05-19T12:51:27Z</time>
      </trkpt>
      <trkpt lat="44.09889" lon="3.04006">
        <ele>511.4</ele>
        <time>2018-05-19T12:51:28Z</time>
      </trkpt>
      <trkpt lat="44.09893" lon="3.04008">
        <ele>511.7</ele>
        <time>2018-05-19T12:51:29Z</time>
      </trkpt>
      <trkpt lat="44.09897" lon="3.0401">
        <ele>512.3</ele>
        <time>2018-05-19T12:51:30Z</time>
      </trkpt>
      <trkpt lat="44.09901" lon="3.04011">
        <ele>512.9</ele>
        <time>2018-05-19T12:51:31Z</time>
      </trkpt>
      <trkpt lat="44.09904" lon="3.04013">
        <ele>512.3</ele>
        <time>2018-05-19T12:51:32Z</time>
      </trkpt>
      <trkpt lat="44.09907" lon="3.04015">
        <ele>512.8</ele>
        <time>2018-05-19T12:51:33Z</time>
      </trkpt>
      <trkpt lat="44.0991" lon="3.04017">
        <ele>512.1</ele>
        <time>2018-05-19T12:51:34Z</time>
      </trkpt>
      <trkpt lat="44.09913" lon="3.04018">
        <ele>512.7</ele>
        <time>2018-05-19T12:51:35Z</time>
      </trkpt>
      <trkpt lat="44.09915" lon="3.04019">
        <ele>513.3</ele>
        <time>2018-05-19T12:51:36Z</time>
      </trkpt>
      <trkpt lat="44.09921" lon="3.0402">
        <ele>514.5</ele>
        <time>2018-05-19T12:51:38Z</time>
      </trkpt>
      <trkpt lat="44.09924" lon="3.04021">
        <ele>514.5</ele>
        <time>2018-05-19T12:51:39Z</time>
      </trkpt>
      <trkpt lat="44.09928" lon="3.04021">
        <ele>514.2</ele>
        <time>2018-05-19T12:51:41Z</time>
      </trkpt>
      <trkpt lat="44.09931" lon="3.04022">
        <ele>514.7</ele>
        <time>2018-05-19T12:51:43Z</time>
      </trkpt>
      <trkpt lat="44.09934" lon="3.04023">
        <ele>515.2</ele>
        <time>2018-05-19T12:51:45Z</time>
      </trkpt>
      <trkpt lat="44.09938" lon="3.04023">
        <ele>515.7</ele>
        <time>2018-05-19T12:51:47Z</time>
      </trkpt>
      <trkpt lat="44.09941" lon="3.04022">
        <ele>516.3</ele>
        <time>2018-05-19T12:51:52Z</time>
      </trkpt>
      <trkpt lat="44.09943" lon="3.04025">
        <ele>515.5</ele>
        <time>2018-05-19T12:52:00Z</time>
      </trkpt>
      <trkpt lat="44.09945" lon="3.04028">
        <ele>516.1</ele>
        <time>2018-05-19T12:52:05Z</time>
      </trkpt>
      <trkpt lat="44.09948" lon="3.04027">
        <ele>516.1</ele>
        <time>2018-05-19T12:52:09Z</time>
      </trkpt>
      <trkpt lat="44.09951" lon="3.04027">
        <ele>516.7</ele>
        <time>2018-05-19T12:52:14Z</time>
      </trkpt>
      <trkpt lat="44.09954" lon="3.04027">
        <ele>517.2</ele>
        <time>2018-05-19T12:52:17Z</time>
      </trkpt>
      <trkpt lat="44.09957" lon="3.04027">
        <ele>517.6</ele>
        <time>2018-05-19T12:52:22Z</time>
      </trkpt>
      <trkpt lat="44.09958" lon="3.04024">
        <ele>519.4</ele>
        <time>2018-05-19T12:52:27Z</time>
      </trkpt>
      <trkpt lat="44.09963" lon="3.0403">
        <ele>517.1</ele>
        <time>2018-05-19T12:53:30Z</time>
      </trkpt>
      <trkpt lat="44.09965" lon="3.04027">
        <ele>518.9</ele>
        <time>2018-05-19T12:53:51Z</time>
      </trkpt>
      <trkpt lat="44.09968" lon="3.04027">
        <ele>519.4</ele>
        <time>2018-05-19T12:53:53Z</time>
      </trkpt>
      <trkpt lat="44.09972" lon="3.04028">
        <ele>519.8</ele>
        <time>2018-05-19T12:53:56Z</time>
      </trkpt>
      <trkpt lat="44.09974" lon="3.04029">
        <ele>520.2</ele>
        <time>2018-05-19T12:53:58Z</time>
      </trkpt>
      <trkpt lat="44.09979" lon="3.04029">
        <ele>520.9</ele>
        <time>2018-05-19T12:54:00Z</time>
      </trkpt>
      <trkpt lat="44.09984" lon="3.04028">
        <ele>521.2</ele>
        <time>2018-05-19T12:54:02Z</time>
      </trkpt>
      <trkpt lat="44.09988" lon="3.04029">
        <ele>521.5</ele>
        <time>2018-05-19T12:54:04Z</time>
      </trkpt>
      <trkpt lat="44.09991" lon="3.04029">
        <ele>521.9</ele>
        <time>2018-05-19T12:54:05Z</time>
      </trkpt>
      <trkpt lat="44.09995" lon="3.04031">
        <ele>521.2</ele>
        <time>2018-05-19T12:54:06Z</time>
      </trkpt>
      <trkpt lat="44.09998" lon="3.04032">
        <ele>521.6</ele>
        <time>2018-05-19T12:54:07Z</time>
      </trkpt>
      <trkpt lat="44.10002" lon="3.04034">
        <ele>520.7</ele>
        <time>2018-05-19T12:54:08Z</time>
      </trkpt>
      <trkpt lat="44.10005" lon="3.04036">
        <ele>521.1</ele>
        <time>2018-05-19T12:54:09Z</time>
      </trkpt>
      <trkpt lat="44.10009" lon="3.0404">
        <ele>520.3</ele>
        <time>2018-05-19T12:54:11Z</time>
      </trkpt>
      <trkpt lat="44.10012" lon="3.04042">
        <ele>520.7</ele>
        <time>2018-05-19T12:54:12Z</time>
      </trkpt>
      <trkpt lat="44.10016" lon="3.04044">
        <ele>520.3</ele>
        <time>2018-05-19T12:54:13Z</time>
      </trkpt>
      <trkpt lat="44.1002" lon="3.04045">
        <ele>520.6</ele>
        <time>2018-05-19T12:54:14Z</time>
      </trkpt>
      <trkpt lat="44.10024" lon="3.04045">
        <ele>521</ele>
        <time>2018-05-19T12:54:15Z</time>
      </trkpt>
      <trkpt lat="44.10028" lon="3.04046">
        <ele>521.4</ele>
        <time>2018-05-19T12:54:16Z</time>
      </trkpt>
      <trkpt lat="44.10031" lon="3.04048">
        <ele>520.6</ele>
        <time>2018-05-19T12:54:17Z</time>
      </trkpt>
      <trkpt lat="44.10035" lon="3.0405">
        <ele>521.4</ele>
        <time>2018-05-19T12:54:18Z</time>
      </trkpt>
      <trkpt lat="44.10039" lon="3.04052">
        <ele>520.5</ele>
        <time>2018-05-19T12:54:19Z</time>
      </trkpt>
      <trkpt lat="44.10042" lon="3.04053">
        <ele>520.8</ele>
        <time>2018-05-19T12:54:20Z</time>
      </trkpt>
      <trkpt lat="44.10045" lon="3.04053">
        <ele>521.1</ele>
        <time>2018-05-19T12:54:21Z</time>
      </trkpt>
      <trkpt lat="44.10047" lon="3.04054">
        <ele>521.5</ele>
        <time>2018-05-19T12:54:22Z</time>
      </trkpt>
      <trkpt lat="44.1005" lon="3.04056">
        <ele>520.7</ele>
        <time>2018-05-19T12:54:23Z</time>
      </trkpt>
      <trkpt lat="44.10053" lon="3.04057">
        <ele>520.7</ele>
        <time>2018-05-19T12:54:24Z</time>
      </trkpt>
      <trkpt lat="44.10057" lon="3.04061">
        <ele>520.2</ele>
        <time>2018-05-19T12:54:26Z</time>
      </trkpt>
      <trkpt lat="44.10061" lon="3.04064">
        <ele>519.4</ele>
        <time>2018-05-19T12:54:28Z</time>
      </trkpt>
      <trkpt lat="44.10065" lon="3.04065">
        <ele>519.6</ele>
        <time>2018-05-19T12:54:30Z</time>
      </trkpt>
      <trkpt lat="44.10069" lon="3.04065">
        <ele>520</ele>
        <time>2018-05-19T12:54:32Z</time>
      </trkpt>
      <trkpt lat="44.10073" lon="3.04065">
        <ele>520.2</ele>
        <time>2018-05-19T12:54:34Z</time>
      </trkpt>
      <trkpt lat="44.10078" lon="3.04065">
        <ele>520.5</ele>
        <time>2018-05-19T12:54:36Z</time>
      </trkpt>
      <trkpt lat="44.10082" lon="3.04065">
        <ele>520.6</ele>
        <time>2018-05-19T12:54:38Z</time>
      </trkpt>
      <trkpt lat="44.10084" lon="3.04066">
        <ele>520.7</ele>
        <time>2018-05-19T12:54:40Z</time>
      </trkpt>
      <trkpt lat="44.10087" lon="3.04069">
        <ele>519.7</ele>
        <time>2018-05-19T12:54:42Z</time>
      </trkpt>
      <trkpt lat="44.10091" lon="3.0407">
        <ele>519.9</ele>
        <time>2018-05-19T12:54:44Z</time>
      </trkpt>
      <trkpt lat="44.10094" lon="3.0407">
        <ele>520</ele>
        <time>2018-05-19T12:54:46Z</time>
      </trkpt>
      <trkpt lat="44.10098" lon="3.0407">
        <ele>520.1</ele>
        <time>2018-05-19T12:54:48Z</time>
      </trkpt>
      <trkpt lat="44.10103" lon="3.0407">
        <ele>520.5</ele>
        <time>2018-05-19T12:54:50Z</time>
      </trkpt>
      <trkpt lat="44.10108" lon="3.04069">
        <ele>520.7</ele>
        <time>2018-05-19T12:54:52Z</time>
      </trkpt>
      <trkpt lat="44.10111" lon="3.04069">
        <ele>520.9</ele>
        <time>2018-05-19T12:54:54Z</time>
      </trkpt>
      <trkpt lat="44.10114" lon="3.04069">
        <ele>521.2</ele>
        <time>2018-05-19T12:54:56Z</time>
      </trkpt>
      <trkpt lat="44.10117" lon="3.04069">
        <ele>521.4</ele>
        <time>2018-05-19T12:54:59Z</time>
      </trkpt>
      <trkpt lat="44.1012" lon="3.04068">
        <ele>522.7</ele>
        <time>2018-05-19T12:55:05Z</time>
      </trkpt>
      <trkpt lat="44.10123" lon="3.04067">
        <ele>522.9</ele>
        <time>2018-05-19T12:55:20Z</time>
      </trkpt>
      <trkpt lat="44.10126" lon="3.04069">
        <ele>522</ele>
        <time>2018-05-19T12:55:22Z</time>
      </trkpt>
      <trkpt lat="44.10128" lon="3.04073">
        <ele>521.2</ele>
        <time>2018-05-19T12:55:24Z</time>
      </trkpt>
      <trkpt lat="44.10129" lon="3.04077">
        <ele>521.2</ele>
        <time>2018-05-19T12:55:26Z</time>
      </trkpt>
      <trkpt lat="44.10133" lon="3.0408">
        <ele>520.3</ele>
        <time>2018-05-19T12:55:28Z</time>
      </trkpt>
      <trkpt lat="44.10137" lon="3.04084">
        <ele>519.5</ele>
        <time>2018-05-19T12:55:30Z</time>
      </trkpt>
      <trkpt lat="44.1014" lon="3.04087">
        <ele>518.6</ele>
        <time>2018-05-19T12:55:31Z</time>
      </trkpt>
      <trkpt lat="44.10144" lon="3.0409">
        <ele>517.8</ele>
        <time>2018-05-19T12:55:32Z</time>
      </trkpt>
      <trkpt lat="44.10148" lon="3.04093">
        <ele>518</ele>
        <time>2018-05-19T12:55:33Z</time>
      </trkpt>
      <trkpt lat="44.10155" lon="3.04098">
        <ele>517.6</ele>
        <time>2018-05-19T12:55:34Z</time>
      </trkpt>
      <trkpt lat="44.1016" lon="3.04101">
        <ele>517</ele>
        <time>2018-05-19T12:55:35Z</time>
      </trkpt>
      <trkpt lat="44.10164" lon="3.04105">
        <ele>516.7</ele>
        <time>2018-05-19T12:55:36Z</time>
      </trkpt>
      <trkpt lat="44.10167" lon="3.04108">
        <ele>516.1</ele>
        <time>2018-05-19T12:55:37Z</time>
      </trkpt>
      <trkpt lat="44.10171" lon="3.04111">
        <ele>516.4</ele>
        <time>2018-05-19T12:55:38Z</time>
      </trkpt>
      <trkpt lat="44.10176" lon="3.04114">
        <ele>516.1</ele>
        <time>2018-05-19T12:55:39Z</time>
      </trkpt>
      <trkpt lat="44.1018" lon="3.04119">
        <ele>515.5</ele>
        <time>2018-05-19T12:55:40Z</time>
      </trkpt>
      <trkpt lat="44.10184" lon="3.04124">
        <ele>515</ele>
        <time>2018-05-19T12:55:41Z</time>
      </trkpt>
      <trkpt lat="44.10187" lon="3.04128">
        <ele>514.6</ele>
        <time>2018-05-19T12:55:42Z</time>
      </trkpt>
      <trkpt lat="44.10191" lon="3.04132">
        <ele>514.2</ele>
        <time>2018-05-19T12:55:43Z</time>
      </trkpt>
      <trkpt lat="44.10197" lon="3.04136">
        <ele>514.4</ele>
        <time>2018-05-19T12:55:44Z</time>
      </trkpt>
      <trkpt lat="44.10201" lon="3.0414">
        <ele>514.2</ele>
        <time>2018-05-19T12:55:45Z</time>
      </trkpt>
      <trkpt lat="44.10203" lon="3.04143">
        <ele>514</ele>
        <time>2018-05-19T12:55:46Z</time>
      </trkpt>
      <trkpt lat="44.10206" lon="3.04146">
        <ele>513.8</ele>
        <time>2018-05-19T12:55:47Z</time>
      </trkpt>
      <trkpt lat="44.1021" lon="3.04153">
        <ele>513.6</ele>
        <time>2018-05-19T12:55:48Z</time>
      </trkpt>
      <trkpt lat="44.10212" lon="3.04161">
        <ele>512.7</ele>
        <time>2018-05-19T12:55:49Z</time>
      </trkpt>
      <trkpt lat="44.10217" lon="3.04166">
        <ele>512.9</ele>
        <time>2018-05-19T12:55:50Z</time>
      </trkpt>
      <trkpt lat="44.1022" lon="3.04169">
        <ele>512.7</ele>
        <time>2018-05-19T12:55:51Z</time>
      </trkpt>
      <trkpt lat="44.10222" lon="3.04176">
        <ele>511.4</ele>
        <time>2018-05-19T12:55:52Z</time>
      </trkpt>
      <trkpt lat="44.10224" lon="3.04179">
        <ele>511.9</ele>
        <time>2018-05-19T12:55:53Z</time>
      </trkpt>
      <trkpt lat="44.10227" lon="3.04185">
        <ele>511.2</ele>
        <time>2018-05-19T12:55:54Z</time>
      </trkpt>
      <trkpt lat="44.10232" lon="3.04191">
        <ele>511.5</ele>
        <time>2018-05-19T12:55:55Z</time>
      </trkpt>
      <trkpt lat="44.10237" lon="3.04195">
        <ele>511.3</ele>
        <time>2018-05-19T12:55:56Z</time>
      </trkpt>
      <trkpt lat="44.10242" lon="3.042">
        <ele>511.4</ele>
        <time>2018-05-19T12:55:57Z</time>
      </trkpt>
      <trkpt lat="44.10248" lon="3.04203">
        <ele>511.4</ele>
        <time>2018-05-19T12:55:58Z</time>
      </trkpt>
      <trkpt lat="44.10252" lon="3.04206">
        <ele>511.1</ele>
        <time>2018-05-19T12:55:59Z</time>
      </trkpt>
      <trkpt lat="44.10257" lon="3.0421">
        <ele>511.6</ele>
        <time>2018-05-19T12:56:00Z</time>
      </trkpt>
      <trkpt lat="44.10261" lon="3.04215">
        <ele>510.6</ele>
        <time>2018-05-19T12:56:01Z</time>
      </trkpt>
      <trkpt lat="44.10265" lon="3.04221">
        <ele>510.2</ele>
        <time>2018-05-19T12:56:02Z</time>
      </trkpt>
      <trkpt lat="44.1027" lon="3.04226">
        <ele>510.1</ele>
        <time>2018-05-19T12:56:03Z</time>
      </trkpt>
      <trkpt lat="44.10277" lon="3.04229">
        <ele>510</ele>
        <time>2018-05-19T12:56:04Z</time>
      </trkpt>
      <trkpt lat="44.10282" lon="3.04233">
        <ele>510</ele>
        <time>2018-05-19T12:56:05Z</time>
      </trkpt>
      <trkpt lat="44.10288" lon="3.0424">
        <ele>509.8</ele>
        <time>2018-05-19T12:56:06Z</time>
      </trkpt>
      <trkpt lat="44.10293" lon="3.04246">
        <ele>508.9</ele>
        <time>2018-05-19T12:56:07Z</time>
      </trkpt>
      <trkpt lat="44.10298" lon="3.04248">
        <ele>509</ele>
        <time>2018-05-19T12:56:08Z</time>
      </trkpt>
      <trkpt lat="44.10302" lon="3.04253">
        <ele>508.1</ele>
        <time>2018-05-19T12:56:09Z</time>
      </trkpt>
      <trkpt lat="44.10307" lon="3.04259">
        <ele>507.6</ele>
        <time>2018-05-19T12:56:10Z</time>
      </trkpt>
      <trkpt lat="44.10311" lon="3.04263">
        <ele>507.2</ele>
        <time>2018-05-19T12:56:11Z</time>
      </trkpt>
      <trkpt lat="44.10319" lon="3.04267">
        <ele>506.8</ele>
        <time>2018-05-19T12:56:12Z</time>
      </trkpt>
      <trkpt lat="44.10327" lon="3.04271">
        <ele>506.5</ele>
        <time>2018-05-19T12:56:13Z</time>
      </trkpt>
      <trkpt lat="44.10336" lon="3.04272">
        <ele>506.4</ele>
        <time>2018-05-19T12:56:14Z</time>
      </trkpt>
      <trkpt lat="44.10345" lon="3.04274">
        <ele>506.1</ele>
        <time>2018-05-19T12:56:15Z</time>
      </trkpt>
      <trkpt lat="44.10347" lon="3.04276">
        <ele>505.7</ele>
        <time>2018-05-19T12:56:16Z</time>
      </trkpt>
      <trkpt lat="44.10351" lon="3.04279">
        <ele>505.3</ele>
        <time>2018-05-19T12:56:17Z</time>
      </trkpt>
      <trkpt lat="44.10355" lon="3.04283">
        <ele>504.9</ele>
        <time>2018-05-19T12:56:18Z</time>
      </trkpt>
      <trkpt lat="44.1036" lon="3.04286">
        <ele>504.8</ele>
        <time>2018-05-19T12:56:20Z</time>
      </trkpt>
      <trkpt lat="44.10364" lon="3.04286">
        <ele>504.7</ele>
        <time>2018-05-19T12:56:26Z</time>
      </trkpt>
      <trkpt lat="44.10362" lon="3.0429">
        <ele>504.4</ele>
        <time>2018-05-19T12:56:34Z</time>
      </trkpt>
      <trkpt lat="44.10359" lon="3.04291">
        <ele>504.5</ele>
        <time>2018-05-19T12:56:50Z</time>
      </trkpt>
      <trkpt lat="44.10356" lon="3.04287">
        <ele>504.6</ele>
        <time>2018-05-19T12:56:59Z</time>
      </trkpt>
      <trkpt lat="44.10355" lon="3.04283">
        <ele>505</ele>
        <time>2018-05-19T12:57:01Z</time>
      </trkpt>
      <trkpt lat="44.10352" lon="3.0428">
        <ele>505.2</ele>
        <time>2018-05-19T12:57:03Z</time>
      </trkpt>
      <trkpt lat="44.10349" lon="3.04279">
        <ele>505.3</ele>
        <time>2018-05-19T12:57:05Z</time>
      </trkpt>
      <trkpt lat="44.10347" lon="3.04278">
        <ele>505.7</ele>
        <time>2018-05-19T12:57:09Z</time>
      </trkpt>
      <trkpt lat="44.10354" lon="3.04284">
        <ele>505</ele>
        <time>2018-05-19T12:58:05Z</time>
      </trkpt>
      <trkpt lat="44.10356" lon="3.04287">
        <ele>504.9</ele>
        <time>2018-05-19T12:58:07Z</time>
      </trkpt>
      <trkpt lat="44.1036" lon="3.04289">
        <ele>504.5</ele>
        <time>2018-05-19T12:58:09Z</time>
      </trkpt>
      <trkpt lat="44.10362" lon="3.04291">
        <ele>504.4</ele>
        <time>2018-05-19T12:58:10Z</time>
      </trkpt>
      <trkpt lat="44.10365" lon="3.04293">
        <ele>504.1</ele>
        <time>2018-05-19T12:58:11Z</time>
      </trkpt>
      <trkpt lat="44.10367" lon="3.04296">
        <ele>504.1</ele>
        <time>2018-05-19T12:58:12Z</time>
      </trkpt>
      <trkpt lat="44.1037" lon="3.04299">
        <ele>503.8</ele>
        <time>2018-05-19T12:58:13Z</time>
      </trkpt>
      <trkpt lat="44.10373" lon="3.04303">
        <ele>503.5</ele>
        <time>2018-05-19T12:58:14Z</time>
      </trkpt>
      <trkpt lat="44.10375" lon="3.04306">
        <ele>503.2</ele>
        <time>2018-05-19T12:58:15Z</time>
      </trkpt>
      <trkpt lat="44.10378" lon="3.0431">
        <ele>503</ele>
        <time>2018-05-19T12:58:16Z</time>
      </trkpt>
      <trkpt lat="44.1038" lon="3.04312">
        <ele>503</ele>
        <time>2018-05-19T12:58:17Z</time>
      </trkpt>
      <trkpt lat="44.10383" lon="3.04317">
        <ele>502.6</ele>
        <time>2018-05-19T12:58:19Z</time>
      </trkpt>
      <trkpt lat="44.10387" lon="3.04322">
        <ele>501.9</ele>
        <time>2018-05-19T12:58:21Z</time>
      </trkpt>
      <trkpt lat="44.1039" lon="3.04325">
        <ele>501.8</ele>
        <time>2018-05-19T12:58:23Z</time>
      </trkpt>
      <trkpt lat="44.10392" lon="3.04328">
        <ele>501.6</ele>
        <time>2018-05-19T12:58:25Z</time>
      </trkpt>
      <trkpt lat="44.10392" lon="3.04332">
        <ele>501.3</ele>
        <time>2018-05-19T12:58:31Z</time>
      </trkpt>
      <trkpt lat="44.10396" lon="3.04333">
        <ele>501.3</ele>
        <time>2018-05-19T12:58:43Z</time>
      </trkpt>
      <trkpt lat="44.10398" lon="3.04332">
        <ele>501.3</ele>
        <time>2018-05-19T12:58:47Z</time>
      </trkpt>
      <trkpt lat="44.10401" lon="3.04334">
        <ele>501</ele>
        <time>2018-05-19T12:58:53Z</time>
      </trkpt>
      <trkpt lat="44.10404" lon="3.04337">
        <ele>501</ele>
        <time>2018-05-19T12:58:59Z</time>
      </trkpt>
      <trkpt lat="44.10401" lon="3.04338">
        <ele>501</ele>
        <time>2018-05-19T12:59:16Z</time>
      </trkpt>
      <trkpt lat="44.10398" lon="3.04336">
        <ele>501</ele>
        <time>2018-05-19T12:59:19Z</time>
      </trkpt>
      <trkpt lat="44.10395" lon="3.04338">
        <ele>501</ele>
        <time>2018-05-19T12:59:23Z</time>
      </trkpt>
      <trkpt lat="44.10398" lon="3.0434">
        <ele>500.9</ele>
        <time>2018-05-19T12:59:48Z</time>
      </trkpt>
      <trkpt lat="44.104" lon="3.04337">
        <ele>501</ele>
        <time>2018-05-19T12:59:53Z</time>
      </trkpt>
      <trkpt lat="44.10397" lon="3.04338">
        <ele>501</ele>
        <time>2018-05-19T13:00:19Z</time>
      </trkpt>
      <trkpt lat="44.10399" lon="3.04335">
        <ele>501</ele>
        <time>2018-05-19T13:00:30Z</time>
      </trkpt>
      <trkpt lat="44.10402" lon="3.04337">
        <ele>501</ele>
        <time>2018-05-19T13:00:34Z</time>
      </trkpt>
      <trkpt lat="44.10404" lon="3.0434">
        <ele>500.9</ele>
        <time>2018-05-19T13:00:37Z</time>
      </trkpt>
      <trkpt lat="44.10406" lon="3.04344">
        <ele>500.8</ele>
        <time>2018-05-19T13:00:42Z</time>
      </trkpt>
      <trkpt lat="44.10408" lon="3.04347">
        <ele>500.9</ele>
        <time>2018-05-19T13:00:59Z</time>
      </trkpt>
      <trkpt lat="44.10405" lon="3.0435">
        <ele>500.9</ele>
        <time>2018-05-19T13:01:03Z</time>
      </trkpt>
      <trkpt lat="44.10404" lon="3.04354">
        <ele>501</ele>
        <time>2018-05-19T13:01:06Z</time>
      </trkpt>
      <trkpt lat="44.10404" lon="3.04359">
        <ele>501.2</ele>
        <time>2018-05-19T13:01:10Z</time>
      </trkpt>
      <trkpt lat="44.10402" lon="3.04362">
        <ele>501.5</ele>
        <time>2018-05-19T13:01:14Z</time>
      </trkpt>
      <trkpt lat="44.10402" lon="3.04366">
        <ele>501.8</ele>
        <time>2018-05-19T13:01:17Z</time>
      </trkpt>
      <trkpt lat="44.10403" lon="3.04371">
        <ele>502.1</ele>
        <time>2018-05-19T13:01:20Z</time>
      </trkpt>
      <trkpt lat="44.10404" lon="3.04376">
        <ele>502.4</ele>
        <time>2018-05-19T13:01:23Z</time>
      </trkpt>
      <trkpt lat="44.10404" lon="3.04381">
        <ele>502.6</ele>
        <time>2018-05-19T13:01:27Z</time>
      </trkpt>
      <trkpt lat="44.10405" lon="3.04385">
        <ele>502.9</ele>
        <time>2018-05-19T13:01:31Z</time>
      </trkpt>
      <trkpt lat="44.10406" lon="3.04389">
        <ele>503.1</ele>
        <time>2018-05-19T13:01:37Z</time>
      </trkpt>
      <trkpt lat="44.10407" lon="3.04393">
        <ele>503.3</ele>
        <time>2018-05-19T13:01:42Z</time>
      </trkpt>
      <trkpt lat="44.10409" lon="3.04398">
        <ele>503.4</ele>
        <time>2018-05-19T13:01:46Z</time>
      </trkpt>
      <trkpt lat="44.1041" lon="3.04401">
        <ele>503.6</ele>
        <time>2018-05-19T13:01:50Z</time>
      </trkpt>
      <trkpt lat="44.10412" lon="3.04405">
        <ele>503.8</ele>
        <time>2018-05-19T13:01:54Z</time>
      </trkpt>
      <trkpt lat="44.10415" lon="3.04408">
        <ele>504</ele>
        <time>2018-05-19T13:01:58Z</time>
      </trkpt>
      <trkpt lat="44.10417" lon="3.04411">
        <ele>504</ele>
        <time>2018-05-19T13:02:06Z</time>
      </trkpt>
      <trkpt lat="44.10418" lon="3.04415">
        <ele>504.2</ele>
        <time>2018-05-19T13:02:10Z</time>
      </trkpt>
      <trkpt lat="44.1042" lon="3.0442">
        <ele>504.5</ele>
        <time>2018-05-19T13:02:14Z</time>
      </trkpt>
      <trkpt lat="44.1042" lon="3.04423">
        <ele>504.8</ele>
        <time>2018-05-19T13:02:17Z</time>
      </trkpt>
      <trkpt lat="44.10421" lon="3.04428">
        <ele>505.1</ele>
        <time>2018-05-19T13:02:21Z</time>
      </trkpt>
      <trkpt lat="44.10422" lon="3.04432">
        <ele>505.4</ele>
        <time>2018-05-19T13:02:24Z</time>
      </trkpt>
      <trkpt lat="44.10423" lon="3.04436">
        <ele>505.7</ele>
        <time>2018-05-19T13:02:28Z</time>
      </trkpt>
      <trkpt lat="44.10425" lon="3.0444">
        <ele>506</ele>
        <time>2018-05-19T13:02:33Z</time>
      </trkpt>
      <trkpt lat="44.10422" lon="3.0444">
        <ele>506</ele>
        <time>2018-05-19T13:02:52Z</time>
      </trkpt>
      <trkpt lat="44.10415" lon="3.04436">
        <ele>505.7</ele>
        <time>2018-05-19T13:03:49Z</time>
      </trkpt>
      <trkpt lat="44.10412" lon="3.04433">
        <ele>505.4</ele>
        <time>2018-05-19T13:03:50Z</time>
      </trkpt>
      <trkpt lat="44.10408" lon="3.04429">
        <ele>505.1</ele>
        <time>2018-05-19T13:03:51Z</time>
      </trkpt>
      <trkpt lat="44.10401" lon="3.04422">
        <ele>504.9</ele>
        <time>2018-05-19T13:03:52Z</time>
      </trkpt>
      <trkpt lat="44.10397" lon="3.04418">
        <ele>504.8</ele>
        <time>2018-05-19T13:03:53Z</time>
      </trkpt>
      <trkpt lat="44.10391" lon="3.04413">
        <ele>504.7</ele>
        <time>2018-05-19T13:03:54Z</time>
      </trkpt>
      <trkpt lat="44.10386" lon="3.04409">
        <ele>504.6</ele>
        <time>2018-05-19T13:03:55Z</time>
      </trkpt>
      <trkpt lat="44.10379" lon="3.04405">
        <ele>504.4</ele>
        <time>2018-05-19T13:03:56Z</time>
      </trkpt>
      <trkpt lat="44.10373" lon="3.04402">
        <ele>504.3</ele>
        <time>2018-05-19T13:03:57Z</time>
      </trkpt>
      <trkpt lat="44.10367" lon="3.04398">
        <ele>504.2</ele>
        <time>2018-05-19T13:03:58Z</time>
      </trkpt>
      <trkpt lat="44.10358" lon="3.04395">
        <ele>504.3</ele>
        <time>2018-05-19T13:03:59Z</time>
      </trkpt>
      <trkpt lat="44.10351" lon="3.04391">
        <ele>504.2</ele>
        <time>2018-05-19T13:04:00Z</time>
      </trkpt>
      <trkpt lat="44.10345" lon="3.0439">
        <ele>504.2</ele>
        <time>2018-05-19T13:04:01Z</time>
      </trkpt>
      <trkpt lat="44.10341" lon="3.04393">
        <ele>504.3</ele>
        <time>2018-05-19T13:04:02Z</time>
      </trkpt>
      <trkpt lat="44.10337" lon="3.04395">
        <ele>504.3</ele>
        <time>2018-05-19T13:04:03Z</time>
      </trkpt>
      <trkpt lat="44.10329" lon="3.04393">
        <ele>504.3</ele>
        <time>2018-05-19T13:04:04Z</time>
      </trkpt>
      <trkpt lat="44.10324" lon="3.04393">
        <ele>504.3</ele>
        <time>2018-05-19T13:04:05Z</time>
      </trkpt>
      <trkpt lat="44.10318" lon="3.04391">
        <ele>504.2</ele>
        <time>2018-05-19T13:04:06Z</time>
      </trkpt>
      <trkpt lat="44.10313" lon="3.04391">
        <ele>504.2</ele>
        <time>2018-05-19T13:04:07Z</time>
      </trkpt>
      <trkpt lat="44.10308" lon="3.0439">
        <ele>504.1</ele>
        <time>2018-05-19T13:04:08Z</time>
      </trkpt>
      <trkpt lat="44.10303" lon="3.04389">
        <ele>504.1</ele>
        <time>2018-05-19T13:04:09Z</time>
      </trkpt>
      <trkpt lat="44.10297" lon="3.04389">
        <ele>504.1</ele>
        <time>2018-05-19T13:04:10Z</time>
      </trkpt>
      <trkpt lat="44.10293" lon="3.0439">
        <ele>504.2</ele>
        <time>2018-05-19T13:04:11Z</time>
      </trkpt>
      <trkpt lat="44.10287" lon="3.0439">
        <ele>504.2</ele>
        <time>2018-05-19T13:04:12Z</time>
      </trkpt>
      <trkpt lat="44.10283" lon="3.0439">
        <ele>504.1</ele>
        <time>2018-05-19T13:04:13Z</time>
      </trkpt>
      <trkpt lat="44.10277" lon="3.04389">
        <ele>504.2</ele>
        <time>2018-05-19T13:04:14Z</time>
      </trkpt>
      <trkpt lat="44.10273" lon="3.04388">
        <ele>504.3</ele>
        <time>2018-05-19T13:04:15Z</time>
      </trkpt>
      <trkpt lat="44.10268" lon="3.04386">
        <ele>504.2</ele>
        <time>2018-05-19T13:04:16Z</time>
      </trkpt>
      <trkpt lat="44.10264" lon="3.04383">
        <ele>504.2</ele>
        <time>2018-05-19T13:04:17Z</time>
      </trkpt>
      <trkpt lat="44.1026" lon="3.0438">
        <ele>504</ele>
        <time>2018-05-19T13:04:18Z</time>
      </trkpt>
      <trkpt lat="44.10255" lon="3.04377">
        <ele>503.8</ele>
        <time>2018-05-19T13:04:19Z</time>
      </trkpt>
      <trkpt lat="44.10252" lon="3.04375">
        <ele>503.8</ele>
        <time>2018-05-19T13:04:20Z</time>
      </trkpt>
      <trkpt lat="44.10245" lon="3.04372">
        <ele>503.7</ele>
        <time>2018-05-19T13:04:22Z</time>
      </trkpt>
      <trkpt lat="44.1024" lon="3.0437">
        <ele>504</ele>
        <time>2018-05-19T13:04:23Z</time>
      </trkpt>
      <trkpt lat="44.10236" lon="3.04369">
        <ele>504.1</ele>
        <time>2018-05-19T13:04:24Z</time>
      </trkpt>
      <trkpt lat="44.10231" lon="3.04366">
        <ele>504.3</ele>
        <time>2018-05-19T13:04:25Z</time>
      </trkpt>
      <trkpt lat="44.10226" lon="3.04364">
        <ele>504.4</ele>
        <time>2018-05-19T13:04:26Z</time>
      </trkpt>
      <trkpt lat="44.10223" lon="3.04362">
        <ele>504.4</ele>
        <time>2018-05-19T13:04:27Z</time>
      </trkpt>
      <trkpt lat="44.1022" lon="3.0436">
        <ele>504.5</ele>
        <time>2018-05-19T13:04:28Z</time>
      </trkpt>
      <trkpt lat="44.10216" lon="3.04359">
        <ele>504.3</ele>
        <time>2018-05-19T13:04:29Z</time>
      </trkpt>
      <trkpt lat="44.10212" lon="3.04357">
        <ele>504.2</ele>
        <time>2018-05-19T13:04:31Z</time>
      </trkpt>
      <trkpt lat="44.10209" lon="3.04356">
        <ele>504.2</ele>
        <time>2018-05-19T13:04:32Z</time>
      </trkpt>
      <trkpt lat="44.10206" lon="3.04354">
        <ele>503.6</ele>
        <time>2018-05-19T13:04:33Z</time>
      </trkpt>
      <trkpt lat="44.10203" lon="3.04353">
        <ele>503.5</ele>
        <time>2018-05-19T13:04:34Z</time>
      </trkpt>
      <trkpt lat="44.102" lon="3.04351">
        <ele>502.9</ele>
        <time>2018-05-19T13:04:35Z</time>
      </trkpt>
      <trkpt lat="44.10196" lon="3.04349">
        <ele>502.7</ele>
        <time>2018-05-19T13:04:36Z</time>
      </trkpt>
      <trkpt lat="44.10193" lon="3.04347">
        <ele>502</ele>
        <time>2018-05-19T13:04:37Z</time>
      </trkpt>
      <trkpt lat="44.10189" lon="3.04344">
        <ele>501.8</ele>
        <time>2018-05-19T13:04:38Z</time>
      </trkpt>
      <trkpt lat="44.10185" lon="3.04341">
        <ele>500.9</ele>
        <time>2018-05-19T13:04:39Z</time>
      </trkpt>
      <trkpt lat="44.10182" lon="3.04339">
        <ele>500.7</ele>
        <time>2018-05-19T13:04:40Z</time>
      </trkpt>
      <trkpt lat="44.10179" lon="3.04337">
        <ele>500.1</ele>
        <time>2018-05-19T13:04:41Z</time>
      </trkpt>
      <trkpt lat="44.10175" lon="3.04335">
        <ele>499.9</ele>
        <time>2018-05-19T13:04:42Z</time>
      </trkpt>
      <trkpt lat="44.10171" lon="3.04333">
        <ele>499.4</ele>
        <time>2018-05-19T13:04:43Z</time>
      </trkpt>
      <trkpt lat="44.10168" lon="3.04332">
        <ele>499.3</ele>
        <time>2018-05-19T13:04:44Z</time>
      </trkpt>
      <trkpt lat="44.10164" lon="3.0433">
        <ele>499.3</ele>
        <time>2018-05-19T13:04:46Z</time>
      </trkpt>
      <trkpt lat="44.10159" lon="3.04327">
        <ele>498.8</ele>
        <time>2018-05-19T13:05:50Z</time>
      </trkpt>
      <trkpt lat="44.10154" lon="3.04325">
        <ele>498.3</ele>
        <time>2018-05-19T13:05:53Z</time>
      </trkpt>
      <trkpt lat="44.10151" lon="3.04324">
        <ele>498.3</ele>
        <time>2018-05-19T13:05:54Z</time>
      </trkpt>
      <trkpt lat="44.10147" lon="3.04321">
        <ele>497.5</ele>
        <time>2018-05-19T13:05:56Z</time>
      </trkpt>
      <trkpt lat="44.10143" lon="3.04319">
        <ele>497.5</ele>
        <time>2018-05-19T13:05:58Z</time>
      </trkpt>
      <trkpt lat="44.10136" lon="3.04315">
        <ele>496.8</ele>
        <time>2018-05-19T13:05:59Z</time>
      </trkpt>
      <trkpt lat="44.1013" lon="3.0431">
        <ele>496.3</ele>
        <time>2018-05-19T13:06:00Z</time>
      </trkpt>
      <trkpt lat="44.10125" lon="3.04309">
        <ele>496.3</ele>
        <time>2018-05-19T13:06:01Z</time>
      </trkpt>
      <trkpt lat="44.10119" lon="3.04308">
        <ele>495.9</ele>
        <time>2018-05-19T13:06:02Z</time>
      </trkpt>
      <trkpt lat="44.10112" lon="3.04307">
        <ele>496.1</ele>
        <time>2018-05-19T13:06:03Z</time>
      </trkpt>
      <trkpt lat="44.10108" lon="3.04306">
        <ele>496.2</ele>
        <time>2018-05-19T13:06:04Z</time>
      </trkpt>
      <trkpt lat="44.10102" lon="3.04304">
        <ele>495.9</ele>
        <time>2018-05-19T13:06:05Z</time>
      </trkpt>
      <trkpt lat="44.10094" lon="3.04303">
        <ele>496</ele>
        <time>2018-05-19T13:06:06Z</time>
      </trkpt>
      <trkpt lat="44.10086" lon="3.04302">
        <ele>496.2</ele>
        <time>2018-05-19T13:06:07Z</time>
      </trkpt>
      <trkpt lat="44.1008" lon="3.043">
        <ele>496.3</ele>
        <time>2018-05-19T13:06:08Z</time>
      </trkpt>
      <trkpt lat="44.10074" lon="3.04299">
        <ele>495.9</ele>
        <time>2018-05-19T13:06:09Z</time>
      </trkpt>
      <trkpt lat="44.10067" lon="3.04299">
        <ele>496.1</ele>
        <time>2018-05-19T13:06:10Z</time>
      </trkpt>
      <trkpt lat="44.10061" lon="3.04296">
        <ele>496.3</ele>
        <time>2018-05-19T13:06:11Z</time>
      </trkpt>
      <trkpt lat="44.10055" lon="3.04293">
        <ele>495.9</ele>
        <time>2018-05-19T13:06:12Z</time>
      </trkpt>
      <trkpt lat="44.10049" lon="3.0429">
        <ele>495.6</ele>
        <time>2018-05-19T13:06:13Z</time>
      </trkpt>
      <trkpt lat="44.10042" lon="3.04288">
        <ele>495.7</ele>
        <time>2018-05-19T13:06:14Z</time>
      </trkpt>
      <trkpt lat="44.10035" lon="3.04286">
        <ele>495.2</ele>
        <time>2018-05-19T13:06:15Z</time>
      </trkpt>
      <trkpt lat="44.10027" lon="3.04283">
        <ele>495.1</ele>
        <time>2018-05-19T13:06:16Z</time>
      </trkpt>
      <trkpt lat="44.10021" lon="3.0428">
        <ele>494.4</ele>
        <time>2018-05-19T13:06:17Z</time>
      </trkpt>
      <trkpt lat="44.10014" lon="3.04276">
        <ele>493.7</ele>
        <time>2018-05-19T13:06:18Z</time>
      </trkpt>
      <trkpt lat="44.10008" lon="3.04273">
        <ele>492.8</ele>
        <time>2018-05-19T13:06:19Z</time>
      </trkpt>
      <trkpt lat="44.10004" lon="3.04269">
        <ele>491.9</ele>
        <time>2018-05-19T13:06:20Z</time>
      </trkpt>
      <trkpt lat="44.09999" lon="3.04266">
        <ele>491.8</ele>
        <time>2018-05-19T13:06:21Z</time>
      </trkpt>
      <trkpt lat="44.09994" lon="3.04264">
        <ele>490.9</ele>
        <time>2018-05-19T13:06:22Z</time>
      </trkpt>
      <trkpt lat="44.0999" lon="3.04261">
        <ele>490.8</ele>
        <time>2018-05-19T13:06:23Z</time>
      </trkpt>
      <trkpt lat="44.09985" lon="3.04259">
        <ele>489.8</ele>
        <time>2018-05-19T13:06:24Z</time>
      </trkpt>
      <trkpt lat="44.09982" lon="3.04258">
        <ele>489.7</ele>
        <time>2018-05-19T13:06:25Z</time>
      </trkpt>
      <trkpt lat="44.09977" lon="3.04256">
        <ele>488.9</ele>
        <time>2018-05-19T13:06:26Z</time>
      </trkpt>
      <trkpt lat="44.09972" lon="3.04256">
        <ele>488.4</ele>
        <time>2018-05-19T13:06:27Z</time>
      </trkpt>
      <trkpt lat="44.09967" lon="3.04255">
        <ele>487.9</ele>
        <time>2018-05-19T13:06:28Z</time>
      </trkpt>
      <trkpt lat="44.09962" lon="3.04253">
        <ele>487.6</ele>
        <time>2018-05-19T13:06:29Z</time>
      </trkpt>
      <trkpt lat="44.09957" lon="3.04253">
        <ele>486.2</ele>
        <time>2018-05-19T13:06:30Z</time>
      </trkpt>
      <trkpt lat="44.09952" lon="3.04252">
        <ele>485.9</ele>
        <time>2018-05-19T13:06:31Z</time>
      </trkpt>
      <trkpt lat="44.09946" lon="3.04251">
        <ele>485</ele>
        <time>2018-05-19T13:06:33Z</time>
      </trkpt>
      <trkpt lat="44.09939" lon="3.04251">
        <ele>483.5</ele>
        <time>2018-05-19T13:06:34Z</time>
      </trkpt>
      <trkpt lat="44.0993" lon="3.04253">
        <ele>482.6</ele>
        <time>2018-05-19T13:06:36Z</time>
      </trkpt>
      <trkpt lat="44.09925" lon="3.04256">
        <ele>482.4</ele>
        <time>2018-05-19T13:06:37Z</time>
      </trkpt>
      <trkpt lat="44.09921" lon="3.04257">
        <ele>482</ele>
        <time>2018-05-19T13:06:38Z</time>
      </trkpt>
      <trkpt lat="44.09915" lon="3.04256">
        <ele>481.1</ele>
        <time>2018-05-19T13:06:39Z</time>
      </trkpt>
      <trkpt lat="44.09908" lon="3.04257">
        <ele>479.8</ele>
        <time>2018-05-19T13:06:40Z</time>
      </trkpt>
      <trkpt lat="44.099" lon="3.04258">
        <ele>479.8</ele>
        <time>2018-05-19T13:06:41Z</time>
      </trkpt>
      <trkpt lat="44.09891" lon="3.0426">
        <ele>478.6</ele>
        <time>2018-05-19T13:06:42Z</time>
      </trkpt>
      <trkpt lat="44.09884" lon="3.04261">
        <ele>477.5</ele>
        <time>2018-05-19T13:06:43Z</time>
      </trkpt>
      <trkpt lat="44.09877" lon="3.04263">
        <ele>477.5</ele>
        <time>2018-05-19T13:06:44Z</time>
      </trkpt>
      <trkpt lat="44.0987" lon="3.04266">
        <ele>477.5</ele>
        <time>2018-05-19T13:06:45Z</time>
      </trkpt>
      <trkpt lat="44.09863" lon="3.04269">
        <ele>476.7</ele>
        <time>2018-05-19T13:06:46Z</time>
      </trkpt>
      <trkpt lat="44.09856" lon="3.04273">
        <ele>476.5</ele>
        <time>2018-05-19T13:06:47Z</time>
      </trkpt>
      <trkpt lat="44.09849" lon="3.04276">
        <ele>476.1</ele>
        <time>2018-05-19T13:06:48Z</time>
      </trkpt>
      <trkpt lat="44.09841" lon="3.04278">
        <ele>475.4</ele>
        <time>2018-05-19T13:06:49Z</time>
      </trkpt>
      <trkpt lat="44.09833" lon="3.04277">
        <ele>474.4</ele>
        <time>2018-05-19T13:06:50Z</time>
      </trkpt>
      <trkpt lat="44.09825" lon="3.04276">
        <ele>473.7</ele>
        <time>2018-05-19T13:06:51Z</time>
      </trkpt>
      <trkpt lat="44.09818" lon="3.04275">
        <ele>472.9</ele>
        <time>2018-05-19T13:06:52Z</time>
      </trkpt>
      <trkpt lat="44.09812" lon="3.04276">
        <ele>472.3</ele>
        <time>2018-05-19T13:06:53Z</time>
      </trkpt>
      <trkpt lat="44.09806" lon="3.04276">
        <ele>471.6</ele>
        <time>2018-05-19T13:06:54Z</time>
      </trkpt>
      <trkpt lat="44.09802" lon="3.04274">
        <ele>471.2</ele>
        <time>2018-05-19T13:06:55Z</time>
      </trkpt>
      <trkpt lat="44.09799" lon="3.04273">
        <ele>470.3</ele>
        <time>2018-05-19T13:06:56Z</time>
      </trkpt>
      <trkpt lat="44.09796" lon="3.04272">
        <ele>469.9</ele>
        <time>2018-05-19T13:06:57Z</time>
      </trkpt>
      <trkpt lat="44.09791" lon="3.04271">
        <ele>469.3</ele>
        <time>2018-05-19T13:06:59Z</time>
      </trkpt>
      <trkpt lat="44.09787" lon="3.04271">
        <ele>468.9</ele>
        <time>2018-05-19T13:07:01Z</time>
      </trkpt>
      <trkpt lat="44.09785" lon="3.04274">
        <ele>468.4</ele>
        <time>2018-05-19T13:07:21Z</time>
      </trkpt>
      <trkpt lat="44.09784" lon="3.04277">
        <ele>469</ele>
        <time>2018-05-19T13:07:29Z</time>
      </trkpt>
      <trkpt lat="44.0978" lon="3.04275">
        <ele>468.6</ele>
        <time>2018-05-19T13:07:48Z</time>
      </trkpt>
      <trkpt lat="44.09776" lon="3.04277">
        <ele>468.1</ele>
        <time>2018-05-19T13:07:50Z</time>
      </trkpt>
      <trkpt lat="44.0977" lon="3.04277">
        <ele>467.2</ele>
        <time>2018-05-19T13:07:52Z</time>
      </trkpt>
      <trkpt lat="44.09766" lon="3.04276">
        <ele>466.4</ele>
        <time>2018-05-19T13:07:53Z</time>
      </trkpt>
      <trkpt lat="44.09758" lon="3.04273">
        <ele>465</ele>
        <time>2018-05-19T13:07:54Z</time>
      </trkpt>
      <trkpt lat="44.09754" lon="3.04271">
        <ele>464.6</ele>
        <time>2018-05-19T13:07:55Z</time>
      </trkpt>
      <trkpt lat="44.09752" lon="3.04273">
        <ele>464.2</ele>
        <time>2018-05-19T13:07:56Z</time>
      </trkpt>
      <trkpt lat="44.09749" lon="3.04278">
        <ele>464.4</ele>
        <time>2018-05-19T13:07:57Z</time>
      </trkpt>
      <trkpt lat="44.09744" lon="3.04283">
        <ele>465</ele>
        <time>2018-05-19T13:07:58Z</time>
      </trkpt>
      <trkpt lat="44.09738" lon="3.04288">
        <ele>465</ele>
        <time>2018-05-19T13:08:00Z</time>
      </trkpt>
      <trkpt lat="44.09734" lon="3.04291">
        <ele>464.7</ele>
        <time>2018-05-19T13:08:01Z</time>
      </trkpt>
      <trkpt lat="44.09729" lon="3.04293">
        <ele>464.9</ele>
        <time>2018-05-19T13:08:02Z</time>
      </trkpt>
      <trkpt lat="44.09723" lon="3.04296">
        <ele>465.1</ele>
        <time>2018-05-19T13:08:03Z</time>
      </trkpt>
      <trkpt lat="44.09719" lon="3.04298">
        <ele>464.7</ele>
        <time>2018-05-19T13:08:04Z</time>
      </trkpt>
      <trkpt lat="44.09714" lon="3.04298">
        <ele>464.3</ele>
        <time>2018-05-19T13:08:05Z</time>
      </trkpt>
      <trkpt lat="44.0971" lon="3.04298">
        <ele>463.6</ele>
        <time>2018-05-19T13:08:06Z</time>
      </trkpt>
      <trkpt lat="44.09707" lon="3.04298">
        <ele>463.3</ele>
        <time>2018-05-19T13:08:07Z</time>
      </trkpt>
      <trkpt lat="44.09703" lon="3.04298">
        <ele>463</ele>
        <time>2018-05-19T13:08:08Z</time>
      </trkpt>
      <trkpt lat="44.09698" lon="3.04296">
        <ele>462.2</ele>
        <time>2018-05-19T13:08:09Z</time>
      </trkpt>
      <trkpt lat="44.09693" lon="3.04295">
        <ele>460.7</ele>
        <time>2018-05-19T13:08:10Z</time>
      </trkpt>
      <trkpt lat="44.09683" lon="3.04293">
        <ele>458.9</ele>
        <time>2018-05-19T13:08:11Z</time>
      </trkpt>
      <trkpt lat="44.09679" lon="3.04293">
        <ele>458.4</ele>
        <time>2018-05-19T13:08:12Z</time>
      </trkpt>
      <trkpt lat="44.09674" lon="3.04293">
        <ele>457.9</ele>
        <time>2018-05-19T13:08:13Z</time>
      </trkpt>
      <trkpt lat="44.0967" lon="3.04292">
        <ele>456.9</ele>
        <time>2018-05-19T13:08:15Z</time>
      </trkpt>
      <trkpt lat="44.09667" lon="3.04295">
        <ele>456.3</ele>
        <time>2018-05-19T13:08:17Z</time>
      </trkpt>
      <trkpt lat="44.09663" lon="3.04296">
        <ele>455.8</ele>
        <time>2018-05-19T13:08:19Z</time>
      </trkpt>
      <trkpt lat="44.0966" lon="3.04296">
        <ele>456.3</ele>
        <time>2018-05-19T13:08:20Z</time>
      </trkpt>
      <trkpt lat="44.09657" lon="3.04296">
        <ele>455.8</ele>
        <time>2018-05-19T13:08:21Z</time>
      </trkpt>
      <trkpt lat="44.09654" lon="3.04297">
        <ele>455.3</ele>
        <time>2018-05-19T13:08:22Z</time>
      </trkpt>
      <trkpt lat="44.09651" lon="3.04297">
        <ele>454.9</ele>
        <time>2018-05-19T13:08:23Z</time>
      </trkpt>
      <trkpt lat="44.09648" lon="3.04298">
        <ele>454.4</ele>
        <time>2018-05-19T13:08:24Z</time>
      </trkpt>
      <trkpt lat="44.09645" lon="3.04299">
        <ele>453.9</ele>
        <time>2018-05-19T13:08:25Z</time>
      </trkpt>
      <trkpt lat="44.09641" lon="3.04301">
        <ele>454.5</ele>
        <time>2018-05-19T13:08:27Z</time>
      </trkpt>
      <trkpt lat="44.09638" lon="3.04304">
        <ele>454</ele>
        <time>2018-05-19T13:08:29Z</time>
      </trkpt>
      <trkpt lat="44.09634" lon="3.04306">
        <ele>454.5</ele>
        <time>2018-05-19T13:08:31Z</time>
      </trkpt>
      <trkpt lat="44.0963" lon="3.04308">
        <ele>453.5</ele>
        <time>2018-05-19T13:08:33Z</time>
      </trkpt>
      <trkpt lat="44.09627" lon="3.04309">
        <ele>454.1</ele>
        <time>2018-05-19T13:08:35Z</time>
      </trkpt>
      <trkpt lat="44.09624" lon="3.0431">
        <ele>453.7</ele>
        <time>2018-05-19T13:08:50Z</time>
      </trkpt>
      <trkpt lat="44.09622" lon="3.0431">
        <ele>453.7</ele>
        <time>2018-05-19T13:09:04Z</time>
      </trkpt>
      <trkpt lat="44.09619" lon="3.04309">
        <ele>453.3</ele>
        <time>2018-05-19T13:09:05Z</time>
      </trkpt>
      <trkpt lat="44.09614" lon="3.04308">
        <ele>451.3</ele>
        <time>2018-05-19T13:09:06Z</time>
      </trkpt>
      <trkpt lat="44.0961" lon="3.04307">
        <ele>450.9</ele>
        <time>2018-05-19T13:09:07Z</time>
      </trkpt>
      <trkpt lat="44.09604" lon="3.04307">
        <ele>450</ele>
        <time>2018-05-19T13:09:08Z</time>
      </trkpt>
      <trkpt lat="44.09599" lon="3.04308">
        <ele>449.3</ele>
        <time>2018-05-19T13:09:09Z</time>
      </trkpt>
      <trkpt lat="44.09593" lon="3.04308">
        <ele>448.8</ele>
        <time>2018-05-19T13:09:10Z</time>
      </trkpt>
      <trkpt lat="44.09588" lon="3.04309">
        <ele>449.2</ele>
        <time>2018-05-19T13:09:11Z</time>
      </trkpt>
      <trkpt lat="44.09582" lon="3.0431">
        <ele>448.9</ele>
        <time>2018-05-19T13:09:12Z</time>
      </trkpt>
      <trkpt lat="44.09576" lon="3.0431">
        <ele>448.2</ele>
        <time>2018-05-19T13:09:13Z</time>
      </trkpt>
      <trkpt lat="44.09571" lon="3.04312">
        <ele>447.8</ele>
        <time>2018-05-19T13:09:14Z</time>
      </trkpt>
      <trkpt lat="44.09566" lon="3.04311">
        <ele>447.3</ele>
        <time>2018-05-19T13:09:15Z</time>
      </trkpt>
      <trkpt lat="44.0956" lon="3.0431">
        <ele>446.7</ele>
        <time>2018-05-19T13:09:16Z</time>
      </trkpt>
      <trkpt lat="44.09554" lon="3.04309">
        <ele>446</ele>
        <time>2018-05-19T13:09:17Z</time>
      </trkpt>
      <trkpt lat="44.09545" lon="3.04309">
        <ele>445.1</ele>
        <time>2018-05-19T13:09:18Z</time>
      </trkpt>
      <trkpt lat="44.0954" lon="3.0431">
        <ele>444.4</ele>
        <time>2018-05-19T13:09:19Z</time>
      </trkpt>
      <trkpt lat="44.09534" lon="3.04313">
        <ele>443.5</ele>
        <time>2018-05-19T13:09:20Z</time>
      </trkpt>
      <trkpt lat="44.09528" lon="3.04316">
        <ele>443.6</ele>
        <time>2018-05-19T13:09:21Z</time>
      </trkpt>
      <trkpt lat="44.09524" lon="3.04317">
        <ele>444.1</ele>
        <time>2018-05-19T13:09:22Z</time>
      </trkpt>
      <trkpt lat="44.09518" lon="3.04319">
        <ele>443.1</ele>
        <time>2018-05-19T13:09:23Z</time>
      </trkpt>
      <trkpt lat="44.09515" lon="3.04319">
        <ele>442.6</ele>
        <time>2018-05-19T13:09:24Z</time>
      </trkpt>
      <trkpt lat="44.09512" lon="3.0432">
        <ele>442.2</ele>
        <time>2018-05-19T13:09:25Z</time>
      </trkpt>
      <trkpt lat="44.09508" lon="3.04323">
        <ele>443.5</ele>
        <time>2018-05-19T13:09:26Z</time>
      </trkpt>
      <trkpt lat="44.09505" lon="3.04325">
        <ele>443</ele>
        <time>2018-05-19T13:09:27Z</time>
      </trkpt>
      <trkpt lat="44.09502" lon="3.04328">
        <ele>443.7</ele>
        <time>2018-05-19T13:09:28Z</time>
      </trkpt>
      <trkpt lat="44.09498" lon="3.0433">
        <ele>443.1</ele>
        <time>2018-05-19T13:09:29Z</time>
      </trkpt>
      <trkpt lat="44.09495" lon="3.04332">
        <ele>443.2</ele>
        <time>2018-05-19T13:09:30Z</time>
      </trkpt>
      <trkpt lat="44.09493" lon="3.04333">
        <ele>443.2</ele>
        <time>2018-05-19T13:09:31Z</time>
      </trkpt>
      <trkpt lat="44.09489" lon="3.04334">
        <ele>442.7</ele>
        <time>2018-05-19T13:09:32Z</time>
      </trkpt>
      <trkpt lat="44.09485" lon="3.04335">
        <ele>442.9</ele>
        <time>2018-05-19T13:09:33Z</time>
      </trkpt>
      <trkpt lat="44.0948" lon="3.04337">
        <ele>442.4</ele>
        <time>2018-05-19T13:09:34Z</time>
      </trkpt>
      <trkpt lat="44.09476" lon="3.04338">
        <ele>441.2</ele>
        <time>2018-05-19T13:09:35Z</time>
      </trkpt>
      <trkpt lat="44.09472" lon="3.0434">
        <ele>441.9</ele>
        <time>2018-05-19T13:09:36Z</time>
      </trkpt>
      <trkpt lat="44.09469" lon="3.04341">
        <ele>441.2</ele>
        <time>2018-05-19T13:09:37Z</time>
      </trkpt>
      <trkpt lat="44.09466" lon="3.04341">
        <ele>440.7</ele>
        <time>2018-05-19T13:09:38Z</time>
      </trkpt>
      <trkpt lat="44.09462" lon="3.04342">
        <ele>440.1</ele>
        <time>2018-05-19T13:09:40Z</time>
      </trkpt>
      <trkpt lat="44.09459" lon="3.04342">
        <ele>439.6</ele>
        <time>2018-05-19T13:09:43Z</time>
      </trkpt>
      <trkpt lat="44.09455" lon="3.04343">
        <ele>439.9</ele>
        <time>2018-05-19T13:09:45Z</time>
      </trkpt>
      <trkpt lat="44.09452" lon="3.04344">
        <ele>439.4</ele>
        <time>2018-05-19T13:09:46Z</time>
      </trkpt>
      <trkpt lat="44.09449" lon="3.04345">
        <ele>439.4</ele>
        <time>2018-05-19T13:09:47Z</time>
      </trkpt>
      <trkpt lat="44.09446" lon="3.04345">
        <ele>438.8</ele>
        <time>2018-05-19T13:09:48Z</time>
      </trkpt>
      <trkpt lat="44.09442" lon="3.04346">
        <ele>437.8</ele>
        <time>2018-05-19T13:09:49Z</time>
      </trkpt>
      <trkpt lat="44.09436" lon="3.04346">
        <ele>436.8</ele>
        <time>2018-05-19T13:09:50Z</time>
      </trkpt>
      <trkpt lat="44.09429" lon="3.04346">
        <ele>435.9</ele>
        <time>2018-05-19T13:09:51Z</time>
      </trkpt>
      <trkpt lat="44.09421" lon="3.04344">
        <ele>434.6</ele>
        <time>2018-05-19T13:09:52Z</time>
      </trkpt>
      <trkpt lat="44.09413" lon="3.04343">
        <ele>432.1</ele>
        <time>2018-05-19T13:09:53Z</time>
      </trkpt>
      <trkpt lat="44.09406" lon="3.04341">
        <ele>430.9</ele>
        <time>2018-05-19T13:09:54Z</time>
      </trkpt>
      <trkpt lat="44.09398" lon="3.04341">
        <ele>430.3</ele>
        <time>2018-05-19T13:09:55Z</time>
      </trkpt>
      <trkpt lat="44.09389" lon="3.0434">
        <ele>429.2</ele>
        <time>2018-05-19T13:09:56Z</time>
      </trkpt>
      <trkpt lat="44.09384" lon="3.04342">
        <ele>428.6</ele>
        <time>2018-05-19T13:09:57Z</time>
      </trkpt>
      <trkpt lat="44.09379" lon="3.04343">
        <ele>429.6</ele>
        <time>2018-05-19T13:09:58Z</time>
      </trkpt>
      <trkpt lat="44.09377" lon="3.04346">
        <ele>429.3</ele>
        <time>2018-05-19T13:09:59Z</time>
      </trkpt>
      <trkpt lat="44.09373" lon="3.04352">
        <ele>431.5</ele>
        <time>2018-05-19T13:10:00Z</time>
      </trkpt>
      <trkpt lat="44.09371" lon="3.04356">
        <ele>432.3</ele>
        <time>2018-05-19T13:10:01Z</time>
      </trkpt>
      <trkpt lat="44.09368" lon="3.04359">
        <ele>431.9</ele>
        <time>2018-05-19T13:10:02Z</time>
      </trkpt>
      <trkpt lat="44.09366" lon="3.04362">
        <ele>432.5</ele>
        <time>2018-05-19T13:10:04Z</time>
      </trkpt>
      <trkpt lat="44.09363" lon="3.04366">
        <ele>433.5</ele>
        <time>2018-05-19T13:10:06Z</time>
      </trkpt>
      <trkpt lat="44.09364" lon="3.04371">
        <ele>434.4</ele>
        <time>2018-05-19T13:10:07Z</time>
      </trkpt>
      <trkpt lat="44.09362" lon="3.04374">
        <ele>434.8</ele>
        <time>2018-05-19T13:10:08Z</time>
      </trkpt>
      <trkpt lat="44.0936" lon="3.04379">
        <ele>435.1</ele>
        <time>2018-05-19T13:10:09Z</time>
      </trkpt>
      <trkpt lat="44.09357" lon="3.04383">
        <ele>435.9</ele>
        <time>2018-05-19T13:10:10Z</time>
      </trkpt>
      <trkpt lat="44.09355" lon="3.04389">
        <ele>436.2</ele>
        <time>2018-05-19T13:10:11Z</time>
      </trkpt>
      <trkpt lat="44.09352" lon="3.04395">
        <ele>437.2</ele>
        <time>2018-05-19T13:10:12Z</time>
      </trkpt>
      <trkpt lat="44.09349" lon="3.04401">
        <ele>437.4</ele>
        <time>2018-05-19T13:10:13Z</time>
      </trkpt>
      <trkpt lat="44.09346" lon="3.04407">
        <ele>437.6</ele>
        <time>2018-05-19T13:10:14Z</time>
      </trkpt>
      <trkpt lat="44.0934" lon="3.04414">
        <ele>437.6</ele>
        <time>2018-05-19T13:10:15Z</time>
      </trkpt>
      <trkpt lat="44.09337" lon="3.04421">
        <ele>437.8</ele>
        <time>2018-05-19T13:10:16Z</time>
      </trkpt>
      <trkpt lat="44.09335" lon="3.0443">
        <ele>437.8</ele>
        <time>2018-05-19T13:10:17Z</time>
      </trkpt>
      <trkpt lat="44.0933" lon="3.04438">
        <ele>437.6</ele>
        <time>2018-05-19T13:10:18Z</time>
      </trkpt>
      <trkpt lat="44.09327" lon="3.04447">
        <ele>437.2</ele>
        <time>2018-05-19T13:10:19Z</time>
      </trkpt>
      <trkpt lat="44.09323" lon="3.04455">
        <ele>436.6</ele>
        <time>2018-05-19T13:10:20Z</time>
      </trkpt>
      <trkpt lat="44.09321" lon="3.04464">
        <ele>436</ele>
        <time>2018-05-19T13:10:21Z</time>
      </trkpt>
      <trkpt lat="44.09318" lon="3.04473">
        <ele>435.4</ele>
        <time>2018-05-19T13:10:22Z</time>
      </trkpt>
      <trkpt lat="44.09317" lon="3.04483">
        <ele>435.3</ele>
        <time>2018-05-19T13:10:23Z</time>
      </trkpt>
      <trkpt lat="44.09315" lon="3.04492">
        <ele>434.5</ele>
        <time>2018-05-19T13:10:24Z</time>
      </trkpt>
      <trkpt lat="44.09315" lon="3.04502">
        <ele>434</ele>
        <time>2018-05-19T13:10:25Z</time>
      </trkpt>
      <trkpt lat="44.09314" lon="3.04511">
        <ele>433.7</ele>
        <time>2018-05-19T13:10:26Z</time>
      </trkpt>
      <trkpt lat="44.09314" lon="3.04521">
        <ele>433.3</ele>
        <time>2018-05-19T13:10:27Z</time>
      </trkpt>
      <trkpt lat="44.09316" lon="3.04531">
        <ele>432.9</ele>
        <time>2018-05-19T13:10:28Z</time>
      </trkpt>
      <trkpt lat="44.09316" lon="3.0454">
        <ele>432.4</ele>
        <time>2018-05-19T13:10:29Z</time>
      </trkpt>
      <trkpt lat="44.09318" lon="3.04549">
        <ele>432.6</ele>
        <time>2018-05-19T13:10:30Z</time>
      </trkpt>
      <trkpt lat="44.09321" lon="3.04557">
        <ele>433.2</ele>
        <time>2018-05-19T13:10:31Z</time>
      </trkpt>
      <trkpt lat="44.09324" lon="3.04564">
        <ele>433.5</ele>
        <time>2018-05-19T13:10:32Z</time>
      </trkpt>
      <trkpt lat="44.09327" lon="3.0457">
        <ele>434</ele>
        <time>2018-05-19T13:10:33Z</time>
      </trkpt>
      <trkpt lat="44.0933" lon="3.04577">
        <ele>434.2</ele>
        <time>2018-05-19T13:10:34Z</time>
      </trkpt>
      <trkpt lat="44.09333" lon="3.04586">
        <ele>434.4</ele>
        <time>2018-05-19T13:10:35Z</time>
      </trkpt>
      <trkpt lat="44.09337" lon="3.04592">
        <ele>434.7</ele>
        <time>2018-05-19T13:10:36Z</time>
      </trkpt>
      <trkpt lat="44.0934" lon="3.04598">
        <ele>435.3</ele>
        <time>2018-05-19T13:10:37Z</time>
      </trkpt>
      <trkpt lat="44.09345" lon="3.04603">
        <ele>436.6</ele>
        <time>2018-05-19T13:10:38Z</time>
      </trkpt>
      <trkpt lat="44.09349" lon="3.04608">
        <ele>437</ele>
        <time>2018-05-19T13:10:39Z</time>
      </trkpt>
      <trkpt lat="44.09353" lon="3.04612">
        <ele>438</ele>
        <time>2018-05-19T13:10:40Z</time>
      </trkpt>
      <trkpt lat="44.09356" lon="3.04615">
        <ele>438</ele>
        <time>2018-05-19T13:10:41Z</time>
      </trkpt>
      <trkpt lat="44.09359" lon="3.04618">
        <ele>438</ele>
        <time>2018-05-19T13:10:42Z</time>
      </trkpt>
      <trkpt lat="44.09363" lon="3.04622">
        <ele>438</ele>
        <time>2018-05-19T13:10:44Z</time>
      </trkpt>
      <trkpt lat="44.09364" lon="3.04629">
        <ele>438</ele>
        <time>2018-05-19T13:10:46Z</time>
      </trkpt>
      <trkpt lat="44.09364" lon="3.04635">
        <ele>438</ele>
        <time>2018-05-19T13:10:47Z</time>
      </trkpt>
      <trkpt lat="44.09364" lon="3.04639">
        <ele>438</ele>
        <time>2018-05-19T13:10:48Z</time>
      </trkpt>
      <trkpt lat="44.09364" lon="3.04644">
        <ele>438</ele>
        <time>2018-05-19T13:10:50Z</time>
      </trkpt>
      <trkpt lat="44.09362" lon="3.0465">
        <ele>438</ele>
        <time>2018-05-19T13:10:52Z</time>
      </trkpt>
      <trkpt lat="44.09361" lon="3.04654">
        <ele>438.1</ele>
        <time>2018-05-19T13:10:54Z</time>
      </trkpt>
      <trkpt lat="44.09358" lon="3.04658">
        <ele>438.2</ele>
        <time>2018-05-19T13:10:56Z</time>
      </trkpt>
      <trkpt lat="44.09355" lon="3.04661">
        <ele>438.3</ele>
        <time>2018-05-19T13:10:58Z</time>
      </trkpt>
      <trkpt lat="44.09353" lon="3.04664">
        <ele>438.5</ele>
        <time>2018-05-19T13:11:00Z</time>
      </trkpt>
      <trkpt lat="44.09351" lon="3.04669">
        <ele>438.7</ele>
        <time>2018-05-19T13:11:02Z</time>
      </trkpt>
      <trkpt lat="44.09351" lon="3.04674">
        <ele>439</ele>
        <time>2018-05-19T13:11:04Z</time>
      </trkpt>
      <trkpt lat="44.09351" lon="3.04679">
        <ele>439.3</ele>
        <time>2018-05-19T13:11:06Z</time>
      </trkpt>
      <trkpt lat="44.0935" lon="3.04684">
        <ele>439.6</ele>
        <time>2018-05-19T13:11:08Z</time>
      </trkpt>
      <trkpt lat="44.09349" lon="3.04688">
        <ele>439.8</ele>
        <time>2018-05-19T13:11:10Z</time>
      </trkpt>
      <trkpt lat="44.09348" lon="3.04693">
        <ele>440</ele>
        <time>2018-05-19T13:11:12Z</time>
      </trkpt>
      <trkpt lat="44.09347" lon="3.04697">
        <ele>440.2</ele>
        <time>2018-05-19T13:11:14Z</time>
      </trkpt>
      <trkpt lat="44.09346" lon="3.04701">
        <ele>440.4</ele>
        <time>2018-05-19T13:11:16Z</time>
      </trkpt>
      <trkpt lat="44.09345" lon="3.04705">
        <ele>440.5</ele>
        <time>2018-05-19T13:11:19Z</time>
      </trkpt>
      <trkpt lat="44.09344" lon="3.04709">
        <ele>440.7</ele>
        <time>2018-05-19T13:11:22Z</time>
      </trkpt>
      <trkpt lat="44.09342" lon="3.04713">
        <ele>440.8</ele>
        <time>2018-05-19T13:11:24Z</time>
      </trkpt>
      <trkpt lat="44.0934" lon="3.04718">
        <ele>440.9</ele>
        <time>2018-05-19T13:11:27Z</time>
      </trkpt>
      <trkpt lat="44.09339" lon="3.04722">
        <ele>441</ele>
        <time>2018-05-19T13:11:29Z</time>
      </trkpt>
      <trkpt lat="44.09337" lon="3.04725">
        <ele>441</ele>
        <time>2018-05-19T13:11:31Z</time>
      </trkpt>
      <trkpt lat="44.09336" lon="3.04731">
        <ele>441.1</ele>
        <time>2018-05-19T13:11:34Z</time>
      </trkpt>
      <trkpt lat="44.09335" lon="3.04735">
        <ele>441.2</ele>
        <time>2018-05-19T13:11:36Z</time>
      </trkpt>
      <trkpt lat="44.09334" lon="3.04739">
        <ele>441.2</ele>
        <time>2018-05-19T13:11:38Z</time>
      </trkpt>
      <trkpt lat="44.09333" lon="3.04743">
        <ele>441.2</ele>
        <time>2018-05-19T13:11:40Z</time>
      </trkpt>
      <trkpt lat="44.09333" lon="3.04748">
        <ele>441.2</ele>
        <time>2018-05-19T13:11:42Z</time>
      </trkpt>
      <trkpt lat="44.09333" lon="3.04754">
        <ele>441.2</ele>
        <time>2018-05-19T13:11:44Z</time>
      </trkpt>
      <trkpt lat="44.09332" lon="3.04759">
        <ele>441.2</ele>
        <time>2018-05-19T13:11:46Z</time>
      </trkpt>
      <trkpt lat="44.09332" lon="3.04766">
        <ele>441.2</ele>
        <time>2018-05-19T13:11:48Z</time>
      </trkpt>
      <trkpt lat="44.09333" lon="3.04773">
        <ele>441.1</ele>
        <time>2018-05-19T13:11:50Z</time>
      </trkpt>
      <trkpt lat="44.09334" lon="3.0478">
        <ele>441.1</ele>
        <time>2018-05-19T13:11:52Z</time>
      </trkpt>
      <trkpt lat="44.09335" lon="3.04787">
        <ele>441.1</ele>
        <time>2018-05-19T13:11:54Z</time>
      </trkpt>
      <trkpt lat="44.09336" lon="3.04793">
        <ele>441</ele>
        <time>2018-05-19T13:11:56Z</time>
      </trkpt>
      <trkpt lat="44.09336" lon="3.04797">
        <ele>441</ele>
        <time>2018-05-19T13:11:58Z</time>
      </trkpt>
      <trkpt lat="44.09337" lon="3.04802">
        <ele>440.6</ele>
        <time>2018-05-19T13:12:00Z</time>
      </trkpt>
      <trkpt lat="44.09338" lon="3.04811">
        <ele>440.3</ele>
        <time>2018-05-19T13:12:02Z</time>
      </trkpt>
      <trkpt lat="44.09338" lon="3.04816">
        <ele>440.1</ele>
        <time>2018-05-19T13:12:03Z</time>
      </trkpt>
      <trkpt lat="44.09338" lon="3.04822">
        <ele>439.9</ele>
        <time>2018-05-19T13:12:04Z</time>
      </trkpt>
      <trkpt lat="44.09337" lon="3.04829">
        <ele>439.7</ele>
        <time>2018-05-19T13:12:05Z</time>
      </trkpt>
      <trkpt lat="44.09338" lon="3.04835">
        <ele>439.5</ele>
        <time>2018-05-19T13:12:06Z</time>
      </trkpt>
      <trkpt lat="44.09338" lon="3.0484">
        <ele>439.3</ele>
        <time>2018-05-19T13:12:07Z</time>
      </trkpt>
      <trkpt lat="44.09338" lon="3.04845">
        <ele>439.2</ele>
        <time>2018-05-19T13:12:08Z</time>
      </trkpt>
      <trkpt lat="44.09338" lon="3.0485">
        <ele>438.8</ele>
        <time>2018-05-19T13:12:09Z</time>
      </trkpt>
      <trkpt lat="44.09339" lon="3.04855">
        <ele>438.6</ele>
        <time>2018-05-19T13:12:10Z</time>
      </trkpt>
      <trkpt lat="44.09341" lon="3.04864">
        <ele>438</ele>
        <time>2018-05-19T13:12:12Z</time>
      </trkpt>
      <trkpt lat="44.09341" lon="3.04868">
        <ele>437.7</ele>
        <time>2018-05-19T13:12:13Z</time>
      </trkpt>
      <trkpt lat="44.09341" lon="3.04872">
        <ele>437.4</ele>
        <time>2018-05-19T13:12:15Z</time>
      </trkpt>
      <trkpt lat="44.09343" lon="3.04869">
        <ele>437.1</ele>
        <time>2018-05-19T13:12:27Z</time>
      </trkpt>
      <trkpt lat="44.09341" lon="3.04872">
        <ele>436.9</ele>
        <time>2018-05-19T13:13:29Z</time>
      </trkpt>
      <trkpt lat="44.09343" lon="3.04875">
        <ele>436.6</ele>
        <time>2018-05-19T13:13:43Z</time>
      </trkpt>
      <trkpt lat="44.09344" lon="3.04881">
        <ele>436.2</ele>
        <time>2018-05-19T13:13:55Z</time>
      </trkpt>
      <trkpt lat="44.09344" lon="3.04888">
        <ele>435.8</ele>
        <time>2018-05-19T13:13:57Z</time>
      </trkpt>
      <trkpt lat="44.09343" lon="3.04895">
        <ele>435.3</ele>
        <time>2018-05-19T13:13:59Z</time>
      </trkpt>
      <trkpt lat="44.09342" lon="3.049">
        <ele>435.1</ele>
        <time>2018-05-19T13:14:00Z</time>
      </trkpt>
      <trkpt lat="44.09341" lon="3.04905">
        <ele>434.9</ele>
        <time>2018-05-19T13:14:01Z</time>
      </trkpt>
      <trkpt lat="44.09341" lon="3.04911">
        <ele>434.7</ele>
        <time>2018-05-19T13:14:02Z</time>
      </trkpt>
      <trkpt lat="44.09339" lon="3.04917">
        <ele>434.6</ele>
        <time>2018-05-19T13:14:03Z</time>
      </trkpt>
      <trkpt lat="44.09339" lon="3.04924">
        <ele>434.5</ele>
        <time>2018-05-19T13:14:04Z</time>
      </trkpt>
      <trkpt lat="44.09339" lon="3.04931">
        <ele>434.4</ele>
        <time>2018-05-19T13:14:05Z</time>
      </trkpt>
      <trkpt lat="44.09338" lon="3.04939">
        <ele>434.3</ele>
        <time>2018-05-19T13:14:06Z</time>
      </trkpt>
      <trkpt lat="44.09337" lon="3.04948">
        <ele>434.2</ele>
        <time>2018-05-19T13:14:07Z</time>
      </trkpt>
      <trkpt lat="44.09336" lon="3.04956">
        <ele>434.2</ele>
        <time>2018-05-19T13:14:08Z</time>
      </trkpt>
      <trkpt lat="44.09335" lon="3.04965">
        <ele>434.1</ele>
        <time>2018-05-19T13:14:09Z</time>
      </trkpt>
      <trkpt lat="44.09335" lon="3.04975">
        <ele>434.2</ele>
        <time>2018-05-19T13:14:10Z</time>
      </trkpt>
      <trkpt lat="44.09335" lon="3.04985">
        <ele>434.4</ele>
        <time>2018-05-19T13:14:11Z</time>
      </trkpt>
      <trkpt lat="44.09336" lon="3.04996">
        <ele>434.7</ele>
        <time>2018-05-19T13:14:12Z</time>
      </trkpt>
      <trkpt lat="44.09335" lon="3.05004">
        <ele>434.9</ele>
        <time>2018-05-19T13:14:13Z</time>
      </trkpt>
      <trkpt lat="44.09335" lon="3.0501">
        <ele>435</ele>
        <time>2018-05-19T13:14:14Z</time>
      </trkpt>
      <trkpt lat="44.09334" lon="3.05019">
        <ele>434.1</ele>
        <time>2018-05-19T13:14:15Z</time>
      </trkpt>
      <trkpt lat="44.09333" lon="3.05027">
        <ele>432.7</ele>
        <time>2018-05-19T13:14:16Z</time>
      </trkpt>
      <trkpt lat="44.09331" lon="3.05035">
        <ele>431.1</ele>
        <time>2018-05-19T13:14:17Z</time>
      </trkpt>
      <trkpt lat="44.0933" lon="3.05044">
        <ele>429.7</ele>
        <time>2018-05-19T13:14:18Z</time>
      </trkpt>
      <trkpt lat="44.09328" lon="3.05055">
        <ele>428.2</ele>
        <time>2018-05-19T13:14:19Z</time>
      </trkpt>
      <trkpt lat="44.09325" lon="3.05066">
        <ele>426</ele>
        <time>2018-05-19T13:14:20Z</time>
      </trkpt>
      <trkpt lat="44.09323" lon="3.05079">
        <ele>424.1</ele>
        <time>2018-05-19T13:14:21Z</time>
      </trkpt>
      <trkpt lat="44.0932" lon="3.05092">
        <ele>422</ele>
        <time>2018-05-19T13:14:22Z</time>
      </trkpt>
      <trkpt lat="44.09316" lon="3.05106">
        <ele>419.4</ele>
        <time>2018-05-19T13:14:23Z</time>
      </trkpt>
      <trkpt lat="44.09312" lon="3.05122">
        <ele>416.5</ele>
        <time>2018-05-19T13:14:24Z</time>
      </trkpt>
      <trkpt lat="44.09309" lon="3.05136">
        <ele>414.2</ele>
        <time>2018-05-19T13:14:25Z</time>
      </trkpt>
      <trkpt lat="44.09304" lon="3.05151">
        <ele>411.3</ele>
        <time>2018-05-19T13:14:26Z</time>
      </trkpt>
      <trkpt lat="44.093" lon="3.05167">
        <ele>408.2</ele>
        <time>2018-05-19T13:14:27Z</time>
      </trkpt>
      <trkpt lat="44.09295" lon="3.05181">
        <ele>406.1</ele>
        <time>2018-05-19T13:14:28Z</time>
      </trkpt>
      <trkpt lat="44.09291" lon="3.05191">
        <ele>404.7</ele>
        <time>2018-05-19T13:14:29Z</time>
      </trkpt>
      <trkpt lat="44.09286" lon="3.05203">
        <ele>404.6</ele>
        <time>2018-05-19T13:14:30Z</time>
      </trkpt>
      <trkpt lat="44.09281" lon="3.05213">
        <ele>405.9</ele>
        <time>2018-05-19T13:14:31Z</time>
      </trkpt>
      <trkpt lat="44.09276" lon="3.05224">
        <ele>407.3</ele>
        <time>2018-05-19T13:14:32Z</time>
      </trkpt>
      <trkpt lat="44.09272" lon="3.05235">
        <ele>408.6</ele>
        <time>2018-05-19T13:14:33Z</time>
      </trkpt>
      <trkpt lat="44.09267" lon="3.05245">
        <ele>410.2</ele>
        <time>2018-05-19T13:14:34Z</time>
      </trkpt>
      <trkpt lat="44.09261" lon="3.05255">
        <ele>408.1</ele>
        <time>2018-05-19T13:14:35Z</time>
      </trkpt>
      <trkpt lat="44.09256" lon="3.05267">
        <ele>400.6</ele>
        <time>2018-05-19T13:14:36Z</time>
      </trkpt>
      <trkpt lat="44.09252" lon="3.05277">
        <ele>394.1</ele>
        <time>2018-05-19T13:14:37Z</time>
      </trkpt>
      <trkpt lat="44.09249" lon="3.05287">
        <ele>388.2</ele>
        <time>2018-05-19T13:14:38Z</time>
      </trkpt>
      <trkpt lat="44.09247" lon="3.05297">
        <ele>389.8</ele>
        <time>2018-05-19T13:14:39Z</time>
      </trkpt>
      <trkpt lat="44.09247" lon="3.05306">
        <ele>391.5</ele>
        <time>2018-05-19T13:14:40Z</time>
      </trkpt>
      <trkpt lat="44.09244" lon="3.05316">
        <ele>393.3</ele>
        <time>2018-05-19T13:14:41Z</time>
      </trkpt>
      <trkpt lat="44.09245" lon="3.05326">
        <ele>395.1</ele>
        <time>2018-05-19T13:14:42Z</time>
      </trkpt>
      <trkpt lat="44.09242" lon="3.05335">
        <ele>396.7</ele>
        <time>2018-05-19T13:14:43Z</time>
      </trkpt>
      <trkpt lat="44.09237" lon="3.05339">
        <ele>397.8</ele>
        <time>2018-05-19T13:14:44Z</time>
      </trkpt>
      <trkpt lat="44.0923" lon="3.05341">
        <ele>397.5</ele>
        <time>2018-05-19T13:14:45Z</time>
      </trkpt>
      <trkpt lat="44.09223" lon="3.0534">
        <ele>397.1</ele>
        <time>2018-05-19T13:14:46Z</time>
      </trkpt>
      <trkpt lat="44.09217" lon="3.05341">
        <ele>396.7</ele>
        <time>2018-05-19T13:14:47Z</time>
      </trkpt>
      <trkpt lat="44.09211" lon="3.05342">
        <ele>396.3</ele>
        <time>2018-05-19T13:14:48Z</time>
      </trkpt>
      <trkpt lat="44.09206" lon="3.05344">
        <ele>396</ele>
        <time>2018-05-19T13:14:49Z</time>
      </trkpt>
      <trkpt lat="44.09202" lon="3.05348">
        <ele>395.5</ele>
        <time>2018-05-19T13:14:50Z</time>
      </trkpt>
      <trkpt lat="44.09198" lon="3.05353">
        <ele>395.1</ele>
        <time>2018-05-19T13:14:51Z</time>
      </trkpt>
      <trkpt lat="44.09196" lon="3.05359">
        <ele>394.8</ele>
        <time>2018-05-19T13:14:52Z</time>
      </trkpt>
      <trkpt lat="44.09193" lon="3.05367">
        <ele>394.4</ele>
        <time>2018-05-19T13:14:53Z</time>
      </trkpt>
      <trkpt lat="44.0919" lon="3.05377">
        <ele>394</ele>
        <time>2018-05-19T13:14:54Z</time>
      </trkpt>
      <trkpt lat="44.09186" lon="3.05384">
        <ele>393.8</ele>
        <time>2018-05-19T13:14:55Z</time>
      </trkpt>
      <trkpt lat="44.09184" lon="3.05393">
        <ele>393.5</ele>
        <time>2018-05-19T13:14:56Z</time>
      </trkpt>
      <trkpt lat="44.09179" lon="3.05402">
        <ele>393.2</ele>
        <time>2018-05-19T13:14:57Z</time>
      </trkpt>
      <trkpt lat="44.09173" lon="3.05406">
        <ele>392.9</ele>
        <time>2018-05-19T13:14:58Z</time>
      </trkpt>
      <trkpt lat="44.09166" lon="3.05408">
        <ele>392.7</ele>
        <time>2018-05-19T13:14:59Z</time>
      </trkpt>
      <trkpt lat="44.09159" lon="3.0541">
        <ele>392.4</ele>
        <time>2018-05-19T13:15:00Z</time>
      </trkpt>
      <trkpt lat="44.0915" lon="3.05412">
        <ele>392.1</ele>
        <time>2018-05-19T13:15:01Z</time>
      </trkpt>
      <trkpt lat="44.09144" lon="3.05415">
        <ele>391.8</ele>
        <time>2018-05-19T13:15:02Z</time>
      </trkpt>
      <trkpt lat="44.09138" lon="3.05422">
        <ele>391.4</ele>
        <time>2018-05-19T13:15:03Z</time>
      </trkpt>
      <trkpt lat="44.09132" lon="3.05429">
        <ele>391.1</ele>
        <time>2018-05-19T13:15:04Z</time>
      </trkpt>
      <trkpt lat="44.09128" lon="3.05437">
        <ele>390.7</ele>
        <time>2018-05-19T13:15:05Z</time>
      </trkpt>
      <trkpt lat="44.09126" lon="3.05446">
        <ele>390.3</ele>
        <time>2018-05-19T13:15:06Z</time>
      </trkpt>
      <trkpt lat="44.09123" lon="3.05453">
        <ele>390</ele>
        <time>2018-05-19T13:15:07Z</time>
      </trkpt>
      <trkpt lat="44.0912" lon="3.05461">
        <ele>389.4</ele>
        <time>2018-05-19T13:15:08Z</time>
      </trkpt>
      <trkpt lat="44.09119" lon="3.05468">
        <ele>388.9</ele>
        <time>2018-05-19T13:15:09Z</time>
      </trkpt>
      <trkpt lat="44.09117" lon="3.05471">
        <ele>388.3</ele>
        <time>2018-05-19T13:15:10Z</time>
      </trkpt>
      <trkpt lat="44.09114" lon="3.05472">
        <ele>387.6</ele>
        <time>2018-05-19T13:15:11Z</time>
      </trkpt>
      <trkpt lat="44.09108" lon="3.05471">
        <ele>386.1</ele>
        <time>2018-05-19T13:15:13Z</time>
      </trkpt>
      <trkpt lat="44.09102" lon="3.0547">
        <ele>384.9</ele>
        <time>2018-05-19T13:15:14Z</time>
      </trkpt>
      <trkpt lat="44.09097" lon="3.0547">
        <ele>383.5</ele>
        <time>2018-05-19T13:15:15Z</time>
      </trkpt>
      <trkpt lat="44.09093" lon="3.0547">
        <ele>382.6</ele>
        <time>2018-05-19T13:15:16Z</time>
      </trkpt>
      <trkpt lat="44.09088" lon="3.05471">
        <ele>381.1</ele>
        <time>2018-05-19T13:15:17Z</time>
      </trkpt>
      <trkpt lat="44.09085" lon="3.05469">
        <ele>380.1</ele>
        <time>2018-05-19T13:15:25Z</time>
      </trkpt>
      <trkpt lat="44.09081" lon="3.05469">
        <ele>379</ele>
        <time>2018-05-19T13:15:28Z</time>
      </trkpt>
      <trkpt lat="44.0908" lon="3.05473">
        <ele>379</ele>
        <time>2018-05-19T13:15:41Z</time>
      </trkpt>
      <trkpt lat="44.09078" lon="3.05475">
        <ele>379</ele>
        <time>2018-05-19T13:16:09Z</time>
      </trkpt>
      <trkpt lat="44.09076" lon="3.05481">
        <ele>379</ele>
        <time>2018-05-19T13:16:11Z</time>
      </trkpt>
      <trkpt lat="44.09076" lon="3.05487">
        <ele>379</ele>
        <time>2018-05-19T13:16:13Z</time>
      </trkpt>
      <trkpt lat="44.09076" lon="3.05491">
        <ele>379</ele>
        <time>2018-05-19T13:16:14Z</time>
      </trkpt>
      <trkpt lat="44.09076" lon="3.05496">
        <ele>379</ele>
        <time>2018-05-19T13:16:15Z</time>
      </trkpt>
      <trkpt lat="44.09075" lon="3.055">
        <ele>379</ele>
        <time>2018-05-19T13:16:16Z</time>
      </trkpt>
      <trkpt lat="44.09075" lon="3.05505">
        <ele>379</ele>
        <time>2018-05-19T13:16:17Z</time>
      </trkpt>
      <trkpt lat="44.09074" lon="3.0551">
        <ele>379</ele>
        <time>2018-05-19T13:16:18Z</time>
      </trkpt>
      <trkpt lat="44.09073" lon="3.05515">
        <ele>379</ele>
        <time>2018-05-19T13:16:19Z</time>
      </trkpt>
      <trkpt lat="44.09071" lon="3.0552">
        <ele>378.5</ele>
        <time>2018-05-19T13:16:20Z</time>
      </trkpt>
      <trkpt lat="44.09067" lon="3.05523">
        <ele>378.1</ele>
        <time>2018-05-19T13:16:21Z</time>
      </trkpt>
      <trkpt lat="44.09063" lon="3.05526">
        <ele>377.7</ele>
        <time>2018-05-19T13:16:22Z</time>
      </trkpt>
      <trkpt lat="44.0906" lon="3.05527">
        <ele>377.3</ele>
        <time>2018-05-19T13:16:23Z</time>
      </trkpt>
      <trkpt lat="44.09056" lon="3.05529">
        <ele>376.9</ele>
        <time>2018-05-19T13:16:24Z</time>
      </trkpt>
      <trkpt lat="44.09048" lon="3.05531">
        <ele>376</ele>
        <time>2018-05-19T13:16:25Z</time>
      </trkpt>
      <trkpt lat="44.09045" lon="3.05534">
        <ele>375.4</ele>
        <time>2018-05-19T13:16:26Z</time>
      </trkpt>
      <trkpt lat="44.09041" lon="3.05537">
        <ele>375.1</ele>
        <time>2018-05-19T13:16:27Z</time>
      </trkpt>
      <trkpt lat="44.09038" lon="3.05541">
        <ele>374.8</ele>
        <time>2018-05-19T13:16:28Z</time>
      </trkpt>
      <trkpt lat="44.09033" lon="3.05546">
        <ele>374.4</ele>
        <time>2018-05-19T13:16:29Z</time>
      </trkpt>
      <trkpt lat="44.09029" lon="3.0555">
        <ele>374.1</ele>
        <time>2018-05-19T13:16:30Z</time>
      </trkpt>
      <trkpt lat="44.09026" lon="3.05554">
        <ele>373.8</ele>
        <time>2018-05-19T13:16:31Z</time>
      </trkpt>
      <trkpt lat="44.09022" lon="3.05559">
        <ele>373.5</ele>
        <time>2018-05-19T13:16:32Z</time>
      </trkpt>
      <trkpt lat="44.09019" lon="3.05565">
        <ele>373.2</ele>
        <time>2018-05-19T13:16:33Z</time>
      </trkpt>
      <trkpt lat="44.09016" lon="3.05571">
        <ele>372.9</ele>
        <time>2018-05-19T13:16:34Z</time>
      </trkpt>
      <trkpt lat="44.09013" lon="3.05578">
        <ele>372.5</ele>
        <time>2018-05-19T13:16:35Z</time>
      </trkpt>
      <trkpt lat="44.09009" lon="3.05585">
        <ele>372.1</ele>
        <time>2018-05-19T13:16:36Z</time>
      </trkpt>
      <trkpt lat="44.09007" lon="3.05594">
        <ele>371.8</ele>
        <time>2018-05-19T13:16:37Z</time>
      </trkpt>
      <trkpt lat="44.09004" lon="3.05601">
        <ele>371.5</ele>
        <time>2018-05-19T13:16:38Z</time>
      </trkpt>
      <trkpt lat="44.09" lon="3.05609">
        <ele>371.2</ele>
        <time>2018-05-19T13:16:39Z</time>
      </trkpt>
      <trkpt lat="44.08997" lon="3.05618">
        <ele>370.8</ele>
        <time>2018-05-19T13:16:40Z</time>
      </trkpt>
      <trkpt lat="44.08996" lon="3.05626">
        <ele>370.6</ele>
        <time>2018-05-19T13:16:41Z</time>
      </trkpt>
      <trkpt lat="44.08995" lon="3.05634">
        <ele>370.3</ele>
        <time>2018-05-19T13:16:42Z</time>
      </trkpt>
      <trkpt lat="44.08995" lon="3.05643">
        <ele>369.9</ele>
        <time>2018-05-19T13:16:43Z</time>
      </trkpt>
      <trkpt lat="44.08993" lon="3.0565">
        <ele>369.7</ele>
        <time>2018-05-19T13:16:44Z</time>
      </trkpt>
      <trkpt lat="44.08993" lon="3.05655">
        <ele>369.4</ele>
        <time>2018-05-19T13:16:45Z</time>
      </trkpt>
      <trkpt lat="44.08991" lon="3.05659">
        <ele>369.3</ele>
        <time>2018-05-19T13:16:46Z</time>
      </trkpt>
      <trkpt lat="44.08989" lon="3.05663">
        <ele>368.8</ele>
        <time>2018-05-19T13:16:47Z</time>
      </trkpt>
      <trkpt lat="44.08985" lon="3.05666">
        <ele>368</ele>
        <time>2018-05-19T13:16:48Z</time>
      </trkpt>
      <trkpt lat="44.08977" lon="3.05671">
        <ele>366.7</ele>
        <time>2018-05-19T13:16:49Z</time>
      </trkpt>
      <trkpt lat="44.08973" lon="3.05678">
        <ele>366</ele>
        <time>2018-05-19T13:16:50Z</time>
      </trkpt>
      <trkpt lat="44.08968" lon="3.05688">
        <ele>366.2</ele>
        <time>2018-05-19T13:16:51Z</time>
      </trkpt>
      <trkpt lat="44.08964" lon="3.05697">
        <ele>366.6</ele>
        <time>2018-05-19T13:16:52Z</time>
      </trkpt>
      <trkpt lat="44.0896" lon="3.05707">
        <ele>367.1</ele>
        <time>2018-05-19T13:16:53Z</time>
      </trkpt>
      <trkpt lat="44.08956" lon="3.05719">
        <ele>367.5</ele>
        <time>2018-05-19T13:16:54Z</time>
      </trkpt>
      <trkpt lat="44.08955" lon="3.0573">
        <ele>368.3</ele>
        <time>2018-05-19T13:16:55Z</time>
      </trkpt>
      <trkpt lat="44.08955" lon="3.05739">
        <ele>369.2</ele>
        <time>2018-05-19T13:16:56Z</time>
      </trkpt>
      <trkpt lat="44.08955" lon="3.05749">
        <ele>370.1</ele>
        <time>2018-05-19T13:16:57Z</time>
      </trkpt>
      <trkpt lat="44.08955" lon="3.05757">
        <ele>370.9</ele>
        <time>2018-05-19T13:16:58Z</time>
      </trkpt>
      <trkpt lat="44.08955" lon="3.05766">
        <ele>371.6</ele>
        <time>2018-05-19T13:16:59Z</time>
      </trkpt>
      <trkpt lat="44.08955" lon="3.05773">
        <ele>372.3</ele>
        <time>2018-05-19T13:17:00Z</time>
      </trkpt>
      <trkpt lat="44.08956" lon="3.05781">
        <ele>373.2</ele>
        <time>2018-05-19T13:17:01Z</time>
      </trkpt>
      <trkpt lat="44.08956" lon="3.05788">
        <ele>373.8</ele>
        <time>2018-05-19T13:17:02Z</time>
      </trkpt>
      <trkpt lat="44.08957" lon="3.05795">
        <ele>374.4</ele>
        <time>2018-05-19T13:17:03Z</time>
      </trkpt>
      <trkpt lat="44.08957" lon="3.05802">
        <ele>375</ele>
        <time>2018-05-19T13:17:04Z</time>
      </trkpt>
      <trkpt lat="44.08958" lon="3.05809">
        <ele>375</ele>
        <time>2018-05-19T13:17:05Z</time>
      </trkpt>
      <trkpt lat="44.08957" lon="3.05815">
        <ele>375</ele>
        <time>2018-05-19T13:17:06Z</time>
      </trkpt>
      <trkpt lat="44.08957" lon="3.05821">
        <ele>375</ele>
        <time>2018-05-19T13:17:07Z</time>
      </trkpt>
      <trkpt lat="44.08959" lon="3.05827">
        <ele>375</ele>
        <time>2018-05-19T13:17:08Z</time>
      </trkpt>
      <trkpt lat="44.08958" lon="3.05832">
        <ele>375</ele>
        <time>2018-05-19T13:17:09Z</time>
      </trkpt>
      <trkpt lat="44.08958" lon="3.05836">
        <ele>375</ele>
        <time>2018-05-19T13:17:10Z</time>
      </trkpt>
      <trkpt lat="44.08957" lon="3.0584">
        <ele>375</ele>
        <time>2018-05-19T13:17:11Z</time>
      </trkpt>
      <trkpt lat="44.08954" lon="3.05846">
        <ele>374.7</ele>
        <time>2018-05-19T13:17:12Z</time>
      </trkpt>
      <trkpt lat="44.0895" lon="3.05852">
        <ele>374.1</ele>
        <time>2018-05-19T13:17:13Z</time>
      </trkpt>
      <trkpt lat="44.08945" lon="3.05858">
        <ele>373.4</ele>
        <time>2018-05-19T13:17:14Z</time>
      </trkpt>
      <trkpt lat="44.08941" lon="3.05864">
        <ele>373</ele>
        <time>2018-05-19T13:17:15Z</time>
      </trkpt>
      <trkpt lat="44.08935" lon="3.0587">
        <ele>372.6</ele>
        <time>2018-05-19T13:17:16Z</time>
      </trkpt>
      <trkpt lat="44.08931" lon="3.05877">
        <ele>372</ele>
        <time>2018-05-19T13:17:17Z</time>
      </trkpt>
      <trkpt lat="44.08926" lon="3.05886">
        <ele>371.3</ele>
        <time>2018-05-19T13:17:18Z</time>
      </trkpt>
      <trkpt lat="44.08921" lon="3.05894">
        <ele>370.6</ele>
        <time>2018-05-19T13:17:19Z</time>
      </trkpt>
      <trkpt lat="44.08917" lon="3.05901">
        <ele>370.1</ele>
        <time>2018-05-19T13:17:20Z</time>
      </trkpt>
      <trkpt lat="44.08914" lon="3.05911">
        <ele>369.9</ele>
        <time>2018-05-19T13:17:21Z</time>
      </trkpt>
      <trkpt lat="44.08911" lon="3.0592">
        <ele>369.7</ele>
        <time>2018-05-19T13:17:22Z</time>
      </trkpt>
      <trkpt lat="44.08907" lon="3.0593">
        <ele>369.7</ele>
        <time>2018-05-19T13:17:23Z</time>
      </trkpt>
      <trkpt lat="44.08903" lon="3.0594">
        <ele>369.7</ele>
        <time>2018-05-19T13:17:24Z</time>
      </trkpt>
      <trkpt lat="44.08894" lon="3.05946">
        <ele>369.8</ele>
        <time>2018-05-19T13:17:25Z</time>
      </trkpt>
      <trkpt lat="44.08891" lon="3.05953">
        <ele>369.8</ele>
        <time>2018-05-19T13:17:26Z</time>
      </trkpt>
      <trkpt lat="44.08887" lon="3.05963">
        <ele>369.9</ele>
        <time>2018-05-19T13:17:27Z</time>
      </trkpt>
      <trkpt lat="44.08886" lon="3.05969">
        <ele>369.9</ele>
        <time>2018-05-19T13:17:28Z</time>
      </trkpt>
      <trkpt lat="44.08883" lon="3.05975">
        <ele>369.9</ele>
        <time>2018-05-19T13:17:29Z</time>
      </trkpt>
      <trkpt lat="44.08883" lon="3.05979">
        <ele>370</ele>
        <time>2018-05-19T13:17:30Z</time>
      </trkpt>
      <trkpt lat="44.08884" lon="3.05974">
        <ele>370</ele>
        <time>2018-05-19T13:17:35Z</time>
      </trkpt>
      <trkpt lat="44.08887" lon="3.05975">
        <ele>370</ele>
        <time>2018-05-19T13:17:39Z</time>
      </trkpt>
      <trkpt lat="44.08891" lon="3.05976">
        <ele>370</ele>
        <time>2018-05-19T13:17:44Z</time>
      </trkpt>
      <trkpt lat="44.08888" lon="3.05979">
        <ele>370</ele>
        <time>2018-05-19T13:18:01Z</time>
      </trkpt>
      <trkpt lat="44.08886" lon="3.05984">
        <ele>370</ele>
        <time>2018-05-19T13:18:03Z</time>
      </trkpt>
      <trkpt lat="44.08883" lon="3.05989">
        <ele>369.9</ele>
        <time>2018-05-19T13:18:05Z</time>
      </trkpt>
      <trkpt lat="44.08881" lon="3.05996">
        <ele>369.5</ele>
        <time>2018-05-19T13:18:07Z</time>
      </trkpt>
      <trkpt lat="44.08881" lon="3.06003">
        <ele>369.2</ele>
        <time>2018-05-19T13:18:09Z</time>
      </trkpt>
      <trkpt lat="44.08881" lon="3.06007">
        <ele>369</ele>
        <time>2018-05-19T13:18:10Z</time>
      </trkpt>
      <trkpt lat="44.08881" lon="3.06014">
        <ele>368.6</ele>
        <time>2018-05-19T13:18:11Z</time>
      </trkpt>
      <trkpt lat="44.0888" lon="3.0602">
        <ele>368.3</ele>
        <time>2018-05-19T13:18:12Z</time>
      </trkpt>
      <trkpt lat="44.0888" lon="3.06027">
        <ele>368</ele>
        <time>2018-05-19T13:18:13Z</time>
      </trkpt>
      <trkpt lat="44.08878" lon="3.06036">
        <ele>368.4</ele>
        <time>2018-05-19T13:18:14Z</time>
      </trkpt>
      <trkpt lat="44.08879" lon="3.06044">
        <ele>368.8</ele>
        <time>2018-05-19T13:18:15Z</time>
      </trkpt>
      <trkpt lat="44.08879" lon="3.0605">
        <ele>369.1</ele>
        <time>2018-05-19T13:18:16Z</time>
      </trkpt>
      <trkpt lat="44.08881" lon="3.06057">
        <ele>369.5</ele>
        <time>2018-05-19T13:18:17Z</time>
      </trkpt>
      <trkpt lat="44.08884" lon="3.06063">
        <ele>369.9</ele>
        <time>2018-05-19T13:18:18Z</time>
      </trkpt>
      <trkpt lat="44.08886" lon="3.0607">
        <ele>370.2</ele>
        <time>2018-05-19T13:18:19Z</time>
      </trkpt>
      <trkpt lat="44.08891" lon="3.0608">
        <ele>370.8</ele>
        <time>2018-05-19T13:18:20Z</time>
      </trkpt>
      <trkpt lat="44.08893" lon="3.06087">
        <ele>371.2</ele>
        <time>2018-05-19T13:18:21Z</time>
      </trkpt>
      <trkpt lat="44.08896" lon="3.06094">
        <ele>371.6</ele>
        <time>2018-05-19T13:18:22Z</time>
      </trkpt>
      <trkpt lat="44.08901" lon="3.061">
        <ele>372</ele>
        <time>2018-05-19T13:18:23Z</time>
      </trkpt>
      <trkpt lat="44.08905" lon="3.06107">
        <ele>372.5</ele>
        <time>2018-05-19T13:18:24Z</time>
      </trkpt>
      <trkpt lat="44.08909" lon="3.06114">
        <ele>372.9</ele>
        <time>2018-05-19T13:18:25Z</time>
      </trkpt>
      <trkpt lat="44.08914" lon="3.06121">
        <ele>373.4</ele>
        <time>2018-05-19T13:18:26Z</time>
      </trkpt>
      <trkpt lat="44.08919" lon="3.06126">
        <ele>373.9</ele>
        <time>2018-05-19T13:18:27Z</time>
      </trkpt>
      <trkpt lat="44.08925" lon="3.06132">
        <ele>373.9</ele>
        <time>2018-05-19T13:18:28Z</time>
      </trkpt>
      <trkpt lat="44.0893" lon="3.06136">
        <ele>373.6</ele>
        <time>2018-05-19T13:18:29Z</time>
      </trkpt>
      <trkpt lat="44.08936" lon="3.06141">
        <ele>373.4</ele>
        <time>2018-05-19T13:18:30Z</time>
      </trkpt>
      <trkpt lat="44.08941" lon="3.06143">
        <ele>373.2</ele>
        <time>2018-05-19T13:18:31Z</time>
      </trkpt>
      <trkpt lat="44.08948" lon="3.06145">
        <ele>373</ele>
        <time>2018-05-19T13:18:32Z</time>
      </trkpt>
      <trkpt lat="44.08954" lon="3.06148">
        <ele>372.8</ele>
        <time>2018-05-19T13:18:33Z</time>
      </trkpt>
      <trkpt lat="44.08959" lon="3.06152">
        <ele>372.6</ele>
        <time>2018-05-19T13:18:34Z</time>
      </trkpt>
      <trkpt lat="44.08964" lon="3.06155">
        <ele>372.4</ele>
        <time>2018-05-19T13:18:35Z</time>
      </trkpt>
      <trkpt lat="44.0897" lon="3.06156">
        <ele>372.3</ele>
        <time>2018-05-19T13:18:36Z</time>
      </trkpt>
      <trkpt lat="44.08976" lon="3.06157">
        <ele>372.1</ele>
        <time>2018-05-19T13:18:37Z</time>
      </trkpt>
      <trkpt lat="44.08983" lon="3.06159">
        <ele>371.9</ele>
        <time>2018-05-19T13:18:38Z</time>
      </trkpt>
      <trkpt lat="44.0899" lon="3.0616">
        <ele>371.6</ele>
        <time>2018-05-19T13:18:39Z</time>
      </trkpt>
      <trkpt lat="44.08995" lon="3.0616">
        <ele>371.5</ele>
        <time>2018-05-19T13:18:40Z</time>
      </trkpt>
      <trkpt lat="44.09001" lon="3.0616">
        <ele>371.3</ele>
        <time>2018-05-19T13:18:41Z</time>
      </trkpt>
      <trkpt lat="44.09007" lon="3.0616">
        <ele>371.1</ele>
        <time>2018-05-19T13:18:42Z</time>
      </trkpt>
      <trkpt lat="44.09013" lon="3.06161">
        <ele>370.9</ele>
        <time>2018-05-19T13:18:43Z</time>
      </trkpt>
      <trkpt lat="44.0902" lon="3.06162">
        <ele>370.6</ele>
        <time>2018-05-19T13:18:44Z</time>
      </trkpt>
      <trkpt lat="44.09026" lon="3.06162">
        <ele>370.4</ele>
        <time>2018-05-19T13:18:45Z</time>
      </trkpt>
      <trkpt lat="44.09031" lon="3.06163">
        <ele>370.1</ele>
        <time>2018-05-19T13:18:46Z</time>
      </trkpt>
      <trkpt lat="44.09037" lon="3.06164">
        <ele>369.9</ele>
        <time>2018-05-19T13:18:47Z</time>
      </trkpt>
      <trkpt lat="44.09044" lon="3.06165">
        <ele>369.7</ele>
        <time>2018-05-19T13:18:48Z</time>
      </trkpt>
      <trkpt lat="44.09051" lon="3.06166">
        <ele>369.4</ele>
        <time>2018-05-19T13:18:49Z</time>
      </trkpt>
      <trkpt lat="44.09057" lon="3.06168">
        <ele>369.2</ele>
        <time>2018-05-19T13:18:50Z</time>
      </trkpt>
      <trkpt lat="44.09063" lon="3.06171">
        <ele>369</ele>
        <time>2018-05-19T13:18:51Z</time>
      </trkpt>
      <trkpt lat="44.09069" lon="3.06175">
        <ele>368.8</ele>
        <time>2018-05-19T13:18:52Z</time>
      </trkpt>
      <trkpt lat="44.09075" lon="3.06178">
        <ele>368.5</ele>
        <time>2018-05-19T13:18:53Z</time>
      </trkpt>
      <trkpt lat="44.09081" lon="3.06181">
        <ele>368.3</ele>
        <time>2018-05-19T13:18:54Z</time>
      </trkpt>
      <trkpt lat="44.09086" lon="3.06185">
        <ele>368.1</ele>
        <time>2018-05-19T13:18:55Z</time>
      </trkpt>
      <trkpt lat="44.09092" lon="3.06188">
        <ele>367.9</ele>
        <time>2018-05-19T13:18:56Z</time>
      </trkpt>
      <trkpt lat="44.09097" lon="3.06192">
        <ele>367.7</ele>
        <time>2018-05-19T13:18:57Z</time>
      </trkpt>
      <trkpt lat="44.09103" lon="3.06196">
        <ele>367.5</ele>
        <time>2018-05-19T13:18:58Z</time>
      </trkpt>
      <trkpt lat="44.09108" lon="3.06201">
        <ele>367.2</ele>
        <time>2018-05-19T13:18:59Z</time>
      </trkpt>
      <trkpt lat="44.09113" lon="3.06205">
        <ele>367</ele>
        <time>2018-05-19T13:19:00Z</time>
      </trkpt>
      <trkpt lat="44.09118" lon="3.06209">
        <ele>366.8</ele>
        <time>2018-05-19T13:19:01Z</time>
      </trkpt>
      <trkpt lat="44.09123" lon="3.06214">
        <ele>366.6</ele>
        <time>2018-05-19T13:19:02Z</time>
      </trkpt>
      <trkpt lat="44.09127" lon="3.06219">
        <ele>366.5</ele>
        <time>2018-05-19T13:19:03Z</time>
      </trkpt>
      <trkpt lat="44.09131" lon="3.06224">
        <ele>366.3</ele>
        <time>2018-05-19T13:19:04Z</time>
      </trkpt>
      <trkpt lat="44.09136" lon="3.06228">
        <ele>366.1</ele>
        <time>2018-05-19T13:19:05Z</time>
      </trkpt>
      <trkpt lat="44.09141" lon="3.06233">
        <ele>365.9</ele>
        <time>2018-05-19T13:19:06Z</time>
      </trkpt>
      <trkpt lat="44.09146" lon="3.06236">
        <ele>365.7</ele>
        <time>2018-05-19T13:19:07Z</time>
      </trkpt>
      <trkpt lat="44.09151" lon="3.06243">
        <ele>365.5</ele>
        <time>2018-05-19T13:19:08Z</time>
      </trkpt>
      <trkpt lat="44.09156" lon="3.06248">
        <ele>365.2</ele>
        <time>2018-05-19T13:19:09Z</time>
      </trkpt>
      <trkpt lat="44.09161" lon="3.06254">
        <ele>365</ele>
        <time>2018-05-19T13:19:10Z</time>
      </trkpt>
      <trkpt lat="44.09166" lon="3.0626">
        <ele>364.8</ele>
        <time>2018-05-19T13:19:11Z</time>
      </trkpt>
      <trkpt lat="44.0917" lon="3.06266">
        <ele>364.5</ele>
        <time>2018-05-19T13:19:12Z</time>
      </trkpt>
      <trkpt lat="44.09175" lon="3.06272">
        <ele>364.2</ele>
        <time>2018-05-19T13:19:13Z</time>
      </trkpt>
      <trkpt lat="44.09179" lon="3.06278">
        <ele>363.9</ele>
        <time>2018-05-19T13:19:14Z</time>
      </trkpt>
      <trkpt lat="44.09184" lon="3.06284">
        <ele>363.6</ele>
        <time>2018-05-19T13:19:15Z</time>
      </trkpt>
      <trkpt lat="44.09189" lon="3.06291">
        <ele>363.3</ele>
        <time>2018-05-19T13:19:16Z</time>
      </trkpt>
      <trkpt lat="44.09193" lon="3.06297">
        <ele>363</ele>
        <time>2018-05-19T13:19:17Z</time>
      </trkpt>
      <trkpt lat="44.09198" lon="3.06301">
        <ele>362.7</ele>
        <time>2018-05-19T13:19:18Z</time>
      </trkpt>
      <trkpt lat="44.09203" lon="3.06307">
        <ele>362.4</ele>
        <time>2018-05-19T13:19:19Z</time>
      </trkpt>
      <trkpt lat="44.09205" lon="3.06311">
        <ele>362.3</ele>
        <time>2018-05-19T13:19:20Z</time>
      </trkpt>
      <trkpt lat="44.09208" lon="3.06319">
        <ele>361.9</ele>
        <time>2018-05-19T13:19:21Z</time>
      </trkpt>
      <trkpt lat="44.09213" lon="3.06327">
        <ele>361.6</ele>
        <time>2018-05-19T13:19:22Z</time>
      </trkpt>
      <trkpt lat="44.09216" lon="3.06334">
        <ele>361.3</ele>
        <time>2018-05-19T13:19:23Z</time>
      </trkpt>
      <trkpt lat="44.0922" lon="3.06341">
        <ele>361</ele>
        <time>2018-05-19T13:19:24Z</time>
      </trkpt>
      <trkpt lat="44.09224" lon="3.06348">
        <ele>361</ele>
        <time>2018-05-19T13:19:25Z</time>
      </trkpt>
      <trkpt lat="44.09228" lon="3.06355">
        <ele>361</ele>
        <time>2018-05-19T13:19:26Z</time>
      </trkpt>
      <trkpt lat="44.09231" lon="3.06359">
        <ele>361</ele>
        <time>2018-05-19T13:19:27Z</time>
      </trkpt>
      <trkpt lat="44.09234" lon="3.06366">
        <ele>361</ele>
        <time>2018-05-19T13:19:28Z</time>
      </trkpt>
      <trkpt lat="44.09237" lon="3.06373">
        <ele>361</ele>
        <time>2018-05-19T13:19:29Z</time>
      </trkpt>
      <trkpt lat="44.0924" lon="3.06381">
        <ele>361</ele>
        <time>2018-05-19T13:19:30Z</time>
      </trkpt>
      <trkpt lat="44.09242" lon="3.06387">
        <ele>361</ele>
        <time>2018-05-19T13:19:31Z</time>
      </trkpt>
      <trkpt lat="44.09244" lon="3.06395">
        <ele>361</ele>
        <time>2018-05-19T13:19:32Z</time>
      </trkpt>
      <trkpt lat="44.09244" lon="3.06404">
        <ele>361</ele>
        <time>2018-05-19T13:19:33Z</time>
      </trkpt>
      <trkpt lat="44.09241" lon="3.0641">
        <ele>360.3</ele>
        <time>2018-05-19T13:19:34Z</time>
      </trkpt>
      <trkpt lat="44.09238" lon="3.06417">
        <ele>359.1</ele>
        <time>2018-05-19T13:19:35Z</time>
      </trkpt>
      <trkpt lat="44.09236" lon="3.06423">
        <ele>358</ele>
        <time>2018-05-19T13:19:36Z</time>
      </trkpt>
      <trkpt lat="44.09233" lon="3.06425">
        <ele>358</ele>
        <time>2018-05-19T13:19:37Z</time>
      </trkpt>
      <trkpt lat="44.09227" lon="3.06433">
        <ele>357.7</ele>
        <time>2018-05-19T13:19:38Z</time>
      </trkpt>
      <trkpt lat="44.09223" lon="3.06439">
        <ele>357.4</ele>
        <time>2018-05-19T13:19:39Z</time>
      </trkpt>
      <trkpt lat="44.09218" lon="3.06445">
        <ele>357</ele>
        <time>2018-05-19T13:19:40Z</time>
      </trkpt>
      <trkpt lat="44.09214" lon="3.06452">
        <ele>356.7</ele>
        <time>2018-05-19T13:19:41Z</time>
      </trkpt>
      <trkpt lat="44.0921" lon="3.06459">
        <ele>356.5</ele>
        <time>2018-05-19T13:19:42Z</time>
      </trkpt>
      <trkpt lat="44.09206" lon="3.06469">
        <ele>356.2</ele>
        <time>2018-05-19T13:19:43Z</time>
      </trkpt>
      <trkpt lat="44.09201" lon="3.06476">
        <ele>355.9</ele>
        <time>2018-05-19T13:19:44Z</time>
      </trkpt>
      <trkpt lat="44.09197" lon="3.06483">
        <ele>355.6</ele>
        <time>2018-05-19T13:19:45Z</time>
      </trkpt>
      <trkpt lat="44.09192" lon="3.06491">
        <ele>355.3</ele>
        <time>2018-05-19T13:19:46Z</time>
      </trkpt>
      <trkpt lat="44.09188" lon="3.06501">
        <ele>355</ele>
        <time>2018-05-19T13:19:47Z</time>
      </trkpt>
      <trkpt lat="44.09183" lon="3.0651">
        <ele>354.7</ele>
        <time>2018-05-19T13:19:48Z</time>
      </trkpt>
      <trkpt lat="44.09178" lon="3.06519">
        <ele>354.4</ele>
        <time>2018-05-19T13:19:49Z</time>
      </trkpt>
      <trkpt lat="44.09173" lon="3.06527">
        <ele>354.1</ele>
        <time>2018-05-19T13:19:50Z</time>
      </trkpt>
      <trkpt lat="44.09169" lon="3.06535">
        <ele>353.9</ele>
        <time>2018-05-19T13:19:51Z</time>
      </trkpt>
      <trkpt lat="44.09166" lon="3.06538">
        <ele>353.7</ele>
        <time>2018-05-19T13:19:52Z</time>
      </trkpt>
      <trkpt lat="44.09162" lon="3.06546">
        <ele>353.5</ele>
        <time>2018-05-19T13:19:54Z</time>
      </trkpt>
      <trkpt lat="44.09158" lon="3.06551">
        <ele>353</ele>
        <time>2018-05-19T13:19:55Z</time>
      </trkpt>
      <trkpt lat="44.09149" lon="3.06558">
        <ele>353</ele>
        <time>2018-05-19T13:19:56Z</time>
      </trkpt>
      <trkpt lat="44.09146" lon="3.06563">
        <ele>353</ele>
        <time>2018-05-19T13:19:57Z</time>
      </trkpt>
      <trkpt lat="44.09143" lon="3.06568">
        <ele>353.1</ele>
        <time>2018-05-19T13:19:58Z</time>
      </trkpt>
      <trkpt lat="44.0914" lon="3.0657">
        <ele>353.1</ele>
        <time>2018-05-19T13:19:59Z</time>
      </trkpt>
      <trkpt lat="44.09133" lon="3.06583">
        <ele>353.1</ele>
        <time>2018-05-19T13:20:01Z</time>
      </trkpt>
      <trkpt lat="44.09133" lon="3.06591">
        <ele>353.1</ele>
        <time>2018-05-19T13:20:02Z</time>
      </trkpt>
      <trkpt lat="44.09133" lon="3.06599">
        <ele>353.2</ele>
        <time>2018-05-19T13:20:03Z</time>
      </trkpt>
      <trkpt lat="44.09132" lon="3.06607">
        <ele>353.3</ele>
        <time>2018-05-19T13:20:04Z</time>
      </trkpt>
      <trkpt lat="44.09129" lon="3.06616">
        <ele>353.4</ele>
        <time>2018-05-19T13:20:05Z</time>
      </trkpt>
      <trkpt lat="44.09128" lon="3.06623">
        <ele>353.5</ele>
        <time>2018-05-19T13:20:06Z</time>
      </trkpt>
      <trkpt lat="44.09125" lon="3.06632">
        <ele>353.6</ele>
        <time>2018-05-19T13:20:07Z</time>
      </trkpt>
      <trkpt lat="44.09122" lon="3.06642">
        <ele>353.7</ele>
        <time>2018-05-19T13:20:08Z</time>
      </trkpt>
      <trkpt lat="44.09119" lon="3.06652">
        <ele>353.8</ele>
        <time>2018-05-19T13:20:09Z</time>
      </trkpt>
      <trkpt lat="44.09118" lon="3.0666">
        <ele>353.9</ele>
        <time>2018-05-19T13:20:10Z</time>
      </trkpt>
      <trkpt lat="44.09116" lon="3.06668">
        <ele>353.9</ele>
        <time>2018-05-19T13:20:11Z</time>
      </trkpt>
      <trkpt lat="44.09115" lon="3.06677">
        <ele>354</ele>
        <time>2018-05-19T13:20:12Z</time>
      </trkpt>
      <trkpt lat="44.09115" lon="3.06686">
        <ele>354</ele>
        <time>2018-05-19T13:20:13Z</time>
      </trkpt>
      <trkpt lat="44.09116" lon="3.06696">
        <ele>354</ele>
        <time>2018-05-19T13:20:14Z</time>
      </trkpt>
      <trkpt lat="44.09116" lon="3.06705">
        <ele>354.1</ele>
        <time>2018-05-19T13:20:15Z</time>
      </trkpt>
      <trkpt lat="44.09116" lon="3.06714">
        <ele>354.5</ele>
        <time>2018-05-19T13:20:16Z</time>
      </trkpt>
      <trkpt lat="44.09116" lon="3.06722">
        <ele>354.8</ele>
        <time>2018-05-19T13:20:17Z</time>
      </trkpt>
      <trkpt lat="44.09116" lon="3.0673">
        <ele>355.1</ele>
        <time>2018-05-19T13:20:18Z</time>
      </trkpt>
      <trkpt lat="44.09117" lon="3.06739">
        <ele>355.5</ele>
        <time>2018-05-19T13:20:19Z</time>
      </trkpt>
      <trkpt lat="44.09118" lon="3.06747">
        <ele>355.8</ele>
        <time>2018-05-19T13:20:20Z</time>
      </trkpt>
      <trkpt lat="44.09119" lon="3.06754">
        <ele>356</ele>
        <time>2018-05-19T13:20:21Z</time>
      </trkpt>
      <trkpt lat="44.09121" lon="3.06762">
        <ele>356</ele>
        <time>2018-05-19T13:20:22Z</time>
      </trkpt>
      <trkpt lat="44.09123" lon="3.0677">
        <ele>356</ele>
        <time>2018-05-19T13:20:23Z</time>
      </trkpt>
      <trkpt lat="44.09125" lon="3.06781">
        <ele>356</ele>
        <time>2018-05-19T13:20:24Z</time>
      </trkpt>
      <trkpt lat="44.09126" lon="3.06789">
        <ele>356</ele>
        <time>2018-05-19T13:20:25Z</time>
      </trkpt>
      <trkpt lat="44.09128" lon="3.06797">
        <ele>356</ele>
        <time>2018-05-19T13:20:26Z</time>
      </trkpt>
      <trkpt lat="44.09128" lon="3.06803">
        <ele>356</ele>
        <time>2018-05-19T13:20:27Z</time>
      </trkpt>
      <trkpt lat="44.0913" lon="3.0681">
        <ele>356</ele>
        <time>2018-05-19T13:20:28Z</time>
      </trkpt>
      <trkpt lat="44.09132" lon="3.06817">
        <ele>356</ele>
        <time>2018-05-19T13:20:29Z</time>
      </trkpt>
      <trkpt lat="44.09133" lon="3.06824">
        <ele>356</ele>
        <time>2018-05-19T13:20:30Z</time>
      </trkpt>
      <trkpt lat="44.09135" lon="3.0683">
        <ele>355.9</ele>
        <time>2018-05-19T13:20:31Z</time>
      </trkpt>
      <trkpt lat="44.09135" lon="3.06837">
        <ele>355.6</ele>
        <time>2018-05-19T13:20:32Z</time>
      </trkpt>
      <trkpt lat="44.09137" lon="3.06844">
        <ele>355.2</ele>
        <time>2018-05-19T13:20:33Z</time>
      </trkpt>
      <trkpt lat="44.09138" lon="3.06848">
        <ele>355</ele>
        <time>2018-05-19T13:20:34Z</time>
      </trkpt>
      <trkpt lat="44.09139" lon="3.06855">
        <ele>355</ele>
        <time>2018-05-19T13:20:35Z</time>
      </trkpt>
      <trkpt lat="44.0914" lon="3.06861">
        <ele>354.9</ele>
        <time>2018-05-19T13:20:36Z</time>
      </trkpt>
      <trkpt lat="44.09141" lon="3.06867">
        <ele>354.6</ele>
        <time>2018-05-19T13:20:37Z</time>
      </trkpt>
      <trkpt lat="44.09144" lon="3.06875">
        <ele>354.3</ele>
        <time>2018-05-19T13:20:38Z</time>
      </trkpt>
      <trkpt lat="44.09145" lon="3.06883">
        <ele>354.1</ele>
        <time>2018-05-19T13:20:39Z</time>
      </trkpt>
      <trkpt lat="44.09146" lon="3.06889">
        <ele>353.9</ele>
        <time>2018-05-19T13:20:40Z</time>
      </trkpt>
      <trkpt lat="44.09147" lon="3.06896">
        <ele>353.6</ele>
        <time>2018-05-19T13:20:41Z</time>
      </trkpt>
      <trkpt lat="44.09149" lon="3.06905">
        <ele>353.3</ele>
        <time>2018-05-19T13:20:42Z</time>
      </trkpt>
      <trkpt lat="44.0915" lon="3.06911">
        <ele>353</ele>
        <time>2018-05-19T13:20:43Z</time>
      </trkpt>
      <trkpt lat="44.09151" lon="3.06918">
        <ele>352.8</ele>
        <time>2018-05-19T13:20:44Z</time>
      </trkpt>
      <trkpt lat="44.09151" lon="3.06928">
        <ele>352.4</ele>
        <time>2018-05-19T13:20:46Z</time>
      </trkpt>
      <trkpt lat="44.09154" lon="3.06935">
        <ele>352</ele>
        <time>2018-05-19T13:20:47Z</time>
      </trkpt>
      <trkpt lat="44.09155" lon="3.06941">
        <ele>352.2</ele>
        <time>2018-05-19T13:20:48Z</time>
      </trkpt>
      <trkpt lat="44.09157" lon="3.06948">
        <ele>352.5</ele>
        <time>2018-05-19T13:20:49Z</time>
      </trkpt>
      <trkpt lat="44.09159" lon="3.06955">
        <ele>352.7</ele>
        <time>2018-05-19T13:20:50Z</time>
      </trkpt>
      <trkpt lat="44.09161" lon="3.06963">
        <ele>353.1</ele>
        <time>2018-05-19T13:20:51Z</time>
      </trkpt>
      <trkpt lat="44.09164" lon="3.0697">
        <ele>353.4</ele>
        <time>2018-05-19T13:20:52Z</time>
      </trkpt>
      <trkpt lat="44.09166" lon="3.06977">
        <ele>353.7</ele>
        <time>2018-05-19T13:20:53Z</time>
      </trkpt>
      <trkpt lat="44.09169" lon="3.06983">
        <ele>354</ele>
        <time>2018-05-19T13:20:54Z</time>
      </trkpt>
      <trkpt lat="44.09173" lon="3.06992">
        <ele>354.4</ele>
        <time>2018-05-19T13:20:55Z</time>
      </trkpt>
      <trkpt lat="44.09175" lon="3.06997">
        <ele>354.7</ele>
        <time>2018-05-19T13:20:56Z</time>
      </trkpt>
      <trkpt lat="44.09176" lon="3.07003">
        <ele>355</ele>
        <time>2018-05-19T13:20:57Z</time>
      </trkpt>
      <trkpt lat="44.09177" lon="3.07008">
        <ele>355</ele>
        <time>2018-05-19T13:20:58Z</time>
      </trkpt>
      <trkpt lat="44.09179" lon="3.07011">
        <ele>355</ele>
        <time>2018-05-19T13:20:59Z</time>
      </trkpt>
      <trkpt lat="44.09181" lon="3.07013">
        <ele>355</ele>
        <time>2018-05-19T13:21:01Z</time>
      </trkpt>
      <trkpt lat="44.09183" lon="3.07018">
        <ele>355</ele>
        <time>2018-05-19T13:21:03Z</time>
      </trkpt>
      <trkpt lat="44.09182" lon="3.07022">
        <ele>355</ele>
        <time>2018-05-19T13:21:04Z</time>
      </trkpt>
      <trkpt lat="44.09184" lon="3.07024">
        <ele>355</ele>
        <time>2018-05-19T13:21:08Z</time>
      </trkpt>
      <trkpt lat="44.09187" lon="3.07027">
        <ele>355</ele>
        <time>2018-05-19T13:21:13Z</time>
      </trkpt>
      <trkpt lat="44.09189" lon="3.07031">
        <ele>355</ele>
        <time>2018-05-19T13:21:15Z</time>
      </trkpt>
      <trkpt lat="44.09192" lon="3.07037">
        <ele>355</ele>
        <time>2018-05-19T13:21:17Z</time>
      </trkpt>
      <trkpt lat="44.09193" lon="3.0704">
        <ele>355</ele>
        <time>2018-05-19T13:21:18Z</time>
      </trkpt>
      <trkpt lat="44.09196" lon="3.07044">
        <ele>355</ele>
        <time>2018-05-19T13:21:20Z</time>
      </trkpt>
      <trkpt lat="44.09198" lon="3.07048">
        <ele>354.9</ele>
        <time>2018-05-19T13:21:22Z</time>
      </trkpt>
      <trkpt lat="44.09198" lon="3.07053">
        <ele>354.9</ele>
        <time>2018-05-19T13:21:24Z</time>
      </trkpt>
      <trkpt lat="44.09198" lon="3.07059">
        <ele>354.9</ele>
        <time>2018-05-19T13:21:26Z</time>
      </trkpt>
      <trkpt lat="44.09199" lon="3.07063">
        <ele>354.9</ele>
        <time>2018-05-19T13:21:27Z</time>
      </trkpt>
      <trkpt lat="44.092" lon="3.07067">
        <ele>354.9</ele>
        <time>2018-05-19T13:21:28Z</time>
      </trkpt>
      <trkpt lat="44.09203" lon="3.0707">
        <ele>355</ele>
        <time>2018-05-19T13:21:29Z</time>
      </trkpt>
      <trkpt lat="44.09206" lon="3.07073">
        <ele>355</ele>
        <time>2018-05-19T13:21:30Z</time>
      </trkpt>
      <trkpt lat="44.09209" lon="3.07076">
        <ele>355</ele>
        <time>2018-05-19T13:21:31Z</time>
      </trkpt>
      <trkpt lat="44.09211" lon="3.07079">
        <ele>355</ele>
        <time>2018-05-19T13:21:32Z</time>
      </trkpt>
      <trkpt lat="44.09214" lon="3.07083">
        <ele>355</ele>
        <time>2018-05-19T13:21:33Z</time>
      </trkpt>
      <trkpt lat="44.09216" lon="3.07086">
        <ele>355</ele>
        <time>2018-05-19T13:21:34Z</time>
      </trkpt>
      <trkpt lat="44.09218" lon="3.0709">
        <ele>355.1</ele>
        <time>2018-05-19T13:21:35Z</time>
      </trkpt>
      <trkpt lat="44.09221" lon="3.07093">
        <ele>355.2</ele>
        <time>2018-05-19T13:21:36Z</time>
      </trkpt>
      <trkpt lat="44.09224" lon="3.07097">
        <ele>355.3</ele>
        <time>2018-05-19T13:21:37Z</time>
      </trkpt>
      <trkpt lat="44.09227" lon="3.07101">
        <ele>355.4</ele>
        <time>2018-05-19T13:21:38Z</time>
      </trkpt>
      <trkpt lat="44.09229" lon="3.07104">
        <ele>355.5</ele>
        <time>2018-05-19T13:21:39Z</time>
      </trkpt>
      <trkpt lat="44.09231" lon="3.07107">
        <ele>355.5</ele>
        <time>2018-05-19T13:21:40Z</time>
      </trkpt>
      <trkpt lat="44.09234" lon="3.07109">
        <ele>355.6</ele>
        <time>2018-05-19T13:21:41Z</time>
      </trkpt>
      <trkpt lat="44.09236" lon="3.07112">
        <ele>355.7</ele>
        <time>2018-05-19T13:21:42Z</time>
      </trkpt>
      <trkpt lat="44.09238" lon="3.07115">
        <ele>355.8</ele>
        <time>2018-05-19T13:21:43Z</time>
      </trkpt>
      <trkpt lat="44.0924" lon="3.07119">
        <ele>355.9</ele>
        <time>2018-05-19T13:21:44Z</time>
      </trkpt>
      <trkpt lat="44.09242" lon="3.07122">
        <ele>356</ele>
        <time>2018-05-19T13:21:45Z</time>
      </trkpt>
      <trkpt lat="44.09244" lon="3.07126">
        <ele>356.1</ele>
        <time>2018-05-19T13:21:46Z</time>
      </trkpt>
      <trkpt lat="44.09247" lon="3.0713">
        <ele>356.2</ele>
        <time>2018-05-19T13:21:47Z</time>
      </trkpt>
      <trkpt lat="44.09249" lon="3.07134">
        <ele>356.3</ele>
        <time>2018-05-19T13:21:49Z</time>
      </trkpt>
      <trkpt lat="44.09252" lon="3.07139">
        <ele>356.4</ele>
        <time>2018-05-19T13:21:51Z</time>
      </trkpt>
      <trkpt lat="44.09254" lon="3.07142">
        <ele>356.5</ele>
        <time>2018-05-19T13:21:52Z</time>
      </trkpt>
      <trkpt lat="44.09256" lon="3.07146">
        <ele>356.7</ele>
        <time>2018-05-19T13:21:53Z</time>
      </trkpt>
      <trkpt lat="44.09258" lon="3.0715">
        <ele>356.8</ele>
        <time>2018-05-19T13:21:54Z</time>
      </trkpt>
      <trkpt lat="44.0926" lon="3.07154">
        <ele>356.9</ele>
        <time>2018-05-19T13:21:55Z</time>
      </trkpt>
      <trkpt lat="44.09262" lon="3.07158">
        <ele>357</ele>
        <time>2018-05-19T13:21:56Z</time>
      </trkpt>
      <trkpt lat="44.09265" lon="3.07162">
        <ele>357</ele>
        <time>2018-05-19T13:21:57Z</time>
      </trkpt>
      <trkpt lat="44.09267" lon="3.07167">
        <ele>357</ele>
        <time>2018-05-19T13:21:59Z</time>
      </trkpt>
      <trkpt lat="44.09269" lon="3.07174">
        <ele>357</ele>
        <time>2018-05-19T13:22:01Z</time>
      </trkpt>
      <trkpt lat="44.0927" lon="3.07178">
        <ele>357</ele>
        <time>2018-05-19T13:22:02Z</time>
      </trkpt>
      <trkpt lat="44.09272" lon="3.07183">
        <ele>357</ele>
        <time>2018-05-19T13:22:03Z</time>
      </trkpt>
      <trkpt lat="44.09273" lon="3.07187">
        <ele>357</ele>
        <time>2018-05-19T13:22:04Z</time>
      </trkpt>
      <trkpt lat="44.09274" lon="3.07191">
        <ele>357</ele>
        <time>2018-05-19T13:22:05Z</time>
      </trkpt>
      <trkpt lat="44.09276" lon="3.07196">
        <ele>357</ele>
        <time>2018-05-19T13:22:06Z</time>
      </trkpt>
      <trkpt lat="44.09277" lon="3.072">
        <ele>357</ele>
        <time>2018-05-19T13:22:07Z</time>
      </trkpt>
      <trkpt lat="44.09278" lon="3.07205">
        <ele>357</ele>
        <time>2018-05-19T13:22:08Z</time>
      </trkpt>
      <trkpt lat="44.09278" lon="3.07209">
        <ele>357</ele>
        <time>2018-05-19T13:22:09Z</time>
      </trkpt>
      <trkpt lat="44.09279" lon="3.07214">
        <ele>356.9</ele>
        <time>2018-05-19T13:22:10Z</time>
      </trkpt>
      <trkpt lat="44.0928" lon="3.07218">
        <ele>356.9</ele>
        <time>2018-05-19T13:22:11Z</time>
      </trkpt>
      <trkpt lat="44.09281" lon="3.07223">
        <ele>356.9</ele>
        <time>2018-05-19T13:22:12Z</time>
      </trkpt>
      <trkpt lat="44.09282" lon="3.07228">
        <ele>356.8</ele>
        <time>2018-05-19T13:22:13Z</time>
      </trkpt>
      <trkpt lat="44.09283" lon="3.07232">
        <ele>356.8</ele>
        <time>2018-05-19T13:22:14Z</time>
      </trkpt>
      <trkpt lat="44.09285" lon="3.07236">
        <ele>356.7</ele>
        <time>2018-05-19T13:22:15Z</time>
      </trkpt>
      <trkpt lat="44.09287" lon="3.07239">
        <ele>356.7</ele>
        <time>2018-05-19T13:22:16Z</time>
      </trkpt>
      <trkpt lat="44.09289" lon="3.07243">
        <ele>356.6</ele>
        <time>2018-05-19T13:22:17Z</time>
      </trkpt>
      <trkpt lat="44.09291" lon="3.07246">
        <ele>356.5</ele>
        <time>2018-05-19T13:22:18Z</time>
      </trkpt>
      <trkpt lat="44.09293" lon="3.07249">
        <ele>356.5</ele>
        <time>2018-05-19T13:22:19Z</time>
      </trkpt>
      <trkpt lat="44.09294" lon="3.07253">
        <ele>356.4</ele>
        <time>2018-05-19T13:22:20Z</time>
      </trkpt>
      <trkpt lat="44.09296" lon="3.07256">
        <ele>356.4</ele>
        <time>2018-05-19T13:22:21Z</time>
      </trkpt>
      <trkpt lat="44.09299" lon="3.07262">
        <ele>356.3</ele>
        <time>2018-05-19T13:22:23Z</time>
      </trkpt>
      <trkpt lat="44.093" lon="3.07265">
        <ele>356</ele>
        <time>2018-05-19T13:22:24Z</time>
      </trkpt>
      <trkpt lat="44.09302" lon="3.07269">
        <ele>356</ele>
        <time>2018-05-19T13:22:25Z</time>
      </trkpt>
      <trkpt lat="44.09303" lon="3.07272">
        <ele>356</ele>
        <time>2018-05-19T13:22:26Z</time>
      </trkpt>
      <trkpt lat="44.09304" lon="3.07276">
        <ele>356</ele>
        <time>2018-05-19T13:22:27Z</time>
      </trkpt>
      <trkpt lat="44.09306" lon="3.07279">
        <ele>356</ele>
        <time>2018-05-19T13:22:28Z</time>
      </trkpt>
      <trkpt lat="44.09307" lon="3.07282">
        <ele>355.9</ele>
        <time>2018-05-19T13:22:29Z</time>
      </trkpt>
      <trkpt lat="44.09309" lon="3.07286">
        <ele>355.9</ele>
        <time>2018-05-19T13:22:30Z</time>
      </trkpt>
      <trkpt lat="44.0931" lon="3.07289">
        <ele>355.9</ele>
        <time>2018-05-19T13:22:31Z</time>
      </trkpt>
      <trkpt lat="44.09312" lon="3.07292">
        <ele>355.9</ele>
        <time>2018-05-19T13:22:32Z</time>
      </trkpt>
      <trkpt lat="44.09313" lon="3.07296">
        <ele>355.8</ele>
        <time>2018-05-19T13:22:33Z</time>
      </trkpt>
      <trkpt lat="44.09314" lon="3.073">
        <ele>355.8</ele>
        <time>2018-05-19T13:22:34Z</time>
      </trkpt>
      <trkpt lat="44.09316" lon="3.07303">
        <ele>355.8</ele>
        <time>2018-05-19T13:22:35Z</time>
      </trkpt>
      <trkpt lat="44.09317" lon="3.07307">
        <ele>355.8</ele>
        <time>2018-05-19T13:22:36Z</time>
      </trkpt>
      <trkpt lat="44.09319" lon="3.07313">
        <ele>355.9</ele>
        <time>2018-05-19T13:22:38Z</time>
      </trkpt>
      <trkpt lat="44.09321" lon="3.07317">
        <ele>355.9</ele>
        <time>2018-05-19T13:22:40Z</time>
      </trkpt>
      <trkpt lat="44.09323" lon="3.07323">
        <ele>356</ele>
        <time>2018-05-19T13:22:42Z</time>
      </trkpt>
      <trkpt lat="44.09324" lon="3.07327">
        <ele>356.1</ele>
        <time>2018-05-19T13:22:45Z</time>
      </trkpt>
      <trkpt lat="44.09325" lon="3.07331">
        <ele>356.1</ele>
        <time>2018-05-19T13:22:52Z</time>
      </trkpt>
      <trkpt lat="44.09328" lon="3.07336">
        <ele>356.2</ele>
        <time>2018-05-19T13:23:58Z</time>
      </trkpt>
      <trkpt lat="44.09329" lon="3.07339">
        <ele>356.2</ele>
        <time>2018-05-19T13:24:00Z</time>
      </trkpt>
      <trkpt lat="44.09331" lon="3.07343">
        <ele>356.2</ele>
        <time>2018-05-19T13:24:02Z</time>
      </trkpt>
      <trkpt lat="44.09333" lon="3.07348">
        <ele>356.2</ele>
        <time>2018-05-19T13:24:05Z</time>
      </trkpt>
      <trkpt lat="44.09335" lon="3.07351">
        <ele>356.2</ele>
        <time>2018-05-19T13:24:07Z</time>
      </trkpt>
      <trkpt lat="44.09337" lon="3.07355">
        <ele>356.2</ele>
        <time>2018-05-19T13:24:09Z</time>
      </trkpt>
      <trkpt lat="44.09339" lon="3.07359">
        <ele>356.2</ele>
        <time>2018-05-19T13:24:11Z</time>
      </trkpt>
      <trkpt lat="44.0934" lon="3.07365">
        <ele>356.3</ele>
        <time>2018-05-19T13:24:13Z</time>
      </trkpt>
      <trkpt lat="44.09342" lon="3.0737">
        <ele>356.3</ele>
        <time>2018-05-19T13:24:15Z</time>
      </trkpt>
      <trkpt lat="44.09344" lon="3.07377">
        <ele>356.3</ele>
        <time>2018-05-19T13:24:17Z</time>
      </trkpt>
      <trkpt lat="44.09346" lon="3.07384">
        <ele>356.3</ele>
        <time>2018-05-19T13:24:19Z</time>
      </trkpt>
      <trkpt lat="44.09347" lon="3.07388">
        <ele>356.2</ele>
        <time>2018-05-19T13:24:20Z</time>
      </trkpt>
      <trkpt lat="44.09348" lon="3.07394">
        <ele>356.2</ele>
        <time>2018-05-19T13:24:22Z</time>
      </trkpt>
      <trkpt lat="44.09349" lon="3.074">
        <ele>356</ele>
        <time>2018-05-19T13:24:24Z</time>
      </trkpt>
      <trkpt lat="44.09348" lon="3.07404">
        <ele>355.9</ele>
        <time>2018-05-19T13:24:25Z</time>
      </trkpt>
      <trkpt lat="44.09347" lon="3.07408">
        <ele>355.7</ele>
        <time>2018-05-19T13:24:26Z</time>
      </trkpt>
      <trkpt lat="44.09345" lon="3.07413">
        <ele>355.4</ele>
        <time>2018-05-19T13:24:27Z</time>
      </trkpt>
      <trkpt lat="44.09342" lon="3.07418">
        <ele>355</ele>
        <time>2018-05-19T13:24:28Z</time>
      </trkpt>
      <trkpt lat="44.09338" lon="3.07423">
        <ele>354.5</ele>
        <time>2018-05-19T13:24:29Z</time>
      </trkpt>
      <trkpt lat="44.09335" lon="3.07428">
        <ele>354.1</ele>
        <time>2018-05-19T13:24:30Z</time>
      </trkpt>
    </trkseg>
  </trk>
</gpx>